<?xml version="1.0" encoding="UTF-8"?>
<gpx version="1.1" creator="https://www.youtrack.es" xsi:schemaLocation="http://www.topografix.com/GPX/1/1 http://www.topografix.com/GPX/1/1/gpx.xsd http://www.garmin.com/xmlschemas/GpxExtensions/v3 http://www.garmin.com/xmlschemas/GpxExtensionsv3.xsd http://www.garmin.com/xmlschemas/TrackPointExtension/v1 http://www.garmin.com/xmlschemas/TrackPointExtensionv1.xsd" xmlns:gpxtpx="http://www.garmin.com/xmlschemas/TrackPointExtension/v1" xmlns:gpxx="http://www.garmin.com/xmlschemas/GpxExtensions/v3" xmlns:xsi="http://www.w3.org/2001/XMLSchema-instance">
  <metadata>
    <link href="https://www.youtrack.es">
      <text>YouTrack.es</text>
    </link>
    <time>2026-05-08T00:57:32Z</time>
  </metadata>
  <trk>
    <src>https://www.youtrack.es</src>
    <link href="https://www.youtrack.es/ruta/630-cuerda-larga">
      <text>YouTrack.es</text>
    </link>
    <trkseg>
      <trkpt lat="40.828042" lon="-3.830531">
        <ele>1775.1</ele>
        <time>2018-04-21T05:42:31.000Z</time>
      </trkpt>
      <trkpt lat="40.828042" lon="-3.830533">
        <ele>1775.1</ele>
        <time>2018-04-21T05:42:32.000Z</time>
      </trkpt>
      <trkpt lat="40.828042" lon="-3.830537">
        <ele>1775.2</ele>
        <time>2018-04-21T05:42:33.000Z</time>
      </trkpt>
      <trkpt lat="40.828041" lon="-3.830541">
        <ele>1775.3</ele>
        <time>2018-04-21T05:42:34.000Z</time>
      </trkpt>
      <trkpt lat="40.828041" lon="-3.830545">
        <ele>1775.4</ele>
        <time>2018-04-21T05:42:35.000Z</time>
      </trkpt>
      <trkpt lat="40.828041" lon="-3.83055">
        <ele>1775.4</ele>
        <time>2018-04-21T05:42:36.000Z</time>
      </trkpt>
      <trkpt lat="40.828042" lon="-3.830555">
        <ele>1775.5</ele>
        <time>2018-04-21T05:42:37.000Z</time>
      </trkpt>
      <trkpt lat="40.828042" lon="-3.830561">
        <ele>1775.6</ele>
        <time>2018-04-21T05:42:38.000Z</time>
      </trkpt>
      <trkpt lat="40.828043" lon="-3.830567">
        <ele>1775.7</ele>
        <time>2018-04-21T05:42:39.000Z</time>
      </trkpt>
      <trkpt lat="40.828043" lon="-3.830573">
        <ele>1775.8</ele>
        <time>2018-04-21T05:42:40.000Z</time>
      </trkpt>
      <trkpt lat="40.828044" lon="-3.83058">
        <ele>1775.9</ele>
        <time>2018-04-21T05:42:41.000Z</time>
      </trkpt>
      <trkpt lat="40.828045" lon="-3.830588">
        <ele>1776.0</ele>
        <time>2018-04-21T05:42:42.000Z</time>
      </trkpt>
      <trkpt lat="40.828045" lon="-3.830595">
        <ele>1776.1</ele>
        <time>2018-04-21T05:42:43.000Z</time>
      </trkpt>
      <trkpt lat="40.828046" lon="-3.830603">
        <ele>1776.2</ele>
        <time>2018-04-21T05:42:44.000Z</time>
      </trkpt>
      <trkpt lat="40.828047" lon="-3.830612">
        <ele>1776.3</ele>
        <time>2018-04-21T05:42:45.000Z</time>
      </trkpt>
      <trkpt lat="40.828048" lon="-3.83062">
        <ele>1776.4</ele>
        <time>2018-04-21T05:42:46.000Z</time>
      </trkpt>
      <trkpt lat="40.82805" lon="-3.830629">
        <ele>1776.5</ele>
        <time>2018-04-21T05:42:47.000Z</time>
      </trkpt>
      <trkpt lat="40.828051" lon="-3.830638">
        <ele>1776.6</ele>
        <time>2018-04-21T05:42:48.000Z</time>
      </trkpt>
      <trkpt lat="40.828052" lon="-3.830648">
        <ele>1776.8</ele>
        <time>2018-04-21T05:42:49.000Z</time>
      </trkpt>
      <trkpt lat="40.828054" lon="-3.830658">
        <ele>1776.9</ele>
        <time>2018-04-21T05:42:50.000Z</time>
      </trkpt>
      <trkpt lat="40.828055" lon="-3.830668">
        <ele>1777.0</ele>
        <time>2018-04-21T05:42:51.000Z</time>
      </trkpt>
      <trkpt lat="40.828056" lon="-3.830678">
        <ele>1777.2</ele>
        <time>2018-04-21T05:42:52.000Z</time>
      </trkpt>
      <trkpt lat="40.828058" lon="-3.830688">
        <ele>1777.3</ele>
        <time>2018-04-21T05:42:53.000Z</time>
      </trkpt>
      <trkpt lat="40.828059" lon="-3.830699">
        <ele>1777.4</ele>
        <time>2018-04-21T05:42:54.000Z</time>
      </trkpt>
      <trkpt lat="40.828061" lon="-3.83071">
        <ele>1777.6</ele>
        <time>2018-04-21T05:42:55.000Z</time>
      </trkpt>
      <trkpt lat="40.828062" lon="-3.830721">
        <ele>1777.7</ele>
        <time>2018-04-21T05:42:56.000Z</time>
      </trkpt>
      <trkpt lat="40.828064" lon="-3.830732">
        <ele>1777.9</ele>
        <time>2018-04-21T05:42:57.000Z</time>
      </trkpt>
      <trkpt lat="40.828066" lon="-3.830744">
        <ele>1778.0</ele>
        <time>2018-04-21T05:42:58.000Z</time>
      </trkpt>
      <trkpt lat="40.828067" lon="-3.830755">
        <ele>1778.2</ele>
        <time>2018-04-21T05:42:59.000Z</time>
      </trkpt>
      <trkpt lat="40.828069" lon="-3.830767">
        <ele>1778.3</ele>
        <time>2018-04-21T05:43:00.000Z</time>
      </trkpt>
      <trkpt lat="40.82807" lon="-3.830779">
        <ele>1778.5</ele>
        <time>2018-04-21T05:43:01.000Z</time>
      </trkpt>
      <trkpt lat="40.828072" lon="-3.830791">
        <ele>1778.7</ele>
        <time>2018-04-21T05:43:02.000Z</time>
      </trkpt>
      <trkpt lat="40.828073" lon="-3.830803">
        <ele>1778.8</ele>
        <time>2018-04-21T05:43:03.000Z</time>
      </trkpt>
      <trkpt lat="40.828075" lon="-3.830815">
        <ele>1779.0</ele>
        <time>2018-04-21T05:43:04.000Z</time>
      </trkpt>
      <trkpt lat="40.828076" lon="-3.830827">
        <ele>1779.1</ele>
        <time>2018-04-21T05:43:05.000Z</time>
      </trkpt>
      <trkpt lat="40.828078" lon="-3.830839">
        <ele>1779.2</ele>
        <time>2018-04-21T05:43:06.000Z</time>
      </trkpt>
      <trkpt lat="40.828079" lon="-3.830851">
        <ele>1779.2</ele>
        <time>2018-04-21T05:43:07.000Z</time>
      </trkpt>
      <trkpt lat="40.82808" lon="-3.830863">
        <ele>1779.2</ele>
        <time>2018-04-21T05:43:08.000Z</time>
      </trkpt>
      <trkpt lat="40.828081" lon="-3.830875">
        <ele>1779.2</ele>
        <time>2018-04-21T05:43:09.000Z</time>
      </trkpt>
      <trkpt lat="40.828083" lon="-3.830888">
        <ele>1779.1</ele>
        <time>2018-04-21T05:43:10.000Z</time>
      </trkpt>
      <trkpt lat="40.828084" lon="-3.8309">
        <ele>1779.1</ele>
        <time>2018-04-21T05:43:11.000Z</time>
      </trkpt>
      <trkpt lat="40.828085" lon="-3.830912">
        <ele>1779.1</ele>
        <time>2018-04-21T05:43:12.000Z</time>
      </trkpt>
      <trkpt lat="40.828087" lon="-3.830924">
        <ele>1779.1</ele>
        <time>2018-04-21T05:43:13.000Z</time>
      </trkpt>
      <trkpt lat="40.828088" lon="-3.830936">
        <ele>1779.1</ele>
        <time>2018-04-21T05:43:14.000Z</time>
      </trkpt>
      <trkpt lat="40.82809" lon="-3.830948">
        <ele>1779.1</ele>
        <time>2018-04-21T05:43:15.000Z</time>
      </trkpt>
      <trkpt lat="40.828092" lon="-3.83096">
        <ele>1779.0</ele>
        <time>2018-04-21T05:43:16.000Z</time>
      </trkpt>
      <trkpt lat="40.828094" lon="-3.830972">
        <ele>1779.0</ele>
        <time>2018-04-21T05:43:17.000Z</time>
      </trkpt>
      <trkpt lat="40.828097" lon="-3.830983">
        <ele>1779.0</ele>
        <time>2018-04-21T05:43:18.000Z</time>
      </trkpt>
      <trkpt lat="40.828099" lon="-3.830994">
        <ele>1778.9</ele>
        <time>2018-04-21T05:43:19.000Z</time>
      </trkpt>
      <trkpt lat="40.828102" lon="-3.831004">
        <ele>1778.9</ele>
        <time>2018-04-21T05:43:20.000Z</time>
      </trkpt>
      <trkpt lat="40.828104" lon="-3.831013">
        <ele>1778.9</ele>
        <time>2018-04-21T05:43:21.000Z</time>
      </trkpt>
      <trkpt lat="40.828106" lon="-3.831019">
        <ele>1778.8</ele>
        <time>2018-04-21T05:43:22.000Z</time>
      </trkpt>
      <trkpt lat="40.828107" lon="-3.831022">
        <ele>1778.8</ele>
        <time>2018-04-21T05:43:23.000Z</time>
      </trkpt>
      <trkpt lat="40.828107" lon="-3.831023">
        <ele>1778.8</ele>
        <time>2018-04-21T05:43:24.000Z</time>
      </trkpt>
      <trkpt lat="40.828107" lon="-3.831023">
        <ele>1778.8</ele>
        <time>2018-04-21T05:43:25.000Z</time>
      </trkpt>
      <trkpt lat="40.828107" lon="-3.831022">
        <ele>1778.8</ele>
        <time>2018-04-21T05:43:26.000Z</time>
      </trkpt>
      <trkpt lat="40.828107" lon="-3.83102">
        <ele>1778.8</ele>
        <time>2018-04-21T05:43:27.000Z</time>
      </trkpt>
      <trkpt lat="40.828107" lon="-3.831018">
        <ele>1778.8</ele>
        <time>2018-04-21T05:43:28.000Z</time>
      </trkpt>
      <trkpt lat="40.828106" lon="-3.831017">
        <ele>1778.8</ele>
        <time>2018-04-21T05:43:29.000Z</time>
      </trkpt>
      <trkpt lat="40.828106" lon="-3.831016">
        <ele>1778.8</ele>
        <time>2018-04-21T05:43:30.000Z</time>
      </trkpt>
      <trkpt lat="40.828106" lon="-3.831016">
        <ele>1778.8</ele>
        <time>2018-04-21T05:43:31.000Z</time>
      </trkpt>
      <trkpt lat="40.828106" lon="-3.831018">
        <ele>1778.8</ele>
        <time>2018-04-21T05:43:32.000Z</time>
      </trkpt>
      <trkpt lat="40.828106" lon="-3.831022">
        <ele>1778.8</ele>
        <time>2018-04-21T05:43:33.000Z</time>
      </trkpt>
      <trkpt lat="40.828106" lon="-3.831028">
        <ele>1778.8</ele>
        <time>2018-04-21T05:43:34.000Z</time>
      </trkpt>
      <trkpt lat="40.828107" lon="-3.831037">
        <ele>1778.8</ele>
        <time>2018-04-21T05:43:35.000Z</time>
      </trkpt>
      <trkpt lat="40.828107" lon="-3.83105">
        <ele>1778.8</ele>
        <time>2018-04-21T05:43:36.000Z</time>
      </trkpt>
      <trkpt lat="40.828107" lon="-3.831064">
        <ele>1778.8</ele>
        <time>2018-04-21T05:43:37.000Z</time>
      </trkpt>
      <trkpt lat="40.828108" lon="-3.831081">
        <ele>1778.8</ele>
        <time>2018-04-21T05:43:38.000Z</time>
      </trkpt>
      <trkpt lat="40.828109" lon="-3.831098">
        <ele>1778.8</ele>
        <time>2018-04-21T05:43:39.000Z</time>
      </trkpt>
      <trkpt lat="40.828111" lon="-3.831114">
        <ele>1778.8</ele>
        <time>2018-04-21T05:43:40.000Z</time>
      </trkpt>
      <trkpt lat="40.828112" lon="-3.83113">
        <ele>1778.8</ele>
        <time>2018-04-21T05:43:41.000Z</time>
      </trkpt>
      <trkpt lat="40.828114" lon="-3.831145">
        <ele>1778.8</ele>
        <time>2018-04-21T05:43:42.000Z</time>
      </trkpt>
      <trkpt lat="40.828116" lon="-3.83116">
        <ele>1778.8</ele>
        <time>2018-04-21T05:43:43.000Z</time>
      </trkpt>
      <trkpt lat="40.828118" lon="-3.831174">
        <ele>1778.8</ele>
        <time>2018-04-21T05:43:44.000Z</time>
      </trkpt>
      <trkpt lat="40.82812" lon="-3.831189">
        <ele>1778.8</ele>
        <time>2018-04-21T05:43:45.000Z</time>
      </trkpt>
      <trkpt lat="40.828122" lon="-3.831204">
        <ele>1778.7</ele>
        <time>2018-04-21T05:43:46.000Z</time>
      </trkpt>
      <trkpt lat="40.828123" lon="-3.831219">
        <ele>1778.7</ele>
        <time>2018-04-21T05:43:47.000Z</time>
      </trkpt>
      <trkpt lat="40.828125" lon="-3.831234">
        <ele>1778.7</ele>
        <time>2018-04-21T05:43:48.000Z</time>
      </trkpt>
      <trkpt lat="40.828126" lon="-3.831249">
        <ele>1778.7</ele>
        <time>2018-04-21T05:43:49.000Z</time>
      </trkpt>
      <trkpt lat="40.828127" lon="-3.831264">
        <ele>1778.7</ele>
        <time>2018-04-21T05:43:50.000Z</time>
      </trkpt>
      <trkpt lat="40.828128" lon="-3.831279">
        <ele>1778.7</ele>
        <time>2018-04-21T05:43:51.000Z</time>
      </trkpt>
      <trkpt lat="40.828129" lon="-3.831295">
        <ele>1778.7</ele>
        <time>2018-04-21T05:43:52.000Z</time>
      </trkpt>
      <trkpt lat="40.828129" lon="-3.83131">
        <ele>1778.8</ele>
        <time>2018-04-21T05:43:53.000Z</time>
      </trkpt>
      <trkpt lat="40.82813" lon="-3.831326">
        <ele>1778.8</ele>
        <time>2018-04-21T05:43:54.000Z</time>
      </trkpt>
      <trkpt lat="40.828131" lon="-3.831341">
        <ele>1778.8</ele>
        <time>2018-04-21T05:43:55.000Z</time>
      </trkpt>
      <trkpt lat="40.828132" lon="-3.831356">
        <ele>1778.8</ele>
        <time>2018-04-21T05:43:56.000Z</time>
      </trkpt>
      <trkpt lat="40.828132" lon="-3.831372">
        <ele>1778.8</ele>
        <time>2018-04-21T05:43:57.000Z</time>
      </trkpt>
      <trkpt lat="40.828133" lon="-3.831387">
        <ele>1778.8</ele>
        <time>2018-04-21T05:43:58.000Z</time>
      </trkpt>
      <trkpt lat="40.828134" lon="-3.831403">
        <ele>1778.8</ele>
        <time>2018-04-21T05:43:59.000Z</time>
      </trkpt>
      <trkpt lat="40.828135" lon="-3.831418">
        <ele>1778.8</ele>
        <time>2018-04-21T05:44:00.000Z</time>
      </trkpt>
      <trkpt lat="40.828136" lon="-3.831434">
        <ele>1778.8</ele>
        <time>2018-04-21T05:44:01.000Z</time>
      </trkpt>
      <trkpt lat="40.828137" lon="-3.831449">
        <ele>1778.8</ele>
        <time>2018-04-21T05:44:02.000Z</time>
      </trkpt>
      <trkpt lat="40.828138" lon="-3.831464">
        <ele>1778.8</ele>
        <time>2018-04-21T05:44:03.000Z</time>
      </trkpt>
      <trkpt lat="40.828139" lon="-3.831479">
        <ele>1778.8</ele>
        <time>2018-04-21T05:44:04.000Z</time>
      </trkpt>
      <trkpt lat="40.828141" lon="-3.831494">
        <ele>1778.8</ele>
        <time>2018-04-21T05:44:05.000Z</time>
      </trkpt>
      <trkpt lat="40.828142" lon="-3.831509">
        <ele>1778.8</ele>
        <time>2018-04-21T05:44:06.000Z</time>
      </trkpt>
      <trkpt lat="40.828144" lon="-3.831524">
        <ele>1778.8</ele>
        <time>2018-04-21T05:44:07.000Z</time>
      </trkpt>
      <trkpt lat="40.828145" lon="-3.83154">
        <ele>1778.9</ele>
        <time>2018-04-21T05:44:08.000Z</time>
      </trkpt>
      <trkpt lat="40.828147" lon="-3.831555">
        <ele>1778.9</ele>
        <time>2018-04-21T05:44:09.000Z</time>
      </trkpt>
      <trkpt lat="40.828148" lon="-3.83157">
        <ele>1778.9</ele>
        <time>2018-04-21T05:44:10.000Z</time>
      </trkpt>
      <trkpt lat="40.82815" lon="-3.831585">
        <ele>1778.9</ele>
        <time>2018-04-21T05:44:11.000Z</time>
      </trkpt>
      <trkpt lat="40.828151" lon="-3.8316">
        <ele>1778.9</ele>
        <time>2018-04-21T05:44:12.000Z</time>
      </trkpt>
      <trkpt lat="40.828153" lon="-3.831615">
        <ele>1778.9</ele>
        <time>2018-04-21T05:44:13.000Z</time>
      </trkpt>
      <trkpt lat="40.828155" lon="-3.83163">
        <ele>1778.9</ele>
        <time>2018-04-21T05:44:14.000Z</time>
      </trkpt>
      <trkpt lat="40.828156" lon="-3.831646">
        <ele>1778.9</ele>
        <time>2018-04-21T05:44:15.000Z</time>
      </trkpt>
      <trkpt lat="40.828157" lon="-3.831661">
        <ele>1778.9</ele>
        <time>2018-04-21T05:44:16.000Z</time>
      </trkpt>
      <trkpt lat="40.828159" lon="-3.831676">
        <ele>1778.8</ele>
        <time>2018-04-21T05:44:17.000Z</time>
      </trkpt>
      <trkpt lat="40.82816" lon="-3.831692">
        <ele>1778.8</ele>
        <time>2018-04-21T05:44:18.000Z</time>
      </trkpt>
      <trkpt lat="40.828161" lon="-3.831708">
        <ele>1778.7</ele>
        <time>2018-04-21T05:44:19.000Z</time>
      </trkpt>
      <trkpt lat="40.828162" lon="-3.831724">
        <ele>1778.6</ele>
        <time>2018-04-21T05:44:20.000Z</time>
      </trkpt>
      <trkpt lat="40.828163" lon="-3.83174">
        <ele>1778.6</ele>
        <time>2018-04-21T05:44:21.000Z</time>
      </trkpt>
      <trkpt lat="40.828163" lon="-3.831756">
        <ele>1778.5</ele>
        <time>2018-04-21T05:44:22.000Z</time>
      </trkpt>
      <trkpt lat="40.828164" lon="-3.831772">
        <ele>1778.4</ele>
        <time>2018-04-21T05:44:23.000Z</time>
      </trkpt>
      <trkpt lat="40.828164" lon="-3.831788">
        <ele>1778.4</ele>
        <time>2018-04-21T05:44:24.000Z</time>
      </trkpt>
      <trkpt lat="40.828163" lon="-3.831803">
        <ele>1778.3</ele>
        <time>2018-04-21T05:44:25.000Z</time>
      </trkpt>
      <trkpt lat="40.828162" lon="-3.831819">
        <ele>1778.3</ele>
        <time>2018-04-21T05:44:26.000Z</time>
      </trkpt>
      <trkpt lat="40.828161" lon="-3.831833">
        <ele>1778.2</ele>
        <time>2018-04-21T05:44:27.000Z</time>
      </trkpt>
      <trkpt lat="40.828159" lon="-3.831847">
        <ele>1778.2</ele>
        <time>2018-04-21T05:44:28.000Z</time>
      </trkpt>
      <trkpt lat="40.828156" lon="-3.831861">
        <ele>1778.2</ele>
        <time>2018-04-21T05:44:29.000Z</time>
      </trkpt>
      <trkpt lat="40.828153" lon="-3.831873">
        <ele>1778.1</ele>
        <time>2018-04-21T05:44:30.000Z</time>
      </trkpt>
      <trkpt lat="40.828148" lon="-3.831885">
        <ele>1778.1</ele>
        <time>2018-04-21T05:44:31.000Z</time>
      </trkpt>
      <trkpt lat="40.828143" lon="-3.831896">
        <ele>1778.1</ele>
        <time>2018-04-21T05:44:32.000Z</time>
      </trkpt>
      <trkpt lat="40.828138" lon="-3.831906">
        <ele>1778.1</ele>
        <time>2018-04-21T05:44:33.000Z</time>
      </trkpt>
      <trkpt lat="40.828131" lon="-3.831916">
        <ele>1778.2</ele>
        <time>2018-04-21T05:44:34.000Z</time>
      </trkpt>
      <trkpt lat="40.828124" lon="-3.831925">
        <ele>1778.2</ele>
        <time>2018-04-21T05:44:35.000Z</time>
      </trkpt>
      <trkpt lat="40.828116" lon="-3.831934">
        <ele>1778.2</ele>
        <time>2018-04-21T05:44:36.000Z</time>
      </trkpt>
      <trkpt lat="40.828108" lon="-3.831943">
        <ele>1778.2</ele>
        <time>2018-04-21T05:44:37.000Z</time>
      </trkpt>
      <trkpt lat="40.828098" lon="-3.831951">
        <ele>1778.3</ele>
        <time>2018-04-21T05:44:38.000Z</time>
      </trkpt>
      <trkpt lat="40.828088" lon="-3.831959">
        <ele>1778.3</ele>
        <time>2018-04-21T05:44:39.000Z</time>
      </trkpt>
      <trkpt lat="40.828081" lon="-3.831965">
        <ele>1778.4</ele>
        <time>2018-04-21T05:44:40.000Z</time>
      </trkpt>
      <trkpt lat="40.828079" lon="-3.831967">
        <ele>1778.4</ele>
        <time>2018-04-21T05:48:47.000Z</time>
      </trkpt>
      <trkpt lat="40.828079" lon="-3.831967">
        <ele>1778.4</ele>
        <time>2018-04-21T05:48:48.000Z</time>
      </trkpt>
      <trkpt lat="40.828065" lon="-3.831972">
        <ele>1778.5</ele>
        <time>2018-04-21T05:48:49.000Z</time>
      </trkpt>
      <trkpt lat="40.828063" lon="-3.831972">
        <ele>1778.5</ele>
        <time>2018-04-21T05:49:05.000Z</time>
      </trkpt>
      <trkpt lat="40.828056" lon="-3.831975">
        <ele>1778.5</ele>
        <time>2018-04-21T05:49:06.000Z</time>
      </trkpt>
      <trkpt lat="40.828046" lon="-3.831978">
        <ele>1778.6</ele>
        <time>2018-04-21T05:49:07.000Z</time>
      </trkpt>
      <trkpt lat="40.828035" lon="-3.831981">
        <ele>1778.7</ele>
        <time>2018-04-21T05:49:08.000Z</time>
      </trkpt>
      <trkpt lat="40.828024" lon="-3.831983">
        <ele>1778.7</ele>
        <time>2018-04-21T05:49:09.000Z</time>
      </trkpt>
      <trkpt lat="40.828013" lon="-3.831986">
        <ele>1778.8</ele>
        <time>2018-04-21T05:49:10.000Z</time>
      </trkpt>
      <trkpt lat="40.828001" lon="-3.831989">
        <ele>1778.9</ele>
        <time>2018-04-21T05:49:11.000Z</time>
      </trkpt>
      <trkpt lat="40.82799" lon="-3.831993">
        <ele>1779.0</ele>
        <time>2018-04-21T05:49:12.000Z</time>
      </trkpt>
      <trkpt lat="40.827979" lon="-3.831996">
        <ele>1779.0</ele>
        <time>2018-04-21T05:49:13.000Z</time>
      </trkpt>
      <trkpt lat="40.827968" lon="-3.832">
        <ele>1779.1</ele>
        <time>2018-04-21T05:49:14.000Z</time>
      </trkpt>
      <trkpt lat="40.827958" lon="-3.832003">
        <ele>1779.2</ele>
        <time>2018-04-21T05:49:15.000Z</time>
      </trkpt>
      <trkpt lat="40.827948" lon="-3.832007">
        <ele>1779.2</ele>
        <time>2018-04-21T05:49:16.000Z</time>
      </trkpt>
      <trkpt lat="40.827938" lon="-3.832011">
        <ele>1779.3</ele>
        <time>2018-04-21T05:49:17.000Z</time>
      </trkpt>
      <trkpt lat="40.827929" lon="-3.832014">
        <ele>1779.3</ele>
        <time>2018-04-21T05:49:18.000Z</time>
      </trkpt>
      <trkpt lat="40.82792" lon="-3.832018">
        <ele>1779.4</ele>
        <time>2018-04-21T05:49:19.000Z</time>
      </trkpt>
      <trkpt lat="40.827912" lon="-3.832021">
        <ele>1779.4</ele>
        <time>2018-04-21T05:49:20.000Z</time>
      </trkpt>
      <trkpt lat="40.827905" lon="-3.832024">
        <ele>1779.4</ele>
        <time>2018-04-21T05:49:21.000Z</time>
      </trkpt>
      <trkpt lat="40.827898" lon="-3.832027">
        <ele>1779.5</ele>
        <time>2018-04-21T05:49:22.000Z</time>
      </trkpt>
      <trkpt lat="40.827892" lon="-3.83203">
        <ele>1779.5</ele>
        <time>2018-04-21T05:49:23.000Z</time>
      </trkpt>
      <trkpt lat="40.827887" lon="-3.832032">
        <ele>1779.5</ele>
        <time>2018-04-21T05:49:24.000Z</time>
      </trkpt>
      <trkpt lat="40.827882" lon="-3.832034">
        <ele>1779.6</ele>
        <time>2018-04-21T05:49:25.000Z</time>
      </trkpt>
      <trkpt lat="40.827878" lon="-3.832036">
        <ele>1779.6</ele>
        <time>2018-04-21T05:49:26.000Z</time>
      </trkpt>
      <trkpt lat="40.827875" lon="-3.832037">
        <ele>1779.6</ele>
        <time>2018-04-21T05:49:27.000Z</time>
      </trkpt>
      <trkpt lat="40.827873" lon="-3.832038">
        <ele>1779.6</ele>
        <time>2018-04-21T05:49:28.000Z</time>
      </trkpt>
      <trkpt lat="40.827871" lon="-3.832038">
        <ele>1779.6</ele>
        <time>2018-04-21T05:49:29.000Z</time>
      </trkpt>
      <trkpt lat="40.82787" lon="-3.832039">
        <ele>1779.6</ele>
        <time>2018-04-21T05:49:30.000Z</time>
      </trkpt>
      <trkpt lat="40.827869" lon="-3.832039">
        <ele>1779.6</ele>
        <time>2018-04-21T05:49:31.000Z</time>
      </trkpt>
      <trkpt lat="40.827869" lon="-3.832038">
        <ele>1779.6</ele>
        <time>2018-04-21T05:49:32.000Z</time>
      </trkpt>
      <trkpt lat="40.827869" lon="-3.832038">
        <ele>1779.6</ele>
        <time>2018-04-21T05:49:33.000Z</time>
      </trkpt>
      <trkpt lat="40.827869" lon="-3.832038">
        <ele>1779.6</ele>
        <time>2018-04-21T05:49:34.000Z</time>
      </trkpt>
      <trkpt lat="40.827869" lon="-3.832038">
        <ele>1779.6</ele>
        <time>2018-04-21T05:49:35.000Z</time>
      </trkpt>
      <trkpt lat="40.827869" lon="-3.832038">
        <ele>1779.6</ele>
        <time>2018-04-21T05:49:36.000Z</time>
      </trkpt>
      <trkpt lat="40.827869" lon="-3.832038">
        <ele>1779.6</ele>
        <time>2018-04-21T05:49:37.000Z</time>
      </trkpt>
      <trkpt lat="40.827869" lon="-3.832038">
        <ele>1779.6</ele>
        <time>2018-04-21T05:49:38.000Z</time>
      </trkpt>
      <trkpt lat="40.827869" lon="-3.832038">
        <ele>1779.6</ele>
        <time>2018-04-21T05:49:39.000Z</time>
      </trkpt>
      <trkpt lat="40.827869" lon="-3.832038">
        <ele>1779.6</ele>
        <time>2018-04-21T05:49:40.000Z</time>
      </trkpt>
      <trkpt lat="40.827869" lon="-3.832038">
        <ele>1779.6</ele>
        <time>2018-04-21T05:49:41.000Z</time>
      </trkpt>
      <trkpt lat="40.827869" lon="-3.832037">
        <ele>1779.6</ele>
        <time>2018-04-21T05:49:42.000Z</time>
      </trkpt>
      <trkpt lat="40.827868" lon="-3.832037">
        <ele>1779.6</ele>
        <time>2018-04-21T05:49:43.000Z</time>
      </trkpt>
      <trkpt lat="40.827868" lon="-3.832037">
        <ele>1779.6</ele>
        <time>2018-04-21T05:49:44.000Z</time>
      </trkpt>
      <trkpt lat="40.827867" lon="-3.832037">
        <ele>1779.7</ele>
        <time>2018-04-21T05:49:45.000Z</time>
      </trkpt>
      <trkpt lat="40.827866" lon="-3.832036">
        <ele>1779.7</ele>
        <time>2018-04-21T05:49:46.000Z</time>
      </trkpt>
      <trkpt lat="40.827864" lon="-3.832036">
        <ele>1779.7</ele>
        <time>2018-04-21T05:49:47.000Z</time>
      </trkpt>
      <trkpt lat="40.827863" lon="-3.832036">
        <ele>1779.7</ele>
        <time>2018-04-21T05:49:48.000Z</time>
      </trkpt>
      <trkpt lat="40.827862" lon="-3.832036">
        <ele>1779.7</ele>
        <time>2018-04-21T05:49:49.000Z</time>
      </trkpt>
      <trkpt lat="40.82786" lon="-3.832036">
        <ele>1779.7</ele>
        <time>2018-04-21T05:49:50.000Z</time>
      </trkpt>
      <trkpt lat="40.827858" lon="-3.832037">
        <ele>1779.7</ele>
        <time>2018-04-21T05:49:51.000Z</time>
      </trkpt>
      <trkpt lat="40.827855" lon="-3.832037">
        <ele>1779.7</ele>
        <time>2018-04-21T05:49:52.000Z</time>
      </trkpt>
      <trkpt lat="40.827852" lon="-3.832036">
        <ele>1779.8</ele>
        <time>2018-04-21T05:49:53.000Z</time>
      </trkpt>
      <trkpt lat="40.827848" lon="-3.832034">
        <ele>1779.8</ele>
        <time>2018-04-21T05:49:54.000Z</time>
      </trkpt>
      <trkpt lat="40.827843" lon="-3.83203">
        <ele>1779.9</ele>
        <time>2018-04-21T05:49:55.000Z</time>
      </trkpt>
      <trkpt lat="40.827838" lon="-3.832026">
        <ele>1779.9</ele>
        <time>2018-04-21T05:49:56.000Z</time>
      </trkpt>
      <trkpt lat="40.827832" lon="-3.832021">
        <ele>1780.0</ele>
        <time>2018-04-21T05:49:57.000Z</time>
      </trkpt>
      <trkpt lat="40.827826" lon="-3.832014">
        <ele>1780.1</ele>
        <time>2018-04-21T05:49:58.000Z</time>
      </trkpt>
      <trkpt lat="40.82782" lon="-3.832007">
        <ele>1780.2</ele>
        <time>2018-04-21T05:49:59.000Z</time>
      </trkpt>
      <trkpt lat="40.827814" lon="-3.831999">
        <ele>1780.3</ele>
        <time>2018-04-21T05:50:00.000Z</time>
      </trkpt>
      <trkpt lat="40.827808" lon="-3.83199">
        <ele>1780.4</ele>
        <time>2018-04-21T05:50:01.000Z</time>
      </trkpt>
      <trkpt lat="40.827803" lon="-3.83198">
        <ele>1780.5</ele>
        <time>2018-04-21T05:50:02.000Z</time>
      </trkpt>
      <trkpt lat="40.827798" lon="-3.831969">
        <ele>1780.7</ele>
        <time>2018-04-21T05:50:03.000Z</time>
      </trkpt>
      <trkpt lat="40.827794" lon="-3.831959">
        <ele>1780.8</ele>
        <time>2018-04-21T05:50:04.000Z</time>
      </trkpt>
      <trkpt lat="40.827789" lon="-3.831948">
        <ele>1780.9</ele>
        <time>2018-04-21T05:50:05.000Z</time>
      </trkpt>
      <trkpt lat="40.827785" lon="-3.831938">
        <ele>1781.0</ele>
        <time>2018-04-21T05:50:06.000Z</time>
      </trkpt>
      <trkpt lat="40.82778" lon="-3.831928">
        <ele>1781.1</ele>
        <time>2018-04-21T05:50:07.000Z</time>
      </trkpt>
      <trkpt lat="40.827775" lon="-3.83192">
        <ele>1781.2</ele>
        <time>2018-04-21T05:50:08.000Z</time>
      </trkpt>
      <trkpt lat="40.827769" lon="-3.831912">
        <ele>1781.3</ele>
        <time>2018-04-21T05:50:09.000Z</time>
      </trkpt>
      <trkpt lat="40.827763" lon="-3.831904">
        <ele>1781.4</ele>
        <time>2018-04-21T05:50:10.000Z</time>
      </trkpt>
      <trkpt lat="40.827758" lon="-3.831895">
        <ele>1781.5</ele>
        <time>2018-04-21T05:50:11.000Z</time>
      </trkpt>
      <trkpt lat="40.827753" lon="-3.831885">
        <ele>1781.6</ele>
        <time>2018-04-21T05:50:12.000Z</time>
      </trkpt>
      <trkpt lat="40.827749" lon="-3.831875">
        <ele>1781.8</ele>
        <time>2018-04-21T05:50:13.000Z</time>
      </trkpt>
      <trkpt lat="40.827745" lon="-3.831864">
        <ele>1781.9</ele>
        <time>2018-04-21T05:50:14.000Z</time>
      </trkpt>
      <trkpt lat="40.827741" lon="-3.831852">
        <ele>1782.0</ele>
        <time>2018-04-21T05:50:15.000Z</time>
      </trkpt>
      <trkpt lat="40.827738" lon="-3.83184">
        <ele>1782.1</ele>
        <time>2018-04-21T05:50:16.000Z</time>
      </trkpt>
      <trkpt lat="40.827734" lon="-3.831829">
        <ele>1782.2</ele>
        <time>2018-04-21T05:50:17.000Z</time>
      </trkpt>
      <trkpt lat="40.827731" lon="-3.831818">
        <ele>1782.4</ele>
        <time>2018-04-21T05:50:18.000Z</time>
      </trkpt>
      <trkpt lat="40.827727" lon="-3.831807">
        <ele>1782.5</ele>
        <time>2018-04-21T05:50:19.000Z</time>
      </trkpt>
      <trkpt lat="40.827723" lon="-3.831798">
        <ele>1782.6</ele>
        <time>2018-04-21T05:50:20.000Z</time>
      </trkpt>
      <trkpt lat="40.827718" lon="-3.83179">
        <ele>1782.7</ele>
        <time>2018-04-21T05:50:21.000Z</time>
      </trkpt>
      <trkpt lat="40.827713" lon="-3.831783">
        <ele>1782.8</ele>
        <time>2018-04-21T05:50:22.000Z</time>
      </trkpt>
      <trkpt lat="40.827707" lon="-3.831778">
        <ele>1782.9</ele>
        <time>2018-04-21T05:50:23.000Z</time>
      </trkpt>
      <trkpt lat="40.827702" lon="-3.831773">
        <ele>1783.0</ele>
        <time>2018-04-21T05:50:24.000Z</time>
      </trkpt>
      <trkpt lat="40.827697" lon="-3.831769">
        <ele>1783.1</ele>
        <time>2018-04-21T05:50:25.000Z</time>
      </trkpt>
      <trkpt lat="40.827693" lon="-3.831767">
        <ele>1783.1</ele>
        <time>2018-04-21T05:50:26.000Z</time>
      </trkpt>
      <trkpt lat="40.827689" lon="-3.831764">
        <ele>1783.2</ele>
        <time>2018-04-21T05:50:27.000Z</time>
      </trkpt>
      <trkpt lat="40.827685" lon="-3.831763">
        <ele>1783.2</ele>
        <time>2018-04-21T05:50:28.000Z</time>
      </trkpt>
      <trkpt lat="40.827683" lon="-3.831762">
        <ele>1783.3</ele>
        <time>2018-04-21T05:50:29.000Z</time>
      </trkpt>
      <trkpt lat="40.827682" lon="-3.831761">
        <ele>1783.3</ele>
        <time>2018-04-21T05:50:30.000Z</time>
      </trkpt>
      <trkpt lat="40.827682" lon="-3.831761">
        <ele>1783.3</ele>
        <time>2018-04-21T05:50:31.000Z</time>
      </trkpt>
      <trkpt lat="40.827682" lon="-3.831761">
        <ele>1783.3</ele>
        <time>2018-04-21T05:50:32.000Z</time>
      </trkpt>
      <trkpt lat="40.827682" lon="-3.831761">
        <ele>1783.3</ele>
        <time>2018-04-21T05:50:33.000Z</time>
      </trkpt>
      <trkpt lat="40.827683" lon="-3.831761">
        <ele>1783.3</ele>
        <time>2018-04-21T05:50:34.000Z</time>
      </trkpt>
      <trkpt lat="40.827683" lon="-3.831761">
        <ele>1783.3</ele>
        <time>2018-04-21T05:50:35.000Z</time>
      </trkpt>
      <trkpt lat="40.827683" lon="-3.83176">
        <ele>1783.3</ele>
        <time>2018-04-21T05:50:36.000Z</time>
      </trkpt>
      <trkpt lat="40.827682" lon="-3.831759">
        <ele>1783.3</ele>
        <time>2018-04-21T05:50:37.000Z</time>
      </trkpt>
      <trkpt lat="40.827681" lon="-3.831757">
        <ele>1783.3</ele>
        <time>2018-04-21T05:50:38.000Z</time>
      </trkpt>
      <trkpt lat="40.827677" lon="-3.831755">
        <ele>1783.4</ele>
        <time>2018-04-21T05:50:39.000Z</time>
      </trkpt>
      <trkpt lat="40.827673" lon="-3.831752">
        <ele>1783.4</ele>
        <time>2018-04-21T05:50:40.000Z</time>
      </trkpt>
      <trkpt lat="40.827668" lon="-3.831748">
        <ele>1783.5</ele>
        <time>2018-04-21T05:50:41.000Z</time>
      </trkpt>
      <trkpt lat="40.827662" lon="-3.831744">
        <ele>1783.6</ele>
        <time>2018-04-21T05:50:42.000Z</time>
      </trkpt>
      <trkpt lat="40.827655" lon="-3.83174">
        <ele>1783.7</ele>
        <time>2018-04-21T05:50:43.000Z</time>
      </trkpt>
      <trkpt lat="40.827648" lon="-3.831735">
        <ele>1783.8</ele>
        <time>2018-04-21T05:50:44.000Z</time>
      </trkpt>
      <trkpt lat="40.82764" lon="-3.831731">
        <ele>1783.9</ele>
        <time>2018-04-21T05:50:45.000Z</time>
      </trkpt>
      <trkpt lat="40.827632" lon="-3.831726">
        <ele>1784.1</ele>
        <time>2018-04-21T05:50:46.000Z</time>
      </trkpt>
      <trkpt lat="40.827625" lon="-3.831722">
        <ele>1784.2</ele>
        <time>2018-04-21T05:50:47.000Z</time>
      </trkpt>
      <trkpt lat="40.827618" lon="-3.831718">
        <ele>1784.3</ele>
        <time>2018-04-21T05:50:48.000Z</time>
      </trkpt>
      <trkpt lat="40.82761" lon="-3.831714">
        <ele>1784.4</ele>
        <time>2018-04-21T05:50:49.000Z</time>
      </trkpt>
      <trkpt lat="40.827603" lon="-3.83171">
        <ele>1784.5</ele>
        <time>2018-04-21T05:50:50.000Z</time>
      </trkpt>
      <trkpt lat="40.827597" lon="-3.831706">
        <ele>1784.6</ele>
        <time>2018-04-21T05:50:51.000Z</time>
      </trkpt>
      <trkpt lat="40.82759" lon="-3.831703">
        <ele>1784.7</ele>
        <time>2018-04-21T05:50:52.000Z</time>
      </trkpt>
      <trkpt lat="40.827584" lon="-3.831699">
        <ele>1784.8</ele>
        <time>2018-04-21T05:50:53.000Z</time>
      </trkpt>
      <trkpt lat="40.827578" lon="-3.831696">
        <ele>1784.9</ele>
        <time>2018-04-21T05:50:54.000Z</time>
      </trkpt>
      <trkpt lat="40.827572" lon="-3.831692">
        <ele>1785.0</ele>
        <time>2018-04-21T05:50:55.000Z</time>
      </trkpt>
      <trkpt lat="40.827566" lon="-3.831689">
        <ele>1785.1</ele>
        <time>2018-04-21T05:50:56.000Z</time>
      </trkpt>
      <trkpt lat="40.827561" lon="-3.831684">
        <ele>1785.2</ele>
        <time>2018-04-21T05:50:57.000Z</time>
      </trkpt>
      <trkpt lat="40.827555" lon="-3.831678">
        <ele>1785.3</ele>
        <time>2018-04-21T05:50:58.000Z</time>
      </trkpt>
      <trkpt lat="40.82755" lon="-3.831669">
        <ele>1785.4</ele>
        <time>2018-04-21T05:50:59.000Z</time>
      </trkpt>
      <trkpt lat="40.827546" lon="-3.831656">
        <ele>1785.6</ele>
        <time>2018-04-21T05:51:00.000Z</time>
      </trkpt>
      <trkpt lat="40.827542" lon="-3.831642">
        <ele>1785.7</ele>
        <time>2018-04-21T05:51:01.000Z</time>
      </trkpt>
      <trkpt lat="40.827539" lon="-3.831631">
        <ele>1785.8</ele>
        <time>2018-04-21T05:51:02.000Z</time>
      </trkpt>
      <trkpt lat="40.827536" lon="-3.831624">
        <ele>1785.8</ele>
        <time>2018-04-21T05:51:03.000Z</time>
      </trkpt>
      <trkpt lat="40.827534" lon="-3.831618">
        <ele>1785.9</ele>
        <time>2018-04-21T05:51:04.000Z</time>
      </trkpt>
      <trkpt lat="40.827531" lon="-3.831614">
        <ele>1786.0</ele>
        <time>2018-04-21T05:51:05.000Z</time>
      </trkpt>
      <trkpt lat="40.827528" lon="-3.831609">
        <ele>1786.0</ele>
        <time>2018-04-21T05:51:06.000Z</time>
      </trkpt>
      <trkpt lat="40.827523" lon="-3.831605">
        <ele>1786.1</ele>
        <time>2018-04-21T05:51:07.000Z</time>
      </trkpt>
      <trkpt lat="40.827518" lon="-3.831601">
        <ele>1786.2</ele>
        <time>2018-04-21T05:51:08.000Z</time>
      </trkpt>
      <trkpt lat="40.827512" lon="-3.831596">
        <ele>1786.3</ele>
        <time>2018-04-21T05:51:09.000Z</time>
      </trkpt>
      <trkpt lat="40.827506" lon="-3.831592">
        <ele>1786.4</ele>
        <time>2018-04-21T05:51:10.000Z</time>
      </trkpt>
      <trkpt lat="40.8275" lon="-3.831587">
        <ele>1786.5</ele>
        <time>2018-04-21T05:51:11.000Z</time>
      </trkpt>
      <trkpt lat="40.827493" lon="-3.831581">
        <ele>1786.7</ele>
        <time>2018-04-21T05:51:12.000Z</time>
      </trkpt>
      <trkpt lat="40.827486" lon="-3.831576">
        <ele>1786.9</ele>
        <time>2018-04-21T05:51:13.000Z</time>
      </trkpt>
      <trkpt lat="40.82748" lon="-3.831569">
        <ele>1787.1</ele>
        <time>2018-04-21T05:51:14.000Z</time>
      </trkpt>
      <trkpt lat="40.827473" lon="-3.831563">
        <ele>1787.4</ele>
        <time>2018-04-21T05:51:15.000Z</time>
      </trkpt>
      <trkpt lat="40.827467" lon="-3.831555">
        <ele>1787.6</ele>
        <time>2018-04-21T05:51:16.000Z</time>
      </trkpt>
      <trkpt lat="40.827461" lon="-3.831548">
        <ele>1787.8</ele>
        <time>2018-04-21T05:51:17.000Z</time>
      </trkpt>
      <trkpt lat="40.827455" lon="-3.83154">
        <ele>1788.0</ele>
        <time>2018-04-21T05:51:18.000Z</time>
      </trkpt>
      <trkpt lat="40.827449" lon="-3.831533">
        <ele>1788.2</ele>
        <time>2018-04-21T05:51:19.000Z</time>
      </trkpt>
      <trkpt lat="40.827443" lon="-3.831525">
        <ele>1788.4</ele>
        <time>2018-04-21T05:51:20.000Z</time>
      </trkpt>
      <trkpt lat="40.827437" lon="-3.831517">
        <ele>1788.6</ele>
        <time>2018-04-21T05:51:21.000Z</time>
      </trkpt>
      <trkpt lat="40.827431" lon="-3.83151">
        <ele>1788.8</ele>
        <time>2018-04-21T05:51:22.000Z</time>
      </trkpt>
      <trkpt lat="40.827425" lon="-3.831504">
        <ele>1789.0</ele>
        <time>2018-04-21T05:51:23.000Z</time>
      </trkpt>
      <trkpt lat="40.827418" lon="-3.831497">
        <ele>1789.3</ele>
        <time>2018-04-21T05:51:24.000Z</time>
      </trkpt>
      <trkpt lat="40.827412" lon="-3.831492">
        <ele>1789.5</ele>
        <time>2018-04-21T05:51:25.000Z</time>
      </trkpt>
      <trkpt lat="40.827405" lon="-3.831487">
        <ele>1789.7</ele>
        <time>2018-04-21T05:51:26.000Z</time>
      </trkpt>
      <trkpt lat="40.827399" lon="-3.831482">
        <ele>1789.9</ele>
        <time>2018-04-21T05:51:27.000Z</time>
      </trkpt>
      <trkpt lat="40.827392" lon="-3.831478">
        <ele>1790.1</ele>
        <time>2018-04-21T05:51:28.000Z</time>
      </trkpt>
      <trkpt lat="40.827385" lon="-3.831474">
        <ele>1790.4</ele>
        <time>2018-04-21T05:51:29.000Z</time>
      </trkpt>
      <trkpt lat="40.827378" lon="-3.83147">
        <ele>1790.6</ele>
        <time>2018-04-21T05:51:30.000Z</time>
      </trkpt>
      <trkpt lat="40.827372" lon="-3.831467">
        <ele>1790.8</ele>
        <time>2018-04-21T05:51:31.000Z</time>
      </trkpt>
      <trkpt lat="40.827365" lon="-3.831464">
        <ele>1791.0</ele>
        <time>2018-04-21T05:51:32.000Z</time>
      </trkpt>
      <trkpt lat="40.827358" lon="-3.831461">
        <ele>1791.2</ele>
        <time>2018-04-21T05:51:33.000Z</time>
      </trkpt>
      <trkpt lat="40.827351" lon="-3.831459">
        <ele>1791.4</ele>
        <time>2018-04-21T05:51:34.000Z</time>
      </trkpt>
      <trkpt lat="40.827345" lon="-3.831456">
        <ele>1791.6</ele>
        <time>2018-04-21T05:51:35.000Z</time>
      </trkpt>
      <trkpt lat="40.827338" lon="-3.831454">
        <ele>1791.8</ele>
        <time>2018-04-21T05:51:36.000Z</time>
      </trkpt>
      <trkpt lat="40.827332" lon="-3.831451">
        <ele>1792.0</ele>
        <time>2018-04-21T05:51:37.000Z</time>
      </trkpt>
      <trkpt lat="40.827326" lon="-3.831449">
        <ele>1792.2</ele>
        <time>2018-04-21T05:51:38.000Z</time>
      </trkpt>
      <trkpt lat="40.82732" lon="-3.831446">
        <ele>1792.4</ele>
        <time>2018-04-21T05:51:39.000Z</time>
      </trkpt>
      <trkpt lat="40.827314" lon="-3.831444">
        <ele>1792.5</ele>
        <time>2018-04-21T05:51:40.000Z</time>
      </trkpt>
      <trkpt lat="40.827309" lon="-3.831441">
        <ele>1792.7</ele>
        <time>2018-04-21T05:51:41.000Z</time>
      </trkpt>
      <trkpt lat="40.827303" lon="-3.831438">
        <ele>1792.9</ele>
        <time>2018-04-21T05:51:42.000Z</time>
      </trkpt>
      <trkpt lat="40.827298" lon="-3.831435">
        <ele>1793.1</ele>
        <time>2018-04-21T05:51:43.000Z</time>
      </trkpt>
      <trkpt lat="40.827293" lon="-3.831432">
        <ele>1793.2</ele>
        <time>2018-04-21T05:51:44.000Z</time>
      </trkpt>
      <trkpt lat="40.827288" lon="-3.831428">
        <ele>1793.4</ele>
        <time>2018-04-21T05:51:45.000Z</time>
      </trkpt>
      <trkpt lat="40.827283" lon="-3.831425">
        <ele>1793.6</ele>
        <time>2018-04-21T05:51:46.000Z</time>
      </trkpt>
      <trkpt lat="40.827278" lon="-3.831422">
        <ele>1793.7</ele>
        <time>2018-04-21T05:51:47.000Z</time>
      </trkpt>
      <trkpt lat="40.827273" lon="-3.831419">
        <ele>1793.9</ele>
        <time>2018-04-21T05:51:48.000Z</time>
      </trkpt>
      <trkpt lat="40.827268" lon="-3.831416">
        <ele>1794.0</ele>
        <time>2018-04-21T05:51:49.000Z</time>
      </trkpt>
      <trkpt lat="40.827262" lon="-3.831414">
        <ele>1794.2</ele>
        <time>2018-04-21T05:51:50.000Z</time>
      </trkpt>
      <trkpt lat="40.827257" lon="-3.831411">
        <ele>1794.4</ele>
        <time>2018-04-21T05:51:51.000Z</time>
      </trkpt>
      <trkpt lat="40.82725" lon="-3.831409">
        <ele>1794.6</ele>
        <time>2018-04-21T05:51:52.000Z</time>
      </trkpt>
      <trkpt lat="40.827244" lon="-3.831408">
        <ele>1794.8</ele>
        <time>2018-04-21T05:51:53.000Z</time>
      </trkpt>
      <trkpt lat="40.827237" lon="-3.831406">
        <ele>1795.0</ele>
        <time>2018-04-21T05:51:54.000Z</time>
      </trkpt>
      <trkpt lat="40.82723" lon="-3.831405">
        <ele>1795.2</ele>
        <time>2018-04-21T05:51:55.000Z</time>
      </trkpt>
      <trkpt lat="40.827222" lon="-3.831404">
        <ele>1795.4</ele>
        <time>2018-04-21T05:51:56.000Z</time>
      </trkpt>
      <trkpt lat="40.827214" lon="-3.831403">
        <ele>1795.7</ele>
        <time>2018-04-21T05:51:57.000Z</time>
      </trkpt>
      <trkpt lat="40.827206" lon="-3.831401">
        <ele>1795.9</ele>
        <time>2018-04-21T05:51:58.000Z</time>
      </trkpt>
      <trkpt lat="40.827197" lon="-3.8314">
        <ele>1796.2</ele>
        <time>2018-04-21T05:51:59.000Z</time>
      </trkpt>
      <trkpt lat="40.827188" lon="-3.831398">
        <ele>1796.5</ele>
        <time>2018-04-21T05:52:00.000Z</time>
      </trkpt>
      <trkpt lat="40.827179" lon="-3.831395">
        <ele>1796.7</ele>
        <time>2018-04-21T05:52:01.000Z</time>
      </trkpt>
      <trkpt lat="40.82717" lon="-3.831393">
        <ele>1797.0</ele>
        <time>2018-04-21T05:52:02.000Z</time>
      </trkpt>
      <trkpt lat="40.82716" lon="-3.83139">
        <ele>1797.3</ele>
        <time>2018-04-21T05:52:03.000Z</time>
      </trkpt>
      <trkpt lat="40.827151" lon="-3.831387">
        <ele>1797.6</ele>
        <time>2018-04-21T05:52:04.000Z</time>
      </trkpt>
      <trkpt lat="40.827143" lon="-3.831383">
        <ele>1797.9</ele>
        <time>2018-04-21T05:52:05.000Z</time>
      </trkpt>
      <trkpt lat="40.827135" lon="-3.83138">
        <ele>1798.1</ele>
        <time>2018-04-21T05:52:06.000Z</time>
      </trkpt>
      <trkpt lat="40.827129" lon="-3.831377">
        <ele>1798.3</ele>
        <time>2018-04-21T05:52:07.000Z</time>
      </trkpt>
      <trkpt lat="40.827123" lon="-3.831374">
        <ele>1798.5</ele>
        <time>2018-04-21T05:52:08.000Z</time>
      </trkpt>
      <trkpt lat="40.827119" lon="-3.831371">
        <ele>1798.6</ele>
        <time>2018-04-21T05:52:09.000Z</time>
      </trkpt>
      <trkpt lat="40.827117" lon="-3.831368">
        <ele>1798.7</ele>
        <time>2018-04-21T05:52:10.000Z</time>
      </trkpt>
      <trkpt lat="40.827115" lon="-3.831365">
        <ele>1798.8</ele>
        <time>2018-04-21T05:52:11.000Z</time>
      </trkpt>
      <trkpt lat="40.827114" lon="-3.831362">
        <ele>1798.9</ele>
        <time>2018-04-21T05:52:12.000Z</time>
      </trkpt>
      <trkpt lat="40.827112" lon="-3.831359">
        <ele>1798.9</ele>
        <time>2018-04-21T05:52:13.000Z</time>
      </trkpt>
      <trkpt lat="40.827109" lon="-3.831356">
        <ele>1799.1</ele>
        <time>2018-04-21T05:52:14.000Z</time>
      </trkpt>
      <trkpt lat="40.827104" lon="-3.831353">
        <ele>1799.2</ele>
        <time>2018-04-21T05:52:15.000Z</time>
      </trkpt>
      <trkpt lat="40.827097" lon="-3.83135">
        <ele>1799.5</ele>
        <time>2018-04-21T05:52:16.000Z</time>
      </trkpt>
      <trkpt lat="40.82709" lon="-3.831345">
        <ele>1799.7</ele>
        <time>2018-04-21T05:52:17.000Z</time>
      </trkpt>
      <trkpt lat="40.827083" lon="-3.83134">
        <ele>1799.9</ele>
        <time>2018-04-21T05:52:18.000Z</time>
      </trkpt>
      <trkpt lat="40.827077" lon="-3.831333">
        <ele>1800.2</ele>
        <time>2018-04-21T05:52:19.000Z</time>
      </trkpt>
      <trkpt lat="40.827071" lon="-3.831324">
        <ele>1800.4</ele>
        <time>2018-04-21T05:52:20.000Z</time>
      </trkpt>
      <trkpt lat="40.827066" lon="-3.831315">
        <ele>1800.7</ele>
        <time>2018-04-21T05:52:21.000Z</time>
      </trkpt>
      <trkpt lat="40.827061" lon="-3.831305">
        <ele>1800.9</ele>
        <time>2018-04-21T05:52:22.000Z</time>
      </trkpt>
      <trkpt lat="40.827057" lon="-3.831294">
        <ele>1801.1</ele>
        <time>2018-04-21T05:52:23.000Z</time>
      </trkpt>
      <trkpt lat="40.827052" lon="-3.831284">
        <ele>1801.4</ele>
        <time>2018-04-21T05:52:24.000Z</time>
      </trkpt>
      <trkpt lat="40.827048" lon="-3.831274">
        <ele>1801.6</ele>
        <time>2018-04-21T05:52:25.000Z</time>
      </trkpt>
      <trkpt lat="40.827043" lon="-3.831265">
        <ele>1801.8</ele>
        <time>2018-04-21T05:52:26.000Z</time>
      </trkpt>
      <trkpt lat="40.827038" lon="-3.831256">
        <ele>1802.0</ele>
        <time>2018-04-21T05:52:27.000Z</time>
      </trkpt>
      <trkpt lat="40.827033" lon="-3.831249">
        <ele>1802.2</ele>
        <time>2018-04-21T05:52:28.000Z</time>
      </trkpt>
      <trkpt lat="40.827027" lon="-3.831243">
        <ele>1802.5</ele>
        <time>2018-04-21T05:52:29.000Z</time>
      </trkpt>
      <trkpt lat="40.827021" lon="-3.831238">
        <ele>1802.7</ele>
        <time>2018-04-21T05:52:30.000Z</time>
      </trkpt>
      <trkpt lat="40.827015" lon="-3.831233">
        <ele>1802.9</ele>
        <time>2018-04-21T05:52:31.000Z</time>
      </trkpt>
      <trkpt lat="40.827008" lon="-3.831229">
        <ele>1803.2</ele>
        <time>2018-04-21T05:52:32.000Z</time>
      </trkpt>
      <trkpt lat="40.827001" lon="-3.831226">
        <ele>1803.4</ele>
        <time>2018-04-21T05:52:33.000Z</time>
      </trkpt>
      <trkpt lat="40.826994" lon="-3.831222">
        <ele>1803.6</ele>
        <time>2018-04-21T05:52:34.000Z</time>
      </trkpt>
      <trkpt lat="40.826988" lon="-3.831218">
        <ele>1803.9</ele>
        <time>2018-04-21T05:52:35.000Z</time>
      </trkpt>
      <trkpt lat="40.826981" lon="-3.831214">
        <ele>1804.1</ele>
        <time>2018-04-21T05:52:36.000Z</time>
      </trkpt>
      <trkpt lat="40.826974" lon="-3.83121">
        <ele>1804.4</ele>
        <time>2018-04-21T05:52:37.000Z</time>
      </trkpt>
      <trkpt lat="40.826968" lon="-3.831205">
        <ele>1804.6</ele>
        <time>2018-04-21T05:52:38.000Z</time>
      </trkpt>
      <trkpt lat="40.826962" lon="-3.8312">
        <ele>1804.8</ele>
        <time>2018-04-21T05:52:39.000Z</time>
      </trkpt>
      <trkpt lat="40.826955" lon="-3.831195">
        <ele>1805.1</ele>
        <time>2018-04-21T05:52:40.000Z</time>
      </trkpt>
      <trkpt lat="40.826949" lon="-3.83119">
        <ele>1805.3</ele>
        <time>2018-04-21T05:52:41.000Z</time>
      </trkpt>
      <trkpt lat="40.826943" lon="-3.831186">
        <ele>1805.5</ele>
        <time>2018-04-21T05:52:42.000Z</time>
      </trkpt>
      <trkpt lat="40.826937" lon="-3.831181">
        <ele>1805.7</ele>
        <time>2018-04-21T05:52:43.000Z</time>
      </trkpt>
      <trkpt lat="40.82693" lon="-3.831178">
        <ele>1806.0</ele>
        <time>2018-04-21T05:52:44.000Z</time>
      </trkpt>
      <trkpt lat="40.826924" lon="-3.831174">
        <ele>1806.2</ele>
        <time>2018-04-21T05:52:45.000Z</time>
      </trkpt>
      <trkpt lat="40.826917" lon="-3.831172">
        <ele>1806.4</ele>
        <time>2018-04-21T05:52:46.000Z</time>
      </trkpt>
      <trkpt lat="40.82691" lon="-3.83117">
        <ele>1806.7</ele>
        <time>2018-04-21T05:52:47.000Z</time>
      </trkpt>
      <trkpt lat="40.826904" lon="-3.831169">
        <ele>1806.9</ele>
        <time>2018-04-21T05:52:48.000Z</time>
      </trkpt>
      <trkpt lat="40.826897" lon="-3.831168">
        <ele>1807.1</ele>
        <time>2018-04-21T05:52:49.000Z</time>
      </trkpt>
      <trkpt lat="40.82689" lon="-3.831167">
        <ele>1807.3</ele>
        <time>2018-04-21T05:52:50.000Z</time>
      </trkpt>
      <trkpt lat="40.826883" lon="-3.831167">
        <ele>1807.5</ele>
        <time>2018-04-21T05:52:51.000Z</time>
      </trkpt>
      <trkpt lat="40.826876" lon="-3.831167">
        <ele>1807.7</ele>
        <time>2018-04-21T05:52:52.000Z</time>
      </trkpt>
      <trkpt lat="40.826869" lon="-3.831167">
        <ele>1807.9</ele>
        <time>2018-04-21T05:52:53.000Z</time>
      </trkpt>
      <trkpt lat="40.826862" lon="-3.831167">
        <ele>1808.1</ele>
        <time>2018-04-21T05:52:54.000Z</time>
      </trkpt>
      <trkpt lat="40.826855" lon="-3.831167">
        <ele>1808.3</ele>
        <time>2018-04-21T05:52:55.000Z</time>
      </trkpt>
      <trkpt lat="40.826848" lon="-3.831166">
        <ele>1808.6</ele>
        <time>2018-04-21T05:52:56.000Z</time>
      </trkpt>
      <trkpt lat="40.826842" lon="-3.831164">
        <ele>1808.8</ele>
        <time>2018-04-21T05:52:57.000Z</time>
      </trkpt>
      <trkpt lat="40.826836" lon="-3.831161">
        <ele>1809.0</ele>
        <time>2018-04-21T05:52:58.000Z</time>
      </trkpt>
      <trkpt lat="40.826831" lon="-3.831156">
        <ele>1809.2</ele>
        <time>2018-04-21T05:52:59.000Z</time>
      </trkpt>
      <trkpt lat="40.826827" lon="-3.831149">
        <ele>1809.4</ele>
        <time>2018-04-21T05:53:00.000Z</time>
      </trkpt>
      <trkpt lat="40.826823" lon="-3.831141">
        <ele>1809.6</ele>
        <time>2018-04-21T05:53:01.000Z</time>
      </trkpt>
      <trkpt lat="40.826819" lon="-3.831133">
        <ele>1809.8</ele>
        <time>2018-04-21T05:53:02.000Z</time>
      </trkpt>
      <trkpt lat="40.826815" lon="-3.831126">
        <ele>1810.0</ele>
        <time>2018-04-21T05:53:03.000Z</time>
      </trkpt>
      <trkpt lat="40.826811" lon="-3.831122">
        <ele>1810.2</ele>
        <time>2018-04-21T05:53:04.000Z</time>
      </trkpt>
      <trkpt lat="40.826806" lon="-3.831118">
        <ele>1810.4</ele>
        <time>2018-04-21T05:53:05.000Z</time>
      </trkpt>
      <trkpt lat="40.826801" lon="-3.831117">
        <ele>1810.5</ele>
        <time>2018-04-21T05:53:06.000Z</time>
      </trkpt>
      <trkpt lat="40.826795" lon="-3.831116">
        <ele>1810.7</ele>
        <time>2018-04-21T05:53:07.000Z</time>
      </trkpt>
      <trkpt lat="40.82679" lon="-3.831116">
        <ele>1810.9</ele>
        <time>2018-04-21T05:53:08.000Z</time>
      </trkpt>
      <trkpt lat="40.826784" lon="-3.831115">
        <ele>1811.1</ele>
        <time>2018-04-21T05:53:09.000Z</time>
      </trkpt>
      <trkpt lat="40.826778" lon="-3.831115">
        <ele>1811.2</ele>
        <time>2018-04-21T05:53:10.000Z</time>
      </trkpt>
      <trkpt lat="40.826773" lon="-3.831114">
        <ele>1811.4</ele>
        <time>2018-04-21T05:53:11.000Z</time>
      </trkpt>
      <trkpt lat="40.826767" lon="-3.831113">
        <ele>1811.6</ele>
        <time>2018-04-21T05:53:12.000Z</time>
      </trkpt>
      <trkpt lat="40.826762" lon="-3.83111">
        <ele>1811.8</ele>
        <time>2018-04-21T05:53:13.000Z</time>
      </trkpt>
      <trkpt lat="40.826758" lon="-3.831106">
        <ele>1811.9</ele>
        <time>2018-04-21T05:53:14.000Z</time>
      </trkpt>
      <trkpt lat="40.826753" lon="-3.831101">
        <ele>1812.2</ele>
        <time>2018-04-21T05:53:15.000Z</time>
      </trkpt>
      <trkpt lat="40.826748" lon="-3.831097">
        <ele>1812.4</ele>
        <time>2018-04-21T05:53:16.000Z</time>
      </trkpt>
      <trkpt lat="40.826743" lon="-3.831093">
        <ele>1812.6</ele>
        <time>2018-04-21T05:53:17.000Z</time>
      </trkpt>
      <trkpt lat="40.826737" lon="-3.831089">
        <ele>1812.8</ele>
        <time>2018-04-21T05:53:18.000Z</time>
      </trkpt>
      <trkpt lat="40.826731" lon="-3.831087">
        <ele>1813.0</ele>
        <time>2018-04-21T05:53:19.000Z</time>
      </trkpt>
      <trkpt lat="40.826724" lon="-3.831086">
        <ele>1813.2</ele>
        <time>2018-04-21T05:53:20.000Z</time>
      </trkpt>
      <trkpt lat="40.826717" lon="-3.831087">
        <ele>1813.4</ele>
        <time>2018-04-21T05:53:21.000Z</time>
      </trkpt>
      <trkpt lat="40.826709" lon="-3.83109">
        <ele>1813.6</ele>
        <time>2018-04-21T05:53:22.000Z</time>
      </trkpt>
      <trkpt lat="40.8267" lon="-3.831095">
        <ele>1813.8</ele>
        <time>2018-04-21T05:53:23.000Z</time>
      </trkpt>
      <trkpt lat="40.826691" lon="-3.8311">
        <ele>1814.1</ele>
        <time>2018-04-21T05:53:24.000Z</time>
      </trkpt>
      <trkpt lat="40.826682" lon="-3.831105">
        <ele>1814.3</ele>
        <time>2018-04-21T05:53:25.000Z</time>
      </trkpt>
      <trkpt lat="40.826674" lon="-3.831109">
        <ele>1814.5</ele>
        <time>2018-04-21T05:53:26.000Z</time>
      </trkpt>
      <trkpt lat="40.826667" lon="-3.83111">
        <ele>1814.7</ele>
        <time>2018-04-21T05:53:27.000Z</time>
      </trkpt>
      <trkpt lat="40.82666" lon="-3.83111">
        <ele>1814.8</ele>
        <time>2018-04-21T05:53:28.000Z</time>
      </trkpt>
      <trkpt lat="40.826653" lon="-3.831109">
        <ele>1815.0</ele>
        <time>2018-04-21T05:53:29.000Z</time>
      </trkpt>
      <trkpt lat="40.826647" lon="-3.831107">
        <ele>1815.2</ele>
        <time>2018-04-21T05:53:30.000Z</time>
      </trkpt>
      <trkpt lat="40.826641" lon="-3.831104">
        <ele>1815.4</ele>
        <time>2018-04-21T05:53:31.000Z</time>
      </trkpt>
      <trkpt lat="40.826634" lon="-3.8311">
        <ele>1815.6</ele>
        <time>2018-04-21T05:53:32.000Z</time>
      </trkpt>
      <trkpt lat="40.826627" lon="-3.831096">
        <ele>1815.8</ele>
        <time>2018-04-21T05:53:33.000Z</time>
      </trkpt>
      <trkpt lat="40.82662" lon="-3.831092">
        <ele>1816.0</ele>
        <time>2018-04-21T05:53:34.000Z</time>
      </trkpt>
      <trkpt lat="40.826613" lon="-3.831088">
        <ele>1816.2</ele>
        <time>2018-04-21T05:53:35.000Z</time>
      </trkpt>
      <trkpt lat="40.826606" lon="-3.831084">
        <ele>1816.4</ele>
        <time>2018-04-21T05:53:36.000Z</time>
      </trkpt>
      <trkpt lat="40.826599" lon="-3.83108">
        <ele>1816.6</ele>
        <time>2018-04-21T05:53:37.000Z</time>
      </trkpt>
      <trkpt lat="40.826593" lon="-3.831076">
        <ele>1816.8</ele>
        <time>2018-04-21T05:53:38.000Z</time>
      </trkpt>
      <trkpt lat="40.826586" lon="-3.831073">
        <ele>1817.0</ele>
        <time>2018-04-21T05:53:39.000Z</time>
      </trkpt>
      <trkpt lat="40.82658" lon="-3.83107">
        <ele>1817.2</ele>
        <time>2018-04-21T05:53:40.000Z</time>
      </trkpt>
      <trkpt lat="40.826573" lon="-3.831068">
        <ele>1817.4</ele>
        <time>2018-04-21T05:53:41.000Z</time>
      </trkpt>
      <trkpt lat="40.826568" lon="-3.831066">
        <ele>1817.5</ele>
        <time>2018-04-21T05:53:42.000Z</time>
      </trkpt>
      <trkpt lat="40.826562" lon="-3.831064">
        <ele>1817.7</ele>
        <time>2018-04-21T05:53:43.000Z</time>
      </trkpt>
      <trkpt lat="40.826557" lon="-3.831061">
        <ele>1817.9</ele>
        <time>2018-04-21T05:53:44.000Z</time>
      </trkpt>
      <trkpt lat="40.826552" lon="-3.831059">
        <ele>1818.0</ele>
        <time>2018-04-21T05:53:45.000Z</time>
      </trkpt>
      <trkpt lat="40.826548" lon="-3.831055">
        <ele>1818.2</ele>
        <time>2018-04-21T05:53:46.000Z</time>
      </trkpt>
      <trkpt lat="40.826544" lon="-3.831051">
        <ele>1818.3</ele>
        <time>2018-04-21T05:53:47.000Z</time>
      </trkpt>
      <trkpt lat="40.826541" lon="-3.831045">
        <ele>1818.4</ele>
        <time>2018-04-21T05:53:48.000Z</time>
      </trkpt>
      <trkpt lat="40.826538" lon="-3.831039">
        <ele>1818.6</ele>
        <time>2018-04-21T05:53:49.000Z</time>
      </trkpt>
      <trkpt lat="40.826536" lon="-3.831031">
        <ele>1818.7</ele>
        <time>2018-04-21T05:53:50.000Z</time>
      </trkpt>
      <trkpt lat="40.826534" lon="-3.831023">
        <ele>1818.9</ele>
        <time>2018-04-21T05:53:51.000Z</time>
      </trkpt>
      <trkpt lat="40.826532" lon="-3.831014">
        <ele>1819.0</ele>
        <time>2018-04-21T05:53:52.000Z</time>
      </trkpt>
      <trkpt lat="40.82653" lon="-3.831005">
        <ele>1819.2</ele>
        <time>2018-04-21T05:53:53.000Z</time>
      </trkpt>
      <trkpt lat="40.826528" lon="-3.830996">
        <ele>1819.3</ele>
        <time>2018-04-21T05:53:54.000Z</time>
      </trkpt>
      <trkpt lat="40.826526" lon="-3.830987">
        <ele>1819.5</ele>
        <time>2018-04-21T05:53:55.000Z</time>
      </trkpt>
      <trkpt lat="40.826523" lon="-3.830979">
        <ele>1819.7</ele>
        <time>2018-04-21T05:53:56.000Z</time>
      </trkpt>
      <trkpt lat="40.82652" lon="-3.830972">
        <ele>1819.8</ele>
        <time>2018-04-21T05:53:57.000Z</time>
      </trkpt>
      <trkpt lat="40.826516" lon="-3.830966">
        <ele>1820.0</ele>
        <time>2018-04-21T05:53:58.000Z</time>
      </trkpt>
      <trkpt lat="40.826512" lon="-3.83096">
        <ele>1820.2</ele>
        <time>2018-04-21T05:53:59.000Z</time>
      </trkpt>
      <trkpt lat="40.826508" lon="-3.830955">
        <ele>1820.3</ele>
        <time>2018-04-21T05:54:00.000Z</time>
      </trkpt>
      <trkpt lat="40.826505" lon="-3.830949">
        <ele>1820.5</ele>
        <time>2018-04-21T05:54:01.000Z</time>
      </trkpt>
      <trkpt lat="40.826503" lon="-3.830943">
        <ele>1820.6</ele>
        <time>2018-04-21T05:54:02.000Z</time>
      </trkpt>
      <trkpt lat="40.826503" lon="-3.830935">
        <ele>1820.7</ele>
        <time>2018-04-21T05:54:03.000Z</time>
      </trkpt>
      <trkpt lat="40.826503" lon="-3.830926">
        <ele>1820.8</ele>
        <time>2018-04-21T05:54:04.000Z</time>
      </trkpt>
      <trkpt lat="40.826504" lon="-3.830916">
        <ele>1820.9</ele>
        <time>2018-04-21T05:54:05.000Z</time>
      </trkpt>
      <trkpt lat="40.826505" lon="-3.830907">
        <ele>1821.0</ele>
        <time>2018-04-21T05:54:06.000Z</time>
      </trkpt>
      <trkpt lat="40.826505" lon="-3.830898">
        <ele>1821.1</ele>
        <time>2018-04-21T05:54:07.000Z</time>
      </trkpt>
      <trkpt lat="40.826504" lon="-3.830889">
        <ele>1821.2</ele>
        <time>2018-04-21T05:54:08.000Z</time>
      </trkpt>
      <trkpt lat="40.826503" lon="-3.83088">
        <ele>1821.4</ele>
        <time>2018-04-21T05:54:09.000Z</time>
      </trkpt>
      <trkpt lat="40.826501" lon="-3.830872">
        <ele>1821.5</ele>
        <time>2018-04-21T05:54:10.000Z</time>
      </trkpt>
      <trkpt lat="40.826499" lon="-3.830863">
        <ele>1821.7</ele>
        <time>2018-04-21T05:54:11.000Z</time>
      </trkpt>
      <trkpt lat="40.826496" lon="-3.830855">
        <ele>1821.8</ele>
        <time>2018-04-21T05:54:12.000Z</time>
      </trkpt>
      <trkpt lat="40.826492" lon="-3.830846">
        <ele>1822.0</ele>
        <time>2018-04-21T05:54:13.000Z</time>
      </trkpt>
      <trkpt lat="40.826488" lon="-3.830837">
        <ele>1822.2</ele>
        <time>2018-04-21T05:54:14.000Z</time>
      </trkpt>
      <trkpt lat="40.826483" lon="-3.830828">
        <ele>1822.4</ele>
        <time>2018-04-21T05:54:15.000Z</time>
      </trkpt>
      <trkpt lat="40.826477" lon="-3.830818">
        <ele>1822.5</ele>
        <time>2018-04-21T05:54:16.000Z</time>
      </trkpt>
      <trkpt lat="40.826472" lon="-3.830808">
        <ele>1822.6</ele>
        <time>2018-04-21T05:54:17.000Z</time>
      </trkpt>
      <trkpt lat="40.826465" lon="-3.830798">
        <ele>1822.7</ele>
        <time>2018-04-21T05:54:18.000Z</time>
      </trkpt>
      <trkpt lat="40.826459" lon="-3.830788">
        <ele>1822.8</ele>
        <time>2018-04-21T05:54:19.000Z</time>
      </trkpt>
      <trkpt lat="40.826452" lon="-3.830778">
        <ele>1822.9</ele>
        <time>2018-04-21T05:54:20.000Z</time>
      </trkpt>
      <trkpt lat="40.826445" lon="-3.830769">
        <ele>1823.1</ele>
        <time>2018-04-21T05:54:21.000Z</time>
      </trkpt>
      <trkpt lat="40.826437" lon="-3.830761">
        <ele>1823.2</ele>
        <time>2018-04-21T05:54:22.000Z</time>
      </trkpt>
      <trkpt lat="40.82643" lon="-3.830753">
        <ele>1823.3</ele>
        <time>2018-04-21T05:54:23.000Z</time>
      </trkpt>
      <trkpt lat="40.826422" lon="-3.830747">
        <ele>1823.5</ele>
        <time>2018-04-21T05:54:24.000Z</time>
      </trkpt>
      <trkpt lat="40.826415" lon="-3.830742">
        <ele>1823.7</ele>
        <time>2018-04-21T05:54:25.000Z</time>
      </trkpt>
      <trkpt lat="40.826408" lon="-3.830738">
        <ele>1823.8</ele>
        <time>2018-04-21T05:54:26.000Z</time>
      </trkpt>
      <trkpt lat="40.8264" lon="-3.830734">
        <ele>1824.0</ele>
        <time>2018-04-21T05:54:27.000Z</time>
      </trkpt>
      <trkpt lat="40.826393" lon="-3.83073">
        <ele>1824.2</ele>
        <time>2018-04-21T05:54:28.000Z</time>
      </trkpt>
      <trkpt lat="40.826386" lon="-3.830724">
        <ele>1824.3</ele>
        <time>2018-04-21T05:54:29.000Z</time>
      </trkpt>
      <trkpt lat="40.826379" lon="-3.830716">
        <ele>1824.4</ele>
        <time>2018-04-21T05:54:30.000Z</time>
      </trkpt>
      <trkpt lat="40.826372" lon="-3.830708">
        <ele>1824.6</ele>
        <time>2018-04-21T05:54:31.000Z</time>
      </trkpt>
      <trkpt lat="40.826365" lon="-3.8307">
        <ele>1824.7</ele>
        <time>2018-04-21T05:54:32.000Z</time>
      </trkpt>
      <trkpt lat="40.826357" lon="-3.830694">
        <ele>1824.9</ele>
        <time>2018-04-21T05:54:33.000Z</time>
      </trkpt>
      <trkpt lat="40.826349" lon="-3.83069">
        <ele>1825.1</ele>
        <time>2018-04-21T05:54:34.000Z</time>
      </trkpt>
      <trkpt lat="40.826342" lon="-3.830688">
        <ele>1825.2</ele>
        <time>2018-04-21T05:54:35.000Z</time>
      </trkpt>
      <trkpt lat="40.826333" lon="-3.830688">
        <ele>1825.5</ele>
        <time>2018-04-21T05:54:36.000Z</time>
      </trkpt>
      <trkpt lat="40.826325" lon="-3.830689">
        <ele>1825.6</ele>
        <time>2018-04-21T05:54:37.000Z</time>
      </trkpt>
      <trkpt lat="40.826317" lon="-3.830691">
        <ele>1825.9</ele>
        <time>2018-04-21T05:54:38.000Z</time>
      </trkpt>
      <trkpt lat="40.826308" lon="-3.830694">
        <ele>1826.1</ele>
        <time>2018-04-21T05:54:39.000Z</time>
      </trkpt>
      <trkpt lat="40.8263" lon="-3.830696">
        <ele>1826.3</ele>
        <time>2018-04-21T05:54:40.000Z</time>
      </trkpt>
      <trkpt lat="40.826291" lon="-3.830697">
        <ele>1826.5</ele>
        <time>2018-04-21T05:54:41.000Z</time>
      </trkpt>
      <trkpt lat="40.826283" lon="-3.830697">
        <ele>1826.7</ele>
        <time>2018-04-21T05:54:42.000Z</time>
      </trkpt>
      <trkpt lat="40.826275" lon="-3.830696">
        <ele>1826.9</ele>
        <time>2018-04-21T05:54:43.000Z</time>
      </trkpt>
      <trkpt lat="40.826266" lon="-3.830694">
        <ele>1827.1</ele>
        <time>2018-04-21T05:54:44.000Z</time>
      </trkpt>
      <trkpt lat="40.826258" lon="-3.83069">
        <ele>1827.3</ele>
        <time>2018-04-21T05:54:45.000Z</time>
      </trkpt>
      <trkpt lat="40.82625" lon="-3.830686">
        <ele>1827.5</ele>
        <time>2018-04-21T05:54:46.000Z</time>
      </trkpt>
      <trkpt lat="40.826242" lon="-3.830682">
        <ele>1827.7</ele>
        <time>2018-04-21T05:54:47.000Z</time>
      </trkpt>
      <trkpt lat="40.826234" lon="-3.830678">
        <ele>1827.8</ele>
        <time>2018-04-21T05:54:48.000Z</time>
      </trkpt>
      <trkpt lat="40.826227" lon="-3.830675">
        <ele>1828.0</ele>
        <time>2018-04-21T05:54:49.000Z</time>
      </trkpt>
      <trkpt lat="40.826219" lon="-3.830672">
        <ele>1828.2</ele>
        <time>2018-04-21T05:54:50.000Z</time>
      </trkpt>
      <trkpt lat="40.826212" lon="-3.830671">
        <ele>1828.3</ele>
        <time>2018-04-21T05:54:51.000Z</time>
      </trkpt>
      <trkpt lat="40.826204" lon="-3.83067">
        <ele>1828.5</ele>
        <time>2018-04-21T05:54:52.000Z</time>
      </trkpt>
      <trkpt lat="40.826197" lon="-3.830672">
        <ele>1828.7</ele>
        <time>2018-04-21T05:54:53.000Z</time>
      </trkpt>
      <trkpt lat="40.82619" lon="-3.830674">
        <ele>1828.9</ele>
        <time>2018-04-21T05:54:54.000Z</time>
      </trkpt>
      <trkpt lat="40.826183" lon="-3.830677">
        <ele>1829.1</ele>
        <time>2018-04-21T05:54:55.000Z</time>
      </trkpt>
      <trkpt lat="40.826175" lon="-3.830681">
        <ele>1829.3</ele>
        <time>2018-04-21T05:54:56.000Z</time>
      </trkpt>
      <trkpt lat="40.826168" lon="-3.830685">
        <ele>1829.5</ele>
        <time>2018-04-21T05:54:57.000Z</time>
      </trkpt>
      <trkpt lat="40.826161" lon="-3.830689">
        <ele>1829.7</ele>
        <time>2018-04-21T05:54:58.000Z</time>
      </trkpt>
      <trkpt lat="40.826154" lon="-3.830693">
        <ele>1829.8</ele>
        <time>2018-04-21T05:54:59.000Z</time>
      </trkpt>
      <trkpt lat="40.826147" lon="-3.830697">
        <ele>1830.0</ele>
        <time>2018-04-21T05:55:00.000Z</time>
      </trkpt>
      <trkpt lat="40.826139" lon="-3.8307">
        <ele>1830.2</ele>
        <time>2018-04-21T05:55:01.000Z</time>
      </trkpt>
      <trkpt lat="40.826132" lon="-3.830703">
        <ele>1830.4</ele>
        <time>2018-04-21T05:55:02.000Z</time>
      </trkpt>
      <trkpt lat="40.826124" lon="-3.830705">
        <ele>1830.6</ele>
        <time>2018-04-21T05:55:03.000Z</time>
      </trkpt>
      <trkpt lat="40.826116" lon="-3.830707">
        <ele>1830.8</ele>
        <time>2018-04-21T05:55:04.000Z</time>
      </trkpt>
      <trkpt lat="40.826108" lon="-3.830708">
        <ele>1831.0</ele>
        <time>2018-04-21T05:55:05.000Z</time>
      </trkpt>
      <trkpt lat="40.826101" lon="-3.830709">
        <ele>1831.2</ele>
        <time>2018-04-21T05:55:06.000Z</time>
      </trkpt>
      <trkpt lat="40.826093" lon="-3.830709">
        <ele>1831.4</ele>
        <time>2018-04-21T05:55:07.000Z</time>
      </trkpt>
      <trkpt lat="40.826085" lon="-3.83071">
        <ele>1831.6</ele>
        <time>2018-04-21T05:55:08.000Z</time>
      </trkpt>
      <trkpt lat="40.826077" lon="-3.830709">
        <ele>1831.8</ele>
        <time>2018-04-21T05:55:09.000Z</time>
      </trkpt>
      <trkpt lat="40.82607" lon="-3.830709">
        <ele>1831.9</ele>
        <time>2018-04-21T05:55:10.000Z</time>
      </trkpt>
      <trkpt lat="40.826062" lon="-3.830708">
        <ele>1832.1</ele>
        <time>2018-04-21T05:55:11.000Z</time>
      </trkpt>
      <trkpt lat="40.826055" lon="-3.830707">
        <ele>1832.3</ele>
        <time>2018-04-21T05:55:12.000Z</time>
      </trkpt>
      <trkpt lat="40.826047" lon="-3.830705">
        <ele>1832.5</ele>
        <time>2018-04-21T05:55:13.000Z</time>
      </trkpt>
      <trkpt lat="40.82604" lon="-3.830703">
        <ele>1832.6</ele>
        <time>2018-04-21T05:55:14.000Z</time>
      </trkpt>
      <trkpt lat="40.826033" lon="-3.830701">
        <ele>1832.8</ele>
        <time>2018-04-21T05:55:15.000Z</time>
      </trkpt>
      <trkpt lat="40.826026" lon="-3.830699">
        <ele>1833.0</ele>
        <time>2018-04-21T05:55:16.000Z</time>
      </trkpt>
      <trkpt lat="40.826019" lon="-3.830697">
        <ele>1833.1</ele>
        <time>2018-04-21T05:55:17.000Z</time>
      </trkpt>
      <trkpt lat="40.826013" lon="-3.830694">
        <ele>1833.3</ele>
        <time>2018-04-21T05:55:18.000Z</time>
      </trkpt>
      <trkpt lat="40.826007" lon="-3.830692">
        <ele>1833.4</ele>
        <time>2018-04-21T05:55:19.000Z</time>
      </trkpt>
      <trkpt lat="40.826" lon="-3.830689">
        <ele>1833.6</ele>
        <time>2018-04-21T05:55:20.000Z</time>
      </trkpt>
      <trkpt lat="40.825995" lon="-3.830686">
        <ele>1833.7</ele>
        <time>2018-04-21T05:55:21.000Z</time>
      </trkpt>
      <trkpt lat="40.825989" lon="-3.830683">
        <ele>1833.8</ele>
        <time>2018-04-21T05:55:22.000Z</time>
      </trkpt>
      <trkpt lat="40.825983" lon="-3.83068">
        <ele>1834.0</ele>
        <time>2018-04-21T05:55:23.000Z</time>
      </trkpt>
      <trkpt lat="40.825977" lon="-3.830676">
        <ele>1834.1</ele>
        <time>2018-04-21T05:55:24.000Z</time>
      </trkpt>
      <trkpt lat="40.825971" lon="-3.830672">
        <ele>1834.2</ele>
        <time>2018-04-21T05:55:25.000Z</time>
      </trkpt>
      <trkpt lat="40.825965" lon="-3.830668">
        <ele>1834.4</ele>
        <time>2018-04-21T05:55:26.000Z</time>
      </trkpt>
      <trkpt lat="40.825959" lon="-3.830664">
        <ele>1834.5</ele>
        <time>2018-04-21T05:55:27.000Z</time>
      </trkpt>
      <trkpt lat="40.825953" lon="-3.830659">
        <ele>1834.6</ele>
        <time>2018-04-21T05:55:28.000Z</time>
      </trkpt>
      <trkpt lat="40.825946" lon="-3.830654">
        <ele>1834.8</ele>
        <time>2018-04-21T05:55:29.000Z</time>
      </trkpt>
      <trkpt lat="40.825939" lon="-3.830649">
        <ele>1835.0</ele>
        <time>2018-04-21T05:55:30.000Z</time>
      </trkpt>
      <trkpt lat="40.825932" lon="-3.830645">
        <ele>1835.1</ele>
        <time>2018-04-21T05:55:31.000Z</time>
      </trkpt>
      <trkpt lat="40.825925" lon="-3.83064">
        <ele>1835.3</ele>
        <time>2018-04-21T05:55:32.000Z</time>
      </trkpt>
      <trkpt lat="40.825918" lon="-3.830635">
        <ele>1835.4</ele>
        <time>2018-04-21T05:55:33.000Z</time>
      </trkpt>
      <trkpt lat="40.82591" lon="-3.83063">
        <ele>1835.6</ele>
        <time>2018-04-21T05:55:34.000Z</time>
      </trkpt>
      <trkpt lat="40.825903" lon="-3.830626">
        <ele>1835.8</ele>
        <time>2018-04-21T05:55:35.000Z</time>
      </trkpt>
      <trkpt lat="40.825896" lon="-3.830622">
        <ele>1836.0</ele>
        <time>2018-04-21T05:55:36.000Z</time>
      </trkpt>
      <trkpt lat="40.825888" lon="-3.830619">
        <ele>1836.1</ele>
        <time>2018-04-21T05:55:37.000Z</time>
      </trkpt>
      <trkpt lat="40.825881" lon="-3.830615">
        <ele>1836.3</ele>
        <time>2018-04-21T05:55:38.000Z</time>
      </trkpt>
      <trkpt lat="40.825873" lon="-3.830613">
        <ele>1836.5</ele>
        <time>2018-04-21T05:55:39.000Z</time>
      </trkpt>
      <trkpt lat="40.825866" lon="-3.830611">
        <ele>1836.7</ele>
        <time>2018-04-21T05:55:40.000Z</time>
      </trkpt>
      <trkpt lat="40.825858" lon="-3.830609">
        <ele>1836.9</ele>
        <time>2018-04-21T05:55:41.000Z</time>
      </trkpt>
      <trkpt lat="40.825851" lon="-3.830608">
        <ele>1837.0</ele>
        <time>2018-04-21T05:55:42.000Z</time>
      </trkpt>
      <trkpt lat="40.825843" lon="-3.830607">
        <ele>1837.2</ele>
        <time>2018-04-21T05:55:43.000Z</time>
      </trkpt>
      <trkpt lat="40.825836" lon="-3.830606">
        <ele>1837.4</ele>
        <time>2018-04-21T05:55:44.000Z</time>
      </trkpt>
      <trkpt lat="40.825829" lon="-3.830606">
        <ele>1837.6</ele>
        <time>2018-04-21T05:55:45.000Z</time>
      </trkpt>
      <trkpt lat="40.825822" lon="-3.830606">
        <ele>1837.7</ele>
        <time>2018-04-21T05:55:46.000Z</time>
      </trkpt>
      <trkpt lat="40.825815" lon="-3.830607">
        <ele>1837.9</ele>
        <time>2018-04-21T05:55:47.000Z</time>
      </trkpt>
      <trkpt lat="40.825809" lon="-3.830608">
        <ele>1838.1</ele>
        <time>2018-04-21T05:55:48.000Z</time>
      </trkpt>
      <trkpt lat="40.825802" lon="-3.830609">
        <ele>1838.2</ele>
        <time>2018-04-21T05:55:49.000Z</time>
      </trkpt>
      <trkpt lat="40.825796" lon="-3.830611">
        <ele>1838.4</ele>
        <time>2018-04-21T05:55:50.000Z</time>
      </trkpt>
      <trkpt lat="40.82579" lon="-3.830613">
        <ele>1838.5</ele>
        <time>2018-04-21T05:55:51.000Z</time>
      </trkpt>
      <trkpt lat="40.825784" lon="-3.830616">
        <ele>1838.7</ele>
        <time>2018-04-21T05:55:52.000Z</time>
      </trkpt>
      <trkpt lat="40.825778" lon="-3.830618">
        <ele>1838.8</ele>
        <time>2018-04-21T05:55:53.000Z</time>
      </trkpt>
      <trkpt lat="40.825773" lon="-3.830622">
        <ele>1839.0</ele>
        <time>2018-04-21T05:55:54.000Z</time>
      </trkpt>
      <trkpt lat="40.825768" lon="-3.830625">
        <ele>1839.1</ele>
        <time>2018-04-21T05:55:55.000Z</time>
      </trkpt>
      <trkpt lat="40.825763" lon="-3.830628">
        <ele>1839.2</ele>
        <time>2018-04-21T05:55:56.000Z</time>
      </trkpt>
      <trkpt lat="40.825757" lon="-3.83063">
        <ele>1839.4</ele>
        <time>2018-04-21T05:55:57.000Z</time>
      </trkpt>
      <trkpt lat="40.825752" lon="-3.830631">
        <ele>1839.5</ele>
        <time>2018-04-21T05:55:58.000Z</time>
      </trkpt>
      <trkpt lat="40.825745" lon="-3.83063">
        <ele>1839.7</ele>
        <time>2018-04-21T05:55:59.000Z</time>
      </trkpt>
      <trkpt lat="40.825738" lon="-3.830627">
        <ele>1839.8</ele>
        <time>2018-04-21T05:56:00.000Z</time>
      </trkpt>
      <trkpt lat="40.82573" lon="-3.830622">
        <ele>1840.0</ele>
        <time>2018-04-21T05:56:01.000Z</time>
      </trkpt>
      <trkpt lat="40.825722" lon="-3.830617">
        <ele>1840.2</ele>
        <time>2018-04-21T05:56:02.000Z</time>
      </trkpt>
      <trkpt lat="40.825715" lon="-3.830614">
        <ele>1840.4</ele>
        <time>2018-04-21T05:56:03.000Z</time>
      </trkpt>
      <trkpt lat="40.825707" lon="-3.830612">
        <ele>1840.5</ele>
        <time>2018-04-21T05:56:04.000Z</time>
      </trkpt>
      <trkpt lat="40.8257" lon="-3.830611">
        <ele>1840.7</ele>
        <time>2018-04-21T05:56:05.000Z</time>
      </trkpt>
      <trkpt lat="40.825694" lon="-3.830611">
        <ele>1840.9</ele>
        <time>2018-04-21T05:56:06.000Z</time>
      </trkpt>
      <trkpt lat="40.825689" lon="-3.830611">
        <ele>1841.0</ele>
        <time>2018-04-21T05:56:07.000Z</time>
      </trkpt>
      <trkpt lat="40.825684" lon="-3.83061">
        <ele>1841.1</ele>
        <time>2018-04-21T05:56:08.000Z</time>
      </trkpt>
      <trkpt lat="40.82568" lon="-3.830607">
        <ele>1841.2</ele>
        <time>2018-04-21T05:56:09.000Z</time>
      </trkpt>
      <trkpt lat="40.825676" lon="-3.830604">
        <ele>1841.3</ele>
        <time>2018-04-21T05:56:10.000Z</time>
      </trkpt>
      <trkpt lat="40.825673" lon="-3.8306">
        <ele>1841.3</ele>
        <time>2018-04-21T05:56:11.000Z</time>
      </trkpt>
      <trkpt lat="40.825668" lon="-3.830598">
        <ele>1841.5</ele>
        <time>2018-04-21T05:56:12.000Z</time>
      </trkpt>
      <trkpt lat="40.825663" lon="-3.830597">
        <ele>1841.6</ele>
        <time>2018-04-21T05:56:13.000Z</time>
      </trkpt>
      <trkpt lat="40.825658" lon="-3.830598">
        <ele>1841.7</ele>
        <time>2018-04-21T05:56:14.000Z</time>
      </trkpt>
      <trkpt lat="40.825651" lon="-3.830599">
        <ele>1841.9</ele>
        <time>2018-04-21T05:56:15.000Z</time>
      </trkpt>
      <trkpt lat="40.825645" lon="-3.830602">
        <ele>1842.0</ele>
        <time>2018-04-21T05:56:16.000Z</time>
      </trkpt>
      <trkpt lat="40.825638" lon="-3.830605">
        <ele>1842.2</ele>
        <time>2018-04-21T05:56:17.000Z</time>
      </trkpt>
      <trkpt lat="40.825632" lon="-3.830607">
        <ele>1842.4</ele>
        <time>2018-04-21T05:56:18.000Z</time>
      </trkpt>
      <trkpt lat="40.825625" lon="-3.830609">
        <ele>1842.5</ele>
        <time>2018-04-21T05:56:19.000Z</time>
      </trkpt>
      <trkpt lat="40.825619" lon="-3.830611">
        <ele>1842.7</ele>
        <time>2018-04-21T05:56:20.000Z</time>
      </trkpt>
      <trkpt lat="40.825612" lon="-3.830613">
        <ele>1842.9</ele>
        <time>2018-04-21T05:56:21.000Z</time>
      </trkpt>
      <trkpt lat="40.825606" lon="-3.830614">
        <ele>1843.0</ele>
        <time>2018-04-21T05:56:22.000Z</time>
      </trkpt>
      <trkpt lat="40.8256" lon="-3.830615">
        <ele>1843.1</ele>
        <time>2018-04-21T05:56:23.000Z</time>
      </trkpt>
      <trkpt lat="40.825594" lon="-3.830616">
        <ele>1843.3</ele>
        <time>2018-04-21T05:56:24.000Z</time>
      </trkpt>
      <trkpt lat="40.825588" lon="-3.830616">
        <ele>1843.4</ele>
        <time>2018-04-21T05:56:25.000Z</time>
      </trkpt>
      <trkpt lat="40.825582" lon="-3.830615">
        <ele>1843.6</ele>
        <time>2018-04-21T05:56:26.000Z</time>
      </trkpt>
      <trkpt lat="40.825576" lon="-3.830614">
        <ele>1843.7</ele>
        <time>2018-04-21T05:56:27.000Z</time>
      </trkpt>
      <trkpt lat="40.825571" lon="-3.830613">
        <ele>1843.9</ele>
        <time>2018-04-21T05:56:28.000Z</time>
      </trkpt>
      <trkpt lat="40.825565" lon="-3.83061">
        <ele>1844.0</ele>
        <time>2018-04-21T05:56:29.000Z</time>
      </trkpt>
      <trkpt lat="40.82556" lon="-3.830607">
        <ele>1844.1</ele>
        <time>2018-04-21T05:56:30.000Z</time>
      </trkpt>
      <trkpt lat="40.825554" lon="-3.830603">
        <ele>1844.2</ele>
        <time>2018-04-21T05:56:31.000Z</time>
      </trkpt>
      <trkpt lat="40.825549" lon="-3.830599">
        <ele>1844.4</ele>
        <time>2018-04-21T05:56:32.000Z</time>
      </trkpt>
      <trkpt lat="40.825543" lon="-3.830595">
        <ele>1844.5</ele>
        <time>2018-04-21T05:56:33.000Z</time>
      </trkpt>
      <trkpt lat="40.825537" lon="-3.830592">
        <ele>1844.6</ele>
        <time>2018-04-21T05:56:34.000Z</time>
      </trkpt>
      <trkpt lat="40.825531" lon="-3.83059">
        <ele>1844.8</ele>
        <time>2018-04-21T05:56:35.000Z</time>
      </trkpt>
      <trkpt lat="40.825524" lon="-3.830589">
        <ele>1844.9</ele>
        <time>2018-04-21T05:56:36.000Z</time>
      </trkpt>
      <trkpt lat="40.825516" lon="-3.83059">
        <ele>1845.1</ele>
        <time>2018-04-21T05:56:37.000Z</time>
      </trkpt>
      <trkpt lat="40.825508" lon="-3.83059">
        <ele>1845.3</ele>
        <time>2018-04-21T05:56:38.000Z</time>
      </trkpt>
      <trkpt lat="40.8255" lon="-3.830591">
        <ele>1845.5</ele>
        <time>2018-04-21T05:56:39.000Z</time>
      </trkpt>
      <trkpt lat="40.825492" lon="-3.830591">
        <ele>1845.7</ele>
        <time>2018-04-21T05:56:40.000Z</time>
      </trkpt>
      <trkpt lat="40.825484" lon="-3.830589">
        <ele>1845.9</ele>
        <time>2018-04-21T05:56:41.000Z</time>
      </trkpt>
      <trkpt lat="40.825476" lon="-3.830586">
        <ele>1846.1</ele>
        <time>2018-04-21T05:56:42.000Z</time>
      </trkpt>
      <trkpt lat="40.825468" lon="-3.830583">
        <ele>1846.3</ele>
        <time>2018-04-21T05:56:43.000Z</time>
      </trkpt>
      <trkpt lat="40.82546" lon="-3.830578">
        <ele>1846.5</ele>
        <time>2018-04-21T05:56:44.000Z</time>
      </trkpt>
      <trkpt lat="40.825454" lon="-3.830573">
        <ele>1846.6</ele>
        <time>2018-04-21T05:56:45.000Z</time>
      </trkpt>
      <trkpt lat="40.825447" lon="-3.830568">
        <ele>1846.8</ele>
        <time>2018-04-21T05:56:46.000Z</time>
      </trkpt>
      <trkpt lat="40.825442" lon="-3.830564">
        <ele>1846.9</ele>
        <time>2018-04-21T05:56:47.000Z</time>
      </trkpt>
      <trkpt lat="40.825437" lon="-3.830559">
        <ele>1847.0</ele>
        <time>2018-04-21T05:56:48.000Z</time>
      </trkpt>
      <trkpt lat="40.825433" lon="-3.830555">
        <ele>1847.1</ele>
        <time>2018-04-21T05:56:49.000Z</time>
      </trkpt>
      <trkpt lat="40.82543" lon="-3.830552">
        <ele>1847.2</ele>
        <time>2018-04-21T05:56:50.000Z</time>
      </trkpt>
      <trkpt lat="40.825428" lon="-3.83055">
        <ele>1847.2</ele>
        <time>2018-04-21T05:56:51.000Z</time>
      </trkpt>
      <trkpt lat="40.825427" lon="-3.830549">
        <ele>1847.2</ele>
        <time>2018-04-21T05:56:52.000Z</time>
      </trkpt>
      <trkpt lat="40.825426" lon="-3.830548">
        <ele>1847.3</ele>
        <time>2018-04-21T05:56:53.000Z</time>
      </trkpt>
      <trkpt lat="40.825425" lon="-3.830548">
        <ele>1847.3</ele>
        <time>2018-04-21T05:56:54.000Z</time>
      </trkpt>
      <trkpt lat="40.825424" lon="-3.830549">
        <ele>1847.3</ele>
        <time>2018-04-21T05:56:55.000Z</time>
      </trkpt>
      <trkpt lat="40.825422" lon="-3.830551">
        <ele>1847.4</ele>
        <time>2018-04-21T05:56:56.000Z</time>
      </trkpt>
      <trkpt lat="40.825419" lon="-3.830553">
        <ele>1847.4</ele>
        <time>2018-04-21T05:56:57.000Z</time>
      </trkpt>
      <trkpt lat="40.825415" lon="-3.830555">
        <ele>1847.5</ele>
        <time>2018-04-21T05:56:58.000Z</time>
      </trkpt>
      <trkpt lat="40.825409" lon="-3.830558">
        <ele>1847.7</ele>
        <time>2018-04-21T05:56:59.000Z</time>
      </trkpt>
      <trkpt lat="40.825403" lon="-3.830562">
        <ele>1847.8</ele>
        <time>2018-04-21T05:57:00.000Z</time>
      </trkpt>
      <trkpt lat="40.825395" lon="-3.830565">
        <ele>1848.0</ele>
        <time>2018-04-21T05:57:01.000Z</time>
      </trkpt>
      <trkpt lat="40.825387" lon="-3.830569">
        <ele>1848.2</ele>
        <time>2018-04-21T05:57:02.000Z</time>
      </trkpt>
      <trkpt lat="40.825378" lon="-3.830573">
        <ele>1848.5</ele>
        <time>2018-04-21T05:57:03.000Z</time>
      </trkpt>
      <trkpt lat="40.825369" lon="-3.830577">
        <ele>1848.7</ele>
        <time>2018-04-21T05:57:04.000Z</time>
      </trkpt>
      <trkpt lat="40.825359" lon="-3.830581">
        <ele>1849.0</ele>
        <time>2018-04-21T05:57:05.000Z</time>
      </trkpt>
      <trkpt lat="40.82535" lon="-3.830584">
        <ele>1849.2</ele>
        <time>2018-04-21T05:57:06.000Z</time>
      </trkpt>
      <trkpt lat="40.825342" lon="-3.830587">
        <ele>1849.4</ele>
        <time>2018-04-21T05:57:07.000Z</time>
      </trkpt>
      <trkpt lat="40.825334" lon="-3.83059">
        <ele>1849.6</ele>
        <time>2018-04-21T05:57:08.000Z</time>
      </trkpt>
      <trkpt lat="40.825327" lon="-3.830593">
        <ele>1849.8</ele>
        <time>2018-04-21T05:57:09.000Z</time>
      </trkpt>
      <trkpt lat="40.82532" lon="-3.830595">
        <ele>1849.9</ele>
        <time>2018-04-21T05:57:10.000Z</time>
      </trkpt>
      <trkpt lat="40.825313" lon="-3.830598">
        <ele>1850.1</ele>
        <time>2018-04-21T05:57:11.000Z</time>
      </trkpt>
      <trkpt lat="40.825306" lon="-3.830601">
        <ele>1850.3</ele>
        <time>2018-04-21T05:57:12.000Z</time>
      </trkpt>
      <trkpt lat="40.825299" lon="-3.830604">
        <ele>1850.5</ele>
        <time>2018-04-21T05:57:13.000Z</time>
      </trkpt>
      <trkpt lat="40.825292" lon="-3.830607">
        <ele>1850.6</ele>
        <time>2018-04-21T05:57:14.000Z</time>
      </trkpt>
      <trkpt lat="40.825285" lon="-3.830611">
        <ele>1850.8</ele>
        <time>2018-04-21T05:57:15.000Z</time>
      </trkpt>
      <trkpt lat="40.825277" lon="-3.830615">
        <ele>1851.0</ele>
        <time>2018-04-21T05:57:16.000Z</time>
      </trkpt>
      <trkpt lat="40.825268" lon="-3.830621">
        <ele>1851.2</ele>
        <time>2018-04-21T05:57:17.000Z</time>
      </trkpt>
      <trkpt lat="40.82526" lon="-3.830627">
        <ele>1851.4</ele>
        <time>2018-04-21T05:57:18.000Z</time>
      </trkpt>
      <trkpt lat="40.82525" lon="-3.830633">
        <ele>1851.7</ele>
        <time>2018-04-21T05:57:19.000Z</time>
      </trkpt>
      <trkpt lat="40.825241" lon="-3.83064">
        <ele>1851.9</ele>
        <time>2018-04-21T05:57:20.000Z</time>
      </trkpt>
      <trkpt lat="40.825233" lon="-3.830647">
        <ele>1852.1</ele>
        <time>2018-04-21T05:57:21.000Z</time>
      </trkpt>
      <trkpt lat="40.825224" lon="-3.830653">
        <ele>1852.3</ele>
        <time>2018-04-21T05:57:22.000Z</time>
      </trkpt>
      <trkpt lat="40.825217" lon="-3.830659">
        <ele>1852.5</ele>
        <time>2018-04-21T05:57:23.000Z</time>
      </trkpt>
      <trkpt lat="40.825211" lon="-3.830664">
        <ele>1852.7</ele>
        <time>2018-04-21T05:57:24.000Z</time>
      </trkpt>
      <trkpt lat="40.825206" lon="-3.830668">
        <ele>1852.8</ele>
        <time>2018-04-21T05:57:25.000Z</time>
      </trkpt>
      <trkpt lat="40.825202" lon="-3.830671">
        <ele>1852.9</ele>
        <time>2018-04-21T05:57:26.000Z</time>
      </trkpt>
      <trkpt lat="40.8252" lon="-3.830673">
        <ele>1853.0</ele>
        <time>2018-04-21T05:57:27.000Z</time>
      </trkpt>
      <trkpt lat="40.825199" lon="-3.830675">
        <ele>1853.0</ele>
        <time>2018-04-21T05:57:28.000Z</time>
      </trkpt>
      <trkpt lat="40.825198" lon="-3.830676">
        <ele>1853.0</ele>
        <time>2018-04-21T05:57:29.000Z</time>
      </trkpt>
      <trkpt lat="40.825197" lon="-3.830677">
        <ele>1853.0</ele>
        <time>2018-04-21T05:57:30.000Z</time>
      </trkpt>
      <trkpt lat="40.825196" lon="-3.830678">
        <ele>1853.1</ele>
        <time>2018-04-21T05:57:31.000Z</time>
      </trkpt>
      <trkpt lat="40.825194" lon="-3.830679">
        <ele>1853.1</ele>
        <time>2018-04-21T05:57:32.000Z</time>
      </trkpt>
      <trkpt lat="40.825191" lon="-3.83068">
        <ele>1853.2</ele>
        <time>2018-04-21T05:57:33.000Z</time>
      </trkpt>
      <trkpt lat="40.825187" lon="-3.830682">
        <ele>1853.3</ele>
        <time>2018-04-21T05:57:34.000Z</time>
      </trkpt>
      <trkpt lat="40.825181" lon="-3.830685">
        <ele>1853.4</ele>
        <time>2018-04-21T05:57:35.000Z</time>
      </trkpt>
      <trkpt lat="40.825176" lon="-3.830688">
        <ele>1853.6</ele>
        <time>2018-04-21T05:57:36.000Z</time>
      </trkpt>
      <trkpt lat="40.825172" lon="-3.83069">
        <ele>1853.7</ele>
        <time>2018-04-21T05:57:37.000Z</time>
      </trkpt>
      <trkpt lat="40.825172" lon="-3.830691">
        <ele>1853.7</ele>
        <time>2018-04-21T05:57:38.000Z</time>
      </trkpt>
      <trkpt lat="40.825172" lon="-3.830691">
        <ele>1853.7</ele>
        <time>2018-04-21T05:57:39.000Z</time>
      </trkpt>
      <trkpt lat="40.825169" lon="-3.830691">
        <ele>1853.7</ele>
        <time>2018-04-21T05:57:40.000Z</time>
      </trkpt>
      <trkpt lat="40.825164" lon="-3.830692">
        <ele>1853.9</ele>
        <time>2018-04-21T05:57:41.000Z</time>
      </trkpt>
      <trkpt lat="40.825157" lon="-3.830694">
        <ele>1854.0</ele>
        <time>2018-04-21T05:57:42.000Z</time>
      </trkpt>
      <trkpt lat="40.825148" lon="-3.830697">
        <ele>1854.3</ele>
        <time>2018-04-21T05:57:43.000Z</time>
      </trkpt>
      <trkpt lat="40.82514" lon="-3.830701">
        <ele>1854.5</ele>
        <time>2018-04-21T05:57:44.000Z</time>
      </trkpt>
      <trkpt lat="40.825132" lon="-3.830706">
        <ele>1854.7</ele>
        <time>2018-04-21T05:57:45.000Z</time>
      </trkpt>
      <trkpt lat="40.825123" lon="-3.830712">
        <ele>1854.9</ele>
        <time>2018-04-21T05:57:46.000Z</time>
      </trkpt>
      <trkpt lat="40.825115" lon="-3.830719">
        <ele>1855.1</ele>
        <time>2018-04-21T05:57:47.000Z</time>
      </trkpt>
      <trkpt lat="40.825107" lon="-3.830726">
        <ele>1855.3</ele>
        <time>2018-04-21T05:57:48.000Z</time>
      </trkpt>
      <trkpt lat="40.825099" lon="-3.830734">
        <ele>1855.5</ele>
        <time>2018-04-21T05:57:49.000Z</time>
      </trkpt>
      <trkpt lat="40.825091" lon="-3.830742">
        <ele>1855.7</ele>
        <time>2018-04-21T05:57:50.000Z</time>
      </trkpt>
      <trkpt lat="40.825083" lon="-3.830751">
        <ele>1855.9</ele>
        <time>2018-04-21T05:57:51.000Z</time>
      </trkpt>
      <trkpt lat="40.825076" lon="-3.83076">
        <ele>1856.1</ele>
        <time>2018-04-21T05:57:52.000Z</time>
      </trkpt>
      <trkpt lat="40.825068" lon="-3.830769">
        <ele>1856.3</ele>
        <time>2018-04-21T05:57:53.000Z</time>
      </trkpt>
      <trkpt lat="40.825061" lon="-3.830779">
        <ele>1856.5</ele>
        <time>2018-04-21T05:57:54.000Z</time>
      </trkpt>
      <trkpt lat="40.825055" lon="-3.830788">
        <ele>1856.6</ele>
        <time>2018-04-21T05:57:55.000Z</time>
      </trkpt>
      <trkpt lat="40.825048" lon="-3.830797">
        <ele>1856.8</ele>
        <time>2018-04-21T05:57:56.000Z</time>
      </trkpt>
      <trkpt lat="40.825041" lon="-3.830806">
        <ele>1857.0</ele>
        <time>2018-04-21T05:57:57.000Z</time>
      </trkpt>
      <trkpt lat="40.825035" lon="-3.830814">
        <ele>1857.1</ele>
        <time>2018-04-21T05:57:58.000Z</time>
      </trkpt>
      <trkpt lat="40.825029" lon="-3.830821">
        <ele>1857.3</ele>
        <time>2018-04-21T05:57:59.000Z</time>
      </trkpt>
      <trkpt lat="40.825022" lon="-3.830827">
        <ele>1857.5</ele>
        <time>2018-04-21T05:58:00.000Z</time>
      </trkpt>
      <trkpt lat="40.825016" lon="-3.830832">
        <ele>1857.6</ele>
        <time>2018-04-21T05:58:01.000Z</time>
      </trkpt>
      <trkpt lat="40.82501" lon="-3.830836">
        <ele>1857.7</ele>
        <time>2018-04-21T05:58:02.000Z</time>
      </trkpt>
      <trkpt lat="40.825004" lon="-3.830838">
        <ele>1857.8</ele>
        <time>2018-04-21T05:58:03.000Z</time>
      </trkpt>
      <trkpt lat="40.824998" lon="-3.83084">
        <ele>1857.9</ele>
        <time>2018-04-21T05:58:04.000Z</time>
      </trkpt>
      <trkpt lat="40.824992" lon="-3.830841">
        <ele>1858.1</ele>
        <time>2018-04-21T05:58:05.000Z</time>
      </trkpt>
      <trkpt lat="40.824987" lon="-3.830842">
        <ele>1858.2</ele>
        <time>2018-04-21T05:58:06.000Z</time>
      </trkpt>
      <trkpt lat="40.824981" lon="-3.830842">
        <ele>1858.3</ele>
        <time>2018-04-21T05:58:07.000Z</time>
      </trkpt>
      <trkpt lat="40.824977" lon="-3.830843">
        <ele>1858.4</ele>
        <time>2018-04-21T05:58:08.000Z</time>
      </trkpt>
      <trkpt lat="40.824972" lon="-3.830844">
        <ele>1858.5</ele>
        <time>2018-04-21T05:58:09.000Z</time>
      </trkpt>
      <trkpt lat="40.824969" lon="-3.830846">
        <ele>1858.5</ele>
        <time>2018-04-21T05:58:10.000Z</time>
      </trkpt>
      <trkpt lat="40.824965" lon="-3.830849">
        <ele>1858.6</ele>
        <time>2018-04-21T05:58:11.000Z</time>
      </trkpt>
      <trkpt lat="40.824962" lon="-3.830852">
        <ele>1858.6</ele>
        <time>2018-04-21T05:58:12.000Z</time>
      </trkpt>
      <trkpt lat="40.824958" lon="-3.830855">
        <ele>1858.6</ele>
        <time>2018-04-21T05:58:13.000Z</time>
      </trkpt>
      <trkpt lat="40.824954" lon="-3.830858">
        <ele>1858.7</ele>
        <time>2018-04-21T05:58:14.000Z</time>
      </trkpt>
      <trkpt lat="40.824948" lon="-3.830859">
        <ele>1858.8</ele>
        <time>2018-04-21T05:58:15.000Z</time>
      </trkpt>
      <trkpt lat="40.824941" lon="-3.830859">
        <ele>1859.0</ele>
        <time>2018-04-21T05:58:16.000Z</time>
      </trkpt>
      <trkpt lat="40.824933" lon="-3.830858">
        <ele>1859.2</ele>
        <time>2018-04-21T05:58:17.000Z</time>
      </trkpt>
      <trkpt lat="40.824925" lon="-3.830858">
        <ele>1859.4</ele>
        <time>2018-04-21T05:58:18.000Z</time>
      </trkpt>
      <trkpt lat="40.824917" lon="-3.830859">
        <ele>1859.6</ele>
        <time>2018-04-21T05:58:19.000Z</time>
      </trkpt>
      <trkpt lat="40.82491" lon="-3.830862">
        <ele>1859.7</ele>
        <time>2018-04-21T05:58:20.000Z</time>
      </trkpt>
      <trkpt lat="40.824904" lon="-3.830867">
        <ele>1859.8</ele>
        <time>2018-04-21T05:58:21.000Z</time>
      </trkpt>
      <trkpt lat="40.824899" lon="-3.830873">
        <ele>1859.8</ele>
        <time>2018-04-21T05:58:22.000Z</time>
      </trkpt>
      <trkpt lat="40.824895" lon="-3.830881">
        <ele>1859.7</ele>
        <time>2018-04-21T05:58:23.000Z</time>
      </trkpt>
      <trkpt lat="40.824891" lon="-3.830889">
        <ele>1859.7</ele>
        <time>2018-04-21T05:58:24.000Z</time>
      </trkpt>
      <trkpt lat="40.824887" lon="-3.830898">
        <ele>1859.7</ele>
        <time>2018-04-21T05:58:25.000Z</time>
      </trkpt>
      <trkpt lat="40.824883" lon="-3.830907">
        <ele>1859.6</ele>
        <time>2018-04-21T05:58:26.000Z</time>
      </trkpt>
      <trkpt lat="40.824879" lon="-3.830915">
        <ele>1859.6</ele>
        <time>2018-04-21T05:58:27.000Z</time>
      </trkpt>
      <trkpt lat="40.824874" lon="-3.830923">
        <ele>1859.6</ele>
        <time>2018-04-21T05:58:28.000Z</time>
      </trkpt>
      <trkpt lat="40.824869" lon="-3.83093">
        <ele>1859.6</ele>
        <time>2018-04-21T05:58:29.000Z</time>
      </trkpt>
      <trkpt lat="40.824863" lon="-3.830936">
        <ele>1859.6</ele>
        <time>2018-04-21T05:58:30.000Z</time>
      </trkpt>
      <trkpt lat="40.824857" lon="-3.830941">
        <ele>1859.7</ele>
        <time>2018-04-21T05:58:31.000Z</time>
      </trkpt>
      <trkpt lat="40.82485" lon="-3.830946">
        <ele>1859.8</ele>
        <time>2018-04-21T05:58:32.000Z</time>
      </trkpt>
      <trkpt lat="40.824843" lon="-3.830949">
        <ele>1859.9</ele>
        <time>2018-04-21T05:58:33.000Z</time>
      </trkpt>
      <trkpt lat="40.824836" lon="-3.830952">
        <ele>1860.1</ele>
        <time>2018-04-21T05:58:34.000Z</time>
      </trkpt>
      <trkpt lat="40.824829" lon="-3.830955">
        <ele>1860.2</ele>
        <time>2018-04-21T05:58:35.000Z</time>
      </trkpt>
      <trkpt lat="40.824821" lon="-3.830957">
        <ele>1860.3</ele>
        <time>2018-04-21T05:58:36.000Z</time>
      </trkpt>
      <trkpt lat="40.824815" lon="-3.830958">
        <ele>1860.5</ele>
        <time>2018-04-21T05:58:37.000Z</time>
      </trkpt>
      <trkpt lat="40.824808" lon="-3.83096">
        <ele>1860.6</ele>
        <time>2018-04-21T05:58:38.000Z</time>
      </trkpt>
      <trkpt lat="40.824801" lon="-3.830961">
        <ele>1860.8</ele>
        <time>2018-04-21T05:58:39.000Z</time>
      </trkpt>
      <trkpt lat="40.824795" lon="-3.830962">
        <ele>1860.9</ele>
        <time>2018-04-21T05:58:40.000Z</time>
      </trkpt>
      <trkpt lat="40.824789" lon="-3.830962">
        <ele>1861.1</ele>
        <time>2018-04-21T05:58:41.000Z</time>
      </trkpt>
      <trkpt lat="40.824784" lon="-3.830962">
        <ele>1861.2</ele>
        <time>2018-04-21T05:58:42.000Z</time>
      </trkpt>
      <trkpt lat="40.824778" lon="-3.830963">
        <ele>1861.3</ele>
        <time>2018-04-21T05:58:43.000Z</time>
      </trkpt>
      <trkpt lat="40.824773" lon="-3.830963">
        <ele>1861.4</ele>
        <time>2018-04-21T05:58:44.000Z</time>
      </trkpt>
      <trkpt lat="40.824768" lon="-3.830963">
        <ele>1861.6</ele>
        <time>2018-04-21T05:58:45.000Z</time>
      </trkpt>
      <trkpt lat="40.824762" lon="-3.830962">
        <ele>1861.7</ele>
        <time>2018-04-21T05:58:46.000Z</time>
      </trkpt>
      <trkpt lat="40.824757" lon="-3.830962">
        <ele>1861.9</ele>
        <time>2018-04-21T05:58:47.000Z</time>
      </trkpt>
      <trkpt lat="40.824752" lon="-3.830962">
        <ele>1862.0</ele>
        <time>2018-04-21T05:58:48.000Z</time>
      </trkpt>
      <trkpt lat="40.824747" lon="-3.830962">
        <ele>1862.1</ele>
        <time>2018-04-21T05:58:49.000Z</time>
      </trkpt>
      <trkpt lat="40.824742" lon="-3.830962">
        <ele>1862.2</ele>
        <time>2018-04-21T05:58:50.000Z</time>
      </trkpt>
      <trkpt lat="40.824737" lon="-3.830962">
        <ele>1862.3</ele>
        <time>2018-04-21T05:58:51.000Z</time>
      </trkpt>
      <trkpt lat="40.824732" lon="-3.830962">
        <ele>1862.5</ele>
        <time>2018-04-21T05:58:52.000Z</time>
      </trkpt>
      <trkpt lat="40.824726" lon="-3.830963">
        <ele>1862.6</ele>
        <time>2018-04-21T05:58:53.000Z</time>
      </trkpt>
      <trkpt lat="40.824721" lon="-3.830963">
        <ele>1862.7</ele>
        <time>2018-04-21T05:58:54.000Z</time>
      </trkpt>
      <trkpt lat="40.824715" lon="-3.830964">
        <ele>1862.9</ele>
        <time>2018-04-21T05:58:55.000Z</time>
      </trkpt>
      <trkpt lat="40.82471" lon="-3.830965">
        <ele>1863.0</ele>
        <time>2018-04-21T05:58:56.000Z</time>
      </trkpt>
      <trkpt lat="40.824704" lon="-3.830966">
        <ele>1863.1</ele>
        <time>2018-04-21T05:58:57.000Z</time>
      </trkpt>
      <trkpt lat="40.824698" lon="-3.830967">
        <ele>1863.2</ele>
        <time>2018-04-21T05:58:58.000Z</time>
      </trkpt>
      <trkpt lat="40.824692" lon="-3.830968">
        <ele>1863.4</ele>
        <time>2018-04-21T05:58:59.000Z</time>
      </trkpt>
      <trkpt lat="40.824686" lon="-3.830967">
        <ele>1863.5</ele>
        <time>2018-04-21T05:59:00.000Z</time>
      </trkpt>
      <trkpt lat="40.82468" lon="-3.830966">
        <ele>1863.7</ele>
        <time>2018-04-21T05:59:01.000Z</time>
      </trkpt>
      <trkpt lat="40.824674" lon="-3.830964">
        <ele>1863.9</ele>
        <time>2018-04-21T05:59:02.000Z</time>
      </trkpt>
      <trkpt lat="40.824667" lon="-3.830962">
        <ele>1864.1</ele>
        <time>2018-04-21T05:59:03.000Z</time>
      </trkpt>
      <trkpt lat="40.824661" lon="-3.83096">
        <ele>1864.3</ele>
        <time>2018-04-21T05:59:04.000Z</time>
      </trkpt>
      <trkpt lat="40.824654" lon="-3.830959">
        <ele>1864.4</ele>
        <time>2018-04-21T05:59:05.000Z</time>
      </trkpt>
      <trkpt lat="40.824646" lon="-3.830958">
        <ele>1864.7</ele>
        <time>2018-04-21T05:59:06.000Z</time>
      </trkpt>
      <trkpt lat="40.824638" lon="-3.830958">
        <ele>1864.9</ele>
        <time>2018-04-21T05:59:07.000Z</time>
      </trkpt>
      <trkpt lat="40.824631" lon="-3.830959">
        <ele>1865.0</ele>
        <time>2018-04-21T05:59:08.000Z</time>
      </trkpt>
      <trkpt lat="40.824624" lon="-3.830959">
        <ele>1865.2</ele>
        <time>2018-04-21T05:59:09.000Z</time>
      </trkpt>
      <trkpt lat="40.824617" lon="-3.83096">
        <ele>1865.3</ele>
        <time>2018-04-21T05:59:10.000Z</time>
      </trkpt>
      <trkpt lat="40.824612" lon="-3.830961">
        <ele>1865.5</ele>
        <time>2018-04-21T05:59:11.000Z</time>
      </trkpt>
      <trkpt lat="40.824607" lon="-3.830963">
        <ele>1865.5</ele>
        <time>2018-04-21T05:59:12.000Z</time>
      </trkpt>
      <trkpt lat="40.824603" lon="-3.830964">
        <ele>1865.6</ele>
        <time>2018-04-21T05:59:13.000Z</time>
      </trkpt>
      <trkpt lat="40.824601" lon="-3.830965">
        <ele>1865.7</ele>
        <time>2018-04-21T05:59:14.000Z</time>
      </trkpt>
      <trkpt lat="40.8246" lon="-3.830965">
        <ele>1865.7</ele>
        <time>2018-04-21T05:59:23.000Z</time>
      </trkpt>
      <trkpt lat="40.824598" lon="-3.830965">
        <ele>1865.7</ele>
        <time>2018-04-21T05:59:26.000Z</time>
      </trkpt>
      <trkpt lat="40.824595" lon="-3.830963">
        <ele>1865.8</ele>
        <time>2018-04-21T05:59:27.000Z</time>
      </trkpt>
      <trkpt lat="40.824591" lon="-3.83096">
        <ele>1866.0</ele>
        <time>2018-04-21T05:59:28.000Z</time>
      </trkpt>
      <trkpt lat="40.824585" lon="-3.830955">
        <ele>1866.2</ele>
        <time>2018-04-21T05:59:29.000Z</time>
      </trkpt>
      <trkpt lat="40.824576" lon="-3.830949">
        <ele>1866.5</ele>
        <time>2018-04-21T05:59:30.000Z</time>
      </trkpt>
      <trkpt lat="40.824567" lon="-3.830942">
        <ele>1866.8</ele>
        <time>2018-04-21T05:59:31.000Z</time>
      </trkpt>
      <trkpt lat="40.824558" lon="-3.830936">
        <ele>1867.1</ele>
        <time>2018-04-21T05:59:32.000Z</time>
      </trkpt>
      <trkpt lat="40.824548" lon="-3.830932">
        <ele>1867.4</ele>
        <time>2018-04-21T05:59:33.000Z</time>
      </trkpt>
      <trkpt lat="40.82454" lon="-3.830929">
        <ele>1867.7</ele>
        <time>2018-04-21T05:59:34.000Z</time>
      </trkpt>
      <trkpt lat="40.824532" lon="-3.830927">
        <ele>1867.9</ele>
        <time>2018-04-21T05:59:35.000Z</time>
      </trkpt>
      <trkpt lat="40.824524" lon="-3.830926">
        <ele>1868.1</ele>
        <time>2018-04-21T05:59:36.000Z</time>
      </trkpt>
      <trkpt lat="40.824516" lon="-3.830925">
        <ele>1868.3</ele>
        <time>2018-04-21T05:59:37.000Z</time>
      </trkpt>
      <trkpt lat="40.824509" lon="-3.830925">
        <ele>1868.5</ele>
        <time>2018-04-21T05:59:38.000Z</time>
      </trkpt>
      <trkpt lat="40.824501" lon="-3.830924">
        <ele>1868.7</ele>
        <time>2018-04-21T05:59:39.000Z</time>
      </trkpt>
      <trkpt lat="40.824494" lon="-3.830924">
        <ele>1868.9</ele>
        <time>2018-04-21T05:59:40.000Z</time>
      </trkpt>
      <trkpt lat="40.824487" lon="-3.830923">
        <ele>1869.1</ele>
        <time>2018-04-21T05:59:41.000Z</time>
      </trkpt>
      <trkpt lat="40.824479" lon="-3.830921">
        <ele>1869.3</ele>
        <time>2018-04-21T05:59:42.000Z</time>
      </trkpt>
      <trkpt lat="40.824472" lon="-3.830919">
        <ele>1869.5</ele>
        <time>2018-04-21T05:59:43.000Z</time>
      </trkpt>
      <trkpt lat="40.824464" lon="-3.830916">
        <ele>1869.7</ele>
        <time>2018-04-21T05:59:44.000Z</time>
      </trkpt>
      <trkpt lat="40.824456" lon="-3.830913">
        <ele>1870.0</ele>
        <time>2018-04-21T05:59:45.000Z</time>
      </trkpt>
      <trkpt lat="40.824449" lon="-3.83091">
        <ele>1870.2</ele>
        <time>2018-04-21T05:59:46.000Z</time>
      </trkpt>
      <trkpt lat="40.824441" lon="-3.830907">
        <ele>1870.4</ele>
        <time>2018-04-21T05:59:47.000Z</time>
      </trkpt>
      <trkpt lat="40.824433" lon="-3.830904">
        <ele>1870.7</ele>
        <time>2018-04-21T05:59:48.000Z</time>
      </trkpt>
      <trkpt lat="40.824425" lon="-3.830901">
        <ele>1870.9</ele>
        <time>2018-04-21T05:59:49.000Z</time>
      </trkpt>
      <trkpt lat="40.824418" lon="-3.830899">
        <ele>1871.1</ele>
        <time>2018-04-21T05:59:50.000Z</time>
      </trkpt>
      <trkpt lat="40.82441" lon="-3.830897">
        <ele>1871.3</ele>
        <time>2018-04-21T05:59:51.000Z</time>
      </trkpt>
      <trkpt lat="40.824403" lon="-3.830896">
        <ele>1871.5</ele>
        <time>2018-04-21T05:59:52.000Z</time>
      </trkpt>
      <trkpt lat="40.824395" lon="-3.830895">
        <ele>1871.7</ele>
        <time>2018-04-21T05:59:53.000Z</time>
      </trkpt>
      <trkpt lat="40.824388" lon="-3.830895">
        <ele>1871.9</ele>
        <time>2018-04-21T05:59:54.000Z</time>
      </trkpt>
      <trkpt lat="40.824381" lon="-3.830895">
        <ele>1872.0</ele>
        <time>2018-04-21T05:59:55.000Z</time>
      </trkpt>
      <trkpt lat="40.824374" lon="-3.830894">
        <ele>1872.2</ele>
        <time>2018-04-21T05:59:56.000Z</time>
      </trkpt>
      <trkpt lat="40.824367" lon="-3.830894">
        <ele>1872.4</ele>
        <time>2018-04-21T05:59:57.000Z</time>
      </trkpt>
      <trkpt lat="40.824361" lon="-3.830894">
        <ele>1872.5</ele>
        <time>2018-04-21T05:59:58.000Z</time>
      </trkpt>
      <trkpt lat="40.824355" lon="-3.830893">
        <ele>1872.7</ele>
        <time>2018-04-21T05:59:59.000Z</time>
      </trkpt>
      <trkpt lat="40.824349" lon="-3.830892">
        <ele>1872.9</ele>
        <time>2018-04-21T06:00:00.000Z</time>
      </trkpt>
      <trkpt lat="40.824343" lon="-3.83089">
        <ele>1873.0</ele>
        <time>2018-04-21T06:00:01.000Z</time>
      </trkpt>
      <trkpt lat="40.824338" lon="-3.830888">
        <ele>1873.2</ele>
        <time>2018-04-21T06:00:02.000Z</time>
      </trkpt>
      <trkpt lat="40.824333" lon="-3.830886">
        <ele>1873.3</ele>
        <time>2018-04-21T06:00:03.000Z</time>
      </trkpt>
      <trkpt lat="40.824328" lon="-3.830883">
        <ele>1873.5</ele>
        <time>2018-04-21T06:00:04.000Z</time>
      </trkpt>
      <trkpt lat="40.824323" lon="-3.83088">
        <ele>1873.6</ele>
        <time>2018-04-21T06:00:05.000Z</time>
      </trkpt>
      <trkpt lat="40.824317" lon="-3.830876">
        <ele>1873.8</ele>
        <time>2018-04-21T06:00:06.000Z</time>
      </trkpt>
      <trkpt lat="40.824312" lon="-3.830871">
        <ele>1874.0</ele>
        <time>2018-04-21T06:00:07.000Z</time>
      </trkpt>
      <trkpt lat="40.824306" lon="-3.830866">
        <ele>1874.2</ele>
        <time>2018-04-21T06:00:08.000Z</time>
      </trkpt>
      <trkpt lat="40.824301" lon="-3.830861">
        <ele>1874.4</ele>
        <time>2018-04-21T06:00:09.000Z</time>
      </trkpt>
      <trkpt lat="40.824295" lon="-3.830855">
        <ele>1874.6</ele>
        <time>2018-04-21T06:00:10.000Z</time>
      </trkpt>
      <trkpt lat="40.824289" lon="-3.830848">
        <ele>1874.9</ele>
        <time>2018-04-21T06:00:11.000Z</time>
      </trkpt>
      <trkpt lat="40.824283" lon="-3.830842">
        <ele>1875.1</ele>
        <time>2018-04-21T06:00:12.000Z</time>
      </trkpt>
      <trkpt lat="40.824278" lon="-3.830837">
        <ele>1875.3</ele>
        <time>2018-04-21T06:00:13.000Z</time>
      </trkpt>
      <trkpt lat="40.824273" lon="-3.830832">
        <ele>1875.4</ele>
        <time>2018-04-21T06:00:14.000Z</time>
      </trkpt>
      <trkpt lat="40.824269" lon="-3.830827">
        <ele>1875.5</ele>
        <time>2018-04-21T06:00:15.000Z</time>
      </trkpt>
      <trkpt lat="40.824265" lon="-3.830821">
        <ele>1875.6</ele>
        <time>2018-04-21T06:00:16.000Z</time>
      </trkpt>
      <trkpt lat="40.824261" lon="-3.830815">
        <ele>1875.7</ele>
        <time>2018-04-21T06:00:17.000Z</time>
      </trkpt>
      <trkpt lat="40.824258" lon="-3.830807">
        <ele>1875.8</ele>
        <time>2018-04-21T06:00:18.000Z</time>
      </trkpt>
      <trkpt lat="40.824254" lon="-3.830798">
        <ele>1875.9</ele>
        <time>2018-04-21T06:00:19.000Z</time>
      </trkpt>
      <trkpt lat="40.824251" lon="-3.830787">
        <ele>1876.0</ele>
        <time>2018-04-21T06:00:20.000Z</time>
      </trkpt>
      <trkpt lat="40.824247" lon="-3.830777">
        <ele>1876.1</ele>
        <time>2018-04-21T06:00:21.000Z</time>
      </trkpt>
      <trkpt lat="40.824244" lon="-3.830765">
        <ele>1876.1</ele>
        <time>2018-04-21T06:00:22.000Z</time>
      </trkpt>
      <trkpt lat="40.82424" lon="-3.830754">
        <ele>1876.2</ele>
        <time>2018-04-21T06:00:23.000Z</time>
      </trkpt>
      <trkpt lat="40.824236" lon="-3.830743">
        <ele>1876.3</ele>
        <time>2018-04-21T06:00:24.000Z</time>
      </trkpt>
      <trkpt lat="40.824232" lon="-3.830733">
        <ele>1876.4</ele>
        <time>2018-04-21T06:00:25.000Z</time>
      </trkpt>
      <trkpt lat="40.824227" lon="-3.830724">
        <ele>1876.5</ele>
        <time>2018-04-21T06:00:26.000Z</time>
      </trkpt>
      <trkpt lat="40.824221" lon="-3.830716">
        <ele>1876.7</ele>
        <time>2018-04-21T06:00:27.000Z</time>
      </trkpt>
      <trkpt lat="40.824216" lon="-3.83071">
        <ele>1876.8</ele>
        <time>2018-04-21T06:00:28.000Z</time>
      </trkpt>
      <trkpt lat="40.824209" lon="-3.830704">
        <ele>1877.0</ele>
        <time>2018-04-21T06:00:29.000Z</time>
      </trkpt>
      <trkpt lat="40.824203" lon="-3.8307">
        <ele>1877.1</ele>
        <time>2018-04-21T06:00:30.000Z</time>
      </trkpt>
      <trkpt lat="40.824196" lon="-3.830696">
        <ele>1877.3</ele>
        <time>2018-04-21T06:00:31.000Z</time>
      </trkpt>
      <trkpt lat="40.824189" lon="-3.830693">
        <ele>1877.5</ele>
        <time>2018-04-21T06:00:32.000Z</time>
      </trkpt>
      <trkpt lat="40.824182" lon="-3.83069">
        <ele>1877.6</ele>
        <time>2018-04-21T06:00:33.000Z</time>
      </trkpt>
      <trkpt lat="40.824175" lon="-3.830688">
        <ele>1877.8</ele>
        <time>2018-04-21T06:00:34.000Z</time>
      </trkpt>
      <trkpt lat="40.824167" lon="-3.830686">
        <ele>1878.0</ele>
        <time>2018-04-21T06:00:35.000Z</time>
      </trkpt>
      <trkpt lat="40.82416" lon="-3.830684">
        <ele>1878.2</ele>
        <time>2018-04-21T06:00:36.000Z</time>
      </trkpt>
      <trkpt lat="40.824153" lon="-3.830682">
        <ele>1878.4</ele>
        <time>2018-04-21T06:00:37.000Z</time>
      </trkpt>
      <trkpt lat="40.824146" lon="-3.83068">
        <ele>1878.6</ele>
        <time>2018-04-21T06:00:38.000Z</time>
      </trkpt>
      <trkpt lat="40.824139" lon="-3.830678">
        <ele>1878.9</ele>
        <time>2018-04-21T06:00:39.000Z</time>
      </trkpt>
      <trkpt lat="40.824132" lon="-3.830677">
        <ele>1879.1</ele>
        <time>2018-04-21T06:00:40.000Z</time>
      </trkpt>
      <trkpt lat="40.824125" lon="-3.830675">
        <ele>1879.3</ele>
        <time>2018-04-21T06:00:41.000Z</time>
      </trkpt>
      <trkpt lat="40.824118" lon="-3.830674">
        <ele>1879.5</ele>
        <time>2018-04-21T06:00:42.000Z</time>
      </trkpt>
      <trkpt lat="40.824111" lon="-3.830672">
        <ele>1879.7</ele>
        <time>2018-04-21T06:00:43.000Z</time>
      </trkpt>
      <trkpt lat="40.824104" lon="-3.83067">
        <ele>1880.0</ele>
        <time>2018-04-21T06:00:44.000Z</time>
      </trkpt>
      <trkpt lat="40.824097" lon="-3.830669">
        <ele>1880.2</ele>
        <time>2018-04-21T06:00:45.000Z</time>
      </trkpt>
      <trkpt lat="40.824091" lon="-3.830668">
        <ele>1880.4</ele>
        <time>2018-04-21T06:00:46.000Z</time>
      </trkpt>
      <trkpt lat="40.824084" lon="-3.830666">
        <ele>1880.6</ele>
        <time>2018-04-21T06:00:47.000Z</time>
      </trkpt>
      <trkpt lat="40.824078" lon="-3.830665">
        <ele>1880.8</ele>
        <time>2018-04-21T06:00:48.000Z</time>
      </trkpt>
      <trkpt lat="40.824071" lon="-3.830664">
        <ele>1881.0</ele>
        <time>2018-04-21T06:00:49.000Z</time>
      </trkpt>
      <trkpt lat="40.824065" lon="-3.830662">
        <ele>1881.2</ele>
        <time>2018-04-21T06:00:50.000Z</time>
      </trkpt>
      <trkpt lat="40.824059" lon="-3.830661">
        <ele>1881.4</ele>
        <time>2018-04-21T06:00:51.000Z</time>
      </trkpt>
      <trkpt lat="40.824052" lon="-3.83066">
        <ele>1881.6</ele>
        <time>2018-04-21T06:00:52.000Z</time>
      </trkpt>
      <trkpt lat="40.824046" lon="-3.830659">
        <ele>1881.8</ele>
        <time>2018-04-21T06:00:53.000Z</time>
      </trkpt>
      <trkpt lat="40.82404" lon="-3.830658">
        <ele>1882.0</ele>
        <time>2018-04-21T06:00:54.000Z</time>
      </trkpt>
      <trkpt lat="40.824034" lon="-3.830656">
        <ele>1882.2</ele>
        <time>2018-04-21T06:00:55.000Z</time>
      </trkpt>
      <trkpt lat="40.824028" lon="-3.830655">
        <ele>1882.4</ele>
        <time>2018-04-21T06:00:56.000Z</time>
      </trkpt>
      <trkpt lat="40.824022" lon="-3.830654">
        <ele>1882.6</ele>
        <time>2018-04-21T06:00:57.000Z</time>
      </trkpt>
      <trkpt lat="40.824016" lon="-3.830653">
        <ele>1882.7</ele>
        <time>2018-04-21T06:00:58.000Z</time>
      </trkpt>
      <trkpt lat="40.824011" lon="-3.830651">
        <ele>1882.9</ele>
        <time>2018-04-21T06:00:59.000Z</time>
      </trkpt>
      <trkpt lat="40.824005" lon="-3.83065">
        <ele>1883.1</ele>
        <time>2018-04-21T06:01:00.000Z</time>
      </trkpt>
      <trkpt lat="40.823999" lon="-3.830649">
        <ele>1883.3</ele>
        <time>2018-04-21T06:01:01.000Z</time>
      </trkpt>
      <trkpt lat="40.823994" lon="-3.830647">
        <ele>1883.4</ele>
        <time>2018-04-21T06:01:02.000Z</time>
      </trkpt>
      <trkpt lat="40.823988" lon="-3.830646">
        <ele>1883.6</ele>
        <time>2018-04-21T06:01:03.000Z</time>
      </trkpt>
      <trkpt lat="40.823982" lon="-3.830644">
        <ele>1883.8</ele>
        <time>2018-04-21T06:01:04.000Z</time>
      </trkpt>
      <trkpt lat="40.823977" lon="-3.830642">
        <ele>1884.0</ele>
        <time>2018-04-21T06:01:05.000Z</time>
      </trkpt>
      <trkpt lat="40.823971" lon="-3.83064">
        <ele>1884.2</ele>
        <time>2018-04-21T06:01:06.000Z</time>
      </trkpt>
      <trkpt lat="40.823966" lon="-3.830638">
        <ele>1884.3</ele>
        <time>2018-04-21T06:01:07.000Z</time>
      </trkpt>
      <trkpt lat="40.82396" lon="-3.830636">
        <ele>1884.5</ele>
        <time>2018-04-21T06:01:08.000Z</time>
      </trkpt>
      <trkpt lat="40.823955" lon="-3.830633">
        <ele>1884.7</ele>
        <time>2018-04-21T06:01:09.000Z</time>
      </trkpt>
      <trkpt lat="40.823949" lon="-3.83063">
        <ele>1884.9</ele>
        <time>2018-04-21T06:01:10.000Z</time>
      </trkpt>
      <trkpt lat="40.823944" lon="-3.830628">
        <ele>1885.0</ele>
        <time>2018-04-21T06:01:11.000Z</time>
      </trkpt>
      <trkpt lat="40.823938" lon="-3.830625">
        <ele>1885.2</ele>
        <time>2018-04-21T06:01:12.000Z</time>
      </trkpt>
      <trkpt lat="40.823932" lon="-3.830621">
        <ele>1885.4</ele>
        <time>2018-04-21T06:01:13.000Z</time>
      </trkpt>
      <trkpt lat="40.823927" lon="-3.830618">
        <ele>1885.6</ele>
        <time>2018-04-21T06:01:14.000Z</time>
      </trkpt>
      <trkpt lat="40.823921" lon="-3.830614">
        <ele>1885.7</ele>
        <time>2018-04-21T06:01:15.000Z</time>
      </trkpt>
      <trkpt lat="40.823916" lon="-3.830611">
        <ele>1885.9</ele>
        <time>2018-04-21T06:01:16.000Z</time>
      </trkpt>
      <trkpt lat="40.82391" lon="-3.830607">
        <ele>1886.1</ele>
        <time>2018-04-21T06:01:17.000Z</time>
      </trkpt>
      <trkpt lat="40.823904" lon="-3.830603">
        <ele>1886.3</ele>
        <time>2018-04-21T06:01:18.000Z</time>
      </trkpt>
      <trkpt lat="40.823899" lon="-3.8306">
        <ele>1886.4</ele>
        <time>2018-04-21T06:01:19.000Z</time>
      </trkpt>
      <trkpt lat="40.823893" lon="-3.830596">
        <ele>1886.6</ele>
        <time>2018-04-21T06:01:20.000Z</time>
      </trkpt>
      <trkpt lat="40.823887" lon="-3.830592">
        <ele>1886.8</ele>
        <time>2018-04-21T06:01:21.000Z</time>
      </trkpt>
      <trkpt lat="40.823882" lon="-3.830589">
        <ele>1887.0</ele>
        <time>2018-04-21T06:01:22.000Z</time>
      </trkpt>
      <trkpt lat="40.823876" lon="-3.830586">
        <ele>1887.2</ele>
        <time>2018-04-21T06:01:23.000Z</time>
      </trkpt>
      <trkpt lat="40.82387" lon="-3.830583">
        <ele>1887.4</ele>
        <time>2018-04-21T06:01:24.000Z</time>
      </trkpt>
      <trkpt lat="40.823864" lon="-3.83058">
        <ele>1887.6</ele>
        <time>2018-04-21T06:01:25.000Z</time>
      </trkpt>
      <trkpt lat="40.823858" lon="-3.830577">
        <ele>1887.7</ele>
        <time>2018-04-21T06:01:26.000Z</time>
      </trkpt>
      <trkpt lat="40.823853" lon="-3.830575">
        <ele>1887.9</ele>
        <time>2018-04-21T06:01:27.000Z</time>
      </trkpt>
      <trkpt lat="40.823847" lon="-3.830573">
        <ele>1888.1</ele>
        <time>2018-04-21T06:01:28.000Z</time>
      </trkpt>
      <trkpt lat="40.823841" lon="-3.830571">
        <ele>1888.3</ele>
        <time>2018-04-21T06:01:29.000Z</time>
      </trkpt>
      <trkpt lat="40.823835" lon="-3.83057">
        <ele>1888.5</ele>
        <time>2018-04-21T06:01:30.000Z</time>
      </trkpt>
      <trkpt lat="40.823829" lon="-3.830569">
        <ele>1888.7</ele>
        <time>2018-04-21T06:01:31.000Z</time>
      </trkpt>
      <trkpt lat="40.823823" lon="-3.830568">
        <ele>1888.9</ele>
        <time>2018-04-21T06:01:32.000Z</time>
      </trkpt>
      <trkpt lat="40.823817" lon="-3.830568">
        <ele>1889.0</ele>
        <time>2018-04-21T06:01:33.000Z</time>
      </trkpt>
      <trkpt lat="40.823811" lon="-3.830568">
        <ele>1889.2</ele>
        <time>2018-04-21T06:01:34.000Z</time>
      </trkpt>
      <trkpt lat="40.823805" lon="-3.830568">
        <ele>1889.4</ele>
        <time>2018-04-21T06:01:35.000Z</time>
      </trkpt>
      <trkpt lat="40.823799" lon="-3.830569">
        <ele>1889.6</ele>
        <time>2018-04-21T06:01:36.000Z</time>
      </trkpt>
      <trkpt lat="40.823793" lon="-3.83057">
        <ele>1889.8</ele>
        <time>2018-04-21T06:01:37.000Z</time>
      </trkpt>
      <trkpt lat="40.823787" lon="-3.830571">
        <ele>1890.0</ele>
        <time>2018-04-21T06:01:38.000Z</time>
      </trkpt>
      <trkpt lat="40.823781" lon="-3.830572">
        <ele>1890.2</ele>
        <time>2018-04-21T06:01:39.000Z</time>
      </trkpt>
      <trkpt lat="40.823775" lon="-3.830574">
        <ele>1890.4</ele>
        <time>2018-04-21T06:01:40.000Z</time>
      </trkpt>
      <trkpt lat="40.823769" lon="-3.830575">
        <ele>1890.6</ele>
        <time>2018-04-21T06:01:41.000Z</time>
      </trkpt>
      <trkpt lat="40.823763" lon="-3.830577">
        <ele>1890.7</ele>
        <time>2018-04-21T06:01:42.000Z</time>
      </trkpt>
      <trkpt lat="40.823757" lon="-3.830579">
        <ele>1890.9</ele>
        <time>2018-04-21T06:01:43.000Z</time>
      </trkpt>
      <trkpt lat="40.823751" lon="-3.83058">
        <ele>1891.1</ele>
        <time>2018-04-21T06:01:44.000Z</time>
      </trkpt>
      <trkpt lat="40.823745" lon="-3.830582">
        <ele>1891.3</ele>
        <time>2018-04-21T06:01:45.000Z</time>
      </trkpt>
      <trkpt lat="40.823739" lon="-3.830584">
        <ele>1891.5</ele>
        <time>2018-04-21T06:01:46.000Z</time>
      </trkpt>
      <trkpt lat="40.823733" lon="-3.830586">
        <ele>1891.7</ele>
        <time>2018-04-21T06:01:47.000Z</time>
      </trkpt>
      <trkpt lat="40.823728" lon="-3.830588">
        <ele>1891.8</ele>
        <time>2018-04-21T06:01:48.000Z</time>
      </trkpt>
      <trkpt lat="40.823722" lon="-3.83059">
        <ele>1892.0</ele>
        <time>2018-04-21T06:01:49.000Z</time>
      </trkpt>
      <trkpt lat="40.823716" lon="-3.830592">
        <ele>1892.2</ele>
        <time>2018-04-21T06:01:50.000Z</time>
      </trkpt>
      <trkpt lat="40.82371" lon="-3.830594">
        <ele>1892.4</ele>
        <time>2018-04-21T06:01:51.000Z</time>
      </trkpt>
      <trkpt lat="40.823705" lon="-3.830596">
        <ele>1892.6</ele>
        <time>2018-04-21T06:01:52.000Z</time>
      </trkpt>
      <trkpt lat="40.823699" lon="-3.830597">
        <ele>1892.8</ele>
        <time>2018-04-21T06:01:53.000Z</time>
      </trkpt>
      <trkpt lat="40.823693" lon="-3.830599">
        <ele>1892.9</ele>
        <time>2018-04-21T06:01:54.000Z</time>
      </trkpt>
      <trkpt lat="40.823687" lon="-3.8306">
        <ele>1893.1</ele>
        <time>2018-04-21T06:01:55.000Z</time>
      </trkpt>
      <trkpt lat="40.823682" lon="-3.830602">
        <ele>1893.3</ele>
        <time>2018-04-21T06:01:56.000Z</time>
      </trkpt>
      <trkpt lat="40.823676" lon="-3.830603">
        <ele>1893.5</ele>
        <time>2018-04-21T06:01:57.000Z</time>
      </trkpt>
      <trkpt lat="40.82367" lon="-3.830604">
        <ele>1893.7</ele>
        <time>2018-04-21T06:01:58.000Z</time>
      </trkpt>
      <trkpt lat="40.823665" lon="-3.830605">
        <ele>1893.8</ele>
        <time>2018-04-21T06:01:59.000Z</time>
      </trkpt>
      <trkpt lat="40.823659" lon="-3.830606">
        <ele>1894.0</ele>
        <time>2018-04-21T06:02:00.000Z</time>
      </trkpt>
      <trkpt lat="40.823653" lon="-3.830606">
        <ele>1894.2</ele>
        <time>2018-04-21T06:02:01.000Z</time>
      </trkpt>
      <trkpt lat="40.823648" lon="-3.830607">
        <ele>1894.4</ele>
        <time>2018-04-21T06:02:02.000Z</time>
      </trkpt>
      <trkpt lat="40.823642" lon="-3.830607">
        <ele>1894.5</ele>
        <time>2018-04-21T06:02:03.000Z</time>
      </trkpt>
      <trkpt lat="40.823636" lon="-3.830607">
        <ele>1894.7</ele>
        <time>2018-04-21T06:02:04.000Z</time>
      </trkpt>
      <trkpt lat="40.82363" lon="-3.830607">
        <ele>1894.9</ele>
        <time>2018-04-21T06:02:05.000Z</time>
      </trkpt>
      <trkpt lat="40.823624" lon="-3.830606">
        <ele>1895.1</ele>
        <time>2018-04-21T06:02:06.000Z</time>
      </trkpt>
      <trkpt lat="40.823619" lon="-3.830605">
        <ele>1895.3</ele>
        <time>2018-04-21T06:02:07.000Z</time>
      </trkpt>
      <trkpt lat="40.823613" lon="-3.830604">
        <ele>1895.5</ele>
        <time>2018-04-21T06:02:08.000Z</time>
      </trkpt>
      <trkpt lat="40.823607" lon="-3.830603">
        <ele>1895.6</ele>
        <time>2018-04-21T06:02:09.000Z</time>
      </trkpt>
      <trkpt lat="40.823601" lon="-3.830602">
        <ele>1895.8</ele>
        <time>2018-04-21T06:02:10.000Z</time>
      </trkpt>
      <trkpt lat="40.823595" lon="-3.8306">
        <ele>1896.0</ele>
        <time>2018-04-21T06:02:11.000Z</time>
      </trkpt>
      <trkpt lat="40.823589" lon="-3.830598">
        <ele>1896.2</ele>
        <time>2018-04-21T06:02:12.000Z</time>
      </trkpt>
      <trkpt lat="40.823583" lon="-3.830596">
        <ele>1896.4</ele>
        <time>2018-04-21T06:02:13.000Z</time>
      </trkpt>
      <trkpt lat="40.823578" lon="-3.830594">
        <ele>1896.6</ele>
        <time>2018-04-21T06:02:14.000Z</time>
      </trkpt>
      <trkpt lat="40.823572" lon="-3.830592">
        <ele>1896.8</ele>
        <time>2018-04-21T06:02:15.000Z</time>
      </trkpt>
      <trkpt lat="40.823567" lon="-3.83059">
        <ele>1896.9</ele>
        <time>2018-04-21T06:02:16.000Z</time>
      </trkpt>
      <trkpt lat="40.823561" lon="-3.830587">
        <ele>1897.1</ele>
        <time>2018-04-21T06:02:17.000Z</time>
      </trkpt>
      <trkpt lat="40.823556" lon="-3.830584">
        <ele>1897.3</ele>
        <time>2018-04-21T06:02:18.000Z</time>
      </trkpt>
      <trkpt lat="40.82355" lon="-3.830582">
        <ele>1897.5</ele>
        <time>2018-04-21T06:02:19.000Z</time>
      </trkpt>
      <trkpt lat="40.823545" lon="-3.830579">
        <ele>1897.6</ele>
        <time>2018-04-21T06:02:20.000Z</time>
      </trkpt>
      <trkpt lat="40.823539" lon="-3.830576">
        <ele>1897.8</ele>
        <time>2018-04-21T06:02:21.000Z</time>
      </trkpt>
      <trkpt lat="40.823534" lon="-3.830573">
        <ele>1898.0</ele>
        <time>2018-04-21T06:02:22.000Z</time>
      </trkpt>
      <trkpt lat="40.823529" lon="-3.830571">
        <ele>1898.1</ele>
        <time>2018-04-21T06:02:23.000Z</time>
      </trkpt>
      <trkpt lat="40.823523" lon="-3.830568">
        <ele>1898.3</ele>
        <time>2018-04-21T06:02:24.000Z</time>
      </trkpt>
      <trkpt lat="40.823518" lon="-3.830565">
        <ele>1898.5</ele>
        <time>2018-04-21T06:02:25.000Z</time>
      </trkpt>
      <trkpt lat="40.823512" lon="-3.830563">
        <ele>1898.7</ele>
        <time>2018-04-21T06:02:26.000Z</time>
      </trkpt>
      <trkpt lat="40.823506" lon="-3.83056">
        <ele>1898.9</ele>
        <time>2018-04-21T06:02:27.000Z</time>
      </trkpt>
      <trkpt lat="40.823501" lon="-3.830558">
        <ele>1899.0</ele>
        <time>2018-04-21T06:02:28.000Z</time>
      </trkpt>
      <trkpt lat="40.823495" lon="-3.830555">
        <ele>1899.2</ele>
        <time>2018-04-21T06:02:29.000Z</time>
      </trkpt>
      <trkpt lat="40.82349" lon="-3.830553">
        <ele>1899.4</ele>
        <time>2018-04-21T06:02:30.000Z</time>
      </trkpt>
      <trkpt lat="40.823484" lon="-3.830551">
        <ele>1899.6</ele>
        <time>2018-04-21T06:02:31.000Z</time>
      </trkpt>
      <trkpt lat="40.823478" lon="-3.830549">
        <ele>1899.8</ele>
        <time>2018-04-21T06:02:32.000Z</time>
      </trkpt>
      <trkpt lat="40.823473" lon="-3.830547">
        <ele>1899.9</ele>
        <time>2018-04-21T06:02:33.000Z</time>
      </trkpt>
      <trkpt lat="40.823467" lon="-3.830545">
        <ele>1900.1</ele>
        <time>2018-04-21T06:02:34.000Z</time>
      </trkpt>
      <trkpt lat="40.823461" lon="-3.830543">
        <ele>1900.3</ele>
        <time>2018-04-21T06:02:35.000Z</time>
      </trkpt>
      <trkpt lat="40.823456" lon="-3.830541">
        <ele>1900.5</ele>
        <time>2018-04-21T06:02:36.000Z</time>
      </trkpt>
      <trkpt lat="40.82345" lon="-3.830539">
        <ele>1900.7</ele>
        <time>2018-04-21T06:02:37.000Z</time>
      </trkpt>
      <trkpt lat="40.823445" lon="-3.830537">
        <ele>1900.8</ele>
        <time>2018-04-21T06:02:38.000Z</time>
      </trkpt>
      <trkpt lat="40.823439" lon="-3.830536">
        <ele>1901.0</ele>
        <time>2018-04-21T06:02:39.000Z</time>
      </trkpt>
      <trkpt lat="40.823434" lon="-3.830534">
        <ele>1901.2</ele>
        <time>2018-04-21T06:02:40.000Z</time>
      </trkpt>
      <trkpt lat="40.823428" lon="-3.830533">
        <ele>1901.4</ele>
        <time>2018-04-21T06:02:41.000Z</time>
      </trkpt>
      <trkpt lat="40.823423" lon="-3.830532">
        <ele>1901.5</ele>
        <time>2018-04-21T06:02:42.000Z</time>
      </trkpt>
      <trkpt lat="40.823418" lon="-3.83053">
        <ele>1901.7</ele>
        <time>2018-04-21T06:02:43.000Z</time>
      </trkpt>
      <trkpt lat="40.823413" lon="-3.830529">
        <ele>1901.8</ele>
        <time>2018-04-21T06:02:44.000Z</time>
      </trkpt>
      <trkpt lat="40.823408" lon="-3.830528">
        <ele>1902.0</ele>
        <time>2018-04-21T06:02:45.000Z</time>
      </trkpt>
      <trkpt lat="40.823403" lon="-3.830527">
        <ele>1902.2</ele>
        <time>2018-04-21T06:02:46.000Z</time>
      </trkpt>
      <trkpt lat="40.823398" lon="-3.830526">
        <ele>1902.3</ele>
        <time>2018-04-21T06:02:47.000Z</time>
      </trkpt>
      <trkpt lat="40.823393" lon="-3.830525">
        <ele>1902.5</ele>
        <time>2018-04-21T06:02:48.000Z</time>
      </trkpt>
      <trkpt lat="40.823388" lon="-3.830525">
        <ele>1902.6</ele>
        <time>2018-04-21T06:02:49.000Z</time>
      </trkpt>
      <trkpt lat="40.823383" lon="-3.830524">
        <ele>1902.8</ele>
        <time>2018-04-21T06:02:50.000Z</time>
      </trkpt>
      <trkpt lat="40.823378" lon="-3.830524">
        <ele>1903.0</ele>
        <time>2018-04-21T06:02:51.000Z</time>
      </trkpt>
      <trkpt lat="40.823373" lon="-3.830523">
        <ele>1903.1</ele>
        <time>2018-04-21T06:02:52.000Z</time>
      </trkpt>
      <trkpt lat="40.823368" lon="-3.830523">
        <ele>1903.3</ele>
        <time>2018-04-21T06:02:53.000Z</time>
      </trkpt>
      <trkpt lat="40.823362" lon="-3.830522">
        <ele>1903.5</ele>
        <time>2018-04-21T06:02:54.000Z</time>
      </trkpt>
      <trkpt lat="40.823357" lon="-3.830522">
        <ele>1903.6</ele>
        <time>2018-04-21T06:02:55.000Z</time>
      </trkpt>
      <trkpt lat="40.823352" lon="-3.830522">
        <ele>1903.8</ele>
        <time>2018-04-21T06:02:56.000Z</time>
      </trkpt>
      <trkpt lat="40.823346" lon="-3.830522">
        <ele>1904.0</ele>
        <time>2018-04-21T06:02:57.000Z</time>
      </trkpt>
      <trkpt lat="40.823341" lon="-3.830522">
        <ele>1904.1</ele>
        <time>2018-04-21T06:02:58.000Z</time>
      </trkpt>
      <trkpt lat="40.823335" lon="-3.830522">
        <ele>1904.3</ele>
        <time>2018-04-21T06:02:59.000Z</time>
      </trkpt>
      <trkpt lat="40.823329" lon="-3.830522">
        <ele>1904.5</ele>
        <time>2018-04-21T06:03:00.000Z</time>
      </trkpt>
      <trkpt lat="40.823323" lon="-3.830522">
        <ele>1904.7</ele>
        <time>2018-04-21T06:03:01.000Z</time>
      </trkpt>
      <trkpt lat="40.823317" lon="-3.830522">
        <ele>1904.9</ele>
        <time>2018-04-21T06:03:02.000Z</time>
      </trkpt>
      <trkpt lat="40.823311" lon="-3.830522">
        <ele>1905.1</ele>
        <time>2018-04-21T06:03:03.000Z</time>
      </trkpt>
      <trkpt lat="40.823305" lon="-3.830523">
        <ele>1905.3</ele>
        <time>2018-04-21T06:03:04.000Z</time>
      </trkpt>
      <trkpt lat="40.823299" lon="-3.830523">
        <ele>1905.4</ele>
        <time>2018-04-21T06:03:05.000Z</time>
      </trkpt>
      <trkpt lat="40.823292" lon="-3.830524">
        <ele>1905.7</ele>
        <time>2018-04-21T06:03:06.000Z</time>
      </trkpt>
      <trkpt lat="40.823286" lon="-3.830524">
        <ele>1905.8</ele>
        <time>2018-04-21T06:03:07.000Z</time>
      </trkpt>
      <trkpt lat="40.82328" lon="-3.830525">
        <ele>1906.0</ele>
        <time>2018-04-21T06:03:08.000Z</time>
      </trkpt>
      <trkpt lat="40.823274" lon="-3.830526">
        <ele>1906.2</ele>
        <time>2018-04-21T06:03:09.000Z</time>
      </trkpt>
      <trkpt lat="40.823269" lon="-3.830527">
        <ele>1906.4</ele>
        <time>2018-04-21T06:03:10.000Z</time>
      </trkpt>
      <trkpt lat="40.823263" lon="-3.830527">
        <ele>1906.6</ele>
        <time>2018-04-21T06:03:11.000Z</time>
      </trkpt>
      <trkpt lat="40.823258" lon="-3.830528">
        <ele>1906.7</ele>
        <time>2018-04-21T06:03:12.000Z</time>
      </trkpt>
      <trkpt lat="40.823253" lon="-3.830529">
        <ele>1906.9</ele>
        <time>2018-04-21T06:03:13.000Z</time>
      </trkpt>
      <trkpt lat="40.823248" lon="-3.83053">
        <ele>1907.0</ele>
        <time>2018-04-21T06:03:14.000Z</time>
      </trkpt>
      <trkpt lat="40.823243" lon="-3.83053">
        <ele>1907.2</ele>
        <time>2018-04-21T06:03:15.000Z</time>
      </trkpt>
      <trkpt lat="40.823237" lon="-3.83053">
        <ele>1907.4</ele>
        <time>2018-04-21T06:03:16.000Z</time>
      </trkpt>
      <trkpt lat="40.823232" lon="-3.83053">
        <ele>1907.5</ele>
        <time>2018-04-21T06:03:17.000Z</time>
      </trkpt>
      <trkpt lat="40.823227" lon="-3.83053">
        <ele>1907.7</ele>
        <time>2018-04-21T06:03:18.000Z</time>
      </trkpt>
      <trkpt lat="40.823221" lon="-3.830529">
        <ele>1907.9</ele>
        <time>2018-04-21T06:03:19.000Z</time>
      </trkpt>
      <trkpt lat="40.823216" lon="-3.830528">
        <ele>1908.0</ele>
        <time>2018-04-21T06:03:20.000Z</time>
      </trkpt>
      <trkpt lat="40.82321" lon="-3.830526">
        <ele>1908.2</ele>
        <time>2018-04-21T06:03:21.000Z</time>
      </trkpt>
      <trkpt lat="40.823204" lon="-3.830525">
        <ele>1908.4</ele>
        <time>2018-04-21T06:03:22.000Z</time>
      </trkpt>
      <trkpt lat="40.823198" lon="-3.830524">
        <ele>1908.6</ele>
        <time>2018-04-21T06:03:23.000Z</time>
      </trkpt>
      <trkpt lat="40.823192" lon="-3.830523">
        <ele>1908.8</ele>
        <time>2018-04-21T06:03:24.000Z</time>
      </trkpt>
      <trkpt lat="40.823186" lon="-3.830523">
        <ele>1908.9</ele>
        <time>2018-04-21T06:03:25.000Z</time>
      </trkpt>
      <trkpt lat="40.82318" lon="-3.830524">
        <ele>1909.1</ele>
        <time>2018-04-21T06:03:26.000Z</time>
      </trkpt>
      <trkpt lat="40.823174" lon="-3.830525">
        <ele>1909.3</ele>
        <time>2018-04-21T06:03:27.000Z</time>
      </trkpt>
      <trkpt lat="40.823168" lon="-3.830527">
        <ele>1909.5</ele>
        <time>2018-04-21T06:03:28.000Z</time>
      </trkpt>
      <trkpt lat="40.823162" lon="-3.83053">
        <ele>1909.7</ele>
        <time>2018-04-21T06:03:29.000Z</time>
      </trkpt>
      <trkpt lat="40.823156" lon="-3.830534">
        <ele>1909.9</ele>
        <time>2018-04-21T06:03:30.000Z</time>
      </trkpt>
      <trkpt lat="40.82315" lon="-3.830537">
        <ele>1910.1</ele>
        <time>2018-04-21T06:03:31.000Z</time>
      </trkpt>
      <trkpt lat="40.823144" lon="-3.830541">
        <ele>1910.2</ele>
        <time>2018-04-21T06:03:32.000Z</time>
      </trkpt>
      <trkpt lat="40.823138" lon="-3.830545">
        <ele>1910.4</ele>
        <time>2018-04-21T06:03:33.000Z</time>
      </trkpt>
      <trkpt lat="40.823133" lon="-3.830549">
        <ele>1910.6</ele>
        <time>2018-04-21T06:03:34.000Z</time>
      </trkpt>
      <trkpt lat="40.823128" lon="-3.830552">
        <ele>1910.7</ele>
        <time>2018-04-21T06:03:35.000Z</time>
      </trkpt>
      <trkpt lat="40.823123" lon="-3.830554">
        <ele>1910.9</ele>
        <time>2018-04-21T06:03:36.000Z</time>
      </trkpt>
      <trkpt lat="40.823118" lon="-3.830556">
        <ele>1911.1</ele>
        <time>2018-04-21T06:03:37.000Z</time>
      </trkpt>
      <trkpt lat="40.823113" lon="-3.830556">
        <ele>1911.2</ele>
        <time>2018-04-21T06:03:38.000Z</time>
      </trkpt>
      <trkpt lat="40.823109" lon="-3.830556">
        <ele>1911.3</ele>
        <time>2018-04-21T06:03:39.000Z</time>
      </trkpt>
      <trkpt lat="40.823104" lon="-3.830556">
        <ele>1911.5</ele>
        <time>2018-04-21T06:03:40.000Z</time>
      </trkpt>
      <trkpt lat="40.8231" lon="-3.830554">
        <ele>1911.6</ele>
        <time>2018-04-21T06:03:41.000Z</time>
      </trkpt>
      <trkpt lat="40.823095" lon="-3.830552">
        <ele>1911.8</ele>
        <time>2018-04-21T06:03:42.000Z</time>
      </trkpt>
      <trkpt lat="40.823089" lon="-3.83055">
        <ele>1912.0</ele>
        <time>2018-04-21T06:03:43.000Z</time>
      </trkpt>
      <trkpt lat="40.823083" lon="-3.830548">
        <ele>1912.1</ele>
        <time>2018-04-21T06:03:44.000Z</time>
      </trkpt>
      <trkpt lat="40.823076" lon="-3.830545">
        <ele>1912.4</ele>
        <time>2018-04-21T06:03:45.000Z</time>
      </trkpt>
      <trkpt lat="40.823068" lon="-3.830542">
        <ele>1912.6</ele>
        <time>2018-04-21T06:03:46.000Z</time>
      </trkpt>
      <trkpt lat="40.823062" lon="-3.83054">
        <ele>1912.8</ele>
        <time>2018-04-21T06:03:47.000Z</time>
      </trkpt>
      <trkpt lat="40.823058" lon="-3.830538">
        <ele>1912.9</ele>
        <time>2018-04-21T06:03:48.000Z</time>
      </trkpt>
      <trkpt lat="40.823057" lon="-3.830538">
        <ele>1913.0</ele>
        <time>2018-04-21T06:03:49.000Z</time>
      </trkpt>
      <trkpt lat="40.823057" lon="-3.830538">
        <ele>1913.0</ele>
        <time>2018-04-21T06:03:50.000Z</time>
      </trkpt>
      <trkpt lat="40.823055" lon="-3.830537">
        <ele>1913.0</ele>
        <time>2018-04-21T06:03:51.000Z</time>
      </trkpt>
      <trkpt lat="40.823051" lon="-3.830536">
        <ele>1913.1</ele>
        <time>2018-04-21T06:03:52.000Z</time>
      </trkpt>
      <trkpt lat="40.823045" lon="-3.830534">
        <ele>1913.3</ele>
        <time>2018-04-21T06:03:53.000Z</time>
      </trkpt>
      <trkpt lat="40.823039" lon="-3.830532">
        <ele>1913.5</ele>
        <time>2018-04-21T06:03:54.000Z</time>
      </trkpt>
      <trkpt lat="40.823033" lon="-3.83053">
        <ele>1913.7</ele>
        <time>2018-04-21T06:03:55.000Z</time>
      </trkpt>
      <trkpt lat="40.823026" lon="-3.830528">
        <ele>1913.9</ele>
        <time>2018-04-21T06:03:56.000Z</time>
      </trkpt>
      <trkpt lat="40.82302" lon="-3.830526">
        <ele>1914.1</ele>
        <time>2018-04-21T06:03:57.000Z</time>
      </trkpt>
      <trkpt lat="40.823014" lon="-3.830524">
        <ele>1914.3</ele>
        <time>2018-04-21T06:03:58.000Z</time>
      </trkpt>
      <trkpt lat="40.823008" lon="-3.830523">
        <ele>1914.5</ele>
        <time>2018-04-21T06:03:59.000Z</time>
      </trkpt>
      <trkpt lat="40.823002" lon="-3.830521">
        <ele>1914.7</ele>
        <time>2018-04-21T06:04:00.000Z</time>
      </trkpt>
      <trkpt lat="40.822996" lon="-3.830519">
        <ele>1914.8</ele>
        <time>2018-04-21T06:04:01.000Z</time>
      </trkpt>
      <trkpt lat="40.82299" lon="-3.830518">
        <ele>1915.0</ele>
        <time>2018-04-21T06:04:02.000Z</time>
      </trkpt>
      <trkpt lat="40.822985" lon="-3.830516">
        <ele>1915.2</ele>
        <time>2018-04-21T06:04:03.000Z</time>
      </trkpt>
      <trkpt lat="40.822979" lon="-3.830515">
        <ele>1915.4</ele>
        <time>2018-04-21T06:04:04.000Z</time>
      </trkpt>
      <trkpt lat="40.822973" lon="-3.830514">
        <ele>1915.6</ele>
        <time>2018-04-21T06:04:05.000Z</time>
      </trkpt>
      <trkpt lat="40.822967" lon="-3.830512">
        <ele>1915.7</ele>
        <time>2018-04-21T06:04:06.000Z</time>
      </trkpt>
      <trkpt lat="40.822962" lon="-3.830511">
        <ele>1915.9</ele>
        <time>2018-04-21T06:04:07.000Z</time>
      </trkpt>
      <trkpt lat="40.822956" lon="-3.83051">
        <ele>1916.1</ele>
        <time>2018-04-21T06:04:08.000Z</time>
      </trkpt>
      <trkpt lat="40.82295" lon="-3.830509">
        <ele>1916.3</ele>
        <time>2018-04-21T06:04:09.000Z</time>
      </trkpt>
      <trkpt lat="40.822945" lon="-3.830508">
        <ele>1916.4</ele>
        <time>2018-04-21T06:04:10.000Z</time>
      </trkpt>
      <trkpt lat="40.822939" lon="-3.830507">
        <ele>1916.6</ele>
        <time>2018-04-21T06:04:11.000Z</time>
      </trkpt>
      <trkpt lat="40.822933" lon="-3.830506">
        <ele>1916.8</ele>
        <time>2018-04-21T06:04:12.000Z</time>
      </trkpt>
      <trkpt lat="40.822927" lon="-3.830505">
        <ele>1917.0</ele>
        <time>2018-04-21T06:04:13.000Z</time>
      </trkpt>
      <trkpt lat="40.822922" lon="-3.830505">
        <ele>1917.1</ele>
        <time>2018-04-21T06:04:14.000Z</time>
      </trkpt>
      <trkpt lat="40.822916" lon="-3.830504">
        <ele>1917.3</ele>
        <time>2018-04-21T06:04:15.000Z</time>
      </trkpt>
      <trkpt lat="40.82291" lon="-3.830503">
        <ele>1917.5</ele>
        <time>2018-04-21T06:04:16.000Z</time>
      </trkpt>
      <trkpt lat="40.822904" lon="-3.830502">
        <ele>1917.7</ele>
        <time>2018-04-21T06:04:17.000Z</time>
      </trkpt>
      <trkpt lat="40.822898" lon="-3.830502">
        <ele>1917.9</ele>
        <time>2018-04-21T06:04:18.000Z</time>
      </trkpt>
      <trkpt lat="40.822893" lon="-3.830501">
        <ele>1918.0</ele>
        <time>2018-04-21T06:04:19.000Z</time>
      </trkpt>
      <trkpt lat="40.822887" lon="-3.8305">
        <ele>1918.2</ele>
        <time>2018-04-21T06:04:20.000Z</time>
      </trkpt>
      <trkpt lat="40.822881" lon="-3.8305">
        <ele>1918.4</ele>
        <time>2018-04-21T06:04:21.000Z</time>
      </trkpt>
      <trkpt lat="40.822875" lon="-3.830499">
        <ele>1918.6</ele>
        <time>2018-04-21T06:04:22.000Z</time>
      </trkpt>
      <trkpt lat="40.82287" lon="-3.830498">
        <ele>1918.7</ele>
        <time>2018-04-21T06:04:23.000Z</time>
      </trkpt>
      <trkpt lat="40.822864" lon="-3.830497">
        <ele>1918.9</ele>
        <time>2018-04-21T06:04:24.000Z</time>
      </trkpt>
      <trkpt lat="40.822859" lon="-3.830497">
        <ele>1919.1</ele>
        <time>2018-04-21T06:04:25.000Z</time>
      </trkpt>
      <trkpt lat="40.822853" lon="-3.830496">
        <ele>1919.3</ele>
        <time>2018-04-21T06:04:26.000Z</time>
      </trkpt>
      <trkpt lat="40.822848" lon="-3.830495">
        <ele>1919.4</ele>
        <time>2018-04-21T06:04:27.000Z</time>
      </trkpt>
      <trkpt lat="40.822843" lon="-3.830494">
        <ele>1919.6</ele>
        <time>2018-04-21T06:04:28.000Z</time>
      </trkpt>
      <trkpt lat="40.822837" lon="-3.830493">
        <ele>1919.8</ele>
        <time>2018-04-21T06:04:29.000Z</time>
      </trkpt>
      <trkpt lat="40.822832" lon="-3.830492">
        <ele>1919.9</ele>
        <time>2018-04-21T06:04:30.000Z</time>
      </trkpt>
      <trkpt lat="40.822827" lon="-3.83049">
        <ele>1920.1</ele>
        <time>2018-04-21T06:04:31.000Z</time>
      </trkpt>
      <trkpt lat="40.822822" lon="-3.830489">
        <ele>1920.2</ele>
        <time>2018-04-21T06:04:32.000Z</time>
      </trkpt>
      <trkpt lat="40.822818" lon="-3.830488">
        <ele>1920.3</ele>
        <time>2018-04-21T06:04:33.000Z</time>
      </trkpt>
      <trkpt lat="40.822813" lon="-3.830487">
        <ele>1920.5</ele>
        <time>2018-04-21T06:04:34.000Z</time>
      </trkpt>
      <trkpt lat="40.822808" lon="-3.830485">
        <ele>1920.6</ele>
        <time>2018-04-21T06:04:35.000Z</time>
      </trkpt>
      <trkpt lat="40.822804" lon="-3.830484">
        <ele>1920.8</ele>
        <time>2018-04-21T06:04:36.000Z</time>
      </trkpt>
      <trkpt lat="40.822799" lon="-3.830484">
        <ele>1920.9</ele>
        <time>2018-04-21T06:04:37.000Z</time>
      </trkpt>
      <trkpt lat="40.822795" lon="-3.830483">
        <ele>1921.0</ele>
        <time>2018-04-21T06:04:38.000Z</time>
      </trkpt>
      <trkpt lat="40.82279" lon="-3.830483">
        <ele>1921.2</ele>
        <time>2018-04-21T06:04:39.000Z</time>
      </trkpt>
      <trkpt lat="40.822785" lon="-3.830483">
        <ele>1921.4</ele>
        <time>2018-04-21T06:04:40.000Z</time>
      </trkpt>
      <trkpt lat="40.822781" lon="-3.830483">
        <ele>1921.5</ele>
        <time>2018-04-21T06:04:41.000Z</time>
      </trkpt>
      <trkpt lat="40.822776" lon="-3.830484">
        <ele>1921.6</ele>
        <time>2018-04-21T06:04:42.000Z</time>
      </trkpt>
      <trkpt lat="40.822771" lon="-3.830484">
        <ele>1921.8</ele>
        <time>2018-04-21T06:04:43.000Z</time>
      </trkpt>
      <trkpt lat="40.822766" lon="-3.830485">
        <ele>1921.9</ele>
        <time>2018-04-21T06:04:44.000Z</time>
      </trkpt>
      <trkpt lat="40.822761" lon="-3.830485">
        <ele>1922.1</ele>
        <time>2018-04-21T06:04:45.000Z</time>
      </trkpt>
      <trkpt lat="40.822756" lon="-3.830486">
        <ele>1922.3</ele>
        <time>2018-04-21T06:04:46.000Z</time>
      </trkpt>
      <trkpt lat="40.82275" lon="-3.830486">
        <ele>1922.4</ele>
        <time>2018-04-21T06:04:47.000Z</time>
      </trkpt>
      <trkpt lat="40.822744" lon="-3.830487">
        <ele>1922.6</ele>
        <time>2018-04-21T06:04:48.000Z</time>
      </trkpt>
      <trkpt lat="40.822738" lon="-3.830487">
        <ele>1922.8</ele>
        <time>2018-04-21T06:04:49.000Z</time>
      </trkpt>
      <trkpt lat="40.822732" lon="-3.830486">
        <ele>1923.0</ele>
        <time>2018-04-21T06:04:50.000Z</time>
      </trkpt>
      <trkpt lat="40.822725" lon="-3.830485">
        <ele>1923.2</ele>
        <time>2018-04-21T06:04:51.000Z</time>
      </trkpt>
      <trkpt lat="40.822718" lon="-3.830484">
        <ele>1923.4</ele>
        <time>2018-04-21T06:04:52.000Z</time>
      </trkpt>
      <trkpt lat="40.822712" lon="-3.830481">
        <ele>1923.6</ele>
        <time>2018-04-21T06:04:53.000Z</time>
      </trkpt>
      <trkpt lat="40.822705" lon="-3.830478">
        <ele>1923.8</ele>
        <time>2018-04-21T06:04:54.000Z</time>
      </trkpt>
      <trkpt lat="40.822699" lon="-3.830475">
        <ele>1924.0</ele>
        <time>2018-04-21T06:04:55.000Z</time>
      </trkpt>
      <trkpt lat="40.822694" lon="-3.830471">
        <ele>1924.1</ele>
        <time>2018-04-21T06:04:56.000Z</time>
      </trkpt>
      <trkpt lat="40.82269" lon="-3.830469">
        <ele>1924.3</ele>
        <time>2018-04-21T06:04:57.000Z</time>
      </trkpt>
      <trkpt lat="40.822687" lon="-3.830467">
        <ele>1924.4</ele>
        <time>2018-04-21T06:04:58.000Z</time>
      </trkpt>
      <trkpt lat="40.822686" lon="-3.830466">
        <ele>1924.4</ele>
        <time>2018-04-21T06:04:59.000Z</time>
      </trkpt>
      <trkpt lat="40.822686" lon="-3.830465">
        <ele>1924.4</ele>
        <time>2018-04-21T06:05:00.000Z</time>
      </trkpt>
      <trkpt lat="40.822685" lon="-3.830466">
        <ele>1924.4</ele>
        <time>2018-04-21T06:05:01.000Z</time>
      </trkpt>
      <trkpt lat="40.822685" lon="-3.830467">
        <ele>1924.4</ele>
        <time>2018-04-21T06:05:02.000Z</time>
      </trkpt>
      <trkpt lat="40.822683" lon="-3.830468">
        <ele>1924.5</ele>
        <time>2018-04-21T06:05:03.000Z</time>
      </trkpt>
      <trkpt lat="40.82268" lon="-3.830469">
        <ele>1924.6</ele>
        <time>2018-04-21T06:05:04.000Z</time>
      </trkpt>
      <trkpt lat="40.822677" lon="-3.83047">
        <ele>1924.7</ele>
        <time>2018-04-21T06:05:05.000Z</time>
      </trkpt>
      <trkpt lat="40.822672" lon="-3.830471">
        <ele>1924.8</ele>
        <time>2018-04-21T06:05:06.000Z</time>
      </trkpt>
      <trkpt lat="40.822668" lon="-3.830471">
        <ele>1925.0</ele>
        <time>2018-04-21T06:05:07.000Z</time>
      </trkpt>
      <trkpt lat="40.822662" lon="-3.830471">
        <ele>1925.1</ele>
        <time>2018-04-21T06:05:08.000Z</time>
      </trkpt>
      <trkpt lat="40.822657" lon="-3.83047">
        <ele>1925.3</ele>
        <time>2018-04-21T06:05:09.000Z</time>
      </trkpt>
      <trkpt lat="40.822651" lon="-3.830469">
        <ele>1925.5</ele>
        <time>2018-04-21T06:05:10.000Z</time>
      </trkpt>
      <trkpt lat="40.822645" lon="-3.830468">
        <ele>1925.7</ele>
        <time>2018-04-21T06:05:11.000Z</time>
      </trkpt>
      <trkpt lat="40.822639" lon="-3.830466">
        <ele>1925.8</ele>
        <time>2018-04-21T06:05:12.000Z</time>
      </trkpt>
      <trkpt lat="40.822634" lon="-3.830465">
        <ele>1926.0</ele>
        <time>2018-04-21T06:05:13.000Z</time>
      </trkpt>
      <trkpt lat="40.822628" lon="-3.830464">
        <ele>1926.2</ele>
        <time>2018-04-21T06:05:14.000Z</time>
      </trkpt>
      <trkpt lat="40.822624" lon="-3.830463">
        <ele>1926.3</ele>
        <time>2018-04-21T06:05:15.000Z</time>
      </trkpt>
      <trkpt lat="40.82262" lon="-3.830462">
        <ele>1926.4</ele>
        <time>2018-04-21T06:05:16.000Z</time>
      </trkpt>
      <trkpt lat="40.822616" lon="-3.830462">
        <ele>1926.5</ele>
        <time>2018-04-21T06:05:17.000Z</time>
      </trkpt>
      <trkpt lat="40.822613" lon="-3.830462">
        <ele>1926.6</ele>
        <time>2018-04-21T06:05:18.000Z</time>
      </trkpt>
      <trkpt lat="40.822609" lon="-3.830462">
        <ele>1926.8</ele>
        <time>2018-04-21T06:05:19.000Z</time>
      </trkpt>
      <trkpt lat="40.822606" lon="-3.830463">
        <ele>1926.8</ele>
        <time>2018-04-21T06:05:20.000Z</time>
      </trkpt>
      <trkpt lat="40.822603" lon="-3.830463">
        <ele>1926.9</ele>
        <time>2018-04-21T06:05:21.000Z</time>
      </trkpt>
      <trkpt lat="40.822599" lon="-3.830464">
        <ele>1927.1</ele>
        <time>2018-04-21T06:05:22.000Z</time>
      </trkpt>
      <trkpt lat="40.822595" lon="-3.830465">
        <ele>1927.2</ele>
        <time>2018-04-21T06:05:23.000Z</time>
      </trkpt>
      <trkpt lat="40.82259" lon="-3.830466">
        <ele>1927.3</ele>
        <time>2018-04-21T06:05:24.000Z</time>
      </trkpt>
      <trkpt lat="40.822584" lon="-3.830467">
        <ele>1927.5</ele>
        <time>2018-04-21T06:05:25.000Z</time>
      </trkpt>
      <trkpt lat="40.822578" lon="-3.830468">
        <ele>1927.7</ele>
        <time>2018-04-21T06:05:26.000Z</time>
      </trkpt>
      <trkpt lat="40.822572" lon="-3.830469">
        <ele>1927.9</ele>
        <time>2018-04-21T06:05:27.000Z</time>
      </trkpt>
      <trkpt lat="40.822564" lon="-3.83047">
        <ele>1928.2</ele>
        <time>2018-04-21T06:05:28.000Z</time>
      </trkpt>
      <trkpt lat="40.822557" lon="-3.830471">
        <ele>1928.4</ele>
        <time>2018-04-21T06:05:29.000Z</time>
      </trkpt>
      <trkpt lat="40.82255" lon="-3.830472">
        <ele>1928.6</ele>
        <time>2018-04-21T06:05:30.000Z</time>
      </trkpt>
      <trkpt lat="40.822543" lon="-3.830473">
        <ele>1928.8</ele>
        <time>2018-04-21T06:05:31.000Z</time>
      </trkpt>
      <trkpt lat="40.822537" lon="-3.830474">
        <ele>1929.0</ele>
        <time>2018-04-21T06:05:32.000Z</time>
      </trkpt>
      <trkpt lat="40.822531" lon="-3.830475">
        <ele>1929.2</ele>
        <time>2018-04-21T06:05:33.000Z</time>
      </trkpt>
      <trkpt lat="40.822525" lon="-3.830476">
        <ele>1929.4</ele>
        <time>2018-04-21T06:05:34.000Z</time>
      </trkpt>
      <trkpt lat="40.822521" lon="-3.830477">
        <ele>1929.5</ele>
        <time>2018-04-21T06:05:35.000Z</time>
      </trkpt>
      <trkpt lat="40.822516" lon="-3.830478">
        <ele>1929.7</ele>
        <time>2018-04-21T06:05:36.000Z</time>
      </trkpt>
      <trkpt lat="40.822512" lon="-3.830478">
        <ele>1929.8</ele>
        <time>2018-04-21T06:05:37.000Z</time>
      </trkpt>
      <trkpt lat="40.822508" lon="-3.830479">
        <ele>1929.9</ele>
        <time>2018-04-21T06:05:38.000Z</time>
      </trkpt>
      <trkpt lat="40.822504" lon="-3.830479">
        <ele>1930.0</ele>
        <time>2018-04-21T06:05:39.000Z</time>
      </trkpt>
      <trkpt lat="40.8225" lon="-3.830478">
        <ele>1930.1</ele>
        <time>2018-04-21T06:05:40.000Z</time>
      </trkpt>
      <trkpt lat="40.822495" lon="-3.830478">
        <ele>1930.3</ele>
        <time>2018-04-21T06:05:41.000Z</time>
      </trkpt>
      <trkpt lat="40.82249" lon="-3.830477">
        <ele>1930.5</ele>
        <time>2018-04-21T06:05:42.000Z</time>
      </trkpt>
      <trkpt lat="40.822485" lon="-3.830476">
        <ele>1930.7</ele>
        <time>2018-04-21T06:05:43.000Z</time>
      </trkpt>
      <trkpt lat="40.822478" lon="-3.830474">
        <ele>1931.0</ele>
        <time>2018-04-21T06:05:44.000Z</time>
      </trkpt>
      <trkpt lat="40.822472" lon="-3.830472">
        <ele>1931.2</ele>
        <time>2018-04-21T06:05:45.000Z</time>
      </trkpt>
      <trkpt lat="40.822465" lon="-3.83047">
        <ele>1931.4</ele>
        <time>2018-04-21T06:05:46.000Z</time>
      </trkpt>
      <trkpt lat="40.822457" lon="-3.830468">
        <ele>1931.7</ele>
        <time>2018-04-21T06:05:47.000Z</time>
      </trkpt>
      <trkpt lat="40.82245" lon="-3.830466">
        <ele>1932.0</ele>
        <time>2018-04-21T06:05:48.000Z</time>
      </trkpt>
      <trkpt lat="40.822443" lon="-3.830465">
        <ele>1932.2</ele>
        <time>2018-04-21T06:05:49.000Z</time>
      </trkpt>
      <trkpt lat="40.822436" lon="-3.830464">
        <ele>1932.5</ele>
        <time>2018-04-21T06:05:50.000Z</time>
      </trkpt>
      <trkpt lat="40.82243" lon="-3.830463">
        <ele>1932.7</ele>
        <time>2018-04-21T06:05:51.000Z</time>
      </trkpt>
      <trkpt lat="40.822424" lon="-3.830463">
        <ele>1932.9</ele>
        <time>2018-04-21T06:05:52.000Z</time>
      </trkpt>
      <trkpt lat="40.822418" lon="-3.830464">
        <ele>1933.2</ele>
        <time>2018-04-21T06:05:53.000Z</time>
      </trkpt>
      <trkpt lat="40.822412" lon="-3.830465">
        <ele>1933.4</ele>
        <time>2018-04-21T06:05:54.000Z</time>
      </trkpt>
      <trkpt lat="40.822407" lon="-3.830466">
        <ele>1933.6</ele>
        <time>2018-04-21T06:05:55.000Z</time>
      </trkpt>
      <trkpt lat="40.822402" lon="-3.830468">
        <ele>1933.8</ele>
        <time>2018-04-21T06:05:56.000Z</time>
      </trkpt>
      <trkpt lat="40.822397" lon="-3.83047">
        <ele>1933.9</ele>
        <time>2018-04-21T06:05:57.000Z</time>
      </trkpt>
      <trkpt lat="40.822391" lon="-3.830472">
        <ele>1934.2</ele>
        <time>2018-04-21T06:05:58.000Z</time>
      </trkpt>
      <trkpt lat="40.822386" lon="-3.830473">
        <ele>1934.4</ele>
        <time>2018-04-21T06:05:59.000Z</time>
      </trkpt>
      <trkpt lat="40.82238" lon="-3.830475">
        <ele>1934.6</ele>
        <time>2018-04-21T06:06:00.000Z</time>
      </trkpt>
      <trkpt lat="40.822373" lon="-3.830477">
        <ele>1934.8</ele>
        <time>2018-04-21T06:06:01.000Z</time>
      </trkpt>
      <trkpt lat="40.822367" lon="-3.830478">
        <ele>1935.1</ele>
        <time>2018-04-21T06:06:02.000Z</time>
      </trkpt>
      <trkpt lat="40.82236" lon="-3.830479">
        <ele>1935.3</ele>
        <time>2018-04-21T06:06:03.000Z</time>
      </trkpt>
      <trkpt lat="40.822353" lon="-3.83048">
        <ele>1935.6</ele>
        <time>2018-04-21T06:06:04.000Z</time>
      </trkpt>
      <trkpt lat="40.822346" lon="-3.830479">
        <ele>1935.9</ele>
        <time>2018-04-21T06:06:05.000Z</time>
      </trkpt>
      <trkpt lat="40.822339" lon="-3.830478">
        <ele>1936.1</ele>
        <time>2018-04-21T06:06:06.000Z</time>
      </trkpt>
      <trkpt lat="40.822332" lon="-3.830475">
        <ele>1936.4</ele>
        <time>2018-04-21T06:06:07.000Z</time>
      </trkpt>
      <trkpt lat="40.822325" lon="-3.830473">
        <ele>1936.6</ele>
        <time>2018-04-21T06:06:08.000Z</time>
      </trkpt>
      <trkpt lat="40.822318" lon="-3.830471">
        <ele>1936.9</ele>
        <time>2018-04-21T06:06:09.000Z</time>
      </trkpt>
      <trkpt lat="40.822311" lon="-3.830469">
        <ele>1937.1</ele>
        <time>2018-04-21T06:06:10.000Z</time>
      </trkpt>
      <trkpt lat="40.822305" lon="-3.830468">
        <ele>1937.3</ele>
        <time>2018-04-21T06:06:11.000Z</time>
      </trkpt>
      <trkpt lat="40.822299" lon="-3.830467">
        <ele>1937.6</ele>
        <time>2018-04-21T06:06:12.000Z</time>
      </trkpt>
      <trkpt lat="40.822293" lon="-3.830466">
        <ele>1937.8</ele>
        <time>2018-04-21T06:06:13.000Z</time>
      </trkpt>
      <trkpt lat="40.822288" lon="-3.830466">
        <ele>1938.0</ele>
        <time>2018-04-21T06:06:14.000Z</time>
      </trkpt>
      <trkpt lat="40.822283" lon="-3.830466">
        <ele>1938.2</ele>
        <time>2018-04-21T06:06:15.000Z</time>
      </trkpt>
      <trkpt lat="40.822278" lon="-3.830465">
        <ele>1938.3</ele>
        <time>2018-04-21T06:06:16.000Z</time>
      </trkpt>
      <trkpt lat="40.822274" lon="-3.830465">
        <ele>1938.5</ele>
        <time>2018-04-21T06:06:17.000Z</time>
      </trkpt>
      <trkpt lat="40.822271" lon="-3.830465">
        <ele>1938.6</ele>
        <time>2018-04-21T06:06:18.000Z</time>
      </trkpt>
      <trkpt lat="40.822268" lon="-3.830464">
        <ele>1938.7</ele>
        <time>2018-04-21T06:06:19.000Z</time>
      </trkpt>
      <trkpt lat="40.822265" lon="-3.830464">
        <ele>1938.8</ele>
        <time>2018-04-21T06:06:20.000Z</time>
      </trkpt>
      <trkpt lat="40.822263" lon="-3.830463">
        <ele>1938.9</ele>
        <time>2018-04-21T06:06:21.000Z</time>
      </trkpt>
      <trkpt lat="40.822261" lon="-3.830463">
        <ele>1939.0</ele>
        <time>2018-04-21T06:06:22.000Z</time>
      </trkpt>
      <trkpt lat="40.822259" lon="-3.830463">
        <ele>1939.0</ele>
        <time>2018-04-21T06:06:23.000Z</time>
      </trkpt>
      <trkpt lat="40.822257" lon="-3.830463">
        <ele>1939.1</ele>
        <time>2018-04-21T06:06:24.000Z</time>
      </trkpt>
      <trkpt lat="40.822255" lon="-3.830463">
        <ele>1939.2</ele>
        <time>2018-04-21T06:06:25.000Z</time>
      </trkpt>
      <trkpt lat="40.822252" lon="-3.830463">
        <ele>1939.3</ele>
        <time>2018-04-21T06:06:26.000Z</time>
      </trkpt>
      <trkpt lat="40.822249" lon="-3.830463">
        <ele>1939.4</ele>
        <time>2018-04-21T06:06:27.000Z</time>
      </trkpt>
      <trkpt lat="40.822245" lon="-3.830463">
        <ele>1939.6</ele>
        <time>2018-04-21T06:06:28.000Z</time>
      </trkpt>
      <trkpt lat="40.82224" lon="-3.830462">
        <ele>1939.7</ele>
        <time>2018-04-21T06:06:29.000Z</time>
      </trkpt>
      <trkpt lat="40.822235" lon="-3.830461">
        <ele>1939.9</ele>
        <time>2018-04-21T06:06:30.000Z</time>
      </trkpt>
      <trkpt lat="40.822229" lon="-3.83046">
        <ele>1940.2</ele>
        <time>2018-04-21T06:06:31.000Z</time>
      </trkpt>
      <trkpt lat="40.822223" lon="-3.830459">
        <ele>1940.4</ele>
        <time>2018-04-21T06:06:32.000Z</time>
      </trkpt>
      <trkpt lat="40.822218" lon="-3.830458">
        <ele>1940.6</ele>
        <time>2018-04-21T06:06:33.000Z</time>
      </trkpt>
      <trkpt lat="40.822212" lon="-3.830456">
        <ele>1940.8</ele>
        <time>2018-04-21T06:06:34.000Z</time>
      </trkpt>
      <trkpt lat="40.822206" lon="-3.830455">
        <ele>1941.0</ele>
        <time>2018-04-21T06:06:35.000Z</time>
      </trkpt>
      <trkpt lat="40.822201" lon="-3.830454">
        <ele>1941.2</ele>
        <time>2018-04-21T06:06:36.000Z</time>
      </trkpt>
      <trkpt lat="40.822197" lon="-3.830454">
        <ele>1941.3</ele>
        <time>2018-04-21T06:06:37.000Z</time>
      </trkpt>
      <trkpt lat="40.822193" lon="-3.830454">
        <ele>1941.5</ele>
        <time>2018-04-21T06:06:38.000Z</time>
      </trkpt>
      <trkpt lat="40.822191" lon="-3.830454">
        <ele>1941.6</ele>
        <time>2018-04-21T06:06:39.000Z</time>
      </trkpt>
      <trkpt lat="40.822188" lon="-3.830454">
        <ele>1941.7</ele>
        <time>2018-04-21T06:06:40.000Z</time>
      </trkpt>
      <trkpt lat="40.822186" lon="-3.830455">
        <ele>1941.7</ele>
        <time>2018-04-21T06:06:41.000Z</time>
      </trkpt>
      <trkpt lat="40.822184" lon="-3.830455">
        <ele>1941.8</ele>
        <time>2018-04-21T06:06:42.000Z</time>
      </trkpt>
      <trkpt lat="40.822182" lon="-3.830456">
        <ele>1941.9</ele>
        <time>2018-04-21T06:06:43.000Z</time>
      </trkpt>
      <trkpt lat="40.82218" lon="-3.830457">
        <ele>1942.0</ele>
        <time>2018-04-21T06:06:44.000Z</time>
      </trkpt>
      <trkpt lat="40.822177" lon="-3.830457">
        <ele>1942.1</ele>
        <time>2018-04-21T06:06:45.000Z</time>
      </trkpt>
      <trkpt lat="40.822173" lon="-3.830458">
        <ele>1942.2</ele>
        <time>2018-04-21T06:06:46.000Z</time>
      </trkpt>
      <trkpt lat="40.822169" lon="-3.830458">
        <ele>1942.4</ele>
        <time>2018-04-21T06:06:47.000Z</time>
      </trkpt>
      <trkpt lat="40.822164" lon="-3.830458">
        <ele>1942.6</ele>
        <time>2018-04-21T06:06:48.000Z</time>
      </trkpt>
      <trkpt lat="40.822158" lon="-3.830457">
        <ele>1942.8</ele>
        <time>2018-04-21T06:06:49.000Z</time>
      </trkpt>
      <trkpt lat="40.822152" lon="-3.830457">
        <ele>1943.0</ele>
        <time>2018-04-21T06:06:50.000Z</time>
      </trkpt>
      <trkpt lat="40.822145" lon="-3.830456">
        <ele>1943.3</ele>
        <time>2018-04-21T06:06:51.000Z</time>
      </trkpt>
      <trkpt lat="40.822138" lon="-3.830456">
        <ele>1943.5</ele>
        <time>2018-04-21T06:06:52.000Z</time>
      </trkpt>
      <trkpt lat="40.822131" lon="-3.830455">
        <ele>1943.8</ele>
        <time>2018-04-21T06:06:53.000Z</time>
      </trkpt>
      <trkpt lat="40.822124" lon="-3.830454">
        <ele>1944.0</ele>
        <time>2018-04-21T06:06:54.000Z</time>
      </trkpt>
      <trkpt lat="40.822118" lon="-3.830453">
        <ele>1944.3</ele>
        <time>2018-04-21T06:06:55.000Z</time>
      </trkpt>
      <trkpt lat="40.822111" lon="-3.830452">
        <ele>1944.5</ele>
        <time>2018-04-21T06:06:56.000Z</time>
      </trkpt>
      <trkpt lat="40.822105" lon="-3.830452">
        <ele>1944.7</ele>
        <time>2018-04-21T06:06:57.000Z</time>
      </trkpt>
      <trkpt lat="40.822098" lon="-3.830451">
        <ele>1945.0</ele>
        <time>2018-04-21T06:06:58.000Z</time>
      </trkpt>
      <trkpt lat="40.822092" lon="-3.83045">
        <ele>1945.2</ele>
        <time>2018-04-21T06:06:59.000Z</time>
      </trkpt>
      <trkpt lat="40.822086" lon="-3.830449">
        <ele>1945.4</ele>
        <time>2018-04-21T06:07:00.000Z</time>
      </trkpt>
      <trkpt lat="40.822081" lon="-3.830449">
        <ele>1945.6</ele>
        <time>2018-04-21T06:07:01.000Z</time>
      </trkpt>
      <trkpt lat="40.822075" lon="-3.830448">
        <ele>1945.8</ele>
        <time>2018-04-21T06:07:02.000Z</time>
      </trkpt>
      <trkpt lat="40.822069" lon="-3.830447">
        <ele>1946.1</ele>
        <time>2018-04-21T06:07:03.000Z</time>
      </trkpt>
      <trkpt lat="40.822062" lon="-3.830445">
        <ele>1946.3</ele>
        <time>2018-04-21T06:07:04.000Z</time>
      </trkpt>
      <trkpt lat="40.822056" lon="-3.830444">
        <ele>1946.5</ele>
        <time>2018-04-21T06:07:05.000Z</time>
      </trkpt>
      <trkpt lat="40.822049" lon="-3.830443">
        <ele>1946.8</ele>
        <time>2018-04-21T06:07:06.000Z</time>
      </trkpt>
      <trkpt lat="40.822043" lon="-3.830444">
        <ele>1947.0</ele>
        <time>2018-04-21T06:07:07.000Z</time>
      </trkpt>
      <trkpt lat="40.822035" lon="-3.830445">
        <ele>1947.3</ele>
        <time>2018-04-21T06:07:08.000Z</time>
      </trkpt>
      <trkpt lat="40.822028" lon="-3.830448">
        <ele>1947.6</ele>
        <time>2018-04-21T06:07:09.000Z</time>
      </trkpt>
      <trkpt lat="40.82202" lon="-3.830454">
        <ele>1947.9</ele>
        <time>2018-04-21T06:07:10.000Z</time>
      </trkpt>
      <trkpt lat="40.822013" lon="-3.830461">
        <ele>1948.2</ele>
        <time>2018-04-21T06:07:11.000Z</time>
      </trkpt>
      <trkpt lat="40.822006" lon="-3.830468">
        <ele>1948.4</ele>
        <time>2018-04-21T06:07:12.000Z</time>
      </trkpt>
      <trkpt lat="40.822" lon="-3.830474">
        <ele>1948.7</ele>
        <time>2018-04-21T06:07:13.000Z</time>
      </trkpt>
      <trkpt lat="40.821997" lon="-3.830479">
        <ele>1948.8</ele>
        <time>2018-04-21T06:07:14.000Z</time>
      </trkpt>
      <trkpt lat="40.821995" lon="-3.830481">
        <ele>1948.8</ele>
        <time>2018-04-21T06:07:15.000Z</time>
      </trkpt>
      <trkpt lat="40.821994" lon="-3.830483">
        <ele>1948.9</ele>
        <time>2018-04-21T06:07:16.000Z</time>
      </trkpt>
      <trkpt lat="40.821993" lon="-3.830483">
        <ele>1948.9</ele>
        <time>2018-04-21T06:07:17.000Z</time>
      </trkpt>
      <trkpt lat="40.821993" lon="-3.830483">
        <ele>1948.9</ele>
        <time>2018-04-21T06:07:18.000Z</time>
      </trkpt>
      <trkpt lat="40.821993" lon="-3.830483">
        <ele>1948.9</ele>
        <time>2018-04-21T06:07:19.000Z</time>
      </trkpt>
      <trkpt lat="40.821992" lon="-3.830484">
        <ele>1949.0</ele>
        <time>2018-04-21T06:07:20.000Z</time>
      </trkpt>
      <trkpt lat="40.821991" lon="-3.830484">
        <ele>1949.0</ele>
        <time>2018-04-21T06:07:21.000Z</time>
      </trkpt>
      <trkpt lat="40.821989" lon="-3.830485">
        <ele>1949.1</ele>
        <time>2018-04-21T06:07:22.000Z</time>
      </trkpt>
      <trkpt lat="40.821987" lon="-3.830487">
        <ele>1949.1</ele>
        <time>2018-04-21T06:07:23.000Z</time>
      </trkpt>
      <trkpt lat="40.821983" lon="-3.830489">
        <ele>1949.3</ele>
        <time>2018-04-21T06:07:24.000Z</time>
      </trkpt>
      <trkpt lat="40.821979" lon="-3.830491">
        <ele>1949.4</ele>
        <time>2018-04-21T06:07:25.000Z</time>
      </trkpt>
      <trkpt lat="40.821975" lon="-3.830495">
        <ele>1949.6</ele>
        <time>2018-04-21T06:07:26.000Z</time>
      </trkpt>
      <trkpt lat="40.82197" lon="-3.830498">
        <ele>1949.8</ele>
        <time>2018-04-21T06:07:27.000Z</time>
      </trkpt>
      <trkpt lat="40.821965" lon="-3.830502">
        <ele>1950.0</ele>
        <time>2018-04-21T06:07:28.000Z</time>
      </trkpt>
      <trkpt lat="40.821959" lon="-3.830505">
        <ele>1950.2</ele>
        <time>2018-04-21T06:07:29.000Z</time>
      </trkpt>
      <trkpt lat="40.821954" lon="-3.830509">
        <ele>1950.4</ele>
        <time>2018-04-21T06:07:30.000Z</time>
      </trkpt>
      <trkpt lat="40.821948" lon="-3.830513">
        <ele>1950.6</ele>
        <time>2018-04-21T06:07:31.000Z</time>
      </trkpt>
      <trkpt lat="40.821943" lon="-3.830517">
        <ele>1950.8</ele>
        <time>2018-04-21T06:07:32.000Z</time>
      </trkpt>
      <trkpt lat="40.821937" lon="-3.830521">
        <ele>1951.0</ele>
        <time>2018-04-21T06:07:33.000Z</time>
      </trkpt>
      <trkpt lat="40.821932" lon="-3.830525">
        <ele>1951.2</ele>
        <time>2018-04-21T06:07:34.000Z</time>
      </trkpt>
      <trkpt lat="40.821927" lon="-3.830528">
        <ele>1951.4</ele>
        <time>2018-04-21T06:07:35.000Z</time>
      </trkpt>
      <trkpt lat="40.821922" lon="-3.830531">
        <ele>1951.6</ele>
        <time>2018-04-21T06:07:36.000Z</time>
      </trkpt>
      <trkpt lat="40.821918" lon="-3.830534">
        <ele>1951.7</ele>
        <time>2018-04-21T06:07:37.000Z</time>
      </trkpt>
      <trkpt lat="40.821914" lon="-3.830537">
        <ele>1951.9</ele>
        <time>2018-04-21T06:07:38.000Z</time>
      </trkpt>
      <trkpt lat="40.821911" lon="-3.830539">
        <ele>1952.0</ele>
        <time>2018-04-21T06:07:39.000Z</time>
      </trkpt>
      <trkpt lat="40.821908" lon="-3.830541">
        <ele>1952.1</ele>
        <time>2018-04-21T06:07:40.000Z</time>
      </trkpt>
      <trkpt lat="40.821906" lon="-3.830543">
        <ele>1952.2</ele>
        <time>2018-04-21T06:07:41.000Z</time>
      </trkpt>
      <trkpt lat="40.821904" lon="-3.830544">
        <ele>1952.3</ele>
        <time>2018-04-21T06:07:42.000Z</time>
      </trkpt>
      <trkpt lat="40.821903" lon="-3.830544">
        <ele>1952.3</ele>
        <time>2018-04-21T06:07:43.000Z</time>
      </trkpt>
      <trkpt lat="40.821902" lon="-3.830544">
        <ele>1952.3</ele>
        <time>2018-04-21T06:07:44.000Z</time>
      </trkpt>
      <trkpt lat="40.821902" lon="-3.830545">
        <ele>1952.3</ele>
        <time>2018-04-21T06:07:45.000Z</time>
      </trkpt>
      <trkpt lat="40.821902" lon="-3.830544">
        <ele>1952.3</ele>
        <time>2018-04-21T06:07:46.000Z</time>
      </trkpt>
      <trkpt lat="40.821902" lon="-3.830544">
        <ele>1952.3</ele>
        <time>2018-04-21T06:07:47.000Z</time>
      </trkpt>
      <trkpt lat="40.821902" lon="-3.830544">
        <ele>1952.3</ele>
        <time>2018-04-21T06:07:48.000Z</time>
      </trkpt>
      <trkpt lat="40.821902" lon="-3.830544">
        <ele>1952.3</ele>
        <time>2018-04-21T06:07:49.000Z</time>
      </trkpt>
      <trkpt lat="40.821902" lon="-3.830543">
        <ele>1952.3</ele>
        <time>2018-04-21T06:07:50.000Z</time>
      </trkpt>
      <trkpt lat="40.821902" lon="-3.830543">
        <ele>1952.3</ele>
        <time>2018-04-21T06:07:51.000Z</time>
      </trkpt>
      <trkpt lat="40.821902" lon="-3.830543">
        <ele>1952.3</ele>
        <time>2018-04-21T06:07:52.000Z</time>
      </trkpt>
      <trkpt lat="40.821902" lon="-3.830543">
        <ele>1952.3</ele>
        <time>2018-04-21T06:07:53.000Z</time>
      </trkpt>
      <trkpt lat="40.821902" lon="-3.830543">
        <ele>1952.3</ele>
        <time>2018-04-21T06:07:54.000Z</time>
      </trkpt>
      <trkpt lat="40.821902" lon="-3.830543">
        <ele>1952.3</ele>
        <time>2018-04-21T06:07:55.000Z</time>
      </trkpt>
      <trkpt lat="40.821902" lon="-3.830543">
        <ele>1952.3</ele>
        <time>2018-04-21T06:07:56.000Z</time>
      </trkpt>
      <trkpt lat="40.821902" lon="-3.830543">
        <ele>1952.3</ele>
        <time>2018-04-21T06:07:57.000Z</time>
      </trkpt>
      <trkpt lat="40.821902" lon="-3.830543">
        <ele>1952.3</ele>
        <time>2018-04-21T06:07:58.000Z</time>
      </trkpt>
      <trkpt lat="40.821902" lon="-3.830543">
        <ele>1952.3</ele>
        <time>2018-04-21T06:07:59.000Z</time>
      </trkpt>
      <trkpt lat="40.821902" lon="-3.830543">
        <ele>1952.3</ele>
        <time>2018-04-21T06:08:00.000Z</time>
      </trkpt>
      <trkpt lat="40.821902" lon="-3.830543">
        <ele>1952.3</ele>
        <time>2018-04-21T06:08:01.000Z</time>
      </trkpt>
      <trkpt lat="40.821901" lon="-3.830543">
        <ele>1952.4</ele>
        <time>2018-04-21T06:08:02.000Z</time>
      </trkpt>
      <trkpt lat="40.821901" lon="-3.830543">
        <ele>1952.4</ele>
        <time>2018-04-21T06:08:03.000Z</time>
      </trkpt>
      <trkpt lat="40.821901" lon="-3.830543">
        <ele>1952.4</ele>
        <time>2018-04-21T06:08:04.000Z</time>
      </trkpt>
      <trkpt lat="40.821901" lon="-3.830543">
        <ele>1952.4</ele>
        <time>2018-04-21T06:08:05.000Z</time>
      </trkpt>
      <trkpt lat="40.821901" lon="-3.830543">
        <ele>1952.4</ele>
        <time>2018-04-21T06:08:06.000Z</time>
      </trkpt>
      <trkpt lat="40.821901" lon="-3.830543">
        <ele>1952.4</ele>
        <time>2018-04-21T06:08:07.000Z</time>
      </trkpt>
      <trkpt lat="40.821901" lon="-3.830543">
        <ele>1952.4</ele>
        <time>2018-04-21T06:08:08.000Z</time>
      </trkpt>
      <trkpt lat="40.8219" lon="-3.830543">
        <ele>1952.4</ele>
        <time>2018-04-21T06:08:09.000Z</time>
      </trkpt>
      <trkpt lat="40.821896" lon="-3.830542">
        <ele>1952.6</ele>
        <time>2018-04-21T06:08:10.000Z</time>
      </trkpt>
      <trkpt lat="40.821884" lon="-3.830543">
        <ele>1953.0</ele>
        <time>2018-04-21T06:08:11.000Z</time>
      </trkpt>
      <trkpt lat="40.821876" lon="-3.830545">
        <ele>1953.3</ele>
        <time>2018-04-21T06:08:12.000Z</time>
      </trkpt>
      <trkpt lat="40.821868" lon="-3.830547">
        <ele>1953.6</ele>
        <time>2018-04-21T06:08:13.000Z</time>
      </trkpt>
      <trkpt lat="40.82186" lon="-3.830547">
        <ele>1953.9</ele>
        <time>2018-04-21T06:08:14.000Z</time>
      </trkpt>
      <trkpt lat="40.821851" lon="-3.830546">
        <ele>1954.2</ele>
        <time>2018-04-21T06:08:15.000Z</time>
      </trkpt>
      <trkpt lat="40.821842" lon="-3.830545">
        <ele>1954.5</ele>
        <time>2018-04-21T06:08:16.000Z</time>
      </trkpt>
      <trkpt lat="40.821834" lon="-3.830543">
        <ele>1954.8</ele>
        <time>2018-04-21T06:08:17.000Z</time>
      </trkpt>
      <trkpt lat="40.821827" lon="-3.830541">
        <ele>1955.1</ele>
        <time>2018-04-21T06:08:18.000Z</time>
      </trkpt>
      <trkpt lat="40.82182" lon="-3.830539">
        <ele>1955.4</ele>
        <time>2018-04-21T06:08:19.000Z</time>
      </trkpt>
      <trkpt lat="40.821814" lon="-3.830538">
        <ele>1955.6</ele>
        <time>2018-04-21T06:08:20.000Z</time>
      </trkpt>
      <trkpt lat="40.821809" lon="-3.830536">
        <ele>1955.8</ele>
        <time>2018-04-21T06:08:21.000Z</time>
      </trkpt>
      <trkpt lat="40.821805" lon="-3.830534">
        <ele>1955.9</ele>
        <time>2018-04-21T06:08:22.000Z</time>
      </trkpt>
      <trkpt lat="40.821802" lon="-3.830533">
        <ele>1956.0</ele>
        <time>2018-04-21T06:08:23.000Z</time>
      </trkpt>
      <trkpt lat="40.8218" lon="-3.830532">
        <ele>1956.1</ele>
        <time>2018-04-21T06:08:24.000Z</time>
      </trkpt>
      <trkpt lat="40.821799" lon="-3.830531">
        <ele>1956.1</ele>
        <time>2018-04-21T06:08:25.000Z</time>
      </trkpt>
      <trkpt lat="40.821798" lon="-3.830531">
        <ele>1956.2</ele>
        <time>2018-04-21T06:08:26.000Z</time>
      </trkpt>
      <trkpt lat="40.821798" lon="-3.830531">
        <ele>1956.2</ele>
        <time>2018-04-21T06:08:27.000Z</time>
      </trkpt>
      <trkpt lat="40.821797" lon="-3.830531">
        <ele>1956.2</ele>
        <time>2018-04-21T06:08:28.000Z</time>
      </trkpt>
      <trkpt lat="40.821795" lon="-3.830532">
        <ele>1956.3</ele>
        <time>2018-04-21T06:08:29.000Z</time>
      </trkpt>
      <trkpt lat="40.82179" lon="-3.830532">
        <ele>1956.5</ele>
        <time>2018-04-21T06:08:30.000Z</time>
      </trkpt>
      <trkpt lat="40.821783" lon="-3.830533">
        <ele>1956.7</ele>
        <time>2018-04-21T06:08:31.000Z</time>
      </trkpt>
      <trkpt lat="40.821773" lon="-3.830534">
        <ele>1957.1</ele>
        <time>2018-04-21T06:08:32.000Z</time>
      </trkpt>
      <trkpt lat="40.821763" lon="-3.830535">
        <ele>1957.4</ele>
        <time>2018-04-21T06:08:33.000Z</time>
      </trkpt>
      <trkpt lat="40.821754" lon="-3.830537">
        <ele>1957.8</ele>
        <time>2018-04-21T06:08:34.000Z</time>
      </trkpt>
      <trkpt lat="40.821748" lon="-3.830539">
        <ele>1958.0</ele>
        <time>2018-04-21T06:08:35.000Z</time>
      </trkpt>
      <trkpt lat="40.821744" lon="-3.83054">
        <ele>1958.2</ele>
        <time>2018-04-21T06:08:36.000Z</time>
      </trkpt>
      <trkpt lat="40.82174" lon="-3.830542">
        <ele>1958.3</ele>
        <time>2018-04-21T06:08:37.000Z</time>
      </trkpt>
      <trkpt lat="40.821737" lon="-3.830542">
        <ele>1958.4</ele>
        <time>2018-04-21T06:08:38.000Z</time>
      </trkpt>
      <trkpt lat="40.821736" lon="-3.830542">
        <ele>1958.4</ele>
        <time>2018-04-21T06:08:39.000Z</time>
      </trkpt>
      <trkpt lat="40.821724" lon="-3.830542">
        <ele>1958.9</ele>
        <time>2018-04-21T06:09:42.000Z</time>
      </trkpt>
      <trkpt lat="40.821697" lon="-3.83054">
        <ele>1959.9</ele>
        <time>2018-04-21T06:09:43.000Z</time>
      </trkpt>
      <trkpt lat="40.821678" lon="-3.83054">
        <ele>1960.6</ele>
        <time>2018-04-21T06:09:44.000Z</time>
      </trkpt>
      <trkpt lat="40.821668" lon="-3.830541">
        <ele>1961.0</ele>
        <time>2018-04-21T06:09:45.000Z</time>
      </trkpt>
      <trkpt lat="40.82166" lon="-3.830542">
        <ele>1961.2</ele>
        <time>2018-04-21T06:09:46.000Z</time>
      </trkpt>
      <trkpt lat="40.821652" lon="-3.830543">
        <ele>1961.4</ele>
        <time>2018-04-21T06:09:47.000Z</time>
      </trkpt>
      <trkpt lat="40.821645" lon="-3.830544">
        <ele>1961.7</ele>
        <time>2018-04-21T06:09:48.000Z</time>
      </trkpt>
      <trkpt lat="40.821639" lon="-3.830545">
        <ele>1961.8</ele>
        <time>2018-04-21T06:09:49.000Z</time>
      </trkpt>
      <trkpt lat="40.821633" lon="-3.830546">
        <ele>1962.0</ele>
        <time>2018-04-21T06:09:50.000Z</time>
      </trkpt>
      <trkpt lat="40.821628" lon="-3.830546">
        <ele>1962.2</ele>
        <time>2018-04-21T06:09:51.000Z</time>
      </trkpt>
      <trkpt lat="40.821624" lon="-3.830547">
        <ele>1962.3</ele>
        <time>2018-04-21T06:09:52.000Z</time>
      </trkpt>
      <trkpt lat="40.821621" lon="-3.830547">
        <ele>1962.4</ele>
        <time>2018-04-21T06:09:53.000Z</time>
      </trkpt>
      <trkpt lat="40.821618" lon="-3.830548">
        <ele>1962.5</ele>
        <time>2018-04-21T06:09:54.000Z</time>
      </trkpt>
      <trkpt lat="40.821615" lon="-3.830548">
        <ele>1962.6</ele>
        <time>2018-04-21T06:09:55.000Z</time>
      </trkpt>
      <trkpt lat="40.821614" lon="-3.830548">
        <ele>1962.6</ele>
        <time>2018-04-21T06:09:56.000Z</time>
      </trkpt>
      <trkpt lat="40.821613" lon="-3.830548">
        <ele>1962.6</ele>
        <time>2018-04-21T06:09:57.000Z</time>
      </trkpt>
      <trkpt lat="40.821612" lon="-3.830548">
        <ele>1962.6</ele>
        <time>2018-04-21T06:09:58.000Z</time>
      </trkpt>
      <trkpt lat="40.821611" lon="-3.830548">
        <ele>1962.7</ele>
        <time>2018-04-21T06:09:59.000Z</time>
      </trkpt>
      <trkpt lat="40.821611" lon="-3.830548">
        <ele>1962.7</ele>
        <time>2018-04-21T06:10:00.000Z</time>
      </trkpt>
      <trkpt lat="40.821611" lon="-3.830548">
        <ele>1962.7</ele>
        <time>2018-04-21T06:10:01.000Z</time>
      </trkpt>
      <trkpt lat="40.821611" lon="-3.830548">
        <ele>1962.7</ele>
        <time>2018-04-21T06:10:02.000Z</time>
      </trkpt>
      <trkpt lat="40.821611" lon="-3.830548">
        <ele>1962.7</ele>
        <time>2018-04-21T06:10:03.000Z</time>
      </trkpt>
      <trkpt lat="40.821611" lon="-3.830548">
        <ele>1962.7</ele>
        <time>2018-04-21T06:10:04.000Z</time>
      </trkpt>
      <trkpt lat="40.821611" lon="-3.830548">
        <ele>1962.7</ele>
        <time>2018-04-21T06:10:05.000Z</time>
      </trkpt>
      <trkpt lat="40.821611" lon="-3.830548">
        <ele>1962.7</ele>
        <time>2018-04-21T06:10:06.000Z</time>
      </trkpt>
      <trkpt lat="40.821611" lon="-3.830548">
        <ele>1962.7</ele>
        <time>2018-04-21T06:10:07.000Z</time>
      </trkpt>
      <trkpt lat="40.821611" lon="-3.830547">
        <ele>1962.7</ele>
        <time>2018-04-21T06:10:08.000Z</time>
      </trkpt>
      <trkpt lat="40.821609" lon="-3.830547">
        <ele>1962.7</ele>
        <time>2018-04-21T06:10:09.000Z</time>
      </trkpt>
      <trkpt lat="40.821603" lon="-3.830546">
        <ele>1962.9</ele>
        <time>2018-04-21T06:10:10.000Z</time>
      </trkpt>
      <trkpt lat="40.821598" lon="-3.830546">
        <ele>1963.1</ele>
        <time>2018-04-21T06:10:11.000Z</time>
      </trkpt>
      <trkpt lat="40.821593" lon="-3.830545">
        <ele>1963.2</ele>
        <time>2018-04-21T06:10:12.000Z</time>
      </trkpt>
      <trkpt lat="40.821589" lon="-3.830545">
        <ele>1963.3</ele>
        <time>2018-04-21T06:10:13.000Z</time>
      </trkpt>
      <trkpt lat="40.821585" lon="-3.830544">
        <ele>1963.5</ele>
        <time>2018-04-21T06:10:14.000Z</time>
      </trkpt>
      <trkpt lat="40.821582" lon="-3.830544">
        <ele>1963.5</ele>
        <time>2018-04-21T06:10:15.000Z</time>
      </trkpt>
      <trkpt lat="40.821579" lon="-3.830543">
        <ele>1963.6</ele>
        <time>2018-04-21T06:10:16.000Z</time>
      </trkpt>
      <trkpt lat="40.821575" lon="-3.830542">
        <ele>1963.8</ele>
        <time>2018-04-21T06:10:17.000Z</time>
      </trkpt>
      <trkpt lat="40.821572" lon="-3.830542">
        <ele>1963.8</ele>
        <time>2018-04-21T06:10:18.000Z</time>
      </trkpt>
      <trkpt lat="40.821569" lon="-3.830541">
        <ele>1963.9</ele>
        <time>2018-04-21T06:10:19.000Z</time>
      </trkpt>
      <trkpt lat="40.821565" lon="-3.83054">
        <ele>1964.1</ele>
        <time>2018-04-21T06:10:20.000Z</time>
      </trkpt>
      <trkpt lat="40.821561" lon="-3.830539">
        <ele>1964.2</ele>
        <time>2018-04-21T06:10:21.000Z</time>
      </trkpt>
      <trkpt lat="40.821557" lon="-3.830538">
        <ele>1964.3</ele>
        <time>2018-04-21T06:10:22.000Z</time>
      </trkpt>
      <trkpt lat="40.821552" lon="-3.830537">
        <ele>1964.4</ele>
        <time>2018-04-21T06:10:23.000Z</time>
      </trkpt>
      <trkpt lat="40.821546" lon="-3.830537">
        <ele>1964.6</ele>
        <time>2018-04-21T06:10:24.000Z</time>
      </trkpt>
      <trkpt lat="40.821541" lon="-3.830536">
        <ele>1964.8</ele>
        <time>2018-04-21T06:10:25.000Z</time>
      </trkpt>
      <trkpt lat="40.821535" lon="-3.830535">
        <ele>1965.0</ele>
        <time>2018-04-21T06:10:26.000Z</time>
      </trkpt>
      <trkpt lat="40.821528" lon="-3.830534">
        <ele>1965.2</ele>
        <time>2018-04-21T06:10:27.000Z</time>
      </trkpt>
      <trkpt lat="40.821522" lon="-3.830533">
        <ele>1965.4</ele>
        <time>2018-04-21T06:10:28.000Z</time>
      </trkpt>
      <trkpt lat="40.821515" lon="-3.830532">
        <ele>1965.6</ele>
        <time>2018-04-21T06:10:29.000Z</time>
      </trkpt>
      <trkpt lat="40.821508" lon="-3.830531">
        <ele>1965.8</ele>
        <time>2018-04-21T06:10:30.000Z</time>
      </trkpt>
      <trkpt lat="40.821501" lon="-3.830529">
        <ele>1966.0</ele>
        <time>2018-04-21T06:10:31.000Z</time>
      </trkpt>
      <trkpt lat="40.821495" lon="-3.830528">
        <ele>1966.2</ele>
        <time>2018-04-21T06:10:32.000Z</time>
      </trkpt>
      <trkpt lat="40.821488" lon="-3.830527">
        <ele>1966.4</ele>
        <time>2018-04-21T06:10:33.000Z</time>
      </trkpt>
      <trkpt lat="40.821481" lon="-3.830525">
        <ele>1966.6</ele>
        <time>2018-04-21T06:10:34.000Z</time>
      </trkpt>
      <trkpt lat="40.821475" lon="-3.830524">
        <ele>1966.8</ele>
        <time>2018-04-21T06:10:35.000Z</time>
      </trkpt>
      <trkpt lat="40.821469" lon="-3.830522">
        <ele>1967.0</ele>
        <time>2018-04-21T06:10:36.000Z</time>
      </trkpt>
      <trkpt lat="40.821464" lon="-3.83052">
        <ele>1967.1</ele>
        <time>2018-04-21T06:10:37.000Z</time>
      </trkpt>
      <trkpt lat="40.821458" lon="-3.830518">
        <ele>1967.3</ele>
        <time>2018-04-21T06:10:38.000Z</time>
      </trkpt>
      <trkpt lat="40.821454" lon="-3.830515">
        <ele>1967.4</ele>
        <time>2018-04-21T06:10:39.000Z</time>
      </trkpt>
      <trkpt lat="40.821449" lon="-3.830513">
        <ele>1967.6</ele>
        <time>2018-04-21T06:10:40.000Z</time>
      </trkpt>
      <trkpt lat="40.821446" lon="-3.83051">
        <ele>1967.7</ele>
        <time>2018-04-21T06:10:41.000Z</time>
      </trkpt>
      <trkpt lat="40.821443" lon="-3.830508">
        <ele>1967.8</ele>
        <time>2018-04-21T06:10:42.000Z</time>
      </trkpt>
      <trkpt lat="40.82144" lon="-3.830505">
        <ele>1967.8</ele>
        <time>2018-04-21T06:10:43.000Z</time>
      </trkpt>
      <trkpt lat="40.821438" lon="-3.830503">
        <ele>1967.9</ele>
        <time>2018-04-21T06:10:44.000Z</time>
      </trkpt>
      <trkpt lat="40.821437" lon="-3.830501">
        <ele>1967.9</ele>
        <time>2018-04-21T06:10:45.000Z</time>
      </trkpt>
      <trkpt lat="40.821436" lon="-3.8305">
        <ele>1968.0</ele>
        <time>2018-04-21T06:10:46.000Z</time>
      </trkpt>
      <trkpt lat="40.821435" lon="-3.830499">
        <ele>1968.0</ele>
        <time>2018-04-21T06:10:47.000Z</time>
      </trkpt>
      <trkpt lat="40.821436" lon="-3.830498">
        <ele>1968.0</ele>
        <time>2018-04-21T06:10:48.000Z</time>
      </trkpt>
      <trkpt lat="40.821437" lon="-3.830498">
        <ele>1967.9</ele>
        <time>2018-04-21T06:10:49.000Z</time>
      </trkpt>
      <trkpt lat="40.821438" lon="-3.830499">
        <ele>1967.9</ele>
        <time>2018-04-21T06:10:50.000Z</time>
      </trkpt>
      <trkpt lat="40.821438" lon="-3.830499">
        <ele>1967.9</ele>
        <time>2018-04-21T06:10:51.000Z</time>
      </trkpt>
      <trkpt lat="40.821438" lon="-3.830498">
        <ele>1967.9</ele>
        <time>2018-04-21T06:10:52.000Z</time>
      </trkpt>
      <trkpt lat="40.821437" lon="-3.830495">
        <ele>1968.0</ele>
        <time>2018-04-21T06:10:53.000Z</time>
      </trkpt>
      <trkpt lat="40.821434" lon="-3.830491">
        <ele>1968.0</ele>
        <time>2018-04-21T06:10:54.000Z</time>
      </trkpt>
      <trkpt lat="40.821431" lon="-3.830485">
        <ele>1968.1</ele>
        <time>2018-04-21T06:10:55.000Z</time>
      </trkpt>
      <trkpt lat="40.821426" lon="-3.830478">
        <ele>1968.3</ele>
        <time>2018-04-21T06:10:56.000Z</time>
      </trkpt>
      <trkpt lat="40.821422" lon="-3.83047">
        <ele>1968.4</ele>
        <time>2018-04-21T06:10:57.000Z</time>
      </trkpt>
      <trkpt lat="40.821418" lon="-3.830461">
        <ele>1968.6</ele>
        <time>2018-04-21T06:10:58.000Z</time>
      </trkpt>
      <trkpt lat="40.821414" lon="-3.830453">
        <ele>1968.7</ele>
        <time>2018-04-21T06:10:59.000Z</time>
      </trkpt>
      <trkpt lat="40.821411" lon="-3.830443">
        <ele>1968.8</ele>
        <time>2018-04-21T06:11:00.000Z</time>
      </trkpt>
      <trkpt lat="40.821408" lon="-3.830434">
        <ele>1968.9</ele>
        <time>2018-04-21T06:11:01.000Z</time>
      </trkpt>
      <trkpt lat="40.821405" lon="-3.830425">
        <ele>1969.0</ele>
        <time>2018-04-21T06:11:02.000Z</time>
      </trkpt>
      <trkpt lat="40.821402" lon="-3.830417">
        <ele>1969.1</ele>
        <time>2018-04-21T06:11:03.000Z</time>
      </trkpt>
      <trkpt lat="40.8214" lon="-3.830408">
        <ele>1969.2</ele>
        <time>2018-04-21T06:11:04.000Z</time>
      </trkpt>
      <trkpt lat="40.821398" lon="-3.8304">
        <ele>1969.2</ele>
        <time>2018-04-21T06:11:05.000Z</time>
      </trkpt>
      <trkpt lat="40.821397" lon="-3.830393">
        <ele>1969.3</ele>
        <time>2018-04-21T06:11:06.000Z</time>
      </trkpt>
      <trkpt lat="40.821395" lon="-3.830387">
        <ele>1969.3</ele>
        <time>2018-04-21T06:11:07.000Z</time>
      </trkpt>
      <trkpt lat="40.821393" lon="-3.830382">
        <ele>1969.4</ele>
        <time>2018-04-21T06:11:08.000Z</time>
      </trkpt>
      <trkpt lat="40.821392" lon="-3.830377">
        <ele>1969.5</ele>
        <time>2018-04-21T06:11:09.000Z</time>
      </trkpt>
      <trkpt lat="40.82139" lon="-3.830372">
        <ele>1969.5</ele>
        <time>2018-04-21T06:11:10.000Z</time>
      </trkpt>
      <trkpt lat="40.821389" lon="-3.830367">
        <ele>1969.6</ele>
        <time>2018-04-21T06:11:11.000Z</time>
      </trkpt>
      <trkpt lat="40.821387" lon="-3.830361">
        <ele>1969.6</ele>
        <time>2018-04-21T06:11:12.000Z</time>
      </trkpt>
      <trkpt lat="40.821385" lon="-3.830356">
        <ele>1969.7</ele>
        <time>2018-04-21T06:11:13.000Z</time>
      </trkpt>
      <trkpt lat="40.821382" lon="-3.830349">
        <ele>1969.8</ele>
        <time>2018-04-21T06:11:14.000Z</time>
      </trkpt>
      <trkpt lat="40.82138" lon="-3.830341">
        <ele>1969.9</ele>
        <time>2018-04-21T06:11:15.000Z</time>
      </trkpt>
      <trkpt lat="40.821377" lon="-3.830333">
        <ele>1970.0</ele>
        <time>2018-04-21T06:11:16.000Z</time>
      </trkpt>
      <trkpt lat="40.821373" lon="-3.830324">
        <ele>1970.1</ele>
        <time>2018-04-21T06:11:17.000Z</time>
      </trkpt>
      <trkpt lat="40.82137" lon="-3.830315">
        <ele>1970.2</ele>
        <time>2018-04-21T06:11:18.000Z</time>
      </trkpt>
      <trkpt lat="40.821366" lon="-3.830308">
        <ele>1970.3</ele>
        <time>2018-04-21T06:11:19.000Z</time>
      </trkpt>
      <trkpt lat="40.821362" lon="-3.830303">
        <ele>1970.5</ele>
        <time>2018-04-21T06:11:20.000Z</time>
      </trkpt>
      <trkpt lat="40.821358" lon="-3.8303">
        <ele>1970.6</ele>
        <time>2018-04-21T06:11:21.000Z</time>
      </trkpt>
      <trkpt lat="40.821354" lon="-3.8303">
        <ele>1970.7</ele>
        <time>2018-04-21T06:11:22.000Z</time>
      </trkpt>
      <trkpt lat="40.821351" lon="-3.8303">
        <ele>1970.8</ele>
        <time>2018-04-21T06:11:23.000Z</time>
      </trkpt>
      <trkpt lat="40.821347" lon="-3.8303">
        <ele>1970.9</ele>
        <time>2018-04-21T06:11:24.000Z</time>
      </trkpt>
      <trkpt lat="40.821345" lon="-3.8303">
        <ele>1971.0</ele>
        <time>2018-04-21T06:11:25.000Z</time>
      </trkpt>
      <trkpt lat="40.821343" lon="-3.830299">
        <ele>1971.1</ele>
        <time>2018-04-21T06:11:26.000Z</time>
      </trkpt>
      <trkpt lat="40.821341" lon="-3.830298">
        <ele>1971.1</ele>
        <time>2018-04-21T06:11:27.000Z</time>
      </trkpt>
      <trkpt lat="40.82134" lon="-3.830296">
        <ele>1971.2</ele>
        <time>2018-04-21T06:11:28.000Z</time>
      </trkpt>
      <trkpt lat="40.821339" lon="-3.830294">
        <ele>1971.2</ele>
        <time>2018-04-21T06:11:29.000Z</time>
      </trkpt>
      <trkpt lat="40.821338" lon="-3.830292">
        <ele>1971.2</ele>
        <time>2018-04-21T06:11:30.000Z</time>
      </trkpt>
      <trkpt lat="40.821337" lon="-3.83029">
        <ele>1971.3</ele>
        <time>2018-04-21T06:11:31.000Z</time>
      </trkpt>
      <trkpt lat="40.821337" lon="-3.830288">
        <ele>1971.3</ele>
        <time>2018-04-21T06:11:32.000Z</time>
      </trkpt>
      <trkpt lat="40.821337" lon="-3.830286">
        <ele>1971.3</ele>
        <time>2018-04-21T06:11:33.000Z</time>
      </trkpt>
      <trkpt lat="40.821337" lon="-3.830285">
        <ele>1971.3</ele>
        <time>2018-04-21T06:11:34.000Z</time>
      </trkpt>
      <trkpt lat="40.821336" lon="-3.830284">
        <ele>1971.3</ele>
        <time>2018-04-21T06:11:35.000Z</time>
      </trkpt>
      <trkpt lat="40.821336" lon="-3.830284">
        <ele>1971.3</ele>
        <time>2018-04-21T06:11:36.000Z</time>
      </trkpt>
      <trkpt lat="40.821336" lon="-3.830283">
        <ele>1971.3</ele>
        <time>2018-04-21T06:11:37.000Z</time>
      </trkpt>
      <trkpt lat="40.821336" lon="-3.830283">
        <ele>1971.3</ele>
        <time>2018-04-21T06:11:38.000Z</time>
      </trkpt>
      <trkpt lat="40.821336" lon="-3.830283">
        <ele>1971.3</ele>
        <time>2018-04-21T06:11:39.000Z</time>
      </trkpt>
      <trkpt lat="40.821336" lon="-3.830284">
        <ele>1971.3</ele>
        <time>2018-04-21T06:11:40.000Z</time>
      </trkpt>
      <trkpt lat="40.821336" lon="-3.830284">
        <ele>1971.3</ele>
        <time>2018-04-21T06:11:41.000Z</time>
      </trkpt>
      <trkpt lat="40.821337" lon="-3.830284">
        <ele>1971.3</ele>
        <time>2018-04-21T06:11:42.000Z</time>
      </trkpt>
      <trkpt lat="40.821337" lon="-3.830284">
        <ele>1971.3</ele>
        <time>2018-04-21T06:11:43.000Z</time>
      </trkpt>
      <trkpt lat="40.821337" lon="-3.830283">
        <ele>1971.3</ele>
        <time>2018-04-21T06:11:44.000Z</time>
      </trkpt>
      <trkpt lat="40.821336" lon="-3.830282">
        <ele>1971.3</ele>
        <time>2018-04-21T06:11:45.000Z</time>
      </trkpt>
      <trkpt lat="40.821335" lon="-3.83028">
        <ele>1971.3</ele>
        <time>2018-04-21T06:11:46.000Z</time>
      </trkpt>
      <trkpt lat="40.821331" lon="-3.830276">
        <ele>1971.5</ele>
        <time>2018-04-21T06:11:47.000Z</time>
      </trkpt>
      <trkpt lat="40.821327" lon="-3.830271">
        <ele>1971.6</ele>
        <time>2018-04-21T06:11:48.000Z</time>
      </trkpt>
      <trkpt lat="40.821321" lon="-3.830266">
        <ele>1971.8</ele>
        <time>2018-04-21T06:11:49.000Z</time>
      </trkpt>
      <trkpt lat="40.821315" lon="-3.830261">
        <ele>1972.0</ele>
        <time>2018-04-21T06:11:50.000Z</time>
      </trkpt>
      <trkpt lat="40.821311" lon="-3.830257">
        <ele>1972.1</ele>
        <time>2018-04-21T06:11:51.000Z</time>
      </trkpt>
      <trkpt lat="40.821308" lon="-3.830256">
        <ele>1972.2</ele>
        <time>2018-04-21T06:11:52.000Z</time>
      </trkpt>
      <trkpt lat="40.821307" lon="-3.830257">
        <ele>1972.3</ele>
        <time>2018-04-21T06:11:53.000Z</time>
      </trkpt>
      <trkpt lat="40.821307" lon="-3.830259">
        <ele>1972.3</ele>
        <time>2018-04-21T06:11:54.000Z</time>
      </trkpt>
      <trkpt lat="40.821308" lon="-3.830262">
        <ele>1972.2</ele>
        <time>2018-04-21T06:11:55.000Z</time>
      </trkpt>
      <trkpt lat="40.821309" lon="-3.830264">
        <ele>1972.2</ele>
        <time>2018-04-21T06:11:56.000Z</time>
      </trkpt>
      <trkpt lat="40.82131" lon="-3.830264">
        <ele>1972.1</ele>
        <time>2018-04-21T06:11:57.000Z</time>
      </trkpt>
      <trkpt lat="40.821311" lon="-3.830264">
        <ele>1972.1</ele>
        <time>2018-04-21T06:11:58.000Z</time>
      </trkpt>
      <trkpt lat="40.821313" lon="-3.830262">
        <ele>1972.1</ele>
        <time>2018-04-21T06:11:59.000Z</time>
      </trkpt>
      <trkpt lat="40.821314" lon="-3.830259">
        <ele>1972.0</ele>
        <time>2018-04-21T06:12:00.000Z</time>
      </trkpt>
      <trkpt lat="40.821317" lon="-3.830255">
        <ele>1971.9</ele>
        <time>2018-04-21T06:12:01.000Z</time>
      </trkpt>
      <trkpt lat="40.821319" lon="-3.83025">
        <ele>1971.9</ele>
        <time>2018-04-21T06:12:02.000Z</time>
      </trkpt>
      <trkpt lat="40.821321" lon="-3.830244">
        <ele>1971.8</ele>
        <time>2018-04-21T06:12:03.000Z</time>
      </trkpt>
      <trkpt lat="40.821322" lon="-3.830239">
        <ele>1971.8</ele>
        <time>2018-04-21T06:12:04.000Z</time>
      </trkpt>
      <trkpt lat="40.821323" lon="-3.830234">
        <ele>1971.8</ele>
        <time>2018-04-21T06:12:05.000Z</time>
      </trkpt>
      <trkpt lat="40.821323" lon="-3.830231">
        <ele>1971.8</ele>
        <time>2018-04-21T06:12:06.000Z</time>
      </trkpt>
      <trkpt lat="40.821321" lon="-3.830228">
        <ele>1971.9</ele>
        <time>2018-04-21T06:12:07.000Z</time>
      </trkpt>
      <trkpt lat="40.82132" lon="-3.830226">
        <ele>1971.9</ele>
        <time>2018-04-21T06:12:08.000Z</time>
      </trkpt>
      <trkpt lat="40.821319" lon="-3.830225">
        <ele>1971.9</ele>
        <time>2018-04-21T06:12:09.000Z</time>
      </trkpt>
      <trkpt lat="40.821319" lon="-3.830224">
        <ele>1971.9</ele>
        <time>2018-04-21T06:12:10.000Z</time>
      </trkpt>
      <trkpt lat="40.821319" lon="-3.830224">
        <ele>1971.9</ele>
        <time>2018-04-21T06:12:11.000Z</time>
      </trkpt>
      <trkpt lat="40.82132" lon="-3.830224">
        <ele>1971.9</ele>
        <time>2018-04-21T06:12:12.000Z</time>
      </trkpt>
      <trkpt lat="40.821321" lon="-3.830224">
        <ele>1971.9</ele>
        <time>2018-04-21T06:12:13.000Z</time>
      </trkpt>
      <trkpt lat="40.821323" lon="-3.830224">
        <ele>1971.8</ele>
        <time>2018-04-21T06:12:14.000Z</time>
      </trkpt>
      <trkpt lat="40.821325" lon="-3.830223">
        <ele>1971.7</ele>
        <time>2018-04-21T06:12:15.000Z</time>
      </trkpt>
      <trkpt lat="40.821327" lon="-3.830221">
        <ele>1971.7</ele>
        <time>2018-04-21T06:12:16.000Z</time>
      </trkpt>
      <trkpt lat="40.821329" lon="-3.830219">
        <ele>1971.6</ele>
        <time>2018-04-21T06:12:17.000Z</time>
      </trkpt>
      <trkpt lat="40.82133" lon="-3.830216">
        <ele>1971.6</ele>
        <time>2018-04-21T06:12:18.000Z</time>
      </trkpt>
      <trkpt lat="40.821331" lon="-3.830211">
        <ele>1971.6</ele>
        <time>2018-04-21T06:12:19.000Z</time>
      </trkpt>
      <trkpt lat="40.821332" lon="-3.830205">
        <ele>1971.5</ele>
        <time>2018-04-21T06:12:20.000Z</time>
      </trkpt>
      <trkpt lat="40.821332" lon="-3.830198">
        <ele>1971.6</ele>
        <time>2018-04-21T06:12:21.000Z</time>
      </trkpt>
      <trkpt lat="40.821332" lon="-3.830191">
        <ele>1971.6</ele>
        <time>2018-04-21T06:12:22.000Z</time>
      </trkpt>
      <trkpt lat="40.821331" lon="-3.830185">
        <ele>1971.6</ele>
        <time>2018-04-21T06:12:23.000Z</time>
      </trkpt>
      <trkpt lat="40.821329" lon="-3.83018">
        <ele>1971.7</ele>
        <time>2018-04-21T06:12:24.000Z</time>
      </trkpt>
      <trkpt lat="40.821327" lon="-3.830177">
        <ele>1971.7</ele>
        <time>2018-04-21T06:12:25.000Z</time>
      </trkpt>
      <trkpt lat="40.821325" lon="-3.830176">
        <ele>1971.8</ele>
        <time>2018-04-21T06:12:26.000Z</time>
      </trkpt>
      <trkpt lat="40.821322" lon="-3.830176">
        <ele>1971.9</ele>
        <time>2018-04-21T06:12:27.000Z</time>
      </trkpt>
      <trkpt lat="40.82132" lon="-3.830176">
        <ele>1972.0</ele>
        <time>2018-04-21T06:12:28.000Z</time>
      </trkpt>
      <trkpt lat="40.821319" lon="-3.830176">
        <ele>1972.0</ele>
        <time>2018-04-21T06:12:29.000Z</time>
      </trkpt>
      <trkpt lat="40.821319" lon="-3.830176">
        <ele>1972.0</ele>
        <time>2018-04-21T06:12:30.000Z</time>
      </trkpt>
      <trkpt lat="40.821319" lon="-3.830176">
        <ele>1972.0</ele>
        <time>2018-04-21T06:12:31.000Z</time>
      </trkpt>
      <trkpt lat="40.821319" lon="-3.830176">
        <ele>1972.0</ele>
        <time>2018-04-21T06:12:32.000Z</time>
      </trkpt>
      <trkpt lat="40.821319" lon="-3.830176">
        <ele>1972.0</ele>
        <time>2018-04-21T06:12:33.000Z</time>
      </trkpt>
      <trkpt lat="40.821318" lon="-3.830175">
        <ele>1972.0</ele>
        <time>2018-04-21T06:12:34.000Z</time>
      </trkpt>
      <trkpt lat="40.821318" lon="-3.830175">
        <ele>1972.0</ele>
        <time>2018-04-21T06:12:35.000Z</time>
      </trkpt>
      <trkpt lat="40.821316" lon="-3.830174">
        <ele>1972.1</ele>
        <time>2018-04-21T06:12:36.000Z</time>
      </trkpt>
      <trkpt lat="40.821315" lon="-3.830173">
        <ele>1972.1</ele>
        <time>2018-04-21T06:12:37.000Z</time>
      </trkpt>
      <trkpt lat="40.821315" lon="-3.830172">
        <ele>1972.1</ele>
        <time>2018-04-21T06:12:38.000Z</time>
      </trkpt>
      <trkpt lat="40.821314" lon="-3.830172">
        <ele>1972.2</ele>
        <time>2018-04-21T06:12:39.000Z</time>
      </trkpt>
      <trkpt lat="40.821314" lon="-3.830172">
        <ele>1972.2</ele>
        <time>2018-04-21T06:12:40.000Z</time>
      </trkpt>
      <trkpt lat="40.821314" lon="-3.830172">
        <ele>1972.2</ele>
        <time>2018-04-21T06:12:41.000Z</time>
      </trkpt>
      <trkpt lat="40.821314" lon="-3.830172">
        <ele>1972.2</ele>
        <time>2018-04-21T06:12:42.000Z</time>
      </trkpt>
      <trkpt lat="40.821314" lon="-3.830172">
        <ele>1972.2</ele>
        <time>2018-04-21T06:12:43.000Z</time>
      </trkpt>
      <trkpt lat="40.821314" lon="-3.830172">
        <ele>1972.2</ele>
        <time>2018-04-21T06:12:44.000Z</time>
      </trkpt>
      <trkpt lat="40.821314" lon="-3.830172">
        <ele>1972.2</ele>
        <time>2018-04-21T06:12:45.000Z</time>
      </trkpt>
      <trkpt lat="40.821314" lon="-3.830172">
        <ele>1972.2</ele>
        <time>2018-04-21T06:12:46.000Z</time>
      </trkpt>
      <trkpt lat="40.821314" lon="-3.830172">
        <ele>1972.2</ele>
        <time>2018-04-21T06:12:47.000Z</time>
      </trkpt>
      <trkpt lat="40.821314" lon="-3.830171">
        <ele>1972.2</ele>
        <time>2018-04-21T06:12:48.000Z</time>
      </trkpt>
      <trkpt lat="40.821313" lon="-3.830171">
        <ele>1972.2</ele>
        <time>2018-04-21T06:12:49.000Z</time>
      </trkpt>
      <trkpt lat="40.821311" lon="-3.83017">
        <ele>1972.3</ele>
        <time>2018-04-21T06:12:50.000Z</time>
      </trkpt>
      <trkpt lat="40.821309" lon="-3.830168">
        <ele>1972.3</ele>
        <time>2018-04-21T06:12:51.000Z</time>
      </trkpt>
      <trkpt lat="40.821306" lon="-3.830166">
        <ele>1972.4</ele>
        <time>2018-04-21T06:12:52.000Z</time>
      </trkpt>
      <trkpt lat="40.821301" lon="-3.830164">
        <ele>1972.6</ele>
        <time>2018-04-21T06:12:53.000Z</time>
      </trkpt>
      <trkpt lat="40.821297" lon="-3.830161">
        <ele>1972.7</ele>
        <time>2018-04-21T06:12:54.000Z</time>
      </trkpt>
      <trkpt lat="40.821293" lon="-3.830159">
        <ele>1972.9</ele>
        <time>2018-04-21T06:12:55.000Z</time>
      </trkpt>
      <trkpt lat="40.82129" lon="-3.830157">
        <ele>1972.9</ele>
        <time>2018-04-21T06:12:56.000Z</time>
      </trkpt>
      <trkpt lat="40.821287" lon="-3.830155">
        <ele>1973.0</ele>
        <time>2018-04-21T06:12:57.000Z</time>
      </trkpt>
      <trkpt lat="40.821285" lon="-3.830154">
        <ele>1973.1</ele>
        <time>2018-04-21T06:12:58.000Z</time>
      </trkpt>
      <trkpt lat="40.821284" lon="-3.830152">
        <ele>1973.1</ele>
        <time>2018-04-21T06:12:59.000Z</time>
      </trkpt>
      <trkpt lat="40.821283" lon="-3.830151">
        <ele>1973.2</ele>
        <time>2018-04-21T06:13:00.000Z</time>
      </trkpt>
      <trkpt lat="40.821282" lon="-3.83015">
        <ele>1973.2</ele>
        <time>2018-04-21T06:13:01.000Z</time>
      </trkpt>
      <trkpt lat="40.821282" lon="-3.83015">
        <ele>1973.2</ele>
        <time>2018-04-21T06:13:02.000Z</time>
      </trkpt>
      <trkpt lat="40.821282" lon="-3.830149">
        <ele>1973.2</ele>
        <time>2018-04-21T06:13:03.000Z</time>
      </trkpt>
      <trkpt lat="40.821282" lon="-3.830149">
        <ele>1973.2</ele>
        <time>2018-04-21T06:13:04.000Z</time>
      </trkpt>
      <trkpt lat="40.821282" lon="-3.830148">
        <ele>1973.2</ele>
        <time>2018-04-21T06:13:05.000Z</time>
      </trkpt>
      <trkpt lat="40.821282" lon="-3.830148">
        <ele>1973.2</ele>
        <time>2018-04-21T06:13:06.000Z</time>
      </trkpt>
      <trkpt lat="40.821282" lon="-3.830148">
        <ele>1973.2</ele>
        <time>2018-04-21T06:13:07.000Z</time>
      </trkpt>
      <trkpt lat="40.821282" lon="-3.830148">
        <ele>1973.2</ele>
        <time>2018-04-21T06:13:08.000Z</time>
      </trkpt>
      <trkpt lat="40.821282" lon="-3.830148">
        <ele>1973.2</ele>
        <time>2018-04-21T06:13:09.000Z</time>
      </trkpt>
      <trkpt lat="40.821282" lon="-3.830147">
        <ele>1973.2</ele>
        <time>2018-04-21T06:13:10.000Z</time>
      </trkpt>
      <trkpt lat="40.821282" lon="-3.830147">
        <ele>1973.2</ele>
        <time>2018-04-21T06:13:11.000Z</time>
      </trkpt>
      <trkpt lat="40.821282" lon="-3.830147">
        <ele>1973.2</ele>
        <time>2018-04-21T06:13:12.000Z</time>
      </trkpt>
      <trkpt lat="40.821282" lon="-3.830147">
        <ele>1973.2</ele>
        <time>2018-04-21T06:13:13.000Z</time>
      </trkpt>
      <trkpt lat="40.821282" lon="-3.830147">
        <ele>1973.2</ele>
        <time>2018-04-21T06:13:14.000Z</time>
      </trkpt>
      <trkpt lat="40.821281" lon="-3.830147">
        <ele>1973.3</ele>
        <time>2018-04-21T06:13:15.000Z</time>
      </trkpt>
      <trkpt lat="40.821281" lon="-3.830147">
        <ele>1973.3</ele>
        <time>2018-04-21T06:13:16.000Z</time>
      </trkpt>
      <trkpt lat="40.821281" lon="-3.830146">
        <ele>1973.3</ele>
        <time>2018-04-21T06:13:17.000Z</time>
      </trkpt>
      <trkpt lat="40.82128" lon="-3.830146">
        <ele>1973.3</ele>
        <time>2018-04-21T06:13:18.000Z</time>
      </trkpt>
      <trkpt lat="40.821279" lon="-3.830145">
        <ele>1973.3</ele>
        <time>2018-04-21T06:13:19.000Z</time>
      </trkpt>
      <trkpt lat="40.821278" lon="-3.830145">
        <ele>1973.3</ele>
        <time>2018-04-21T06:13:20.000Z</time>
      </trkpt>
      <trkpt lat="40.821277" lon="-3.830144">
        <ele>1973.4</ele>
        <time>2018-04-21T06:13:21.000Z</time>
      </trkpt>
      <trkpt lat="40.821276" lon="-3.830143">
        <ele>1973.4</ele>
        <time>2018-04-21T06:13:22.000Z</time>
      </trkpt>
      <trkpt lat="40.821274" lon="-3.830143">
        <ele>1973.5</ele>
        <time>2018-04-21T06:13:23.000Z</time>
      </trkpt>
      <trkpt lat="40.821273" lon="-3.830142">
        <ele>1973.5</ele>
        <time>2018-04-21T06:13:24.000Z</time>
      </trkpt>
      <trkpt lat="40.821271" lon="-3.830141">
        <ele>1973.6</ele>
        <time>2018-04-21T06:13:25.000Z</time>
      </trkpt>
      <trkpt lat="40.82127" lon="-3.83014">
        <ele>1973.6</ele>
        <time>2018-04-21T06:13:26.000Z</time>
      </trkpt>
      <trkpt lat="40.821268" lon="-3.830139">
        <ele>1973.7</ele>
        <time>2018-04-21T06:13:27.000Z</time>
      </trkpt>
      <trkpt lat="40.821267" lon="-3.830138">
        <ele>1973.7</ele>
        <time>2018-04-21T06:13:28.000Z</time>
      </trkpt>
      <trkpt lat="40.821266" lon="-3.830137">
        <ele>1973.7</ele>
        <time>2018-04-21T06:13:29.000Z</time>
      </trkpt>
      <trkpt lat="40.821265" lon="-3.830137">
        <ele>1973.8</ele>
        <time>2018-04-21T06:13:30.000Z</time>
      </trkpt>
      <trkpt lat="40.821265" lon="-3.830137">
        <ele>1973.8</ele>
        <time>2018-04-21T06:13:31.000Z</time>
      </trkpt>
      <trkpt lat="40.821265" lon="-3.830137">
        <ele>1973.8</ele>
        <time>2018-04-21T06:13:32.000Z</time>
      </trkpt>
      <trkpt lat="40.821262" lon="-3.830137">
        <ele>1973.9</ele>
        <time>2018-04-21T06:13:33.000Z</time>
      </trkpt>
      <trkpt lat="40.821256" lon="-3.830136">
        <ele>1974.1</ele>
        <time>2018-04-21T06:13:34.000Z</time>
      </trkpt>
      <trkpt lat="40.821254" lon="-3.830136">
        <ele>1974.1</ele>
        <time>2018-04-21T06:13:35.000Z</time>
      </trkpt>
      <trkpt lat="40.821254" lon="-3.830136">
        <ele>1974.1</ele>
        <time>2018-04-21T06:13:36.000Z</time>
      </trkpt>
      <trkpt lat="40.821252" lon="-3.830134">
        <ele>1974.2</ele>
        <time>2018-04-21T06:13:37.000Z</time>
      </trkpt>
      <trkpt lat="40.821246" lon="-3.830132">
        <ele>1974.4</ele>
        <time>2018-04-21T06:13:38.000Z</time>
      </trkpt>
      <trkpt lat="40.82124" lon="-3.830128">
        <ele>1974.6</ele>
        <time>2018-04-21T06:13:39.000Z</time>
      </trkpt>
      <trkpt lat="40.821234" lon="-3.830125">
        <ele>1974.8</ele>
        <time>2018-04-21T06:13:40.000Z</time>
      </trkpt>
      <trkpt lat="40.821228" lon="-3.830122">
        <ele>1975.0</ele>
        <time>2018-04-21T06:13:41.000Z</time>
      </trkpt>
      <trkpt lat="40.821224" lon="-3.83012">
        <ele>1975.1</ele>
        <time>2018-04-21T06:13:42.000Z</time>
      </trkpt>
      <trkpt lat="40.821221" lon="-3.830119">
        <ele>1975.2</ele>
        <time>2018-04-21T06:13:43.000Z</time>
      </trkpt>
      <trkpt lat="40.821219" lon="-3.830118">
        <ele>1975.3</ele>
        <time>2018-04-21T06:13:44.000Z</time>
      </trkpt>
      <trkpt lat="40.821217" lon="-3.830117">
        <ele>1975.3</ele>
        <time>2018-04-21T06:13:45.000Z</time>
      </trkpt>
      <trkpt lat="40.821216" lon="-3.830116">
        <ele>1975.4</ele>
        <time>2018-04-21T06:13:46.000Z</time>
      </trkpt>
      <trkpt lat="40.821216" lon="-3.830116">
        <ele>1975.4</ele>
        <time>2018-04-21T06:13:47.000Z</time>
      </trkpt>
      <trkpt lat="40.821216" lon="-3.830116">
        <ele>1975.4</ele>
        <time>2018-04-21T06:13:48.000Z</time>
      </trkpt>
      <trkpt lat="40.821216" lon="-3.830116">
        <ele>1975.4</ele>
        <time>2018-04-21T06:13:49.000Z</time>
      </trkpt>
      <trkpt lat="40.821216" lon="-3.830116">
        <ele>1975.4</ele>
        <time>2018-04-21T06:13:50.000Z</time>
      </trkpt>
      <trkpt lat="40.821216" lon="-3.830116">
        <ele>1975.4</ele>
        <time>2018-04-21T06:13:51.000Z</time>
      </trkpt>
      <trkpt lat="40.821216" lon="-3.830116">
        <ele>1975.4</ele>
        <time>2018-04-21T06:13:52.000Z</time>
      </trkpt>
      <trkpt lat="40.821216" lon="-3.830116">
        <ele>1975.4</ele>
        <time>2018-04-21T06:13:53.000Z</time>
      </trkpt>
      <trkpt lat="40.821216" lon="-3.830116">
        <ele>1975.4</ele>
        <time>2018-04-21T06:13:54.000Z</time>
      </trkpt>
      <trkpt lat="40.821216" lon="-3.830116">
        <ele>1975.4</ele>
        <time>2018-04-21T06:13:55.000Z</time>
      </trkpt>
      <trkpt lat="40.821216" lon="-3.830116">
        <ele>1975.4</ele>
        <time>2018-04-21T06:13:56.000Z</time>
      </trkpt>
      <trkpt lat="40.821216" lon="-3.830116">
        <ele>1975.4</ele>
        <time>2018-04-21T06:13:57.000Z</time>
      </trkpt>
      <trkpt lat="40.821216" lon="-3.830116">
        <ele>1975.4</ele>
        <time>2018-04-21T06:13:58.000Z</time>
      </trkpt>
      <trkpt lat="40.821216" lon="-3.830116">
        <ele>1975.4</ele>
        <time>2018-04-21T06:13:59.000Z</time>
      </trkpt>
      <trkpt lat="40.821216" lon="-3.830116">
        <ele>1975.4</ele>
        <time>2018-04-21T06:14:00.000Z</time>
      </trkpt>
      <trkpt lat="40.821216" lon="-3.830116">
        <ele>1975.4</ele>
        <time>2018-04-21T06:14:01.000Z</time>
      </trkpt>
      <trkpt lat="40.821216" lon="-3.830116">
        <ele>1975.4</ele>
        <time>2018-04-21T06:14:02.000Z</time>
      </trkpt>
      <trkpt lat="40.821216" lon="-3.830116">
        <ele>1975.4</ele>
        <time>2018-04-21T06:14:03.000Z</time>
      </trkpt>
      <trkpt lat="40.821216" lon="-3.830116">
        <ele>1975.4</ele>
        <time>2018-04-21T06:14:04.000Z</time>
      </trkpt>
      <trkpt lat="40.821216" lon="-3.830116">
        <ele>1975.4</ele>
        <time>2018-04-21T06:14:05.000Z</time>
      </trkpt>
      <trkpt lat="40.821216" lon="-3.830116">
        <ele>1975.4</ele>
        <time>2018-04-21T06:14:06.000Z</time>
      </trkpt>
      <trkpt lat="40.821216" lon="-3.830116">
        <ele>1975.4</ele>
        <time>2018-04-21T06:14:07.000Z</time>
      </trkpt>
      <trkpt lat="40.821216" lon="-3.830116">
        <ele>1975.4</ele>
        <time>2018-04-21T06:14:08.000Z</time>
      </trkpt>
      <trkpt lat="40.821216" lon="-3.830116">
        <ele>1975.4</ele>
        <time>2018-04-21T06:14:09.000Z</time>
      </trkpt>
      <trkpt lat="40.821216" lon="-3.830116">
        <ele>1975.4</ele>
        <time>2018-04-21T06:14:10.000Z</time>
      </trkpt>
      <trkpt lat="40.821215" lon="-3.830116">
        <ele>1975.4</ele>
        <time>2018-04-21T06:14:11.000Z</time>
      </trkpt>
      <trkpt lat="40.821215" lon="-3.830115">
        <ele>1975.4</ele>
        <time>2018-04-21T06:14:12.000Z</time>
      </trkpt>
      <trkpt lat="40.821215" lon="-3.830115">
        <ele>1975.4</ele>
        <time>2018-04-21T06:14:13.000Z</time>
      </trkpt>
      <trkpt lat="40.821215" lon="-3.830115">
        <ele>1975.4</ele>
        <time>2018-04-21T06:14:14.000Z</time>
      </trkpt>
      <trkpt lat="40.821215" lon="-3.830114">
        <ele>1975.4</ele>
        <time>2018-04-21T06:14:15.000Z</time>
      </trkpt>
      <trkpt lat="40.821215" lon="-3.830114">
        <ele>1975.4</ele>
        <time>2018-04-21T06:14:16.000Z</time>
      </trkpt>
      <trkpt lat="40.821214" lon="-3.830114">
        <ele>1975.4</ele>
        <time>2018-04-21T06:14:17.000Z</time>
      </trkpt>
      <trkpt lat="40.821214" lon="-3.830113">
        <ele>1975.4</ele>
        <time>2018-04-21T06:14:18.000Z</time>
      </trkpt>
      <trkpt lat="40.821213" lon="-3.830112">
        <ele>1975.5</ele>
        <time>2018-04-21T06:14:19.000Z</time>
      </trkpt>
      <trkpt lat="40.821212" lon="-3.83011">
        <ele>1975.5</ele>
        <time>2018-04-21T06:14:20.000Z</time>
      </trkpt>
      <trkpt lat="40.821211" lon="-3.830108">
        <ele>1975.6</ele>
        <time>2018-04-21T06:14:21.000Z</time>
      </trkpt>
      <trkpt lat="40.82121" lon="-3.830106">
        <ele>1975.6</ele>
        <time>2018-04-21T06:14:22.000Z</time>
      </trkpt>
      <trkpt lat="40.821208" lon="-3.830102">
        <ele>1975.7</ele>
        <time>2018-04-21T06:14:23.000Z</time>
      </trkpt>
      <trkpt lat="40.821205" lon="-3.830097">
        <ele>1975.8</ele>
        <time>2018-04-21T06:14:24.000Z</time>
      </trkpt>
      <trkpt lat="40.821202" lon="-3.830092">
        <ele>1975.9</ele>
        <time>2018-04-21T06:14:25.000Z</time>
      </trkpt>
      <trkpt lat="40.821198" lon="-3.830085">
        <ele>1976.0</ele>
        <time>2018-04-21T06:14:26.000Z</time>
      </trkpt>
      <trkpt lat="40.821194" lon="-3.830078">
        <ele>1976.2</ele>
        <time>2018-04-21T06:14:27.000Z</time>
      </trkpt>
      <trkpt lat="40.82119" lon="-3.830071">
        <ele>1976.3</ele>
        <time>2018-04-21T06:14:28.000Z</time>
      </trkpt>
      <trkpt lat="40.821187" lon="-3.830065">
        <ele>1976.4</ele>
        <time>2018-04-21T06:14:29.000Z</time>
      </trkpt>
      <trkpt lat="40.821184" lon="-3.830061">
        <ele>1976.5</ele>
        <time>2018-04-21T06:14:30.000Z</time>
      </trkpt>
      <trkpt lat="40.821183" lon="-3.83006">
        <ele>1976.5</ele>
        <time>2018-04-21T06:14:31.000Z</time>
      </trkpt>
      <trkpt lat="40.821183" lon="-3.83006">
        <ele>1976.5</ele>
        <time>2018-04-21T06:14:32.000Z</time>
      </trkpt>
      <trkpt lat="40.821184" lon="-3.83006">
        <ele>1976.5</ele>
        <time>2018-04-21T06:14:33.000Z</time>
      </trkpt>
      <trkpt lat="40.821184" lon="-3.83006">
        <ele>1976.5</ele>
        <time>2018-04-21T06:14:34.000Z</time>
      </trkpt>
      <trkpt lat="40.821183" lon="-3.830059">
        <ele>1976.5</ele>
        <time>2018-04-21T06:14:35.000Z</time>
      </trkpt>
      <trkpt lat="40.821182" lon="-3.830055">
        <ele>1976.6</ele>
        <time>2018-04-21T06:14:36.000Z</time>
      </trkpt>
      <trkpt lat="40.821181" lon="-3.830051">
        <ele>1976.6</ele>
        <time>2018-04-21T06:14:37.000Z</time>
      </trkpt>
      <trkpt lat="40.821178" lon="-3.830046">
        <ele>1976.7</ele>
        <time>2018-04-21T06:14:38.000Z</time>
      </trkpt>
      <trkpt lat="40.821176" lon="-3.830041">
        <ele>1976.8</ele>
        <time>2018-04-21T06:14:39.000Z</time>
      </trkpt>
      <trkpt lat="40.821174" lon="-3.830035">
        <ele>1976.9</ele>
        <time>2018-04-21T06:14:40.000Z</time>
      </trkpt>
      <trkpt lat="40.821171" lon="-3.830029">
        <ele>1977.0</ele>
        <time>2018-04-21T06:14:41.000Z</time>
      </trkpt>
      <trkpt lat="40.821169" lon="-3.830024">
        <ele>1977.1</ele>
        <time>2018-04-21T06:14:42.000Z</time>
      </trkpt>
      <trkpt lat="40.821167" lon="-3.83002">
        <ele>1977.1</ele>
        <time>2018-04-21T06:14:43.000Z</time>
      </trkpt>
      <trkpt lat="40.821166" lon="-3.830016">
        <ele>1977.2</ele>
        <time>2018-04-21T06:14:44.000Z</time>
      </trkpt>
      <trkpt lat="40.821165" lon="-3.830014">
        <ele>1977.2</ele>
        <time>2018-04-21T06:14:45.000Z</time>
      </trkpt>
      <trkpt lat="40.821164" lon="-3.830012">
        <ele>1977.3</ele>
        <time>2018-04-21T06:14:46.000Z</time>
      </trkpt>
      <trkpt lat="40.821164" lon="-3.830011">
        <ele>1977.3</ele>
        <time>2018-04-21T06:14:47.000Z</time>
      </trkpt>
      <trkpt lat="40.821164" lon="-3.83001">
        <ele>1977.3</ele>
        <time>2018-04-21T06:14:48.000Z</time>
      </trkpt>
      <trkpt lat="40.821164" lon="-3.83001">
        <ele>1977.3</ele>
        <time>2018-04-21T06:14:49.000Z</time>
      </trkpt>
      <trkpt lat="40.821164" lon="-3.830011">
        <ele>1977.3</ele>
        <time>2018-04-21T06:14:50.000Z</time>
      </trkpt>
      <trkpt lat="40.821165" lon="-3.830012">
        <ele>1977.2</ele>
        <time>2018-04-21T06:14:51.000Z</time>
      </trkpt>
      <trkpt lat="40.821165" lon="-3.830012">
        <ele>1977.2</ele>
        <time>2018-04-21T06:14:52.000Z</time>
      </trkpt>
      <trkpt lat="40.821165" lon="-3.830013">
        <ele>1977.2</ele>
        <time>2018-04-21T06:14:53.000Z</time>
      </trkpt>
      <trkpt lat="40.821166" lon="-3.830014">
        <ele>1977.2</ele>
        <time>2018-04-21T06:14:54.000Z</time>
      </trkpt>
      <trkpt lat="40.821165" lon="-3.830013">
        <ele>1977.2</ele>
        <time>2018-04-21T06:14:55.000Z</time>
      </trkpt>
      <trkpt lat="40.821164" lon="-3.830012">
        <ele>1977.3</ele>
        <time>2018-04-21T06:14:56.000Z</time>
      </trkpt>
      <trkpt lat="40.821162" lon="-3.830008">
        <ele>1977.3</ele>
        <time>2018-04-21T06:14:57.000Z</time>
      </trkpt>
      <trkpt lat="40.821159" lon="-3.830002">
        <ele>1977.4</ele>
        <time>2018-04-21T06:14:58.000Z</time>
      </trkpt>
      <trkpt lat="40.821156" lon="-3.829995">
        <ele>1977.4</ele>
        <time>2018-04-21T06:14:59.000Z</time>
      </trkpt>
      <trkpt lat="40.821152" lon="-3.829988">
        <ele>1977.4</ele>
        <time>2018-04-21T06:15:00.000Z</time>
      </trkpt>
      <trkpt lat="40.821148" lon="-3.829983">
        <ele>1977.4</ele>
        <time>2018-04-21T06:15:01.000Z</time>
      </trkpt>
      <trkpt lat="40.821144" lon="-3.829979">
        <ele>1977.4</ele>
        <time>2018-04-21T06:15:02.000Z</time>
      </trkpt>
      <trkpt lat="40.821142" lon="-3.829978">
        <ele>1977.4</ele>
        <time>2018-04-21T06:15:03.000Z</time>
      </trkpt>
      <trkpt lat="40.82114" lon="-3.829978">
        <ele>1977.5</ele>
        <time>2018-04-21T06:15:04.000Z</time>
      </trkpt>
      <trkpt lat="40.821138" lon="-3.829978">
        <ele>1977.6</ele>
        <time>2018-04-21T06:15:05.000Z</time>
      </trkpt>
      <trkpt lat="40.821137" lon="-3.829979">
        <ele>1977.6</ele>
        <time>2018-04-21T06:15:06.000Z</time>
      </trkpt>
      <trkpt lat="40.821137" lon="-3.829979">
        <ele>1977.6</ele>
        <time>2018-04-21T06:15:07.000Z</time>
      </trkpt>
      <trkpt lat="40.821138" lon="-3.829979">
        <ele>1977.6</ele>
        <time>2018-04-21T06:15:08.000Z</time>
      </trkpt>
      <trkpt lat="40.821138" lon="-3.829979">
        <ele>1977.6</ele>
        <time>2018-04-21T06:15:09.000Z</time>
      </trkpt>
      <trkpt lat="40.821138" lon="-3.829979">
        <ele>1977.6</ele>
        <time>2018-04-21T06:15:10.000Z</time>
      </trkpt>
      <trkpt lat="40.821138" lon="-3.829979">
        <ele>1977.6</ele>
        <time>2018-04-21T06:15:11.000Z</time>
      </trkpt>
      <trkpt lat="40.821137" lon="-3.829979">
        <ele>1977.6</ele>
        <time>2018-04-21T06:15:12.000Z</time>
      </trkpt>
      <trkpt lat="40.821135" lon="-3.829979">
        <ele>1977.7</ele>
        <time>2018-04-21T06:15:13.000Z</time>
      </trkpt>
      <trkpt lat="40.821133" lon="-3.82998">
        <ele>1977.8</ele>
        <time>2018-04-21T06:15:14.000Z</time>
      </trkpt>
      <trkpt lat="40.821131" lon="-3.82998">
        <ele>1977.8</ele>
        <time>2018-04-21T06:15:15.000Z</time>
      </trkpt>
      <trkpt lat="40.821128" lon="-3.829981">
        <ele>1978.0</ele>
        <time>2018-04-21T06:15:16.000Z</time>
      </trkpt>
      <trkpt lat="40.821125" lon="-3.829982">
        <ele>1978.1</ele>
        <time>2018-04-21T06:15:17.000Z</time>
      </trkpt>
      <trkpt lat="40.821121" lon="-3.829983">
        <ele>1978.2</ele>
        <time>2018-04-21T06:15:18.000Z</time>
      </trkpt>
      <trkpt lat="40.821118" lon="-3.829984">
        <ele>1978.4</ele>
        <time>2018-04-21T06:15:19.000Z</time>
      </trkpt>
      <trkpt lat="40.821114" lon="-3.829986">
        <ele>1978.5</ele>
        <time>2018-04-21T06:15:20.000Z</time>
      </trkpt>
      <trkpt lat="40.821111" lon="-3.829987">
        <ele>1978.7</ele>
        <time>2018-04-21T06:15:21.000Z</time>
      </trkpt>
      <trkpt lat="40.821107" lon="-3.829989">
        <ele>1978.9</ele>
        <time>2018-04-21T06:15:22.000Z</time>
      </trkpt>
      <trkpt lat="40.821103" lon="-3.82999">
        <ele>1979.0</ele>
        <time>2018-04-21T06:15:23.000Z</time>
      </trkpt>
      <trkpt lat="40.8211" lon="-3.829991">
        <ele>1979.1</ele>
        <time>2018-04-21T06:15:24.000Z</time>
      </trkpt>
      <trkpt lat="40.821097" lon="-3.829993">
        <ele>1979.3</ele>
        <time>2018-04-21T06:15:25.000Z</time>
      </trkpt>
      <trkpt lat="40.821094" lon="-3.829994">
        <ele>1979.4</ele>
        <time>2018-04-21T06:15:26.000Z</time>
      </trkpt>
      <trkpt lat="40.821092" lon="-3.829995">
        <ele>1979.5</ele>
        <time>2018-04-21T06:15:27.000Z</time>
      </trkpt>
      <trkpt lat="40.82109" lon="-3.829996">
        <ele>1979.6</ele>
        <time>2018-04-21T06:15:28.000Z</time>
      </trkpt>
      <trkpt lat="40.821088" lon="-3.829996">
        <ele>1979.6</ele>
        <time>2018-04-21T06:15:29.000Z</time>
      </trkpt>
      <trkpt lat="40.821087" lon="-3.829996">
        <ele>1979.7</ele>
        <time>2018-04-21T06:15:30.000Z</time>
      </trkpt>
      <trkpt lat="40.821086" lon="-3.829997">
        <ele>1979.7</ele>
        <time>2018-04-21T06:15:31.000Z</time>
      </trkpt>
      <trkpt lat="40.821084" lon="-3.829997">
        <ele>1979.8</ele>
        <time>2018-04-21T06:15:32.000Z</time>
      </trkpt>
      <trkpt lat="40.821081" lon="-3.829999">
        <ele>1980.0</ele>
        <time>2018-04-21T06:15:33.000Z</time>
      </trkpt>
      <trkpt lat="40.821077" lon="-3.830001">
        <ele>1980.1</ele>
        <time>2018-04-21T06:15:34.000Z</time>
      </trkpt>
      <trkpt lat="40.821073" lon="-3.830003">
        <ele>1980.2</ele>
        <time>2018-04-21T06:15:35.000Z</time>
      </trkpt>
      <trkpt lat="40.821067" lon="-3.830006">
        <ele>1980.4</ele>
        <time>2018-04-21T06:15:36.000Z</time>
      </trkpt>
      <trkpt lat="40.821062" lon="-3.83001">
        <ele>1980.6</ele>
        <time>2018-04-21T06:15:37.000Z</time>
      </trkpt>
      <trkpt lat="40.821057" lon="-3.830014">
        <ele>1980.7</ele>
        <time>2018-04-21T06:15:38.000Z</time>
      </trkpt>
      <trkpt lat="40.821051" lon="-3.830018">
        <ele>1980.9</ele>
        <time>2018-04-21T06:15:39.000Z</time>
      </trkpt>
      <trkpt lat="40.821046" lon="-3.830022">
        <ele>1981.1</ele>
        <time>2018-04-21T06:15:40.000Z</time>
      </trkpt>
      <trkpt lat="40.821041" lon="-3.830026">
        <ele>1981.2</ele>
        <time>2018-04-21T06:15:41.000Z</time>
      </trkpt>
      <trkpt lat="40.821036" lon="-3.830031">
        <ele>1981.3</ele>
        <time>2018-04-21T06:15:42.000Z</time>
      </trkpt>
      <trkpt lat="40.82103" lon="-3.830034">
        <ele>1981.5</ele>
        <time>2018-04-21T06:15:43.000Z</time>
      </trkpt>
      <trkpt lat="40.821024" lon="-3.830038">
        <ele>1981.7</ele>
        <time>2018-04-21T06:15:44.000Z</time>
      </trkpt>
      <trkpt lat="40.821018" lon="-3.830041">
        <ele>1981.9</ele>
        <time>2018-04-21T06:15:45.000Z</time>
      </trkpt>
      <trkpt lat="40.821012" lon="-3.830044">
        <ele>1982.1</ele>
        <time>2018-04-21T06:15:46.000Z</time>
      </trkpt>
      <trkpt lat="40.821005" lon="-3.830046">
        <ele>1982.3</ele>
        <time>2018-04-21T06:15:47.000Z</time>
      </trkpt>
      <trkpt lat="40.820998" lon="-3.830048">
        <ele>1982.5</ele>
        <time>2018-04-21T06:15:48.000Z</time>
      </trkpt>
      <trkpt lat="40.820991" lon="-3.830049">
        <ele>1982.7</ele>
        <time>2018-04-21T06:15:49.000Z</time>
      </trkpt>
      <trkpt lat="40.820984" lon="-3.83005">
        <ele>1983.0</ele>
        <time>2018-04-21T06:15:50.000Z</time>
      </trkpt>
      <trkpt lat="40.820977" lon="-3.830051">
        <ele>1983.2</ele>
        <time>2018-04-21T06:15:51.000Z</time>
      </trkpt>
      <trkpt lat="40.82097" lon="-3.830053">
        <ele>1983.4</ele>
        <time>2018-04-21T06:15:52.000Z</time>
      </trkpt>
      <trkpt lat="40.820964" lon="-3.830055">
        <ele>1983.6</ele>
        <time>2018-04-21T06:15:53.000Z</time>
      </trkpt>
      <trkpt lat="40.820958" lon="-3.830057">
        <ele>1983.8</ele>
        <time>2018-04-21T06:15:54.000Z</time>
      </trkpt>
      <trkpt lat="40.820954" lon="-3.83006">
        <ele>1983.9</ele>
        <time>2018-04-21T06:15:55.000Z</time>
      </trkpt>
      <trkpt lat="40.820951" lon="-3.830063">
        <ele>1984.0</ele>
        <time>2018-04-21T06:15:56.000Z</time>
      </trkpt>
      <trkpt lat="40.820949" lon="-3.830066">
        <ele>1984.0</ele>
        <time>2018-04-21T06:15:57.000Z</time>
      </trkpt>
      <trkpt lat="40.820948" lon="-3.83007">
        <ele>1984.1</ele>
        <time>2018-04-21T06:15:58.000Z</time>
      </trkpt>
      <trkpt lat="40.820948" lon="-3.830073">
        <ele>1984.1</ele>
        <time>2018-04-21T06:15:59.000Z</time>
      </trkpt>
      <trkpt lat="40.820948" lon="-3.830074">
        <ele>1984.1</ele>
        <time>2018-04-21T06:16:00.000Z</time>
      </trkpt>
      <trkpt lat="40.820949" lon="-3.830075">
        <ele>1984.0</ele>
        <time>2018-04-21T06:16:01.000Z</time>
      </trkpt>
      <trkpt lat="40.82095" lon="-3.830075">
        <ele>1984.0</ele>
        <time>2018-04-21T06:16:02.000Z</time>
      </trkpt>
      <trkpt lat="40.82095" lon="-3.830074">
        <ele>1984.0</ele>
        <time>2018-04-21T06:16:03.000Z</time>
      </trkpt>
      <trkpt lat="40.82095" lon="-3.830074">
        <ele>1984.0</ele>
        <time>2018-04-21T06:16:04.000Z</time>
      </trkpt>
      <trkpt lat="40.820947" lon="-3.830075">
        <ele>1984.1</ele>
        <time>2018-04-21T06:16:05.000Z</time>
      </trkpt>
      <trkpt lat="40.820943" lon="-3.830077">
        <ele>1984.2</ele>
        <time>2018-04-21T06:16:06.000Z</time>
      </trkpt>
      <trkpt lat="40.820938" lon="-3.83008">
        <ele>1984.4</ele>
        <time>2018-04-21T06:16:07.000Z</time>
      </trkpt>
      <trkpt lat="40.820932" lon="-3.830083">
        <ele>1984.5</ele>
        <time>2018-04-21T06:16:08.000Z</time>
      </trkpt>
      <trkpt lat="40.820925" lon="-3.830086">
        <ele>1984.8</ele>
        <time>2018-04-21T06:16:09.000Z</time>
      </trkpt>
      <trkpt lat="40.820919" lon="-3.830089">
        <ele>1984.9</ele>
        <time>2018-04-21T06:16:10.000Z</time>
      </trkpt>
      <trkpt lat="40.820912" lon="-3.830092">
        <ele>1985.2</ele>
        <time>2018-04-21T06:16:11.000Z</time>
      </trkpt>
      <trkpt lat="40.820906" lon="-3.830095">
        <ele>1985.3</ele>
        <time>2018-04-21T06:16:12.000Z</time>
      </trkpt>
      <trkpt lat="40.820901" lon="-3.830097">
        <ele>1985.5</ele>
        <time>2018-04-21T06:16:13.000Z</time>
      </trkpt>
      <trkpt lat="40.820897" lon="-3.830099">
        <ele>1985.6</ele>
        <time>2018-04-21T06:16:14.000Z</time>
      </trkpt>
      <trkpt lat="40.820893" lon="-3.830099">
        <ele>1985.7</ele>
        <time>2018-04-21T06:16:15.000Z</time>
      </trkpt>
      <trkpt lat="40.820891" lon="-3.8301">
        <ele>1985.8</ele>
        <time>2018-04-21T06:16:16.000Z</time>
      </trkpt>
      <trkpt lat="40.820889" lon="-3.8301">
        <ele>1985.9</ele>
        <time>2018-04-21T06:16:17.000Z</time>
      </trkpt>
      <trkpt lat="40.820888" lon="-3.8301">
        <ele>1985.9</ele>
        <time>2018-04-21T06:16:18.000Z</time>
      </trkpt>
      <trkpt lat="40.820887" lon="-3.830101">
        <ele>1985.9</ele>
        <time>2018-04-21T06:16:19.000Z</time>
      </trkpt>
      <trkpt lat="40.820886" lon="-3.830101">
        <ele>1986.0</ele>
        <time>2018-04-21T06:16:20.000Z</time>
      </trkpt>
      <trkpt lat="40.820885" lon="-3.830103">
        <ele>1986.0</ele>
        <time>2018-04-21T06:16:21.000Z</time>
      </trkpt>
      <trkpt lat="40.820883" lon="-3.830105">
        <ele>1986.0</ele>
        <time>2018-04-21T06:16:22.000Z</time>
      </trkpt>
      <trkpt lat="40.820881" lon="-3.830108">
        <ele>1986.1</ele>
        <time>2018-04-21T06:16:23.000Z</time>
      </trkpt>
      <trkpt lat="40.820879" lon="-3.830112">
        <ele>1986.1</ele>
        <time>2018-04-21T06:16:24.000Z</time>
      </trkpt>
      <trkpt lat="40.820877" lon="-3.830117">
        <ele>1986.2</ele>
        <time>2018-04-21T06:16:25.000Z</time>
      </trkpt>
      <trkpt lat="40.820874" lon="-3.830123">
        <ele>1986.3</ele>
        <time>2018-04-21T06:16:26.000Z</time>
      </trkpt>
      <trkpt lat="40.820872" lon="-3.830128">
        <ele>1986.3</ele>
        <time>2018-04-21T06:16:27.000Z</time>
      </trkpt>
      <trkpt lat="40.820869" lon="-3.830134">
        <ele>1986.4</ele>
        <time>2018-04-21T06:16:28.000Z</time>
      </trkpt>
      <trkpt lat="40.820867" lon="-3.83014">
        <ele>1986.4</ele>
        <time>2018-04-21T06:16:29.000Z</time>
      </trkpt>
      <trkpt lat="40.820864" lon="-3.830146">
        <ele>1986.5</ele>
        <time>2018-04-21T06:16:30.000Z</time>
      </trkpt>
      <trkpt lat="40.820862" lon="-3.830151">
        <ele>1986.5</ele>
        <time>2018-04-21T06:16:31.000Z</time>
      </trkpt>
      <trkpt lat="40.820861" lon="-3.830156">
        <ele>1986.6</ele>
        <time>2018-04-21T06:16:32.000Z</time>
      </trkpt>
      <trkpt lat="40.820859" lon="-3.830161">
        <ele>1986.6</ele>
        <time>2018-04-21T06:16:33.000Z</time>
      </trkpt>
      <trkpt lat="40.820858" lon="-3.830165">
        <ele>1986.6</ele>
        <time>2018-04-21T06:16:34.000Z</time>
      </trkpt>
      <trkpt lat="40.820856" lon="-3.830169">
        <ele>1986.7</ele>
        <time>2018-04-21T06:16:35.000Z</time>
      </trkpt>
      <trkpt lat="40.820854" lon="-3.830172">
        <ele>1986.7</ele>
        <time>2018-04-21T06:16:36.000Z</time>
      </trkpt>
      <trkpt lat="40.820852" lon="-3.830175">
        <ele>1986.8</ele>
        <time>2018-04-21T06:16:37.000Z</time>
      </trkpt>
      <trkpt lat="40.820849" lon="-3.830178">
        <ele>1986.9</ele>
        <time>2018-04-21T06:16:38.000Z</time>
      </trkpt>
      <trkpt lat="40.820844" lon="-3.830181">
        <ele>1987.0</ele>
        <time>2018-04-21T06:16:39.000Z</time>
      </trkpt>
      <trkpt lat="40.820839" lon="-3.830183">
        <ele>1987.2</ele>
        <time>2018-04-21T06:16:40.000Z</time>
      </trkpt>
      <trkpt lat="40.820832" lon="-3.830185">
        <ele>1987.4</ele>
        <time>2018-04-21T06:16:41.000Z</time>
      </trkpt>
      <trkpt lat="40.820825" lon="-3.830187">
        <ele>1987.5</ele>
        <time>2018-04-21T06:16:42.000Z</time>
      </trkpt>
      <trkpt lat="40.820818" lon="-3.83019">
        <ele>1987.6</ele>
        <time>2018-04-21T06:16:43.000Z</time>
      </trkpt>
      <trkpt lat="40.820812" lon="-3.830192">
        <ele>1987.8</ele>
        <time>2018-04-21T06:16:44.000Z</time>
      </trkpt>
      <trkpt lat="40.820808" lon="-3.830195">
        <ele>1987.8</ele>
        <time>2018-04-21T06:16:45.000Z</time>
      </trkpt>
      <trkpt lat="40.820806" lon="-3.830198">
        <ele>1987.9</ele>
        <time>2018-04-21T06:16:46.000Z</time>
      </trkpt>
      <trkpt lat="40.820806" lon="-3.830201">
        <ele>1987.9</ele>
        <time>2018-04-21T06:16:47.000Z</time>
      </trkpt>
      <trkpt lat="40.820808" lon="-3.830203">
        <ele>1987.8</ele>
        <time>2018-04-21T06:16:48.000Z</time>
      </trkpt>
      <trkpt lat="40.820811" lon="-3.830206">
        <ele>1987.7</ele>
        <time>2018-04-21T06:16:49.000Z</time>
      </trkpt>
      <trkpt lat="40.820814" lon="-3.830207">
        <ele>1987.7</ele>
        <time>2018-04-21T06:16:50.000Z</time>
      </trkpt>
      <trkpt lat="40.820816" lon="-3.830207">
        <ele>1987.6</ele>
        <time>2018-04-21T06:16:51.000Z</time>
      </trkpt>
      <trkpt lat="40.820818" lon="-3.830207">
        <ele>1987.6</ele>
        <time>2018-04-21T06:16:52.000Z</time>
      </trkpt>
      <trkpt lat="40.820818" lon="-3.830206">
        <ele>1987.6</ele>
        <time>2018-04-21T06:16:53.000Z</time>
      </trkpt>
      <trkpt lat="40.820817" lon="-3.830205">
        <ele>1987.6</ele>
        <time>2018-04-21T06:16:54.000Z</time>
      </trkpt>
      <trkpt lat="40.820812" lon="-3.830203">
        <ele>1987.7</ele>
        <time>2018-04-21T06:16:55.000Z</time>
      </trkpt>
      <trkpt lat="40.820806" lon="-3.830202">
        <ele>1987.8</ele>
        <time>2018-04-21T06:16:56.000Z</time>
      </trkpt>
      <trkpt lat="40.8208" lon="-3.8302">
        <ele>1988.0</ele>
        <time>2018-04-21T06:16:57.000Z</time>
      </trkpt>
      <trkpt lat="40.820793" lon="-3.8302">
        <ele>1988.1</ele>
        <time>2018-04-21T06:16:58.000Z</time>
      </trkpt>
      <trkpt lat="40.820788" lon="-3.8302">
        <ele>1988.2</ele>
        <time>2018-04-21T06:16:59.000Z</time>
      </trkpt>
      <trkpt lat="40.820783" lon="-3.830201">
        <ele>1988.3</ele>
        <time>2018-04-21T06:17:00.000Z</time>
      </trkpt>
      <trkpt lat="40.82078" lon="-3.830202">
        <ele>1988.4</ele>
        <time>2018-04-21T06:17:01.000Z</time>
      </trkpt>
      <trkpt lat="40.820777" lon="-3.830204">
        <ele>1988.5</ele>
        <time>2018-04-21T06:17:02.000Z</time>
      </trkpt>
      <trkpt lat="40.820775" lon="-3.830207">
        <ele>1988.5</ele>
        <time>2018-04-21T06:17:03.000Z</time>
      </trkpt>
      <trkpt lat="40.820773" lon="-3.830209">
        <ele>1988.5</ele>
        <time>2018-04-21T06:17:04.000Z</time>
      </trkpt>
      <trkpt lat="40.820771" lon="-3.830212">
        <ele>1988.5</ele>
        <time>2018-04-21T06:17:05.000Z</time>
      </trkpt>
      <trkpt lat="40.82077" lon="-3.830215">
        <ele>1988.5</ele>
        <time>2018-04-21T06:17:06.000Z</time>
      </trkpt>
      <trkpt lat="40.820768" lon="-3.830219">
        <ele>1988.6</ele>
        <time>2018-04-21T06:17:07.000Z</time>
      </trkpt>
      <trkpt lat="40.820765" lon="-3.830222">
        <ele>1988.6</ele>
        <time>2018-04-21T06:17:08.000Z</time>
      </trkpt>
      <trkpt lat="40.820762" lon="-3.830225">
        <ele>1988.7</ele>
        <time>2018-04-21T06:17:09.000Z</time>
      </trkpt>
      <trkpt lat="40.820759" lon="-3.830228">
        <ele>1988.7</ele>
        <time>2018-04-21T06:17:10.000Z</time>
      </trkpt>
      <trkpt lat="40.820756" lon="-3.830231">
        <ele>1988.8</ele>
        <time>2018-04-21T06:17:11.000Z</time>
      </trkpt>
      <trkpt lat="40.820752" lon="-3.830234">
        <ele>1988.8</ele>
        <time>2018-04-21T06:17:12.000Z</time>
      </trkpt>
      <trkpt lat="40.820748" lon="-3.830238">
        <ele>1988.9</ele>
        <time>2018-04-21T06:17:13.000Z</time>
      </trkpt>
      <trkpt lat="40.820744" lon="-3.830242">
        <ele>1989.0</ele>
        <time>2018-04-21T06:17:14.000Z</time>
      </trkpt>
      <trkpt lat="40.82074" lon="-3.830247">
        <ele>1989.0</ele>
        <time>2018-04-21T06:17:15.000Z</time>
      </trkpt>
      <trkpt lat="40.820736" lon="-3.830252">
        <ele>1989.1</ele>
        <time>2018-04-21T06:17:16.000Z</time>
      </trkpt>
      <trkpt lat="40.820732" lon="-3.830259">
        <ele>1989.1</ele>
        <time>2018-04-21T06:17:17.000Z</time>
      </trkpt>
      <trkpt lat="40.820729" lon="-3.830266">
        <ele>1989.1</ele>
        <time>2018-04-21T06:17:18.000Z</time>
      </trkpt>
      <trkpt lat="40.820726" lon="-3.830275">
        <ele>1989.2</ele>
        <time>2018-04-21T06:17:19.000Z</time>
      </trkpt>
      <trkpt lat="40.820724" lon="-3.830283">
        <ele>1989.2</ele>
        <time>2018-04-21T06:17:20.000Z</time>
      </trkpt>
      <trkpt lat="40.820721" lon="-3.830292">
        <ele>1989.2</ele>
        <time>2018-04-21T06:17:21.000Z</time>
      </trkpt>
      <trkpt lat="40.820719" lon="-3.8303">
        <ele>1989.2</ele>
        <time>2018-04-21T06:17:22.000Z</time>
      </trkpt>
      <trkpt lat="40.820718" lon="-3.830307">
        <ele>1989.2</ele>
        <time>2018-04-21T06:17:23.000Z</time>
      </trkpt>
      <trkpt lat="40.820716" lon="-3.830313">
        <ele>1989.2</ele>
        <time>2018-04-21T06:17:24.000Z</time>
      </trkpt>
      <trkpt lat="40.820715" lon="-3.830318">
        <ele>1989.2</ele>
        <time>2018-04-21T06:17:25.000Z</time>
      </trkpt>
      <trkpt lat="40.820714" lon="-3.830321">
        <ele>1989.2</ele>
        <time>2018-04-21T06:17:26.000Z</time>
      </trkpt>
      <trkpt lat="40.820713" lon="-3.830322">
        <ele>1989.2</ele>
        <time>2018-04-21T06:17:27.000Z</time>
      </trkpt>
      <trkpt lat="40.820712" lon="-3.830322">
        <ele>1989.2</ele>
        <time>2018-04-21T06:17:28.000Z</time>
      </trkpt>
      <trkpt lat="40.820711" lon="-3.830323">
        <ele>1989.2</ele>
        <time>2018-04-21T06:17:29.000Z</time>
      </trkpt>
      <trkpt lat="40.820709" lon="-3.830325">
        <ele>1989.2</ele>
        <time>2018-04-21T06:17:30.000Z</time>
      </trkpt>
      <trkpt lat="40.820707" lon="-3.830331">
        <ele>1989.2</ele>
        <time>2018-04-21T06:17:31.000Z</time>
      </trkpt>
      <trkpt lat="40.820704" lon="-3.830341">
        <ele>1989.2</ele>
        <time>2018-04-21T06:17:32.000Z</time>
      </trkpt>
      <trkpt lat="40.820699" lon="-3.830354">
        <ele>1989.3</ele>
        <time>2018-04-21T06:17:33.000Z</time>
      </trkpt>
      <trkpt lat="40.820694" lon="-3.830367">
        <ele>1989.3</ele>
        <time>2018-04-21T06:17:34.000Z</time>
      </trkpt>
      <trkpt lat="40.820688" lon="-3.830378">
        <ele>1989.3</ele>
        <time>2018-04-21T06:17:35.000Z</time>
      </trkpt>
      <trkpt lat="40.820682" lon="-3.830386">
        <ele>1989.4</ele>
        <time>2018-04-21T06:17:36.000Z</time>
      </trkpt>
      <trkpt lat="40.820675" lon="-3.830392">
        <ele>1989.5</ele>
        <time>2018-04-21T06:17:37.000Z</time>
      </trkpt>
      <trkpt lat="40.820667" lon="-3.830396">
        <ele>1989.6</ele>
        <time>2018-04-21T06:17:38.000Z</time>
      </trkpt>
      <trkpt lat="40.820659" lon="-3.830399">
        <ele>1989.7</ele>
        <time>2018-04-21T06:17:39.000Z</time>
      </trkpt>
      <trkpt lat="40.820651" lon="-3.830405">
        <ele>1989.9</ele>
        <time>2018-04-21T06:17:40.000Z</time>
      </trkpt>
      <trkpt lat="40.820643" lon="-3.830412">
        <ele>1990.0</ele>
        <time>2018-04-21T06:17:41.000Z</time>
      </trkpt>
      <trkpt lat="40.820635" lon="-3.830421">
        <ele>1990.0</ele>
        <time>2018-04-21T06:17:42.000Z</time>
      </trkpt>
      <trkpt lat="40.820627" lon="-3.830431">
        <ele>1990.1</ele>
        <time>2018-04-21T06:17:43.000Z</time>
      </trkpt>
      <trkpt lat="40.82062" lon="-3.830441">
        <ele>1990.2</ele>
        <time>2018-04-21T06:17:44.000Z</time>
      </trkpt>
      <trkpt lat="40.820615" lon="-3.830451">
        <ele>1990.2</ele>
        <time>2018-04-21T06:17:45.000Z</time>
      </trkpt>
      <trkpt lat="40.82061" lon="-3.830461">
        <ele>1990.2</ele>
        <time>2018-04-21T06:17:46.000Z</time>
      </trkpt>
      <trkpt lat="40.820605" lon="-3.830469">
        <ele>1990.2</ele>
        <time>2018-04-21T06:17:47.000Z</time>
      </trkpt>
      <trkpt lat="40.8206" lon="-3.830477">
        <ele>1990.3</ele>
        <time>2018-04-21T06:17:48.000Z</time>
      </trkpt>
      <trkpt lat="40.820594" lon="-3.830484">
        <ele>1990.3</ele>
        <time>2018-04-21T06:17:49.000Z</time>
      </trkpt>
      <trkpt lat="40.820587" lon="-3.83049">
        <ele>1990.4</ele>
        <time>2018-04-21T06:17:50.000Z</time>
      </trkpt>
      <trkpt lat="40.820579" lon="-3.830495">
        <ele>1990.5</ele>
        <time>2018-04-21T06:17:51.000Z</time>
      </trkpt>
      <trkpt lat="40.82057" lon="-3.8305">
        <ele>1990.6</ele>
        <time>2018-04-21T06:17:52.000Z</time>
      </trkpt>
      <trkpt lat="40.820562" lon="-3.830506">
        <ele>1990.7</ele>
        <time>2018-04-21T06:17:53.000Z</time>
      </trkpt>
      <trkpt lat="40.820554" lon="-3.830513">
        <ele>1990.8</ele>
        <time>2018-04-21T06:17:54.000Z</time>
      </trkpt>
      <trkpt lat="40.820548" lon="-3.83052">
        <ele>1990.8</ele>
        <time>2018-04-21T06:17:55.000Z</time>
      </trkpt>
      <trkpt lat="40.820544" lon="-3.830527">
        <ele>1990.9</ele>
        <time>2018-04-21T06:17:56.000Z</time>
      </trkpt>
      <trkpt lat="40.820543" lon="-3.830532">
        <ele>1990.8</ele>
        <time>2018-04-21T06:17:57.000Z</time>
      </trkpt>
      <trkpt lat="40.820544" lon="-3.830536">
        <ele>1990.8</ele>
        <time>2018-04-21T06:21:45.000Z</time>
      </trkpt>
      <trkpt lat="40.820548" lon="-3.83054">
        <ele>1990.7</ele>
        <time>2018-04-21T06:21:46.000Z</time>
      </trkpt>
      <trkpt lat="40.820552" lon="-3.830541">
        <ele>1990.6</ele>
        <time>2018-04-21T06:21:47.000Z</time>
      </trkpt>
      <trkpt lat="40.820551" lon="-3.830537">
        <ele>1990.7</ele>
        <time>2018-04-21T06:21:48.000Z</time>
      </trkpt>
      <trkpt lat="40.820547" lon="-3.830533">
        <ele>1990.8</ele>
        <time>2018-04-21T06:21:49.000Z</time>
      </trkpt>
      <trkpt lat="40.820544" lon="-3.830528">
        <ele>1990.8</ele>
        <time>2018-04-21T06:21:50.000Z</time>
      </trkpt>
      <trkpt lat="40.820542" lon="-3.830525">
        <ele>1990.9</ele>
        <time>2018-04-21T06:21:51.000Z</time>
      </trkpt>
      <trkpt lat="40.82054" lon="-3.830523">
        <ele>1990.9</ele>
        <time>2018-04-21T06:21:52.000Z</time>
      </trkpt>
      <trkpt lat="40.820539" lon="-3.830521">
        <ele>1991.0</ele>
        <time>2018-04-21T06:21:53.000Z</time>
      </trkpt>
      <trkpt lat="40.820538" lon="-3.83052">
        <ele>1991.0</ele>
        <time>2018-04-21T06:21:54.000Z</time>
      </trkpt>
      <trkpt lat="40.820538" lon="-3.830519">
        <ele>1991.0</ele>
        <time>2018-04-21T06:21:55.000Z</time>
      </trkpt>
      <trkpt lat="40.820538" lon="-3.830519">
        <ele>1991.0</ele>
        <time>2018-04-21T06:21:56.000Z</time>
      </trkpt>
      <trkpt lat="40.820538" lon="-3.830519">
        <ele>1991.0</ele>
        <time>2018-04-21T06:21:57.000Z</time>
      </trkpt>
      <trkpt lat="40.820538" lon="-3.830519">
        <ele>1991.0</ele>
        <time>2018-04-21T06:21:58.000Z</time>
      </trkpt>
      <trkpt lat="40.820539" lon="-3.830519">
        <ele>1991.0</ele>
        <time>2018-04-21T06:21:59.000Z</time>
      </trkpt>
      <trkpt lat="40.820539" lon="-3.830519">
        <ele>1991.0</ele>
        <time>2018-04-21T06:22:00.000Z</time>
      </trkpt>
      <trkpt lat="40.820539" lon="-3.830519">
        <ele>1991.0</ele>
        <time>2018-04-21T06:22:01.000Z</time>
      </trkpt>
      <trkpt lat="40.820539" lon="-3.83052">
        <ele>1991.0</ele>
        <time>2018-04-21T06:22:02.000Z</time>
      </trkpt>
      <trkpt lat="40.820539" lon="-3.83052">
        <ele>1991.0</ele>
        <time>2018-04-21T06:22:03.000Z</time>
      </trkpt>
      <trkpt lat="40.820539" lon="-3.83052">
        <ele>1991.0</ele>
        <time>2018-04-21T06:22:04.000Z</time>
      </trkpt>
      <trkpt lat="40.820539" lon="-3.83052">
        <ele>1991.0</ele>
        <time>2018-04-21T06:22:05.000Z</time>
      </trkpt>
      <trkpt lat="40.820539" lon="-3.83052">
        <ele>1991.0</ele>
        <time>2018-04-21T06:22:06.000Z</time>
      </trkpt>
      <trkpt lat="40.820539" lon="-3.83052">
        <ele>1991.0</ele>
        <time>2018-04-21T06:22:07.000Z</time>
      </trkpt>
      <trkpt lat="40.820539" lon="-3.83052">
        <ele>1991.0</ele>
        <time>2018-04-21T06:22:08.000Z</time>
      </trkpt>
      <trkpt lat="40.820539" lon="-3.83052">
        <ele>1991.0</ele>
        <time>2018-04-21T06:22:09.000Z</time>
      </trkpt>
      <trkpt lat="40.820539" lon="-3.83052">
        <ele>1991.0</ele>
        <time>2018-04-21T06:22:10.000Z</time>
      </trkpt>
      <trkpt lat="40.820539" lon="-3.83052">
        <ele>1991.0</ele>
        <time>2018-04-21T06:22:11.000Z</time>
      </trkpt>
      <trkpt lat="40.820539" lon="-3.83052">
        <ele>1991.0</ele>
        <time>2018-04-21T06:22:12.000Z</time>
      </trkpt>
      <trkpt lat="40.820539" lon="-3.83052">
        <ele>1991.0</ele>
        <time>2018-04-21T06:22:13.000Z</time>
      </trkpt>
      <trkpt lat="40.820539" lon="-3.83052">
        <ele>1991.0</ele>
        <time>2018-04-21T06:22:14.000Z</time>
      </trkpt>
      <trkpt lat="40.820539" lon="-3.83052">
        <ele>1991.0</ele>
        <time>2018-04-21T06:22:15.000Z</time>
      </trkpt>
      <trkpt lat="40.820539" lon="-3.83052">
        <ele>1991.0</ele>
        <time>2018-04-21T06:22:16.000Z</time>
      </trkpt>
      <trkpt lat="40.820539" lon="-3.83052">
        <ele>1991.0</ele>
        <time>2018-04-21T06:22:17.000Z</time>
      </trkpt>
      <trkpt lat="40.820539" lon="-3.83052">
        <ele>1991.0</ele>
        <time>2018-04-21T06:22:18.000Z</time>
      </trkpt>
      <trkpt lat="40.820539" lon="-3.83052">
        <ele>1991.0</ele>
        <time>2018-04-21T06:22:19.000Z</time>
      </trkpt>
      <trkpt lat="40.820539" lon="-3.83052">
        <ele>1991.0</ele>
        <time>2018-04-21T06:22:20.000Z</time>
      </trkpt>
      <trkpt lat="40.820539" lon="-3.83052">
        <ele>1991.0</ele>
        <time>2018-04-21T06:22:21.000Z</time>
      </trkpt>
      <trkpt lat="40.820539" lon="-3.83052">
        <ele>1991.0</ele>
        <time>2018-04-21T06:22:22.000Z</time>
      </trkpt>
      <trkpt lat="40.820539" lon="-3.83052">
        <ele>1991.0</ele>
        <time>2018-04-21T06:22:23.000Z</time>
      </trkpt>
      <trkpt lat="40.820539" lon="-3.83052">
        <ele>1991.0</ele>
        <time>2018-04-21T06:22:24.000Z</time>
      </trkpt>
      <trkpt lat="40.820539" lon="-3.83052">
        <ele>1991.0</ele>
        <time>2018-04-21T06:22:25.000Z</time>
      </trkpt>
      <trkpt lat="40.820539" lon="-3.83052">
        <ele>1991.0</ele>
        <time>2018-04-21T06:22:26.000Z</time>
      </trkpt>
      <trkpt lat="40.820539" lon="-3.83052">
        <ele>1991.0</ele>
        <time>2018-04-21T06:22:27.000Z</time>
      </trkpt>
      <trkpt lat="40.820539" lon="-3.83052">
        <ele>1991.0</ele>
        <time>2018-04-21T06:22:28.000Z</time>
      </trkpt>
      <trkpt lat="40.820539" lon="-3.830519">
        <ele>1991.0</ele>
        <time>2018-04-21T06:22:29.000Z</time>
      </trkpt>
      <trkpt lat="40.820539" lon="-3.830519">
        <ele>1991.0</ele>
        <time>2018-04-21T06:22:30.000Z</time>
      </trkpt>
      <trkpt lat="40.820539" lon="-3.830519">
        <ele>1991.0</ele>
        <time>2018-04-21T06:22:31.000Z</time>
      </trkpt>
      <trkpt lat="40.820539" lon="-3.830519">
        <ele>1991.0</ele>
        <time>2018-04-21T06:22:32.000Z</time>
      </trkpt>
      <trkpt lat="40.820538" lon="-3.830518">
        <ele>1991.0</ele>
        <time>2018-04-21T06:22:33.000Z</time>
      </trkpt>
      <trkpt lat="40.820537" lon="-3.830515">
        <ele>1991.1</ele>
        <time>2018-04-21T06:22:34.000Z</time>
      </trkpt>
      <trkpt lat="40.820534" lon="-3.830511">
        <ele>1991.1</ele>
        <time>2018-04-21T06:22:35.000Z</time>
      </trkpt>
      <trkpt lat="40.820531" lon="-3.830506">
        <ele>1991.2</ele>
        <time>2018-04-21T06:22:36.000Z</time>
      </trkpt>
      <trkpt lat="40.820527" lon="-3.8305">
        <ele>1991.3</ele>
        <time>2018-04-21T06:22:37.000Z</time>
      </trkpt>
      <trkpt lat="40.820522" lon="-3.830493">
        <ele>1991.5</ele>
        <time>2018-04-21T06:22:38.000Z</time>
      </trkpt>
      <trkpt lat="40.820516" lon="-3.830486">
        <ele>1991.6</ele>
        <time>2018-04-21T06:22:39.000Z</time>
      </trkpt>
      <trkpt lat="40.820509" lon="-3.830479">
        <ele>1991.8</ele>
        <time>2018-04-21T06:22:40.000Z</time>
      </trkpt>
      <trkpt lat="40.820502" lon="-3.830471">
        <ele>1992.0</ele>
        <time>2018-04-21T06:22:41.000Z</time>
      </trkpt>
      <trkpt lat="40.820495" lon="-3.830465">
        <ele>1992.2</ele>
        <time>2018-04-21T06:22:42.000Z</time>
      </trkpt>
      <trkpt lat="40.820486" lon="-3.830459">
        <ele>1992.4</ele>
        <time>2018-04-21T06:22:43.000Z</time>
      </trkpt>
      <trkpt lat="40.820478" lon="-3.830455">
        <ele>1992.6</ele>
        <time>2018-04-21T06:22:44.000Z</time>
      </trkpt>
      <trkpt lat="40.820469" lon="-3.830451">
        <ele>1992.8</ele>
        <time>2018-04-21T06:22:45.000Z</time>
      </trkpt>
      <trkpt lat="40.82046" lon="-3.830448">
        <ele>1992.9</ele>
        <time>2018-04-21T06:22:46.000Z</time>
      </trkpt>
      <trkpt lat="40.820452" lon="-3.830446">
        <ele>1993.1</ele>
        <time>2018-04-21T06:22:47.000Z</time>
      </trkpt>
      <trkpt lat="40.820443" lon="-3.830444">
        <ele>1993.3</ele>
        <time>2018-04-21T06:22:48.000Z</time>
      </trkpt>
      <trkpt lat="40.820435" lon="-3.830443">
        <ele>1993.4</ele>
        <time>2018-04-21T06:22:49.000Z</time>
      </trkpt>
      <trkpt lat="40.820428" lon="-3.830443">
        <ele>1993.5</ele>
        <time>2018-04-21T06:22:50.000Z</time>
      </trkpt>
      <trkpt lat="40.820422" lon="-3.830442">
        <ele>1993.7</ele>
        <time>2018-04-21T06:22:51.000Z</time>
      </trkpt>
      <trkpt lat="40.820416" lon="-3.830441">
        <ele>1993.8</ele>
        <time>2018-04-21T06:22:52.000Z</time>
      </trkpt>
      <trkpt lat="40.820412" lon="-3.830441">
        <ele>1993.8</ele>
        <time>2018-04-21T06:22:53.000Z</time>
      </trkpt>
      <trkpt lat="40.820409" lon="-3.83044">
        <ele>1993.9</ele>
        <time>2018-04-21T06:22:54.000Z</time>
      </trkpt>
      <trkpt lat="40.820407" lon="-3.83044">
        <ele>1993.9</ele>
        <time>2018-04-21T06:22:55.000Z</time>
      </trkpt>
      <trkpt lat="40.820406" lon="-3.830439">
        <ele>1994.0</ele>
        <time>2018-04-21T06:22:56.000Z</time>
      </trkpt>
      <trkpt lat="40.820405" lon="-3.830439">
        <ele>1994.0</ele>
        <time>2018-04-21T06:22:57.000Z</time>
      </trkpt>
      <trkpt lat="40.820405" lon="-3.830439">
        <ele>1994.0</ele>
        <time>2018-04-21T06:22:58.000Z</time>
      </trkpt>
      <trkpt lat="40.820406" lon="-3.83044">
        <ele>1994.0</ele>
        <time>2018-04-21T06:22:59.000Z</time>
      </trkpt>
      <trkpt lat="40.820406" lon="-3.830441">
        <ele>1994.0</ele>
        <time>2018-04-21T06:23:00.000Z</time>
      </trkpt>
      <trkpt lat="40.820407" lon="-3.830442">
        <ele>1993.9</ele>
        <time>2018-04-21T06:23:01.000Z</time>
      </trkpt>
      <trkpt lat="40.820408" lon="-3.830444">
        <ele>1993.9</ele>
        <time>2018-04-21T06:23:02.000Z</time>
      </trkpt>
      <trkpt lat="40.820409" lon="-3.830447">
        <ele>1993.8</ele>
        <time>2018-04-21T06:23:03.000Z</time>
      </trkpt>
      <trkpt lat="40.820409" lon="-3.83045">
        <ele>1993.8</ele>
        <time>2018-04-21T06:23:04.000Z</time>
      </trkpt>
      <trkpt lat="40.820408" lon="-3.830454">
        <ele>1993.8</ele>
        <time>2018-04-21T06:23:05.000Z</time>
      </trkpt>
      <trkpt lat="40.820405" lon="-3.830459">
        <ele>1993.8</ele>
        <time>2018-04-21T06:23:06.000Z</time>
      </trkpt>
      <trkpt lat="40.8204" lon="-3.830464">
        <ele>1993.8</ele>
        <time>2018-04-21T06:23:07.000Z</time>
      </trkpt>
      <trkpt lat="40.820395" lon="-3.830469">
        <ele>1993.9</ele>
        <time>2018-04-21T06:23:08.000Z</time>
      </trkpt>
      <trkpt lat="40.820388" lon="-3.830474">
        <ele>1993.9</ele>
        <time>2018-04-21T06:23:09.000Z</time>
      </trkpt>
      <trkpt lat="40.820382" lon="-3.830478">
        <ele>1994.0</ele>
        <time>2018-04-21T06:23:10.000Z</time>
      </trkpt>
      <trkpt lat="40.820376" lon="-3.830482">
        <ele>1994.1</ele>
        <time>2018-04-21T06:23:11.000Z</time>
      </trkpt>
      <trkpt lat="40.820371" lon="-3.830485">
        <ele>1994.1</ele>
        <time>2018-04-21T06:23:12.000Z</time>
      </trkpt>
      <trkpt lat="40.820367" lon="-3.830488">
        <ele>1994.2</ele>
        <time>2018-04-21T06:23:13.000Z</time>
      </trkpt>
      <trkpt lat="40.820363" lon="-3.83049">
        <ele>1994.2</ele>
        <time>2018-04-21T06:23:14.000Z</time>
      </trkpt>
      <trkpt lat="40.820359" lon="-3.830492">
        <ele>1994.3</ele>
        <time>2018-04-21T06:23:15.000Z</time>
      </trkpt>
      <trkpt lat="40.820356" lon="-3.830493">
        <ele>1994.3</ele>
        <time>2018-04-21T06:23:16.000Z</time>
      </trkpt>
      <trkpt lat="40.820352" lon="-3.830495">
        <ele>1994.3</ele>
        <time>2018-04-21T06:23:17.000Z</time>
      </trkpt>
      <trkpt lat="40.820348" lon="-3.830497">
        <ele>1994.4</ele>
        <time>2018-04-21T06:23:18.000Z</time>
      </trkpt>
      <trkpt lat="40.820344" lon="-3.8305">
        <ele>1994.4</ele>
        <time>2018-04-21T06:23:19.000Z</time>
      </trkpt>
      <trkpt lat="40.820339" lon="-3.830503">
        <ele>1994.5</ele>
        <time>2018-04-21T06:23:20.000Z</time>
      </trkpt>
      <trkpt lat="40.820334" lon="-3.830506">
        <ele>1994.5</ele>
        <time>2018-04-21T06:23:21.000Z</time>
      </trkpt>
      <trkpt lat="40.820329" lon="-3.83051">
        <ele>1994.6</ele>
        <time>2018-04-21T06:23:22.000Z</time>
      </trkpt>
      <trkpt lat="40.820323" lon="-3.830514">
        <ele>1994.6</ele>
        <time>2018-04-21T06:23:23.000Z</time>
      </trkpt>
      <trkpt lat="40.820317" lon="-3.830518">
        <ele>1994.7</ele>
        <time>2018-04-21T06:23:24.000Z</time>
      </trkpt>
      <trkpt lat="40.820311" lon="-3.830523">
        <ele>1994.7</ele>
        <time>2018-04-21T06:23:25.000Z</time>
      </trkpt>
      <trkpt lat="40.820305" lon="-3.830527">
        <ele>1994.8</ele>
        <time>2018-04-21T06:23:26.000Z</time>
      </trkpt>
      <trkpt lat="40.820299" lon="-3.830532">
        <ele>1994.8</ele>
        <time>2018-04-21T06:23:27.000Z</time>
      </trkpt>
      <trkpt lat="40.820293" lon="-3.830536">
        <ele>1994.9</ele>
        <time>2018-04-21T06:23:28.000Z</time>
      </trkpt>
      <trkpt lat="40.820288" lon="-3.83054">
        <ele>1994.9</ele>
        <time>2018-04-21T06:23:29.000Z</time>
      </trkpt>
      <trkpt lat="40.820282" lon="-3.830544">
        <ele>1995.0</ele>
        <time>2018-04-21T06:23:30.000Z</time>
      </trkpt>
      <trkpt lat="40.820276" lon="-3.830547">
        <ele>1995.0</ele>
        <time>2018-04-21T06:23:31.000Z</time>
      </trkpt>
      <trkpt lat="40.820271" lon="-3.830551">
        <ele>1995.1</ele>
        <time>2018-04-21T06:23:32.000Z</time>
      </trkpt>
      <trkpt lat="40.820266" lon="-3.830554">
        <ele>1995.1</ele>
        <time>2018-04-21T06:23:33.000Z</time>
      </trkpt>
      <trkpt lat="40.820261" lon="-3.830556">
        <ele>1995.2</ele>
        <time>2018-04-21T06:23:34.000Z</time>
      </trkpt>
      <trkpt lat="40.820256" lon="-3.830559">
        <ele>1995.2</ele>
        <time>2018-04-21T06:23:35.000Z</time>
      </trkpt>
      <trkpt lat="40.820251" lon="-3.83056">
        <ele>1995.3</ele>
        <time>2018-04-21T06:23:36.000Z</time>
      </trkpt>
      <trkpt lat="40.820247" lon="-3.830562">
        <ele>1995.3</ele>
        <time>2018-04-21T06:23:37.000Z</time>
      </trkpt>
      <trkpt lat="40.820242" lon="-3.830563">
        <ele>1995.4</ele>
        <time>2018-04-21T06:23:38.000Z</time>
      </trkpt>
      <trkpt lat="40.820238" lon="-3.830564">
        <ele>1995.4</ele>
        <time>2018-04-21T06:23:39.000Z</time>
      </trkpt>
      <trkpt lat="40.820234" lon="-3.830564">
        <ele>1995.5</ele>
        <time>2018-04-21T06:23:40.000Z</time>
      </trkpt>
      <trkpt lat="40.82023" lon="-3.830565">
        <ele>1995.5</ele>
        <time>2018-04-21T06:23:41.000Z</time>
      </trkpt>
      <trkpt lat="40.820227" lon="-3.830565">
        <ele>1995.6</ele>
        <time>2018-04-21T06:23:42.000Z</time>
      </trkpt>
      <trkpt lat="40.820223" lon="-3.830564">
        <ele>1995.7</ele>
        <time>2018-04-21T06:23:43.000Z</time>
      </trkpt>
      <trkpt lat="40.82022" lon="-3.830564">
        <ele>1995.7</ele>
        <time>2018-04-21T06:23:44.000Z</time>
      </trkpt>
      <trkpt lat="40.820218" lon="-3.830563">
        <ele>1995.8</ele>
        <time>2018-04-21T06:23:45.000Z</time>
      </trkpt>
      <trkpt lat="40.820215" lon="-3.830563">
        <ele>1995.8</ele>
        <time>2018-04-21T06:23:46.000Z</time>
      </trkpt>
      <trkpt lat="40.820213" lon="-3.830562">
        <ele>1995.8</ele>
        <time>2018-04-21T06:23:47.000Z</time>
      </trkpt>
      <trkpt lat="40.820212" lon="-3.830561">
        <ele>1995.9</ele>
        <time>2018-04-21T06:23:48.000Z</time>
      </trkpt>
      <trkpt lat="40.82021" lon="-3.830561">
        <ele>1995.9</ele>
        <time>2018-04-21T06:23:49.000Z</time>
      </trkpt>
      <trkpt lat="40.820209" lon="-3.83056">
        <ele>1995.9</ele>
        <time>2018-04-21T06:23:50.000Z</time>
      </trkpt>
      <trkpt lat="40.820207" lon="-3.83056">
        <ele>1996.0</ele>
        <time>2018-04-21T06:23:51.000Z</time>
      </trkpt>
      <trkpt lat="40.820206" lon="-3.830559">
        <ele>1996.0</ele>
        <time>2018-04-21T06:23:52.000Z</time>
      </trkpt>
      <trkpt lat="40.820204" lon="-3.830558">
        <ele>1996.0</ele>
        <time>2018-04-21T06:23:53.000Z</time>
      </trkpt>
      <trkpt lat="40.820202" lon="-3.830558">
        <ele>1996.1</ele>
        <time>2018-04-21T06:23:54.000Z</time>
      </trkpt>
      <trkpt lat="40.8202" lon="-3.830557">
        <ele>1996.1</ele>
        <time>2018-04-21T06:23:55.000Z</time>
      </trkpt>
      <trkpt lat="40.820198" lon="-3.830557">
        <ele>1996.1</ele>
        <time>2018-04-21T06:23:56.000Z</time>
      </trkpt>
      <trkpt lat="40.820195" lon="-3.830556">
        <ele>1996.2</ele>
        <time>2018-04-21T06:23:57.000Z</time>
      </trkpt>
      <trkpt lat="40.820192" lon="-3.830556">
        <ele>1996.3</ele>
        <time>2018-04-21T06:23:58.000Z</time>
      </trkpt>
      <trkpt lat="40.820189" lon="-3.830555">
        <ele>1996.3</ele>
        <time>2018-04-21T06:23:59.000Z</time>
      </trkpt>
      <trkpt lat="40.820186" lon="-3.830555">
        <ele>1996.4</ele>
        <time>2018-04-21T06:24:00.000Z</time>
      </trkpt>
      <trkpt lat="40.820184" lon="-3.830554">
        <ele>1996.4</ele>
        <time>2018-04-21T06:24:01.000Z</time>
      </trkpt>
      <trkpt lat="40.820182" lon="-3.830554">
        <ele>1996.4</ele>
        <time>2018-04-21T06:24:02.000Z</time>
      </trkpt>
      <trkpt lat="40.82018" lon="-3.830554">
        <ele>1996.5</ele>
        <time>2018-04-21T06:24:03.000Z</time>
      </trkpt>
      <trkpt lat="40.820179" lon="-3.830554">
        <ele>1996.5</ele>
        <time>2018-04-21T06:24:04.000Z</time>
      </trkpt>
      <trkpt lat="40.820178" lon="-3.830554">
        <ele>1996.5</ele>
        <time>2018-04-21T06:24:05.000Z</time>
      </trkpt>
      <trkpt lat="40.820178" lon="-3.830554">
        <ele>1996.5</ele>
        <time>2018-04-21T06:24:06.000Z</time>
      </trkpt>
      <trkpt lat="40.820178" lon="-3.830554">
        <ele>1996.5</ele>
        <time>2018-04-21T06:24:07.000Z</time>
      </trkpt>
      <trkpt lat="40.820178" lon="-3.830553">
        <ele>1996.5</ele>
        <time>2018-04-21T06:24:08.000Z</time>
      </trkpt>
      <trkpt lat="40.820179" lon="-3.830553">
        <ele>1996.5</ele>
        <time>2018-04-21T06:24:09.000Z</time>
      </trkpt>
      <trkpt lat="40.820179" lon="-3.830553">
        <ele>1996.5</ele>
        <time>2018-04-21T06:24:10.000Z</time>
      </trkpt>
      <trkpt lat="40.820179" lon="-3.830553">
        <ele>1996.5</ele>
        <time>2018-04-21T06:24:11.000Z</time>
      </trkpt>
      <trkpt lat="40.820179" lon="-3.830552">
        <ele>1996.5</ele>
        <time>2018-04-21T06:24:12.000Z</time>
      </trkpt>
      <trkpt lat="40.820178" lon="-3.830552">
        <ele>1996.5</ele>
        <time>2018-04-21T06:24:13.000Z</time>
      </trkpt>
      <trkpt lat="40.820176" lon="-3.830551">
        <ele>1996.6</ele>
        <time>2018-04-21T06:24:14.000Z</time>
      </trkpt>
      <trkpt lat="40.820174" lon="-3.83055">
        <ele>1996.6</ele>
        <time>2018-04-21T06:24:15.000Z</time>
      </trkpt>
      <trkpt lat="40.820172" lon="-3.830548">
        <ele>1996.7</ele>
        <time>2018-04-21T06:24:16.000Z</time>
      </trkpt>
      <trkpt lat="40.820169" lon="-3.830545">
        <ele>1996.8</ele>
        <time>2018-04-21T06:24:17.000Z</time>
      </trkpt>
      <trkpt lat="40.820167" lon="-3.830542">
        <ele>1996.8</ele>
        <time>2018-04-21T06:24:18.000Z</time>
      </trkpt>
      <trkpt lat="40.820166" lon="-3.830538">
        <ele>1996.9</ele>
        <time>2018-04-21T06:24:19.000Z</time>
      </trkpt>
      <trkpt lat="40.820164" lon="-3.830533">
        <ele>1997.0</ele>
        <time>2018-04-21T06:24:20.000Z</time>
      </trkpt>
      <trkpt lat="40.820163" lon="-3.830527">
        <ele>1997.1</ele>
        <time>2018-04-21T06:24:21.000Z</time>
      </trkpt>
      <trkpt lat="40.820162" lon="-3.830521">
        <ele>1997.2</ele>
        <time>2018-04-21T06:24:22.000Z</time>
      </trkpt>
      <trkpt lat="40.820161" lon="-3.830515">
        <ele>1997.3</ele>
        <time>2018-04-21T06:24:23.000Z</time>
      </trkpt>
      <trkpt lat="40.820161" lon="-3.830509">
        <ele>1997.4</ele>
        <time>2018-04-21T06:24:24.000Z</time>
      </trkpt>
      <trkpt lat="40.82016" lon="-3.830503">
        <ele>1997.5</ele>
        <time>2018-04-21T06:24:25.000Z</time>
      </trkpt>
      <trkpt lat="40.820159" lon="-3.830497">
        <ele>1997.6</ele>
        <time>2018-04-21T06:24:26.000Z</time>
      </trkpt>
      <trkpt lat="40.820158" lon="-3.830491">
        <ele>1997.7</ele>
        <time>2018-04-21T06:24:27.000Z</time>
      </trkpt>
      <trkpt lat="40.820158" lon="-3.830486">
        <ele>1997.7</ele>
        <time>2018-04-21T06:24:28.000Z</time>
      </trkpt>
      <trkpt lat="40.820157" lon="-3.83048">
        <ele>1997.8</ele>
        <time>2018-04-21T06:24:29.000Z</time>
      </trkpt>
      <trkpt lat="40.820156" lon="-3.830475">
        <ele>1997.9</ele>
        <time>2018-04-21T06:24:30.000Z</time>
      </trkpt>
      <trkpt lat="40.820155" lon="-3.83047">
        <ele>1998.0</ele>
        <time>2018-04-21T06:24:31.000Z</time>
      </trkpt>
      <trkpt lat="40.820154" lon="-3.830465">
        <ele>1998.1</ele>
        <time>2018-04-21T06:24:32.000Z</time>
      </trkpt>
      <trkpt lat="40.820153" lon="-3.830461">
        <ele>1998.2</ele>
        <time>2018-04-21T06:24:33.000Z</time>
      </trkpt>
      <trkpt lat="40.820151" lon="-3.830457">
        <ele>1998.2</ele>
        <time>2018-04-21T06:24:34.000Z</time>
      </trkpt>
      <trkpt lat="40.82015" lon="-3.830454">
        <ele>1998.3</ele>
        <time>2018-04-21T06:24:35.000Z</time>
      </trkpt>
      <trkpt lat="40.820148" lon="-3.830451">
        <ele>1998.4</ele>
        <time>2018-04-21T06:24:36.000Z</time>
      </trkpt>
      <trkpt lat="40.820147" lon="-3.830449">
        <ele>1998.4</ele>
        <time>2018-04-21T06:24:37.000Z</time>
      </trkpt>
      <trkpt lat="40.820145" lon="-3.830447">
        <ele>1998.5</ele>
        <time>2018-04-21T06:24:38.000Z</time>
      </trkpt>
      <trkpt lat="40.820142" lon="-3.830446">
        <ele>1998.5</ele>
        <time>2018-04-21T06:24:39.000Z</time>
      </trkpt>
      <trkpt lat="40.82014" lon="-3.830446">
        <ele>1998.6</ele>
        <time>2018-04-21T06:24:40.000Z</time>
      </trkpt>
      <trkpt lat="40.820137" lon="-3.830446">
        <ele>1998.6</ele>
        <time>2018-04-21T06:24:41.000Z</time>
      </trkpt>
      <trkpt lat="40.820135" lon="-3.830447">
        <ele>1998.7</ele>
        <time>2018-04-21T06:24:42.000Z</time>
      </trkpt>
      <trkpt lat="40.820132" lon="-3.830448">
        <ele>1998.7</ele>
        <time>2018-04-21T06:24:43.000Z</time>
      </trkpt>
      <trkpt lat="40.820128" lon="-3.830449">
        <ele>1998.8</ele>
        <time>2018-04-21T06:24:44.000Z</time>
      </trkpt>
      <trkpt lat="40.820125" lon="-3.83045">
        <ele>1998.8</ele>
        <time>2018-04-21T06:24:45.000Z</time>
      </trkpt>
      <trkpt lat="40.820122" lon="-3.830451">
        <ele>1998.8</ele>
        <time>2018-04-21T06:24:46.000Z</time>
      </trkpt>
      <trkpt lat="40.820119" lon="-3.830451">
        <ele>1998.9</ele>
        <time>2018-04-21T06:24:47.000Z</time>
      </trkpt>
      <trkpt lat="40.820116" lon="-3.830451">
        <ele>1998.9</ele>
        <time>2018-04-21T06:24:48.000Z</time>
      </trkpt>
      <trkpt lat="40.820113" lon="-3.830449">
        <ele>1999.0</ele>
        <time>2018-04-21T06:24:49.000Z</time>
      </trkpt>
      <trkpt lat="40.82011" lon="-3.830447">
        <ele>1999.1</ele>
        <time>2018-04-21T06:24:50.000Z</time>
      </trkpt>
      <trkpt lat="40.820107" lon="-3.830444">
        <ele>1999.2</ele>
        <time>2018-04-21T06:24:51.000Z</time>
      </trkpt>
      <trkpt lat="40.820104" lon="-3.83044">
        <ele>1999.3</ele>
        <time>2018-04-21T06:24:52.000Z</time>
      </trkpt>
      <trkpt lat="40.820101" lon="-3.830435">
        <ele>1999.4</ele>
        <time>2018-04-21T06:24:53.000Z</time>
      </trkpt>
      <trkpt lat="40.820098" lon="-3.83043">
        <ele>1999.5</ele>
        <time>2018-04-21T06:24:54.000Z</time>
      </trkpt>
      <trkpt lat="40.820095" lon="-3.830426">
        <ele>1999.7</ele>
        <time>2018-04-21T06:24:55.000Z</time>
      </trkpt>
      <trkpt lat="40.820091" lon="-3.830421">
        <ele>1999.8</ele>
        <time>2018-04-21T06:24:56.000Z</time>
      </trkpt>
      <trkpt lat="40.820087" lon="-3.830418">
        <ele>1999.9</ele>
        <time>2018-04-21T06:24:57.000Z</time>
      </trkpt>
      <trkpt lat="40.820083" lon="-3.830415">
        <ele>2000.0</ele>
        <time>2018-04-21T06:24:58.000Z</time>
      </trkpt>
      <trkpt lat="40.820078" lon="-3.830413">
        <ele>2000.1</ele>
        <time>2018-04-21T06:24:59.000Z</time>
      </trkpt>
      <trkpt lat="40.820072" lon="-3.830411">
        <ele>2000.3</ele>
        <time>2018-04-21T06:25:00.000Z</time>
      </trkpt>
      <trkpt lat="40.820067" lon="-3.830411">
        <ele>2000.4</ele>
        <time>2018-04-21T06:25:01.000Z</time>
      </trkpt>
      <trkpt lat="40.820061" lon="-3.830411">
        <ele>2000.5</ele>
        <time>2018-04-21T06:25:02.000Z</time>
      </trkpt>
      <trkpt lat="40.820054" lon="-3.830411">
        <ele>2000.6</ele>
        <time>2018-04-21T06:25:03.000Z</time>
      </trkpt>
      <trkpt lat="40.820048" lon="-3.830412">
        <ele>2000.7</ele>
        <time>2018-04-21T06:25:04.000Z</time>
      </trkpt>
      <trkpt lat="40.820042" lon="-3.830412">
        <ele>2000.8</ele>
        <time>2018-04-21T06:25:05.000Z</time>
      </trkpt>
      <trkpt lat="40.820035" lon="-3.830413">
        <ele>2000.9</ele>
        <time>2018-04-21T06:25:06.000Z</time>
      </trkpt>
      <trkpt lat="40.820029" lon="-3.830413">
        <ele>2001.0</ele>
        <time>2018-04-21T06:25:07.000Z</time>
      </trkpt>
      <trkpt lat="40.820024" lon="-3.830412">
        <ele>2001.1</ele>
        <time>2018-04-21T06:25:08.000Z</time>
      </trkpt>
      <trkpt lat="40.820018" lon="-3.830411">
        <ele>2001.3</ele>
        <time>2018-04-21T06:25:09.000Z</time>
      </trkpt>
      <trkpt lat="40.820013" lon="-3.83041">
        <ele>2001.4</ele>
        <time>2018-04-21T06:25:10.000Z</time>
      </trkpt>
      <trkpt lat="40.820009" lon="-3.830408">
        <ele>2001.5</ele>
        <time>2018-04-21T06:25:11.000Z</time>
      </trkpt>
      <trkpt lat="40.820005" lon="-3.830405">
        <ele>2001.6</ele>
        <time>2018-04-21T06:25:12.000Z</time>
      </trkpt>
      <trkpt lat="40.820001" lon="-3.830401">
        <ele>2001.7</ele>
        <time>2018-04-21T06:25:13.000Z</time>
      </trkpt>
      <trkpt lat="40.819999" lon="-3.830396">
        <ele>2001.9</ele>
        <time>2018-04-21T06:25:14.000Z</time>
      </trkpt>
      <trkpt lat="40.819997" lon="-3.830391">
        <ele>2002.0</ele>
        <time>2018-04-21T06:25:15.000Z</time>
      </trkpt>
      <trkpt lat="40.819995" lon="-3.830384">
        <ele>2002.2</ele>
        <time>2018-04-21T06:25:16.000Z</time>
      </trkpt>
      <trkpt lat="40.819995" lon="-3.830376">
        <ele>2002.3</ele>
        <time>2018-04-21T06:25:17.000Z</time>
      </trkpt>
      <trkpt lat="40.819995" lon="-3.830369">
        <ele>2002.4</ele>
        <time>2018-04-21T06:25:18.000Z</time>
      </trkpt>
      <trkpt lat="40.819996" lon="-3.830361">
        <ele>2002.5</ele>
        <time>2018-04-21T06:25:19.000Z</time>
      </trkpt>
      <trkpt lat="40.819996" lon="-3.830355">
        <ele>2002.6</ele>
        <time>2018-04-21T06:25:20.000Z</time>
      </trkpt>
      <trkpt lat="40.819997" lon="-3.830351">
        <ele>2002.6</ele>
        <time>2018-04-21T06:25:21.000Z</time>
      </trkpt>
      <trkpt lat="40.819998" lon="-3.830349">
        <ele>2002.6</ele>
        <time>2018-04-21T06:25:22.000Z</time>
      </trkpt>
      <trkpt lat="40.819998" lon="-3.830349">
        <ele>2002.6</ele>
        <time>2018-04-21T06:25:23.000Z</time>
      </trkpt>
      <trkpt lat="40.819997" lon="-3.830349">
        <ele>2002.7</ele>
        <time>2018-04-21T06:25:24.000Z</time>
      </trkpt>
      <trkpt lat="40.819997" lon="-3.830348">
        <ele>2002.7</ele>
        <time>2018-04-21T06:25:25.000Z</time>
      </trkpt>
      <trkpt lat="40.819995" lon="-3.830345">
        <ele>2002.8</ele>
        <time>2018-04-21T06:25:26.000Z</time>
      </trkpt>
      <trkpt lat="40.819993" lon="-3.83034">
        <ele>2003.0</ele>
        <time>2018-04-21T06:25:27.000Z</time>
      </trkpt>
      <trkpt lat="40.819991" lon="-3.830335">
        <ele>2003.1</ele>
        <time>2018-04-21T06:25:28.000Z</time>
      </trkpt>
      <trkpt lat="40.819987" lon="-3.830329">
        <ele>2003.4</ele>
        <time>2018-04-21T06:25:29.000Z</time>
      </trkpt>
      <trkpt lat="40.819983" lon="-3.830323">
        <ele>2003.7</ele>
        <time>2018-04-21T06:25:30.000Z</time>
      </trkpt>
      <trkpt lat="40.819978" lon="-3.830319">
        <ele>2003.9</ele>
        <time>2018-04-21T06:25:31.000Z</time>
      </trkpt>
      <trkpt lat="40.819972" lon="-3.830317">
        <ele>2004.2</ele>
        <time>2018-04-21T06:25:32.000Z</time>
      </trkpt>
      <trkpt lat="40.819966" lon="-3.830315">
        <ele>2004.5</ele>
        <time>2018-04-21T06:25:33.000Z</time>
      </trkpt>
      <trkpt lat="40.819959" lon="-3.830313">
        <ele>2004.8</ele>
        <time>2018-04-21T06:25:34.000Z</time>
      </trkpt>
      <trkpt lat="40.819953" lon="-3.830312">
        <ele>2005.1</ele>
        <time>2018-04-21T06:25:35.000Z</time>
      </trkpt>
      <trkpt lat="40.819948" lon="-3.830311">
        <ele>2005.3</ele>
        <time>2018-04-21T06:25:36.000Z</time>
      </trkpt>
      <trkpt lat="40.819942" lon="-3.83031">
        <ele>2005.5</ele>
        <time>2018-04-21T06:25:37.000Z</time>
      </trkpt>
      <trkpt lat="40.819936" lon="-3.83031">
        <ele>2005.8</ele>
        <time>2018-04-21T06:25:38.000Z</time>
      </trkpt>
      <trkpt lat="40.819931" lon="-3.830309">
        <ele>2006.0</ele>
        <time>2018-04-21T06:25:39.000Z</time>
      </trkpt>
      <trkpt lat="40.819926" lon="-3.830309">
        <ele>2006.2</ele>
        <time>2018-04-21T06:25:40.000Z</time>
      </trkpt>
      <trkpt lat="40.819921" lon="-3.830309">
        <ele>2006.4</ele>
        <time>2018-04-21T06:25:41.000Z</time>
      </trkpt>
      <trkpt lat="40.819916" lon="-3.830308">
        <ele>2006.6</ele>
        <time>2018-04-21T06:25:42.000Z</time>
      </trkpt>
      <trkpt lat="40.819911" lon="-3.830308">
        <ele>2006.8</ele>
        <time>2018-04-21T06:25:43.000Z</time>
      </trkpt>
      <trkpt lat="40.819906" lon="-3.830308">
        <ele>2007.0</ele>
        <time>2018-04-21T06:25:44.000Z</time>
      </trkpt>
      <trkpt lat="40.819901" lon="-3.830307">
        <ele>2007.3</ele>
        <time>2018-04-21T06:25:45.000Z</time>
      </trkpt>
      <trkpt lat="40.819896" lon="-3.830306">
        <ele>2007.5</ele>
        <time>2018-04-21T06:25:46.000Z</time>
      </trkpt>
      <trkpt lat="40.819891" lon="-3.830306">
        <ele>2007.7</ele>
        <time>2018-04-21T06:25:47.000Z</time>
      </trkpt>
      <trkpt lat="40.819886" lon="-3.830304">
        <ele>2007.9</ele>
        <time>2018-04-21T06:25:48.000Z</time>
      </trkpt>
      <trkpt lat="40.819881" lon="-3.830303">
        <ele>2008.2</ele>
        <time>2018-04-21T06:25:49.000Z</time>
      </trkpt>
      <trkpt lat="40.819876" lon="-3.830301">
        <ele>2008.4</ele>
        <time>2018-04-21T06:25:50.000Z</time>
      </trkpt>
      <trkpt lat="40.81987" lon="-3.830299">
        <ele>2008.7</ele>
        <time>2018-04-21T06:25:51.000Z</time>
      </trkpt>
      <trkpt lat="40.819864" lon="-3.830297">
        <ele>2009.0</ele>
        <time>2018-04-21T06:25:52.000Z</time>
      </trkpt>
      <trkpt lat="40.819859" lon="-3.830294">
        <ele>2009.2</ele>
        <time>2018-04-21T06:25:53.000Z</time>
      </trkpt>
      <trkpt lat="40.819853" lon="-3.830291">
        <ele>2009.5</ele>
        <time>2018-04-21T06:25:54.000Z</time>
      </trkpt>
      <trkpt lat="40.819846" lon="-3.830288">
        <ele>2009.8</ele>
        <time>2018-04-21T06:25:55.000Z</time>
      </trkpt>
      <trkpt lat="40.81984" lon="-3.830285">
        <ele>2010.1</ele>
        <time>2018-04-21T06:25:56.000Z</time>
      </trkpt>
      <trkpt lat="40.819834" lon="-3.830282">
        <ele>2010.4</ele>
        <time>2018-04-21T06:25:57.000Z</time>
      </trkpt>
      <trkpt lat="40.819828" lon="-3.830281">
        <ele>2010.7</ele>
        <time>2018-04-21T06:25:58.000Z</time>
      </trkpt>
      <trkpt lat="40.819821" lon="-3.830282">
        <ele>2011.0</ele>
        <time>2018-04-21T06:25:59.000Z</time>
      </trkpt>
      <trkpt lat="40.819815" lon="-3.830283">
        <ele>2011.2</ele>
        <time>2018-04-21T06:26:00.000Z</time>
      </trkpt>
      <trkpt lat="40.819809" lon="-3.830284">
        <ele>2011.4</ele>
        <time>2018-04-21T06:26:01.000Z</time>
      </trkpt>
      <trkpt lat="40.819803" lon="-3.830284">
        <ele>2011.7</ele>
        <time>2018-04-21T06:26:02.000Z</time>
      </trkpt>
      <trkpt lat="40.819798" lon="-3.830282">
        <ele>2011.9</ele>
        <time>2018-04-21T06:26:03.000Z</time>
      </trkpt>
      <trkpt lat="40.819792" lon="-3.830279">
        <ele>2012.2</ele>
        <time>2018-04-21T06:26:04.000Z</time>
      </trkpt>
      <trkpt lat="40.819787" lon="-3.830275">
        <ele>2012.5</ele>
        <time>2018-04-21T06:26:05.000Z</time>
      </trkpt>
      <trkpt lat="40.819782" lon="-3.83027">
        <ele>2012.8</ele>
        <time>2018-04-21T06:26:06.000Z</time>
      </trkpt>
      <trkpt lat="40.819777" lon="-3.830265">
        <ele>2013.1</ele>
        <time>2018-04-21T06:26:07.000Z</time>
      </trkpt>
      <trkpt lat="40.819773" lon="-3.83026">
        <ele>2013.3</ele>
        <time>2018-04-21T06:26:08.000Z</time>
      </trkpt>
      <trkpt lat="40.819768" lon="-3.830255">
        <ele>2013.6</ele>
        <time>2018-04-21T06:26:09.000Z</time>
      </trkpt>
      <trkpt lat="40.819763" lon="-3.83025">
        <ele>2013.9</ele>
        <time>2018-04-21T06:26:10.000Z</time>
      </trkpt>
      <trkpt lat="40.819759" lon="-3.830246">
        <ele>2014.1</ele>
        <time>2018-04-21T06:26:11.000Z</time>
      </trkpt>
      <trkpt lat="40.819755" lon="-3.830243">
        <ele>2014.4</ele>
        <time>2018-04-21T06:26:12.000Z</time>
      </trkpt>
      <trkpt lat="40.81975" lon="-3.830241">
        <ele>2014.6</ele>
        <time>2018-04-21T06:26:13.000Z</time>
      </trkpt>
      <trkpt lat="40.819746" lon="-3.830239">
        <ele>2014.8</ele>
        <time>2018-04-21T06:26:14.000Z</time>
      </trkpt>
      <trkpt lat="40.819741" lon="-3.830239">
        <ele>2015.0</ele>
        <time>2018-04-21T06:26:15.000Z</time>
      </trkpt>
      <trkpt lat="40.819735" lon="-3.830238">
        <ele>2015.3</ele>
        <time>2018-04-21T06:26:16.000Z</time>
      </trkpt>
      <trkpt lat="40.819729" lon="-3.830237">
        <ele>2015.5</ele>
        <time>2018-04-21T06:26:17.000Z</time>
      </trkpt>
      <trkpt lat="40.819723" lon="-3.830237">
        <ele>2015.8</ele>
        <time>2018-04-21T06:26:18.000Z</time>
      </trkpt>
      <trkpt lat="40.819717" lon="-3.830235">
        <ele>2016.1</ele>
        <time>2018-04-21T06:26:19.000Z</time>
      </trkpt>
      <trkpt lat="40.819711" lon="-3.830234">
        <ele>2016.3</ele>
        <time>2018-04-21T06:26:20.000Z</time>
      </trkpt>
      <trkpt lat="40.819705" lon="-3.830231">
        <ele>2016.6</ele>
        <time>2018-04-21T06:26:21.000Z</time>
      </trkpt>
      <trkpt lat="40.8197" lon="-3.830229">
        <ele>2016.9</ele>
        <time>2018-04-21T06:26:22.000Z</time>
      </trkpt>
      <trkpt lat="40.819695" lon="-3.830225">
        <ele>2017.2</ele>
        <time>2018-04-21T06:26:23.000Z</time>
      </trkpt>
      <trkpt lat="40.81969" lon="-3.830221">
        <ele>2017.5</ele>
        <time>2018-04-21T06:26:24.000Z</time>
      </trkpt>
      <trkpt lat="40.819685" lon="-3.830217">
        <ele>2017.7</ele>
        <time>2018-04-21T06:26:25.000Z</time>
      </trkpt>
      <trkpt lat="40.81968" lon="-3.830214">
        <ele>2018.0</ele>
        <time>2018-04-21T06:26:26.000Z</time>
      </trkpt>
      <trkpt lat="40.819676" lon="-3.83021">
        <ele>2018.2</ele>
        <time>2018-04-21T06:26:27.000Z</time>
      </trkpt>
      <trkpt lat="40.819671" lon="-3.830206">
        <ele>2018.5</ele>
        <time>2018-04-21T06:26:28.000Z</time>
      </trkpt>
      <trkpt lat="40.819666" lon="-3.830203">
        <ele>2018.8</ele>
        <time>2018-04-21T06:26:29.000Z</time>
      </trkpt>
      <trkpt lat="40.81966" lon="-3.830201">
        <ele>2019.1</ele>
        <time>2018-04-21T06:26:30.000Z</time>
      </trkpt>
      <trkpt lat="40.819654" lon="-3.830199">
        <ele>2019.3</ele>
        <time>2018-04-21T06:26:31.000Z</time>
      </trkpt>
      <trkpt lat="40.819649" lon="-3.830197">
        <ele>2019.6</ele>
        <time>2018-04-21T06:26:32.000Z</time>
      </trkpt>
      <trkpt lat="40.819643" lon="-3.830196">
        <ele>2019.9</ele>
        <time>2018-04-21T06:26:33.000Z</time>
      </trkpt>
      <trkpt lat="40.819638" lon="-3.830195">
        <ele>2020.1</ele>
        <time>2018-04-21T06:26:34.000Z</time>
      </trkpt>
      <trkpt lat="40.819634" lon="-3.830195">
        <ele>2020.3</ele>
        <time>2018-04-21T06:26:35.000Z</time>
      </trkpt>
      <trkpt lat="40.81963" lon="-3.830194">
        <ele>2020.4</ele>
        <time>2018-04-21T06:26:36.000Z</time>
      </trkpt>
      <trkpt lat="40.819627" lon="-3.830194">
        <ele>2020.6</ele>
        <time>2018-04-21T06:26:37.000Z</time>
      </trkpt>
      <trkpt lat="40.819625" lon="-3.830194">
        <ele>2020.6</ele>
        <time>2018-04-21T06:26:38.000Z</time>
      </trkpt>
      <trkpt lat="40.819625" lon="-3.830194">
        <ele>2020.6</ele>
        <time>2018-04-21T06:26:39.000Z</time>
      </trkpt>
      <trkpt lat="40.819625" lon="-3.830194">
        <ele>2020.6</ele>
        <time>2018-04-21T06:26:40.000Z</time>
      </trkpt>
      <trkpt lat="40.819625" lon="-3.830194">
        <ele>2020.6</ele>
        <time>2018-04-21T06:26:41.000Z</time>
      </trkpt>
      <trkpt lat="40.819624" lon="-3.830193">
        <ele>2020.7</ele>
        <time>2018-04-21T06:26:42.000Z</time>
      </trkpt>
      <trkpt lat="40.819623" lon="-3.830193">
        <ele>2020.8</ele>
        <time>2018-04-21T06:26:43.000Z</time>
      </trkpt>
      <trkpt lat="40.81962" lon="-3.830191">
        <ele>2020.9</ele>
        <time>2018-04-21T06:26:44.000Z</time>
      </trkpt>
      <trkpt lat="40.819616" lon="-3.83019">
        <ele>2021.1</ele>
        <time>2018-04-21T06:26:45.000Z</time>
      </trkpt>
      <trkpt lat="40.819611" lon="-3.830188">
        <ele>2021.3</ele>
        <time>2018-04-21T06:26:46.000Z</time>
      </trkpt>
      <trkpt lat="40.819606" lon="-3.830187">
        <ele>2021.6</ele>
        <time>2018-04-21T06:26:47.000Z</time>
      </trkpt>
      <trkpt lat="40.819601" lon="-3.830186">
        <ele>2021.8</ele>
        <time>2018-04-21T06:26:48.000Z</time>
      </trkpt>
      <trkpt lat="40.819596" lon="-3.830186">
        <ele>2022.0</ele>
        <time>2018-04-21T06:26:49.000Z</time>
      </trkpt>
      <trkpt lat="40.819591" lon="-3.830186">
        <ele>2022.2</ele>
        <time>2018-04-21T06:26:50.000Z</time>
      </trkpt>
      <trkpt lat="40.819586" lon="-3.830186">
        <ele>2022.4</ele>
        <time>2018-04-21T06:26:51.000Z</time>
      </trkpt>
      <trkpt lat="40.819581" lon="-3.830185">
        <ele>2022.7</ele>
        <time>2018-04-21T06:26:52.000Z</time>
      </trkpt>
      <trkpt lat="40.819576" lon="-3.830185">
        <ele>2022.9</ele>
        <time>2018-04-21T06:26:53.000Z</time>
      </trkpt>
      <trkpt lat="40.819571" lon="-3.830184">
        <ele>2023.1</ele>
        <time>2018-04-21T06:26:54.000Z</time>
      </trkpt>
      <trkpt lat="40.819566" lon="-3.830182">
        <ele>2023.3</ele>
        <time>2018-04-21T06:26:55.000Z</time>
      </trkpt>
      <trkpt lat="40.819561" lon="-3.830179">
        <ele>2023.6</ele>
        <time>2018-04-21T06:26:56.000Z</time>
      </trkpt>
      <trkpt lat="40.819556" lon="-3.830176">
        <ele>2023.9</ele>
        <time>2018-04-21T06:26:57.000Z</time>
      </trkpt>
      <trkpt lat="40.819551" lon="-3.830171">
        <ele>2024.2</ele>
        <time>2018-04-21T06:26:58.000Z</time>
      </trkpt>
      <trkpt lat="40.819546" lon="-3.830166">
        <ele>2024.5</ele>
        <time>2018-04-21T06:26:59.000Z</time>
      </trkpt>
      <trkpt lat="40.819542" lon="-3.830161">
        <ele>2024.7</ele>
        <time>2018-04-21T06:27:00.000Z</time>
      </trkpt>
      <trkpt lat="40.819538" lon="-3.830155">
        <ele>2025.0</ele>
        <time>2018-04-21T06:27:01.000Z</time>
      </trkpt>
      <trkpt lat="40.819534" lon="-3.83015">
        <ele>2025.3</ele>
        <time>2018-04-21T06:27:02.000Z</time>
      </trkpt>
      <trkpt lat="40.819531" lon="-3.830145">
        <ele>2025.5</ele>
        <time>2018-04-21T06:27:03.000Z</time>
      </trkpt>
      <trkpt lat="40.819528" lon="-3.830141">
        <ele>2025.7</ele>
        <time>2018-04-21T06:27:04.000Z</time>
      </trkpt>
      <trkpt lat="40.819526" lon="-3.830138">
        <ele>2025.9</ele>
        <time>2018-04-21T06:27:05.000Z</time>
      </trkpt>
      <trkpt lat="40.819524" lon="-3.830135">
        <ele>2026.0</ele>
        <time>2018-04-21T06:27:06.000Z</time>
      </trkpt>
      <trkpt lat="40.819523" lon="-3.830134">
        <ele>2026.1</ele>
        <time>2018-04-21T06:27:07.000Z</time>
      </trkpt>
      <trkpt lat="40.819523" lon="-3.830133">
        <ele>2026.1</ele>
        <time>2018-04-21T06:27:08.000Z</time>
      </trkpt>
      <trkpt lat="40.819523" lon="-3.830133">
        <ele>2026.1</ele>
        <time>2018-04-21T06:27:09.000Z</time>
      </trkpt>
      <trkpt lat="40.819523" lon="-3.830133">
        <ele>2026.1</ele>
        <time>2018-04-21T06:27:10.000Z</time>
      </trkpt>
      <trkpt lat="40.819523" lon="-3.830133">
        <ele>2026.1</ele>
        <time>2018-04-21T06:27:11.000Z</time>
      </trkpt>
      <trkpt lat="40.819523" lon="-3.830133">
        <ele>2026.1</ele>
        <time>2018-04-21T06:27:12.000Z</time>
      </trkpt>
      <trkpt lat="40.819522" lon="-3.830132">
        <ele>2026.1</ele>
        <time>2018-04-21T06:27:13.000Z</time>
      </trkpt>
      <trkpt lat="40.819521" lon="-3.830132">
        <ele>2026.2</ele>
        <time>2018-04-21T06:27:14.000Z</time>
      </trkpt>
      <trkpt lat="40.81952" lon="-3.83013">
        <ele>2026.3</ele>
        <time>2018-04-21T06:27:15.000Z</time>
      </trkpt>
      <trkpt lat="40.819518" lon="-3.830127">
        <ele>2026.4</ele>
        <time>2018-04-21T06:27:16.000Z</time>
      </trkpt>
      <trkpt lat="40.819514" lon="-3.830124">
        <ele>2026.6</ele>
        <time>2018-04-21T06:27:17.000Z</time>
      </trkpt>
      <trkpt lat="40.819509" lon="-3.83012">
        <ele>2026.9</ele>
        <time>2018-04-21T06:27:18.000Z</time>
      </trkpt>
      <trkpt lat="40.819503" lon="-3.830116">
        <ele>2027.2</ele>
        <time>2018-04-21T06:27:19.000Z</time>
      </trkpt>
      <trkpt lat="40.819499" lon="-3.830112">
        <ele>2027.5</ele>
        <time>2018-04-21T06:27:20.000Z</time>
      </trkpt>
      <trkpt lat="40.819496" lon="-3.830109">
        <ele>2027.7</ele>
        <time>2018-04-21T06:27:21.000Z</time>
      </trkpt>
      <trkpt lat="40.819492" lon="-3.830106">
        <ele>2027.9</ele>
        <time>2018-04-21T06:27:22.000Z</time>
      </trkpt>
      <trkpt lat="40.819488" lon="-3.830104">
        <ele>2028.1</ele>
        <time>2018-04-21T06:27:23.000Z</time>
      </trkpt>
      <trkpt lat="40.819481" lon="-3.830103">
        <ele>2028.4</ele>
        <time>2018-04-21T06:27:24.000Z</time>
      </trkpt>
      <trkpt lat="40.819474" lon="-3.830102">
        <ele>2028.7</ele>
        <time>2018-04-21T06:27:25.000Z</time>
      </trkpt>
      <trkpt lat="40.819466" lon="-3.830101">
        <ele>2029.1</ele>
        <time>2018-04-21T06:27:26.000Z</time>
      </trkpt>
      <trkpt lat="40.819458" lon="-3.830101">
        <ele>2029.4</ele>
        <time>2018-04-21T06:27:27.000Z</time>
      </trkpt>
      <trkpt lat="40.81945" lon="-3.830101">
        <ele>2029.8</ele>
        <time>2018-04-21T06:27:28.000Z</time>
      </trkpt>
      <trkpt lat="40.819444" lon="-3.830102">
        <ele>2030.0</ele>
        <time>2018-04-21T06:27:29.000Z</time>
      </trkpt>
      <trkpt lat="40.819438" lon="-3.830103">
        <ele>2030.3</ele>
        <time>2018-04-21T06:27:30.000Z</time>
      </trkpt>
      <trkpt lat="40.819433" lon="-3.830105">
        <ele>2030.4</ele>
        <time>2018-04-21T06:27:31.000Z</time>
      </trkpt>
      <trkpt lat="40.819429" lon="-3.830106">
        <ele>2030.6</ele>
        <time>2018-04-21T06:27:32.000Z</time>
      </trkpt>
      <trkpt lat="40.819424" lon="-3.830107">
        <ele>2030.8</ele>
        <time>2018-04-21T06:27:33.000Z</time>
      </trkpt>
      <trkpt lat="40.81942" lon="-3.830108">
        <ele>2030.9</ele>
        <time>2018-04-21T06:27:34.000Z</time>
      </trkpt>
      <trkpt lat="40.819416" lon="-3.830108">
        <ele>2031.1</ele>
        <time>2018-04-21T06:27:35.000Z</time>
      </trkpt>
      <trkpt lat="40.819411" lon="-3.830108">
        <ele>2031.3</ele>
        <time>2018-04-21T06:27:36.000Z</time>
      </trkpt>
      <trkpt lat="40.819407" lon="-3.830107">
        <ele>2031.5</ele>
        <time>2018-04-21T06:27:37.000Z</time>
      </trkpt>
      <trkpt lat="40.819404" lon="-3.830105">
        <ele>2031.7</ele>
        <time>2018-04-21T06:27:38.000Z</time>
      </trkpt>
      <trkpt lat="40.8194" lon="-3.830102">
        <ele>2031.9</ele>
        <time>2018-04-21T06:27:39.000Z</time>
      </trkpt>
      <trkpt lat="40.819396" lon="-3.830098">
        <ele>2032.1</ele>
        <time>2018-04-21T06:27:40.000Z</time>
      </trkpt>
      <trkpt lat="40.819393" lon="-3.830093">
        <ele>2032.4</ele>
        <time>2018-04-21T06:27:41.000Z</time>
      </trkpt>
      <trkpt lat="40.81939" lon="-3.830087">
        <ele>2032.6</ele>
        <time>2018-04-21T06:27:42.000Z</time>
      </trkpt>
      <trkpt lat="40.819387" lon="-3.83008">
        <ele>2032.9</ele>
        <time>2018-04-21T06:27:43.000Z</time>
      </trkpt>
      <trkpt lat="40.819385" lon="-3.830072">
        <ele>2033.1</ele>
        <time>2018-04-21T06:27:44.000Z</time>
      </trkpt>
      <trkpt lat="40.819382" lon="-3.830065">
        <ele>2033.4</ele>
        <time>2018-04-21T06:27:45.000Z</time>
      </trkpt>
      <trkpt lat="40.819379" lon="-3.830057">
        <ele>2033.7</ele>
        <time>2018-04-21T06:27:46.000Z</time>
      </trkpt>
      <trkpt lat="40.819376" lon="-3.83005">
        <ele>2034.0</ele>
        <time>2018-04-21T06:27:47.000Z</time>
      </trkpt>
      <trkpt lat="40.819373" lon="-3.830045">
        <ele>2034.2</ele>
        <time>2018-04-21T06:27:48.000Z</time>
      </trkpt>
      <trkpt lat="40.819369" lon="-3.83004">
        <ele>2034.5</ele>
        <time>2018-04-21T06:27:49.000Z</time>
      </trkpt>
      <trkpt lat="40.819365" lon="-3.830038">
        <ele>2034.7</ele>
        <time>2018-04-21T06:27:50.000Z</time>
      </trkpt>
      <trkpt lat="40.81936" lon="-3.830038">
        <ele>2034.9</ele>
        <time>2018-04-21T06:27:51.000Z</time>
      </trkpt>
      <trkpt lat="40.819356" lon="-3.830039">
        <ele>2035.0</ele>
        <time>2018-04-21T06:27:52.000Z</time>
      </trkpt>
      <trkpt lat="40.819351" lon="-3.830042">
        <ele>2035.2</ele>
        <time>2018-04-21T06:27:53.000Z</time>
      </trkpt>
      <trkpt lat="40.819346" lon="-3.830046">
        <ele>2035.3</ele>
        <time>2018-04-21T06:27:54.000Z</time>
      </trkpt>
      <trkpt lat="40.819342" lon="-3.83005">
        <ele>2035.4</ele>
        <time>2018-04-21T06:27:55.000Z</time>
      </trkpt>
      <trkpt lat="40.819339" lon="-3.830053">
        <ele>2035.5</ele>
        <time>2018-04-21T06:27:56.000Z</time>
      </trkpt>
      <trkpt lat="40.819336" lon="-3.830057">
        <ele>2035.5</ele>
        <time>2018-04-21T06:27:57.000Z</time>
      </trkpt>
      <trkpt lat="40.819334" lon="-3.830059">
        <ele>2035.6</ele>
        <time>2018-04-21T06:27:58.000Z</time>
      </trkpt>
      <trkpt lat="40.819332" lon="-3.830061">
        <ele>2035.6</ele>
        <time>2018-04-21T06:27:59.000Z</time>
      </trkpt>
      <trkpt lat="40.819332" lon="-3.830062">
        <ele>2035.6</ele>
        <time>2018-04-21T06:28:00.000Z</time>
      </trkpt>
      <trkpt lat="40.819332" lon="-3.830062">
        <ele>2035.6</ele>
        <time>2018-04-21T06:28:01.000Z</time>
      </trkpt>
      <trkpt lat="40.819332" lon="-3.830062">
        <ele>2035.6</ele>
        <time>2018-04-21T06:28:02.000Z</time>
      </trkpt>
      <trkpt lat="40.819331" lon="-3.830061">
        <ele>2035.7</ele>
        <time>2018-04-21T06:28:03.000Z</time>
      </trkpt>
      <trkpt lat="40.81933" lon="-3.830061">
        <ele>2035.7</ele>
        <time>2018-04-21T06:28:04.000Z</time>
      </trkpt>
      <trkpt lat="40.819328" lon="-3.83006">
        <ele>2035.8</ele>
        <time>2018-04-21T06:28:05.000Z</time>
      </trkpt>
      <trkpt lat="40.819325" lon="-3.83006">
        <ele>2035.9</ele>
        <time>2018-04-21T06:28:06.000Z</time>
      </trkpt>
      <trkpt lat="40.81932" lon="-3.83006">
        <ele>2036.1</ele>
        <time>2018-04-21T06:28:07.000Z</time>
      </trkpt>
      <trkpt lat="40.819316" lon="-3.830059">
        <ele>2036.3</ele>
        <time>2018-04-21T06:28:08.000Z</time>
      </trkpt>
      <trkpt lat="40.81931" lon="-3.830057">
        <ele>2036.6</ele>
        <time>2018-04-21T06:28:09.000Z</time>
      </trkpt>
      <trkpt lat="40.819305" lon="-3.830055">
        <ele>2036.9</ele>
        <time>2018-04-21T06:28:10.000Z</time>
      </trkpt>
      <trkpt lat="40.819299" lon="-3.830053">
        <ele>2037.2</ele>
        <time>2018-04-21T06:28:11.000Z</time>
      </trkpt>
      <trkpt lat="40.819295" lon="-3.830052">
        <ele>2037.4</ele>
        <time>2018-04-21T06:28:12.000Z</time>
      </trkpt>
      <trkpt lat="40.819291" lon="-3.83005">
        <ele>2037.6</ele>
        <time>2018-04-21T06:28:13.000Z</time>
      </trkpt>
      <trkpt lat="40.819288" lon="-3.830049">
        <ele>2037.7</ele>
        <time>2018-04-21T06:28:14.000Z</time>
      </trkpt>
      <trkpt lat="40.819286" lon="-3.830049">
        <ele>2037.8</ele>
        <time>2018-04-21T06:28:15.000Z</time>
      </trkpt>
      <trkpt lat="40.819286" lon="-3.830049">
        <ele>2037.8</ele>
        <time>2018-04-21T06:28:16.000Z</time>
      </trkpt>
      <trkpt lat="40.819285" lon="-3.830049">
        <ele>2037.9</ele>
        <time>2018-04-21T06:28:17.000Z</time>
      </trkpt>
      <trkpt lat="40.819285" lon="-3.830049">
        <ele>2037.9</ele>
        <time>2018-04-21T06:28:18.000Z</time>
      </trkpt>
      <trkpt lat="40.819285" lon="-3.830049">
        <ele>2037.9</ele>
        <time>2018-04-21T06:28:19.000Z</time>
      </trkpt>
      <trkpt lat="40.819285" lon="-3.830049">
        <ele>2037.9</ele>
        <time>2018-04-21T06:28:20.000Z</time>
      </trkpt>
      <trkpt lat="40.819285" lon="-3.830049">
        <ele>2037.9</ele>
        <time>2018-04-21T06:28:21.000Z</time>
      </trkpt>
      <trkpt lat="40.819285" lon="-3.830049">
        <ele>2037.9</ele>
        <time>2018-04-21T06:28:22.000Z</time>
      </trkpt>
      <trkpt lat="40.819285" lon="-3.830049">
        <ele>2037.9</ele>
        <time>2018-04-21T06:28:23.000Z</time>
      </trkpt>
      <trkpt lat="40.819285" lon="-3.830049">
        <ele>2037.9</ele>
        <time>2018-04-21T06:28:24.000Z</time>
      </trkpt>
      <trkpt lat="40.819285" lon="-3.830048">
        <ele>2037.9</ele>
        <time>2018-04-21T06:28:25.000Z</time>
      </trkpt>
      <trkpt lat="40.819285" lon="-3.830048">
        <ele>2037.9</ele>
        <time>2018-04-21T06:28:26.000Z</time>
      </trkpt>
      <trkpt lat="40.819284" lon="-3.830048">
        <ele>2037.9</ele>
        <time>2018-04-21T06:28:27.000Z</time>
      </trkpt>
      <trkpt lat="40.819283" lon="-3.830048">
        <ele>2038.0</ele>
        <time>2018-04-21T06:28:28.000Z</time>
      </trkpt>
      <trkpt lat="40.819282" lon="-3.830047">
        <ele>2038.0</ele>
        <time>2018-04-21T06:28:29.000Z</time>
      </trkpt>
      <trkpt lat="40.81928" lon="-3.830046">
        <ele>2038.1</ele>
        <time>2018-04-21T06:28:30.000Z</time>
      </trkpt>
      <trkpt lat="40.819278" lon="-3.830045">
        <ele>2038.3</ele>
        <time>2018-04-21T06:28:31.000Z</time>
      </trkpt>
      <trkpt lat="40.819276" lon="-3.830043">
        <ele>2038.4</ele>
        <time>2018-04-21T06:28:32.000Z</time>
      </trkpt>
      <trkpt lat="40.819273" lon="-3.830041">
        <ele>2038.6</ele>
        <time>2018-04-21T06:28:33.000Z</time>
      </trkpt>
      <trkpt lat="40.81927" lon="-3.830039">
        <ele>2038.7</ele>
        <time>2018-04-21T06:28:34.000Z</time>
      </trkpt>
      <trkpt lat="40.819267" lon="-3.830036">
        <ele>2038.9</ele>
        <time>2018-04-21T06:28:35.000Z</time>
      </trkpt>
      <trkpt lat="40.819263" lon="-3.830032">
        <ele>2039.2</ele>
        <time>2018-04-21T06:28:36.000Z</time>
      </trkpt>
      <trkpt lat="40.81926" lon="-3.830028">
        <ele>2039.4</ele>
        <time>2018-04-21T06:28:37.000Z</time>
      </trkpt>
      <trkpt lat="40.819256" lon="-3.830024">
        <ele>2039.6</ele>
        <time>2018-04-21T06:28:38.000Z</time>
      </trkpt>
      <trkpt lat="40.819254" lon="-3.830021">
        <ele>2039.8</ele>
        <time>2018-04-21T06:28:39.000Z</time>
      </trkpt>
      <trkpt lat="40.819252" lon="-3.830019">
        <ele>2039.9</ele>
        <time>2018-04-21T06:28:40.000Z</time>
      </trkpt>
      <trkpt lat="40.819251" lon="-3.830018">
        <ele>2040.0</ele>
        <time>2018-04-21T06:28:41.000Z</time>
      </trkpt>
      <trkpt lat="40.819251" lon="-3.830018">
        <ele>2040.0</ele>
        <time>2018-04-21T06:28:42.000Z</time>
      </trkpt>
      <trkpt lat="40.819251" lon="-3.830018">
        <ele>2040.0</ele>
        <time>2018-04-21T06:28:43.000Z</time>
      </trkpt>
      <trkpt lat="40.81925" lon="-3.830018">
        <ele>2040.0</ele>
        <time>2018-04-21T06:28:44.000Z</time>
      </trkpt>
      <trkpt lat="40.819248" lon="-3.830017">
        <ele>2040.1</ele>
        <time>2018-04-21T06:28:45.000Z</time>
      </trkpt>
      <trkpt lat="40.819246" lon="-3.830016">
        <ele>2040.2</ele>
        <time>2018-04-21T06:28:46.000Z</time>
      </trkpt>
      <trkpt lat="40.819242" lon="-3.830013">
        <ele>2040.5</ele>
        <time>2018-04-21T06:28:47.000Z</time>
      </trkpt>
      <trkpt lat="40.819238" lon="-3.83001">
        <ele>2040.7</ele>
        <time>2018-04-21T06:28:48.000Z</time>
      </trkpt>
      <trkpt lat="40.819234" lon="-3.830007">
        <ele>2040.9</ele>
        <time>2018-04-21T06:28:49.000Z</time>
      </trkpt>
      <trkpt lat="40.81923" lon="-3.830003">
        <ele>2041.2</ele>
        <time>2018-04-21T06:28:50.000Z</time>
      </trkpt>
      <trkpt lat="40.819227" lon="-3.83">
        <ele>2041.4</ele>
        <time>2018-04-21T06:28:51.000Z</time>
      </trkpt>
      <trkpt lat="40.819225" lon="-3.829997">
        <ele>2041.5</ele>
        <time>2018-04-21T06:28:52.000Z</time>
      </trkpt>
      <trkpt lat="40.819224" lon="-3.829995">
        <ele>2041.5</ele>
        <time>2018-04-21T06:28:53.000Z</time>
      </trkpt>
      <trkpt lat="40.819224" lon="-3.829995">
        <ele>2041.5</ele>
        <time>2018-04-21T06:28:54.000Z</time>
      </trkpt>
      <trkpt lat="40.819223" lon="-3.829995">
        <ele>2041.5</ele>
        <time>2018-04-21T06:28:55.000Z</time>
      </trkpt>
      <trkpt lat="40.81922" lon="-3.829995">
        <ele>2041.7</ele>
        <time>2018-04-21T06:28:56.000Z</time>
      </trkpt>
      <trkpt lat="40.819214" lon="-3.829994">
        <ele>2041.9</ele>
        <time>2018-04-21T06:28:57.000Z</time>
      </trkpt>
      <trkpt lat="40.819206" lon="-3.829993">
        <ele>2042.2</ele>
        <time>2018-04-21T06:28:58.000Z</time>
      </trkpt>
      <trkpt lat="40.819201" lon="-3.829994">
        <ele>2042.5</ele>
        <time>2018-04-21T06:28:59.000Z</time>
      </trkpt>
      <trkpt lat="40.819197" lon="-3.829996">
        <ele>2042.7</ele>
        <time>2018-04-21T06:29:00.000Z</time>
      </trkpt>
      <trkpt lat="40.819194" lon="-3.829999">
        <ele>2042.8</ele>
        <time>2018-04-21T06:29:01.000Z</time>
      </trkpt>
      <trkpt lat="40.819192" lon="-3.830002">
        <ele>2042.9</ele>
        <time>2018-04-21T06:29:02.000Z</time>
      </trkpt>
      <trkpt lat="40.819189" lon="-3.830005">
        <ele>2042.9</ele>
        <time>2018-04-21T06:29:03.000Z</time>
      </trkpt>
      <trkpt lat="40.819186" lon="-3.830008">
        <ele>2043.0</ele>
        <time>2018-04-21T06:29:04.000Z</time>
      </trkpt>
      <trkpt lat="40.819182" lon="-3.83001">
        <ele>2043.1</ele>
        <time>2018-04-21T06:29:05.000Z</time>
      </trkpt>
      <trkpt lat="40.819179" lon="-3.830012">
        <ele>2043.2</ele>
        <time>2018-04-21T06:29:06.000Z</time>
      </trkpt>
      <trkpt lat="40.819175" lon="-3.830014">
        <ele>2043.3</ele>
        <time>2018-04-21T06:29:07.000Z</time>
      </trkpt>
      <trkpt lat="40.819171" lon="-3.830016">
        <ele>2043.5</ele>
        <time>2018-04-21T06:29:08.000Z</time>
      </trkpt>
      <trkpt lat="40.819168" lon="-3.830017">
        <ele>2043.6</ele>
        <time>2018-04-21T06:29:09.000Z</time>
      </trkpt>
      <trkpt lat="40.819166" lon="-3.830018">
        <ele>2043.6</ele>
        <time>2018-04-21T06:29:10.000Z</time>
      </trkpt>
      <trkpt lat="40.819164" lon="-3.830018">
        <ele>2043.7</ele>
        <time>2018-04-21T06:29:11.000Z</time>
      </trkpt>
      <trkpt lat="40.819162" lon="-3.830018">
        <ele>2043.8</ele>
        <time>2018-04-21T06:29:12.000Z</time>
      </trkpt>
      <trkpt lat="40.819162" lon="-3.830018">
        <ele>2043.8</ele>
        <time>2018-04-21T06:29:13.000Z</time>
      </trkpt>
      <trkpt lat="40.819162" lon="-3.830018">
        <ele>2043.8</ele>
        <time>2018-04-21T06:29:14.000Z</time>
      </trkpt>
      <trkpt lat="40.819162" lon="-3.830017">
        <ele>2043.8</ele>
        <time>2018-04-21T06:29:15.000Z</time>
      </trkpt>
      <trkpt lat="40.819162" lon="-3.830017">
        <ele>2043.8</ele>
        <time>2018-04-21T06:29:16.000Z</time>
      </trkpt>
      <trkpt lat="40.819162" lon="-3.830017">
        <ele>2043.8</ele>
        <time>2018-04-21T06:29:17.000Z</time>
      </trkpt>
      <trkpt lat="40.819162" lon="-3.830018">
        <ele>2043.8</ele>
        <time>2018-04-21T06:29:18.000Z</time>
      </trkpt>
      <trkpt lat="40.819162" lon="-3.830018">
        <ele>2043.8</ele>
        <time>2018-04-21T06:29:19.000Z</time>
      </trkpt>
      <trkpt lat="40.81916" lon="-3.83002">
        <ele>2043.8</ele>
        <time>2018-04-21T06:29:20.000Z</time>
      </trkpt>
      <trkpt lat="40.819159" lon="-3.830022">
        <ele>2043.8</ele>
        <time>2018-04-21T06:29:21.000Z</time>
      </trkpt>
      <trkpt lat="40.819156" lon="-3.830024">
        <ele>2043.8</ele>
        <time>2018-04-21T06:29:22.000Z</time>
      </trkpt>
      <trkpt lat="40.819154" lon="-3.830027">
        <ele>2043.8</ele>
        <time>2018-04-21T06:29:23.000Z</time>
      </trkpt>
      <trkpt lat="40.819151" lon="-3.830029">
        <ele>2043.9</ele>
        <time>2018-04-21T06:29:24.000Z</time>
      </trkpt>
      <trkpt lat="40.819149" lon="-3.830031">
        <ele>2043.9</ele>
        <time>2018-04-21T06:29:25.000Z</time>
      </trkpt>
      <trkpt lat="40.819148" lon="-3.830033">
        <ele>2043.9</ele>
        <time>2018-04-21T06:29:26.000Z</time>
      </trkpt>
      <trkpt lat="40.819147" lon="-3.830033">
        <ele>2043.9</ele>
        <time>2018-04-21T06:29:27.000Z</time>
      </trkpt>
      <trkpt lat="40.819147" lon="-3.830033">
        <ele>2043.9</ele>
        <time>2018-04-21T06:29:28.000Z</time>
      </trkpt>
      <trkpt lat="40.819147" lon="-3.830033">
        <ele>2043.9</ele>
        <time>2018-04-21T06:29:29.000Z</time>
      </trkpt>
      <trkpt lat="40.819147" lon="-3.830033">
        <ele>2043.9</ele>
        <time>2018-04-21T06:29:30.000Z</time>
      </trkpt>
      <trkpt lat="40.819147" lon="-3.830033">
        <ele>2043.9</ele>
        <time>2018-04-21T06:29:31.000Z</time>
      </trkpt>
      <trkpt lat="40.819147" lon="-3.830033">
        <ele>2043.9</ele>
        <time>2018-04-21T06:29:32.000Z</time>
      </trkpt>
      <trkpt lat="40.819147" lon="-3.830033">
        <ele>2043.9</ele>
        <time>2018-04-21T06:29:33.000Z</time>
      </trkpt>
      <trkpt lat="40.819147" lon="-3.830033">
        <ele>2043.9</ele>
        <time>2018-04-21T06:29:34.000Z</time>
      </trkpt>
      <trkpt lat="40.819147" lon="-3.830033">
        <ele>2043.9</ele>
        <time>2018-04-21T06:29:35.000Z</time>
      </trkpt>
      <trkpt lat="40.819147" lon="-3.830033">
        <ele>2043.9</ele>
        <time>2018-04-21T06:29:36.000Z</time>
      </trkpt>
      <trkpt lat="40.819147" lon="-3.830033">
        <ele>2043.9</ele>
        <time>2018-04-21T06:29:37.000Z</time>
      </trkpt>
      <trkpt lat="40.819147" lon="-3.830033">
        <ele>2043.9</ele>
        <time>2018-04-21T06:29:38.000Z</time>
      </trkpt>
      <trkpt lat="40.819147" lon="-3.830033">
        <ele>2043.9</ele>
        <time>2018-04-21T06:29:39.000Z</time>
      </trkpt>
      <trkpt lat="40.819146" lon="-3.830033">
        <ele>2043.9</ele>
        <time>2018-04-21T06:29:40.000Z</time>
      </trkpt>
      <trkpt lat="40.819146" lon="-3.830033">
        <ele>2043.9</ele>
        <time>2018-04-21T06:29:41.000Z</time>
      </trkpt>
      <trkpt lat="40.819145" lon="-3.830033">
        <ele>2044.0</ele>
        <time>2018-04-21T06:29:42.000Z</time>
      </trkpt>
      <trkpt lat="40.819144" lon="-3.830033">
        <ele>2044.0</ele>
        <time>2018-04-21T06:29:43.000Z</time>
      </trkpt>
      <trkpt lat="40.819142" lon="-3.830034">
        <ele>2044.0</ele>
        <time>2018-04-21T06:29:44.000Z</time>
      </trkpt>
      <trkpt lat="40.819139" lon="-3.830035">
        <ele>2044.1</ele>
        <time>2018-04-21T06:29:45.000Z</time>
      </trkpt>
      <trkpt lat="40.819135" lon="-3.830036">
        <ele>2044.2</ele>
        <time>2018-04-21T06:29:46.000Z</time>
      </trkpt>
      <trkpt lat="40.819131" lon="-3.830038">
        <ele>2044.3</ele>
        <time>2018-04-21T06:29:47.000Z</time>
      </trkpt>
      <trkpt lat="40.819126" lon="-3.83004">
        <ele>2044.4</ele>
        <time>2018-04-21T06:29:48.000Z</time>
      </trkpt>
      <trkpt lat="40.81912" lon="-3.830043">
        <ele>2044.5</ele>
        <time>2018-04-21T06:29:49.000Z</time>
      </trkpt>
      <trkpt lat="40.819114" lon="-3.830045">
        <ele>2044.7</ele>
        <time>2018-04-21T06:29:50.000Z</time>
      </trkpt>
      <trkpt lat="40.819109" lon="-3.830047">
        <ele>2044.8</ele>
        <time>2018-04-21T06:29:51.000Z</time>
      </trkpt>
      <trkpt lat="40.819105" lon="-3.830048">
        <ele>2044.9</ele>
        <time>2018-04-21T06:29:52.000Z</time>
      </trkpt>
      <trkpt lat="40.819102" lon="-3.830048">
        <ele>2045.0</ele>
        <time>2018-04-21T06:29:53.000Z</time>
      </trkpt>
      <trkpt lat="40.819101" lon="-3.830048">
        <ele>2045.0</ele>
        <time>2018-04-21T06:29:54.000Z</time>
      </trkpt>
      <trkpt lat="40.8191" lon="-3.830047">
        <ele>2045.1</ele>
        <time>2018-04-21T06:29:55.000Z</time>
      </trkpt>
      <trkpt lat="40.8191" lon="-3.830046">
        <ele>2045.1</ele>
        <time>2018-04-21T06:29:56.000Z</time>
      </trkpt>
      <trkpt lat="40.819101" lon="-3.830046">
        <ele>2045.1</ele>
        <time>2018-04-21T06:29:57.000Z</time>
      </trkpt>
      <trkpt lat="40.819101" lon="-3.830046">
        <ele>2045.1</ele>
        <time>2018-04-21T06:29:58.000Z</time>
      </trkpt>
      <trkpt lat="40.8191" lon="-3.830046">
        <ele>2045.1</ele>
        <time>2018-04-21T06:29:59.000Z</time>
      </trkpt>
      <trkpt lat="40.819099" lon="-3.830045">
        <ele>2045.2</ele>
        <time>2018-04-21T06:30:00.000Z</time>
      </trkpt>
      <trkpt lat="40.819096" lon="-3.830043">
        <ele>2045.3</ele>
        <time>2018-04-21T06:30:01.000Z</time>
      </trkpt>
      <trkpt lat="40.819092" lon="-3.830039">
        <ele>2045.5</ele>
        <time>2018-04-21T06:30:02.000Z</time>
      </trkpt>
      <trkpt lat="40.819088" lon="-3.830034">
        <ele>2045.7</ele>
        <time>2018-04-21T06:30:03.000Z</time>
      </trkpt>
      <trkpt lat="40.819083" lon="-3.83003">
        <ele>2046.0</ele>
        <time>2018-04-21T06:30:04.000Z</time>
      </trkpt>
      <trkpt lat="40.819079" lon="-3.830026">
        <ele>2046.2</ele>
        <time>2018-04-21T06:30:05.000Z</time>
      </trkpt>
      <trkpt lat="40.819077" lon="-3.830023">
        <ele>2046.3</ele>
        <time>2018-04-21T06:30:06.000Z</time>
      </trkpt>
      <trkpt lat="40.819075" lon="-3.830021">
        <ele>2046.4</ele>
        <time>2018-04-21T06:30:07.000Z</time>
      </trkpt>
      <trkpt lat="40.819075" lon="-3.83002">
        <ele>2046.4</ele>
        <time>2018-04-21T06:30:08.000Z</time>
      </trkpt>
      <trkpt lat="40.819074" lon="-3.83002">
        <ele>2046.5</ele>
        <time>2018-04-21T06:30:09.000Z</time>
      </trkpt>
      <trkpt lat="40.819074" lon="-3.83002">
        <ele>2046.5</ele>
        <time>2018-04-21T06:30:10.000Z</time>
      </trkpt>
      <trkpt lat="40.819074" lon="-3.830019">
        <ele>2046.5</ele>
        <time>2018-04-21T06:30:11.000Z</time>
      </trkpt>
      <trkpt lat="40.819074" lon="-3.830019">
        <ele>2046.5</ele>
        <time>2018-04-21T06:30:12.000Z</time>
      </trkpt>
      <trkpt lat="40.819074" lon="-3.830018">
        <ele>2046.5</ele>
        <time>2018-04-21T06:30:13.000Z</time>
      </trkpt>
      <trkpt lat="40.819073" lon="-3.830017">
        <ele>2046.6</ele>
        <time>2018-04-21T06:30:14.000Z</time>
      </trkpt>
      <trkpt lat="40.819073" lon="-3.830017">
        <ele>2046.6</ele>
        <time>2018-04-21T06:30:15.000Z</time>
      </trkpt>
      <trkpt lat="40.819073" lon="-3.830017">
        <ele>2046.6</ele>
        <time>2018-04-21T06:30:16.000Z</time>
      </trkpt>
      <trkpt lat="40.819073" lon="-3.830016">
        <ele>2046.6</ele>
        <time>2018-04-21T06:30:17.000Z</time>
      </trkpt>
      <trkpt lat="40.819073" lon="-3.830016">
        <ele>2046.6</ele>
        <time>2018-04-21T06:30:18.000Z</time>
      </trkpt>
      <trkpt lat="40.819073" lon="-3.830016">
        <ele>2046.6</ele>
        <time>2018-04-21T06:30:19.000Z</time>
      </trkpt>
      <trkpt lat="40.819073" lon="-3.830016">
        <ele>2046.6</ele>
        <time>2018-04-21T06:30:20.000Z</time>
      </trkpt>
      <trkpt lat="40.819072" lon="-3.830016">
        <ele>2046.6</ele>
        <time>2018-04-21T06:30:21.000Z</time>
      </trkpt>
      <trkpt lat="40.819072" lon="-3.830016">
        <ele>2046.6</ele>
        <time>2018-04-21T06:30:22.000Z</time>
      </trkpt>
      <trkpt lat="40.819072" lon="-3.830016">
        <ele>2046.6</ele>
        <time>2018-04-21T06:30:23.000Z</time>
      </trkpt>
      <trkpt lat="40.819072" lon="-3.830016">
        <ele>2046.6</ele>
        <time>2018-04-21T06:30:24.000Z</time>
      </trkpt>
      <trkpt lat="40.819072" lon="-3.830016">
        <ele>2046.6</ele>
        <time>2018-04-21T06:30:25.000Z</time>
      </trkpt>
      <trkpt lat="40.819072" lon="-3.830015">
        <ele>2046.6</ele>
        <time>2018-04-21T06:30:26.000Z</time>
      </trkpt>
      <trkpt lat="40.819071" lon="-3.830013">
        <ele>2046.7</ele>
        <time>2018-04-21T06:30:27.000Z</time>
      </trkpt>
      <trkpt lat="40.819069" lon="-3.830011">
        <ele>2046.8</ele>
        <time>2018-04-21T06:30:28.000Z</time>
      </trkpt>
      <trkpt lat="40.819066" lon="-3.830007">
        <ele>2047.0</ele>
        <time>2018-04-21T06:30:29.000Z</time>
      </trkpt>
      <trkpt lat="40.819063" lon="-3.830003">
        <ele>2047.2</ele>
        <time>2018-04-21T06:30:30.000Z</time>
      </trkpt>
      <trkpt lat="40.81906" lon="-3.829999">
        <ele>2047.3</ele>
        <time>2018-04-21T06:30:31.000Z</time>
      </trkpt>
      <trkpt lat="40.819056" lon="-3.829995">
        <ele>2047.4</ele>
        <time>2018-04-21T06:30:32.000Z</time>
      </trkpt>
      <trkpt lat="40.819053" lon="-3.829993">
        <ele>2047.5</ele>
        <time>2018-04-21T06:30:33.000Z</time>
      </trkpt>
      <trkpt lat="40.81905" lon="-3.829992">
        <ele>2047.6</ele>
        <time>2018-04-21T06:30:34.000Z</time>
      </trkpt>
      <trkpt lat="40.819049" lon="-3.829992">
        <ele>2047.6</ele>
        <time>2018-04-21T06:30:35.000Z</time>
      </trkpt>
      <trkpt lat="40.819047" lon="-3.829992">
        <ele>2047.7</ele>
        <time>2018-04-21T06:30:36.000Z</time>
      </trkpt>
      <trkpt lat="40.819028" lon="-3.82999">
        <ele>2048.2</ele>
        <time>2018-04-21T06:30:37.000Z</time>
      </trkpt>
      <trkpt lat="40.819001" lon="-3.829989">
        <ele>2049.1</ele>
        <time>2018-04-21T06:30:38.000Z</time>
      </trkpt>
      <trkpt lat="40.818981" lon="-3.829992">
        <ele>2049.7</ele>
        <time>2018-04-21T06:33:18.000Z</time>
      </trkpt>
      <trkpt lat="40.818961" lon="-3.829994">
        <ele>2050.4</ele>
        <time>2018-04-21T06:36:51.000Z</time>
      </trkpt>
      <trkpt lat="40.818949" lon="-3.829995">
        <ele>2050.7</ele>
        <time>2018-04-21T06:36:52.000Z</time>
      </trkpt>
      <trkpt lat="40.818943" lon="-3.829997">
        <ele>2050.9</ele>
        <time>2018-04-21T06:36:53.000Z</time>
      </trkpt>
      <trkpt lat="40.81894" lon="-3.829997">
        <ele>2051.0</ele>
        <time>2018-04-21T06:36:54.000Z</time>
      </trkpt>
      <trkpt lat="40.818937" lon="-3.829998">
        <ele>2051.1</ele>
        <time>2018-04-21T06:36:55.000Z</time>
      </trkpt>
      <trkpt lat="40.818936" lon="-3.829998">
        <ele>2051.2</ele>
        <time>2018-04-21T06:36:56.000Z</time>
      </trkpt>
      <trkpt lat="40.818935" lon="-3.829998">
        <ele>2051.2</ele>
        <time>2018-04-21T06:36:57.000Z</time>
      </trkpt>
      <trkpt lat="40.818935" lon="-3.829998">
        <ele>2051.2</ele>
        <time>2018-04-21T06:36:58.000Z</time>
      </trkpt>
      <trkpt lat="40.818935" lon="-3.829998">
        <ele>2051.2</ele>
        <time>2018-04-21T06:36:59.000Z</time>
      </trkpt>
      <trkpt lat="40.818935" lon="-3.829998">
        <ele>2051.2</ele>
        <time>2018-04-21T06:37:00.000Z</time>
      </trkpt>
      <trkpt lat="40.818935" lon="-3.829998">
        <ele>2051.2</ele>
        <time>2018-04-21T06:37:01.000Z</time>
      </trkpt>
      <trkpt lat="40.818934" lon="-3.829999">
        <ele>2051.2</ele>
        <time>2018-04-21T06:37:02.000Z</time>
      </trkpt>
      <trkpt lat="40.818933" lon="-3.829999">
        <ele>2051.3</ele>
        <time>2018-04-21T06:37:03.000Z</time>
      </trkpt>
      <trkpt lat="40.818931" lon="-3.829999">
        <ele>2051.3</ele>
        <time>2018-04-21T06:37:04.000Z</time>
      </trkpt>
      <trkpt lat="40.818928" lon="-3.829997">
        <ele>2051.4</ele>
        <time>2018-04-21T06:37:05.000Z</time>
      </trkpt>
      <trkpt lat="40.818922" lon="-3.829994">
        <ele>2051.6</ele>
        <time>2018-04-21T06:37:06.000Z</time>
      </trkpt>
      <trkpt lat="40.818916" lon="-3.82999">
        <ele>2051.7</ele>
        <time>2018-04-21T06:37:07.000Z</time>
      </trkpt>
      <trkpt lat="40.81891" lon="-3.829989">
        <ele>2051.9</ele>
        <time>2018-04-21T06:37:08.000Z</time>
      </trkpt>
      <trkpt lat="40.818904" lon="-3.82999">
        <ele>2052.1</ele>
        <time>2018-04-21T06:37:09.000Z</time>
      </trkpt>
      <trkpt lat="40.818898" lon="-3.829993">
        <ele>2052.3</ele>
        <time>2018-04-21T06:37:10.000Z</time>
      </trkpt>
      <trkpt lat="40.818895" lon="-3.829995">
        <ele>2052.4</ele>
        <time>2018-04-21T06:37:11.000Z</time>
      </trkpt>
      <trkpt lat="40.818892" lon="-3.829998">
        <ele>2052.5</ele>
        <time>2018-04-21T06:37:12.000Z</time>
      </trkpt>
      <trkpt lat="40.818891" lon="-3.83">
        <ele>2052.6</ele>
        <time>2018-04-21T06:37:13.000Z</time>
      </trkpt>
      <trkpt lat="40.818889" lon="-3.830001">
        <ele>2052.6</ele>
        <time>2018-04-21T06:37:14.000Z</time>
      </trkpt>
      <trkpt lat="40.818887" lon="-3.830003">
        <ele>2052.7</ele>
        <time>2018-04-21T06:37:15.000Z</time>
      </trkpt>
      <trkpt lat="40.818882" lon="-3.830006">
        <ele>2052.8</ele>
        <time>2018-04-21T06:37:16.000Z</time>
      </trkpt>
      <trkpt lat="40.818875" lon="-3.830008">
        <ele>2053.0</ele>
        <time>2018-04-21T06:37:17.000Z</time>
      </trkpt>
      <trkpt lat="40.818866" lon="-3.830011">
        <ele>2053.2</ele>
        <time>2018-04-21T06:37:18.000Z</time>
      </trkpt>
      <trkpt lat="40.818857" lon="-3.830014">
        <ele>2053.4</ele>
        <time>2018-04-21T06:37:19.000Z</time>
      </trkpt>
      <trkpt lat="40.818848" lon="-3.830016">
        <ele>2053.6</ele>
        <time>2018-04-21T06:37:20.000Z</time>
      </trkpt>
      <trkpt lat="40.818841" lon="-3.830018">
        <ele>2053.8</ele>
        <time>2018-04-21T06:37:21.000Z</time>
      </trkpt>
      <trkpt lat="40.818836" lon="-3.83002">
        <ele>2054.0</ele>
        <time>2018-04-21T06:37:22.000Z</time>
      </trkpt>
      <trkpt lat="40.818832" lon="-3.830021">
        <ele>2054.1</ele>
        <time>2018-04-21T06:37:23.000Z</time>
      </trkpt>
      <trkpt lat="40.81883" lon="-3.830022">
        <ele>2054.1</ele>
        <time>2018-04-21T06:37:24.000Z</time>
      </trkpt>
      <trkpt lat="40.818828" lon="-3.830022">
        <ele>2054.2</ele>
        <time>2018-04-21T06:37:25.000Z</time>
      </trkpt>
      <trkpt lat="40.818828" lon="-3.830022">
        <ele>2054.2</ele>
        <time>2018-04-21T06:37:26.000Z</time>
      </trkpt>
      <trkpt lat="40.818828" lon="-3.830022">
        <ele>2054.2</ele>
        <time>2018-04-21T06:37:27.000Z</time>
      </trkpt>
      <trkpt lat="40.818828" lon="-3.830022">
        <ele>2054.2</ele>
        <time>2018-04-21T06:37:28.000Z</time>
      </trkpt>
      <trkpt lat="40.818829" lon="-3.830022">
        <ele>2054.1</ele>
        <time>2018-04-21T06:37:29.000Z</time>
      </trkpt>
      <trkpt lat="40.818829" lon="-3.830022">
        <ele>2054.1</ele>
        <time>2018-04-21T06:37:30.000Z</time>
      </trkpt>
      <trkpt lat="40.81883" lon="-3.830022">
        <ele>2054.1</ele>
        <time>2018-04-21T06:37:31.000Z</time>
      </trkpt>
      <trkpt lat="40.81883" lon="-3.830022">
        <ele>2054.1</ele>
        <time>2018-04-21T06:37:32.000Z</time>
      </trkpt>
      <trkpt lat="40.818829" lon="-3.830023">
        <ele>2054.1</ele>
        <time>2018-04-21T06:37:33.000Z</time>
      </trkpt>
      <trkpt lat="40.818828" lon="-3.830024">
        <ele>2054.1</ele>
        <time>2018-04-21T06:37:34.000Z</time>
      </trkpt>
      <trkpt lat="40.818825" lon="-3.830025">
        <ele>2054.2</ele>
        <time>2018-04-21T06:37:35.000Z</time>
      </trkpt>
      <trkpt lat="40.818821" lon="-3.830027">
        <ele>2054.3</ele>
        <time>2018-04-21T06:37:36.000Z</time>
      </trkpt>
      <trkpt lat="40.818816" lon="-3.83003">
        <ele>2054.4</ele>
        <time>2018-04-21T06:37:37.000Z</time>
      </trkpt>
      <trkpt lat="40.81881" lon="-3.830033">
        <ele>2054.5</ele>
        <time>2018-04-21T06:37:38.000Z</time>
      </trkpt>
      <trkpt lat="40.818801" lon="-3.830038">
        <ele>2054.7</ele>
        <time>2018-04-21T06:37:39.000Z</time>
      </trkpt>
      <trkpt lat="40.818791" lon="-3.830043">
        <ele>2055.0</ele>
        <time>2018-04-21T06:37:40.000Z</time>
      </trkpt>
      <trkpt lat="40.81878" lon="-3.830048">
        <ele>2055.2</ele>
        <time>2018-04-21T06:37:41.000Z</time>
      </trkpt>
      <trkpt lat="40.818769" lon="-3.830054">
        <ele>2055.5</ele>
        <time>2018-04-21T06:37:42.000Z</time>
      </trkpt>
      <trkpt lat="40.818756" lon="-3.830061">
        <ele>2055.7</ele>
        <time>2018-04-21T06:37:43.000Z</time>
      </trkpt>
      <trkpt lat="40.818744" lon="-3.830069">
        <ele>2056.0</ele>
        <time>2018-04-21T06:37:44.000Z</time>
      </trkpt>
      <trkpt lat="40.818732" lon="-3.830076">
        <ele>2056.3</ele>
        <time>2018-04-21T06:37:45.000Z</time>
      </trkpt>
      <trkpt lat="40.81872" lon="-3.830084">
        <ele>2056.5</ele>
        <time>2018-04-21T06:37:46.000Z</time>
      </trkpt>
      <trkpt lat="40.818709" lon="-3.830093">
        <ele>2056.7</ele>
        <time>2018-04-21T06:37:47.000Z</time>
      </trkpt>
      <trkpt lat="40.818699" lon="-3.830101">
        <ele>2056.9</ele>
        <time>2018-04-21T06:37:48.000Z</time>
      </trkpt>
      <trkpt lat="40.81869" lon="-3.83011">
        <ele>2057.0</ele>
        <time>2018-04-21T06:37:49.000Z</time>
      </trkpt>
      <trkpt lat="40.818682" lon="-3.830119">
        <ele>2057.1</ele>
        <time>2018-04-21T06:37:50.000Z</time>
      </trkpt>
      <trkpt lat="40.818675" lon="-3.830128">
        <ele>2057.2</ele>
        <time>2018-04-21T06:37:51.000Z</time>
      </trkpt>
      <trkpt lat="40.818668" lon="-3.830137">
        <ele>2057.3</ele>
        <time>2018-04-21T06:37:52.000Z</time>
      </trkpt>
      <trkpt lat="40.818662" lon="-3.830147">
        <ele>2057.3</ele>
        <time>2018-04-21T06:37:53.000Z</time>
      </trkpt>
      <trkpt lat="40.818655" lon="-3.830156">
        <ele>2057.4</ele>
        <time>2018-04-21T06:37:54.000Z</time>
      </trkpt>
      <trkpt lat="40.818649" lon="-3.830165">
        <ele>2057.4</ele>
        <time>2018-04-21T06:37:55.000Z</time>
      </trkpt>
      <trkpt lat="40.818643" lon="-3.830175">
        <ele>2057.5</ele>
        <time>2018-04-21T06:37:56.000Z</time>
      </trkpt>
      <trkpt lat="40.818636" lon="-3.830184">
        <ele>2057.6</ele>
        <time>2018-04-21T06:37:57.000Z</time>
      </trkpt>
      <trkpt lat="40.818629" lon="-3.830194">
        <ele>2057.6</ele>
        <time>2018-04-21T06:37:58.000Z</time>
      </trkpt>
      <trkpt lat="40.818622" lon="-3.830203">
        <ele>2057.7</ele>
        <time>2018-04-21T06:37:59.000Z</time>
      </trkpt>
      <trkpt lat="40.818615" lon="-3.830211">
        <ele>2057.8</ele>
        <time>2018-04-21T06:38:00.000Z</time>
      </trkpt>
      <trkpt lat="40.818607" lon="-3.83022">
        <ele>2058.0</ele>
        <time>2018-04-21T06:38:01.000Z</time>
      </trkpt>
      <trkpt lat="40.818599" lon="-3.830227">
        <ele>2058.1</ele>
        <time>2018-04-21T06:38:02.000Z</time>
      </trkpt>
      <trkpt lat="40.818591" lon="-3.830234">
        <ele>2058.3</ele>
        <time>2018-04-21T06:38:03.000Z</time>
      </trkpt>
      <trkpt lat="40.818583" lon="-3.83024">
        <ele>2058.4</ele>
        <time>2018-04-21T06:38:04.000Z</time>
      </trkpt>
      <trkpt lat="40.818574" lon="-3.830244">
        <ele>2058.7</ele>
        <time>2018-04-21T06:38:05.000Z</time>
      </trkpt>
      <trkpt lat="40.818565" lon="-3.830248">
        <ele>2058.9</ele>
        <time>2018-04-21T06:38:06.000Z</time>
      </trkpt>
      <trkpt lat="40.818556" lon="-3.83025">
        <ele>2059.2</ele>
        <time>2018-04-21T06:38:07.000Z</time>
      </trkpt>
      <trkpt lat="40.818546" lon="-3.830251">
        <ele>2059.5</ele>
        <time>2018-04-21T06:38:08.000Z</time>
      </trkpt>
      <trkpt lat="40.818537" lon="-3.830252">
        <ele>2059.8</ele>
        <time>2018-04-21T06:38:09.000Z</time>
      </trkpt>
      <trkpt lat="40.818527" lon="-3.830252">
        <ele>2060.1</ele>
        <time>2018-04-21T06:38:10.000Z</time>
      </trkpt>
      <trkpt lat="40.818517" lon="-3.830252">
        <ele>2060.5</ele>
        <time>2018-04-21T06:38:11.000Z</time>
      </trkpt>
      <trkpt lat="40.818506" lon="-3.830251">
        <ele>2060.9</ele>
        <time>2018-04-21T06:38:12.000Z</time>
      </trkpt>
      <trkpt lat="40.818496" lon="-3.830251">
        <ele>2061.2</ele>
        <time>2018-04-21T06:38:13.000Z</time>
      </trkpt>
      <trkpt lat="40.818485" lon="-3.83025">
        <ele>2061.6</ele>
        <time>2018-04-21T06:38:14.000Z</time>
      </trkpt>
      <trkpt lat="40.818474" lon="-3.83025">
        <ele>2062.0</ele>
        <time>2018-04-21T06:38:15.000Z</time>
      </trkpt>
      <trkpt lat="40.818464" lon="-3.83025">
        <ele>2062.3</ele>
        <time>2018-04-21T06:38:16.000Z</time>
      </trkpt>
      <trkpt lat="40.818453" lon="-3.830251">
        <ele>2062.7</ele>
        <time>2018-04-21T06:38:17.000Z</time>
      </trkpt>
      <trkpt lat="40.818442" lon="-3.830252">
        <ele>2063.0</ele>
        <time>2018-04-21T06:38:18.000Z</time>
      </trkpt>
      <trkpt lat="40.818431" lon="-3.830253">
        <ele>2063.4</ele>
        <time>2018-04-21T06:38:19.000Z</time>
      </trkpt>
      <trkpt lat="40.81842" lon="-3.830254">
        <ele>2063.7</ele>
        <time>2018-04-21T06:38:20.000Z</time>
      </trkpt>
      <trkpt lat="40.818409" lon="-3.830256">
        <ele>2064.1</ele>
        <time>2018-04-21T06:38:21.000Z</time>
      </trkpt>
      <trkpt lat="40.818399" lon="-3.830259">
        <ele>2064.4</ele>
        <time>2018-04-21T06:38:22.000Z</time>
      </trkpt>
      <trkpt lat="40.818389" lon="-3.830262">
        <ele>2064.7</ele>
        <time>2018-04-21T06:38:23.000Z</time>
      </trkpt>
      <trkpt lat="40.818379" lon="-3.830265">
        <ele>2065.0</ele>
        <time>2018-04-21T06:38:24.000Z</time>
      </trkpt>
      <trkpt lat="40.818369" lon="-3.830269">
        <ele>2065.2</ele>
        <time>2018-04-21T06:38:25.000Z</time>
      </trkpt>
      <trkpt lat="40.81836" lon="-3.830273">
        <ele>2065.5</ele>
        <time>2018-04-21T06:38:26.000Z</time>
      </trkpt>
      <trkpt lat="40.818352" lon="-3.830278">
        <ele>2065.7</ele>
        <time>2018-04-21T06:38:27.000Z</time>
      </trkpt>
      <trkpt lat="40.818344" lon="-3.830282">
        <ele>2065.9</ele>
        <time>2018-04-21T06:38:28.000Z</time>
      </trkpt>
      <trkpt lat="40.818336" lon="-3.830287">
        <ele>2066.1</ele>
        <time>2018-04-21T06:38:29.000Z</time>
      </trkpt>
      <trkpt lat="40.818329" lon="-3.830292">
        <ele>2066.2</ele>
        <time>2018-04-21T06:38:30.000Z</time>
      </trkpt>
      <trkpt lat="40.818322" lon="-3.830296">
        <ele>2066.2</ele>
        <time>2018-04-21T06:38:31.000Z</time>
      </trkpt>
      <trkpt lat="40.818316" lon="-3.8303">
        <ele>2066.2</ele>
        <time>2018-04-21T06:38:32.000Z</time>
      </trkpt>
      <trkpt lat="40.818311" lon="-3.830304">
        <ele>2066.2</ele>
        <time>2018-04-21T06:38:33.000Z</time>
      </trkpt>
      <trkpt lat="40.818306" lon="-3.830308">
        <ele>2066.2</ele>
        <time>2018-04-21T06:38:34.000Z</time>
      </trkpt>
      <trkpt lat="40.818301" lon="-3.830312">
        <ele>2066.2</ele>
        <time>2018-04-21T06:38:35.000Z</time>
      </trkpt>
      <trkpt lat="40.818297" lon="-3.830315">
        <ele>2066.2</ele>
        <time>2018-04-21T06:38:36.000Z</time>
      </trkpt>
      <trkpt lat="40.818292" lon="-3.830317">
        <ele>2066.3</ele>
        <time>2018-04-21T06:38:37.000Z</time>
      </trkpt>
      <trkpt lat="40.818288" lon="-3.83032">
        <ele>2066.3</ele>
        <time>2018-04-21T06:38:38.000Z</time>
      </trkpt>
      <trkpt lat="40.818283" lon="-3.830322">
        <ele>2066.3</ele>
        <time>2018-04-21T06:38:39.000Z</time>
      </trkpt>
      <trkpt lat="40.818278" lon="-3.830323">
        <ele>2066.3</ele>
        <time>2018-04-21T06:38:40.000Z</time>
      </trkpt>
      <trkpt lat="40.818272" lon="-3.830324">
        <ele>2066.4</ele>
        <time>2018-04-21T06:38:41.000Z</time>
      </trkpt>
      <trkpt lat="40.818266" lon="-3.830325">
        <ele>2066.4</ele>
        <time>2018-04-21T06:38:42.000Z</time>
      </trkpt>
      <trkpt lat="40.818259" lon="-3.830326">
        <ele>2066.5</ele>
        <time>2018-04-21T06:38:43.000Z</time>
      </trkpt>
      <trkpt lat="40.818252" lon="-3.830326">
        <ele>2066.6</ele>
        <time>2018-04-21T06:38:44.000Z</time>
      </trkpt>
      <trkpt lat="40.818245" lon="-3.830327">
        <ele>2066.7</ele>
        <time>2018-04-21T06:38:45.000Z</time>
      </trkpt>
      <trkpt lat="40.818238" lon="-3.830328">
        <ele>2066.7</ele>
        <time>2018-04-21T06:38:46.000Z</time>
      </trkpt>
      <trkpt lat="40.818232" lon="-3.83033">
        <ele>2066.8</ele>
        <time>2018-04-21T06:38:47.000Z</time>
      </trkpt>
      <trkpt lat="40.818226" lon="-3.830333">
        <ele>2066.8</ele>
        <time>2018-04-21T06:38:48.000Z</time>
      </trkpt>
      <trkpt lat="40.818221" lon="-3.830336">
        <ele>2066.8</ele>
        <time>2018-04-21T06:38:49.000Z</time>
      </trkpt>
      <trkpt lat="40.818217" lon="-3.830341">
        <ele>2066.8</ele>
        <time>2018-04-21T06:38:50.000Z</time>
      </trkpt>
      <trkpt lat="40.818214" lon="-3.830347">
        <ele>2066.8</ele>
        <time>2018-04-21T06:38:51.000Z</time>
      </trkpt>
      <trkpt lat="40.818212" lon="-3.830354">
        <ele>2066.7</ele>
        <time>2018-04-21T06:38:52.000Z</time>
      </trkpt>
      <trkpt lat="40.81821" lon="-3.830361">
        <ele>2066.6</ele>
        <time>2018-04-21T06:38:53.000Z</time>
      </trkpt>
      <trkpt lat="40.818208" lon="-3.830369">
        <ele>2066.6</ele>
        <time>2018-04-21T06:38:54.000Z</time>
      </trkpt>
      <trkpt lat="40.818205" lon="-3.830375">
        <ele>2066.5</ele>
        <time>2018-04-21T06:38:55.000Z</time>
      </trkpt>
      <trkpt lat="40.818201" lon="-3.830381">
        <ele>2066.5</ele>
        <time>2018-04-21T06:38:56.000Z</time>
      </trkpt>
      <trkpt lat="40.818196" lon="-3.830386">
        <ele>2066.5</ele>
        <time>2018-04-21T06:38:57.000Z</time>
      </trkpt>
      <trkpt lat="40.81819" lon="-3.830389">
        <ele>2066.5</ele>
        <time>2018-04-21T06:38:58.000Z</time>
      </trkpt>
      <trkpt lat="40.818184" lon="-3.830391">
        <ele>2066.6</ele>
        <time>2018-04-21T06:38:59.000Z</time>
      </trkpt>
      <trkpt lat="40.818179" lon="-3.830391">
        <ele>2066.6</ele>
        <time>2018-04-21T06:39:00.000Z</time>
      </trkpt>
      <trkpt lat="40.818173" lon="-3.830392">
        <ele>2066.7</ele>
        <time>2018-04-21T06:39:01.000Z</time>
      </trkpt>
      <trkpt lat="40.818168" lon="-3.830392">
        <ele>2066.8</ele>
        <time>2018-04-21T06:39:02.000Z</time>
      </trkpt>
      <trkpt lat="40.818163" lon="-3.830393">
        <ele>2066.8</ele>
        <time>2018-04-21T06:39:03.000Z</time>
      </trkpt>
      <trkpt lat="40.818158" lon="-3.830395">
        <ele>2066.8</ele>
        <time>2018-04-21T06:39:04.000Z</time>
      </trkpt>
      <trkpt lat="40.818153" lon="-3.830399">
        <ele>2066.9</ele>
        <time>2018-04-21T06:39:05.000Z</time>
      </trkpt>
      <trkpt lat="40.818149" lon="-3.830405">
        <ele>2066.8</ele>
        <time>2018-04-21T06:39:06.000Z</time>
      </trkpt>
      <trkpt lat="40.818145" lon="-3.83041">
        <ele>2066.8</ele>
        <time>2018-04-21T06:39:07.000Z</time>
      </trkpt>
      <trkpt lat="40.818142" lon="-3.830414">
        <ele>2066.8</ele>
        <time>2018-04-21T06:39:08.000Z</time>
      </trkpt>
      <trkpt lat="40.818138" lon="-3.830416">
        <ele>2066.9</ele>
        <time>2018-04-21T06:39:09.000Z</time>
      </trkpt>
      <trkpt lat="40.818134" lon="-3.830416">
        <ele>2066.9</ele>
        <time>2018-04-21T06:39:10.000Z</time>
      </trkpt>
      <trkpt lat="40.818131" lon="-3.830415">
        <ele>2066.9</ele>
        <time>2018-04-21T06:39:11.000Z</time>
      </trkpt>
      <trkpt lat="40.818128" lon="-3.830412">
        <ele>2067.0</ele>
        <time>2018-04-21T06:39:12.000Z</time>
      </trkpt>
      <trkpt lat="40.818124" lon="-3.830408">
        <ele>2067.1</ele>
        <time>2018-04-21T06:39:13.000Z</time>
      </trkpt>
      <trkpt lat="40.818121" lon="-3.830404">
        <ele>2067.2</ele>
        <time>2018-04-21T06:39:14.000Z</time>
      </trkpt>
      <trkpt lat="40.818117" lon="-3.8304">
        <ele>2067.3</ele>
        <time>2018-04-21T06:39:15.000Z</time>
      </trkpt>
      <trkpt lat="40.818114" lon="-3.830395">
        <ele>2067.4</ele>
        <time>2018-04-21T06:39:16.000Z</time>
      </trkpt>
      <trkpt lat="40.81811" lon="-3.83039">
        <ele>2067.5</ele>
        <time>2018-04-21T06:39:17.000Z</time>
      </trkpt>
      <trkpt lat="40.818106" lon="-3.830387">
        <ele>2067.5</ele>
        <time>2018-04-21T06:39:18.000Z</time>
      </trkpt>
      <trkpt lat="40.818102" lon="-3.830383">
        <ele>2067.6</ele>
        <time>2018-04-21T06:39:19.000Z</time>
      </trkpt>
      <trkpt lat="40.818098" lon="-3.830381">
        <ele>2067.7</ele>
        <time>2018-04-21T06:39:20.000Z</time>
      </trkpt>
      <trkpt lat="40.818094" lon="-3.83038">
        <ele>2067.8</ele>
        <time>2018-04-21T06:39:21.000Z</time>
      </trkpt>
      <trkpt lat="40.818089" lon="-3.830379">
        <ele>2067.8</ele>
        <time>2018-04-21T06:39:22.000Z</time>
      </trkpt>
      <trkpt lat="40.818084" lon="-3.83038">
        <ele>2067.9</ele>
        <time>2018-04-21T06:39:23.000Z</time>
      </trkpt>
      <trkpt lat="40.818079" lon="-3.830381">
        <ele>2067.9</ele>
        <time>2018-04-21T06:39:24.000Z</time>
      </trkpt>
      <trkpt lat="40.818073" lon="-3.830384">
        <ele>2068.0</ele>
        <time>2018-04-21T06:39:25.000Z</time>
      </trkpt>
      <trkpt lat="40.818067" lon="-3.830389">
        <ele>2068.0</ele>
        <time>2018-04-21T06:39:26.000Z</time>
      </trkpt>
      <trkpt lat="40.81806" lon="-3.830395">
        <ele>2068.0</ele>
        <time>2018-04-21T06:39:27.000Z</time>
      </trkpt>
      <trkpt lat="40.818052" lon="-3.830402">
        <ele>2068.0</ele>
        <time>2018-04-21T06:39:28.000Z</time>
      </trkpt>
      <trkpt lat="40.818045" lon="-3.83041">
        <ele>2068.0</ele>
        <time>2018-04-21T06:39:29.000Z</time>
      </trkpt>
      <trkpt lat="40.818037" lon="-3.830418">
        <ele>2068.0</ele>
        <time>2018-04-21T06:39:30.000Z</time>
      </trkpt>
      <trkpt lat="40.818028" lon="-3.830426">
        <ele>2068.1</ele>
        <time>2018-04-21T06:39:31.000Z</time>
      </trkpt>
      <trkpt lat="40.81802" lon="-3.830434">
        <ele>2068.1</ele>
        <time>2018-04-21T06:39:32.000Z</time>
      </trkpt>
      <trkpt lat="40.818012" lon="-3.830442">
        <ele>2068.1</ele>
        <time>2018-04-21T06:39:33.000Z</time>
      </trkpt>
      <trkpt lat="40.818004" lon="-3.830448">
        <ele>2068.2</ele>
        <time>2018-04-21T06:39:34.000Z</time>
      </trkpt>
      <trkpt lat="40.817996" lon="-3.830453">
        <ele>2068.2</ele>
        <time>2018-04-21T06:39:35.000Z</time>
      </trkpt>
      <trkpt lat="40.817989" lon="-3.830456">
        <ele>2068.3</ele>
        <time>2018-04-21T06:39:36.000Z</time>
      </trkpt>
      <trkpt lat="40.817982" lon="-3.830458">
        <ele>2068.3</ele>
        <time>2018-04-21T06:39:37.000Z</time>
      </trkpt>
      <trkpt lat="40.817975" lon="-3.830458">
        <ele>2068.4</ele>
        <time>2018-04-21T06:39:38.000Z</time>
      </trkpt>
      <trkpt lat="40.817969" lon="-3.830458">
        <ele>2068.5</ele>
        <time>2018-04-21T06:39:39.000Z</time>
      </trkpt>
      <trkpt lat="40.817962" lon="-3.830456">
        <ele>2068.6</ele>
        <time>2018-04-21T06:39:40.000Z</time>
      </trkpt>
      <trkpt lat="40.817956" lon="-3.830453">
        <ele>2068.7</ele>
        <time>2018-04-21T06:39:41.000Z</time>
      </trkpt>
      <trkpt lat="40.81795" lon="-3.83045">
        <ele>2068.8</ele>
        <time>2018-04-21T06:39:42.000Z</time>
      </trkpt>
      <trkpt lat="40.817943" lon="-3.830447">
        <ele>2068.9</ele>
        <time>2018-04-21T06:39:43.000Z</time>
      </trkpt>
      <trkpt lat="40.817936" lon="-3.830443">
        <ele>2069.0</ele>
        <time>2018-04-21T06:39:44.000Z</time>
      </trkpt>
      <trkpt lat="40.817929" lon="-3.830439">
        <ele>2069.2</ele>
        <time>2018-04-21T06:39:45.000Z</time>
      </trkpt>
      <trkpt lat="40.817922" lon="-3.830436">
        <ele>2069.3</ele>
        <time>2018-04-21T06:39:46.000Z</time>
      </trkpt>
      <trkpt lat="40.817914" lon="-3.830432">
        <ele>2069.4</ele>
        <time>2018-04-21T06:39:47.000Z</time>
      </trkpt>
      <trkpt lat="40.817906" lon="-3.830429">
        <ele>2069.5</ele>
        <time>2018-04-21T06:39:48.000Z</time>
      </trkpt>
      <trkpt lat="40.817898" lon="-3.830426">
        <ele>2069.6</ele>
        <time>2018-04-21T06:39:49.000Z</time>
      </trkpt>
      <trkpt lat="40.81789" lon="-3.830423">
        <ele>2069.8</ele>
        <time>2018-04-21T06:39:50.000Z</time>
      </trkpt>
      <trkpt lat="40.817882" lon="-3.830421">
        <ele>2069.9</ele>
        <time>2018-04-21T06:39:51.000Z</time>
      </trkpt>
      <trkpt lat="40.817873" lon="-3.830419">
        <ele>2070.0</ele>
        <time>2018-04-21T06:39:52.000Z</time>
      </trkpt>
      <trkpt lat="40.817865" lon="-3.830418">
        <ele>2070.1</ele>
        <time>2018-04-21T06:39:53.000Z</time>
      </trkpt>
      <trkpt lat="40.817856" lon="-3.830418">
        <ele>2070.2</ele>
        <time>2018-04-21T06:39:54.000Z</time>
      </trkpt>
      <trkpt lat="40.817847" lon="-3.830417">
        <ele>2070.3</ele>
        <time>2018-04-21T06:39:55.000Z</time>
      </trkpt>
      <trkpt lat="40.817839" lon="-3.830416">
        <ele>2070.4</ele>
        <time>2018-04-21T06:39:56.000Z</time>
      </trkpt>
      <trkpt lat="40.817831" lon="-3.830414">
        <ele>2070.5</ele>
        <time>2018-04-21T06:39:57.000Z</time>
      </trkpt>
      <trkpt lat="40.817824" lon="-3.830409">
        <ele>2070.7</ele>
        <time>2018-04-21T06:39:58.000Z</time>
      </trkpt>
      <trkpt lat="40.817817" lon="-3.830402">
        <ele>2070.8</ele>
        <time>2018-04-21T06:39:59.000Z</time>
      </trkpt>
      <trkpt lat="40.817811" lon="-3.830394">
        <ele>2070.9</ele>
        <time>2018-04-21T06:40:00.000Z</time>
      </trkpt>
      <trkpt lat="40.817805" lon="-3.830385">
        <ele>2071.1</ele>
        <time>2018-04-21T06:40:01.000Z</time>
      </trkpt>
      <trkpt lat="40.817799" lon="-3.830377">
        <ele>2071.2</ele>
        <time>2018-04-21T06:40:02.000Z</time>
      </trkpt>
      <trkpt lat="40.817792" lon="-3.830371">
        <ele>2071.3</ele>
        <time>2018-04-21T06:40:03.000Z</time>
      </trkpt>
      <trkpt lat="40.817784" lon="-3.830367">
        <ele>2071.4</ele>
        <time>2018-04-21T06:40:04.000Z</time>
      </trkpt>
      <trkpt lat="40.817775" lon="-3.830364">
        <ele>2071.6</ele>
        <time>2018-04-21T06:40:05.000Z</time>
      </trkpt>
      <trkpt lat="40.817767" lon="-3.830362">
        <ele>2071.7</ele>
        <time>2018-04-21T06:40:06.000Z</time>
      </trkpt>
      <trkpt lat="40.817758" lon="-3.830361">
        <ele>2071.8</ele>
        <time>2018-04-21T06:40:07.000Z</time>
      </trkpt>
      <trkpt lat="40.817749" lon="-3.830359">
        <ele>2071.9</ele>
        <time>2018-04-21T06:40:08.000Z</time>
      </trkpt>
      <trkpt lat="40.817741" lon="-3.830357">
        <ele>2072.0</ele>
        <time>2018-04-21T06:40:09.000Z</time>
      </trkpt>
      <trkpt lat="40.817733" lon="-3.830355">
        <ele>2072.1</ele>
        <time>2018-04-21T06:40:10.000Z</time>
      </trkpt>
      <trkpt lat="40.817727" lon="-3.83035">
        <ele>2072.2</ele>
        <time>2018-04-21T06:40:11.000Z</time>
      </trkpt>
      <trkpt lat="40.817721" lon="-3.830344">
        <ele>2072.3</ele>
        <time>2018-04-21T06:40:12.000Z</time>
      </trkpt>
      <trkpt lat="40.817716" lon="-3.830337">
        <ele>2072.4</ele>
        <time>2018-04-21T06:40:13.000Z</time>
      </trkpt>
      <trkpt lat="40.817711" lon="-3.830328">
        <ele>2072.5</ele>
        <time>2018-04-21T06:40:14.000Z</time>
      </trkpt>
      <trkpt lat="40.817707" lon="-3.830318">
        <ele>2072.6</ele>
        <time>2018-04-21T06:40:15.000Z</time>
      </trkpt>
      <trkpt lat="40.817703" lon="-3.830308">
        <ele>2072.7</ele>
        <time>2018-04-21T06:40:16.000Z</time>
      </trkpt>
      <trkpt lat="40.817699" lon="-3.830298">
        <ele>2072.8</ele>
        <time>2018-04-21T06:40:17.000Z</time>
      </trkpt>
      <trkpt lat="40.817695" lon="-3.830287">
        <ele>2072.9</ele>
        <time>2018-04-21T06:40:18.000Z</time>
      </trkpt>
      <trkpt lat="40.81769" lon="-3.830277">
        <ele>2073.0</ele>
        <time>2018-04-21T06:40:19.000Z</time>
      </trkpt>
      <trkpt lat="40.817685" lon="-3.830268">
        <ele>2073.1</ele>
        <time>2018-04-21T06:40:20.000Z</time>
      </trkpt>
      <trkpt lat="40.817679" lon="-3.83026">
        <ele>2073.2</ele>
        <time>2018-04-21T06:40:21.000Z</time>
      </trkpt>
      <trkpt lat="40.817672" lon="-3.830252">
        <ele>2073.4</ele>
        <time>2018-04-21T06:40:22.000Z</time>
      </trkpt>
      <trkpt lat="40.817665" lon="-3.830245">
        <ele>2073.5</ele>
        <time>2018-04-21T06:40:23.000Z</time>
      </trkpt>
      <trkpt lat="40.817658" lon="-3.830239">
        <ele>2073.6</ele>
        <time>2018-04-21T06:40:24.000Z</time>
      </trkpt>
      <trkpt lat="40.817651" lon="-3.830232">
        <ele>2073.7</ele>
        <time>2018-04-21T06:40:25.000Z</time>
      </trkpt>
      <trkpt lat="40.817644" lon="-3.830226">
        <ele>2073.8</ele>
        <time>2018-04-21T06:40:26.000Z</time>
      </trkpt>
      <trkpt lat="40.817637" lon="-3.830219">
        <ele>2073.9</ele>
        <time>2018-04-21T06:40:27.000Z</time>
      </trkpt>
      <trkpt lat="40.817631" lon="-3.830212">
        <ele>2074.0</ele>
        <time>2018-04-21T06:40:28.000Z</time>
      </trkpt>
      <trkpt lat="40.817624" lon="-3.830205">
        <ele>2074.1</ele>
        <time>2018-04-21T06:40:29.000Z</time>
      </trkpt>
      <trkpt lat="40.817617" lon="-3.830197">
        <ele>2074.2</ele>
        <time>2018-04-21T06:40:30.000Z</time>
      </trkpt>
      <trkpt lat="40.81761" lon="-3.830189">
        <ele>2074.3</ele>
        <time>2018-04-21T06:40:31.000Z</time>
      </trkpt>
      <trkpt lat="40.817603" lon="-3.830181">
        <ele>2074.4</ele>
        <time>2018-04-21T06:40:32.000Z</time>
      </trkpt>
      <trkpt lat="40.817596" lon="-3.830173">
        <ele>2074.5</ele>
        <time>2018-04-21T06:40:33.000Z</time>
      </trkpt>
      <trkpt lat="40.817589" lon="-3.830165">
        <ele>2074.6</ele>
        <time>2018-04-21T06:40:34.000Z</time>
      </trkpt>
      <trkpt lat="40.817582" lon="-3.830158">
        <ele>2074.7</ele>
        <time>2018-04-21T06:40:35.000Z</time>
      </trkpt>
      <trkpt lat="40.817576" lon="-3.83015">
        <ele>2074.8</ele>
        <time>2018-04-21T06:40:36.000Z</time>
      </trkpt>
      <trkpt lat="40.81757" lon="-3.830144">
        <ele>2074.9</ele>
        <time>2018-04-21T06:40:37.000Z</time>
      </trkpt>
      <trkpt lat="40.817564" lon="-3.830137">
        <ele>2074.9</ele>
        <time>2018-04-21T06:40:38.000Z</time>
      </trkpt>
      <trkpt lat="40.817559" lon="-3.830132">
        <ele>2075.0</ele>
        <time>2018-04-21T06:40:39.000Z</time>
      </trkpt>
      <trkpt lat="40.817555" lon="-3.830127">
        <ele>2075.1</ele>
        <time>2018-04-21T06:40:40.000Z</time>
      </trkpt>
      <trkpt lat="40.817551" lon="-3.830122">
        <ele>2075.1</ele>
        <time>2018-04-21T06:40:41.000Z</time>
      </trkpt>
      <trkpt lat="40.817548" lon="-3.830118">
        <ele>2075.2</ele>
        <time>2018-04-21T06:40:42.000Z</time>
      </trkpt>
      <trkpt lat="40.817545" lon="-3.830114">
        <ele>2075.2</ele>
        <time>2018-04-21T06:40:43.000Z</time>
      </trkpt>
      <trkpt lat="40.817542" lon="-3.83011">
        <ele>2075.2</ele>
        <time>2018-04-21T06:40:44.000Z</time>
      </trkpt>
      <trkpt lat="40.817539" lon="-3.830105">
        <ele>2075.3</ele>
        <time>2018-04-21T06:40:45.000Z</time>
      </trkpt>
      <trkpt lat="40.817537" lon="-3.830101">
        <ele>2075.3</ele>
        <time>2018-04-21T06:40:46.000Z</time>
      </trkpt>
      <trkpt lat="40.817534" lon="-3.830096">
        <ele>2075.4</ele>
        <time>2018-04-21T06:40:47.000Z</time>
      </trkpt>
      <trkpt lat="40.817532" lon="-3.830091">
        <ele>2075.4</ele>
        <time>2018-04-21T06:40:48.000Z</time>
      </trkpt>
      <trkpt lat="40.817529" lon="-3.830085">
        <ele>2075.5</ele>
        <time>2018-04-21T06:40:49.000Z</time>
      </trkpt>
      <trkpt lat="40.817525" lon="-3.830078">
        <ele>2075.5</ele>
        <time>2018-04-21T06:40:50.000Z</time>
      </trkpt>
      <trkpt lat="40.817521" lon="-3.830071">
        <ele>2075.6</ele>
        <time>2018-04-21T06:40:51.000Z</time>
      </trkpt>
      <trkpt lat="40.817515" lon="-3.830063">
        <ele>2075.7</ele>
        <time>2018-04-21T06:40:52.000Z</time>
      </trkpt>
      <trkpt lat="40.817508" lon="-3.830054">
        <ele>2075.7</ele>
        <time>2018-04-21T06:40:53.000Z</time>
      </trkpt>
      <trkpt lat="40.8175" lon="-3.830045">
        <ele>2075.8</ele>
        <time>2018-04-21T06:40:54.000Z</time>
      </trkpt>
      <trkpt lat="40.817491" lon="-3.830036">
        <ele>2075.9</ele>
        <time>2018-04-21T06:40:55.000Z</time>
      </trkpt>
      <trkpt lat="40.817482" lon="-3.830028">
        <ele>2076.0</ele>
        <time>2018-04-21T06:40:56.000Z</time>
      </trkpt>
      <trkpt lat="40.817473" lon="-3.830021">
        <ele>2076.1</ele>
        <time>2018-04-21T06:40:57.000Z</time>
      </trkpt>
      <trkpt lat="40.817464" lon="-3.830015">
        <ele>2076.2</ele>
        <time>2018-04-21T06:40:58.000Z</time>
      </trkpt>
      <trkpt lat="40.817456" lon="-3.830009">
        <ele>2076.3</ele>
        <time>2018-04-21T06:40:59.000Z</time>
      </trkpt>
      <trkpt lat="40.817447" lon="-3.830004">
        <ele>2076.4</ele>
        <time>2018-04-21T06:41:00.000Z</time>
      </trkpt>
      <trkpt lat="40.817438" lon="-3.829998">
        <ele>2076.4</ele>
        <time>2018-04-21T06:41:01.000Z</time>
      </trkpt>
      <trkpt lat="40.81743" lon="-3.829993">
        <ele>2076.5</ele>
        <time>2018-04-21T06:41:02.000Z</time>
      </trkpt>
      <trkpt lat="40.817421" lon="-3.829986">
        <ele>2076.5</ele>
        <time>2018-04-21T06:41:03.000Z</time>
      </trkpt>
      <trkpt lat="40.817414" lon="-3.829979">
        <ele>2076.5</ele>
        <time>2018-04-21T06:41:04.000Z</time>
      </trkpt>
      <trkpt lat="40.817407" lon="-3.829971">
        <ele>2076.5</ele>
        <time>2018-04-21T06:41:05.000Z</time>
      </trkpt>
      <trkpt lat="40.817401" lon="-3.829961">
        <ele>2076.5</ele>
        <time>2018-04-21T06:41:06.000Z</time>
      </trkpt>
      <trkpt lat="40.817396" lon="-3.829951">
        <ele>2076.5</ele>
        <time>2018-04-21T06:41:07.000Z</time>
      </trkpt>
      <trkpt lat="40.817392" lon="-3.829939">
        <ele>2076.5</ele>
        <time>2018-04-21T06:41:08.000Z</time>
      </trkpt>
      <trkpt lat="40.817388" lon="-3.829928">
        <ele>2076.5</ele>
        <time>2018-04-21T06:41:09.000Z</time>
      </trkpt>
      <trkpt lat="40.817385" lon="-3.829916">
        <ele>2076.4</ele>
        <time>2018-04-21T06:41:10.000Z</time>
      </trkpt>
      <trkpt lat="40.817382" lon="-3.829904">
        <ele>2076.4</ele>
        <time>2018-04-21T06:41:11.000Z</time>
      </trkpt>
      <trkpt lat="40.817378" lon="-3.829893">
        <ele>2076.4</ele>
        <time>2018-04-21T06:41:12.000Z</time>
      </trkpt>
      <trkpt lat="40.817374" lon="-3.829882">
        <ele>2076.4</ele>
        <time>2018-04-21T06:41:13.000Z</time>
      </trkpt>
      <trkpt lat="40.817369" lon="-3.829873">
        <ele>2076.4</ele>
        <time>2018-04-21T06:41:14.000Z</time>
      </trkpt>
      <trkpt lat="40.817364" lon="-3.829864">
        <ele>2076.4</ele>
        <time>2018-04-21T06:41:15.000Z</time>
      </trkpt>
      <trkpt lat="40.817358" lon="-3.829857">
        <ele>2076.4</ele>
        <time>2018-04-21T06:41:16.000Z</time>
      </trkpt>
      <trkpt lat="40.817351" lon="-3.829851">
        <ele>2076.4</ele>
        <time>2018-04-21T06:41:17.000Z</time>
      </trkpt>
      <trkpt lat="40.817343" lon="-3.829845">
        <ele>2076.5</ele>
        <time>2018-04-21T06:41:18.000Z</time>
      </trkpt>
      <trkpt lat="40.817334" lon="-3.82984">
        <ele>2076.5</ele>
        <time>2018-04-21T06:41:19.000Z</time>
      </trkpt>
      <trkpt lat="40.817325" lon="-3.829836">
        <ele>2076.6</ele>
        <time>2018-04-21T06:41:20.000Z</time>
      </trkpt>
      <trkpt lat="40.817316" lon="-3.829832">
        <ele>2076.7</ele>
        <time>2018-04-21T06:41:21.000Z</time>
      </trkpt>
      <trkpt lat="40.817306" lon="-3.829829">
        <ele>2076.8</ele>
        <time>2018-04-21T06:41:22.000Z</time>
      </trkpt>
      <trkpt lat="40.817296" lon="-3.829826">
        <ele>2076.8</ele>
        <time>2018-04-21T06:41:23.000Z</time>
      </trkpt>
      <trkpt lat="40.817286" lon="-3.829823">
        <ele>2076.9</ele>
        <time>2018-04-21T06:41:24.000Z</time>
      </trkpt>
      <trkpt lat="40.817275" lon="-3.829821">
        <ele>2077.0</ele>
        <time>2018-04-21T06:41:25.000Z</time>
      </trkpt>
      <trkpt lat="40.817266" lon="-3.829818">
        <ele>2077.1</ele>
        <time>2018-04-21T06:41:26.000Z</time>
      </trkpt>
      <trkpt lat="40.817257" lon="-3.829815">
        <ele>2077.2</ele>
        <time>2018-04-21T06:41:27.000Z</time>
      </trkpt>
      <trkpt lat="40.817249" lon="-3.829812">
        <ele>2077.2</ele>
        <time>2018-04-21T06:41:28.000Z</time>
      </trkpt>
      <trkpt lat="40.817242" lon="-3.829809">
        <ele>2077.3</ele>
        <time>2018-04-21T06:41:29.000Z</time>
      </trkpt>
      <trkpt lat="40.817237" lon="-3.829805">
        <ele>2077.3</ele>
        <time>2018-04-21T06:41:30.000Z</time>
      </trkpt>
      <trkpt lat="40.817233" lon="-3.8298">
        <ele>2077.3</ele>
        <time>2018-04-21T06:41:31.000Z</time>
      </trkpt>
      <trkpt lat="40.817229" lon="-3.829795">
        <ele>2077.4</ele>
        <time>2018-04-21T06:41:32.000Z</time>
      </trkpt>
      <trkpt lat="40.817224" lon="-3.829789">
        <ele>2077.4</ele>
        <time>2018-04-21T06:41:33.000Z</time>
      </trkpt>
      <trkpt lat="40.81722" lon="-3.829783">
        <ele>2077.4</ele>
        <time>2018-04-21T06:41:34.000Z</time>
      </trkpt>
      <trkpt lat="40.817214" lon="-3.829775">
        <ele>2077.5</ele>
        <time>2018-04-21T06:41:35.000Z</time>
      </trkpt>
      <trkpt lat="40.817209" lon="-3.829767">
        <ele>2077.5</ele>
        <time>2018-04-21T06:41:36.000Z</time>
      </trkpt>
      <trkpt lat="40.817202" lon="-3.829758">
        <ele>2077.5</ele>
        <time>2018-04-21T06:41:37.000Z</time>
      </trkpt>
      <trkpt lat="40.817195" lon="-3.82975">
        <ele>2077.6</ele>
        <time>2018-04-21T06:41:38.000Z</time>
      </trkpt>
      <trkpt lat="40.817188" lon="-3.829742">
        <ele>2077.6</ele>
        <time>2018-04-21T06:41:39.000Z</time>
      </trkpt>
      <trkpt lat="40.81718" lon="-3.829734">
        <ele>2077.7</ele>
        <time>2018-04-21T06:41:40.000Z</time>
      </trkpt>
      <trkpt lat="40.817171" lon="-3.829726">
        <ele>2077.8</ele>
        <time>2018-04-21T06:41:41.000Z</time>
      </trkpt>
      <trkpt lat="40.817162" lon="-3.82972">
        <ele>2077.8</ele>
        <time>2018-04-21T06:41:42.000Z</time>
      </trkpt>
      <trkpt lat="40.817152" lon="-3.829714">
        <ele>2077.9</ele>
        <time>2018-04-21T06:41:43.000Z</time>
      </trkpt>
      <trkpt lat="40.817142" lon="-3.829709">
        <ele>2078.0</ele>
        <time>2018-04-21T06:41:44.000Z</time>
      </trkpt>
      <trkpt lat="40.817131" lon="-3.829705">
        <ele>2078.1</ele>
        <time>2018-04-21T06:41:45.000Z</time>
      </trkpt>
      <trkpt lat="40.817121" lon="-3.829701">
        <ele>2078.2</ele>
        <time>2018-04-21T06:41:46.000Z</time>
      </trkpt>
      <trkpt lat="40.817111" lon="-3.829697">
        <ele>2078.3</ele>
        <time>2018-04-21T06:41:47.000Z</time>
      </trkpt>
      <trkpt lat="40.817102" lon="-3.829694">
        <ele>2078.4</ele>
        <time>2018-04-21T06:41:48.000Z</time>
      </trkpt>
      <trkpt lat="40.817093" lon="-3.82969">
        <ele>2078.5</ele>
        <time>2018-04-21T06:41:49.000Z</time>
      </trkpt>
      <trkpt lat="40.817086" lon="-3.829685">
        <ele>2078.6</ele>
        <time>2018-04-21T06:41:50.000Z</time>
      </trkpt>
      <trkpt lat="40.817079" lon="-3.82968">
        <ele>2078.7</ele>
        <time>2018-04-21T06:41:51.000Z</time>
      </trkpt>
      <trkpt lat="40.817075" lon="-3.829673">
        <ele>2078.7</ele>
        <time>2018-04-21T06:41:52.000Z</time>
      </trkpt>
      <trkpt lat="40.817071" lon="-3.829667">
        <ele>2078.7</ele>
        <time>2018-04-21T06:41:53.000Z</time>
      </trkpt>
      <trkpt lat="40.817067" lon="-3.82966">
        <ele>2078.8</ele>
        <time>2018-04-21T06:41:54.000Z</time>
      </trkpt>
      <trkpt lat="40.817063" lon="-3.829653">
        <ele>2078.8</ele>
        <time>2018-04-21T06:41:55.000Z</time>
      </trkpt>
      <trkpt lat="40.817059" lon="-3.829647">
        <ele>2078.9</ele>
        <time>2018-04-21T06:41:56.000Z</time>
      </trkpt>
      <trkpt lat="40.817053" lon="-3.829641">
        <ele>2078.9</ele>
        <time>2018-04-21T06:41:57.000Z</time>
      </trkpt>
      <trkpt lat="40.817046" lon="-3.829637">
        <ele>2079.0</ele>
        <time>2018-04-21T06:41:58.000Z</time>
      </trkpt>
      <trkpt lat="40.817038" lon="-3.829632">
        <ele>2079.1</ele>
        <time>2018-04-21T06:41:59.000Z</time>
      </trkpt>
      <trkpt lat="40.81703" lon="-3.829626">
        <ele>2079.2</ele>
        <time>2018-04-21T06:42:00.000Z</time>
      </trkpt>
      <trkpt lat="40.817021" lon="-3.829619">
        <ele>2079.3</ele>
        <time>2018-04-21T06:42:01.000Z</time>
      </trkpt>
      <trkpt lat="40.817012" lon="-3.829612">
        <ele>2079.4</ele>
        <time>2018-04-21T06:42:02.000Z</time>
      </trkpt>
      <trkpt lat="40.817002" lon="-3.829603">
        <ele>2079.5</ele>
        <time>2018-04-21T06:42:03.000Z</time>
      </trkpt>
      <trkpt lat="40.816993" lon="-3.829594">
        <ele>2079.6</ele>
        <time>2018-04-21T06:42:04.000Z</time>
      </trkpt>
      <trkpt lat="40.816984" lon="-3.829585">
        <ele>2079.7</ele>
        <time>2018-04-21T06:42:05.000Z</time>
      </trkpt>
      <trkpt lat="40.816974" lon="-3.829575">
        <ele>2079.8</ele>
        <time>2018-04-21T06:42:06.000Z</time>
      </trkpt>
      <trkpt lat="40.816964" lon="-3.829566">
        <ele>2079.9</ele>
        <time>2018-04-21T06:42:07.000Z</time>
      </trkpt>
      <trkpt lat="40.816955" lon="-3.829557">
        <ele>2080.0</ele>
        <time>2018-04-21T06:42:08.000Z</time>
      </trkpt>
      <trkpt lat="40.816945" lon="-3.829549">
        <ele>2080.2</ele>
        <time>2018-04-21T06:42:09.000Z</time>
      </trkpt>
      <trkpt lat="40.816936" lon="-3.829541">
        <ele>2080.3</ele>
        <time>2018-04-21T06:42:10.000Z</time>
      </trkpt>
      <trkpt lat="40.816927" lon="-3.829535">
        <ele>2080.4</ele>
        <time>2018-04-21T06:42:11.000Z</time>
      </trkpt>
      <trkpt lat="40.81692" lon="-3.82953">
        <ele>2080.5</ele>
        <time>2018-04-21T06:42:12.000Z</time>
      </trkpt>
      <trkpt lat="40.816914" lon="-3.829526">
        <ele>2080.6</ele>
        <time>2018-04-21T06:42:13.000Z</time>
      </trkpt>
      <trkpt lat="40.816911" lon="-3.829525">
        <ele>2080.6</ele>
        <time>2018-04-21T06:42:14.000Z</time>
      </trkpt>
      <trkpt lat="40.81691" lon="-3.829525">
        <ele>2080.6</ele>
        <time>2018-04-21T06:42:15.000Z</time>
      </trkpt>
      <trkpt lat="40.816908" lon="-3.82952">
        <ele>2080.7</ele>
        <time>2018-04-21T06:42:16.000Z</time>
      </trkpt>
      <trkpt lat="40.816902" lon="-3.829505">
        <ele>2080.7</ele>
        <time>2018-04-21T06:42:17.000Z</time>
      </trkpt>
      <trkpt lat="40.816895" lon="-3.829487">
        <ele>2080.9</ele>
        <time>2018-04-21T06:42:18.000Z</time>
      </trkpt>
      <trkpt lat="40.816887" lon="-3.829472">
        <ele>2081.0</ele>
        <time>2018-04-21T06:42:19.000Z</time>
      </trkpt>
      <trkpt lat="40.81688" lon="-3.829461">
        <ele>2081.1</ele>
        <time>2018-04-21T06:42:20.000Z</time>
      </trkpt>
      <trkpt lat="40.816874" lon="-3.829452">
        <ele>2081.2</ele>
        <time>2018-04-21T06:42:21.000Z</time>
      </trkpt>
      <trkpt lat="40.816867" lon="-3.829446">
        <ele>2081.3</ele>
        <time>2018-04-21T06:42:22.000Z</time>
      </trkpt>
      <trkpt lat="40.816861" lon="-3.829442">
        <ele>2081.4</ele>
        <time>2018-04-21T06:42:23.000Z</time>
      </trkpt>
      <trkpt lat="40.816856" lon="-3.829438">
        <ele>2081.4</ele>
        <time>2018-04-21T06:42:24.000Z</time>
      </trkpt>
      <trkpt lat="40.81685" lon="-3.829435">
        <ele>2081.5</ele>
        <time>2018-04-21T06:42:25.000Z</time>
      </trkpt>
      <trkpt lat="40.816845" lon="-3.829431">
        <ele>2081.6</ele>
        <time>2018-04-21T06:42:26.000Z</time>
      </trkpt>
      <trkpt lat="40.816841" lon="-3.829426">
        <ele>2081.7</ele>
        <time>2018-04-21T06:42:27.000Z</time>
      </trkpt>
      <trkpt lat="40.816836" lon="-3.829419">
        <ele>2081.7</ele>
        <time>2018-04-21T06:42:28.000Z</time>
      </trkpt>
      <trkpt lat="40.816832" lon="-3.829411">
        <ele>2081.8</ele>
        <time>2018-04-21T06:42:29.000Z</time>
      </trkpt>
      <trkpt lat="40.816828" lon="-3.829402">
        <ele>2081.9</ele>
        <time>2018-04-21T06:42:30.000Z</time>
      </trkpt>
      <trkpt lat="40.816823" lon="-3.829391">
        <ele>2082.0</ele>
        <time>2018-04-21T06:42:31.000Z</time>
      </trkpt>
      <trkpt lat="40.816818" lon="-3.829381">
        <ele>2082.1</ele>
        <time>2018-04-21T06:42:32.000Z</time>
      </trkpt>
      <trkpt lat="40.816813" lon="-3.829371">
        <ele>2082.2</ele>
        <time>2018-04-21T06:42:33.000Z</time>
      </trkpt>
      <trkpt lat="40.816807" lon="-3.82936">
        <ele>2082.3</ele>
        <time>2018-04-21T06:42:34.000Z</time>
      </trkpt>
      <trkpt lat="40.816801" lon="-3.829351">
        <ele>2082.4</ele>
        <time>2018-04-21T06:42:35.000Z</time>
      </trkpt>
      <trkpt lat="40.816794" lon="-3.829342">
        <ele>2082.5</ele>
        <time>2018-04-21T06:42:36.000Z</time>
      </trkpt>
      <trkpt lat="40.816787" lon="-3.829334">
        <ele>2082.6</ele>
        <time>2018-04-21T06:42:37.000Z</time>
      </trkpt>
      <trkpt lat="40.816779" lon="-3.829327">
        <ele>2082.7</ele>
        <time>2018-04-21T06:42:38.000Z</time>
      </trkpt>
      <trkpt lat="40.81677" lon="-3.829321">
        <ele>2082.9</ele>
        <time>2018-04-21T06:42:39.000Z</time>
      </trkpt>
      <trkpt lat="40.816762" lon="-3.829315">
        <ele>2083.0</ele>
        <time>2018-04-21T06:42:40.000Z</time>
      </trkpt>
      <trkpt lat="40.816753" lon="-3.829309">
        <ele>2083.2</ele>
        <time>2018-04-21T06:42:41.000Z</time>
      </trkpt>
      <trkpt lat="40.816744" lon="-3.829304">
        <ele>2083.3</ele>
        <time>2018-04-21T06:42:42.000Z</time>
      </trkpt>
      <trkpt lat="40.816735" lon="-3.829298">
        <ele>2083.5</ele>
        <time>2018-04-21T06:42:43.000Z</time>
      </trkpt>
      <trkpt lat="40.816727" lon="-3.829292">
        <ele>2083.6</ele>
        <time>2018-04-21T06:42:44.000Z</time>
      </trkpt>
      <trkpt lat="40.816718" lon="-3.829286">
        <ele>2083.8</ele>
        <time>2018-04-21T06:42:45.000Z</time>
      </trkpt>
      <trkpt lat="40.81671" lon="-3.829279">
        <ele>2083.9</ele>
        <time>2018-04-21T06:42:46.000Z</time>
      </trkpt>
      <trkpt lat="40.816702" lon="-3.829272">
        <ele>2084.1</ele>
        <time>2018-04-21T06:42:47.000Z</time>
      </trkpt>
      <trkpt lat="40.816695" lon="-3.829265">
        <ele>2084.2</ele>
        <time>2018-04-21T06:42:48.000Z</time>
      </trkpt>
      <trkpt lat="40.816688" lon="-3.829257">
        <ele>2084.3</ele>
        <time>2018-04-21T06:42:49.000Z</time>
      </trkpt>
      <trkpt lat="40.81668" lon="-3.82925">
        <ele>2084.5</ele>
        <time>2018-04-21T06:42:50.000Z</time>
      </trkpt>
      <trkpt lat="40.816673" lon="-3.829242">
        <ele>2084.6</ele>
        <time>2018-04-21T06:42:51.000Z</time>
      </trkpt>
      <trkpt lat="40.816666" lon="-3.829234">
        <ele>2084.8</ele>
        <time>2018-04-21T06:42:52.000Z</time>
      </trkpt>
      <trkpt lat="40.816659" lon="-3.829227">
        <ele>2084.9</ele>
        <time>2018-04-21T06:42:53.000Z</time>
      </trkpt>
      <trkpt lat="40.816652" lon="-3.829219">
        <ele>2085.0</ele>
        <time>2018-04-21T06:42:54.000Z</time>
      </trkpt>
      <trkpt lat="40.816644" lon="-3.829213">
        <ele>2085.2</ele>
        <time>2018-04-21T06:42:55.000Z</time>
      </trkpt>
      <trkpt lat="40.816636" lon="-3.829206">
        <ele>2085.3</ele>
        <time>2018-04-21T06:42:56.000Z</time>
      </trkpt>
      <trkpt lat="40.816629" lon="-3.8292">
        <ele>2085.4</ele>
        <time>2018-04-21T06:42:57.000Z</time>
      </trkpt>
      <trkpt lat="40.816621" lon="-3.829195">
        <ele>2085.5</ele>
        <time>2018-04-21T06:42:58.000Z</time>
      </trkpt>
      <trkpt lat="40.816613" lon="-3.829189">
        <ele>2085.7</ele>
        <time>2018-04-21T06:42:59.000Z</time>
      </trkpt>
      <trkpt lat="40.816605" lon="-3.829184">
        <ele>2085.8</ele>
        <time>2018-04-21T06:43:00.000Z</time>
      </trkpt>
      <trkpt lat="40.816596" lon="-3.829179">
        <ele>2086.0</ele>
        <time>2018-04-21T06:43:01.000Z</time>
      </trkpt>
      <trkpt lat="40.816588" lon="-3.829174">
        <ele>2086.1</ele>
        <time>2018-04-21T06:43:02.000Z</time>
      </trkpt>
      <trkpt lat="40.81658" lon="-3.829169">
        <ele>2086.2</ele>
        <time>2018-04-21T06:43:03.000Z</time>
      </trkpt>
      <trkpt lat="40.816572" lon="-3.829164">
        <ele>2086.4</ele>
        <time>2018-04-21T06:43:04.000Z</time>
      </trkpt>
      <trkpt lat="40.816564" lon="-3.829159">
        <ele>2086.5</ele>
        <time>2018-04-21T06:43:05.000Z</time>
      </trkpt>
      <trkpt lat="40.816555" lon="-3.829154">
        <ele>2086.6</ele>
        <time>2018-04-21T06:43:06.000Z</time>
      </trkpt>
      <trkpt lat="40.816547" lon="-3.82915">
        <ele>2086.7</ele>
        <time>2018-04-21T06:43:07.000Z</time>
      </trkpt>
      <trkpt lat="40.816539" lon="-3.829144">
        <ele>2086.8</ele>
        <time>2018-04-21T06:43:08.000Z</time>
      </trkpt>
      <trkpt lat="40.816531" lon="-3.829139">
        <ele>2086.9</ele>
        <time>2018-04-21T06:43:09.000Z</time>
      </trkpt>
      <trkpt lat="40.816524" lon="-3.829134">
        <ele>2087.0</ele>
        <time>2018-04-21T06:43:10.000Z</time>
      </trkpt>
      <trkpt lat="40.816516" lon="-3.829128">
        <ele>2087.1</ele>
        <time>2018-04-21T06:43:11.000Z</time>
      </trkpt>
      <trkpt lat="40.816509" lon="-3.829122">
        <ele>2087.1</ele>
        <time>2018-04-21T06:43:12.000Z</time>
      </trkpt>
      <trkpt lat="40.816501" lon="-3.829116">
        <ele>2087.3</ele>
        <time>2018-04-21T06:43:13.000Z</time>
      </trkpt>
      <trkpt lat="40.816494" lon="-3.829109">
        <ele>2087.3</ele>
        <time>2018-04-21T06:43:14.000Z</time>
      </trkpt>
      <trkpt lat="40.816487" lon="-3.829102">
        <ele>2087.4</ele>
        <time>2018-04-21T06:43:15.000Z</time>
      </trkpt>
      <trkpt lat="40.81648" lon="-3.829096">
        <ele>2087.5</ele>
        <time>2018-04-21T06:43:16.000Z</time>
      </trkpt>
      <trkpt lat="40.816474" lon="-3.829089">
        <ele>2087.6</ele>
        <time>2018-04-21T06:43:17.000Z</time>
      </trkpt>
      <trkpt lat="40.816467" lon="-3.829082">
        <ele>2087.7</ele>
        <time>2018-04-21T06:43:18.000Z</time>
      </trkpt>
      <trkpt lat="40.81646" lon="-3.829076">
        <ele>2087.8</ele>
        <time>2018-04-21T06:43:19.000Z</time>
      </trkpt>
      <trkpt lat="40.816454" lon="-3.829069">
        <ele>2087.9</ele>
        <time>2018-04-21T06:43:20.000Z</time>
      </trkpt>
      <trkpt lat="40.816447" lon="-3.829064">
        <ele>2088.0</ele>
        <time>2018-04-21T06:43:21.000Z</time>
      </trkpt>
      <trkpt lat="40.81644" lon="-3.829058">
        <ele>2088.1</ele>
        <time>2018-04-21T06:43:22.000Z</time>
      </trkpt>
      <trkpt lat="40.816434" lon="-3.829053">
        <ele>2088.1</ele>
        <time>2018-04-21T06:43:23.000Z</time>
      </trkpt>
      <trkpt lat="40.816427" lon="-3.829049">
        <ele>2088.3</ele>
        <time>2018-04-21T06:43:24.000Z</time>
      </trkpt>
      <trkpt lat="40.816421" lon="-3.829045">
        <ele>2088.3</ele>
        <time>2018-04-21T06:43:25.000Z</time>
      </trkpt>
      <trkpt lat="40.816414" lon="-3.829041">
        <ele>2088.4</ele>
        <time>2018-04-21T06:43:26.000Z</time>
      </trkpt>
      <trkpt lat="40.816408" lon="-3.829038">
        <ele>2088.5</ele>
        <time>2018-04-21T06:43:27.000Z</time>
      </trkpt>
      <trkpt lat="40.816401" lon="-3.829035">
        <ele>2088.6</ele>
        <time>2018-04-21T06:43:28.000Z</time>
      </trkpt>
      <trkpt lat="40.816395" lon="-3.829033">
        <ele>2088.7</ele>
        <time>2018-04-21T06:43:29.000Z</time>
      </trkpt>
      <trkpt lat="40.816388" lon="-3.829031">
        <ele>2088.9</ele>
        <time>2018-04-21T06:43:30.000Z</time>
      </trkpt>
      <trkpt lat="40.816382" lon="-3.829029">
        <ele>2088.9</ele>
        <time>2018-04-21T06:43:31.000Z</time>
      </trkpt>
      <trkpt lat="40.816376" lon="-3.829027">
        <ele>2089.0</ele>
        <time>2018-04-21T06:43:32.000Z</time>
      </trkpt>
      <trkpt lat="40.81637" lon="-3.829025">
        <ele>2089.1</ele>
        <time>2018-04-21T06:43:33.000Z</time>
      </trkpt>
      <trkpt lat="40.816364" lon="-3.829023">
        <ele>2089.2</ele>
        <time>2018-04-21T06:43:34.000Z</time>
      </trkpt>
      <trkpt lat="40.816359" lon="-3.82902">
        <ele>2089.3</ele>
        <time>2018-04-21T06:43:35.000Z</time>
      </trkpt>
      <trkpt lat="40.816354" lon="-3.829017">
        <ele>2089.4</ele>
        <time>2018-04-21T06:43:36.000Z</time>
      </trkpt>
      <trkpt lat="40.81635" lon="-3.829012">
        <ele>2089.5</ele>
        <time>2018-04-21T06:43:37.000Z</time>
      </trkpt>
      <trkpt lat="40.816347" lon="-3.829007">
        <ele>2089.5</ele>
        <time>2018-04-21T06:43:38.000Z</time>
      </trkpt>
      <trkpt lat="40.816344" lon="-3.828999">
        <ele>2089.5</ele>
        <time>2018-04-21T06:43:39.000Z</time>
      </trkpt>
      <trkpt lat="40.816342" lon="-3.828991">
        <ele>2089.6</ele>
        <time>2018-04-21T06:43:40.000Z</time>
      </trkpt>
      <trkpt lat="40.816341" lon="-3.828981">
        <ele>2089.6</ele>
        <time>2018-04-21T06:43:41.000Z</time>
      </trkpt>
      <trkpt lat="40.81634" lon="-3.82897">
        <ele>2089.6</ele>
        <time>2018-04-21T06:43:42.000Z</time>
      </trkpt>
      <trkpt lat="40.816339" lon="-3.828959">
        <ele>2089.6</ele>
        <time>2018-04-21T06:43:43.000Z</time>
      </trkpt>
      <trkpt lat="40.816339" lon="-3.828947">
        <ele>2089.6</ele>
        <time>2018-04-21T06:43:44.000Z</time>
      </trkpt>
      <trkpt lat="40.816339" lon="-3.828936">
        <ele>2089.6</ele>
        <time>2018-04-21T06:43:45.000Z</time>
      </trkpt>
      <trkpt lat="40.816339" lon="-3.828924">
        <ele>2089.6</ele>
        <time>2018-04-21T06:43:46.000Z</time>
      </trkpt>
      <trkpt lat="40.816339" lon="-3.828914">
        <ele>2089.6</ele>
        <time>2018-04-21T06:43:47.000Z</time>
      </trkpt>
      <trkpt lat="40.816338" lon="-3.828904">
        <ele>2089.6</ele>
        <time>2018-04-21T06:43:48.000Z</time>
      </trkpt>
      <trkpt lat="40.816337" lon="-3.828896">
        <ele>2089.6</ele>
        <time>2018-04-21T06:43:49.000Z</time>
      </trkpt>
      <trkpt lat="40.816335" lon="-3.828888">
        <ele>2089.6</ele>
        <time>2018-04-21T06:43:50.000Z</time>
      </trkpt>
      <trkpt lat="40.816333" lon="-3.828881">
        <ele>2089.7</ele>
        <time>2018-04-21T06:43:51.000Z</time>
      </trkpt>
      <trkpt lat="40.816331" lon="-3.828873">
        <ele>2089.7</ele>
        <time>2018-04-21T06:43:52.000Z</time>
      </trkpt>
      <trkpt lat="40.81633" lon="-3.828864">
        <ele>2089.7</ele>
        <time>2018-04-21T06:43:53.000Z</time>
      </trkpt>
      <trkpt lat="40.816328" lon="-3.828854">
        <ele>2089.7</ele>
        <time>2018-04-21T06:43:54.000Z</time>
      </trkpt>
      <trkpt lat="40.816327" lon="-3.828843">
        <ele>2089.8</ele>
        <time>2018-04-21T06:43:55.000Z</time>
      </trkpt>
      <trkpt lat="40.816326" lon="-3.828832">
        <ele>2089.8</ele>
        <time>2018-04-21T06:43:56.000Z</time>
      </trkpt>
      <trkpt lat="40.816326" lon="-3.828822">
        <ele>2089.8</ele>
        <time>2018-04-21T06:43:57.000Z</time>
      </trkpt>
      <trkpt lat="40.816325" lon="-3.828815">
        <ele>2089.8</ele>
        <time>2018-04-21T06:45:16.000Z</time>
      </trkpt>
      <trkpt lat="40.816325" lon="-3.82881">
        <ele>2089.8</ele>
        <time>2018-04-21T06:45:17.000Z</time>
      </trkpt>
      <trkpt lat="40.816323" lon="-3.828805">
        <ele>2089.8</ele>
        <time>2018-04-21T06:45:18.000Z</time>
      </trkpt>
      <trkpt lat="40.816321" lon="-3.8288">
        <ele>2089.9</ele>
        <time>2018-04-21T06:45:19.000Z</time>
      </trkpt>
      <trkpt lat="40.816318" lon="-3.828794">
        <ele>2089.9</ele>
        <time>2018-04-21T06:45:20.000Z</time>
      </trkpt>
      <trkpt lat="40.816312" lon="-3.828786">
        <ele>2090.0</ele>
        <time>2018-04-21T06:45:21.000Z</time>
      </trkpt>
      <trkpt lat="40.816305" lon="-3.828777">
        <ele>2090.2</ele>
        <time>2018-04-21T06:45:22.000Z</time>
      </trkpt>
      <trkpt lat="40.816298" lon="-3.828768">
        <ele>2090.3</ele>
        <time>2018-04-21T06:45:23.000Z</time>
      </trkpt>
      <trkpt lat="40.81629" lon="-3.82876">
        <ele>2090.5</ele>
        <time>2018-04-21T06:45:24.000Z</time>
      </trkpt>
      <trkpt lat="40.816282" lon="-3.828753">
        <ele>2090.6</ele>
        <time>2018-04-21T06:45:25.000Z</time>
      </trkpt>
      <trkpt lat="40.816274" lon="-3.828747">
        <ele>2090.8</ele>
        <time>2018-04-21T06:45:26.000Z</time>
      </trkpt>
      <trkpt lat="40.816266" lon="-3.828741">
        <ele>2090.9</ele>
        <time>2018-04-21T06:45:27.000Z</time>
      </trkpt>
      <trkpt lat="40.816259" lon="-3.828736">
        <ele>2091.1</ele>
        <time>2018-04-21T06:45:28.000Z</time>
      </trkpt>
      <trkpt lat="40.816252" lon="-3.828732">
        <ele>2091.2</ele>
        <time>2018-04-21T06:45:29.000Z</time>
      </trkpt>
      <trkpt lat="40.816245" lon="-3.828727">
        <ele>2091.4</ele>
        <time>2018-04-21T06:45:30.000Z</time>
      </trkpt>
      <trkpt lat="40.816239" lon="-3.828722">
        <ele>2091.5</ele>
        <time>2018-04-21T06:45:31.000Z</time>
      </trkpt>
      <trkpt lat="40.816233" lon="-3.828715">
        <ele>2091.6</ele>
        <time>2018-04-21T06:45:32.000Z</time>
      </trkpt>
      <trkpt lat="40.816228" lon="-3.828708">
        <ele>2091.7</ele>
        <time>2018-04-21T06:45:33.000Z</time>
      </trkpt>
      <trkpt lat="40.816223" lon="-3.8287">
        <ele>2091.8</ele>
        <time>2018-04-21T06:45:34.000Z</time>
      </trkpt>
      <trkpt lat="40.816218" lon="-3.828691">
        <ele>2091.9</ele>
        <time>2018-04-21T06:45:35.000Z</time>
      </trkpt>
      <trkpt lat="40.816213" lon="-3.828682">
        <ele>2092.1</ele>
        <time>2018-04-21T06:45:36.000Z</time>
      </trkpt>
      <trkpt lat="40.816209" lon="-3.828674">
        <ele>2092.1</ele>
        <time>2018-04-21T06:45:37.000Z</time>
      </trkpt>
      <trkpt lat="40.816203" lon="-3.828667">
        <ele>2092.3</ele>
        <time>2018-04-21T06:45:38.000Z</time>
      </trkpt>
      <trkpt lat="40.816197" lon="-3.828662">
        <ele>2092.4</ele>
        <time>2018-04-21T06:45:39.000Z</time>
      </trkpt>
      <trkpt lat="40.816191" lon="-3.828658">
        <ele>2092.5</ele>
        <time>2018-04-21T06:45:40.000Z</time>
      </trkpt>
      <trkpt lat="40.816185" lon="-3.828656">
        <ele>2092.7</ele>
        <time>2018-04-21T06:45:41.000Z</time>
      </trkpt>
      <trkpt lat="40.816178" lon="-3.828653">
        <ele>2092.8</ele>
        <time>2018-04-21T06:45:42.000Z</time>
      </trkpt>
      <trkpt lat="40.816172" lon="-3.828651">
        <ele>2093.0</ele>
        <time>2018-04-21T06:45:43.000Z</time>
      </trkpt>
      <trkpt lat="40.816167" lon="-3.828649">
        <ele>2093.1</ele>
        <time>2018-04-21T06:45:44.000Z</time>
      </trkpt>
      <trkpt lat="40.816162" lon="-3.828646">
        <ele>2093.2</ele>
        <time>2018-04-21T06:45:45.000Z</time>
      </trkpt>
      <trkpt lat="40.816157" lon="-3.828643">
        <ele>2093.3</ele>
        <time>2018-04-21T06:45:46.000Z</time>
      </trkpt>
      <trkpt lat="40.816152" lon="-3.82864">
        <ele>2093.4</ele>
        <time>2018-04-21T06:45:47.000Z</time>
      </trkpt>
      <trkpt lat="40.816148" lon="-3.828637">
        <ele>2093.5</ele>
        <time>2018-04-21T06:45:48.000Z</time>
      </trkpt>
      <trkpt lat="40.816144" lon="-3.828633">
        <ele>2093.6</ele>
        <time>2018-04-21T06:45:49.000Z</time>
      </trkpt>
      <trkpt lat="40.816141" lon="-3.828629">
        <ele>2093.7</ele>
        <time>2018-04-21T06:45:50.000Z</time>
      </trkpt>
      <trkpt lat="40.816137" lon="-3.828625">
        <ele>2093.7</ele>
        <time>2018-04-21T06:45:51.000Z</time>
      </trkpt>
      <trkpt lat="40.816134" lon="-3.82862">
        <ele>2093.8</ele>
        <time>2018-04-21T06:45:52.000Z</time>
      </trkpt>
      <trkpt lat="40.816131" lon="-3.828615">
        <ele>2093.9</ele>
        <time>2018-04-21T06:45:53.000Z</time>
      </trkpt>
      <trkpt lat="40.816128" lon="-3.82861">
        <ele>2094.0</ele>
        <time>2018-04-21T06:45:54.000Z</time>
      </trkpt>
      <trkpt lat="40.816126" lon="-3.828606">
        <ele>2094.0</ele>
        <time>2018-04-21T06:45:55.000Z</time>
      </trkpt>
      <trkpt lat="40.816124" lon="-3.828601">
        <ele>2094.1</ele>
        <time>2018-04-21T06:45:56.000Z</time>
      </trkpt>
      <trkpt lat="40.816122" lon="-3.828597">
        <ele>2094.1</ele>
        <time>2018-04-21T06:45:57.000Z</time>
      </trkpt>
      <trkpt lat="40.81612" lon="-3.828593">
        <ele>2094.2</ele>
        <time>2018-04-21T06:45:58.000Z</time>
      </trkpt>
      <trkpt lat="40.816119" lon="-3.82859">
        <ele>2094.2</ele>
        <time>2018-04-21T06:45:59.000Z</time>
      </trkpt>
      <trkpt lat="40.816118" lon="-3.828589">
        <ele>2094.2</ele>
        <time>2018-04-21T06:46:00.000Z</time>
      </trkpt>
      <trkpt lat="40.816118" lon="-3.828588">
        <ele>2094.2</ele>
        <time>2018-04-21T06:46:01.000Z</time>
      </trkpt>
      <trkpt lat="40.816118" lon="-3.828587">
        <ele>2094.2</ele>
        <time>2018-04-21T06:46:02.000Z</time>
      </trkpt>
      <trkpt lat="40.816118" lon="-3.828587">
        <ele>2094.2</ele>
        <time>2018-04-21T06:46:03.000Z</time>
      </trkpt>
      <trkpt lat="40.816118" lon="-3.828587">
        <ele>2094.2</ele>
        <time>2018-04-21T06:46:04.000Z</time>
      </trkpt>
      <trkpt lat="40.816118" lon="-3.828587">
        <ele>2094.2</ele>
        <time>2018-04-21T06:46:05.000Z</time>
      </trkpt>
      <trkpt lat="40.816117" lon="-3.828586">
        <ele>2094.3</ele>
        <time>2018-04-21T06:46:06.000Z</time>
      </trkpt>
      <trkpt lat="40.816116" lon="-3.828584">
        <ele>2094.3</ele>
        <time>2018-04-21T06:46:07.000Z</time>
      </trkpt>
      <trkpt lat="40.816114" lon="-3.828581">
        <ele>2094.3</ele>
        <time>2018-04-21T06:46:08.000Z</time>
      </trkpt>
      <trkpt lat="40.816112" lon="-3.828577">
        <ele>2094.4</ele>
        <time>2018-04-21T06:46:09.000Z</time>
      </trkpt>
      <trkpt lat="40.816108" lon="-3.828573">
        <ele>2094.5</ele>
        <time>2018-04-21T06:46:10.000Z</time>
      </trkpt>
      <trkpt lat="40.816105" lon="-3.828568">
        <ele>2094.6</ele>
        <time>2018-04-21T06:46:11.000Z</time>
      </trkpt>
      <trkpt lat="40.816101" lon="-3.828564">
        <ele>2094.7</ele>
        <time>2018-04-21T06:46:12.000Z</time>
      </trkpt>
      <trkpt lat="40.816098" lon="-3.828561">
        <ele>2094.7</ele>
        <time>2018-04-21T06:46:13.000Z</time>
      </trkpt>
      <trkpt lat="40.816096" lon="-3.828559">
        <ele>2094.8</ele>
        <time>2018-04-21T06:46:14.000Z</time>
      </trkpt>
      <trkpt lat="40.816095" lon="-3.828558">
        <ele>2094.8</ele>
        <time>2018-04-21T06:46:15.000Z</time>
      </trkpt>
      <trkpt lat="40.816096" lon="-3.828558">
        <ele>2094.8</ele>
        <time>2018-04-21T06:46:16.000Z</time>
      </trkpt>
      <trkpt lat="40.816097" lon="-3.828559">
        <ele>2094.8</ele>
        <time>2018-04-21T06:46:17.000Z</time>
      </trkpt>
      <trkpt lat="40.816097" lon="-3.828558">
        <ele>2094.8</ele>
        <time>2018-04-21T06:46:18.000Z</time>
      </trkpt>
      <trkpt lat="40.816096" lon="-3.828556">
        <ele>2094.8</ele>
        <time>2018-04-21T06:46:19.000Z</time>
      </trkpt>
      <trkpt lat="40.816093" lon="-3.828553">
        <ele>2094.9</ele>
        <time>2018-04-21T06:46:20.000Z</time>
      </trkpt>
      <trkpt lat="40.816089" lon="-3.828549">
        <ele>2095.0</ele>
        <time>2018-04-21T06:46:21.000Z</time>
      </trkpt>
      <trkpt lat="40.816085" lon="-3.828543">
        <ele>2095.1</ele>
        <time>2018-04-21T06:46:22.000Z</time>
      </trkpt>
      <trkpt lat="40.816081" lon="-3.828536">
        <ele>2095.2</ele>
        <time>2018-04-21T06:46:23.000Z</time>
      </trkpt>
      <trkpt lat="40.816077" lon="-3.828527">
        <ele>2095.3</ele>
        <time>2018-04-21T06:46:24.000Z</time>
      </trkpt>
      <trkpt lat="40.816073" lon="-3.828519">
        <ele>2095.4</ele>
        <time>2018-04-21T06:46:25.000Z</time>
      </trkpt>
      <trkpt lat="40.816068" lon="-3.82851">
        <ele>2095.6</ele>
        <time>2018-04-21T06:46:26.000Z</time>
      </trkpt>
      <trkpt lat="40.816063" lon="-3.828502">
        <ele>2095.7</ele>
        <time>2018-04-21T06:46:27.000Z</time>
      </trkpt>
      <trkpt lat="40.816057" lon="-3.828495">
        <ele>2095.9</ele>
        <time>2018-04-21T06:46:28.000Z</time>
      </trkpt>
      <trkpt lat="40.816051" lon="-3.828489">
        <ele>2096.0</ele>
        <time>2018-04-21T06:46:29.000Z</time>
      </trkpt>
      <trkpt lat="40.816044" lon="-3.828484">
        <ele>2096.2</ele>
        <time>2018-04-21T06:46:30.000Z</time>
      </trkpt>
      <trkpt lat="40.816037" lon="-3.828478">
        <ele>2096.4</ele>
        <time>2018-04-21T06:46:31.000Z</time>
      </trkpt>
      <trkpt lat="40.816031" lon="-3.828473">
        <ele>2096.5</ele>
        <time>2018-04-21T06:46:32.000Z</time>
      </trkpt>
      <trkpt lat="40.816025" lon="-3.828468">
        <ele>2096.7</ele>
        <time>2018-04-21T06:46:33.000Z</time>
      </trkpt>
      <trkpt lat="40.81602" lon="-3.828462">
        <ele>2096.8</ele>
        <time>2018-04-21T06:46:34.000Z</time>
      </trkpt>
      <trkpt lat="40.816015" lon="-3.828456">
        <ele>2097.0</ele>
        <time>2018-04-21T06:46:35.000Z</time>
      </trkpt>
      <trkpt lat="40.81601" lon="-3.82845">
        <ele>2097.1</ele>
        <time>2018-04-21T06:46:36.000Z</time>
      </trkpt>
      <trkpt lat="40.816006" lon="-3.828445">
        <ele>2097.2</ele>
        <time>2018-04-21T06:46:37.000Z</time>
      </trkpt>
      <trkpt lat="40.816001" lon="-3.828439">
        <ele>2097.4</ele>
        <time>2018-04-21T06:46:38.000Z</time>
      </trkpt>
      <trkpt lat="40.815996" lon="-3.828434">
        <ele>2097.5</ele>
        <time>2018-04-21T06:46:39.000Z</time>
      </trkpt>
      <trkpt lat="40.815991" lon="-3.82843">
        <ele>2097.6</ele>
        <time>2018-04-21T06:46:40.000Z</time>
      </trkpt>
      <trkpt lat="40.815987" lon="-3.828426">
        <ele>2097.8</ele>
        <time>2018-04-21T06:46:41.000Z</time>
      </trkpt>
      <trkpt lat="40.815981" lon="-3.828422">
        <ele>2097.9</ele>
        <time>2018-04-21T06:46:42.000Z</time>
      </trkpt>
      <trkpt lat="40.815976" lon="-3.82842">
        <ele>2098.0</ele>
        <time>2018-04-21T06:46:43.000Z</time>
      </trkpt>
      <trkpt lat="40.815971" lon="-3.828418">
        <ele>2098.2</ele>
        <time>2018-04-21T06:46:44.000Z</time>
      </trkpt>
      <trkpt lat="40.815966" lon="-3.828416">
        <ele>2098.3</ele>
        <time>2018-04-21T06:46:45.000Z</time>
      </trkpt>
      <trkpt lat="40.81596" lon="-3.828416">
        <ele>2098.4</ele>
        <time>2018-04-21T06:46:46.000Z</time>
      </trkpt>
      <trkpt lat="40.815954" lon="-3.828416">
        <ele>2098.6</ele>
        <time>2018-04-21T06:46:47.000Z</time>
      </trkpt>
      <trkpt lat="40.815948" lon="-3.828417">
        <ele>2098.7</ele>
        <time>2018-04-21T06:46:48.000Z</time>
      </trkpt>
      <trkpt lat="40.815943" lon="-3.828417">
        <ele>2098.9</ele>
        <time>2018-04-21T06:46:49.000Z</time>
      </trkpt>
      <trkpt lat="40.815937" lon="-3.828418">
        <ele>2099.0</ele>
        <time>2018-04-21T06:46:50.000Z</time>
      </trkpt>
      <trkpt lat="40.815931" lon="-3.828418">
        <ele>2099.1</ele>
        <time>2018-04-21T06:46:51.000Z</time>
      </trkpt>
      <trkpt lat="40.815925" lon="-3.828417">
        <ele>2099.3</ele>
        <time>2018-04-21T06:46:52.000Z</time>
      </trkpt>
      <trkpt lat="40.815919" lon="-3.828414">
        <ele>2099.4</ele>
        <time>2018-04-21T06:46:53.000Z</time>
      </trkpt>
      <trkpt lat="40.815914" lon="-3.828411">
        <ele>2099.6</ele>
        <time>2018-04-21T06:46:54.000Z</time>
      </trkpt>
      <trkpt lat="40.815908" lon="-3.828406">
        <ele>2099.8</ele>
        <time>2018-04-21T06:46:55.000Z</time>
      </trkpt>
      <trkpt lat="40.815903" lon="-3.828399">
        <ele>2099.9</ele>
        <time>2018-04-21T06:46:56.000Z</time>
      </trkpt>
      <trkpt lat="40.815899" lon="-3.828392">
        <ele>2100.0</ele>
        <time>2018-04-21T06:46:57.000Z</time>
      </trkpt>
      <trkpt lat="40.815895" lon="-3.828385">
        <ele>2100.2</ele>
        <time>2018-04-21T06:46:58.000Z</time>
      </trkpt>
      <trkpt lat="40.815891" lon="-3.828379">
        <ele>2100.3</ele>
        <time>2018-04-21T06:46:59.000Z</time>
      </trkpt>
      <trkpt lat="40.815889" lon="-3.828374">
        <ele>2100.4</ele>
        <time>2018-04-21T06:47:00.000Z</time>
      </trkpt>
      <trkpt lat="40.815886" lon="-3.82837">
        <ele>2100.5</ele>
        <time>2018-04-21T06:47:01.000Z</time>
      </trkpt>
      <trkpt lat="40.815885" lon="-3.828367">
        <ele>2100.5</ele>
        <time>2018-04-21T06:47:02.000Z</time>
      </trkpt>
      <trkpt lat="40.815884" lon="-3.828365">
        <ele>2100.6</ele>
        <time>2018-04-21T06:47:03.000Z</time>
      </trkpt>
      <trkpt lat="40.815884" lon="-3.828365">
        <ele>2100.6</ele>
        <time>2018-04-21T06:47:04.000Z</time>
      </trkpt>
      <trkpt lat="40.815884" lon="-3.828366">
        <ele>2100.5</ele>
        <time>2018-04-21T06:47:05.000Z</time>
      </trkpt>
      <trkpt lat="40.815885" lon="-3.828367">
        <ele>2100.5</ele>
        <time>2018-04-21T06:47:06.000Z</time>
      </trkpt>
      <trkpt lat="40.815885" lon="-3.828368">
        <ele>2100.5</ele>
        <time>2018-04-21T06:47:07.000Z</time>
      </trkpt>
      <trkpt lat="40.815885" lon="-3.828369">
        <ele>2100.5</ele>
        <time>2018-04-21T06:47:08.000Z</time>
      </trkpt>
      <trkpt lat="40.815885" lon="-3.82837">
        <ele>2100.5</ele>
        <time>2018-04-21T06:47:09.000Z</time>
      </trkpt>
      <trkpt lat="40.815884" lon="-3.828369">
        <ele>2100.5</ele>
        <time>2018-04-21T06:47:10.000Z</time>
      </trkpt>
      <trkpt lat="40.815883" lon="-3.828367">
        <ele>2100.6</ele>
        <time>2018-04-21T06:47:11.000Z</time>
      </trkpt>
      <trkpt lat="40.815881" lon="-3.828362">
        <ele>2100.6</ele>
        <time>2018-04-21T06:47:12.000Z</time>
      </trkpt>
      <trkpt lat="40.815878" lon="-3.828356">
        <ele>2100.8</ele>
        <time>2018-04-21T06:47:13.000Z</time>
      </trkpt>
      <trkpt lat="40.815874" lon="-3.828347">
        <ele>2100.9</ele>
        <time>2018-04-21T06:47:14.000Z</time>
      </trkpt>
      <trkpt lat="40.815869" lon="-3.828338">
        <ele>2101.1</ele>
        <time>2018-04-21T06:47:15.000Z</time>
      </trkpt>
      <trkpt lat="40.815864" lon="-3.828327">
        <ele>2101.2</ele>
        <time>2018-04-21T06:47:16.000Z</time>
      </trkpt>
      <trkpt lat="40.815858" lon="-3.828317">
        <ele>2101.2</ele>
        <time>2018-04-21T06:47:17.000Z</time>
      </trkpt>
      <trkpt lat="40.815852" lon="-3.828306">
        <ele>2101.2</ele>
        <time>2018-04-21T06:47:18.000Z</time>
      </trkpt>
      <trkpt lat="40.815846" lon="-3.828297">
        <ele>2101.3</ele>
        <time>2018-04-21T06:47:19.000Z</time>
      </trkpt>
      <trkpt lat="40.815841" lon="-3.828289">
        <ele>2101.3</ele>
        <time>2018-04-21T06:47:20.000Z</time>
      </trkpt>
      <trkpt lat="40.815835" lon="-3.828282">
        <ele>2101.4</ele>
        <time>2018-04-21T06:47:21.000Z</time>
      </trkpt>
      <trkpt lat="40.81583" lon="-3.828278">
        <ele>2101.4</ele>
        <time>2018-04-21T06:47:22.000Z</time>
      </trkpt>
      <trkpt lat="40.815826" lon="-3.828275">
        <ele>2101.4</ele>
        <time>2018-04-21T06:47:23.000Z</time>
      </trkpt>
      <trkpt lat="40.815821" lon="-3.828272">
        <ele>2101.5</ele>
        <time>2018-04-21T06:47:24.000Z</time>
      </trkpt>
      <trkpt lat="40.815817" lon="-3.828268">
        <ele>2101.5</ele>
        <time>2018-04-21T06:47:25.000Z</time>
      </trkpt>
      <trkpt lat="40.815813" lon="-3.828262">
        <ele>2101.4</ele>
        <time>2018-04-21T06:47:26.000Z</time>
      </trkpt>
      <trkpt lat="40.815809" lon="-3.828253">
        <ele>2101.4</ele>
        <time>2018-04-21T06:47:27.000Z</time>
      </trkpt>
      <trkpt lat="40.815805" lon="-3.828242">
        <ele>2101.3</ele>
        <time>2018-04-21T06:47:28.000Z</time>
      </trkpt>
      <trkpt lat="40.815801" lon="-3.828231">
        <ele>2101.2</ele>
        <time>2018-04-21T06:47:29.000Z</time>
      </trkpt>
      <trkpt lat="40.815796" lon="-3.82822">
        <ele>2101.2</ele>
        <time>2018-04-21T06:47:30.000Z</time>
      </trkpt>
      <trkpt lat="40.815791" lon="-3.828211">
        <ele>2101.1</ele>
        <time>2018-04-21T06:47:31.000Z</time>
      </trkpt>
      <trkpt lat="40.815786" lon="-3.828204">
        <ele>2101.1</ele>
        <time>2018-04-21T06:47:32.000Z</time>
      </trkpt>
      <trkpt lat="40.81578" lon="-3.828198">
        <ele>2101.1</ele>
        <time>2018-04-21T06:47:33.000Z</time>
      </trkpt>
      <trkpt lat="40.815775" lon="-3.828194">
        <ele>2101.1</ele>
        <time>2018-04-21T06:47:34.000Z</time>
      </trkpt>
      <trkpt lat="40.815769" lon="-3.828191">
        <ele>2101.2</ele>
        <time>2018-04-21T06:47:35.000Z</time>
      </trkpt>
      <trkpt lat="40.815763" lon="-3.828189">
        <ele>2101.2</ele>
        <time>2018-04-21T06:47:36.000Z</time>
      </trkpt>
      <trkpt lat="40.815757" lon="-3.828188">
        <ele>2101.3</ele>
        <time>2018-04-21T06:47:37.000Z</time>
      </trkpt>
      <trkpt lat="40.815752" lon="-3.828187">
        <ele>2101.3</ele>
        <time>2018-04-21T06:47:38.000Z</time>
      </trkpt>
      <trkpt lat="40.815746" lon="-3.828186">
        <ele>2101.4</ele>
        <time>2018-04-21T06:47:39.000Z</time>
      </trkpt>
      <trkpt lat="40.81574" lon="-3.828185">
        <ele>2101.4</ele>
        <time>2018-04-21T06:47:40.000Z</time>
      </trkpt>
      <trkpt lat="40.815735" lon="-3.828184">
        <ele>2101.5</ele>
        <time>2018-04-21T06:47:41.000Z</time>
      </trkpt>
      <trkpt lat="40.81573" lon="-3.828183">
        <ele>2101.5</ele>
        <time>2018-04-21T06:47:42.000Z</time>
      </trkpt>
      <trkpt lat="40.815725" lon="-3.828181">
        <ele>2101.6</ele>
        <time>2018-04-21T06:47:43.000Z</time>
      </trkpt>
      <trkpt lat="40.81572" lon="-3.828179">
        <ele>2101.6</ele>
        <time>2018-04-21T06:47:44.000Z</time>
      </trkpt>
      <trkpt lat="40.815716" lon="-3.828177">
        <ele>2101.6</ele>
        <time>2018-04-21T06:47:45.000Z</time>
      </trkpt>
      <trkpt lat="40.815711" lon="-3.828175">
        <ele>2101.7</ele>
        <time>2018-04-21T06:47:46.000Z</time>
      </trkpt>
      <trkpt lat="40.815707" lon="-3.828173">
        <ele>2101.7</ele>
        <time>2018-04-21T06:47:47.000Z</time>
      </trkpt>
      <trkpt lat="40.815703" lon="-3.828172">
        <ele>2101.7</ele>
        <time>2018-04-21T06:47:48.000Z</time>
      </trkpt>
      <trkpt lat="40.815699" lon="-3.82817">
        <ele>2101.7</ele>
        <time>2018-04-21T06:47:49.000Z</time>
      </trkpt>
      <trkpt lat="40.815695" lon="-3.828169">
        <ele>2101.8</ele>
        <time>2018-04-21T06:47:50.000Z</time>
      </trkpt>
      <trkpt lat="40.815691" lon="-3.828168">
        <ele>2101.8</ele>
        <time>2018-04-21T06:47:51.000Z</time>
      </trkpt>
      <trkpt lat="40.815687" lon="-3.828168">
        <ele>2101.9</ele>
        <time>2018-04-21T06:47:52.000Z</time>
      </trkpt>
      <trkpt lat="40.815684" lon="-3.828167">
        <ele>2101.9</ele>
        <time>2018-04-21T06:47:53.000Z</time>
      </trkpt>
      <trkpt lat="40.81568" lon="-3.828167">
        <ele>2101.9</ele>
        <time>2018-04-21T06:47:54.000Z</time>
      </trkpt>
      <trkpt lat="40.815676" lon="-3.828167">
        <ele>2102.0</ele>
        <time>2018-04-21T06:47:55.000Z</time>
      </trkpt>
      <trkpt lat="40.815673" lon="-3.828168">
        <ele>2102.0</ele>
        <time>2018-04-21T06:47:56.000Z</time>
      </trkpt>
      <trkpt lat="40.815669" lon="-3.828168">
        <ele>2102.1</ele>
        <time>2018-04-21T06:47:57.000Z</time>
      </trkpt>
      <trkpt lat="40.815665" lon="-3.828169">
        <ele>2102.1</ele>
        <time>2018-04-21T06:47:58.000Z</time>
      </trkpt>
      <trkpt lat="40.815661" lon="-3.82817">
        <ele>2102.2</ele>
        <time>2018-04-21T06:47:59.000Z</time>
      </trkpt>
      <trkpt lat="40.815657" lon="-3.828171">
        <ele>2102.2</ele>
        <time>2018-04-21T06:48:00.000Z</time>
      </trkpt>
      <trkpt lat="40.815654" lon="-3.828172">
        <ele>2102.3</ele>
        <time>2018-04-21T06:48:01.000Z</time>
      </trkpt>
      <trkpt lat="40.81565" lon="-3.828173">
        <ele>2102.3</ele>
        <time>2018-04-21T06:48:02.000Z</time>
      </trkpt>
      <trkpt lat="40.815647" lon="-3.828174">
        <ele>2102.4</ele>
        <time>2018-04-21T06:48:03.000Z</time>
      </trkpt>
      <trkpt lat="40.815644" lon="-3.828175">
        <ele>2102.4</ele>
        <time>2018-04-21T06:48:04.000Z</time>
      </trkpt>
      <trkpt lat="40.815642" lon="-3.828176">
        <ele>2102.4</ele>
        <time>2018-04-21T06:48:05.000Z</time>
      </trkpt>
      <trkpt lat="40.81564" lon="-3.828176">
        <ele>2102.5</ele>
        <time>2018-04-21T06:48:06.000Z</time>
      </trkpt>
      <trkpt lat="40.815639" lon="-3.828177">
        <ele>2102.5</ele>
        <time>2018-04-21T06:48:07.000Z</time>
      </trkpt>
      <trkpt lat="40.815639" lon="-3.828177">
        <ele>2102.5</ele>
        <time>2018-04-21T06:48:08.000Z</time>
      </trkpt>
      <trkpt lat="40.81564" lon="-3.828177">
        <ele>2102.5</ele>
        <time>2018-04-21T06:48:09.000Z</time>
      </trkpt>
      <trkpt lat="40.815641" lon="-3.828177">
        <ele>2102.5</ele>
        <time>2018-04-21T06:48:10.000Z</time>
      </trkpt>
      <trkpt lat="40.815642" lon="-3.828177">
        <ele>2102.4</ele>
        <time>2018-04-21T06:48:11.000Z</time>
      </trkpt>
      <trkpt lat="40.815642" lon="-3.828177">
        <ele>2102.4</ele>
        <time>2018-04-21T06:48:12.000Z</time>
      </trkpt>
      <trkpt lat="40.815643" lon="-3.828177">
        <ele>2102.4</ele>
        <time>2018-04-21T06:48:13.000Z</time>
      </trkpt>
      <trkpt lat="40.815643" lon="-3.828177">
        <ele>2102.4</ele>
        <time>2018-04-21T06:48:14.000Z</time>
      </trkpt>
      <trkpt lat="40.815643" lon="-3.828177">
        <ele>2102.4</ele>
        <time>2018-04-21T06:48:15.000Z</time>
      </trkpt>
      <trkpt lat="40.815641" lon="-3.828177">
        <ele>2102.5</ele>
        <time>2018-04-21T06:48:16.000Z</time>
      </trkpt>
      <trkpt lat="40.815639" lon="-3.828177">
        <ele>2102.5</ele>
        <time>2018-04-21T06:48:17.000Z</time>
      </trkpt>
      <trkpt lat="40.815635" lon="-3.828177">
        <ele>2102.5</ele>
        <time>2018-04-21T06:48:18.000Z</time>
      </trkpt>
      <trkpt lat="40.815631" lon="-3.828177">
        <ele>2102.6</ele>
        <time>2018-04-21T06:48:19.000Z</time>
      </trkpt>
      <trkpt lat="40.815626" lon="-3.828177">
        <ele>2102.6</ele>
        <time>2018-04-21T06:48:20.000Z</time>
      </trkpt>
      <trkpt lat="40.81562" lon="-3.828177">
        <ele>2102.7</ele>
        <time>2018-04-21T06:48:21.000Z</time>
      </trkpt>
      <trkpt lat="40.815615" lon="-3.828177">
        <ele>2102.8</ele>
        <time>2018-04-21T06:48:22.000Z</time>
      </trkpt>
      <trkpt lat="40.815609" lon="-3.828177">
        <ele>2102.8</ele>
        <time>2018-04-21T06:48:23.000Z</time>
      </trkpt>
      <trkpt lat="40.815603" lon="-3.828177">
        <ele>2102.9</ele>
        <time>2018-04-21T06:48:24.000Z</time>
      </trkpt>
      <trkpt lat="40.815598" lon="-3.828176">
        <ele>2102.9</ele>
        <time>2018-04-21T06:48:25.000Z</time>
      </trkpt>
      <trkpt lat="40.815593" lon="-3.828175">
        <ele>2103.0</ele>
        <time>2018-04-21T06:48:26.000Z</time>
      </trkpt>
      <trkpt lat="40.815589" lon="-3.828173">
        <ele>2103.0</ele>
        <time>2018-04-21T06:48:27.000Z</time>
      </trkpt>
      <trkpt lat="40.815585" lon="-3.828172">
        <ele>2103.0</ele>
        <time>2018-04-21T06:48:28.000Z</time>
      </trkpt>
      <trkpt lat="40.815581" lon="-3.82817">
        <ele>2103.1</ele>
        <time>2018-04-21T06:48:29.000Z</time>
      </trkpt>
      <trkpt lat="40.815578" lon="-3.828169">
        <ele>2103.1</ele>
        <time>2018-04-21T06:48:30.000Z</time>
      </trkpt>
      <trkpt lat="40.815575" lon="-3.828167">
        <ele>2103.1</ele>
        <time>2018-04-21T06:48:31.000Z</time>
      </trkpt>
      <trkpt lat="40.815572" lon="-3.828165">
        <ele>2103.1</ele>
        <time>2018-04-21T06:48:32.000Z</time>
      </trkpt>
      <trkpt lat="40.815569" lon="-3.828164">
        <ele>2103.2</ele>
        <time>2018-04-21T06:48:33.000Z</time>
      </trkpt>
      <trkpt lat="40.815566" lon="-3.828163">
        <ele>2103.2</ele>
        <time>2018-04-21T06:48:34.000Z</time>
      </trkpt>
      <trkpt lat="40.815563" lon="-3.828162">
        <ele>2103.2</ele>
        <time>2018-04-21T06:48:35.000Z</time>
      </trkpt>
      <trkpt lat="40.81556" lon="-3.828161">
        <ele>2103.2</ele>
        <time>2018-04-21T06:48:36.000Z</time>
      </trkpt>
      <trkpt lat="40.815557" lon="-3.82816">
        <ele>2103.3</ele>
        <time>2018-04-21T06:48:37.000Z</time>
      </trkpt>
      <trkpt lat="40.815554" lon="-3.828159">
        <ele>2103.3</ele>
        <time>2018-04-21T06:48:38.000Z</time>
      </trkpt>
      <trkpt lat="40.815551" lon="-3.828158">
        <ele>2103.3</ele>
        <time>2018-04-21T06:48:39.000Z</time>
      </trkpt>
      <trkpt lat="40.815548" lon="-3.828156">
        <ele>2103.3</ele>
        <time>2018-04-21T06:48:40.000Z</time>
      </trkpt>
      <trkpt lat="40.815545" lon="-3.828153">
        <ele>2103.3</ele>
        <time>2018-04-21T06:48:41.000Z</time>
      </trkpt>
      <trkpt lat="40.815541" lon="-3.828149">
        <ele>2103.4</ele>
        <time>2018-04-21T06:48:42.000Z</time>
      </trkpt>
      <trkpt lat="40.815537" lon="-3.828143">
        <ele>2103.4</ele>
        <time>2018-04-21T06:48:43.000Z</time>
      </trkpt>
      <trkpt lat="40.815534" lon="-3.828137">
        <ele>2103.3</ele>
        <time>2018-04-21T06:48:44.000Z</time>
      </trkpt>
      <trkpt lat="40.815529" lon="-3.828129">
        <ele>2103.3</ele>
        <time>2018-04-21T06:48:45.000Z</time>
      </trkpt>
      <trkpt lat="40.815525" lon="-3.828121">
        <ele>2103.3</ele>
        <time>2018-04-21T06:48:46.000Z</time>
      </trkpt>
      <trkpt lat="40.815521" lon="-3.828112">
        <ele>2103.3</ele>
        <time>2018-04-21T06:48:47.000Z</time>
      </trkpt>
      <trkpt lat="40.815516" lon="-3.828102">
        <ele>2103.3</ele>
        <time>2018-04-21T06:48:48.000Z</time>
      </trkpt>
      <trkpt lat="40.815511" lon="-3.828093">
        <ele>2103.3</ele>
        <time>2018-04-21T06:48:49.000Z</time>
      </trkpt>
      <trkpt lat="40.815506" lon="-3.828084">
        <ele>2103.3</ele>
        <time>2018-04-21T06:48:50.000Z</time>
      </trkpt>
      <trkpt lat="40.8155" lon="-3.828075">
        <ele>2103.3</ele>
        <time>2018-04-21T06:48:51.000Z</time>
      </trkpt>
      <trkpt lat="40.815494" lon="-3.828067">
        <ele>2103.3</ele>
        <time>2018-04-21T06:48:52.000Z</time>
      </trkpt>
      <trkpt lat="40.815488" lon="-3.828061">
        <ele>2103.3</ele>
        <time>2018-04-21T06:48:53.000Z</time>
      </trkpt>
      <trkpt lat="40.815482" lon="-3.828055">
        <ele>2103.4</ele>
        <time>2018-04-21T06:48:54.000Z</time>
      </trkpt>
      <trkpt lat="40.815475" lon="-3.82805">
        <ele>2103.4</ele>
        <time>2018-04-21T06:48:55.000Z</time>
      </trkpt>
      <trkpt lat="40.815468" lon="-3.828045">
        <ele>2103.5</ele>
        <time>2018-04-21T06:48:56.000Z</time>
      </trkpt>
      <trkpt lat="40.815461" lon="-3.828042">
        <ele>2103.5</ele>
        <time>2018-04-21T06:48:57.000Z</time>
      </trkpt>
      <trkpt lat="40.815453" lon="-3.828038">
        <ele>2103.6</ele>
        <time>2018-04-21T06:48:58.000Z</time>
      </trkpt>
      <trkpt lat="40.815445" lon="-3.828036">
        <ele>2103.7</ele>
        <time>2018-04-21T06:48:59.000Z</time>
      </trkpt>
      <trkpt lat="40.815436" lon="-3.828033">
        <ele>2103.8</ele>
        <time>2018-04-21T06:49:00.000Z</time>
      </trkpt>
      <trkpt lat="40.815427" lon="-3.828031">
        <ele>2103.9</ele>
        <time>2018-04-21T06:49:01.000Z</time>
      </trkpt>
      <trkpt lat="40.815418" lon="-3.828029">
        <ele>2104.0</ele>
        <time>2018-04-21T06:49:02.000Z</time>
      </trkpt>
      <trkpt lat="40.815409" lon="-3.828028">
        <ele>2104.1</ele>
        <time>2018-04-21T06:49:03.000Z</time>
      </trkpt>
      <trkpt lat="40.815401" lon="-3.828031">
        <ele>2104.2</ele>
        <time>2018-04-21T06:49:04.000Z</time>
      </trkpt>
      <trkpt lat="40.815394" lon="-3.828038">
        <ele>2104.3</ele>
        <time>2018-04-21T06:49:05.000Z</time>
      </trkpt>
      <trkpt lat="40.81539" lon="-3.828045">
        <ele>2104.4</ele>
        <time>2018-04-21T06:49:06.000Z</time>
      </trkpt>
      <trkpt lat="40.815388" lon="-3.828051">
        <ele>2104.5</ele>
        <time>2018-04-21T06:49:07.000Z</time>
      </trkpt>
      <trkpt lat="40.815388" lon="-3.828054">
        <ele>2104.5</ele>
        <time>2018-04-21T06:49:08.000Z</time>
      </trkpt>
      <trkpt lat="40.815388" lon="-3.828056">
        <ele>2104.5</ele>
        <time>2018-04-21T06:49:09.000Z</time>
      </trkpt>
      <trkpt lat="40.815388" lon="-3.828057">
        <ele>2104.5</ele>
        <time>2018-04-21T06:49:10.000Z</time>
      </trkpt>
      <trkpt lat="40.815388" lon="-3.828057">
        <ele>2104.5</ele>
        <time>2018-04-21T06:49:11.000Z</time>
      </trkpt>
      <trkpt lat="40.815388" lon="-3.828057">
        <ele>2104.5</ele>
        <time>2018-04-21T06:49:12.000Z</time>
      </trkpt>
      <trkpt lat="40.815388" lon="-3.828057">
        <ele>2104.5</ele>
        <time>2018-04-21T06:49:13.000Z</time>
      </trkpt>
      <trkpt lat="40.815388" lon="-3.828057">
        <ele>2104.5</ele>
        <time>2018-04-21T06:49:14.000Z</time>
      </trkpt>
      <trkpt lat="40.815387" lon="-3.828057">
        <ele>2104.5</ele>
        <time>2018-04-21T06:49:15.000Z</time>
      </trkpt>
      <trkpt lat="40.815386" lon="-3.828057">
        <ele>2104.6</ele>
        <time>2018-04-21T06:49:16.000Z</time>
      </trkpt>
      <trkpt lat="40.815386" lon="-3.828057">
        <ele>2104.6</ele>
        <time>2018-04-21T06:49:17.000Z</time>
      </trkpt>
      <trkpt lat="40.815385" lon="-3.828056">
        <ele>2104.6</ele>
        <time>2018-04-21T06:49:18.000Z</time>
      </trkpt>
      <trkpt lat="40.815385" lon="-3.828056">
        <ele>2104.6</ele>
        <time>2018-04-21T06:49:19.000Z</time>
      </trkpt>
      <trkpt lat="40.815385" lon="-3.828056">
        <ele>2104.6</ele>
        <time>2018-04-21T06:49:20.000Z</time>
      </trkpt>
      <trkpt lat="40.815385" lon="-3.828057">
        <ele>2104.6</ele>
        <time>2018-04-21T06:49:21.000Z</time>
      </trkpt>
      <trkpt lat="40.815386" lon="-3.828057">
        <ele>2104.6</ele>
        <time>2018-04-21T06:49:22.000Z</time>
      </trkpt>
      <trkpt lat="40.815386" lon="-3.828057">
        <ele>2104.6</ele>
        <time>2018-04-21T06:49:23.000Z</time>
      </trkpt>
      <trkpt lat="40.815386" lon="-3.828057">
        <ele>2104.6</ele>
        <time>2018-04-21T06:53:54.000Z</time>
      </trkpt>
      <trkpt lat="40.815386" lon="-3.828058">
        <ele>2104.6</ele>
        <time>2018-04-21T06:53:55.000Z</time>
      </trkpt>
      <trkpt lat="40.815386" lon="-3.828058">
        <ele>2104.6</ele>
        <time>2018-04-21T06:53:56.000Z</time>
      </trkpt>
      <trkpt lat="40.815386" lon="-3.828058">
        <ele>2104.6</ele>
        <time>2018-04-21T06:53:57.000Z</time>
      </trkpt>
      <trkpt lat="40.815385" lon="-3.828058">
        <ele>2104.6</ele>
        <time>2018-04-21T06:53:58.000Z</time>
      </trkpt>
      <trkpt lat="40.815384" lon="-3.828058">
        <ele>2104.6</ele>
        <time>2018-04-21T06:53:59.000Z</time>
      </trkpt>
      <trkpt lat="40.815383" lon="-3.828057">
        <ele>2104.6</ele>
        <time>2018-04-21T06:54:00.000Z</time>
      </trkpt>
      <trkpt lat="40.815381" lon="-3.828056">
        <ele>2104.6</ele>
        <time>2018-04-21T06:54:01.000Z</time>
      </trkpt>
      <trkpt lat="40.815378" lon="-3.828056">
        <ele>2104.6</ele>
        <time>2018-04-21T06:54:02.000Z</time>
      </trkpt>
      <trkpt lat="40.815375" lon="-3.828054">
        <ele>2104.7</ele>
        <time>2018-04-21T06:54:03.000Z</time>
      </trkpt>
      <trkpt lat="40.815372" lon="-3.828053">
        <ele>2104.7</ele>
        <time>2018-04-21T06:54:04.000Z</time>
      </trkpt>
      <trkpt lat="40.815368" lon="-3.828052">
        <ele>2104.7</ele>
        <time>2018-04-21T06:54:05.000Z</time>
      </trkpt>
      <trkpt lat="40.815365" lon="-3.828052">
        <ele>2104.8</ele>
        <time>2018-04-21T06:54:06.000Z</time>
      </trkpt>
      <trkpt lat="40.815361" lon="-3.828054">
        <ele>2104.8</ele>
        <time>2018-04-21T06:54:07.000Z</time>
      </trkpt>
      <trkpt lat="40.815357" lon="-3.828057">
        <ele>2104.9</ele>
        <time>2018-04-21T06:54:08.000Z</time>
      </trkpt>
      <trkpt lat="40.815354" lon="-3.828062">
        <ele>2105.0</ele>
        <time>2018-04-21T06:54:09.000Z</time>
      </trkpt>
      <trkpt lat="40.815352" lon="-3.828068">
        <ele>2105.0</ele>
        <time>2018-04-21T06:54:10.000Z</time>
      </trkpt>
      <trkpt lat="40.81535" lon="-3.828073">
        <ele>2105.1</ele>
        <time>2018-04-21T06:54:11.000Z</time>
      </trkpt>
      <trkpt lat="40.815348" lon="-3.828079">
        <ele>2105.2</ele>
        <time>2018-04-21T06:54:12.000Z</time>
      </trkpt>
      <trkpt lat="40.815348" lon="-3.828082">
        <ele>2105.2</ele>
        <time>2018-04-21T06:54:13.000Z</time>
      </trkpt>
      <trkpt lat="40.815348" lon="-3.828085">
        <ele>2105.2</ele>
        <time>2018-04-21T06:54:14.000Z</time>
      </trkpt>
      <trkpt lat="40.815347" lon="-3.828086">
        <ele>2105.2</ele>
        <time>2018-04-21T06:54:15.000Z</time>
      </trkpt>
      <trkpt lat="40.815346" lon="-3.828086">
        <ele>2105.2</ele>
        <time>2018-04-21T06:54:16.000Z</time>
      </trkpt>
      <trkpt lat="40.815344" lon="-3.828085">
        <ele>2105.2</ele>
        <time>2018-04-21T06:54:17.000Z</time>
      </trkpt>
      <trkpt lat="40.815341" lon="-3.828082">
        <ele>2105.3</ele>
        <time>2018-04-21T06:54:18.000Z</time>
      </trkpt>
      <trkpt lat="40.815337" lon="-3.828079">
        <ele>2105.3</ele>
        <time>2018-04-21T06:54:19.000Z</time>
      </trkpt>
      <trkpt lat="40.815333" lon="-3.828075">
        <ele>2105.3</ele>
        <time>2018-04-21T06:54:20.000Z</time>
      </trkpt>
      <trkpt lat="40.815329" lon="-3.82807">
        <ele>2105.3</ele>
        <time>2018-04-21T06:54:21.000Z</time>
      </trkpt>
      <trkpt lat="40.815324" lon="-3.828066">
        <ele>2105.4</ele>
        <time>2018-04-21T06:54:22.000Z</time>
      </trkpt>
      <trkpt lat="40.81532" lon="-3.828061">
        <ele>2105.4</ele>
        <time>2018-04-21T06:54:23.000Z</time>
      </trkpt>
      <trkpt lat="40.815316" lon="-3.828057">
        <ele>2105.4</ele>
        <time>2018-04-21T06:54:24.000Z</time>
      </trkpt>
      <trkpt lat="40.815313" lon="-3.828054">
        <ele>2105.4</ele>
        <time>2018-04-21T06:54:25.000Z</time>
      </trkpt>
      <trkpt lat="40.81531" lon="-3.828052">
        <ele>2105.5</ele>
        <time>2018-04-21T06:54:26.000Z</time>
      </trkpt>
      <trkpt lat="40.815308" lon="-3.82805">
        <ele>2105.5</ele>
        <time>2018-04-21T06:54:27.000Z</time>
      </trkpt>
      <trkpt lat="40.815306" lon="-3.82805">
        <ele>2105.5</ele>
        <time>2018-04-21T06:54:28.000Z</time>
      </trkpt>
      <trkpt lat="40.815303" lon="-3.82805">
        <ele>2105.5</ele>
        <time>2018-04-21T06:54:29.000Z</time>
      </trkpt>
      <trkpt lat="40.815298" lon="-3.828052">
        <ele>2105.6</ele>
        <time>2018-04-21T06:54:30.000Z</time>
      </trkpt>
      <trkpt lat="40.815292" lon="-3.828056">
        <ele>2105.7</ele>
        <time>2018-04-21T06:54:31.000Z</time>
      </trkpt>
      <trkpt lat="40.815285" lon="-3.82806">
        <ele>2105.8</ele>
        <time>2018-04-21T06:54:32.000Z</time>
      </trkpt>
      <trkpt lat="40.815278" lon="-3.828064">
        <ele>2105.9</ele>
        <time>2018-04-21T06:54:33.000Z</time>
      </trkpt>
      <trkpt lat="40.815273" lon="-3.828067">
        <ele>2106.0</ele>
        <time>2018-04-21T06:54:34.000Z</time>
      </trkpt>
      <trkpt lat="40.815271" lon="-3.828069">
        <ele>2106.0</ele>
        <time>2018-04-21T06:54:35.000Z</time>
      </trkpt>
      <trkpt lat="40.815271" lon="-3.82807">
        <ele>2106.0</ele>
        <time>2018-04-21T06:54:36.000Z</time>
      </trkpt>
      <trkpt lat="40.815272" lon="-3.82807">
        <ele>2106.0</ele>
        <time>2018-04-21T06:54:37.000Z</time>
      </trkpt>
      <trkpt lat="40.815273" lon="-3.828069">
        <ele>2106.0</ele>
        <time>2018-04-21T06:54:38.000Z</time>
      </trkpt>
      <trkpt lat="40.815273" lon="-3.82807">
        <ele>2106.0</ele>
        <time>2018-04-21T06:54:39.000Z</time>
      </trkpt>
      <trkpt lat="40.815271" lon="-3.82807">
        <ele>2106.0</ele>
        <time>2018-04-21T06:54:40.000Z</time>
      </trkpt>
      <trkpt lat="40.815267" lon="-3.828073">
        <ele>2106.1</ele>
        <time>2018-04-21T06:54:41.000Z</time>
      </trkpt>
      <trkpt lat="40.815263" lon="-3.828078">
        <ele>2106.2</ele>
        <time>2018-04-21T06:54:42.000Z</time>
      </trkpt>
      <trkpt lat="40.815258" lon="-3.828086">
        <ele>2106.3</ele>
        <time>2018-04-21T06:54:43.000Z</time>
      </trkpt>
      <trkpt lat="40.815254" lon="-3.828098">
        <ele>2106.4</ele>
        <time>2018-04-21T06:54:44.000Z</time>
      </trkpt>
      <trkpt lat="40.81525" lon="-3.828113">
        <ele>2106.5</ele>
        <time>2018-04-21T06:54:45.000Z</time>
      </trkpt>
      <trkpt lat="40.815247" lon="-3.828131">
        <ele>2106.6</ele>
        <time>2018-04-21T06:54:46.000Z</time>
      </trkpt>
      <trkpt lat="40.815245" lon="-3.828149">
        <ele>2106.8</ele>
        <time>2018-04-21T06:54:47.000Z</time>
      </trkpt>
      <trkpt lat="40.815243" lon="-3.828167">
        <ele>2106.9</ele>
        <time>2018-04-21T06:54:48.000Z</time>
      </trkpt>
      <trkpt lat="40.815241" lon="-3.828184">
        <ele>2107.0</ele>
        <time>2018-04-21T06:54:49.000Z</time>
      </trkpt>
      <trkpt lat="40.81524" lon="-3.828199">
        <ele>2107.0</ele>
        <time>2018-04-21T06:54:50.000Z</time>
      </trkpt>
      <trkpt lat="40.815238" lon="-3.828214">
        <ele>2107.1</ele>
        <time>2018-04-21T06:54:51.000Z</time>
      </trkpt>
      <trkpt lat="40.815236" lon="-3.828229">
        <ele>2107.2</ele>
        <time>2018-04-21T06:54:52.000Z</time>
      </trkpt>
      <trkpt lat="40.815233" lon="-3.828243">
        <ele>2107.3</ele>
        <time>2018-04-21T06:54:53.000Z</time>
      </trkpt>
      <trkpt lat="40.815229" lon="-3.828257">
        <ele>2107.4</ele>
        <time>2018-04-21T06:54:54.000Z</time>
      </trkpt>
      <trkpt lat="40.815225" lon="-3.82827">
        <ele>2107.5</ele>
        <time>2018-04-21T06:54:55.000Z</time>
      </trkpt>
      <trkpt lat="40.81522" lon="-3.828284">
        <ele>2107.7</ele>
        <time>2018-04-21T06:54:56.000Z</time>
      </trkpt>
      <trkpt lat="40.815215" lon="-3.828297">
        <ele>2107.8</ele>
        <time>2018-04-21T06:54:57.000Z</time>
      </trkpt>
      <trkpt lat="40.81521" lon="-3.82831">
        <ele>2107.9</ele>
        <time>2018-04-21T06:54:58.000Z</time>
      </trkpt>
      <trkpt lat="40.815204" lon="-3.828324">
        <ele>2108.0</ele>
        <time>2018-04-21T06:54:59.000Z</time>
      </trkpt>
      <trkpt lat="40.815199" lon="-3.828337">
        <ele>2108.1</ele>
        <time>2018-04-21T06:55:00.000Z</time>
      </trkpt>
      <trkpt lat="40.815194" lon="-3.82835">
        <ele>2108.0</ele>
        <time>2018-04-21T06:55:01.000Z</time>
      </trkpt>
      <trkpt lat="40.815189" lon="-3.828363">
        <ele>2108.0</ele>
        <time>2018-04-21T06:55:02.000Z</time>
      </trkpt>
      <trkpt lat="40.815184" lon="-3.828376">
        <ele>2108.0</ele>
        <time>2018-04-21T06:55:03.000Z</time>
      </trkpt>
      <trkpt lat="40.81518" lon="-3.82839">
        <ele>2107.9</ele>
        <time>2018-04-21T06:55:04.000Z</time>
      </trkpt>
      <trkpt lat="40.815175" lon="-3.828403">
        <ele>2107.9</ele>
        <time>2018-04-21T06:55:05.000Z</time>
      </trkpt>
      <trkpt lat="40.81517" lon="-3.828416">
        <ele>2107.9</ele>
        <time>2018-04-21T06:55:06.000Z</time>
      </trkpt>
      <trkpt lat="40.815165" lon="-3.828428">
        <ele>2107.8</ele>
        <time>2018-04-21T06:55:07.000Z</time>
      </trkpt>
      <trkpt lat="40.81516" lon="-3.828441">
        <ele>2107.8</ele>
        <time>2018-04-21T06:55:08.000Z</time>
      </trkpt>
      <trkpt lat="40.815154" lon="-3.828453">
        <ele>2107.8</ele>
        <time>2018-04-21T06:55:09.000Z</time>
      </trkpt>
      <trkpt lat="40.815148" lon="-3.828465">
        <ele>2107.8</ele>
        <time>2018-04-21T06:55:10.000Z</time>
      </trkpt>
      <trkpt lat="40.815141" lon="-3.828477">
        <ele>2107.8</ele>
        <time>2018-04-21T06:55:11.000Z</time>
      </trkpt>
      <trkpt lat="40.815133" lon="-3.828489">
        <ele>2107.8</ele>
        <time>2018-04-21T06:55:12.000Z</time>
      </trkpt>
      <trkpt lat="40.815125" lon="-3.8285">
        <ele>2107.8</ele>
        <time>2018-04-21T06:55:13.000Z</time>
      </trkpt>
      <trkpt lat="40.815117" lon="-3.828512">
        <ele>2107.8</ele>
        <time>2018-04-21T06:55:14.000Z</time>
      </trkpt>
      <trkpt lat="40.815108" lon="-3.828523">
        <ele>2107.8</ele>
        <time>2018-04-21T06:55:15.000Z</time>
      </trkpt>
      <trkpt lat="40.8151" lon="-3.828535">
        <ele>2107.8</ele>
        <time>2018-04-21T06:55:16.000Z</time>
      </trkpt>
      <trkpt lat="40.815091" lon="-3.828546">
        <ele>2107.9</ele>
        <time>2018-04-21T06:55:17.000Z</time>
      </trkpt>
      <trkpt lat="40.815083" lon="-3.828558">
        <ele>2107.9</ele>
        <time>2018-04-21T06:55:18.000Z</time>
      </trkpt>
      <trkpt lat="40.815075" lon="-3.82857">
        <ele>2107.9</ele>
        <time>2018-04-21T06:55:19.000Z</time>
      </trkpt>
      <trkpt lat="40.815067" lon="-3.828582">
        <ele>2107.9</ele>
        <time>2018-04-21T06:55:20.000Z</time>
      </trkpt>
      <trkpt lat="40.81506" lon="-3.828595">
        <ele>2107.9</ele>
        <time>2018-04-21T06:55:21.000Z</time>
      </trkpt>
      <trkpt lat="40.815054" lon="-3.828608">
        <ele>2107.8</ele>
        <time>2018-04-21T06:55:22.000Z</time>
      </trkpt>
      <trkpt lat="40.815047" lon="-3.828621">
        <ele>2107.8</ele>
        <time>2018-04-21T06:55:23.000Z</time>
      </trkpt>
      <trkpt lat="40.815041" lon="-3.828634">
        <ele>2107.8</ele>
        <time>2018-04-21T06:55:24.000Z</time>
      </trkpt>
      <trkpt lat="40.815035" lon="-3.828648">
        <ele>2107.8</ele>
        <time>2018-04-21T06:55:25.000Z</time>
      </trkpt>
      <trkpt lat="40.815029" lon="-3.828662">
        <ele>2107.7</ele>
        <time>2018-04-21T06:55:26.000Z</time>
      </trkpt>
      <trkpt lat="40.815023" lon="-3.828677">
        <ele>2107.7</ele>
        <time>2018-04-21T06:55:27.000Z</time>
      </trkpt>
      <trkpt lat="40.815018" lon="-3.828692">
        <ele>2107.7</ele>
        <time>2018-04-21T06:55:28.000Z</time>
      </trkpt>
      <trkpt lat="40.815012" lon="-3.828707">
        <ele>2107.6</ele>
        <time>2018-04-21T06:55:29.000Z</time>
      </trkpt>
      <trkpt lat="40.815006" lon="-3.828723">
        <ele>2107.6</ele>
        <time>2018-04-21T06:55:30.000Z</time>
      </trkpt>
      <trkpt lat="40.815" lon="-3.828739">
        <ele>2107.6</ele>
        <time>2018-04-21T06:55:31.000Z</time>
      </trkpt>
      <trkpt lat="40.814994" lon="-3.828754">
        <ele>2107.4</ele>
        <time>2018-04-21T06:55:32.000Z</time>
      </trkpt>
      <trkpt lat="40.814987" lon="-3.828769">
        <ele>2107.3</ele>
        <time>2018-04-21T06:55:33.000Z</time>
      </trkpt>
      <trkpt lat="40.81498" lon="-3.828784">
        <ele>2107.2</ele>
        <time>2018-04-21T06:55:34.000Z</time>
      </trkpt>
      <trkpt lat="40.814973" lon="-3.828799">
        <ele>2107.0</ele>
        <time>2018-04-21T06:55:35.000Z</time>
      </trkpt>
      <trkpt lat="40.814966" lon="-3.828813">
        <ele>2106.9</ele>
        <time>2018-04-21T06:55:36.000Z</time>
      </trkpt>
      <trkpt lat="40.814958" lon="-3.828826">
        <ele>2106.8</ele>
        <time>2018-04-21T06:55:37.000Z</time>
      </trkpt>
      <trkpt lat="40.81495" lon="-3.828838">
        <ele>2106.7</ele>
        <time>2018-04-21T06:55:38.000Z</time>
      </trkpt>
      <trkpt lat="40.814942" lon="-3.828849">
        <ele>2106.6</ele>
        <time>2018-04-21T06:55:39.000Z</time>
      </trkpt>
      <trkpt lat="40.814934" lon="-3.828859">
        <ele>2106.5</ele>
        <time>2018-04-21T06:55:40.000Z</time>
      </trkpt>
      <trkpt lat="40.814926" lon="-3.828869">
        <ele>2106.4</ele>
        <time>2018-04-21T06:55:41.000Z</time>
      </trkpt>
      <trkpt lat="40.814919" lon="-3.828879">
        <ele>2106.3</ele>
        <time>2018-04-21T06:55:42.000Z</time>
      </trkpt>
      <trkpt lat="40.814913" lon="-3.828889">
        <ele>2106.2</ele>
        <time>2018-04-21T06:55:43.000Z</time>
      </trkpt>
      <trkpt lat="40.814908" lon="-3.828898">
        <ele>2106.1</ele>
        <time>2018-04-21T06:55:44.000Z</time>
      </trkpt>
      <trkpt lat="40.814904" lon="-3.828908">
        <ele>2106.0</ele>
        <time>2018-04-21T06:55:45.000Z</time>
      </trkpt>
      <trkpt lat="40.814902" lon="-3.828917">
        <ele>2106.0</ele>
        <time>2018-04-21T06:55:46.000Z</time>
      </trkpt>
      <trkpt lat="40.814902" lon="-3.828928">
        <ele>2105.9</ele>
        <time>2018-04-21T06:55:47.000Z</time>
      </trkpt>
      <trkpt lat="40.814903" lon="-3.828938">
        <ele>2105.9</ele>
        <time>2018-04-21T06:55:48.000Z</time>
      </trkpt>
      <trkpt lat="40.814906" lon="-3.828949">
        <ele>2105.8</ele>
        <time>2018-04-21T06:55:49.000Z</time>
      </trkpt>
      <trkpt lat="40.814909" lon="-3.82896">
        <ele>2105.8</ele>
        <time>2018-04-21T06:55:50.000Z</time>
      </trkpt>
      <trkpt lat="40.814912" lon="-3.82897">
        <ele>2105.7</ele>
        <time>2018-04-21T06:55:51.000Z</time>
      </trkpt>
      <trkpt lat="40.814915" lon="-3.828981">
        <ele>2105.7</ele>
        <time>2018-04-21T06:55:52.000Z</time>
      </trkpt>
      <trkpt lat="40.814918" lon="-3.828992">
        <ele>2105.6</ele>
        <time>2018-04-21T06:55:53.000Z</time>
      </trkpt>
      <trkpt lat="40.81492" lon="-3.829002">
        <ele>2105.6</ele>
        <time>2018-04-21T06:55:54.000Z</time>
      </trkpt>
      <trkpt lat="40.814921" lon="-3.829011">
        <ele>2105.6</ele>
        <time>2018-04-21T06:55:55.000Z</time>
      </trkpt>
      <trkpt lat="40.814919" lon="-3.82902">
        <ele>2105.5</ele>
        <time>2018-04-21T06:55:56.000Z</time>
      </trkpt>
      <trkpt lat="40.814917" lon="-3.829029">
        <ele>2105.4</ele>
        <time>2018-04-21T06:55:57.000Z</time>
      </trkpt>
      <trkpt lat="40.814913" lon="-3.829037">
        <ele>2105.4</ele>
        <time>2018-04-21T06:55:58.000Z</time>
      </trkpt>
      <trkpt lat="40.814909" lon="-3.829046">
        <ele>2105.3</ele>
        <time>2018-04-21T06:55:59.000Z</time>
      </trkpt>
      <trkpt lat="40.814904" lon="-3.829054">
        <ele>2105.3</ele>
        <time>2018-04-21T06:56:00.000Z</time>
      </trkpt>
      <trkpt lat="40.814899" lon="-3.829062">
        <ele>2105.2</ele>
        <time>2018-04-21T06:56:01.000Z</time>
      </trkpt>
      <trkpt lat="40.814895" lon="-3.829071">
        <ele>2105.1</ele>
        <time>2018-04-21T06:56:02.000Z</time>
      </trkpt>
      <trkpt lat="40.81489" lon="-3.82908">
        <ele>2105.1</ele>
        <time>2018-04-21T06:56:03.000Z</time>
      </trkpt>
      <trkpt lat="40.814887" lon="-3.829089">
        <ele>2105.0</ele>
        <time>2018-04-21T06:56:04.000Z</time>
      </trkpt>
      <trkpt lat="40.814884" lon="-3.829099">
        <ele>2104.9</ele>
        <time>2018-04-21T06:56:05.000Z</time>
      </trkpt>
      <trkpt lat="40.814882" lon="-3.829109">
        <ele>2104.9</ele>
        <time>2018-04-21T06:56:06.000Z</time>
      </trkpt>
      <trkpt lat="40.814879" lon="-3.829119">
        <ele>2104.8</ele>
        <time>2018-04-21T06:56:07.000Z</time>
      </trkpt>
      <trkpt lat="40.814875" lon="-3.829127">
        <ele>2104.8</ele>
        <time>2018-04-21T06:56:08.000Z</time>
      </trkpt>
      <trkpt lat="40.814867" lon="-3.829136">
        <ele>2104.7</ele>
        <time>2018-04-21T06:56:09.000Z</time>
      </trkpt>
      <trkpt lat="40.814854" lon="-3.829145">
        <ele>2104.6</ele>
        <time>2018-04-21T06:56:10.000Z</time>
      </trkpt>
      <trkpt lat="40.814842" lon="-3.829154">
        <ele>2104.5</ele>
        <time>2018-04-21T06:56:11.000Z</time>
      </trkpt>
      <trkpt lat="40.814834" lon="-3.82916">
        <ele>2104.4</ele>
        <time>2018-04-21T06:56:12.000Z</time>
      </trkpt>
      <trkpt lat="40.814829" lon="-3.829166">
        <ele>2104.4</ele>
        <time>2018-04-21T06:56:13.000Z</time>
      </trkpt>
      <trkpt lat="40.814824" lon="-3.829174">
        <ele>2104.3</ele>
        <time>2018-04-21T06:56:14.000Z</time>
      </trkpt>
      <trkpt lat="40.814818" lon="-3.829182">
        <ele>2104.2</ele>
        <time>2018-04-21T06:56:15.000Z</time>
      </trkpt>
      <trkpt lat="40.814813" lon="-3.829191">
        <ele>2104.2</ele>
        <time>2018-04-21T06:56:16.000Z</time>
      </trkpt>
      <trkpt lat="40.814807" lon="-3.8292">
        <ele>2104.1</ele>
        <time>2018-04-21T06:56:17.000Z</time>
      </trkpt>
      <trkpt lat="40.814801" lon="-3.82921">
        <ele>2104.0</ele>
        <time>2018-04-21T06:56:18.000Z</time>
      </trkpt>
      <trkpt lat="40.814795" lon="-3.82922">
        <ele>2103.9</ele>
        <time>2018-04-21T06:56:19.000Z</time>
      </trkpt>
      <trkpt lat="40.81479" lon="-3.829228">
        <ele>2103.8</ele>
        <time>2018-04-21T06:56:20.000Z</time>
      </trkpt>
      <trkpt lat="40.814785" lon="-3.829236">
        <ele>2103.8</ele>
        <time>2018-04-21T06:56:21.000Z</time>
      </trkpt>
      <trkpt lat="40.81478" lon="-3.829243">
        <ele>2103.7</ele>
        <time>2018-04-21T06:56:22.000Z</time>
      </trkpt>
      <trkpt lat="40.814776" lon="-3.829248">
        <ele>2103.7</ele>
        <time>2018-04-21T06:56:23.000Z</time>
      </trkpt>
      <trkpt lat="40.814773" lon="-3.829252">
        <ele>2103.6</ele>
        <time>2018-04-21T06:56:24.000Z</time>
      </trkpt>
      <trkpt lat="40.814769" lon="-3.829256">
        <ele>2103.6</ele>
        <time>2018-04-21T06:56:25.000Z</time>
      </trkpt>
      <trkpt lat="40.814766" lon="-3.82926">
        <ele>2103.6</ele>
        <time>2018-04-21T06:56:26.000Z</time>
      </trkpt>
      <trkpt lat="40.814762" lon="-3.829265">
        <ele>2103.5</ele>
        <time>2018-04-21T06:56:27.000Z</time>
      </trkpt>
      <trkpt lat="40.814757" lon="-3.829272">
        <ele>2103.5</ele>
        <time>2018-04-21T06:56:28.000Z</time>
      </trkpt>
      <trkpt lat="40.814752" lon="-3.829279">
        <ele>2103.4</ele>
        <time>2018-04-21T06:56:29.000Z</time>
      </trkpt>
      <trkpt lat="40.814748" lon="-3.829288">
        <ele>2103.3</ele>
        <time>2018-04-21T06:56:30.000Z</time>
      </trkpt>
      <trkpt lat="40.814743" lon="-3.829297">
        <ele>2103.3</ele>
        <time>2018-04-21T06:56:31.000Z</time>
      </trkpt>
      <trkpt lat="40.81474" lon="-3.829306">
        <ele>2103.2</ele>
        <time>2018-04-21T06:56:32.000Z</time>
      </trkpt>
      <trkpt lat="40.814738" lon="-3.829315">
        <ele>2103.1</ele>
        <time>2018-04-21T06:56:33.000Z</time>
      </trkpt>
      <trkpt lat="40.814736" lon="-3.829324">
        <ele>2103.1</ele>
        <time>2018-04-21T06:56:34.000Z</time>
      </trkpt>
      <trkpt lat="40.814734" lon="-3.829332">
        <ele>2103.0</ele>
        <time>2018-04-21T06:56:35.000Z</time>
      </trkpt>
      <trkpt lat="40.814733" lon="-3.82934">
        <ele>2103.0</ele>
        <time>2018-04-21T06:56:36.000Z</time>
      </trkpt>
      <trkpt lat="40.814732" lon="-3.829347">
        <ele>2102.9</ele>
        <time>2018-04-21T06:56:37.000Z</time>
      </trkpt>
      <trkpt lat="40.814731" lon="-3.829353">
        <ele>2102.9</ele>
        <time>2018-04-21T06:56:38.000Z</time>
      </trkpt>
      <trkpt lat="40.814729" lon="-3.829358">
        <ele>2102.9</ele>
        <time>2018-04-21T06:56:39.000Z</time>
      </trkpt>
      <trkpt lat="40.814726" lon="-3.829363">
        <ele>2102.8</ele>
        <time>2018-04-21T06:56:40.000Z</time>
      </trkpt>
      <trkpt lat="40.814723" lon="-3.829366">
        <ele>2102.8</ele>
        <time>2018-04-21T06:56:41.000Z</time>
      </trkpt>
      <trkpt lat="40.814719" lon="-3.829369">
        <ele>2102.8</ele>
        <time>2018-04-21T06:56:42.000Z</time>
      </trkpt>
      <trkpt lat="40.814714" lon="-3.829372">
        <ele>2102.8</ele>
        <time>2018-04-21T06:56:43.000Z</time>
      </trkpt>
      <trkpt lat="40.814709" lon="-3.829376">
        <ele>2102.7</ele>
        <time>2018-04-21T06:56:44.000Z</time>
      </trkpt>
      <trkpt lat="40.814702" lon="-3.829381">
        <ele>2102.7</ele>
        <time>2018-04-21T06:56:45.000Z</time>
      </trkpt>
      <trkpt lat="40.814695" lon="-3.829388">
        <ele>2102.6</ele>
        <time>2018-04-21T06:56:46.000Z</time>
      </trkpt>
      <trkpt lat="40.814688" lon="-3.829396">
        <ele>2102.6</ele>
        <time>2018-04-21T06:56:47.000Z</time>
      </trkpt>
      <trkpt lat="40.814683" lon="-3.829403">
        <ele>2102.5</ele>
        <time>2018-04-21T06:56:48.000Z</time>
      </trkpt>
      <trkpt lat="40.81468" lon="-3.829409">
        <ele>2102.5</ele>
        <time>2018-04-21T06:56:49.000Z</time>
      </trkpt>
      <trkpt lat="40.814678" lon="-3.829411">
        <ele>2102.5</ele>
        <time>2018-04-21T06:56:50.000Z</time>
      </trkpt>
      <trkpt lat="40.814677" lon="-3.829413">
        <ele>2102.5</ele>
        <time>2018-04-21T06:56:51.000Z</time>
      </trkpt>
      <trkpt lat="40.814674" lon="-3.829414">
        <ele>2102.4</ele>
        <time>2018-04-21T06:56:52.000Z</time>
      </trkpt>
      <trkpt lat="40.814669" lon="-3.829418">
        <ele>2102.4</ele>
        <time>2018-04-21T06:56:53.000Z</time>
      </trkpt>
      <trkpt lat="40.814662" lon="-3.829423">
        <ele>2102.4</ele>
        <time>2018-04-21T06:56:54.000Z</time>
      </trkpt>
      <trkpt lat="40.814656" lon="-3.82943">
        <ele>2102.3</ele>
        <time>2018-04-21T06:56:55.000Z</time>
      </trkpt>
      <trkpt lat="40.814651" lon="-3.829439">
        <ele>2102.3</ele>
        <time>2018-04-21T06:56:56.000Z</time>
      </trkpt>
      <trkpt lat="40.814647" lon="-3.829449">
        <ele>2102.2</ele>
        <time>2018-04-21T06:56:57.000Z</time>
      </trkpt>
      <trkpt lat="40.814644" lon="-3.82946">
        <ele>2102.2</ele>
        <time>2018-04-21T06:56:58.000Z</time>
      </trkpt>
      <trkpt lat="40.814641" lon="-3.82947">
        <ele>2102.1</ele>
        <time>2018-04-21T06:56:59.000Z</time>
      </trkpt>
      <trkpt lat="40.81464" lon="-3.829481">
        <ele>2102.0</ele>
        <time>2018-04-21T06:57:00.000Z</time>
      </trkpt>
      <trkpt lat="40.814639" lon="-3.829492">
        <ele>2102.0</ele>
        <time>2018-04-21T06:57:01.000Z</time>
      </trkpt>
      <trkpt lat="40.814639" lon="-3.829502">
        <ele>2101.9</ele>
        <time>2018-04-21T06:57:02.000Z</time>
      </trkpt>
      <trkpt lat="40.814639" lon="-3.829513">
        <ele>2101.9</ele>
        <time>2018-04-21T06:57:03.000Z</time>
      </trkpt>
      <trkpt lat="40.81464" lon="-3.829524">
        <ele>2101.8</ele>
        <time>2018-04-21T06:57:04.000Z</time>
      </trkpt>
      <trkpt lat="40.81464" lon="-3.829534">
        <ele>2101.8</ele>
        <time>2018-04-21T06:57:05.000Z</time>
      </trkpt>
      <trkpt lat="40.814641" lon="-3.829545">
        <ele>2101.7</ele>
        <time>2018-04-21T06:57:06.000Z</time>
      </trkpt>
      <trkpt lat="40.814641" lon="-3.829557">
        <ele>2101.6</ele>
        <time>2018-04-21T06:57:07.000Z</time>
      </trkpt>
      <trkpt lat="40.814641" lon="-3.829569">
        <ele>2101.6</ele>
        <time>2018-04-21T06:57:08.000Z</time>
      </trkpt>
      <trkpt lat="40.81464" lon="-3.829581">
        <ele>2101.5</ele>
        <time>2018-04-21T06:57:09.000Z</time>
      </trkpt>
      <trkpt lat="40.814638" lon="-3.829594">
        <ele>2101.4</ele>
        <time>2018-04-21T06:57:10.000Z</time>
      </trkpt>
      <trkpt lat="40.814637" lon="-3.829607">
        <ele>2101.4</ele>
        <time>2018-04-21T06:57:11.000Z</time>
      </trkpt>
      <trkpt lat="40.814636" lon="-3.829619">
        <ele>2101.3</ele>
        <time>2018-04-21T06:57:12.000Z</time>
      </trkpt>
      <trkpt lat="40.814635" lon="-3.829632">
        <ele>2101.2</ele>
        <time>2018-04-21T06:57:13.000Z</time>
      </trkpt>
      <trkpt lat="40.814636" lon="-3.829645">
        <ele>2101.2</ele>
        <time>2018-04-21T06:57:14.000Z</time>
      </trkpt>
      <trkpt lat="40.814636" lon="-3.829657">
        <ele>2101.1</ele>
        <time>2018-04-21T06:57:15.000Z</time>
      </trkpt>
      <trkpt lat="40.814637" lon="-3.829669">
        <ele>2101.0</ele>
        <time>2018-04-21T06:57:16.000Z</time>
      </trkpt>
      <trkpt lat="40.814636" lon="-3.829681">
        <ele>2101.0</ele>
        <time>2018-04-21T06:57:17.000Z</time>
      </trkpt>
      <trkpt lat="40.814633" lon="-3.829692">
        <ele>2100.9</ele>
        <time>2018-04-21T06:57:18.000Z</time>
      </trkpt>
      <trkpt lat="40.81463" lon="-3.829702">
        <ele>2100.9</ele>
        <time>2018-04-21T06:57:19.000Z</time>
      </trkpt>
      <trkpt lat="40.814625" lon="-3.829712">
        <ele>2100.8</ele>
        <time>2018-04-21T06:57:20.000Z</time>
      </trkpt>
      <trkpt lat="40.814619" lon="-3.829722">
        <ele>2100.8</ele>
        <time>2018-04-21T06:57:21.000Z</time>
      </trkpt>
      <trkpt lat="40.814612" lon="-3.829731">
        <ele>2100.8</ele>
        <time>2018-04-21T06:57:22.000Z</time>
      </trkpt>
      <trkpt lat="40.814604" lon="-3.829741">
        <ele>2100.7</ele>
        <time>2018-04-21T06:57:23.000Z</time>
      </trkpt>
      <trkpt lat="40.814597" lon="-3.82975">
        <ele>2100.7</ele>
        <time>2018-04-21T06:57:24.000Z</time>
      </trkpt>
      <trkpt lat="40.814589" lon="-3.82976">
        <ele>2100.6</ele>
        <time>2018-04-21T06:57:25.000Z</time>
      </trkpt>
      <trkpt lat="40.814581" lon="-3.82977">
        <ele>2100.6</ele>
        <time>2018-04-21T06:57:26.000Z</time>
      </trkpt>
      <trkpt lat="40.814573" lon="-3.829781">
        <ele>2100.6</ele>
        <time>2018-04-21T06:57:27.000Z</time>
      </trkpt>
      <trkpt lat="40.814566" lon="-3.829791">
        <ele>2100.5</ele>
        <time>2018-04-21T06:57:28.000Z</time>
      </trkpt>
      <trkpt lat="40.814559" lon="-3.829803">
        <ele>2100.5</ele>
        <time>2018-04-21T06:57:29.000Z</time>
      </trkpt>
      <trkpt lat="40.814552" lon="-3.829814">
        <ele>2100.5</ele>
        <time>2018-04-21T06:57:30.000Z</time>
      </trkpt>
      <trkpt lat="40.814546" lon="-3.829826">
        <ele>2100.4</ele>
        <time>2018-04-21T06:57:31.000Z</time>
      </trkpt>
      <trkpt lat="40.81454" lon="-3.829838">
        <ele>2100.4</ele>
        <time>2018-04-21T06:57:32.000Z</time>
      </trkpt>
      <trkpt lat="40.814534" lon="-3.82985">
        <ele>2100.3</ele>
        <time>2018-04-21T06:57:33.000Z</time>
      </trkpt>
      <trkpt lat="40.814528" lon="-3.829862">
        <ele>2100.3</ele>
        <time>2018-04-21T06:57:34.000Z</time>
      </trkpt>
      <trkpt lat="40.814522" lon="-3.829874">
        <ele>2100.3</ele>
        <time>2018-04-21T06:57:35.000Z</time>
      </trkpt>
      <trkpt lat="40.814517" lon="-3.829886">
        <ele>2100.2</ele>
        <time>2018-04-21T06:57:36.000Z</time>
      </trkpt>
      <trkpt lat="40.814512" lon="-3.829898">
        <ele>2100.2</ele>
        <time>2018-04-21T06:57:37.000Z</time>
      </trkpt>
      <trkpt lat="40.814507" lon="-3.82991">
        <ele>2100.1</ele>
        <time>2018-04-21T06:57:38.000Z</time>
      </trkpt>
      <trkpt lat="40.814503" lon="-3.829922">
        <ele>2100.1</ele>
        <time>2018-04-21T06:57:39.000Z</time>
      </trkpt>
      <trkpt lat="40.814499" lon="-3.829933">
        <ele>2100.1</ele>
        <time>2018-04-21T06:57:40.000Z</time>
      </trkpt>
      <trkpt lat="40.814494" lon="-3.829945">
        <ele>2100.0</ele>
        <time>2018-04-21T06:57:41.000Z</time>
      </trkpt>
      <trkpt lat="40.81449" lon="-3.829956">
        <ele>2100.0</ele>
        <time>2018-04-21T06:57:42.000Z</time>
      </trkpt>
      <trkpt lat="40.814486" lon="-3.829966">
        <ele>2100.0</ele>
        <time>2018-04-21T06:57:43.000Z</time>
      </trkpt>
      <trkpt lat="40.814483" lon="-3.829976">
        <ele>2100.0</ele>
        <time>2018-04-21T06:57:44.000Z</time>
      </trkpt>
      <trkpt lat="40.814479" lon="-3.829986">
        <ele>2099.9</ele>
        <time>2018-04-21T06:57:45.000Z</time>
      </trkpt>
      <trkpt lat="40.814476" lon="-3.829995">
        <ele>2099.9</ele>
        <time>2018-04-21T06:57:46.000Z</time>
      </trkpt>
      <trkpt lat="40.814473" lon="-3.830004">
        <ele>2099.8</ele>
        <time>2018-04-21T06:57:47.000Z</time>
      </trkpt>
      <trkpt lat="40.814469" lon="-3.830013">
        <ele>2099.7</ele>
        <time>2018-04-21T06:57:48.000Z</time>
      </trkpt>
      <trkpt lat="40.814466" lon="-3.830022">
        <ele>2099.6</ele>
        <time>2018-04-21T06:57:49.000Z</time>
      </trkpt>
      <trkpt lat="40.814463" lon="-3.830031">
        <ele>2099.5</ele>
        <time>2018-04-21T06:57:50.000Z</time>
      </trkpt>
      <trkpt lat="40.81446" lon="-3.830039">
        <ele>2099.4</ele>
        <time>2018-04-21T06:57:51.000Z</time>
      </trkpt>
      <trkpt lat="40.814456" lon="-3.830047">
        <ele>2099.3</ele>
        <time>2018-04-21T06:57:52.000Z</time>
      </trkpt>
      <trkpt lat="40.814452" lon="-3.830053">
        <ele>2099.2</ele>
        <time>2018-04-21T06:57:53.000Z</time>
      </trkpt>
      <trkpt lat="40.814447" lon="-3.830058">
        <ele>2099.2</ele>
        <time>2018-04-21T06:57:54.000Z</time>
      </trkpt>
      <trkpt lat="40.814442" lon="-3.830061">
        <ele>2099.1</ele>
        <time>2018-04-21T06:57:55.000Z</time>
      </trkpt>
      <trkpt lat="40.814437" lon="-3.830064">
        <ele>2099.1</ele>
        <time>2018-04-21T06:57:56.000Z</time>
      </trkpt>
      <trkpt lat="40.814432" lon="-3.830068">
        <ele>2099.1</ele>
        <time>2018-04-21T06:57:57.000Z</time>
      </trkpt>
      <trkpt lat="40.814427" lon="-3.830074">
        <ele>2099.0</ele>
        <time>2018-04-21T06:57:58.000Z</time>
      </trkpt>
      <trkpt lat="40.814423" lon="-3.830083">
        <ele>2098.9</ele>
        <time>2018-04-21T06:57:59.000Z</time>
      </trkpt>
      <trkpt lat="40.814419" lon="-3.830094">
        <ele>2098.8</ele>
        <time>2018-04-21T06:58:00.000Z</time>
      </trkpt>
      <trkpt lat="40.814415" lon="-3.830105">
        <ele>2098.6</ele>
        <time>2018-04-21T06:58:01.000Z</time>
      </trkpt>
      <trkpt lat="40.814411" lon="-3.830115">
        <ele>2098.5</ele>
        <time>2018-04-21T06:58:02.000Z</time>
      </trkpt>
      <trkpt lat="40.814406" lon="-3.830123">
        <ele>2098.4</ele>
        <time>2018-04-21T06:58:03.000Z</time>
      </trkpt>
      <trkpt lat="40.814401" lon="-3.83013">
        <ele>2098.3</ele>
        <time>2018-04-21T06:58:04.000Z</time>
      </trkpt>
      <trkpt lat="40.814395" lon="-3.830137">
        <ele>2098.3</ele>
        <time>2018-04-21T06:58:05.000Z</time>
      </trkpt>
      <trkpt lat="40.814388" lon="-3.830143">
        <ele>2098.2</ele>
        <time>2018-04-21T06:58:06.000Z</time>
      </trkpt>
      <trkpt lat="40.814379" lon="-3.83015">
        <ele>2098.2</ele>
        <time>2018-04-21T06:58:07.000Z</time>
      </trkpt>
      <trkpt lat="40.814368" lon="-3.830158">
        <ele>2098.1</ele>
        <time>2018-04-21T06:58:08.000Z</time>
      </trkpt>
      <trkpt lat="40.814357" lon="-3.830166">
        <ele>2098.0</ele>
        <time>2018-04-21T06:58:09.000Z</time>
      </trkpt>
      <trkpt lat="40.814346" lon="-3.830176">
        <ele>2098.0</ele>
        <time>2018-04-21T06:58:10.000Z</time>
      </trkpt>
      <trkpt lat="40.814337" lon="-3.830185">
        <ele>2097.9</ele>
        <time>2018-04-21T06:58:11.000Z</time>
      </trkpt>
      <trkpt lat="40.81433" lon="-3.830194">
        <ele>2097.8</ele>
        <time>2018-04-21T06:58:12.000Z</time>
      </trkpt>
      <trkpt lat="40.814326" lon="-3.830203">
        <ele>2097.7</ele>
        <time>2018-04-21T06:58:13.000Z</time>
      </trkpt>
      <trkpt lat="40.814324" lon="-3.830213">
        <ele>2097.6</ele>
        <time>2018-04-21T06:58:14.000Z</time>
      </trkpt>
      <trkpt lat="40.814322" lon="-3.830222">
        <ele>2097.5</ele>
        <time>2018-04-21T06:58:15.000Z</time>
      </trkpt>
      <trkpt lat="40.81432" lon="-3.830232">
        <ele>2097.4</ele>
        <time>2018-04-21T06:58:16.000Z</time>
      </trkpt>
      <trkpt lat="40.814318" lon="-3.830242">
        <ele>2097.2</ele>
        <time>2018-04-21T06:58:17.000Z</time>
      </trkpt>
      <trkpt lat="40.814315" lon="-3.830253">
        <ele>2097.1</ele>
        <time>2018-04-21T06:58:18.000Z</time>
      </trkpt>
      <trkpt lat="40.814311" lon="-3.830263">
        <ele>2097.0</ele>
        <time>2018-04-21T06:58:19.000Z</time>
      </trkpt>
      <trkpt lat="40.814306" lon="-3.830273">
        <ele>2096.9</ele>
        <time>2018-04-21T06:58:20.000Z</time>
      </trkpt>
      <trkpt lat="40.814301" lon="-3.830282">
        <ele>2096.8</ele>
        <time>2018-04-21T06:58:21.000Z</time>
      </trkpt>
      <trkpt lat="40.814294" lon="-3.83029">
        <ele>2096.7</ele>
        <time>2018-04-21T06:58:22.000Z</time>
      </trkpt>
      <trkpt lat="40.814287" lon="-3.830298">
        <ele>2096.7</ele>
        <time>2018-04-21T06:58:23.000Z</time>
      </trkpt>
      <trkpt lat="40.81428" lon="-3.830305">
        <ele>2096.6</ele>
        <time>2018-04-21T06:58:24.000Z</time>
      </trkpt>
      <trkpt lat="40.814273" lon="-3.830311">
        <ele>2096.6</ele>
        <time>2018-04-21T06:58:25.000Z</time>
      </trkpt>
      <trkpt lat="40.814267" lon="-3.830317">
        <ele>2096.6</ele>
        <time>2018-04-21T06:58:26.000Z</time>
      </trkpt>
      <trkpt lat="40.81426" lon="-3.830322">
        <ele>2096.5</ele>
        <time>2018-04-21T06:58:27.000Z</time>
      </trkpt>
      <trkpt lat="40.814254" lon="-3.830326">
        <ele>2096.5</ele>
        <time>2018-04-21T06:58:28.000Z</time>
      </trkpt>
      <trkpt lat="40.814248" lon="-3.830328">
        <ele>2096.5</ele>
        <time>2018-04-21T06:58:29.000Z</time>
      </trkpt>
      <trkpt lat="40.814242" lon="-3.830328">
        <ele>2096.6</ele>
        <time>2018-04-21T06:58:30.000Z</time>
      </trkpt>
      <trkpt lat="40.814236" lon="-3.830327">
        <ele>2096.6</ele>
        <time>2018-04-21T06:58:31.000Z</time>
      </trkpt>
      <trkpt lat="40.814231" lon="-3.830325">
        <ele>2096.7</ele>
        <time>2018-04-21T06:58:32.000Z</time>
      </trkpt>
      <trkpt lat="40.814225" lon="-3.830326">
        <ele>2096.7</ele>
        <time>2018-04-21T06:58:33.000Z</time>
      </trkpt>
      <trkpt lat="40.81422" lon="-3.830328">
        <ele>2096.7</ele>
        <time>2018-04-21T06:58:34.000Z</time>
      </trkpt>
      <trkpt lat="40.814215" lon="-3.830334">
        <ele>2096.7</ele>
        <time>2018-04-21T06:58:35.000Z</time>
      </trkpt>
      <trkpt lat="40.81421" lon="-3.830342">
        <ele>2096.6</ele>
        <time>2018-04-21T06:58:36.000Z</time>
      </trkpt>
      <trkpt lat="40.814204" lon="-3.830351">
        <ele>2096.5</ele>
        <time>2018-04-21T06:58:37.000Z</time>
      </trkpt>
      <trkpt lat="40.814199" lon="-3.830359">
        <ele>2096.5</ele>
        <time>2018-04-21T06:58:38.000Z</time>
      </trkpt>
      <trkpt lat="40.814192" lon="-3.830366">
        <ele>2096.4</ele>
        <time>2018-04-21T06:58:39.000Z</time>
      </trkpt>
      <trkpt lat="40.814186" lon="-3.830372">
        <ele>2096.4</ele>
        <time>2018-04-21T06:58:40.000Z</time>
      </trkpt>
      <trkpt lat="40.814178" lon="-3.830377">
        <ele>2096.4</ele>
        <time>2018-04-21T06:58:41.000Z</time>
      </trkpt>
      <trkpt lat="40.814171" lon="-3.830381">
        <ele>2096.4</ele>
        <time>2018-04-21T06:58:42.000Z</time>
      </trkpt>
      <trkpt lat="40.814163" lon="-3.830385">
        <ele>2096.3</ele>
        <time>2018-04-21T06:58:43.000Z</time>
      </trkpt>
      <trkpt lat="40.814155" lon="-3.830388">
        <ele>2096.2</ele>
        <time>2018-04-21T06:58:44.000Z</time>
      </trkpt>
      <trkpt lat="40.814147" lon="-3.830392">
        <ele>2096.1</ele>
        <time>2018-04-21T06:58:45.000Z</time>
      </trkpt>
      <trkpt lat="40.814138" lon="-3.830396">
        <ele>2096.0</ele>
        <time>2018-04-21T06:58:46.000Z</time>
      </trkpt>
      <trkpt lat="40.81413" lon="-3.830402">
        <ele>2095.8</ele>
        <time>2018-04-21T06:58:47.000Z</time>
      </trkpt>
      <trkpt lat="40.814123" lon="-3.830408">
        <ele>2095.7</ele>
        <time>2018-04-21T06:58:48.000Z</time>
      </trkpt>
      <trkpt lat="40.814115" lon="-3.830415">
        <ele>2095.5</ele>
        <time>2018-04-21T06:58:49.000Z</time>
      </trkpt>
      <trkpt lat="40.814109" lon="-3.830423">
        <ele>2095.3</ele>
        <time>2018-04-21T06:58:50.000Z</time>
      </trkpt>
      <trkpt lat="40.814104" lon="-3.830431">
        <ele>2095.2</ele>
        <time>2018-04-21T06:58:51.000Z</time>
      </trkpt>
      <trkpt lat="40.814101" lon="-3.830438">
        <ele>2095.1</ele>
        <time>2018-04-21T06:58:52.000Z</time>
      </trkpt>
      <trkpt lat="40.8141" lon="-3.830445">
        <ele>2095.0</ele>
        <time>2018-04-21T06:58:53.000Z</time>
      </trkpt>
      <trkpt lat="40.8141" lon="-3.830451">
        <ele>2094.9</ele>
        <time>2018-04-21T06:58:54.000Z</time>
      </trkpt>
      <trkpt lat="40.814101" lon="-3.830458">
        <ele>2094.8</ele>
        <time>2018-04-21T06:58:55.000Z</time>
      </trkpt>
      <trkpt lat="40.814102" lon="-3.830466">
        <ele>2094.7</ele>
        <time>2018-04-21T06:58:56.000Z</time>
      </trkpt>
      <trkpt lat="40.814102" lon="-3.830474">
        <ele>2094.6</ele>
        <time>2018-04-21T06:58:57.000Z</time>
      </trkpt>
      <trkpt lat="40.814101" lon="-3.830484">
        <ele>2094.5</ele>
        <time>2018-04-21T06:58:58.000Z</time>
      </trkpt>
      <trkpt lat="40.814099" lon="-3.830494">
        <ele>2094.4</ele>
        <time>2018-04-21T06:58:59.000Z</time>
      </trkpt>
      <trkpt lat="40.814097" lon="-3.830504">
        <ele>2094.2</ele>
        <time>2018-04-21T06:59:00.000Z</time>
      </trkpt>
      <trkpt lat="40.814094" lon="-3.830513">
        <ele>2094.1</ele>
        <time>2018-04-21T06:59:01.000Z</time>
      </trkpt>
      <trkpt lat="40.81409" lon="-3.830522">
        <ele>2093.9</ele>
        <time>2018-04-21T06:59:02.000Z</time>
      </trkpt>
      <trkpt lat="40.814085" lon="-3.830529">
        <ele>2093.8</ele>
        <time>2018-04-21T06:59:03.000Z</time>
      </trkpt>
      <trkpt lat="40.81408" lon="-3.830537">
        <ele>2093.7</ele>
        <time>2018-04-21T06:59:04.000Z</time>
      </trkpt>
      <trkpt lat="40.814073" lon="-3.830545">
        <ele>2093.5</ele>
        <time>2018-04-21T06:59:05.000Z</time>
      </trkpt>
      <trkpt lat="40.814065" lon="-3.830553">
        <ele>2093.3</ele>
        <time>2018-04-21T06:59:06.000Z</time>
      </trkpt>
      <trkpt lat="40.814057" lon="-3.830562">
        <ele>2093.1</ele>
        <time>2018-04-21T06:59:07.000Z</time>
      </trkpt>
      <trkpt lat="40.814049" lon="-3.830571">
        <ele>2092.9</ele>
        <time>2018-04-21T06:59:08.000Z</time>
      </trkpt>
      <trkpt lat="40.814043" lon="-3.830581">
        <ele>2092.7</ele>
        <time>2018-04-21T06:59:09.000Z</time>
      </trkpt>
      <trkpt lat="40.814039" lon="-3.830591">
        <ele>2092.6</ele>
        <time>2018-04-21T06:59:10.000Z</time>
      </trkpt>
      <trkpt lat="40.814037" lon="-3.830602">
        <ele>2092.4</ele>
        <time>2018-04-21T06:59:11.000Z</time>
      </trkpt>
      <trkpt lat="40.814038" lon="-3.830613">
        <ele>2092.3</ele>
        <time>2018-04-21T06:59:12.000Z</time>
      </trkpt>
      <trkpt lat="40.814039" lon="-3.830625">
        <ele>2092.2</ele>
        <time>2018-04-21T06:59:13.000Z</time>
      </trkpt>
      <trkpt lat="40.814041" lon="-3.830636">
        <ele>2092.0</ele>
        <time>2018-04-21T06:59:14.000Z</time>
      </trkpt>
      <trkpt lat="40.814042" lon="-3.830647">
        <ele>2091.9</ele>
        <time>2018-04-21T06:59:15.000Z</time>
      </trkpt>
      <trkpt lat="40.814043" lon="-3.830658">
        <ele>2091.8</ele>
        <time>2018-04-21T06:59:16.000Z</time>
      </trkpt>
      <trkpt lat="40.814043" lon="-3.830669">
        <ele>2091.7</ele>
        <time>2018-04-21T06:59:17.000Z</time>
      </trkpt>
      <trkpt lat="40.814043" lon="-3.830679">
        <ele>2091.5</ele>
        <time>2018-04-21T06:59:18.000Z</time>
      </trkpt>
      <trkpt lat="40.814041" lon="-3.83069">
        <ele>2091.4</ele>
        <time>2018-04-21T06:59:19.000Z</time>
      </trkpt>
      <trkpt lat="40.814039" lon="-3.8307">
        <ele>2091.2</ele>
        <time>2018-04-21T06:59:20.000Z</time>
      </trkpt>
      <trkpt lat="40.814036" lon="-3.83071">
        <ele>2091.1</ele>
        <time>2018-04-21T06:59:21.000Z</time>
      </trkpt>
      <trkpt lat="40.814032" lon="-3.83072">
        <ele>2090.9</ele>
        <time>2018-04-21T06:59:22.000Z</time>
      </trkpt>
      <trkpt lat="40.814028" lon="-3.830731">
        <ele>2090.8</ele>
        <time>2018-04-21T06:59:23.000Z</time>
      </trkpt>
      <trkpt lat="40.814022" lon="-3.830741">
        <ele>2090.6</ele>
        <time>2018-04-21T06:59:24.000Z</time>
      </trkpt>
      <trkpt lat="40.814016" lon="-3.830751">
        <ele>2090.4</ele>
        <time>2018-04-21T06:59:25.000Z</time>
      </trkpt>
      <trkpt lat="40.81401" lon="-3.830761">
        <ele>2090.2</ele>
        <time>2018-04-21T06:59:26.000Z</time>
      </trkpt>
      <trkpt lat="40.814003" lon="-3.830771">
        <ele>2090.0</ele>
        <time>2018-04-21T06:59:27.000Z</time>
      </trkpt>
      <trkpt lat="40.813997" lon="-3.83078">
        <ele>2089.8</ele>
        <time>2018-04-21T06:59:28.000Z</time>
      </trkpt>
      <trkpt lat="40.813991" lon="-3.83079">
        <ele>2089.6</ele>
        <time>2018-04-21T06:59:29.000Z</time>
      </trkpt>
      <trkpt lat="40.813985" lon="-3.830799">
        <ele>2089.5</ele>
        <time>2018-04-21T06:59:30.000Z</time>
      </trkpt>
      <trkpt lat="40.81398" lon="-3.830807">
        <ele>2089.3</ele>
        <time>2018-04-21T06:59:31.000Z</time>
      </trkpt>
      <trkpt lat="40.813974" lon="-3.830814">
        <ele>2089.2</ele>
        <time>2018-04-21T06:59:32.000Z</time>
      </trkpt>
      <trkpt lat="40.813967" lon="-3.830819">
        <ele>2089.0</ele>
        <time>2018-04-21T06:59:33.000Z</time>
      </trkpt>
      <trkpt lat="40.81396" lon="-3.830824">
        <ele>2088.9</ele>
        <time>2018-04-21T06:59:34.000Z</time>
      </trkpt>
      <trkpt lat="40.813952" lon="-3.830828">
        <ele>2088.7</ele>
        <time>2018-04-21T06:59:35.000Z</time>
      </trkpt>
      <trkpt lat="40.813944" lon="-3.830833">
        <ele>2088.6</ele>
        <time>2018-04-21T06:59:36.000Z</time>
      </trkpt>
      <trkpt lat="40.813935" lon="-3.830838">
        <ele>2088.4</ele>
        <time>2018-04-21T06:59:37.000Z</time>
      </trkpt>
      <trkpt lat="40.813927" lon="-3.830844">
        <ele>2088.3</ele>
        <time>2018-04-21T06:59:38.000Z</time>
      </trkpt>
      <trkpt lat="40.813918" lon="-3.830852">
        <ele>2088.1</ele>
        <time>2018-04-21T06:59:39.000Z</time>
      </trkpt>
      <trkpt lat="40.81391" lon="-3.83086">
        <ele>2087.9</ele>
        <time>2018-04-21T06:59:40.000Z</time>
      </trkpt>
      <trkpt lat="40.813905" lon="-3.830869">
        <ele>2087.8</ele>
        <time>2018-04-21T06:59:41.000Z</time>
      </trkpt>
      <trkpt lat="40.813901" lon="-3.830879">
        <ele>2087.6</ele>
        <time>2018-04-21T06:59:42.000Z</time>
      </trkpt>
      <trkpt lat="40.813899" lon="-3.83089">
        <ele>2087.5</ele>
        <time>2018-04-21T06:59:43.000Z</time>
      </trkpt>
      <trkpt lat="40.813898" lon="-3.830901">
        <ele>2087.4</ele>
        <time>2018-04-21T06:59:44.000Z</time>
      </trkpt>
      <trkpt lat="40.813897" lon="-3.830913">
        <ele>2087.2</ele>
        <time>2018-04-21T06:59:45.000Z</time>
      </trkpt>
      <trkpt lat="40.813895" lon="-3.830925">
        <ele>2087.1</ele>
        <time>2018-04-21T06:59:46.000Z</time>
      </trkpt>
      <trkpt lat="40.813892" lon="-3.830937">
        <ele>2086.9</ele>
        <time>2018-04-21T06:59:47.000Z</time>
      </trkpt>
      <trkpt lat="40.813888" lon="-3.83095">
        <ele>2086.7</ele>
        <time>2018-04-21T06:59:48.000Z</time>
      </trkpt>
      <trkpt lat="40.813883" lon="-3.830962">
        <ele>2086.6</ele>
        <time>2018-04-21T06:59:49.000Z</time>
      </trkpt>
      <trkpt lat="40.813877" lon="-3.830974">
        <ele>2086.4</ele>
        <time>2018-04-21T06:59:50.000Z</time>
      </trkpt>
      <trkpt lat="40.813872" lon="-3.830986">
        <ele>2086.2</ele>
        <time>2018-04-21T06:59:51.000Z</time>
      </trkpt>
      <trkpt lat="40.813866" lon="-3.830997">
        <ele>2086.0</ele>
        <time>2018-04-21T06:59:52.000Z</time>
      </trkpt>
      <trkpt lat="40.813861" lon="-3.831008">
        <ele>2085.9</ele>
        <time>2018-04-21T06:59:53.000Z</time>
      </trkpt>
      <trkpt lat="40.813855" lon="-3.831019">
        <ele>2085.7</ele>
        <time>2018-04-21T06:59:54.000Z</time>
      </trkpt>
      <trkpt lat="40.81385" lon="-3.83103">
        <ele>2085.5</ele>
        <time>2018-04-21T06:59:55.000Z</time>
      </trkpt>
      <trkpt lat="40.813844" lon="-3.83104">
        <ele>2085.4</ele>
        <time>2018-04-21T06:59:56.000Z</time>
      </trkpt>
      <trkpt lat="40.813838" lon="-3.83105">
        <ele>2085.2</ele>
        <time>2018-04-21T06:59:57.000Z</time>
      </trkpt>
      <trkpt lat="40.813833" lon="-3.831059">
        <ele>2085.1</ele>
        <time>2018-04-21T06:59:58.000Z</time>
      </trkpt>
      <trkpt lat="40.813827" lon="-3.831069">
        <ele>2084.9</ele>
        <time>2018-04-21T06:59:59.000Z</time>
      </trkpt>
      <trkpt lat="40.813821" lon="-3.831078">
        <ele>2084.8</ele>
        <time>2018-04-21T07:00:00.000Z</time>
      </trkpt>
      <trkpt lat="40.813816" lon="-3.831088">
        <ele>2084.6</ele>
        <time>2018-04-21T07:00:01.000Z</time>
      </trkpt>
      <trkpt lat="40.81381" lon="-3.831097">
        <ele>2084.5</ele>
        <time>2018-04-21T07:00:02.000Z</time>
      </trkpt>
      <trkpt lat="40.813804" lon="-3.831106">
        <ele>2084.3</ele>
        <time>2018-04-21T07:00:03.000Z</time>
      </trkpt>
      <trkpt lat="40.813799" lon="-3.831115">
        <ele>2084.2</ele>
        <time>2018-04-21T07:00:04.000Z</time>
      </trkpt>
      <trkpt lat="40.813793" lon="-3.831124">
        <ele>2084.1</ele>
        <time>2018-04-21T07:00:05.000Z</time>
      </trkpt>
      <trkpt lat="40.813788" lon="-3.831133">
        <ele>2083.9</ele>
        <time>2018-04-21T07:00:06.000Z</time>
      </trkpt>
      <trkpt lat="40.813783" lon="-3.831142">
        <ele>2083.8</ele>
        <time>2018-04-21T07:00:07.000Z</time>
      </trkpt>
      <trkpt lat="40.813777" lon="-3.831152">
        <ele>2083.7</ele>
        <time>2018-04-21T07:00:08.000Z</time>
      </trkpt>
      <trkpt lat="40.813772" lon="-3.831161">
        <ele>2083.5</ele>
        <time>2018-04-21T07:00:09.000Z</time>
      </trkpt>
      <trkpt lat="40.813767" lon="-3.83117">
        <ele>2083.4</ele>
        <time>2018-04-21T07:00:10.000Z</time>
      </trkpt>
      <trkpt lat="40.813762" lon="-3.83118">
        <ele>2083.3</ele>
        <time>2018-04-21T07:00:11.000Z</time>
      </trkpt>
      <trkpt lat="40.813757" lon="-3.831189">
        <ele>2083.1</ele>
        <time>2018-04-21T07:00:12.000Z</time>
      </trkpt>
      <trkpt lat="40.813752" lon="-3.831199">
        <ele>2083.0</ele>
        <time>2018-04-21T07:00:13.000Z</time>
      </trkpt>
      <trkpt lat="40.813747" lon="-3.831208">
        <ele>2082.9</ele>
        <time>2018-04-21T07:00:14.000Z</time>
      </trkpt>
      <trkpt lat="40.813741" lon="-3.831218">
        <ele>2082.7</ele>
        <time>2018-04-21T07:00:15.000Z</time>
      </trkpt>
      <trkpt lat="40.813736" lon="-3.831227">
        <ele>2082.6</ele>
        <time>2018-04-21T07:00:16.000Z</time>
      </trkpt>
      <trkpt lat="40.81373" lon="-3.831236">
        <ele>2082.5</ele>
        <time>2018-04-21T07:00:17.000Z</time>
      </trkpt>
      <trkpt lat="40.813724" lon="-3.831245">
        <ele>2082.4</ele>
        <time>2018-04-21T07:00:18.000Z</time>
      </trkpt>
      <trkpt lat="40.813718" lon="-3.831254">
        <ele>2082.2</ele>
        <time>2018-04-21T07:00:19.000Z</time>
      </trkpt>
      <trkpt lat="40.813711" lon="-3.831262">
        <ele>2082.1</ele>
        <time>2018-04-21T07:00:20.000Z</time>
      </trkpt>
      <trkpt lat="40.813704" lon="-3.83127">
        <ele>2082.0</ele>
        <time>2018-04-21T07:00:21.000Z</time>
      </trkpt>
      <trkpt lat="40.813697" lon="-3.831278">
        <ele>2081.9</ele>
        <time>2018-04-21T07:00:22.000Z</time>
      </trkpt>
      <trkpt lat="40.813689" lon="-3.831285">
        <ele>2081.7</ele>
        <time>2018-04-21T07:00:23.000Z</time>
      </trkpt>
      <trkpt lat="40.813681" lon="-3.831292">
        <ele>2081.6</ele>
        <time>2018-04-21T07:00:24.000Z</time>
      </trkpt>
      <trkpt lat="40.813672" lon="-3.831299">
        <ele>2081.5</ele>
        <time>2018-04-21T07:00:25.000Z</time>
      </trkpt>
      <trkpt lat="40.813663" lon="-3.831305">
        <ele>2081.4</ele>
        <time>2018-04-21T07:00:26.000Z</time>
      </trkpt>
      <trkpt lat="40.813653" lon="-3.831311">
        <ele>2081.3</ele>
        <time>2018-04-21T07:00:27.000Z</time>
      </trkpt>
      <trkpt lat="40.813643" lon="-3.831316">
        <ele>2081.2</ele>
        <time>2018-04-21T07:00:28.000Z</time>
      </trkpt>
      <trkpt lat="40.813633" lon="-3.831322">
        <ele>2081.0</ele>
        <time>2018-04-21T07:00:29.000Z</time>
      </trkpt>
      <trkpt lat="40.813623" lon="-3.831329">
        <ele>2080.9</ele>
        <time>2018-04-21T07:00:30.000Z</time>
      </trkpt>
      <trkpt lat="40.813613" lon="-3.831338">
        <ele>2080.8</ele>
        <time>2018-04-21T07:00:31.000Z</time>
      </trkpt>
      <trkpt lat="40.813605" lon="-3.831348">
        <ele>2080.6</ele>
        <time>2018-04-21T07:00:32.000Z</time>
      </trkpt>
      <trkpt lat="40.813597" lon="-3.831359">
        <ele>2080.5</ele>
        <time>2018-04-21T07:00:33.000Z</time>
      </trkpt>
      <trkpt lat="40.81359" lon="-3.831371">
        <ele>2080.4</ele>
        <time>2018-04-21T07:00:34.000Z</time>
      </trkpt>
      <trkpt lat="40.813583" lon="-3.831384">
        <ele>2080.2</ele>
        <time>2018-04-21T07:00:35.000Z</time>
      </trkpt>
      <trkpt lat="40.813578" lon="-3.831396">
        <ele>2080.1</ele>
        <time>2018-04-21T07:00:36.000Z</time>
      </trkpt>
      <trkpt lat="40.813573" lon="-3.831408">
        <ele>2080.0</ele>
        <time>2018-04-21T07:00:37.000Z</time>
      </trkpt>
      <trkpt lat="40.813569" lon="-3.831421">
        <ele>2079.8</ele>
        <time>2018-04-21T07:00:38.000Z</time>
      </trkpt>
      <trkpt lat="40.813565" lon="-3.831433">
        <ele>2079.7</ele>
        <time>2018-04-21T07:00:39.000Z</time>
      </trkpt>
      <trkpt lat="40.813562" lon="-3.831446">
        <ele>2079.6</ele>
        <time>2018-04-21T07:00:40.000Z</time>
      </trkpt>
      <trkpt lat="40.81356" lon="-3.831458">
        <ele>2079.5</ele>
        <time>2018-04-21T07:00:41.000Z</time>
      </trkpt>
      <trkpt lat="40.813557" lon="-3.83147">
        <ele>2079.4</ele>
        <time>2018-04-21T07:00:42.000Z</time>
      </trkpt>
      <trkpt lat="40.813555" lon="-3.831482">
        <ele>2079.3</ele>
        <time>2018-04-21T07:00:43.000Z</time>
      </trkpt>
      <trkpt lat="40.813553" lon="-3.831495">
        <ele>2079.1</ele>
        <time>2018-04-21T07:00:44.000Z</time>
      </trkpt>
      <trkpt lat="40.813551" lon="-3.831507">
        <ele>2079.0</ele>
        <time>2018-04-21T07:00:45.000Z</time>
      </trkpt>
      <trkpt lat="40.813548" lon="-3.83152">
        <ele>2078.9</ele>
        <time>2018-04-21T07:00:46.000Z</time>
      </trkpt>
      <trkpt lat="40.813546" lon="-3.831533">
        <ele>2078.8</ele>
        <time>2018-04-21T07:00:47.000Z</time>
      </trkpt>
      <trkpt lat="40.813543" lon="-3.831546">
        <ele>2078.7</ele>
        <time>2018-04-21T07:00:48.000Z</time>
      </trkpt>
      <trkpt lat="40.813539" lon="-3.831561">
        <ele>2078.6</ele>
        <time>2018-04-21T07:00:49.000Z</time>
      </trkpt>
      <trkpt lat="40.813534" lon="-3.831576">
        <ele>2078.4</ele>
        <time>2018-04-21T07:00:50.000Z</time>
      </trkpt>
      <trkpt lat="40.81353" lon="-3.831592">
        <ele>2078.3</ele>
        <time>2018-04-21T07:00:51.000Z</time>
      </trkpt>
      <trkpt lat="40.813526" lon="-3.831609">
        <ele>2078.1</ele>
        <time>2018-04-21T07:00:52.000Z</time>
      </trkpt>
      <trkpt lat="40.813525" lon="-3.831625">
        <ele>2078.0</ele>
        <time>2018-04-21T07:00:53.000Z</time>
      </trkpt>
      <trkpt lat="40.813526" lon="-3.83164">
        <ele>2077.9</ele>
        <time>2018-04-21T07:00:54.000Z</time>
      </trkpt>
      <trkpt lat="40.81353" lon="-3.831655">
        <ele>2077.8</ele>
        <time>2018-04-21T07:00:55.000Z</time>
      </trkpt>
      <trkpt lat="40.813534" lon="-3.831669">
        <ele>2077.7</ele>
        <time>2018-04-21T07:00:56.000Z</time>
      </trkpt>
      <trkpt lat="40.813538" lon="-3.831682">
        <ele>2077.7</ele>
        <time>2018-04-21T07:00:57.000Z</time>
      </trkpt>
      <trkpt lat="40.81354" lon="-3.831694">
        <ele>2077.7</ele>
        <time>2018-04-21T07:00:58.000Z</time>
      </trkpt>
      <trkpt lat="40.81354" lon="-3.831704">
        <ele>2077.6</ele>
        <time>2018-04-21T07:00:59.000Z</time>
      </trkpt>
      <trkpt lat="40.813538" lon="-3.831713">
        <ele>2077.6</ele>
        <time>2018-04-21T07:01:00.000Z</time>
      </trkpt>
      <trkpt lat="40.813533" lon="-3.831721">
        <ele>2077.6</ele>
        <time>2018-04-21T07:01:01.000Z</time>
      </trkpt>
      <trkpt lat="40.813528" lon="-3.831731">
        <ele>2077.5</ele>
        <time>2018-04-21T07:01:02.000Z</time>
      </trkpt>
      <trkpt lat="40.813522" lon="-3.831741">
        <ele>2077.5</ele>
        <time>2018-04-21T07:01:03.000Z</time>
      </trkpt>
      <trkpt lat="40.813515" lon="-3.831751">
        <ele>2077.4</ele>
        <time>2018-04-21T07:01:04.000Z</time>
      </trkpt>
      <trkpt lat="40.813508" lon="-3.831763">
        <ele>2077.4</ele>
        <time>2018-04-21T07:01:05.000Z</time>
      </trkpt>
      <trkpt lat="40.813501" lon="-3.831775">
        <ele>2077.3</ele>
        <time>2018-04-21T07:01:06.000Z</time>
      </trkpt>
      <trkpt lat="40.813494" lon="-3.831788">
        <ele>2077.3</ele>
        <time>2018-04-21T07:01:07.000Z</time>
      </trkpt>
      <trkpt lat="40.813487" lon="-3.8318">
        <ele>2077.2</ele>
        <time>2018-04-21T07:01:08.000Z</time>
      </trkpt>
      <trkpt lat="40.81348" lon="-3.831813">
        <ele>2077.2</ele>
        <time>2018-04-21T07:01:09.000Z</time>
      </trkpt>
      <trkpt lat="40.813474" lon="-3.831826">
        <ele>2077.2</ele>
        <time>2018-04-21T07:01:10.000Z</time>
      </trkpt>
      <trkpt lat="40.813468" lon="-3.831839">
        <ele>2077.1</ele>
        <time>2018-04-21T07:01:11.000Z</time>
      </trkpt>
      <trkpt lat="40.813464" lon="-3.831851">
        <ele>2077.1</ele>
        <time>2018-04-21T07:01:12.000Z</time>
      </trkpt>
      <trkpt lat="40.81346" lon="-3.831863">
        <ele>2077.0</ele>
        <time>2018-04-21T07:01:13.000Z</time>
      </trkpt>
      <trkpt lat="40.813456" lon="-3.831875">
        <ele>2077.0</ele>
        <time>2018-04-21T07:01:14.000Z</time>
      </trkpt>
      <trkpt lat="40.813453" lon="-3.831886">
        <ele>2077.0</ele>
        <time>2018-04-21T07:01:15.000Z</time>
      </trkpt>
      <trkpt lat="40.81345" lon="-3.831898">
        <ele>2076.9</ele>
        <time>2018-04-21T07:01:16.000Z</time>
      </trkpt>
      <trkpt lat="40.813448" lon="-3.83191">
        <ele>2076.9</ele>
        <time>2018-04-21T07:01:17.000Z</time>
      </trkpt>
      <trkpt lat="40.813445" lon="-3.831921">
        <ele>2076.9</ele>
        <time>2018-04-21T07:01:18.000Z</time>
      </trkpt>
      <trkpt lat="40.813443" lon="-3.831933">
        <ele>2076.9</ele>
        <time>2018-04-21T07:01:19.000Z</time>
      </trkpt>
      <trkpt lat="40.81344" lon="-3.831944">
        <ele>2076.8</ele>
        <time>2018-04-21T07:01:20.000Z</time>
      </trkpt>
      <trkpt lat="40.813438" lon="-3.831956">
        <ele>2076.8</ele>
        <time>2018-04-21T07:01:21.000Z</time>
      </trkpt>
      <trkpt lat="40.813435" lon="-3.831968">
        <ele>2076.8</ele>
        <time>2018-04-21T07:01:22.000Z</time>
      </trkpt>
      <trkpt lat="40.813431" lon="-3.83198">
        <ele>2076.8</ele>
        <time>2018-04-21T07:01:23.000Z</time>
      </trkpt>
      <trkpt lat="40.813428" lon="-3.831992">
        <ele>2076.7</ele>
        <time>2018-04-21T07:01:24.000Z</time>
      </trkpt>
      <trkpt lat="40.813424" lon="-3.832005">
        <ele>2076.7</ele>
        <time>2018-04-21T07:01:25.000Z</time>
      </trkpt>
      <trkpt lat="40.81342" lon="-3.832017">
        <ele>2076.7</ele>
        <time>2018-04-21T07:01:26.000Z</time>
      </trkpt>
      <trkpt lat="40.813416" lon="-3.83203">
        <ele>2076.6</ele>
        <time>2018-04-21T07:01:27.000Z</time>
      </trkpt>
      <trkpt lat="40.813412" lon="-3.832043">
        <ele>2076.6</ele>
        <time>2018-04-21T07:01:28.000Z</time>
      </trkpt>
      <trkpt lat="40.813408" lon="-3.832056">
        <ele>2076.6</ele>
        <time>2018-04-21T07:01:29.000Z</time>
      </trkpt>
      <trkpt lat="40.813404" lon="-3.83207">
        <ele>2076.6</ele>
        <time>2018-04-21T07:01:30.000Z</time>
      </trkpt>
      <trkpt lat="40.8134" lon="-3.832083">
        <ele>2076.5</ele>
        <time>2018-04-21T07:01:31.000Z</time>
      </trkpt>
      <trkpt lat="40.813395" lon="-3.832097">
        <ele>2076.5</ele>
        <time>2018-04-21T07:01:32.000Z</time>
      </trkpt>
      <trkpt lat="40.813391" lon="-3.83211">
        <ele>2076.5</ele>
        <time>2018-04-21T07:01:33.000Z</time>
      </trkpt>
      <trkpt lat="40.813386" lon="-3.832124">
        <ele>2076.5</ele>
        <time>2018-04-21T07:01:34.000Z</time>
      </trkpt>
      <trkpt lat="40.813382" lon="-3.832139">
        <ele>2076.4</ele>
        <time>2018-04-21T07:01:35.000Z</time>
      </trkpt>
      <trkpt lat="40.813378" lon="-3.832153">
        <ele>2076.4</ele>
        <time>2018-04-21T07:01:36.000Z</time>
      </trkpt>
      <trkpt lat="40.813373" lon="-3.832167">
        <ele>2076.4</ele>
        <time>2018-04-21T07:01:37.000Z</time>
      </trkpt>
      <trkpt lat="40.813369" lon="-3.832182">
        <ele>2076.4</ele>
        <time>2018-04-21T07:01:38.000Z</time>
      </trkpt>
      <trkpt lat="40.813365" lon="-3.832197">
        <ele>2076.4</ele>
        <time>2018-04-21T07:01:39.000Z</time>
      </trkpt>
      <trkpt lat="40.813361" lon="-3.832212">
        <ele>2076.3</ele>
        <time>2018-04-21T07:01:40.000Z</time>
      </trkpt>
      <trkpt lat="40.813357" lon="-3.832227">
        <ele>2076.3</ele>
        <time>2018-04-21T07:01:41.000Z</time>
      </trkpt>
      <trkpt lat="40.813354" lon="-3.832242">
        <ele>2076.3</ele>
        <time>2018-04-21T07:01:42.000Z</time>
      </trkpt>
      <trkpt lat="40.813351" lon="-3.832257">
        <ele>2076.3</ele>
        <time>2018-04-21T07:01:43.000Z</time>
      </trkpt>
      <trkpt lat="40.813349" lon="-3.832273">
        <ele>2076.3</ele>
        <time>2018-04-21T07:01:44.000Z</time>
      </trkpt>
      <trkpt lat="40.813347" lon="-3.832288">
        <ele>2076.2</ele>
        <time>2018-04-21T07:01:45.000Z</time>
      </trkpt>
      <trkpt lat="40.813346" lon="-3.832303">
        <ele>2076.2</ele>
        <time>2018-04-21T07:01:46.000Z</time>
      </trkpt>
      <trkpt lat="40.813346" lon="-3.832318">
        <ele>2076.2</ele>
        <time>2018-04-21T07:01:47.000Z</time>
      </trkpt>
      <trkpt lat="40.813346" lon="-3.832332">
        <ele>2076.2</ele>
        <time>2018-04-21T07:01:48.000Z</time>
      </trkpt>
      <trkpt lat="40.813348" lon="-3.832347">
        <ele>2076.2</ele>
        <time>2018-04-21T07:01:49.000Z</time>
      </trkpt>
      <trkpt lat="40.81335" lon="-3.832361">
        <ele>2076.1</ele>
        <time>2018-04-21T07:01:50.000Z</time>
      </trkpt>
      <trkpt lat="40.813352" lon="-3.832375">
        <ele>2076.1</ele>
        <time>2018-04-21T07:01:51.000Z</time>
      </trkpt>
      <trkpt lat="40.813355" lon="-3.832389">
        <ele>2076.1</ele>
        <time>2018-04-21T07:01:52.000Z</time>
      </trkpt>
      <trkpt lat="40.813358" lon="-3.832402">
        <ele>2076.1</ele>
        <time>2018-04-21T07:01:53.000Z</time>
      </trkpt>
      <trkpt lat="40.813361" lon="-3.832416">
        <ele>2076.1</ele>
        <time>2018-04-21T07:01:54.000Z</time>
      </trkpt>
      <trkpt lat="40.813363" lon="-3.832428">
        <ele>2076.0</ele>
        <time>2018-04-21T07:01:55.000Z</time>
      </trkpt>
      <trkpt lat="40.813365" lon="-3.832441">
        <ele>2076.0</ele>
        <time>2018-04-21T07:01:56.000Z</time>
      </trkpt>
      <trkpt lat="40.813366" lon="-3.832452">
        <ele>2076.0</ele>
        <time>2018-04-21T07:01:57.000Z</time>
      </trkpt>
      <trkpt lat="40.813366" lon="-3.832464">
        <ele>2076.0</ele>
        <time>2018-04-21T07:01:58.000Z</time>
      </trkpt>
      <trkpt lat="40.813364" lon="-3.832475">
        <ele>2076.0</ele>
        <time>2018-04-21T07:01:59.000Z</time>
      </trkpt>
      <trkpt lat="40.813362" lon="-3.832487">
        <ele>2075.9</ele>
        <time>2018-04-21T07:02:00.000Z</time>
      </trkpt>
      <trkpt lat="40.813359" lon="-3.832499">
        <ele>2075.9</ele>
        <time>2018-04-21T07:02:01.000Z</time>
      </trkpt>
      <trkpt lat="40.813355" lon="-3.832512">
        <ele>2076.0</ele>
        <time>2018-04-21T07:02:02.000Z</time>
      </trkpt>
      <trkpt lat="40.813351" lon="-3.832526">
        <ele>2076.0</ele>
        <time>2018-04-21T07:02:03.000Z</time>
      </trkpt>
      <trkpt lat="40.813346" lon="-3.832541">
        <ele>2076.1</ele>
        <time>2018-04-21T07:02:04.000Z</time>
      </trkpt>
      <trkpt lat="40.813342" lon="-3.832556">
        <ele>2076.1</ele>
        <time>2018-04-21T07:02:05.000Z</time>
      </trkpt>
      <trkpt lat="40.813339" lon="-3.83257">
        <ele>2076.2</ele>
        <time>2018-04-21T07:02:06.000Z</time>
      </trkpt>
      <trkpt lat="40.813337" lon="-3.832583">
        <ele>2076.2</ele>
        <time>2018-04-21T07:02:07.000Z</time>
      </trkpt>
      <trkpt lat="40.813337" lon="-3.832595">
        <ele>2076.2</ele>
        <time>2018-04-21T07:02:08.000Z</time>
      </trkpt>
      <trkpt lat="40.813338" lon="-3.832607">
        <ele>2076.2</ele>
        <time>2018-04-21T07:02:09.000Z</time>
      </trkpt>
      <trkpt lat="40.81334" lon="-3.832617">
        <ele>2076.3</ele>
        <time>2018-04-21T07:02:10.000Z</time>
      </trkpt>
      <trkpt lat="40.813342" lon="-3.832626">
        <ele>2076.3</ele>
        <time>2018-04-21T07:02:11.000Z</time>
      </trkpt>
      <trkpt lat="40.813345" lon="-3.832636">
        <ele>2076.3</ele>
        <time>2018-04-21T07:02:12.000Z</time>
      </trkpt>
      <trkpt lat="40.813347" lon="-3.832644">
        <ele>2076.3</ele>
        <time>2018-04-21T07:02:13.000Z</time>
      </trkpt>
      <trkpt lat="40.813349" lon="-3.832653">
        <ele>2076.3</ele>
        <time>2018-04-21T07:02:14.000Z</time>
      </trkpt>
      <trkpt lat="40.813351" lon="-3.832661">
        <ele>2076.3</ele>
        <time>2018-04-21T07:02:15.000Z</time>
      </trkpt>
      <trkpt lat="40.813352" lon="-3.832669">
        <ele>2076.3</ele>
        <time>2018-04-21T07:02:16.000Z</time>
      </trkpt>
      <trkpt lat="40.813352" lon="-3.832677">
        <ele>2076.4</ele>
        <time>2018-04-21T07:02:17.000Z</time>
      </trkpt>
      <trkpt lat="40.813351" lon="-3.832685">
        <ele>2076.4</ele>
        <time>2018-04-21T07:02:18.000Z</time>
      </trkpt>
      <trkpt lat="40.81335" lon="-3.832693">
        <ele>2076.4</ele>
        <time>2018-04-21T07:02:19.000Z</time>
      </trkpt>
      <trkpt lat="40.813348" lon="-3.8327">
        <ele>2076.4</ele>
        <time>2018-04-21T07:02:20.000Z</time>
      </trkpt>
      <trkpt lat="40.813345" lon="-3.832707">
        <ele>2076.5</ele>
        <time>2018-04-21T07:02:21.000Z</time>
      </trkpt>
      <trkpt lat="40.813341" lon="-3.832715">
        <ele>2076.5</ele>
        <time>2018-04-21T07:02:22.000Z</time>
      </trkpt>
      <trkpt lat="40.813337" lon="-3.832722">
        <ele>2076.5</ele>
        <time>2018-04-21T07:02:23.000Z</time>
      </trkpt>
      <trkpt lat="40.813332" lon="-3.832731">
        <ele>2076.5</ele>
        <time>2018-04-21T07:02:24.000Z</time>
      </trkpt>
      <trkpt lat="40.813326" lon="-3.832741">
        <ele>2076.3</ele>
        <time>2018-04-21T07:02:25.000Z</time>
      </trkpt>
      <trkpt lat="40.81332" lon="-3.832752">
        <ele>2076.1</ele>
        <time>2018-04-21T07:02:26.000Z</time>
      </trkpt>
      <trkpt lat="40.813315" lon="-3.832763">
        <ele>2076.0</ele>
        <time>2018-04-21T07:02:27.000Z</time>
      </trkpt>
      <trkpt lat="40.813312" lon="-3.832774">
        <ele>2075.9</ele>
        <time>2018-04-21T07:02:28.000Z</time>
      </trkpt>
      <trkpt lat="40.813311" lon="-3.832785">
        <ele>2075.9</ele>
        <time>2018-04-21T07:02:29.000Z</time>
      </trkpt>
      <trkpt lat="40.813314" lon="-3.832796">
        <ele>2076.0</ele>
        <time>2018-04-21T07:02:30.000Z</time>
      </trkpt>
      <trkpt lat="40.813318" lon="-3.832806">
        <ele>2076.2</ele>
        <time>2018-04-21T07:02:31.000Z</time>
      </trkpt>
      <trkpt lat="40.813323" lon="-3.832815">
        <ele>2076.4</ele>
        <time>2018-04-21T07:02:32.000Z</time>
      </trkpt>
      <trkpt lat="40.813326" lon="-3.832825">
        <ele>2076.5</ele>
        <time>2018-04-21T07:02:33.000Z</time>
      </trkpt>
      <trkpt lat="40.813326" lon="-3.832835">
        <ele>2076.5</ele>
        <time>2018-04-21T07:02:34.000Z</time>
      </trkpt>
      <trkpt lat="40.813324" lon="-3.832844">
        <ele>2076.5</ele>
        <time>2018-04-21T07:02:35.000Z</time>
      </trkpt>
      <trkpt lat="40.81332" lon="-3.832854">
        <ele>2076.3</ele>
        <time>2018-04-21T07:02:36.000Z</time>
      </trkpt>
      <trkpt lat="40.813317" lon="-3.832863">
        <ele>2076.3</ele>
        <time>2018-04-21T07:02:37.000Z</time>
      </trkpt>
      <trkpt lat="40.813314" lon="-3.832871">
        <ele>2076.2</ele>
        <time>2018-04-21T07:02:38.000Z</time>
      </trkpt>
      <trkpt lat="40.813313" lon="-3.832878">
        <ele>2076.1</ele>
        <time>2018-04-21T07:02:39.000Z</time>
      </trkpt>
      <trkpt lat="40.813313" lon="-3.832885">
        <ele>2076.1</ele>
        <time>2018-04-21T07:02:40.000Z</time>
      </trkpt>
      <trkpt lat="40.813314" lon="-3.832892">
        <ele>2076.2</ele>
        <time>2018-04-21T07:02:41.000Z</time>
      </trkpt>
      <trkpt lat="40.813314" lon="-3.8329">
        <ele>2076.2</ele>
        <time>2018-04-21T07:02:42.000Z</time>
      </trkpt>
      <trkpt lat="40.813313" lon="-3.83291">
        <ele>2076.2</ele>
        <time>2018-04-21T07:02:43.000Z</time>
      </trkpt>
      <trkpt lat="40.813312" lon="-3.83292">
        <ele>2076.2</ele>
        <time>2018-04-21T07:02:44.000Z</time>
      </trkpt>
      <trkpt lat="40.81331" lon="-3.832932">
        <ele>2076.1</ele>
        <time>2018-04-21T07:02:45.000Z</time>
      </trkpt>
      <trkpt lat="40.813308" lon="-3.832944">
        <ele>2076.1</ele>
        <time>2018-04-21T07:02:46.000Z</time>
      </trkpt>
      <trkpt lat="40.813306" lon="-3.832956">
        <ele>2076.0</ele>
        <time>2018-04-21T07:02:47.000Z</time>
      </trkpt>
      <trkpt lat="40.813305" lon="-3.832968">
        <ele>2076.0</ele>
        <time>2018-04-21T07:02:48.000Z</time>
      </trkpt>
      <trkpt lat="40.813304" lon="-3.83298">
        <ele>2076.0</ele>
        <time>2018-04-21T07:02:49.000Z</time>
      </trkpt>
      <trkpt lat="40.813303" lon="-3.832991">
        <ele>2076.0</ele>
        <time>2018-04-21T07:02:50.000Z</time>
      </trkpt>
      <trkpt lat="40.813304" lon="-3.833">
        <ele>2076.1</ele>
        <time>2018-04-21T07:02:51.000Z</time>
      </trkpt>
      <trkpt lat="40.813306" lon="-3.833008">
        <ele>2076.1</ele>
        <time>2018-04-21T07:02:52.000Z</time>
      </trkpt>
      <trkpt lat="40.813309" lon="-3.833016">
        <ele>2076.3</ele>
        <time>2018-04-21T07:02:53.000Z</time>
      </trkpt>
      <trkpt lat="40.813312" lon="-3.833023">
        <ele>2076.4</ele>
        <time>2018-04-21T07:02:54.000Z</time>
      </trkpt>
      <trkpt lat="40.813315" lon="-3.833031">
        <ele>2076.6</ele>
        <time>2018-04-21T07:02:55.000Z</time>
      </trkpt>
      <trkpt lat="40.813318" lon="-3.833041">
        <ele>2076.7</ele>
        <time>2018-04-21T07:02:56.000Z</time>
      </trkpt>
      <trkpt lat="40.813319" lon="-3.833053">
        <ele>2076.8</ele>
        <time>2018-04-21T07:02:57.000Z</time>
      </trkpt>
      <trkpt lat="40.813319" lon="-3.833066">
        <ele>2076.8</ele>
        <time>2018-04-21T07:02:58.000Z</time>
      </trkpt>
      <trkpt lat="40.813318" lon="-3.833082">
        <ele>2076.8</ele>
        <time>2018-04-21T07:02:59.000Z</time>
      </trkpt>
      <trkpt lat="40.813317" lon="-3.833099">
        <ele>2076.8</ele>
        <time>2018-04-21T07:03:00.000Z</time>
      </trkpt>
      <trkpt lat="40.813315" lon="-3.833118">
        <ele>2076.7</ele>
        <time>2018-04-21T07:03:01.000Z</time>
      </trkpt>
      <trkpt lat="40.813312" lon="-3.833137">
        <ele>2076.7</ele>
        <time>2018-04-21T07:03:02.000Z</time>
      </trkpt>
      <trkpt lat="40.81331" lon="-3.833156">
        <ele>2076.6</ele>
        <time>2018-04-21T07:03:03.000Z</time>
      </trkpt>
      <trkpt lat="40.813308" lon="-3.833175">
        <ele>2076.6</ele>
        <time>2018-04-21T07:03:04.000Z</time>
      </trkpt>
      <trkpt lat="40.813307" lon="-3.833192">
        <ele>2076.6</ele>
        <time>2018-04-21T07:03:05.000Z</time>
      </trkpt>
      <trkpt lat="40.813307" lon="-3.833207">
        <ele>2076.6</ele>
        <time>2018-04-21T07:03:06.000Z</time>
      </trkpt>
      <trkpt lat="40.813308" lon="-3.833221">
        <ele>2076.7</ele>
        <time>2018-04-21T07:03:07.000Z</time>
      </trkpt>
      <trkpt lat="40.81331" lon="-3.833234">
        <ele>2076.8</ele>
        <time>2018-04-21T07:03:08.000Z</time>
      </trkpt>
      <trkpt lat="40.813313" lon="-3.833246">
        <ele>2077.0</ele>
        <time>2018-04-21T07:03:09.000Z</time>
      </trkpt>
      <trkpt lat="40.813317" lon="-3.833259">
        <ele>2077.1</ele>
        <time>2018-04-21T07:03:10.000Z</time>
      </trkpt>
      <trkpt lat="40.813321" lon="-3.833272">
        <ele>2077.3</ele>
        <time>2018-04-21T07:03:11.000Z</time>
      </trkpt>
      <trkpt lat="40.813324" lon="-3.833286">
        <ele>2077.5</ele>
        <time>2018-04-21T07:03:12.000Z</time>
      </trkpt>
      <trkpt lat="40.813327" lon="-3.8333">
        <ele>2077.7</ele>
        <time>2018-04-21T07:03:13.000Z</time>
      </trkpt>
      <trkpt lat="40.813329" lon="-3.833315">
        <ele>2077.8</ele>
        <time>2018-04-21T07:03:14.000Z</time>
      </trkpt>
      <trkpt lat="40.813329" lon="-3.83333">
        <ele>2077.8</ele>
        <time>2018-04-21T07:03:15.000Z</time>
      </trkpt>
      <trkpt lat="40.813328" lon="-3.833345">
        <ele>2077.8</ele>
        <time>2018-04-21T07:03:16.000Z</time>
      </trkpt>
      <trkpt lat="40.813327" lon="-3.83336">
        <ele>2077.8</ele>
        <time>2018-04-21T07:03:17.000Z</time>
      </trkpt>
      <trkpt lat="40.813327" lon="-3.833375">
        <ele>2077.8</ele>
        <time>2018-04-21T07:03:18.000Z</time>
      </trkpt>
      <trkpt lat="40.813328" lon="-3.83339">
        <ele>2077.8</ele>
        <time>2018-04-21T07:03:19.000Z</time>
      </trkpt>
      <trkpt lat="40.81333" lon="-3.833404">
        <ele>2077.9</ele>
        <time>2018-04-21T07:03:20.000Z</time>
      </trkpt>
      <trkpt lat="40.813333" lon="-3.833419">
        <ele>2078.1</ele>
        <time>2018-04-21T07:03:21.000Z</time>
      </trkpt>
      <trkpt lat="40.813337" lon="-3.833433">
        <ele>2078.1</ele>
        <time>2018-04-21T07:03:22.000Z</time>
      </trkpt>
      <trkpt lat="40.813341" lon="-3.833447">
        <ele>2078.1</ele>
        <time>2018-04-21T07:03:23.000Z</time>
      </trkpt>
      <trkpt lat="40.813346" lon="-3.833461">
        <ele>2078.0</ele>
        <time>2018-04-21T07:03:24.000Z</time>
      </trkpt>
      <trkpt lat="40.813351" lon="-3.833474">
        <ele>2078.0</ele>
        <time>2018-04-21T07:03:25.000Z</time>
      </trkpt>
      <trkpt lat="40.813356" lon="-3.833487">
        <ele>2078.0</ele>
        <time>2018-04-21T07:03:26.000Z</time>
      </trkpt>
      <trkpt lat="40.81336" lon="-3.8335">
        <ele>2078.0</ele>
        <time>2018-04-21T07:03:27.000Z</time>
      </trkpt>
      <trkpt lat="40.813365" lon="-3.833512">
        <ele>2077.9</ele>
        <time>2018-04-21T07:03:28.000Z</time>
      </trkpt>
      <trkpt lat="40.813369" lon="-3.833525">
        <ele>2077.9</ele>
        <time>2018-04-21T07:03:29.000Z</time>
      </trkpt>
      <trkpt lat="40.813373" lon="-3.833537">
        <ele>2077.9</ele>
        <time>2018-04-21T07:03:30.000Z</time>
      </trkpt>
      <trkpt lat="40.813376" lon="-3.833549">
        <ele>2077.9</ele>
        <time>2018-04-21T07:03:31.000Z</time>
      </trkpt>
      <trkpt lat="40.81338" lon="-3.833562">
        <ele>2077.8</ele>
        <time>2018-04-21T07:03:32.000Z</time>
      </trkpt>
      <trkpt lat="40.813383" lon="-3.833575">
        <ele>2077.8</ele>
        <time>2018-04-21T07:03:33.000Z</time>
      </trkpt>
      <trkpt lat="40.813387" lon="-3.833588">
        <ele>2077.8</ele>
        <time>2018-04-21T07:03:34.000Z</time>
      </trkpt>
      <trkpt lat="40.813391" lon="-3.8336">
        <ele>2077.8</ele>
        <time>2018-04-21T07:03:35.000Z</time>
      </trkpt>
      <trkpt lat="40.813395" lon="-3.833611">
        <ele>2077.7</ele>
        <time>2018-04-21T07:03:36.000Z</time>
      </trkpt>
      <trkpt lat="40.8134" lon="-3.833621">
        <ele>2077.7</ele>
        <time>2018-04-21T07:03:37.000Z</time>
      </trkpt>
      <trkpt lat="40.813405" lon="-3.833629">
        <ele>2077.7</ele>
        <time>2018-04-21T07:03:38.000Z</time>
      </trkpt>
      <trkpt lat="40.813411" lon="-3.833637">
        <ele>2077.6</ele>
        <time>2018-04-21T07:03:39.000Z</time>
      </trkpt>
      <trkpt lat="40.813416" lon="-3.833646">
        <ele>2077.6</ele>
        <time>2018-04-21T07:03:40.000Z</time>
      </trkpt>
      <trkpt lat="40.81342" lon="-3.833656">
        <ele>2077.5</ele>
        <time>2018-04-21T07:03:41.000Z</time>
      </trkpt>
      <trkpt lat="40.813424" lon="-3.833669">
        <ele>2077.5</ele>
        <time>2018-04-21T07:03:42.000Z</time>
      </trkpt>
      <trkpt lat="40.813426" lon="-3.833684">
        <ele>2077.5</ele>
        <time>2018-04-21T07:03:43.000Z</time>
      </trkpt>
      <trkpt lat="40.813428" lon="-3.8337">
        <ele>2077.5</ele>
        <time>2018-04-21T07:03:44.000Z</time>
      </trkpt>
      <trkpt lat="40.81343" lon="-3.833717">
        <ele>2077.5</ele>
        <time>2018-04-21T07:03:45.000Z</time>
      </trkpt>
      <trkpt lat="40.813431" lon="-3.833733">
        <ele>2077.5</ele>
        <time>2018-04-21T07:03:46.000Z</time>
      </trkpt>
      <trkpt lat="40.813431" lon="-3.833749">
        <ele>2077.5</ele>
        <time>2018-04-21T07:03:47.000Z</time>
      </trkpt>
      <trkpt lat="40.813432" lon="-3.833765">
        <ele>2077.5</ele>
        <time>2018-04-21T07:03:48.000Z</time>
      </trkpt>
      <trkpt lat="40.813431" lon="-3.83378">
        <ele>2077.5</ele>
        <time>2018-04-21T07:03:49.000Z</time>
      </trkpt>
      <trkpt lat="40.81343" lon="-3.833795">
        <ele>2077.5</ele>
        <time>2018-04-21T07:03:50.000Z</time>
      </trkpt>
      <trkpt lat="40.813429" lon="-3.833809">
        <ele>2077.6</ele>
        <time>2018-04-21T07:03:51.000Z</time>
      </trkpt>
      <trkpt lat="40.813426" lon="-3.833822">
        <ele>2077.6</ele>
        <time>2018-04-21T07:03:52.000Z</time>
      </trkpt>
      <trkpt lat="40.813423" lon="-3.833836">
        <ele>2077.7</ele>
        <time>2018-04-21T07:03:53.000Z</time>
      </trkpt>
      <trkpt lat="40.813418" lon="-3.833848">
        <ele>2077.7</ele>
        <time>2018-04-21T07:03:54.000Z</time>
      </trkpt>
      <trkpt lat="40.813413" lon="-3.83386">
        <ele>2077.8</ele>
        <time>2018-04-21T07:03:55.000Z</time>
      </trkpt>
      <trkpt lat="40.813407" lon="-3.833872">
        <ele>2077.9</ele>
        <time>2018-04-21T07:03:56.000Z</time>
      </trkpt>
      <trkpt lat="40.813401" lon="-3.833884">
        <ele>2077.9</ele>
        <time>2018-04-21T07:03:57.000Z</time>
      </trkpt>
      <trkpt lat="40.813395" lon="-3.833896">
        <ele>2078.0</ele>
        <time>2018-04-21T07:03:58.000Z</time>
      </trkpt>
      <trkpt lat="40.813389" lon="-3.833909">
        <ele>2078.1</ele>
        <time>2018-04-21T07:03:59.000Z</time>
      </trkpt>
      <trkpt lat="40.813384" lon="-3.833922">
        <ele>2078.2</ele>
        <time>2018-04-21T07:04:00.000Z</time>
      </trkpt>
      <trkpt lat="40.813379" lon="-3.833937">
        <ele>2078.2</ele>
        <time>2018-04-21T07:04:01.000Z</time>
      </trkpt>
      <trkpt lat="40.813375" lon="-3.833951">
        <ele>2078.3</ele>
        <time>2018-04-21T07:04:02.000Z</time>
      </trkpt>
      <trkpt lat="40.813372" lon="-3.833966">
        <ele>2078.3</ele>
        <time>2018-04-21T07:04:03.000Z</time>
      </trkpt>
      <trkpt lat="40.813369" lon="-3.833981">
        <ele>2078.4</ele>
        <time>2018-04-21T07:04:04.000Z</time>
      </trkpt>
      <trkpt lat="40.813367" lon="-3.833996">
        <ele>2078.4</ele>
        <time>2018-04-21T07:04:05.000Z</time>
      </trkpt>
      <trkpt lat="40.813365" lon="-3.83401">
        <ele>2078.5</ele>
        <time>2018-04-21T07:04:06.000Z</time>
      </trkpt>
      <trkpt lat="40.813364" lon="-3.834024">
        <ele>2078.5</ele>
        <time>2018-04-21T07:04:07.000Z</time>
      </trkpt>
      <trkpt lat="40.813363" lon="-3.834039">
        <ele>2078.5</ele>
        <time>2018-04-21T07:04:08.000Z</time>
      </trkpt>
      <trkpt lat="40.813363" lon="-3.834053">
        <ele>2078.5</ele>
        <time>2018-04-21T07:04:09.000Z</time>
      </trkpt>
      <trkpt lat="40.813363" lon="-3.834067">
        <ele>2078.5</ele>
        <time>2018-04-21T07:04:10.000Z</time>
      </trkpt>
      <trkpt lat="40.813364" lon="-3.834081">
        <ele>2078.5</ele>
        <time>2018-04-21T07:04:11.000Z</time>
      </trkpt>
      <trkpt lat="40.813364" lon="-3.834095">
        <ele>2078.6</ele>
        <time>2018-04-21T07:04:12.000Z</time>
      </trkpt>
      <trkpt lat="40.813365" lon="-3.83411">
        <ele>2078.6</ele>
        <time>2018-04-21T07:04:13.000Z</time>
      </trkpt>
      <trkpt lat="40.813366" lon="-3.834124">
        <ele>2078.6</ele>
        <time>2018-04-21T07:04:14.000Z</time>
      </trkpt>
      <trkpt lat="40.813368" lon="-3.834138">
        <ele>2078.6</ele>
        <time>2018-04-21T07:04:15.000Z</time>
      </trkpt>
      <trkpt lat="40.813369" lon="-3.834152">
        <ele>2078.6</ele>
        <time>2018-04-21T07:04:16.000Z</time>
      </trkpt>
      <trkpt lat="40.813371" lon="-3.834166">
        <ele>2078.5</ele>
        <time>2018-04-21T07:04:17.000Z</time>
      </trkpt>
      <trkpt lat="40.813372" lon="-3.83418">
        <ele>2078.6</ele>
        <time>2018-04-21T07:04:18.000Z</time>
      </trkpt>
      <trkpt lat="40.813374" lon="-3.834194">
        <ele>2078.7</ele>
        <time>2018-04-21T07:04:19.000Z</time>
      </trkpt>
      <trkpt lat="40.813375" lon="-3.834209">
        <ele>2078.8</ele>
        <time>2018-04-21T07:04:20.000Z</time>
      </trkpt>
      <trkpt lat="40.813377" lon="-3.834223">
        <ele>2078.8</ele>
        <time>2018-04-21T07:04:21.000Z</time>
      </trkpt>
      <trkpt lat="40.813378" lon="-3.834238">
        <ele>2078.9</ele>
        <time>2018-04-21T07:04:22.000Z</time>
      </trkpt>
      <trkpt lat="40.813379" lon="-3.834252">
        <ele>2079.0</ele>
        <time>2018-04-21T07:04:23.000Z</time>
      </trkpt>
      <trkpt lat="40.81338" lon="-3.834267">
        <ele>2079.0</ele>
        <time>2018-04-21T07:04:24.000Z</time>
      </trkpt>
      <trkpt lat="40.813382" lon="-3.834282">
        <ele>2079.1</ele>
        <time>2018-04-21T07:04:25.000Z</time>
      </trkpt>
      <trkpt lat="40.813383" lon="-3.834297">
        <ele>2079.2</ele>
        <time>2018-04-21T07:04:26.000Z</time>
      </trkpt>
      <trkpt lat="40.813384" lon="-3.834311">
        <ele>2079.2</ele>
        <time>2018-04-21T07:04:27.000Z</time>
      </trkpt>
      <trkpt lat="40.813385" lon="-3.834326">
        <ele>2079.3</ele>
        <time>2018-04-21T07:04:28.000Z</time>
      </trkpt>
      <trkpt lat="40.813387" lon="-3.834341">
        <ele>2079.4</ele>
        <time>2018-04-21T07:04:29.000Z</time>
      </trkpt>
      <trkpt lat="40.813388" lon="-3.834356">
        <ele>2079.5</ele>
        <time>2018-04-21T07:04:30.000Z</time>
      </trkpt>
      <trkpt lat="40.81339" lon="-3.834371">
        <ele>2079.5</ele>
        <time>2018-04-21T07:04:31.000Z</time>
      </trkpt>
      <trkpt lat="40.813392" lon="-3.834386">
        <ele>2079.6</ele>
        <time>2018-04-21T07:04:32.000Z</time>
      </trkpt>
      <trkpt lat="40.813394" lon="-3.834401">
        <ele>2079.7</ele>
        <time>2018-04-21T07:04:33.000Z</time>
      </trkpt>
      <trkpt lat="40.813396" lon="-3.834416">
        <ele>2079.7</ele>
        <time>2018-04-21T07:04:34.000Z</time>
      </trkpt>
      <trkpt lat="40.813398" lon="-3.83443">
        <ele>2079.8</ele>
        <time>2018-04-21T07:04:35.000Z</time>
      </trkpt>
      <trkpt lat="40.813401" lon="-3.834444">
        <ele>2079.8</ele>
        <time>2018-04-21T07:04:36.000Z</time>
      </trkpt>
      <trkpt lat="40.813404" lon="-3.834458">
        <ele>2079.9</ele>
        <time>2018-04-21T07:04:37.000Z</time>
      </trkpt>
      <trkpt lat="40.813407" lon="-3.834471">
        <ele>2079.9</ele>
        <time>2018-04-21T07:04:38.000Z</time>
      </trkpt>
      <trkpt lat="40.813411" lon="-3.834484">
        <ele>2079.9</ele>
        <time>2018-04-21T07:04:39.000Z</time>
      </trkpt>
      <trkpt lat="40.813415" lon="-3.834496">
        <ele>2080.0</ele>
        <time>2018-04-21T07:04:40.000Z</time>
      </trkpt>
      <trkpt lat="40.813419" lon="-3.834508">
        <ele>2080.0</ele>
        <time>2018-04-21T07:04:41.000Z</time>
      </trkpt>
      <trkpt lat="40.813424" lon="-3.834519">
        <ele>2080.0</ele>
        <time>2018-04-21T07:04:42.000Z</time>
      </trkpt>
      <trkpt lat="40.813428" lon="-3.83453">
        <ele>2080.0</ele>
        <time>2018-04-21T07:04:43.000Z</time>
      </trkpt>
      <trkpt lat="40.813433" lon="-3.834541">
        <ele>2080.0</ele>
        <time>2018-04-21T07:04:44.000Z</time>
      </trkpt>
      <trkpt lat="40.813437" lon="-3.834552">
        <ele>2080.0</ele>
        <time>2018-04-21T07:04:45.000Z</time>
      </trkpt>
      <trkpt lat="40.813441" lon="-3.834562">
        <ele>2080.0</ele>
        <time>2018-04-21T07:04:46.000Z</time>
      </trkpt>
      <trkpt lat="40.813444" lon="-3.834573">
        <ele>2080.0</ele>
        <time>2018-04-21T07:04:47.000Z</time>
      </trkpt>
      <trkpt lat="40.813447" lon="-3.834583">
        <ele>2080.1</ele>
        <time>2018-04-21T07:04:48.000Z</time>
      </trkpt>
      <trkpt lat="40.813449" lon="-3.834594">
        <ele>2080.1</ele>
        <time>2018-04-21T07:04:49.000Z</time>
      </trkpt>
      <trkpt lat="40.81345" lon="-3.834605">
        <ele>2080.2</ele>
        <time>2018-04-21T07:04:50.000Z</time>
      </trkpt>
      <trkpt lat="40.813451" lon="-3.834616">
        <ele>2080.2</ele>
        <time>2018-04-21T07:04:51.000Z</time>
      </trkpt>
      <trkpt lat="40.813452" lon="-3.834628">
        <ele>2080.3</ele>
        <time>2018-04-21T07:04:52.000Z</time>
      </trkpt>
      <trkpt lat="40.813452" lon="-3.834639">
        <ele>2080.3</ele>
        <time>2018-04-21T07:04:53.000Z</time>
      </trkpt>
      <trkpt lat="40.813451" lon="-3.834651">
        <ele>2080.4</ele>
        <time>2018-04-21T07:04:54.000Z</time>
      </trkpt>
      <trkpt lat="40.81345" lon="-3.834663">
        <ele>2080.5</ele>
        <time>2018-04-21T07:04:55.000Z</time>
      </trkpt>
      <trkpt lat="40.813449" lon="-3.834675">
        <ele>2080.6</ele>
        <time>2018-04-21T07:04:56.000Z</time>
      </trkpt>
      <trkpt lat="40.813447" lon="-3.834687">
        <ele>2080.7</ele>
        <time>2018-04-21T07:04:57.000Z</time>
      </trkpt>
      <trkpt lat="40.813445" lon="-3.834699">
        <ele>2080.8</ele>
        <time>2018-04-21T07:04:58.000Z</time>
      </trkpt>
      <trkpt lat="40.813443" lon="-3.834712">
        <ele>2080.9</ele>
        <time>2018-04-21T07:04:59.000Z</time>
      </trkpt>
      <trkpt lat="40.813441" lon="-3.834724">
        <ele>2081.0</ele>
        <time>2018-04-21T07:05:00.000Z</time>
      </trkpt>
      <trkpt lat="40.813439" lon="-3.834737">
        <ele>2081.1</ele>
        <time>2018-04-21T07:05:01.000Z</time>
      </trkpt>
      <trkpt lat="40.813438" lon="-3.834749">
        <ele>2081.2</ele>
        <time>2018-04-21T07:05:02.000Z</time>
      </trkpt>
      <trkpt lat="40.813437" lon="-3.834761">
        <ele>2081.2</ele>
        <time>2018-04-21T07:05:03.000Z</time>
      </trkpt>
      <trkpt lat="40.813436" lon="-3.834773">
        <ele>2081.3</ele>
        <time>2018-04-21T07:05:04.000Z</time>
      </trkpt>
      <trkpt lat="40.813436" lon="-3.834785">
        <ele>2081.4</ele>
        <time>2018-04-21T07:05:05.000Z</time>
      </trkpt>
      <trkpt lat="40.813437" lon="-3.834796">
        <ele>2081.4</ele>
        <time>2018-04-21T07:05:06.000Z</time>
      </trkpt>
      <trkpt lat="40.813439" lon="-3.834806">
        <ele>2081.5</ele>
        <time>2018-04-21T07:05:07.000Z</time>
      </trkpt>
      <trkpt lat="40.813442" lon="-3.834817">
        <ele>2081.5</ele>
        <time>2018-04-21T07:05:08.000Z</time>
      </trkpt>
      <trkpt lat="40.813445" lon="-3.834826">
        <ele>2081.5</ele>
        <time>2018-04-21T07:05:09.000Z</time>
      </trkpt>
      <trkpt lat="40.813449" lon="-3.834836">
        <ele>2081.5</ele>
        <time>2018-04-21T07:05:10.000Z</time>
      </trkpt>
      <trkpt lat="40.813452" lon="-3.834846">
        <ele>2081.5</ele>
        <time>2018-04-21T07:05:11.000Z</time>
      </trkpt>
      <trkpt lat="40.813456" lon="-3.834856">
        <ele>2081.5</ele>
        <time>2018-04-21T07:05:12.000Z</time>
      </trkpt>
      <trkpt lat="40.813459" lon="-3.834866">
        <ele>2081.6</ele>
        <time>2018-04-21T07:05:13.000Z</time>
      </trkpt>
      <trkpt lat="40.813462" lon="-3.834877">
        <ele>2081.6</ele>
        <time>2018-04-21T07:05:14.000Z</time>
      </trkpt>
      <trkpt lat="40.813464" lon="-3.834888">
        <ele>2081.6</ele>
        <time>2018-04-21T07:05:15.000Z</time>
      </trkpt>
      <trkpt lat="40.813466" lon="-3.8349">
        <ele>2081.7</ele>
        <time>2018-04-21T07:05:16.000Z</time>
      </trkpt>
      <trkpt lat="40.813466" lon="-3.834913">
        <ele>2081.7</ele>
        <time>2018-04-21T07:05:17.000Z</time>
      </trkpt>
      <trkpt lat="40.813467" lon="-3.834926">
        <ele>2081.8</ele>
        <time>2018-04-21T07:05:18.000Z</time>
      </trkpt>
      <trkpt lat="40.813467" lon="-3.834939">
        <ele>2081.9</ele>
        <time>2018-04-21T07:05:19.000Z</time>
      </trkpt>
      <trkpt lat="40.813466" lon="-3.834951">
        <ele>2082.0</ele>
        <time>2018-04-21T07:05:20.000Z</time>
      </trkpt>
      <trkpt lat="40.813466" lon="-3.834963">
        <ele>2082.0</ele>
        <time>2018-04-21T07:05:21.000Z</time>
      </trkpt>
      <trkpt lat="40.813466" lon="-3.834975">
        <ele>2082.1</ele>
        <time>2018-04-21T07:05:22.000Z</time>
      </trkpt>
      <trkpt lat="40.813467" lon="-3.834985">
        <ele>2082.1</ele>
        <time>2018-04-21T07:05:23.000Z</time>
      </trkpt>
      <trkpt lat="40.813468" lon="-3.834995">
        <ele>2082.2</ele>
        <time>2018-04-21T07:05:24.000Z</time>
      </trkpt>
      <trkpt lat="40.81347" lon="-3.835003">
        <ele>2082.2</ele>
        <time>2018-04-21T07:05:25.000Z</time>
      </trkpt>
      <trkpt lat="40.813471" lon="-3.835011">
        <ele>2082.2</ele>
        <time>2018-04-21T07:05:26.000Z</time>
      </trkpt>
      <trkpt lat="40.813473" lon="-3.835021">
        <ele>2082.1</ele>
        <time>2018-04-21T07:05:27.000Z</time>
      </trkpt>
      <trkpt lat="40.813473" lon="-3.835033">
        <ele>2082.1</ele>
        <time>2018-04-21T07:05:28.000Z</time>
      </trkpt>
      <trkpt lat="40.813479" lon="-3.835048">
        <ele>2082.0</ele>
        <time>2018-04-21T07:05:29.000Z</time>
      </trkpt>
      <trkpt lat="40.813491" lon="-3.835063">
        <ele>2081.8</ele>
        <time>2018-04-21T07:07:12.000Z</time>
      </trkpt>
      <trkpt lat="40.813505" lon="-3.835078">
        <ele>2081.6</ele>
        <time>2018-04-21T07:07:13.000Z</time>
      </trkpt>
      <trkpt lat="40.81351" lon="-3.835086">
        <ele>2081.5</ele>
        <time>2018-04-21T07:07:14.000Z</time>
      </trkpt>
      <trkpt lat="40.81351" lon="-3.835088">
        <ele>2081.5</ele>
        <time>2018-04-21T07:07:15.000Z</time>
      </trkpt>
      <trkpt lat="40.813514" lon="-3.835091">
        <ele>2081.5</ele>
        <time>2018-04-21T07:07:16.000Z</time>
      </trkpt>
      <trkpt lat="40.81352" lon="-3.835097">
        <ele>2081.4</ele>
        <time>2018-04-21T07:07:17.000Z</time>
      </trkpt>
      <trkpt lat="40.813528" lon="-3.835104">
        <ele>2081.3</ele>
        <time>2018-04-21T07:07:18.000Z</time>
      </trkpt>
      <trkpt lat="40.813537" lon="-3.835112">
        <ele>2081.1</ele>
        <time>2018-04-21T07:07:19.000Z</time>
      </trkpt>
      <trkpt lat="40.813544" lon="-3.835123">
        <ele>2081.0</ele>
        <time>2018-04-21T07:07:20.000Z</time>
      </trkpt>
      <trkpt lat="40.81355" lon="-3.835135">
        <ele>2080.9</ele>
        <time>2018-04-21T07:07:21.000Z</time>
      </trkpt>
      <trkpt lat="40.813554" lon="-3.835147">
        <ele>2080.9</ele>
        <time>2018-04-21T07:07:22.000Z</time>
      </trkpt>
      <trkpt lat="40.813557" lon="-3.83516">
        <ele>2080.8</ele>
        <time>2018-04-21T07:07:23.000Z</time>
      </trkpt>
      <trkpt lat="40.81356" lon="-3.835172">
        <ele>2080.7</ele>
        <time>2018-04-21T07:07:24.000Z</time>
      </trkpt>
      <trkpt lat="40.813563" lon="-3.835182">
        <ele>2080.7</ele>
        <time>2018-04-21T07:07:25.000Z</time>
      </trkpt>
      <trkpt lat="40.813567" lon="-3.835191">
        <ele>2080.6</ele>
        <time>2018-04-21T07:07:26.000Z</time>
      </trkpt>
      <trkpt lat="40.813572" lon="-3.835199">
        <ele>2080.5</ele>
        <time>2018-04-21T07:07:27.000Z</time>
      </trkpt>
      <trkpt lat="40.813577" lon="-3.835206">
        <ele>2080.5</ele>
        <time>2018-04-21T07:07:28.000Z</time>
      </trkpt>
      <trkpt lat="40.813582" lon="-3.835212">
        <ele>2080.4</ele>
        <time>2018-04-21T07:07:29.000Z</time>
      </trkpt>
      <trkpt lat="40.813587" lon="-3.835218">
        <ele>2080.3</ele>
        <time>2018-04-21T07:07:30.000Z</time>
      </trkpt>
      <trkpt lat="40.813593" lon="-3.835224">
        <ele>2080.2</ele>
        <time>2018-04-21T07:07:31.000Z</time>
      </trkpt>
      <trkpt lat="40.813598" lon="-3.835229">
        <ele>2080.1</ele>
        <time>2018-04-21T07:07:32.000Z</time>
      </trkpt>
      <trkpt lat="40.813604" lon="-3.835234">
        <ele>2080.1</ele>
        <time>2018-04-21T07:07:33.000Z</time>
      </trkpt>
      <trkpt lat="40.813609" lon="-3.83524">
        <ele>2080.0</ele>
        <time>2018-04-21T07:07:34.000Z</time>
      </trkpt>
      <trkpt lat="40.813614" lon="-3.835246">
        <ele>2079.9</ele>
        <time>2018-04-21T07:07:35.000Z</time>
      </trkpt>
      <trkpt lat="40.813618" lon="-3.835252">
        <ele>2079.8</ele>
        <time>2018-04-21T07:07:36.000Z</time>
      </trkpt>
      <trkpt lat="40.813622" lon="-3.835257">
        <ele>2079.8</ele>
        <time>2018-04-21T07:07:37.000Z</time>
      </trkpt>
      <trkpt lat="40.813626" lon="-3.835263">
        <ele>2079.7</ele>
        <time>2018-04-21T07:07:38.000Z</time>
      </trkpt>
      <trkpt lat="40.813629" lon="-3.835267">
        <ele>2079.7</ele>
        <time>2018-04-21T07:07:39.000Z</time>
      </trkpt>
      <trkpt lat="40.813631" lon="-3.835271">
        <ele>2079.6</ele>
        <time>2018-04-21T07:07:40.000Z</time>
      </trkpt>
      <trkpt lat="40.813633" lon="-3.835274">
        <ele>2079.6</ele>
        <time>2018-04-21T07:07:41.000Z</time>
      </trkpt>
      <trkpt lat="40.813634" lon="-3.835276">
        <ele>2079.6</ele>
        <time>2018-04-21T07:07:42.000Z</time>
      </trkpt>
      <trkpt lat="40.813635" lon="-3.835276">
        <ele>2079.6</ele>
        <time>2018-04-21T07:07:43.000Z</time>
      </trkpt>
      <trkpt lat="40.813635" lon="-3.835276">
        <ele>2079.6</ele>
        <time>2018-04-21T07:07:44.000Z</time>
      </trkpt>
      <trkpt lat="40.813634" lon="-3.835275">
        <ele>2079.6</ele>
        <time>2018-04-21T07:07:45.000Z</time>
      </trkpt>
      <trkpt lat="40.813634" lon="-3.835276">
        <ele>2079.6</ele>
        <time>2018-04-21T07:07:46.000Z</time>
      </trkpt>
      <trkpt lat="40.813634" lon="-3.835277">
        <ele>2079.6</ele>
        <time>2018-04-21T07:07:47.000Z</time>
      </trkpt>
      <trkpt lat="40.813635" lon="-3.835281">
        <ele>2079.6</ele>
        <time>2018-04-21T07:07:48.000Z</time>
      </trkpt>
      <trkpt lat="40.813636" lon="-3.835285">
        <ele>2079.5</ele>
        <time>2018-04-21T07:07:49.000Z</time>
      </trkpt>
      <trkpt lat="40.813637" lon="-3.835291">
        <ele>2079.5</ele>
        <time>2018-04-21T07:07:50.000Z</time>
      </trkpt>
      <trkpt lat="40.813639" lon="-3.835298">
        <ele>2079.5</ele>
        <time>2018-04-21T07:07:51.000Z</time>
      </trkpt>
      <trkpt lat="40.81364" lon="-3.835304">
        <ele>2079.5</ele>
        <time>2018-04-21T07:07:52.000Z</time>
      </trkpt>
      <trkpt lat="40.813642" lon="-3.835311">
        <ele>2079.4</ele>
        <time>2018-04-21T07:07:53.000Z</time>
      </trkpt>
      <trkpt lat="40.813643" lon="-3.835319">
        <ele>2079.4</ele>
        <time>2018-04-21T07:07:54.000Z</time>
      </trkpt>
      <trkpt lat="40.813644" lon="-3.835326">
        <ele>2079.4</ele>
        <time>2018-04-21T07:07:55.000Z</time>
      </trkpt>
      <trkpt lat="40.813646" lon="-3.835334">
        <ele>2079.3</ele>
        <time>2018-04-21T07:07:56.000Z</time>
      </trkpt>
      <trkpt lat="40.813646" lon="-3.835341">
        <ele>2079.3</ele>
        <time>2018-04-21T07:07:57.000Z</time>
      </trkpt>
      <trkpt lat="40.813647" lon="-3.835349">
        <ele>2079.3</ele>
        <time>2018-04-21T07:07:58.000Z</time>
      </trkpt>
      <trkpt lat="40.813648" lon="-3.835357">
        <ele>2079.3</ele>
        <time>2018-04-21T07:07:59.000Z</time>
      </trkpt>
      <trkpt lat="40.813648" lon="-3.835366">
        <ele>2079.2</ele>
        <time>2018-04-21T07:08:00.000Z</time>
      </trkpt>
      <trkpt lat="40.813648" lon="-3.835374">
        <ele>2079.2</ele>
        <time>2018-04-21T07:08:01.000Z</time>
      </trkpt>
      <trkpt lat="40.813647" lon="-3.835382">
        <ele>2079.2</ele>
        <time>2018-04-21T07:08:02.000Z</time>
      </trkpt>
      <trkpt lat="40.813646" lon="-3.835391">
        <ele>2079.2</ele>
        <time>2018-04-21T07:08:03.000Z</time>
      </trkpt>
      <trkpt lat="40.813645" lon="-3.835399">
        <ele>2079.2</ele>
        <time>2018-04-21T07:08:04.000Z</time>
      </trkpt>
      <trkpt lat="40.813643" lon="-3.835408">
        <ele>2079.2</ele>
        <time>2018-04-21T07:08:05.000Z</time>
      </trkpt>
      <trkpt lat="40.813641" lon="-3.835417">
        <ele>2079.3</ele>
        <time>2018-04-21T07:08:06.000Z</time>
      </trkpt>
      <trkpt lat="40.813638" lon="-3.835426">
        <ele>2079.3</ele>
        <time>2018-04-21T07:08:07.000Z</time>
      </trkpt>
      <trkpt lat="40.813634" lon="-3.835434">
        <ele>2079.3</ele>
        <time>2018-04-21T07:08:08.000Z</time>
      </trkpt>
      <trkpt lat="40.81363" lon="-3.835443">
        <ele>2079.4</ele>
        <time>2018-04-21T07:08:09.000Z</time>
      </trkpt>
      <trkpt lat="40.813625" lon="-3.835452">
        <ele>2079.4</ele>
        <time>2018-04-21T07:08:10.000Z</time>
      </trkpt>
      <trkpt lat="40.81362" lon="-3.835461">
        <ele>2079.5</ele>
        <time>2018-04-21T07:08:11.000Z</time>
      </trkpt>
      <trkpt lat="40.813615" lon="-3.83547">
        <ele>2079.5</ele>
        <time>2018-04-21T07:08:12.000Z</time>
      </trkpt>
      <trkpt lat="40.813609" lon="-3.835479">
        <ele>2079.6</ele>
        <time>2018-04-21T07:08:13.000Z</time>
      </trkpt>
      <trkpt lat="40.813603" lon="-3.835488">
        <ele>2079.7</ele>
        <time>2018-04-21T07:08:14.000Z</time>
      </trkpt>
      <trkpt lat="40.813597" lon="-3.835498">
        <ele>2079.7</ele>
        <time>2018-04-21T07:08:15.000Z</time>
      </trkpt>
      <trkpt lat="40.813591" lon="-3.835507">
        <ele>2079.8</ele>
        <time>2018-04-21T07:08:16.000Z</time>
      </trkpt>
      <trkpt lat="40.813585" lon="-3.835516">
        <ele>2079.9</ele>
        <time>2018-04-21T07:08:17.000Z</time>
      </trkpt>
      <trkpt lat="40.813579" lon="-3.835523">
        <ele>2079.9</ele>
        <time>2018-04-21T07:08:18.000Z</time>
      </trkpt>
      <trkpt lat="40.813574" lon="-3.835529">
        <ele>2080.0</ele>
        <time>2018-04-21T07:08:19.000Z</time>
      </trkpt>
      <trkpt lat="40.813568" lon="-3.835533">
        <ele>2080.1</ele>
        <time>2018-04-21T07:08:20.000Z</time>
      </trkpt>
      <trkpt lat="40.813563" lon="-3.835535">
        <ele>2080.1</ele>
        <time>2018-04-21T07:08:21.000Z</time>
      </trkpt>
      <trkpt lat="40.813556" lon="-3.835536">
        <ele>2080.2</ele>
        <time>2018-04-21T07:08:22.000Z</time>
      </trkpt>
      <trkpt lat="40.813549" lon="-3.835536">
        <ele>2080.3</ele>
        <time>2018-04-21T07:08:23.000Z</time>
      </trkpt>
      <trkpt lat="40.813541" lon="-3.835535">
        <ele>2080.5</ele>
        <time>2018-04-21T07:08:24.000Z</time>
      </trkpt>
      <trkpt lat="40.813531" lon="-3.835534">
        <ele>2080.6</ele>
        <time>2018-04-21T07:08:25.000Z</time>
      </trkpt>
      <trkpt lat="40.813521" lon="-3.835533">
        <ele>2080.7</ele>
        <time>2018-04-21T07:08:26.000Z</time>
      </trkpt>
      <trkpt lat="40.813512" lon="-3.835534">
        <ele>2080.9</ele>
        <time>2018-04-21T07:08:27.000Z</time>
      </trkpt>
      <trkpt lat="40.813505" lon="-3.835536">
        <ele>2081.0</ele>
        <time>2018-04-21T07:08:28.000Z</time>
      </trkpt>
      <trkpt lat="40.813501" lon="-3.835541">
        <ele>2081.0</ele>
        <time>2018-04-21T07:08:29.000Z</time>
      </trkpt>
      <trkpt lat="40.813498" lon="-3.835547">
        <ele>2081.0</ele>
        <time>2018-04-21T07:08:30.000Z</time>
      </trkpt>
      <trkpt lat="40.813497" lon="-3.835554">
        <ele>2081.0</ele>
        <time>2018-04-21T07:08:31.000Z</time>
      </trkpt>
      <trkpt lat="40.813495" lon="-3.835562">
        <ele>2081.1</ele>
        <time>2018-04-21T07:08:32.000Z</time>
      </trkpt>
      <trkpt lat="40.813492" lon="-3.835568">
        <ele>2081.1</ele>
        <time>2018-04-21T07:08:33.000Z</time>
      </trkpt>
      <trkpt lat="40.813486" lon="-3.835572">
        <ele>2081.2</ele>
        <time>2018-04-21T07:08:34.000Z</time>
      </trkpt>
      <trkpt lat="40.81348" lon="-3.835575">
        <ele>2081.3</ele>
        <time>2018-04-21T07:08:35.000Z</time>
      </trkpt>
      <trkpt lat="40.813473" lon="-3.835578">
        <ele>2081.3</ele>
        <time>2018-04-21T07:08:36.000Z</time>
      </trkpt>
      <trkpt lat="40.813467" lon="-3.83558">
        <ele>2081.4</ele>
        <time>2018-04-21T07:08:37.000Z</time>
      </trkpt>
      <trkpt lat="40.813464" lon="-3.835581">
        <ele>2081.5</ele>
        <time>2018-04-21T07:08:38.000Z</time>
      </trkpt>
      <trkpt lat="40.813463" lon="-3.835583">
        <ele>2081.5</ele>
        <time>2018-04-21T07:08:39.000Z</time>
      </trkpt>
      <trkpt lat="40.813462" lon="-3.835586">
        <ele>2081.5</ele>
        <time>2018-04-21T07:08:40.000Z</time>
      </trkpt>
      <trkpt lat="40.813462" lon="-3.835588">
        <ele>2081.5</ele>
        <time>2018-04-21T07:08:41.000Z</time>
      </trkpt>
      <trkpt lat="40.813461" lon="-3.83559">
        <ele>2081.5</ele>
        <time>2018-04-21T07:08:42.000Z</time>
      </trkpt>
      <trkpt lat="40.813459" lon="-3.835593">
        <ele>2081.5</ele>
        <time>2018-04-21T07:08:43.000Z</time>
      </trkpt>
      <trkpt lat="40.813456" lon="-3.835596">
        <ele>2081.6</ele>
        <time>2018-04-21T07:08:44.000Z</time>
      </trkpt>
      <trkpt lat="40.813452" lon="-3.8356">
        <ele>2081.6</ele>
        <time>2018-04-21T07:08:45.000Z</time>
      </trkpt>
      <trkpt lat="40.813448" lon="-3.835603">
        <ele>2081.7</ele>
        <time>2018-04-21T07:08:46.000Z</time>
      </trkpt>
      <trkpt lat="40.813444" lon="-3.835608">
        <ele>2081.7</ele>
        <time>2018-04-21T07:08:47.000Z</time>
      </trkpt>
      <trkpt lat="40.81344" lon="-3.835613">
        <ele>2081.8</ele>
        <time>2018-04-21T07:08:48.000Z</time>
      </trkpt>
      <trkpt lat="40.813436" lon="-3.835618">
        <ele>2081.8</ele>
        <time>2018-04-21T07:08:49.000Z</time>
      </trkpt>
      <trkpt lat="40.813432" lon="-3.835624">
        <ele>2081.9</ele>
        <time>2018-04-21T07:08:50.000Z</time>
      </trkpt>
      <trkpt lat="40.813429" lon="-3.83563">
        <ele>2081.9</ele>
        <time>2018-04-21T07:08:51.000Z</time>
      </trkpt>
      <trkpt lat="40.813425" lon="-3.835637">
        <ele>2081.9</ele>
        <time>2018-04-21T07:08:52.000Z</time>
      </trkpt>
      <trkpt lat="40.813422" lon="-3.835644">
        <ele>2082.0</ele>
        <time>2018-04-21T07:08:53.000Z</time>
      </trkpt>
      <trkpt lat="40.813419" lon="-3.835652">
        <ele>2082.0</ele>
        <time>2018-04-21T07:08:54.000Z</time>
      </trkpt>
      <trkpt lat="40.813416" lon="-3.83566">
        <ele>2082.0</ele>
        <time>2018-04-21T07:08:55.000Z</time>
      </trkpt>
      <trkpt lat="40.813414" lon="-3.835668">
        <ele>2082.1</ele>
        <time>2018-04-21T07:08:56.000Z</time>
      </trkpt>
      <trkpt lat="40.813411" lon="-3.835677">
        <ele>2082.1</ele>
        <time>2018-04-21T07:08:57.000Z</time>
      </trkpt>
      <trkpt lat="40.813409" lon="-3.835687">
        <ele>2082.1</ele>
        <time>2018-04-21T07:08:58.000Z</time>
      </trkpt>
      <trkpt lat="40.813407" lon="-3.835696">
        <ele>2082.1</ele>
        <time>2018-04-21T07:08:59.000Z</time>
      </trkpt>
      <trkpt lat="40.813405" lon="-3.835707">
        <ele>2082.1</ele>
        <time>2018-04-21T07:09:00.000Z</time>
      </trkpt>
      <trkpt lat="40.813403" lon="-3.835717">
        <ele>2082.1</ele>
        <time>2018-04-21T07:09:01.000Z</time>
      </trkpt>
      <trkpt lat="40.813402" lon="-3.835728">
        <ele>2082.1</ele>
        <time>2018-04-21T07:09:02.000Z</time>
      </trkpt>
      <trkpt lat="40.8134" lon="-3.83574">
        <ele>2082.2</ele>
        <time>2018-04-21T07:09:03.000Z</time>
      </trkpt>
      <trkpt lat="40.813399" lon="-3.835752">
        <ele>2082.2</ele>
        <time>2018-04-21T07:09:04.000Z</time>
      </trkpt>
      <trkpt lat="40.813398" lon="-3.835764">
        <ele>2082.2</ele>
        <time>2018-04-21T07:09:05.000Z</time>
      </trkpt>
      <trkpt lat="40.813397" lon="-3.835777">
        <ele>2082.2</ele>
        <time>2018-04-21T07:09:06.000Z</time>
      </trkpt>
      <trkpt lat="40.813396" lon="-3.83579">
        <ele>2082.2</ele>
        <time>2018-04-21T07:09:07.000Z</time>
      </trkpt>
      <trkpt lat="40.813395" lon="-3.835803">
        <ele>2082.2</ele>
        <time>2018-04-21T07:09:08.000Z</time>
      </trkpt>
      <trkpt lat="40.813393" lon="-3.835816">
        <ele>2082.2</ele>
        <time>2018-04-21T07:09:09.000Z</time>
      </trkpt>
      <trkpt lat="40.813392" lon="-3.835829">
        <ele>2082.2</ele>
        <time>2018-04-21T07:09:10.000Z</time>
      </trkpt>
      <trkpt lat="40.813389" lon="-3.835842">
        <ele>2082.1</ele>
        <time>2018-04-21T07:09:11.000Z</time>
      </trkpt>
      <trkpt lat="40.813387" lon="-3.835855">
        <ele>2082.0</ele>
        <time>2018-04-21T07:09:12.000Z</time>
      </trkpt>
      <trkpt lat="40.813383" lon="-3.835867">
        <ele>2081.9</ele>
        <time>2018-04-21T07:09:13.000Z</time>
      </trkpt>
      <trkpt lat="40.813379" lon="-3.835878">
        <ele>2081.8</ele>
        <time>2018-04-21T07:09:14.000Z</time>
      </trkpt>
      <trkpt lat="40.813374" lon="-3.83589">
        <ele>2081.7</ele>
        <time>2018-04-21T07:09:15.000Z</time>
      </trkpt>
      <trkpt lat="40.813369" lon="-3.835901">
        <ele>2081.7</ele>
        <time>2018-04-21T07:09:16.000Z</time>
      </trkpt>
      <trkpt lat="40.813364" lon="-3.835912">
        <ele>2081.6</ele>
        <time>2018-04-21T07:09:17.000Z</time>
      </trkpt>
      <trkpt lat="40.813358" lon="-3.835923">
        <ele>2081.5</ele>
        <time>2018-04-21T07:09:18.000Z</time>
      </trkpt>
      <trkpt lat="40.813352" lon="-3.835934">
        <ele>2081.5</ele>
        <time>2018-04-21T07:09:19.000Z</time>
      </trkpt>
      <trkpt lat="40.813346" lon="-3.835945">
        <ele>2081.5</ele>
        <time>2018-04-21T07:09:20.000Z</time>
      </trkpt>
      <trkpt lat="40.813341" lon="-3.835957">
        <ele>2081.4</ele>
        <time>2018-04-21T07:09:21.000Z</time>
      </trkpt>
      <trkpt lat="40.813336" lon="-3.835969">
        <ele>2081.3</ele>
        <time>2018-04-21T07:09:22.000Z</time>
      </trkpt>
      <trkpt lat="40.813331" lon="-3.835981">
        <ele>2081.2</ele>
        <time>2018-04-21T07:09:23.000Z</time>
      </trkpt>
      <trkpt lat="40.813327" lon="-3.835994">
        <ele>2080.9</ele>
        <time>2018-04-21T07:09:24.000Z</time>
      </trkpt>
      <trkpt lat="40.813323" lon="-3.836007">
        <ele>2080.6</ele>
        <time>2018-04-21T07:09:25.000Z</time>
      </trkpt>
      <trkpt lat="40.813319" lon="-3.836021">
        <ele>2080.3</ele>
        <time>2018-04-21T07:09:26.000Z</time>
      </trkpt>
      <trkpt lat="40.813315" lon="-3.836034">
        <ele>2080.0</ele>
        <time>2018-04-21T07:09:27.000Z</time>
      </trkpt>
      <trkpt lat="40.813312" lon="-3.836046">
        <ele>2079.8</ele>
        <time>2018-04-21T07:09:28.000Z</time>
      </trkpt>
      <trkpt lat="40.813308" lon="-3.836058">
        <ele>2079.5</ele>
        <time>2018-04-21T07:09:29.000Z</time>
      </trkpt>
      <trkpt lat="40.813304" lon="-3.836069">
        <ele>2079.2</ele>
        <time>2018-04-21T07:09:30.000Z</time>
      </trkpt>
      <trkpt lat="40.8133" lon="-3.836079">
        <ele>2079.0</ele>
        <time>2018-04-21T07:09:31.000Z</time>
      </trkpt>
      <trkpt lat="40.813296" lon="-3.836088">
        <ele>2078.8</ele>
        <time>2018-04-21T07:09:32.000Z</time>
      </trkpt>
      <trkpt lat="40.813292" lon="-3.836096">
        <ele>2078.5</ele>
        <time>2018-04-21T07:09:33.000Z</time>
      </trkpt>
      <trkpt lat="40.813287" lon="-3.836102">
        <ele>2078.3</ele>
        <time>2018-04-21T07:09:34.000Z</time>
      </trkpt>
      <trkpt lat="40.813282" lon="-3.836108">
        <ele>2078.1</ele>
        <time>2018-04-21T07:09:35.000Z</time>
      </trkpt>
      <trkpt lat="40.813278" lon="-3.836114">
        <ele>2077.9</ele>
        <time>2018-04-21T07:09:36.000Z</time>
      </trkpt>
      <trkpt lat="40.813273" lon="-3.836119">
        <ele>2077.7</ele>
        <time>2018-04-21T07:09:37.000Z</time>
      </trkpt>
      <trkpt lat="40.813269" lon="-3.836124">
        <ele>2077.5</ele>
        <time>2018-04-21T07:09:38.000Z</time>
      </trkpt>
      <trkpt lat="40.813264" lon="-3.836129">
        <ele>2077.3</ele>
        <time>2018-04-21T07:09:39.000Z</time>
      </trkpt>
      <trkpt lat="40.81326" lon="-3.836134">
        <ele>2077.1</ele>
        <time>2018-04-21T07:09:40.000Z</time>
      </trkpt>
      <trkpt lat="40.813257" lon="-3.836139">
        <ele>2076.9</ele>
        <time>2018-04-21T07:09:41.000Z</time>
      </trkpt>
      <trkpt lat="40.813253" lon="-3.836144">
        <ele>2076.8</ele>
        <time>2018-04-21T07:09:42.000Z</time>
      </trkpt>
      <trkpt lat="40.81325" lon="-3.836149">
        <ele>2076.6</ele>
        <time>2018-04-21T07:09:43.000Z</time>
      </trkpt>
      <trkpt lat="40.813248" lon="-3.836155">
        <ele>2076.5</ele>
        <time>2018-04-21T07:09:44.000Z</time>
      </trkpt>
      <trkpt lat="40.813245" lon="-3.83616">
        <ele>2076.3</ele>
        <time>2018-04-21T07:09:45.000Z</time>
      </trkpt>
      <trkpt lat="40.813243" lon="-3.836164">
        <ele>2076.2</ele>
        <time>2018-04-21T07:09:46.000Z</time>
      </trkpt>
      <trkpt lat="40.813242" lon="-3.836169">
        <ele>2076.1</ele>
        <time>2018-04-21T07:09:47.000Z</time>
      </trkpt>
      <trkpt lat="40.81324" lon="-3.836172">
        <ele>2076.1</ele>
        <time>2018-04-21T07:09:48.000Z</time>
      </trkpt>
      <trkpt lat="40.813239" lon="-3.836175">
        <ele>2076.0</ele>
        <time>2018-04-21T07:09:49.000Z</time>
      </trkpt>
      <trkpt lat="40.813238" lon="-3.836178">
        <ele>2075.9</ele>
        <time>2018-04-21T07:09:50.000Z</time>
      </trkpt>
      <trkpt lat="40.813238" lon="-3.836179">
        <ele>2075.9</ele>
        <time>2018-04-21T07:09:51.000Z</time>
      </trkpt>
      <trkpt lat="40.813238" lon="-3.836181">
        <ele>2075.9</ele>
        <time>2018-04-21T07:09:52.000Z</time>
      </trkpt>
      <trkpt lat="40.813237" lon="-3.836182">
        <ele>2075.9</ele>
        <time>2018-04-21T07:09:53.000Z</time>
      </trkpt>
      <trkpt lat="40.813237" lon="-3.836183">
        <ele>2075.8</ele>
        <time>2018-04-21T07:09:54.000Z</time>
      </trkpt>
      <trkpt lat="40.813237" lon="-3.836184">
        <ele>2075.8</ele>
        <time>2018-04-21T07:09:55.000Z</time>
      </trkpt>
      <trkpt lat="40.813237" lon="-3.836185">
        <ele>2075.8</ele>
        <time>2018-04-21T07:09:56.000Z</time>
      </trkpt>
      <trkpt lat="40.813237" lon="-3.836186">
        <ele>2075.8</ele>
        <time>2018-04-21T07:09:57.000Z</time>
      </trkpt>
      <trkpt lat="40.813237" lon="-3.836187">
        <ele>2075.8</ele>
        <time>2018-04-21T07:09:58.000Z</time>
      </trkpt>
      <trkpt lat="40.813236" lon="-3.836187">
        <ele>2075.8</ele>
        <time>2018-04-21T07:09:59.000Z</time>
      </trkpt>
      <trkpt lat="40.813235" lon="-3.836186">
        <ele>2075.7</ele>
        <time>2018-04-21T07:10:00.000Z</time>
      </trkpt>
      <trkpt lat="40.813233" lon="-3.836185">
        <ele>2075.7</ele>
        <time>2018-04-21T07:10:01.000Z</time>
      </trkpt>
      <trkpt lat="40.813231" lon="-3.836184">
        <ele>2075.6</ele>
        <time>2018-04-21T07:10:02.000Z</time>
      </trkpt>
      <trkpt lat="40.813228" lon="-3.836183">
        <ele>2075.6</ele>
        <time>2018-04-21T07:10:03.000Z</time>
      </trkpt>
      <trkpt lat="40.813225" lon="-3.836182">
        <ele>2075.5</ele>
        <time>2018-04-21T07:10:04.000Z</time>
      </trkpt>
      <trkpt lat="40.813221" lon="-3.836181">
        <ele>2075.4</ele>
        <time>2018-04-21T07:10:05.000Z</time>
      </trkpt>
      <trkpt lat="40.813217" lon="-3.836181">
        <ele>2075.2</ele>
        <time>2018-04-21T07:10:06.000Z</time>
      </trkpt>
      <trkpt lat="40.813213" lon="-3.836182">
        <ele>2075.1</ele>
        <time>2018-04-21T07:10:07.000Z</time>
      </trkpt>
      <trkpt lat="40.813209" lon="-3.836185">
        <ele>2075.0</ele>
        <time>2018-04-21T07:10:08.000Z</time>
      </trkpt>
      <trkpt lat="40.813204" lon="-3.836188">
        <ele>2074.8</ele>
        <time>2018-04-21T07:10:09.000Z</time>
      </trkpt>
      <trkpt lat="40.8132" lon="-3.836192">
        <ele>2074.6</ele>
        <time>2018-04-21T07:10:10.000Z</time>
      </trkpt>
      <trkpt lat="40.813197" lon="-3.836196">
        <ele>2074.5</ele>
        <time>2018-04-21T07:10:11.000Z</time>
      </trkpt>
      <trkpt lat="40.813193" lon="-3.836201">
        <ele>2074.3</ele>
        <time>2018-04-21T07:10:12.000Z</time>
      </trkpt>
      <trkpt lat="40.813189" lon="-3.836205">
        <ele>2074.1</ele>
        <time>2018-04-21T07:10:13.000Z</time>
      </trkpt>
      <trkpt lat="40.813186" lon="-3.836208">
        <ele>2074.0</ele>
        <time>2018-04-21T07:10:14.000Z</time>
      </trkpt>
      <trkpt lat="40.813183" lon="-3.836212">
        <ele>2073.9</ele>
        <time>2018-04-21T07:10:15.000Z</time>
      </trkpt>
      <trkpt lat="40.813181" lon="-3.836215">
        <ele>2073.8</ele>
        <time>2018-04-21T07:10:16.000Z</time>
      </trkpt>
      <trkpt lat="40.813179" lon="-3.836219">
        <ele>2073.7</ele>
        <time>2018-04-21T07:10:17.000Z</time>
      </trkpt>
      <trkpt lat="40.813178" lon="-3.836224">
        <ele>2073.6</ele>
        <time>2018-04-21T07:10:18.000Z</time>
      </trkpt>
      <trkpt lat="40.813178" lon="-3.836228">
        <ele>2073.6</ele>
        <time>2018-04-21T07:10:19.000Z</time>
      </trkpt>
      <trkpt lat="40.813178" lon="-3.836232">
        <ele>2073.5</ele>
        <time>2018-04-21T07:10:20.000Z</time>
      </trkpt>
      <trkpt lat="40.813178" lon="-3.836236">
        <ele>2073.5</ele>
        <time>2018-04-21T07:10:21.000Z</time>
      </trkpt>
      <trkpt lat="40.813178" lon="-3.83624">
        <ele>2073.4</ele>
        <time>2018-04-21T07:10:22.000Z</time>
      </trkpt>
      <trkpt lat="40.813179" lon="-3.836244">
        <ele>2073.4</ele>
        <time>2018-04-21T07:10:23.000Z</time>
      </trkpt>
      <trkpt lat="40.813179" lon="-3.836246">
        <ele>2073.4</ele>
        <time>2018-04-21T07:10:24.000Z</time>
      </trkpt>
      <trkpt lat="40.81318" lon="-3.836248">
        <ele>2073.4</ele>
        <time>2018-04-21T07:10:25.000Z</time>
      </trkpt>
      <trkpt lat="40.81318" lon="-3.83625">
        <ele>2073.4</ele>
        <time>2018-04-21T07:10:26.000Z</time>
      </trkpt>
      <trkpt lat="40.81318" lon="-3.836251">
        <ele>2073.4</ele>
        <time>2018-04-21T07:10:27.000Z</time>
      </trkpt>
      <trkpt lat="40.81318" lon="-3.836251">
        <ele>2073.4</ele>
        <time>2018-04-21T07:10:28.000Z</time>
      </trkpt>
      <trkpt lat="40.81318" lon="-3.836251">
        <ele>2073.4</ele>
        <time>2018-04-21T07:10:29.000Z</time>
      </trkpt>
      <trkpt lat="40.81318" lon="-3.836251">
        <ele>2073.4</ele>
        <time>2018-04-21T07:10:30.000Z</time>
      </trkpt>
      <trkpt lat="40.81318" lon="-3.836251">
        <ele>2073.4</ele>
        <time>2018-04-21T07:10:31.000Z</time>
      </trkpt>
      <trkpt lat="40.81318" lon="-3.836251">
        <ele>2073.4</ele>
        <time>2018-04-21T07:10:32.000Z</time>
      </trkpt>
      <trkpt lat="40.81318" lon="-3.836253">
        <ele>2073.4</ele>
        <time>2018-04-21T07:10:33.000Z</time>
      </trkpt>
      <trkpt lat="40.813179" lon="-3.836256">
        <ele>2073.3</ele>
        <time>2018-04-21T07:10:34.000Z</time>
      </trkpt>
      <trkpt lat="40.813178" lon="-3.836261">
        <ele>2073.2</ele>
        <time>2018-04-21T07:10:35.000Z</time>
      </trkpt>
      <trkpt lat="40.813175" lon="-3.836266">
        <ele>2073.1</ele>
        <time>2018-04-21T07:10:36.000Z</time>
      </trkpt>
      <trkpt lat="40.813169" lon="-3.836272">
        <ele>2072.8</ele>
        <time>2018-04-21T07:10:37.000Z</time>
      </trkpt>
      <trkpt lat="40.813163" lon="-3.836281">
        <ele>2072.6</ele>
        <time>2018-04-21T07:10:38.000Z</time>
      </trkpt>
      <trkpt lat="40.813158" lon="-3.836293">
        <ele>2072.3</ele>
        <time>2018-04-21T07:10:39.000Z</time>
      </trkpt>
      <trkpt lat="40.813158" lon="-3.836304">
        <ele>2072.2</ele>
        <time>2018-04-21T07:10:40.000Z</time>
      </trkpt>
      <trkpt lat="40.813161" lon="-3.836314">
        <ele>2072.2</ele>
        <time>2018-04-21T07:10:41.000Z</time>
      </trkpt>
      <trkpt lat="40.813165" lon="-3.836323">
        <ele>2072.2</ele>
        <time>2018-04-21T07:10:42.000Z</time>
      </trkpt>
      <trkpt lat="40.81317" lon="-3.836332">
        <ele>2072.3</ele>
        <time>2018-04-21T07:10:43.000Z</time>
      </trkpt>
      <trkpt lat="40.813174" lon="-3.83634">
        <ele>2072.3</ele>
        <time>2018-04-21T07:10:44.000Z</time>
      </trkpt>
      <trkpt lat="40.813176" lon="-3.836348">
        <ele>2072.3</ele>
        <time>2018-04-21T07:10:45.000Z</time>
      </trkpt>
      <trkpt lat="40.813177" lon="-3.836356">
        <ele>2072.2</ele>
        <time>2018-04-21T07:10:46.000Z</time>
      </trkpt>
      <trkpt lat="40.813177" lon="-3.836364">
        <ele>2072.1</ele>
        <time>2018-04-21T07:10:47.000Z</time>
      </trkpt>
      <trkpt lat="40.813176" lon="-3.836372">
        <ele>2072.0</ele>
        <time>2018-04-21T07:10:48.000Z</time>
      </trkpt>
      <trkpt lat="40.813174" lon="-3.836379">
        <ele>2071.9</ele>
        <time>2018-04-21T07:10:49.000Z</time>
      </trkpt>
      <trkpt lat="40.813171" lon="-3.836387">
        <ele>2071.7</ele>
        <time>2018-04-21T07:10:50.000Z</time>
      </trkpt>
      <trkpt lat="40.813168" lon="-3.836394">
        <ele>2071.6</ele>
        <time>2018-04-21T07:10:51.000Z</time>
      </trkpt>
      <trkpt lat="40.813164" lon="-3.836402">
        <ele>2071.4</ele>
        <time>2018-04-21T07:10:52.000Z</time>
      </trkpt>
      <trkpt lat="40.81316" lon="-3.836409">
        <ele>2071.2</ele>
        <time>2018-04-21T07:10:53.000Z</time>
      </trkpt>
      <trkpt lat="40.813156" lon="-3.836416">
        <ele>2071.0</ele>
        <time>2018-04-21T07:10:54.000Z</time>
      </trkpt>
      <trkpt lat="40.813151" lon="-3.836423">
        <ele>2070.8</ele>
        <time>2018-04-21T07:10:55.000Z</time>
      </trkpt>
      <trkpt lat="40.813147" lon="-3.83643">
        <ele>2070.6</ele>
        <time>2018-04-21T07:10:56.000Z</time>
      </trkpt>
      <trkpt lat="40.813142" lon="-3.836436">
        <ele>2070.4</ele>
        <time>2018-04-21T07:10:57.000Z</time>
      </trkpt>
      <trkpt lat="40.813137" lon="-3.836443">
        <ele>2070.2</ele>
        <time>2018-04-21T07:10:58.000Z</time>
      </trkpt>
      <trkpt lat="40.813132" lon="-3.836449">
        <ele>2070.0</ele>
        <time>2018-04-21T07:10:59.000Z</time>
      </trkpt>
      <trkpt lat="40.813126" lon="-3.836455">
        <ele>2069.8</ele>
        <time>2018-04-21T07:11:00.000Z</time>
      </trkpt>
      <trkpt lat="40.813121" lon="-3.836462">
        <ele>2069.6</ele>
        <time>2018-04-21T07:11:01.000Z</time>
      </trkpt>
      <trkpt lat="40.813116" lon="-3.836468">
        <ele>2069.4</ele>
        <time>2018-04-21T07:11:02.000Z</time>
      </trkpt>
      <trkpt lat="40.813111" lon="-3.836474">
        <ele>2069.2</ele>
        <time>2018-04-21T07:11:03.000Z</time>
      </trkpt>
      <trkpt lat="40.813105" lon="-3.83648">
        <ele>2069.0</ele>
        <time>2018-04-21T07:11:04.000Z</time>
      </trkpt>
      <trkpt lat="40.813101" lon="-3.836486">
        <ele>2068.8</ele>
        <time>2018-04-21T07:11:05.000Z</time>
      </trkpt>
      <trkpt lat="40.813096" lon="-3.836492">
        <ele>2068.6</ele>
        <time>2018-04-21T07:11:06.000Z</time>
      </trkpt>
      <trkpt lat="40.813091" lon="-3.836498">
        <ele>2068.4</ele>
        <time>2018-04-21T07:11:07.000Z</time>
      </trkpt>
      <trkpt lat="40.813087" lon="-3.836504">
        <ele>2068.3</ele>
        <time>2018-04-21T07:11:08.000Z</time>
      </trkpt>
      <trkpt lat="40.813084" lon="-3.836511">
        <ele>2068.1</ele>
        <time>2018-04-21T07:11:09.000Z</time>
      </trkpt>
      <trkpt lat="40.81308" lon="-3.836518">
        <ele>2068.0</ele>
        <time>2018-04-21T07:11:10.000Z</time>
      </trkpt>
      <trkpt lat="40.813077" lon="-3.836525">
        <ele>2067.8</ele>
        <time>2018-04-21T07:11:11.000Z</time>
      </trkpt>
      <trkpt lat="40.813075" lon="-3.836533">
        <ele>2067.7</ele>
        <time>2018-04-21T07:11:12.000Z</time>
      </trkpt>
      <trkpt lat="40.813073" lon="-3.836541">
        <ele>2067.6</ele>
        <time>2018-04-21T07:11:13.000Z</time>
      </trkpt>
      <trkpt lat="40.813071" lon="-3.836549">
        <ele>2067.4</ele>
        <time>2018-04-21T07:11:14.000Z</time>
      </trkpt>
      <trkpt lat="40.81307" lon="-3.836558">
        <ele>2067.3</ele>
        <time>2018-04-21T07:11:15.000Z</time>
      </trkpt>
      <trkpt lat="40.813069" lon="-3.836567">
        <ele>2067.2</ele>
        <time>2018-04-21T07:11:16.000Z</time>
      </trkpt>
      <trkpt lat="40.813068" lon="-3.836576">
        <ele>2067.1</ele>
        <time>2018-04-21T07:11:17.000Z</time>
      </trkpt>
      <trkpt lat="40.813067" lon="-3.836586">
        <ele>2067.0</ele>
        <time>2018-04-21T07:11:18.000Z</time>
      </trkpt>
      <trkpt lat="40.813066" lon="-3.836595">
        <ele>2066.9</ele>
        <time>2018-04-21T07:11:19.000Z</time>
      </trkpt>
      <trkpt lat="40.813065" lon="-3.836605">
        <ele>2066.8</ele>
        <time>2018-04-21T07:11:20.000Z</time>
      </trkpt>
      <trkpt lat="40.813064" lon="-3.836615">
        <ele>2066.7</ele>
        <time>2018-04-21T07:11:21.000Z</time>
      </trkpt>
      <trkpt lat="40.813063" lon="-3.836626">
        <ele>2066.5</ele>
        <time>2018-04-21T07:11:22.000Z</time>
      </trkpt>
      <trkpt lat="40.813061" lon="-3.836636">
        <ele>2066.4</ele>
        <time>2018-04-21T07:11:23.000Z</time>
      </trkpt>
      <trkpt lat="40.81306" lon="-3.836647">
        <ele>2066.3</ele>
        <time>2018-04-21T07:11:24.000Z</time>
      </trkpt>
      <trkpt lat="40.813057" lon="-3.836658">
        <ele>2066.1</ele>
        <time>2018-04-21T07:11:25.000Z</time>
      </trkpt>
      <trkpt lat="40.813055" lon="-3.836669">
        <ele>2066.0</ele>
        <time>2018-04-21T07:11:26.000Z</time>
      </trkpt>
      <trkpt lat="40.813052" lon="-3.83668">
        <ele>2065.8</ele>
        <time>2018-04-21T07:11:27.000Z</time>
      </trkpt>
      <trkpt lat="40.813049" lon="-3.836692">
        <ele>2065.7</ele>
        <time>2018-04-21T07:11:28.000Z</time>
      </trkpt>
      <trkpt lat="40.813045" lon="-3.836703">
        <ele>2065.5</ele>
        <time>2018-04-21T07:11:29.000Z</time>
      </trkpt>
      <trkpt lat="40.813041" lon="-3.836715">
        <ele>2065.3</ele>
        <time>2018-04-21T07:11:30.000Z</time>
      </trkpt>
      <trkpt lat="40.813036" lon="-3.836727">
        <ele>2065.1</ele>
        <time>2018-04-21T07:11:31.000Z</time>
      </trkpt>
      <trkpt lat="40.813031" lon="-3.836738">
        <ele>2064.9</ele>
        <time>2018-04-21T07:11:32.000Z</time>
      </trkpt>
      <trkpt lat="40.813027" lon="-3.836751">
        <ele>2064.8</ele>
        <time>2018-04-21T07:11:33.000Z</time>
      </trkpt>
      <trkpt lat="40.813023" lon="-3.836763">
        <ele>2064.6</ele>
        <time>2018-04-21T07:11:34.000Z</time>
      </trkpt>
      <trkpt lat="40.813019" lon="-3.836775">
        <ele>2064.5</ele>
        <time>2018-04-21T07:11:35.000Z</time>
      </trkpt>
      <trkpt lat="40.813016" lon="-3.836788">
        <ele>2064.3</ele>
        <time>2018-04-21T07:11:36.000Z</time>
      </trkpt>
      <trkpt lat="40.813013" lon="-3.836801">
        <ele>2064.2</ele>
        <time>2018-04-21T07:11:37.000Z</time>
      </trkpt>
      <trkpt lat="40.813012" lon="-3.836814">
        <ele>2064.1</ele>
        <time>2018-04-21T07:11:38.000Z</time>
      </trkpt>
      <trkpt lat="40.813011" lon="-3.836827">
        <ele>2064.0</ele>
        <time>2018-04-21T07:11:39.000Z</time>
      </trkpt>
      <trkpt lat="40.813012" lon="-3.836839">
        <ele>2063.9</ele>
        <time>2018-04-21T07:11:40.000Z</time>
      </trkpt>
      <trkpt lat="40.813013" lon="-3.836851">
        <ele>2063.9</ele>
        <time>2018-04-21T07:11:41.000Z</time>
      </trkpt>
      <trkpt lat="40.813016" lon="-3.836861">
        <ele>2063.9</ele>
        <time>2018-04-21T07:11:42.000Z</time>
      </trkpt>
      <trkpt lat="40.81302" lon="-3.83687">
        <ele>2063.9</ele>
        <time>2018-04-21T07:11:43.000Z</time>
      </trkpt>
      <trkpt lat="40.813024" lon="-3.836877">
        <ele>2064.0</ele>
        <time>2018-04-21T07:11:44.000Z</time>
      </trkpt>
      <trkpt lat="40.813028" lon="-3.836884">
        <ele>2064.0</ele>
        <time>2018-04-21T07:11:45.000Z</time>
      </trkpt>
      <trkpt lat="40.813031" lon="-3.836892">
        <ele>2064.0</ele>
        <time>2018-04-21T07:11:46.000Z</time>
      </trkpt>
      <trkpt lat="40.813032" lon="-3.836901">
        <ele>2064.0</ele>
        <time>2018-04-21T07:11:47.000Z</time>
      </trkpt>
      <trkpt lat="40.813031" lon="-3.83691">
        <ele>2063.9</ele>
        <time>2018-04-21T07:11:48.000Z</time>
      </trkpt>
      <trkpt lat="40.813029" lon="-3.836921">
        <ele>2063.8</ele>
        <time>2018-04-21T07:11:49.000Z</time>
      </trkpt>
      <trkpt lat="40.813025" lon="-3.836932">
        <ele>2063.6</ele>
        <time>2018-04-21T07:11:50.000Z</time>
      </trkpt>
      <trkpt lat="40.81302" lon="-3.836943">
        <ele>2063.5</ele>
        <time>2018-04-21T07:11:51.000Z</time>
      </trkpt>
      <trkpt lat="40.813015" lon="-3.836955">
        <ele>2063.3</ele>
        <time>2018-04-21T07:11:52.000Z</time>
      </trkpt>
      <trkpt lat="40.81301" lon="-3.836967">
        <ele>2063.2</ele>
        <time>2018-04-21T07:11:53.000Z</time>
      </trkpt>
      <trkpt lat="40.813004" lon="-3.836979">
        <ele>2063.0</ele>
        <time>2018-04-21T07:11:54.000Z</time>
      </trkpt>
      <trkpt lat="40.812998" lon="-3.836991">
        <ele>2062.9</ele>
        <time>2018-04-21T07:11:55.000Z</time>
      </trkpt>
      <trkpt lat="40.812993" lon="-3.837003">
        <ele>2062.7</ele>
        <time>2018-04-21T07:11:56.000Z</time>
      </trkpt>
      <trkpt lat="40.812988" lon="-3.837015">
        <ele>2062.6</ele>
        <time>2018-04-21T07:11:57.000Z</time>
      </trkpt>
      <trkpt lat="40.812983" lon="-3.837026">
        <ele>2062.4</ele>
        <time>2018-04-21T07:11:58.000Z</time>
      </trkpt>
      <trkpt lat="40.812978" lon="-3.837038">
        <ele>2062.3</ele>
        <time>2018-04-21T07:11:59.000Z</time>
      </trkpt>
      <trkpt lat="40.812974" lon="-3.83705">
        <ele>2062.2</ele>
        <time>2018-04-21T07:12:00.000Z</time>
      </trkpt>
      <trkpt lat="40.812969" lon="-3.837062">
        <ele>2062.1</ele>
        <time>2018-04-21T07:12:01.000Z</time>
      </trkpt>
      <trkpt lat="40.812964" lon="-3.837075">
        <ele>2061.9</ele>
        <time>2018-04-21T07:12:02.000Z</time>
      </trkpt>
      <trkpt lat="40.812959" lon="-3.837086">
        <ele>2061.8</ele>
        <time>2018-04-21T07:12:03.000Z</time>
      </trkpt>
      <trkpt lat="40.812955" lon="-3.837096">
        <ele>2061.7</ele>
        <time>2018-04-21T07:12:04.000Z</time>
      </trkpt>
      <trkpt lat="40.81295" lon="-3.837105">
        <ele>2061.6</ele>
        <time>2018-04-21T07:12:05.000Z</time>
      </trkpt>
      <trkpt lat="40.812945" lon="-3.837112">
        <ele>2061.5</ele>
        <time>2018-04-21T07:12:06.000Z</time>
      </trkpt>
      <trkpt lat="40.812941" lon="-3.837117">
        <ele>2061.5</ele>
        <time>2018-04-21T07:12:07.000Z</time>
      </trkpt>
      <trkpt lat="40.812936" lon="-3.837122">
        <ele>2061.4</ele>
        <time>2018-04-21T07:12:08.000Z</time>
      </trkpt>
      <trkpt lat="40.812931" lon="-3.837126">
        <ele>2061.3</ele>
        <time>2018-04-21T07:12:09.000Z</time>
      </trkpt>
      <trkpt lat="40.812926" lon="-3.83713">
        <ele>2061.2</ele>
        <time>2018-04-21T07:12:10.000Z</time>
      </trkpt>
      <trkpt lat="40.812922" lon="-3.837133">
        <ele>2061.2</ele>
        <time>2018-04-21T07:12:11.000Z</time>
      </trkpt>
      <trkpt lat="40.812917" lon="-3.837137">
        <ele>2061.1</ele>
        <time>2018-04-21T07:12:12.000Z</time>
      </trkpt>
      <trkpt lat="40.812912" lon="-3.837141">
        <ele>2061.0</ele>
        <time>2018-04-21T07:12:13.000Z</time>
      </trkpt>
      <trkpt lat="40.812907" lon="-3.837147">
        <ele>2060.9</ele>
        <time>2018-04-21T07:12:14.000Z</time>
      </trkpt>
      <trkpt lat="40.812901" lon="-3.837153">
        <ele>2060.9</ele>
        <time>2018-04-21T07:12:15.000Z</time>
      </trkpt>
      <trkpt lat="40.812896" lon="-3.837159">
        <ele>2060.8</ele>
        <time>2018-04-21T07:12:16.000Z</time>
      </trkpt>
      <trkpt lat="40.812891" lon="-3.837166">
        <ele>2060.7</ele>
        <time>2018-04-21T07:12:17.000Z</time>
      </trkpt>
      <trkpt lat="40.812886" lon="-3.837173">
        <ele>2060.6</ele>
        <time>2018-04-21T07:12:18.000Z</time>
      </trkpt>
      <trkpt lat="40.81288" lon="-3.83718">
        <ele>2060.6</ele>
        <time>2018-04-21T07:12:19.000Z</time>
      </trkpt>
      <trkpt lat="40.812875" lon="-3.837187">
        <ele>2060.5</ele>
        <time>2018-04-21T07:12:20.000Z</time>
      </trkpt>
      <trkpt lat="40.81287" lon="-3.837194">
        <ele>2060.4</ele>
        <time>2018-04-21T07:12:21.000Z</time>
      </trkpt>
      <trkpt lat="40.812865" lon="-3.837201">
        <ele>2060.4</ele>
        <time>2018-04-21T07:12:22.000Z</time>
      </trkpt>
      <trkpt lat="40.81286" lon="-3.837207">
        <ele>2060.3</ele>
        <time>2018-04-21T07:12:23.000Z</time>
      </trkpt>
      <trkpt lat="40.812856" lon="-3.837213">
        <ele>2060.2</ele>
        <time>2018-04-21T07:12:24.000Z</time>
      </trkpt>
      <trkpt lat="40.812852" lon="-3.837217">
        <ele>2060.2</ele>
        <time>2018-04-21T07:12:25.000Z</time>
      </trkpt>
      <trkpt lat="40.812848" lon="-3.837222">
        <ele>2060.1</ele>
        <time>2018-04-21T07:12:26.000Z</time>
      </trkpt>
      <trkpt lat="40.812844" lon="-3.837226">
        <ele>2060.1</ele>
        <time>2018-04-21T07:12:27.000Z</time>
      </trkpt>
      <trkpt lat="40.812841" lon="-3.837229">
        <ele>2060.1</ele>
        <time>2018-04-21T07:12:28.000Z</time>
      </trkpt>
      <trkpt lat="40.812839" lon="-3.837231">
        <ele>2060.0</ele>
        <time>2018-04-21T07:12:29.000Z</time>
      </trkpt>
      <trkpt lat="40.812837" lon="-3.837233">
        <ele>2060.0</ele>
        <time>2018-04-21T07:12:30.000Z</time>
      </trkpt>
      <trkpt lat="40.812836" lon="-3.837234">
        <ele>2060.0</ele>
        <time>2018-04-21T07:12:31.000Z</time>
      </trkpt>
      <trkpt lat="40.812835" lon="-3.837235">
        <ele>2060.0</ele>
        <time>2018-04-21T07:12:32.000Z</time>
      </trkpt>
      <trkpt lat="40.812835" lon="-3.837235">
        <ele>2060.0</ele>
        <time>2018-04-21T07:12:33.000Z</time>
      </trkpt>
      <trkpt lat="40.812836" lon="-3.837234">
        <ele>2060.0</ele>
        <time>2018-04-21T07:12:34.000Z</time>
      </trkpt>
      <trkpt lat="40.812836" lon="-3.837234">
        <ele>2060.0</ele>
        <time>2018-04-21T07:12:35.000Z</time>
      </trkpt>
      <trkpt lat="40.812837" lon="-3.837233">
        <ele>2060.0</ele>
        <time>2018-04-21T07:12:36.000Z</time>
      </trkpt>
      <trkpt lat="40.812837" lon="-3.837233">
        <ele>2060.0</ele>
        <time>2018-04-21T07:12:37.000Z</time>
      </trkpt>
      <trkpt lat="40.812837" lon="-3.837233">
        <ele>2060.0</ele>
        <time>2018-04-21T07:12:38.000Z</time>
      </trkpt>
      <trkpt lat="40.812837" lon="-3.837234">
        <ele>2060.0</ele>
        <time>2018-04-21T07:12:39.000Z</time>
      </trkpt>
      <trkpt lat="40.812835" lon="-3.837235">
        <ele>2060.0</ele>
        <time>2018-04-21T07:12:40.000Z</time>
      </trkpt>
      <trkpt lat="40.812833" lon="-3.837237">
        <ele>2060.0</ele>
        <time>2018-04-21T07:12:41.000Z</time>
      </trkpt>
      <trkpt lat="40.81283" lon="-3.837239">
        <ele>2060.0</ele>
        <time>2018-04-21T07:12:42.000Z</time>
      </trkpt>
      <trkpt lat="40.812826" lon="-3.837243">
        <ele>2059.9</ele>
        <time>2018-04-21T07:12:43.000Z</time>
      </trkpt>
      <trkpt lat="40.812821" lon="-3.837246">
        <ele>2059.9</ele>
        <time>2018-04-21T07:12:44.000Z</time>
      </trkpt>
      <trkpt lat="40.812815" lon="-3.83725">
        <ele>2059.8</ele>
        <time>2018-04-21T07:12:45.000Z</time>
      </trkpt>
      <trkpt lat="40.812807" lon="-3.837254">
        <ele>2059.7</ele>
        <time>2018-04-21T07:12:46.000Z</time>
      </trkpt>
      <trkpt lat="40.812799" lon="-3.837257">
        <ele>2059.7</ele>
        <time>2018-04-21T07:12:47.000Z</time>
      </trkpt>
      <trkpt lat="40.812789" lon="-3.837261">
        <ele>2059.6</ele>
        <time>2018-04-21T07:12:48.000Z</time>
      </trkpt>
      <trkpt lat="40.812778" lon="-3.837264">
        <ele>2059.5</ele>
        <time>2018-04-21T07:12:49.000Z</time>
      </trkpt>
      <trkpt lat="40.812766" lon="-3.837266">
        <ele>2059.4</ele>
        <time>2018-04-21T07:12:50.000Z</time>
      </trkpt>
      <trkpt lat="40.812754" lon="-3.837268">
        <ele>2059.3</ele>
        <time>2018-04-21T07:12:51.000Z</time>
      </trkpt>
      <trkpt lat="40.812743" lon="-3.837271">
        <ele>2059.2</ele>
        <time>2018-04-21T07:12:52.000Z</time>
      </trkpt>
      <trkpt lat="40.812734" lon="-3.837275">
        <ele>2059.1</ele>
        <time>2018-04-21T07:12:53.000Z</time>
      </trkpt>
      <trkpt lat="40.812728" lon="-3.83728">
        <ele>2059.1</ele>
        <time>2018-04-21T07:12:54.000Z</time>
      </trkpt>
      <trkpt lat="40.812726" lon="-3.837288">
        <ele>2059.1</ele>
        <time>2018-04-21T07:12:55.000Z</time>
      </trkpt>
      <trkpt lat="40.812727" lon="-3.837297">
        <ele>2059.1</ele>
        <time>2018-04-21T07:12:56.000Z</time>
      </trkpt>
      <trkpt lat="40.812729" lon="-3.837307">
        <ele>2059.1</ele>
        <time>2018-04-21T07:12:57.000Z</time>
      </trkpt>
      <trkpt lat="40.81273" lon="-3.837318">
        <ele>2059.2</ele>
        <time>2018-04-21T07:12:58.000Z</time>
      </trkpt>
      <trkpt lat="40.812729" lon="-3.83733">
        <ele>2059.2</ele>
        <time>2018-04-21T07:12:59.000Z</time>
      </trkpt>
      <trkpt lat="40.812726" lon="-3.837342">
        <ele>2059.2</ele>
        <time>2018-04-21T07:13:00.000Z</time>
      </trkpt>
      <trkpt lat="40.812721" lon="-3.837354">
        <ele>2059.2</ele>
        <time>2018-04-21T07:13:01.000Z</time>
      </trkpt>
      <trkpt lat="40.812716" lon="-3.837367">
        <ele>2059.2</ele>
        <time>2018-04-21T07:13:02.000Z</time>
      </trkpt>
      <trkpt lat="40.81271" lon="-3.83738">
        <ele>2059.2</ele>
        <time>2018-04-21T07:13:03.000Z</time>
      </trkpt>
      <trkpt lat="40.812703" lon="-3.837393">
        <ele>2059.2</ele>
        <time>2018-04-21T07:13:04.000Z</time>
      </trkpt>
      <trkpt lat="40.812697" lon="-3.837406">
        <ele>2059.2</ele>
        <time>2018-04-21T07:13:05.000Z</time>
      </trkpt>
      <trkpt lat="40.812693" lon="-3.837419">
        <ele>2059.2</ele>
        <time>2018-04-21T07:13:06.000Z</time>
      </trkpt>
      <trkpt lat="40.812689" lon="-3.837431">
        <ele>2059.2</ele>
        <time>2018-04-21T07:13:07.000Z</time>
      </trkpt>
      <trkpt lat="40.812688" lon="-3.837444">
        <ele>2059.3</ele>
        <time>2018-04-21T07:13:08.000Z</time>
      </trkpt>
      <trkpt lat="40.812688" lon="-3.837457">
        <ele>2059.3</ele>
        <time>2018-04-21T07:13:09.000Z</time>
      </trkpt>
      <trkpt lat="40.81269" lon="-3.837469">
        <ele>2059.4</ele>
        <time>2018-04-21T07:13:10.000Z</time>
      </trkpt>
      <trkpt lat="40.812692" lon="-3.83748">
        <ele>2059.4</ele>
        <time>2018-04-21T07:13:11.000Z</time>
      </trkpt>
      <trkpt lat="40.812693" lon="-3.837491">
        <ele>2059.4</ele>
        <time>2018-04-21T07:13:12.000Z</time>
      </trkpt>
      <trkpt lat="40.812691" lon="-3.8375">
        <ele>2059.5</ele>
        <time>2018-04-21T07:13:13.000Z</time>
      </trkpt>
      <trkpt lat="40.812686" lon="-3.837508">
        <ele>2059.4</ele>
        <time>2018-04-21T07:13:14.000Z</time>
      </trkpt>
      <trkpt lat="40.812679" lon="-3.837516">
        <ele>2059.3</ele>
        <time>2018-04-21T07:13:15.000Z</time>
      </trkpt>
      <trkpt lat="40.812671" lon="-3.837522">
        <ele>2059.3</ele>
        <time>2018-04-21T07:13:16.000Z</time>
      </trkpt>
      <trkpt lat="40.812663" lon="-3.837529">
        <ele>2059.2</ele>
        <time>2018-04-21T07:13:17.000Z</time>
      </trkpt>
      <trkpt lat="40.812658" lon="-3.837537">
        <ele>2059.2</ele>
        <time>2018-04-21T07:13:18.000Z</time>
      </trkpt>
      <trkpt lat="40.812654" lon="-3.837545">
        <ele>2059.1</ele>
        <time>2018-04-21T07:13:19.000Z</time>
      </trkpt>
      <trkpt lat="40.812652" lon="-3.837553">
        <ele>2059.1</ele>
        <time>2018-04-21T07:13:20.000Z</time>
      </trkpt>
      <trkpt lat="40.812649" lon="-3.837563">
        <ele>2059.0</ele>
        <time>2018-04-21T07:13:21.000Z</time>
      </trkpt>
      <trkpt lat="40.812646" lon="-3.837573">
        <ele>2059.0</ele>
        <time>2018-04-21T07:13:22.000Z</time>
      </trkpt>
      <trkpt lat="40.812642" lon="-3.837584">
        <ele>2058.9</ele>
        <time>2018-04-21T07:13:23.000Z</time>
      </trkpt>
      <trkpt lat="40.812638" lon="-3.837596">
        <ele>2058.9</ele>
        <time>2018-04-21T07:13:24.000Z</time>
      </trkpt>
      <trkpt lat="40.812632" lon="-3.837607">
        <ele>2058.8</ele>
        <time>2018-04-21T07:13:25.000Z</time>
      </trkpt>
      <trkpt lat="40.812627" lon="-3.837617">
        <ele>2058.8</ele>
        <time>2018-04-21T07:13:26.000Z</time>
      </trkpt>
      <trkpt lat="40.812621" lon="-3.837625">
        <ele>2058.7</ele>
        <time>2018-04-21T07:13:27.000Z</time>
      </trkpt>
      <trkpt lat="40.812614" lon="-3.837632">
        <ele>2058.7</ele>
        <time>2018-04-21T07:13:28.000Z</time>
      </trkpt>
      <trkpt lat="40.812608" lon="-3.837637">
        <ele>2058.7</ele>
        <time>2018-04-21T07:13:29.000Z</time>
      </trkpt>
      <trkpt lat="40.812602" lon="-3.837641">
        <ele>2058.7</ele>
        <time>2018-04-21T07:13:30.000Z</time>
      </trkpt>
      <trkpt lat="40.812596" lon="-3.837644">
        <ele>2058.7</ele>
        <time>2018-04-21T07:13:31.000Z</time>
      </trkpt>
      <trkpt lat="40.812591" lon="-3.837647">
        <ele>2058.7</ele>
        <time>2018-04-21T07:13:32.000Z</time>
      </trkpt>
      <trkpt lat="40.812586" lon="-3.83765">
        <ele>2058.7</ele>
        <time>2018-04-21T07:13:33.000Z</time>
      </trkpt>
      <trkpt lat="40.812582" lon="-3.837653">
        <ele>2058.7</ele>
        <time>2018-04-21T07:13:34.000Z</time>
      </trkpt>
      <trkpt lat="40.81258" lon="-3.837657">
        <ele>2058.7</ele>
        <time>2018-04-21T07:13:35.000Z</time>
      </trkpt>
      <trkpt lat="40.812578" lon="-3.837662">
        <ele>2058.6</ele>
        <time>2018-04-21T07:13:36.000Z</time>
      </trkpt>
      <trkpt lat="40.812577" lon="-3.837668">
        <ele>2058.6</ele>
        <time>2018-04-21T07:13:37.000Z</time>
      </trkpt>
      <trkpt lat="40.812577" lon="-3.837674">
        <ele>2058.6</ele>
        <time>2018-04-21T07:13:38.000Z</time>
      </trkpt>
      <trkpt lat="40.812577" lon="-3.837681">
        <ele>2058.6</ele>
        <time>2018-04-21T07:13:39.000Z</time>
      </trkpt>
      <trkpt lat="40.812578" lon="-3.837688">
        <ele>2058.6</ele>
        <time>2018-04-21T07:13:40.000Z</time>
      </trkpt>
      <trkpt lat="40.812578" lon="-3.837695">
        <ele>2058.5</ele>
        <time>2018-04-21T07:13:41.000Z</time>
      </trkpt>
      <trkpt lat="40.812578" lon="-3.837703">
        <ele>2058.5</ele>
        <time>2018-04-21T07:13:42.000Z</time>
      </trkpt>
      <trkpt lat="40.812577" lon="-3.83771">
        <ele>2058.5</ele>
        <time>2018-04-21T07:13:43.000Z</time>
      </trkpt>
      <trkpt lat="40.812575" lon="-3.837717">
        <ele>2058.5</ele>
        <time>2018-04-21T07:13:44.000Z</time>
      </trkpt>
      <trkpt lat="40.812573" lon="-3.837723">
        <ele>2058.5</ele>
        <time>2018-04-21T07:13:45.000Z</time>
      </trkpt>
      <trkpt lat="40.812569" lon="-3.837729">
        <ele>2058.5</ele>
        <time>2018-04-21T07:13:46.000Z</time>
      </trkpt>
      <trkpt lat="40.812565" lon="-3.837735">
        <ele>2058.5</ele>
        <time>2018-04-21T07:13:47.000Z</time>
      </trkpt>
      <trkpt lat="40.812561" lon="-3.837741">
        <ele>2058.5</ele>
        <time>2018-04-21T07:13:48.000Z</time>
      </trkpt>
      <trkpt lat="40.812556" lon="-3.837746">
        <ele>2058.5</ele>
        <time>2018-04-21T07:13:49.000Z</time>
      </trkpt>
      <trkpt lat="40.812552" lon="-3.837753">
        <ele>2058.5</ele>
        <time>2018-04-21T07:13:50.000Z</time>
      </trkpt>
      <trkpt lat="40.812548" lon="-3.837759">
        <ele>2058.5</ele>
        <time>2018-04-21T07:13:51.000Z</time>
      </trkpt>
      <trkpt lat="40.812545" lon="-3.837767">
        <ele>2058.5</ele>
        <time>2018-04-21T07:13:52.000Z</time>
      </trkpt>
      <trkpt lat="40.812543" lon="-3.837775">
        <ele>2058.4</ele>
        <time>2018-04-21T07:13:53.000Z</time>
      </trkpt>
      <trkpt lat="40.812542" lon="-3.837784">
        <ele>2058.4</ele>
        <time>2018-04-21T07:13:54.000Z</time>
      </trkpt>
      <trkpt lat="40.812542" lon="-3.837794">
        <ele>2058.4</ele>
        <time>2018-04-21T07:13:55.000Z</time>
      </trkpt>
      <trkpt lat="40.812543" lon="-3.837804">
        <ele>2058.4</ele>
        <time>2018-04-21T07:13:56.000Z</time>
      </trkpt>
      <trkpt lat="40.812544" lon="-3.837815">
        <ele>2058.3</ele>
        <time>2018-04-21T07:13:57.000Z</time>
      </trkpt>
      <trkpt lat="40.812544" lon="-3.837826">
        <ele>2058.3</ele>
        <time>2018-04-21T07:13:58.000Z</time>
      </trkpt>
      <trkpt lat="40.812544" lon="-3.837836">
        <ele>2058.3</ele>
        <time>2018-04-21T07:13:59.000Z</time>
      </trkpt>
      <trkpt lat="40.812544" lon="-3.837846">
        <ele>2058.3</ele>
        <time>2018-04-21T07:14:00.000Z</time>
      </trkpt>
      <trkpt lat="40.812542" lon="-3.837856">
        <ele>2058.3</ele>
        <time>2018-04-21T07:14:01.000Z</time>
      </trkpt>
      <trkpt lat="40.812538" lon="-3.837865">
        <ele>2058.3</ele>
        <time>2018-04-21T07:14:02.000Z</time>
      </trkpt>
      <trkpt lat="40.812532" lon="-3.837872">
        <ele>2058.3</ele>
        <time>2018-04-21T07:14:03.000Z</time>
      </trkpt>
      <trkpt lat="40.812525" lon="-3.837879">
        <ele>2058.3</ele>
        <time>2018-04-21T07:14:04.000Z</time>
      </trkpt>
      <trkpt lat="40.812517" lon="-3.837885">
        <ele>2058.4</ele>
        <time>2018-04-21T07:14:05.000Z</time>
      </trkpt>
      <trkpt lat="40.812507" lon="-3.837891">
        <ele>2058.5</ele>
        <time>2018-04-21T07:14:06.000Z</time>
      </trkpt>
      <trkpt lat="40.812497" lon="-3.837896">
        <ele>2058.4</ele>
        <time>2018-04-21T07:14:07.000Z</time>
      </trkpt>
      <trkpt lat="40.812486" lon="-3.837901">
        <ele>2058.0</ele>
        <time>2018-04-21T07:14:08.000Z</time>
      </trkpt>
      <trkpt lat="40.812476" lon="-3.837906">
        <ele>2057.6</ele>
        <time>2018-04-21T07:14:09.000Z</time>
      </trkpt>
      <trkpt lat="40.812466" lon="-3.837912">
        <ele>2057.3</ele>
        <time>2018-04-21T07:14:10.000Z</time>
      </trkpt>
      <trkpt lat="40.812456" lon="-3.837918">
        <ele>2056.9</ele>
        <time>2018-04-21T07:14:11.000Z</time>
      </trkpt>
      <trkpt lat="40.812447" lon="-3.837925">
        <ele>2056.6</ele>
        <time>2018-04-21T07:14:12.000Z</time>
      </trkpt>
      <trkpt lat="40.812439" lon="-3.837932">
        <ele>2056.3</ele>
        <time>2018-04-21T07:14:13.000Z</time>
      </trkpt>
      <trkpt lat="40.812432" lon="-3.83794">
        <ele>2056.0</ele>
        <time>2018-04-21T07:14:14.000Z</time>
      </trkpt>
      <trkpt lat="40.812424" lon="-3.837948">
        <ele>2055.7</ele>
        <time>2018-04-21T07:14:15.000Z</time>
      </trkpt>
      <trkpt lat="40.812417" lon="-3.837957">
        <ele>2055.4</ele>
        <time>2018-04-21T07:14:16.000Z</time>
      </trkpt>
      <trkpt lat="40.81241" lon="-3.837965">
        <ele>2055.2</ele>
        <time>2018-04-21T07:14:17.000Z</time>
      </trkpt>
      <trkpt lat="40.812403" lon="-3.837973">
        <ele>2054.9</ele>
        <time>2018-04-21T07:14:18.000Z</time>
      </trkpt>
      <trkpt lat="40.812396" lon="-3.83798">
        <ele>2054.7</ele>
        <time>2018-04-21T07:14:19.000Z</time>
      </trkpt>
      <trkpt lat="40.812391" lon="-3.837984">
        <ele>2054.5</ele>
        <time>2018-04-21T07:14:20.000Z</time>
      </trkpt>
      <trkpt lat="40.812386" lon="-3.837987">
        <ele>2054.3</ele>
        <time>2018-04-21T07:14:21.000Z</time>
      </trkpt>
      <trkpt lat="40.812383" lon="-3.837987">
        <ele>2054.2</ele>
        <time>2018-04-21T07:14:22.000Z</time>
      </trkpt>
      <trkpt lat="40.812381" lon="-3.837986">
        <ele>2054.1</ele>
        <time>2018-04-21T07:14:23.000Z</time>
      </trkpt>
      <trkpt lat="40.812378" lon="-3.837986">
        <ele>2054.0</ele>
        <time>2018-04-21T07:14:24.000Z</time>
      </trkpt>
      <trkpt lat="40.812376" lon="-3.837987">
        <ele>2053.9</ele>
        <time>2018-04-21T07:14:25.000Z</time>
      </trkpt>
      <trkpt lat="40.812373" lon="-3.83799">
        <ele>2053.8</ele>
        <time>2018-04-21T07:14:26.000Z</time>
      </trkpt>
      <trkpt lat="40.81237" lon="-3.837994">
        <ele>2053.7</ele>
        <time>2018-04-21T07:14:27.000Z</time>
      </trkpt>
      <trkpt lat="40.812367" lon="-3.838">
        <ele>2053.6</ele>
        <time>2018-04-21T07:14:28.000Z</time>
      </trkpt>
      <trkpt lat="40.812365" lon="-3.838006">
        <ele>2053.5</ele>
        <time>2018-04-21T07:14:29.000Z</time>
      </trkpt>
      <trkpt lat="40.812363" lon="-3.838012">
        <ele>2053.5</ele>
        <time>2018-04-21T07:14:30.000Z</time>
      </trkpt>
      <trkpt lat="40.812362" lon="-3.838018">
        <ele>2053.4</ele>
        <time>2018-04-21T07:14:31.000Z</time>
      </trkpt>
      <trkpt lat="40.812362" lon="-3.838024">
        <ele>2053.4</ele>
        <time>2018-04-21T07:14:32.000Z</time>
      </trkpt>
      <trkpt lat="40.812362" lon="-3.838029">
        <ele>2053.4</ele>
        <time>2018-04-21T07:14:33.000Z</time>
      </trkpt>
      <trkpt lat="40.812363" lon="-3.838035">
        <ele>2053.5</ele>
        <time>2018-04-21T07:14:34.000Z</time>
      </trkpt>
      <trkpt lat="40.812364" lon="-3.838041">
        <ele>2053.5</ele>
        <time>2018-04-21T07:14:35.000Z</time>
      </trkpt>
      <trkpt lat="40.812365" lon="-3.838047">
        <ele>2053.5</ele>
        <time>2018-04-21T07:14:36.000Z</time>
      </trkpt>
      <trkpt lat="40.812366" lon="-3.838053">
        <ele>2053.6</ele>
        <time>2018-04-21T07:14:37.000Z</time>
      </trkpt>
      <trkpt lat="40.812366" lon="-3.838059">
        <ele>2053.6</ele>
        <time>2018-04-21T07:14:38.000Z</time>
      </trkpt>
      <trkpt lat="40.812367" lon="-3.838065">
        <ele>2053.6</ele>
        <time>2018-04-21T07:14:39.000Z</time>
      </trkpt>
      <trkpt lat="40.812367" lon="-3.838071">
        <ele>2053.6</ele>
        <time>2018-04-21T07:14:40.000Z</time>
      </trkpt>
      <trkpt lat="40.812366" lon="-3.838078">
        <ele>2053.6</ele>
        <time>2018-04-21T07:14:41.000Z</time>
      </trkpt>
      <trkpt lat="40.812366" lon="-3.838084">
        <ele>2053.6</ele>
        <time>2018-04-21T07:14:42.000Z</time>
      </trkpt>
      <trkpt lat="40.812365" lon="-3.838089">
        <ele>2053.5</ele>
        <time>2018-04-21T07:14:43.000Z</time>
      </trkpt>
      <trkpt lat="40.812364" lon="-3.838095">
        <ele>2053.5</ele>
        <time>2018-04-21T07:14:44.000Z</time>
      </trkpt>
      <trkpt lat="40.812363" lon="-3.8381">
        <ele>2053.4</ele>
        <time>2018-04-21T07:14:45.000Z</time>
      </trkpt>
      <trkpt lat="40.812362" lon="-3.838104">
        <ele>2053.4</ele>
        <time>2018-04-21T07:14:46.000Z</time>
      </trkpt>
      <trkpt lat="40.81236" lon="-3.838108">
        <ele>2053.3</ele>
        <time>2018-04-21T07:14:47.000Z</time>
      </trkpt>
      <trkpt lat="40.812358" lon="-3.838111">
        <ele>2053.3</ele>
        <time>2018-04-21T07:14:48.000Z</time>
      </trkpt>
      <trkpt lat="40.812356" lon="-3.838113">
        <ele>2053.2</ele>
        <time>2018-04-21T07:14:49.000Z</time>
      </trkpt>
      <trkpt lat="40.812354" lon="-3.838114">
        <ele>2053.1</ele>
        <time>2018-04-21T07:14:50.000Z</time>
      </trkpt>
      <trkpt lat="40.812352" lon="-3.838115">
        <ele>2053.1</ele>
        <time>2018-04-21T07:14:51.000Z</time>
      </trkpt>
      <trkpt lat="40.81235" lon="-3.838115">
        <ele>2053.0</ele>
        <time>2018-04-21T07:14:52.000Z</time>
      </trkpt>
      <trkpt lat="40.812348" lon="-3.838115">
        <ele>2052.9</ele>
        <time>2018-04-21T07:14:53.000Z</time>
      </trkpt>
      <trkpt lat="40.812346" lon="-3.838115">
        <ele>2052.8</ele>
        <time>2018-04-21T07:14:54.000Z</time>
      </trkpt>
      <trkpt lat="40.812344" lon="-3.838114">
        <ele>2052.8</ele>
        <time>2018-04-21T07:14:55.000Z</time>
      </trkpt>
      <trkpt lat="40.812342" lon="-3.838114">
        <ele>2052.7</ele>
        <time>2018-04-21T07:14:56.000Z</time>
      </trkpt>
      <trkpt lat="40.81234" lon="-3.838113">
        <ele>2052.6</ele>
        <time>2018-04-21T07:14:57.000Z</time>
      </trkpt>
      <trkpt lat="40.812338" lon="-3.838112">
        <ele>2052.6</ele>
        <time>2018-04-21T07:14:58.000Z</time>
      </trkpt>
      <trkpt lat="40.812337" lon="-3.838111">
        <ele>2052.5</ele>
        <time>2018-04-21T07:14:59.000Z</time>
      </trkpt>
      <trkpt lat="40.812335" lon="-3.838111">
        <ele>2052.5</ele>
        <time>2018-04-21T07:15:00.000Z</time>
      </trkpt>
      <trkpt lat="40.812334" lon="-3.83811">
        <ele>2052.4</ele>
        <time>2018-04-21T07:15:01.000Z</time>
      </trkpt>
      <trkpt lat="40.812332" lon="-3.83811">
        <ele>2052.4</ele>
        <time>2018-04-21T07:15:02.000Z</time>
      </trkpt>
      <trkpt lat="40.81233" lon="-3.838109">
        <ele>2052.3</ele>
        <time>2018-04-21T07:15:03.000Z</time>
      </trkpt>
      <trkpt lat="40.812328" lon="-3.838109">
        <ele>2052.2</ele>
        <time>2018-04-21T07:15:04.000Z</time>
      </trkpt>
      <trkpt lat="40.812326" lon="-3.838109">
        <ele>2052.1</ele>
        <time>2018-04-21T07:15:05.000Z</time>
      </trkpt>
      <trkpt lat="40.812323" lon="-3.83811">
        <ele>2052.0</ele>
        <time>2018-04-21T07:15:06.000Z</time>
      </trkpt>
      <trkpt lat="40.81232" lon="-3.838111">
        <ele>2051.9</ele>
        <time>2018-04-21T07:15:07.000Z</time>
      </trkpt>
      <trkpt lat="40.812318" lon="-3.838112">
        <ele>2051.9</ele>
        <time>2018-04-21T07:15:08.000Z</time>
      </trkpt>
      <trkpt lat="40.812314" lon="-3.838113">
        <ele>2051.7</ele>
        <time>2018-04-21T07:15:09.000Z</time>
      </trkpt>
      <trkpt lat="40.812311" lon="-3.838114">
        <ele>2051.6</ele>
        <time>2018-04-21T07:15:10.000Z</time>
      </trkpt>
      <trkpt lat="40.812308" lon="-3.838115">
        <ele>2051.5</ele>
        <time>2018-04-21T07:15:11.000Z</time>
      </trkpt>
      <trkpt lat="40.812304" lon="-3.838117">
        <ele>2051.4</ele>
        <time>2018-04-21T07:15:12.000Z</time>
      </trkpt>
      <trkpt lat="40.812301" lon="-3.838118">
        <ele>2051.3</ele>
        <time>2018-04-21T07:15:13.000Z</time>
      </trkpt>
      <trkpt lat="40.812297" lon="-3.838119">
        <ele>2051.1</ele>
        <time>2018-04-21T07:15:14.000Z</time>
      </trkpt>
      <trkpt lat="40.812293" lon="-3.83812">
        <ele>2051.0</ele>
        <time>2018-04-21T07:15:15.000Z</time>
      </trkpt>
      <trkpt lat="40.81229" lon="-3.838121">
        <ele>2050.9</ele>
        <time>2018-04-21T07:15:16.000Z</time>
      </trkpt>
      <trkpt lat="40.812286" lon="-3.838122">
        <ele>2050.7</ele>
        <time>2018-04-21T07:15:17.000Z</time>
      </trkpt>
      <trkpt lat="40.812283" lon="-3.838122">
        <ele>2050.6</ele>
        <time>2018-04-21T07:15:18.000Z</time>
      </trkpt>
      <trkpt lat="40.81228" lon="-3.838123">
        <ele>2050.5</ele>
        <time>2018-04-21T07:15:19.000Z</time>
      </trkpt>
      <trkpt lat="40.812277" lon="-3.838123">
        <ele>2050.4</ele>
        <time>2018-04-21T07:15:20.000Z</time>
      </trkpt>
      <trkpt lat="40.812275" lon="-3.838124">
        <ele>2050.4</ele>
        <time>2018-04-21T07:15:21.000Z</time>
      </trkpt>
      <trkpt lat="40.812274" lon="-3.838124">
        <ele>2050.3</ele>
        <time>2018-04-21T07:15:22.000Z</time>
      </trkpt>
      <trkpt lat="40.812273" lon="-3.838124">
        <ele>2050.3</ele>
        <time>2018-04-21T07:15:23.000Z</time>
      </trkpt>
      <trkpt lat="40.812273" lon="-3.838124">
        <ele>2050.3</ele>
        <time>2018-04-21T07:15:24.000Z</time>
      </trkpt>
      <trkpt lat="40.812273" lon="-3.838124">
        <ele>2050.3</ele>
        <time>2018-04-21T07:15:25.000Z</time>
      </trkpt>
      <trkpt lat="40.812274" lon="-3.838124">
        <ele>2050.3</ele>
        <time>2018-04-21T07:15:26.000Z</time>
      </trkpt>
      <trkpt lat="40.812274" lon="-3.838125">
        <ele>2050.3</ele>
        <time>2018-04-21T07:15:27.000Z</time>
      </trkpt>
      <trkpt lat="40.812273" lon="-3.838126">
        <ele>2050.3</ele>
        <time>2018-04-21T07:15:28.000Z</time>
      </trkpt>
      <trkpt lat="40.812271" lon="-3.838128">
        <ele>2050.2</ele>
        <time>2018-04-21T07:15:29.000Z</time>
      </trkpt>
      <trkpt lat="40.812268" lon="-3.838131">
        <ele>2050.1</ele>
        <time>2018-04-21T07:15:30.000Z</time>
      </trkpt>
      <trkpt lat="40.812265" lon="-3.838135">
        <ele>2050.0</ele>
        <time>2018-04-21T07:15:31.000Z</time>
      </trkpt>
      <trkpt lat="40.812261" lon="-3.83814">
        <ele>2049.9</ele>
        <time>2018-04-21T07:15:32.000Z</time>
      </trkpt>
      <trkpt lat="40.812258" lon="-3.838147">
        <ele>2049.8</ele>
        <time>2018-04-21T07:15:33.000Z</time>
      </trkpt>
      <trkpt lat="40.812255" lon="-3.838154">
        <ele>2049.7</ele>
        <time>2018-04-21T07:15:34.000Z</time>
      </trkpt>
      <trkpt lat="40.812251" lon="-3.838162">
        <ele>2049.5</ele>
        <time>2018-04-21T07:15:35.000Z</time>
      </trkpt>
      <trkpt lat="40.812246" lon="-3.838169">
        <ele>2049.4</ele>
        <time>2018-04-21T07:15:36.000Z</time>
      </trkpt>
      <trkpt lat="40.81224" lon="-3.838176">
        <ele>2049.2</ele>
        <time>2018-04-21T07:15:37.000Z</time>
      </trkpt>
      <trkpt lat="40.812235" lon="-3.838186">
        <ele>2049.0</ele>
        <time>2018-04-21T07:15:38.000Z</time>
      </trkpt>
      <trkpt lat="40.81223" lon="-3.838192">
        <ele>2048.8</ele>
        <time>2018-04-21T07:15:39.000Z</time>
      </trkpt>
      <trkpt lat="40.812231" lon="-3.8382">
        <ele>2048.9</ele>
        <time>2018-04-21T07:21:09.000Z</time>
      </trkpt>
      <trkpt lat="40.812321" lon="-3.838477">
        <ele>2050.1</ele>
        <time>2018-04-21T07:21:10.000Z</time>
      </trkpt>
      <trkpt lat="40.812366" lon="-3.838614">
        <ele>2049.9</ele>
        <time>2018-04-21T07:21:11.000Z</time>
      </trkpt>
      <trkpt lat="40.812366" lon="-3.838614">
        <ele>2049.9</ele>
        <time>2018-04-21T07:21:12.000Z</time>
      </trkpt>
      <trkpt lat="40.812366" lon="-3.838614">
        <ele>2049.9</ele>
        <time>2018-04-21T07:21:13.000Z</time>
      </trkpt>
      <trkpt lat="40.812364" lon="-3.838623">
        <ele>2049.7</ele>
        <time>2018-04-21T07:21:14.000Z</time>
      </trkpt>
      <trkpt lat="40.81236" lon="-3.838636">
        <ele>2049.4</ele>
        <time>2018-04-21T07:21:15.000Z</time>
      </trkpt>
      <trkpt lat="40.812357" lon="-3.83865">
        <ele>2049.1</ele>
        <time>2018-04-21T07:21:16.000Z</time>
      </trkpt>
      <trkpt lat="40.812357" lon="-3.838665">
        <ele>2048.9</ele>
        <time>2018-04-21T07:21:17.000Z</time>
      </trkpt>
      <trkpt lat="40.812359" lon="-3.838681">
        <ele>2048.8</ele>
        <time>2018-04-21T07:21:18.000Z</time>
      </trkpt>
      <trkpt lat="40.812363" lon="-3.838697">
        <ele>2048.7</ele>
        <time>2018-04-21T07:21:19.000Z</time>
      </trkpt>
      <trkpt lat="40.81237" lon="-3.83871">
        <ele>2048.8</ele>
        <time>2018-04-21T07:21:20.000Z</time>
      </trkpt>
      <trkpt lat="40.812378" lon="-3.838723">
        <ele>2049.0</ele>
        <time>2018-04-21T07:21:21.000Z</time>
      </trkpt>
      <trkpt lat="40.812386" lon="-3.838735">
        <ele>2049.1</ele>
        <time>2018-04-21T07:21:22.000Z</time>
      </trkpt>
      <trkpt lat="40.812394" lon="-3.838747">
        <ele>2049.2</ele>
        <time>2018-04-21T07:21:23.000Z</time>
      </trkpt>
      <trkpt lat="40.812401" lon="-3.838758">
        <ele>2049.3</ele>
        <time>2018-04-21T07:21:24.000Z</time>
      </trkpt>
      <trkpt lat="40.812405" lon="-3.838769">
        <ele>2049.3</ele>
        <time>2018-04-21T07:21:25.000Z</time>
      </trkpt>
      <trkpt lat="40.812407" lon="-3.838781">
        <ele>2049.3</ele>
        <time>2018-04-21T07:21:26.000Z</time>
      </trkpt>
      <trkpt lat="40.812407" lon="-3.838792">
        <ele>2049.1</ele>
        <time>2018-04-21T07:21:27.000Z</time>
      </trkpt>
      <trkpt lat="40.812406" lon="-3.838803">
        <ele>2049.0</ele>
        <time>2018-04-21T07:21:28.000Z</time>
      </trkpt>
      <trkpt lat="40.812403" lon="-3.838814">
        <ele>2048.7</ele>
        <time>2018-04-21T07:21:29.000Z</time>
      </trkpt>
      <trkpt lat="40.812399" lon="-3.838824">
        <ele>2048.4</ele>
        <time>2018-04-21T07:21:30.000Z</time>
      </trkpt>
      <trkpt lat="40.812395" lon="-3.838834">
        <ele>2048.2</ele>
        <time>2018-04-21T07:21:31.000Z</time>
      </trkpt>
      <trkpt lat="40.812389" lon="-3.838845">
        <ele>2047.8</ele>
        <time>2018-04-21T07:21:32.000Z</time>
      </trkpt>
      <trkpt lat="40.812384" lon="-3.838855">
        <ele>2047.5</ele>
        <time>2018-04-21T07:21:33.000Z</time>
      </trkpt>
      <trkpt lat="40.812379" lon="-3.838866">
        <ele>2047.2</ele>
        <time>2018-04-21T07:21:34.000Z</time>
      </trkpt>
      <trkpt lat="40.812374" lon="-3.838877">
        <ele>2046.8</ele>
        <time>2018-04-21T07:21:35.000Z</time>
      </trkpt>
      <trkpt lat="40.81237" lon="-3.838888">
        <ele>2046.6</ele>
        <time>2018-04-21T07:21:36.000Z</time>
      </trkpt>
      <trkpt lat="40.812366" lon="-3.838901">
        <ele>2046.2</ele>
        <time>2018-04-21T07:21:37.000Z</time>
      </trkpt>
      <trkpt lat="40.812364" lon="-3.838914">
        <ele>2046.0</ele>
        <time>2018-04-21T07:21:38.000Z</time>
      </trkpt>
      <trkpt lat="40.812363" lon="-3.838927">
        <ele>2045.8</ele>
        <time>2018-04-21T07:21:39.000Z</time>
      </trkpt>
      <trkpt lat="40.812363" lon="-3.838942">
        <ele>2045.6</ele>
        <time>2018-04-21T07:21:40.000Z</time>
      </trkpt>
      <trkpt lat="40.812364" lon="-3.838956">
        <ele>2045.5</ele>
        <time>2018-04-21T07:21:41.000Z</time>
      </trkpt>
      <trkpt lat="40.812365" lon="-3.838971">
        <ele>2045.3</ele>
        <time>2018-04-21T07:21:42.000Z</time>
      </trkpt>
      <trkpt lat="40.812367" lon="-3.838985">
        <ele>2045.2</ele>
        <time>2018-04-21T07:21:43.000Z</time>
      </trkpt>
      <trkpt lat="40.812369" lon="-3.838999">
        <ele>2045.1</ele>
        <time>2018-04-21T07:21:44.000Z</time>
      </trkpt>
      <trkpt lat="40.812371" lon="-3.839013">
        <ele>2045.0</ele>
        <time>2018-04-21T07:21:45.000Z</time>
      </trkpt>
      <trkpt lat="40.812373" lon="-3.839025">
        <ele>2044.9</ele>
        <time>2018-04-21T07:21:46.000Z</time>
      </trkpt>
      <trkpt lat="40.812375" lon="-3.839038">
        <ele>2044.8</ele>
        <time>2018-04-21T07:21:47.000Z</time>
      </trkpt>
      <trkpt lat="40.812376" lon="-3.839049">
        <ele>2044.7</ele>
        <time>2018-04-21T07:21:48.000Z</time>
      </trkpt>
      <trkpt lat="40.812378" lon="-3.83906">
        <ele>2044.7</ele>
        <time>2018-04-21T07:21:49.000Z</time>
      </trkpt>
      <trkpt lat="40.812379" lon="-3.83907">
        <ele>2044.6</ele>
        <time>2018-04-21T07:21:50.000Z</time>
      </trkpt>
      <trkpt lat="40.81238" lon="-3.83908">
        <ele>2044.5</ele>
        <time>2018-04-21T07:21:51.000Z</time>
      </trkpt>
      <trkpt lat="40.812381" lon="-3.83909">
        <ele>2044.4</ele>
        <time>2018-04-21T07:21:52.000Z</time>
      </trkpt>
      <trkpt lat="40.812381" lon="-3.8391">
        <ele>2044.3</ele>
        <time>2018-04-21T07:21:53.000Z</time>
      </trkpt>
      <trkpt lat="40.812381" lon="-3.83911">
        <ele>2044.1</ele>
        <time>2018-04-21T07:21:54.000Z</time>
      </trkpt>
      <trkpt lat="40.812381" lon="-3.83912">
        <ele>2044.0</ele>
        <time>2018-04-21T07:21:55.000Z</time>
      </trkpt>
      <trkpt lat="40.81238" lon="-3.839131">
        <ele>2043.8</ele>
        <time>2018-04-21T07:21:56.000Z</time>
      </trkpt>
      <trkpt lat="40.812379" lon="-3.839142">
        <ele>2043.7</ele>
        <time>2018-04-21T07:21:57.000Z</time>
      </trkpt>
      <trkpt lat="40.812377" lon="-3.839153">
        <ele>2043.5</ele>
        <time>2018-04-21T07:21:58.000Z</time>
      </trkpt>
      <trkpt lat="40.812375" lon="-3.839164">
        <ele>2043.2</ele>
        <time>2018-04-21T07:21:59.000Z</time>
      </trkpt>
      <trkpt lat="40.812372" lon="-3.839176">
        <ele>2042.9</ele>
        <time>2018-04-21T07:22:00.000Z</time>
      </trkpt>
      <trkpt lat="40.812369" lon="-3.839187">
        <ele>2042.5</ele>
        <time>2018-04-21T07:22:01.000Z</time>
      </trkpt>
      <trkpt lat="40.812366" lon="-3.839199">
        <ele>2042.1</ele>
        <time>2018-04-21T07:22:02.000Z</time>
      </trkpt>
      <trkpt lat="40.812362" lon="-3.83921">
        <ele>2041.7</ele>
        <time>2018-04-21T07:22:03.000Z</time>
      </trkpt>
      <trkpt lat="40.812358" lon="-3.839221">
        <ele>2041.4</ele>
        <time>2018-04-21T07:22:04.000Z</time>
      </trkpt>
      <trkpt lat="40.812353" lon="-3.839232">
        <ele>2040.9</ele>
        <time>2018-04-21T07:22:05.000Z</time>
      </trkpt>
      <trkpt lat="40.812349" lon="-3.839243">
        <ele>2040.5</ele>
        <time>2018-04-21T07:22:06.000Z</time>
      </trkpt>
      <trkpt lat="40.812343" lon="-3.839254">
        <ele>2040.0</ele>
        <time>2018-04-21T07:22:07.000Z</time>
      </trkpt>
      <trkpt lat="40.812338" lon="-3.839265">
        <ele>2039.6</ele>
        <time>2018-04-21T07:22:08.000Z</time>
      </trkpt>
      <trkpt lat="40.812333" lon="-3.839275">
        <ele>2039.2</ele>
        <time>2018-04-21T07:22:09.000Z</time>
      </trkpt>
      <trkpt lat="40.812328" lon="-3.839286">
        <ele>2038.8</ele>
        <time>2018-04-21T07:22:10.000Z</time>
      </trkpt>
      <trkpt lat="40.812324" lon="-3.839297">
        <ele>2038.4</ele>
        <time>2018-04-21T07:22:11.000Z</time>
      </trkpt>
      <trkpt lat="40.81232" lon="-3.839308">
        <ele>2038.0</ele>
        <time>2018-04-21T07:22:12.000Z</time>
      </trkpt>
      <trkpt lat="40.812317" lon="-3.83932">
        <ele>2037.6</ele>
        <time>2018-04-21T07:22:13.000Z</time>
      </trkpt>
      <trkpt lat="40.812314" lon="-3.839332">
        <ele>2037.2</ele>
        <time>2018-04-21T07:22:14.000Z</time>
      </trkpt>
      <trkpt lat="40.812312" lon="-3.839344">
        <ele>2036.9</ele>
        <time>2018-04-21T07:22:15.000Z</time>
      </trkpt>
      <trkpt lat="40.812311" lon="-3.839357">
        <ele>2036.5</ele>
        <time>2018-04-21T07:22:16.000Z</time>
      </trkpt>
      <trkpt lat="40.81231" lon="-3.839369">
        <ele>2036.2</ele>
        <time>2018-04-21T07:22:17.000Z</time>
      </trkpt>
      <trkpt lat="40.812311" lon="-3.839382">
        <ele>2036.0</ele>
        <time>2018-04-21T07:22:18.000Z</time>
      </trkpt>
      <trkpt lat="40.812312" lon="-3.839395">
        <ele>2035.7</ele>
        <time>2018-04-21T07:22:19.000Z</time>
      </trkpt>
      <trkpt lat="40.812314" lon="-3.839408">
        <ele>2035.5</ele>
        <time>2018-04-21T07:22:20.000Z</time>
      </trkpt>
      <trkpt lat="40.812317" lon="-3.839422">
        <ele>2035.3</ele>
        <time>2018-04-21T07:22:21.000Z</time>
      </trkpt>
      <trkpt lat="40.81232" lon="-3.839435">
        <ele>2035.2</ele>
        <time>2018-04-21T07:22:22.000Z</time>
      </trkpt>
      <trkpt lat="40.812324" lon="-3.839448">
        <ele>2035.0</ele>
        <time>2018-04-21T07:22:23.000Z</time>
      </trkpt>
      <trkpt lat="40.812329" lon="-3.839461">
        <ele>2034.9</ele>
        <time>2018-04-21T07:22:24.000Z</time>
      </trkpt>
      <trkpt lat="40.812335" lon="-3.839473">
        <ele>2034.9</ele>
        <time>2018-04-21T07:22:25.000Z</time>
      </trkpt>
      <trkpt lat="40.812341" lon="-3.839486">
        <ele>2034.9</ele>
        <time>2018-04-21T07:22:26.000Z</time>
      </trkpt>
      <trkpt lat="40.812347" lon="-3.839498">
        <ele>2034.8</ele>
        <time>2018-04-21T07:22:27.000Z</time>
      </trkpt>
      <trkpt lat="40.812353" lon="-3.839511">
        <ele>2034.8</ele>
        <time>2018-04-21T07:22:28.000Z</time>
      </trkpt>
      <trkpt lat="40.812359" lon="-3.839523">
        <ele>2034.7</ele>
        <time>2018-04-21T07:22:29.000Z</time>
      </trkpt>
      <trkpt lat="40.812365" lon="-3.839535">
        <ele>2034.7</ele>
        <time>2018-04-21T07:22:30.000Z</time>
      </trkpt>
      <trkpt lat="40.81237" lon="-3.839546">
        <ele>2034.7</ele>
        <time>2018-04-21T07:22:31.000Z</time>
      </trkpt>
      <trkpt lat="40.812375" lon="-3.839558">
        <ele>2034.6</ele>
        <time>2018-04-21T07:22:32.000Z</time>
      </trkpt>
      <trkpt lat="40.81238" lon="-3.839569">
        <ele>2034.6</ele>
        <time>2018-04-21T07:22:33.000Z</time>
      </trkpt>
      <trkpt lat="40.812383" lon="-3.839581">
        <ele>2034.4</ele>
        <time>2018-04-21T07:22:34.000Z</time>
      </trkpt>
      <trkpt lat="40.812386" lon="-3.839592">
        <ele>2034.3</ele>
        <time>2018-04-21T07:22:35.000Z</time>
      </trkpt>
      <trkpt lat="40.812388" lon="-3.839604">
        <ele>2034.1</ele>
        <time>2018-04-21T07:22:36.000Z</time>
      </trkpt>
      <trkpt lat="40.81239" lon="-3.839617">
        <ele>2033.9</ele>
        <time>2018-04-21T07:22:37.000Z</time>
      </trkpt>
      <trkpt lat="40.812391" lon="-3.839629">
        <ele>2033.7</ele>
        <time>2018-04-21T07:22:38.000Z</time>
      </trkpt>
      <trkpt lat="40.812392" lon="-3.839641">
        <ele>2033.5</ele>
        <time>2018-04-21T07:22:39.000Z</time>
      </trkpt>
      <trkpt lat="40.812393" lon="-3.839653">
        <ele>2033.2</ele>
        <time>2018-04-21T07:22:40.000Z</time>
      </trkpt>
      <trkpt lat="40.812396" lon="-3.839663">
        <ele>2033.1</ele>
        <time>2018-04-21T07:22:41.000Z</time>
      </trkpt>
      <trkpt lat="40.812399" lon="-3.839672">
        <ele>2033.1</ele>
        <time>2018-04-21T07:22:42.000Z</time>
      </trkpt>
      <trkpt lat="40.812402" lon="-3.83968">
        <ele>2033.0</ele>
        <time>2018-04-21T07:22:43.000Z</time>
      </trkpt>
      <trkpt lat="40.812405" lon="-3.839688">
        <ele>2032.9</ele>
        <time>2018-04-21T07:22:44.000Z</time>
      </trkpt>
      <trkpt lat="40.812408" lon="-3.839695">
        <ele>2032.9</ele>
        <time>2018-04-21T07:22:45.000Z</time>
      </trkpt>
      <trkpt lat="40.812411" lon="-3.839702">
        <ele>2032.9</ele>
        <time>2018-04-21T07:22:46.000Z</time>
      </trkpt>
      <trkpt lat="40.812413" lon="-3.83971">
        <ele>2032.8</ele>
        <time>2018-04-21T07:22:47.000Z</time>
      </trkpt>
      <trkpt lat="40.812414" lon="-3.839718">
        <ele>2032.7</ele>
        <time>2018-04-21T07:22:48.000Z</time>
      </trkpt>
      <trkpt lat="40.812413" lon="-3.839727">
        <ele>2032.4</ele>
        <time>2018-04-21T07:22:49.000Z</time>
      </trkpt>
      <trkpt lat="40.812411" lon="-3.839736">
        <ele>2032.1</ele>
        <time>2018-04-21T07:22:50.000Z</time>
      </trkpt>
      <trkpt lat="40.812408" lon="-3.839746">
        <ele>2031.8</ele>
        <time>2018-04-21T07:22:51.000Z</time>
      </trkpt>
      <trkpt lat="40.812404" lon="-3.839757">
        <ele>2031.4</ele>
        <time>2018-04-21T07:22:52.000Z</time>
      </trkpt>
      <trkpt lat="40.812401" lon="-3.839767">
        <ele>2031.1</ele>
        <time>2018-04-21T07:22:53.000Z</time>
      </trkpt>
      <trkpt lat="40.812399" lon="-3.839777">
        <ele>2030.8</ele>
        <time>2018-04-21T07:22:54.000Z</time>
      </trkpt>
      <trkpt lat="40.812398" lon="-3.839786">
        <ele>2030.5</ele>
        <time>2018-04-21T07:22:55.000Z</time>
      </trkpt>
      <trkpt lat="40.8124" lon="-3.839794">
        <ele>2030.4</ele>
        <time>2018-04-21T07:22:56.000Z</time>
      </trkpt>
      <trkpt lat="40.812403" lon="-3.839801">
        <ele>2030.4</ele>
        <time>2018-04-21T07:22:57.000Z</time>
      </trkpt>
      <trkpt lat="40.812407" lon="-3.839807">
        <ele>2030.4</ele>
        <time>2018-04-21T07:22:58.000Z</time>
      </trkpt>
      <trkpt lat="40.812414" lon="-3.839811">
        <ele>2030.6</ele>
        <time>2018-04-21T07:22:59.000Z</time>
      </trkpt>
      <trkpt lat="40.81242" lon="-3.839814">
        <ele>2030.8</ele>
        <time>2018-04-21T07:23:00.000Z</time>
      </trkpt>
      <trkpt lat="40.812427" lon="-3.839818">
        <ele>2031.0</ele>
        <time>2018-04-21T07:23:01.000Z</time>
      </trkpt>
      <trkpt lat="40.812432" lon="-3.839822">
        <ele>2031.1</ele>
        <time>2018-04-21T07:23:02.000Z</time>
      </trkpt>
      <trkpt lat="40.812434" lon="-3.839828">
        <ele>2031.1</ele>
        <time>2018-04-21T07:23:03.000Z</time>
      </trkpt>
      <trkpt lat="40.812434" lon="-3.839836">
        <ele>2030.9</ele>
        <time>2018-04-21T07:23:04.000Z</time>
      </trkpt>
      <trkpt lat="40.812431" lon="-3.839847">
        <ele>2030.5</ele>
        <time>2018-04-21T07:23:05.000Z</time>
      </trkpt>
      <trkpt lat="40.812428" lon="-3.83986">
        <ele>2030.1</ele>
        <time>2018-04-21T07:23:06.000Z</time>
      </trkpt>
      <trkpt lat="40.812426" lon="-3.839874">
        <ele>2029.7</ele>
        <time>2018-04-21T07:23:07.000Z</time>
      </trkpt>
      <trkpt lat="40.812425" lon="-3.839889">
        <ele>2029.4</ele>
        <time>2018-04-21T07:23:08.000Z</time>
      </trkpt>
      <trkpt lat="40.812427" lon="-3.839903">
        <ele>2029.1</ele>
        <time>2018-04-21T07:23:09.000Z</time>
      </trkpt>
      <trkpt lat="40.812431" lon="-3.839915">
        <ele>2029.0</ele>
        <time>2018-04-21T07:23:10.000Z</time>
      </trkpt>
      <trkpt lat="40.812436" lon="-3.839923">
        <ele>2029.1</ele>
        <time>2018-04-21T07:23:11.000Z</time>
      </trkpt>
      <trkpt lat="40.812442" lon="-3.839925">
        <ele>2029.3</ele>
        <time>2018-04-21T07:23:12.000Z</time>
      </trkpt>
      <trkpt lat="40.812448" lon="-3.839922">
        <ele>2029.6</ele>
        <time>2018-04-21T07:23:13.000Z</time>
      </trkpt>
      <trkpt lat="40.812455" lon="-3.839914">
        <ele>2030.0</ele>
        <time>2018-04-21T07:23:14.000Z</time>
      </trkpt>
      <trkpt lat="40.812462" lon="-3.839905">
        <ele>2030.5</ele>
        <time>2018-04-21T07:23:15.000Z</time>
      </trkpt>
      <trkpt lat="40.812469" lon="-3.839899">
        <ele>2030.9</ele>
        <time>2018-04-21T07:23:16.000Z</time>
      </trkpt>
      <trkpt lat="40.812475" lon="-3.839897">
        <ele>2031.2</ele>
        <time>2018-04-21T07:23:17.000Z</time>
      </trkpt>
      <trkpt lat="40.81248" lon="-3.8399">
        <ele>2031.3</ele>
        <time>2018-04-21T07:23:18.000Z</time>
      </trkpt>
      <trkpt lat="40.812484" lon="-3.839905">
        <ele>2031.4</ele>
        <time>2018-04-21T07:23:19.000Z</time>
      </trkpt>
      <trkpt lat="40.812487" lon="-3.839913">
        <ele>2031.4</ele>
        <time>2018-04-21T07:23:20.000Z</time>
      </trkpt>
      <trkpt lat="40.812488" lon="-3.83992">
        <ele>2031.2</ele>
        <time>2018-04-21T07:23:21.000Z</time>
      </trkpt>
      <trkpt lat="40.812487" lon="-3.839927">
        <ele>2031.0</ele>
        <time>2018-04-21T07:23:22.000Z</time>
      </trkpt>
      <trkpt lat="40.812486" lon="-3.839933">
        <ele>2030.9</ele>
        <time>2018-04-21T07:23:23.000Z</time>
      </trkpt>
      <trkpt lat="40.812485" lon="-3.83994">
        <ele>2030.7</ele>
        <time>2018-04-21T07:23:24.000Z</time>
      </trkpt>
      <trkpt lat="40.812484" lon="-3.839946">
        <ele>2030.5</ele>
        <time>2018-04-21T07:23:25.000Z</time>
      </trkpt>
      <trkpt lat="40.812485" lon="-3.839953">
        <ele>2030.4</ele>
        <time>2018-04-21T07:23:26.000Z</time>
      </trkpt>
      <trkpt lat="40.812488" lon="-3.839961">
        <ele>2030.4</ele>
        <time>2018-04-21T07:23:27.000Z</time>
      </trkpt>
      <trkpt lat="40.812491" lon="-3.839969">
        <ele>2030.3</ele>
        <time>2018-04-21T07:23:28.000Z</time>
      </trkpt>
      <trkpt lat="40.812495" lon="-3.839976">
        <ele>2030.3</ele>
        <time>2018-04-21T07:23:29.000Z</time>
      </trkpt>
      <trkpt lat="40.812499" lon="-3.839984">
        <ele>2030.3</ele>
        <time>2018-04-21T07:23:30.000Z</time>
      </trkpt>
      <trkpt lat="40.812504" lon="-3.839991">
        <ele>2030.1</ele>
        <time>2018-04-21T07:23:31.000Z</time>
      </trkpt>
      <trkpt lat="40.812508" lon="-3.839998">
        <ele>2029.9</ele>
        <time>2018-04-21T07:23:32.000Z</time>
      </trkpt>
      <trkpt lat="40.812512" lon="-3.840004">
        <ele>2029.6</ele>
        <time>2018-04-21T07:23:33.000Z</time>
      </trkpt>
      <trkpt lat="40.812517" lon="-3.840009">
        <ele>2029.3</ele>
        <time>2018-04-21T07:23:34.000Z</time>
      </trkpt>
      <trkpt lat="40.812522" lon="-3.840013">
        <ele>2029.0</ele>
        <time>2018-04-21T07:23:35.000Z</time>
      </trkpt>
      <trkpt lat="40.812528" lon="-3.840017">
        <ele>2028.7</ele>
        <time>2018-04-21T07:23:36.000Z</time>
      </trkpt>
      <trkpt lat="40.812535" lon="-3.840019">
        <ele>2028.5</ele>
        <time>2018-04-21T07:23:37.000Z</time>
      </trkpt>
      <trkpt lat="40.812542" lon="-3.84002">
        <ele>2028.3</ele>
        <time>2018-04-21T07:23:38.000Z</time>
      </trkpt>
      <trkpt lat="40.812549" lon="-3.840021">
        <ele>2028.1</ele>
        <time>2018-04-21T07:23:39.000Z</time>
      </trkpt>
      <trkpt lat="40.812556" lon="-3.840022">
        <ele>2027.9</ele>
        <time>2018-04-21T07:23:40.000Z</time>
      </trkpt>
      <trkpt lat="40.812564" lon="-3.840022">
        <ele>2027.7</ele>
        <time>2018-04-21T07:23:41.000Z</time>
      </trkpt>
      <trkpt lat="40.812572" lon="-3.840021">
        <ele>2027.6</ele>
        <time>2018-04-21T07:23:42.000Z</time>
      </trkpt>
      <trkpt lat="40.81258" lon="-3.840021">
        <ele>2027.4</ele>
        <time>2018-04-21T07:23:43.000Z</time>
      </trkpt>
      <trkpt lat="40.812588" lon="-3.84002">
        <ele>2027.3</ele>
        <time>2018-04-21T07:23:44.000Z</time>
      </trkpt>
      <trkpt lat="40.812596" lon="-3.84002">
        <ele>2027.1</ele>
        <time>2018-04-21T07:23:45.000Z</time>
      </trkpt>
      <trkpt lat="40.812604" lon="-3.840019">
        <ele>2027.0</ele>
        <time>2018-04-21T07:23:46.000Z</time>
      </trkpt>
      <trkpt lat="40.812612" lon="-3.840019">
        <ele>2026.8</ele>
        <time>2018-04-21T07:23:47.000Z</time>
      </trkpt>
      <trkpt lat="40.812619" lon="-3.840019">
        <ele>2026.7</ele>
        <time>2018-04-21T07:23:48.000Z</time>
      </trkpt>
      <trkpt lat="40.812626" lon="-3.84002">
        <ele>2026.5</ele>
        <time>2018-04-21T07:23:49.000Z</time>
      </trkpt>
      <trkpt lat="40.812633" lon="-3.840021">
        <ele>2026.3</ele>
        <time>2018-04-21T07:23:50.000Z</time>
      </trkpt>
      <trkpt lat="40.812639" lon="-3.840023">
        <ele>2026.1</ele>
        <time>2018-04-21T07:23:51.000Z</time>
      </trkpt>
      <trkpt lat="40.812645" lon="-3.840026">
        <ele>2025.9</ele>
        <time>2018-04-21T07:23:52.000Z</time>
      </trkpt>
      <trkpt lat="40.81265" lon="-3.84003">
        <ele>2025.6</ele>
        <time>2018-04-21T07:23:53.000Z</time>
      </trkpt>
      <trkpt lat="40.812656" lon="-3.840034">
        <ele>2025.3</ele>
        <time>2018-04-21T07:23:54.000Z</time>
      </trkpt>
      <trkpt lat="40.812662" lon="-3.840037">
        <ele>2025.1</ele>
        <time>2018-04-21T07:23:55.000Z</time>
      </trkpt>
      <trkpt lat="40.81267" lon="-3.840039">
        <ele>2024.9</ele>
        <time>2018-04-21T07:23:56.000Z</time>
      </trkpt>
      <trkpt lat="40.812678" lon="-3.840041">
        <ele>2024.6</ele>
        <time>2018-04-21T07:23:57.000Z</time>
      </trkpt>
      <trkpt lat="40.812683" lon="-3.840043">
        <ele>2024.4</ele>
        <time>2018-04-21T07:23:58.000Z</time>
      </trkpt>
      <trkpt lat="40.812685" lon="-3.840048">
        <ele>2024.2</ele>
        <time>2018-04-21T07:23:59.000Z</time>
      </trkpt>
      <trkpt lat="40.812681" lon="-3.840056">
        <ele>2024.0</ele>
        <time>2018-04-21T07:24:00.000Z</time>
      </trkpt>
      <trkpt lat="40.812676" lon="-3.840067">
        <ele>2023.7</ele>
        <time>2018-04-21T07:24:01.000Z</time>
      </trkpt>
      <trkpt lat="40.812671" lon="-3.840077">
        <ele>2023.4</ele>
        <time>2018-04-21T07:24:02.000Z</time>
      </trkpt>
      <trkpt lat="40.812667" lon="-3.840087">
        <ele>2023.1</ele>
        <time>2018-04-21T07:24:03.000Z</time>
      </trkpt>
      <trkpt lat="40.812665" lon="-3.840096">
        <ele>2022.8</ele>
        <time>2018-04-21T07:24:04.000Z</time>
      </trkpt>
      <trkpt lat="40.812663" lon="-3.840105">
        <ele>2022.5</ele>
        <time>2018-04-21T07:24:05.000Z</time>
      </trkpt>
      <trkpt lat="40.812662" lon="-3.840114">
        <ele>2022.2</ele>
        <time>2018-04-21T07:24:06.000Z</time>
      </trkpt>
      <trkpt lat="40.812662" lon="-3.840122">
        <ele>2021.9</ele>
        <time>2018-04-21T07:24:07.000Z</time>
      </trkpt>
      <trkpt lat="40.812662" lon="-3.84013">
        <ele>2021.6</ele>
        <time>2018-04-21T07:24:08.000Z</time>
      </trkpt>
      <trkpt lat="40.812663" lon="-3.840137">
        <ele>2021.3</ele>
        <time>2018-04-21T07:24:09.000Z</time>
      </trkpt>
      <trkpt lat="40.812665" lon="-3.840144">
        <ele>2021.0</ele>
        <time>2018-04-21T07:24:10.000Z</time>
      </trkpt>
      <trkpt lat="40.812667" lon="-3.840151">
        <ele>2020.7</ele>
        <time>2018-04-21T07:24:11.000Z</time>
      </trkpt>
      <trkpt lat="40.812669" lon="-3.840157">
        <ele>2020.4</ele>
        <time>2018-04-21T07:24:12.000Z</time>
      </trkpt>
      <trkpt lat="40.812671" lon="-3.840163">
        <ele>2020.2</ele>
        <time>2018-04-21T07:24:13.000Z</time>
      </trkpt>
      <trkpt lat="40.812673" lon="-3.84017">
        <ele>2019.9</ele>
        <time>2018-04-21T07:24:14.000Z</time>
      </trkpt>
      <trkpt lat="40.812675" lon="-3.840177">
        <ele>2019.6</ele>
        <time>2018-04-21T07:24:15.000Z</time>
      </trkpt>
      <trkpt lat="40.812675" lon="-3.840184">
        <ele>2019.3</ele>
        <time>2018-04-21T07:24:16.000Z</time>
      </trkpt>
      <trkpt lat="40.812675" lon="-3.840191">
        <ele>2019.1</ele>
        <time>2018-04-21T07:24:17.000Z</time>
      </trkpt>
      <trkpt lat="40.812675" lon="-3.840197">
        <ele>2018.8</ele>
        <time>2018-04-21T07:24:18.000Z</time>
      </trkpt>
      <trkpt lat="40.812674" lon="-3.840202">
        <ele>2018.7</ele>
        <time>2018-04-21T07:24:19.000Z</time>
      </trkpt>
      <trkpt lat="40.812674" lon="-3.840205">
        <ele>2018.6</ele>
        <time>2018-04-21T07:24:20.000Z</time>
      </trkpt>
      <trkpt lat="40.812675" lon="-3.840206">
        <ele>2018.5</ele>
        <time>2018-04-21T07:24:21.000Z</time>
      </trkpt>
      <trkpt lat="40.812675" lon="-3.840206">
        <ele>2018.5</ele>
        <time>2018-04-21T07:24:22.000Z</time>
      </trkpt>
      <trkpt lat="40.812675" lon="-3.840205">
        <ele>2018.5</ele>
        <time>2018-04-21T07:24:23.000Z</time>
      </trkpt>
      <trkpt lat="40.812676" lon="-3.840204">
        <ele>2018.6</ele>
        <time>2018-04-21T07:24:24.000Z</time>
      </trkpt>
      <trkpt lat="40.812676" lon="-3.840203">
        <ele>2018.6</ele>
        <time>2018-04-21T07:24:25.000Z</time>
      </trkpt>
      <trkpt lat="40.812676" lon="-3.840203">
        <ele>2018.6</ele>
        <time>2018-04-21T07:24:26.000Z</time>
      </trkpt>
      <trkpt lat="40.812676" lon="-3.840204">
        <ele>2018.6</ele>
        <time>2018-04-21T07:24:27.000Z</time>
      </trkpt>
      <trkpt lat="40.812675" lon="-3.840207">
        <ele>2018.5</ele>
        <time>2018-04-21T07:24:28.000Z</time>
      </trkpt>
      <trkpt lat="40.812674" lon="-3.840212">
        <ele>2018.3</ele>
        <time>2018-04-21T07:24:29.000Z</time>
      </trkpt>
      <trkpt lat="40.812672" lon="-3.840218">
        <ele>2018.1</ele>
        <time>2018-04-21T07:24:30.000Z</time>
      </trkpt>
      <trkpt lat="40.812672" lon="-3.840225">
        <ele>2017.8</ele>
        <time>2018-04-21T07:24:31.000Z</time>
      </trkpt>
      <trkpt lat="40.812672" lon="-3.840232">
        <ele>2017.6</ele>
        <time>2018-04-21T07:24:32.000Z</time>
      </trkpt>
      <trkpt lat="40.812673" lon="-3.840239">
        <ele>2017.3</ele>
        <time>2018-04-21T07:24:33.000Z</time>
      </trkpt>
      <trkpt lat="40.812676" lon="-3.840246">
        <ele>2017.0</ele>
        <time>2018-04-21T07:24:34.000Z</time>
      </trkpt>
      <trkpt lat="40.81268" lon="-3.840252">
        <ele>2016.7</ele>
        <time>2018-04-21T07:24:35.000Z</time>
      </trkpt>
      <trkpt lat="40.812684" lon="-3.840257">
        <ele>2016.5</ele>
        <time>2018-04-21T07:24:36.000Z</time>
      </trkpt>
      <trkpt lat="40.81269" lon="-3.840262">
        <ele>2016.2</ele>
        <time>2018-04-21T07:24:37.000Z</time>
      </trkpt>
      <trkpt lat="40.812695" lon="-3.840266">
        <ele>2016.0</ele>
        <time>2018-04-21T07:24:38.000Z</time>
      </trkpt>
      <trkpt lat="40.8127" lon="-3.84027">
        <ele>2015.7</ele>
        <time>2018-04-21T07:24:39.000Z</time>
      </trkpt>
      <trkpt lat="40.812705" lon="-3.840274">
        <ele>2015.5</ele>
        <time>2018-04-21T07:24:40.000Z</time>
      </trkpt>
      <trkpt lat="40.81271" lon="-3.840278">
        <ele>2015.3</ele>
        <time>2018-04-21T07:24:41.000Z</time>
      </trkpt>
      <trkpt lat="40.812715" lon="-3.840282">
        <ele>2015.1</ele>
        <time>2018-04-21T07:24:42.000Z</time>
      </trkpt>
      <trkpt lat="40.81272" lon="-3.840285">
        <ele>2014.9</ele>
        <time>2018-04-21T07:24:43.000Z</time>
      </trkpt>
      <trkpt lat="40.812725" lon="-3.840289">
        <ele>2014.7</ele>
        <time>2018-04-21T07:24:44.000Z</time>
      </trkpt>
      <trkpt lat="40.812729" lon="-3.840293">
        <ele>2014.5</ele>
        <time>2018-04-21T07:24:45.000Z</time>
      </trkpt>
      <trkpt lat="40.812734" lon="-3.840297">
        <ele>2014.3</ele>
        <time>2018-04-21T07:24:46.000Z</time>
      </trkpt>
      <trkpt lat="40.812738" lon="-3.840302">
        <ele>2014.0</ele>
        <time>2018-04-21T07:24:47.000Z</time>
      </trkpt>
      <trkpt lat="40.812743" lon="-3.840307">
        <ele>2013.8</ele>
        <time>2018-04-21T07:24:48.000Z</time>
      </trkpt>
      <trkpt lat="40.812747" lon="-3.840312">
        <ele>2013.6</ele>
        <time>2018-04-21T07:24:49.000Z</time>
      </trkpt>
      <trkpt lat="40.812751" lon="-3.840318">
        <ele>2013.3</ele>
        <time>2018-04-21T07:24:50.000Z</time>
      </trkpt>
      <trkpt lat="40.812755" lon="-3.840324">
        <ele>2013.0</ele>
        <time>2018-04-21T07:24:51.000Z</time>
      </trkpt>
      <trkpt lat="40.812758" lon="-3.84033">
        <ele>2012.8</ele>
        <time>2018-04-21T07:24:52.000Z</time>
      </trkpt>
      <trkpt lat="40.812762" lon="-3.840337">
        <ele>2012.5</ele>
        <time>2018-04-21T07:24:53.000Z</time>
      </trkpt>
      <trkpt lat="40.812765" lon="-3.840344">
        <ele>2012.2</ele>
        <time>2018-04-21T07:24:54.000Z</time>
      </trkpt>
      <trkpt lat="40.812768" lon="-3.840352">
        <ele>2011.9</ele>
        <time>2018-04-21T07:24:55.000Z</time>
      </trkpt>
      <trkpt lat="40.81277" lon="-3.84036">
        <ele>2011.6</ele>
        <time>2018-04-21T07:24:56.000Z</time>
      </trkpt>
      <trkpt lat="40.812772" lon="-3.840368">
        <ele>2011.3</ele>
        <time>2018-04-21T07:24:57.000Z</time>
      </trkpt>
      <trkpt lat="40.812775" lon="-3.840375">
        <ele>2011.0</ele>
        <time>2018-04-21T07:24:58.000Z</time>
      </trkpt>
      <trkpt lat="40.812777" lon="-3.840383">
        <ele>2010.7</ele>
        <time>2018-04-21T07:24:59.000Z</time>
      </trkpt>
      <trkpt lat="40.81278" lon="-3.840389">
        <ele>2010.4</ele>
        <time>2018-04-21T07:25:00.000Z</time>
      </trkpt>
      <trkpt lat="40.812784" lon="-3.840394">
        <ele>2010.2</ele>
        <time>2018-04-21T07:25:01.000Z</time>
      </trkpt>
      <trkpt lat="40.812789" lon="-3.840398">
        <ele>2010.0</ele>
        <time>2018-04-21T07:25:02.000Z</time>
      </trkpt>
      <trkpt lat="40.812795" lon="-3.8404">
        <ele>2009.9</ele>
        <time>2018-04-21T07:25:03.000Z</time>
      </trkpt>
      <trkpt lat="40.812803" lon="-3.840399">
        <ele>2009.8</ele>
        <time>2018-04-21T07:25:04.000Z</time>
      </trkpt>
      <trkpt lat="40.812812" lon="-3.840397">
        <ele>2009.8</ele>
        <time>2018-04-21T07:25:05.000Z</time>
      </trkpt>
      <trkpt lat="40.81282" lon="-3.840393">
        <ele>2009.8</ele>
        <time>2018-04-21T07:25:06.000Z</time>
      </trkpt>
      <trkpt lat="40.812826" lon="-3.840389">
        <ele>2009.9</ele>
        <time>2018-04-21T07:25:07.000Z</time>
      </trkpt>
      <trkpt lat="40.812828" lon="-3.840387">
        <ele>2010.0</ele>
        <time>2018-04-21T07:25:08.000Z</time>
      </trkpt>
      <trkpt lat="40.812828" lon="-3.840388">
        <ele>2009.9</ele>
        <time>2018-04-21T07:25:09.000Z</time>
      </trkpt>
      <trkpt lat="40.812828" lon="-3.840394">
        <ele>2009.7</ele>
        <time>2018-04-21T07:25:10.000Z</time>
      </trkpt>
      <trkpt lat="40.812829" lon="-3.840403">
        <ele>2009.4</ele>
        <time>2018-04-21T07:25:11.000Z</time>
      </trkpt>
      <trkpt lat="40.812831" lon="-3.840413">
        <ele>2009.0</ele>
        <time>2018-04-21T07:25:12.000Z</time>
      </trkpt>
      <trkpt lat="40.812834" lon="-3.840422">
        <ele>2008.7</ele>
        <time>2018-04-21T07:25:13.000Z</time>
      </trkpt>
      <trkpt lat="40.812839" lon="-3.840429">
        <ele>2008.4</ele>
        <time>2018-04-21T07:25:14.000Z</time>
      </trkpt>
      <trkpt lat="40.812845" lon="-3.840435">
        <ele>2008.2</ele>
        <time>2018-04-21T07:25:15.000Z</time>
      </trkpt>
      <trkpt lat="40.812852" lon="-3.840439">
        <ele>2008.0</ele>
        <time>2018-04-21T07:25:16.000Z</time>
      </trkpt>
      <trkpt lat="40.81286" lon="-3.840443">
        <ele>2007.8</ele>
        <time>2018-04-21T07:25:17.000Z</time>
      </trkpt>
      <trkpt lat="40.812867" lon="-3.840447">
        <ele>2007.6</ele>
        <time>2018-04-21T07:25:18.000Z</time>
      </trkpt>
      <trkpt lat="40.812873" lon="-3.840452">
        <ele>2007.3</ele>
        <time>2018-04-21T07:25:19.000Z</time>
      </trkpt>
      <trkpt lat="40.812879" lon="-3.840457">
        <ele>2007.1</ele>
        <time>2018-04-21T07:25:20.000Z</time>
      </trkpt>
      <trkpt lat="40.812884" lon="-3.840462">
        <ele>2006.9</ele>
        <time>2018-04-21T07:25:21.000Z</time>
      </trkpt>
      <trkpt lat="40.812889" lon="-3.840466">
        <ele>2006.7</ele>
        <time>2018-04-21T07:25:22.000Z</time>
      </trkpt>
      <trkpt lat="40.812893" lon="-3.84047">
        <ele>2006.6</ele>
        <time>2018-04-21T07:25:23.000Z</time>
      </trkpt>
      <trkpt lat="40.812897" lon="-3.840473">
        <ele>2006.4</ele>
        <time>2018-04-21T07:25:24.000Z</time>
      </trkpt>
      <trkpt lat="40.812901" lon="-3.840476">
        <ele>2006.3</ele>
        <time>2018-04-21T07:25:25.000Z</time>
      </trkpt>
      <trkpt lat="40.812905" lon="-3.840479">
        <ele>2006.2</ele>
        <time>2018-04-21T07:25:26.000Z</time>
      </trkpt>
      <trkpt lat="40.812908" lon="-3.840482">
        <ele>2006.0</ele>
        <time>2018-04-21T07:25:27.000Z</time>
      </trkpt>
      <trkpt lat="40.812912" lon="-3.840486">
        <ele>2005.9</ele>
        <time>2018-04-21T07:25:28.000Z</time>
      </trkpt>
      <trkpt lat="40.812915" lon="-3.840491">
        <ele>2005.7</ele>
        <time>2018-04-21T07:25:29.000Z</time>
      </trkpt>
      <trkpt lat="40.81292" lon="-3.840496">
        <ele>2005.5</ele>
        <time>2018-04-21T07:25:30.000Z</time>
      </trkpt>
      <trkpt lat="40.812924" lon="-3.840503">
        <ele>2005.2</ele>
        <time>2018-04-21T07:25:31.000Z</time>
      </trkpt>
      <trkpt lat="40.812929" lon="-3.840511">
        <ele>2005.0</ele>
        <time>2018-04-21T07:25:32.000Z</time>
      </trkpt>
      <trkpt lat="40.812934" lon="-3.840521">
        <ele>2004.6</ele>
        <time>2018-04-21T07:25:33.000Z</time>
      </trkpt>
      <trkpt lat="40.81294" lon="-3.840531">
        <ele>2004.2</ele>
        <time>2018-04-21T07:25:34.000Z</time>
      </trkpt>
      <trkpt lat="40.812945" lon="-3.840542">
        <ele>2003.9</ele>
        <time>2018-04-21T07:25:35.000Z</time>
      </trkpt>
      <trkpt lat="40.81295" lon="-3.840553">
        <ele>2003.5</ele>
        <time>2018-04-21T07:25:36.000Z</time>
      </trkpt>
      <trkpt lat="40.812955" lon="-3.840565">
        <ele>2003.1</ele>
        <time>2018-04-21T07:25:37.000Z</time>
      </trkpt>
      <trkpt lat="40.812959" lon="-3.840576">
        <ele>2002.7</ele>
        <time>2018-04-21T07:25:38.000Z</time>
      </trkpt>
      <trkpt lat="40.812962" lon="-3.840586">
        <ele>2002.4</ele>
        <time>2018-04-21T07:25:39.000Z</time>
      </trkpt>
      <trkpt lat="40.812964" lon="-3.840596">
        <ele>2002.1</ele>
        <time>2018-04-21T07:25:40.000Z</time>
      </trkpt>
      <trkpt lat="40.812965" lon="-3.840604">
        <ele>2001.9</ele>
        <time>2018-04-21T07:25:41.000Z</time>
      </trkpt>
      <trkpt lat="40.812965" lon="-3.840611">
        <ele>2001.7</ele>
        <time>2018-04-21T07:25:42.000Z</time>
      </trkpt>
      <trkpt lat="40.812965" lon="-3.840617">
        <ele>2001.5</ele>
        <time>2018-04-21T07:25:43.000Z</time>
      </trkpt>
      <trkpt lat="40.812966" lon="-3.840623">
        <ele>2001.3</ele>
        <time>2018-04-21T07:25:44.000Z</time>
      </trkpt>
      <trkpt lat="40.812968" lon="-3.840628">
        <ele>2001.1</ele>
        <time>2018-04-21T07:25:45.000Z</time>
      </trkpt>
      <trkpt lat="40.812971" lon="-3.840632">
        <ele>2001.0</ele>
        <time>2018-04-21T07:25:46.000Z</time>
      </trkpt>
      <trkpt lat="40.812976" lon="-3.840636">
        <ele>2000.9</ele>
        <time>2018-04-21T07:25:47.000Z</time>
      </trkpt>
      <trkpt lat="40.812981" lon="-3.840639">
        <ele>2000.7</ele>
        <time>2018-04-21T07:25:48.000Z</time>
      </trkpt>
      <trkpt lat="40.812986" lon="-3.840643">
        <ele>2000.6</ele>
        <time>2018-04-21T07:25:49.000Z</time>
      </trkpt>
      <trkpt lat="40.81299" lon="-3.840646">
        <ele>2000.5</ele>
        <time>2018-04-21T07:25:50.000Z</time>
      </trkpt>
      <trkpt lat="40.812993" lon="-3.84065">
        <ele>2000.4</ele>
        <time>2018-04-21T07:25:51.000Z</time>
      </trkpt>
      <trkpt lat="40.812996" lon="-3.840653">
        <ele>2000.3</ele>
        <time>2018-04-21T07:25:52.000Z</time>
      </trkpt>
      <trkpt lat="40.812997" lon="-3.840657">
        <ele>2000.1</ele>
        <time>2018-04-21T07:25:53.000Z</time>
      </trkpt>
      <trkpt lat="40.812998" lon="-3.84066">
        <ele>2000.0</ele>
        <time>2018-04-21T07:25:54.000Z</time>
      </trkpt>
      <trkpt lat="40.812998" lon="-3.840664">
        <ele>1999.9</ele>
        <time>2018-04-21T07:25:55.000Z</time>
      </trkpt>
      <trkpt lat="40.812998" lon="-3.840669">
        <ele>1999.8</ele>
        <time>2018-04-21T07:25:56.000Z</time>
      </trkpt>
      <trkpt lat="40.812998" lon="-3.840673">
        <ele>1999.7</ele>
        <time>2018-04-21T07:25:57.000Z</time>
      </trkpt>
      <trkpt lat="40.812997" lon="-3.840678">
        <ele>1999.5</ele>
        <time>2018-04-21T07:25:58.000Z</time>
      </trkpt>
      <trkpt lat="40.812997" lon="-3.840684">
        <ele>1999.3</ele>
        <time>2018-04-21T07:25:59.000Z</time>
      </trkpt>
      <trkpt lat="40.812996" lon="-3.840689">
        <ele>1999.2</ele>
        <time>2018-04-21T07:26:00.000Z</time>
      </trkpt>
      <trkpt lat="40.812995" lon="-3.840695">
        <ele>1999.0</ele>
        <time>2018-04-21T07:26:01.000Z</time>
      </trkpt>
      <trkpt lat="40.812995" lon="-3.840702">
        <ele>1998.8</ele>
        <time>2018-04-21T07:26:02.000Z</time>
      </trkpt>
      <trkpt lat="40.812995" lon="-3.840708">
        <ele>1998.7</ele>
        <time>2018-04-21T07:26:03.000Z</time>
      </trkpt>
      <trkpt lat="40.812995" lon="-3.840714">
        <ele>1998.5</ele>
        <time>2018-04-21T07:26:04.000Z</time>
      </trkpt>
      <trkpt lat="40.812996" lon="-3.84072">
        <ele>1998.3</ele>
        <time>2018-04-21T07:26:05.000Z</time>
      </trkpt>
      <trkpt lat="40.812998" lon="-3.840725">
        <ele>1998.2</ele>
        <time>2018-04-21T07:26:06.000Z</time>
      </trkpt>
      <trkpt lat="40.813001" lon="-3.84073">
        <ele>1998.0</ele>
        <time>2018-04-21T07:26:07.000Z</time>
      </trkpt>
      <trkpt lat="40.813004" lon="-3.840735">
        <ele>1997.8</ele>
        <time>2018-04-21T07:26:08.000Z</time>
      </trkpt>
      <trkpt lat="40.813008" lon="-3.84074">
        <ele>1997.7</ele>
        <time>2018-04-21T07:26:09.000Z</time>
      </trkpt>
      <trkpt lat="40.813013" lon="-3.840744">
        <ele>1997.6</ele>
        <time>2018-04-21T07:26:10.000Z</time>
      </trkpt>
      <trkpt lat="40.813018" lon="-3.840748">
        <ele>1997.4</ele>
        <time>2018-04-21T07:26:11.000Z</time>
      </trkpt>
      <trkpt lat="40.813024" lon="-3.840752">
        <ele>1997.3</ele>
        <time>2018-04-21T07:26:12.000Z</time>
      </trkpt>
      <trkpt lat="40.813029" lon="-3.840756">
        <ele>1997.2</ele>
        <time>2018-04-21T07:26:13.000Z</time>
      </trkpt>
      <trkpt lat="40.813035" lon="-3.84076">
        <ele>1997.1</ele>
        <time>2018-04-21T07:26:14.000Z</time>
      </trkpt>
      <trkpt lat="40.81304" lon="-3.840765">
        <ele>1996.9</ele>
        <time>2018-04-21T07:26:15.000Z</time>
      </trkpt>
      <trkpt lat="40.813045" lon="-3.84077">
        <ele>1996.8</ele>
        <time>2018-04-21T07:26:16.000Z</time>
      </trkpt>
      <trkpt lat="40.813049" lon="-3.840775">
        <ele>1996.6</ele>
        <time>2018-04-21T07:26:17.000Z</time>
      </trkpt>
      <trkpt lat="40.813052" lon="-3.840781">
        <ele>1996.4</ele>
        <time>2018-04-21T07:26:18.000Z</time>
      </trkpt>
      <trkpt lat="40.813055" lon="-3.840787">
        <ele>1996.3</ele>
        <time>2018-04-21T07:26:19.000Z</time>
      </trkpt>
      <trkpt lat="40.813057" lon="-3.840794">
        <ele>1996.1</ele>
        <time>2018-04-21T07:26:20.000Z</time>
      </trkpt>
      <trkpt lat="40.813059" lon="-3.840801">
        <ele>1995.9</ele>
        <time>2018-04-21T07:26:21.000Z</time>
      </trkpt>
      <trkpt lat="40.813061" lon="-3.840808">
        <ele>1995.7</ele>
        <time>2018-04-21T07:26:22.000Z</time>
      </trkpt>
      <trkpt lat="40.813062" lon="-3.840816">
        <ele>1995.5</ele>
        <time>2018-04-21T07:26:23.000Z</time>
      </trkpt>
      <trkpt lat="40.813062" lon="-3.840824">
        <ele>1995.3</ele>
        <time>2018-04-21T07:26:24.000Z</time>
      </trkpt>
      <trkpt lat="40.813063" lon="-3.840832">
        <ele>1995.0</ele>
        <time>2018-04-21T07:26:25.000Z</time>
      </trkpt>
      <trkpt lat="40.813062" lon="-3.840841">
        <ele>1994.8</ele>
        <time>2018-04-21T07:26:26.000Z</time>
      </trkpt>
      <trkpt lat="40.813062" lon="-3.84085">
        <ele>1994.5</ele>
        <time>2018-04-21T07:26:27.000Z</time>
      </trkpt>
      <trkpt lat="40.813062" lon="-3.840859">
        <ele>1994.3</ele>
        <time>2018-04-21T07:26:28.000Z</time>
      </trkpt>
      <trkpt lat="40.813061" lon="-3.840868">
        <ele>1994.0</ele>
        <time>2018-04-21T07:26:29.000Z</time>
      </trkpt>
      <trkpt lat="40.81306" lon="-3.840878">
        <ele>1993.7</ele>
        <time>2018-04-21T07:26:30.000Z</time>
      </trkpt>
      <trkpt lat="40.813059" lon="-3.840887">
        <ele>1993.5</ele>
        <time>2018-04-21T07:26:31.000Z</time>
      </trkpt>
      <trkpt lat="40.813058" lon="-3.840897">
        <ele>1993.2</ele>
        <time>2018-04-21T07:26:32.000Z</time>
      </trkpt>
      <trkpt lat="40.813057" lon="-3.840907">
        <ele>1992.9</ele>
        <time>2018-04-21T07:26:33.000Z</time>
      </trkpt>
      <trkpt lat="40.813056" lon="-3.840918">
        <ele>1992.6</ele>
        <time>2018-04-21T07:26:34.000Z</time>
      </trkpt>
      <trkpt lat="40.813055" lon="-3.840928">
        <ele>1992.3</ele>
        <time>2018-04-21T07:26:35.000Z</time>
      </trkpt>
      <trkpt lat="40.813054" lon="-3.840938">
        <ele>1992.0</ele>
        <time>2018-04-21T07:26:36.000Z</time>
      </trkpt>
      <trkpt lat="40.813055" lon="-3.840947">
        <ele>1991.8</ele>
        <time>2018-04-21T07:26:37.000Z</time>
      </trkpt>
      <trkpt lat="40.813056" lon="-3.840956">
        <ele>1991.5</ele>
        <time>2018-04-21T07:26:38.000Z</time>
      </trkpt>
      <trkpt lat="40.813059" lon="-3.840964">
        <ele>1991.3</ele>
        <time>2018-04-21T07:26:39.000Z</time>
      </trkpt>
      <trkpt lat="40.813065" lon="-3.84097">
        <ele>1991.1</ele>
        <time>2018-04-21T07:26:40.000Z</time>
      </trkpt>
      <trkpt lat="40.813071" lon="-3.840975">
        <ele>1991.0</ele>
        <time>2018-04-21T07:26:41.000Z</time>
      </trkpt>
      <trkpt lat="40.81308" lon="-3.840978">
        <ele>1990.9</ele>
        <time>2018-04-21T07:26:42.000Z</time>
      </trkpt>
      <trkpt lat="40.81309" lon="-3.84098">
        <ele>1990.9</ele>
        <time>2018-04-21T07:26:43.000Z</time>
      </trkpt>
      <trkpt lat="40.813102" lon="-3.840981">
        <ele>1990.9</ele>
        <time>2018-04-21T07:26:44.000Z</time>
      </trkpt>
      <trkpt lat="40.813113" lon="-3.840981">
        <ele>1990.9</ele>
        <time>2018-04-21T07:26:45.000Z</time>
      </trkpt>
      <trkpt lat="40.813125" lon="-3.840981">
        <ele>1991.0</ele>
        <time>2018-04-21T07:26:46.000Z</time>
      </trkpt>
      <trkpt lat="40.813136" lon="-3.840981">
        <ele>1991.0</ele>
        <time>2018-04-21T07:26:47.000Z</time>
      </trkpt>
      <trkpt lat="40.813145" lon="-3.840983">
        <ele>1991.0</ele>
        <time>2018-04-21T07:26:48.000Z</time>
      </trkpt>
      <trkpt lat="40.813151" lon="-3.840987">
        <ele>1990.9</ele>
        <time>2018-04-21T07:26:49.000Z</time>
      </trkpt>
      <trkpt lat="40.813156" lon="-3.840992">
        <ele>1990.7</ele>
        <time>2018-04-21T07:26:50.000Z</time>
      </trkpt>
      <trkpt lat="40.813161" lon="-3.840999">
        <ele>1990.6</ele>
        <time>2018-04-21T07:26:51.000Z</time>
      </trkpt>
      <trkpt lat="40.813165" lon="-3.841007">
        <ele>1990.4</ele>
        <time>2018-04-21T07:26:52.000Z</time>
      </trkpt>
      <trkpt lat="40.81317" lon="-3.841015">
        <ele>1990.2</ele>
        <time>2018-04-21T07:26:53.000Z</time>
      </trkpt>
      <trkpt lat="40.813176" lon="-3.841023">
        <ele>1990.0</ele>
        <time>2018-04-21T07:26:54.000Z</time>
      </trkpt>
      <trkpt lat="40.813181" lon="-3.84103">
        <ele>1989.8</ele>
        <time>2018-04-21T07:26:55.000Z</time>
      </trkpt>
      <trkpt lat="40.813186" lon="-3.841036">
        <ele>1989.7</ele>
        <time>2018-04-21T07:26:56.000Z</time>
      </trkpt>
      <trkpt lat="40.813189" lon="-3.84104">
        <ele>1989.6</ele>
        <time>2018-04-21T07:26:57.000Z</time>
      </trkpt>
      <trkpt lat="40.81319" lon="-3.841041">
        <ele>1989.5</ele>
        <time>2018-04-21T07:26:58.000Z</time>
      </trkpt>
      <trkpt lat="40.81319" lon="-3.841041">
        <ele>1989.5</ele>
        <time>2018-04-21T07:26:59.000Z</time>
      </trkpt>
      <trkpt lat="40.81319" lon="-3.841041">
        <ele>1989.5</ele>
        <time>2018-04-21T07:27:00.000Z</time>
      </trkpt>
      <trkpt lat="40.813191" lon="-3.841043">
        <ele>1989.5</ele>
        <time>2018-04-21T07:27:01.000Z</time>
      </trkpt>
      <trkpt lat="40.813194" lon="-3.841048">
        <ele>1989.4</ele>
        <time>2018-04-21T07:27:02.000Z</time>
      </trkpt>
      <trkpt lat="40.813198" lon="-3.841056">
        <ele>1989.2</ele>
        <time>2018-04-21T07:27:03.000Z</time>
      </trkpt>
      <trkpt lat="40.813203" lon="-3.841065">
        <ele>1989.0</ele>
        <time>2018-04-21T07:27:04.000Z</time>
      </trkpt>
      <trkpt lat="40.813208" lon="-3.841075">
        <ele>1988.7</ele>
        <time>2018-04-21T07:27:05.000Z</time>
      </trkpt>
      <trkpt lat="40.813213" lon="-3.841084">
        <ele>1988.5</ele>
        <time>2018-04-21T07:27:06.000Z</time>
      </trkpt>
      <trkpt lat="40.813217" lon="-3.841092">
        <ele>1988.3</ele>
        <time>2018-04-21T07:27:07.000Z</time>
      </trkpt>
      <trkpt lat="40.813219" lon="-3.841099">
        <ele>1988.1</ele>
        <time>2018-04-21T07:27:08.000Z</time>
      </trkpt>
      <trkpt lat="40.813221" lon="-3.841105">
        <ele>1988.0</ele>
        <time>2018-04-21T07:27:09.000Z</time>
      </trkpt>
      <trkpt lat="40.813221" lon="-3.84111">
        <ele>1987.9</ele>
        <time>2018-04-21T07:27:10.000Z</time>
      </trkpt>
      <trkpt lat="40.813221" lon="-3.841115">
        <ele>1987.7</ele>
        <time>2018-04-21T07:27:11.000Z</time>
      </trkpt>
      <trkpt lat="40.813219" lon="-3.841119">
        <ele>1987.6</ele>
        <time>2018-04-21T07:27:12.000Z</time>
      </trkpt>
      <trkpt lat="40.813218" lon="-3.841124">
        <ele>1987.5</ele>
        <time>2018-04-21T07:27:13.000Z</time>
      </trkpt>
      <trkpt lat="40.813216" lon="-3.841128">
        <ele>1987.4</ele>
        <time>2018-04-21T07:27:14.000Z</time>
      </trkpt>
      <trkpt lat="40.813213" lon="-3.841132">
        <ele>1987.3</ele>
        <time>2018-04-21T07:27:15.000Z</time>
      </trkpt>
      <trkpt lat="40.813211" lon="-3.841137">
        <ele>1987.1</ele>
        <time>2018-04-21T07:27:16.000Z</time>
      </trkpt>
      <trkpt lat="40.813209" lon="-3.841142">
        <ele>1987.0</ele>
        <time>2018-04-21T07:27:17.000Z</time>
      </trkpt>
      <trkpt lat="40.813208" lon="-3.841147">
        <ele>1986.8</ele>
        <time>2018-04-21T07:27:18.000Z</time>
      </trkpt>
      <trkpt lat="40.813207" lon="-3.841153">
        <ele>1986.7</ele>
        <time>2018-04-21T07:27:19.000Z</time>
      </trkpt>
      <trkpt lat="40.813207" lon="-3.841159">
        <ele>1986.5</ele>
        <time>2018-04-21T07:27:20.000Z</time>
      </trkpt>
      <trkpt lat="40.813208" lon="-3.841166">
        <ele>1986.4</ele>
        <time>2018-04-21T07:27:21.000Z</time>
      </trkpt>
      <trkpt lat="40.813209" lon="-3.841173">
        <ele>1986.2</ele>
        <time>2018-04-21T07:27:22.000Z</time>
      </trkpt>
      <trkpt lat="40.81321" lon="-3.841182">
        <ele>1986.0</ele>
        <time>2018-04-21T07:27:23.000Z</time>
      </trkpt>
      <trkpt lat="40.813211" lon="-3.84119">
        <ele>1985.7</ele>
        <time>2018-04-21T07:27:24.000Z</time>
      </trkpt>
      <trkpt lat="40.813213" lon="-3.841199">
        <ele>1985.5</ele>
        <time>2018-04-21T07:27:25.000Z</time>
      </trkpt>
      <trkpt lat="40.813214" lon="-3.841209">
        <ele>1985.3</ele>
        <time>2018-04-21T07:27:26.000Z</time>
      </trkpt>
      <trkpt lat="40.813214" lon="-3.841219">
        <ele>1985.0</ele>
        <time>2018-04-21T07:27:27.000Z</time>
      </trkpt>
      <trkpt lat="40.813214" lon="-3.841229">
        <ele>1984.8</ele>
        <time>2018-04-21T07:27:28.000Z</time>
      </trkpt>
      <trkpt lat="40.813213" lon="-3.84124">
        <ele>1984.5</ele>
        <time>2018-04-21T07:27:29.000Z</time>
      </trkpt>
      <trkpt lat="40.813211" lon="-3.841251">
        <ele>1984.2</ele>
        <time>2018-04-21T07:27:30.000Z</time>
      </trkpt>
      <trkpt lat="40.813209" lon="-3.841262">
        <ele>1983.9</ele>
        <time>2018-04-21T07:27:31.000Z</time>
      </trkpt>
      <trkpt lat="40.813207" lon="-3.841273">
        <ele>1983.6</ele>
        <time>2018-04-21T07:27:32.000Z</time>
      </trkpt>
      <trkpt lat="40.813206" lon="-3.841283">
        <ele>1983.3</ele>
        <time>2018-04-21T07:27:33.000Z</time>
      </trkpt>
      <trkpt lat="40.813205" lon="-3.841293">
        <ele>1983.0</ele>
        <time>2018-04-21T07:27:34.000Z</time>
      </trkpt>
      <trkpt lat="40.813205" lon="-3.841302">
        <ele>1982.8</ele>
        <time>2018-04-21T07:27:35.000Z</time>
      </trkpt>
      <trkpt lat="40.813207" lon="-3.841309">
        <ele>1982.6</ele>
        <time>2018-04-21T07:27:36.000Z</time>
      </trkpt>
      <trkpt lat="40.81321" lon="-3.841316">
        <ele>1982.5</ele>
        <time>2018-04-21T07:27:37.000Z</time>
      </trkpt>
      <trkpt lat="40.813216" lon="-3.841321">
        <ele>1982.4</ele>
        <time>2018-04-21T07:27:38.000Z</time>
      </trkpt>
      <trkpt lat="40.813222" lon="-3.841325">
        <ele>1982.3</ele>
        <time>2018-04-21T07:27:39.000Z</time>
      </trkpt>
      <trkpt lat="40.813229" lon="-3.841329">
        <ele>1982.3</ele>
        <time>2018-04-21T07:27:40.000Z</time>
      </trkpt>
      <trkpt lat="40.813235" lon="-3.841333">
        <ele>1982.2</ele>
        <time>2018-04-21T07:27:41.000Z</time>
      </trkpt>
      <trkpt lat="40.813238" lon="-3.841338">
        <ele>1982.1</ele>
        <time>2018-04-21T07:27:42.000Z</time>
      </trkpt>
      <trkpt lat="40.813239" lon="-3.841345">
        <ele>1982.0</ele>
        <time>2018-04-21T07:27:43.000Z</time>
      </trkpt>
      <trkpt lat="40.813239" lon="-3.841353">
        <ele>1981.8</ele>
        <time>2018-04-21T07:27:44.000Z</time>
      </trkpt>
      <trkpt lat="40.813238" lon="-3.841361">
        <ele>1981.5</ele>
        <time>2018-04-21T07:27:45.000Z</time>
      </trkpt>
      <trkpt lat="40.813239" lon="-3.841371">
        <ele>1981.3</ele>
        <time>2018-04-21T07:27:46.000Z</time>
      </trkpt>
      <trkpt lat="40.813241" lon="-3.841381">
        <ele>1981.1</ele>
        <time>2018-04-21T07:27:47.000Z</time>
      </trkpt>
      <trkpt lat="40.813244" lon="-3.841391">
        <ele>1980.8</ele>
        <time>2018-04-21T07:27:48.000Z</time>
      </trkpt>
      <trkpt lat="40.813248" lon="-3.841401">
        <ele>1980.6</ele>
        <time>2018-04-21T07:27:49.000Z</time>
      </trkpt>
      <trkpt lat="40.813251" lon="-3.841412">
        <ele>1980.4</ele>
        <time>2018-04-21T07:27:50.000Z</time>
      </trkpt>
      <trkpt lat="40.813252" lon="-3.841423">
        <ele>1980.1</ele>
        <time>2018-04-21T07:27:51.000Z</time>
      </trkpt>
      <trkpt lat="40.813251" lon="-3.841435">
        <ele>1979.8</ele>
        <time>2018-04-21T07:27:52.000Z</time>
      </trkpt>
      <trkpt lat="40.813248" lon="-3.841447">
        <ele>1979.4</ele>
        <time>2018-04-21T07:27:53.000Z</time>
      </trkpt>
      <trkpt lat="40.813245" lon="-3.841459">
        <ele>1979.1</ele>
        <time>2018-04-21T07:27:54.000Z</time>
      </trkpt>
      <trkpt lat="40.813242" lon="-3.841472">
        <ele>1978.7</ele>
        <time>2018-04-21T07:27:55.000Z</time>
      </trkpt>
      <trkpt lat="40.81324" lon="-3.841484">
        <ele>1978.4</ele>
        <time>2018-04-21T07:27:56.000Z</time>
      </trkpt>
      <trkpt lat="40.81324" lon="-3.841497">
        <ele>1978.1</ele>
        <time>2018-04-21T07:27:57.000Z</time>
      </trkpt>
      <trkpt lat="40.813241" lon="-3.84151">
        <ele>1977.8</ele>
        <time>2018-04-21T07:27:58.000Z</time>
      </trkpt>
      <trkpt lat="40.813243" lon="-3.841523">
        <ele>1977.5</ele>
        <time>2018-04-21T07:27:59.000Z</time>
      </trkpt>
      <trkpt lat="40.813246" lon="-3.841536">
        <ele>1977.2</ele>
        <time>2018-04-21T07:28:00.000Z</time>
      </trkpt>
      <trkpt lat="40.81325" lon="-3.84155">
        <ele>1976.9</ele>
        <time>2018-04-21T07:28:01.000Z</time>
      </trkpt>
      <trkpt lat="40.813255" lon="-3.841563">
        <ele>1976.6</ele>
        <time>2018-04-21T07:28:02.000Z</time>
      </trkpt>
      <trkpt lat="40.81326" lon="-3.841577">
        <ele>1976.3</ele>
        <time>2018-04-21T07:28:03.000Z</time>
      </trkpt>
      <trkpt lat="40.813266" lon="-3.841592">
        <ele>1976.0</ele>
        <time>2018-04-21T07:28:04.000Z</time>
      </trkpt>
      <trkpt lat="40.813272" lon="-3.841606">
        <ele>1975.7</ele>
        <time>2018-04-21T07:28:05.000Z</time>
      </trkpt>
      <trkpt lat="40.813278" lon="-3.841621">
        <ele>1975.4</ele>
        <time>2018-04-21T07:28:06.000Z</time>
      </trkpt>
      <trkpt lat="40.813284" lon="-3.841636">
        <ele>1975.1</ele>
        <time>2018-04-21T07:28:07.000Z</time>
      </trkpt>
      <trkpt lat="40.813289" lon="-3.841651">
        <ele>1974.8</ele>
        <time>2018-04-21T07:28:08.000Z</time>
      </trkpt>
      <trkpt lat="40.813293" lon="-3.841665">
        <ele>1974.5</ele>
        <time>2018-04-21T07:28:09.000Z</time>
      </trkpt>
      <trkpt lat="40.813296" lon="-3.841679">
        <ele>1974.3</ele>
        <time>2018-04-21T07:28:10.000Z</time>
      </trkpt>
      <trkpt lat="40.813298" lon="-3.841692">
        <ele>1974.2</ele>
        <time>2018-04-21T07:28:11.000Z</time>
      </trkpt>
      <trkpt lat="40.813299" lon="-3.841705">
        <ele>1974.0</ele>
        <time>2018-04-21T07:28:12.000Z</time>
      </trkpt>
      <trkpt lat="40.813299" lon="-3.841718">
        <ele>1973.9</ele>
        <time>2018-04-21T07:28:13.000Z</time>
      </trkpt>
      <trkpt lat="40.813299" lon="-3.841731">
        <ele>1973.7</ele>
        <time>2018-04-21T07:28:14.000Z</time>
      </trkpt>
      <trkpt lat="40.813297" lon="-3.841744">
        <ele>1973.5</ele>
        <time>2018-04-21T07:28:15.000Z</time>
      </trkpt>
      <trkpt lat="40.813296" lon="-3.841757">
        <ele>1973.3</ele>
        <time>2018-04-21T07:28:16.000Z</time>
      </trkpt>
      <trkpt lat="40.813293" lon="-3.84177">
        <ele>1973.1</ele>
        <time>2018-04-21T07:28:17.000Z</time>
      </trkpt>
      <trkpt lat="40.813291" lon="-3.841784">
        <ele>1972.9</ele>
        <time>2018-04-21T07:28:18.000Z</time>
      </trkpt>
      <trkpt lat="40.813289" lon="-3.841797">
        <ele>1972.7</ele>
        <time>2018-04-21T07:28:19.000Z</time>
      </trkpt>
      <trkpt lat="40.813288" lon="-3.84181">
        <ele>1972.5</ele>
        <time>2018-04-21T07:28:20.000Z</time>
      </trkpt>
      <trkpt lat="40.813286" lon="-3.841823">
        <ele>1972.2</ele>
        <time>2018-04-21T07:28:21.000Z</time>
      </trkpt>
      <trkpt lat="40.813286" lon="-3.841836">
        <ele>1972.1</ele>
        <time>2018-04-21T07:28:22.000Z</time>
      </trkpt>
      <trkpt lat="40.813286" lon="-3.841848">
        <ele>1971.9</ele>
        <time>2018-04-21T07:28:23.000Z</time>
      </trkpt>
      <trkpt lat="40.813287" lon="-3.84186">
        <ele>1971.8</ele>
        <time>2018-04-21T07:28:24.000Z</time>
      </trkpt>
      <trkpt lat="40.813289" lon="-3.841871">
        <ele>1971.6</ele>
        <time>2018-04-21T07:28:25.000Z</time>
      </trkpt>
      <trkpt lat="40.813292" lon="-3.841882">
        <ele>1971.6</ele>
        <time>2018-04-21T07:28:26.000Z</time>
      </trkpt>
      <trkpt lat="40.813295" lon="-3.841893">
        <ele>1971.5</ele>
        <time>2018-04-21T07:28:27.000Z</time>
      </trkpt>
      <trkpt lat="40.813299" lon="-3.841904">
        <ele>1971.4</ele>
        <time>2018-04-21T07:28:28.000Z</time>
      </trkpt>
      <trkpt lat="40.813303" lon="-3.841914">
        <ele>1971.4</ele>
        <time>2018-04-21T07:28:29.000Z</time>
      </trkpt>
      <trkpt lat="40.813306" lon="-3.841924">
        <ele>1971.3</ele>
        <time>2018-04-21T07:28:30.000Z</time>
      </trkpt>
      <trkpt lat="40.813309" lon="-3.841935">
        <ele>1971.2</ele>
        <time>2018-04-21T07:28:31.000Z</time>
      </trkpt>
      <trkpt lat="40.813312" lon="-3.841945">
        <ele>1971.2</ele>
        <time>2018-04-21T07:28:32.000Z</time>
      </trkpt>
      <trkpt lat="40.813314" lon="-3.841955">
        <ele>1971.1</ele>
        <time>2018-04-21T07:28:33.000Z</time>
      </trkpt>
      <trkpt lat="40.813316" lon="-3.841966">
        <ele>1971.0</ele>
        <time>2018-04-21T07:28:34.000Z</time>
      </trkpt>
      <trkpt lat="40.813317" lon="-3.841976">
        <ele>1970.9</ele>
        <time>2018-04-21T07:28:35.000Z</time>
      </trkpt>
      <trkpt lat="40.813317" lon="-3.841987">
        <ele>1970.8</ele>
        <time>2018-04-21T07:28:36.000Z</time>
      </trkpt>
      <trkpt lat="40.813317" lon="-3.841997">
        <ele>1970.6</ele>
        <time>2018-04-21T07:28:37.000Z</time>
      </trkpt>
      <trkpt lat="40.813317" lon="-3.842007">
        <ele>1970.5</ele>
        <time>2018-04-21T07:28:38.000Z</time>
      </trkpt>
      <trkpt lat="40.813317" lon="-3.842018">
        <ele>1970.4</ele>
        <time>2018-04-21T07:28:39.000Z</time>
      </trkpt>
      <trkpt lat="40.813317" lon="-3.842028">
        <ele>1970.2</ele>
        <time>2018-04-21T07:28:40.000Z</time>
      </trkpt>
      <trkpt lat="40.813316" lon="-3.842038">
        <ele>1970.1</ele>
        <time>2018-04-21T07:28:41.000Z</time>
      </trkpt>
      <trkpt lat="40.813316" lon="-3.842049">
        <ele>1970.0</ele>
        <time>2018-04-21T07:28:42.000Z</time>
      </trkpt>
      <trkpt lat="40.813316" lon="-3.842059">
        <ele>1969.8</ele>
        <time>2018-04-21T07:28:43.000Z</time>
      </trkpt>
      <trkpt lat="40.813315" lon="-3.842069">
        <ele>1969.7</ele>
        <time>2018-04-21T07:28:44.000Z</time>
      </trkpt>
      <trkpt lat="40.813315" lon="-3.842078">
        <ele>1969.6</ele>
        <time>2018-04-21T07:28:45.000Z</time>
      </trkpt>
      <trkpt lat="40.813315" lon="-3.842088">
        <ele>1969.4</ele>
        <time>2018-04-21T07:28:46.000Z</time>
      </trkpt>
      <trkpt lat="40.813314" lon="-3.842097">
        <ele>1969.3</ele>
        <time>2018-04-21T07:28:47.000Z</time>
      </trkpt>
      <trkpt lat="40.813314" lon="-3.842106">
        <ele>1969.2</ele>
        <time>2018-04-21T07:28:48.000Z</time>
      </trkpt>
      <trkpt lat="40.813313" lon="-3.842114">
        <ele>1969.0</ele>
        <time>2018-04-21T07:28:49.000Z</time>
      </trkpt>
      <trkpt lat="40.813312" lon="-3.842122">
        <ele>1968.9</ele>
        <time>2018-04-21T07:28:50.000Z</time>
      </trkpt>
      <trkpt lat="40.813311" lon="-3.84213">
        <ele>1968.8</ele>
        <time>2018-04-21T07:28:51.000Z</time>
      </trkpt>
      <trkpt lat="40.813311" lon="-3.842137">
        <ele>1968.7</ele>
        <time>2018-04-21T07:28:52.000Z</time>
      </trkpt>
      <trkpt lat="40.813311" lon="-3.842144">
        <ele>1968.6</ele>
        <time>2018-04-21T07:28:53.000Z</time>
      </trkpt>
      <trkpt lat="40.813312" lon="-3.842151">
        <ele>1968.5</ele>
        <time>2018-04-21T07:28:54.000Z</time>
      </trkpt>
      <trkpt lat="40.813315" lon="-3.842159">
        <ele>1968.5</ele>
        <time>2018-04-21T07:28:55.000Z</time>
      </trkpt>
      <trkpt lat="40.81332" lon="-3.842166">
        <ele>1968.6</ele>
        <time>2018-04-21T07:28:56.000Z</time>
      </trkpt>
      <trkpt lat="40.813327" lon="-3.842175">
        <ele>1968.7</ele>
        <time>2018-04-21T07:28:57.000Z</time>
      </trkpt>
      <trkpt lat="40.813333" lon="-3.842183">
        <ele>1968.8</ele>
        <time>2018-04-21T07:28:58.000Z</time>
      </trkpt>
      <trkpt lat="40.81334" lon="-3.842192">
        <ele>1968.5</ele>
        <time>2018-04-21T07:28:59.000Z</time>
      </trkpt>
      <trkpt lat="40.813345" lon="-3.8422">
        <ele>1968.3</ele>
        <time>2018-04-21T07:29:00.000Z</time>
      </trkpt>
      <trkpt lat="40.813349" lon="-3.842209">
        <ele>1968.1</ele>
        <time>2018-04-21T07:29:01.000Z</time>
      </trkpt>
      <trkpt lat="40.813352" lon="-3.842219">
        <ele>1967.9</ele>
        <time>2018-04-21T07:29:02.000Z</time>
      </trkpt>
      <trkpt lat="40.813354" lon="-3.842228">
        <ele>1967.8</ele>
        <time>2018-04-21T07:29:03.000Z</time>
      </trkpt>
      <trkpt lat="40.813356" lon="-3.842238">
        <ele>1967.6</ele>
        <time>2018-04-21T07:29:04.000Z</time>
      </trkpt>
      <trkpt lat="40.813356" lon="-3.842247">
        <ele>1967.5</ele>
        <time>2018-04-21T07:29:05.000Z</time>
      </trkpt>
      <trkpt lat="40.813357" lon="-3.842257">
        <ele>1967.4</ele>
        <time>2018-04-21T07:29:06.000Z</time>
      </trkpt>
      <trkpt lat="40.813357" lon="-3.842268">
        <ele>1967.2</ele>
        <time>2018-04-21T07:29:07.000Z</time>
      </trkpt>
      <trkpt lat="40.813356" lon="-3.842278">
        <ele>1967.1</ele>
        <time>2018-04-21T07:29:08.000Z</time>
      </trkpt>
      <trkpt lat="40.813356" lon="-3.842289">
        <ele>1967.0</ele>
        <time>2018-04-21T07:29:09.000Z</time>
      </trkpt>
      <trkpt lat="40.813356" lon="-3.8423">
        <ele>1966.9</ele>
        <time>2018-04-21T07:29:10.000Z</time>
      </trkpt>
      <trkpt lat="40.813356" lon="-3.842311">
        <ele>1966.7</ele>
        <time>2018-04-21T07:29:11.000Z</time>
      </trkpt>
      <trkpt lat="40.813356" lon="-3.842322">
        <ele>1966.6</ele>
        <time>2018-04-21T07:29:12.000Z</time>
      </trkpt>
      <trkpt lat="40.813358" lon="-3.842333">
        <ele>1966.4</ele>
        <time>2018-04-21T07:29:13.000Z</time>
      </trkpt>
      <trkpt lat="40.81336" lon="-3.842343">
        <ele>1966.3</ele>
        <time>2018-04-21T07:29:14.000Z</time>
      </trkpt>
      <trkpt lat="40.813363" lon="-3.842354">
        <ele>1966.0</ele>
        <time>2018-04-21T07:29:15.000Z</time>
      </trkpt>
      <trkpt lat="40.813366" lon="-3.842365">
        <ele>1965.8</ele>
        <time>2018-04-21T07:29:16.000Z</time>
      </trkpt>
      <trkpt lat="40.81337" lon="-3.842376">
        <ele>1965.6</ele>
        <time>2018-04-21T07:29:17.000Z</time>
      </trkpt>
      <trkpt lat="40.813373" lon="-3.842388">
        <ele>1965.4</ele>
        <time>2018-04-21T07:29:18.000Z</time>
      </trkpt>
      <trkpt lat="40.813376" lon="-3.842399">
        <ele>1965.2</ele>
        <time>2018-04-21T07:29:19.000Z</time>
      </trkpt>
      <trkpt lat="40.813379" lon="-3.842411">
        <ele>1965.0</ele>
        <time>2018-04-21T07:29:20.000Z</time>
      </trkpt>
      <trkpt lat="40.813382" lon="-3.842423">
        <ele>1964.8</ele>
        <time>2018-04-21T07:29:21.000Z</time>
      </trkpt>
      <trkpt lat="40.813386" lon="-3.842435">
        <ele>1964.5</ele>
        <time>2018-04-21T07:29:22.000Z</time>
      </trkpt>
      <trkpt lat="40.81339" lon="-3.842447">
        <ele>1964.3</ele>
        <time>2018-04-21T07:29:23.000Z</time>
      </trkpt>
      <trkpt lat="40.813394" lon="-3.84246">
        <ele>1964.0</ele>
        <time>2018-04-21T07:29:24.000Z</time>
      </trkpt>
      <trkpt lat="40.813399" lon="-3.842474">
        <ele>1963.7</ele>
        <time>2018-04-21T07:29:25.000Z</time>
      </trkpt>
      <trkpt lat="40.813405" lon="-3.842487">
        <ele>1963.4</ele>
        <time>2018-04-21T07:29:26.000Z</time>
      </trkpt>
      <trkpt lat="40.813411" lon="-3.842501">
        <ele>1963.1</ele>
        <time>2018-04-21T07:29:27.000Z</time>
      </trkpt>
      <trkpt lat="40.813418" lon="-3.842515">
        <ele>1962.9</ele>
        <time>2018-04-21T07:29:28.000Z</time>
      </trkpt>
      <trkpt lat="40.813425" lon="-3.84253">
        <ele>1962.7</ele>
        <time>2018-04-21T07:29:29.000Z</time>
      </trkpt>
      <trkpt lat="40.813432" lon="-3.842544">
        <ele>1962.6</ele>
        <time>2018-04-21T07:29:30.000Z</time>
      </trkpt>
      <trkpt lat="40.81344" lon="-3.842557">
        <ele>1962.3</ele>
        <time>2018-04-21T07:29:31.000Z</time>
      </trkpt>
      <trkpt lat="40.813448" lon="-3.842571">
        <ele>1962.1</ele>
        <time>2018-04-21T07:29:32.000Z</time>
      </trkpt>
      <trkpt lat="40.813455" lon="-3.842583">
        <ele>1962.0</ele>
        <time>2018-04-21T07:29:33.000Z</time>
      </trkpt>
      <trkpt lat="40.813462" lon="-3.842595">
        <ele>1961.8</ele>
        <time>2018-04-21T07:29:34.000Z</time>
      </trkpt>
      <trkpt lat="40.813469" lon="-3.842607">
        <ele>1961.6</ele>
        <time>2018-04-21T07:29:35.000Z</time>
      </trkpt>
      <trkpt lat="40.813476" lon="-3.842617">
        <ele>1961.4</ele>
        <time>2018-04-21T07:29:36.000Z</time>
      </trkpt>
      <trkpt lat="40.813482" lon="-3.842628">
        <ele>1961.3</ele>
        <time>2018-04-21T07:29:37.000Z</time>
      </trkpt>
      <trkpt lat="40.813488" lon="-3.842637">
        <ele>1961.1</ele>
        <time>2018-04-21T07:29:38.000Z</time>
      </trkpt>
      <trkpt lat="40.813493" lon="-3.842646">
        <ele>1961.0</ele>
        <time>2018-04-21T07:29:39.000Z</time>
      </trkpt>
      <trkpt lat="40.813497" lon="-3.842654">
        <ele>1960.9</ele>
        <time>2018-04-21T07:29:40.000Z</time>
      </trkpt>
      <trkpt lat="40.813501" lon="-3.842662">
        <ele>1960.8</ele>
        <time>2018-04-21T07:29:41.000Z</time>
      </trkpt>
      <trkpt lat="40.813503" lon="-3.842668">
        <ele>1960.7</ele>
        <time>2018-04-21T07:29:42.000Z</time>
      </trkpt>
      <trkpt lat="40.813505" lon="-3.842674">
        <ele>1960.7</ele>
        <time>2018-04-21T07:29:43.000Z</time>
      </trkpt>
      <trkpt lat="40.813506" lon="-3.842678">
        <ele>1960.7</ele>
        <time>2018-04-21T07:29:44.000Z</time>
      </trkpt>
      <trkpt lat="40.813506" lon="-3.842682">
        <ele>1960.6</ele>
        <time>2018-04-21T07:29:45.000Z</time>
      </trkpt>
      <trkpt lat="40.813505" lon="-3.842685">
        <ele>1960.7</ele>
        <time>2018-04-21T07:29:46.000Z</time>
      </trkpt>
      <trkpt lat="40.813504" lon="-3.842687">
        <ele>1960.7</ele>
        <time>2018-04-21T07:29:47.000Z</time>
      </trkpt>
      <trkpt lat="40.813502" lon="-3.842689">
        <ele>1960.7</ele>
        <time>2018-04-21T07:29:48.000Z</time>
      </trkpt>
      <trkpt lat="40.813501" lon="-3.842692">
        <ele>1960.7</ele>
        <time>2018-04-21T07:29:49.000Z</time>
      </trkpt>
      <trkpt lat="40.813499" lon="-3.842694">
        <ele>1960.8</ele>
        <time>2018-04-21T07:29:50.000Z</time>
      </trkpt>
      <trkpt lat="40.813498" lon="-3.842698">
        <ele>1960.8</ele>
        <time>2018-04-21T07:29:51.000Z</time>
      </trkpt>
      <trkpt lat="40.813498" lon="-3.842702">
        <ele>1960.8</ele>
        <time>2018-04-21T07:29:52.000Z</time>
      </trkpt>
      <trkpt lat="40.813498" lon="-3.842707">
        <ele>1960.8</ele>
        <time>2018-04-21T07:29:53.000Z</time>
      </trkpt>
      <trkpt lat="40.813499" lon="-3.842714">
        <ele>1960.8</ele>
        <time>2018-04-21T07:29:54.000Z</time>
      </trkpt>
      <trkpt lat="40.813502" lon="-3.842722">
        <ele>1960.7</ele>
        <time>2018-04-21T07:29:55.000Z</time>
      </trkpt>
      <trkpt lat="40.813505" lon="-3.842731">
        <ele>1960.6</ele>
        <time>2018-04-21T07:29:56.000Z</time>
      </trkpt>
      <trkpt lat="40.813509" lon="-3.842741">
        <ele>1960.5</ele>
        <time>2018-04-21T07:29:57.000Z</time>
      </trkpt>
      <trkpt lat="40.813513" lon="-3.842751">
        <ele>1960.4</ele>
        <time>2018-04-21T07:29:58.000Z</time>
      </trkpt>
      <trkpt lat="40.813517" lon="-3.842761">
        <ele>1960.3</ele>
        <time>2018-04-21T07:29:59.000Z</time>
      </trkpt>
      <trkpt lat="40.81352" lon="-3.842771">
        <ele>1960.2</ele>
        <time>2018-04-21T07:30:00.000Z</time>
      </trkpt>
      <trkpt lat="40.813524" lon="-3.84278">
        <ele>1960.1</ele>
        <time>2018-04-21T07:30:01.000Z</time>
      </trkpt>
      <trkpt lat="40.813527" lon="-3.842788">
        <ele>1960.1</ele>
        <time>2018-04-21T07:30:02.000Z</time>
      </trkpt>
      <trkpt lat="40.81353" lon="-3.842795">
        <ele>1960.0</ele>
        <time>2018-04-21T07:30:03.000Z</time>
      </trkpt>
      <trkpt lat="40.813532" lon="-3.842801">
        <ele>1959.9</ele>
        <time>2018-04-21T07:30:04.000Z</time>
      </trkpt>
      <trkpt lat="40.813533" lon="-3.842806">
        <ele>1959.9</ele>
        <time>2018-04-21T07:30:05.000Z</time>
      </trkpt>
      <trkpt lat="40.813535" lon="-3.842811">
        <ele>1959.9</ele>
        <time>2018-04-21T07:30:06.000Z</time>
      </trkpt>
      <trkpt lat="40.813537" lon="-3.842814">
        <ele>1959.8</ele>
        <time>2018-04-21T07:30:07.000Z</time>
      </trkpt>
      <trkpt lat="40.813539" lon="-3.842816">
        <ele>1959.8</ele>
        <time>2018-04-21T07:30:08.000Z</time>
      </trkpt>
      <trkpt lat="40.813541" lon="-3.842818">
        <ele>1959.7</ele>
        <time>2018-04-21T07:30:09.000Z</time>
      </trkpt>
      <trkpt lat="40.813544" lon="-3.842819">
        <ele>1959.7</ele>
        <time>2018-04-21T07:30:10.000Z</time>
      </trkpt>
      <trkpt lat="40.813549" lon="-3.842819">
        <ele>1959.6</ele>
        <time>2018-04-21T07:30:11.000Z</time>
      </trkpt>
      <trkpt lat="40.813554" lon="-3.842819">
        <ele>1959.4</ele>
        <time>2018-04-21T07:30:12.000Z</time>
      </trkpt>
      <trkpt lat="40.81356" lon="-3.842819">
        <ele>1959.3</ele>
        <time>2018-04-21T07:30:13.000Z</time>
      </trkpt>
      <trkpt lat="40.813566" lon="-3.842818">
        <ele>1959.2</ele>
        <time>2018-04-21T07:30:14.000Z</time>
      </trkpt>
      <trkpt lat="40.813572" lon="-3.842816">
        <ele>1959.1</ele>
        <time>2018-04-21T07:30:15.000Z</time>
      </trkpt>
      <trkpt lat="40.813578" lon="-3.842814">
        <ele>1958.9</ele>
        <time>2018-04-21T07:30:16.000Z</time>
      </trkpt>
      <trkpt lat="40.813583" lon="-3.842812">
        <ele>1958.8</ele>
        <time>2018-04-21T07:30:17.000Z</time>
      </trkpt>
      <trkpt lat="40.813587" lon="-3.842809">
        <ele>1958.7</ele>
        <time>2018-04-21T07:30:18.000Z</time>
      </trkpt>
      <trkpt lat="40.81359" lon="-3.842807">
        <ele>1958.7</ele>
        <time>2018-04-21T07:30:19.000Z</time>
      </trkpt>
      <trkpt lat="40.813593" lon="-3.842805">
        <ele>1958.6</ele>
        <time>2018-04-21T07:30:20.000Z</time>
      </trkpt>
      <trkpt lat="40.813594" lon="-3.842803">
        <ele>1958.6</ele>
        <time>2018-04-21T07:30:21.000Z</time>
      </trkpt>
      <trkpt lat="40.813594" lon="-3.842803">
        <ele>1958.6</ele>
        <time>2018-04-21T07:30:22.000Z</time>
      </trkpt>
      <trkpt lat="40.813594" lon="-3.842802">
        <ele>1958.6</ele>
        <time>2018-04-21T07:30:23.000Z</time>
      </trkpt>
      <trkpt lat="40.813594" lon="-3.842803">
        <ele>1958.6</ele>
        <time>2018-04-21T07:30:24.000Z</time>
      </trkpt>
      <trkpt lat="40.813593" lon="-3.842803">
        <ele>1958.6</ele>
        <time>2018-04-21T07:30:25.000Z</time>
      </trkpt>
      <trkpt lat="40.813592" lon="-3.842804">
        <ele>1958.6</ele>
        <time>2018-04-21T07:30:26.000Z</time>
      </trkpt>
      <trkpt lat="40.813591" lon="-3.842804">
        <ele>1958.7</ele>
        <time>2018-04-21T07:30:27.000Z</time>
      </trkpt>
      <trkpt lat="40.813591" lon="-3.842805">
        <ele>1958.6</ele>
        <time>2018-04-21T07:31:07.000Z</time>
      </trkpt>
      <trkpt lat="40.813591" lon="-3.842805">
        <ele>1958.6</ele>
        <time>2018-04-21T07:31:08.000Z</time>
      </trkpt>
      <trkpt lat="40.813592" lon="-3.842805">
        <ele>1958.6</ele>
        <time>2018-04-21T07:31:09.000Z</time>
      </trkpt>
      <trkpt lat="40.813593" lon="-3.842805">
        <ele>1958.6</ele>
        <time>2018-04-21T07:31:10.000Z</time>
      </trkpt>
      <trkpt lat="40.813595" lon="-3.842805">
        <ele>1958.6</ele>
        <time>2018-04-21T07:31:11.000Z</time>
      </trkpt>
      <trkpt lat="40.813597" lon="-3.842805">
        <ele>1958.5</ele>
        <time>2018-04-21T07:31:12.000Z</time>
      </trkpt>
      <trkpt lat="40.8136" lon="-3.842805">
        <ele>1958.5</ele>
        <time>2018-04-21T07:31:13.000Z</time>
      </trkpt>
      <trkpt lat="40.813602" lon="-3.842804">
        <ele>1958.4</ele>
        <time>2018-04-21T07:31:14.000Z</time>
      </trkpt>
      <trkpt lat="40.813605" lon="-3.842804">
        <ele>1958.3</ele>
        <time>2018-04-21T07:31:15.000Z</time>
      </trkpt>
      <trkpt lat="40.813608" lon="-3.842805">
        <ele>1958.3</ele>
        <time>2018-04-21T07:31:16.000Z</time>
      </trkpt>
      <trkpt lat="40.813611" lon="-3.842805">
        <ele>1958.2</ele>
        <time>2018-04-21T07:31:17.000Z</time>
      </trkpt>
      <trkpt lat="40.813614" lon="-3.842806">
        <ele>1958.1</ele>
        <time>2018-04-21T07:31:18.000Z</time>
      </trkpt>
      <trkpt lat="40.813617" lon="-3.842807">
        <ele>1958.1</ele>
        <time>2018-04-21T07:31:19.000Z</time>
      </trkpt>
      <trkpt lat="40.81362" lon="-3.842809">
        <ele>1958.0</ele>
        <time>2018-04-21T07:31:20.000Z</time>
      </trkpt>
      <trkpt lat="40.813622" lon="-3.84281">
        <ele>1958.0</ele>
        <time>2018-04-21T07:31:21.000Z</time>
      </trkpt>
      <trkpt lat="40.813624" lon="-3.842812">
        <ele>1957.9</ele>
        <time>2018-04-21T07:31:22.000Z</time>
      </trkpt>
      <trkpt lat="40.813626" lon="-3.842813">
        <ele>1957.9</ele>
        <time>2018-04-21T07:31:23.000Z</time>
      </trkpt>
      <trkpt lat="40.813628" lon="-3.842815">
        <ele>1957.8</ele>
        <time>2018-04-21T07:31:24.000Z</time>
      </trkpt>
      <trkpt lat="40.813629" lon="-3.842816">
        <ele>1957.8</ele>
        <time>2018-04-21T07:31:25.000Z</time>
      </trkpt>
      <trkpt lat="40.81363" lon="-3.842818">
        <ele>1957.8</ele>
        <time>2018-04-21T07:31:26.000Z</time>
      </trkpt>
      <trkpt lat="40.813631" lon="-3.842818">
        <ele>1957.8</ele>
        <time>2018-04-21T07:31:27.000Z</time>
      </trkpt>
      <trkpt lat="40.813632" lon="-3.842819">
        <ele>1957.8</ele>
        <time>2018-04-21T07:31:28.000Z</time>
      </trkpt>
      <trkpt lat="40.813632" lon="-3.842819">
        <ele>1957.8</ele>
        <time>2018-04-21T07:31:29.000Z</time>
      </trkpt>
      <trkpt lat="40.813632" lon="-3.842819">
        <ele>1957.8</ele>
        <time>2018-04-21T07:31:30.000Z</time>
      </trkpt>
      <trkpt lat="40.813632" lon="-3.842819">
        <ele>1957.8</ele>
        <time>2018-04-21T07:31:31.000Z</time>
      </trkpt>
      <trkpt lat="40.813631" lon="-3.842819">
        <ele>1957.8</ele>
        <time>2018-04-21T07:31:32.000Z</time>
      </trkpt>
      <trkpt lat="40.813631" lon="-3.842819">
        <ele>1957.8</ele>
        <time>2018-04-21T07:31:33.000Z</time>
      </trkpt>
      <trkpt lat="40.813631" lon="-3.842818">
        <ele>1957.8</ele>
        <time>2018-04-21T07:31:34.000Z</time>
      </trkpt>
      <trkpt lat="40.81363" lon="-3.842818">
        <ele>1957.8</ele>
        <time>2018-04-21T07:31:35.000Z</time>
      </trkpt>
      <trkpt lat="40.81363" lon="-3.842818">
        <ele>1957.8</ele>
        <time>2018-04-21T07:31:36.000Z</time>
      </trkpt>
      <trkpt lat="40.81363" lon="-3.842818">
        <ele>1957.8</ele>
        <time>2018-04-21T07:31:37.000Z</time>
      </trkpt>
      <trkpt lat="40.81363" lon="-3.842818">
        <ele>1957.8</ele>
        <time>2018-04-21T07:31:38.000Z</time>
      </trkpt>
      <trkpt lat="40.81363" lon="-3.842819">
        <ele>1957.8</ele>
        <time>2018-04-21T07:31:39.000Z</time>
      </trkpt>
      <trkpt lat="40.813631" lon="-3.84282">
        <ele>1957.8</ele>
        <time>2018-04-21T07:31:40.000Z</time>
      </trkpt>
      <trkpt lat="40.813631" lon="-3.842821">
        <ele>1957.8</ele>
        <time>2018-04-21T07:31:41.000Z</time>
      </trkpt>
      <trkpt lat="40.813633" lon="-3.842823">
        <ele>1957.7</ele>
        <time>2018-04-21T07:31:42.000Z</time>
      </trkpt>
      <trkpt lat="40.813635" lon="-3.842826">
        <ele>1957.7</ele>
        <time>2018-04-21T07:31:43.000Z</time>
      </trkpt>
      <trkpt lat="40.813637" lon="-3.84283">
        <ele>1957.6</ele>
        <time>2018-04-21T07:31:44.000Z</time>
      </trkpt>
      <trkpt lat="40.81364" lon="-3.842834">
        <ele>1957.6</ele>
        <time>2018-04-21T07:31:45.000Z</time>
      </trkpt>
      <trkpt lat="40.813643" lon="-3.842839">
        <ele>1957.5</ele>
        <time>2018-04-21T07:31:46.000Z</time>
      </trkpt>
      <trkpt lat="40.813646" lon="-3.842843">
        <ele>1957.4</ele>
        <time>2018-04-21T07:31:47.000Z</time>
      </trkpt>
      <trkpt lat="40.813649" lon="-3.842847">
        <ele>1957.4</ele>
        <time>2018-04-21T07:31:48.000Z</time>
      </trkpt>
      <trkpt lat="40.81365" lon="-3.84285">
        <ele>1957.4</ele>
        <time>2018-04-21T07:31:49.000Z</time>
      </trkpt>
      <trkpt lat="40.813651" lon="-3.842851">
        <ele>1957.3</ele>
        <time>2018-04-21T07:31:50.000Z</time>
      </trkpt>
      <trkpt lat="40.813651" lon="-3.842851">
        <ele>1957.3</ele>
        <time>2018-04-21T07:31:51.000Z</time>
      </trkpt>
      <trkpt lat="40.813651" lon="-3.842851">
        <ele>1957.3</ele>
        <time>2018-04-21T07:31:52.000Z</time>
      </trkpt>
      <trkpt lat="40.813651" lon="-3.842851">
        <ele>1957.3</ele>
        <time>2018-04-21T07:31:53.000Z</time>
      </trkpt>
      <trkpt lat="40.813651" lon="-3.842852">
        <ele>1957.3</ele>
        <time>2018-04-21T07:31:54.000Z</time>
      </trkpt>
      <trkpt lat="40.813651" lon="-3.842854">
        <ele>1957.3</ele>
        <time>2018-04-21T07:31:55.000Z</time>
      </trkpt>
      <trkpt lat="40.813652" lon="-3.842856">
        <ele>1957.3</ele>
        <time>2018-04-21T07:31:56.000Z</time>
      </trkpt>
      <trkpt lat="40.813653" lon="-3.842859">
        <ele>1957.3</ele>
        <time>2018-04-21T07:31:57.000Z</time>
      </trkpt>
      <trkpt lat="40.813654" lon="-3.842862">
        <ele>1957.3</ele>
        <time>2018-04-21T07:31:58.000Z</time>
      </trkpt>
      <trkpt lat="40.813655" lon="-3.842865">
        <ele>1957.2</ele>
        <time>2018-04-21T07:31:59.000Z</time>
      </trkpt>
      <trkpt lat="40.813656" lon="-3.842867">
        <ele>1957.2</ele>
        <time>2018-04-21T07:32:00.000Z</time>
      </trkpt>
      <trkpt lat="40.813657" lon="-3.84287">
        <ele>1957.2</ele>
        <time>2018-04-21T07:32:01.000Z</time>
      </trkpt>
      <trkpt lat="40.813658" lon="-3.842872">
        <ele>1957.2</ele>
        <time>2018-04-21T07:32:02.000Z</time>
      </trkpt>
      <trkpt lat="40.813659" lon="-3.842874">
        <ele>1957.2</ele>
        <time>2018-04-21T07:32:03.000Z</time>
      </trkpt>
      <trkpt lat="40.813659" lon="-3.842875">
        <ele>1957.2</ele>
        <time>2018-04-21T07:32:04.000Z</time>
      </trkpt>
      <trkpt lat="40.813659" lon="-3.842876">
        <ele>1957.2</ele>
        <time>2018-04-21T07:32:05.000Z</time>
      </trkpt>
      <trkpt lat="40.813659" lon="-3.842876">
        <ele>1957.2</ele>
        <time>2018-04-21T07:32:06.000Z</time>
      </trkpt>
      <trkpt lat="40.813659" lon="-3.842876">
        <ele>1957.2</ele>
        <time>2018-04-21T07:32:07.000Z</time>
      </trkpt>
      <trkpt lat="40.813659" lon="-3.842876">
        <ele>1957.2</ele>
        <time>2018-04-21T07:32:08.000Z</time>
      </trkpt>
      <trkpt lat="40.813659" lon="-3.842876">
        <ele>1957.2</ele>
        <time>2018-04-21T07:32:09.000Z</time>
      </trkpt>
      <trkpt lat="40.813659" lon="-3.842876">
        <ele>1957.2</ele>
        <time>2018-04-21T07:32:10.000Z</time>
      </trkpt>
      <trkpt lat="40.813659" lon="-3.842876">
        <ele>1957.2</ele>
        <time>2018-04-21T07:32:11.000Z</time>
      </trkpt>
      <trkpt lat="40.813659" lon="-3.842876">
        <ele>1957.2</ele>
        <time>2018-04-21T07:32:12.000Z</time>
      </trkpt>
      <trkpt lat="40.813659" lon="-3.842876">
        <ele>1957.2</ele>
        <time>2018-04-21T07:32:13.000Z</time>
      </trkpt>
      <trkpt lat="40.813659" lon="-3.842876">
        <ele>1957.2</ele>
        <time>2018-04-21T07:32:14.000Z</time>
      </trkpt>
      <trkpt lat="40.813659" lon="-3.842876">
        <ele>1957.2</ele>
        <time>2018-04-21T07:32:15.000Z</time>
      </trkpt>
      <trkpt lat="40.813659" lon="-3.842878">
        <ele>1957.2</ele>
        <time>2018-04-21T07:32:16.000Z</time>
      </trkpt>
      <trkpt lat="40.813659" lon="-3.842882">
        <ele>1957.2</ele>
        <time>2018-04-21T07:32:17.000Z</time>
      </trkpt>
      <trkpt lat="40.813661" lon="-3.842887">
        <ele>1957.1</ele>
        <time>2018-04-21T07:32:18.000Z</time>
      </trkpt>
      <trkpt lat="40.813663" lon="-3.842891">
        <ele>1957.1</ele>
        <time>2018-04-21T07:32:19.000Z</time>
      </trkpt>
      <trkpt lat="40.813667" lon="-3.842896">
        <ele>1957.0</ele>
        <time>2018-04-21T07:32:20.000Z</time>
      </trkpt>
      <trkpt lat="40.813669" lon="-3.842901">
        <ele>1957.0</ele>
        <time>2018-04-21T07:32:21.000Z</time>
      </trkpt>
      <trkpt lat="40.813671" lon="-3.842906">
        <ele>1956.9</ele>
        <time>2018-04-21T07:32:22.000Z</time>
      </trkpt>
      <trkpt lat="40.813672" lon="-3.842913">
        <ele>1956.9</ele>
        <time>2018-04-21T07:32:23.000Z</time>
      </trkpt>
      <trkpt lat="40.813673" lon="-3.842919">
        <ele>1956.9</ele>
        <time>2018-04-21T07:32:24.000Z</time>
      </trkpt>
      <trkpt lat="40.813673" lon="-3.842925">
        <ele>1956.9</ele>
        <time>2018-04-21T07:32:25.000Z</time>
      </trkpt>
      <trkpt lat="40.813673" lon="-3.842931">
        <ele>1956.9</ele>
        <time>2018-04-21T07:32:26.000Z</time>
      </trkpt>
      <trkpt lat="40.813673" lon="-3.842937">
        <ele>1956.9</ele>
        <time>2018-04-21T07:32:27.000Z</time>
      </trkpt>
      <trkpt lat="40.813673" lon="-3.842941">
        <ele>1956.9</ele>
        <time>2018-04-21T07:32:28.000Z</time>
      </trkpt>
      <trkpt lat="40.813673" lon="-3.842944">
        <ele>1956.9</ele>
        <time>2018-04-21T07:32:29.000Z</time>
      </trkpt>
      <trkpt lat="40.813673" lon="-3.842946">
        <ele>1956.9</ele>
        <time>2018-04-21T07:32:30.000Z</time>
      </trkpt>
      <trkpt lat="40.813674" lon="-3.842947">
        <ele>1956.8</ele>
        <time>2018-04-21T07:32:31.000Z</time>
      </trkpt>
      <trkpt lat="40.813674" lon="-3.842947">
        <ele>1956.8</ele>
        <time>2018-04-21T07:32:32.000Z</time>
      </trkpt>
      <trkpt lat="40.813674" lon="-3.842947">
        <ele>1956.8</ele>
        <time>2018-04-21T07:32:33.000Z</time>
      </trkpt>
      <trkpt lat="40.813673" lon="-3.842947">
        <ele>1956.9</ele>
        <time>2018-04-21T07:32:34.000Z</time>
      </trkpt>
      <trkpt lat="40.813672" lon="-3.842948">
        <ele>1956.9</ele>
        <time>2018-04-21T07:32:35.000Z</time>
      </trkpt>
      <trkpt lat="40.81367" lon="-3.84295">
        <ele>1956.9</ele>
        <time>2018-04-21T07:32:36.000Z</time>
      </trkpt>
      <trkpt lat="40.813668" lon="-3.842952">
        <ele>1957.0</ele>
        <time>2018-04-21T07:32:37.000Z</time>
      </trkpt>
      <trkpt lat="40.813664" lon="-3.842957">
        <ele>1957.1</ele>
        <time>2018-04-21T07:32:38.000Z</time>
      </trkpt>
      <trkpt lat="40.813658" lon="-3.842963">
        <ele>1957.2</ele>
        <time>2018-04-21T07:32:39.000Z</time>
      </trkpt>
      <trkpt lat="40.813653" lon="-3.84297">
        <ele>1957.3</ele>
        <time>2018-04-21T07:32:40.000Z</time>
      </trkpt>
      <trkpt lat="40.81365" lon="-3.842975">
        <ele>1957.3</ele>
        <time>2018-04-21T07:32:41.000Z</time>
      </trkpt>
      <trkpt lat="40.813648" lon="-3.842976">
        <ele>1957.4</ele>
        <time>2018-04-21T07:32:42.000Z</time>
      </trkpt>
      <trkpt lat="40.813648" lon="-3.842976">
        <ele>1957.4</ele>
        <time>2018-04-21T07:32:43.000Z</time>
      </trkpt>
      <trkpt lat="40.813648" lon="-3.842976">
        <ele>1957.4</ele>
        <time>2018-04-21T07:32:44.000Z</time>
      </trkpt>
      <trkpt lat="40.813649" lon="-3.842976">
        <ele>1957.4</ele>
        <time>2018-04-21T07:32:45.000Z</time>
      </trkpt>
      <trkpt lat="40.813649" lon="-3.842975">
        <ele>1957.4</ele>
        <time>2018-04-21T07:32:46.000Z</time>
      </trkpt>
      <trkpt lat="40.813649" lon="-3.842975">
        <ele>1957.4</ele>
        <time>2018-04-21T07:32:47.000Z</time>
      </trkpt>
      <trkpt lat="40.813649" lon="-3.842976">
        <ele>1957.4</ele>
        <time>2018-04-21T07:32:48.000Z</time>
      </trkpt>
      <trkpt lat="40.813648" lon="-3.842977">
        <ele>1957.4</ele>
        <time>2018-04-21T07:32:49.000Z</time>
      </trkpt>
      <trkpt lat="40.813648" lon="-3.842978">
        <ele>1957.4</ele>
        <time>2018-04-21T07:32:50.000Z</time>
      </trkpt>
      <trkpt lat="40.813647" lon="-3.842979">
        <ele>1957.4</ele>
        <time>2018-04-21T07:32:51.000Z</time>
      </trkpt>
      <trkpt lat="40.813646" lon="-3.842981">
        <ele>1957.4</ele>
        <time>2018-04-21T07:32:52.000Z</time>
      </trkpt>
      <trkpt lat="40.813645" lon="-3.842983">
        <ele>1957.4</ele>
        <time>2018-04-21T07:32:53.000Z</time>
      </trkpt>
      <trkpt lat="40.813644" lon="-3.842986">
        <ele>1957.5</ele>
        <time>2018-04-21T07:32:54.000Z</time>
      </trkpt>
      <trkpt lat="40.813643" lon="-3.84299">
        <ele>1957.5</ele>
        <time>2018-04-21T07:32:55.000Z</time>
      </trkpt>
      <trkpt lat="40.813642" lon="-3.842994">
        <ele>1957.5</ele>
        <time>2018-04-21T07:32:56.000Z</time>
      </trkpt>
      <trkpt lat="40.813642" lon="-3.842998">
        <ele>1957.5</ele>
        <time>2018-04-21T07:32:57.000Z</time>
      </trkpt>
      <trkpt lat="40.813641" lon="-3.843003">
        <ele>1957.5</ele>
        <time>2018-04-21T07:32:58.000Z</time>
      </trkpt>
      <trkpt lat="40.813641" lon="-3.843008">
        <ele>1957.5</ele>
        <time>2018-04-21T07:32:59.000Z</time>
      </trkpt>
      <trkpt lat="40.813641" lon="-3.843014">
        <ele>1957.5</ele>
        <time>2018-04-21T07:33:00.000Z</time>
      </trkpt>
      <trkpt lat="40.813641" lon="-3.84302">
        <ele>1957.5</ele>
        <time>2018-04-21T07:33:01.000Z</time>
      </trkpt>
      <trkpt lat="40.813641" lon="-3.843026">
        <ele>1957.5</ele>
        <time>2018-04-21T07:33:02.000Z</time>
      </trkpt>
      <trkpt lat="40.813641" lon="-3.843032">
        <ele>1957.5</ele>
        <time>2018-04-21T07:33:03.000Z</time>
      </trkpt>
      <trkpt lat="40.813642" lon="-3.843038">
        <ele>1957.5</ele>
        <time>2018-04-21T07:33:04.000Z</time>
      </trkpt>
      <trkpt lat="40.813642" lon="-3.843044">
        <ele>1957.5</ele>
        <time>2018-04-21T07:33:05.000Z</time>
      </trkpt>
      <trkpt lat="40.813643" lon="-3.84305">
        <ele>1957.5</ele>
        <time>2018-04-21T07:33:06.000Z</time>
      </trkpt>
      <trkpt lat="40.813644" lon="-3.843055">
        <ele>1957.5</ele>
        <time>2018-04-21T07:33:07.000Z</time>
      </trkpt>
      <trkpt lat="40.813645" lon="-3.843061">
        <ele>1957.4</ele>
        <time>2018-04-21T07:33:08.000Z</time>
      </trkpt>
      <trkpt lat="40.813647" lon="-3.843066">
        <ele>1957.4</ele>
        <time>2018-04-21T07:33:09.000Z</time>
      </trkpt>
      <trkpt lat="40.813648" lon="-3.843071">
        <ele>1957.4</ele>
        <time>2018-04-21T07:33:10.000Z</time>
      </trkpt>
      <trkpt lat="40.813649" lon="-3.843076">
        <ele>1957.4</ele>
        <time>2018-04-21T07:33:11.000Z</time>
      </trkpt>
      <trkpt lat="40.81365" lon="-3.84308">
        <ele>1957.3</ele>
        <time>2018-04-21T07:33:12.000Z</time>
      </trkpt>
      <trkpt lat="40.81365" lon="-3.843085">
        <ele>1957.3</ele>
        <time>2018-04-21T07:33:13.000Z</time>
      </trkpt>
      <trkpt lat="40.813651" lon="-3.843088">
        <ele>1957.3</ele>
        <time>2018-04-21T07:33:14.000Z</time>
      </trkpt>
      <trkpt lat="40.813651" lon="-3.843092">
        <ele>1957.3</ele>
        <time>2018-04-21T07:33:15.000Z</time>
      </trkpt>
      <trkpt lat="40.813651" lon="-3.843095">
        <ele>1957.3</ele>
        <time>2018-04-21T07:33:16.000Z</time>
      </trkpt>
      <trkpt lat="40.813652" lon="-3.843099">
        <ele>1957.3</ele>
        <time>2018-04-21T07:33:17.000Z</time>
      </trkpt>
      <trkpt lat="40.813653" lon="-3.843104">
        <ele>1957.3</ele>
        <time>2018-04-21T07:33:18.000Z</time>
      </trkpt>
      <trkpt lat="40.813655" lon="-3.843111">
        <ele>1957.2</ele>
        <time>2018-04-21T07:33:19.000Z</time>
      </trkpt>
      <trkpt lat="40.813658" lon="-3.843119">
        <ele>1957.2</ele>
        <time>2018-04-21T07:33:20.000Z</time>
      </trkpt>
      <trkpt lat="40.813661" lon="-3.843129">
        <ele>1957.1</ele>
        <time>2018-04-21T07:33:21.000Z</time>
      </trkpt>
      <trkpt lat="40.813665" lon="-3.843137">
        <ele>1957.0</ele>
        <time>2018-04-21T07:33:22.000Z</time>
      </trkpt>
      <trkpt lat="40.813669" lon="-3.843144">
        <ele>1957.0</ele>
        <time>2018-04-21T07:33:23.000Z</time>
      </trkpt>
      <trkpt lat="40.813673" lon="-3.843148">
        <ele>1956.9</ele>
        <time>2018-04-21T07:33:24.000Z</time>
      </trkpt>
      <trkpt lat="40.813676" lon="-3.84315">
        <ele>1956.8</ele>
        <time>2018-04-21T07:33:25.000Z</time>
      </trkpt>
      <trkpt lat="40.813679" lon="-3.84315">
        <ele>1956.8</ele>
        <time>2018-04-21T07:33:26.000Z</time>
      </trkpt>
      <trkpt lat="40.813682" lon="-3.84315">
        <ele>1956.7</ele>
        <time>2018-04-21T07:33:27.000Z</time>
      </trkpt>
      <trkpt lat="40.813685" lon="-3.84315">
        <ele>1956.6</ele>
        <time>2018-04-21T07:33:28.000Z</time>
      </trkpt>
      <trkpt lat="40.813688" lon="-3.843151">
        <ele>1956.6</ele>
        <time>2018-04-21T07:33:29.000Z</time>
      </trkpt>
      <trkpt lat="40.813691" lon="-3.843153">
        <ele>1956.5</ele>
        <time>2018-04-21T07:33:30.000Z</time>
      </trkpt>
      <trkpt lat="40.813695" lon="-3.843156">
        <ele>1956.5</ele>
        <time>2018-04-21T07:33:31.000Z</time>
      </trkpt>
      <trkpt lat="40.8137" lon="-3.84316">
        <ele>1956.4</ele>
        <time>2018-04-21T07:33:32.000Z</time>
      </trkpt>
      <trkpt lat="40.813706" lon="-3.843165">
        <ele>1956.2</ele>
        <time>2018-04-21T07:33:33.000Z</time>
      </trkpt>
      <trkpt lat="40.813712" lon="-3.84317">
        <ele>1956.1</ele>
        <time>2018-04-21T07:33:34.000Z</time>
      </trkpt>
      <trkpt lat="40.813718" lon="-3.843177">
        <ele>1956.0</ele>
        <time>2018-04-21T07:33:35.000Z</time>
      </trkpt>
      <trkpt lat="40.813723" lon="-3.843183">
        <ele>1955.9</ele>
        <time>2018-04-21T07:33:36.000Z</time>
      </trkpt>
      <trkpt lat="40.813726" lon="-3.843189">
        <ele>1955.9</ele>
        <time>2018-04-21T07:33:37.000Z</time>
      </trkpt>
      <trkpt lat="40.813728" lon="-3.843195">
        <ele>1955.8</ele>
        <time>2018-04-21T07:33:38.000Z</time>
      </trkpt>
      <trkpt lat="40.813729" lon="-3.843201">
        <ele>1955.8</ele>
        <time>2018-04-21T07:33:39.000Z</time>
      </trkpt>
      <trkpt lat="40.813728" lon="-3.843208">
        <ele>1955.8</ele>
        <time>2018-04-21T07:33:40.000Z</time>
      </trkpt>
      <trkpt lat="40.813727" lon="-3.843215">
        <ele>1955.9</ele>
        <time>2018-04-21T07:33:41.000Z</time>
      </trkpt>
      <trkpt lat="40.813726" lon="-3.843223">
        <ele>1955.9</ele>
        <time>2018-04-21T07:33:42.000Z</time>
      </trkpt>
      <trkpt lat="40.813726" lon="-3.843234">
        <ele>1955.9</ele>
        <time>2018-04-21T07:33:43.000Z</time>
      </trkpt>
      <trkpt lat="40.813726" lon="-3.843245">
        <ele>1955.9</ele>
        <time>2018-04-21T07:33:44.000Z</time>
      </trkpt>
      <trkpt lat="40.813727" lon="-3.843257">
        <ele>1955.9</ele>
        <time>2018-04-21T07:33:45.000Z</time>
      </trkpt>
      <trkpt lat="40.813727" lon="-3.843268">
        <ele>1955.9</ele>
        <time>2018-04-21T07:33:46.000Z</time>
      </trkpt>
      <trkpt lat="40.813729" lon="-3.843277">
        <ele>1955.9</ele>
        <time>2018-04-21T07:33:47.000Z</time>
      </trkpt>
      <trkpt lat="40.81373" lon="-3.843283">
        <ele>1955.8</ele>
        <time>2018-04-21T07:33:48.000Z</time>
      </trkpt>
      <trkpt lat="40.813731" lon="-3.843288">
        <ele>1955.8</ele>
        <time>2018-04-21T07:33:49.000Z</time>
      </trkpt>
      <trkpt lat="40.813732" lon="-3.843291">
        <ele>1955.8</ele>
        <time>2018-04-21T07:33:50.000Z</time>
      </trkpt>
      <trkpt lat="40.813733" lon="-3.843293">
        <ele>1955.8</ele>
        <time>2018-04-21T07:33:51.000Z</time>
      </trkpt>
      <trkpt lat="40.813734" lon="-3.843295">
        <ele>1955.8</ele>
        <time>2018-04-21T07:33:52.000Z</time>
      </trkpt>
      <trkpt lat="40.813734" lon="-3.843296">
        <ele>1955.8</ele>
        <time>2018-04-21T07:33:53.000Z</time>
      </trkpt>
      <trkpt lat="40.813735" lon="-3.843297">
        <ele>1955.8</ele>
        <time>2018-04-21T07:33:54.000Z</time>
      </trkpt>
      <trkpt lat="40.813735" lon="-3.843298">
        <ele>1955.8</ele>
        <time>2018-04-21T07:33:55.000Z</time>
      </trkpt>
      <trkpt lat="40.813735" lon="-3.843298">
        <ele>1955.8</ele>
        <time>2018-04-21T07:33:56.000Z</time>
      </trkpt>
      <trkpt lat="40.813735" lon="-3.843299">
        <ele>1955.8</ele>
        <time>2018-04-21T07:33:57.000Z</time>
      </trkpt>
      <trkpt lat="40.813736" lon="-3.843299">
        <ele>1955.7</ele>
        <time>2018-04-21T07:33:58.000Z</time>
      </trkpt>
      <trkpt lat="40.813736" lon="-3.843299">
        <ele>1955.7</ele>
        <time>2018-04-21T07:33:59.000Z</time>
      </trkpt>
      <trkpt lat="40.813735" lon="-3.843298">
        <ele>1955.8</ele>
        <time>2018-04-21T07:34:00.000Z</time>
      </trkpt>
      <trkpt lat="40.813735" lon="-3.843298">
        <ele>1955.8</ele>
        <time>2018-04-21T07:34:01.000Z</time>
      </trkpt>
      <trkpt lat="40.813735" lon="-3.843298">
        <ele>1955.8</ele>
        <time>2018-04-21T07:34:02.000Z</time>
      </trkpt>
      <trkpt lat="40.813735" lon="-3.843298">
        <ele>1955.8</ele>
        <time>2018-04-21T07:34:03.000Z</time>
      </trkpt>
      <trkpt lat="40.813735" lon="-3.843298">
        <ele>1955.8</ele>
        <time>2018-04-21T07:34:04.000Z</time>
      </trkpt>
      <trkpt lat="40.813735" lon="-3.843298">
        <ele>1955.8</ele>
        <time>2018-04-21T07:34:05.000Z</time>
      </trkpt>
      <trkpt lat="40.813735" lon="-3.843298">
        <ele>1955.8</ele>
        <time>2018-04-21T07:34:06.000Z</time>
      </trkpt>
      <trkpt lat="40.813735" lon="-3.843298">
        <ele>1955.8</ele>
        <time>2018-04-21T07:34:07.000Z</time>
      </trkpt>
      <trkpt lat="40.813735" lon="-3.843298">
        <ele>1955.8</ele>
        <time>2018-04-21T07:34:08.000Z</time>
      </trkpt>
      <trkpt lat="40.813735" lon="-3.843299">
        <ele>1955.8</ele>
        <time>2018-04-21T07:34:09.000Z</time>
      </trkpt>
      <trkpt lat="40.813735" lon="-3.843299">
        <ele>1955.8</ele>
        <time>2018-04-21T07:34:10.000Z</time>
      </trkpt>
      <trkpt lat="40.813736" lon="-3.8433">
        <ele>1955.7</ele>
        <time>2018-04-21T07:34:11.000Z</time>
      </trkpt>
      <trkpt lat="40.813736" lon="-3.843301">
        <ele>1955.7</ele>
        <time>2018-04-21T07:34:12.000Z</time>
      </trkpt>
      <trkpt lat="40.813736" lon="-3.843303">
        <ele>1955.7</ele>
        <time>2018-04-21T07:34:13.000Z</time>
      </trkpt>
      <trkpt lat="40.813737" lon="-3.843304">
        <ele>1955.7</ele>
        <time>2018-04-21T07:34:14.000Z</time>
      </trkpt>
      <trkpt lat="40.813737" lon="-3.843305">
        <ele>1955.7</ele>
        <time>2018-04-21T07:34:15.000Z</time>
      </trkpt>
      <trkpt lat="40.813737" lon="-3.843306">
        <ele>1955.7</ele>
        <time>2018-04-21T07:34:16.000Z</time>
      </trkpt>
      <trkpt lat="40.813737" lon="-3.843306">
        <ele>1955.7</ele>
        <time>2018-04-21T07:34:17.000Z</time>
      </trkpt>
      <trkpt lat="40.813737" lon="-3.843307">
        <ele>1955.7</ele>
        <time>2018-04-21T07:34:18.000Z</time>
      </trkpt>
      <trkpt lat="40.813737" lon="-3.843307">
        <ele>1955.7</ele>
        <time>2018-04-21T07:34:19.000Z</time>
      </trkpt>
      <trkpt lat="40.813738" lon="-3.843309">
        <ele>1955.7</ele>
        <time>2018-04-21T07:34:20.000Z</time>
      </trkpt>
      <trkpt lat="40.813739" lon="-3.843314">
        <ele>1955.7</ele>
        <time>2018-04-21T07:34:21.000Z</time>
      </trkpt>
      <trkpt lat="40.813742" lon="-3.843323">
        <ele>1955.6</ele>
        <time>2018-04-21T07:34:22.000Z</time>
      </trkpt>
      <trkpt lat="40.813745" lon="-3.843333">
        <ele>1955.6</ele>
        <time>2018-04-21T07:34:23.000Z</time>
      </trkpt>
      <trkpt lat="40.813747" lon="-3.843342">
        <ele>1955.6</ele>
        <time>2018-04-21T07:34:24.000Z</time>
      </trkpt>
      <trkpt lat="40.813747" lon="-3.84335">
        <ele>1955.7</ele>
        <time>2018-04-21T07:34:25.000Z</time>
      </trkpt>
      <trkpt lat="40.813747" lon="-3.843358">
        <ele>1955.7</ele>
        <time>2018-04-21T07:34:26.000Z</time>
      </trkpt>
      <trkpt lat="40.813747" lon="-3.843365">
        <ele>1955.8</ele>
        <time>2018-04-21T07:34:27.000Z</time>
      </trkpt>
      <trkpt lat="40.813746" lon="-3.843373">
        <ele>1955.8</ele>
        <time>2018-04-21T07:34:28.000Z</time>
      </trkpt>
      <trkpt lat="40.813746" lon="-3.843381">
        <ele>1955.9</ele>
        <time>2018-04-21T07:34:29.000Z</time>
      </trkpt>
      <trkpt lat="40.813745" lon="-3.843389">
        <ele>1956.0</ele>
        <time>2018-04-21T07:34:30.000Z</time>
      </trkpt>
      <trkpt lat="40.813745" lon="-3.843398">
        <ele>1956.0</ele>
        <time>2018-04-21T07:34:31.000Z</time>
      </trkpt>
      <trkpt lat="40.813745" lon="-3.843406">
        <ele>1956.1</ele>
        <time>2018-04-21T07:34:32.000Z</time>
      </trkpt>
      <trkpt lat="40.813744" lon="-3.843414">
        <ele>1956.1</ele>
        <time>2018-04-21T07:34:33.000Z</time>
      </trkpt>
      <trkpt lat="40.813743" lon="-3.843423">
        <ele>1956.2</ele>
        <time>2018-04-21T07:34:34.000Z</time>
      </trkpt>
      <trkpt lat="40.813742" lon="-3.843431">
        <ele>1956.3</ele>
        <time>2018-04-21T07:34:35.000Z</time>
      </trkpt>
      <trkpt lat="40.813741" lon="-3.843439">
        <ele>1956.3</ele>
        <time>2018-04-21T07:34:36.000Z</time>
      </trkpt>
      <trkpt lat="40.81374" lon="-3.843447">
        <ele>1956.4</ele>
        <time>2018-04-21T07:34:37.000Z</time>
      </trkpt>
      <trkpt lat="40.813739" lon="-3.843454">
        <ele>1956.5</ele>
        <time>2018-04-21T07:34:38.000Z</time>
      </trkpt>
      <trkpt lat="40.813737" lon="-3.843462">
        <ele>1956.6</ele>
        <time>2018-04-21T07:34:39.000Z</time>
      </trkpt>
      <trkpt lat="40.813735" lon="-3.843469">
        <ele>1956.6</ele>
        <time>2018-04-21T07:34:40.000Z</time>
      </trkpt>
      <trkpt lat="40.813733" lon="-3.843477">
        <ele>1956.7</ele>
        <time>2018-04-21T07:34:41.000Z</time>
      </trkpt>
      <trkpt lat="40.813731" lon="-3.843484">
        <ele>1956.8</ele>
        <time>2018-04-21T07:34:42.000Z</time>
      </trkpt>
      <trkpt lat="40.813728" lon="-3.843492">
        <ele>1956.9</ele>
        <time>2018-04-21T07:34:43.000Z</time>
      </trkpt>
      <trkpt lat="40.813725" lon="-3.843499">
        <ele>1957.0</ele>
        <time>2018-04-21T07:34:44.000Z</time>
      </trkpt>
      <trkpt lat="40.813722" lon="-3.843507">
        <ele>1957.1</ele>
        <time>2018-04-21T07:34:45.000Z</time>
      </trkpt>
      <trkpt lat="40.813719" lon="-3.843515">
        <ele>1957.2</ele>
        <time>2018-04-21T07:34:46.000Z</time>
      </trkpt>
      <trkpt lat="40.813716" lon="-3.843523">
        <ele>1957.3</ele>
        <time>2018-04-21T07:34:47.000Z</time>
      </trkpt>
      <trkpt lat="40.813713" lon="-3.843531">
        <ele>1957.4</ele>
        <time>2018-04-21T07:34:48.000Z</time>
      </trkpt>
      <trkpt lat="40.81371" lon="-3.84354">
        <ele>1957.5</ele>
        <time>2018-04-21T07:34:49.000Z</time>
      </trkpt>
      <trkpt lat="40.813708" lon="-3.843548">
        <ele>1957.5</ele>
        <time>2018-04-21T07:34:50.000Z</time>
      </trkpt>
      <trkpt lat="40.813707" lon="-3.843556">
        <ele>1957.6</ele>
        <time>2018-04-21T07:34:51.000Z</time>
      </trkpt>
      <trkpt lat="40.813706" lon="-3.843564">
        <ele>1957.7</ele>
        <time>2018-04-21T07:34:52.000Z</time>
      </trkpt>
      <trkpt lat="40.813707" lon="-3.843572">
        <ele>1957.7</ele>
        <time>2018-04-21T07:34:53.000Z</time>
      </trkpt>
      <trkpt lat="40.813709" lon="-3.84358">
        <ele>1957.7</ele>
        <time>2018-04-21T07:34:54.000Z</time>
      </trkpt>
      <trkpt lat="40.813712" lon="-3.843587">
        <ele>1957.7</ele>
        <time>2018-04-21T07:34:55.000Z</time>
      </trkpt>
      <trkpt lat="40.813715" lon="-3.843595">
        <ele>1957.7</ele>
        <time>2018-04-21T07:34:56.000Z</time>
      </trkpt>
      <trkpt lat="40.813718" lon="-3.843603">
        <ele>1957.7</ele>
        <time>2018-04-21T07:34:57.000Z</time>
      </trkpt>
      <trkpt lat="40.81372" lon="-3.843612">
        <ele>1957.7</ele>
        <time>2018-04-21T07:34:58.000Z</time>
      </trkpt>
      <trkpt lat="40.813721" lon="-3.84362">
        <ele>1957.8</ele>
        <time>2018-04-21T07:34:59.000Z</time>
      </trkpt>
      <trkpt lat="40.813721" lon="-3.843627">
        <ele>1957.8</ele>
        <time>2018-04-21T07:35:00.000Z</time>
      </trkpt>
      <trkpt lat="40.81372" lon="-3.843635">
        <ele>1957.9</ele>
        <time>2018-04-21T07:35:01.000Z</time>
      </trkpt>
      <trkpt lat="40.813718" lon="-3.843653">
        <ele>1958.0</ele>
        <time>2018-04-21T07:35:02.000Z</time>
      </trkpt>
      <trkpt lat="40.813716" lon="-3.843682">
        <ele>1958.2</ele>
        <time>2018-04-21T07:39:10.000Z</time>
      </trkpt>
      <trkpt lat="40.813714" lon="-3.843703">
        <ele>1958.4</ele>
        <time>2018-04-21T07:39:11.000Z</time>
      </trkpt>
      <trkpt lat="40.813713" lon="-3.843712">
        <ele>1958.4</ele>
        <time>2018-04-21T07:39:12.000Z</time>
      </trkpt>
      <trkpt lat="40.813713" lon="-3.843714">
        <ele>1958.5</ele>
        <time>2018-04-21T07:39:13.000Z</time>
      </trkpt>
      <trkpt lat="40.81371" lon="-3.843724">
        <ele>1958.6</ele>
        <time>2018-04-21T07:39:14.000Z</time>
      </trkpt>
      <trkpt lat="40.813706" lon="-3.84374">
        <ele>1958.7</ele>
        <time>2018-04-21T07:39:15.000Z</time>
      </trkpt>
      <trkpt lat="40.813703" lon="-3.843754">
        <ele>1958.8</ele>
        <time>2018-04-21T07:39:16.000Z</time>
      </trkpt>
      <trkpt lat="40.813702" lon="-3.843765">
        <ele>1958.9</ele>
        <time>2018-04-21T07:39:17.000Z</time>
      </trkpt>
      <trkpt lat="40.8137" lon="-3.843775">
        <ele>1959.0</ele>
        <time>2018-04-21T07:39:18.000Z</time>
      </trkpt>
      <trkpt lat="40.813698" lon="-3.843784">
        <ele>1959.0</ele>
        <time>2018-04-21T07:39:19.000Z</time>
      </trkpt>
      <trkpt lat="40.813693" lon="-3.843793">
        <ele>1959.1</ele>
        <time>2018-04-21T07:39:20.000Z</time>
      </trkpt>
      <trkpt lat="40.813686" lon="-3.843802">
        <ele>1959.3</ele>
        <time>2018-04-21T07:39:21.000Z</time>
      </trkpt>
      <trkpt lat="40.813678" lon="-3.843811">
        <ele>1959.4</ele>
        <time>2018-04-21T07:39:22.000Z</time>
      </trkpt>
      <trkpt lat="40.81367" lon="-3.843821">
        <ele>1959.5</ele>
        <time>2018-04-21T07:39:23.000Z</time>
      </trkpt>
      <trkpt lat="40.813661" lon="-3.84383">
        <ele>1959.7</ele>
        <time>2018-04-21T07:39:24.000Z</time>
      </trkpt>
      <trkpt lat="40.813652" lon="-3.84384">
        <ele>1959.8</ele>
        <time>2018-04-21T07:39:25.000Z</time>
      </trkpt>
      <trkpt lat="40.813645" lon="-3.843851">
        <ele>1959.9</ele>
        <time>2018-04-21T07:39:26.000Z</time>
      </trkpt>
      <trkpt lat="40.813639" lon="-3.843862">
        <ele>1960.1</ele>
        <time>2018-04-21T07:39:27.000Z</time>
      </trkpt>
      <trkpt lat="40.813634" lon="-3.843873">
        <ele>1960.2</ele>
        <time>2018-04-21T07:39:28.000Z</time>
      </trkpt>
      <trkpt lat="40.813632" lon="-3.843885">
        <ele>1960.2</ele>
        <time>2018-04-21T07:39:29.000Z</time>
      </trkpt>
      <trkpt lat="40.813632" lon="-3.843898">
        <ele>1960.3</ele>
        <time>2018-04-21T07:39:30.000Z</time>
      </trkpt>
      <trkpt lat="40.813634" lon="-3.843911">
        <ele>1960.3</ele>
        <time>2018-04-21T07:39:31.000Z</time>
      </trkpt>
      <trkpt lat="40.813637" lon="-3.843925">
        <ele>1960.4</ele>
        <time>2018-04-21T07:39:32.000Z</time>
      </trkpt>
      <trkpt lat="40.813641" lon="-3.843938">
        <ele>1960.4</ele>
        <time>2018-04-21T07:39:33.000Z</time>
      </trkpt>
      <trkpt lat="40.813645" lon="-3.843951">
        <ele>1960.4</ele>
        <time>2018-04-21T07:39:34.000Z</time>
      </trkpt>
      <trkpt lat="40.813649" lon="-3.843964">
        <ele>1960.5</ele>
        <time>2018-04-21T07:39:35.000Z</time>
      </trkpt>
      <trkpt lat="40.813653" lon="-3.843977">
        <ele>1960.5</ele>
        <time>2018-04-21T07:39:36.000Z</time>
      </trkpt>
      <trkpt lat="40.813656" lon="-3.843989">
        <ele>1960.5</ele>
        <time>2018-04-21T07:39:37.000Z</time>
      </trkpt>
      <trkpt lat="40.813658" lon="-3.844">
        <ele>1960.6</ele>
        <time>2018-04-21T07:39:38.000Z</time>
      </trkpt>
      <trkpt lat="40.813659" lon="-3.844011">
        <ele>1960.6</ele>
        <time>2018-04-21T07:39:39.000Z</time>
      </trkpt>
      <trkpt lat="40.81366" lon="-3.844021">
        <ele>1960.7</ele>
        <time>2018-04-21T07:39:40.000Z</time>
      </trkpt>
      <trkpt lat="40.813659" lon="-3.844032">
        <ele>1960.7</ele>
        <time>2018-04-21T07:39:41.000Z</time>
      </trkpt>
      <trkpt lat="40.813658" lon="-3.844041">
        <ele>1960.8</ele>
        <time>2018-04-21T07:39:42.000Z</time>
      </trkpt>
      <trkpt lat="40.813657" lon="-3.844051">
        <ele>1960.9</ele>
        <time>2018-04-21T07:39:43.000Z</time>
      </trkpt>
      <trkpt lat="40.813655" lon="-3.844061">
        <ele>1960.9</ele>
        <time>2018-04-21T07:39:44.000Z</time>
      </trkpt>
      <trkpt lat="40.813654" lon="-3.844071">
        <ele>1961.0</ele>
        <time>2018-04-21T07:39:45.000Z</time>
      </trkpt>
      <trkpt lat="40.813652" lon="-3.844081">
        <ele>1961.0</ele>
        <time>2018-04-21T07:39:46.000Z</time>
      </trkpt>
      <trkpt lat="40.813651" lon="-3.844091">
        <ele>1961.1</ele>
        <time>2018-04-21T07:39:47.000Z</time>
      </trkpt>
      <trkpt lat="40.81365" lon="-3.844102">
        <ele>1961.2</ele>
        <time>2018-04-21T07:39:48.000Z</time>
      </trkpt>
      <trkpt lat="40.813649" lon="-3.844113">
        <ele>1961.2</ele>
        <time>2018-04-21T07:39:49.000Z</time>
      </trkpt>
      <trkpt lat="40.813649" lon="-3.844124">
        <ele>1961.3</ele>
        <time>2018-04-21T07:39:50.000Z</time>
      </trkpt>
      <trkpt lat="40.813648" lon="-3.844136">
        <ele>1961.3</ele>
        <time>2018-04-21T07:39:51.000Z</time>
      </trkpt>
      <trkpt lat="40.813648" lon="-3.844147">
        <ele>1961.4</ele>
        <time>2018-04-21T07:39:52.000Z</time>
      </trkpt>
      <trkpt lat="40.813647" lon="-3.844159">
        <ele>1961.5</ele>
        <time>2018-04-21T07:39:53.000Z</time>
      </trkpt>
      <trkpt lat="40.813647" lon="-3.84417">
        <ele>1961.5</ele>
        <time>2018-04-21T07:39:54.000Z</time>
      </trkpt>
      <trkpt lat="40.813647" lon="-3.844181">
        <ele>1961.6</ele>
        <time>2018-04-21T07:39:55.000Z</time>
      </trkpt>
      <trkpt lat="40.813647" lon="-3.844192">
        <ele>1961.7</ele>
        <time>2018-04-21T07:39:56.000Z</time>
      </trkpt>
      <trkpt lat="40.813647" lon="-3.844203">
        <ele>1961.8</ele>
        <time>2018-04-21T07:39:57.000Z</time>
      </trkpt>
      <trkpt lat="40.813648" lon="-3.844213">
        <ele>1961.8</ele>
        <time>2018-04-21T07:39:58.000Z</time>
      </trkpt>
      <trkpt lat="40.81365" lon="-3.844223">
        <ele>1961.9</ele>
        <time>2018-04-21T07:39:59.000Z</time>
      </trkpt>
      <trkpt lat="40.813653" lon="-3.844233">
        <ele>1962.0</ele>
        <time>2018-04-21T07:40:00.000Z</time>
      </trkpt>
      <trkpt lat="40.813658" lon="-3.844243">
        <ele>1962.0</ele>
        <time>2018-04-21T07:40:01.000Z</time>
      </trkpt>
      <trkpt lat="40.813664" lon="-3.844253">
        <ele>1962.1</ele>
        <time>2018-04-21T07:40:02.000Z</time>
      </trkpt>
      <trkpt lat="40.81367" lon="-3.844262">
        <ele>1962.1</ele>
        <time>2018-04-21T07:40:03.000Z</time>
      </trkpt>
      <trkpt lat="40.813676" lon="-3.844271">
        <ele>1962.2</ele>
        <time>2018-04-21T07:40:04.000Z</time>
      </trkpt>
      <trkpt lat="40.813682" lon="-3.84428">
        <ele>1962.2</ele>
        <time>2018-04-21T07:40:05.000Z</time>
      </trkpt>
      <trkpt lat="40.813686" lon="-3.844289">
        <ele>1962.3</ele>
        <time>2018-04-21T07:40:06.000Z</time>
      </trkpt>
      <trkpt lat="40.813691" lon="-3.844298">
        <ele>1962.3</ele>
        <time>2018-04-21T07:40:07.000Z</time>
      </trkpt>
      <trkpt lat="40.813694" lon="-3.844307">
        <ele>1962.4</ele>
        <time>2018-04-21T07:40:08.000Z</time>
      </trkpt>
      <trkpt lat="40.813698" lon="-3.844316">
        <ele>1962.4</ele>
        <time>2018-04-21T07:40:09.000Z</time>
      </trkpt>
      <trkpt lat="40.813701" lon="-3.844325">
        <ele>1962.5</ele>
        <time>2018-04-21T07:40:10.000Z</time>
      </trkpt>
      <trkpt lat="40.813704" lon="-3.844334">
        <ele>1962.5</ele>
        <time>2018-04-21T07:40:11.000Z</time>
      </trkpt>
      <trkpt lat="40.813707" lon="-3.844343">
        <ele>1962.6</ele>
        <time>2018-04-21T07:40:12.000Z</time>
      </trkpt>
      <trkpt lat="40.81371" lon="-3.844353">
        <ele>1962.6</ele>
        <time>2018-04-21T07:40:13.000Z</time>
      </trkpt>
      <trkpt lat="40.813713" lon="-3.844362">
        <ele>1962.7</ele>
        <time>2018-04-21T07:40:14.000Z</time>
      </trkpt>
      <trkpt lat="40.813716" lon="-3.844371">
        <ele>1962.7</ele>
        <time>2018-04-21T07:40:15.000Z</time>
      </trkpt>
      <trkpt lat="40.81372" lon="-3.84438">
        <ele>1962.8</ele>
        <time>2018-04-21T07:40:16.000Z</time>
      </trkpt>
      <trkpt lat="40.813723" lon="-3.844389">
        <ele>1962.9</ele>
        <time>2018-04-21T07:40:17.000Z</time>
      </trkpt>
      <trkpt lat="40.813726" lon="-3.844398">
        <ele>1962.9</ele>
        <time>2018-04-21T07:40:18.000Z</time>
      </trkpt>
      <trkpt lat="40.813729" lon="-3.844407">
        <ele>1963.0</ele>
        <time>2018-04-21T07:40:19.000Z</time>
      </trkpt>
      <trkpt lat="40.813732" lon="-3.844416">
        <ele>1963.0</ele>
        <time>2018-04-21T07:40:20.000Z</time>
      </trkpt>
      <trkpt lat="40.813734" lon="-3.844425">
        <ele>1963.1</ele>
        <time>2018-04-21T07:40:21.000Z</time>
      </trkpt>
      <trkpt lat="40.813736" lon="-3.844434">
        <ele>1963.1</ele>
        <time>2018-04-21T07:40:22.000Z</time>
      </trkpt>
      <trkpt lat="40.813738" lon="-3.844442">
        <ele>1963.2</ele>
        <time>2018-04-21T07:40:23.000Z</time>
      </trkpt>
      <trkpt lat="40.813739" lon="-3.84445">
        <ele>1963.3</ele>
        <time>2018-04-21T07:40:24.000Z</time>
      </trkpt>
      <trkpt lat="40.813739" lon="-3.844459">
        <ele>1963.3</ele>
        <time>2018-04-21T07:40:25.000Z</time>
      </trkpt>
      <trkpt lat="40.813738" lon="-3.844467">
        <ele>1963.4</ele>
        <time>2018-04-21T07:40:26.000Z</time>
      </trkpt>
      <trkpt lat="40.813737" lon="-3.844475">
        <ele>1963.5</ele>
        <time>2018-04-21T07:40:27.000Z</time>
      </trkpt>
      <trkpt lat="40.813735" lon="-3.844483">
        <ele>1963.5</ele>
        <time>2018-04-21T07:40:28.000Z</time>
      </trkpt>
      <trkpt lat="40.813732" lon="-3.844491">
        <ele>1963.6</ele>
        <time>2018-04-21T07:40:29.000Z</time>
      </trkpt>
      <trkpt lat="40.81373" lon="-3.844499">
        <ele>1963.7</ele>
        <time>2018-04-21T07:40:30.000Z</time>
      </trkpt>
      <trkpt lat="40.813728" lon="-3.844507">
        <ele>1963.7</ele>
        <time>2018-04-21T07:40:31.000Z</time>
      </trkpt>
      <trkpt lat="40.813727" lon="-3.844515">
        <ele>1963.8</ele>
        <time>2018-04-21T07:40:32.000Z</time>
      </trkpt>
      <trkpt lat="40.813727" lon="-3.844524">
        <ele>1963.9</ele>
        <time>2018-04-21T07:40:33.000Z</time>
      </trkpt>
      <trkpt lat="40.813729" lon="-3.844533">
        <ele>1963.9</ele>
        <time>2018-04-21T07:40:34.000Z</time>
      </trkpt>
      <trkpt lat="40.81373" lon="-3.844542">
        <ele>1964.0</ele>
        <time>2018-04-21T07:40:35.000Z</time>
      </trkpt>
      <trkpt lat="40.813732" lon="-3.84455">
        <ele>1964.1</ele>
        <time>2018-04-21T07:40:36.000Z</time>
      </trkpt>
      <trkpt lat="40.813734" lon="-3.844559">
        <ele>1964.1</ele>
        <time>2018-04-21T07:40:37.000Z</time>
      </trkpt>
      <trkpt lat="40.813736" lon="-3.844568">
        <ele>1964.2</ele>
        <time>2018-04-21T07:40:38.000Z</time>
      </trkpt>
      <trkpt lat="40.813737" lon="-3.844576">
        <ele>1964.2</ele>
        <time>2018-04-21T07:40:39.000Z</time>
      </trkpt>
      <trkpt lat="40.813738" lon="-3.844584">
        <ele>1964.3</ele>
        <time>2018-04-21T07:40:40.000Z</time>
      </trkpt>
      <trkpt lat="40.813738" lon="-3.844592">
        <ele>1964.4</ele>
        <time>2018-04-21T07:40:41.000Z</time>
      </trkpt>
      <trkpt lat="40.813737" lon="-3.844599">
        <ele>1964.4</ele>
        <time>2018-04-21T07:40:42.000Z</time>
      </trkpt>
      <trkpt lat="40.813736" lon="-3.844607">
        <ele>1964.5</ele>
        <time>2018-04-21T07:40:43.000Z</time>
      </trkpt>
      <trkpt lat="40.813734" lon="-3.844614">
        <ele>1964.6</ele>
        <time>2018-04-21T07:40:44.000Z</time>
      </trkpt>
      <trkpt lat="40.813732" lon="-3.844621">
        <ele>1964.6</ele>
        <time>2018-04-21T07:40:45.000Z</time>
      </trkpt>
      <trkpt lat="40.813729" lon="-3.844629">
        <ele>1964.7</ele>
        <time>2018-04-21T07:40:46.000Z</time>
      </trkpt>
      <trkpt lat="40.813726" lon="-3.844636">
        <ele>1964.8</ele>
        <time>2018-04-21T07:40:47.000Z</time>
      </trkpt>
      <trkpt lat="40.813723" lon="-3.844645">
        <ele>1964.8</ele>
        <time>2018-04-21T07:40:48.000Z</time>
      </trkpt>
      <trkpt lat="40.813721" lon="-3.844653">
        <ele>1964.9</ele>
        <time>2018-04-21T07:40:49.000Z</time>
      </trkpt>
      <trkpt lat="40.813718" lon="-3.844662">
        <ele>1965.0</ele>
        <time>2018-04-21T07:40:50.000Z</time>
      </trkpt>
      <trkpt lat="40.813715" lon="-3.844672">
        <ele>1965.1</ele>
        <time>2018-04-21T07:40:51.000Z</time>
      </trkpt>
      <trkpt lat="40.813713" lon="-3.844682">
        <ele>1965.2</ele>
        <time>2018-04-21T07:40:52.000Z</time>
      </trkpt>
      <trkpt lat="40.813711" lon="-3.844693">
        <ele>1965.3</ele>
        <time>2018-04-21T07:40:53.000Z</time>
      </trkpt>
      <trkpt lat="40.813709" lon="-3.844704">
        <ele>1965.4</ele>
        <time>2018-04-21T07:40:54.000Z</time>
      </trkpt>
      <trkpt lat="40.813707" lon="-3.844715">
        <ele>1965.4</ele>
        <time>2018-04-21T07:40:55.000Z</time>
      </trkpt>
      <trkpt lat="40.813706" lon="-3.844727">
        <ele>1965.5</ele>
        <time>2018-04-21T07:40:56.000Z</time>
      </trkpt>
      <trkpt lat="40.813705" lon="-3.844739">
        <ele>1965.6</ele>
        <time>2018-04-21T07:40:57.000Z</time>
      </trkpt>
      <trkpt lat="40.813704" lon="-3.844751">
        <ele>1965.7</ele>
        <time>2018-04-21T07:40:58.000Z</time>
      </trkpt>
      <trkpt lat="40.813704" lon="-3.844762">
        <ele>1965.8</ele>
        <time>2018-04-21T07:40:59.000Z</time>
      </trkpt>
      <trkpt lat="40.813704" lon="-3.844774">
        <ele>1965.9</ele>
        <time>2018-04-21T07:41:00.000Z</time>
      </trkpt>
      <trkpt lat="40.813704" lon="-3.844786">
        <ele>1966.0</ele>
        <time>2018-04-21T07:41:01.000Z</time>
      </trkpt>
      <trkpt lat="40.813704" lon="-3.844799">
        <ele>1966.1</ele>
        <time>2018-04-21T07:41:02.000Z</time>
      </trkpt>
      <trkpt lat="40.813705" lon="-3.844811">
        <ele>1966.2</ele>
        <time>2018-04-21T07:41:03.000Z</time>
      </trkpt>
      <trkpt lat="40.813706" lon="-3.844823">
        <ele>1966.3</ele>
        <time>2018-04-21T07:41:04.000Z</time>
      </trkpt>
      <trkpt lat="40.813706" lon="-3.844835">
        <ele>1966.4</ele>
        <time>2018-04-21T07:41:05.000Z</time>
      </trkpt>
      <trkpt lat="40.813707" lon="-3.844847">
        <ele>1966.5</ele>
        <time>2018-04-21T07:41:06.000Z</time>
      </trkpt>
      <trkpt lat="40.813707" lon="-3.844859">
        <ele>1966.6</ele>
        <time>2018-04-21T07:41:07.000Z</time>
      </trkpt>
      <trkpt lat="40.813708" lon="-3.84487">
        <ele>1966.6</ele>
        <time>2018-04-21T07:41:08.000Z</time>
      </trkpt>
      <trkpt lat="40.813708" lon="-3.844882">
        <ele>1966.7</ele>
        <time>2018-04-21T07:41:09.000Z</time>
      </trkpt>
      <trkpt lat="40.813708" lon="-3.844894">
        <ele>1966.8</ele>
        <time>2018-04-21T07:41:10.000Z</time>
      </trkpt>
      <trkpt lat="40.813709" lon="-3.844905">
        <ele>1966.9</ele>
        <time>2018-04-21T07:41:11.000Z</time>
      </trkpt>
      <trkpt lat="40.813709" lon="-3.844917">
        <ele>1967.0</ele>
        <time>2018-04-21T07:41:12.000Z</time>
      </trkpt>
      <trkpt lat="40.813709" lon="-3.844927">
        <ele>1967.1</ele>
        <time>2018-04-21T07:41:13.000Z</time>
      </trkpt>
      <trkpt lat="40.81371" lon="-3.844938">
        <ele>1967.2</ele>
        <time>2018-04-21T07:41:14.000Z</time>
      </trkpt>
      <trkpt lat="40.813711" lon="-3.844948">
        <ele>1967.2</ele>
        <time>2018-04-21T07:41:15.000Z</time>
      </trkpt>
      <trkpt lat="40.813713" lon="-3.844958">
        <ele>1967.3</ele>
        <time>2018-04-21T07:41:16.000Z</time>
      </trkpt>
      <trkpt lat="40.813715" lon="-3.844968">
        <ele>1967.4</ele>
        <time>2018-04-21T07:41:17.000Z</time>
      </trkpt>
      <trkpt lat="40.813717" lon="-3.844977">
        <ele>1967.4</ele>
        <time>2018-04-21T07:41:18.000Z</time>
      </trkpt>
      <trkpt lat="40.813718" lon="-3.844986">
        <ele>1967.5</ele>
        <time>2018-04-21T07:41:19.000Z</time>
      </trkpt>
      <trkpt lat="40.813719" lon="-3.844996">
        <ele>1967.6</ele>
        <time>2018-04-21T07:41:20.000Z</time>
      </trkpt>
      <trkpt lat="40.813718" lon="-3.845005">
        <ele>1967.6</ele>
        <time>2018-04-21T07:41:21.000Z</time>
      </trkpt>
      <trkpt lat="40.813715" lon="-3.845016">
        <ele>1967.7</ele>
        <time>2018-04-21T07:41:22.000Z</time>
      </trkpt>
      <trkpt lat="40.813712" lon="-3.845026">
        <ele>1967.7</ele>
        <time>2018-04-21T07:41:23.000Z</time>
      </trkpt>
      <trkpt lat="40.813709" lon="-3.845038">
        <ele>1967.8</ele>
        <time>2018-04-21T07:41:24.000Z</time>
      </trkpt>
      <trkpt lat="40.813706" lon="-3.84505">
        <ele>1967.8</ele>
        <time>2018-04-21T07:41:25.000Z</time>
      </trkpt>
      <trkpt lat="40.813705" lon="-3.845062">
        <ele>1967.9</ele>
        <time>2018-04-21T07:41:26.000Z</time>
      </trkpt>
      <trkpt lat="40.813704" lon="-3.845075">
        <ele>1967.9</ele>
        <time>2018-04-21T07:41:27.000Z</time>
      </trkpt>
      <trkpt lat="40.813705" lon="-3.845089">
        <ele>1967.9</ele>
        <time>2018-04-21T07:41:28.000Z</time>
      </trkpt>
      <trkpt lat="40.813707" lon="-3.845102">
        <ele>1968.0</ele>
        <time>2018-04-21T07:41:29.000Z</time>
      </trkpt>
      <trkpt lat="40.813709" lon="-3.845115">
        <ele>1968.0</ele>
        <time>2018-04-21T07:41:30.000Z</time>
      </trkpt>
      <trkpt lat="40.813711" lon="-3.845128">
        <ele>1968.0</ele>
        <time>2018-04-21T07:41:31.000Z</time>
      </trkpt>
      <trkpt lat="40.813713" lon="-3.845139">
        <ele>1968.1</ele>
        <time>2018-04-21T07:41:32.000Z</time>
      </trkpt>
      <trkpt lat="40.813715" lon="-3.84515">
        <ele>1968.1</ele>
        <time>2018-04-21T07:41:33.000Z</time>
      </trkpt>
      <trkpt lat="40.813716" lon="-3.84516">
        <ele>1968.1</ele>
        <time>2018-04-21T07:41:34.000Z</time>
      </trkpt>
      <trkpt lat="40.813716" lon="-3.845168">
        <ele>1968.1</ele>
        <time>2018-04-21T07:41:35.000Z</time>
      </trkpt>
      <trkpt lat="40.813716" lon="-3.845175">
        <ele>1968.2</ele>
        <time>2018-04-21T07:41:36.000Z</time>
      </trkpt>
      <trkpt lat="40.813715" lon="-3.845182">
        <ele>1968.2</ele>
        <time>2018-04-21T07:41:37.000Z</time>
      </trkpt>
      <trkpt lat="40.813713" lon="-3.845187">
        <ele>1968.2</ele>
        <time>2018-04-21T07:41:38.000Z</time>
      </trkpt>
      <trkpt lat="40.813712" lon="-3.845193">
        <ele>1968.2</ele>
        <time>2018-04-21T07:41:39.000Z</time>
      </trkpt>
      <trkpt lat="40.81371" lon="-3.845198">
        <ele>1968.2</ele>
        <time>2018-04-21T07:41:40.000Z</time>
      </trkpt>
      <trkpt lat="40.813707" lon="-3.845204">
        <ele>1968.3</ele>
        <time>2018-04-21T07:41:41.000Z</time>
      </trkpt>
      <trkpt lat="40.813705" lon="-3.84521">
        <ele>1968.3</ele>
        <time>2018-04-21T07:41:42.000Z</time>
      </trkpt>
      <trkpt lat="40.813703" lon="-3.845217">
        <ele>1968.3</ele>
        <time>2018-04-21T07:41:43.000Z</time>
      </trkpt>
      <trkpt lat="40.813701" lon="-3.845226">
        <ele>1968.4</ele>
        <time>2018-04-21T07:41:44.000Z</time>
      </trkpt>
      <trkpt lat="40.813699" lon="-3.845235">
        <ele>1968.4</ele>
        <time>2018-04-21T07:41:45.000Z</time>
      </trkpt>
      <trkpt lat="40.813698" lon="-3.845245">
        <ele>1968.4</ele>
        <time>2018-04-21T07:41:46.000Z</time>
      </trkpt>
      <trkpt lat="40.813697" lon="-3.845255">
        <ele>1968.5</ele>
        <time>2018-04-21T07:41:47.000Z</time>
      </trkpt>
      <trkpt lat="40.813696" lon="-3.845266">
        <ele>1968.5</ele>
        <time>2018-04-21T07:41:48.000Z</time>
      </trkpt>
      <trkpt lat="40.813696" lon="-3.845277">
        <ele>1968.5</ele>
        <time>2018-04-21T07:41:49.000Z</time>
      </trkpt>
      <trkpt lat="40.813696" lon="-3.845287">
        <ele>1968.6</ele>
        <time>2018-04-21T07:41:50.000Z</time>
      </trkpt>
      <trkpt lat="40.813697" lon="-3.845297">
        <ele>1968.6</ele>
        <time>2018-04-21T07:41:51.000Z</time>
      </trkpt>
      <trkpt lat="40.813698" lon="-3.845306">
        <ele>1968.6</ele>
        <time>2018-04-21T07:41:52.000Z</time>
      </trkpt>
      <trkpt lat="40.8137" lon="-3.845315">
        <ele>1968.6</ele>
        <time>2018-04-21T07:41:53.000Z</time>
      </trkpt>
      <trkpt lat="40.813702" lon="-3.845323">
        <ele>1968.7</ele>
        <time>2018-04-21T07:41:54.000Z</time>
      </trkpt>
      <trkpt lat="40.813704" lon="-3.84533">
        <ele>1968.7</ele>
        <time>2018-04-21T07:41:55.000Z</time>
      </trkpt>
      <trkpt lat="40.813707" lon="-3.845337">
        <ele>1968.7</ele>
        <time>2018-04-21T07:41:56.000Z</time>
      </trkpt>
      <trkpt lat="40.813709" lon="-3.845343">
        <ele>1968.7</ele>
        <time>2018-04-21T07:41:57.000Z</time>
      </trkpt>
      <trkpt lat="40.813711" lon="-3.84535">
        <ele>1968.7</ele>
        <time>2018-04-21T07:41:58.000Z</time>
      </trkpt>
      <trkpt lat="40.813712" lon="-3.845356">
        <ele>1968.7</ele>
        <time>2018-04-21T07:41:59.000Z</time>
      </trkpt>
      <trkpt lat="40.813713" lon="-3.845363">
        <ele>1968.7</ele>
        <time>2018-04-21T07:42:00.000Z</time>
      </trkpt>
      <trkpt lat="40.813713" lon="-3.84537">
        <ele>1968.8</ele>
        <time>2018-04-21T07:42:01.000Z</time>
      </trkpt>
      <trkpt lat="40.813712" lon="-3.845378">
        <ele>1968.8</ele>
        <time>2018-04-21T07:42:02.000Z</time>
      </trkpt>
      <trkpt lat="40.81371" lon="-3.845387">
        <ele>1968.8</ele>
        <time>2018-04-21T07:42:03.000Z</time>
      </trkpt>
      <trkpt lat="40.813707" lon="-3.845396">
        <ele>1968.9</ele>
        <time>2018-04-21T07:42:04.000Z</time>
      </trkpt>
      <trkpt lat="40.813704" lon="-3.845405">
        <ele>1968.9</ele>
        <time>2018-04-21T07:42:05.000Z</time>
      </trkpt>
      <trkpt lat="40.813701" lon="-3.845415">
        <ele>1969.0</ele>
        <time>2018-04-21T07:42:06.000Z</time>
      </trkpt>
      <trkpt lat="40.813697" lon="-3.845425">
        <ele>1969.0</ele>
        <time>2018-04-21T07:42:07.000Z</time>
      </trkpt>
      <trkpt lat="40.813694" lon="-3.845436">
        <ele>1969.0</ele>
        <time>2018-04-21T07:42:08.000Z</time>
      </trkpt>
      <trkpt lat="40.813691" lon="-3.845446">
        <ele>1969.1</ele>
        <time>2018-04-21T07:42:09.000Z</time>
      </trkpt>
      <trkpt lat="40.813688" lon="-3.845458">
        <ele>1969.1</ele>
        <time>2018-04-21T07:42:10.000Z</time>
      </trkpt>
      <trkpt lat="40.813685" lon="-3.845469">
        <ele>1969.2</ele>
        <time>2018-04-21T07:42:11.000Z</time>
      </trkpt>
      <trkpt lat="40.813684" lon="-3.84548">
        <ele>1969.2</ele>
        <time>2018-04-21T07:42:12.000Z</time>
      </trkpt>
      <trkpt lat="40.813682" lon="-3.845492">
        <ele>1969.3</ele>
        <time>2018-04-21T07:42:13.000Z</time>
      </trkpt>
      <trkpt lat="40.813681" lon="-3.845504">
        <ele>1969.3</ele>
        <time>2018-04-21T07:42:14.000Z</time>
      </trkpt>
      <trkpt lat="40.813679" lon="-3.845516">
        <ele>1969.4</ele>
        <time>2018-04-21T07:42:15.000Z</time>
      </trkpt>
      <trkpt lat="40.813678" lon="-3.845527">
        <ele>1969.4</ele>
        <time>2018-04-21T07:42:16.000Z</time>
      </trkpt>
      <trkpt lat="40.813677" lon="-3.845539">
        <ele>1969.4</ele>
        <time>2018-04-21T07:42:17.000Z</time>
      </trkpt>
      <trkpt lat="40.813676" lon="-3.845551">
        <ele>1969.5</ele>
        <time>2018-04-21T07:42:18.000Z</time>
      </trkpt>
      <trkpt lat="40.813674" lon="-3.845563">
        <ele>1969.5</ele>
        <time>2018-04-21T07:42:19.000Z</time>
      </trkpt>
      <trkpt lat="40.813672" lon="-3.845575">
        <ele>1969.6</ele>
        <time>2018-04-21T07:42:20.000Z</time>
      </trkpt>
      <trkpt lat="40.813669" lon="-3.845587">
        <ele>1969.6</ele>
        <time>2018-04-21T07:42:21.000Z</time>
      </trkpt>
      <trkpt lat="40.813666" lon="-3.845598">
        <ele>1969.7</ele>
        <time>2018-04-21T07:42:22.000Z</time>
      </trkpt>
      <trkpt lat="40.813662" lon="-3.84561">
        <ele>1969.7</ele>
        <time>2018-04-21T07:42:23.000Z</time>
      </trkpt>
      <trkpt lat="40.813658" lon="-3.845621">
        <ele>1969.8</ele>
        <time>2018-04-21T07:42:24.000Z</time>
      </trkpt>
      <trkpt lat="40.813654" lon="-3.845631">
        <ele>1969.8</ele>
        <time>2018-04-21T07:42:25.000Z</time>
      </trkpt>
      <trkpt lat="40.813649" lon="-3.845642">
        <ele>1969.9</ele>
        <time>2018-04-21T07:42:26.000Z</time>
      </trkpt>
      <trkpt lat="40.813643" lon="-3.845651">
        <ele>1969.9</ele>
        <time>2018-04-21T07:42:27.000Z</time>
      </trkpt>
      <trkpt lat="40.813637" lon="-3.845661">
        <ele>1970.0</ele>
        <time>2018-04-21T07:42:28.000Z</time>
      </trkpt>
      <trkpt lat="40.81363" lon="-3.845669">
        <ele>1970.1</ele>
        <time>2018-04-21T07:42:29.000Z</time>
      </trkpt>
      <trkpt lat="40.813623" lon="-3.845678">
        <ele>1970.1</ele>
        <time>2018-04-21T07:42:30.000Z</time>
      </trkpt>
      <trkpt lat="40.813615" lon="-3.845686">
        <ele>1970.2</ele>
        <time>2018-04-21T07:42:31.000Z</time>
      </trkpt>
      <trkpt lat="40.813607" lon="-3.845693">
        <ele>1970.2</ele>
        <time>2018-04-21T07:42:32.000Z</time>
      </trkpt>
      <trkpt lat="40.8136" lon="-3.845701">
        <ele>1970.3</ele>
        <time>2018-04-21T07:42:33.000Z</time>
      </trkpt>
      <trkpt lat="40.813592" lon="-3.845709">
        <ele>1970.4</ele>
        <time>2018-04-21T07:42:34.000Z</time>
      </trkpt>
      <trkpt lat="40.813584" lon="-3.845716">
        <ele>1970.4</ele>
        <time>2018-04-21T07:42:35.000Z</time>
      </trkpt>
      <trkpt lat="40.813577" lon="-3.845725">
        <ele>1970.5</ele>
        <time>2018-04-21T07:42:36.000Z</time>
      </trkpt>
      <trkpt lat="40.81357" lon="-3.845733">
        <ele>1970.5</ele>
        <time>2018-04-21T07:42:37.000Z</time>
      </trkpt>
      <trkpt lat="40.813563" lon="-3.845742">
        <ele>1970.6</ele>
        <time>2018-04-21T07:42:38.000Z</time>
      </trkpt>
      <trkpt lat="40.813557" lon="-3.845752">
        <ele>1970.7</ele>
        <time>2018-04-21T07:42:39.000Z</time>
      </trkpt>
      <trkpt lat="40.813552" lon="-3.845763">
        <ele>1970.7</ele>
        <time>2018-04-21T07:42:40.000Z</time>
      </trkpt>
      <trkpt lat="40.813547" lon="-3.845774">
        <ele>1970.8</ele>
        <time>2018-04-21T07:42:41.000Z</time>
      </trkpt>
      <trkpt lat="40.813542" lon="-3.845785">
        <ele>1970.8</ele>
        <time>2018-04-21T07:42:42.000Z</time>
      </trkpt>
      <trkpt lat="40.813538" lon="-3.845796">
        <ele>1970.9</ele>
        <time>2018-04-21T07:42:43.000Z</time>
      </trkpt>
      <trkpt lat="40.813534" lon="-3.845808">
        <ele>1971.0</ele>
        <time>2018-04-21T07:42:44.000Z</time>
      </trkpt>
      <trkpt lat="40.81353" lon="-3.84582">
        <ele>1971.0</ele>
        <time>2018-04-21T07:42:45.000Z</time>
      </trkpt>
      <trkpt lat="40.813526" lon="-3.845832">
        <ele>1971.1</ele>
        <time>2018-04-21T07:42:46.000Z</time>
      </trkpt>
      <trkpt lat="40.813522" lon="-3.845844">
        <ele>1971.1</ele>
        <time>2018-04-21T07:42:47.000Z</time>
      </trkpt>
      <trkpt lat="40.813518" lon="-3.845856">
        <ele>1971.1</ele>
        <time>2018-04-21T07:42:48.000Z</time>
      </trkpt>
      <trkpt lat="40.813514" lon="-3.845867">
        <ele>1971.1</ele>
        <time>2018-04-21T07:42:49.000Z</time>
      </trkpt>
      <trkpt lat="40.813509" lon="-3.845879">
        <ele>1971.2</ele>
        <time>2018-04-21T07:42:50.000Z</time>
      </trkpt>
      <trkpt lat="40.813505" lon="-3.84589">
        <ele>1971.2</ele>
        <time>2018-04-21T07:42:51.000Z</time>
      </trkpt>
      <trkpt lat="40.8135" lon="-3.845901">
        <ele>1971.2</ele>
        <time>2018-04-21T07:42:52.000Z</time>
      </trkpt>
      <trkpt lat="40.813495" lon="-3.845912">
        <ele>1971.2</ele>
        <time>2018-04-21T07:42:53.000Z</time>
      </trkpt>
      <trkpt lat="40.813489" lon="-3.845924">
        <ele>1971.3</ele>
        <time>2018-04-21T07:42:54.000Z</time>
      </trkpt>
      <trkpt lat="40.813484" lon="-3.845935">
        <ele>1971.3</ele>
        <time>2018-04-21T07:42:55.000Z</time>
      </trkpt>
      <trkpt lat="40.813478" lon="-3.845947">
        <ele>1971.4</ele>
        <time>2018-04-21T07:42:56.000Z</time>
      </trkpt>
      <trkpt lat="40.813471" lon="-3.845958">
        <ele>1971.4</ele>
        <time>2018-04-21T07:42:57.000Z</time>
      </trkpt>
      <trkpt lat="40.813465" lon="-3.84597">
        <ele>1971.5</ele>
        <time>2018-04-21T07:42:58.000Z</time>
      </trkpt>
      <trkpt lat="40.81346" lon="-3.845982">
        <ele>1971.5</ele>
        <time>2018-04-21T07:42:59.000Z</time>
      </trkpt>
      <trkpt lat="40.813455" lon="-3.845995">
        <ele>1971.5</ele>
        <time>2018-04-21T07:43:00.000Z</time>
      </trkpt>
      <trkpt lat="40.813453" lon="-3.846009">
        <ele>1971.6</ele>
        <time>2018-04-21T07:43:01.000Z</time>
      </trkpt>
      <trkpt lat="40.813452" lon="-3.846023">
        <ele>1971.6</ele>
        <time>2018-04-21T07:43:02.000Z</time>
      </trkpt>
      <trkpt lat="40.813453" lon="-3.846038">
        <ele>1971.6</ele>
        <time>2018-04-21T07:43:03.000Z</time>
      </trkpt>
      <trkpt lat="40.813454" lon="-3.846053">
        <ele>1971.6</ele>
        <time>2018-04-21T07:43:04.000Z</time>
      </trkpt>
      <trkpt lat="40.813455" lon="-3.846069">
        <ele>1971.6</ele>
        <time>2018-04-21T07:43:05.000Z</time>
      </trkpt>
      <trkpt lat="40.813456" lon="-3.846085">
        <ele>1971.6</ele>
        <time>2018-04-21T07:43:06.000Z</time>
      </trkpt>
      <trkpt lat="40.813456" lon="-3.8461">
        <ele>1971.6</ele>
        <time>2018-04-21T07:43:07.000Z</time>
      </trkpt>
      <trkpt lat="40.813456" lon="-3.846116">
        <ele>1971.6</ele>
        <time>2018-04-21T07:43:08.000Z</time>
      </trkpt>
      <trkpt lat="40.813456" lon="-3.846131">
        <ele>1971.7</ele>
        <time>2018-04-21T07:43:09.000Z</time>
      </trkpt>
      <trkpt lat="40.813455" lon="-3.846147">
        <ele>1971.7</ele>
        <time>2018-04-21T07:43:10.000Z</time>
      </trkpt>
      <trkpt lat="40.813454" lon="-3.846162">
        <ele>1971.7</ele>
        <time>2018-04-21T07:43:11.000Z</time>
      </trkpt>
      <trkpt lat="40.813453" lon="-3.846178">
        <ele>1971.7</ele>
        <time>2018-04-21T07:43:12.000Z</time>
      </trkpt>
      <trkpt lat="40.813451" lon="-3.846194">
        <ele>1971.8</ele>
        <time>2018-04-21T07:43:13.000Z</time>
      </trkpt>
      <trkpt lat="40.813451" lon="-3.846209">
        <ele>1971.8</ele>
        <time>2018-04-21T07:43:14.000Z</time>
      </trkpt>
      <trkpt lat="40.81345" lon="-3.846225">
        <ele>1971.8</ele>
        <time>2018-04-21T07:43:15.000Z</time>
      </trkpt>
      <trkpt lat="40.813449" lon="-3.846241">
        <ele>1971.8</ele>
        <time>2018-04-21T07:43:16.000Z</time>
      </trkpt>
      <trkpt lat="40.813449" lon="-3.846257">
        <ele>1971.8</ele>
        <time>2018-04-21T07:43:17.000Z</time>
      </trkpt>
      <trkpt lat="40.813448" lon="-3.846273">
        <ele>1971.9</ele>
        <time>2018-04-21T07:43:18.000Z</time>
      </trkpt>
      <trkpt lat="40.813447" lon="-3.846288">
        <ele>1971.9</ele>
        <time>2018-04-21T07:43:19.000Z</time>
      </trkpt>
      <trkpt lat="40.813447" lon="-3.846304">
        <ele>1971.9</ele>
        <time>2018-04-21T07:43:20.000Z</time>
      </trkpt>
      <trkpt lat="40.813446" lon="-3.84632">
        <ele>1971.9</ele>
        <time>2018-04-21T07:43:21.000Z</time>
      </trkpt>
      <trkpt lat="40.813444" lon="-3.846335">
        <ele>1972.0</ele>
        <time>2018-04-21T07:43:22.000Z</time>
      </trkpt>
      <trkpt lat="40.813442" lon="-3.84635">
        <ele>1972.0</ele>
        <time>2018-04-21T07:43:23.000Z</time>
      </trkpt>
      <trkpt lat="40.81344" lon="-3.846366">
        <ele>1972.0</ele>
        <time>2018-04-21T07:43:24.000Z</time>
      </trkpt>
      <trkpt lat="40.813437" lon="-3.846381">
        <ele>1972.1</ele>
        <time>2018-04-21T07:43:25.000Z</time>
      </trkpt>
      <trkpt lat="40.813434" lon="-3.846396">
        <ele>1972.1</ele>
        <time>2018-04-21T07:43:26.000Z</time>
      </trkpt>
      <trkpt lat="40.81343" lon="-3.84641">
        <ele>1972.2</ele>
        <time>2018-04-21T07:43:27.000Z</time>
      </trkpt>
      <trkpt lat="40.813426" lon="-3.846425">
        <ele>1972.3</ele>
        <time>2018-04-21T07:43:28.000Z</time>
      </trkpt>
      <trkpt lat="40.813422" lon="-3.84644">
        <ele>1972.3</ele>
        <time>2018-04-21T07:43:29.000Z</time>
      </trkpt>
      <trkpt lat="40.813417" lon="-3.846454">
        <ele>1972.4</ele>
        <time>2018-04-21T07:43:30.000Z</time>
      </trkpt>
      <trkpt lat="40.813412" lon="-3.846469">
        <ele>1972.5</ele>
        <time>2018-04-21T07:43:31.000Z</time>
      </trkpt>
      <trkpt lat="40.813408" lon="-3.846483">
        <ele>1972.6</ele>
        <time>2018-04-21T07:43:32.000Z</time>
      </trkpt>
      <trkpt lat="40.813403" lon="-3.846497">
        <ele>1972.7</ele>
        <time>2018-04-21T07:43:33.000Z</time>
      </trkpt>
      <trkpt lat="40.813398" lon="-3.846512">
        <ele>1972.7</ele>
        <time>2018-04-21T07:43:34.000Z</time>
      </trkpt>
      <trkpt lat="40.813393" lon="-3.846526">
        <ele>1972.8</ele>
        <time>2018-04-21T07:43:35.000Z</time>
      </trkpt>
      <trkpt lat="40.813388" lon="-3.846541">
        <ele>1972.9</ele>
        <time>2018-04-21T07:43:36.000Z</time>
      </trkpt>
      <trkpt lat="40.813384" lon="-3.846555">
        <ele>1973.0</ele>
        <time>2018-04-21T07:43:37.000Z</time>
      </trkpt>
      <trkpt lat="40.813379" lon="-3.84657">
        <ele>1973.1</ele>
        <time>2018-04-21T07:43:38.000Z</time>
      </trkpt>
      <trkpt lat="40.813375" lon="-3.846584">
        <ele>1973.2</ele>
        <time>2018-04-21T07:43:39.000Z</time>
      </trkpt>
      <trkpt lat="40.813371" lon="-3.846599">
        <ele>1973.3</ele>
        <time>2018-04-21T07:43:40.000Z</time>
      </trkpt>
      <trkpt lat="40.813368" lon="-3.846613">
        <ele>1973.4</ele>
        <time>2018-04-21T07:43:41.000Z</time>
      </trkpt>
      <trkpt lat="40.813365" lon="-3.846628">
        <ele>1973.4</ele>
        <time>2018-04-21T07:43:42.000Z</time>
      </trkpt>
      <trkpt lat="40.813362" lon="-3.846643">
        <ele>1973.5</ele>
        <time>2018-04-21T07:43:43.000Z</time>
      </trkpt>
      <trkpt lat="40.81336" lon="-3.846658">
        <ele>1973.6</ele>
        <time>2018-04-21T07:43:44.000Z</time>
      </trkpt>
      <trkpt lat="40.813358" lon="-3.846674">
        <ele>1973.7</ele>
        <time>2018-04-21T07:43:45.000Z</time>
      </trkpt>
      <trkpt lat="40.813356" lon="-3.846689">
        <ele>1973.8</ele>
        <time>2018-04-21T07:43:46.000Z</time>
      </trkpt>
      <trkpt lat="40.813355" lon="-3.846705">
        <ele>1973.9</ele>
        <time>2018-04-21T07:43:47.000Z</time>
      </trkpt>
      <trkpt lat="40.813355" lon="-3.846721">
        <ele>1974.0</ele>
        <time>2018-04-21T07:43:48.000Z</time>
      </trkpt>
      <trkpt lat="40.813354" lon="-3.846737">
        <ele>1974.1</ele>
        <time>2018-04-21T07:43:49.000Z</time>
      </trkpt>
      <trkpt lat="40.813354" lon="-3.846754">
        <ele>1974.2</ele>
        <time>2018-04-21T07:43:50.000Z</time>
      </trkpt>
      <trkpt lat="40.813355" lon="-3.84677">
        <ele>1974.3</ele>
        <time>2018-04-21T07:43:51.000Z</time>
      </trkpt>
      <trkpt lat="40.813356" lon="-3.846787">
        <ele>1974.3</ele>
        <time>2018-04-21T07:43:52.000Z</time>
      </trkpt>
      <trkpt lat="40.813356" lon="-3.846804">
        <ele>1974.4</ele>
        <time>2018-04-21T07:43:53.000Z</time>
      </trkpt>
      <trkpt lat="40.813357" lon="-3.846821">
        <ele>1974.5</ele>
        <time>2018-04-21T07:43:54.000Z</time>
      </trkpt>
      <trkpt lat="40.813357" lon="-3.846837">
        <ele>1974.6</ele>
        <time>2018-04-21T07:43:55.000Z</time>
      </trkpt>
      <trkpt lat="40.813357" lon="-3.846853">
        <ele>1974.7</ele>
        <time>2018-04-21T07:43:56.000Z</time>
      </trkpt>
      <trkpt lat="40.813356" lon="-3.846868">
        <ele>1974.8</ele>
        <time>2018-04-21T07:43:57.000Z</time>
      </trkpt>
      <trkpt lat="40.813355" lon="-3.846881">
        <ele>1974.9</ele>
        <time>2018-04-21T07:43:58.000Z</time>
      </trkpt>
      <trkpt lat="40.813352" lon="-3.846894">
        <ele>1975.0</ele>
        <time>2018-04-21T07:43:59.000Z</time>
      </trkpt>
      <trkpt lat="40.813348" lon="-3.846906">
        <ele>1975.2</ele>
        <time>2018-04-21T07:44:00.000Z</time>
      </trkpt>
      <trkpt lat="40.813344" lon="-3.846917">
        <ele>1975.3</ele>
        <time>2018-04-21T07:44:01.000Z</time>
      </trkpt>
      <trkpt lat="40.813339" lon="-3.846928">
        <ele>1975.5</ele>
        <time>2018-04-21T07:44:02.000Z</time>
      </trkpt>
      <trkpt lat="40.813335" lon="-3.84694">
        <ele>1975.6</ele>
        <time>2018-04-21T07:44:03.000Z</time>
      </trkpt>
      <trkpt lat="40.813332" lon="-3.846953">
        <ele>1975.7</ele>
        <time>2018-04-21T07:44:04.000Z</time>
      </trkpt>
      <trkpt lat="40.81333" lon="-3.846967">
        <ele>1975.7</ele>
        <time>2018-04-21T07:44:05.000Z</time>
      </trkpt>
      <trkpt lat="40.81333" lon="-3.846983">
        <ele>1975.8</ele>
        <time>2018-04-21T07:44:06.000Z</time>
      </trkpt>
      <trkpt lat="40.81333" lon="-3.846999">
        <ele>1975.9</ele>
        <time>2018-04-21T07:44:07.000Z</time>
      </trkpt>
      <trkpt lat="40.813331" lon="-3.847015">
        <ele>1976.0</ele>
        <time>2018-04-21T07:44:08.000Z</time>
      </trkpt>
      <trkpt lat="40.813332" lon="-3.84703">
        <ele>1976.1</ele>
        <time>2018-04-21T07:44:09.000Z</time>
      </trkpt>
      <trkpt lat="40.813333" lon="-3.847044">
        <ele>1976.3</ele>
        <time>2018-04-21T07:44:10.000Z</time>
      </trkpt>
      <trkpt lat="40.813334" lon="-3.847056">
        <ele>1976.3</ele>
        <time>2018-04-21T07:44:11.000Z</time>
      </trkpt>
      <trkpt lat="40.813336" lon="-3.847068">
        <ele>1976.4</ele>
        <time>2018-04-21T07:44:12.000Z</time>
      </trkpt>
      <trkpt lat="40.813336" lon="-3.847079">
        <ele>1976.4</ele>
        <time>2018-04-21T07:44:13.000Z</time>
      </trkpt>
      <trkpt lat="40.813337" lon="-3.847089">
        <ele>1976.5</ele>
        <time>2018-04-21T07:44:14.000Z</time>
      </trkpt>
      <trkpt lat="40.813337" lon="-3.847098">
        <ele>1976.5</ele>
        <time>2018-04-21T07:44:15.000Z</time>
      </trkpt>
      <trkpt lat="40.813336" lon="-3.847107">
        <ele>1976.6</ele>
        <time>2018-04-21T07:44:16.000Z</time>
      </trkpt>
      <trkpt lat="40.813335" lon="-3.847114">
        <ele>1976.7</ele>
        <time>2018-04-21T07:44:17.000Z</time>
      </trkpt>
      <trkpt lat="40.813333" lon="-3.847122">
        <ele>1976.7</ele>
        <time>2018-04-21T07:44:18.000Z</time>
      </trkpt>
      <trkpt lat="40.81333" lon="-3.847129">
        <ele>1976.7</ele>
        <time>2018-04-21T07:44:19.000Z</time>
      </trkpt>
      <trkpt lat="40.813326" lon="-3.847136">
        <ele>1976.6</ele>
        <time>2018-04-21T07:44:20.000Z</time>
      </trkpt>
      <trkpt lat="40.813323" lon="-3.847142">
        <ele>1976.5</ele>
        <time>2018-04-21T07:44:21.000Z</time>
      </trkpt>
      <trkpt lat="40.81332" lon="-3.847149">
        <ele>1976.5</ele>
        <time>2018-04-21T07:44:22.000Z</time>
      </trkpt>
      <trkpt lat="40.813317" lon="-3.847156">
        <ele>1976.4</ele>
        <time>2018-04-21T07:44:23.000Z</time>
      </trkpt>
      <trkpt lat="40.813315" lon="-3.847163">
        <ele>1976.4</ele>
        <time>2018-04-21T07:44:24.000Z</time>
      </trkpt>
      <trkpt lat="40.813313" lon="-3.847171">
        <ele>1976.4</ele>
        <time>2018-04-21T07:44:25.000Z</time>
      </trkpt>
      <trkpt lat="40.813313" lon="-3.84718">
        <ele>1976.5</ele>
        <time>2018-04-21T07:44:26.000Z</time>
      </trkpt>
      <trkpt lat="40.813314" lon="-3.847189">
        <ele>1976.5</ele>
        <time>2018-04-21T07:44:27.000Z</time>
      </trkpt>
      <trkpt lat="40.813315" lon="-3.847199">
        <ele>1976.6</ele>
        <time>2018-04-21T07:44:28.000Z</time>
      </trkpt>
      <trkpt lat="40.813316" lon="-3.84721">
        <ele>1976.7</ele>
        <time>2018-04-21T07:44:29.000Z</time>
      </trkpt>
      <trkpt lat="40.813315" lon="-3.847221">
        <ele>1976.8</ele>
        <time>2018-04-21T07:44:30.000Z</time>
      </trkpt>
      <trkpt lat="40.813313" lon="-3.847233">
        <ele>1976.8</ele>
        <time>2018-04-21T07:44:31.000Z</time>
      </trkpt>
      <trkpt lat="40.813308" lon="-3.847245">
        <ele>1976.7</ele>
        <time>2018-04-21T07:44:32.000Z</time>
      </trkpt>
      <trkpt lat="40.813301" lon="-3.847257">
        <ele>1976.6</ele>
        <time>2018-04-21T07:44:33.000Z</time>
      </trkpt>
      <trkpt lat="40.813293" lon="-3.84727">
        <ele>1976.4</ele>
        <time>2018-04-21T07:44:34.000Z</time>
      </trkpt>
      <trkpt lat="40.813286" lon="-3.847282">
        <ele>1976.3</ele>
        <time>2018-04-21T07:44:35.000Z</time>
      </trkpt>
      <trkpt lat="40.81328" lon="-3.847295">
        <ele>1976.2</ele>
        <time>2018-04-21T07:44:36.000Z</time>
      </trkpt>
      <trkpt lat="40.813275" lon="-3.847309">
        <ele>1976.1</ele>
        <time>2018-04-21T07:44:37.000Z</time>
      </trkpt>
      <trkpt lat="40.813272" lon="-3.847322">
        <ele>1976.1</ele>
        <time>2018-04-21T07:44:38.000Z</time>
      </trkpt>
      <trkpt lat="40.81327" lon="-3.847336">
        <ele>1976.1</ele>
        <time>2018-04-21T07:44:39.000Z</time>
      </trkpt>
      <trkpt lat="40.813269" lon="-3.847349">
        <ele>1976.2</ele>
        <time>2018-04-21T07:44:40.000Z</time>
      </trkpt>
      <trkpt lat="40.813268" lon="-3.847362">
        <ele>1976.2</ele>
        <time>2018-04-21T07:44:41.000Z</time>
      </trkpt>
      <trkpt lat="40.813269" lon="-3.847375">
        <ele>1976.3</ele>
        <time>2018-04-21T07:44:42.000Z</time>
      </trkpt>
      <trkpt lat="40.813269" lon="-3.847387">
        <ele>1976.4</ele>
        <time>2018-04-21T07:44:43.000Z</time>
      </trkpt>
      <trkpt lat="40.81327" lon="-3.847398">
        <ele>1976.5</ele>
        <time>2018-04-21T07:44:44.000Z</time>
      </trkpt>
      <trkpt lat="40.813272" lon="-3.847409">
        <ele>1976.6</ele>
        <time>2018-04-21T07:44:45.000Z</time>
      </trkpt>
      <trkpt lat="40.813273" lon="-3.847418">
        <ele>1976.7</ele>
        <time>2018-04-21T07:44:46.000Z</time>
      </trkpt>
      <trkpt lat="40.813274" lon="-3.847428">
        <ele>1976.8</ele>
        <time>2018-04-21T07:44:47.000Z</time>
      </trkpt>
      <trkpt lat="40.813275" lon="-3.847436">
        <ele>1976.9</ele>
        <time>2018-04-21T07:44:48.000Z</time>
      </trkpt>
      <trkpt lat="40.813276" lon="-3.847445">
        <ele>1976.9</ele>
        <time>2018-04-21T07:44:49.000Z</time>
      </trkpt>
      <trkpt lat="40.813276" lon="-3.847452">
        <ele>1977.0</ele>
        <time>2018-04-21T07:44:50.000Z</time>
      </trkpt>
      <trkpt lat="40.813276" lon="-3.84746">
        <ele>1977.0</ele>
        <time>2018-04-21T07:44:51.000Z</time>
      </trkpt>
      <trkpt lat="40.813275" lon="-3.847468">
        <ele>1977.1</ele>
        <time>2018-04-21T07:44:52.000Z</time>
      </trkpt>
      <trkpt lat="40.813273" lon="-3.847475">
        <ele>1977.0</ele>
        <time>2018-04-21T07:44:53.000Z</time>
      </trkpt>
      <trkpt lat="40.813271" lon="-3.847483">
        <ele>1977.0</ele>
        <time>2018-04-21T07:44:54.000Z</time>
      </trkpt>
      <trkpt lat="40.813267" lon="-3.847491">
        <ele>1977.0</ele>
        <time>2018-04-21T07:44:55.000Z</time>
      </trkpt>
      <trkpt lat="40.813263" lon="-3.847499">
        <ele>1976.9</ele>
        <time>2018-04-21T07:44:56.000Z</time>
      </trkpt>
      <trkpt lat="40.813259" lon="-3.847507">
        <ele>1976.8</ele>
        <time>2018-04-21T07:44:57.000Z</time>
      </trkpt>
      <trkpt lat="40.813254" lon="-3.847515">
        <ele>1976.7</ele>
        <time>2018-04-21T07:44:58.000Z</time>
      </trkpt>
      <trkpt lat="40.81325" lon="-3.847524">
        <ele>1976.7</ele>
        <time>2018-04-21T07:44:59.000Z</time>
      </trkpt>
      <trkpt lat="40.813246" lon="-3.847533">
        <ele>1976.6</ele>
        <time>2018-04-21T07:45:00.000Z</time>
      </trkpt>
      <trkpt lat="40.813242" lon="-3.847543">
        <ele>1976.5</ele>
        <time>2018-04-21T07:45:01.000Z</time>
      </trkpt>
      <trkpt lat="40.813238" lon="-3.847553">
        <ele>1976.5</ele>
        <time>2018-04-21T07:45:02.000Z</time>
      </trkpt>
      <trkpt lat="40.813236" lon="-3.847564">
        <ele>1976.5</ele>
        <time>2018-04-21T07:45:03.000Z</time>
      </trkpt>
      <trkpt lat="40.813234" lon="-3.847575">
        <ele>1976.5</ele>
        <time>2018-04-21T07:45:04.000Z</time>
      </trkpt>
      <trkpt lat="40.813232" lon="-3.847586">
        <ele>1976.5</ele>
        <time>2018-04-21T07:45:05.000Z</time>
      </trkpt>
      <trkpt lat="40.81323" lon="-3.847598">
        <ele>1976.6</ele>
        <time>2018-04-21T07:45:06.000Z</time>
      </trkpt>
      <trkpt lat="40.813229" lon="-3.847609">
        <ele>1976.6</ele>
        <time>2018-04-21T07:45:07.000Z</time>
      </trkpt>
      <trkpt lat="40.813227" lon="-3.84762">
        <ele>1976.6</ele>
        <time>2018-04-21T07:45:08.000Z</time>
      </trkpt>
      <trkpt lat="40.813224" lon="-3.847632">
        <ele>1976.6</ele>
        <time>2018-04-21T07:45:09.000Z</time>
      </trkpt>
      <trkpt lat="40.813222" lon="-3.847643">
        <ele>1976.6</ele>
        <time>2018-04-21T07:45:10.000Z</time>
      </trkpt>
      <trkpt lat="40.813218" lon="-3.847653">
        <ele>1976.6</ele>
        <time>2018-04-21T07:45:11.000Z</time>
      </trkpt>
      <trkpt lat="40.813213" lon="-3.847663">
        <ele>1976.5</ele>
        <time>2018-04-21T07:45:12.000Z</time>
      </trkpt>
      <trkpt lat="40.813208" lon="-3.847672">
        <ele>1976.4</ele>
        <time>2018-04-21T07:45:13.000Z</time>
      </trkpt>
      <trkpt lat="40.813202" lon="-3.847681">
        <ele>1976.3</ele>
        <time>2018-04-21T07:45:14.000Z</time>
      </trkpt>
      <trkpt lat="40.813197" lon="-3.84769">
        <ele>1976.2</ele>
        <time>2018-04-21T07:45:15.000Z</time>
      </trkpt>
      <trkpt lat="40.813192" lon="-3.847698">
        <ele>1976.1</ele>
        <time>2018-04-21T07:45:16.000Z</time>
      </trkpt>
      <trkpt lat="40.813188" lon="-3.847706">
        <ele>1976.1</ele>
        <time>2018-04-21T07:45:17.000Z</time>
      </trkpt>
      <trkpt lat="40.813185" lon="-3.847714">
        <ele>1976.1</ele>
        <time>2018-04-21T07:45:18.000Z</time>
      </trkpt>
      <trkpt lat="40.813184" lon="-3.847722">
        <ele>1976.1</ele>
        <time>2018-04-21T07:45:19.000Z</time>
      </trkpt>
      <trkpt lat="40.813184" lon="-3.84773">
        <ele>1976.1</ele>
        <time>2018-04-21T07:45:20.000Z</time>
      </trkpt>
      <trkpt lat="40.813187" lon="-3.847738">
        <ele>1976.3</ele>
        <time>2018-04-21T07:45:21.000Z</time>
      </trkpt>
      <trkpt lat="40.813192" lon="-3.847746">
        <ele>1976.5</ele>
        <time>2018-04-21T07:45:22.000Z</time>
      </trkpt>
      <trkpt lat="40.813196" lon="-3.847754">
        <ele>1976.7</ele>
        <time>2018-04-21T07:45:23.000Z</time>
      </trkpt>
      <trkpt lat="40.8132" lon="-3.847762">
        <ele>1976.8</ele>
        <time>2018-04-21T07:45:24.000Z</time>
      </trkpt>
      <trkpt lat="40.813202" lon="-3.84777">
        <ele>1976.9</ele>
        <time>2018-04-21T07:45:25.000Z</time>
      </trkpt>
      <trkpt lat="40.813202" lon="-3.847777">
        <ele>1977.0</ele>
        <time>2018-04-21T07:45:26.000Z</time>
      </trkpt>
      <trkpt lat="40.813199" lon="-3.847785">
        <ele>1977.0</ele>
        <time>2018-04-21T07:45:27.000Z</time>
      </trkpt>
      <trkpt lat="40.813195" lon="-3.847793">
        <ele>1976.9</ele>
        <time>2018-04-21T07:45:28.000Z</time>
      </trkpt>
      <trkpt lat="40.81319" lon="-3.847801">
        <ele>1976.8</ele>
        <time>2018-04-21T07:45:29.000Z</time>
      </trkpt>
      <trkpt lat="40.813185" lon="-3.84781">
        <ele>1976.7</ele>
        <time>2018-04-21T07:45:30.000Z</time>
      </trkpt>
      <trkpt lat="40.813179" lon="-3.84782">
        <ele>1976.6</ele>
        <time>2018-04-21T07:45:31.000Z</time>
      </trkpt>
      <trkpt lat="40.813174" lon="-3.84783">
        <ele>1976.6</ele>
        <time>2018-04-21T07:45:32.000Z</time>
      </trkpt>
      <trkpt lat="40.81317" lon="-3.847841">
        <ele>1976.5</ele>
        <time>2018-04-21T07:45:33.000Z</time>
      </trkpt>
      <trkpt lat="40.813167" lon="-3.847852">
        <ele>1976.5</ele>
        <time>2018-04-21T07:45:34.000Z</time>
      </trkpt>
      <trkpt lat="40.813165" lon="-3.847864">
        <ele>1976.6</ele>
        <time>2018-04-21T07:45:35.000Z</time>
      </trkpt>
      <trkpt lat="40.813164" lon="-3.847875">
        <ele>1976.6</ele>
        <time>2018-04-21T07:45:36.000Z</time>
      </trkpt>
      <trkpt lat="40.813166" lon="-3.847886">
        <ele>1976.8</ele>
        <time>2018-04-21T07:45:37.000Z</time>
      </trkpt>
      <trkpt lat="40.81317" lon="-3.847897">
        <ele>1976.9</ele>
        <time>2018-04-21T07:45:38.000Z</time>
      </trkpt>
      <trkpt lat="40.813176" lon="-3.847907">
        <ele>1977.2</ele>
        <time>2018-04-21T07:45:39.000Z</time>
      </trkpt>
      <trkpt lat="40.813184" lon="-3.847917">
        <ele>1977.5</ele>
        <time>2018-04-21T07:45:40.000Z</time>
      </trkpt>
      <trkpt lat="40.813192" lon="-3.847927">
        <ele>1977.8</ele>
        <time>2018-04-21T07:45:41.000Z</time>
      </trkpt>
      <trkpt lat="40.8132" lon="-3.847937">
        <ele>1978.0</ele>
        <time>2018-04-21T07:45:42.000Z</time>
      </trkpt>
      <trkpt lat="40.813206" lon="-3.847948">
        <ele>1978.3</ele>
        <time>2018-04-21T07:45:43.000Z</time>
      </trkpt>
      <trkpt lat="40.81321" lon="-3.847959">
        <ele>1978.5</ele>
        <time>2018-04-21T07:45:44.000Z</time>
      </trkpt>
      <trkpt lat="40.813212" lon="-3.847971">
        <ele>1978.6</ele>
        <time>2018-04-21T07:45:45.000Z</time>
      </trkpt>
      <trkpt lat="40.813213" lon="-3.847982">
        <ele>1978.7</ele>
        <time>2018-04-21T07:45:46.000Z</time>
      </trkpt>
      <trkpt lat="40.813215" lon="-3.847992">
        <ele>1978.8</ele>
        <time>2018-04-21T07:45:47.000Z</time>
      </trkpt>
      <trkpt lat="40.813216" lon="-3.848002">
        <ele>1978.9</ele>
        <time>2018-04-21T07:45:48.000Z</time>
      </trkpt>
      <trkpt lat="40.813219" lon="-3.848011">
        <ele>1979.1</ele>
        <time>2018-04-21T07:45:49.000Z</time>
      </trkpt>
      <trkpt lat="40.813222" lon="-3.84802">
        <ele>1979.2</ele>
        <time>2018-04-21T07:45:50.000Z</time>
      </trkpt>
      <trkpt lat="40.813225" lon="-3.848029">
        <ele>1979.3</ele>
        <time>2018-04-21T07:45:51.000Z</time>
      </trkpt>
      <trkpt lat="40.813228" lon="-3.848039">
        <ele>1979.5</ele>
        <time>2018-04-21T07:45:52.000Z</time>
      </trkpt>
      <trkpt lat="40.813232" lon="-3.848051">
        <ele>1979.7</ele>
        <time>2018-04-21T07:45:53.000Z</time>
      </trkpt>
      <trkpt lat="40.813235" lon="-3.848063">
        <ele>1979.8</ele>
        <time>2018-04-21T07:45:54.000Z</time>
      </trkpt>
      <trkpt lat="40.813237" lon="-3.848076">
        <ele>1980.0</ele>
        <time>2018-04-21T07:45:55.000Z</time>
      </trkpt>
      <trkpt lat="40.813237" lon="-3.848088">
        <ele>1980.0</ele>
        <time>2018-04-21T07:45:56.000Z</time>
      </trkpt>
      <trkpt lat="40.813236" lon="-3.8481">
        <ele>1980.1</ele>
        <time>2018-04-21T07:45:57.000Z</time>
      </trkpt>
      <trkpt lat="40.813233" lon="-3.848111">
        <ele>1980.1</ele>
        <time>2018-04-21T07:45:58.000Z</time>
      </trkpt>
      <trkpt lat="40.813229" lon="-3.848121">
        <ele>1980.1</ele>
        <time>2018-04-21T07:45:59.000Z</time>
      </trkpt>
      <trkpt lat="40.813224" lon="-3.848131">
        <ele>1980.0</ele>
        <time>2018-04-21T07:46:00.000Z</time>
      </trkpt>
      <trkpt lat="40.813218" lon="-3.848141">
        <ele>1979.9</ele>
        <time>2018-04-21T07:46:01.000Z</time>
      </trkpt>
      <trkpt lat="40.813211" lon="-3.84815">
        <ele>1979.8</ele>
        <time>2018-04-21T07:46:02.000Z</time>
      </trkpt>
      <trkpt lat="40.813205" lon="-3.84816">
        <ele>1979.7</ele>
        <time>2018-04-21T07:46:03.000Z</time>
      </trkpt>
      <trkpt lat="40.813198" lon="-3.848169">
        <ele>1979.6</ele>
        <time>2018-04-21T07:46:04.000Z</time>
      </trkpt>
      <trkpt lat="40.813192" lon="-3.848179">
        <ele>1979.5</ele>
        <time>2018-04-21T07:46:05.000Z</time>
      </trkpt>
      <trkpt lat="40.813186" lon="-3.84819">
        <ele>1979.5</ele>
        <time>2018-04-21T07:46:06.000Z</time>
      </trkpt>
      <trkpt lat="40.813181" lon="-3.848201">
        <ele>1979.4</ele>
        <time>2018-04-21T07:46:07.000Z</time>
      </trkpt>
      <trkpt lat="40.813176" lon="-3.848213">
        <ele>1979.4</ele>
        <time>2018-04-21T07:46:08.000Z</time>
      </trkpt>
      <trkpt lat="40.813172" lon="-3.848225">
        <ele>1979.4</ele>
        <time>2018-04-21T07:46:09.000Z</time>
      </trkpt>
      <trkpt lat="40.813169" lon="-3.848237">
        <ele>1979.4</ele>
        <time>2018-04-21T07:46:10.000Z</time>
      </trkpt>
      <trkpt lat="40.813166" lon="-3.848249">
        <ele>1979.4</ele>
        <time>2018-04-21T07:46:11.000Z</time>
      </trkpt>
      <trkpt lat="40.813163" lon="-3.848262">
        <ele>1979.4</ele>
        <time>2018-04-21T07:46:12.000Z</time>
      </trkpt>
      <trkpt lat="40.813161" lon="-3.848274">
        <ele>1979.4</ele>
        <time>2018-04-21T07:46:13.000Z</time>
      </trkpt>
      <trkpt lat="40.813159" lon="-3.848287">
        <ele>1979.5</ele>
        <time>2018-04-21T07:46:14.000Z</time>
      </trkpt>
      <trkpt lat="40.813158" lon="-3.8483">
        <ele>1979.5</ele>
        <time>2018-04-21T07:46:15.000Z</time>
      </trkpt>
      <trkpt lat="40.813157" lon="-3.848312">
        <ele>1979.6</ele>
        <time>2018-04-21T07:46:16.000Z</time>
      </trkpt>
      <trkpt lat="40.813156" lon="-3.848325">
        <ele>1979.7</ele>
        <time>2018-04-21T07:46:17.000Z</time>
      </trkpt>
      <trkpt lat="40.813156" lon="-3.848337">
        <ele>1979.8</ele>
        <time>2018-04-21T07:46:18.000Z</time>
      </trkpt>
      <trkpt lat="40.813156" lon="-3.848349">
        <ele>1979.9</ele>
        <time>2018-04-21T07:46:19.000Z</time>
      </trkpt>
      <trkpt lat="40.813157" lon="-3.848361">
        <ele>1980.0</ele>
        <time>2018-04-21T07:46:20.000Z</time>
      </trkpt>
      <trkpt lat="40.813159" lon="-3.848373">
        <ele>1980.2</ele>
        <time>2018-04-21T07:46:21.000Z</time>
      </trkpt>
      <trkpt lat="40.813161" lon="-3.848384">
        <ele>1980.4</ele>
        <time>2018-04-21T07:46:22.000Z</time>
      </trkpt>
      <trkpt lat="40.813165" lon="-3.848395">
        <ele>1980.6</ele>
        <time>2018-04-21T07:46:23.000Z</time>
      </trkpt>
      <trkpt lat="40.813169" lon="-3.848405">
        <ele>1980.8</ele>
        <time>2018-04-21T07:46:24.000Z</time>
      </trkpt>
      <trkpt lat="40.813174" lon="-3.848415">
        <ele>1981.0</ele>
        <time>2018-04-21T07:46:25.000Z</time>
      </trkpt>
      <trkpt lat="40.813179" lon="-3.848425">
        <ele>1981.2</ele>
        <time>2018-04-21T07:46:26.000Z</time>
      </trkpt>
      <trkpt lat="40.813185" lon="-3.848434">
        <ele>1981.4</ele>
        <time>2018-04-21T07:46:27.000Z</time>
      </trkpt>
      <trkpt lat="40.813191" lon="-3.848443">
        <ele>1981.7</ele>
        <time>2018-04-21T07:46:28.000Z</time>
      </trkpt>
      <trkpt lat="40.813198" lon="-3.848451">
        <ele>1981.9</ele>
        <time>2018-04-21T07:46:29.000Z</time>
      </trkpt>
      <trkpt lat="40.813204" lon="-3.848459">
        <ele>1982.1</ele>
        <time>2018-04-21T07:46:30.000Z</time>
      </trkpt>
      <trkpt lat="40.813209" lon="-3.848466">
        <ele>1982.3</ele>
        <time>2018-04-21T07:46:31.000Z</time>
      </trkpt>
      <trkpt lat="40.813214" lon="-3.848473">
        <ele>1982.5</ele>
        <time>2018-04-21T07:46:32.000Z</time>
      </trkpt>
      <trkpt lat="40.813219" lon="-3.848479">
        <ele>1982.7</ele>
        <time>2018-04-21T07:46:33.000Z</time>
      </trkpt>
      <trkpt lat="40.813223" lon="-3.848485">
        <ele>1982.9</ele>
        <time>2018-04-21T07:46:34.000Z</time>
      </trkpt>
      <trkpt lat="40.813226" lon="-3.84849">
        <ele>1983.0</ele>
        <time>2018-04-21T07:46:35.000Z</time>
      </trkpt>
      <trkpt lat="40.813229" lon="-3.848496">
        <ele>1983.1</ele>
        <time>2018-04-21T07:46:36.000Z</time>
      </trkpt>
      <trkpt lat="40.813231" lon="-3.848501">
        <ele>1983.2</ele>
        <time>2018-04-21T07:46:37.000Z</time>
      </trkpt>
      <trkpt lat="40.813232" lon="-3.848505">
        <ele>1983.3</ele>
        <time>2018-04-21T07:46:38.000Z</time>
      </trkpt>
      <trkpt lat="40.813233" lon="-3.84851">
        <ele>1983.3</ele>
        <time>2018-04-21T07:46:39.000Z</time>
      </trkpt>
      <trkpt lat="40.813233" lon="-3.848515">
        <ele>1983.4</ele>
        <time>2018-04-21T07:46:40.000Z</time>
      </trkpt>
      <trkpt lat="40.813233" lon="-3.84852">
        <ele>1983.4</ele>
        <time>2018-04-21T07:46:41.000Z</time>
      </trkpt>
      <trkpt lat="40.813232" lon="-3.848525">
        <ele>1983.5</ele>
        <time>2018-04-21T07:46:42.000Z</time>
      </trkpt>
      <trkpt lat="40.81323" lon="-3.84853">
        <ele>1983.5</ele>
        <time>2018-04-21T07:46:43.000Z</time>
      </trkpt>
      <trkpt lat="40.813228" lon="-3.848536">
        <ele>1983.5</ele>
        <time>2018-04-21T07:46:44.000Z</time>
      </trkpt>
      <trkpt lat="40.813226" lon="-3.848541">
        <ele>1983.5</ele>
        <time>2018-04-21T07:46:45.000Z</time>
      </trkpt>
      <trkpt lat="40.813223" lon="-3.848547">
        <ele>1983.5</ele>
        <time>2018-04-21T07:46:46.000Z</time>
      </trkpt>
      <trkpt lat="40.813221" lon="-3.848553">
        <ele>1983.5</ele>
        <time>2018-04-21T07:46:47.000Z</time>
      </trkpt>
      <trkpt lat="40.813219" lon="-3.848559">
        <ele>1983.5</ele>
        <time>2018-04-21T07:46:48.000Z</time>
      </trkpt>
      <trkpt lat="40.813217" lon="-3.848566">
        <ele>1983.5</ele>
        <time>2018-04-21T07:46:49.000Z</time>
      </trkpt>
      <trkpt lat="40.813216" lon="-3.848572">
        <ele>1983.6</ele>
        <time>2018-04-21T07:46:50.000Z</time>
      </trkpt>
      <trkpt lat="40.813215" lon="-3.848579">
        <ele>1983.6</ele>
        <time>2018-04-21T07:46:51.000Z</time>
      </trkpt>
      <trkpt lat="40.813215" lon="-3.848586">
        <ele>1983.7</ele>
        <time>2018-04-21T07:46:52.000Z</time>
      </trkpt>
      <trkpt lat="40.813215" lon="-3.848594">
        <ele>1983.8</ele>
        <time>2018-04-21T07:46:53.000Z</time>
      </trkpt>
      <trkpt lat="40.813215" lon="-3.848601">
        <ele>1983.8</ele>
        <time>2018-04-21T07:46:54.000Z</time>
      </trkpt>
      <trkpt lat="40.813216" lon="-3.848609">
        <ele>1983.9</ele>
        <time>2018-04-21T07:46:55.000Z</time>
      </trkpt>
      <trkpt lat="40.813217" lon="-3.848617">
        <ele>1984.0</ele>
        <time>2018-04-21T07:46:56.000Z</time>
      </trkpt>
      <trkpt lat="40.813219" lon="-3.848625">
        <ele>1984.2</ele>
        <time>2018-04-21T07:46:57.000Z</time>
      </trkpt>
      <trkpt lat="40.81322" lon="-3.848634">
        <ele>1984.3</ele>
        <time>2018-04-21T07:46:58.000Z</time>
      </trkpt>
      <trkpt lat="40.813221" lon="-3.848642">
        <ele>1984.4</ele>
        <time>2018-04-21T07:46:59.000Z</time>
      </trkpt>
      <trkpt lat="40.813223" lon="-3.848651">
        <ele>1984.5</ele>
        <time>2018-04-21T07:47:00.000Z</time>
      </trkpt>
      <trkpt lat="40.813224" lon="-3.84866">
        <ele>1984.6</ele>
        <time>2018-04-21T07:47:01.000Z</time>
      </trkpt>
      <trkpt lat="40.813225" lon="-3.848669">
        <ele>1984.7</ele>
        <time>2018-04-21T07:47:02.000Z</time>
      </trkpt>
      <trkpt lat="40.813227" lon="-3.848678">
        <ele>1984.9</ele>
        <time>2018-04-21T07:47:03.000Z</time>
      </trkpt>
      <trkpt lat="40.813228" lon="-3.848687">
        <ele>1985.0</ele>
        <time>2018-04-21T07:47:04.000Z</time>
      </trkpt>
      <trkpt lat="40.813229" lon="-3.848697">
        <ele>1985.1</ele>
        <time>2018-04-21T07:47:05.000Z</time>
      </trkpt>
      <trkpt lat="40.813231" lon="-3.848706">
        <ele>1985.2</ele>
        <time>2018-04-21T07:47:06.000Z</time>
      </trkpt>
      <trkpt lat="40.813232" lon="-3.848715">
        <ele>1985.3</ele>
        <time>2018-04-21T07:47:07.000Z</time>
      </trkpt>
      <trkpt lat="40.813233" lon="-3.848724">
        <ele>1985.5</ele>
        <time>2018-04-21T07:47:08.000Z</time>
      </trkpt>
      <trkpt lat="40.813234" lon="-3.848733">
        <ele>1985.6</ele>
        <time>2018-04-21T07:47:09.000Z</time>
      </trkpt>
      <trkpt lat="40.813235" lon="-3.848742">
        <ele>1985.7</ele>
        <time>2018-04-21T07:47:10.000Z</time>
      </trkpt>
      <trkpt lat="40.813237" lon="-3.848751">
        <ele>1985.8</ele>
        <time>2018-04-21T07:47:11.000Z</time>
      </trkpt>
      <trkpt lat="40.813238" lon="-3.848759">
        <ele>1985.9</ele>
        <time>2018-04-21T07:47:12.000Z</time>
      </trkpt>
      <trkpt lat="40.813239" lon="-3.848767">
        <ele>1986.0</ele>
        <time>2018-04-21T07:47:13.000Z</time>
      </trkpt>
      <trkpt lat="40.81324" lon="-3.848775">
        <ele>1986.1</ele>
        <time>2018-04-21T07:47:14.000Z</time>
      </trkpt>
      <trkpt lat="40.813241" lon="-3.848783">
        <ele>1986.2</ele>
        <time>2018-04-21T07:47:15.000Z</time>
      </trkpt>
      <trkpt lat="40.813242" lon="-3.84879">
        <ele>1986.3</ele>
        <time>2018-04-21T07:47:16.000Z</time>
      </trkpt>
      <trkpt lat="40.813244" lon="-3.848797">
        <ele>1986.4</ele>
        <time>2018-04-21T07:47:17.000Z</time>
      </trkpt>
      <trkpt lat="40.813245" lon="-3.848804">
        <ele>1986.5</ele>
        <time>2018-04-21T07:47:18.000Z</time>
      </trkpt>
      <trkpt lat="40.813246" lon="-3.84881">
        <ele>1986.6</ele>
        <time>2018-04-21T07:47:19.000Z</time>
      </trkpt>
      <trkpt lat="40.813247" lon="-3.848817">
        <ele>1986.7</ele>
        <time>2018-04-21T07:47:20.000Z</time>
      </trkpt>
      <trkpt lat="40.813248" lon="-3.848823">
        <ele>1986.8</ele>
        <time>2018-04-21T07:47:21.000Z</time>
      </trkpt>
      <trkpt lat="40.813249" lon="-3.848829">
        <ele>1986.9</ele>
        <time>2018-04-21T07:47:22.000Z</time>
      </trkpt>
      <trkpt lat="40.81325" lon="-3.848836">
        <ele>1986.9</ele>
        <time>2018-04-21T07:47:23.000Z</time>
      </trkpt>
      <trkpt lat="40.81325" lon="-3.848844">
        <ele>1987.0</ele>
        <time>2018-04-21T07:47:24.000Z</time>
      </trkpt>
      <trkpt lat="40.81325" lon="-3.848852">
        <ele>1987.1</ele>
        <time>2018-04-21T07:47:25.000Z</time>
      </trkpt>
      <trkpt lat="40.81325" lon="-3.848861">
        <ele>1987.2</ele>
        <time>2018-04-21T07:47:26.000Z</time>
      </trkpt>
      <trkpt lat="40.81325" lon="-3.848871">
        <ele>1987.3</ele>
        <time>2018-04-21T07:47:27.000Z</time>
      </trkpt>
      <trkpt lat="40.813249" lon="-3.848882">
        <ele>1987.4</ele>
        <time>2018-04-21T07:47:28.000Z</time>
      </trkpt>
      <trkpt lat="40.813249" lon="-3.848893">
        <ele>1987.5</ele>
        <time>2018-04-21T07:47:29.000Z</time>
      </trkpt>
      <trkpt lat="40.813248" lon="-3.848903">
        <ele>1987.6</ele>
        <time>2018-04-21T07:47:30.000Z</time>
      </trkpt>
      <trkpt lat="40.813247" lon="-3.848912">
        <ele>1987.6</ele>
        <time>2018-04-21T07:47:31.000Z</time>
      </trkpt>
      <trkpt lat="40.813247" lon="-3.848918">
        <ele>1987.7</ele>
        <time>2018-04-21T07:47:32.000Z</time>
      </trkpt>
      <trkpt lat="40.813247" lon="-3.848922">
        <ele>1987.7</ele>
        <time>2018-04-21T07:47:33.000Z</time>
      </trkpt>
      <trkpt lat="40.813247" lon="-3.848922">
        <ele>1987.7</ele>
        <time>2018-04-21T07:47:34.000Z</time>
      </trkpt>
      <trkpt lat="40.813248" lon="-3.848922">
        <ele>1987.7</ele>
        <time>2018-04-21T07:47:35.000Z</time>
      </trkpt>
      <trkpt lat="40.813248" lon="-3.848922">
        <ele>1987.7</ele>
        <time>2018-04-21T07:47:36.000Z</time>
      </trkpt>
      <trkpt lat="40.813247" lon="-3.848923">
        <ele>1987.7</ele>
        <time>2018-04-21T07:47:37.000Z</time>
      </trkpt>
      <trkpt lat="40.813246" lon="-3.848925">
        <ele>1987.7</ele>
        <time>2018-04-21T07:47:38.000Z</time>
      </trkpt>
      <trkpt lat="40.813245" lon="-3.848928">
        <ele>1987.7</ele>
        <time>2018-04-21T07:47:39.000Z</time>
      </trkpt>
      <trkpt lat="40.813244" lon="-3.848932">
        <ele>1987.8</ele>
        <time>2018-04-21T07:47:40.000Z</time>
      </trkpt>
      <trkpt lat="40.813242" lon="-3.848938">
        <ele>1987.8</ele>
        <time>2018-04-21T07:47:41.000Z</time>
      </trkpt>
      <trkpt lat="40.813241" lon="-3.848944">
        <ele>1987.8</ele>
        <time>2018-04-21T07:47:42.000Z</time>
      </trkpt>
      <trkpt lat="40.81324" lon="-3.848951">
        <ele>1987.9</ele>
        <time>2018-04-21T07:47:43.000Z</time>
      </trkpt>
      <trkpt lat="40.81324" lon="-3.848958">
        <ele>1987.9</ele>
        <time>2018-04-21T07:47:44.000Z</time>
      </trkpt>
      <trkpt lat="40.813241" lon="-3.848966">
        <ele>1988.0</ele>
        <time>2018-04-21T07:47:45.000Z</time>
      </trkpt>
      <trkpt lat="40.813242" lon="-3.848975">
        <ele>1988.1</ele>
        <time>2018-04-21T07:47:46.000Z</time>
      </trkpt>
      <trkpt lat="40.813244" lon="-3.848984">
        <ele>1988.3</ele>
        <time>2018-04-21T07:47:47.000Z</time>
      </trkpt>
      <trkpt lat="40.813246" lon="-3.848992">
        <ele>1988.4</ele>
        <time>2018-04-21T07:47:48.000Z</time>
      </trkpt>
      <trkpt lat="40.813249" lon="-3.849001">
        <ele>1988.5</ele>
        <time>2018-04-21T07:47:49.000Z</time>
      </trkpt>
      <trkpt lat="40.813252" lon="-3.849009">
        <ele>1988.7</ele>
        <time>2018-04-21T07:47:50.000Z</time>
      </trkpt>
      <trkpt lat="40.813255" lon="-3.849016">
        <ele>1988.8</ele>
        <time>2018-04-21T07:47:51.000Z</time>
      </trkpt>
      <trkpt lat="40.813258" lon="-3.849022">
        <ele>1989.0</ele>
        <time>2018-04-21T07:47:52.000Z</time>
      </trkpt>
      <trkpt lat="40.813261" lon="-3.849026">
        <ele>1989.1</ele>
        <time>2018-04-21T07:47:53.000Z</time>
      </trkpt>
      <trkpt lat="40.813263" lon="-3.849029">
        <ele>1989.1</ele>
        <time>2018-04-21T07:47:54.000Z</time>
      </trkpt>
      <trkpt lat="40.813264" lon="-3.84903">
        <ele>1989.2</ele>
        <time>2018-04-21T07:47:55.000Z</time>
      </trkpt>
      <trkpt lat="40.813265" lon="-3.84903">
        <ele>1989.2</ele>
        <time>2018-04-21T07:47:56.000Z</time>
      </trkpt>
      <trkpt lat="40.813265" lon="-3.84903">
        <ele>1989.2</ele>
        <time>2018-04-21T07:47:57.000Z</time>
      </trkpt>
      <trkpt lat="40.813265" lon="-3.84903">
        <ele>1989.2</ele>
        <time>2018-04-21T07:47:58.000Z</time>
      </trkpt>
      <trkpt lat="40.813263" lon="-3.849033">
        <ele>1989.2</ele>
        <time>2018-04-21T07:47:59.000Z</time>
      </trkpt>
      <trkpt lat="40.813261" lon="-3.849038">
        <ele>1989.2</ele>
        <time>2018-04-21T07:48:00.000Z</time>
      </trkpt>
      <trkpt lat="40.813257" lon="-3.849044">
        <ele>1989.1</ele>
        <time>2018-04-21T07:48:01.000Z</time>
      </trkpt>
      <trkpt lat="40.813253" lon="-3.849052">
        <ele>1989.1</ele>
        <time>2018-04-21T07:48:02.000Z</time>
      </trkpt>
      <trkpt lat="40.813247" lon="-3.84906">
        <ele>1989.1</ele>
        <time>2018-04-21T07:48:03.000Z</time>
      </trkpt>
      <trkpt lat="40.813241" lon="-3.849067">
        <ele>1989.0</ele>
        <time>2018-04-21T07:48:04.000Z</time>
      </trkpt>
      <trkpt lat="40.813235" lon="-3.849074">
        <ele>1989.0</ele>
        <time>2018-04-21T07:48:05.000Z</time>
      </trkpt>
      <trkpt lat="40.813229" lon="-3.849079">
        <ele>1988.9</ele>
        <time>2018-04-21T07:48:06.000Z</time>
      </trkpt>
      <trkpt lat="40.813223" lon="-3.849084">
        <ele>1988.8</ele>
        <time>2018-04-21T07:48:07.000Z</time>
      </trkpt>
      <trkpt lat="40.81322" lon="-3.849087">
        <ele>1988.8</ele>
        <time>2018-04-21T07:48:08.000Z</time>
      </trkpt>
      <trkpt lat="40.813218" lon="-3.849089">
        <ele>1988.7</ele>
        <time>2018-04-21T07:48:09.000Z</time>
      </trkpt>
      <trkpt lat="40.813218" lon="-3.84909">
        <ele>1988.7</ele>
        <time>2018-04-21T07:48:10.000Z</time>
      </trkpt>
      <trkpt lat="40.813219" lon="-3.84909">
        <ele>1988.8</ele>
        <time>2018-04-21T07:48:11.000Z</time>
      </trkpt>
      <trkpt lat="40.81322" lon="-3.84909">
        <ele>1988.8</ele>
        <time>2018-04-21T07:48:12.000Z</time>
      </trkpt>
      <trkpt lat="40.81322" lon="-3.849089">
        <ele>1988.8</ele>
        <time>2018-04-21T07:48:13.000Z</time>
      </trkpt>
      <trkpt lat="40.81322" lon="-3.849089">
        <ele>1988.8</ele>
        <time>2018-04-21T07:48:14.000Z</time>
      </trkpt>
      <trkpt lat="40.81322" lon="-3.84909">
        <ele>1988.8</ele>
        <time>2018-04-21T07:48:15.000Z</time>
      </trkpt>
      <trkpt lat="40.81322" lon="-3.849093">
        <ele>1988.8</ele>
        <time>2018-04-21T07:48:16.000Z</time>
      </trkpt>
      <trkpt lat="40.81322" lon="-3.849099">
        <ele>1988.9</ele>
        <time>2018-04-21T07:48:17.000Z</time>
      </trkpt>
      <trkpt lat="40.813221" lon="-3.849107">
        <ele>1989.0</ele>
        <time>2018-04-21T07:48:18.000Z</time>
      </trkpt>
      <trkpt lat="40.813223" lon="-3.849118">
        <ele>1989.1</ele>
        <time>2018-04-21T07:48:19.000Z</time>
      </trkpt>
      <trkpt lat="40.813225" lon="-3.849131">
        <ele>1989.3</ele>
        <time>2018-04-21T07:48:20.000Z</time>
      </trkpt>
      <trkpt lat="40.813227" lon="-3.849144">
        <ele>1989.5</ele>
        <time>2018-04-21T07:48:21.000Z</time>
      </trkpt>
      <trkpt lat="40.81323" lon="-3.849156">
        <ele>1989.7</ele>
        <time>2018-04-21T07:48:22.000Z</time>
      </trkpt>
      <trkpt lat="40.813232" lon="-3.849169">
        <ele>1989.8</ele>
        <time>2018-04-21T07:48:23.000Z</time>
      </trkpt>
      <trkpt lat="40.813235" lon="-3.849181">
        <ele>1990.0</ele>
        <time>2018-04-21T07:48:24.000Z</time>
      </trkpt>
      <trkpt lat="40.813238" lon="-3.849193">
        <ele>1990.2</ele>
        <time>2018-04-21T07:48:25.000Z</time>
      </trkpt>
      <trkpt lat="40.813241" lon="-3.849205">
        <ele>1990.4</ele>
        <time>2018-04-21T07:48:26.000Z</time>
      </trkpt>
      <trkpt lat="40.813245" lon="-3.849217">
        <ele>1990.6</ele>
        <time>2018-04-21T07:48:27.000Z</time>
      </trkpt>
      <trkpt lat="40.813249" lon="-3.849228">
        <ele>1990.9</ele>
        <time>2018-04-21T07:48:28.000Z</time>
      </trkpt>
      <trkpt lat="40.813255" lon="-3.849239">
        <ele>1991.1</ele>
        <time>2018-04-21T07:48:29.000Z</time>
      </trkpt>
      <trkpt lat="40.81326" lon="-3.849251">
        <ele>1991.3</ele>
        <time>2018-04-21T07:48:30.000Z</time>
      </trkpt>
      <trkpt lat="40.813267" lon="-3.849262">
        <ele>1991.6</ele>
        <time>2018-04-21T07:48:31.000Z</time>
      </trkpt>
      <trkpt lat="40.813274" lon="-3.849273">
        <ele>1991.9</ele>
        <time>2018-04-21T07:48:32.000Z</time>
      </trkpt>
      <trkpt lat="40.813282" lon="-3.849285">
        <ele>1992.2</ele>
        <time>2018-04-21T07:48:33.000Z</time>
      </trkpt>
      <trkpt lat="40.813289" lon="-3.849296">
        <ele>1992.5</ele>
        <time>2018-04-21T07:48:34.000Z</time>
      </trkpt>
      <trkpt lat="40.813296" lon="-3.849307">
        <ele>1992.7</ele>
        <time>2018-04-21T07:48:35.000Z</time>
      </trkpt>
      <trkpt lat="40.813303" lon="-3.849318">
        <ele>1993.0</ele>
        <time>2018-04-21T07:48:36.000Z</time>
      </trkpt>
      <trkpt lat="40.813309" lon="-3.84933">
        <ele>1993.2</ele>
        <time>2018-04-21T07:48:37.000Z</time>
      </trkpt>
      <trkpt lat="40.813314" lon="-3.849341">
        <ele>1993.5</ele>
        <time>2018-04-21T07:48:38.000Z</time>
      </trkpt>
      <trkpt lat="40.813317" lon="-3.849352">
        <ele>1993.7</ele>
        <time>2018-04-21T07:48:39.000Z</time>
      </trkpt>
      <trkpt lat="40.813319" lon="-3.849364">
        <ele>1993.8</ele>
        <time>2018-04-21T07:48:40.000Z</time>
      </trkpt>
      <trkpt lat="40.813319" lon="-3.849375">
        <ele>1993.9</ele>
        <time>2018-04-21T07:48:41.000Z</time>
      </trkpt>
      <trkpt lat="40.813318" lon="-3.849387">
        <ele>1994.1</ele>
        <time>2018-04-21T07:48:42.000Z</time>
      </trkpt>
      <trkpt lat="40.813317" lon="-3.849398">
        <ele>1994.2</ele>
        <time>2018-04-21T07:48:43.000Z</time>
      </trkpt>
      <trkpt lat="40.813315" lon="-3.84941">
        <ele>1994.2</ele>
        <time>2018-04-21T07:48:44.000Z</time>
      </trkpt>
      <trkpt lat="40.813313" lon="-3.849422">
        <ele>1994.3</ele>
        <time>2018-04-21T07:48:45.000Z</time>
      </trkpt>
      <trkpt lat="40.813311" lon="-3.849433">
        <ele>1994.4</ele>
        <time>2018-04-21T07:48:46.000Z</time>
      </trkpt>
      <trkpt lat="40.813309" lon="-3.849445">
        <ele>1994.5</ele>
        <time>2018-04-21T07:48:47.000Z</time>
      </trkpt>
      <trkpt lat="40.813308" lon="-3.849457">
        <ele>1994.6</ele>
        <time>2018-04-21T07:48:48.000Z</time>
      </trkpt>
      <trkpt lat="40.813308" lon="-3.849468">
        <ele>1994.7</ele>
        <time>2018-04-21T07:48:49.000Z</time>
      </trkpt>
      <trkpt lat="40.813309" lon="-3.84948">
        <ele>1994.9</ele>
        <time>2018-04-21T07:48:50.000Z</time>
      </trkpt>
      <trkpt lat="40.81331" lon="-3.849491">
        <ele>1995.0</ele>
        <time>2018-04-21T07:48:51.000Z</time>
      </trkpt>
      <trkpt lat="40.813312" lon="-3.849503">
        <ele>1995.2</ele>
        <time>2018-04-21T07:48:52.000Z</time>
      </trkpt>
      <trkpt lat="40.813313" lon="-3.849514">
        <ele>1995.3</ele>
        <time>2018-04-21T07:48:53.000Z</time>
      </trkpt>
      <trkpt lat="40.813315" lon="-3.849525">
        <ele>1995.5</ele>
        <time>2018-04-21T07:48:54.000Z</time>
      </trkpt>
      <trkpt lat="40.813315" lon="-3.849537">
        <ele>1995.6</ele>
        <time>2018-04-21T07:48:55.000Z</time>
      </trkpt>
      <trkpt lat="40.813315" lon="-3.849547">
        <ele>1995.7</ele>
        <time>2018-04-21T07:48:56.000Z</time>
      </trkpt>
      <trkpt lat="40.813314" lon="-3.849558">
        <ele>1995.8</ele>
        <time>2018-04-21T07:48:57.000Z</time>
      </trkpt>
      <trkpt lat="40.813312" lon="-3.849569">
        <ele>1995.9</ele>
        <time>2018-04-21T07:48:58.000Z</time>
      </trkpt>
      <trkpt lat="40.813309" lon="-3.849579">
        <ele>1996.0</ele>
        <time>2018-04-21T07:48:59.000Z</time>
      </trkpt>
      <trkpt lat="40.813305" lon="-3.849589">
        <ele>1996.0</ele>
        <time>2018-04-21T07:49:00.000Z</time>
      </trkpt>
      <trkpt lat="40.8133" lon="-3.849599">
        <ele>1996.0</ele>
        <time>2018-04-21T07:49:01.000Z</time>
      </trkpt>
      <trkpt lat="40.813296" lon="-3.849609">
        <ele>1996.0</ele>
        <time>2018-04-21T07:49:02.000Z</time>
      </trkpt>
      <trkpt lat="40.813291" lon="-3.849619">
        <ele>1996.0</ele>
        <time>2018-04-21T07:49:03.000Z</time>
      </trkpt>
      <trkpt lat="40.813287" lon="-3.849628">
        <ele>1996.0</ele>
        <time>2018-04-21T07:49:04.000Z</time>
      </trkpt>
      <trkpt lat="40.813284" lon="-3.849638">
        <ele>1996.1</ele>
        <time>2018-04-21T07:49:05.000Z</time>
      </trkpt>
      <trkpt lat="40.813281" lon="-3.849648">
        <ele>1996.1</ele>
        <time>2018-04-21T07:49:06.000Z</time>
      </trkpt>
      <trkpt lat="40.813279" lon="-3.849658">
        <ele>1996.2</ele>
        <time>2018-04-21T07:49:07.000Z</time>
      </trkpt>
      <trkpt lat="40.813279" lon="-3.849668">
        <ele>1996.3</ele>
        <time>2018-04-21T07:49:08.000Z</time>
      </trkpt>
      <trkpt lat="40.813279" lon="-3.849678">
        <ele>1996.4</ele>
        <time>2018-04-21T07:49:09.000Z</time>
      </trkpt>
      <trkpt lat="40.81328" lon="-3.849688">
        <ele>1996.6</ele>
        <time>2018-04-21T07:49:10.000Z</time>
      </trkpt>
      <trkpt lat="40.813281" lon="-3.849699">
        <ele>1996.7</ele>
        <time>2018-04-21T07:49:11.000Z</time>
      </trkpt>
      <trkpt lat="40.813282" lon="-3.849709">
        <ele>1996.8</ele>
        <time>2018-04-21T07:49:12.000Z</time>
      </trkpt>
      <trkpt lat="40.813282" lon="-3.849719">
        <ele>1996.9</ele>
        <time>2018-04-21T07:49:13.000Z</time>
      </trkpt>
      <trkpt lat="40.813283" lon="-3.84973">
        <ele>1997.1</ele>
        <time>2018-04-21T07:49:14.000Z</time>
      </trkpt>
      <trkpt lat="40.813282" lon="-3.84974">
        <ele>1997.2</ele>
        <time>2018-04-21T07:49:15.000Z</time>
      </trkpt>
      <trkpt lat="40.813281" lon="-3.84975">
        <ele>1997.3</ele>
        <time>2018-04-21T07:49:16.000Z</time>
      </trkpt>
      <trkpt lat="40.813279" lon="-3.84976">
        <ele>1997.3</ele>
        <time>2018-04-21T07:49:17.000Z</time>
      </trkpt>
      <trkpt lat="40.813276" lon="-3.849771">
        <ele>1997.4</ele>
        <time>2018-04-21T07:49:18.000Z</time>
      </trkpt>
      <trkpt lat="40.813274" lon="-3.849781">
        <ele>1997.5</ele>
        <time>2018-04-21T07:49:19.000Z</time>
      </trkpt>
      <trkpt lat="40.813271" lon="-3.849791">
        <ele>1997.5</ele>
        <time>2018-04-21T07:49:20.000Z</time>
      </trkpt>
      <trkpt lat="40.813269" lon="-3.849801">
        <ele>1997.6</ele>
        <time>2018-04-21T07:49:21.000Z</time>
      </trkpt>
      <trkpt lat="40.813267" lon="-3.849811">
        <ele>1997.6</ele>
        <time>2018-04-21T07:49:22.000Z</time>
      </trkpt>
      <trkpt lat="40.813266" lon="-3.849821">
        <ele>1997.7</ele>
        <time>2018-04-21T07:49:23.000Z</time>
      </trkpt>
      <trkpt lat="40.813266" lon="-3.849831">
        <ele>1997.8</ele>
        <time>2018-04-21T07:49:24.000Z</time>
      </trkpt>
      <trkpt lat="40.813268" lon="-3.849841">
        <ele>1998.0</ele>
        <time>2018-04-21T07:49:25.000Z</time>
      </trkpt>
      <trkpt lat="40.813271" lon="-3.849851">
        <ele>1998.2</ele>
        <time>2018-04-21T07:49:26.000Z</time>
      </trkpt>
      <trkpt lat="40.813274" lon="-3.84986">
        <ele>1998.3</ele>
        <time>2018-04-21T07:49:27.000Z</time>
      </trkpt>
      <trkpt lat="40.813279" lon="-3.84987">
        <ele>1998.5</ele>
        <time>2018-04-21T07:49:28.000Z</time>
      </trkpt>
      <trkpt lat="40.813284" lon="-3.84988">
        <ele>1998.7</ele>
        <time>2018-04-21T07:49:29.000Z</time>
      </trkpt>
      <trkpt lat="40.813289" lon="-3.84989">
        <ele>1998.9</ele>
        <time>2018-04-21T07:49:30.000Z</time>
      </trkpt>
      <trkpt lat="40.813295" lon="-3.8499">
        <ele>1999.2</ele>
        <time>2018-04-21T07:49:31.000Z</time>
      </trkpt>
      <trkpt lat="40.813301" lon="-3.84991">
        <ele>1999.4</ele>
        <time>2018-04-21T07:49:32.000Z</time>
      </trkpt>
      <trkpt lat="40.813307" lon="-3.84992">
        <ele>1999.6</ele>
        <time>2018-04-21T07:49:33.000Z</time>
      </trkpt>
      <trkpt lat="40.813312" lon="-3.849931">
        <ele>1999.8</ele>
        <time>2018-04-21T07:49:34.000Z</time>
      </trkpt>
      <trkpt lat="40.813317" lon="-3.849942">
        <ele>2000.1</ele>
        <time>2018-04-21T07:49:35.000Z</time>
      </trkpt>
      <trkpt lat="40.813321" lon="-3.849953">
        <ele>2000.3</ele>
        <time>2018-04-21T07:49:36.000Z</time>
      </trkpt>
      <trkpt lat="40.813326" lon="-3.849964">
        <ele>2000.5</ele>
        <time>2018-04-21T07:49:37.000Z</time>
      </trkpt>
      <trkpt lat="40.81333" lon="-3.849976">
        <ele>2000.7</ele>
        <time>2018-04-21T07:49:38.000Z</time>
      </trkpt>
      <trkpt lat="40.813333" lon="-3.849987">
        <ele>2000.9</ele>
        <time>2018-04-21T07:49:39.000Z</time>
      </trkpt>
      <trkpt lat="40.813336" lon="-3.849998">
        <ele>2000.9</ele>
        <time>2018-04-21T07:49:40.000Z</time>
      </trkpt>
      <trkpt lat="40.813339" lon="-3.850009">
        <ele>2000.9</ele>
        <time>2018-04-21T07:49:41.000Z</time>
      </trkpt>
      <trkpt lat="40.813341" lon="-3.85002">
        <ele>2001.0</ele>
        <time>2018-04-21T07:49:42.000Z</time>
      </trkpt>
      <trkpt lat="40.813343" lon="-3.850031">
        <ele>2001.0</ele>
        <time>2018-04-21T07:49:43.000Z</time>
      </trkpt>
      <trkpt lat="40.813344" lon="-3.850041">
        <ele>2001.1</ele>
        <time>2018-04-21T07:49:44.000Z</time>
      </trkpt>
      <trkpt lat="40.813345" lon="-3.850051">
        <ele>2001.1</ele>
        <time>2018-04-21T07:49:45.000Z</time>
      </trkpt>
      <trkpt lat="40.813346" lon="-3.850061">
        <ele>2001.2</ele>
        <time>2018-04-21T07:49:46.000Z</time>
      </trkpt>
      <trkpt lat="40.813346" lon="-3.850071">
        <ele>2001.3</ele>
        <time>2018-04-21T07:49:47.000Z</time>
      </trkpt>
      <trkpt lat="40.813346" lon="-3.850081">
        <ele>2001.4</ele>
        <time>2018-04-21T07:49:48.000Z</time>
      </trkpt>
      <trkpt lat="40.813346" lon="-3.850091">
        <ele>2001.5</ele>
        <time>2018-04-21T07:49:49.000Z</time>
      </trkpt>
      <trkpt lat="40.813346" lon="-3.850101">
        <ele>2001.6</ele>
        <time>2018-04-21T07:49:50.000Z</time>
      </trkpt>
      <trkpt lat="40.813345" lon="-3.85011">
        <ele>2001.7</ele>
        <time>2018-04-21T07:49:51.000Z</time>
      </trkpt>
      <trkpt lat="40.813344" lon="-3.85012">
        <ele>2001.8</ele>
        <time>2018-04-21T07:49:52.000Z</time>
      </trkpt>
      <trkpt lat="40.813344" lon="-3.850129">
        <ele>2001.9</ele>
        <time>2018-04-21T07:49:53.000Z</time>
      </trkpt>
      <trkpt lat="40.813343" lon="-3.850139">
        <ele>2002.0</ele>
        <time>2018-04-21T07:49:54.000Z</time>
      </trkpt>
      <trkpt lat="40.813341" lon="-3.850149">
        <ele>2002.2</ele>
        <time>2018-04-21T07:49:55.000Z</time>
      </trkpt>
      <trkpt lat="40.81334" lon="-3.850159">
        <ele>2002.3</ele>
        <time>2018-04-21T07:49:56.000Z</time>
      </trkpt>
      <trkpt lat="40.813339" lon="-3.850169">
        <ele>2002.5</ele>
        <time>2018-04-21T07:49:57.000Z</time>
      </trkpt>
      <trkpt lat="40.813338" lon="-3.850179">
        <ele>2002.6</ele>
        <time>2018-04-21T07:49:58.000Z</time>
      </trkpt>
      <trkpt lat="40.813337" lon="-3.850189">
        <ele>2002.7</ele>
        <time>2018-04-21T07:49:59.000Z</time>
      </trkpt>
      <trkpt lat="40.813336" lon="-3.850199">
        <ele>2002.8</ele>
        <time>2018-04-21T07:50:00.000Z</time>
      </trkpt>
      <trkpt lat="40.813335" lon="-3.85021">
        <ele>2003.0</ele>
        <time>2018-04-21T07:50:01.000Z</time>
      </trkpt>
      <trkpt lat="40.813335" lon="-3.85022">
        <ele>2003.1</ele>
        <time>2018-04-21T07:50:02.000Z</time>
      </trkpt>
      <trkpt lat="40.813334" lon="-3.850231">
        <ele>2003.2</ele>
        <time>2018-04-21T07:50:03.000Z</time>
      </trkpt>
      <trkpt lat="40.813333" lon="-3.850242">
        <ele>2003.3</ele>
        <time>2018-04-21T07:50:04.000Z</time>
      </trkpt>
      <trkpt lat="40.813332" lon="-3.850254">
        <ele>2003.4</ele>
        <time>2018-04-21T07:50:05.000Z</time>
      </trkpt>
      <trkpt lat="40.813331" lon="-3.850265">
        <ele>2003.5</ele>
        <time>2018-04-21T07:50:06.000Z</time>
      </trkpt>
      <trkpt lat="40.81333" lon="-3.850276">
        <ele>2003.6</ele>
        <time>2018-04-21T07:50:07.000Z</time>
      </trkpt>
      <trkpt lat="40.813329" lon="-3.850288">
        <ele>2003.7</ele>
        <time>2018-04-21T07:50:08.000Z</time>
      </trkpt>
      <trkpt lat="40.813328" lon="-3.850299">
        <ele>2003.8</ele>
        <time>2018-04-21T07:50:09.000Z</time>
      </trkpt>
      <trkpt lat="40.813326" lon="-3.850311">
        <ele>2003.8</ele>
        <time>2018-04-21T07:50:10.000Z</time>
      </trkpt>
      <trkpt lat="40.813324" lon="-3.850322">
        <ele>2003.9</ele>
        <time>2018-04-21T07:50:11.000Z</time>
      </trkpt>
      <trkpt lat="40.813322" lon="-3.850334">
        <ele>2004.0</ele>
        <time>2018-04-21T07:50:12.000Z</time>
      </trkpt>
      <trkpt lat="40.81332" lon="-3.850345">
        <ele>2004.0</ele>
        <time>2018-04-21T07:50:13.000Z</time>
      </trkpt>
      <trkpt lat="40.813318" lon="-3.850355">
        <ele>2004.1</ele>
        <time>2018-04-21T07:50:14.000Z</time>
      </trkpt>
      <trkpt lat="40.813316" lon="-3.850365">
        <ele>2004.1</ele>
        <time>2018-04-21T07:50:15.000Z</time>
      </trkpt>
      <trkpt lat="40.813315" lon="-3.850375">
        <ele>2004.2</ele>
        <time>2018-04-21T07:50:16.000Z</time>
      </trkpt>
      <trkpt lat="40.813313" lon="-3.850383">
        <ele>2004.3</ele>
        <time>2018-04-21T07:50:17.000Z</time>
      </trkpt>
      <trkpt lat="40.813312" lon="-3.850391">
        <ele>2004.3</ele>
        <time>2018-04-21T07:50:18.000Z</time>
      </trkpt>
      <trkpt lat="40.813311" lon="-3.850398">
        <ele>2004.4</ele>
        <time>2018-04-21T07:50:19.000Z</time>
      </trkpt>
      <trkpt lat="40.813311" lon="-3.850404">
        <ele>2004.4</ele>
        <time>2018-04-21T07:50:20.000Z</time>
      </trkpt>
      <trkpt lat="40.813311" lon="-3.850409">
        <ele>2004.5</ele>
        <time>2018-04-21T07:50:21.000Z</time>
      </trkpt>
      <trkpt lat="40.813312" lon="-3.850415">
        <ele>2004.5</ele>
        <time>2018-04-21T07:50:22.000Z</time>
      </trkpt>
      <trkpt lat="40.813313" lon="-3.850421">
        <ele>2004.6</ele>
        <time>2018-04-21T07:50:23.000Z</time>
      </trkpt>
      <trkpt lat="40.813315" lon="-3.850427">
        <ele>2004.7</ele>
        <time>2018-04-21T07:50:24.000Z</time>
      </trkpt>
      <trkpt lat="40.813318" lon="-3.850434">
        <ele>2004.8</ele>
        <time>2018-04-21T07:50:25.000Z</time>
      </trkpt>
      <trkpt lat="40.81332" lon="-3.850441">
        <ele>2005.0</ele>
        <time>2018-04-21T07:50:26.000Z</time>
      </trkpt>
      <trkpt lat="40.813322" lon="-3.850449">
        <ele>2005.1</ele>
        <time>2018-04-21T07:50:27.000Z</time>
      </trkpt>
      <trkpt lat="40.813325" lon="-3.850458">
        <ele>2005.2</ele>
        <time>2018-04-21T07:50:28.000Z</time>
      </trkpt>
      <trkpt lat="40.813327" lon="-3.850467">
        <ele>2005.3</ele>
        <time>2018-04-21T07:50:29.000Z</time>
      </trkpt>
      <trkpt lat="40.813328" lon="-3.850478">
        <ele>2005.5</ele>
        <time>2018-04-21T07:50:30.000Z</time>
      </trkpt>
      <trkpt lat="40.81333" lon="-3.850488">
        <ele>2005.6</ele>
        <time>2018-04-21T07:50:31.000Z</time>
      </trkpt>
      <trkpt lat="40.813331" lon="-3.850499">
        <ele>2005.7</ele>
        <time>2018-04-21T07:50:32.000Z</time>
      </trkpt>
      <trkpt lat="40.813332" lon="-3.850511">
        <ele>2005.9</ele>
        <time>2018-04-21T07:50:33.000Z</time>
      </trkpt>
      <trkpt lat="40.813332" lon="-3.850523">
        <ele>2006.0</ele>
        <time>2018-04-21T07:50:34.000Z</time>
      </trkpt>
      <trkpt lat="40.813332" lon="-3.850535">
        <ele>2006.1</ele>
        <time>2018-04-21T07:50:35.000Z</time>
      </trkpt>
      <trkpt lat="40.813331" lon="-3.850548">
        <ele>2006.2</ele>
        <time>2018-04-21T07:50:36.000Z</time>
      </trkpt>
      <trkpt lat="40.81333" lon="-3.85056">
        <ele>2006.3</ele>
        <time>2018-04-21T07:50:37.000Z</time>
      </trkpt>
      <trkpt lat="40.813328" lon="-3.850573">
        <ele>2006.4</ele>
        <time>2018-04-21T07:50:38.000Z</time>
      </trkpt>
      <trkpt lat="40.813327" lon="-3.850585">
        <ele>2006.5</ele>
        <time>2018-04-21T07:50:39.000Z</time>
      </trkpt>
      <trkpt lat="40.813326" lon="-3.850596">
        <ele>2006.6</ele>
        <time>2018-04-21T07:50:40.000Z</time>
      </trkpt>
      <trkpt lat="40.813325" lon="-3.850606">
        <ele>2006.6</ele>
        <time>2018-04-21T07:50:41.000Z</time>
      </trkpt>
      <trkpt lat="40.813325" lon="-3.850614">
        <ele>2006.7</ele>
        <time>2018-04-21T07:50:42.000Z</time>
      </trkpt>
      <trkpt lat="40.813326" lon="-3.850621">
        <ele>2006.8</ele>
        <time>2018-04-21T07:50:43.000Z</time>
      </trkpt>
      <trkpt lat="40.813326" lon="-3.850627">
        <ele>2006.9</ele>
        <time>2018-04-21T07:50:44.000Z</time>
      </trkpt>
      <trkpt lat="40.813326" lon="-3.850635">
        <ele>2006.9</ele>
        <time>2018-04-21T07:50:45.000Z</time>
      </trkpt>
      <trkpt lat="40.813326" lon="-3.850644">
        <ele>2007.0</ele>
        <time>2018-04-21T07:50:46.000Z</time>
      </trkpt>
      <trkpt lat="40.813325" lon="-3.850655">
        <ele>2007.1</ele>
        <time>2018-04-21T07:50:47.000Z</time>
      </trkpt>
      <trkpt lat="40.813323" lon="-3.850665">
        <ele>2007.2</ele>
        <time>2018-04-21T07:50:48.000Z</time>
      </trkpt>
      <trkpt lat="40.813319" lon="-3.850674">
        <ele>2007.2</ele>
        <time>2018-04-21T07:50:49.000Z</time>
      </trkpt>
      <trkpt lat="40.813313" lon="-3.850681">
        <ele>2007.1</ele>
        <time>2018-04-21T07:50:50.000Z</time>
      </trkpt>
      <trkpt lat="40.813306" lon="-3.850686">
        <ele>2007.0</ele>
        <time>2018-04-21T07:50:51.000Z</time>
      </trkpt>
      <trkpt lat="40.813297" lon="-3.85069">
        <ele>2006.8</ele>
        <time>2018-04-21T07:50:52.000Z</time>
      </trkpt>
      <trkpt lat="40.813286" lon="-3.850695">
        <ele>2006.6</ele>
        <time>2018-04-21T07:50:53.000Z</time>
      </trkpt>
      <trkpt lat="40.813276" lon="-3.850701">
        <ele>2006.5</ele>
        <time>2018-04-21T07:50:54.000Z</time>
      </trkpt>
      <trkpt lat="40.813265" lon="-3.85071">
        <ele>2006.3</ele>
        <time>2018-04-21T07:50:55.000Z</time>
      </trkpt>
      <trkpt lat="40.813254" lon="-3.850722">
        <ele>2006.2</ele>
        <time>2018-04-21T07:50:56.000Z</time>
      </trkpt>
      <trkpt lat="40.813244" lon="-3.850735">
        <ele>2006.1</ele>
        <time>2018-04-21T07:50:57.000Z</time>
      </trkpt>
      <trkpt lat="40.813235" lon="-3.850748">
        <ele>2006.0</ele>
        <time>2018-04-21T07:50:58.000Z</time>
      </trkpt>
      <trkpt lat="40.813228" lon="-3.850762">
        <ele>2005.9</ele>
        <time>2018-04-21T07:50:59.000Z</time>
      </trkpt>
      <trkpt lat="40.813223" lon="-3.850774">
        <ele>2005.9</ele>
        <time>2018-04-21T07:51:00.000Z</time>
      </trkpt>
      <trkpt lat="40.81322" lon="-3.850786">
        <ele>2006.0</ele>
        <time>2018-04-21T07:51:01.000Z</time>
      </trkpt>
      <trkpt lat="40.813218" lon="-3.850797">
        <ele>2006.0</ele>
        <time>2018-04-21T07:51:02.000Z</time>
      </trkpt>
      <trkpt lat="40.813217" lon="-3.850808">
        <ele>2006.1</ele>
        <time>2018-04-21T07:51:03.000Z</time>
      </trkpt>
      <trkpt lat="40.813217" lon="-3.850819">
        <ele>2006.2</ele>
        <time>2018-04-21T07:51:04.000Z</time>
      </trkpt>
      <trkpt lat="40.813218" lon="-3.850831">
        <ele>2006.3</ele>
        <time>2018-04-21T07:51:05.000Z</time>
      </trkpt>
      <trkpt lat="40.81322" lon="-3.850843">
        <ele>2006.4</ele>
        <time>2018-04-21T07:51:06.000Z</time>
      </trkpt>
      <trkpt lat="40.813222" lon="-3.850856">
        <ele>2006.5</ele>
        <time>2018-04-21T07:51:07.000Z</time>
      </trkpt>
      <trkpt lat="40.813224" lon="-3.850868">
        <ele>2006.6</ele>
        <time>2018-04-21T07:51:08.000Z</time>
      </trkpt>
      <trkpt lat="40.813227" lon="-3.850881">
        <ele>2006.7</ele>
        <time>2018-04-21T07:51:09.000Z</time>
      </trkpt>
      <trkpt lat="40.813228" lon="-3.850894">
        <ele>2006.7</ele>
        <time>2018-04-21T07:51:10.000Z</time>
      </trkpt>
      <trkpt lat="40.81323" lon="-3.850906">
        <ele>2006.8</ele>
        <time>2018-04-21T07:51:11.000Z</time>
      </trkpt>
      <trkpt lat="40.81323" lon="-3.850919">
        <ele>2006.8</ele>
        <time>2018-04-21T07:51:12.000Z</time>
      </trkpt>
      <trkpt lat="40.81323" lon="-3.850932">
        <ele>2006.9</ele>
        <time>2018-04-21T07:51:13.000Z</time>
      </trkpt>
      <trkpt lat="40.813229" lon="-3.850944">
        <ele>2006.9</ele>
        <time>2018-04-21T07:51:14.000Z</time>
      </trkpt>
      <trkpt lat="40.813227" lon="-3.850956">
        <ele>2006.8</ele>
        <time>2018-04-21T07:51:15.000Z</time>
      </trkpt>
      <trkpt lat="40.813225" lon="-3.850969">
        <ele>2006.8</ele>
        <time>2018-04-21T07:51:16.000Z</time>
      </trkpt>
      <trkpt lat="40.813222" lon="-3.850981">
        <ele>2006.8</ele>
        <time>2018-04-21T07:51:17.000Z</time>
      </trkpt>
      <trkpt lat="40.813219" lon="-3.850993">
        <ele>2006.7</ele>
        <time>2018-04-21T07:51:18.000Z</time>
      </trkpt>
      <trkpt lat="40.813216" lon="-3.851006">
        <ele>2006.7</ele>
        <time>2018-04-21T07:51:19.000Z</time>
      </trkpt>
      <trkpt lat="40.813213" lon="-3.851018">
        <ele>2006.6</ele>
        <time>2018-04-21T07:51:20.000Z</time>
      </trkpt>
      <trkpt lat="40.81321" lon="-3.85103">
        <ele>2006.6</ele>
        <time>2018-04-21T07:51:21.000Z</time>
      </trkpt>
      <trkpt lat="40.813208" lon="-3.851043">
        <ele>2006.6</ele>
        <time>2018-04-21T07:51:22.000Z</time>
      </trkpt>
      <trkpt lat="40.813206" lon="-3.851055">
        <ele>2006.5</ele>
        <time>2018-04-21T07:51:23.000Z</time>
      </trkpt>
      <trkpt lat="40.813204" lon="-3.851067">
        <ele>2006.5</ele>
        <time>2018-04-21T07:51:24.000Z</time>
      </trkpt>
      <trkpt lat="40.813202" lon="-3.85108">
        <ele>2006.5</ele>
        <time>2018-04-21T07:51:25.000Z</time>
      </trkpt>
      <trkpt lat="40.813201" lon="-3.851092">
        <ele>2006.5</ele>
        <time>2018-04-21T07:51:26.000Z</time>
      </trkpt>
      <trkpt lat="40.813199" lon="-3.851104">
        <ele>2006.4</ele>
        <time>2018-04-21T07:51:27.000Z</time>
      </trkpt>
      <trkpt lat="40.813198" lon="-3.851116">
        <ele>2006.4</ele>
        <time>2018-04-21T07:51:28.000Z</time>
      </trkpt>
      <trkpt lat="40.813196" lon="-3.851128">
        <ele>2006.4</ele>
        <time>2018-04-21T07:51:29.000Z</time>
      </trkpt>
      <trkpt lat="40.813195" lon="-3.851139">
        <ele>2006.4</ele>
        <time>2018-04-21T07:51:30.000Z</time>
      </trkpt>
      <trkpt lat="40.813193" lon="-3.85115">
        <ele>2006.4</ele>
        <time>2018-04-21T07:51:31.000Z</time>
      </trkpt>
      <trkpt lat="40.813192" lon="-3.851161">
        <ele>2006.4</ele>
        <time>2018-04-21T07:51:32.000Z</time>
      </trkpt>
      <trkpt lat="40.81319" lon="-3.851172">
        <ele>2006.3</ele>
        <time>2018-04-21T07:51:33.000Z</time>
      </trkpt>
      <trkpt lat="40.813189" lon="-3.851183">
        <ele>2006.3</ele>
        <time>2018-04-21T07:51:34.000Z</time>
      </trkpt>
      <trkpt lat="40.813187" lon="-3.851194">
        <ele>2006.3</ele>
        <time>2018-04-21T07:51:35.000Z</time>
      </trkpt>
      <trkpt lat="40.813187" lon="-3.851205">
        <ele>2006.3</ele>
        <time>2018-04-21T07:51:36.000Z</time>
      </trkpt>
      <trkpt lat="40.813186" lon="-3.851216">
        <ele>2006.3</ele>
        <time>2018-04-21T07:51:37.000Z</time>
      </trkpt>
      <trkpt lat="40.813186" lon="-3.851227">
        <ele>2006.3</ele>
        <time>2018-04-21T07:51:38.000Z</time>
      </trkpt>
      <trkpt lat="40.813187" lon="-3.851239">
        <ele>2006.4</ele>
        <time>2018-04-21T07:51:39.000Z</time>
      </trkpt>
      <trkpt lat="40.813188" lon="-3.851251">
        <ele>2006.4</ele>
        <time>2018-04-21T07:51:40.000Z</time>
      </trkpt>
      <trkpt lat="40.81319" lon="-3.851263">
        <ele>2006.5</ele>
        <time>2018-04-21T07:51:41.000Z</time>
      </trkpt>
      <trkpt lat="40.813193" lon="-3.851276">
        <ele>2006.6</ele>
        <time>2018-04-21T07:51:42.000Z</time>
      </trkpt>
      <trkpt lat="40.813195" lon="-3.851289">
        <ele>2006.7</ele>
        <time>2018-04-21T07:51:43.000Z</time>
      </trkpt>
      <trkpt lat="40.813198" lon="-3.851302">
        <ele>2006.8</ele>
        <time>2018-04-21T07:51:44.000Z</time>
      </trkpt>
      <trkpt lat="40.8132" lon="-3.851316">
        <ele>2006.9</ele>
        <time>2018-04-21T07:51:45.000Z</time>
      </trkpt>
      <trkpt lat="40.813202" lon="-3.851329">
        <ele>2006.9</ele>
        <time>2018-04-21T07:51:46.000Z</time>
      </trkpt>
      <trkpt lat="40.813204" lon="-3.851342">
        <ele>2007.0</ele>
        <time>2018-04-21T07:51:47.000Z</time>
      </trkpt>
      <trkpt lat="40.813205" lon="-3.851355">
        <ele>2007.1</ele>
        <time>2018-04-21T07:51:48.000Z</time>
      </trkpt>
      <trkpt lat="40.813206" lon="-3.851368">
        <ele>2007.1</ele>
        <time>2018-04-21T07:51:49.000Z</time>
      </trkpt>
      <trkpt lat="40.813205" lon="-3.851381">
        <ele>2007.1</ele>
        <time>2018-04-21T07:51:50.000Z</time>
      </trkpt>
      <trkpt lat="40.813205" lon="-3.851394">
        <ele>2007.2</ele>
        <time>2018-04-21T07:51:51.000Z</time>
      </trkpt>
      <trkpt lat="40.813204" lon="-3.851406">
        <ele>2007.2</ele>
        <time>2018-04-21T07:51:52.000Z</time>
      </trkpt>
      <trkpt lat="40.813204" lon="-3.851419">
        <ele>2007.2</ele>
        <time>2018-04-21T07:51:53.000Z</time>
      </trkpt>
      <trkpt lat="40.813204" lon="-3.851431">
        <ele>2007.2</ele>
        <time>2018-04-21T07:51:54.000Z</time>
      </trkpt>
      <trkpt lat="40.813204" lon="-3.851443">
        <ele>2007.2</ele>
        <time>2018-04-21T07:51:55.000Z</time>
      </trkpt>
      <trkpt lat="40.813206" lon="-3.851455">
        <ele>2007.3</ele>
        <time>2018-04-21T07:51:56.000Z</time>
      </trkpt>
      <trkpt lat="40.813208" lon="-3.851467">
        <ele>2007.4</ele>
        <time>2018-04-21T07:51:57.000Z</time>
      </trkpt>
      <trkpt lat="40.813212" lon="-3.851479">
        <ele>2007.5</ele>
        <time>2018-04-21T07:51:58.000Z</time>
      </trkpt>
      <trkpt lat="40.813217" lon="-3.85149">
        <ele>2007.7</ele>
        <time>2018-04-21T07:51:59.000Z</time>
      </trkpt>
      <trkpt lat="40.813222" lon="-3.851502">
        <ele>2007.9</ele>
        <time>2018-04-21T07:52:00.000Z</time>
      </trkpt>
      <trkpt lat="40.813229" lon="-3.851513">
        <ele>2008.1</ele>
        <time>2018-04-21T07:52:01.000Z</time>
      </trkpt>
      <trkpt lat="40.813235" lon="-3.851525">
        <ele>2008.4</ele>
        <time>2018-04-21T07:52:02.000Z</time>
      </trkpt>
      <trkpt lat="40.813242" lon="-3.851536">
        <ele>2008.6</ele>
        <time>2018-04-21T07:52:03.000Z</time>
      </trkpt>
      <trkpt lat="40.813249" lon="-3.851548">
        <ele>2008.9</ele>
        <time>2018-04-21T07:52:04.000Z</time>
      </trkpt>
      <trkpt lat="40.813255" lon="-3.851559">
        <ele>2009.1</ele>
        <time>2018-04-21T07:52:05.000Z</time>
      </trkpt>
      <trkpt lat="40.81326" lon="-3.851571">
        <ele>2009.3</ele>
        <time>2018-04-21T07:52:06.000Z</time>
      </trkpt>
      <trkpt lat="40.813265" lon="-3.851583">
        <ele>2009.5</ele>
        <time>2018-04-21T07:52:07.000Z</time>
      </trkpt>
      <trkpt lat="40.81327" lon="-3.851595">
        <ele>2009.7</ele>
        <time>2018-04-21T07:52:08.000Z</time>
      </trkpt>
      <trkpt lat="40.813273" lon="-3.851607">
        <ele>2009.8</ele>
        <time>2018-04-21T07:52:09.000Z</time>
      </trkpt>
      <trkpt lat="40.813276" lon="-3.85162">
        <ele>2009.9</ele>
        <time>2018-04-21T07:52:10.000Z</time>
      </trkpt>
      <trkpt lat="40.813279" lon="-3.851632">
        <ele>2010.1</ele>
        <time>2018-04-21T07:52:11.000Z</time>
      </trkpt>
      <trkpt lat="40.813281" lon="-3.851644">
        <ele>2010.2</ele>
        <time>2018-04-21T07:52:12.000Z</time>
      </trkpt>
      <trkpt lat="40.813283" lon="-3.851656">
        <ele>2010.3</ele>
        <time>2018-04-21T07:52:13.000Z</time>
      </trkpt>
      <trkpt lat="40.813285" lon="-3.851669">
        <ele>2010.4</ele>
        <time>2018-04-21T07:52:14.000Z</time>
      </trkpt>
      <trkpt lat="40.813287" lon="-3.851681">
        <ele>2010.4</ele>
        <time>2018-04-21T07:52:15.000Z</time>
      </trkpt>
      <trkpt lat="40.813289" lon="-3.851693">
        <ele>2010.4</ele>
        <time>2018-04-21T07:52:16.000Z</time>
      </trkpt>
      <trkpt lat="40.813292" lon="-3.851704">
        <ele>2010.5</ele>
        <time>2018-04-21T07:52:17.000Z</time>
      </trkpt>
      <trkpt lat="40.813294" lon="-3.851716">
        <ele>2010.5</ele>
        <time>2018-04-21T07:52:18.000Z</time>
      </trkpt>
      <trkpt lat="40.813297" lon="-3.851727">
        <ele>2010.6</ele>
        <time>2018-04-21T07:52:19.000Z</time>
      </trkpt>
      <trkpt lat="40.813301" lon="-3.851738">
        <ele>2010.7</ele>
        <time>2018-04-21T07:52:20.000Z</time>
      </trkpt>
      <trkpt lat="40.813305" lon="-3.851749">
        <ele>2010.8</ele>
        <time>2018-04-21T07:52:21.000Z</time>
      </trkpt>
      <trkpt lat="40.813309" lon="-3.851758">
        <ele>2010.9</ele>
        <time>2018-04-21T07:52:22.000Z</time>
      </trkpt>
      <trkpt lat="40.813315" lon="-3.851768">
        <ele>2011.1</ele>
        <time>2018-04-21T07:52:23.000Z</time>
      </trkpt>
      <trkpt lat="40.813321" lon="-3.851776">
        <ele>2011.3</ele>
        <time>2018-04-21T07:52:24.000Z</time>
      </trkpt>
      <trkpt lat="40.813328" lon="-3.851784">
        <ele>2011.5</ele>
        <time>2018-04-21T07:52:25.000Z</time>
      </trkpt>
      <trkpt lat="40.813335" lon="-3.85179">
        <ele>2011.7</ele>
        <time>2018-04-21T07:52:26.000Z</time>
      </trkpt>
      <trkpt lat="40.813344" lon="-3.851797">
        <ele>2011.5</ele>
        <time>2018-04-21T07:52:27.000Z</time>
      </trkpt>
      <trkpt lat="40.813353" lon="-3.851803">
        <ele>2011.3</ele>
        <time>2018-04-21T07:52:28.000Z</time>
      </trkpt>
      <trkpt lat="40.813363" lon="-3.851808">
        <ele>2011.2</ele>
        <time>2018-04-21T07:52:29.000Z</time>
      </trkpt>
      <trkpt lat="40.813372" lon="-3.851814">
        <ele>2011.0</ele>
        <time>2018-04-21T07:52:30.000Z</time>
      </trkpt>
      <trkpt lat="40.813381" lon="-3.85182">
        <ele>2010.8</ele>
        <time>2018-04-21T07:52:31.000Z</time>
      </trkpt>
      <trkpt lat="40.81339" lon="-3.851827">
        <ele>2010.7</ele>
        <time>2018-04-21T07:52:32.000Z</time>
      </trkpt>
      <trkpt lat="40.813398" lon="-3.851835">
        <ele>2010.5</ele>
        <time>2018-04-21T07:52:33.000Z</time>
      </trkpt>
      <trkpt lat="40.813405" lon="-3.851844">
        <ele>2010.4</ele>
        <time>2018-04-21T07:52:34.000Z</time>
      </trkpt>
      <trkpt lat="40.813411" lon="-3.851854">
        <ele>2010.3</ele>
        <time>2018-04-21T07:52:35.000Z</time>
      </trkpt>
      <trkpt lat="40.813416" lon="-3.851865">
        <ele>2010.2</ele>
        <time>2018-04-21T07:52:36.000Z</time>
      </trkpt>
      <trkpt lat="40.813422" lon="-3.851877">
        <ele>2010.1</ele>
        <time>2018-04-21T07:52:37.000Z</time>
      </trkpt>
      <trkpt lat="40.813428" lon="-3.851888">
        <ele>2010.0</ele>
        <time>2018-04-21T07:52:38.000Z</time>
      </trkpt>
      <trkpt lat="40.813437" lon="-3.851899">
        <ele>2009.9</ele>
        <time>2018-04-21T07:52:39.000Z</time>
      </trkpt>
      <trkpt lat="40.813446" lon="-3.851909">
        <ele>2009.7</ele>
        <time>2018-04-21T07:52:40.000Z</time>
      </trkpt>
      <trkpt lat="40.813457" lon="-3.851918">
        <ele>2009.6</ele>
        <time>2018-04-21T07:52:41.000Z</time>
      </trkpt>
      <trkpt lat="40.813468" lon="-3.851927">
        <ele>2009.4</ele>
        <time>2018-04-21T07:52:42.000Z</time>
      </trkpt>
      <trkpt lat="40.813477" lon="-3.851936">
        <ele>2009.3</ele>
        <time>2018-04-21T07:52:43.000Z</time>
      </trkpt>
      <trkpt lat="40.813484" lon="-3.851947">
        <ele>2009.2</ele>
        <time>2018-04-21T07:52:44.000Z</time>
      </trkpt>
      <trkpt lat="40.813488" lon="-3.851958">
        <ele>2009.1</ele>
        <time>2018-04-21T07:52:45.000Z</time>
      </trkpt>
      <trkpt lat="40.81349" lon="-3.85197">
        <ele>2009.1</ele>
        <time>2018-04-21T07:52:46.000Z</time>
      </trkpt>
      <trkpt lat="40.813491" lon="-3.851982">
        <ele>2009.1</ele>
        <time>2018-04-21T07:52:47.000Z</time>
      </trkpt>
      <trkpt lat="40.813491" lon="-3.851995">
        <ele>2009.1</ele>
        <time>2018-04-21T07:52:48.000Z</time>
      </trkpt>
      <trkpt lat="40.813491" lon="-3.852007">
        <ele>2009.1</ele>
        <time>2018-04-21T07:52:49.000Z</time>
      </trkpt>
      <trkpt lat="40.813491" lon="-3.85202">
        <ele>2009.1</ele>
        <time>2018-04-21T07:52:50.000Z</time>
      </trkpt>
      <trkpt lat="40.813491" lon="-3.852032">
        <ele>2009.1</ele>
        <time>2018-04-21T07:52:51.000Z</time>
      </trkpt>
      <trkpt lat="40.813493" lon="-3.852043">
        <ele>2009.1</ele>
        <time>2018-04-21T07:52:52.000Z</time>
      </trkpt>
      <trkpt lat="40.813496" lon="-3.852054">
        <ele>2009.0</ele>
        <time>2018-04-21T07:52:53.000Z</time>
      </trkpt>
      <trkpt lat="40.813501" lon="-3.852064">
        <ele>2009.0</ele>
        <time>2018-04-21T07:52:54.000Z</time>
      </trkpt>
      <trkpt lat="40.813506" lon="-3.852074">
        <ele>2008.9</ele>
        <time>2018-04-21T07:52:55.000Z</time>
      </trkpt>
      <trkpt lat="40.813512" lon="-3.852084">
        <ele>2008.9</ele>
        <time>2018-04-21T07:52:56.000Z</time>
      </trkpt>
      <trkpt lat="40.813519" lon="-3.852093">
        <ele>2008.8</ele>
        <time>2018-04-21T07:52:57.000Z</time>
      </trkpt>
      <trkpt lat="40.813526" lon="-3.852102">
        <ele>2008.7</ele>
        <time>2018-04-21T07:52:58.000Z</time>
      </trkpt>
      <trkpt lat="40.813533" lon="-3.852111">
        <ele>2008.6</ele>
        <time>2018-04-21T07:52:59.000Z</time>
      </trkpt>
      <trkpt lat="40.813539" lon="-3.85212">
        <ele>2008.6</ele>
        <time>2018-04-21T07:53:00.000Z</time>
      </trkpt>
      <trkpt lat="40.813545" lon="-3.852129">
        <ele>2008.5</ele>
        <time>2018-04-21T07:53:01.000Z</time>
      </trkpt>
      <trkpt lat="40.81355" lon="-3.852138">
        <ele>2008.5</ele>
        <time>2018-04-21T07:53:02.000Z</time>
      </trkpt>
      <trkpt lat="40.813555" lon="-3.852148">
        <ele>2008.4</ele>
        <time>2018-04-21T07:53:03.000Z</time>
      </trkpt>
      <trkpt lat="40.813558" lon="-3.852158">
        <ele>2008.4</ele>
        <time>2018-04-21T07:53:04.000Z</time>
      </trkpt>
      <trkpt lat="40.813561" lon="-3.852169">
        <ele>2008.4</ele>
        <time>2018-04-21T07:53:05.000Z</time>
      </trkpt>
      <trkpt lat="40.813564" lon="-3.85218">
        <ele>2008.4</ele>
        <time>2018-04-21T07:53:06.000Z</time>
      </trkpt>
      <trkpt lat="40.813566" lon="-3.852191">
        <ele>2008.4</ele>
        <time>2018-04-21T07:53:07.000Z</time>
      </trkpt>
      <trkpt lat="40.813568" lon="-3.852202">
        <ele>2008.4</ele>
        <time>2018-04-21T07:53:08.000Z</time>
      </trkpt>
      <trkpt lat="40.813571" lon="-3.852214">
        <ele>2008.4</ele>
        <time>2018-04-21T07:53:09.000Z</time>
      </trkpt>
      <trkpt lat="40.813573" lon="-3.852226">
        <ele>2008.4</ele>
        <time>2018-04-21T07:53:10.000Z</time>
      </trkpt>
      <trkpt lat="40.813575" lon="-3.852238">
        <ele>2008.4</ele>
        <time>2018-04-21T07:53:11.000Z</time>
      </trkpt>
      <trkpt lat="40.813577" lon="-3.852251">
        <ele>2008.4</ele>
        <time>2018-04-21T07:53:12.000Z</time>
      </trkpt>
      <trkpt lat="40.81358" lon="-3.852264">
        <ele>2008.4</ele>
        <time>2018-04-21T07:53:13.000Z</time>
      </trkpt>
      <trkpt lat="40.813583" lon="-3.852277">
        <ele>2008.4</ele>
        <time>2018-04-21T07:53:14.000Z</time>
      </trkpt>
      <trkpt lat="40.813586" lon="-3.85229">
        <ele>2008.4</ele>
        <time>2018-04-21T07:53:15.000Z</time>
      </trkpt>
      <trkpt lat="40.813589" lon="-3.852303">
        <ele>2008.4</ele>
        <time>2018-04-21T07:53:16.000Z</time>
      </trkpt>
      <trkpt lat="40.813593" lon="-3.852316">
        <ele>2008.4</ele>
        <time>2018-04-21T07:53:17.000Z</time>
      </trkpt>
      <trkpt lat="40.813596" lon="-3.852328">
        <ele>2008.4</ele>
        <time>2018-04-21T07:53:18.000Z</time>
      </trkpt>
      <trkpt lat="40.8136" lon="-3.852341">
        <ele>2008.4</ele>
        <time>2018-04-21T07:53:19.000Z</time>
      </trkpt>
      <trkpt lat="40.813605" lon="-3.852353">
        <ele>2008.4</ele>
        <time>2018-04-21T07:53:20.000Z</time>
      </trkpt>
      <trkpt lat="40.813609" lon="-3.852365">
        <ele>2008.4</ele>
        <time>2018-04-21T07:53:21.000Z</time>
      </trkpt>
      <trkpt lat="40.813614" lon="-3.852377">
        <ele>2008.4</ele>
        <time>2018-04-21T07:53:22.000Z</time>
      </trkpt>
      <trkpt lat="40.813619" lon="-3.852388">
        <ele>2008.3</ele>
        <time>2018-04-21T07:53:23.000Z</time>
      </trkpt>
      <trkpt lat="40.813624" lon="-3.8524">
        <ele>2008.3</ele>
        <time>2018-04-21T07:53:24.000Z</time>
      </trkpt>
      <trkpt lat="40.81363" lon="-3.852411">
        <ele>2008.3</ele>
        <time>2018-04-21T07:53:25.000Z</time>
      </trkpt>
      <trkpt lat="40.813635" lon="-3.852423">
        <ele>2008.3</ele>
        <time>2018-04-21T07:53:26.000Z</time>
      </trkpt>
      <trkpt lat="40.813641" lon="-3.852434">
        <ele>2008.3</ele>
        <time>2018-04-21T07:53:27.000Z</time>
      </trkpt>
      <trkpt lat="40.813646" lon="-3.852445">
        <ele>2008.3</ele>
        <time>2018-04-21T07:53:28.000Z</time>
      </trkpt>
      <trkpt lat="40.813652" lon="-3.852457">
        <ele>2008.3</ele>
        <time>2018-04-21T07:53:29.000Z</time>
      </trkpt>
      <trkpt lat="40.813657" lon="-3.852468">
        <ele>2008.3</ele>
        <time>2018-04-21T07:53:30.000Z</time>
      </trkpt>
      <trkpt lat="40.813663" lon="-3.85248">
        <ele>2008.4</ele>
        <time>2018-04-21T07:53:31.000Z</time>
      </trkpt>
      <trkpt lat="40.813669" lon="-3.852492">
        <ele>2008.4</ele>
        <time>2018-04-21T07:53:32.000Z</time>
      </trkpt>
      <trkpt lat="40.813674" lon="-3.852504">
        <ele>2008.3</ele>
        <time>2018-04-21T07:53:33.000Z</time>
      </trkpt>
      <trkpt lat="40.81368" lon="-3.852517">
        <ele>2008.2</ele>
        <time>2018-04-21T07:53:34.000Z</time>
      </trkpt>
      <trkpt lat="40.813685" lon="-3.852529">
        <ele>2008.1</ele>
        <time>2018-04-21T07:53:35.000Z</time>
      </trkpt>
      <trkpt lat="40.81369" lon="-3.852543">
        <ele>2008.0</ele>
        <time>2018-04-21T07:53:36.000Z</time>
      </trkpt>
      <trkpt lat="40.813695" lon="-3.852556">
        <ele>2007.9</ele>
        <time>2018-04-21T07:53:37.000Z</time>
      </trkpt>
      <trkpt lat="40.813699" lon="-3.85257">
        <ele>2007.8</ele>
        <time>2018-04-21T07:53:38.000Z</time>
      </trkpt>
      <trkpt lat="40.813704" lon="-3.852585">
        <ele>2007.7</ele>
        <time>2018-04-21T07:53:39.000Z</time>
      </trkpt>
      <trkpt lat="40.813708" lon="-3.8526">
        <ele>2007.6</ele>
        <time>2018-04-21T07:53:40.000Z</time>
      </trkpt>
      <trkpt lat="40.813713" lon="-3.852615">
        <ele>2007.5</ele>
        <time>2018-04-21T07:53:41.000Z</time>
      </trkpt>
      <trkpt lat="40.813717" lon="-3.85263">
        <ele>2007.4</ele>
        <time>2018-04-21T07:53:42.000Z</time>
      </trkpt>
      <trkpt lat="40.813721" lon="-3.852645">
        <ele>2007.3</ele>
        <time>2018-04-21T07:53:43.000Z</time>
      </trkpt>
      <trkpt lat="40.813726" lon="-3.852661">
        <ele>2007.2</ele>
        <time>2018-04-21T07:53:44.000Z</time>
      </trkpt>
      <trkpt lat="40.81373" lon="-3.852676">
        <ele>2007.1</ele>
        <time>2018-04-21T07:53:45.000Z</time>
      </trkpt>
      <trkpt lat="40.813735" lon="-3.852692">
        <ele>2007.0</ele>
        <time>2018-04-21T07:53:46.000Z</time>
      </trkpt>
      <trkpt lat="40.81374" lon="-3.852707">
        <ele>2006.9</ele>
        <time>2018-04-21T07:53:47.000Z</time>
      </trkpt>
      <trkpt lat="40.813745" lon="-3.852722">
        <ele>2006.8</ele>
        <time>2018-04-21T07:53:48.000Z</time>
      </trkpt>
      <trkpt lat="40.813751" lon="-3.852737">
        <ele>2006.7</ele>
        <time>2018-04-21T07:53:49.000Z</time>
      </trkpt>
      <trkpt lat="40.813757" lon="-3.852751">
        <ele>2006.6</ele>
        <time>2018-04-21T07:53:50.000Z</time>
      </trkpt>
      <trkpt lat="40.813763" lon="-3.852765">
        <ele>2006.6</ele>
        <time>2018-04-21T07:53:51.000Z</time>
      </trkpt>
      <trkpt lat="40.81377" lon="-3.852778">
        <ele>2006.5</ele>
        <time>2018-04-21T07:53:52.000Z</time>
      </trkpt>
      <trkpt lat="40.813778" lon="-3.852791">
        <ele>2006.4</ele>
        <time>2018-04-21T07:53:53.000Z</time>
      </trkpt>
      <trkpt lat="40.813786" lon="-3.852804">
        <ele>2006.3</ele>
        <time>2018-04-21T07:53:54.000Z</time>
      </trkpt>
      <trkpt lat="40.813794" lon="-3.852815">
        <ele>2006.3</ele>
        <time>2018-04-21T07:53:55.000Z</time>
      </trkpt>
      <trkpt lat="40.813804" lon="-3.852826">
        <ele>2006.2</ele>
        <time>2018-04-21T07:53:56.000Z</time>
      </trkpt>
      <trkpt lat="40.813813" lon="-3.852836">
        <ele>2006.2</ele>
        <time>2018-04-21T07:53:57.000Z</time>
      </trkpt>
      <trkpt lat="40.813824" lon="-3.852846">
        <ele>2006.1</ele>
        <time>2018-04-21T07:53:58.000Z</time>
      </trkpt>
      <trkpt lat="40.813834" lon="-3.852856">
        <ele>2006.1</ele>
        <time>2018-04-21T07:53:59.000Z</time>
      </trkpt>
      <trkpt lat="40.813844" lon="-3.852865">
        <ele>2006.0</ele>
        <time>2018-04-21T07:54:00.000Z</time>
      </trkpt>
      <trkpt lat="40.813855" lon="-3.852875">
        <ele>2006.0</ele>
        <time>2018-04-21T07:54:01.000Z</time>
      </trkpt>
      <trkpt lat="40.813865" lon="-3.852885">
        <ele>2005.9</ele>
        <time>2018-04-21T07:54:02.000Z</time>
      </trkpt>
      <trkpt lat="40.813874" lon="-3.852895">
        <ele>2005.9</ele>
        <time>2018-04-21T07:54:03.000Z</time>
      </trkpt>
      <trkpt lat="40.813883" lon="-3.852905">
        <ele>2005.9</ele>
        <time>2018-04-21T07:54:04.000Z</time>
      </trkpt>
      <trkpt lat="40.81389" lon="-3.852917">
        <ele>2005.8</ele>
        <time>2018-04-21T07:54:05.000Z</time>
      </trkpt>
      <trkpt lat="40.813897" lon="-3.852929">
        <ele>2005.8</ele>
        <time>2018-04-21T07:54:06.000Z</time>
      </trkpt>
      <trkpt lat="40.813904" lon="-3.852941">
        <ele>2005.8</ele>
        <time>2018-04-21T07:54:07.000Z</time>
      </trkpt>
      <trkpt lat="40.81391" lon="-3.852954">
        <ele>2005.7</ele>
        <time>2018-04-21T07:54:08.000Z</time>
      </trkpt>
      <trkpt lat="40.813915" lon="-3.852968">
        <ele>2005.7</ele>
        <time>2018-04-21T07:54:09.000Z</time>
      </trkpt>
      <trkpt lat="40.81392" lon="-3.852982">
        <ele>2005.6</ele>
        <time>2018-04-21T07:54:10.000Z</time>
      </trkpt>
      <trkpt lat="40.813924" lon="-3.852997">
        <ele>2005.6</ele>
        <time>2018-04-21T07:54:11.000Z</time>
      </trkpt>
      <trkpt lat="40.813928" lon="-3.853012">
        <ele>2005.6</ele>
        <time>2018-04-21T07:54:12.000Z</time>
      </trkpt>
      <trkpt lat="40.813932" lon="-3.853027">
        <ele>2005.5</ele>
        <time>2018-04-21T07:54:13.000Z</time>
      </trkpt>
      <trkpt lat="40.813936" lon="-3.853042">
        <ele>2005.5</ele>
        <time>2018-04-21T07:54:14.000Z</time>
      </trkpt>
      <trkpt lat="40.813939" lon="-3.853058">
        <ele>2005.4</ele>
        <time>2018-04-21T07:54:15.000Z</time>
      </trkpt>
      <trkpt lat="40.813943" lon="-3.853074">
        <ele>2005.4</ele>
        <time>2018-04-21T07:54:16.000Z</time>
      </trkpt>
      <trkpt lat="40.813948" lon="-3.853089">
        <ele>2005.4</ele>
        <time>2018-04-21T07:54:17.000Z</time>
      </trkpt>
      <trkpt lat="40.813953" lon="-3.853104">
        <ele>2005.4</ele>
        <time>2018-04-21T07:54:18.000Z</time>
      </trkpt>
      <trkpt lat="40.813959" lon="-3.853118">
        <ele>2005.3</ele>
        <time>2018-04-21T07:54:19.000Z</time>
      </trkpt>
      <trkpt lat="40.813966" lon="-3.853132">
        <ele>2005.3</ele>
        <time>2018-04-21T07:54:20.000Z</time>
      </trkpt>
      <trkpt lat="40.813974" lon="-3.853145">
        <ele>2005.3</ele>
        <time>2018-04-21T07:54:21.000Z</time>
      </trkpt>
      <trkpt lat="40.813983" lon="-3.853157">
        <ele>2005.3</ele>
        <time>2018-04-21T07:54:22.000Z</time>
      </trkpt>
      <trkpt lat="40.813992" lon="-3.853169">
        <ele>2005.3</ele>
        <time>2018-04-21T07:54:23.000Z</time>
      </trkpt>
      <trkpt lat="40.814002" lon="-3.853181">
        <ele>2005.3</ele>
        <time>2018-04-21T07:54:24.000Z</time>
      </trkpt>
      <trkpt lat="40.814012" lon="-3.853192">
        <ele>2005.4</ele>
        <time>2018-04-21T07:54:25.000Z</time>
      </trkpt>
      <trkpt lat="40.814021" lon="-3.853204">
        <ele>2005.4</ele>
        <time>2018-04-21T07:54:26.000Z</time>
      </trkpt>
      <trkpt lat="40.814029" lon="-3.853217">
        <ele>2005.4</ele>
        <time>2018-04-21T07:54:27.000Z</time>
      </trkpt>
      <trkpt lat="40.814035" lon="-3.85323">
        <ele>2005.4</ele>
        <time>2018-04-21T07:54:28.000Z</time>
      </trkpt>
      <trkpt lat="40.814041" lon="-3.853244">
        <ele>2005.4</ele>
        <time>2018-04-21T07:54:29.000Z</time>
      </trkpt>
      <trkpt lat="40.814045" lon="-3.853259">
        <ele>2005.4</ele>
        <time>2018-04-21T07:54:30.000Z</time>
      </trkpt>
      <trkpt lat="40.814049" lon="-3.853275">
        <ele>2005.4</ele>
        <time>2018-04-21T07:54:31.000Z</time>
      </trkpt>
      <trkpt lat="40.814053" lon="-3.853291">
        <ele>2005.4</ele>
        <time>2018-04-21T07:54:32.000Z</time>
      </trkpt>
      <trkpt lat="40.814057" lon="-3.853308">
        <ele>2005.4</ele>
        <time>2018-04-21T07:54:33.000Z</time>
      </trkpt>
      <trkpt lat="40.814061" lon="-3.853326">
        <ele>2005.4</ele>
        <time>2018-04-21T07:54:34.000Z</time>
      </trkpt>
      <trkpt lat="40.814065" lon="-3.853343">
        <ele>2005.3</ele>
        <time>2018-04-21T07:54:35.000Z</time>
      </trkpt>
      <trkpt lat="40.81407" lon="-3.853361">
        <ele>2005.2</ele>
        <time>2018-04-21T07:54:36.000Z</time>
      </trkpt>
      <trkpt lat="40.814074" lon="-3.853378">
        <ele>2005.1</ele>
        <time>2018-04-21T07:54:37.000Z</time>
      </trkpt>
      <trkpt lat="40.814079" lon="-3.853395">
        <ele>2005.1</ele>
        <time>2018-04-21T07:54:38.000Z</time>
      </trkpt>
      <trkpt lat="40.814084" lon="-3.853411">
        <ele>2005.0</ele>
        <time>2018-04-21T07:54:39.000Z</time>
      </trkpt>
      <trkpt lat="40.81409" lon="-3.853427">
        <ele>2004.9</ele>
        <time>2018-04-21T07:54:40.000Z</time>
      </trkpt>
      <trkpt lat="40.814096" lon="-3.853442">
        <ele>2004.9</ele>
        <time>2018-04-21T07:54:41.000Z</time>
      </trkpt>
      <trkpt lat="40.814103" lon="-3.853456">
        <ele>2004.9</ele>
        <time>2018-04-21T07:54:42.000Z</time>
      </trkpt>
      <trkpt lat="40.814109" lon="-3.853469">
        <ele>2004.8</ele>
        <time>2018-04-21T07:54:43.000Z</time>
      </trkpt>
      <trkpt lat="40.814116" lon="-3.853483">
        <ele>2004.8</ele>
        <time>2018-04-21T07:54:44.000Z</time>
      </trkpt>
      <trkpt lat="40.814123" lon="-3.853495">
        <ele>2004.8</ele>
        <time>2018-04-21T07:54:45.000Z</time>
      </trkpt>
      <trkpt lat="40.814129" lon="-3.853508">
        <ele>2004.8</ele>
        <time>2018-04-21T07:54:46.000Z</time>
      </trkpt>
      <trkpt lat="40.814135" lon="-3.853521">
        <ele>2004.8</ele>
        <time>2018-04-21T07:54:47.000Z</time>
      </trkpt>
      <trkpt lat="40.814141" lon="-3.853534">
        <ele>2004.8</ele>
        <time>2018-04-21T07:54:48.000Z</time>
      </trkpt>
      <trkpt lat="40.814146" lon="-3.853548">
        <ele>2004.8</ele>
        <time>2018-04-21T07:54:49.000Z</time>
      </trkpt>
      <trkpt lat="40.81415" lon="-3.853563">
        <ele>2004.7</ele>
        <time>2018-04-21T07:54:50.000Z</time>
      </trkpt>
      <trkpt lat="40.814154" lon="-3.853577">
        <ele>2004.7</ele>
        <time>2018-04-21T07:54:51.000Z</time>
      </trkpt>
      <trkpt lat="40.814157" lon="-3.853593">
        <ele>2004.6</ele>
        <time>2018-04-21T07:54:52.000Z</time>
      </trkpt>
      <trkpt lat="40.81416" lon="-3.853609">
        <ele>2004.6</ele>
        <time>2018-04-21T07:54:53.000Z</time>
      </trkpt>
      <trkpt lat="40.814162" lon="-3.853625">
        <ele>2004.5</ele>
        <time>2018-04-21T07:54:54.000Z</time>
      </trkpt>
      <trkpt lat="40.814164" lon="-3.853641">
        <ele>2004.5</ele>
        <time>2018-04-21T07:54:55.000Z</time>
      </trkpt>
      <trkpt lat="40.814166" lon="-3.853658">
        <ele>2004.4</ele>
        <time>2018-04-21T07:54:56.000Z</time>
      </trkpt>
      <trkpt lat="40.814168" lon="-3.853675">
        <ele>2004.3</ele>
        <time>2018-04-21T07:54:57.000Z</time>
      </trkpt>
      <trkpt lat="40.81417" lon="-3.853692">
        <ele>2004.2</ele>
        <time>2018-04-21T07:54:58.000Z</time>
      </trkpt>
      <trkpt lat="40.814173" lon="-3.853709">
        <ele>2004.1</ele>
        <time>2018-04-21T07:54:59.000Z</time>
      </trkpt>
      <trkpt lat="40.814175" lon="-3.853725">
        <ele>2004.0</ele>
        <time>2018-04-21T07:55:00.000Z</time>
      </trkpt>
      <trkpt lat="40.814178" lon="-3.853742">
        <ele>2003.9</ele>
        <time>2018-04-21T07:55:01.000Z</time>
      </trkpt>
      <trkpt lat="40.814181" lon="-3.853758">
        <ele>2003.8</ele>
        <time>2018-04-21T07:55:02.000Z</time>
      </trkpt>
      <trkpt lat="40.814185" lon="-3.853774">
        <ele>2003.7</ele>
        <time>2018-04-21T07:55:03.000Z</time>
      </trkpt>
      <trkpt lat="40.814189" lon="-3.853789">
        <ele>2003.6</ele>
        <time>2018-04-21T07:55:04.000Z</time>
      </trkpt>
      <trkpt lat="40.814194" lon="-3.853804">
        <ele>2003.5</ele>
        <time>2018-04-21T07:55:05.000Z</time>
      </trkpt>
      <trkpt lat="40.814199" lon="-3.853818">
        <ele>2003.4</ele>
        <time>2018-04-21T07:55:06.000Z</time>
      </trkpt>
      <trkpt lat="40.814204" lon="-3.853831">
        <ele>2003.3</ele>
        <time>2018-04-21T07:55:07.000Z</time>
      </trkpt>
      <trkpt lat="40.814211" lon="-3.853843">
        <ele>2003.2</ele>
        <time>2018-04-21T07:55:08.000Z</time>
      </trkpt>
      <trkpt lat="40.814217" lon="-3.853855">
        <ele>2003.1</ele>
        <time>2018-04-21T07:55:09.000Z</time>
      </trkpt>
      <trkpt lat="40.814224" lon="-3.853866">
        <ele>2003.0</ele>
        <time>2018-04-21T07:55:10.000Z</time>
      </trkpt>
      <trkpt lat="40.814231" lon="-3.853876">
        <ele>2002.9</ele>
        <time>2018-04-21T07:55:11.000Z</time>
      </trkpt>
      <trkpt lat="40.814239" lon="-3.853886">
        <ele>2002.8</ele>
        <time>2018-04-21T07:55:12.000Z</time>
      </trkpt>
      <trkpt lat="40.814246" lon="-3.853896">
        <ele>2002.7</ele>
        <time>2018-04-21T07:55:13.000Z</time>
      </trkpt>
      <trkpt lat="40.814253" lon="-3.853906">
        <ele>2002.6</ele>
        <time>2018-04-21T07:55:14.000Z</time>
      </trkpt>
      <trkpt lat="40.81426" lon="-3.853916">
        <ele>2002.6</ele>
        <time>2018-04-21T07:55:15.000Z</time>
      </trkpt>
      <trkpt lat="40.814266" lon="-3.853927">
        <ele>2002.5</ele>
        <time>2018-04-21T07:55:16.000Z</time>
      </trkpt>
      <trkpt lat="40.814271" lon="-3.853937">
        <ele>2002.4</ele>
        <time>2018-04-21T07:55:17.000Z</time>
      </trkpt>
      <trkpt lat="40.814277" lon="-3.853948">
        <ele>2002.3</ele>
        <time>2018-04-21T07:55:18.000Z</time>
      </trkpt>
      <trkpt lat="40.814281" lon="-3.85396">
        <ele>2002.3</ele>
        <time>2018-04-21T07:55:19.000Z</time>
      </trkpt>
      <trkpt lat="40.814286" lon="-3.853972">
        <ele>2002.2</ele>
        <time>2018-04-21T07:55:20.000Z</time>
      </trkpt>
      <trkpt lat="40.81429" lon="-3.853984">
        <ele>2002.1</ele>
        <time>2018-04-21T07:55:21.000Z</time>
      </trkpt>
      <trkpt lat="40.814294" lon="-3.853997">
        <ele>2002.1</ele>
        <time>2018-04-21T07:55:22.000Z</time>
      </trkpt>
      <trkpt lat="40.814297" lon="-3.85401">
        <ele>2002.0</ele>
        <time>2018-04-21T07:55:23.000Z</time>
      </trkpt>
      <trkpt lat="40.814301" lon="-3.854024">
        <ele>2002.0</ele>
        <time>2018-04-21T07:55:24.000Z</time>
      </trkpt>
      <trkpt lat="40.814305" lon="-3.854038">
        <ele>2001.9</ele>
        <time>2018-04-21T07:55:25.000Z</time>
      </trkpt>
      <trkpt lat="40.814309" lon="-3.854053">
        <ele>2001.8</ele>
        <time>2018-04-21T07:55:26.000Z</time>
      </trkpt>
      <trkpt lat="40.814313" lon="-3.854068">
        <ele>2001.8</ele>
        <time>2018-04-21T07:55:27.000Z</time>
      </trkpt>
      <trkpt lat="40.814317" lon="-3.854083">
        <ele>2001.7</ele>
        <time>2018-04-21T07:55:28.000Z</time>
      </trkpt>
      <trkpt lat="40.814321" lon="-3.854098">
        <ele>2001.6</ele>
        <time>2018-04-21T07:55:29.000Z</time>
      </trkpt>
      <trkpt lat="40.814325" lon="-3.854114">
        <ele>2001.6</ele>
        <time>2018-04-21T07:55:30.000Z</time>
      </trkpt>
      <trkpt lat="40.814329" lon="-3.854129">
        <ele>2001.5</ele>
        <time>2018-04-21T07:55:31.000Z</time>
      </trkpt>
      <trkpt lat="40.814333" lon="-3.854144">
        <ele>2001.5</ele>
        <time>2018-04-21T07:55:32.000Z</time>
      </trkpt>
      <trkpt lat="40.814338" lon="-3.854159">
        <ele>2001.4</ele>
        <time>2018-04-21T07:55:33.000Z</time>
      </trkpt>
      <trkpt lat="40.814342" lon="-3.854174">
        <ele>2001.4</ele>
        <time>2018-04-21T07:55:34.000Z</time>
      </trkpt>
      <trkpt lat="40.814346" lon="-3.854188">
        <ele>2001.3</ele>
        <time>2018-04-21T07:55:35.000Z</time>
      </trkpt>
      <trkpt lat="40.81435" lon="-3.854202">
        <ele>2001.3</ele>
        <time>2018-04-21T07:55:36.000Z</time>
      </trkpt>
      <trkpt lat="40.814354" lon="-3.854215">
        <ele>2001.2</ele>
        <time>2018-04-21T07:55:37.000Z</time>
      </trkpt>
      <trkpt lat="40.814358" lon="-3.854228">
        <ele>2001.2</ele>
        <time>2018-04-21T07:55:38.000Z</time>
      </trkpt>
      <trkpt lat="40.814362" lon="-3.854242">
        <ele>2001.1</ele>
        <time>2018-04-21T07:55:39.000Z</time>
      </trkpt>
      <trkpt lat="40.814366" lon="-3.854255">
        <ele>2001.1</ele>
        <time>2018-04-21T07:55:40.000Z</time>
      </trkpt>
      <trkpt lat="40.81437" lon="-3.854268">
        <ele>2001.1</ele>
        <time>2018-04-21T07:55:41.000Z</time>
      </trkpt>
      <trkpt lat="40.814374" lon="-3.854281">
        <ele>2001.0</ele>
        <time>2018-04-21T07:55:42.000Z</time>
      </trkpt>
      <trkpt lat="40.814378" lon="-3.854294">
        <ele>2001.0</ele>
        <time>2018-04-21T07:55:43.000Z</time>
      </trkpt>
      <trkpt lat="40.814382" lon="-3.854307">
        <ele>2001.0</ele>
        <time>2018-04-21T07:55:44.000Z</time>
      </trkpt>
      <trkpt lat="40.814385" lon="-3.854321">
        <ele>2001.0</ele>
        <time>2018-04-21T07:55:45.000Z</time>
      </trkpt>
      <trkpt lat="40.814389" lon="-3.854335">
        <ele>2000.9</ele>
        <time>2018-04-21T07:55:46.000Z</time>
      </trkpt>
      <trkpt lat="40.814393" lon="-3.854349">
        <ele>2000.9</ele>
        <time>2018-04-21T07:55:47.000Z</time>
      </trkpt>
      <trkpt lat="40.814397" lon="-3.854363">
        <ele>2000.9</ele>
        <time>2018-04-21T07:55:48.000Z</time>
      </trkpt>
      <trkpt lat="40.814401" lon="-3.854377">
        <ele>2000.9</ele>
        <time>2018-04-21T07:55:49.000Z</time>
      </trkpt>
      <trkpt lat="40.814404" lon="-3.854391">
        <ele>2000.8</ele>
        <time>2018-04-21T07:55:50.000Z</time>
      </trkpt>
      <trkpt lat="40.814408" lon="-3.854406">
        <ele>2000.8</ele>
        <time>2018-04-21T07:55:51.000Z</time>
      </trkpt>
      <trkpt lat="40.814412" lon="-3.85442">
        <ele>2000.8</ele>
        <time>2018-04-21T07:55:52.000Z</time>
      </trkpt>
      <trkpt lat="40.814416" lon="-3.854435">
        <ele>2000.8</ele>
        <time>2018-04-21T07:55:53.000Z</time>
      </trkpt>
      <trkpt lat="40.81442" lon="-3.85445">
        <ele>2000.8</ele>
        <time>2018-04-21T07:55:54.000Z</time>
      </trkpt>
      <trkpt lat="40.814423" lon="-3.854465">
        <ele>2000.7</ele>
        <time>2018-04-21T07:55:55.000Z</time>
      </trkpt>
      <trkpt lat="40.814427" lon="-3.854479">
        <ele>2000.7</ele>
        <time>2018-04-21T07:55:56.000Z</time>
      </trkpt>
      <trkpt lat="40.814431" lon="-3.854494">
        <ele>2000.7</ele>
        <time>2018-04-21T07:55:57.000Z</time>
      </trkpt>
      <trkpt lat="40.814435" lon="-3.854509">
        <ele>2000.7</ele>
        <time>2018-04-21T07:55:58.000Z</time>
      </trkpt>
      <trkpt lat="40.814439" lon="-3.854524">
        <ele>2000.7</ele>
        <time>2018-04-21T07:55:59.000Z</time>
      </trkpt>
      <trkpt lat="40.814443" lon="-3.854538">
        <ele>2000.7</ele>
        <time>2018-04-21T07:56:00.000Z</time>
      </trkpt>
      <trkpt lat="40.814447" lon="-3.854553">
        <ele>2000.7</ele>
        <time>2018-04-21T07:56:01.000Z</time>
      </trkpt>
      <trkpt lat="40.814451" lon="-3.854568">
        <ele>2000.7</ele>
        <time>2018-04-21T07:56:02.000Z</time>
      </trkpt>
      <trkpt lat="40.814455" lon="-3.854582">
        <ele>2000.7</ele>
        <time>2018-04-21T07:56:03.000Z</time>
      </trkpt>
      <trkpt lat="40.814459" lon="-3.854597">
        <ele>2000.7</ele>
        <time>2018-04-21T07:56:04.000Z</time>
      </trkpt>
      <trkpt lat="40.814463" lon="-3.854611">
        <ele>2000.7</ele>
        <time>2018-04-21T07:56:05.000Z</time>
      </trkpt>
      <trkpt lat="40.814467" lon="-3.854625">
        <ele>2000.7</ele>
        <time>2018-04-21T07:56:06.000Z</time>
      </trkpt>
      <trkpt lat="40.81447" lon="-3.854639">
        <ele>2000.7</ele>
        <time>2018-04-21T07:56:07.000Z</time>
      </trkpt>
      <trkpt lat="40.814474" lon="-3.854653">
        <ele>2000.7</ele>
        <time>2018-04-21T07:56:08.000Z</time>
      </trkpt>
      <trkpt lat="40.814478" lon="-3.854668">
        <ele>2000.7</ele>
        <time>2018-04-21T07:56:09.000Z</time>
      </trkpt>
      <trkpt lat="40.814482" lon="-3.854681">
        <ele>2000.7</ele>
        <time>2018-04-21T07:56:10.000Z</time>
      </trkpt>
      <trkpt lat="40.814485" lon="-3.854695">
        <ele>2000.7</ele>
        <time>2018-04-21T07:56:11.000Z</time>
      </trkpt>
      <trkpt lat="40.814489" lon="-3.854709">
        <ele>2000.8</ele>
        <time>2018-04-21T07:56:12.000Z</time>
      </trkpt>
      <trkpt lat="40.814492" lon="-3.854723">
        <ele>2000.8</ele>
        <time>2018-04-21T07:56:13.000Z</time>
      </trkpt>
      <trkpt lat="40.814495" lon="-3.854736">
        <ele>2000.8</ele>
        <time>2018-04-21T07:56:14.000Z</time>
      </trkpt>
      <trkpt lat="40.814498" lon="-3.85475">
        <ele>2000.8</ele>
        <time>2018-04-21T07:56:15.000Z</time>
      </trkpt>
      <trkpt lat="40.814501" lon="-3.854763">
        <ele>2000.8</ele>
        <time>2018-04-21T07:56:16.000Z</time>
      </trkpt>
      <trkpt lat="40.814504" lon="-3.854776">
        <ele>2000.8</ele>
        <time>2018-04-21T07:56:17.000Z</time>
      </trkpt>
      <trkpt lat="40.814506" lon="-3.854789">
        <ele>2000.8</ele>
        <time>2018-04-21T07:56:18.000Z</time>
      </trkpt>
      <trkpt lat="40.814508" lon="-3.854802">
        <ele>2000.8</ele>
        <time>2018-04-21T07:56:19.000Z</time>
      </trkpt>
      <trkpt lat="40.81451" lon="-3.854815">
        <ele>2000.9</ele>
        <time>2018-04-21T07:56:20.000Z</time>
      </trkpt>
      <trkpt lat="40.814512" lon="-3.854828">
        <ele>2000.9</ele>
        <time>2018-04-21T07:56:21.000Z</time>
      </trkpt>
      <trkpt lat="40.814513" lon="-3.85484">
        <ele>2000.9</ele>
        <time>2018-04-21T07:56:22.000Z</time>
      </trkpt>
      <trkpt lat="40.814515" lon="-3.854853">
        <ele>2000.9</ele>
        <time>2018-04-21T07:56:23.000Z</time>
      </trkpt>
      <trkpt lat="40.814516" lon="-3.854865">
        <ele>2000.9</ele>
        <time>2018-04-21T07:56:24.000Z</time>
      </trkpt>
      <trkpt lat="40.814516" lon="-3.854878">
        <ele>2000.9</ele>
        <time>2018-04-21T07:56:25.000Z</time>
      </trkpt>
      <trkpt lat="40.814517" lon="-3.85489">
        <ele>2000.9</ele>
        <time>2018-04-21T07:56:26.000Z</time>
      </trkpt>
      <trkpt lat="40.814517" lon="-3.854902">
        <ele>2000.9</ele>
        <time>2018-04-21T07:56:27.000Z</time>
      </trkpt>
      <trkpt lat="40.814517" lon="-3.854915">
        <ele>2000.9</ele>
        <time>2018-04-21T07:56:28.000Z</time>
      </trkpt>
      <trkpt lat="40.814517" lon="-3.854927">
        <ele>2000.9</ele>
        <time>2018-04-21T07:56:29.000Z</time>
      </trkpt>
      <trkpt lat="40.814517" lon="-3.854939">
        <ele>2000.9</ele>
        <time>2018-04-21T07:56:30.000Z</time>
      </trkpt>
      <trkpt lat="40.814516" lon="-3.854951">
        <ele>2000.9</ele>
        <time>2018-04-21T07:56:31.000Z</time>
      </trkpt>
      <trkpt lat="40.814516" lon="-3.854963">
        <ele>2000.9</ele>
        <time>2018-04-21T07:56:32.000Z</time>
      </trkpt>
      <trkpt lat="40.814514" lon="-3.854975">
        <ele>2000.9</ele>
        <time>2018-04-21T07:56:33.000Z</time>
      </trkpt>
      <trkpt lat="40.814513" lon="-3.854987">
        <ele>2000.9</ele>
        <time>2018-04-21T07:56:34.000Z</time>
      </trkpt>
      <trkpt lat="40.814512" lon="-3.854999">
        <ele>2000.9</ele>
        <time>2018-04-21T07:56:35.000Z</time>
      </trkpt>
      <trkpt lat="40.81451" lon="-3.855011">
        <ele>2001.0</ele>
        <time>2018-04-21T07:56:36.000Z</time>
      </trkpt>
      <trkpt lat="40.814508" lon="-3.855023">
        <ele>2001.1</ele>
        <time>2018-04-21T07:56:37.000Z</time>
      </trkpt>
      <trkpt lat="40.814506" lon="-3.855035">
        <ele>2001.3</ele>
        <time>2018-04-21T07:56:38.000Z</time>
      </trkpt>
      <trkpt lat="40.814504" lon="-3.855047">
        <ele>2001.4</ele>
        <time>2018-04-21T07:56:39.000Z</time>
      </trkpt>
      <trkpt lat="40.814501" lon="-3.85506">
        <ele>2001.5</ele>
        <time>2018-04-21T07:56:40.000Z</time>
      </trkpt>
      <trkpt lat="40.814499" lon="-3.855072">
        <ele>2001.6</ele>
        <time>2018-04-21T07:56:41.000Z</time>
      </trkpt>
      <trkpt lat="40.814497" lon="-3.855084">
        <ele>2001.8</ele>
        <time>2018-04-21T07:56:42.000Z</time>
      </trkpt>
      <trkpt lat="40.814494" lon="-3.855096">
        <ele>2001.9</ele>
        <time>2018-04-21T07:56:43.000Z</time>
      </trkpt>
      <trkpt lat="40.814492" lon="-3.855108">
        <ele>2002.0</ele>
        <time>2018-04-21T07:56:44.000Z</time>
      </trkpt>
      <trkpt lat="40.81449" lon="-3.85512">
        <ele>2002.1</ele>
        <time>2018-04-21T07:56:45.000Z</time>
      </trkpt>
      <trkpt lat="40.814489" lon="-3.855131">
        <ele>2002.2</ele>
        <time>2018-04-21T07:56:46.000Z</time>
      </trkpt>
      <trkpt lat="40.814487" lon="-3.855143">
        <ele>2002.4</ele>
        <time>2018-04-21T07:56:47.000Z</time>
      </trkpt>
      <trkpt lat="40.814487" lon="-3.855155">
        <ele>2002.5</ele>
        <time>2018-04-21T07:56:48.000Z</time>
      </trkpt>
      <trkpt lat="40.814486" lon="-3.855166">
        <ele>2002.6</ele>
        <time>2018-04-21T07:56:49.000Z</time>
      </trkpt>
      <trkpt lat="40.814485" lon="-3.855176">
        <ele>2002.7</ele>
        <time>2018-04-21T07:56:50.000Z</time>
      </trkpt>
      <trkpt lat="40.814485" lon="-3.855186">
        <ele>2002.9</ele>
        <time>2018-04-21T07:56:51.000Z</time>
      </trkpt>
      <trkpt lat="40.814485" lon="-3.855194">
        <ele>2002.9</ele>
        <time>2018-04-21T07:56:52.000Z</time>
      </trkpt>
      <trkpt lat="40.814485" lon="-3.855202">
        <ele>2003.0</ele>
        <time>2018-04-21T07:56:53.000Z</time>
      </trkpt>
      <trkpt lat="40.814485" lon="-3.855208">
        <ele>2003.1</ele>
        <time>2018-04-21T07:56:54.000Z</time>
      </trkpt>
      <trkpt lat="40.814485" lon="-3.855213">
        <ele>2003.2</ele>
        <time>2018-04-21T07:56:55.000Z</time>
      </trkpt>
      <trkpt lat="40.814485" lon="-3.855217">
        <ele>2003.2</ele>
        <time>2018-04-21T07:56:56.000Z</time>
      </trkpt>
      <trkpt lat="40.814485" lon="-3.855221">
        <ele>2003.3</ele>
        <time>2018-04-21T07:56:57.000Z</time>
      </trkpt>
      <trkpt lat="40.814485" lon="-3.855227">
        <ele>2003.3</ele>
        <time>2018-04-21T07:56:58.000Z</time>
      </trkpt>
      <trkpt lat="40.814485" lon="-3.855236">
        <ele>2003.4</ele>
        <time>2018-04-21T07:56:59.000Z</time>
      </trkpt>
      <trkpt lat="40.814486" lon="-3.855248">
        <ele>2003.6</ele>
        <time>2018-04-21T07:57:00.000Z</time>
      </trkpt>
      <trkpt lat="40.814488" lon="-3.85526">
        <ele>2003.7</ele>
        <time>2018-04-21T07:57:01.000Z</time>
      </trkpt>
      <trkpt lat="40.814491" lon="-3.85527">
        <ele>2003.9</ele>
        <time>2018-04-21T07:57:02.000Z</time>
      </trkpt>
      <trkpt lat="40.814493" lon="-3.855279">
        <ele>2004.0</ele>
        <time>2018-04-21T07:57:03.000Z</time>
      </trkpt>
      <trkpt lat="40.814494" lon="-3.855287">
        <ele>2004.1</ele>
        <time>2018-04-21T07:57:04.000Z</time>
      </trkpt>
      <trkpt lat="40.814494" lon="-3.855294">
        <ele>2004.2</ele>
        <time>2018-04-21T07:57:05.000Z</time>
      </trkpt>
      <trkpt lat="40.814494" lon="-3.855302">
        <ele>2004.3</ele>
        <time>2018-04-21T07:57:06.000Z</time>
      </trkpt>
      <trkpt lat="40.814494" lon="-3.855312">
        <ele>2004.4</ele>
        <time>2018-04-21T07:57:07.000Z</time>
      </trkpt>
      <trkpt lat="40.814494" lon="-3.855324">
        <ele>2004.6</ele>
        <time>2018-04-21T07:57:08.000Z</time>
      </trkpt>
      <trkpt lat="40.814494" lon="-3.855336">
        <ele>2004.7</ele>
        <time>2018-04-21T07:57:09.000Z</time>
      </trkpt>
      <trkpt lat="40.814493" lon="-3.85535">
        <ele>2004.9</ele>
        <time>2018-04-21T07:57:10.000Z</time>
      </trkpt>
      <trkpt lat="40.814493" lon="-3.855365">
        <ele>2005.0</ele>
        <time>2018-04-21T07:57:11.000Z</time>
      </trkpt>
      <trkpt lat="40.814493" lon="-3.85538">
        <ele>2005.2</ele>
        <time>2018-04-21T07:57:12.000Z</time>
      </trkpt>
      <trkpt lat="40.814493" lon="-3.855395">
        <ele>2005.4</ele>
        <time>2018-04-21T07:57:13.000Z</time>
      </trkpt>
      <trkpt lat="40.814493" lon="-3.855411">
        <ele>2005.6</ele>
        <time>2018-04-21T07:57:14.000Z</time>
      </trkpt>
      <trkpt lat="40.814492" lon="-3.855427">
        <ele>2005.7</ele>
        <time>2018-04-21T07:57:15.000Z</time>
      </trkpt>
      <trkpt lat="40.814491" lon="-3.855442">
        <ele>2005.9</ele>
        <time>2018-04-21T07:57:16.000Z</time>
      </trkpt>
      <trkpt lat="40.814491" lon="-3.855458">
        <ele>2006.1</ele>
        <time>2018-04-21T07:57:17.000Z</time>
      </trkpt>
      <trkpt lat="40.814489" lon="-3.855474">
        <ele>2006.3</ele>
        <time>2018-04-21T07:57:18.000Z</time>
      </trkpt>
      <trkpt lat="40.814488" lon="-3.855489">
        <ele>2006.4</ele>
        <time>2018-04-21T07:57:19.000Z</time>
      </trkpt>
      <trkpt lat="40.814487" lon="-3.855504">
        <ele>2006.6</ele>
        <time>2018-04-21T07:57:20.000Z</time>
      </trkpt>
      <trkpt lat="40.814485" lon="-3.85552">
        <ele>2006.8</ele>
        <time>2018-04-21T07:57:21.000Z</time>
      </trkpt>
      <trkpt lat="40.814483" lon="-3.855535">
        <ele>2006.9</ele>
        <time>2018-04-21T07:57:22.000Z</time>
      </trkpt>
      <trkpt lat="40.814481" lon="-3.85555">
        <ele>2007.1</ele>
        <time>2018-04-21T07:57:23.000Z</time>
      </trkpt>
      <trkpt lat="40.814479" lon="-3.855565">
        <ele>2007.2</ele>
        <time>2018-04-21T07:57:24.000Z</time>
      </trkpt>
      <trkpt lat="40.814477" lon="-3.85558">
        <ele>2007.4</ele>
        <time>2018-04-21T07:57:25.000Z</time>
      </trkpt>
      <trkpt lat="40.814475" lon="-3.855595">
        <ele>2007.5</ele>
        <time>2018-04-21T07:57:26.000Z</time>
      </trkpt>
      <trkpt lat="40.814473" lon="-3.855609">
        <ele>2007.7</ele>
        <time>2018-04-21T07:57:27.000Z</time>
      </trkpt>
      <trkpt lat="40.814471" lon="-3.855624">
        <ele>2007.8</ele>
        <time>2018-04-21T07:57:28.000Z</time>
      </trkpt>
      <trkpt lat="40.814469" lon="-3.855639">
        <ele>2008.0</ele>
        <time>2018-04-21T07:57:29.000Z</time>
      </trkpt>
      <trkpt lat="40.814468" lon="-3.855653">
        <ele>2008.2</ele>
        <time>2018-04-21T07:57:30.000Z</time>
      </trkpt>
      <trkpt lat="40.814467" lon="-3.855668">
        <ele>2008.3</ele>
        <time>2018-04-21T07:57:31.000Z</time>
      </trkpt>
      <trkpt lat="40.814467" lon="-3.855683">
        <ele>2008.5</ele>
        <time>2018-04-21T07:57:32.000Z</time>
      </trkpt>
      <trkpt lat="40.814467" lon="-3.855698">
        <ele>2008.7</ele>
        <time>2018-04-21T07:57:33.000Z</time>
      </trkpt>
      <trkpt lat="40.814468" lon="-3.855713">
        <ele>2008.9</ele>
        <time>2018-04-21T07:57:34.000Z</time>
      </trkpt>
      <trkpt lat="40.814469" lon="-3.855727">
        <ele>2009.0</ele>
        <time>2018-04-21T07:57:35.000Z</time>
      </trkpt>
      <trkpt lat="40.814471" lon="-3.855742">
        <ele>2009.2</ele>
        <time>2018-04-21T07:57:36.000Z</time>
      </trkpt>
      <trkpt lat="40.814473" lon="-3.855756">
        <ele>2009.4</ele>
        <time>2018-04-21T07:57:37.000Z</time>
      </trkpt>
      <trkpt lat="40.814475" lon="-3.85577">
        <ele>2009.6</ele>
        <time>2018-04-21T07:57:38.000Z</time>
      </trkpt>
      <trkpt lat="40.814477" lon="-3.855782">
        <ele>2009.8</ele>
        <time>2018-04-21T07:57:39.000Z</time>
      </trkpt>
      <trkpt lat="40.814478" lon="-3.855795">
        <ele>2009.9</ele>
        <time>2018-04-21T07:57:40.000Z</time>
      </trkpt>
      <trkpt lat="40.81448" lon="-3.855806">
        <ele>2010.1</ele>
        <time>2018-04-21T07:57:41.000Z</time>
      </trkpt>
      <trkpt lat="40.81448" lon="-3.855816">
        <ele>2010.2</ele>
        <time>2018-04-21T07:57:42.000Z</time>
      </trkpt>
      <trkpt lat="40.814481" lon="-3.855826">
        <ele>2010.3</ele>
        <time>2018-04-21T07:57:43.000Z</time>
      </trkpt>
      <trkpt lat="40.814482" lon="-3.855835">
        <ele>2010.4</ele>
        <time>2018-04-21T07:57:44.000Z</time>
      </trkpt>
      <trkpt lat="40.814482" lon="-3.855845">
        <ele>2010.6</ele>
        <time>2018-04-21T07:57:45.000Z</time>
      </trkpt>
      <trkpt lat="40.814484" lon="-3.855856">
        <ele>2010.7</ele>
        <time>2018-04-21T07:57:46.000Z</time>
      </trkpt>
      <trkpt lat="40.814485" lon="-3.855867">
        <ele>2010.9</ele>
        <time>2018-04-21T07:57:47.000Z</time>
      </trkpt>
      <trkpt lat="40.814488" lon="-3.855879">
        <ele>2011.0</ele>
        <time>2018-04-21T07:57:48.000Z</time>
      </trkpt>
      <trkpt lat="40.81449" lon="-3.855891">
        <ele>2011.2</ele>
        <time>2018-04-21T07:57:49.000Z</time>
      </trkpt>
      <trkpt lat="40.814492" lon="-3.855904">
        <ele>2011.4</ele>
        <time>2018-04-21T07:57:50.000Z</time>
      </trkpt>
      <trkpt lat="40.814494" lon="-3.855916">
        <ele>2011.6</ele>
        <time>2018-04-21T07:57:51.000Z</time>
      </trkpt>
      <trkpt lat="40.814496" lon="-3.855927">
        <ele>2011.7</ele>
        <time>2018-04-21T07:57:52.000Z</time>
      </trkpt>
      <trkpt lat="40.814497" lon="-3.855939">
        <ele>2011.9</ele>
        <time>2018-04-21T07:57:53.000Z</time>
      </trkpt>
      <trkpt lat="40.814498" lon="-3.85595">
        <ele>2012.1</ele>
        <time>2018-04-21T07:57:54.000Z</time>
      </trkpt>
      <trkpt lat="40.814499" lon="-3.855962">
        <ele>2012.2</ele>
        <time>2018-04-21T07:57:55.000Z</time>
      </trkpt>
      <trkpt lat="40.8145" lon="-3.855973">
        <ele>2012.4</ele>
        <time>2018-04-21T07:57:56.000Z</time>
      </trkpt>
      <trkpt lat="40.8145" lon="-3.855984">
        <ele>2012.5</ele>
        <time>2018-04-21T07:57:57.000Z</time>
      </trkpt>
      <trkpt lat="40.814499" lon="-3.855995">
        <ele>2012.6</ele>
        <time>2018-04-21T07:57:58.000Z</time>
      </trkpt>
      <trkpt lat="40.814499" lon="-3.856006">
        <ele>2012.8</ele>
        <time>2018-04-21T07:57:59.000Z</time>
      </trkpt>
      <trkpt lat="40.814498" lon="-3.856018">
        <ele>2012.9</ele>
        <time>2018-04-21T07:58:00.000Z</time>
      </trkpt>
      <trkpt lat="40.814496" lon="-3.85603">
        <ele>2013.1</ele>
        <time>2018-04-21T07:58:01.000Z</time>
      </trkpt>
      <trkpt lat="40.814495" lon="-3.856041">
        <ele>2013.2</ele>
        <time>2018-04-21T07:58:02.000Z</time>
      </trkpt>
      <trkpt lat="40.814493" lon="-3.856053">
        <ele>2013.3</ele>
        <time>2018-04-21T07:58:03.000Z</time>
      </trkpt>
      <trkpt lat="40.814492" lon="-3.856065">
        <ele>2013.4</ele>
        <time>2018-04-21T07:58:04.000Z</time>
      </trkpt>
      <trkpt lat="40.81449" lon="-3.856077">
        <ele>2013.6</ele>
        <time>2018-04-21T07:58:05.000Z</time>
      </trkpt>
      <trkpt lat="40.814488" lon="-3.856089">
        <ele>2013.7</ele>
        <time>2018-04-21T07:58:06.000Z</time>
      </trkpt>
      <trkpt lat="40.814487" lon="-3.856101">
        <ele>2013.8</ele>
        <time>2018-04-21T07:58:07.000Z</time>
      </trkpt>
      <trkpt lat="40.814486" lon="-3.856113">
        <ele>2014.0</ele>
        <time>2018-04-21T07:58:08.000Z</time>
      </trkpt>
      <trkpt lat="40.814485" lon="-3.856125">
        <ele>2014.1</ele>
        <time>2018-04-21T07:58:09.000Z</time>
      </trkpt>
      <trkpt lat="40.814485" lon="-3.856137">
        <ele>2014.3</ele>
        <time>2018-04-21T07:58:10.000Z</time>
      </trkpt>
      <trkpt lat="40.814485" lon="-3.856148">
        <ele>2014.4</ele>
        <time>2018-04-21T07:58:11.000Z</time>
      </trkpt>
      <trkpt lat="40.814485" lon="-3.85616">
        <ele>2014.6</ele>
        <time>2018-04-21T07:58:12.000Z</time>
      </trkpt>
      <trkpt lat="40.814486" lon="-3.856172">
        <ele>2014.7</ele>
        <time>2018-04-21T07:58:13.000Z</time>
      </trkpt>
      <trkpt lat="40.814487" lon="-3.856184">
        <ele>2014.9</ele>
        <time>2018-04-21T07:58:14.000Z</time>
      </trkpt>
      <trkpt lat="40.814488" lon="-3.856195">
        <ele>2015.0</ele>
        <time>2018-04-21T07:58:15.000Z</time>
      </trkpt>
      <trkpt lat="40.814489" lon="-3.856207">
        <ele>2015.2</ele>
        <time>2018-04-21T07:58:16.000Z</time>
      </trkpt>
      <trkpt lat="40.81449" lon="-3.856219">
        <ele>2015.4</ele>
        <time>2018-04-21T07:58:17.000Z</time>
      </trkpt>
      <trkpt lat="40.814491" lon="-3.856231">
        <ele>2015.5</ele>
        <time>2018-04-21T07:58:18.000Z</time>
      </trkpt>
      <trkpt lat="40.814492" lon="-3.856242">
        <ele>2015.7</ele>
        <time>2018-04-21T07:58:19.000Z</time>
      </trkpt>
      <trkpt lat="40.814493" lon="-3.856254">
        <ele>2015.9</ele>
        <time>2018-04-21T07:58:20.000Z</time>
      </trkpt>
      <trkpt lat="40.814495" lon="-3.856266">
        <ele>2016.0</ele>
        <time>2018-04-21T07:58:21.000Z</time>
      </trkpt>
      <trkpt lat="40.814496" lon="-3.856277">
        <ele>2016.2</ele>
        <time>2018-04-21T07:58:22.000Z</time>
      </trkpt>
      <trkpt lat="40.814497" lon="-3.856289">
        <ele>2016.4</ele>
        <time>2018-04-21T07:58:23.000Z</time>
      </trkpt>
      <trkpt lat="40.814497" lon="-3.856301">
        <ele>2016.5</ele>
        <time>2018-04-21T07:58:24.000Z</time>
      </trkpt>
      <trkpt lat="40.814498" lon="-3.856312">
        <ele>2016.7</ele>
        <time>2018-04-21T07:58:25.000Z</time>
      </trkpt>
      <trkpt lat="40.814498" lon="-3.856324">
        <ele>2016.8</ele>
        <time>2018-04-21T07:58:26.000Z</time>
      </trkpt>
      <trkpt lat="40.814499" lon="-3.856336">
        <ele>2017.0</ele>
        <time>2018-04-21T07:58:27.000Z</time>
      </trkpt>
      <trkpt lat="40.814498" lon="-3.856348">
        <ele>2017.1</ele>
        <time>2018-04-21T07:58:28.000Z</time>
      </trkpt>
      <trkpt lat="40.814498" lon="-3.85636">
        <ele>2017.3</ele>
        <time>2018-04-21T07:58:29.000Z</time>
      </trkpt>
      <trkpt lat="40.814498" lon="-3.856371">
        <ele>2017.4</ele>
        <time>2018-04-21T07:58:30.000Z</time>
      </trkpt>
      <trkpt lat="40.814497" lon="-3.856383">
        <ele>2017.5</ele>
        <time>2018-04-21T07:58:31.000Z</time>
      </trkpt>
      <trkpt lat="40.814496" lon="-3.856395">
        <ele>2017.7</ele>
        <time>2018-04-21T07:58:32.000Z</time>
      </trkpt>
      <trkpt lat="40.814496" lon="-3.856407">
        <ele>2017.8</ele>
        <time>2018-04-21T07:58:33.000Z</time>
      </trkpt>
      <trkpt lat="40.814495" lon="-3.856418">
        <ele>2018.0</ele>
        <time>2018-04-21T07:58:34.000Z</time>
      </trkpt>
      <trkpt lat="40.814494" lon="-3.85643">
        <ele>2018.1</ele>
        <time>2018-04-21T07:58:35.000Z</time>
      </trkpt>
      <trkpt lat="40.814493" lon="-3.856441">
        <ele>2018.2</ele>
        <time>2018-04-21T07:58:36.000Z</time>
      </trkpt>
      <trkpt lat="40.814492" lon="-3.856452">
        <ele>2018.4</ele>
        <time>2018-04-21T07:58:37.000Z</time>
      </trkpt>
      <trkpt lat="40.814492" lon="-3.856464">
        <ele>2018.5</ele>
        <time>2018-04-21T07:58:38.000Z</time>
      </trkpt>
      <trkpt lat="40.814491" lon="-3.856475">
        <ele>2018.6</ele>
        <time>2018-04-21T07:58:39.000Z</time>
      </trkpt>
      <trkpt lat="40.814492" lon="-3.856486">
        <ele>2018.8</ele>
        <time>2018-04-21T07:58:40.000Z</time>
      </trkpt>
      <trkpt lat="40.814492" lon="-3.856498">
        <ele>2018.9</ele>
        <time>2018-04-21T07:58:41.000Z</time>
      </trkpt>
      <trkpt lat="40.814494" lon="-3.856509">
        <ele>2019.1</ele>
        <time>2018-04-21T07:58:42.000Z</time>
      </trkpt>
      <trkpt lat="40.814496" lon="-3.856521">
        <ele>2019.3</ele>
        <time>2018-04-21T07:58:43.000Z</time>
      </trkpt>
      <trkpt lat="40.814499" lon="-3.856533">
        <ele>2019.5</ele>
        <time>2018-04-21T07:58:44.000Z</time>
      </trkpt>
      <trkpt lat="40.814502" lon="-3.856545">
        <ele>2019.7</ele>
        <time>2018-04-21T07:58:45.000Z</time>
      </trkpt>
      <trkpt lat="40.814507" lon="-3.856557">
        <ele>2019.9</ele>
        <time>2018-04-21T07:58:46.000Z</time>
      </trkpt>
      <trkpt lat="40.814512" lon="-3.856569">
        <ele>2020.1</ele>
        <time>2018-04-21T07:58:47.000Z</time>
      </trkpt>
      <trkpt lat="40.814518" lon="-3.856581">
        <ele>2020.4</ele>
        <time>2018-04-21T07:58:48.000Z</time>
      </trkpt>
      <trkpt lat="40.814523" lon="-3.856594">
        <ele>2020.6</ele>
        <time>2018-04-21T07:58:49.000Z</time>
      </trkpt>
      <trkpt lat="40.814529" lon="-3.856606">
        <ele>2020.9</ele>
        <time>2018-04-21T07:58:50.000Z</time>
      </trkpt>
      <trkpt lat="40.814534" lon="-3.856619">
        <ele>2021.1</ele>
        <time>2018-04-21T07:58:51.000Z</time>
      </trkpt>
      <trkpt lat="40.814539" lon="-3.856632">
        <ele>2021.4</ele>
        <time>2018-04-21T07:58:52.000Z</time>
      </trkpt>
      <trkpt lat="40.814543" lon="-3.856644">
        <ele>2021.6</ele>
        <time>2018-04-21T07:58:53.000Z</time>
      </trkpt>
      <trkpt lat="40.814547" lon="-3.856657">
        <ele>2021.8</ele>
        <time>2018-04-21T07:58:54.000Z</time>
      </trkpt>
      <trkpt lat="40.81455" lon="-3.856669">
        <ele>2022.0</ele>
        <time>2018-04-21T07:58:55.000Z</time>
      </trkpt>
      <trkpt lat="40.814553" lon="-3.856681">
        <ele>2022.2</ele>
        <time>2018-04-21T07:58:56.000Z</time>
      </trkpt>
      <trkpt lat="40.814556" lon="-3.856693">
        <ele>2022.4</ele>
        <time>2018-04-21T07:58:57.000Z</time>
      </trkpt>
      <trkpt lat="40.814558" lon="-3.856706">
        <ele>2022.6</ele>
        <time>2018-04-21T07:58:58.000Z</time>
      </trkpt>
      <trkpt lat="40.814561" lon="-3.856718">
        <ele>2022.9</ele>
        <time>2018-04-21T07:58:59.000Z</time>
      </trkpt>
      <trkpt lat="40.814565" lon="-3.85673">
        <ele>2023.1</ele>
        <time>2018-04-21T07:59:00.000Z</time>
      </trkpt>
      <trkpt lat="40.814569" lon="-3.856742">
        <ele>2023.3</ele>
        <time>2018-04-21T07:59:01.000Z</time>
      </trkpt>
      <trkpt lat="40.814574" lon="-3.856753">
        <ele>2023.5</ele>
        <time>2018-04-21T07:59:02.000Z</time>
      </trkpt>
      <trkpt lat="40.814579" lon="-3.856765">
        <ele>2023.8</ele>
        <time>2018-04-21T07:59:03.000Z</time>
      </trkpt>
      <trkpt lat="40.814586" lon="-3.856777">
        <ele>2024.1</ele>
        <time>2018-04-21T07:59:04.000Z</time>
      </trkpt>
      <trkpt lat="40.814592" lon="-3.856788">
        <ele>2024.3</ele>
        <time>2018-04-21T07:59:05.000Z</time>
      </trkpt>
      <trkpt lat="40.814599" lon="-3.856799">
        <ele>2024.6</ele>
        <time>2018-04-21T07:59:06.000Z</time>
      </trkpt>
      <trkpt lat="40.814605" lon="-3.85681">
        <ele>2024.8</ele>
        <time>2018-04-21T07:59:07.000Z</time>
      </trkpt>
      <trkpt lat="40.81461" lon="-3.856819">
        <ele>2025.0</ele>
        <time>2018-04-21T07:59:08.000Z</time>
      </trkpt>
      <trkpt lat="40.814614" lon="-3.856828">
        <ele>2025.2</ele>
        <time>2018-04-21T07:59:09.000Z</time>
      </trkpt>
      <trkpt lat="40.814618" lon="-3.856837">
        <ele>2025.4</ele>
        <time>2018-04-21T07:59:10.000Z</time>
      </trkpt>
      <trkpt lat="40.814621" lon="-3.856847">
        <ele>2025.6</ele>
        <time>2018-04-21T07:59:11.000Z</time>
      </trkpt>
      <trkpt lat="40.814624" lon="-3.856856">
        <ele>2025.8</ele>
        <time>2018-04-21T07:59:12.000Z</time>
      </trkpt>
      <trkpt lat="40.814627" lon="-3.856866">
        <ele>2026.0</ele>
        <time>2018-04-21T07:59:13.000Z</time>
      </trkpt>
      <trkpt lat="40.814629" lon="-3.856876">
        <ele>2026.2</ele>
        <time>2018-04-21T07:59:14.000Z</time>
      </trkpt>
      <trkpt lat="40.814632" lon="-3.856887">
        <ele>2026.4</ele>
        <time>2018-04-21T07:59:15.000Z</time>
      </trkpt>
      <trkpt lat="40.814635" lon="-3.856897">
        <ele>2026.6</ele>
        <time>2018-04-21T07:59:16.000Z</time>
      </trkpt>
      <trkpt lat="40.814638" lon="-3.856908">
        <ele>2026.8</ele>
        <time>2018-04-21T07:59:17.000Z</time>
      </trkpt>
      <trkpt lat="40.814641" lon="-3.856918">
        <ele>2027.0</ele>
        <time>2018-04-21T07:59:18.000Z</time>
      </trkpt>
      <trkpt lat="40.814644" lon="-3.856928">
        <ele>2027.2</ele>
        <time>2018-04-21T07:59:19.000Z</time>
      </trkpt>
      <trkpt lat="40.814648" lon="-3.856938">
        <ele>2027.4</ele>
        <time>2018-04-21T07:59:20.000Z</time>
      </trkpt>
      <trkpt lat="40.814651" lon="-3.856948">
        <ele>2027.6</ele>
        <time>2018-04-21T07:59:21.000Z</time>
      </trkpt>
      <trkpt lat="40.814656" lon="-3.856958">
        <ele>2027.8</ele>
        <time>2018-04-21T07:59:22.000Z</time>
      </trkpt>
      <trkpt lat="40.81466" lon="-3.856967">
        <ele>2028.0</ele>
        <time>2018-04-21T07:59:23.000Z</time>
      </trkpt>
      <trkpt lat="40.814665" lon="-3.856976">
        <ele>2028.2</ele>
        <time>2018-04-21T07:59:24.000Z</time>
      </trkpt>
      <trkpt lat="40.81467" lon="-3.856985">
        <ele>2028.4</ele>
        <time>2018-04-21T07:59:25.000Z</time>
      </trkpt>
      <trkpt lat="40.814675" lon="-3.856993">
        <ele>2028.6</ele>
        <time>2018-04-21T07:59:26.000Z</time>
      </trkpt>
      <trkpt lat="40.814681" lon="-3.857002">
        <ele>2028.9</ele>
        <time>2018-04-21T07:59:27.000Z</time>
      </trkpt>
      <trkpt lat="40.814687" lon="-3.85701">
        <ele>2029.1</ele>
        <time>2018-04-21T07:59:28.000Z</time>
      </trkpt>
      <trkpt lat="40.814692" lon="-3.857018">
        <ele>2029.3</ele>
        <time>2018-04-21T07:59:29.000Z</time>
      </trkpt>
      <trkpt lat="40.814698" lon="-3.857026">
        <ele>2029.5</ele>
        <time>2018-04-21T07:59:30.000Z</time>
      </trkpt>
      <trkpt lat="40.814704" lon="-3.857034">
        <ele>2029.8</ele>
        <time>2018-04-21T07:59:31.000Z</time>
      </trkpt>
      <trkpt lat="40.81471" lon="-3.857042">
        <ele>2030.0</ele>
        <time>2018-04-21T07:59:32.000Z</time>
      </trkpt>
      <trkpt lat="40.814716" lon="-3.85705">
        <ele>2030.2</ele>
        <time>2018-04-21T07:59:33.000Z</time>
      </trkpt>
      <trkpt lat="40.814722" lon="-3.857058">
        <ele>2030.5</ele>
        <time>2018-04-21T07:59:34.000Z</time>
      </trkpt>
      <trkpt lat="40.814728" lon="-3.857066">
        <ele>2030.7</ele>
        <time>2018-04-21T07:59:35.000Z</time>
      </trkpt>
      <trkpt lat="40.814734" lon="-3.857074">
        <ele>2030.9</ele>
        <time>2018-04-21T07:59:36.000Z</time>
      </trkpt>
      <trkpt lat="40.814739" lon="-3.857082">
        <ele>2031.1</ele>
        <time>2018-04-21T07:59:37.000Z</time>
      </trkpt>
      <trkpt lat="40.814745" lon="-3.857091">
        <ele>2031.4</ele>
        <time>2018-04-21T07:59:38.000Z</time>
      </trkpt>
      <trkpt lat="40.81475" lon="-3.857099">
        <ele>2031.6</ele>
        <time>2018-04-21T07:59:39.000Z</time>
      </trkpt>
      <trkpt lat="40.814755" lon="-3.857108">
        <ele>2031.8</ele>
        <time>2018-04-21T07:59:40.000Z</time>
      </trkpt>
      <trkpt lat="40.814759" lon="-3.857116">
        <ele>2032.0</ele>
        <time>2018-04-21T07:59:41.000Z</time>
      </trkpt>
      <trkpt lat="40.814762" lon="-3.857125">
        <ele>2032.2</ele>
        <time>2018-04-21T07:59:42.000Z</time>
      </trkpt>
      <trkpt lat="40.814764" lon="-3.857133">
        <ele>2032.4</ele>
        <time>2018-04-21T07:59:43.000Z</time>
      </trkpt>
      <trkpt lat="40.814764" lon="-3.857142">
        <ele>2032.5</ele>
        <time>2018-04-21T07:59:44.000Z</time>
      </trkpt>
      <trkpt lat="40.814763" lon="-3.85715">
        <ele>2032.6</ele>
        <time>2018-04-21T07:59:45.000Z</time>
      </trkpt>
      <trkpt lat="40.814761" lon="-3.857159">
        <ele>2032.7</ele>
        <time>2018-04-21T07:59:46.000Z</time>
      </trkpt>
      <trkpt lat="40.814759" lon="-3.857169">
        <ele>2032.8</ele>
        <time>2018-04-21T07:59:47.000Z</time>
      </trkpt>
      <trkpt lat="40.814757" lon="-3.857178">
        <ele>2032.9</ele>
        <time>2018-04-21T07:59:48.000Z</time>
      </trkpt>
      <trkpt lat="40.814755" lon="-3.857189">
        <ele>2033.0</ele>
        <time>2018-04-21T07:59:49.000Z</time>
      </trkpt>
      <trkpt lat="40.814753" lon="-3.857199">
        <ele>2033.1</ele>
        <time>2018-04-21T07:59:50.000Z</time>
      </trkpt>
      <trkpt lat="40.814751" lon="-3.85721">
        <ele>2033.3</ele>
        <time>2018-04-21T07:59:51.000Z</time>
      </trkpt>
      <trkpt lat="40.81475" lon="-3.857221">
        <ele>2033.4</ele>
        <time>2018-04-21T07:59:52.000Z</time>
      </trkpt>
      <trkpt lat="40.814749" lon="-3.857232">
        <ele>2033.6</ele>
        <time>2018-04-21T07:59:53.000Z</time>
      </trkpt>
      <trkpt lat="40.814749" lon="-3.857244">
        <ele>2033.7</ele>
        <time>2018-04-21T07:59:54.000Z</time>
      </trkpt>
      <trkpt lat="40.81475" lon="-3.857255">
        <ele>2033.9</ele>
        <time>2018-04-21T07:59:55.000Z</time>
      </trkpt>
      <trkpt lat="40.814751" lon="-3.857266">
        <ele>2034.1</ele>
        <time>2018-04-21T07:59:56.000Z</time>
      </trkpt>
      <trkpt lat="40.814753" lon="-3.857277">
        <ele>2034.3</ele>
        <time>2018-04-21T07:59:57.000Z</time>
      </trkpt>
      <trkpt lat="40.814755" lon="-3.857288">
        <ele>2034.5</ele>
        <time>2018-04-21T07:59:58.000Z</time>
      </trkpt>
      <trkpt lat="40.814758" lon="-3.857298">
        <ele>2034.7</ele>
        <time>2018-04-21T07:59:59.000Z</time>
      </trkpt>
      <trkpt lat="40.814762" lon="-3.857309">
        <ele>2035.0</ele>
        <time>2018-04-21T08:00:00.000Z</time>
      </trkpt>
      <trkpt lat="40.814766" lon="-3.857319">
        <ele>2035.2</ele>
        <time>2018-04-21T08:00:01.000Z</time>
      </trkpt>
      <trkpt lat="40.81477" lon="-3.857329">
        <ele>2035.4</ele>
        <time>2018-04-21T08:00:02.000Z</time>
      </trkpt>
      <trkpt lat="40.814775" lon="-3.857338">
        <ele>2035.7</ele>
        <time>2018-04-21T08:00:03.000Z</time>
      </trkpt>
      <trkpt lat="40.81478" lon="-3.857348">
        <ele>2035.9</ele>
        <time>2018-04-21T08:00:04.000Z</time>
      </trkpt>
      <trkpt lat="40.814786" lon="-3.857357">
        <ele>2036.2</ele>
        <time>2018-04-21T08:00:05.000Z</time>
      </trkpt>
      <trkpt lat="40.814791" lon="-3.857366">
        <ele>2036.4</ele>
        <time>2018-04-21T08:00:06.000Z</time>
      </trkpt>
      <trkpt lat="40.814797" lon="-3.857375">
        <ele>2036.7</ele>
        <time>2018-04-21T08:00:07.000Z</time>
      </trkpt>
      <trkpt lat="40.814802" lon="-3.857384">
        <ele>2036.9</ele>
        <time>2018-04-21T08:00:08.000Z</time>
      </trkpt>
      <trkpt lat="40.814807" lon="-3.857393">
        <ele>2037.2</ele>
        <time>2018-04-21T08:00:09.000Z</time>
      </trkpt>
      <trkpt lat="40.814813" lon="-3.857401">
        <ele>2037.4</ele>
        <time>2018-04-21T08:00:10.000Z</time>
      </trkpt>
      <trkpt lat="40.814817" lon="-3.85741">
        <ele>2037.7</ele>
        <time>2018-04-21T08:00:11.000Z</time>
      </trkpt>
      <trkpt lat="40.814821" lon="-3.857418">
        <ele>2037.9</ele>
        <time>2018-04-21T08:00:12.000Z</time>
      </trkpt>
      <trkpt lat="40.814825" lon="-3.857426">
        <ele>2038.1</ele>
        <time>2018-04-21T08:00:13.000Z</time>
      </trkpt>
      <trkpt lat="40.814828" lon="-3.857435">
        <ele>2038.3</ele>
        <time>2018-04-21T08:00:14.000Z</time>
      </trkpt>
      <trkpt lat="40.81483" lon="-3.857443">
        <ele>2038.4</ele>
        <time>2018-04-21T08:00:15.000Z</time>
      </trkpt>
      <trkpt lat="40.814832" lon="-3.857452">
        <ele>2038.6</ele>
        <time>2018-04-21T08:00:16.000Z</time>
      </trkpt>
      <trkpt lat="40.814833" lon="-3.857461">
        <ele>2038.8</ele>
        <time>2018-04-21T08:00:17.000Z</time>
      </trkpt>
      <trkpt lat="40.814833" lon="-3.85747">
        <ele>2038.9</ele>
        <time>2018-04-21T08:00:18.000Z</time>
      </trkpt>
      <trkpt lat="40.814833" lon="-3.857479">
        <ele>2039.1</ele>
        <time>2018-04-21T08:00:19.000Z</time>
      </trkpt>
      <trkpt lat="40.814833" lon="-3.857488">
        <ele>2039.2</ele>
        <time>2018-04-21T08:00:20.000Z</time>
      </trkpt>
      <trkpt lat="40.814832" lon="-3.857498">
        <ele>2039.3</ele>
        <time>2018-04-21T08:00:21.000Z</time>
      </trkpt>
      <trkpt lat="40.814831" lon="-3.857509">
        <ele>2039.4</ele>
        <time>2018-04-21T08:00:22.000Z</time>
      </trkpt>
      <trkpt lat="40.81483" lon="-3.85752">
        <ele>2039.5</ele>
        <time>2018-04-21T08:00:23.000Z</time>
      </trkpt>
      <trkpt lat="40.814829" lon="-3.857531">
        <ele>2039.6</ele>
        <time>2018-04-21T08:00:24.000Z</time>
      </trkpt>
      <trkpt lat="40.814828" lon="-3.857543">
        <ele>2039.7</ele>
        <time>2018-04-21T08:00:25.000Z</time>
      </trkpt>
      <trkpt lat="40.814827" lon="-3.857554">
        <ele>2039.8</ele>
        <time>2018-04-21T08:00:26.000Z</time>
      </trkpt>
      <trkpt lat="40.814826" lon="-3.857566">
        <ele>2039.9</ele>
        <time>2018-04-21T08:00:27.000Z</time>
      </trkpt>
      <trkpt lat="40.814825" lon="-3.857577">
        <ele>2040.0</ele>
        <time>2018-04-21T08:00:28.000Z</time>
      </trkpt>
      <trkpt lat="40.814825" lon="-3.857588">
        <ele>2040.1</ele>
        <time>2018-04-21T08:00:29.000Z</time>
      </trkpt>
      <trkpt lat="40.814825" lon="-3.857598">
        <ele>2040.2</ele>
        <time>2018-04-21T08:00:30.000Z</time>
      </trkpt>
      <trkpt lat="40.814825" lon="-3.857607">
        <ele>2040.3</ele>
        <time>2018-04-21T08:00:31.000Z</time>
      </trkpt>
      <trkpt lat="40.814826" lon="-3.857615">
        <ele>2040.4</ele>
        <time>2018-04-21T08:00:32.000Z</time>
      </trkpt>
      <trkpt lat="40.814828" lon="-3.857622">
        <ele>2040.5</ele>
        <time>2018-04-21T08:00:33.000Z</time>
      </trkpt>
      <trkpt lat="40.814829" lon="-3.857628">
        <ele>2040.6</ele>
        <time>2018-04-21T08:00:34.000Z</time>
      </trkpt>
      <trkpt lat="40.81483" lon="-3.857633">
        <ele>2040.7</ele>
        <time>2018-04-21T08:00:35.000Z</time>
      </trkpt>
      <trkpt lat="40.814831" lon="-3.85764">
        <ele>2040.8</ele>
        <time>2018-04-21T08:00:36.000Z</time>
      </trkpt>
      <trkpt lat="40.814831" lon="-3.857647">
        <ele>2040.9</ele>
        <time>2018-04-21T08:00:37.000Z</time>
      </trkpt>
      <trkpt lat="40.81483" lon="-3.857656">
        <ele>2040.9</ele>
        <time>2018-04-21T08:00:38.000Z</time>
      </trkpt>
      <trkpt lat="40.814828" lon="-3.857666">
        <ele>2041.0</ele>
        <time>2018-04-21T08:00:39.000Z</time>
      </trkpt>
      <trkpt lat="40.814826" lon="-3.857676">
        <ele>2041.0</ele>
        <time>2018-04-21T08:00:40.000Z</time>
      </trkpt>
      <trkpt lat="40.814824" lon="-3.857687">
        <ele>2041.1</ele>
        <time>2018-04-21T08:00:41.000Z</time>
      </trkpt>
      <trkpt lat="40.814822" lon="-3.857697">
        <ele>2041.2</ele>
        <time>2018-04-21T08:00:42.000Z</time>
      </trkpt>
      <trkpt lat="40.814821" lon="-3.857706">
        <ele>2041.2</ele>
        <time>2018-04-21T08:00:43.000Z</time>
      </trkpt>
      <trkpt lat="40.814821" lon="-3.857715">
        <ele>2041.3</ele>
        <time>2018-04-21T08:00:44.000Z</time>
      </trkpt>
      <trkpt lat="40.814821" lon="-3.857724">
        <ele>2041.4</ele>
        <time>2018-04-21T08:00:45.000Z</time>
      </trkpt>
      <trkpt lat="40.814821" lon="-3.857732">
        <ele>2041.5</ele>
        <time>2018-04-21T08:00:46.000Z</time>
      </trkpt>
      <trkpt lat="40.814822" lon="-3.85774">
        <ele>2041.6</ele>
        <time>2018-04-21T08:00:47.000Z</time>
      </trkpt>
      <trkpt lat="40.814823" lon="-3.857748">
        <ele>2041.7</ele>
        <time>2018-04-21T08:00:48.000Z</time>
      </trkpt>
      <trkpt lat="40.814824" lon="-3.857756">
        <ele>2041.8</ele>
        <time>2018-04-21T08:00:49.000Z</time>
      </trkpt>
      <trkpt lat="40.814826" lon="-3.857765">
        <ele>2042.0</ele>
        <time>2018-04-21T08:00:50.000Z</time>
      </trkpt>
      <trkpt lat="40.814827" lon="-3.857773">
        <ele>2042.1</ele>
        <time>2018-04-21T08:00:51.000Z</time>
      </trkpt>
      <trkpt lat="40.814828" lon="-3.857781">
        <ele>2042.2</ele>
        <time>2018-04-21T08:00:52.000Z</time>
      </trkpt>
      <trkpt lat="40.81483" lon="-3.85779">
        <ele>2042.3</ele>
        <time>2018-04-21T08:00:53.000Z</time>
      </trkpt>
      <trkpt lat="40.814831" lon="-3.857798">
        <ele>2042.4</ele>
        <time>2018-04-21T08:00:54.000Z</time>
      </trkpt>
      <trkpt lat="40.814832" lon="-3.857807">
        <ele>2042.5</ele>
        <time>2018-04-21T08:00:55.000Z</time>
      </trkpt>
      <trkpt lat="40.814833" lon="-3.857816">
        <ele>2042.7</ele>
        <time>2018-04-21T08:00:56.000Z</time>
      </trkpt>
      <trkpt lat="40.814833" lon="-3.857824">
        <ele>2042.7</ele>
        <time>2018-04-21T08:00:57.000Z</time>
      </trkpt>
      <trkpt lat="40.814833" lon="-3.857833">
        <ele>2042.8</ele>
        <time>2018-04-21T08:00:58.000Z</time>
      </trkpt>
      <trkpt lat="40.814833" lon="-3.857841">
        <ele>2042.9</ele>
        <time>2018-04-21T08:00:59.000Z</time>
      </trkpt>
      <trkpt lat="40.814832" lon="-3.857849">
        <ele>2043.0</ele>
        <time>2018-04-21T08:01:00.000Z</time>
      </trkpt>
      <trkpt lat="40.814831" lon="-3.857857">
        <ele>2043.0</ele>
        <time>2018-04-21T08:01:01.000Z</time>
      </trkpt>
      <trkpt lat="40.81483" lon="-3.857866">
        <ele>2043.1</ele>
        <time>2018-04-21T08:01:02.000Z</time>
      </trkpt>
      <trkpt lat="40.814828" lon="-3.857874">
        <ele>2043.1</ele>
        <time>2018-04-21T08:01:03.000Z</time>
      </trkpt>
      <trkpt lat="40.814827" lon="-3.857882">
        <ele>2043.2</ele>
        <time>2018-04-21T08:01:04.000Z</time>
      </trkpt>
      <trkpt lat="40.814825" lon="-3.85789">
        <ele>2043.2</ele>
        <time>2018-04-21T08:01:05.000Z</time>
      </trkpt>
      <trkpt lat="40.814824" lon="-3.857898">
        <ele>2043.3</ele>
        <time>2018-04-21T08:01:06.000Z</time>
      </trkpt>
      <trkpt lat="40.814823" lon="-3.857906">
        <ele>2043.3</ele>
        <time>2018-04-21T08:01:07.000Z</time>
      </trkpt>
      <trkpt lat="40.814822" lon="-3.857914">
        <ele>2043.4</ele>
        <time>2018-04-21T08:01:08.000Z</time>
      </trkpt>
      <trkpt lat="40.814822" lon="-3.857923">
        <ele>2043.5</ele>
        <time>2018-04-21T08:01:09.000Z</time>
      </trkpt>
      <trkpt lat="40.814822" lon="-3.857931">
        <ele>2043.6</ele>
        <time>2018-04-21T08:01:10.000Z</time>
      </trkpt>
      <trkpt lat="40.814822" lon="-3.85794">
        <ele>2043.6</ele>
        <time>2018-04-21T08:01:11.000Z</time>
      </trkpt>
      <trkpt lat="40.814823" lon="-3.857949">
        <ele>2043.8</ele>
        <time>2018-04-21T08:01:12.000Z</time>
      </trkpt>
      <trkpt lat="40.814825" lon="-3.857957">
        <ele>2043.9</ele>
        <time>2018-04-21T08:01:13.000Z</time>
      </trkpt>
      <trkpt lat="40.814827" lon="-3.857966">
        <ele>2044.0</ele>
        <time>2018-04-21T08:01:14.000Z</time>
      </trkpt>
      <trkpt lat="40.814829" lon="-3.857975">
        <ele>2044.2</ele>
        <time>2018-04-21T08:01:15.000Z</time>
      </trkpt>
      <trkpt lat="40.814831" lon="-3.857984">
        <ele>2044.3</ele>
        <time>2018-04-21T08:01:16.000Z</time>
      </trkpt>
      <trkpt lat="40.814834" lon="-3.857993">
        <ele>2044.5</ele>
        <time>2018-04-21T08:01:17.000Z</time>
      </trkpt>
      <trkpt lat="40.814837" lon="-3.858002">
        <ele>2044.7</ele>
        <time>2018-04-21T08:01:18.000Z</time>
      </trkpt>
      <trkpt lat="40.814841" lon="-3.85801">
        <ele>2044.9</ele>
        <time>2018-04-21T08:01:19.000Z</time>
      </trkpt>
      <trkpt lat="40.814844" lon="-3.858019">
        <ele>2045.0</ele>
        <time>2018-04-21T08:01:20.000Z</time>
      </trkpt>
      <trkpt lat="40.814848" lon="-3.858027">
        <ele>2045.2</ele>
        <time>2018-04-21T08:01:21.000Z</time>
      </trkpt>
      <trkpt lat="40.814852" lon="-3.858036">
        <ele>2045.4</ele>
        <time>2018-04-21T08:01:22.000Z</time>
      </trkpt>
      <trkpt lat="40.814856" lon="-3.858044">
        <ele>2045.6</ele>
        <time>2018-04-21T08:01:23.000Z</time>
      </trkpt>
      <trkpt lat="40.81486" lon="-3.858052">
        <ele>2045.8</ele>
        <time>2018-04-21T08:01:24.000Z</time>
      </trkpt>
      <trkpt lat="40.814864" lon="-3.858059">
        <ele>2046.0</ele>
        <time>2018-04-21T08:01:25.000Z</time>
      </trkpt>
      <trkpt lat="40.814869" lon="-3.858067">
        <ele>2046.2</ele>
        <time>2018-04-21T08:01:26.000Z</time>
      </trkpt>
      <trkpt lat="40.814873" lon="-3.858074">
        <ele>2046.4</ele>
        <time>2018-04-21T08:01:27.000Z</time>
      </trkpt>
      <trkpt lat="40.814878" lon="-3.858081">
        <ele>2046.6</ele>
        <time>2018-04-21T08:01:28.000Z</time>
      </trkpt>
      <trkpt lat="40.814882" lon="-3.858088">
        <ele>2046.8</ele>
        <time>2018-04-21T08:01:29.000Z</time>
      </trkpt>
      <trkpt lat="40.814887" lon="-3.858095">
        <ele>2047.0</ele>
        <time>2018-04-21T08:01:30.000Z</time>
      </trkpt>
      <trkpt lat="40.814891" lon="-3.858101">
        <ele>2047.2</ele>
        <time>2018-04-21T08:01:31.000Z</time>
      </trkpt>
      <trkpt lat="40.814896" lon="-3.858108">
        <ele>2047.4</ele>
        <time>2018-04-21T08:01:32.000Z</time>
      </trkpt>
      <trkpt lat="40.8149" lon="-3.858114">
        <ele>2047.6</ele>
        <time>2018-04-21T08:01:33.000Z</time>
      </trkpt>
      <trkpt lat="40.814905" lon="-3.85812">
        <ele>2047.8</ele>
        <time>2018-04-21T08:01:34.000Z</time>
      </trkpt>
      <trkpt lat="40.81491" lon="-3.858126">
        <ele>2048.0</ele>
        <time>2018-04-21T08:01:35.000Z</time>
      </trkpt>
      <trkpt lat="40.814914" lon="-3.858132">
        <ele>2048.2</ele>
        <time>2018-04-21T08:01:36.000Z</time>
      </trkpt>
      <trkpt lat="40.814919" lon="-3.858138">
        <ele>2048.4</ele>
        <time>2018-04-21T08:01:37.000Z</time>
      </trkpt>
      <trkpt lat="40.814923" lon="-3.858144">
        <ele>2048.6</ele>
        <time>2018-04-21T08:01:38.000Z</time>
      </trkpt>
      <trkpt lat="40.814928" lon="-3.85815">
        <ele>2048.8</ele>
        <time>2018-04-21T08:01:39.000Z</time>
      </trkpt>
      <trkpt lat="40.814932" lon="-3.858156">
        <ele>2049.0</ele>
        <time>2018-04-21T08:01:40.000Z</time>
      </trkpt>
      <trkpt lat="40.814937" lon="-3.858162">
        <ele>2049.2</ele>
        <time>2018-04-21T08:01:41.000Z</time>
      </trkpt>
      <trkpt lat="40.814941" lon="-3.858168">
        <ele>2049.3</ele>
        <time>2018-04-21T08:01:42.000Z</time>
      </trkpt>
      <trkpt lat="40.814946" lon="-3.858174">
        <ele>2049.6</ele>
        <time>2018-04-21T08:01:43.000Z</time>
      </trkpt>
      <trkpt lat="40.81495" lon="-3.85818">
        <ele>2049.7</ele>
        <time>2018-04-21T08:01:44.000Z</time>
      </trkpt>
      <trkpt lat="40.814954" lon="-3.858186">
        <ele>2049.9</ele>
        <time>2018-04-21T08:01:45.000Z</time>
      </trkpt>
      <trkpt lat="40.814958" lon="-3.858192">
        <ele>2050.1</ele>
        <time>2018-04-21T08:01:46.000Z</time>
      </trkpt>
      <trkpt lat="40.814962" lon="-3.858199">
        <ele>2050.3</ele>
        <time>2018-04-21T08:01:47.000Z</time>
      </trkpt>
      <trkpt lat="40.814966" lon="-3.858205">
        <ele>2050.5</ele>
        <time>2018-04-21T08:01:48.000Z</time>
      </trkpt>
      <trkpt lat="40.81497" lon="-3.858212">
        <ele>2050.7</ele>
        <time>2018-04-21T08:01:49.000Z</time>
      </trkpt>
      <trkpt lat="40.814974" lon="-3.858219">
        <ele>2050.9</ele>
        <time>2018-04-21T08:01:50.000Z</time>
      </trkpt>
      <trkpt lat="40.814977" lon="-3.858226">
        <ele>2051.0</ele>
        <time>2018-04-21T08:01:51.000Z</time>
      </trkpt>
      <trkpt lat="40.814981" lon="-3.858233">
        <ele>2051.2</ele>
        <time>2018-04-21T08:01:52.000Z</time>
      </trkpt>
      <trkpt lat="40.814985" lon="-3.85824">
        <ele>2051.4</ele>
        <time>2018-04-21T08:01:53.000Z</time>
      </trkpt>
      <trkpt lat="40.814988" lon="-3.858247">
        <ele>2051.6</ele>
        <time>2018-04-21T08:01:54.000Z</time>
      </trkpt>
      <trkpt lat="40.814992" lon="-3.858254">
        <ele>2051.8</ele>
        <time>2018-04-21T08:01:55.000Z</time>
      </trkpt>
      <trkpt lat="40.814995" lon="-3.858262">
        <ele>2052.0</ele>
        <time>2018-04-21T08:01:56.000Z</time>
      </trkpt>
      <trkpt lat="40.814998" lon="-3.858269">
        <ele>2052.2</ele>
        <time>2018-04-21T08:01:57.000Z</time>
      </trkpt>
      <trkpt lat="40.815001" lon="-3.858276">
        <ele>2052.3</ele>
        <time>2018-04-21T08:01:58.000Z</time>
      </trkpt>
      <trkpt lat="40.815004" lon="-3.858284">
        <ele>2052.4</ele>
        <time>2018-04-21T08:01:59.000Z</time>
      </trkpt>
      <trkpt lat="40.815007" lon="-3.858292">
        <ele>2052.5</ele>
        <time>2018-04-21T08:02:00.000Z</time>
      </trkpt>
      <trkpt lat="40.81501" lon="-3.858299">
        <ele>2052.6</ele>
        <time>2018-04-21T08:02:01.000Z</time>
      </trkpt>
      <trkpt lat="40.815013" lon="-3.858307">
        <ele>2052.7</ele>
        <time>2018-04-21T08:02:02.000Z</time>
      </trkpt>
      <trkpt lat="40.815016" lon="-3.858315">
        <ele>2052.8</ele>
        <time>2018-04-21T08:02:03.000Z</time>
      </trkpt>
      <trkpt lat="40.815018" lon="-3.858323">
        <ele>2052.9</ele>
        <time>2018-04-21T08:02:04.000Z</time>
      </trkpt>
      <trkpt lat="40.815021" lon="-3.858331">
        <ele>2052.9</ele>
        <time>2018-04-21T08:02:05.000Z</time>
      </trkpt>
      <trkpt lat="40.815023" lon="-3.858339">
        <ele>2053.1</ele>
        <time>2018-04-21T08:02:06.000Z</time>
      </trkpt>
      <trkpt lat="40.815026" lon="-3.858347">
        <ele>2053.2</ele>
        <time>2018-04-21T08:02:07.000Z</time>
      </trkpt>
      <trkpt lat="40.815028" lon="-3.858356">
        <ele>2053.4</ele>
        <time>2018-04-21T08:02:08.000Z</time>
      </trkpt>
      <trkpt lat="40.81503" lon="-3.858364">
        <ele>2053.5</ele>
        <time>2018-04-21T08:02:09.000Z</time>
      </trkpt>
      <trkpt lat="40.815032" lon="-3.858372">
        <ele>2053.7</ele>
        <time>2018-04-21T08:02:10.000Z</time>
      </trkpt>
      <trkpt lat="40.815034" lon="-3.858381">
        <ele>2053.8</ele>
        <time>2018-04-21T08:02:11.000Z</time>
      </trkpt>
      <trkpt lat="40.815036" lon="-3.858389">
        <ele>2054.0</ele>
        <time>2018-04-21T08:02:12.000Z</time>
      </trkpt>
      <trkpt lat="40.815038" lon="-3.858398">
        <ele>2054.1</ele>
        <time>2018-04-21T08:02:13.000Z</time>
      </trkpt>
      <trkpt lat="40.81504" lon="-3.858406">
        <ele>2054.3</ele>
        <time>2018-04-21T08:02:14.000Z</time>
      </trkpt>
      <trkpt lat="40.815042" lon="-3.858415">
        <ele>2054.4</ele>
        <time>2018-04-21T08:02:15.000Z</time>
      </trkpt>
      <trkpt lat="40.815043" lon="-3.858423">
        <ele>2054.6</ele>
        <time>2018-04-21T08:02:16.000Z</time>
      </trkpt>
      <trkpt lat="40.815045" lon="-3.858432">
        <ele>2054.7</ele>
        <time>2018-04-21T08:02:17.000Z</time>
      </trkpt>
      <trkpt lat="40.815047" lon="-3.858441">
        <ele>2054.9</ele>
        <time>2018-04-21T08:02:18.000Z</time>
      </trkpt>
      <trkpt lat="40.815048" lon="-3.858449">
        <ele>2055.0</ele>
        <time>2018-04-21T08:02:19.000Z</time>
      </trkpt>
      <trkpt lat="40.81505" lon="-3.858458">
        <ele>2055.2</ele>
        <time>2018-04-21T08:02:20.000Z</time>
      </trkpt>
      <trkpt lat="40.815052" lon="-3.858466">
        <ele>2055.3</ele>
        <time>2018-04-21T08:02:21.000Z</time>
      </trkpt>
      <trkpt lat="40.815053" lon="-3.858475">
        <ele>2055.5</ele>
        <time>2018-04-21T08:02:22.000Z</time>
      </trkpt>
      <trkpt lat="40.815055" lon="-3.858484">
        <ele>2055.6</ele>
        <time>2018-04-21T08:02:23.000Z</time>
      </trkpt>
      <trkpt lat="40.815056" lon="-3.858492">
        <ele>2055.8</ele>
        <time>2018-04-21T08:02:24.000Z</time>
      </trkpt>
      <trkpt lat="40.815058" lon="-3.858501">
        <ele>2055.9</ele>
        <time>2018-04-21T08:02:25.000Z</time>
      </trkpt>
      <trkpt lat="40.815059" lon="-3.858509">
        <ele>2056.1</ele>
        <time>2018-04-21T08:02:26.000Z</time>
      </trkpt>
      <trkpt lat="40.81506" lon="-3.858518">
        <ele>2056.3</ele>
        <time>2018-04-21T08:02:27.000Z</time>
      </trkpt>
      <trkpt lat="40.815061" lon="-3.858527">
        <ele>2056.4</ele>
        <time>2018-04-21T08:02:28.000Z</time>
      </trkpt>
      <trkpt lat="40.815061" lon="-3.858535">
        <ele>2056.6</ele>
        <time>2018-04-21T08:02:29.000Z</time>
      </trkpt>
      <trkpt lat="40.815062" lon="-3.858544">
        <ele>2056.7</ele>
        <time>2018-04-21T08:02:30.000Z</time>
      </trkpt>
      <trkpt lat="40.815062" lon="-3.858553">
        <ele>2056.9</ele>
        <time>2018-04-21T08:02:31.000Z</time>
      </trkpt>
      <trkpt lat="40.815061" lon="-3.858562">
        <ele>2057.0</ele>
        <time>2018-04-21T08:02:32.000Z</time>
      </trkpt>
      <trkpt lat="40.815061" lon="-3.858571">
        <ele>2057.2</ele>
        <time>2018-04-21T08:02:33.000Z</time>
      </trkpt>
      <trkpt lat="40.81506" lon="-3.85858">
        <ele>2057.4</ele>
        <time>2018-04-21T08:02:34.000Z</time>
      </trkpt>
      <trkpt lat="40.81506" lon="-3.858589">
        <ele>2057.5</ele>
        <time>2018-04-21T08:02:35.000Z</time>
      </trkpt>
      <trkpt lat="40.815059" lon="-3.858598">
        <ele>2057.7</ele>
        <time>2018-04-21T08:02:36.000Z</time>
      </trkpt>
      <trkpt lat="40.815059" lon="-3.858606">
        <ele>2057.8</ele>
        <time>2018-04-21T08:02:37.000Z</time>
      </trkpt>
      <trkpt lat="40.815059" lon="-3.858615">
        <ele>2058.0</ele>
        <time>2018-04-21T08:02:38.000Z</time>
      </trkpt>
      <trkpt lat="40.815059" lon="-3.858623">
        <ele>2058.1</ele>
        <time>2018-04-21T08:02:39.000Z</time>
      </trkpt>
      <trkpt lat="40.81506" lon="-3.858631">
        <ele>2058.3</ele>
        <time>2018-04-21T08:02:40.000Z</time>
      </trkpt>
      <trkpt lat="40.815061" lon="-3.858639">
        <ele>2058.4</ele>
        <time>2018-04-21T08:02:41.000Z</time>
      </trkpt>
      <trkpt lat="40.815062" lon="-3.858647">
        <ele>2058.6</ele>
        <time>2018-04-21T08:02:42.000Z</time>
      </trkpt>
      <trkpt lat="40.815064" lon="-3.858654">
        <ele>2058.7</ele>
        <time>2018-04-21T08:02:43.000Z</time>
      </trkpt>
      <trkpt lat="40.815066" lon="-3.858662">
        <ele>2058.8</ele>
        <time>2018-04-21T08:02:44.000Z</time>
      </trkpt>
      <trkpt lat="40.815067" lon="-3.85867">
        <ele>2059.0</ele>
        <time>2018-04-21T08:02:45.000Z</time>
      </trkpt>
      <trkpt lat="40.815069" lon="-3.858678">
        <ele>2059.1</ele>
        <time>2018-04-21T08:02:46.000Z</time>
      </trkpt>
      <trkpt lat="40.815071" lon="-3.858687">
        <ele>2059.3</ele>
        <time>2018-04-21T08:02:47.000Z</time>
      </trkpt>
      <trkpt lat="40.815072" lon="-3.858695">
        <ele>2059.4</ele>
        <time>2018-04-21T08:02:48.000Z</time>
      </trkpt>
      <trkpt lat="40.815073" lon="-3.858704">
        <ele>2059.6</ele>
        <time>2018-04-21T08:02:49.000Z</time>
      </trkpt>
      <trkpt lat="40.815075" lon="-3.858714">
        <ele>2059.8</ele>
        <time>2018-04-21T08:02:50.000Z</time>
      </trkpt>
      <trkpt lat="40.815076" lon="-3.858723">
        <ele>2059.9</ele>
        <time>2018-04-21T08:02:51.000Z</time>
      </trkpt>
      <trkpt lat="40.815076" lon="-3.858733">
        <ele>2060.1</ele>
        <time>2018-04-21T08:02:52.000Z</time>
      </trkpt>
      <trkpt lat="40.815077" lon="-3.858742">
        <ele>2060.3</ele>
        <time>2018-04-21T08:02:53.000Z</time>
      </trkpt>
      <trkpt lat="40.815078" lon="-3.858752">
        <ele>2060.4</ele>
        <time>2018-04-21T08:02:54.000Z</time>
      </trkpt>
      <trkpt lat="40.815079" lon="-3.858762">
        <ele>2060.6</ele>
        <time>2018-04-21T08:02:55.000Z</time>
      </trkpt>
      <trkpt lat="40.815079" lon="-3.858771">
        <ele>2060.8</ele>
        <time>2018-04-21T08:02:56.000Z</time>
      </trkpt>
      <trkpt lat="40.81508" lon="-3.85878">
        <ele>2060.9</ele>
        <time>2018-04-21T08:02:57.000Z</time>
      </trkpt>
      <trkpt lat="40.815081" lon="-3.858788">
        <ele>2061.1</ele>
        <time>2018-04-21T08:02:58.000Z</time>
      </trkpt>
      <trkpt lat="40.815082" lon="-3.858796">
        <ele>2061.2</ele>
        <time>2018-04-21T08:02:59.000Z</time>
      </trkpt>
      <trkpt lat="40.815082" lon="-3.858804">
        <ele>2061.4</ele>
        <time>2018-04-21T08:03:00.000Z</time>
      </trkpt>
      <trkpt lat="40.815083" lon="-3.858812">
        <ele>2061.5</ele>
        <time>2018-04-21T08:03:01.000Z</time>
      </trkpt>
      <trkpt lat="40.815084" lon="-3.858819">
        <ele>2061.6</ele>
        <time>2018-04-21T08:03:02.000Z</time>
      </trkpt>
      <trkpt lat="40.815085" lon="-3.858827">
        <ele>2061.8</ele>
        <time>2018-04-21T08:03:03.000Z</time>
      </trkpt>
      <trkpt lat="40.815086" lon="-3.858834">
        <ele>2061.9</ele>
        <time>2018-04-21T08:03:04.000Z</time>
      </trkpt>
      <trkpt lat="40.815086" lon="-3.858841">
        <ele>2062.0</ele>
        <time>2018-04-21T08:03:05.000Z</time>
      </trkpt>
      <trkpt lat="40.815087" lon="-3.858849">
        <ele>2062.2</ele>
        <time>2018-04-21T08:03:06.000Z</time>
      </trkpt>
      <trkpt lat="40.815088" lon="-3.858857">
        <ele>2062.3</ele>
        <time>2018-04-21T08:03:07.000Z</time>
      </trkpt>
      <trkpt lat="40.815088" lon="-3.858865">
        <ele>2062.5</ele>
        <time>2018-04-21T08:03:08.000Z</time>
      </trkpt>
      <trkpt lat="40.815089" lon="-3.858873">
        <ele>2062.6</ele>
        <time>2018-04-21T08:03:09.000Z</time>
      </trkpt>
      <trkpt lat="40.815089" lon="-3.858881">
        <ele>2062.8</ele>
        <time>2018-04-21T08:03:10.000Z</time>
      </trkpt>
      <trkpt lat="40.815089" lon="-3.858889">
        <ele>2062.9</ele>
        <time>2018-04-21T08:03:11.000Z</time>
      </trkpt>
      <trkpt lat="40.815089" lon="-3.858898">
        <ele>2063.1</ele>
        <time>2018-04-21T08:03:12.000Z</time>
      </trkpt>
      <trkpt lat="40.815089" lon="-3.858906">
        <ele>2063.2</ele>
        <time>2018-04-21T08:03:13.000Z</time>
      </trkpt>
      <trkpt lat="40.815089" lon="-3.858914">
        <ele>2063.3</ele>
        <time>2018-04-21T08:03:14.000Z</time>
      </trkpt>
      <trkpt lat="40.815088" lon="-3.858922">
        <ele>2063.5</ele>
        <time>2018-04-21T08:03:15.000Z</time>
      </trkpt>
      <trkpt lat="40.815087" lon="-3.85893">
        <ele>2063.6</ele>
        <time>2018-04-21T08:03:16.000Z</time>
      </trkpt>
      <trkpt lat="40.815086" lon="-3.858938">
        <ele>2063.8</ele>
        <time>2018-04-21T08:03:17.000Z</time>
      </trkpt>
      <trkpt lat="40.815085" lon="-3.858946">
        <ele>2063.9</ele>
        <time>2018-04-21T08:03:18.000Z</time>
      </trkpt>
      <trkpt lat="40.815084" lon="-3.858954">
        <ele>2064.1</ele>
        <time>2018-04-21T08:03:19.000Z</time>
      </trkpt>
      <trkpt lat="40.815082" lon="-3.858962">
        <ele>2064.2</ele>
        <time>2018-04-21T08:03:20.000Z</time>
      </trkpt>
      <trkpt lat="40.815081" lon="-3.85897">
        <ele>2064.4</ele>
        <time>2018-04-21T08:03:21.000Z</time>
      </trkpt>
      <trkpt lat="40.815079" lon="-3.858978">
        <ele>2064.5</ele>
        <time>2018-04-21T08:03:22.000Z</time>
      </trkpt>
      <trkpt lat="40.815077" lon="-3.858986">
        <ele>2064.7</ele>
        <time>2018-04-21T08:03:23.000Z</time>
      </trkpt>
      <trkpt lat="40.815076" lon="-3.858994">
        <ele>2064.8</ele>
        <time>2018-04-21T08:03:24.000Z</time>
      </trkpt>
      <trkpt lat="40.815074" lon="-3.859003">
        <ele>2065.0</ele>
        <time>2018-04-21T08:03:25.000Z</time>
      </trkpt>
      <trkpt lat="40.815073" lon="-3.859012">
        <ele>2065.1</ele>
        <time>2018-04-21T08:03:26.000Z</time>
      </trkpt>
      <trkpt lat="40.815071" lon="-3.859021">
        <ele>2065.3</ele>
        <time>2018-04-21T08:03:27.000Z</time>
      </trkpt>
      <trkpt lat="40.81507" lon="-3.85903">
        <ele>2065.5</ele>
        <time>2018-04-21T08:03:28.000Z</time>
      </trkpt>
      <trkpt lat="40.815069" lon="-3.859039">
        <ele>2065.6</ele>
        <time>2018-04-21T08:03:29.000Z</time>
      </trkpt>
      <trkpt lat="40.815067" lon="-3.859048">
        <ele>2065.8</ele>
        <time>2018-04-21T08:03:30.000Z</time>
      </trkpt>
      <trkpt lat="40.815066" lon="-3.859057">
        <ele>2065.9</ele>
        <time>2018-04-21T08:03:31.000Z</time>
      </trkpt>
      <trkpt lat="40.815066" lon="-3.859067">
        <ele>2066.1</ele>
        <time>2018-04-21T08:03:32.000Z</time>
      </trkpt>
      <trkpt lat="40.815065" lon="-3.859076">
        <ele>2066.3</ele>
        <time>2018-04-21T08:03:33.000Z</time>
      </trkpt>
      <trkpt lat="40.815064" lon="-3.859085">
        <ele>2066.5</ele>
        <time>2018-04-21T08:03:34.000Z</time>
      </trkpt>
      <trkpt lat="40.815064" lon="-3.859095">
        <ele>2066.6</ele>
        <time>2018-04-21T08:03:35.000Z</time>
      </trkpt>
      <trkpt lat="40.815063" lon="-3.859104">
        <ele>2066.8</ele>
        <time>2018-04-21T08:03:36.000Z</time>
      </trkpt>
      <trkpt lat="40.815063" lon="-3.859113">
        <ele>2067.0</ele>
        <time>2018-04-21T08:03:37.000Z</time>
      </trkpt>
      <trkpt lat="40.815063" lon="-3.859122">
        <ele>2067.1</ele>
        <time>2018-04-21T08:03:38.000Z</time>
      </trkpt>
      <trkpt lat="40.815063" lon="-3.859131">
        <ele>2067.3</ele>
        <time>2018-04-21T08:03:39.000Z</time>
      </trkpt>
      <trkpt lat="40.815063" lon="-3.859139">
        <ele>2067.4</ele>
        <time>2018-04-21T08:03:40.000Z</time>
      </trkpt>
      <trkpt lat="40.815062" lon="-3.859148">
        <ele>2067.6</ele>
        <time>2018-04-21T08:03:41.000Z</time>
      </trkpt>
      <trkpt lat="40.815062" lon="-3.859156">
        <ele>2067.7</ele>
        <time>2018-04-21T08:03:42.000Z</time>
      </trkpt>
      <trkpt lat="40.815062" lon="-3.859164">
        <ele>2067.9</ele>
        <time>2018-04-21T08:03:43.000Z</time>
      </trkpt>
      <trkpt lat="40.815061" lon="-3.859172">
        <ele>2068.0</ele>
        <time>2018-04-21T08:03:44.000Z</time>
      </trkpt>
      <trkpt lat="40.815061" lon="-3.859179">
        <ele>2068.2</ele>
        <time>2018-04-21T08:03:45.000Z</time>
      </trkpt>
      <trkpt lat="40.81506" lon="-3.859187">
        <ele>2068.3</ele>
        <time>2018-04-21T08:03:46.000Z</time>
      </trkpt>
      <trkpt lat="40.81506" lon="-3.859194">
        <ele>2068.5</ele>
        <time>2018-04-21T08:03:47.000Z</time>
      </trkpt>
      <trkpt lat="40.815059" lon="-3.859202">
        <ele>2068.6</ele>
        <time>2018-04-21T08:03:48.000Z</time>
      </trkpt>
      <trkpt lat="40.815057" lon="-3.85921">
        <ele>2068.8</ele>
        <time>2018-04-21T08:03:49.000Z</time>
      </trkpt>
      <trkpt lat="40.815056" lon="-3.859218">
        <ele>2069.0</ele>
        <time>2018-04-21T08:03:50.000Z</time>
      </trkpt>
      <trkpt lat="40.815054" lon="-3.859227">
        <ele>2069.2</ele>
        <time>2018-04-21T08:03:51.000Z</time>
      </trkpt>
      <trkpt lat="40.815052" lon="-3.859236">
        <ele>2069.3</ele>
        <time>2018-04-21T08:03:52.000Z</time>
      </trkpt>
      <trkpt lat="40.81505" lon="-3.859245">
        <ele>2069.5</ele>
        <time>2018-04-21T08:03:53.000Z</time>
      </trkpt>
      <trkpt lat="40.815048" lon="-3.859254">
        <ele>2069.7</ele>
        <time>2018-04-21T08:03:54.000Z</time>
      </trkpt>
      <trkpt lat="40.815047" lon="-3.859261">
        <ele>2069.8</ele>
        <time>2018-04-21T08:03:55.000Z</time>
      </trkpt>
      <trkpt lat="40.815046" lon="-3.859268">
        <ele>2070.0</ele>
        <time>2018-04-21T08:03:56.000Z</time>
      </trkpt>
      <trkpt lat="40.815046" lon="-3.859272">
        <ele>2070.1</ele>
        <time>2018-04-21T08:03:57.000Z</time>
      </trkpt>
      <trkpt lat="40.815046" lon="-3.859276">
        <ele>2070.2</ele>
        <time>2018-04-21T08:03:58.000Z</time>
      </trkpt>
      <trkpt lat="40.815046" lon="-3.85928">
        <ele>2070.2</ele>
        <time>2018-04-21T08:03:59.000Z</time>
      </trkpt>
      <trkpt lat="40.815047" lon="-3.859284">
        <ele>2070.3</ele>
        <time>2018-04-21T08:04:00.000Z</time>
      </trkpt>
      <trkpt lat="40.815048" lon="-3.859289">
        <ele>2070.4</ele>
        <time>2018-04-21T08:04:01.000Z</time>
      </trkpt>
      <trkpt lat="40.815048" lon="-3.859296">
        <ele>2070.6</ele>
        <time>2018-04-21T08:04:02.000Z</time>
      </trkpt>
      <trkpt lat="40.815048" lon="-3.859304">
        <ele>2070.7</ele>
        <time>2018-04-21T08:04:03.000Z</time>
      </trkpt>
      <trkpt lat="40.815048" lon="-3.859312">
        <ele>2070.9</ele>
        <time>2018-04-21T08:04:04.000Z</time>
      </trkpt>
      <trkpt lat="40.815048" lon="-3.859321">
        <ele>2071.1</ele>
        <time>2018-04-21T08:04:05.000Z</time>
      </trkpt>
      <trkpt lat="40.815048" lon="-3.859331">
        <ele>2071.3</ele>
        <time>2018-04-21T08:04:06.000Z</time>
      </trkpt>
      <trkpt lat="40.815048" lon="-3.859341">
        <ele>2071.5</ele>
        <time>2018-04-21T08:04:07.000Z</time>
      </trkpt>
      <trkpt lat="40.815049" lon="-3.859351">
        <ele>2071.7</ele>
        <time>2018-04-21T08:04:08.000Z</time>
      </trkpt>
      <trkpt lat="40.815049" lon="-3.859361">
        <ele>2071.9</ele>
        <time>2018-04-21T08:04:09.000Z</time>
      </trkpt>
      <trkpt lat="40.815049" lon="-3.85937">
        <ele>2072.0</ele>
        <time>2018-04-21T08:04:10.000Z</time>
      </trkpt>
      <trkpt lat="40.815049" lon="-3.859379">
        <ele>2072.2</ele>
        <time>2018-04-21T08:04:11.000Z</time>
      </trkpt>
      <trkpt lat="40.81505" lon="-3.859388">
        <ele>2072.4</ele>
        <time>2018-04-21T08:04:12.000Z</time>
      </trkpt>
      <trkpt lat="40.815051" lon="-3.859396">
        <ele>2072.6</ele>
        <time>2018-04-21T08:04:13.000Z</time>
      </trkpt>
      <trkpt lat="40.815051" lon="-3.859404">
        <ele>2072.7</ele>
        <time>2018-04-21T08:04:14.000Z</time>
      </trkpt>
      <trkpt lat="40.815052" lon="-3.859412">
        <ele>2072.9</ele>
        <time>2018-04-21T08:04:15.000Z</time>
      </trkpt>
      <trkpt lat="40.815053" lon="-3.859419">
        <ele>2073.0</ele>
        <time>2018-04-21T08:04:16.000Z</time>
      </trkpt>
      <trkpt lat="40.815054" lon="-3.859426">
        <ele>2073.2</ele>
        <time>2018-04-21T08:04:17.000Z</time>
      </trkpt>
      <trkpt lat="40.815056" lon="-3.859433">
        <ele>2073.3</ele>
        <time>2018-04-21T08:04:18.000Z</time>
      </trkpt>
      <trkpt lat="40.815057" lon="-3.85944">
        <ele>2073.4</ele>
        <time>2018-04-21T08:04:19.000Z</time>
      </trkpt>
      <trkpt lat="40.815058" lon="-3.859447">
        <ele>2073.6</ele>
        <time>2018-04-21T08:04:20.000Z</time>
      </trkpt>
      <trkpt lat="40.81506" lon="-3.859454">
        <ele>2073.7</ele>
        <time>2018-04-21T08:04:21.000Z</time>
      </trkpt>
      <trkpt lat="40.815062" lon="-3.85946">
        <ele>2073.8</ele>
        <time>2018-04-21T08:04:22.000Z</time>
      </trkpt>
      <trkpt lat="40.815064" lon="-3.859467">
        <ele>2074.0</ele>
        <time>2018-04-21T08:04:23.000Z</time>
      </trkpt>
      <trkpt lat="40.815066" lon="-3.859473">
        <ele>2074.1</ele>
        <time>2018-04-21T08:04:24.000Z</time>
      </trkpt>
      <trkpt lat="40.815069" lon="-3.859479">
        <ele>2074.2</ele>
        <time>2018-04-21T08:04:25.000Z</time>
      </trkpt>
      <trkpt lat="40.815071" lon="-3.859485">
        <ele>2074.3</ele>
        <time>2018-04-21T08:04:26.000Z</time>
      </trkpt>
      <trkpt lat="40.815074" lon="-3.859491">
        <ele>2074.4</ele>
        <time>2018-04-21T08:04:27.000Z</time>
      </trkpt>
      <trkpt lat="40.815077" lon="-3.859497">
        <ele>2074.5</ele>
        <time>2018-04-21T08:04:28.000Z</time>
      </trkpt>
      <trkpt lat="40.81508" lon="-3.859503">
        <ele>2074.6</ele>
        <time>2018-04-21T08:04:29.000Z</time>
      </trkpt>
      <trkpt lat="40.815082" lon="-3.859509">
        <ele>2074.8</ele>
        <time>2018-04-21T08:04:30.000Z</time>
      </trkpt>
      <trkpt lat="40.815084" lon="-3.859515">
        <ele>2074.9</ele>
        <time>2018-04-21T08:04:31.000Z</time>
      </trkpt>
      <trkpt lat="40.815084" lon="-3.859521">
        <ele>2075.0</ele>
        <time>2018-04-21T08:04:32.000Z</time>
      </trkpt>
      <trkpt lat="40.815082" lon="-3.859527">
        <ele>2075.1</ele>
        <time>2018-04-21T08:04:33.000Z</time>
      </trkpt>
      <trkpt lat="40.815079" lon="-3.859533">
        <ele>2075.3</ele>
        <time>2018-04-21T08:04:34.000Z</time>
      </trkpt>
      <trkpt lat="40.815076" lon="-3.859538">
        <ele>2075.4</ele>
        <time>2018-04-21T08:04:35.000Z</time>
      </trkpt>
      <trkpt lat="40.815073" lon="-3.859543">
        <ele>2075.5</ele>
        <time>2018-04-21T08:04:36.000Z</time>
      </trkpt>
      <trkpt lat="40.815071" lon="-3.859546">
        <ele>2075.5</ele>
        <time>2018-04-21T08:04:37.000Z</time>
      </trkpt>
      <trkpt lat="40.815069" lon="-3.859549">
        <ele>2075.6</ele>
        <time>2018-04-21T08:04:38.000Z</time>
      </trkpt>
      <trkpt lat="40.815068" lon="-3.85955">
        <ele>2075.6</ele>
        <time>2018-04-21T08:04:39.000Z</time>
      </trkpt>
      <trkpt lat="40.815067" lon="-3.859552">
        <ele>2075.7</ele>
        <time>2018-04-21T08:04:40.000Z</time>
      </trkpt>
      <trkpt lat="40.815067" lon="-3.859552">
        <ele>2075.7</ele>
        <time>2018-04-21T08:04:41.000Z</time>
      </trkpt>
      <trkpt lat="40.815067" lon="-3.859552">
        <ele>2075.7</ele>
        <time>2018-04-21T08:04:42.000Z</time>
      </trkpt>
      <trkpt lat="40.815067" lon="-3.859552">
        <ele>2075.7</ele>
        <time>2018-04-21T08:04:43.000Z</time>
      </trkpt>
      <trkpt lat="40.815067" lon="-3.859552">
        <ele>2075.7</ele>
        <time>2018-04-21T08:04:44.000Z</time>
      </trkpt>
      <trkpt lat="40.815067" lon="-3.859551">
        <ele>2075.6</ele>
        <time>2018-04-21T08:04:45.000Z</time>
      </trkpt>
      <trkpt lat="40.815067" lon="-3.859551">
        <ele>2075.6</ele>
        <time>2018-04-21T08:04:46.000Z</time>
      </trkpt>
      <trkpt lat="40.815067" lon="-3.859551">
        <ele>2075.6</ele>
        <time>2018-04-21T08:04:47.000Z</time>
      </trkpt>
      <trkpt lat="40.815067" lon="-3.859551">
        <ele>2075.6</ele>
        <time>2018-04-21T08:04:48.000Z</time>
      </trkpt>
      <trkpt lat="40.815067" lon="-3.859551">
        <ele>2075.6</ele>
        <time>2018-04-21T08:04:49.000Z</time>
      </trkpt>
      <trkpt lat="40.815067" lon="-3.859551">
        <ele>2075.6</ele>
        <time>2018-04-21T08:04:50.000Z</time>
      </trkpt>
      <trkpt lat="40.815067" lon="-3.859552">
        <ele>2075.7</ele>
        <time>2018-04-21T08:04:51.000Z</time>
      </trkpt>
      <trkpt lat="40.815067" lon="-3.859552">
        <ele>2075.7</ele>
        <time>2018-04-21T08:04:52.000Z</time>
      </trkpt>
      <trkpt lat="40.815067" lon="-3.859552">
        <ele>2075.7</ele>
        <time>2018-04-21T08:05:31.000Z</time>
      </trkpt>
      <trkpt lat="40.815067" lon="-3.859552">
        <ele>2075.7</ele>
        <time>2018-04-21T08:05:32.000Z</time>
      </trkpt>
      <trkpt lat="40.815068" lon="-3.859552">
        <ele>2075.7</ele>
        <time>2018-04-21T08:05:33.000Z</time>
      </trkpt>
      <trkpt lat="40.815068" lon="-3.859554">
        <ele>2075.7</ele>
        <time>2018-04-21T08:05:34.000Z</time>
      </trkpt>
      <trkpt lat="40.815069" lon="-3.85956">
        <ele>2075.8</ele>
        <time>2018-04-21T08:05:35.000Z</time>
      </trkpt>
      <trkpt lat="40.81507" lon="-3.859571">
        <ele>2076.0</ele>
        <time>2018-04-21T08:05:36.000Z</time>
      </trkpt>
      <trkpt lat="40.815072" lon="-3.859584">
        <ele>2076.3</ele>
        <time>2018-04-21T08:05:37.000Z</time>
      </trkpt>
      <trkpt lat="40.815075" lon="-3.859595">
        <ele>2076.5</ele>
        <time>2018-04-21T08:05:38.000Z</time>
      </trkpt>
      <trkpt lat="40.815079" lon="-3.859604">
        <ele>2076.7</ele>
        <time>2018-04-21T08:05:39.000Z</time>
      </trkpt>
      <trkpt lat="40.815083" lon="-3.859613">
        <ele>2076.8</ele>
        <time>2018-04-21T08:05:40.000Z</time>
      </trkpt>
      <trkpt lat="40.815086" lon="-3.859621">
        <ele>2077.0</ele>
        <time>2018-04-21T08:05:41.000Z</time>
      </trkpt>
      <trkpt lat="40.815089" lon="-3.85963">
        <ele>2077.2</ele>
        <time>2018-04-21T08:05:42.000Z</time>
      </trkpt>
      <trkpt lat="40.81509" lon="-3.859639">
        <ele>2077.3</ele>
        <time>2018-04-21T08:05:43.000Z</time>
      </trkpt>
      <trkpt lat="40.81509" lon="-3.859649">
        <ele>2077.5</ele>
        <time>2018-04-21T08:05:44.000Z</time>
      </trkpt>
      <trkpt lat="40.81509" lon="-3.859659">
        <ele>2077.7</ele>
        <time>2018-04-21T08:05:45.000Z</time>
      </trkpt>
      <trkpt lat="40.815089" lon="-3.859669">
        <ele>2077.9</ele>
        <time>2018-04-21T08:05:46.000Z</time>
      </trkpt>
      <trkpt lat="40.815088" lon="-3.859679">
        <ele>2078.2</ele>
        <time>2018-04-21T08:05:47.000Z</time>
      </trkpt>
      <trkpt lat="40.815088" lon="-3.85969">
        <ele>2078.4</ele>
        <time>2018-04-21T08:05:48.000Z</time>
      </trkpt>
      <trkpt lat="40.815087" lon="-3.8597">
        <ele>2078.6</ele>
        <time>2018-04-21T08:05:49.000Z</time>
      </trkpt>
      <trkpt lat="40.815088" lon="-3.85971">
        <ele>2078.8</ele>
        <time>2018-04-21T08:05:50.000Z</time>
      </trkpt>
      <trkpt lat="40.815089" lon="-3.85972">
        <ele>2079.0</ele>
        <time>2018-04-21T08:05:51.000Z</time>
      </trkpt>
      <trkpt lat="40.81509" lon="-3.85973">
        <ele>2079.2</ele>
        <time>2018-04-21T08:05:52.000Z</time>
      </trkpt>
      <trkpt lat="40.815092" lon="-3.85974">
        <ele>2079.4</ele>
        <time>2018-04-21T08:05:53.000Z</time>
      </trkpt>
      <trkpt lat="40.815094" lon="-3.859749">
        <ele>2079.5</ele>
        <time>2018-04-21T08:05:54.000Z</time>
      </trkpt>
      <trkpt lat="40.815095" lon="-3.859758">
        <ele>2079.7</ele>
        <time>2018-04-21T08:05:55.000Z</time>
      </trkpt>
      <trkpt lat="40.815095" lon="-3.859768">
        <ele>2079.9</ele>
        <time>2018-04-21T08:05:56.000Z</time>
      </trkpt>
      <trkpt lat="40.815094" lon="-3.859777">
        <ele>2080.1</ele>
        <time>2018-04-21T08:05:57.000Z</time>
      </trkpt>
      <trkpt lat="40.815092" lon="-3.859786">
        <ele>2080.3</ele>
        <time>2018-04-21T08:05:58.000Z</time>
      </trkpt>
      <trkpt lat="40.815087" lon="-3.859795">
        <ele>2080.5</ele>
        <time>2018-04-21T08:05:59.000Z</time>
      </trkpt>
      <trkpt lat="40.81508" lon="-3.859804">
        <ele>2080.7</ele>
        <time>2018-04-21T08:06:00.000Z</time>
      </trkpt>
      <trkpt lat="40.815073" lon="-3.859813">
        <ele>2080.9</ele>
        <time>2018-04-21T08:06:01.000Z</time>
      </trkpt>
      <trkpt lat="40.815065" lon="-3.859822">
        <ele>2081.1</ele>
        <time>2018-04-21T08:06:02.000Z</time>
      </trkpt>
      <trkpt lat="40.815058" lon="-3.859831">
        <ele>2081.3</ele>
        <time>2018-04-21T08:06:03.000Z</time>
      </trkpt>
      <trkpt lat="40.815054" lon="-3.85984">
        <ele>2081.5</ele>
        <time>2018-04-21T08:06:04.000Z</time>
      </trkpt>
      <trkpt lat="40.815053" lon="-3.859849">
        <ele>2081.7</ele>
        <time>2018-04-21T08:06:05.000Z</time>
      </trkpt>
      <trkpt lat="40.815054" lon="-3.859858">
        <ele>2081.9</ele>
        <time>2018-04-21T08:06:06.000Z</time>
      </trkpt>
      <trkpt lat="40.815057" lon="-3.859867">
        <ele>2082.0</ele>
        <time>2018-04-21T08:06:07.000Z</time>
      </trkpt>
      <trkpt lat="40.815061" lon="-3.859875">
        <ele>2082.2</ele>
        <time>2018-04-21T08:06:08.000Z</time>
      </trkpt>
      <trkpt lat="40.815064" lon="-3.859883">
        <ele>2082.3</ele>
        <time>2018-04-21T08:06:09.000Z</time>
      </trkpt>
      <trkpt lat="40.815066" lon="-3.85989">
        <ele>2082.5</ele>
        <time>2018-04-21T08:06:10.000Z</time>
      </trkpt>
      <trkpt lat="40.815069" lon="-3.859897">
        <ele>2082.6</ele>
        <time>2018-04-21T08:06:11.000Z</time>
      </trkpt>
      <trkpt lat="40.81507" lon="-3.859904">
        <ele>2082.7</ele>
        <time>2018-04-21T08:06:12.000Z</time>
      </trkpt>
      <trkpt lat="40.815072" lon="-3.85991">
        <ele>2082.8</ele>
        <time>2018-04-21T08:06:13.000Z</time>
      </trkpt>
      <trkpt lat="40.815073" lon="-3.859917">
        <ele>2083.0</ele>
        <time>2018-04-21T08:06:14.000Z</time>
      </trkpt>
      <trkpt lat="40.815074" lon="-3.859924">
        <ele>2083.1</ele>
        <time>2018-04-21T08:06:15.000Z</time>
      </trkpt>
      <trkpt lat="40.815075" lon="-3.859931">
        <ele>2083.3</ele>
        <time>2018-04-21T08:06:16.000Z</time>
      </trkpt>
      <trkpt lat="40.815076" lon="-3.859939">
        <ele>2083.4</ele>
        <time>2018-04-21T08:06:17.000Z</time>
      </trkpt>
      <trkpt lat="40.815077" lon="-3.859947">
        <ele>2083.6</ele>
        <time>2018-04-21T08:06:18.000Z</time>
      </trkpt>
      <trkpt lat="40.815078" lon="-3.859956">
        <ele>2083.7</ele>
        <time>2018-04-21T08:06:19.000Z</time>
      </trkpt>
      <trkpt lat="40.815079" lon="-3.859965">
        <ele>2083.9</ele>
        <time>2018-04-21T08:06:20.000Z</time>
      </trkpt>
      <trkpt lat="40.815079" lon="-3.859975">
        <ele>2084.1</ele>
        <time>2018-04-21T08:06:21.000Z</time>
      </trkpt>
      <trkpt lat="40.81508" lon="-3.859985">
        <ele>2084.3</ele>
        <time>2018-04-21T08:06:22.000Z</time>
      </trkpt>
      <trkpt lat="40.815081" lon="-3.859995">
        <ele>2084.5</ele>
        <time>2018-04-21T08:06:23.000Z</time>
      </trkpt>
      <trkpt lat="40.815082" lon="-3.860005">
        <ele>2084.7</ele>
        <time>2018-04-21T08:06:24.000Z</time>
      </trkpt>
      <trkpt lat="40.815083" lon="-3.860016">
        <ele>2084.9</ele>
        <time>2018-04-21T08:06:25.000Z</time>
      </trkpt>
      <trkpt lat="40.815084" lon="-3.860026">
        <ele>2085.1</ele>
        <time>2018-04-21T08:06:26.000Z</time>
      </trkpt>
      <trkpt lat="40.815085" lon="-3.860036">
        <ele>2085.2</ele>
        <time>2018-04-21T08:06:27.000Z</time>
      </trkpt>
      <trkpt lat="40.815086" lon="-3.860046">
        <ele>2085.4</ele>
        <time>2018-04-21T08:06:28.000Z</time>
      </trkpt>
      <trkpt lat="40.815087" lon="-3.860056">
        <ele>2085.6</ele>
        <time>2018-04-21T08:06:29.000Z</time>
      </trkpt>
      <trkpt lat="40.815088" lon="-3.860065">
        <ele>2085.7</ele>
        <time>2018-04-21T08:06:30.000Z</time>
      </trkpt>
      <trkpt lat="40.81509" lon="-3.860075">
        <ele>2085.9</ele>
        <time>2018-04-21T08:06:31.000Z</time>
      </trkpt>
      <trkpt lat="40.815092" lon="-3.860084">
        <ele>2086.0</ele>
        <time>2018-04-21T08:06:32.000Z</time>
      </trkpt>
      <trkpt lat="40.815094" lon="-3.860092">
        <ele>2086.2</ele>
        <time>2018-04-21T08:06:33.000Z</time>
      </trkpt>
      <trkpt lat="40.815096" lon="-3.860101">
        <ele>2086.3</ele>
        <time>2018-04-21T08:06:34.000Z</time>
      </trkpt>
      <trkpt lat="40.815099" lon="-3.860109">
        <ele>2086.4</ele>
        <time>2018-04-21T08:06:35.000Z</time>
      </trkpt>
      <trkpt lat="40.815102" lon="-3.860116">
        <ele>2086.5</ele>
        <time>2018-04-21T08:06:36.000Z</time>
      </trkpt>
      <trkpt lat="40.815106" lon="-3.860123">
        <ele>2086.6</ele>
        <time>2018-04-21T08:06:37.000Z</time>
      </trkpt>
      <trkpt lat="40.815109" lon="-3.860131">
        <ele>2086.8</ele>
        <time>2018-04-21T08:06:38.000Z</time>
      </trkpt>
      <trkpt lat="40.815112" lon="-3.860139">
        <ele>2086.9</ele>
        <time>2018-04-21T08:06:39.000Z</time>
      </trkpt>
      <trkpt lat="40.815114" lon="-3.860147">
        <ele>2087.0</ele>
        <time>2018-04-21T08:06:40.000Z</time>
      </trkpt>
      <trkpt lat="40.815116" lon="-3.860156">
        <ele>2087.1</ele>
        <time>2018-04-21T08:06:41.000Z</time>
      </trkpt>
      <trkpt lat="40.815117" lon="-3.860165">
        <ele>2087.3</ele>
        <time>2018-04-21T08:06:42.000Z</time>
      </trkpt>
      <trkpt lat="40.815117" lon="-3.860175">
        <ele>2087.5</ele>
        <time>2018-04-21T08:06:43.000Z</time>
      </trkpt>
      <trkpt lat="40.815118" lon="-3.860185">
        <ele>2087.6</ele>
        <time>2018-04-21T08:06:44.000Z</time>
      </trkpt>
      <trkpt lat="40.815118" lon="-3.860194">
        <ele>2087.8</ele>
        <time>2018-04-21T08:06:45.000Z</time>
      </trkpt>
      <trkpt lat="40.815119" lon="-3.860203">
        <ele>2087.9</ele>
        <time>2018-04-21T08:06:46.000Z</time>
      </trkpt>
      <trkpt lat="40.815119" lon="-3.860211">
        <ele>2088.1</ele>
        <time>2018-04-21T08:06:47.000Z</time>
      </trkpt>
      <trkpt lat="40.81512" lon="-3.860219">
        <ele>2088.2</ele>
        <time>2018-04-21T08:06:48.000Z</time>
      </trkpt>
      <trkpt lat="40.815121" lon="-3.860226">
        <ele>2088.3</ele>
        <time>2018-04-21T08:06:49.000Z</time>
      </trkpt>
      <trkpt lat="40.815122" lon="-3.860232">
        <ele>2088.4</ele>
        <time>2018-04-21T08:06:50.000Z</time>
      </trkpt>
      <trkpt lat="40.815122" lon="-3.860238">
        <ele>2088.5</ele>
        <time>2018-04-21T08:06:51.000Z</time>
      </trkpt>
      <trkpt lat="40.815123" lon="-3.860243">
        <ele>2088.6</ele>
        <time>2018-04-21T08:06:52.000Z</time>
      </trkpt>
      <trkpt lat="40.815123" lon="-3.860247">
        <ele>2088.7</ele>
        <time>2018-04-21T08:06:53.000Z</time>
      </trkpt>
      <trkpt lat="40.815124" lon="-3.86025">
        <ele>2088.7</ele>
        <time>2018-04-21T08:06:54.000Z</time>
      </trkpt>
      <trkpt lat="40.815124" lon="-3.860253">
        <ele>2088.8</ele>
        <time>2018-04-21T08:06:55.000Z</time>
      </trkpt>
      <trkpt lat="40.815125" lon="-3.860256">
        <ele>2088.8</ele>
        <time>2018-04-21T08:06:56.000Z</time>
      </trkpt>
      <trkpt lat="40.815125" lon="-3.86026">
        <ele>2088.9</ele>
        <time>2018-04-21T08:06:57.000Z</time>
      </trkpt>
      <trkpt lat="40.815125" lon="-3.860265">
        <ele>2089.0</ele>
        <time>2018-04-21T08:06:58.000Z</time>
      </trkpt>
      <trkpt lat="40.815125" lon="-3.860271">
        <ele>2089.1</ele>
        <time>2018-04-21T08:06:59.000Z</time>
      </trkpt>
      <trkpt lat="40.815126" lon="-3.860279">
        <ele>2089.2</ele>
        <time>2018-04-21T08:07:00.000Z</time>
      </trkpt>
      <trkpt lat="40.815126" lon="-3.860287">
        <ele>2089.4</ele>
        <time>2018-04-21T08:07:01.000Z</time>
      </trkpt>
      <trkpt lat="40.815126" lon="-3.860296">
        <ele>2089.5</ele>
        <time>2018-04-21T08:07:02.000Z</time>
      </trkpt>
      <trkpt lat="40.815126" lon="-3.860304">
        <ele>2089.6</ele>
        <time>2018-04-21T08:07:03.000Z</time>
      </trkpt>
      <trkpt lat="40.815126" lon="-3.860312">
        <ele>2089.8</ele>
        <time>2018-04-21T08:07:04.000Z</time>
      </trkpt>
      <trkpt lat="40.815126" lon="-3.860319">
        <ele>2089.9</ele>
        <time>2018-04-21T08:07:05.000Z</time>
      </trkpt>
      <trkpt lat="40.815126" lon="-3.860326">
        <ele>2090.0</ele>
        <time>2018-04-21T08:07:06.000Z</time>
      </trkpt>
      <trkpt lat="40.815126" lon="-3.860334">
        <ele>2090.2</ele>
        <time>2018-04-21T08:07:07.000Z</time>
      </trkpt>
      <trkpt lat="40.815126" lon="-3.860341">
        <ele>2090.3</ele>
        <time>2018-04-21T08:07:08.000Z</time>
      </trkpt>
      <trkpt lat="40.815126" lon="-3.860348">
        <ele>2090.4</ele>
        <time>2018-04-21T08:07:09.000Z</time>
      </trkpt>
      <trkpt lat="40.815126" lon="-3.860355">
        <ele>2090.5</ele>
        <time>2018-04-21T08:07:10.000Z</time>
      </trkpt>
      <trkpt lat="40.815126" lon="-3.860362">
        <ele>2090.6</ele>
        <time>2018-04-21T08:07:11.000Z</time>
      </trkpt>
      <trkpt lat="40.815126" lon="-3.86037">
        <ele>2090.8</ele>
        <time>2018-04-21T08:07:12.000Z</time>
      </trkpt>
      <trkpt lat="40.815126" lon="-3.860377">
        <ele>2090.9</ele>
        <time>2018-04-21T08:07:13.000Z</time>
      </trkpt>
      <trkpt lat="40.815126" lon="-3.860385">
        <ele>2091.0</ele>
        <time>2018-04-21T08:07:14.000Z</time>
      </trkpt>
      <trkpt lat="40.815126" lon="-3.860393">
        <ele>2091.2</ele>
        <time>2018-04-21T08:07:15.000Z</time>
      </trkpt>
      <trkpt lat="40.815126" lon="-3.860401">
        <ele>2091.3</ele>
        <time>2018-04-21T08:07:16.000Z</time>
      </trkpt>
      <trkpt lat="40.815126" lon="-3.860409">
        <ele>2091.5</ele>
        <time>2018-04-21T08:07:17.000Z</time>
      </trkpt>
      <trkpt lat="40.815126" lon="-3.860417">
        <ele>2091.6</ele>
        <time>2018-04-21T08:07:18.000Z</time>
      </trkpt>
      <trkpt lat="40.815125" lon="-3.860425">
        <ele>2091.7</ele>
        <time>2018-04-21T08:07:19.000Z</time>
      </trkpt>
      <trkpt lat="40.815125" lon="-3.860433">
        <ele>2091.9</ele>
        <time>2018-04-21T08:07:20.000Z</time>
      </trkpt>
      <trkpt lat="40.815124" lon="-3.860441">
        <ele>2092.0</ele>
        <time>2018-04-21T08:07:21.000Z</time>
      </trkpt>
      <trkpt lat="40.815123" lon="-3.860449">
        <ele>2092.2</ele>
        <time>2018-04-21T08:07:22.000Z</time>
      </trkpt>
      <trkpt lat="40.815122" lon="-3.860457">
        <ele>2092.3</ele>
        <time>2018-04-21T08:07:23.000Z</time>
      </trkpt>
      <trkpt lat="40.81512" lon="-3.860465">
        <ele>2092.5</ele>
        <time>2018-04-21T08:07:24.000Z</time>
      </trkpt>
      <trkpt lat="40.815118" lon="-3.860473">
        <ele>2092.6</ele>
        <time>2018-04-21T08:07:25.000Z</time>
      </trkpt>
      <trkpt lat="40.815116" lon="-3.860481">
        <ele>2092.8</ele>
        <time>2018-04-21T08:07:26.000Z</time>
      </trkpt>
      <trkpt lat="40.815113" lon="-3.860489">
        <ele>2092.9</ele>
        <time>2018-04-21T08:07:27.000Z</time>
      </trkpt>
      <trkpt lat="40.81511" lon="-3.860497">
        <ele>2093.1</ele>
        <time>2018-04-21T08:07:28.000Z</time>
      </trkpt>
      <trkpt lat="40.815106" lon="-3.860504">
        <ele>2093.3</ele>
        <time>2018-04-21T08:07:29.000Z</time>
      </trkpt>
      <trkpt lat="40.815102" lon="-3.860512">
        <ele>2093.4</ele>
        <time>2018-04-21T08:07:30.000Z</time>
      </trkpt>
      <trkpt lat="40.815097" lon="-3.860519">
        <ele>2093.6</ele>
        <time>2018-04-21T08:07:31.000Z</time>
      </trkpt>
      <trkpt lat="40.815093" lon="-3.860526">
        <ele>2093.7</ele>
        <time>2018-04-21T08:07:32.000Z</time>
      </trkpt>
      <trkpt lat="40.815088" lon="-3.860534">
        <ele>2093.9</ele>
        <time>2018-04-21T08:07:33.000Z</time>
      </trkpt>
      <trkpt lat="40.815084" lon="-3.860542">
        <ele>2094.1</ele>
        <time>2018-04-21T08:07:34.000Z</time>
      </trkpt>
      <trkpt lat="40.815081" lon="-3.860551">
        <ele>2094.3</ele>
        <time>2018-04-21T08:07:35.000Z</time>
      </trkpt>
      <trkpt lat="40.815078" lon="-3.86056">
        <ele>2094.5</ele>
        <time>2018-04-21T08:07:36.000Z</time>
      </trkpt>
      <trkpt lat="40.815077" lon="-3.86057">
        <ele>2094.6</ele>
        <time>2018-04-21T08:07:37.000Z</time>
      </trkpt>
      <trkpt lat="40.815077" lon="-3.86058">
        <ele>2094.8</ele>
        <time>2018-04-21T08:07:38.000Z</time>
      </trkpt>
      <trkpt lat="40.815078" lon="-3.86059">
        <ele>2095.0</ele>
        <time>2018-04-21T08:07:39.000Z</time>
      </trkpt>
      <trkpt lat="40.81508" lon="-3.860598">
        <ele>2095.1</ele>
        <time>2018-04-21T08:07:40.000Z</time>
      </trkpt>
      <trkpt lat="40.815084" lon="-3.860606">
        <ele>2095.2</ele>
        <time>2018-04-21T08:07:41.000Z</time>
      </trkpt>
      <trkpt lat="40.815087" lon="-3.860613">
        <ele>2095.3</ele>
        <time>2018-04-21T08:07:42.000Z</time>
      </trkpt>
      <trkpt lat="40.815091" lon="-3.860619">
        <ele>2095.4</ele>
        <time>2018-04-21T08:07:43.000Z</time>
      </trkpt>
      <trkpt lat="40.815094" lon="-3.860625">
        <ele>2095.5</ele>
        <time>2018-04-21T08:07:44.000Z</time>
      </trkpt>
      <trkpt lat="40.815096" lon="-3.86063">
        <ele>2095.5</ele>
        <time>2018-04-21T08:07:45.000Z</time>
      </trkpt>
      <trkpt lat="40.815098" lon="-3.860635">
        <ele>2095.6</ele>
        <time>2018-04-21T08:07:46.000Z</time>
      </trkpt>
      <trkpt lat="40.815099" lon="-3.86064">
        <ele>2095.7</ele>
        <time>2018-04-21T08:07:47.000Z</time>
      </trkpt>
      <trkpt lat="40.8151" lon="-3.860645">
        <ele>2095.8</ele>
        <time>2018-04-21T08:07:48.000Z</time>
      </trkpt>
      <trkpt lat="40.815102" lon="-3.86065">
        <ele>2095.8</ele>
        <time>2018-04-21T08:07:49.000Z</time>
      </trkpt>
      <trkpt lat="40.815103" lon="-3.860657">
        <ele>2095.9</ele>
        <time>2018-04-21T08:07:50.000Z</time>
      </trkpt>
      <trkpt lat="40.815105" lon="-3.860664">
        <ele>2096.0</ele>
        <time>2018-04-21T08:07:51.000Z</time>
      </trkpt>
      <trkpt lat="40.815105" lon="-3.860672">
        <ele>2096.2</ele>
        <time>2018-04-21T08:07:52.000Z</time>
      </trkpt>
      <trkpt lat="40.815106" lon="-3.86068">
        <ele>2096.3</ele>
        <time>2018-04-21T08:07:53.000Z</time>
      </trkpt>
      <trkpt lat="40.815105" lon="-3.86069">
        <ele>2096.5</ele>
        <time>2018-04-21T08:07:54.000Z</time>
      </trkpt>
      <trkpt lat="40.815103" lon="-3.8607">
        <ele>2096.7</ele>
        <time>2018-04-21T08:07:55.000Z</time>
      </trkpt>
      <trkpt lat="40.815101" lon="-3.86071">
        <ele>2096.9</ele>
        <time>2018-04-21T08:07:56.000Z</time>
      </trkpt>
      <trkpt lat="40.815098" lon="-3.860721">
        <ele>2097.1</ele>
        <time>2018-04-21T08:07:57.000Z</time>
      </trkpt>
      <trkpt lat="40.815096" lon="-3.860731">
        <ele>2097.3</ele>
        <time>2018-04-21T08:07:58.000Z</time>
      </trkpt>
      <trkpt lat="40.815093" lon="-3.860742">
        <ele>2097.5</ele>
        <time>2018-04-21T08:07:59.000Z</time>
      </trkpt>
      <trkpt lat="40.81509" lon="-3.860753">
        <ele>2097.7</ele>
        <time>2018-04-21T08:08:00.000Z</time>
      </trkpt>
      <trkpt lat="40.815087" lon="-3.860763">
        <ele>2097.9</ele>
        <time>2018-04-21T08:08:01.000Z</time>
      </trkpt>
      <trkpt lat="40.815085" lon="-3.860774">
        <ele>2098.1</ele>
        <time>2018-04-21T08:08:02.000Z</time>
      </trkpt>
      <trkpt lat="40.815082" lon="-3.860784">
        <ele>2098.3</ele>
        <time>2018-04-21T08:08:03.000Z</time>
      </trkpt>
      <trkpt lat="40.81508" lon="-3.860795">
        <ele>2098.6</ele>
        <time>2018-04-21T08:08:04.000Z</time>
      </trkpt>
      <trkpt lat="40.815078" lon="-3.860806">
        <ele>2098.8</ele>
        <time>2018-04-21T08:08:05.000Z</time>
      </trkpt>
      <trkpt lat="40.815077" lon="-3.860817">
        <ele>2099.0</ele>
        <time>2018-04-21T08:08:06.000Z</time>
      </trkpt>
      <trkpt lat="40.815077" lon="-3.860827">
        <ele>2099.1</ele>
        <time>2018-04-21T08:08:07.000Z</time>
      </trkpt>
      <trkpt lat="40.815076" lon="-3.860838">
        <ele>2099.3</ele>
        <time>2018-04-21T08:08:08.000Z</time>
      </trkpt>
      <trkpt lat="40.815077" lon="-3.860849">
        <ele>2099.4</ele>
        <time>2018-04-21T08:08:09.000Z</time>
      </trkpt>
      <trkpt lat="40.815077" lon="-3.86086">
        <ele>2099.5</ele>
        <time>2018-04-21T08:08:10.000Z</time>
      </trkpt>
      <trkpt lat="40.815079" lon="-3.860871">
        <ele>2099.6</ele>
        <time>2018-04-21T08:08:11.000Z</time>
      </trkpt>
      <trkpt lat="40.81508" lon="-3.860882">
        <ele>2099.7</ele>
        <time>2018-04-21T08:08:12.000Z</time>
      </trkpt>
      <trkpt lat="40.815082" lon="-3.860893">
        <ele>2099.8</ele>
        <time>2018-04-21T08:08:13.000Z</time>
      </trkpt>
      <trkpt lat="40.815084" lon="-3.860903">
        <ele>2099.8</ele>
        <time>2018-04-21T08:08:14.000Z</time>
      </trkpt>
      <trkpt lat="40.815086" lon="-3.860914">
        <ele>2099.9</ele>
        <time>2018-04-21T08:08:15.000Z</time>
      </trkpt>
      <trkpt lat="40.815088" lon="-3.860924">
        <ele>2100.0</ele>
        <time>2018-04-21T08:08:16.000Z</time>
      </trkpt>
      <trkpt lat="40.81509" lon="-3.860934">
        <ele>2100.1</ele>
        <time>2018-04-21T08:08:17.000Z</time>
      </trkpt>
      <trkpt lat="40.815093" lon="-3.860943">
        <ele>2100.1</ele>
        <time>2018-04-21T08:08:18.000Z</time>
      </trkpt>
      <trkpt lat="40.815095" lon="-3.860953">
        <ele>2100.2</ele>
        <time>2018-04-21T08:08:19.000Z</time>
      </trkpt>
      <trkpt lat="40.815097" lon="-3.860963">
        <ele>2100.3</ele>
        <time>2018-04-21T08:08:20.000Z</time>
      </trkpt>
      <trkpt lat="40.815099" lon="-3.860974">
        <ele>2100.3</ele>
        <time>2018-04-21T08:08:21.000Z</time>
      </trkpt>
      <trkpt lat="40.8151" lon="-3.860984">
        <ele>2100.4</ele>
        <time>2018-04-21T08:08:22.000Z</time>
      </trkpt>
      <trkpt lat="40.815102" lon="-3.860995">
        <ele>2100.5</ele>
        <time>2018-04-21T08:08:23.000Z</time>
      </trkpt>
      <trkpt lat="40.815103" lon="-3.861007">
        <ele>2100.6</ele>
        <time>2018-04-21T08:08:24.000Z</time>
      </trkpt>
      <trkpt lat="40.815103" lon="-3.861019">
        <ele>2100.7</ele>
        <time>2018-04-21T08:08:25.000Z</time>
      </trkpt>
      <trkpt lat="40.815103" lon="-3.861032">
        <ele>2100.8</ele>
        <time>2018-04-21T08:08:26.000Z</time>
      </trkpt>
      <trkpt lat="40.815103" lon="-3.861045">
        <ele>2100.9</ele>
        <time>2018-04-21T08:08:27.000Z</time>
      </trkpt>
      <trkpt lat="40.815103" lon="-3.861058">
        <ele>2101.1</ele>
        <time>2018-04-21T08:08:28.000Z</time>
      </trkpt>
      <trkpt lat="40.815102" lon="-3.861071">
        <ele>2101.2</ele>
        <time>2018-04-21T08:08:29.000Z</time>
      </trkpt>
      <trkpt lat="40.815102" lon="-3.861084">
        <ele>2101.3</ele>
        <time>2018-04-21T08:08:30.000Z</time>
      </trkpt>
      <trkpt lat="40.815101" lon="-3.861096">
        <ele>2101.4</ele>
        <time>2018-04-21T08:08:31.000Z</time>
      </trkpt>
      <trkpt lat="40.8151" lon="-3.861107">
        <ele>2101.5</ele>
        <time>2018-04-21T08:08:32.000Z</time>
      </trkpt>
      <trkpt lat="40.815099" lon="-3.861118">
        <ele>2101.7</ele>
        <time>2018-04-21T08:08:33.000Z</time>
      </trkpt>
      <trkpt lat="40.815098" lon="-3.861128">
        <ele>2101.8</ele>
        <time>2018-04-21T08:08:34.000Z</time>
      </trkpt>
      <trkpt lat="40.815097" lon="-3.861137">
        <ele>2101.9</ele>
        <time>2018-04-21T08:08:35.000Z</time>
      </trkpt>
      <trkpt lat="40.815097" lon="-3.861146">
        <ele>2101.9</ele>
        <time>2018-04-21T08:08:36.000Z</time>
      </trkpt>
      <trkpt lat="40.815096" lon="-3.861154">
        <ele>2102.0</ele>
        <time>2018-04-21T08:08:37.000Z</time>
      </trkpt>
      <trkpt lat="40.815095" lon="-3.861162">
        <ele>2102.1</ele>
        <time>2018-04-21T08:08:38.000Z</time>
      </trkpt>
      <trkpt lat="40.815095" lon="-3.861171">
        <ele>2102.2</ele>
        <time>2018-04-21T08:08:39.000Z</time>
      </trkpt>
      <trkpt lat="40.815094" lon="-3.86118">
        <ele>2102.3</ele>
        <time>2018-04-21T08:08:40.000Z</time>
      </trkpt>
      <trkpt lat="40.815094" lon="-3.86119">
        <ele>2102.4</ele>
        <time>2018-04-21T08:08:41.000Z</time>
      </trkpt>
      <trkpt lat="40.815093" lon="-3.861202">
        <ele>2102.5</ele>
        <time>2018-04-21T08:08:42.000Z</time>
      </trkpt>
      <trkpt lat="40.815093" lon="-3.861214">
        <ele>2102.6</ele>
        <time>2018-04-21T08:08:43.000Z</time>
      </trkpt>
      <trkpt lat="40.815093" lon="-3.861227">
        <ele>2102.7</ele>
        <time>2018-04-21T08:08:44.000Z</time>
      </trkpt>
      <trkpt lat="40.815092" lon="-3.86124">
        <ele>2102.9</ele>
        <time>2018-04-21T08:08:45.000Z</time>
      </trkpt>
      <trkpt lat="40.815092" lon="-3.861253">
        <ele>2103.0</ele>
        <time>2018-04-21T08:08:46.000Z</time>
      </trkpt>
      <trkpt lat="40.815092" lon="-3.861264">
        <ele>2103.1</ele>
        <time>2018-04-21T08:08:47.000Z</time>
      </trkpt>
      <trkpt lat="40.815091" lon="-3.861273">
        <ele>2103.2</ele>
        <time>2018-04-21T08:08:48.000Z</time>
      </trkpt>
      <trkpt lat="40.815091" lon="-3.861281">
        <ele>2103.2</ele>
        <time>2018-04-21T08:08:49.000Z</time>
      </trkpt>
      <trkpt lat="40.815091" lon="-3.861288">
        <ele>2103.3</ele>
        <time>2018-04-21T08:08:50.000Z</time>
      </trkpt>
      <trkpt lat="40.815091" lon="-3.861296">
        <ele>2103.4</ele>
        <time>2018-04-21T08:08:51.000Z</time>
      </trkpt>
      <trkpt lat="40.81509" lon="-3.861304">
        <ele>2103.5</ele>
        <time>2018-04-21T08:08:52.000Z</time>
      </trkpt>
      <trkpt lat="40.81509" lon="-3.861312">
        <ele>2103.5</ele>
        <time>2018-04-21T08:08:53.000Z</time>
      </trkpt>
      <trkpt lat="40.815089" lon="-3.861321">
        <ele>2103.6</ele>
        <time>2018-04-21T08:08:54.000Z</time>
      </trkpt>
      <trkpt lat="40.815088" lon="-3.86133">
        <ele>2103.7</ele>
        <time>2018-04-21T08:08:55.000Z</time>
      </trkpt>
      <trkpt lat="40.815087" lon="-3.86134">
        <ele>2103.8</ele>
        <time>2018-04-21T08:08:56.000Z</time>
      </trkpt>
      <trkpt lat="40.815086" lon="-3.861349">
        <ele>2103.9</ele>
        <time>2018-04-21T08:08:57.000Z</time>
      </trkpt>
      <trkpt lat="40.815085" lon="-3.861358">
        <ele>2104.0</ele>
        <time>2018-04-21T08:08:58.000Z</time>
      </trkpt>
      <trkpt lat="40.815084" lon="-3.861367">
        <ele>2104.1</ele>
        <time>2018-04-21T08:08:59.000Z</time>
      </trkpt>
      <trkpt lat="40.815082" lon="-3.861376">
        <ele>2104.2</ele>
        <time>2018-04-21T08:09:00.000Z</time>
      </trkpt>
      <trkpt lat="40.815081" lon="-3.861384">
        <ele>2104.3</ele>
        <time>2018-04-21T08:09:01.000Z</time>
      </trkpt>
      <trkpt lat="40.81508" lon="-3.861392">
        <ele>2104.4</ele>
        <time>2018-04-21T08:09:02.000Z</time>
      </trkpt>
      <trkpt lat="40.815078" lon="-3.861399">
        <ele>2104.5</ele>
        <time>2018-04-21T08:09:03.000Z</time>
      </trkpt>
      <trkpt lat="40.815077" lon="-3.861405">
        <ele>2104.6</ele>
        <time>2018-04-21T08:09:04.000Z</time>
      </trkpt>
      <trkpt lat="40.815076" lon="-3.861411">
        <ele>2104.6</ele>
        <time>2018-04-21T08:09:05.000Z</time>
      </trkpt>
      <trkpt lat="40.815075" lon="-3.861416">
        <ele>2104.7</ele>
        <time>2018-04-21T08:09:06.000Z</time>
      </trkpt>
      <trkpt lat="40.815074" lon="-3.861421">
        <ele>2104.7</ele>
        <time>2018-04-21T08:09:07.000Z</time>
      </trkpt>
      <trkpt lat="40.815073" lon="-3.861425">
        <ele>2104.8</ele>
        <time>2018-04-21T08:09:08.000Z</time>
      </trkpt>
      <trkpt lat="40.815073" lon="-3.861428">
        <ele>2104.8</ele>
        <time>2018-04-21T08:09:09.000Z</time>
      </trkpt>
      <trkpt lat="40.815073" lon="-3.861431">
        <ele>2104.8</ele>
        <time>2018-04-21T08:09:10.000Z</time>
      </trkpt>
      <trkpt lat="40.815073" lon="-3.861434">
        <ele>2104.9</ele>
        <time>2018-04-21T08:09:11.000Z</time>
      </trkpt>
      <trkpt lat="40.815074" lon="-3.861436">
        <ele>2104.9</ele>
        <time>2018-04-21T08:09:12.000Z</time>
      </trkpt>
      <trkpt lat="40.815075" lon="-3.861439">
        <ele>2104.9</ele>
        <time>2018-04-21T08:09:13.000Z</time>
      </trkpt>
      <trkpt lat="40.815075" lon="-3.861442">
        <ele>2104.9</ele>
        <time>2018-04-21T08:09:14.000Z</time>
      </trkpt>
      <trkpt lat="40.815076" lon="-3.861447">
        <ele>2105.0</ele>
        <time>2018-04-21T08:09:15.000Z</time>
      </trkpt>
      <trkpt lat="40.815077" lon="-3.861453">
        <ele>2105.0</ele>
        <time>2018-04-21T08:09:16.000Z</time>
      </trkpt>
      <trkpt lat="40.815078" lon="-3.861461">
        <ele>2105.1</ele>
        <time>2018-04-21T08:09:17.000Z</time>
      </trkpt>
      <trkpt lat="40.815078" lon="-3.861471">
        <ele>2105.2</ele>
        <time>2018-04-21T08:09:18.000Z</time>
      </trkpt>
      <trkpt lat="40.815079" lon="-3.861483">
        <ele>2105.3</ele>
        <time>2018-04-21T08:09:19.000Z</time>
      </trkpt>
      <trkpt lat="40.815079" lon="-3.861497">
        <ele>2105.4</ele>
        <time>2018-04-21T08:09:20.000Z</time>
      </trkpt>
      <trkpt lat="40.815079" lon="-3.861512">
        <ele>2105.5</ele>
        <time>2018-04-21T08:09:21.000Z</time>
      </trkpt>
      <trkpt lat="40.815079" lon="-3.861527">
        <ele>2105.7</ele>
        <time>2018-04-21T08:09:22.000Z</time>
      </trkpt>
      <trkpt lat="40.815078" lon="-3.86154">
        <ele>2105.8</ele>
        <time>2018-04-21T08:09:23.000Z</time>
      </trkpt>
      <trkpt lat="40.815077" lon="-3.861553">
        <ele>2105.9</ele>
        <time>2018-04-21T08:09:24.000Z</time>
      </trkpt>
      <trkpt lat="40.815076" lon="-3.861565">
        <ele>2106.1</ele>
        <time>2018-04-21T08:09:25.000Z</time>
      </trkpt>
      <trkpt lat="40.815076" lon="-3.861577">
        <ele>2106.2</ele>
        <time>2018-04-21T08:09:26.000Z</time>
      </trkpt>
      <trkpt lat="40.815075" lon="-3.86159">
        <ele>2106.3</ele>
        <time>2018-04-21T08:09:27.000Z</time>
      </trkpt>
      <trkpt lat="40.815074" lon="-3.861604">
        <ele>2106.4</ele>
        <time>2018-04-21T08:09:28.000Z</time>
      </trkpt>
      <trkpt lat="40.815074" lon="-3.861619">
        <ele>2106.6</ele>
        <time>2018-04-21T08:09:29.000Z</time>
      </trkpt>
      <trkpt lat="40.815074" lon="-3.861635">
        <ele>2106.7</ele>
        <time>2018-04-21T08:09:30.000Z</time>
      </trkpt>
      <trkpt lat="40.815074" lon="-3.861649">
        <ele>2106.9</ele>
        <time>2018-04-21T08:09:31.000Z</time>
      </trkpt>
      <trkpt lat="40.815074" lon="-3.861663">
        <ele>2107.0</ele>
        <time>2018-04-21T08:09:32.000Z</time>
      </trkpt>
      <trkpt lat="40.815075" lon="-3.861674">
        <ele>2107.1</ele>
        <time>2018-04-21T08:09:33.000Z</time>
      </trkpt>
      <trkpt lat="40.815076" lon="-3.861683">
        <ele>2107.1</ele>
        <time>2018-04-21T08:09:34.000Z</time>
      </trkpt>
      <trkpt lat="40.815076" lon="-3.86169">
        <ele>2107.1</ele>
        <time>2018-04-21T08:09:35.000Z</time>
      </trkpt>
      <trkpt lat="40.815077" lon="-3.861696">
        <ele>2107.2</ele>
        <time>2018-04-21T08:09:36.000Z</time>
      </trkpt>
      <trkpt lat="40.815076" lon="-3.861699">
        <ele>2107.2</ele>
        <time>2018-04-21T08:09:37.000Z</time>
      </trkpt>
      <trkpt lat="40.815076" lon="-3.861703">
        <ele>2107.2</ele>
        <time>2018-04-21T08:09:38.000Z</time>
      </trkpt>
      <trkpt lat="40.815075" lon="-3.861706">
        <ele>2107.2</ele>
        <time>2018-04-21T08:09:39.000Z</time>
      </trkpt>
      <trkpt lat="40.815073" lon="-3.861711">
        <ele>2107.3</ele>
        <time>2018-04-21T08:09:40.000Z</time>
      </trkpt>
      <trkpt lat="40.815072" lon="-3.861719">
        <ele>2107.4</ele>
        <time>2018-04-21T08:09:41.000Z</time>
      </trkpt>
      <trkpt lat="40.81507" lon="-3.86173">
        <ele>2107.5</ele>
        <time>2018-04-21T08:09:42.000Z</time>
      </trkpt>
      <trkpt lat="40.815069" lon="-3.861744">
        <ele>2107.6</ele>
        <time>2018-04-21T08:09:43.000Z</time>
      </trkpt>
      <trkpt lat="40.815066" lon="-3.861759">
        <ele>2107.7</ele>
        <time>2018-04-21T08:09:44.000Z</time>
      </trkpt>
      <trkpt lat="40.815064" lon="-3.861774">
        <ele>2107.8</ele>
        <time>2018-04-21T08:09:45.000Z</time>
      </trkpt>
      <trkpt lat="40.81506" lon="-3.861789">
        <ele>2108.0</ele>
        <time>2018-04-21T08:09:46.000Z</time>
      </trkpt>
      <trkpt lat="40.815056" lon="-3.861803">
        <ele>2108.1</ele>
        <time>2018-04-21T08:09:47.000Z</time>
      </trkpt>
      <trkpt lat="40.815051" lon="-3.861816">
        <ele>2108.3</ele>
        <time>2018-04-21T08:09:48.000Z</time>
      </trkpt>
      <trkpt lat="40.815046" lon="-3.861829">
        <ele>2108.4</ele>
        <time>2018-04-21T08:09:49.000Z</time>
      </trkpt>
      <trkpt lat="40.81504" lon="-3.861841">
        <ele>2108.6</ele>
        <time>2018-04-21T08:09:50.000Z</time>
      </trkpt>
      <trkpt lat="40.815034" lon="-3.861854">
        <ele>2108.8</ele>
        <time>2018-04-21T08:09:51.000Z</time>
      </trkpt>
      <trkpt lat="40.815028" lon="-3.861866">
        <ele>2109.0</ele>
        <time>2018-04-21T08:09:52.000Z</time>
      </trkpt>
      <trkpt lat="40.815023" lon="-3.861879">
        <ele>2109.1</ele>
        <time>2018-04-21T08:09:53.000Z</time>
      </trkpt>
      <trkpt lat="40.815018" lon="-3.861892">
        <ele>2109.3</ele>
        <time>2018-04-21T08:09:54.000Z</time>
      </trkpt>
      <trkpt lat="40.815015" lon="-3.861905">
        <ele>2109.5</ele>
        <time>2018-04-21T08:09:55.000Z</time>
      </trkpt>
      <trkpt lat="40.815012" lon="-3.86192">
        <ele>2109.6</ele>
        <time>2018-04-21T08:09:56.000Z</time>
      </trkpt>
      <trkpt lat="40.81501" lon="-3.861934">
        <ele>2109.8</ele>
        <time>2018-04-21T08:09:57.000Z</time>
      </trkpt>
      <trkpt lat="40.815009" lon="-3.861949">
        <ele>2109.9</ele>
        <time>2018-04-21T08:09:58.000Z</time>
      </trkpt>
      <trkpt lat="40.815008" lon="-3.861964">
        <ele>2110.0</ele>
        <time>2018-04-21T08:09:59.000Z</time>
      </trkpt>
      <trkpt lat="40.815007" lon="-3.86198">
        <ele>2110.1</ele>
        <time>2018-04-21T08:10:00.000Z</time>
      </trkpt>
      <trkpt lat="40.815005" lon="-3.861995">
        <ele>2110.3</ele>
        <time>2018-04-21T08:10:01.000Z</time>
      </trkpt>
      <trkpt lat="40.815003" lon="-3.862009">
        <ele>2110.4</ele>
        <time>2018-04-21T08:10:02.000Z</time>
      </trkpt>
      <trkpt lat="40.815" lon="-3.862024">
        <ele>2110.6</ele>
        <time>2018-04-21T08:10:03.000Z</time>
      </trkpt>
      <trkpt lat="40.814996" lon="-3.862037">
        <ele>2110.5</ele>
        <time>2018-04-21T08:10:04.000Z</time>
      </trkpt>
      <trkpt lat="40.814991" lon="-3.862051">
        <ele>2110.5</ele>
        <time>2018-04-21T08:10:05.000Z</time>
      </trkpt>
      <trkpt lat="40.814985" lon="-3.862063">
        <ele>2110.4</ele>
        <time>2018-04-21T08:10:06.000Z</time>
      </trkpt>
      <trkpt lat="40.814978" lon="-3.862076">
        <ele>2110.3</ele>
        <time>2018-04-21T08:10:07.000Z</time>
      </trkpt>
      <trkpt lat="40.814971" lon="-3.862088">
        <ele>2110.2</ele>
        <time>2018-04-21T08:10:08.000Z</time>
      </trkpt>
      <trkpt lat="40.814964" lon="-3.862099">
        <ele>2110.0</ele>
        <time>2018-04-21T08:10:09.000Z</time>
      </trkpt>
      <trkpt lat="40.814956" lon="-3.86211">
        <ele>2109.9</ele>
        <time>2018-04-21T08:10:10.000Z</time>
      </trkpt>
      <trkpt lat="40.814948" lon="-3.862121">
        <ele>2109.7</ele>
        <time>2018-04-21T08:10:11.000Z</time>
      </trkpt>
      <trkpt lat="40.814941" lon="-3.862131">
        <ele>2109.6</ele>
        <time>2018-04-21T08:10:12.000Z</time>
      </trkpt>
      <trkpt lat="40.814933" lon="-3.862141">
        <ele>2109.4</ele>
        <time>2018-04-21T08:10:13.000Z</time>
      </trkpt>
      <trkpt lat="40.814926" lon="-3.862151">
        <ele>2109.3</ele>
        <time>2018-04-21T08:10:14.000Z</time>
      </trkpt>
      <trkpt lat="40.814919" lon="-3.862161">
        <ele>2109.2</ele>
        <time>2018-04-21T08:10:15.000Z</time>
      </trkpt>
      <trkpt lat="40.814912" lon="-3.86217">
        <ele>2109.1</ele>
        <time>2018-04-21T08:10:16.000Z</time>
      </trkpt>
      <trkpt lat="40.814906" lon="-3.86218">
        <ele>2109.0</ele>
        <time>2018-04-21T08:10:17.000Z</time>
      </trkpt>
      <trkpt lat="40.8149" lon="-3.862189">
        <ele>2108.9</ele>
        <time>2018-04-21T08:10:18.000Z</time>
      </trkpt>
      <trkpt lat="40.814894" lon="-3.862199">
        <ele>2108.8</ele>
        <time>2018-04-21T08:10:19.000Z</time>
      </trkpt>
      <trkpt lat="40.814889" lon="-3.862209">
        <ele>2108.7</ele>
        <time>2018-04-21T08:10:20.000Z</time>
      </trkpt>
      <trkpt lat="40.814884" lon="-3.86222">
        <ele>2108.7</ele>
        <time>2018-04-21T08:10:21.000Z</time>
      </trkpt>
      <trkpt lat="40.814879" lon="-3.86223">
        <ele>2108.6</ele>
        <time>2018-04-21T08:10:22.000Z</time>
      </trkpt>
      <trkpt lat="40.814875" lon="-3.862241">
        <ele>2108.6</ele>
        <time>2018-04-21T08:10:23.000Z</time>
      </trkpt>
      <trkpt lat="40.814871" lon="-3.862253">
        <ele>2108.6</ele>
        <time>2018-04-21T08:10:24.000Z</time>
      </trkpt>
      <trkpt lat="40.814867" lon="-3.862265">
        <ele>2108.6</ele>
        <time>2018-04-21T08:10:25.000Z</time>
      </trkpt>
      <trkpt lat="40.814863" lon="-3.862276">
        <ele>2108.6</ele>
        <time>2018-04-21T08:10:26.000Z</time>
      </trkpt>
      <trkpt lat="40.814859" lon="-3.862288">
        <ele>2108.6</ele>
        <time>2018-04-21T08:10:27.000Z</time>
      </trkpt>
      <trkpt lat="40.814855" lon="-3.862301">
        <ele>2108.6</ele>
        <time>2018-04-21T08:10:28.000Z</time>
      </trkpt>
      <trkpt lat="40.814851" lon="-3.862313">
        <ele>2108.6</ele>
        <time>2018-04-21T08:10:29.000Z</time>
      </trkpt>
      <trkpt lat="40.814847" lon="-3.862325">
        <ele>2108.6</ele>
        <time>2018-04-21T08:10:30.000Z</time>
      </trkpt>
      <trkpt lat="40.814843" lon="-3.862338">
        <ele>2108.6</ele>
        <time>2018-04-21T08:10:31.000Z</time>
      </trkpt>
      <trkpt lat="40.814838" lon="-3.86235">
        <ele>2108.6</ele>
        <time>2018-04-21T08:10:32.000Z</time>
      </trkpt>
      <trkpt lat="40.814834" lon="-3.862362">
        <ele>2108.6</ele>
        <time>2018-04-21T08:10:33.000Z</time>
      </trkpt>
      <trkpt lat="40.814829" lon="-3.862375">
        <ele>2108.5</ele>
        <time>2018-04-21T08:10:34.000Z</time>
      </trkpt>
      <trkpt lat="40.814825" lon="-3.862388">
        <ele>2108.6</ele>
        <time>2018-04-21T08:10:35.000Z</time>
      </trkpt>
      <trkpt lat="40.814822" lon="-3.862401">
        <ele>2108.6</ele>
        <time>2018-04-21T08:10:36.000Z</time>
      </trkpt>
      <trkpt lat="40.81482" lon="-3.862414">
        <ele>2108.7</ele>
        <time>2018-04-21T08:10:37.000Z</time>
      </trkpt>
      <trkpt lat="40.814818" lon="-3.862428">
        <ele>2108.7</ele>
        <time>2018-04-21T08:10:38.000Z</time>
      </trkpt>
      <trkpt lat="40.814817" lon="-3.862443">
        <ele>2108.9</ele>
        <time>2018-04-21T08:10:39.000Z</time>
      </trkpt>
      <trkpt lat="40.814818" lon="-3.862458">
        <ele>2109.0</ele>
        <time>2018-04-21T08:10:40.000Z</time>
      </trkpt>
      <trkpt lat="40.814819" lon="-3.862473">
        <ele>2109.2</ele>
        <time>2018-04-21T08:10:41.000Z</time>
      </trkpt>
      <trkpt lat="40.81482" lon="-3.862488">
        <ele>2109.4</ele>
        <time>2018-04-21T08:10:42.000Z</time>
      </trkpt>
      <trkpt lat="40.814821" lon="-3.862503">
        <ele>2109.5</ele>
        <time>2018-04-21T08:10:43.000Z</time>
      </trkpt>
      <trkpt lat="40.81482" lon="-3.862518">
        <ele>2109.5</ele>
        <time>2018-04-21T08:10:44.000Z</time>
      </trkpt>
      <trkpt lat="40.814817" lon="-3.862532">
        <ele>2109.5</ele>
        <time>2018-04-21T08:10:45.000Z</time>
      </trkpt>
      <trkpt lat="40.814813" lon="-3.862545">
        <ele>2109.4</ele>
        <time>2018-04-21T08:10:46.000Z</time>
      </trkpt>
      <trkpt lat="40.814809" lon="-3.862558">
        <ele>2109.4</ele>
        <time>2018-04-21T08:10:47.000Z</time>
      </trkpt>
      <trkpt lat="40.814805" lon="-3.862571">
        <ele>2109.3</ele>
        <time>2018-04-21T08:10:48.000Z</time>
      </trkpt>
      <trkpt lat="40.814802" lon="-3.862584">
        <ele>2109.3</ele>
        <time>2018-04-21T08:10:49.000Z</time>
      </trkpt>
      <trkpt lat="40.8148" lon="-3.862598">
        <ele>2109.3</ele>
        <time>2018-04-21T08:10:50.000Z</time>
      </trkpt>
      <trkpt lat="40.814799" lon="-3.862611">
        <ele>2109.3</ele>
        <time>2018-04-21T08:10:51.000Z</time>
      </trkpt>
      <trkpt lat="40.814799" lon="-3.862625">
        <ele>2109.3</ele>
        <time>2018-04-21T08:10:52.000Z</time>
      </trkpt>
      <trkpt lat="40.814799" lon="-3.862639">
        <ele>2109.4</ele>
        <time>2018-04-21T08:10:53.000Z</time>
      </trkpt>
      <trkpt lat="40.8148" lon="-3.862654">
        <ele>2109.4</ele>
        <time>2018-04-21T08:10:54.000Z</time>
      </trkpt>
      <trkpt lat="40.814802" lon="-3.862667">
        <ele>2109.5</ele>
        <time>2018-04-21T08:10:55.000Z</time>
      </trkpt>
      <trkpt lat="40.814804" lon="-3.862681">
        <ele>2109.6</ele>
        <time>2018-04-21T08:10:56.000Z</time>
      </trkpt>
      <trkpt lat="40.814806" lon="-3.862695">
        <ele>2109.7</ele>
        <time>2018-04-21T08:10:57.000Z</time>
      </trkpt>
      <trkpt lat="40.814808" lon="-3.862708">
        <ele>2109.8</ele>
        <time>2018-04-21T08:10:58.000Z</time>
      </trkpt>
      <trkpt lat="40.81481" lon="-3.862721">
        <ele>2109.8</ele>
        <time>2018-04-21T08:10:59.000Z</time>
      </trkpt>
      <trkpt lat="40.814813" lon="-3.862733">
        <ele>2109.9</ele>
        <time>2018-04-21T08:11:00.000Z</time>
      </trkpt>
      <trkpt lat="40.814815" lon="-3.862746">
        <ele>2110.0</ele>
        <time>2018-04-21T08:11:01.000Z</time>
      </trkpt>
      <trkpt lat="40.814816" lon="-3.862758">
        <ele>2110.0</ele>
        <time>2018-04-21T08:11:02.000Z</time>
      </trkpt>
      <trkpt lat="40.814818" lon="-3.862771">
        <ele>2110.1</ele>
        <time>2018-04-21T08:11:03.000Z</time>
      </trkpt>
      <trkpt lat="40.814819" lon="-3.862783">
        <ele>2110.2</ele>
        <time>2018-04-21T08:11:04.000Z</time>
      </trkpt>
      <trkpt lat="40.814819" lon="-3.862796">
        <ele>2110.2</ele>
        <time>2018-04-21T08:11:05.000Z</time>
      </trkpt>
      <trkpt lat="40.814819" lon="-3.862809">
        <ele>2110.2</ele>
        <time>2018-04-21T08:11:06.000Z</time>
      </trkpt>
      <trkpt lat="40.814818" lon="-3.862823">
        <ele>2110.2</ele>
        <time>2018-04-21T08:11:07.000Z</time>
      </trkpt>
      <trkpt lat="40.814817" lon="-3.862837">
        <ele>2110.3</ele>
        <time>2018-04-21T08:11:08.000Z</time>
      </trkpt>
      <trkpt lat="40.814815" lon="-3.862851">
        <ele>2110.3</ele>
        <time>2018-04-21T08:11:09.000Z</time>
      </trkpt>
      <trkpt lat="40.814812" lon="-3.862864">
        <ele>2110.3</ele>
        <time>2018-04-21T08:11:10.000Z</time>
      </trkpt>
      <trkpt lat="40.81481" lon="-3.862876">
        <ele>2110.3</ele>
        <time>2018-04-21T08:11:11.000Z</time>
      </trkpt>
      <trkpt lat="40.814807" lon="-3.862888">
        <ele>2110.3</ele>
        <time>2018-04-21T08:11:12.000Z</time>
      </trkpt>
      <trkpt lat="40.814805" lon="-3.862899">
        <ele>2110.3</ele>
        <time>2018-04-21T08:11:13.000Z</time>
      </trkpt>
      <trkpt lat="40.814802" lon="-3.862908">
        <ele>2110.2</ele>
        <time>2018-04-21T08:11:14.000Z</time>
      </trkpt>
      <trkpt lat="40.8148" lon="-3.862915">
        <ele>2110.2</ele>
        <time>2018-04-21T08:11:15.000Z</time>
      </trkpt>
      <trkpt lat="40.814798" lon="-3.862921">
        <ele>2110.2</ele>
        <time>2018-04-21T08:11:16.000Z</time>
      </trkpt>
      <trkpt lat="40.814797" lon="-3.862924">
        <ele>2110.2</ele>
        <time>2018-04-21T08:11:17.000Z</time>
      </trkpt>
      <trkpt lat="40.814796" lon="-3.862927">
        <ele>2110.2</ele>
        <time>2018-04-21T08:11:18.000Z</time>
      </trkpt>
      <trkpt lat="40.814796" lon="-3.862929">
        <ele>2110.2</ele>
        <time>2018-04-21T08:11:19.000Z</time>
      </trkpt>
      <trkpt lat="40.814795" lon="-3.862931">
        <ele>2110.2</ele>
        <time>2018-04-21T08:11:20.000Z</time>
      </trkpt>
      <trkpt lat="40.814795" lon="-3.862933">
        <ele>2110.2</ele>
        <time>2018-04-21T08:11:21.000Z</time>
      </trkpt>
      <trkpt lat="40.814795" lon="-3.862936">
        <ele>2110.2</ele>
        <time>2018-04-21T08:11:22.000Z</time>
      </trkpt>
      <trkpt lat="40.814795" lon="-3.86294">
        <ele>2110.2</ele>
        <time>2018-04-21T08:11:23.000Z</time>
      </trkpt>
      <trkpt lat="40.814795" lon="-3.862945">
        <ele>2110.3</ele>
        <time>2018-04-21T08:11:24.000Z</time>
      </trkpt>
      <trkpt lat="40.814795" lon="-3.862952">
        <ele>2110.3</ele>
        <time>2018-04-21T08:11:25.000Z</time>
      </trkpt>
      <trkpt lat="40.814794" lon="-3.862961">
        <ele>2110.3</ele>
        <time>2018-04-21T08:11:26.000Z</time>
      </trkpt>
      <trkpt lat="40.814794" lon="-3.862971">
        <ele>2110.3</ele>
        <time>2018-04-21T08:11:27.000Z</time>
      </trkpt>
      <trkpt lat="40.814795" lon="-3.862982">
        <ele>2110.4</ele>
        <time>2018-04-21T08:11:28.000Z</time>
      </trkpt>
      <trkpt lat="40.814795" lon="-3.862994">
        <ele>2110.4</ele>
        <time>2018-04-21T08:11:29.000Z</time>
      </trkpt>
      <trkpt lat="40.814795" lon="-3.863006">
        <ele>2110.5</ele>
        <time>2018-04-21T08:11:30.000Z</time>
      </trkpt>
      <trkpt lat="40.814795" lon="-3.863018">
        <ele>2110.5</ele>
        <time>2018-04-21T08:11:31.000Z</time>
      </trkpt>
      <trkpt lat="40.814795" lon="-3.86303">
        <ele>2110.5</ele>
        <time>2018-04-21T08:11:32.000Z</time>
      </trkpt>
      <trkpt lat="40.814796" lon="-3.863041">
        <ele>2110.6</ele>
        <time>2018-04-21T08:11:33.000Z</time>
      </trkpt>
      <trkpt lat="40.814797" lon="-3.863052">
        <ele>2110.6</ele>
        <time>2018-04-21T08:11:34.000Z</time>
      </trkpt>
      <trkpt lat="40.814797" lon="-3.863061">
        <ele>2110.7</ele>
        <time>2018-04-21T08:11:35.000Z</time>
      </trkpt>
      <trkpt lat="40.814798" lon="-3.863069">
        <ele>2110.7</ele>
        <time>2018-04-21T08:11:36.000Z</time>
      </trkpt>
      <trkpt lat="40.814799" lon="-3.863076">
        <ele>2110.7</ele>
        <time>2018-04-21T08:11:37.000Z</time>
      </trkpt>
      <trkpt lat="40.8148" lon="-3.863082">
        <ele>2110.7</ele>
        <time>2018-04-21T08:11:38.000Z</time>
      </trkpt>
      <trkpt lat="40.8148" lon="-3.863086">
        <ele>2110.8</ele>
        <time>2018-04-21T08:11:39.000Z</time>
      </trkpt>
      <trkpt lat="40.8148" lon="-3.863089">
        <ele>2110.8</ele>
        <time>2018-04-21T08:11:40.000Z</time>
      </trkpt>
      <trkpt lat="40.814801" lon="-3.863091">
        <ele>2110.8</ele>
        <time>2018-04-21T08:11:41.000Z</time>
      </trkpt>
      <trkpt lat="40.814801" lon="-3.863094">
        <ele>2110.8</ele>
        <time>2018-04-21T08:11:42.000Z</time>
      </trkpt>
      <trkpt lat="40.814802" lon="-3.863098">
        <ele>2110.8</ele>
        <time>2018-04-21T08:11:43.000Z</time>
      </trkpt>
      <trkpt lat="40.814803" lon="-3.863103">
        <ele>2110.8</ele>
        <time>2018-04-21T08:11:44.000Z</time>
      </trkpt>
      <trkpt lat="40.814804" lon="-3.863109">
        <ele>2110.9</ele>
        <time>2018-04-21T08:11:45.000Z</time>
      </trkpt>
      <trkpt lat="40.814805" lon="-3.863115">
        <ele>2110.9</ele>
        <time>2018-04-21T08:11:46.000Z</time>
      </trkpt>
      <trkpt lat="40.814806" lon="-3.863121">
        <ele>2110.9</ele>
        <time>2018-04-21T08:11:47.000Z</time>
      </trkpt>
      <trkpt lat="40.814807" lon="-3.863129">
        <ele>2110.9</ele>
        <time>2018-04-21T08:11:48.000Z</time>
      </trkpt>
      <trkpt lat="40.814808" lon="-3.863136">
        <ele>2111.0</ele>
        <time>2018-04-21T08:11:49.000Z</time>
      </trkpt>
      <trkpt lat="40.814808" lon="-3.863144">
        <ele>2111.0</ele>
        <time>2018-04-21T08:11:50.000Z</time>
      </trkpt>
      <trkpt lat="40.814808" lon="-3.863152">
        <ele>2111.0</ele>
        <time>2018-04-21T08:11:51.000Z</time>
      </trkpt>
      <trkpt lat="40.814807" lon="-3.86316">
        <ele>2111.0</ele>
        <time>2018-04-21T08:11:52.000Z</time>
      </trkpt>
      <trkpt lat="40.814807" lon="-3.863168">
        <ele>2111.1</ele>
        <time>2018-04-21T08:11:53.000Z</time>
      </trkpt>
      <trkpt lat="40.814805" lon="-3.863176">
        <ele>2111.1</ele>
        <time>2018-04-21T08:11:54.000Z</time>
      </trkpt>
      <trkpt lat="40.814804" lon="-3.863185">
        <ele>2111.1</ele>
        <time>2018-04-21T08:11:55.000Z</time>
      </trkpt>
      <trkpt lat="40.814803" lon="-3.863194">
        <ele>2111.1</ele>
        <time>2018-04-21T08:11:56.000Z</time>
      </trkpt>
      <trkpt lat="40.814802" lon="-3.863203">
        <ele>2111.1</ele>
        <time>2018-04-21T08:11:57.000Z</time>
      </trkpt>
      <trkpt lat="40.814801" lon="-3.863212">
        <ele>2111.2</ele>
        <time>2018-04-21T08:11:58.000Z</time>
      </trkpt>
      <trkpt lat="40.8148" lon="-3.863222">
        <ele>2111.2</ele>
        <time>2018-04-21T08:11:59.000Z</time>
      </trkpt>
      <trkpt lat="40.814799" lon="-3.863233">
        <ele>2111.2</ele>
        <time>2018-04-21T08:12:00.000Z</time>
      </trkpt>
      <trkpt lat="40.8148" lon="-3.863243">
        <ele>2111.2</ele>
        <time>2018-04-21T08:12:01.000Z</time>
      </trkpt>
      <trkpt lat="40.8148" lon="-3.863255">
        <ele>2111.3</ele>
        <time>2018-04-21T08:12:02.000Z</time>
      </trkpt>
      <trkpt lat="40.814801" lon="-3.863266">
        <ele>2111.3</ele>
        <time>2018-04-21T08:12:03.000Z</time>
      </trkpt>
      <trkpt lat="40.814802" lon="-3.863277">
        <ele>2111.4</ele>
        <time>2018-04-21T08:12:04.000Z</time>
      </trkpt>
      <trkpt lat="40.814803" lon="-3.863288">
        <ele>2111.4</ele>
        <time>2018-04-21T08:12:05.000Z</time>
      </trkpt>
      <trkpt lat="40.814804" lon="-3.863298">
        <ele>2111.4</ele>
        <time>2018-04-21T08:12:06.000Z</time>
      </trkpt>
      <trkpt lat="40.814805" lon="-3.863307">
        <ele>2111.5</ele>
        <time>2018-04-21T08:12:07.000Z</time>
      </trkpt>
      <trkpt lat="40.814806" lon="-3.863316">
        <ele>2111.5</ele>
        <time>2018-04-21T08:12:08.000Z</time>
      </trkpt>
      <trkpt lat="40.814807" lon="-3.863323">
        <ele>2111.5</ele>
        <time>2018-04-21T08:12:09.000Z</time>
      </trkpt>
      <trkpt lat="40.814808" lon="-3.863329">
        <ele>2111.5</ele>
        <time>2018-04-21T08:12:10.000Z</time>
      </trkpt>
      <trkpt lat="40.814808" lon="-3.863333">
        <ele>2111.5</ele>
        <time>2018-04-21T08:12:11.000Z</time>
      </trkpt>
      <trkpt lat="40.814809" lon="-3.863337">
        <ele>2111.5</ele>
        <time>2018-04-21T08:12:12.000Z</time>
      </trkpt>
      <trkpt lat="40.814809" lon="-3.863339">
        <ele>2111.5</ele>
        <time>2018-04-21T08:12:13.000Z</time>
      </trkpt>
      <trkpt lat="40.814809" lon="-3.863341">
        <ele>2111.5</ele>
        <time>2018-04-21T08:12:14.000Z</time>
      </trkpt>
      <trkpt lat="40.814809" lon="-3.863344">
        <ele>2111.5</ele>
        <time>2018-04-21T08:12:15.000Z</time>
      </trkpt>
      <trkpt lat="40.81481" lon="-3.863347">
        <ele>2111.4</ele>
        <time>2018-04-21T08:12:16.000Z</time>
      </trkpt>
      <trkpt lat="40.81481" lon="-3.863351">
        <ele>2111.4</ele>
        <time>2018-04-21T08:12:17.000Z</time>
      </trkpt>
      <trkpt lat="40.814811" lon="-3.863357">
        <ele>2111.4</ele>
        <time>2018-04-21T08:12:18.000Z</time>
      </trkpt>
      <trkpt lat="40.814812" lon="-3.863364">
        <ele>2111.3</ele>
        <time>2018-04-21T08:12:19.000Z</time>
      </trkpt>
      <trkpt lat="40.814813" lon="-3.863373">
        <ele>2111.3</ele>
        <time>2018-04-21T08:12:20.000Z</time>
      </trkpt>
      <trkpt lat="40.814814" lon="-3.863382">
        <ele>2111.2</ele>
        <time>2018-04-21T08:12:21.000Z</time>
      </trkpt>
      <trkpt lat="40.814815" lon="-3.863392">
        <ele>2111.1</ele>
        <time>2018-04-21T08:12:22.000Z</time>
      </trkpt>
      <trkpt lat="40.814816" lon="-3.863401">
        <ele>2111.1</ele>
        <time>2018-04-21T08:12:23.000Z</time>
      </trkpt>
      <trkpt lat="40.814817" lon="-3.863407">
        <ele>2111.0</ele>
        <time>2018-04-21T08:12:24.000Z</time>
      </trkpt>
      <trkpt lat="40.814817" lon="-3.863411">
        <ele>2111.0</ele>
        <time>2018-04-21T08:12:25.000Z</time>
      </trkpt>
      <trkpt lat="40.814817" lon="-3.863413">
        <ele>2111.0</ele>
        <time>2018-04-21T08:12:26.000Z</time>
      </trkpt>
      <trkpt lat="40.814817" lon="-3.863414">
        <ele>2111.0</ele>
        <time>2018-04-21T08:12:27.000Z</time>
      </trkpt>
      <trkpt lat="40.814817" lon="-3.863413">
        <ele>2111.0</ele>
        <time>2018-04-21T08:12:28.000Z</time>
      </trkpt>
      <trkpt lat="40.814817" lon="-3.863412">
        <ele>2111.0</ele>
        <time>2018-04-21T08:12:29.000Z</time>
      </trkpt>
      <trkpt lat="40.814817" lon="-3.863412">
        <ele>2111.0</ele>
        <time>2018-04-21T08:12:30.000Z</time>
      </trkpt>
      <trkpt lat="40.814817" lon="-3.863414">
        <ele>2111.0</ele>
        <time>2018-04-21T08:12:31.000Z</time>
      </trkpt>
      <trkpt lat="40.814818" lon="-3.863416">
        <ele>2111.0</ele>
        <time>2018-04-21T08:12:32.000Z</time>
      </trkpt>
      <trkpt lat="40.814818" lon="-3.863422">
        <ele>2110.9</ele>
        <time>2018-04-21T08:12:33.000Z</time>
      </trkpt>
      <trkpt lat="40.814819" lon="-3.86343">
        <ele>2110.9</ele>
        <time>2018-04-21T08:12:34.000Z</time>
      </trkpt>
      <trkpt lat="40.814819" lon="-3.863441">
        <ele>2110.8</ele>
        <time>2018-04-21T08:12:35.000Z</time>
      </trkpt>
      <trkpt lat="40.81482" lon="-3.863452">
        <ele>2110.7</ele>
        <time>2018-04-21T08:12:36.000Z</time>
      </trkpt>
      <trkpt lat="40.814821" lon="-3.863464">
        <ele>2110.6</ele>
        <time>2018-04-21T08:12:37.000Z</time>
      </trkpt>
      <trkpt lat="40.814822" lon="-3.863476">
        <ele>2110.5</ele>
        <time>2018-04-21T08:12:38.000Z</time>
      </trkpt>
      <trkpt lat="40.814823" lon="-3.863487">
        <ele>2110.5</ele>
        <time>2018-04-21T08:12:39.000Z</time>
      </trkpt>
      <trkpt lat="40.814824" lon="-3.863497">
        <ele>2110.4</ele>
        <time>2018-04-21T08:12:40.000Z</time>
      </trkpt>
      <trkpt lat="40.814825" lon="-3.863507">
        <ele>2110.3</ele>
        <time>2018-04-21T08:12:41.000Z</time>
      </trkpt>
      <trkpt lat="40.814825" lon="-3.863516">
        <ele>2110.2</ele>
        <time>2018-04-21T08:12:42.000Z</time>
      </trkpt>
      <trkpt lat="40.814825" lon="-3.863525">
        <ele>2110.2</ele>
        <time>2018-04-21T08:12:43.000Z</time>
      </trkpt>
      <trkpt lat="40.814825" lon="-3.863533">
        <ele>2110.1</ele>
        <time>2018-04-21T08:12:44.000Z</time>
      </trkpt>
      <trkpt lat="40.814825" lon="-3.86354">
        <ele>2110.1</ele>
        <time>2018-04-21T08:12:45.000Z</time>
      </trkpt>
      <trkpt lat="40.814824" lon="-3.863548">
        <ele>2110.0</ele>
        <time>2018-04-21T08:12:46.000Z</time>
      </trkpt>
      <trkpt lat="40.814822" lon="-3.863554">
        <ele>2110.0</ele>
        <time>2018-04-21T08:12:47.000Z</time>
      </trkpt>
      <trkpt lat="40.81482" lon="-3.86356">
        <ele>2109.9</ele>
        <time>2018-04-21T08:12:48.000Z</time>
      </trkpt>
      <trkpt lat="40.814817" lon="-3.863566">
        <ele>2109.9</ele>
        <time>2018-04-21T08:12:49.000Z</time>
      </trkpt>
      <trkpt lat="40.814813" lon="-3.863572">
        <ele>2109.8</ele>
        <time>2018-04-21T08:12:50.000Z</time>
      </trkpt>
      <trkpt lat="40.814809" lon="-3.863577">
        <ele>2109.8</ele>
        <time>2018-04-21T08:12:51.000Z</time>
      </trkpt>
      <trkpt lat="40.814804" lon="-3.863581">
        <ele>2109.8</ele>
        <time>2018-04-21T08:12:52.000Z</time>
      </trkpt>
      <trkpt lat="40.814798" lon="-3.863585">
        <ele>2109.8</ele>
        <time>2018-04-21T08:12:53.000Z</time>
      </trkpt>
      <trkpt lat="40.81479" lon="-3.863589">
        <ele>2109.7</ele>
        <time>2018-04-21T08:12:54.000Z</time>
      </trkpt>
      <trkpt lat="40.814782" lon="-3.863593">
        <ele>2109.7</ele>
        <time>2018-04-21T08:12:55.000Z</time>
      </trkpt>
      <trkpt lat="40.814773" lon="-3.863596">
        <ele>2109.7</ele>
        <time>2018-04-21T08:12:56.000Z</time>
      </trkpt>
      <trkpt lat="40.814763" lon="-3.863598">
        <ele>2109.7</ele>
        <time>2018-04-21T08:12:57.000Z</time>
      </trkpt>
      <trkpt lat="40.814753" lon="-3.8636">
        <ele>2109.7</ele>
        <time>2018-04-21T08:12:58.000Z</time>
      </trkpt>
      <trkpt lat="40.814743" lon="-3.863601">
        <ele>2109.7</ele>
        <time>2018-04-21T08:12:59.000Z</time>
      </trkpt>
      <trkpt lat="40.814733" lon="-3.863601">
        <ele>2109.7</ele>
        <time>2018-04-21T08:13:00.000Z</time>
      </trkpt>
      <trkpt lat="40.814725" lon="-3.8636">
        <ele>2109.7</ele>
        <time>2018-04-21T08:13:01.000Z</time>
      </trkpt>
      <trkpt lat="40.814718" lon="-3.863598">
        <ele>2109.7</ele>
        <time>2018-04-21T08:13:02.000Z</time>
      </trkpt>
      <trkpt lat="40.81471" lon="-3.863596">
        <ele>2109.8</ele>
        <time>2018-04-21T08:13:03.000Z</time>
      </trkpt>
      <trkpt lat="40.814703" lon="-3.863595">
        <ele>2109.8</ele>
        <time>2018-04-21T08:13:04.000Z</time>
      </trkpt>
      <trkpt lat="40.814695" lon="-3.863593">
        <ele>2109.8</ele>
        <time>2018-04-21T08:13:05.000Z</time>
      </trkpt>
      <trkpt lat="40.814687" lon="-3.863593">
        <ele>2109.8</ele>
        <time>2018-04-21T08:13:06.000Z</time>
      </trkpt>
      <trkpt lat="40.814679" lon="-3.863593">
        <ele>2109.8</ele>
        <time>2018-04-21T08:13:07.000Z</time>
      </trkpt>
      <trkpt lat="40.814671" lon="-3.863594">
        <ele>2109.8</ele>
        <time>2018-04-21T08:13:08.000Z</time>
      </trkpt>
      <trkpt lat="40.814662" lon="-3.863596">
        <ele>2109.8</ele>
        <time>2018-04-21T08:13:09.000Z</time>
      </trkpt>
      <trkpt lat="40.814654" lon="-3.863598">
        <ele>2109.8</ele>
        <time>2018-04-21T08:13:10.000Z</time>
      </trkpt>
      <trkpt lat="40.814647" lon="-3.863602">
        <ele>2109.8</ele>
        <time>2018-04-21T08:13:11.000Z</time>
      </trkpt>
      <trkpt lat="40.81464" lon="-3.863606">
        <ele>2109.8</ele>
        <time>2018-04-21T08:13:12.000Z</time>
      </trkpt>
      <trkpt lat="40.814634" lon="-3.86361">
        <ele>2109.8</ele>
        <time>2018-04-21T08:13:13.000Z</time>
      </trkpt>
      <trkpt lat="40.814629" lon="-3.863616">
        <ele>2109.8</ele>
        <time>2018-04-21T08:13:14.000Z</time>
      </trkpt>
      <trkpt lat="40.814625" lon="-3.863622">
        <ele>2109.7</ele>
        <time>2018-04-21T08:13:15.000Z</time>
      </trkpt>
      <trkpt lat="40.814621" lon="-3.863629">
        <ele>2109.7</ele>
        <time>2018-04-21T08:13:16.000Z</time>
      </trkpt>
      <trkpt lat="40.814618" lon="-3.863636">
        <ele>2109.7</ele>
        <time>2018-04-21T08:13:17.000Z</time>
      </trkpt>
      <trkpt lat="40.814615" lon="-3.863644">
        <ele>2109.6</ele>
        <time>2018-04-21T08:13:18.000Z</time>
      </trkpt>
      <trkpt lat="40.814612" lon="-3.863653">
        <ele>2109.6</ele>
        <time>2018-04-21T08:13:19.000Z</time>
      </trkpt>
      <trkpt lat="40.81461" lon="-3.863662">
        <ele>2109.6</ele>
        <time>2018-04-21T08:13:20.000Z</time>
      </trkpt>
      <trkpt lat="40.814607" lon="-3.863671">
        <ele>2109.5</ele>
        <time>2018-04-21T08:13:21.000Z</time>
      </trkpt>
      <trkpt lat="40.814604" lon="-3.86368">
        <ele>2109.5</ele>
        <time>2018-04-21T08:13:22.000Z</time>
      </trkpt>
      <trkpt lat="40.8146" lon="-3.86369">
        <ele>2109.5</ele>
        <time>2018-04-21T08:13:23.000Z</time>
      </trkpt>
      <trkpt lat="40.814597" lon="-3.8637">
        <ele>2109.4</ele>
        <time>2018-04-21T08:13:24.000Z</time>
      </trkpt>
      <trkpt lat="40.814592" lon="-3.86371">
        <ele>2109.4</ele>
        <time>2018-04-21T08:13:25.000Z</time>
      </trkpt>
      <trkpt lat="40.814587" lon="-3.86372">
        <ele>2109.4</ele>
        <time>2018-04-21T08:13:26.000Z</time>
      </trkpt>
      <trkpt lat="40.814582" lon="-3.86373">
        <ele>2109.3</ele>
        <time>2018-04-21T08:13:27.000Z</time>
      </trkpt>
      <trkpt lat="40.814576" lon="-3.86374">
        <ele>2109.3</ele>
        <time>2018-04-21T08:13:28.000Z</time>
      </trkpt>
      <trkpt lat="40.814571" lon="-3.86375">
        <ele>2109.3</ele>
        <time>2018-04-21T08:13:29.000Z</time>
      </trkpt>
      <trkpt lat="40.814564" lon="-3.863759">
        <ele>2109.3</ele>
        <time>2018-04-21T08:13:30.000Z</time>
      </trkpt>
      <trkpt lat="40.814558" lon="-3.863768">
        <ele>2109.3</ele>
        <time>2018-04-21T08:13:31.000Z</time>
      </trkpt>
      <trkpt lat="40.814551" lon="-3.863776">
        <ele>2109.2</ele>
        <time>2018-04-21T08:13:32.000Z</time>
      </trkpt>
      <trkpt lat="40.814544" lon="-3.863784">
        <ele>2109.2</ele>
        <time>2018-04-21T08:13:33.000Z</time>
      </trkpt>
      <trkpt lat="40.814537" lon="-3.863791">
        <ele>2109.2</ele>
        <time>2018-04-21T08:13:34.000Z</time>
      </trkpt>
      <trkpt lat="40.81453" lon="-3.863797">
        <ele>2109.2</ele>
        <time>2018-04-21T08:13:35.000Z</time>
      </trkpt>
      <trkpt lat="40.814524" lon="-3.863802">
        <ele>2109.2</ele>
        <time>2018-04-21T08:13:36.000Z</time>
      </trkpt>
      <trkpt lat="40.814518" lon="-3.863807">
        <ele>2109.3</ele>
        <time>2018-04-21T08:13:37.000Z</time>
      </trkpt>
      <trkpt lat="40.814514" lon="-3.863811">
        <ele>2109.3</ele>
        <time>2018-04-21T08:13:38.000Z</time>
      </trkpt>
      <trkpt lat="40.81451" lon="-3.863814">
        <ele>2109.3</ele>
        <time>2018-04-21T08:13:39.000Z</time>
      </trkpt>
      <trkpt lat="40.814508" lon="-3.863816">
        <ele>2109.3</ele>
        <time>2018-04-21T08:13:40.000Z</time>
      </trkpt>
      <trkpt lat="40.814507" lon="-3.863816">
        <ele>2109.3</ele>
        <time>2018-04-21T08:13:41.000Z</time>
      </trkpt>
      <trkpt lat="40.814507" lon="-3.863817">
        <ele>2109.3</ele>
        <time>2018-04-21T08:13:42.000Z</time>
      </trkpt>
      <trkpt lat="40.814507" lon="-3.863818">
        <ele>2109.3</ele>
        <time>2018-04-21T08:13:43.000Z</time>
      </trkpt>
      <trkpt lat="40.814507" lon="-3.863821">
        <ele>2109.3</ele>
        <time>2018-04-21T08:13:44.000Z</time>
      </trkpt>
      <trkpt lat="40.814507" lon="-3.863826">
        <ele>2109.2</ele>
        <time>2018-04-21T08:13:45.000Z</time>
      </trkpt>
      <trkpt lat="40.814506" lon="-3.863833">
        <ele>2109.2</ele>
        <time>2018-04-21T08:13:46.000Z</time>
      </trkpt>
      <trkpt lat="40.814503" lon="-3.863843">
        <ele>2109.2</ele>
        <time>2018-04-21T08:13:47.000Z</time>
      </trkpt>
      <trkpt lat="40.8145" lon="-3.863854">
        <ele>2109.2</ele>
        <time>2018-04-21T08:13:48.000Z</time>
      </trkpt>
      <trkpt lat="40.814495" lon="-3.863864">
        <ele>2109.2</ele>
        <time>2018-04-21T08:13:49.000Z</time>
      </trkpt>
      <trkpt lat="40.81449" lon="-3.863873">
        <ele>2109.2</ele>
        <time>2018-04-21T08:13:50.000Z</time>
      </trkpt>
      <trkpt lat="40.814484" lon="-3.86388">
        <ele>2109.2</ele>
        <time>2018-04-21T08:13:51.000Z</time>
      </trkpt>
      <trkpt lat="40.814478" lon="-3.863886">
        <ele>2109.2</ele>
        <time>2018-04-21T08:13:52.000Z</time>
      </trkpt>
      <trkpt lat="40.814472" lon="-3.86389">
        <ele>2109.2</ele>
        <time>2018-04-21T08:13:53.000Z</time>
      </trkpt>
      <trkpt lat="40.814466" lon="-3.863891">
        <ele>2109.2</ele>
        <time>2018-04-21T08:13:54.000Z</time>
      </trkpt>
      <trkpt lat="40.814461" lon="-3.863891">
        <ele>2109.2</ele>
        <time>2018-04-21T08:13:55.000Z</time>
      </trkpt>
      <trkpt lat="40.814455" lon="-3.86389">
        <ele>2109.3</ele>
        <time>2018-04-21T08:13:56.000Z</time>
      </trkpt>
      <trkpt lat="40.81445" lon="-3.863889">
        <ele>2109.3</ele>
        <time>2018-04-21T08:13:57.000Z</time>
      </trkpt>
      <trkpt lat="40.814444" lon="-3.86389">
        <ele>2109.3</ele>
        <time>2018-04-21T08:13:58.000Z</time>
      </trkpt>
      <trkpt lat="40.814436" lon="-3.863892">
        <ele>2109.4</ele>
        <time>2018-04-21T08:13:59.000Z</time>
      </trkpt>
      <trkpt lat="40.814428" lon="-3.863896">
        <ele>2109.4</ele>
        <time>2018-04-21T08:14:00.000Z</time>
      </trkpt>
      <trkpt lat="40.814419" lon="-3.863902">
        <ele>2109.4</ele>
        <time>2018-04-21T08:14:01.000Z</time>
      </trkpt>
      <trkpt lat="40.81441" lon="-3.863909">
        <ele>2109.5</ele>
        <time>2018-04-21T08:14:02.000Z</time>
      </trkpt>
      <trkpt lat="40.814401" lon="-3.863916">
        <ele>2109.5</ele>
        <time>2018-04-21T08:14:03.000Z</time>
      </trkpt>
      <trkpt lat="40.814393" lon="-3.863923">
        <ele>2109.5</ele>
        <time>2018-04-21T08:14:04.000Z</time>
      </trkpt>
      <trkpt lat="40.814385" lon="-3.86393">
        <ele>2109.6</ele>
        <time>2018-04-21T08:14:05.000Z</time>
      </trkpt>
      <trkpt lat="40.814378" lon="-3.863936">
        <ele>2109.6</ele>
        <time>2018-04-21T08:14:06.000Z</time>
      </trkpt>
      <trkpt lat="40.814372" lon="-3.863941">
        <ele>2109.6</ele>
        <time>2018-04-21T08:14:07.000Z</time>
      </trkpt>
      <trkpt lat="40.814368" lon="-3.863944">
        <ele>2109.6</ele>
        <time>2018-04-21T08:14:08.000Z</time>
      </trkpt>
      <trkpt lat="40.814364" lon="-3.863947">
        <ele>2109.6</ele>
        <time>2018-04-21T08:14:09.000Z</time>
      </trkpt>
      <trkpt lat="40.814358" lon="-3.863952">
        <ele>2109.7</ele>
        <time>2018-04-21T08:14:10.000Z</time>
      </trkpt>
      <trkpt lat="40.814351" lon="-3.86396">
        <ele>2109.7</ele>
        <time>2018-04-21T08:14:11.000Z</time>
      </trkpt>
      <trkpt lat="40.814347" lon="-3.863973">
        <ele>2109.7</ele>
        <time>2018-04-21T08:14:12.000Z</time>
      </trkpt>
      <trkpt lat="40.814348" lon="-3.863992">
        <ele>2109.7</ele>
        <time>2018-04-21T08:14:41.000Z</time>
      </trkpt>
      <trkpt lat="40.814348" lon="-3.864006">
        <ele>2109.7</ele>
        <time>2018-04-21T08:14:42.000Z</time>
      </trkpt>
      <trkpt lat="40.814351" lon="-3.864016">
        <ele>2109.6</ele>
        <time>2018-04-21T08:14:43.000Z</time>
      </trkpt>
      <trkpt lat="40.814357" lon="-3.864023">
        <ele>2109.6</ele>
        <time>2018-04-21T08:14:44.000Z</time>
      </trkpt>
      <trkpt lat="40.814363" lon="-3.864031">
        <ele>2109.5</ele>
        <time>2018-04-21T08:14:45.000Z</time>
      </trkpt>
      <trkpt lat="40.814367" lon="-3.864039">
        <ele>2109.5</ele>
        <time>2018-04-21T08:14:46.000Z</time>
      </trkpt>
      <trkpt lat="40.81437" lon="-3.864047">
        <ele>2109.5</ele>
        <time>2018-04-21T08:14:47.000Z</time>
      </trkpt>
      <trkpt lat="40.814372" lon="-3.864056">
        <ele>2109.4</ele>
        <time>2018-04-21T08:14:48.000Z</time>
      </trkpt>
      <trkpt lat="40.814374" lon="-3.864065">
        <ele>2109.4</ele>
        <time>2018-04-21T08:14:49.000Z</time>
      </trkpt>
      <trkpt lat="40.814374" lon="-3.864075">
        <ele>2109.4</ele>
        <time>2018-04-21T08:14:50.000Z</time>
      </trkpt>
      <trkpt lat="40.814375" lon="-3.864086">
        <ele>2109.4</ele>
        <time>2018-04-21T08:14:51.000Z</time>
      </trkpt>
      <trkpt lat="40.814375" lon="-3.864098">
        <ele>2109.4</ele>
        <time>2018-04-21T08:14:52.000Z</time>
      </trkpt>
      <trkpt lat="40.814376" lon="-3.86411">
        <ele>2109.3</ele>
        <time>2018-04-21T08:14:53.000Z</time>
      </trkpt>
      <trkpt lat="40.814376" lon="-3.864123">
        <ele>2109.3</ele>
        <time>2018-04-21T08:14:54.000Z</time>
      </trkpt>
      <trkpt lat="40.814377" lon="-3.864137">
        <ele>2109.3</ele>
        <time>2018-04-21T08:14:55.000Z</time>
      </trkpt>
      <trkpt lat="40.814378" lon="-3.864151">
        <ele>2109.2</ele>
        <time>2018-04-21T08:14:56.000Z</time>
      </trkpt>
      <trkpt lat="40.814379" lon="-3.864165">
        <ele>2109.2</ele>
        <time>2018-04-21T08:14:57.000Z</time>
      </trkpt>
      <trkpt lat="40.81438" lon="-3.864179">
        <ele>2109.1</ele>
        <time>2018-04-21T08:14:58.000Z</time>
      </trkpt>
      <trkpt lat="40.814381" lon="-3.864191">
        <ele>2108.9</ele>
        <time>2018-04-21T08:14:59.000Z</time>
      </trkpt>
      <trkpt lat="40.814383" lon="-3.864203">
        <ele>2108.8</ele>
        <time>2018-04-21T08:15:00.000Z</time>
      </trkpt>
      <trkpt lat="40.814384" lon="-3.864214">
        <ele>2108.6</ele>
        <time>2018-04-21T08:15:01.000Z</time>
      </trkpt>
      <trkpt lat="40.814386" lon="-3.864222">
        <ele>2108.5</ele>
        <time>2018-04-21T08:15:02.000Z</time>
      </trkpt>
      <trkpt lat="40.814388" lon="-3.864229">
        <ele>2108.4</ele>
        <time>2018-04-21T08:15:03.000Z</time>
      </trkpt>
      <trkpt lat="40.81439" lon="-3.864234">
        <ele>2108.4</ele>
        <time>2018-04-21T08:15:04.000Z</time>
      </trkpt>
      <trkpt lat="40.814392" lon="-3.864238">
        <ele>2108.3</ele>
        <time>2018-04-21T08:15:05.000Z</time>
      </trkpt>
      <trkpt lat="40.814394" lon="-3.86424">
        <ele>2108.2</ele>
        <time>2018-04-21T08:15:06.000Z</time>
      </trkpt>
      <trkpt lat="40.814395" lon="-3.864242">
        <ele>2108.2</ele>
        <time>2018-04-21T08:15:07.000Z</time>
      </trkpt>
      <trkpt lat="40.814396" lon="-3.864244">
        <ele>2108.2</ele>
        <time>2018-04-21T08:15:08.000Z</time>
      </trkpt>
      <trkpt lat="40.814396" lon="-3.864246">
        <ele>2108.2</ele>
        <time>2018-04-21T08:15:09.000Z</time>
      </trkpt>
      <trkpt lat="40.814395" lon="-3.864248">
        <ele>2108.1</ele>
        <time>2018-04-21T08:15:10.000Z</time>
      </trkpt>
      <trkpt lat="40.814394" lon="-3.86425">
        <ele>2108.1</ele>
        <time>2018-04-21T08:15:11.000Z</time>
      </trkpt>
      <trkpt lat="40.814391" lon="-3.864254">
        <ele>2108.1</ele>
        <time>2018-04-21T08:15:12.000Z</time>
      </trkpt>
      <trkpt lat="40.814387" lon="-3.864259">
        <ele>2108.1</ele>
        <time>2018-04-21T08:15:13.000Z</time>
      </trkpt>
      <trkpt lat="40.814383" lon="-3.864264">
        <ele>2108.1</ele>
        <time>2018-04-21T08:15:14.000Z</time>
      </trkpt>
      <trkpt lat="40.814377" lon="-3.864271">
        <ele>2108.1</ele>
        <time>2018-04-21T08:15:15.000Z</time>
      </trkpt>
      <trkpt lat="40.81437" lon="-3.86428">
        <ele>2108.0</ele>
        <time>2018-04-21T08:15:16.000Z</time>
      </trkpt>
      <trkpt lat="40.814362" lon="-3.864289">
        <ele>2108.0</ele>
        <time>2018-04-21T08:15:17.000Z</time>
      </trkpt>
      <trkpt lat="40.814355" lon="-3.864299">
        <ele>2108.0</ele>
        <time>2018-04-21T08:15:18.000Z</time>
      </trkpt>
      <trkpt lat="40.814349" lon="-3.864309">
        <ele>2108.0</ele>
        <time>2018-04-21T08:15:19.000Z</time>
      </trkpt>
      <trkpt lat="40.814346" lon="-3.864318">
        <ele>2107.9</ele>
        <time>2018-04-21T08:15:20.000Z</time>
      </trkpt>
      <trkpt lat="40.814347" lon="-3.864325">
        <ele>2107.8</ele>
        <time>2018-04-21T08:15:21.000Z</time>
      </trkpt>
      <trkpt lat="40.814351" lon="-3.86433">
        <ele>2107.7</ele>
        <time>2018-04-21T08:15:22.000Z</time>
      </trkpt>
      <trkpt lat="40.814356" lon="-3.864335">
        <ele>2107.6</ele>
        <time>2018-04-21T08:15:23.000Z</time>
      </trkpt>
      <trkpt lat="40.814362" lon="-3.864337">
        <ele>2107.5</ele>
        <time>2018-04-21T08:15:24.000Z</time>
      </trkpt>
      <trkpt lat="40.814367" lon="-3.864339">
        <ele>2107.4</ele>
        <time>2018-04-21T08:15:25.000Z</time>
      </trkpt>
      <trkpt lat="40.81437" lon="-3.864339">
        <ele>2107.4</ele>
        <time>2018-04-21T08:15:26.000Z</time>
      </trkpt>
      <trkpt lat="40.814372" lon="-3.864339">
        <ele>2107.4</ele>
        <time>2018-04-21T08:15:27.000Z</time>
      </trkpt>
      <trkpt lat="40.814372" lon="-3.864338">
        <ele>2107.4</ele>
        <time>2018-04-21T08:15:28.000Z</time>
      </trkpt>
      <trkpt lat="40.814372" lon="-3.864337">
        <ele>2107.4</ele>
        <time>2018-04-21T08:15:29.000Z</time>
      </trkpt>
      <trkpt lat="40.814372" lon="-3.864337">
        <ele>2107.4</ele>
        <time>2018-04-21T08:15:30.000Z</time>
      </trkpt>
      <trkpt lat="40.814372" lon="-3.864338">
        <ele>2107.4</ele>
        <time>2018-04-21T08:15:31.000Z</time>
      </trkpt>
      <trkpt lat="40.814373" lon="-3.86434">
        <ele>2107.4</ele>
        <time>2018-04-21T08:15:32.000Z</time>
      </trkpt>
      <trkpt lat="40.814374" lon="-3.864342">
        <ele>2107.3</ele>
        <time>2018-04-21T08:15:33.000Z</time>
      </trkpt>
      <trkpt lat="40.814375" lon="-3.864346">
        <ele>2107.3</ele>
        <time>2018-04-21T08:15:34.000Z</time>
      </trkpt>
      <trkpt lat="40.814377" lon="-3.864351">
        <ele>2107.2</ele>
        <time>2018-04-21T08:15:35.000Z</time>
      </trkpt>
      <trkpt lat="40.81438" lon="-3.864356">
        <ele>2107.1</ele>
        <time>2018-04-21T08:15:36.000Z</time>
      </trkpt>
      <trkpt lat="40.814382" lon="-3.864362">
        <ele>2107.0</ele>
        <time>2018-04-21T08:15:37.000Z</time>
      </trkpt>
      <trkpt lat="40.814385" lon="-3.864367">
        <ele>2106.9</ele>
        <time>2018-04-21T08:15:38.000Z</time>
      </trkpt>
      <trkpt lat="40.814387" lon="-3.864371">
        <ele>2106.8</ele>
        <time>2018-04-21T08:15:39.000Z</time>
      </trkpt>
      <trkpt lat="40.814388" lon="-3.864374">
        <ele>2106.8</ele>
        <time>2018-04-21T08:15:40.000Z</time>
      </trkpt>
      <trkpt lat="40.814389" lon="-3.864376">
        <ele>2106.7</ele>
        <time>2018-04-21T08:15:41.000Z</time>
      </trkpt>
      <trkpt lat="40.814389" lon="-3.864377">
        <ele>2106.7</ele>
        <time>2018-04-21T08:15:42.000Z</time>
      </trkpt>
      <trkpt lat="40.81439" lon="-3.864378">
        <ele>2106.7</ele>
        <time>2018-04-21T08:15:43.000Z</time>
      </trkpt>
      <trkpt lat="40.81439" lon="-3.864378">
        <ele>2106.7</ele>
        <time>2018-04-21T08:15:44.000Z</time>
      </trkpt>
      <trkpt lat="40.81439" lon="-3.864378">
        <ele>2106.7</ele>
        <time>2018-04-21T08:15:45.000Z</time>
      </trkpt>
      <trkpt lat="40.81439" lon="-3.864378">
        <ele>2106.7</ele>
        <time>2018-04-21T08:15:46.000Z</time>
      </trkpt>
      <trkpt lat="40.81439" lon="-3.864377">
        <ele>2106.7</ele>
        <time>2018-04-21T08:15:47.000Z</time>
      </trkpt>
      <trkpt lat="40.81439" lon="-3.864377">
        <ele>2106.7</ele>
        <time>2018-04-21T08:15:48.000Z</time>
      </trkpt>
      <trkpt lat="40.81439" lon="-3.864377">
        <ele>2106.7</ele>
        <time>2018-04-21T08:15:49.000Z</time>
      </trkpt>
      <trkpt lat="40.814389" lon="-3.864378">
        <ele>2106.7</ele>
        <time>2018-04-21T08:15:50.000Z</time>
      </trkpt>
      <trkpt lat="40.814388" lon="-3.864379">
        <ele>2106.7</ele>
        <time>2018-04-21T08:15:51.000Z</time>
      </trkpt>
      <trkpt lat="40.814386" lon="-3.864381">
        <ele>2106.7</ele>
        <time>2018-04-21T08:15:52.000Z</time>
      </trkpt>
      <trkpt lat="40.814383" lon="-3.864383">
        <ele>2106.7</ele>
        <time>2018-04-21T08:15:53.000Z</time>
      </trkpt>
      <trkpt lat="40.814379" lon="-3.864386">
        <ele>2106.8</ele>
        <time>2018-04-21T08:15:54.000Z</time>
      </trkpt>
      <trkpt lat="40.814377" lon="-3.864389">
        <ele>2106.8</ele>
        <time>2018-04-21T08:15:55.000Z</time>
      </trkpt>
      <trkpt lat="40.814376" lon="-3.864392">
        <ele>2106.7</ele>
        <time>2018-04-21T08:15:56.000Z</time>
      </trkpt>
      <trkpt lat="40.814378" lon="-3.864394">
        <ele>2106.7</ele>
        <time>2018-04-21T08:15:57.000Z</time>
      </trkpt>
      <trkpt lat="40.814382" lon="-3.864396">
        <ele>2106.6</ele>
        <time>2018-04-21T08:15:58.000Z</time>
      </trkpt>
      <trkpt lat="40.814388" lon="-3.864396">
        <ele>2106.5</ele>
        <time>2018-04-21T08:15:59.000Z</time>
      </trkpt>
      <trkpt lat="40.814394" lon="-3.864395">
        <ele>2106.4</ele>
        <time>2018-04-21T08:16:00.000Z</time>
      </trkpt>
      <trkpt lat="40.814399" lon="-3.864393">
        <ele>2106.4</ele>
        <time>2018-04-21T08:16:01.000Z</time>
      </trkpt>
      <trkpt lat="40.814404" lon="-3.864388">
        <ele>2106.4</ele>
        <time>2018-04-21T08:16:02.000Z</time>
      </trkpt>
      <trkpt lat="40.814408" lon="-3.864382">
        <ele>2106.4</ele>
        <time>2018-04-21T08:16:03.000Z</time>
      </trkpt>
      <trkpt lat="40.814411" lon="-3.864375">
        <ele>2106.5</ele>
        <time>2018-04-21T08:16:04.000Z</time>
      </trkpt>
      <trkpt lat="40.814415" lon="-3.864368">
        <ele>2106.5</ele>
        <time>2018-04-21T08:16:05.000Z</time>
      </trkpt>
      <trkpt lat="40.814418" lon="-3.864361">
        <ele>2106.5</ele>
        <time>2018-04-21T08:16:06.000Z</time>
      </trkpt>
      <trkpt lat="40.814422" lon="-3.864355">
        <ele>2106.5</ele>
        <time>2018-04-21T08:16:07.000Z</time>
      </trkpt>
      <trkpt lat="40.814427" lon="-3.864349">
        <ele>2106.6</ele>
        <time>2018-04-21T08:16:08.000Z</time>
      </trkpt>
      <trkpt lat="40.814431" lon="-3.864343">
        <ele>2106.6</ele>
        <time>2018-04-21T08:16:09.000Z</time>
      </trkpt>
      <trkpt lat="40.814435" lon="-3.864338">
        <ele>2106.6</ele>
        <time>2018-04-21T08:16:10.000Z</time>
      </trkpt>
      <trkpt lat="40.81444" lon="-3.864334">
        <ele>2106.6</ele>
        <time>2018-04-21T08:16:11.000Z</time>
      </trkpt>
      <trkpt lat="40.814444" lon="-3.86433">
        <ele>2106.6</ele>
        <time>2018-04-21T08:16:12.000Z</time>
      </trkpt>
      <trkpt lat="40.814447" lon="-3.864327">
        <ele>2106.6</ele>
        <time>2018-04-21T08:16:13.000Z</time>
      </trkpt>
      <trkpt lat="40.814451" lon="-3.864325">
        <ele>2106.6</ele>
        <time>2018-04-21T08:16:14.000Z</time>
      </trkpt>
      <trkpt lat="40.814453" lon="-3.864324">
        <ele>2106.5</ele>
        <time>2018-04-21T08:16:15.000Z</time>
      </trkpt>
      <trkpt lat="40.814455" lon="-3.864323">
        <ele>2106.5</ele>
        <time>2018-04-21T08:16:16.000Z</time>
      </trkpt>
      <trkpt lat="40.814457" lon="-3.864323">
        <ele>2106.5</ele>
        <time>2018-04-21T08:16:17.000Z</time>
      </trkpt>
      <trkpt lat="40.814459" lon="-3.864323">
        <ele>2106.5</ele>
        <time>2018-04-21T08:16:18.000Z</time>
      </trkpt>
      <trkpt lat="40.81446" lon="-3.864323">
        <ele>2106.5</ele>
        <time>2018-04-21T08:16:19.000Z</time>
      </trkpt>
      <trkpt lat="40.81446" lon="-3.864324">
        <ele>2106.5</ele>
        <time>2018-04-21T08:16:20.000Z</time>
      </trkpt>
      <trkpt lat="40.814461" lon="-3.864325">
        <ele>2106.4</ele>
        <time>2018-04-21T08:16:21.000Z</time>
      </trkpt>
      <trkpt lat="40.814461" lon="-3.864326">
        <ele>2106.4</ele>
        <time>2018-04-21T08:16:22.000Z</time>
      </trkpt>
      <trkpt lat="40.814461" lon="-3.864326">
        <ele>2106.4</ele>
        <time>2018-04-21T08:16:23.000Z</time>
      </trkpt>
      <trkpt lat="40.814461" lon="-3.864326">
        <ele>2106.4</ele>
        <time>2018-04-21T08:16:24.000Z</time>
      </trkpt>
      <trkpt lat="40.814461" lon="-3.864326">
        <ele>2106.4</ele>
        <time>2018-04-21T08:16:25.000Z</time>
      </trkpt>
      <trkpt lat="40.814461" lon="-3.864326">
        <ele>2106.4</ele>
        <time>2018-04-21T08:16:26.000Z</time>
      </trkpt>
      <trkpt lat="40.814461" lon="-3.864326">
        <ele>2106.4</ele>
        <time>2018-04-21T08:16:27.000Z</time>
      </trkpt>
      <trkpt lat="40.814461" lon="-3.864326">
        <ele>2106.4</ele>
        <time>2018-04-21T08:16:28.000Z</time>
      </trkpt>
      <trkpt lat="40.814461" lon="-3.864326">
        <ele>2106.4</ele>
        <time>2018-04-21T08:16:29.000Z</time>
      </trkpt>
      <trkpt lat="40.814461" lon="-3.864326">
        <ele>2106.4</ele>
        <time>2018-04-21T08:16:30.000Z</time>
      </trkpt>
      <trkpt lat="40.814461" lon="-3.864327">
        <ele>2106.4</ele>
        <time>2018-04-21T08:16:31.000Z</time>
      </trkpt>
      <trkpt lat="40.814461" lon="-3.864328">
        <ele>2106.4</ele>
        <time>2018-04-21T08:16:32.000Z</time>
      </trkpt>
      <trkpt lat="40.814461" lon="-3.864329">
        <ele>2106.4</ele>
        <time>2018-04-21T08:16:33.000Z</time>
      </trkpt>
      <trkpt lat="40.814462" lon="-3.864331">
        <ele>2106.3</ele>
        <time>2018-04-21T08:16:34.000Z</time>
      </trkpt>
      <trkpt lat="40.814462" lon="-3.864333">
        <ele>2106.3</ele>
        <time>2018-04-21T08:16:35.000Z</time>
      </trkpt>
      <trkpt lat="40.814463" lon="-3.864336">
        <ele>2106.3</ele>
        <time>2018-04-21T08:16:36.000Z</time>
      </trkpt>
      <trkpt lat="40.814464" lon="-3.864338">
        <ele>2106.2</ele>
        <time>2018-04-21T08:16:37.000Z</time>
      </trkpt>
      <trkpt lat="40.814464" lon="-3.864341">
        <ele>2106.2</ele>
        <time>2018-04-21T08:16:38.000Z</time>
      </trkpt>
      <trkpt lat="40.814465" lon="-3.864344">
        <ele>2106.1</ele>
        <time>2018-04-21T08:16:39.000Z</time>
      </trkpt>
      <trkpt lat="40.814465" lon="-3.864346">
        <ele>2106.1</ele>
        <time>2018-04-21T08:16:40.000Z</time>
      </trkpt>
      <trkpt lat="40.814466" lon="-3.864348">
        <ele>2106.1</ele>
        <time>2018-04-21T08:16:41.000Z</time>
      </trkpt>
      <trkpt lat="40.814466" lon="-3.86435">
        <ele>2106.0</ele>
        <time>2018-04-21T08:16:42.000Z</time>
      </trkpt>
      <trkpt lat="40.814467" lon="-3.864352">
        <ele>2106.0</ele>
        <time>2018-04-21T08:16:43.000Z</time>
      </trkpt>
      <trkpt lat="40.814467" lon="-3.864353">
        <ele>2106.0</ele>
        <time>2018-04-21T08:16:44.000Z</time>
      </trkpt>
      <trkpt lat="40.814468" lon="-3.864354">
        <ele>2106.0</ele>
        <time>2018-04-21T08:16:45.000Z</time>
      </trkpt>
      <trkpt lat="40.814468" lon="-3.864355">
        <ele>2105.9</ele>
        <time>2018-04-21T08:16:46.000Z</time>
      </trkpt>
      <trkpt lat="40.814468" lon="-3.864355">
        <ele>2105.9</ele>
        <time>2018-04-21T08:16:47.000Z</time>
      </trkpt>
      <trkpt lat="40.814468" lon="-3.864356">
        <ele>2105.9</ele>
        <time>2018-04-21T08:16:48.000Z</time>
      </trkpt>
      <trkpt lat="40.814468" lon="-3.864356">
        <ele>2105.9</ele>
        <time>2018-04-21T08:16:49.000Z</time>
      </trkpt>
      <trkpt lat="40.814468" lon="-3.864356">
        <ele>2105.9</ele>
        <time>2018-04-21T08:16:50.000Z</time>
      </trkpt>
      <trkpt lat="40.814468" lon="-3.864356">
        <ele>2105.9</ele>
        <time>2018-04-21T08:16:51.000Z</time>
      </trkpt>
      <trkpt lat="40.814468" lon="-3.864356">
        <ele>2105.9</ele>
        <time>2018-04-21T08:16:52.000Z</time>
      </trkpt>
      <trkpt lat="40.814468" lon="-3.864356">
        <ele>2105.9</ele>
        <time>2018-04-21T08:16:53.000Z</time>
      </trkpt>
      <trkpt lat="40.814468" lon="-3.864356">
        <ele>2105.9</ele>
        <time>2018-04-21T08:16:54.000Z</time>
      </trkpt>
      <trkpt lat="40.814468" lon="-3.864355">
        <ele>2105.9</ele>
        <time>2018-04-21T08:16:55.000Z</time>
      </trkpt>
      <trkpt lat="40.814468" lon="-3.864355">
        <ele>2105.9</ele>
        <time>2018-04-21T08:16:56.000Z</time>
      </trkpt>
      <trkpt lat="40.814467" lon="-3.864355">
        <ele>2106.0</ele>
        <time>2018-04-21T08:16:57.000Z</time>
      </trkpt>
      <trkpt lat="40.814467" lon="-3.864355">
        <ele>2106.0</ele>
        <time>2018-04-21T08:16:58.000Z</time>
      </trkpt>
      <trkpt lat="40.814467" lon="-3.864355">
        <ele>2106.0</ele>
        <time>2018-04-21T08:16:59.000Z</time>
      </trkpt>
      <trkpt lat="40.814466" lon="-3.864356">
        <ele>2106.0</ele>
        <time>2018-04-21T08:17:00.000Z</time>
      </trkpt>
      <trkpt lat="40.814466" lon="-3.864356">
        <ele>2106.0</ele>
        <time>2018-04-21T08:17:01.000Z</time>
      </trkpt>
      <trkpt lat="40.814466" lon="-3.864356">
        <ele>2106.0</ele>
        <time>2018-04-21T08:17:02.000Z</time>
      </trkpt>
      <trkpt lat="40.814466" lon="-3.864357">
        <ele>2105.9</ele>
        <time>2018-04-21T08:17:03.000Z</time>
      </trkpt>
      <trkpt lat="40.814467" lon="-3.864357">
        <ele>2105.9</ele>
        <time>2018-04-21T08:17:04.000Z</time>
      </trkpt>
      <trkpt lat="40.814468" lon="-3.864358">
        <ele>2105.9</ele>
        <time>2018-04-21T08:17:05.000Z</time>
      </trkpt>
      <trkpt lat="40.81447" lon="-3.864358">
        <ele>2105.9</ele>
        <time>2018-04-21T08:17:06.000Z</time>
      </trkpt>
      <trkpt lat="40.814473" lon="-3.864358">
        <ele>2105.8</ele>
        <time>2018-04-21T08:17:07.000Z</time>
      </trkpt>
      <trkpt lat="40.814477" lon="-3.864358">
        <ele>2105.8</ele>
        <time>2018-04-21T08:17:08.000Z</time>
      </trkpt>
      <trkpt lat="40.814481" lon="-3.864357">
        <ele>2105.8</ele>
        <time>2018-04-21T08:17:09.000Z</time>
      </trkpt>
      <trkpt lat="40.814487" lon="-3.864356">
        <ele>2105.7</ele>
        <time>2018-04-21T08:17:10.000Z</time>
      </trkpt>
      <trkpt lat="40.814492" lon="-3.864356">
        <ele>2105.6</ele>
        <time>2018-04-21T08:17:11.000Z</time>
      </trkpt>
      <trkpt lat="40.814497" lon="-3.864355">
        <ele>2105.6</ele>
        <time>2018-04-21T08:17:12.000Z</time>
      </trkpt>
      <trkpt lat="40.8145" lon="-3.864354">
        <ele>2105.5</ele>
        <time>2018-04-21T08:17:13.000Z</time>
      </trkpt>
      <trkpt lat="40.814502" lon="-3.864354">
        <ele>2105.5</ele>
        <time>2018-04-21T08:17:14.000Z</time>
      </trkpt>
      <trkpt lat="40.814503" lon="-3.864354">
        <ele>2105.5</ele>
        <time>2018-04-21T08:17:15.000Z</time>
      </trkpt>
      <trkpt lat="40.814503" lon="-3.864353">
        <ele>2105.5</ele>
        <time>2018-04-21T08:17:16.000Z</time>
      </trkpt>
      <trkpt lat="40.814503" lon="-3.864353">
        <ele>2105.5</ele>
        <time>2018-04-21T08:17:17.000Z</time>
      </trkpt>
      <trkpt lat="40.814504" lon="-3.864354">
        <ele>2105.5</ele>
        <time>2018-04-21T08:17:18.000Z</time>
      </trkpt>
      <trkpt lat="40.814504" lon="-3.864354">
        <ele>2105.5</ele>
        <time>2018-04-21T08:17:19.000Z</time>
      </trkpt>
      <trkpt lat="40.814505" lon="-3.864354">
        <ele>2105.5</ele>
        <time>2018-04-21T08:17:20.000Z</time>
      </trkpt>
      <trkpt lat="40.814507" lon="-3.864355">
        <ele>2105.4</ele>
        <time>2018-04-21T08:17:21.000Z</time>
      </trkpt>
      <trkpt lat="40.814508" lon="-3.864355">
        <ele>2105.4</ele>
        <time>2018-04-21T08:17:22.000Z</time>
      </trkpt>
      <trkpt lat="40.81451" lon="-3.864355">
        <ele>2105.4</ele>
        <time>2018-04-21T08:17:23.000Z</time>
      </trkpt>
      <trkpt lat="40.814512" lon="-3.864356">
        <ele>2105.4</ele>
        <time>2018-04-21T08:17:24.000Z</time>
      </trkpt>
      <trkpt lat="40.814513" lon="-3.864356">
        <ele>2105.3</ele>
        <time>2018-04-21T08:17:25.000Z</time>
      </trkpt>
      <trkpt lat="40.814515" lon="-3.864356">
        <ele>2105.3</ele>
        <time>2018-04-21T08:17:26.000Z</time>
      </trkpt>
      <trkpt lat="40.814516" lon="-3.864357">
        <ele>2105.3</ele>
        <time>2018-04-21T08:17:27.000Z</time>
      </trkpt>
      <trkpt lat="40.814517" lon="-3.864357">
        <ele>2105.3</ele>
        <time>2018-04-21T08:17:28.000Z</time>
      </trkpt>
      <trkpt lat="40.814518" lon="-3.864357">
        <ele>2105.3</ele>
        <time>2018-04-21T08:17:29.000Z</time>
      </trkpt>
      <trkpt lat="40.814518" lon="-3.864357">
        <ele>2105.3</ele>
        <time>2018-04-21T08:17:30.000Z</time>
      </trkpt>
      <trkpt lat="40.814519" lon="-3.864357">
        <ele>2105.3</ele>
        <time>2018-04-21T08:17:31.000Z</time>
      </trkpt>
      <trkpt lat="40.81452" lon="-3.864358">
        <ele>2105.2</ele>
        <time>2018-04-21T08:17:42.000Z</time>
      </trkpt>
      <trkpt lat="40.81452" lon="-3.864358">
        <ele>2105.2</ele>
        <time>2018-04-21T08:17:43.000Z</time>
      </trkpt>
      <trkpt lat="40.814521" lon="-3.864359">
        <ele>2105.2</ele>
        <time>2018-04-21T08:17:44.000Z</time>
      </trkpt>
      <trkpt lat="40.814522" lon="-3.86436">
        <ele>2105.2</ele>
        <time>2018-04-21T08:17:45.000Z</time>
      </trkpt>
      <trkpt lat="40.814524" lon="-3.864362">
        <ele>2105.1</ele>
        <time>2018-04-21T08:17:46.000Z</time>
      </trkpt>
      <trkpt lat="40.814526" lon="-3.864364">
        <ele>2105.1</ele>
        <time>2018-04-21T08:17:47.000Z</time>
      </trkpt>
      <trkpt lat="40.814528" lon="-3.864367">
        <ele>2105.0</ele>
        <time>2018-04-21T08:17:48.000Z</time>
      </trkpt>
      <trkpt lat="40.81453" lon="-3.86437">
        <ele>2104.9</ele>
        <time>2018-04-21T08:17:49.000Z</time>
      </trkpt>
      <trkpt lat="40.814532" lon="-3.864373">
        <ele>2104.8</ele>
        <time>2018-04-21T08:17:50.000Z</time>
      </trkpt>
      <trkpt lat="40.814534" lon="-3.864377">
        <ele>2104.8</ele>
        <time>2018-04-21T08:17:51.000Z</time>
      </trkpt>
      <trkpt lat="40.814536" lon="-3.864381">
        <ele>2104.7</ele>
        <time>2018-04-21T08:17:52.000Z</time>
      </trkpt>
      <trkpt lat="40.814537" lon="-3.864385">
        <ele>2104.6</ele>
        <time>2018-04-21T08:17:53.000Z</time>
      </trkpt>
      <trkpt lat="40.814538" lon="-3.864389">
        <ele>2104.5</ele>
        <time>2018-04-21T08:17:54.000Z</time>
      </trkpt>
      <trkpt lat="40.814538" lon="-3.864393">
        <ele>2104.5</ele>
        <time>2018-04-21T08:17:55.000Z</time>
      </trkpt>
      <trkpt lat="40.814537" lon="-3.864397">
        <ele>2104.4</ele>
        <time>2018-04-21T08:17:56.000Z</time>
      </trkpt>
      <trkpt lat="40.814535" lon="-3.864401">
        <ele>2104.4</ele>
        <time>2018-04-21T08:17:57.000Z</time>
      </trkpt>
      <trkpt lat="40.814533" lon="-3.864405">
        <ele>2104.4</ele>
        <time>2018-04-21T08:17:58.000Z</time>
      </trkpt>
      <trkpt lat="40.81453" lon="-3.864409">
        <ele>2104.3</ele>
        <time>2018-04-21T08:17:59.000Z</time>
      </trkpt>
      <trkpt lat="40.814527" lon="-3.864413">
        <ele>2104.3</ele>
        <time>2018-04-21T08:18:00.000Z</time>
      </trkpt>
      <trkpt lat="40.814523" lon="-3.864417">
        <ele>2104.3</ele>
        <time>2018-04-21T08:18:01.000Z</time>
      </trkpt>
      <trkpt lat="40.814519" lon="-3.864421">
        <ele>2104.3</ele>
        <time>2018-04-21T08:18:02.000Z</time>
      </trkpt>
      <trkpt lat="40.814515" lon="-3.864425">
        <ele>2104.3</ele>
        <time>2018-04-21T08:18:03.000Z</time>
      </trkpt>
      <trkpt lat="40.814511" lon="-3.864428">
        <ele>2104.3</ele>
        <time>2018-04-21T08:18:04.000Z</time>
      </trkpt>
      <trkpt lat="40.814508" lon="-3.864432">
        <ele>2104.3</ele>
        <time>2018-04-21T08:18:05.000Z</time>
      </trkpt>
      <trkpt lat="40.814504" lon="-3.864435">
        <ele>2104.3</ele>
        <time>2018-04-21T08:18:06.000Z</time>
      </trkpt>
      <trkpt lat="40.814501" lon="-3.864438">
        <ele>2104.3</ele>
        <time>2018-04-21T08:18:07.000Z</time>
      </trkpt>
      <trkpt lat="40.814497" lon="-3.864442">
        <ele>2104.3</ele>
        <time>2018-04-21T08:18:08.000Z</time>
      </trkpt>
      <trkpt lat="40.814494" lon="-3.864446">
        <ele>2104.3</ele>
        <time>2018-04-21T08:18:09.000Z</time>
      </trkpt>
      <trkpt lat="40.814491" lon="-3.86445">
        <ele>2104.3</ele>
        <time>2018-04-21T08:18:10.000Z</time>
      </trkpt>
      <trkpt lat="40.814487" lon="-3.864455">
        <ele>2104.3</ele>
        <time>2018-04-21T08:18:11.000Z</time>
      </trkpt>
      <trkpt lat="40.814484" lon="-3.864461">
        <ele>2104.3</ele>
        <time>2018-04-21T08:18:12.000Z</time>
      </trkpt>
      <trkpt lat="40.814481" lon="-3.864467">
        <ele>2104.2</ele>
        <time>2018-04-21T08:18:13.000Z</time>
      </trkpt>
      <trkpt lat="40.814478" lon="-3.864474">
        <ele>2104.2</ele>
        <time>2018-04-21T08:18:14.000Z</time>
      </trkpt>
      <trkpt lat="40.814475" lon="-3.864481">
        <ele>2104.2</ele>
        <time>2018-04-21T08:18:15.000Z</time>
      </trkpt>
      <trkpt lat="40.814472" lon="-3.864489">
        <ele>2104.1</ele>
        <time>2018-04-21T08:18:16.000Z</time>
      </trkpt>
      <trkpt lat="40.814469" lon="-3.864496">
        <ele>2104.0</ele>
        <time>2018-04-21T08:18:17.000Z</time>
      </trkpt>
      <trkpt lat="40.814467" lon="-3.864504">
        <ele>2104.0</ele>
        <time>2018-04-21T08:18:18.000Z</time>
      </trkpt>
      <trkpt lat="40.814465" lon="-3.86451">
        <ele>2103.9</ele>
        <time>2018-04-21T08:18:19.000Z</time>
      </trkpt>
      <trkpt lat="40.814463" lon="-3.864515">
        <ele>2103.9</ele>
        <time>2018-04-21T08:18:20.000Z</time>
      </trkpt>
      <trkpt lat="40.814461" lon="-3.864519">
        <ele>2103.9</ele>
        <time>2018-04-21T08:18:21.000Z</time>
      </trkpt>
      <trkpt lat="40.814461" lon="-3.864522">
        <ele>2103.8</ele>
        <time>2018-04-21T08:18:22.000Z</time>
      </trkpt>
      <trkpt lat="40.81446" lon="-3.864522">
        <ele>2103.9</ele>
        <time>2018-04-21T08:18:23.000Z</time>
      </trkpt>
      <trkpt lat="40.81446" lon="-3.864522">
        <ele>2103.9</ele>
        <time>2018-04-21T08:18:24.000Z</time>
      </trkpt>
      <trkpt lat="40.814461" lon="-3.864521">
        <ele>2103.8</ele>
        <time>2018-04-21T08:18:25.000Z</time>
      </trkpt>
      <trkpt lat="40.814462" lon="-3.864521">
        <ele>2103.8</ele>
        <time>2018-04-21T08:18:26.000Z</time>
      </trkpt>
      <trkpt lat="40.814462" lon="-3.864523">
        <ele>2103.8</ele>
        <time>2018-04-21T08:18:27.000Z</time>
      </trkpt>
      <trkpt lat="40.814463" lon="-3.864527">
        <ele>2103.7</ele>
        <time>2018-04-21T08:18:28.000Z</time>
      </trkpt>
      <trkpt lat="40.814464" lon="-3.864532">
        <ele>2103.7</ele>
        <time>2018-04-21T08:18:29.000Z</time>
      </trkpt>
      <trkpt lat="40.814465" lon="-3.864538">
        <ele>2103.6</ele>
        <time>2018-04-21T08:18:30.000Z</time>
      </trkpt>
      <trkpt lat="40.814466" lon="-3.864543">
        <ele>2103.5</ele>
        <time>2018-04-21T08:18:31.000Z</time>
      </trkpt>
      <trkpt lat="40.814467" lon="-3.864546">
        <ele>2103.4</ele>
        <time>2018-04-21T08:18:32.000Z</time>
      </trkpt>
      <trkpt lat="40.814467" lon="-3.864548">
        <ele>2103.4</ele>
        <time>2018-04-21T08:18:33.000Z</time>
      </trkpt>
      <trkpt lat="40.814468" lon="-3.864549">
        <ele>2103.4</ele>
        <time>2018-04-21T08:18:34.000Z</time>
      </trkpt>
      <trkpt lat="40.814468" lon="-3.86455">
        <ele>2103.3</ele>
        <time>2018-04-21T08:18:35.000Z</time>
      </trkpt>
      <trkpt lat="40.814468" lon="-3.864549">
        <ele>2103.4</ele>
        <time>2018-04-21T08:18:36.000Z</time>
      </trkpt>
      <trkpt lat="40.814468" lon="-3.864549">
        <ele>2103.4</ele>
        <time>2018-04-21T08:18:37.000Z</time>
      </trkpt>
      <trkpt lat="40.814468" lon="-3.864549">
        <ele>2103.4</ele>
        <time>2018-04-21T08:18:38.000Z</time>
      </trkpt>
      <trkpt lat="40.814468" lon="-3.86455">
        <ele>2103.3</ele>
        <time>2018-04-21T08:18:39.000Z</time>
      </trkpt>
      <trkpt lat="40.814468" lon="-3.864552">
        <ele>2103.3</ele>
        <time>2018-04-21T08:18:40.000Z</time>
      </trkpt>
      <trkpt lat="40.814468" lon="-3.864555">
        <ele>2103.3</ele>
        <time>2018-04-21T08:18:41.000Z</time>
      </trkpt>
      <trkpt lat="40.814467" lon="-3.864558">
        <ele>2103.3</ele>
        <time>2018-04-21T08:18:42.000Z</time>
      </trkpt>
      <trkpt lat="40.814467" lon="-3.86456">
        <ele>2103.2</ele>
        <time>2018-04-21T08:18:43.000Z</time>
      </trkpt>
      <trkpt lat="40.814467" lon="-3.864561">
        <ele>2103.2</ele>
        <time>2018-04-21T08:18:44.000Z</time>
      </trkpt>
      <trkpt lat="40.814467" lon="-3.864561">
        <ele>2103.2</ele>
        <time>2018-04-21T08:18:45.000Z</time>
      </trkpt>
      <trkpt lat="40.814467" lon="-3.864562">
        <ele>2103.2</ele>
        <time>2018-04-21T08:18:46.000Z</time>
      </trkpt>
      <trkpt lat="40.814467" lon="-3.864565">
        <ele>2103.2</ele>
        <time>2018-04-21T08:18:47.000Z</time>
      </trkpt>
      <trkpt lat="40.814467" lon="-3.864569">
        <ele>2103.1</ele>
        <time>2018-04-21T08:18:48.000Z</time>
      </trkpt>
      <trkpt lat="40.814467" lon="-3.864571">
        <ele>2103.1</ele>
        <time>2018-04-21T08:18:49.000Z</time>
      </trkpt>
      <trkpt lat="40.814467" lon="-3.864573">
        <ele>2103.1</ele>
        <time>2018-04-21T08:18:50.000Z</time>
      </trkpt>
      <trkpt lat="40.814467" lon="-3.864574">
        <ele>2103.0</ele>
        <time>2018-04-21T08:18:51.000Z</time>
      </trkpt>
      <trkpt lat="40.814467" lon="-3.864574">
        <ele>2103.0</ele>
        <time>2018-04-21T08:18:52.000Z</time>
      </trkpt>
      <trkpt lat="40.814467" lon="-3.864574">
        <ele>2103.0</ele>
        <time>2018-04-21T08:18:53.000Z</time>
      </trkpt>
      <trkpt lat="40.814467" lon="-3.864574">
        <ele>2103.0</ele>
        <time>2018-04-21T08:18:54.000Z</time>
      </trkpt>
      <trkpt lat="40.814467" lon="-3.864573">
        <ele>2103.1</ele>
        <time>2018-04-21T08:18:55.000Z</time>
      </trkpt>
      <trkpt lat="40.814467" lon="-3.864573">
        <ele>2103.1</ele>
        <time>2018-04-21T08:18:56.000Z</time>
      </trkpt>
      <trkpt lat="40.814467" lon="-3.864574">
        <ele>2103.0</ele>
        <time>2018-04-21T08:18:57.000Z</time>
      </trkpt>
      <trkpt lat="40.814466" lon="-3.864575">
        <ele>2103.0</ele>
        <time>2018-04-21T08:18:58.000Z</time>
      </trkpt>
      <trkpt lat="40.814465" lon="-3.864577">
        <ele>2103.0</ele>
        <time>2018-04-21T08:18:59.000Z</time>
      </trkpt>
      <trkpt lat="40.814464" lon="-3.86458">
        <ele>2103.0</ele>
        <time>2018-04-21T08:19:00.000Z</time>
      </trkpt>
      <trkpt lat="40.814462" lon="-3.864584">
        <ele>2103.0</ele>
        <time>2018-04-21T08:19:01.000Z</time>
      </trkpt>
      <trkpt lat="40.814461" lon="-3.864588">
        <ele>2103.0</ele>
        <time>2018-04-21T08:19:02.000Z</time>
      </trkpt>
      <trkpt lat="40.814459" lon="-3.864592">
        <ele>2102.9</ele>
        <time>2018-04-21T08:19:03.000Z</time>
      </trkpt>
      <trkpt lat="40.814457" lon="-3.864596">
        <ele>2102.9</ele>
        <time>2018-04-21T08:19:04.000Z</time>
      </trkpt>
      <trkpt lat="40.814456" lon="-3.8646">
        <ele>2102.9</ele>
        <time>2018-04-21T08:19:05.000Z</time>
      </trkpt>
      <trkpt lat="40.814455" lon="-3.864604">
        <ele>2102.9</ele>
        <time>2018-04-21T08:19:06.000Z</time>
      </trkpt>
      <trkpt lat="40.814453" lon="-3.864606">
        <ele>2102.9</ele>
        <time>2018-04-21T08:19:07.000Z</time>
      </trkpt>
      <trkpt lat="40.814453" lon="-3.864608">
        <ele>2102.9</ele>
        <time>2018-04-21T08:19:08.000Z</time>
      </trkpt>
      <trkpt lat="40.814452" lon="-3.864609">
        <ele>2102.9</ele>
        <time>2018-04-21T08:19:09.000Z</time>
      </trkpt>
      <trkpt lat="40.814452" lon="-3.86461">
        <ele>2102.8</ele>
        <time>2018-04-21T08:19:10.000Z</time>
      </trkpt>
      <trkpt lat="40.814452" lon="-3.86461">
        <ele>2102.8</ele>
        <time>2018-04-21T08:19:11.000Z</time>
      </trkpt>
      <trkpt lat="40.814452" lon="-3.864609">
        <ele>2102.9</ele>
        <time>2018-04-21T08:19:12.000Z</time>
      </trkpt>
      <trkpt lat="40.814452" lon="-3.864609">
        <ele>2102.9</ele>
        <time>2018-04-21T08:19:13.000Z</time>
      </trkpt>
      <trkpt lat="40.814452" lon="-3.864609">
        <ele>2102.9</ele>
        <time>2018-04-21T08:19:14.000Z</time>
      </trkpt>
      <trkpt lat="40.814452" lon="-3.864609">
        <ele>2102.9</ele>
        <time>2018-04-21T08:19:15.000Z</time>
      </trkpt>
      <trkpt lat="40.814452" lon="-3.864609">
        <ele>2102.9</ele>
        <time>2018-04-21T08:19:16.000Z</time>
      </trkpt>
      <trkpt lat="40.814452" lon="-3.864611">
        <ele>2102.8</ele>
        <time>2018-04-21T08:19:17.000Z</time>
      </trkpt>
      <trkpt lat="40.814452" lon="-3.864612">
        <ele>2102.8</ele>
        <time>2018-04-21T08:19:18.000Z</time>
      </trkpt>
      <trkpt lat="40.814451" lon="-3.864615">
        <ele>2102.8</ele>
        <time>2018-04-21T08:19:19.000Z</time>
      </trkpt>
      <trkpt lat="40.81445" lon="-3.864618">
        <ele>2102.8</ele>
        <time>2018-04-21T08:19:20.000Z</time>
      </trkpt>
      <trkpt lat="40.814449" lon="-3.864621">
        <ele>2102.8</ele>
        <time>2018-04-21T08:19:21.000Z</time>
      </trkpt>
      <trkpt lat="40.814448" lon="-3.864625">
        <ele>2102.7</ele>
        <time>2018-04-21T08:19:22.000Z</time>
      </trkpt>
      <trkpt lat="40.814447" lon="-3.86463">
        <ele>2102.7</ele>
        <time>2018-04-21T08:19:23.000Z</time>
      </trkpt>
      <trkpt lat="40.814446" lon="-3.864635">
        <ele>2102.6</ele>
        <time>2018-04-21T08:19:24.000Z</time>
      </trkpt>
      <trkpt lat="40.814444" lon="-3.864641">
        <ele>2102.6</ele>
        <time>2018-04-21T08:19:25.000Z</time>
      </trkpt>
      <trkpt lat="40.814443" lon="-3.864648">
        <ele>2102.5</ele>
        <time>2018-04-21T08:19:26.000Z</time>
      </trkpt>
      <trkpt lat="40.814441" lon="-3.864654">
        <ele>2102.5</ele>
        <time>2018-04-21T08:19:27.000Z</time>
      </trkpt>
      <trkpt lat="40.814439" lon="-3.864661">
        <ele>2102.5</ele>
        <time>2018-04-21T08:19:28.000Z</time>
      </trkpt>
      <trkpt lat="40.814438" lon="-3.864667">
        <ele>2102.4</ele>
        <time>2018-04-21T08:19:29.000Z</time>
      </trkpt>
      <trkpt lat="40.814436" lon="-3.864674">
        <ele>2102.3</ele>
        <time>2018-04-21T08:19:30.000Z</time>
      </trkpt>
      <trkpt lat="40.814435" lon="-3.86468">
        <ele>2102.3</ele>
        <time>2018-04-21T08:19:31.000Z</time>
      </trkpt>
      <trkpt lat="40.814434" lon="-3.864685">
        <ele>2102.3</ele>
        <time>2018-04-21T08:19:32.000Z</time>
      </trkpt>
      <trkpt lat="40.814433" lon="-3.86469">
        <ele>2102.2</ele>
        <time>2018-04-21T08:19:33.000Z</time>
      </trkpt>
      <trkpt lat="40.814433" lon="-3.864693">
        <ele>2102.2</ele>
        <time>2018-04-21T08:19:34.000Z</time>
      </trkpt>
      <trkpt lat="40.814432" lon="-3.864695">
        <ele>2102.2</ele>
        <time>2018-04-21T08:19:35.000Z</time>
      </trkpt>
      <trkpt lat="40.814432" lon="-3.864696">
        <ele>2102.2</ele>
        <time>2018-04-21T08:19:36.000Z</time>
      </trkpt>
      <trkpt lat="40.814432" lon="-3.864697">
        <ele>2102.1</ele>
        <time>2018-04-21T08:19:37.000Z</time>
      </trkpt>
      <trkpt lat="40.814433" lon="-3.864696">
        <ele>2102.1</ele>
        <time>2018-04-21T08:19:38.000Z</time>
      </trkpt>
      <trkpt lat="40.814433" lon="-3.864695">
        <ele>2102.1</ele>
        <time>2018-04-21T08:19:39.000Z</time>
      </trkpt>
      <trkpt lat="40.814434" lon="-3.864694">
        <ele>2102.1</ele>
        <time>2018-04-21T08:19:40.000Z</time>
      </trkpt>
      <trkpt lat="40.814434" lon="-3.864693">
        <ele>2102.2</ele>
        <time>2018-04-21T08:19:41.000Z</time>
      </trkpt>
      <trkpt lat="40.814435" lon="-3.864691">
        <ele>2102.2</ele>
        <time>2018-04-21T08:19:42.000Z</time>
      </trkpt>
      <trkpt lat="40.814435" lon="-3.86469">
        <ele>2102.2</ele>
        <time>2018-04-21T08:19:43.000Z</time>
      </trkpt>
      <trkpt lat="40.814435" lon="-3.864689">
        <ele>2102.2</ele>
        <time>2018-04-21T08:19:44.000Z</time>
      </trkpt>
      <trkpt lat="40.814435" lon="-3.864689">
        <ele>2102.2</ele>
        <time>2018-04-21T08:19:45.000Z</time>
      </trkpt>
      <trkpt lat="40.814435" lon="-3.86469">
        <ele>2102.2</ele>
        <time>2018-04-21T08:19:46.000Z</time>
      </trkpt>
      <trkpt lat="40.814435" lon="-3.864692">
        <ele>2102.1</ele>
        <time>2018-04-21T08:19:47.000Z</time>
      </trkpt>
      <trkpt lat="40.814434" lon="-3.864695">
        <ele>2102.1</ele>
        <time>2018-04-21T08:19:48.000Z</time>
      </trkpt>
      <trkpt lat="40.814434" lon="-3.8647">
        <ele>2102.1</ele>
        <time>2018-04-21T08:19:49.000Z</time>
      </trkpt>
      <trkpt lat="40.814433" lon="-3.864706">
        <ele>2102.0</ele>
        <time>2018-04-21T08:19:50.000Z</time>
      </trkpt>
      <trkpt lat="40.814432" lon="-3.864713">
        <ele>2101.9</ele>
        <time>2018-04-21T08:19:51.000Z</time>
      </trkpt>
      <trkpt lat="40.814431" lon="-3.86472">
        <ele>2101.9</ele>
        <time>2018-04-21T08:19:52.000Z</time>
      </trkpt>
      <trkpt lat="40.814429" lon="-3.864728">
        <ele>2101.8</ele>
        <time>2018-04-21T08:19:53.000Z</time>
      </trkpt>
      <trkpt lat="40.814427" lon="-3.864736">
        <ele>2101.8</ele>
        <time>2018-04-21T08:19:54.000Z</time>
      </trkpt>
      <trkpt lat="40.814425" lon="-3.864744">
        <ele>2101.7</ele>
        <time>2018-04-21T08:19:55.000Z</time>
      </trkpt>
      <trkpt lat="40.814423" lon="-3.864751">
        <ele>2101.7</ele>
        <time>2018-04-21T08:19:56.000Z</time>
      </trkpt>
      <trkpt lat="40.81442" lon="-3.864759">
        <ele>2101.6</ele>
        <time>2018-04-21T08:19:57.000Z</time>
      </trkpt>
      <trkpt lat="40.814417" lon="-3.864767">
        <ele>2101.6</ele>
        <time>2018-04-21T08:19:58.000Z</time>
      </trkpt>
      <trkpt lat="40.814414" lon="-3.864775">
        <ele>2101.6</ele>
        <time>2018-04-21T08:19:59.000Z</time>
      </trkpt>
      <trkpt lat="40.814411" lon="-3.864783">
        <ele>2101.6</ele>
        <time>2018-04-21T08:20:00.000Z</time>
      </trkpt>
      <trkpt lat="40.814408" lon="-3.86479">
        <ele>2101.6</ele>
        <time>2018-04-21T08:20:01.000Z</time>
      </trkpt>
      <trkpt lat="40.814404" lon="-3.864798">
        <ele>2101.6</ele>
        <time>2018-04-21T08:20:02.000Z</time>
      </trkpt>
      <trkpt lat="40.814401" lon="-3.864805">
        <ele>2101.5</ele>
        <time>2018-04-21T08:20:03.000Z</time>
      </trkpt>
      <trkpt lat="40.814397" lon="-3.864812">
        <ele>2101.6</ele>
        <time>2018-04-21T08:20:04.000Z</time>
      </trkpt>
      <trkpt lat="40.814394" lon="-3.864818">
        <ele>2101.6</ele>
        <time>2018-04-21T08:20:05.000Z</time>
      </trkpt>
      <trkpt lat="40.81439" lon="-3.864825">
        <ele>2101.6</ele>
        <time>2018-04-21T08:20:06.000Z</time>
      </trkpt>
      <trkpt lat="40.814386" lon="-3.864831">
        <ele>2101.6</ele>
        <time>2018-04-21T08:20:07.000Z</time>
      </trkpt>
      <trkpt lat="40.814383" lon="-3.864836">
        <ele>2101.6</ele>
        <time>2018-04-21T08:20:08.000Z</time>
      </trkpt>
      <trkpt lat="40.81438" lon="-3.864842">
        <ele>2101.6</ele>
        <time>2018-04-21T08:20:09.000Z</time>
      </trkpt>
      <trkpt lat="40.814376" lon="-3.864847">
        <ele>2101.7</ele>
        <time>2018-04-21T08:20:10.000Z</time>
      </trkpt>
      <trkpt lat="40.814373" lon="-3.864851">
        <ele>2101.7</ele>
        <time>2018-04-21T08:20:11.000Z</time>
      </trkpt>
      <trkpt lat="40.81437" lon="-3.864855">
        <ele>2101.7</ele>
        <time>2018-04-21T08:20:12.000Z</time>
      </trkpt>
      <trkpt lat="40.814368" lon="-3.864858">
        <ele>2101.8</ele>
        <time>2018-04-21T08:20:13.000Z</time>
      </trkpt>
      <trkpt lat="40.814366" lon="-3.86486">
        <ele>2101.8</ele>
        <time>2018-04-21T08:20:14.000Z</time>
      </trkpt>
      <trkpt lat="40.814365" lon="-3.864861">
        <ele>2101.8</ele>
        <time>2018-04-21T08:20:15.000Z</time>
      </trkpt>
      <trkpt lat="40.814365" lon="-3.864861">
        <ele>2101.8</ele>
        <time>2018-04-21T08:20:16.000Z</time>
      </trkpt>
      <trkpt lat="40.814366" lon="-3.86486">
        <ele>2101.8</ele>
        <time>2018-04-21T08:20:17.000Z</time>
      </trkpt>
      <trkpt lat="40.814367" lon="-3.864859">
        <ele>2101.8</ele>
        <time>2018-04-21T08:20:18.000Z</time>
      </trkpt>
      <trkpt lat="40.814367" lon="-3.86486">
        <ele>2101.8</ele>
        <time>2018-04-21T08:20:19.000Z</time>
      </trkpt>
      <trkpt lat="40.814367" lon="-3.864861">
        <ele>2101.7</ele>
        <time>2018-04-21T08:20:20.000Z</time>
      </trkpt>
      <trkpt lat="40.814367" lon="-3.864864">
        <ele>2101.7</ele>
        <time>2018-04-21T08:20:21.000Z</time>
      </trkpt>
      <trkpt lat="40.814365" lon="-3.864868">
        <ele>2101.7</ele>
        <time>2018-04-21T08:20:22.000Z</time>
      </trkpt>
      <trkpt lat="40.814363" lon="-3.864873">
        <ele>2101.7</ele>
        <time>2018-04-21T08:20:23.000Z</time>
      </trkpt>
      <trkpt lat="40.81436" lon="-3.864879">
        <ele>2101.7</ele>
        <time>2018-04-21T08:20:24.000Z</time>
      </trkpt>
      <trkpt lat="40.814355" lon="-3.864887">
        <ele>2101.8</ele>
        <time>2018-04-21T08:20:25.000Z</time>
      </trkpt>
      <trkpt lat="40.81435" lon="-3.864895">
        <ele>2101.8</ele>
        <time>2018-04-21T08:20:26.000Z</time>
      </trkpt>
      <trkpt lat="40.814345" lon="-3.864904">
        <ele>2101.9</ele>
        <time>2018-04-21T08:20:27.000Z</time>
      </trkpt>
      <trkpt lat="40.814339" lon="-3.864913">
        <ele>2101.9</ele>
        <time>2018-04-21T08:20:28.000Z</time>
      </trkpt>
      <trkpt lat="40.814335" lon="-3.864921">
        <ele>2102.0</ele>
        <time>2018-04-21T08:20:29.000Z</time>
      </trkpt>
      <trkpt lat="40.81433" lon="-3.86493">
        <ele>2102.0</ele>
        <time>2018-04-21T08:20:30.000Z</time>
      </trkpt>
      <trkpt lat="40.814326" lon="-3.864938">
        <ele>2102.0</ele>
        <time>2018-04-21T08:20:31.000Z</time>
      </trkpt>
      <trkpt lat="40.814323" lon="-3.864946">
        <ele>2102.0</ele>
        <time>2018-04-21T08:20:32.000Z</time>
      </trkpt>
      <trkpt lat="40.81432" lon="-3.864953">
        <ele>2102.0</ele>
        <time>2018-04-21T08:20:33.000Z</time>
      </trkpt>
      <trkpt lat="40.814317" lon="-3.864961">
        <ele>2102.0</ele>
        <time>2018-04-21T08:20:34.000Z</time>
      </trkpt>
      <trkpt lat="40.814314" lon="-3.864968">
        <ele>2102.1</ele>
        <time>2018-04-21T08:20:35.000Z</time>
      </trkpt>
      <trkpt lat="40.814311" lon="-3.864975">
        <ele>2102.1</ele>
        <time>2018-04-21T08:20:36.000Z</time>
      </trkpt>
      <trkpt lat="40.814308" lon="-3.864983">
        <ele>2102.1</ele>
        <time>2018-04-21T08:20:37.000Z</time>
      </trkpt>
      <trkpt lat="40.814306" lon="-3.86499">
        <ele>2102.1</ele>
        <time>2018-04-21T08:20:38.000Z</time>
      </trkpt>
      <trkpt lat="40.814303" lon="-3.864997">
        <ele>2102.1</ele>
        <time>2018-04-21T08:20:39.000Z</time>
      </trkpt>
      <trkpt lat="40.8143" lon="-3.865004">
        <ele>2102.1</ele>
        <time>2018-04-21T08:20:40.000Z</time>
      </trkpt>
      <trkpt lat="40.814297" lon="-3.86501">
        <ele>2102.0</ele>
        <time>2018-04-21T08:20:41.000Z</time>
      </trkpt>
      <trkpt lat="40.814294" lon="-3.865017">
        <ele>2101.9</ele>
        <time>2018-04-21T08:20:42.000Z</time>
      </trkpt>
      <trkpt lat="40.814291" lon="-3.865022">
        <ele>2101.9</ele>
        <time>2018-04-21T08:20:43.000Z</time>
      </trkpt>
      <trkpt lat="40.814288" lon="-3.865027">
        <ele>2101.9</ele>
        <time>2018-04-21T08:20:44.000Z</time>
      </trkpt>
      <trkpt lat="40.814284" lon="-3.865032">
        <ele>2101.9</ele>
        <time>2018-04-21T08:20:45.000Z</time>
      </trkpt>
      <trkpt lat="40.81428" lon="-3.865035">
        <ele>2101.9</ele>
        <time>2018-04-21T08:20:46.000Z</time>
      </trkpt>
      <trkpt lat="40.814276" lon="-3.865038">
        <ele>2102.0</ele>
        <time>2018-04-21T08:20:47.000Z</time>
      </trkpt>
      <trkpt lat="40.814272" lon="-3.86504">
        <ele>2102.0</ele>
        <time>2018-04-21T08:20:48.000Z</time>
      </trkpt>
      <trkpt lat="40.814267" lon="-3.865041">
        <ele>2102.2</ele>
        <time>2018-04-21T08:20:49.000Z</time>
      </trkpt>
      <trkpt lat="40.814263" lon="-3.865042">
        <ele>2102.3</ele>
        <time>2018-04-21T08:20:50.000Z</time>
      </trkpt>
      <trkpt lat="40.814259" lon="-3.865044">
        <ele>2102.3</ele>
        <time>2018-04-21T08:20:51.000Z</time>
      </trkpt>
      <trkpt lat="40.814255" lon="-3.865045">
        <ele>2102.4</ele>
        <time>2018-04-21T08:20:52.000Z</time>
      </trkpt>
      <trkpt lat="40.814251" lon="-3.865046">
        <ele>2102.5</ele>
        <time>2018-04-21T08:20:53.000Z</time>
      </trkpt>
      <trkpt lat="40.814248" lon="-3.865048">
        <ele>2102.6</ele>
        <time>2018-04-21T08:20:54.000Z</time>
      </trkpt>
      <trkpt lat="40.814245" lon="-3.865051">
        <ele>2102.6</ele>
        <time>2018-04-21T08:20:55.000Z</time>
      </trkpt>
      <trkpt lat="40.814244" lon="-3.865054">
        <ele>2102.6</ele>
        <time>2018-04-21T08:20:56.000Z</time>
      </trkpt>
      <trkpt lat="40.814242" lon="-3.865059">
        <ele>2102.5</ele>
        <time>2018-04-21T08:20:57.000Z</time>
      </trkpt>
      <trkpt lat="40.814242" lon="-3.865064">
        <ele>2102.4</ele>
        <time>2018-04-21T08:20:58.000Z</time>
      </trkpt>
      <trkpt lat="40.814242" lon="-3.865069">
        <ele>2102.3</ele>
        <time>2018-04-21T08:20:59.000Z</time>
      </trkpt>
      <trkpt lat="40.814242" lon="-3.865076">
        <ele>2102.1</ele>
        <time>2018-04-21T08:21:00.000Z</time>
      </trkpt>
      <trkpt lat="40.814243" lon="-3.865082">
        <ele>2102.0</ele>
        <time>2018-04-21T08:21:01.000Z</time>
      </trkpt>
      <trkpt lat="40.814244" lon="-3.865089">
        <ele>2101.8</ele>
        <time>2018-04-21T08:21:02.000Z</time>
      </trkpt>
      <trkpt lat="40.814246" lon="-3.865095">
        <ele>2101.6</ele>
        <time>2018-04-21T08:21:03.000Z</time>
      </trkpt>
      <trkpt lat="40.814247" lon="-3.865102">
        <ele>2101.4</ele>
        <time>2018-04-21T08:21:04.000Z</time>
      </trkpt>
      <trkpt lat="40.814249" lon="-3.865109">
        <ele>2101.2</ele>
        <time>2018-04-21T08:21:05.000Z</time>
      </trkpt>
      <trkpt lat="40.814251" lon="-3.865116">
        <ele>2101.0</ele>
        <time>2018-04-21T08:21:06.000Z</time>
      </trkpt>
      <trkpt lat="40.814252" lon="-3.865123">
        <ele>2100.8</ele>
        <time>2018-04-21T08:21:07.000Z</time>
      </trkpt>
      <trkpt lat="40.814252" lon="-3.86513">
        <ele>2100.6</ele>
        <time>2018-04-21T08:21:08.000Z</time>
      </trkpt>
      <trkpt lat="40.814252" lon="-3.865138">
        <ele>2100.4</ele>
        <time>2018-04-21T08:21:09.000Z</time>
      </trkpt>
      <trkpt lat="40.814251" lon="-3.865146">
        <ele>2100.3</ele>
        <time>2018-04-21T08:21:10.000Z</time>
      </trkpt>
      <trkpt lat="40.814249" lon="-3.865153">
        <ele>2100.2</ele>
        <time>2018-04-21T08:21:11.000Z</time>
      </trkpt>
      <trkpt lat="40.814247" lon="-3.86516">
        <ele>2100.1</ele>
        <time>2018-04-21T08:21:12.000Z</time>
      </trkpt>
      <trkpt lat="40.814245" lon="-3.865164">
        <ele>2100.1</ele>
        <time>2018-04-21T08:21:13.000Z</time>
      </trkpt>
      <trkpt lat="40.814244" lon="-3.865165">
        <ele>2100.1</ele>
        <time>2018-04-21T08:21:14.000Z</time>
      </trkpt>
      <trkpt lat="40.814244" lon="-3.865165">
        <ele>2100.1</ele>
        <time>2018-04-21T08:21:15.000Z</time>
      </trkpt>
      <trkpt lat="40.814244" lon="-3.865164">
        <ele>2100.1</ele>
        <time>2018-04-21T08:21:16.000Z</time>
      </trkpt>
      <trkpt lat="40.814244" lon="-3.865164">
        <ele>2100.1</ele>
        <time>2018-04-21T08:21:17.000Z</time>
      </trkpt>
      <trkpt lat="40.814244" lon="-3.865167">
        <ele>2100.0</ele>
        <time>2018-04-21T08:21:18.000Z</time>
      </trkpt>
      <trkpt lat="40.814243" lon="-3.865173">
        <ele>2099.9</ele>
        <time>2018-04-21T08:21:19.000Z</time>
      </trkpt>
      <trkpt lat="40.814241" lon="-3.865181">
        <ele>2099.8</ele>
        <time>2018-04-21T08:21:20.000Z</time>
      </trkpt>
      <trkpt lat="40.814238" lon="-3.865191">
        <ele>2099.7</ele>
        <time>2018-04-21T08:21:21.000Z</time>
      </trkpt>
      <trkpt lat="40.814236" lon="-3.865201">
        <ele>2099.6</ele>
        <time>2018-04-21T08:21:22.000Z</time>
      </trkpt>
      <trkpt lat="40.814233" lon="-3.865211">
        <ele>2099.4</ele>
        <time>2018-04-21T08:21:23.000Z</time>
      </trkpt>
      <trkpt lat="40.814231" lon="-3.865219">
        <ele>2099.3</ele>
        <time>2018-04-21T08:21:24.000Z</time>
      </trkpt>
      <trkpt lat="40.814228" lon="-3.865227">
        <ele>2099.3</ele>
        <time>2018-04-21T08:21:25.000Z</time>
      </trkpt>
      <trkpt lat="40.814226" lon="-3.865234">
        <ele>2099.2</ele>
        <time>2018-04-21T08:21:26.000Z</time>
      </trkpt>
      <trkpt lat="40.814223" lon="-3.86524">
        <ele>2099.2</ele>
        <time>2018-04-21T08:21:27.000Z</time>
      </trkpt>
      <trkpt lat="40.814221" lon="-3.865245">
        <ele>2099.1</ele>
        <time>2018-04-21T08:21:28.000Z</time>
      </trkpt>
      <trkpt lat="40.814219" lon="-3.86525">
        <ele>2099.1</ele>
        <time>2018-04-21T08:21:29.000Z</time>
      </trkpt>
      <trkpt lat="40.814217" lon="-3.865254">
        <ele>2099.1</ele>
        <time>2018-04-21T08:21:30.000Z</time>
      </trkpt>
      <trkpt lat="40.814216" lon="-3.865258">
        <ele>2099.0</ele>
        <time>2018-04-21T08:21:31.000Z</time>
      </trkpt>
      <trkpt lat="40.814215" lon="-3.86526">
        <ele>2099.0</ele>
        <time>2018-04-21T08:21:32.000Z</time>
      </trkpt>
      <trkpt lat="40.814213" lon="-3.865263">
        <ele>2099.0</ele>
        <time>2018-04-21T08:21:33.000Z</time>
      </trkpt>
      <trkpt lat="40.814212" lon="-3.865265">
        <ele>2099.0</ele>
        <time>2018-04-21T08:21:34.000Z</time>
      </trkpt>
      <trkpt lat="40.814211" lon="-3.865267">
        <ele>2099.0</ele>
        <time>2018-04-21T08:21:35.000Z</time>
      </trkpt>
      <trkpt lat="40.81421" lon="-3.865269">
        <ele>2099.0</ele>
        <time>2018-04-21T08:21:36.000Z</time>
      </trkpt>
      <trkpt lat="40.814208" lon="-3.865271">
        <ele>2099.0</ele>
        <time>2018-04-21T08:21:37.000Z</time>
      </trkpt>
      <trkpt lat="40.814205" lon="-3.865273">
        <ele>2099.1</ele>
        <time>2018-04-21T08:21:38.000Z</time>
      </trkpt>
      <trkpt lat="40.814202" lon="-3.865276">
        <ele>2099.1</ele>
        <time>2018-04-21T08:21:39.000Z</time>
      </trkpt>
      <trkpt lat="40.814199" lon="-3.865279">
        <ele>2099.2</ele>
        <time>2018-04-21T08:21:40.000Z</time>
      </trkpt>
      <trkpt lat="40.814194" lon="-3.865283">
        <ele>2099.3</ele>
        <time>2018-04-21T08:21:41.000Z</time>
      </trkpt>
      <trkpt lat="40.814189" lon="-3.865288">
        <ele>2099.3</ele>
        <time>2018-04-21T08:21:42.000Z</time>
      </trkpt>
      <trkpt lat="40.814183" lon="-3.865293">
        <ele>2099.4</ele>
        <time>2018-04-21T08:21:43.000Z</time>
      </trkpt>
      <trkpt lat="40.814177" lon="-3.865297">
        <ele>2099.6</ele>
        <time>2018-04-21T08:21:44.000Z</time>
      </trkpt>
      <trkpt lat="40.814172" lon="-3.865302">
        <ele>2099.6</ele>
        <time>2018-04-21T08:21:45.000Z</time>
      </trkpt>
      <trkpt lat="40.814166" lon="-3.865307">
        <ele>2099.7</ele>
        <time>2018-04-21T08:21:46.000Z</time>
      </trkpt>
      <trkpt lat="40.814162" lon="-3.86531">
        <ele>2099.5</ele>
        <time>2018-04-21T08:21:47.000Z</time>
      </trkpt>
      <trkpt lat="40.814158" lon="-3.865314">
        <ele>2099.3</ele>
        <time>2018-04-21T08:21:48.000Z</time>
      </trkpt>
      <trkpt lat="40.814156" lon="-3.865316">
        <ele>2099.3</ele>
        <time>2018-04-21T08:21:49.000Z</time>
      </trkpt>
      <trkpt lat="40.814155" lon="-3.865317">
        <ele>2099.2</ele>
        <time>2018-04-21T08:21:50.000Z</time>
      </trkpt>
      <trkpt lat="40.814155" lon="-3.865317">
        <ele>2099.2</ele>
        <time>2018-04-21T08:21:51.000Z</time>
      </trkpt>
      <trkpt lat="40.814155" lon="-3.865317">
        <ele>2099.2</ele>
        <time>2018-04-21T08:21:52.000Z</time>
      </trkpt>
      <trkpt lat="40.814155" lon="-3.865317">
        <ele>2099.2</ele>
        <time>2018-04-21T08:21:53.000Z</time>
      </trkpt>
      <trkpt lat="40.814155" lon="-3.865318">
        <ele>2099.2</ele>
        <time>2018-04-21T08:21:54.000Z</time>
      </trkpt>
      <trkpt lat="40.814153" lon="-3.86532">
        <ele>2099.1</ele>
        <time>2018-04-21T08:21:55.000Z</time>
      </trkpt>
      <trkpt lat="40.814149" lon="-3.865323">
        <ele>2098.9</ele>
        <time>2018-04-21T08:21:56.000Z</time>
      </trkpt>
      <trkpt lat="40.814145" lon="-3.865328">
        <ele>2098.7</ele>
        <time>2018-04-21T08:21:57.000Z</time>
      </trkpt>
      <trkpt lat="40.81414" lon="-3.865333">
        <ele>2098.5</ele>
        <time>2018-04-21T08:21:58.000Z</time>
      </trkpt>
      <trkpt lat="40.814134" lon="-3.865339">
        <ele>2098.2</ele>
        <time>2018-04-21T08:21:59.000Z</time>
      </trkpt>
      <trkpt lat="40.814127" lon="-3.865345">
        <ele>2097.9</ele>
        <time>2018-04-21T08:22:00.000Z</time>
      </trkpt>
      <trkpt lat="40.81412" lon="-3.865351">
        <ele>2097.6</ele>
        <time>2018-04-21T08:22:01.000Z</time>
      </trkpt>
      <trkpt lat="40.814112" lon="-3.865357">
        <ele>2097.3</ele>
        <time>2018-04-21T08:22:02.000Z</time>
      </trkpt>
      <trkpt lat="40.814103" lon="-3.865361">
        <ele>2096.9</ele>
        <time>2018-04-21T08:22:03.000Z</time>
      </trkpt>
      <trkpt lat="40.814095" lon="-3.865363">
        <ele>2096.7</ele>
        <time>2018-04-21T08:22:04.000Z</time>
      </trkpt>
      <trkpt lat="40.814086" lon="-3.865364">
        <ele>2096.4</ele>
        <time>2018-04-21T08:22:05.000Z</time>
      </trkpt>
      <trkpt lat="40.814078" lon="-3.865365">
        <ele>2096.2</ele>
        <time>2018-04-21T08:22:06.000Z</time>
      </trkpt>
      <trkpt lat="40.814069" lon="-3.865366">
        <ele>2096.0</ele>
        <time>2018-04-21T08:22:07.000Z</time>
      </trkpt>
      <trkpt lat="40.814062" lon="-3.865367">
        <ele>2095.8</ele>
        <time>2018-04-21T08:22:08.000Z</time>
      </trkpt>
      <trkpt lat="40.814054" lon="-3.865369">
        <ele>2095.5</ele>
        <time>2018-04-21T08:22:09.000Z</time>
      </trkpt>
      <trkpt lat="40.814047" lon="-3.865372">
        <ele>2095.3</ele>
        <time>2018-04-21T08:22:10.000Z</time>
      </trkpt>
      <trkpt lat="40.81404" lon="-3.865375">
        <ele>2095.0</ele>
        <time>2018-04-21T08:22:11.000Z</time>
      </trkpt>
      <trkpt lat="40.814034" lon="-3.86538">
        <ele>2094.8</ele>
        <time>2018-04-21T08:22:12.000Z</time>
      </trkpt>
      <trkpt lat="40.814027" lon="-3.865385">
        <ele>2094.6</ele>
        <time>2018-04-21T08:22:13.000Z</time>
      </trkpt>
      <trkpt lat="40.814021" lon="-3.865391">
        <ele>2094.3</ele>
        <time>2018-04-21T08:22:14.000Z</time>
      </trkpt>
      <trkpt lat="40.814014" lon="-3.865399">
        <ele>2094.0</ele>
        <time>2018-04-21T08:22:15.000Z</time>
      </trkpt>
      <trkpt lat="40.814008" lon="-3.865407">
        <ele>2093.7</ele>
        <time>2018-04-21T08:22:16.000Z</time>
      </trkpt>
      <trkpt lat="40.814001" lon="-3.865417">
        <ele>2093.4</ele>
        <time>2018-04-21T08:22:17.000Z</time>
      </trkpt>
      <trkpt lat="40.813994" lon="-3.865427">
        <ele>2093.1</ele>
        <time>2018-04-21T08:22:18.000Z</time>
      </trkpt>
      <trkpt lat="40.813988" lon="-3.865438">
        <ele>2092.8</ele>
        <time>2018-04-21T08:22:19.000Z</time>
      </trkpt>
      <trkpt lat="40.813982" lon="-3.865449">
        <ele>2092.5</ele>
        <time>2018-04-21T08:22:20.000Z</time>
      </trkpt>
      <trkpt lat="40.813976" lon="-3.86546">
        <ele>2092.2</ele>
        <time>2018-04-21T08:22:21.000Z</time>
      </trkpt>
      <trkpt lat="40.813971" lon="-3.86547">
        <ele>2092.0</ele>
        <time>2018-04-21T08:22:22.000Z</time>
      </trkpt>
      <trkpt lat="40.813966" lon="-3.865479">
        <ele>2091.7</ele>
        <time>2018-04-21T08:22:23.000Z</time>
      </trkpt>
      <trkpt lat="40.813962" lon="-3.865486">
        <ele>2091.6</ele>
        <time>2018-04-21T08:22:24.000Z</time>
      </trkpt>
      <trkpt lat="40.81396" lon="-3.865492">
        <ele>2091.4</ele>
        <time>2018-04-21T08:22:25.000Z</time>
      </trkpt>
      <trkpt lat="40.813958" lon="-3.865496">
        <ele>2091.3</ele>
        <time>2018-04-21T08:22:26.000Z</time>
      </trkpt>
      <trkpt lat="40.813957" lon="-3.865498">
        <ele>2091.3</ele>
        <time>2018-04-21T08:22:27.000Z</time>
      </trkpt>
      <trkpt lat="40.813957" lon="-3.865498">
        <ele>2091.3</ele>
        <time>2018-04-21T08:22:28.000Z</time>
      </trkpt>
      <trkpt lat="40.813957" lon="-3.865497">
        <ele>2091.3</ele>
        <time>2018-04-21T08:22:29.000Z</time>
      </trkpt>
      <trkpt lat="40.813956" lon="-3.865496">
        <ele>2091.3</ele>
        <time>2018-04-21T08:22:30.000Z</time>
      </trkpt>
      <trkpt lat="40.813953" lon="-3.865497">
        <ele>2091.2</ele>
        <time>2018-04-21T08:22:31.000Z</time>
      </trkpt>
      <trkpt lat="40.813948" lon="-3.865498">
        <ele>2091.1</ele>
        <time>2018-04-21T08:22:32.000Z</time>
      </trkpt>
      <trkpt lat="40.813941" lon="-3.865502">
        <ele>2090.9</ele>
        <time>2018-04-21T08:22:33.000Z</time>
      </trkpt>
      <trkpt lat="40.813934" lon="-3.865507">
        <ele>2090.7</ele>
        <time>2018-04-21T08:22:34.000Z</time>
      </trkpt>
      <trkpt lat="40.813927" lon="-3.865514">
        <ele>2090.5</ele>
        <time>2018-04-21T08:22:35.000Z</time>
      </trkpt>
      <trkpt lat="40.813921" lon="-3.865521">
        <ele>2090.3</ele>
        <time>2018-04-21T08:22:36.000Z</time>
      </trkpt>
      <trkpt lat="40.813916" lon="-3.86553">
        <ele>2090.0</ele>
        <time>2018-04-21T08:22:37.000Z</time>
      </trkpt>
      <trkpt lat="40.813911" lon="-3.86554">
        <ele>2089.8</ele>
        <time>2018-04-21T08:22:38.000Z</time>
      </trkpt>
      <trkpt lat="40.813908" lon="-3.865551">
        <ele>2089.6</ele>
        <time>2018-04-21T08:22:39.000Z</time>
      </trkpt>
      <trkpt lat="40.813905" lon="-3.865562">
        <ele>2089.5</ele>
        <time>2018-04-21T08:22:40.000Z</time>
      </trkpt>
      <trkpt lat="40.813903" lon="-3.865573">
        <ele>2089.3</ele>
        <time>2018-04-21T08:22:41.000Z</time>
      </trkpt>
      <trkpt lat="40.813901" lon="-3.865584">
        <ele>2089.2</ele>
        <time>2018-04-21T08:22:42.000Z</time>
      </trkpt>
      <trkpt lat="40.8139" lon="-3.865595">
        <ele>2089.0</ele>
        <time>2018-04-21T08:22:43.000Z</time>
      </trkpt>
      <trkpt lat="40.813899" lon="-3.865606">
        <ele>2088.9</ele>
        <time>2018-04-21T08:22:44.000Z</time>
      </trkpt>
      <trkpt lat="40.813897" lon="-3.865615">
        <ele>2088.7</ele>
        <time>2018-04-21T08:22:45.000Z</time>
      </trkpt>
      <trkpt lat="40.813896" lon="-3.865625">
        <ele>2088.6</ele>
        <time>2018-04-21T08:22:46.000Z</time>
      </trkpt>
      <trkpt lat="40.813895" lon="-3.865634">
        <ele>2088.5</ele>
        <time>2018-04-21T08:22:47.000Z</time>
      </trkpt>
      <trkpt lat="40.813893" lon="-3.865642">
        <ele>2088.4</ele>
        <time>2018-04-21T08:22:48.000Z</time>
      </trkpt>
      <trkpt lat="40.813891" lon="-3.865651">
        <ele>2088.3</ele>
        <time>2018-04-21T08:22:49.000Z</time>
      </trkpt>
      <trkpt lat="40.813888" lon="-3.86566">
        <ele>2088.1</ele>
        <time>2018-04-21T08:22:50.000Z</time>
      </trkpt>
      <trkpt lat="40.813885" lon="-3.865667">
        <ele>2088.0</ele>
        <time>2018-04-21T08:22:51.000Z</time>
      </trkpt>
      <trkpt lat="40.81388" lon="-3.865673">
        <ele>2087.9</ele>
        <time>2018-04-21T08:22:52.000Z</time>
      </trkpt>
      <trkpt lat="40.813875" lon="-3.865676">
        <ele>2087.8</ele>
        <time>2018-04-21T08:22:53.000Z</time>
      </trkpt>
      <trkpt lat="40.81387" lon="-3.865675">
        <ele>2087.7</ele>
        <time>2018-04-21T08:22:54.000Z</time>
      </trkpt>
      <trkpt lat="40.813864" lon="-3.865672">
        <ele>2087.6</ele>
        <time>2018-04-21T08:22:55.000Z</time>
      </trkpt>
      <trkpt lat="40.81386" lon="-3.86567">
        <ele>2087.6</ele>
        <time>2018-04-21T08:22:56.000Z</time>
      </trkpt>
      <trkpt lat="40.813858" lon="-3.865669">
        <ele>2087.6</ele>
        <time>2018-04-21T08:22:57.000Z</time>
      </trkpt>
      <trkpt lat="40.813857" lon="-3.865669">
        <ele>2087.5</ele>
        <time>2018-04-21T08:22:58.000Z</time>
      </trkpt>
      <trkpt lat="40.813854" lon="-3.865668">
        <ele>2087.5</ele>
        <time>2018-04-21T08:22:59.000Z</time>
      </trkpt>
      <trkpt lat="40.813851" lon="-3.865667">
        <ele>2087.5</ele>
        <time>2018-04-21T08:23:00.000Z</time>
      </trkpt>
      <trkpt lat="40.813847" lon="-3.865666">
        <ele>2087.4</ele>
        <time>2018-04-21T08:23:01.000Z</time>
      </trkpt>
      <trkpt lat="40.813843" lon="-3.865665">
        <ele>2087.4</ele>
        <time>2018-04-21T08:23:02.000Z</time>
      </trkpt>
      <trkpt lat="40.813839" lon="-3.865665">
        <ele>2087.3</ele>
        <time>2018-04-21T08:23:03.000Z</time>
      </trkpt>
      <trkpt lat="40.813836" lon="-3.865665">
        <ele>2087.3</ele>
        <time>2018-04-21T08:23:04.000Z</time>
      </trkpt>
      <trkpt lat="40.813833" lon="-3.865667">
        <ele>2087.2</ele>
        <time>2018-04-21T08:23:05.000Z</time>
      </trkpt>
      <trkpt lat="40.81383" lon="-3.865669">
        <ele>2087.1</ele>
        <time>2018-04-21T08:23:06.000Z</time>
      </trkpt>
      <trkpt lat="40.813828" lon="-3.865673">
        <ele>2087.1</ele>
        <time>2018-04-21T08:23:07.000Z</time>
      </trkpt>
      <trkpt lat="40.813827" lon="-3.865679">
        <ele>2087.0</ele>
        <time>2018-04-21T08:23:08.000Z</time>
      </trkpt>
      <trkpt lat="40.813825" lon="-3.865685">
        <ele>2086.9</ele>
        <time>2018-04-21T08:23:09.000Z</time>
      </trkpt>
      <trkpt lat="40.813821" lon="-3.86569">
        <ele>2086.8</ele>
        <time>2018-04-21T08:23:10.000Z</time>
      </trkpt>
      <trkpt lat="40.813815" lon="-3.865693">
        <ele>2086.7</ele>
        <time>2018-04-21T08:23:11.000Z</time>
      </trkpt>
      <trkpt lat="40.813805" lon="-3.865694">
        <ele>2086.6</ele>
        <time>2018-04-21T08:23:12.000Z</time>
      </trkpt>
      <trkpt lat="40.813794" lon="-3.865697">
        <ele>2086.4</ele>
        <time>2018-04-21T08:23:13.000Z</time>
      </trkpt>
      <trkpt lat="40.813783" lon="-3.865708">
        <ele>2086.1</ele>
        <time>2018-04-21T08:23:14.000Z</time>
      </trkpt>
      <trkpt lat="40.813776" lon="-3.865728">
        <ele>2085.9</ele>
        <time>2018-04-21T08:23:15.000Z</time>
      </trkpt>
      <trkpt lat="40.813773" lon="-3.865751">
        <ele>2085.7</ele>
        <time>2018-04-21T08:23:16.000Z</time>
      </trkpt>
      <trkpt lat="40.813772" lon="-3.86577">
        <ele>2085.6</ele>
        <time>2018-04-21T08:23:17.000Z</time>
      </trkpt>
      <trkpt lat="40.813774" lon="-3.865785">
        <ele>2085.5</ele>
        <time>2018-04-21T08:23:18.000Z</time>
      </trkpt>
      <trkpt lat="40.813776" lon="-3.865795">
        <ele>2085.5</ele>
        <time>2018-04-21T08:23:19.000Z</time>
      </trkpt>
      <trkpt lat="40.813777" lon="-3.865803">
        <ele>2085.5</ele>
        <time>2018-04-21T08:23:20.000Z</time>
      </trkpt>
      <trkpt lat="40.813775" lon="-3.865809">
        <ele>2085.4</ele>
        <time>2018-04-21T08:23:21.000Z</time>
      </trkpt>
      <trkpt lat="40.813771" lon="-3.865815">
        <ele>2085.3</ele>
        <time>2018-04-21T08:23:22.000Z</time>
      </trkpt>
      <trkpt lat="40.813765" lon="-3.865819">
        <ele>2085.2</ele>
        <time>2018-04-21T08:23:23.000Z</time>
      </trkpt>
      <trkpt lat="40.813759" lon="-3.865823">
        <ele>2085.1</ele>
        <time>2018-04-21T08:23:24.000Z</time>
      </trkpt>
      <trkpt lat="40.813751" lon="-3.865826">
        <ele>2085.0</ele>
        <time>2018-04-21T08:23:25.000Z</time>
      </trkpt>
      <trkpt lat="40.813743" lon="-3.86583">
        <ele>2084.9</ele>
        <time>2018-04-21T08:23:26.000Z</time>
      </trkpt>
      <trkpt lat="40.813736" lon="-3.865833">
        <ele>2084.9</ele>
        <time>2018-04-21T08:23:27.000Z</time>
      </trkpt>
      <trkpt lat="40.813728" lon="-3.865837">
        <ele>2084.7</ele>
        <time>2018-04-21T08:23:28.000Z</time>
      </trkpt>
      <trkpt lat="40.813721" lon="-3.865841">
        <ele>2084.6</ele>
        <time>2018-04-21T08:23:29.000Z</time>
      </trkpt>
      <trkpt lat="40.813714" lon="-3.865845">
        <ele>2084.5</ele>
        <time>2018-04-21T08:23:30.000Z</time>
      </trkpt>
      <trkpt lat="40.813708" lon="-3.865849">
        <ele>2084.4</ele>
        <time>2018-04-21T08:23:31.000Z</time>
      </trkpt>
      <trkpt lat="40.813701" lon="-3.865853">
        <ele>2084.3</ele>
        <time>2018-04-21T08:23:32.000Z</time>
      </trkpt>
      <trkpt lat="40.813695" lon="-3.865858">
        <ele>2084.1</ele>
        <time>2018-04-21T08:23:33.000Z</time>
      </trkpt>
      <trkpt lat="40.813689" lon="-3.865863">
        <ele>2084.0</ele>
        <time>2018-04-21T08:23:34.000Z</time>
      </trkpt>
      <trkpt lat="40.813684" lon="-3.865868">
        <ele>2083.9</ele>
        <time>2018-04-21T08:23:35.000Z</time>
      </trkpt>
      <trkpt lat="40.813678" lon="-3.865873">
        <ele>2083.8</ele>
        <time>2018-04-21T08:23:36.000Z</time>
      </trkpt>
      <trkpt lat="40.813673" lon="-3.865878">
        <ele>2083.7</ele>
        <time>2018-04-21T08:23:37.000Z</time>
      </trkpt>
      <trkpt lat="40.813667" lon="-3.865883">
        <ele>2083.6</ele>
        <time>2018-04-21T08:23:38.000Z</time>
      </trkpt>
      <trkpt lat="40.813662" lon="-3.865889">
        <ele>2083.5</ele>
        <time>2018-04-21T08:23:39.000Z</time>
      </trkpt>
      <trkpt lat="40.813657" lon="-3.865894">
        <ele>2083.4</ele>
        <time>2018-04-21T08:23:40.000Z</time>
      </trkpt>
      <trkpt lat="40.813651" lon="-3.8659">
        <ele>2083.3</ele>
        <time>2018-04-21T08:23:41.000Z</time>
      </trkpt>
      <trkpt lat="40.813646" lon="-3.865906">
        <ele>2083.2</ele>
        <time>2018-04-21T08:23:42.000Z</time>
      </trkpt>
      <trkpt lat="40.813641" lon="-3.865912">
        <ele>2083.0</ele>
        <time>2018-04-21T08:23:43.000Z</time>
      </trkpt>
      <trkpt lat="40.813635" lon="-3.865918">
        <ele>2082.9</ele>
        <time>2018-04-21T08:23:44.000Z</time>
      </trkpt>
      <trkpt lat="40.813629" lon="-3.865924">
        <ele>2082.8</ele>
        <time>2018-04-21T08:23:45.000Z</time>
      </trkpt>
      <trkpt lat="40.813623" lon="-3.865931">
        <ele>2082.7</ele>
        <time>2018-04-21T08:23:46.000Z</time>
      </trkpt>
      <trkpt lat="40.813617" lon="-3.865937">
        <ele>2082.6</ele>
        <time>2018-04-21T08:23:47.000Z</time>
      </trkpt>
      <trkpt lat="40.81361" lon="-3.865944">
        <ele>2082.5</ele>
        <time>2018-04-21T08:23:48.000Z</time>
      </trkpt>
      <trkpt lat="40.813603" lon="-3.86595">
        <ele>2082.4</ele>
        <time>2018-04-21T08:23:49.000Z</time>
      </trkpt>
      <trkpt lat="40.813596" lon="-3.865957">
        <ele>2082.3</ele>
        <time>2018-04-21T08:23:50.000Z</time>
      </trkpt>
      <trkpt lat="40.813589" lon="-3.865964">
        <ele>2082.2</ele>
        <time>2018-04-21T08:23:51.000Z</time>
      </trkpt>
      <trkpt lat="40.813582" lon="-3.865971">
        <ele>2082.1</ele>
        <time>2018-04-21T08:23:52.000Z</time>
      </trkpt>
      <trkpt lat="40.813575" lon="-3.865978">
        <ele>2082.0</ele>
        <time>2018-04-21T08:23:53.000Z</time>
      </trkpt>
      <trkpt lat="40.813568" lon="-3.865985">
        <ele>2081.9</ele>
        <time>2018-04-21T08:23:54.000Z</time>
      </trkpt>
      <trkpt lat="40.813561" lon="-3.865993">
        <ele>2081.8</ele>
        <time>2018-04-21T08:23:55.000Z</time>
      </trkpt>
      <trkpt lat="40.813554" lon="-3.866001">
        <ele>2081.7</ele>
        <time>2018-04-21T08:23:56.000Z</time>
      </trkpt>
      <trkpt lat="40.813548" lon="-3.866009">
        <ele>2081.6</ele>
        <time>2018-04-21T08:23:57.000Z</time>
      </trkpt>
      <trkpt lat="40.813542" lon="-3.866018">
        <ele>2081.6</ele>
        <time>2018-04-21T08:23:58.000Z</time>
      </trkpt>
      <trkpt lat="40.813536" lon="-3.866027">
        <ele>2081.5</ele>
        <time>2018-04-21T08:23:59.000Z</time>
      </trkpt>
      <trkpt lat="40.81353" lon="-3.866036">
        <ele>2081.4</ele>
        <time>2018-04-21T08:24:00.000Z</time>
      </trkpt>
      <trkpt lat="40.813525" lon="-3.866045">
        <ele>2081.3</ele>
        <time>2018-04-21T08:24:01.000Z</time>
      </trkpt>
      <trkpt lat="40.81352" lon="-3.866056">
        <ele>2081.2</ele>
        <time>2018-04-21T08:24:02.000Z</time>
      </trkpt>
      <trkpt lat="40.813516" lon="-3.866066">
        <ele>2081.2</ele>
        <time>2018-04-21T08:24:03.000Z</time>
      </trkpt>
      <trkpt lat="40.813513" lon="-3.866077">
        <ele>2081.1</ele>
        <time>2018-04-21T08:24:04.000Z</time>
      </trkpt>
      <trkpt lat="40.81351" lon="-3.866088">
        <ele>2081.0</ele>
        <time>2018-04-21T08:24:05.000Z</time>
      </trkpt>
      <trkpt lat="40.813508" lon="-3.8661">
        <ele>2080.9</ele>
        <time>2018-04-21T08:24:06.000Z</time>
      </trkpt>
      <trkpt lat="40.813507" lon="-3.866112">
        <ele>2080.9</ele>
        <time>2018-04-21T08:24:07.000Z</time>
      </trkpt>
      <trkpt lat="40.813506" lon="-3.866122">
        <ele>2080.8</ele>
        <time>2018-04-21T08:24:08.000Z</time>
      </trkpt>
      <trkpt lat="40.813505" lon="-3.866131">
        <ele>2080.7</ele>
        <time>2018-04-21T08:24:09.000Z</time>
      </trkpt>
      <trkpt lat="40.813506" lon="-3.866136">
        <ele>2080.7</ele>
        <time>2018-04-21T08:24:10.000Z</time>
      </trkpt>
      <trkpt lat="40.813506" lon="-3.866139">
        <ele>2080.7</ele>
        <time>2018-04-21T08:24:11.000Z</time>
      </trkpt>
      <trkpt lat="40.813506" lon="-3.866139">
        <ele>2080.7</ele>
        <time>2018-04-21T08:24:12.000Z</time>
      </trkpt>
      <trkpt lat="40.813506" lon="-3.866139">
        <ele>2080.7</ele>
        <time>2018-04-21T08:24:13.000Z</time>
      </trkpt>
      <trkpt lat="40.813505" lon="-3.866139">
        <ele>2080.7</ele>
        <time>2018-04-21T08:24:14.000Z</time>
      </trkpt>
      <trkpt lat="40.813502" lon="-3.866142">
        <ele>2080.7</ele>
        <time>2018-04-21T08:24:15.000Z</time>
      </trkpt>
      <trkpt lat="40.813498" lon="-3.866146">
        <ele>2080.7</ele>
        <time>2018-04-21T08:24:16.000Z</time>
      </trkpt>
      <trkpt lat="40.813493" lon="-3.866151">
        <ele>2080.6</ele>
        <time>2018-04-21T08:24:17.000Z</time>
      </trkpt>
      <trkpt lat="40.813487" lon="-3.866157">
        <ele>2080.6</ele>
        <time>2018-04-21T08:24:18.000Z</time>
      </trkpt>
      <trkpt lat="40.81348" lon="-3.866164">
        <ele>2080.6</ele>
        <time>2018-04-21T08:24:19.000Z</time>
      </trkpt>
      <trkpt lat="40.813472" lon="-3.86617">
        <ele>2080.6</ele>
        <time>2018-04-21T08:24:20.000Z</time>
      </trkpt>
      <trkpt lat="40.813465" lon="-3.866175">
        <ele>2080.6</ele>
        <time>2018-04-21T08:24:21.000Z</time>
      </trkpt>
      <trkpt lat="40.813457" lon="-3.866179">
        <ele>2080.6</ele>
        <time>2018-04-21T08:24:22.000Z</time>
      </trkpt>
      <trkpt lat="40.813449" lon="-3.866182">
        <ele>2080.6</ele>
        <time>2018-04-21T08:24:23.000Z</time>
      </trkpt>
      <trkpt lat="40.813442" lon="-3.866182">
        <ele>2080.6</ele>
        <time>2018-04-21T08:24:24.000Z</time>
      </trkpt>
      <trkpt lat="40.813435" lon="-3.866182">
        <ele>2080.6</ele>
        <time>2018-04-21T08:24:25.000Z</time>
      </trkpt>
      <trkpt lat="40.813427" lon="-3.866181">
        <ele>2080.7</ele>
        <time>2018-04-21T08:24:26.000Z</time>
      </trkpt>
      <trkpt lat="40.813419" lon="-3.866182">
        <ele>2080.7</ele>
        <time>2018-04-21T08:24:27.000Z</time>
      </trkpt>
      <trkpt lat="40.81341" lon="-3.866186">
        <ele>2080.7</ele>
        <time>2018-04-21T08:24:28.000Z</time>
      </trkpt>
      <trkpt lat="40.813401" lon="-3.866193">
        <ele>2080.7</ele>
        <time>2018-04-21T08:24:29.000Z</time>
      </trkpt>
      <trkpt lat="40.813392" lon="-3.866202">
        <ele>2080.8</ele>
        <time>2018-04-21T08:24:30.000Z</time>
      </trkpt>
      <trkpt lat="40.813383" lon="-3.866212">
        <ele>2080.8</ele>
        <time>2018-04-21T08:24:31.000Z</time>
      </trkpt>
      <trkpt lat="40.813375" lon="-3.866221">
        <ele>2080.8</ele>
        <time>2018-04-21T08:24:32.000Z</time>
      </trkpt>
      <trkpt lat="40.813369" lon="-3.866228">
        <ele>2080.8</ele>
        <time>2018-04-21T08:24:33.000Z</time>
      </trkpt>
      <trkpt lat="40.813365" lon="-3.866234">
        <ele>2080.8</ele>
        <time>2018-04-21T08:24:34.000Z</time>
      </trkpt>
      <trkpt lat="40.813362" lon="-3.866237">
        <ele>2080.8</ele>
        <time>2018-04-21T08:24:35.000Z</time>
      </trkpt>
      <trkpt lat="40.813361" lon="-3.866239">
        <ele>2080.8</ele>
        <time>2018-04-21T08:24:36.000Z</time>
      </trkpt>
      <trkpt lat="40.813361" lon="-3.866241">
        <ele>2080.8</ele>
        <time>2018-04-21T08:24:37.000Z</time>
      </trkpt>
      <trkpt lat="40.813361" lon="-3.866241">
        <ele>2080.8</ele>
        <time>2018-04-21T08:24:38.000Z</time>
      </trkpt>
      <trkpt lat="40.813362" lon="-3.866241">
        <ele>2080.8</ele>
        <time>2018-04-21T08:24:39.000Z</time>
      </trkpt>
      <trkpt lat="40.813362" lon="-3.866241">
        <ele>2080.8</ele>
        <time>2018-04-21T08:24:40.000Z</time>
      </trkpt>
      <trkpt lat="40.813363" lon="-3.866241">
        <ele>2080.8</ele>
        <time>2018-04-21T08:24:41.000Z</time>
      </trkpt>
      <trkpt lat="40.813363" lon="-3.866241">
        <ele>2080.8</ele>
        <time>2018-04-21T08:24:42.000Z</time>
      </trkpt>
      <trkpt lat="40.813364" lon="-3.866242">
        <ele>2080.8</ele>
        <time>2018-04-21T08:24:43.000Z</time>
      </trkpt>
      <trkpt lat="40.813363" lon="-3.866244">
        <ele>2080.8</ele>
        <time>2018-04-21T08:24:44.000Z</time>
      </trkpt>
      <trkpt lat="40.813363" lon="-3.866245">
        <ele>2080.8</ele>
        <time>2018-04-21T08:24:45.000Z</time>
      </trkpt>
      <trkpt lat="40.813362" lon="-3.866247">
        <ele>2080.8</ele>
        <time>2018-04-21T08:24:46.000Z</time>
      </trkpt>
      <trkpt lat="40.813362" lon="-3.86625">
        <ele>2080.8</ele>
        <time>2018-04-21T08:24:47.000Z</time>
      </trkpt>
      <trkpt lat="40.813361" lon="-3.866252">
        <ele>2080.8</ele>
        <time>2018-04-21T08:24:48.000Z</time>
      </trkpt>
      <trkpt lat="40.81336" lon="-3.866255">
        <ele>2080.8</ele>
        <time>2018-04-21T08:24:49.000Z</time>
      </trkpt>
      <trkpt lat="40.813359" lon="-3.866258">
        <ele>2080.8</ele>
        <time>2018-04-21T08:24:50.000Z</time>
      </trkpt>
      <trkpt lat="40.813358" lon="-3.866262">
        <ele>2080.8</ele>
        <time>2018-04-21T08:24:51.000Z</time>
      </trkpt>
      <trkpt lat="40.813357" lon="-3.866265">
        <ele>2080.8</ele>
        <time>2018-04-21T08:24:52.000Z</time>
      </trkpt>
      <trkpt lat="40.813356" lon="-3.866268">
        <ele>2080.8</ele>
        <time>2018-04-21T08:24:53.000Z</time>
      </trkpt>
      <trkpt lat="40.813356" lon="-3.866272">
        <ele>2080.8</ele>
        <time>2018-04-21T08:24:54.000Z</time>
      </trkpt>
      <trkpt lat="40.813355" lon="-3.866275">
        <ele>2080.8</ele>
        <time>2018-04-21T08:24:55.000Z</time>
      </trkpt>
      <trkpt lat="40.813354" lon="-3.866278">
        <ele>2080.9</ele>
        <time>2018-04-21T08:24:56.000Z</time>
      </trkpt>
      <trkpt lat="40.813354" lon="-3.86628">
        <ele>2080.9</ele>
        <time>2018-04-21T08:24:57.000Z</time>
      </trkpt>
      <trkpt lat="40.813353" lon="-3.866283">
        <ele>2080.9</ele>
        <time>2018-04-21T08:24:58.000Z</time>
      </trkpt>
      <trkpt lat="40.813353" lon="-3.866285">
        <ele>2080.9</ele>
        <time>2018-04-21T08:24:59.000Z</time>
      </trkpt>
      <trkpt lat="40.813353" lon="-3.866286">
        <ele>2080.9</ele>
        <time>2018-04-21T08:25:00.000Z</time>
      </trkpt>
      <trkpt lat="40.813353" lon="-3.866287">
        <ele>2080.9</ele>
        <time>2018-04-21T08:25:01.000Z</time>
      </trkpt>
      <trkpt lat="40.813352" lon="-3.866288">
        <ele>2080.9</ele>
        <time>2018-04-21T08:25:02.000Z</time>
      </trkpt>
      <trkpt lat="40.813352" lon="-3.866288">
        <ele>2080.9</ele>
        <time>2018-04-21T08:25:03.000Z</time>
      </trkpt>
      <trkpt lat="40.813352" lon="-3.866288">
        <ele>2080.9</ele>
        <time>2018-04-21T08:25:04.000Z</time>
      </trkpt>
      <trkpt lat="40.813352" lon="-3.866288">
        <ele>2080.9</ele>
        <time>2018-04-21T08:25:05.000Z</time>
      </trkpt>
      <trkpt lat="40.813352" lon="-3.866288">
        <ele>2080.9</ele>
        <time>2018-04-21T08:25:06.000Z</time>
      </trkpt>
      <trkpt lat="40.813352" lon="-3.866288">
        <ele>2080.9</ele>
        <time>2018-04-21T08:25:07.000Z</time>
      </trkpt>
      <trkpt lat="40.813352" lon="-3.866288">
        <ele>2080.9</ele>
        <time>2018-04-21T08:25:08.000Z</time>
      </trkpt>
      <trkpt lat="40.813352" lon="-3.866288">
        <ele>2080.9</ele>
        <time>2018-04-21T08:25:09.000Z</time>
      </trkpt>
      <trkpt lat="40.813352" lon="-3.866288">
        <ele>2080.9</ele>
        <time>2018-04-21T08:25:10.000Z</time>
      </trkpt>
      <trkpt lat="40.813353" lon="-3.866289">
        <ele>2080.9</ele>
        <time>2018-04-21T08:25:11.000Z</time>
      </trkpt>
      <trkpt lat="40.813353" lon="-3.866289">
        <ele>2080.9</ele>
        <time>2018-04-21T08:25:12.000Z</time>
      </trkpt>
      <trkpt lat="40.813353" lon="-3.866289">
        <ele>2080.9</ele>
        <time>2018-04-21T08:25:13.000Z</time>
      </trkpt>
      <trkpt lat="40.813353" lon="-3.866291">
        <ele>2080.9</ele>
        <time>2018-04-21T08:25:14.000Z</time>
      </trkpt>
      <trkpt lat="40.813351" lon="-3.866299">
        <ele>2080.9</ele>
        <time>2018-04-21T08:25:15.000Z</time>
      </trkpt>
      <trkpt lat="40.813347" lon="-3.866305">
        <ele>2080.9</ele>
        <time>2018-04-21T08:25:16.000Z</time>
      </trkpt>
      <trkpt lat="40.813342" lon="-3.86631">
        <ele>2080.9</ele>
        <time>2018-04-21T08:25:17.000Z</time>
      </trkpt>
      <trkpt lat="40.813338" lon="-3.866314">
        <ele>2081.0</ele>
        <time>2018-04-21T08:25:18.000Z</time>
      </trkpt>
      <trkpt lat="40.813334" lon="-3.866318">
        <ele>2081.0</ele>
        <time>2018-04-21T08:25:19.000Z</time>
      </trkpt>
      <trkpt lat="40.813331" lon="-3.866321">
        <ele>2080.9</ele>
        <time>2018-04-21T08:25:20.000Z</time>
      </trkpt>
      <trkpt lat="40.813329" lon="-3.866324">
        <ele>2080.9</ele>
        <time>2018-04-21T08:25:21.000Z</time>
      </trkpt>
      <trkpt lat="40.813327" lon="-3.866327">
        <ele>2080.8</ele>
        <time>2018-04-21T08:25:22.000Z</time>
      </trkpt>
      <trkpt lat="40.813326" lon="-3.86633">
        <ele>2080.8</ele>
        <time>2018-04-21T08:25:23.000Z</time>
      </trkpt>
      <trkpt lat="40.813325" lon="-3.866333">
        <ele>2080.7</ele>
        <time>2018-04-21T08:25:24.000Z</time>
      </trkpt>
      <trkpt lat="40.813324" lon="-3.866335">
        <ele>2080.7</ele>
        <time>2018-04-21T08:25:25.000Z</time>
      </trkpt>
      <trkpt lat="40.813322" lon="-3.866338">
        <ele>2080.7</ele>
        <time>2018-04-21T08:25:26.000Z</time>
      </trkpt>
      <trkpt lat="40.813321" lon="-3.86634">
        <ele>2080.6</ele>
        <time>2018-04-21T08:25:27.000Z</time>
      </trkpt>
      <trkpt lat="40.813319" lon="-3.866343">
        <ele>2080.6</ele>
        <time>2018-04-21T08:25:28.000Z</time>
      </trkpt>
      <trkpt lat="40.813318" lon="-3.866345">
        <ele>2080.5</ele>
        <time>2018-04-21T08:25:29.000Z</time>
      </trkpt>
      <trkpt lat="40.813316" lon="-3.866347">
        <ele>2080.5</ele>
        <time>2018-04-21T08:25:30.000Z</time>
      </trkpt>
      <trkpt lat="40.813314" lon="-3.866348">
        <ele>2080.4</ele>
        <time>2018-04-21T08:25:31.000Z</time>
      </trkpt>
      <trkpt lat="40.813313" lon="-3.86635">
        <ele>2080.4</ele>
        <time>2018-04-21T08:25:32.000Z</time>
      </trkpt>
      <trkpt lat="40.813312" lon="-3.866351">
        <ele>2080.4</ele>
        <time>2018-04-21T08:25:33.000Z</time>
      </trkpt>
      <trkpt lat="40.813311" lon="-3.866352">
        <ele>2080.3</ele>
        <time>2018-04-21T08:25:34.000Z</time>
      </trkpt>
      <trkpt lat="40.81331" lon="-3.866353">
        <ele>2080.3</ele>
        <time>2018-04-21T08:25:35.000Z</time>
      </trkpt>
      <trkpt lat="40.81331" lon="-3.866353">
        <ele>2080.3</ele>
        <time>2018-04-21T08:25:36.000Z</time>
      </trkpt>
      <trkpt lat="40.81331" lon="-3.866353">
        <ele>2080.3</ele>
        <time>2018-04-21T08:25:37.000Z</time>
      </trkpt>
      <trkpt lat="40.81331" lon="-3.866353">
        <ele>2080.3</ele>
        <time>2018-04-21T08:25:38.000Z</time>
      </trkpt>
      <trkpt lat="40.813311" lon="-3.866353">
        <ele>2080.3</ele>
        <time>2018-04-21T08:25:39.000Z</time>
      </trkpt>
      <trkpt lat="40.813311" lon="-3.866353">
        <ele>2080.3</ele>
        <time>2018-04-21T08:25:40.000Z</time>
      </trkpt>
      <trkpt lat="40.813311" lon="-3.866353">
        <ele>2080.3</ele>
        <time>2018-04-21T08:25:41.000Z</time>
      </trkpt>
      <trkpt lat="40.813311" lon="-3.866353">
        <ele>2080.3</ele>
        <time>2018-04-21T08:25:42.000Z</time>
      </trkpt>
      <trkpt lat="40.81331" lon="-3.866354">
        <ele>2080.3</ele>
        <time>2018-04-21T08:25:43.000Z</time>
      </trkpt>
      <trkpt lat="40.813309" lon="-3.866355">
        <ele>2080.3</ele>
        <time>2018-04-21T08:25:44.000Z</time>
      </trkpt>
      <trkpt lat="40.813307" lon="-3.866356">
        <ele>2080.2</ele>
        <time>2018-04-21T08:25:45.000Z</time>
      </trkpt>
      <trkpt lat="40.813304" lon="-3.866358">
        <ele>2080.1</ele>
        <time>2018-04-21T08:25:46.000Z</time>
      </trkpt>
      <trkpt lat="40.813301" lon="-3.866359">
        <ele>2080.0</ele>
        <time>2018-04-21T08:25:47.000Z</time>
      </trkpt>
      <trkpt lat="40.813296" lon="-3.86636">
        <ele>2079.9</ele>
        <time>2018-04-21T08:25:48.000Z</time>
      </trkpt>
      <trkpt lat="40.813291" lon="-3.86636">
        <ele>2079.7</ele>
        <time>2018-04-21T08:25:49.000Z</time>
      </trkpt>
      <trkpt lat="40.813285" lon="-3.866359">
        <ele>2079.6</ele>
        <time>2018-04-21T08:25:50.000Z</time>
      </trkpt>
      <trkpt lat="40.813278" lon="-3.866358">
        <ele>2079.4</ele>
        <time>2018-04-21T08:25:51.000Z</time>
      </trkpt>
      <trkpt lat="40.813272" lon="-3.866357">
        <ele>2079.2</ele>
        <time>2018-04-21T08:25:52.000Z</time>
      </trkpt>
      <trkpt lat="40.813266" lon="-3.866357">
        <ele>2079.0</ele>
        <time>2018-04-21T08:25:53.000Z</time>
      </trkpt>
      <trkpt lat="40.813261" lon="-3.866358">
        <ele>2078.8</ele>
        <time>2018-04-21T08:25:54.000Z</time>
      </trkpt>
      <trkpt lat="40.813257" lon="-3.86636">
        <ele>2078.7</ele>
        <time>2018-04-21T08:25:55.000Z</time>
      </trkpt>
      <trkpt lat="40.813253" lon="-3.866363">
        <ele>2078.6</ele>
        <time>2018-04-21T08:25:56.000Z</time>
      </trkpt>
      <trkpt lat="40.813251" lon="-3.866368">
        <ele>2078.6</ele>
        <time>2018-04-21T08:25:57.000Z</time>
      </trkpt>
      <trkpt lat="40.813249" lon="-3.866372">
        <ele>2078.5</ele>
        <time>2018-04-21T08:25:58.000Z</time>
      </trkpt>
      <trkpt lat="40.813248" lon="-3.866377">
        <ele>2078.5</ele>
        <time>2018-04-21T08:25:59.000Z</time>
      </trkpt>
      <trkpt lat="40.813247" lon="-3.866382">
        <ele>2078.5</ele>
        <time>2018-04-21T08:26:00.000Z</time>
      </trkpt>
      <trkpt lat="40.813246" lon="-3.866386">
        <ele>2078.5</ele>
        <time>2018-04-21T08:26:01.000Z</time>
      </trkpt>
      <trkpt lat="40.813246" lon="-3.86639">
        <ele>2078.5</ele>
        <time>2018-04-21T08:26:02.000Z</time>
      </trkpt>
      <trkpt lat="40.813246" lon="-3.866393">
        <ele>2078.5</ele>
        <time>2018-04-21T08:26:03.000Z</time>
      </trkpt>
      <trkpt lat="40.813246" lon="-3.866395">
        <ele>2078.5</ele>
        <time>2018-04-21T08:26:04.000Z</time>
      </trkpt>
      <trkpt lat="40.813246" lon="-3.866396">
        <ele>2078.5</ele>
        <time>2018-04-21T08:26:05.000Z</time>
      </trkpt>
      <trkpt lat="40.813245" lon="-3.866397">
        <ele>2078.5</ele>
        <time>2018-04-21T08:26:06.000Z</time>
      </trkpt>
      <trkpt lat="40.813245" lon="-3.866397">
        <ele>2078.5</ele>
        <time>2018-04-21T08:26:07.000Z</time>
      </trkpt>
      <trkpt lat="40.813245" lon="-3.866398">
        <ele>2078.5</ele>
        <time>2018-04-21T08:26:08.000Z</time>
      </trkpt>
      <trkpt lat="40.813245" lon="-3.866397">
        <ele>2078.5</ele>
        <time>2018-04-21T08:26:09.000Z</time>
      </trkpt>
      <trkpt lat="40.813245" lon="-3.866397">
        <ele>2078.5</ele>
        <time>2018-04-21T08:26:10.000Z</time>
      </trkpt>
      <trkpt lat="40.813245" lon="-3.866397">
        <ele>2078.5</ele>
        <time>2018-04-21T08:26:11.000Z</time>
      </trkpt>
      <trkpt lat="40.813245" lon="-3.866397">
        <ele>2078.5</ele>
        <time>2018-04-21T08:26:12.000Z</time>
      </trkpt>
      <trkpt lat="40.813245" lon="-3.866397">
        <ele>2078.5</ele>
        <time>2018-04-21T08:26:13.000Z</time>
      </trkpt>
      <trkpt lat="40.813244" lon="-3.866397">
        <ele>2078.4</ele>
        <time>2018-04-21T08:26:14.000Z</time>
      </trkpt>
      <trkpt lat="40.813244" lon="-3.866398">
        <ele>2078.5</ele>
        <time>2018-04-21T08:26:15.000Z</time>
      </trkpt>
      <trkpt lat="40.813244" lon="-3.866398">
        <ele>2078.5</ele>
        <time>2018-04-21T08:26:16.000Z</time>
      </trkpt>
      <trkpt lat="40.813244" lon="-3.866398">
        <ele>2078.5</ele>
        <time>2018-04-21T08:26:17.000Z</time>
      </trkpt>
      <trkpt lat="40.813243" lon="-3.866399">
        <ele>2078.4</ele>
        <time>2018-04-21T08:26:18.000Z</time>
      </trkpt>
      <trkpt lat="40.813243" lon="-3.866399">
        <ele>2078.4</ele>
        <time>2018-04-21T08:26:19.000Z</time>
      </trkpt>
      <trkpt lat="40.813243" lon="-3.866399">
        <ele>2078.4</ele>
        <time>2018-04-21T08:26:20.000Z</time>
      </trkpt>
      <trkpt lat="40.813243" lon="-3.866399">
        <ele>2078.4</ele>
        <time>2018-04-21T08:26:21.000Z</time>
      </trkpt>
      <trkpt lat="40.813243" lon="-3.866399">
        <ele>2078.4</ele>
        <time>2018-04-21T08:26:22.000Z</time>
      </trkpt>
      <trkpt lat="40.813243" lon="-3.866399">
        <ele>2078.4</ele>
        <time>2018-04-21T08:26:23.000Z</time>
      </trkpt>
      <trkpt lat="40.813243" lon="-3.866399">
        <ele>2078.4</ele>
        <time>2018-04-21T08:26:24.000Z</time>
      </trkpt>
      <trkpt lat="40.813243" lon="-3.866399">
        <ele>2078.4</ele>
        <time>2018-04-21T08:26:25.000Z</time>
      </trkpt>
      <trkpt lat="40.813243" lon="-3.866399">
        <ele>2078.4</ele>
        <time>2018-04-21T08:26:26.000Z</time>
      </trkpt>
      <trkpt lat="40.813243" lon="-3.866399">
        <ele>2078.4</ele>
        <time>2018-04-21T08:26:27.000Z</time>
      </trkpt>
      <trkpt lat="40.813243" lon="-3.866399">
        <ele>2078.4</ele>
        <time>2018-04-21T08:26:28.000Z</time>
      </trkpt>
      <trkpt lat="40.813243" lon="-3.866399">
        <ele>2078.4</ele>
        <time>2018-04-21T08:26:29.000Z</time>
      </trkpt>
      <trkpt lat="40.813243" lon="-3.866399">
        <ele>2078.4</ele>
        <time>2018-04-21T08:26:30.000Z</time>
      </trkpt>
      <trkpt lat="40.813243" lon="-3.866399">
        <ele>2078.4</ele>
        <time>2018-04-21T08:26:31.000Z</time>
      </trkpt>
      <trkpt lat="40.813243" lon="-3.866399">
        <ele>2078.4</ele>
        <time>2018-04-21T08:26:32.000Z</time>
      </trkpt>
      <trkpt lat="40.813243" lon="-3.866399">
        <ele>2078.4</ele>
        <time>2018-04-21T08:26:33.000Z</time>
      </trkpt>
      <trkpt lat="40.813243" lon="-3.866399">
        <ele>2078.4</ele>
        <time>2018-04-21T08:26:34.000Z</time>
      </trkpt>
      <trkpt lat="40.813243" lon="-3.866399">
        <ele>2078.4</ele>
        <time>2018-04-21T08:26:35.000Z</time>
      </trkpt>
      <trkpt lat="40.813243" lon="-3.866399">
        <ele>2078.4</ele>
        <time>2018-04-21T08:26:36.000Z</time>
      </trkpt>
      <trkpt lat="40.813243" lon="-3.866399">
        <ele>2078.4</ele>
        <time>2018-04-21T08:26:37.000Z</time>
      </trkpt>
      <trkpt lat="40.813243" lon="-3.866399">
        <ele>2078.4</ele>
        <time>2018-04-21T08:26:38.000Z</time>
      </trkpt>
      <trkpt lat="40.813243" lon="-3.866399">
        <ele>2078.4</ele>
        <time>2018-04-21T08:26:39.000Z</time>
      </trkpt>
      <trkpt lat="40.813243" lon="-3.866399">
        <ele>2078.4</ele>
        <time>2018-04-21T08:26:40.000Z</time>
      </trkpt>
      <trkpt lat="40.813244" lon="-3.866398">
        <ele>2078.5</ele>
        <time>2018-04-21T08:26:41.000Z</time>
      </trkpt>
      <trkpt lat="40.813244" lon="-3.866397">
        <ele>2078.4</ele>
        <time>2018-04-21T08:26:42.000Z</time>
      </trkpt>
      <trkpt lat="40.813245" lon="-3.866396">
        <ele>2078.5</ele>
        <time>2018-04-21T08:26:43.000Z</time>
      </trkpt>
      <trkpt lat="40.813246" lon="-3.866395">
        <ele>2078.5</ele>
        <time>2018-04-21T08:26:44.000Z</time>
      </trkpt>
      <trkpt lat="40.813247" lon="-3.866392">
        <ele>2078.5</ele>
        <time>2018-04-21T08:26:45.000Z</time>
      </trkpt>
      <trkpt lat="40.813249" lon="-3.86639">
        <ele>2078.6</ele>
        <time>2018-04-21T08:26:46.000Z</time>
      </trkpt>
      <trkpt lat="40.81325" lon="-3.866388">
        <ele>2078.6</ele>
        <time>2018-04-21T08:26:47.000Z</time>
      </trkpt>
      <trkpt lat="40.813252" lon="-3.866385">
        <ele>2078.6</ele>
        <time>2018-04-21T08:26:48.000Z</time>
      </trkpt>
      <trkpt lat="40.813253" lon="-3.866383">
        <ele>2078.7</ele>
        <time>2018-04-21T08:26:49.000Z</time>
      </trkpt>
      <trkpt lat="40.813254" lon="-3.86638">
        <ele>2078.7</ele>
        <time>2018-04-21T08:26:50.000Z</time>
      </trkpt>
      <trkpt lat="40.813255" lon="-3.866378">
        <ele>2078.7</ele>
        <time>2018-04-21T08:26:51.000Z</time>
      </trkpt>
      <trkpt lat="40.813256" lon="-3.866375">
        <ele>2078.7</ele>
        <time>2018-04-21T08:26:52.000Z</time>
      </trkpt>
      <trkpt lat="40.813257" lon="-3.866373">
        <ele>2078.8</ele>
        <time>2018-04-21T08:26:53.000Z</time>
      </trkpt>
      <trkpt lat="40.813258" lon="-3.866371">
        <ele>2078.8</ele>
        <time>2018-04-21T08:26:54.000Z</time>
      </trkpt>
      <trkpt lat="40.813259" lon="-3.866369">
        <ele>2078.8</ele>
        <time>2018-04-21T08:26:55.000Z</time>
      </trkpt>
      <trkpt lat="40.81326" lon="-3.866367">
        <ele>2078.8</ele>
        <time>2018-04-21T08:26:56.000Z</time>
      </trkpt>
      <trkpt lat="40.81326" lon="-3.866365">
        <ele>2078.8</ele>
        <time>2018-04-21T08:26:57.000Z</time>
      </trkpt>
      <trkpt lat="40.813261" lon="-3.866363">
        <ele>2078.9</ele>
        <time>2018-04-21T08:26:58.000Z</time>
      </trkpt>
      <trkpt lat="40.813262" lon="-3.866361">
        <ele>2078.9</ele>
        <time>2018-04-21T08:26:59.000Z</time>
      </trkpt>
      <trkpt lat="40.813262" lon="-3.866359">
        <ele>2078.9</ele>
        <time>2018-04-21T08:27:00.000Z</time>
      </trkpt>
      <trkpt lat="40.813263" lon="-3.866358">
        <ele>2078.9</ele>
        <time>2018-04-21T08:27:01.000Z</time>
      </trkpt>
      <trkpt lat="40.813263" lon="-3.866357">
        <ele>2078.9</ele>
        <time>2018-04-21T08:27:02.000Z</time>
      </trkpt>
      <trkpt lat="40.813264" lon="-3.866355">
        <ele>2078.9</ele>
        <time>2018-04-21T08:27:03.000Z</time>
      </trkpt>
      <trkpt lat="40.813264" lon="-3.866354">
        <ele>2078.9</ele>
        <time>2018-04-21T08:27:04.000Z</time>
      </trkpt>
      <trkpt lat="40.813265" lon="-3.866353">
        <ele>2079.0</ele>
        <time>2018-04-21T08:27:05.000Z</time>
      </trkpt>
      <trkpt lat="40.813265" lon="-3.866352">
        <ele>2079.0</ele>
        <time>2018-04-21T08:27:06.000Z</time>
      </trkpt>
      <trkpt lat="40.813265" lon="-3.866352">
        <ele>2079.0</ele>
        <time>2018-04-21T08:27:07.000Z</time>
      </trkpt>
      <trkpt lat="40.813266" lon="-3.866351">
        <ele>2079.0</ele>
        <time>2018-04-21T08:27:08.000Z</time>
      </trkpt>
      <trkpt lat="40.813266" lon="-3.866351">
        <ele>2079.0</ele>
        <time>2018-04-21T08:27:09.000Z</time>
      </trkpt>
      <trkpt lat="40.813266" lon="-3.866351">
        <ele>2079.0</ele>
        <time>2018-04-21T08:27:10.000Z</time>
      </trkpt>
      <trkpt lat="40.813266" lon="-3.866351">
        <ele>2079.0</ele>
        <time>2018-04-21T08:27:11.000Z</time>
      </trkpt>
      <trkpt lat="40.813267" lon="-3.866351">
        <ele>2079.0</ele>
        <time>2018-04-21T08:27:12.000Z</time>
      </trkpt>
      <trkpt lat="40.813267" lon="-3.866351">
        <ele>2079.0</ele>
        <time>2018-04-21T08:27:13.000Z</time>
      </trkpt>
      <trkpt lat="40.813267" lon="-3.866351">
        <ele>2079.0</ele>
        <time>2018-04-21T08:27:14.000Z</time>
      </trkpt>
      <trkpt lat="40.813267" lon="-3.866351">
        <ele>2079.0</ele>
        <time>2018-04-21T08:27:15.000Z</time>
      </trkpt>
      <trkpt lat="40.813267" lon="-3.866351">
        <ele>2079.0</ele>
        <time>2018-04-21T08:27:16.000Z</time>
      </trkpt>
      <trkpt lat="40.813267" lon="-3.866351">
        <ele>2079.0</ele>
        <time>2018-04-21T08:27:17.000Z</time>
      </trkpt>
      <trkpt lat="40.813268" lon="-3.866352">
        <ele>2079.0</ele>
        <time>2018-04-21T08:27:18.000Z</time>
      </trkpt>
      <trkpt lat="40.813268" lon="-3.866352">
        <ele>2079.0</ele>
        <time>2018-04-21T08:27:19.000Z</time>
      </trkpt>
      <trkpt lat="40.813268" lon="-3.866352">
        <ele>2079.0</ele>
        <time>2018-04-21T08:27:20.000Z</time>
      </trkpt>
      <trkpt lat="40.813268" lon="-3.866352">
        <ele>2079.0</ele>
        <time>2018-04-21T08:27:21.000Z</time>
      </trkpt>
      <trkpt lat="40.813268" lon="-3.866352">
        <ele>2079.0</ele>
        <time>2018-04-21T08:27:22.000Z</time>
      </trkpt>
      <trkpt lat="40.813268" lon="-3.866353">
        <ele>2079.0</ele>
        <time>2018-04-21T08:27:23.000Z</time>
      </trkpt>
      <trkpt lat="40.813268" lon="-3.866353">
        <ele>2079.0</ele>
        <time>2018-04-21T08:27:24.000Z</time>
      </trkpt>
      <trkpt lat="40.813268" lon="-3.866353">
        <ele>2079.0</ele>
        <time>2018-04-21T08:27:25.000Z</time>
      </trkpt>
      <trkpt lat="40.813268" lon="-3.866353">
        <ele>2079.0</ele>
        <time>2018-04-21T08:27:26.000Z</time>
      </trkpt>
      <trkpt lat="40.813268" lon="-3.866352">
        <ele>2079.0</ele>
        <time>2018-04-21T08:27:27.000Z</time>
      </trkpt>
      <trkpt lat="40.813269" lon="-3.866352">
        <ele>2079.1</ele>
        <time>2018-04-21T08:27:28.000Z</time>
      </trkpt>
      <trkpt lat="40.813269" lon="-3.866351">
        <ele>2079.1</ele>
        <time>2018-04-21T08:27:29.000Z</time>
      </trkpt>
      <trkpt lat="40.81327" lon="-3.866351">
        <ele>2079.1</ele>
        <time>2018-04-21T08:27:30.000Z</time>
      </trkpt>
      <trkpt lat="40.813272" lon="-3.86635">
        <ele>2079.2</ele>
        <time>2018-04-21T08:27:31.000Z</time>
      </trkpt>
      <trkpt lat="40.813275" lon="-3.866348">
        <ele>2079.2</ele>
        <time>2018-04-21T08:27:32.000Z</time>
      </trkpt>
      <trkpt lat="40.81328" lon="-3.866346">
        <ele>2079.4</ele>
        <time>2018-04-21T08:27:33.000Z</time>
      </trkpt>
      <trkpt lat="40.813288" lon="-3.866344">
        <ele>2079.6</ele>
        <time>2018-04-21T08:27:34.000Z</time>
      </trkpt>
      <trkpt lat="40.813298" lon="-3.866341">
        <ele>2079.9</ele>
        <time>2018-04-21T08:27:35.000Z</time>
      </trkpt>
      <trkpt lat="40.813309" lon="-3.86634">
        <ele>2080.3</ele>
        <time>2018-04-21T08:27:36.000Z</time>
      </trkpt>
      <trkpt lat="40.813321" lon="-3.866341">
        <ele>2080.6</ele>
        <time>2018-04-21T08:27:37.000Z</time>
      </trkpt>
      <trkpt lat="40.813332" lon="-3.866344">
        <ele>2081.0</ele>
        <time>2018-04-21T08:27:38.000Z</time>
      </trkpt>
      <trkpt lat="40.813342" lon="-3.866351">
        <ele>2080.9</ele>
        <time>2018-04-21T08:27:39.000Z</time>
      </trkpt>
      <trkpt lat="40.81335" lon="-3.866361">
        <ele>2080.8</ele>
        <time>2018-04-21T08:27:40.000Z</time>
      </trkpt>
      <trkpt lat="40.813358" lon="-3.866372">
        <ele>2080.7</ele>
        <time>2018-04-21T08:27:41.000Z</time>
      </trkpt>
      <trkpt lat="40.813364" lon="-3.866383">
        <ele>2080.7</ele>
        <time>2018-04-21T08:27:42.000Z</time>
      </trkpt>
      <trkpt lat="40.813369" lon="-3.866393">
        <ele>2080.6</ele>
        <time>2018-04-21T08:27:43.000Z</time>
      </trkpt>
      <trkpt lat="40.813373" lon="-3.866402">
        <ele>2080.5</ele>
        <time>2018-04-21T08:27:44.000Z</time>
      </trkpt>
      <trkpt lat="40.813377" lon="-3.86641">
        <ele>2080.5</ele>
        <time>2018-04-21T08:27:45.000Z</time>
      </trkpt>
      <trkpt lat="40.813379" lon="-3.866417">
        <ele>2080.4</ele>
        <time>2018-04-21T08:27:46.000Z</time>
      </trkpt>
      <trkpt lat="40.813382" lon="-3.866423">
        <ele>2080.4</ele>
        <time>2018-04-21T08:27:47.000Z</time>
      </trkpt>
      <trkpt lat="40.813384" lon="-3.866429">
        <ele>2080.4</ele>
        <time>2018-04-21T08:27:48.000Z</time>
      </trkpt>
      <trkpt lat="40.813386" lon="-3.866433">
        <ele>2080.3</ele>
        <time>2018-04-21T08:27:49.000Z</time>
      </trkpt>
      <trkpt lat="40.813389" lon="-3.866437">
        <ele>2080.3</ele>
        <time>2018-04-21T08:27:50.000Z</time>
      </trkpt>
      <trkpt lat="40.813392" lon="-3.866441">
        <ele>2080.2</ele>
        <time>2018-04-21T08:27:51.000Z</time>
      </trkpt>
      <trkpt lat="40.813397" lon="-3.866444">
        <ele>2080.2</ele>
        <time>2018-04-21T08:27:52.000Z</time>
      </trkpt>
      <trkpt lat="40.813402" lon="-3.866446">
        <ele>2080.1</ele>
        <time>2018-04-21T08:27:53.000Z</time>
      </trkpt>
      <trkpt lat="40.813407" lon="-3.866448">
        <ele>2080.0</ele>
        <time>2018-04-21T08:27:54.000Z</time>
      </trkpt>
      <trkpt lat="40.813413" lon="-3.86645">
        <ele>2079.9</ele>
        <time>2018-04-21T08:27:55.000Z</time>
      </trkpt>
      <trkpt lat="40.813419" lon="-3.866452">
        <ele>2079.8</ele>
        <time>2018-04-21T08:27:56.000Z</time>
      </trkpt>
      <trkpt lat="40.813426" lon="-3.866453">
        <ele>2079.7</ele>
        <time>2018-04-21T08:27:57.000Z</time>
      </trkpt>
      <trkpt lat="40.813432" lon="-3.866455">
        <ele>2079.7</ele>
        <time>2018-04-21T08:27:58.000Z</time>
      </trkpt>
      <trkpt lat="40.813438" lon="-3.866457">
        <ele>2079.6</ele>
        <time>2018-04-21T08:27:59.000Z</time>
      </trkpt>
      <trkpt lat="40.813444" lon="-3.86646">
        <ele>2079.5</ele>
        <time>2018-04-21T08:28:00.000Z</time>
      </trkpt>
      <trkpt lat="40.81345" lon="-3.866462">
        <ele>2079.4</ele>
        <time>2018-04-21T08:28:01.000Z</time>
      </trkpt>
      <trkpt lat="40.813455" lon="-3.866465">
        <ele>2079.3</ele>
        <time>2018-04-21T08:28:02.000Z</time>
      </trkpt>
      <trkpt lat="40.813459" lon="-3.866469">
        <ele>2079.2</ele>
        <time>2018-04-21T08:28:03.000Z</time>
      </trkpt>
      <trkpt lat="40.813464" lon="-3.866473">
        <ele>2079.1</ele>
        <time>2018-04-21T08:28:04.000Z</time>
      </trkpt>
      <trkpt lat="40.813467" lon="-3.866476">
        <ele>2079.1</ele>
        <time>2018-04-21T08:28:05.000Z</time>
      </trkpt>
      <trkpt lat="40.813471" lon="-3.86648">
        <ele>2079.0</ele>
        <time>2018-04-21T08:28:06.000Z</time>
      </trkpt>
      <trkpt lat="40.813474" lon="-3.866484">
        <ele>2078.9</ele>
        <time>2018-04-21T08:28:07.000Z</time>
      </trkpt>
      <trkpt lat="40.813477" lon="-3.866488">
        <ele>2078.9</ele>
        <time>2018-04-21T08:28:08.000Z</time>
      </trkpt>
      <trkpt lat="40.813479" lon="-3.866492">
        <ele>2078.8</ele>
        <time>2018-04-21T08:28:09.000Z</time>
      </trkpt>
      <trkpt lat="40.813481" lon="-3.866495">
        <ele>2078.8</ele>
        <time>2018-04-21T08:28:10.000Z</time>
      </trkpt>
      <trkpt lat="40.813483" lon="-3.866499">
        <ele>2078.7</ele>
        <time>2018-04-21T08:28:11.000Z</time>
      </trkpt>
      <trkpt lat="40.813484" lon="-3.866502">
        <ele>2078.7</ele>
        <time>2018-04-21T08:28:12.000Z</time>
      </trkpt>
      <trkpt lat="40.813485" lon="-3.866506">
        <ele>2078.6</ele>
        <time>2018-04-21T08:28:13.000Z</time>
      </trkpt>
      <trkpt lat="40.813486" lon="-3.86651">
        <ele>2078.6</ele>
        <time>2018-04-21T08:28:14.000Z</time>
      </trkpt>
      <trkpt lat="40.813487" lon="-3.866514">
        <ele>2078.6</ele>
        <time>2018-04-21T08:28:15.000Z</time>
      </trkpt>
      <trkpt lat="40.813488" lon="-3.866518">
        <ele>2078.5</ele>
        <time>2018-04-21T08:28:16.000Z</time>
      </trkpt>
      <trkpt lat="40.813488" lon="-3.866523">
        <ele>2078.5</ele>
        <time>2018-04-21T08:28:17.000Z</time>
      </trkpt>
      <trkpt lat="40.813488" lon="-3.866528">
        <ele>2078.5</ele>
        <time>2018-04-21T08:28:18.000Z</time>
      </trkpt>
      <trkpt lat="40.813488" lon="-3.866534">
        <ele>2078.4</ele>
        <time>2018-04-21T08:28:19.000Z</time>
      </trkpt>
      <trkpt lat="40.813488" lon="-3.866541">
        <ele>2078.4</ele>
        <time>2018-04-21T08:28:20.000Z</time>
      </trkpt>
      <trkpt lat="40.813487" lon="-3.866547">
        <ele>2078.4</ele>
        <time>2018-04-21T08:28:21.000Z</time>
      </trkpt>
      <trkpt lat="40.813487" lon="-3.866554">
        <ele>2078.3</ele>
        <time>2018-04-21T08:28:22.000Z</time>
      </trkpt>
      <trkpt lat="40.813486" lon="-3.866561">
        <ele>2078.3</ele>
        <time>2018-04-21T08:28:23.000Z</time>
      </trkpt>
      <trkpt lat="40.813486" lon="-3.866568">
        <ele>2078.3</ele>
        <time>2018-04-21T08:28:24.000Z</time>
      </trkpt>
      <trkpt lat="40.813485" lon="-3.866574">
        <ele>2078.3</ele>
        <time>2018-04-21T08:28:25.000Z</time>
      </trkpt>
      <trkpt lat="40.813485" lon="-3.86658">
        <ele>2078.2</ele>
        <time>2018-04-21T08:28:26.000Z</time>
      </trkpt>
      <trkpt lat="40.813484" lon="-3.866585">
        <ele>2078.2</ele>
        <time>2018-04-21T08:28:27.000Z</time>
      </trkpt>
      <trkpt lat="40.813484" lon="-3.866589">
        <ele>2078.2</ele>
        <time>2018-04-21T08:28:28.000Z</time>
      </trkpt>
      <trkpt lat="40.813484" lon="-3.866592">
        <ele>2078.2</ele>
        <time>2018-04-21T08:28:29.000Z</time>
      </trkpt>
      <trkpt lat="40.813483" lon="-3.866594">
        <ele>2078.2</ele>
        <time>2018-04-21T08:28:30.000Z</time>
      </trkpt>
      <trkpt lat="40.813483" lon="-3.866596">
        <ele>2078.2</ele>
        <time>2018-04-21T08:28:31.000Z</time>
      </trkpt>
      <trkpt lat="40.813483" lon="-3.866597">
        <ele>2078.2</ele>
        <time>2018-04-21T08:28:32.000Z</time>
      </trkpt>
      <trkpt lat="40.813483" lon="-3.866598">
        <ele>2078.2</ele>
        <time>2018-04-21T08:28:33.000Z</time>
      </trkpt>
      <trkpt lat="40.813483" lon="-3.866598">
        <ele>2078.2</ele>
        <time>2018-04-21T08:28:34.000Z</time>
      </trkpt>
      <trkpt lat="40.813483" lon="-3.866599">
        <ele>2078.1</ele>
        <time>2018-04-21T08:28:35.000Z</time>
      </trkpt>
      <trkpt lat="40.813483" lon="-3.866598">
        <ele>2078.2</ele>
        <time>2018-04-21T08:28:36.000Z</time>
      </trkpt>
      <trkpt lat="40.813484" lon="-3.866598">
        <ele>2078.1</ele>
        <time>2018-04-21T08:28:37.000Z</time>
      </trkpt>
      <trkpt lat="40.813484" lon="-3.866598">
        <ele>2078.1</ele>
        <time>2018-04-21T08:28:38.000Z</time>
      </trkpt>
      <trkpt lat="40.813484" lon="-3.866597">
        <ele>2078.1</ele>
        <time>2018-04-21T08:28:39.000Z</time>
      </trkpt>
      <trkpt lat="40.813484" lon="-3.866597">
        <ele>2078.1</ele>
        <time>2018-04-21T08:28:40.000Z</time>
      </trkpt>
      <trkpt lat="40.813484" lon="-3.866597">
        <ele>2078.1</ele>
        <time>2018-04-21T08:28:41.000Z</time>
      </trkpt>
      <trkpt lat="40.813484" lon="-3.866597">
        <ele>2078.1</ele>
        <time>2018-04-21T08:28:42.000Z</time>
      </trkpt>
      <trkpt lat="40.813484" lon="-3.866597">
        <ele>2078.1</ele>
        <time>2018-04-21T08:28:43.000Z</time>
      </trkpt>
      <trkpt lat="40.813484" lon="-3.866598">
        <ele>2078.1</ele>
        <time>2018-04-21T08:28:44.000Z</time>
      </trkpt>
      <trkpt lat="40.813483" lon="-3.866599">
        <ele>2078.1</ele>
        <time>2018-04-21T08:28:45.000Z</time>
      </trkpt>
      <trkpt lat="40.813483" lon="-3.8666">
        <ele>2078.1</ele>
        <time>2018-04-21T08:28:46.000Z</time>
      </trkpt>
      <trkpt lat="40.813482" lon="-3.866602">
        <ele>2078.1</ele>
        <time>2018-04-21T08:28:47.000Z</time>
      </trkpt>
      <trkpt lat="40.813481" lon="-3.866604">
        <ele>2078.2</ele>
        <time>2018-04-21T08:28:48.000Z</time>
      </trkpt>
      <trkpt lat="40.81348" lon="-3.866606">
        <ele>2078.2</ele>
        <time>2018-04-21T08:28:49.000Z</time>
      </trkpt>
      <trkpt lat="40.813478" lon="-3.866608">
        <ele>2078.2</ele>
        <time>2018-04-21T08:28:50.000Z</time>
      </trkpt>
      <trkpt lat="40.813477" lon="-3.866611">
        <ele>2078.2</ele>
        <time>2018-04-21T08:28:51.000Z</time>
      </trkpt>
      <trkpt lat="40.813475" lon="-3.866613">
        <ele>2078.2</ele>
        <time>2018-04-21T08:28:52.000Z</time>
      </trkpt>
      <trkpt lat="40.813474" lon="-3.866616">
        <ele>2078.2</ele>
        <time>2018-04-21T08:28:53.000Z</time>
      </trkpt>
      <trkpt lat="40.813472" lon="-3.866618">
        <ele>2078.3</ele>
        <time>2018-04-21T08:28:54.000Z</time>
      </trkpt>
      <trkpt lat="40.81347" lon="-3.86662">
        <ele>2078.3</ele>
        <time>2018-04-21T08:28:55.000Z</time>
      </trkpt>
      <trkpt lat="40.813467" lon="-3.866622">
        <ele>2078.3</ele>
        <time>2018-04-21T08:28:56.000Z</time>
      </trkpt>
      <trkpt lat="40.813465" lon="-3.866624">
        <ele>2078.4</ele>
        <time>2018-04-21T08:28:57.000Z</time>
      </trkpt>
      <trkpt lat="40.813463" lon="-3.866625">
        <ele>2078.4</ele>
        <time>2018-04-21T08:28:58.000Z</time>
      </trkpt>
      <trkpt lat="40.813461" lon="-3.866627">
        <ele>2078.4</ele>
        <time>2018-04-21T08:28:59.000Z</time>
      </trkpt>
      <trkpt lat="40.813459" lon="-3.866628">
        <ele>2078.5</ele>
        <time>2018-04-21T08:29:00.000Z</time>
      </trkpt>
      <trkpt lat="40.813458" lon="-3.866629">
        <ele>2078.5</ele>
        <time>2018-04-21T08:29:01.000Z</time>
      </trkpt>
      <trkpt lat="40.813457" lon="-3.866629">
        <ele>2078.5</ele>
        <time>2018-04-21T08:29:02.000Z</time>
      </trkpt>
      <trkpt lat="40.813456" lon="-3.866629">
        <ele>2078.5</ele>
        <time>2018-04-21T08:29:03.000Z</time>
      </trkpt>
      <trkpt lat="40.813455" lon="-3.86663">
        <ele>2078.5</ele>
        <time>2018-04-21T08:29:04.000Z</time>
      </trkpt>
      <trkpt lat="40.813455" lon="-3.86663">
        <ele>2078.5</ele>
        <time>2018-04-21T08:29:05.000Z</time>
      </trkpt>
      <trkpt lat="40.813455" lon="-3.866629">
        <ele>2078.5</ele>
        <time>2018-04-21T08:29:06.000Z</time>
      </trkpt>
      <trkpt lat="40.813455" lon="-3.866629">
        <ele>2078.5</ele>
        <time>2018-04-21T08:29:07.000Z</time>
      </trkpt>
      <trkpt lat="40.813456" lon="-3.866629">
        <ele>2078.5</ele>
        <time>2018-04-21T08:29:08.000Z</time>
      </trkpt>
      <trkpt lat="40.813456" lon="-3.866629">
        <ele>2078.5</ele>
        <time>2018-04-21T08:29:09.000Z</time>
      </trkpt>
      <trkpt lat="40.813457" lon="-3.866629">
        <ele>2078.5</ele>
        <time>2018-04-21T08:29:10.000Z</time>
      </trkpt>
      <trkpt lat="40.813457" lon="-3.866629">
        <ele>2078.5</ele>
        <time>2018-04-21T08:29:11.000Z</time>
      </trkpt>
      <trkpt lat="40.813457" lon="-3.866629">
        <ele>2078.5</ele>
        <time>2018-04-21T08:29:12.000Z</time>
      </trkpt>
      <trkpt lat="40.813457" lon="-3.86663">
        <ele>2078.5</ele>
        <time>2018-04-21T08:29:13.000Z</time>
      </trkpt>
      <trkpt lat="40.813456" lon="-3.866631">
        <ele>2078.5</ele>
        <time>2018-04-21T08:29:14.000Z</time>
      </trkpt>
      <trkpt lat="40.813455" lon="-3.866633">
        <ele>2078.5</ele>
        <time>2018-04-21T08:29:15.000Z</time>
      </trkpt>
      <trkpt lat="40.813455" lon="-3.866634">
        <ele>2078.5</ele>
        <time>2018-04-21T08:29:16.000Z</time>
      </trkpt>
      <trkpt lat="40.813454" lon="-3.866637">
        <ele>2078.5</ele>
        <time>2018-04-21T08:29:17.000Z</time>
      </trkpt>
      <trkpt lat="40.813453" lon="-3.866639">
        <ele>2078.5</ele>
        <time>2018-04-21T08:29:18.000Z</time>
      </trkpt>
      <trkpt lat="40.813452" lon="-3.866642">
        <ele>2078.5</ele>
        <time>2018-04-21T08:29:19.000Z</time>
      </trkpt>
      <trkpt lat="40.813452" lon="-3.866645">
        <ele>2078.5</ele>
        <time>2018-04-21T08:29:20.000Z</time>
      </trkpt>
      <trkpt lat="40.813451" lon="-3.866649">
        <ele>2078.5</ele>
        <time>2018-04-21T08:29:21.000Z</time>
      </trkpt>
      <trkpt lat="40.813451" lon="-3.866653">
        <ele>2078.5</ele>
        <time>2018-04-21T08:29:22.000Z</time>
      </trkpt>
      <trkpt lat="40.813452" lon="-3.866657">
        <ele>2078.5</ele>
        <time>2018-04-21T08:29:23.000Z</time>
      </trkpt>
      <trkpt lat="40.813452" lon="-3.866662">
        <ele>2078.5</ele>
        <time>2018-04-21T08:29:24.000Z</time>
      </trkpt>
      <trkpt lat="40.813453" lon="-3.866666">
        <ele>2078.4</ele>
        <time>2018-04-21T08:29:25.000Z</time>
      </trkpt>
      <trkpt lat="40.813454" lon="-3.866671">
        <ele>2078.2</ele>
        <time>2018-04-21T08:29:26.000Z</time>
      </trkpt>
      <trkpt lat="40.813455" lon="-3.866675">
        <ele>2078.1</ele>
        <time>2018-04-21T08:29:27.000Z</time>
      </trkpt>
      <trkpt lat="40.813456" lon="-3.866679">
        <ele>2077.9</ele>
        <time>2018-04-21T08:29:28.000Z</time>
      </trkpt>
      <trkpt lat="40.813457" lon="-3.866683">
        <ele>2077.8</ele>
        <time>2018-04-21T08:29:29.000Z</time>
      </trkpt>
      <trkpt lat="40.813459" lon="-3.866686">
        <ele>2077.6</ele>
        <time>2018-04-21T08:29:30.000Z</time>
      </trkpt>
      <trkpt lat="40.81346" lon="-3.866688">
        <ele>2077.5</ele>
        <time>2018-04-21T08:29:31.000Z</time>
      </trkpt>
      <trkpt lat="40.813461" lon="-3.86669">
        <ele>2077.4</ele>
        <time>2018-04-21T08:29:32.000Z</time>
      </trkpt>
      <trkpt lat="40.813462" lon="-3.866692">
        <ele>2077.4</ele>
        <time>2018-04-21T08:29:33.000Z</time>
      </trkpt>
      <trkpt lat="40.813463" lon="-3.866694">
        <ele>2077.3</ele>
        <time>2018-04-21T08:29:34.000Z</time>
      </trkpt>
      <trkpt lat="40.813463" lon="-3.866697">
        <ele>2077.2</ele>
        <time>2018-04-21T08:29:35.000Z</time>
      </trkpt>
      <trkpt lat="40.813463" lon="-3.8667">
        <ele>2077.1</ele>
        <time>2018-04-21T08:29:36.000Z</time>
      </trkpt>
      <trkpt lat="40.813463" lon="-3.866704">
        <ele>2076.9</ele>
        <time>2018-04-21T08:29:37.000Z</time>
      </trkpt>
      <trkpt lat="40.813461" lon="-3.866709">
        <ele>2076.8</ele>
        <time>2018-04-21T08:29:38.000Z</time>
      </trkpt>
      <trkpt lat="40.813459" lon="-3.866716">
        <ele>2076.6</ele>
        <time>2018-04-21T08:29:39.000Z</time>
      </trkpt>
      <trkpt lat="40.813456" lon="-3.866724">
        <ele>2076.4</ele>
        <time>2018-04-21T08:29:40.000Z</time>
      </trkpt>
      <trkpt lat="40.813452" lon="-3.866734">
        <ele>2076.1</ele>
        <time>2018-04-21T08:29:41.000Z</time>
      </trkpt>
      <trkpt lat="40.813448" lon="-3.866743">
        <ele>2075.9</ele>
        <time>2018-04-21T08:29:42.000Z</time>
      </trkpt>
      <trkpt lat="40.813445" lon="-3.866751">
        <ele>2075.7</ele>
        <time>2018-04-21T08:29:43.000Z</time>
      </trkpt>
      <trkpt lat="40.813442" lon="-3.866757">
        <ele>2075.6</ele>
        <time>2018-04-21T08:29:44.000Z</time>
      </trkpt>
      <trkpt lat="40.81344" lon="-3.866761">
        <ele>2075.5</ele>
        <time>2018-04-21T08:29:45.000Z</time>
      </trkpt>
      <trkpt lat="40.813439" lon="-3.866763">
        <ele>2075.4</ele>
        <time>2018-04-21T08:29:46.000Z</time>
      </trkpt>
      <trkpt lat="40.813439" lon="-3.866763">
        <ele>2075.4</ele>
        <time>2018-04-21T08:29:47.000Z</time>
      </trkpt>
      <trkpt lat="40.81344" lon="-3.866762">
        <ele>2075.4</ele>
        <time>2018-04-21T08:29:48.000Z</time>
      </trkpt>
      <trkpt lat="40.813441" lon="-3.86676">
        <ele>2075.5</ele>
        <time>2018-04-21T08:29:49.000Z</time>
      </trkpt>
      <trkpt lat="40.813443" lon="-3.866758">
        <ele>2075.5</ele>
        <time>2018-04-21T08:29:50.000Z</time>
      </trkpt>
      <trkpt lat="40.813445" lon="-3.866756">
        <ele>2075.5</ele>
        <time>2018-04-21T08:29:51.000Z</time>
      </trkpt>
      <trkpt lat="40.813446" lon="-3.866755">
        <ele>2075.6</ele>
        <time>2018-04-21T08:29:52.000Z</time>
      </trkpt>
      <trkpt lat="40.813447" lon="-3.866754">
        <ele>2075.6</ele>
        <time>2018-04-21T08:29:53.000Z</time>
      </trkpt>
      <trkpt lat="40.813447" lon="-3.866754">
        <ele>2075.6</ele>
        <time>2018-04-21T08:29:54.000Z</time>
      </trkpt>
      <trkpt lat="40.813447" lon="-3.866755">
        <ele>2075.5</ele>
        <time>2018-04-21T08:29:55.000Z</time>
      </trkpt>
      <trkpt lat="40.813446" lon="-3.866756">
        <ele>2075.5</ele>
        <time>2018-04-21T08:29:56.000Z</time>
      </trkpt>
      <trkpt lat="40.813444" lon="-3.866758">
        <ele>2075.5</ele>
        <time>2018-04-21T08:29:57.000Z</time>
      </trkpt>
      <trkpt lat="40.813443" lon="-3.866759">
        <ele>2075.5</ele>
        <time>2018-04-21T08:29:58.000Z</time>
      </trkpt>
      <trkpt lat="40.813441" lon="-3.86676">
        <ele>2075.5</ele>
        <time>2018-04-21T08:29:59.000Z</time>
      </trkpt>
      <trkpt lat="40.813439" lon="-3.866761">
        <ele>2075.5</ele>
        <time>2018-04-21T08:30:00.000Z</time>
      </trkpt>
      <trkpt lat="40.813437" lon="-3.866763">
        <ele>2075.5</ele>
        <time>2018-04-21T08:30:01.000Z</time>
      </trkpt>
      <trkpt lat="40.813435" lon="-3.866765">
        <ele>2075.5</ele>
        <time>2018-04-21T08:30:02.000Z</time>
      </trkpt>
      <trkpt lat="40.813433" lon="-3.866768">
        <ele>2075.4</ele>
        <time>2018-04-21T08:30:03.000Z</time>
      </trkpt>
      <trkpt lat="40.81343" lon="-3.866772">
        <ele>2075.3</ele>
        <time>2018-04-21T08:30:04.000Z</time>
      </trkpt>
      <trkpt lat="40.813427" lon="-3.866778">
        <ele>2075.2</ele>
        <time>2018-04-21T08:30:05.000Z</time>
      </trkpt>
      <trkpt lat="40.813424" lon="-3.866784">
        <ele>2075.1</ele>
        <time>2018-04-21T08:30:06.000Z</time>
      </trkpt>
      <trkpt lat="40.813421" lon="-3.866792">
        <ele>2074.8</ele>
        <time>2018-04-21T08:30:07.000Z</time>
      </trkpt>
      <trkpt lat="40.813417" lon="-3.866801">
        <ele>2074.6</ele>
        <time>2018-04-21T08:30:08.000Z</time>
      </trkpt>
      <trkpt lat="40.813414" lon="-3.866809">
        <ele>2074.4</ele>
        <time>2018-04-21T08:30:09.000Z</time>
      </trkpt>
      <trkpt lat="40.813411" lon="-3.866817">
        <ele>2074.2</ele>
        <time>2018-04-21T08:30:10.000Z</time>
      </trkpt>
      <trkpt lat="40.813408" lon="-3.866823">
        <ele>2074.1</ele>
        <time>2018-04-21T08:30:11.000Z</time>
      </trkpt>
      <trkpt lat="40.813407" lon="-3.866827">
        <ele>2074.0</ele>
        <time>2018-04-21T08:30:12.000Z</time>
      </trkpt>
      <trkpt lat="40.813406" lon="-3.866829">
        <ele>2073.9</ele>
        <time>2018-04-21T08:30:13.000Z</time>
      </trkpt>
      <trkpt lat="40.813406" lon="-3.86683">
        <ele>2073.9</ele>
        <time>2018-04-21T08:30:14.000Z</time>
      </trkpt>
      <trkpt lat="40.813406" lon="-3.86683">
        <ele>2073.9</ele>
        <time>2018-04-21T08:30:15.000Z</time>
      </trkpt>
      <trkpt lat="40.813406" lon="-3.86683">
        <ele>2073.9</ele>
        <time>2018-04-21T08:30:16.000Z</time>
      </trkpt>
      <trkpt lat="40.813406" lon="-3.86683">
        <ele>2073.9</ele>
        <time>2018-04-21T08:30:17.000Z</time>
      </trkpt>
      <trkpt lat="40.813406" lon="-3.86683">
        <ele>2073.9</ele>
        <time>2018-04-21T08:30:18.000Z</time>
      </trkpt>
      <trkpt lat="40.813406" lon="-3.86683">
        <ele>2073.9</ele>
        <time>2018-04-21T08:30:19.000Z</time>
      </trkpt>
      <trkpt lat="40.813406" lon="-3.86683">
        <ele>2073.9</ele>
        <time>2018-04-21T08:30:20.000Z</time>
      </trkpt>
      <trkpt lat="40.813406" lon="-3.86683">
        <ele>2073.9</ele>
        <time>2018-04-21T08:30:21.000Z</time>
      </trkpt>
      <trkpt lat="40.813406" lon="-3.86683">
        <ele>2073.9</ele>
        <time>2018-04-21T08:30:22.000Z</time>
      </trkpt>
      <trkpt lat="40.813406" lon="-3.86683">
        <ele>2073.9</ele>
        <time>2018-04-21T08:30:23.000Z</time>
      </trkpt>
      <trkpt lat="40.813406" lon="-3.86683">
        <ele>2073.9</ele>
        <time>2018-04-21T08:30:24.000Z</time>
      </trkpt>
      <trkpt lat="40.813406" lon="-3.86683">
        <ele>2073.9</ele>
        <time>2018-04-21T08:30:25.000Z</time>
      </trkpt>
      <trkpt lat="40.813406" lon="-3.86683">
        <ele>2073.9</ele>
        <time>2018-04-21T08:30:26.000Z</time>
      </trkpt>
      <trkpt lat="40.813406" lon="-3.86683">
        <ele>2073.9</ele>
        <time>2018-04-21T08:30:27.000Z</time>
      </trkpt>
      <trkpt lat="40.813406" lon="-3.866831">
        <ele>2073.9</ele>
        <time>2018-04-21T08:30:28.000Z</time>
      </trkpt>
      <trkpt lat="40.813406" lon="-3.866831">
        <ele>2073.9</ele>
        <time>2018-04-21T08:30:29.000Z</time>
      </trkpt>
      <trkpt lat="40.813406" lon="-3.866831">
        <ele>2073.9</ele>
        <time>2018-04-21T08:30:30.000Z</time>
      </trkpt>
      <trkpt lat="40.813406" lon="-3.866832">
        <ele>2073.8</ele>
        <time>2018-04-21T08:30:31.000Z</time>
      </trkpt>
      <trkpt lat="40.813406" lon="-3.866832">
        <ele>2073.8</ele>
        <time>2018-04-21T08:30:32.000Z</time>
      </trkpt>
      <trkpt lat="40.813406" lon="-3.866832">
        <ele>2073.8</ele>
        <time>2018-04-21T08:30:33.000Z</time>
      </trkpt>
      <trkpt lat="40.813406" lon="-3.866833">
        <ele>2073.8</ele>
        <time>2018-04-21T08:30:34.000Z</time>
      </trkpt>
      <trkpt lat="40.813406" lon="-3.866833">
        <ele>2073.8</ele>
        <time>2018-04-21T08:30:35.000Z</time>
      </trkpt>
      <trkpt lat="40.813406" lon="-3.866833">
        <ele>2073.8</ele>
        <time>2018-04-21T08:30:36.000Z</time>
      </trkpt>
      <trkpt lat="40.813406" lon="-3.866834">
        <ele>2073.8</ele>
        <time>2018-04-21T08:30:37.000Z</time>
      </trkpt>
      <trkpt lat="40.813406" lon="-3.866834">
        <ele>2073.8</ele>
        <time>2018-04-21T08:30:38.000Z</time>
      </trkpt>
      <trkpt lat="40.813406" lon="-3.866834">
        <ele>2073.8</ele>
        <time>2018-04-21T08:30:39.000Z</time>
      </trkpt>
      <trkpt lat="40.813406" lon="-3.866834">
        <ele>2073.8</ele>
        <time>2018-04-21T08:30:40.000Z</time>
      </trkpt>
      <trkpt lat="40.813406" lon="-3.866834">
        <ele>2073.8</ele>
        <time>2018-04-21T08:30:41.000Z</time>
      </trkpt>
      <trkpt lat="40.813406" lon="-3.866835">
        <ele>2073.7</ele>
        <time>2018-04-21T08:30:42.000Z</time>
      </trkpt>
      <trkpt lat="40.813406" lon="-3.866835">
        <ele>2073.7</ele>
        <time>2018-04-21T08:30:43.000Z</time>
      </trkpt>
      <trkpt lat="40.813406" lon="-3.866835">
        <ele>2073.7</ele>
        <time>2018-04-21T08:30:44.000Z</time>
      </trkpt>
      <trkpt lat="40.813406" lon="-3.866835">
        <ele>2073.7</ele>
        <time>2018-04-21T08:30:45.000Z</time>
      </trkpt>
      <trkpt lat="40.813406" lon="-3.866835">
        <ele>2073.7</ele>
        <time>2018-04-21T08:30:46.000Z</time>
      </trkpt>
      <trkpt lat="40.813406" lon="-3.866835">
        <ele>2073.7</ele>
        <time>2018-04-21T08:30:47.000Z</time>
      </trkpt>
      <trkpt lat="40.813406" lon="-3.866835">
        <ele>2073.7</ele>
        <time>2018-04-21T08:30:48.000Z</time>
      </trkpt>
      <trkpt lat="40.813407" lon="-3.866835">
        <ele>2073.7</ele>
        <time>2018-04-21T08:30:49.000Z</time>
      </trkpt>
      <trkpt lat="40.813407" lon="-3.866835">
        <ele>2073.7</ele>
        <time>2018-04-21T08:30:50.000Z</time>
      </trkpt>
      <trkpt lat="40.813407" lon="-3.866835">
        <ele>2073.7</ele>
        <time>2018-04-21T08:30:51.000Z</time>
      </trkpt>
      <trkpt lat="40.813408" lon="-3.866836">
        <ele>2073.6</ele>
        <time>2018-04-21T08:30:52.000Z</time>
      </trkpt>
      <trkpt lat="40.813408" lon="-3.866836">
        <ele>2073.6</ele>
        <time>2018-04-21T08:30:53.000Z</time>
      </trkpt>
      <trkpt lat="40.813407" lon="-3.866837">
        <ele>2073.6</ele>
        <time>2018-04-21T08:30:54.000Z</time>
      </trkpt>
      <trkpt lat="40.813406" lon="-3.866838">
        <ele>2073.6</ele>
        <time>2018-04-21T08:30:55.000Z</time>
      </trkpt>
      <trkpt lat="40.813403" lon="-3.866839">
        <ele>2073.7</ele>
        <time>2018-04-21T08:30:56.000Z</time>
      </trkpt>
      <trkpt lat="40.813398" lon="-3.866841">
        <ele>2073.7</ele>
        <time>2018-04-21T08:30:57.000Z</time>
      </trkpt>
      <trkpt lat="40.813391" lon="-3.866843">
        <ele>2073.8</ele>
        <time>2018-04-21T08:30:58.000Z</time>
      </trkpt>
      <trkpt lat="40.813384" lon="-3.866845">
        <ele>2073.9</ele>
        <time>2018-04-21T08:30:59.000Z</time>
      </trkpt>
      <trkpt lat="40.813377" lon="-3.866849">
        <ele>2073.9</ele>
        <time>2018-04-21T08:31:00.000Z</time>
      </trkpt>
      <trkpt lat="40.813371" lon="-3.866852">
        <ele>2073.9</ele>
        <time>2018-04-21T08:31:01.000Z</time>
      </trkpt>
      <trkpt lat="40.813365" lon="-3.866857">
        <ele>2073.9</ele>
        <time>2018-04-21T08:31:02.000Z</time>
      </trkpt>
      <trkpt lat="40.81336" lon="-3.866861">
        <ele>2073.9</ele>
        <time>2018-04-21T08:31:03.000Z</time>
      </trkpt>
      <trkpt lat="40.813355" lon="-3.866866">
        <ele>2073.8</ele>
        <time>2018-04-21T08:31:04.000Z</time>
      </trkpt>
      <trkpt lat="40.813351" lon="-3.866871">
        <ele>2073.7</ele>
        <time>2018-04-21T08:31:05.000Z</time>
      </trkpt>
      <trkpt lat="40.813347" lon="-3.866877">
        <ele>2073.6</ele>
        <time>2018-04-21T08:31:06.000Z</time>
      </trkpt>
      <trkpt lat="40.813343" lon="-3.866881">
        <ele>2073.6</ele>
        <time>2018-04-21T08:31:07.000Z</time>
      </trkpt>
      <trkpt lat="40.813339" lon="-3.866886">
        <ele>2073.5</ele>
        <time>2018-04-21T08:31:08.000Z</time>
      </trkpt>
      <trkpt lat="40.813336" lon="-3.86689">
        <ele>2073.4</ele>
        <time>2018-04-21T08:31:09.000Z</time>
      </trkpt>
      <trkpt lat="40.813332" lon="-3.866894">
        <ele>2073.3</ele>
        <time>2018-04-21T08:31:10.000Z</time>
      </trkpt>
      <trkpt lat="40.813328" lon="-3.866897">
        <ele>2073.2</ele>
        <time>2018-04-21T08:31:11.000Z</time>
      </trkpt>
      <trkpt lat="40.813324" lon="-3.8669">
        <ele>2073.1</ele>
        <time>2018-04-21T08:31:12.000Z</time>
      </trkpt>
      <trkpt lat="40.81332" lon="-3.866902">
        <ele>2073.0</ele>
        <time>2018-04-21T08:31:13.000Z</time>
      </trkpt>
      <trkpt lat="40.813316" lon="-3.866904">
        <ele>2072.9</ele>
        <time>2018-04-21T08:31:14.000Z</time>
      </trkpt>
      <trkpt lat="40.813311" lon="-3.866905">
        <ele>2072.8</ele>
        <time>2018-04-21T08:31:15.000Z</time>
      </trkpt>
      <trkpt lat="40.813306" lon="-3.866907">
        <ele>2072.7</ele>
        <time>2018-04-21T08:31:16.000Z</time>
      </trkpt>
      <trkpt lat="40.813301" lon="-3.866908">
        <ele>2072.6</ele>
        <time>2018-04-21T08:31:17.000Z</time>
      </trkpt>
      <trkpt lat="40.813295" lon="-3.866908">
        <ele>2072.6</ele>
        <time>2018-04-21T08:31:18.000Z</time>
      </trkpt>
      <trkpt lat="40.813288" lon="-3.866909">
        <ele>2072.5</ele>
        <time>2018-04-21T08:31:19.000Z</time>
      </trkpt>
      <trkpt lat="40.813281" lon="-3.866909">
        <ele>2072.4</ele>
        <time>2018-04-21T08:31:20.000Z</time>
      </trkpt>
      <trkpt lat="40.813274" lon="-3.86691">
        <ele>2072.3</ele>
        <time>2018-04-21T08:31:21.000Z</time>
      </trkpt>
      <trkpt lat="40.813267" lon="-3.86691">
        <ele>2072.3</ele>
        <time>2018-04-21T08:31:22.000Z</time>
      </trkpt>
      <trkpt lat="40.81326" lon="-3.866911">
        <ele>2072.2</ele>
        <time>2018-04-21T08:31:23.000Z</time>
      </trkpt>
      <trkpt lat="40.813253" lon="-3.866911">
        <ele>2072.1</ele>
        <time>2018-04-21T08:31:24.000Z</time>
      </trkpt>
      <trkpt lat="40.813247" lon="-3.866911">
        <ele>2072.1</ele>
        <time>2018-04-21T08:31:25.000Z</time>
      </trkpt>
      <trkpt lat="40.813242" lon="-3.866912">
        <ele>2072.0</ele>
        <time>2018-04-21T08:31:26.000Z</time>
      </trkpt>
      <trkpt lat="40.813237" lon="-3.866912">
        <ele>2072.0</ele>
        <time>2018-04-21T08:31:27.000Z</time>
      </trkpt>
      <trkpt lat="40.813233" lon="-3.866913">
        <ele>2071.9</ele>
        <time>2018-04-21T08:31:28.000Z</time>
      </trkpt>
      <trkpt lat="40.81323" lon="-3.866914">
        <ele>2071.9</ele>
        <time>2018-04-21T08:31:29.000Z</time>
      </trkpt>
      <trkpt lat="40.813229" lon="-3.866915">
        <ele>2071.8</ele>
        <time>2018-04-21T08:31:30.000Z</time>
      </trkpt>
      <trkpt lat="40.813227" lon="-3.866915">
        <ele>2071.8</ele>
        <time>2018-04-21T08:31:31.000Z</time>
      </trkpt>
      <trkpt lat="40.813226" lon="-3.866916">
        <ele>2071.8</ele>
        <time>2018-04-21T08:31:32.000Z</time>
      </trkpt>
      <trkpt lat="40.813226" lon="-3.866917">
        <ele>2071.8</ele>
        <time>2018-04-21T08:31:33.000Z</time>
      </trkpt>
      <trkpt lat="40.813226" lon="-3.866918">
        <ele>2071.7</ele>
        <time>2018-04-21T08:31:34.000Z</time>
      </trkpt>
      <trkpt lat="40.813226" lon="-3.866919">
        <ele>2071.7</ele>
        <time>2018-04-21T08:31:35.000Z</time>
      </trkpt>
      <trkpt lat="40.813226" lon="-3.866919">
        <ele>2071.7</ele>
        <time>2018-04-21T08:31:36.000Z</time>
      </trkpt>
      <trkpt lat="40.813226" lon="-3.86692">
        <ele>2071.7</ele>
        <time>2018-04-21T08:31:37.000Z</time>
      </trkpt>
      <trkpt lat="40.813226" lon="-3.86692">
        <ele>2071.7</ele>
        <time>2018-04-21T08:31:38.000Z</time>
      </trkpt>
      <trkpt lat="40.813226" lon="-3.86692">
        <ele>2071.7</ele>
        <time>2018-04-21T08:31:39.000Z</time>
      </trkpt>
      <trkpt lat="40.813226" lon="-3.86692">
        <ele>2071.7</ele>
        <time>2018-04-21T08:31:40.000Z</time>
      </trkpt>
      <trkpt lat="40.813226" lon="-3.86692">
        <ele>2071.7</ele>
        <time>2018-04-21T08:31:41.000Z</time>
      </trkpt>
      <trkpt lat="40.813226" lon="-3.86692">
        <ele>2071.7</ele>
        <time>2018-04-21T08:31:42.000Z</time>
      </trkpt>
      <trkpt lat="40.813226" lon="-3.86692">
        <ele>2071.7</ele>
        <time>2018-04-21T08:31:43.000Z</time>
      </trkpt>
      <trkpt lat="40.813226" lon="-3.86692">
        <ele>2071.7</ele>
        <time>2018-04-21T08:31:44.000Z</time>
      </trkpt>
      <trkpt lat="40.813226" lon="-3.86692">
        <ele>2071.7</ele>
        <time>2018-04-21T08:31:45.000Z</time>
      </trkpt>
      <trkpt lat="40.813226" lon="-3.86692">
        <ele>2071.7</ele>
        <time>2018-04-21T08:31:46.000Z</time>
      </trkpt>
      <trkpt lat="40.813227" lon="-3.866921">
        <ele>2071.6</ele>
        <time>2018-04-21T08:31:47.000Z</time>
      </trkpt>
      <trkpt lat="40.813227" lon="-3.866921">
        <ele>2071.6</ele>
        <time>2018-04-21T08:31:48.000Z</time>
      </trkpt>
      <trkpt lat="40.813227" lon="-3.866921">
        <ele>2071.6</ele>
        <time>2018-04-21T08:31:49.000Z</time>
      </trkpt>
      <trkpt lat="40.813226" lon="-3.866922">
        <ele>2071.6</ele>
        <time>2018-04-21T08:31:50.000Z</time>
      </trkpt>
      <trkpt lat="40.813225" lon="-3.866923">
        <ele>2071.6</ele>
        <time>2018-04-21T08:31:51.000Z</time>
      </trkpt>
      <trkpt lat="40.813223" lon="-3.866925">
        <ele>2071.5</ele>
        <time>2018-04-21T08:31:52.000Z</time>
      </trkpt>
      <trkpt lat="40.813219" lon="-3.866926">
        <ele>2071.4</ele>
        <time>2018-04-21T08:31:53.000Z</time>
      </trkpt>
      <trkpt lat="40.813214" lon="-3.866929">
        <ele>2071.3</ele>
        <time>2018-04-21T08:31:54.000Z</time>
      </trkpt>
      <trkpt lat="40.813208" lon="-3.866932">
        <ele>2071.2</ele>
        <time>2018-04-21T08:31:55.000Z</time>
      </trkpt>
      <trkpt lat="40.813201" lon="-3.866935">
        <ele>2071.1</ele>
        <time>2018-04-21T08:31:56.000Z</time>
      </trkpt>
      <trkpt lat="40.813193" lon="-3.866938">
        <ele>2070.9</ele>
        <time>2018-04-21T08:31:57.000Z</time>
      </trkpt>
      <trkpt lat="40.813184" lon="-3.866942">
        <ele>2070.8</ele>
        <time>2018-04-21T08:31:58.000Z</time>
      </trkpt>
      <trkpt lat="40.813174" lon="-3.866947">
        <ele>2070.6</ele>
        <time>2018-04-21T08:31:59.000Z</time>
      </trkpt>
      <trkpt lat="40.813165" lon="-3.866951">
        <ele>2070.4</ele>
        <time>2018-04-21T08:32:00.000Z</time>
      </trkpt>
      <trkpt lat="40.813155" lon="-3.866956">
        <ele>2070.2</ele>
        <time>2018-04-21T08:32:01.000Z</time>
      </trkpt>
      <trkpt lat="40.813146" lon="-3.86696">
        <ele>2070.1</ele>
        <time>2018-04-21T08:32:02.000Z</time>
      </trkpt>
      <trkpt lat="40.813137" lon="-3.866965">
        <ele>2069.9</ele>
        <time>2018-04-21T08:32:03.000Z</time>
      </trkpt>
      <trkpt lat="40.813129" lon="-3.866969">
        <ele>2069.8</ele>
        <time>2018-04-21T08:32:04.000Z</time>
      </trkpt>
      <trkpt lat="40.813122" lon="-3.866973">
        <ele>2069.7</ele>
        <time>2018-04-21T08:32:05.000Z</time>
      </trkpt>
      <trkpt lat="40.813116" lon="-3.866977">
        <ele>2069.5</ele>
        <time>2018-04-21T08:32:06.000Z</time>
      </trkpt>
      <trkpt lat="40.813111" lon="-3.866981">
        <ele>2069.4</ele>
        <time>2018-04-21T08:32:07.000Z</time>
      </trkpt>
      <trkpt lat="40.813106" lon="-3.866984">
        <ele>2069.3</ele>
        <time>2018-04-21T08:32:08.000Z</time>
      </trkpt>
      <trkpt lat="40.813102" lon="-3.866988">
        <ele>2069.2</ele>
        <time>2018-04-21T08:32:09.000Z</time>
      </trkpt>
      <trkpt lat="40.813098" lon="-3.866991">
        <ele>2069.1</ele>
        <time>2018-04-21T08:32:10.000Z</time>
      </trkpt>
      <trkpt lat="40.813095" lon="-3.866994">
        <ele>2069.1</ele>
        <time>2018-04-21T08:32:11.000Z</time>
      </trkpt>
      <trkpt lat="40.813091" lon="-3.866997">
        <ele>2069.0</ele>
        <time>2018-04-21T08:32:12.000Z</time>
      </trkpt>
      <trkpt lat="40.813088" lon="-3.867">
        <ele>2068.9</ele>
        <time>2018-04-21T08:32:13.000Z</time>
      </trkpt>
      <trkpt lat="40.813084" lon="-3.867003">
        <ele>2068.8</ele>
        <time>2018-04-21T08:32:14.000Z</time>
      </trkpt>
      <trkpt lat="40.81308" lon="-3.867006">
        <ele>2068.8</ele>
        <time>2018-04-21T08:32:15.000Z</time>
      </trkpt>
      <trkpt lat="40.813076" lon="-3.867009">
        <ele>2068.7</ele>
        <time>2018-04-21T08:32:16.000Z</time>
      </trkpt>
      <trkpt lat="40.813072" lon="-3.867011">
        <ele>2068.6</ele>
        <time>2018-04-21T08:32:17.000Z</time>
      </trkpt>
      <trkpt lat="40.813069" lon="-3.867013">
        <ele>2068.6</ele>
        <time>2018-04-21T08:32:18.000Z</time>
      </trkpt>
      <trkpt lat="40.813066" lon="-3.867015">
        <ele>2068.5</ele>
        <time>2018-04-21T08:32:19.000Z</time>
      </trkpt>
      <trkpt lat="40.813063" lon="-3.867016">
        <ele>2068.5</ele>
        <time>2018-04-21T08:32:20.000Z</time>
      </trkpt>
      <trkpt lat="40.813061" lon="-3.867017">
        <ele>2068.5</ele>
        <time>2018-04-21T08:32:21.000Z</time>
      </trkpt>
      <trkpt lat="40.813059" lon="-3.867018">
        <ele>2068.5</ele>
        <time>2018-04-21T08:32:22.000Z</time>
      </trkpt>
      <trkpt lat="40.813058" lon="-3.867018">
        <ele>2068.5</ele>
        <time>2018-04-21T08:32:23.000Z</time>
      </trkpt>
      <trkpt lat="40.813058" lon="-3.867018">
        <ele>2068.5</ele>
        <time>2018-04-21T08:32:24.000Z</time>
      </trkpt>
      <trkpt lat="40.813058" lon="-3.867018">
        <ele>2068.5</ele>
        <time>2018-04-21T08:32:25.000Z</time>
      </trkpt>
      <trkpt lat="40.813058" lon="-3.867017">
        <ele>2068.5</ele>
        <time>2018-04-21T08:32:26.000Z</time>
      </trkpt>
      <trkpt lat="40.813059" lon="-3.867016">
        <ele>2068.5</ele>
        <time>2018-04-21T08:32:27.000Z</time>
      </trkpt>
      <trkpt lat="40.813059" lon="-3.867016">
        <ele>2068.5</ele>
        <time>2018-04-21T08:32:28.000Z</time>
      </trkpt>
      <trkpt lat="40.81306" lon="-3.867015">
        <ele>2068.5</ele>
        <time>2018-04-21T08:32:29.000Z</time>
      </trkpt>
      <trkpt lat="40.81306" lon="-3.867015">
        <ele>2068.5</ele>
        <time>2018-04-21T08:32:30.000Z</time>
      </trkpt>
      <trkpt lat="40.81306" lon="-3.867016">
        <ele>2068.5</ele>
        <time>2018-04-21T08:32:31.000Z</time>
      </trkpt>
      <trkpt lat="40.81306" lon="-3.867017">
        <ele>2068.5</ele>
        <time>2018-04-21T08:32:32.000Z</time>
      </trkpt>
      <trkpt lat="40.813059" lon="-3.867018">
        <ele>2068.5</ele>
        <time>2018-04-21T08:32:33.000Z</time>
      </trkpt>
      <trkpt lat="40.813057" lon="-3.867019">
        <ele>2068.4</ele>
        <time>2018-04-21T08:32:34.000Z</time>
      </trkpt>
      <trkpt lat="40.813055" lon="-3.867021">
        <ele>2068.4</ele>
        <time>2018-04-21T08:32:35.000Z</time>
      </trkpt>
      <trkpt lat="40.813053" lon="-3.867022">
        <ele>2068.4</ele>
        <time>2018-04-21T08:32:36.000Z</time>
      </trkpt>
      <trkpt lat="40.813049" lon="-3.867024">
        <ele>2068.3</ele>
        <time>2018-04-21T08:32:37.000Z</time>
      </trkpt>
      <trkpt lat="40.813045" lon="-3.867025">
        <ele>2068.3</ele>
        <time>2018-04-21T08:32:38.000Z</time>
      </trkpt>
      <trkpt lat="40.81304" lon="-3.867025">
        <ele>2068.3</ele>
        <time>2018-04-21T08:32:39.000Z</time>
      </trkpt>
      <trkpt lat="40.813034" lon="-3.867025">
        <ele>2068.3</ele>
        <time>2018-04-21T08:32:40.000Z</time>
      </trkpt>
      <trkpt lat="40.813027" lon="-3.867025">
        <ele>2068.2</ele>
        <time>2018-04-21T08:32:41.000Z</time>
      </trkpt>
      <trkpt lat="40.813022" lon="-3.867024">
        <ele>2068.2</ele>
        <time>2018-04-21T08:32:42.000Z</time>
      </trkpt>
      <trkpt lat="40.813019" lon="-3.867023">
        <ele>2068.3</ele>
        <time>2018-04-21T08:32:43.000Z</time>
      </trkpt>
      <trkpt lat="40.813019" lon="-3.867022">
        <ele>2068.3</ele>
        <time>2018-04-21T08:32:44.000Z</time>
      </trkpt>
      <trkpt lat="40.81302" lon="-3.867021">
        <ele>2068.3</ele>
        <time>2018-04-21T08:32:45.000Z</time>
      </trkpt>
      <trkpt lat="40.813018" lon="-3.867019">
        <ele>2068.3</ele>
        <time>2018-04-21T08:32:46.000Z</time>
      </trkpt>
      <trkpt lat="40.813012" lon="-3.867017">
        <ele>2068.3</ele>
        <time>2018-04-21T08:32:47.000Z</time>
      </trkpt>
      <trkpt lat="40.813004" lon="-3.867016">
        <ele>2068.3</ele>
        <time>2018-04-21T08:32:48.000Z</time>
      </trkpt>
      <trkpt lat="40.812996" lon="-3.867016">
        <ele>2068.3</ele>
        <time>2018-04-21T08:32:49.000Z</time>
      </trkpt>
      <trkpt lat="40.812988" lon="-3.867017">
        <ele>2068.3</ele>
        <time>2018-04-21T08:32:50.000Z</time>
      </trkpt>
      <trkpt lat="40.812981" lon="-3.86702">
        <ele>2068.2</ele>
        <time>2018-04-21T08:32:51.000Z</time>
      </trkpt>
      <trkpt lat="40.812974" lon="-3.867023">
        <ele>2068.2</ele>
        <time>2018-04-21T08:32:52.000Z</time>
      </trkpt>
      <trkpt lat="40.812968" lon="-3.867028">
        <ele>2068.1</ele>
        <time>2018-04-21T08:32:53.000Z</time>
      </trkpt>
      <trkpt lat="40.812963" lon="-3.867033">
        <ele>2068.0</ele>
        <time>2018-04-21T08:32:54.000Z</time>
      </trkpt>
      <trkpt lat="40.812958" lon="-3.867039">
        <ele>2067.9</ele>
        <time>2018-04-21T08:32:55.000Z</time>
      </trkpt>
      <trkpt lat="40.812954" lon="-3.867045">
        <ele>2067.8</ele>
        <time>2018-04-21T08:32:56.000Z</time>
      </trkpt>
      <trkpt lat="40.81295" lon="-3.86705">
        <ele>2067.7</ele>
        <time>2018-04-21T08:32:57.000Z</time>
      </trkpt>
      <trkpt lat="40.812947" lon="-3.867056">
        <ele>2067.6</ele>
        <time>2018-04-21T08:32:58.000Z</time>
      </trkpt>
      <trkpt lat="40.812943" lon="-3.867061">
        <ele>2067.5</ele>
        <time>2018-04-21T08:32:59.000Z</time>
      </trkpt>
      <trkpt lat="40.812941" lon="-3.867066">
        <ele>2067.5</ele>
        <time>2018-04-21T08:33:00.000Z</time>
      </trkpt>
      <trkpt lat="40.812938" lon="-3.86707">
        <ele>2067.4</ele>
        <time>2018-04-21T08:33:01.000Z</time>
      </trkpt>
      <trkpt lat="40.812936" lon="-3.867073">
        <ele>2067.4</ele>
        <time>2018-04-21T08:33:02.000Z</time>
      </trkpt>
      <trkpt lat="40.812934" lon="-3.867077">
        <ele>2067.3</ele>
        <time>2018-04-21T08:33:03.000Z</time>
      </trkpt>
      <trkpt lat="40.812932" lon="-3.86708">
        <ele>2067.3</ele>
        <time>2018-04-21T08:33:04.000Z</time>
      </trkpt>
      <trkpt lat="40.812931" lon="-3.867082">
        <ele>2067.3</ele>
        <time>2018-04-21T08:33:05.000Z</time>
      </trkpt>
      <trkpt lat="40.812929" lon="-3.867085">
        <ele>2067.2</ele>
        <time>2018-04-21T08:33:06.000Z</time>
      </trkpt>
      <trkpt lat="40.812928" lon="-3.867087">
        <ele>2067.2</ele>
        <time>2018-04-21T08:33:07.000Z</time>
      </trkpt>
      <trkpt lat="40.812927" lon="-3.867089">
        <ele>2067.2</ele>
        <time>2018-04-21T08:33:08.000Z</time>
      </trkpt>
      <trkpt lat="40.812926" lon="-3.867091">
        <ele>2067.1</ele>
        <time>2018-04-21T08:33:09.000Z</time>
      </trkpt>
      <trkpt lat="40.812925" lon="-3.867092">
        <ele>2067.1</ele>
        <time>2018-04-21T08:33:10.000Z</time>
      </trkpt>
      <trkpt lat="40.812924" lon="-3.867094">
        <ele>2067.1</ele>
        <time>2018-04-21T08:33:11.000Z</time>
      </trkpt>
      <trkpt lat="40.812923" lon="-3.867095">
        <ele>2067.1</ele>
        <time>2018-04-21T08:33:12.000Z</time>
      </trkpt>
      <trkpt lat="40.812923" lon="-3.867096">
        <ele>2067.1</ele>
        <time>2018-04-21T08:33:13.000Z</time>
      </trkpt>
      <trkpt lat="40.812922" lon="-3.867097">
        <ele>2067.1</ele>
        <time>2018-04-21T08:33:14.000Z</time>
      </trkpt>
      <trkpt lat="40.812922" lon="-3.867098">
        <ele>2067.1</ele>
        <time>2018-04-21T08:33:15.000Z</time>
      </trkpt>
      <trkpt lat="40.812921" lon="-3.867099">
        <ele>2067.0</ele>
        <time>2018-04-21T08:33:16.000Z</time>
      </trkpt>
      <trkpt lat="40.812921" lon="-3.8671">
        <ele>2067.0</ele>
        <time>2018-04-21T08:33:17.000Z</time>
      </trkpt>
      <trkpt lat="40.81292" lon="-3.8671">
        <ele>2067.0</ele>
        <time>2018-04-21T08:33:18.000Z</time>
      </trkpt>
      <trkpt lat="40.81292" lon="-3.8671">
        <ele>2067.0</ele>
        <time>2018-04-21T08:33:19.000Z</time>
      </trkpt>
      <trkpt lat="40.81292" lon="-3.867101">
        <ele>2067.0</ele>
        <time>2018-04-21T08:33:20.000Z</time>
      </trkpt>
      <trkpt lat="40.81292" lon="-3.867101">
        <ele>2067.0</ele>
        <time>2018-04-21T08:33:21.000Z</time>
      </trkpt>
      <trkpt lat="40.81292" lon="-3.867101">
        <ele>2067.0</ele>
        <time>2018-04-21T08:33:22.000Z</time>
      </trkpt>
      <trkpt lat="40.812919" lon="-3.867101">
        <ele>2067.0</ele>
        <time>2018-04-21T08:33:23.000Z</time>
      </trkpt>
      <trkpt lat="40.812919" lon="-3.867101">
        <ele>2067.0</ele>
        <time>2018-04-21T08:33:24.000Z</time>
      </trkpt>
      <trkpt lat="40.812919" lon="-3.867101">
        <ele>2067.0</ele>
        <time>2018-04-21T08:33:25.000Z</time>
      </trkpt>
      <trkpt lat="40.812919" lon="-3.867101">
        <ele>2067.0</ele>
        <time>2018-04-21T08:33:26.000Z</time>
      </trkpt>
      <trkpt lat="40.812919" lon="-3.867101">
        <ele>2067.0</ele>
        <time>2018-04-21T08:33:27.000Z</time>
      </trkpt>
      <trkpt lat="40.812919" lon="-3.867101">
        <ele>2067.0</ele>
        <time>2018-04-21T08:33:28.000Z</time>
      </trkpt>
      <trkpt lat="40.812919" lon="-3.867101">
        <ele>2067.0</ele>
        <time>2018-04-21T08:33:29.000Z</time>
      </trkpt>
      <trkpt lat="40.812919" lon="-3.8671">
        <ele>2067.0</ele>
        <time>2018-04-21T08:33:30.000Z</time>
      </trkpt>
      <trkpt lat="40.812919" lon="-3.8671">
        <ele>2067.0</ele>
        <time>2018-04-21T08:33:31.000Z</time>
      </trkpt>
      <trkpt lat="40.812919" lon="-3.8671">
        <ele>2067.0</ele>
        <time>2018-04-21T08:33:32.000Z</time>
      </trkpt>
      <trkpt lat="40.81292" lon="-3.8671">
        <ele>2067.0</ele>
        <time>2018-04-21T08:33:33.000Z</time>
      </trkpt>
      <trkpt lat="40.81292" lon="-3.8671">
        <ele>2067.0</ele>
        <time>2018-04-21T08:33:34.000Z</time>
      </trkpt>
      <trkpt lat="40.81292" lon="-3.867099">
        <ele>2067.0</ele>
        <time>2018-04-21T08:33:35.000Z</time>
      </trkpt>
      <trkpt lat="40.81292" lon="-3.867099">
        <ele>2067.0</ele>
        <time>2018-04-21T08:33:36.000Z</time>
      </trkpt>
      <trkpt lat="40.81292" lon="-3.867099">
        <ele>2067.0</ele>
        <time>2018-04-21T08:33:37.000Z</time>
      </trkpt>
      <trkpt lat="40.81292" lon="-3.867099">
        <ele>2067.0</ele>
        <time>2018-04-21T08:33:38.000Z</time>
      </trkpt>
      <trkpt lat="40.812919" lon="-3.867099">
        <ele>2067.0</ele>
        <time>2018-04-21T08:33:39.000Z</time>
      </trkpt>
      <trkpt lat="40.812919" lon="-3.867099">
        <ele>2067.0</ele>
        <time>2018-04-21T08:33:40.000Z</time>
      </trkpt>
      <trkpt lat="40.812919" lon="-3.8671">
        <ele>2067.0</ele>
        <time>2018-04-21T08:33:41.000Z</time>
      </trkpt>
      <trkpt lat="40.812919" lon="-3.8671">
        <ele>2067.0</ele>
        <time>2018-04-21T08:33:42.000Z</time>
      </trkpt>
      <trkpt lat="40.812919" lon="-3.8671">
        <ele>2067.0</ele>
        <time>2018-04-21T08:33:43.000Z</time>
      </trkpt>
      <trkpt lat="40.812919" lon="-3.867101">
        <ele>2067.0</ele>
        <time>2018-04-21T08:33:44.000Z</time>
      </trkpt>
      <trkpt lat="40.812918" lon="-3.867101">
        <ele>2067.0</ele>
        <time>2018-04-21T08:33:45.000Z</time>
      </trkpt>
      <trkpt lat="40.812918" lon="-3.867101">
        <ele>2067.0</ele>
        <time>2018-04-21T08:33:46.000Z</time>
      </trkpt>
      <trkpt lat="40.812918" lon="-3.867101">
        <ele>2067.0</ele>
        <time>2018-04-21T08:33:47.000Z</time>
      </trkpt>
      <trkpt lat="40.812913" lon="-3.867102">
        <ele>2067.0</ele>
        <time>2018-04-21T08:33:48.000Z</time>
      </trkpt>
      <trkpt lat="40.812902" lon="-3.867105">
        <ele>2067.0</ele>
        <time>2018-04-21T08:33:49.000Z</time>
      </trkpt>
      <trkpt lat="40.812892" lon="-3.867109">
        <ele>2067.0</ele>
        <time>2018-04-21T08:33:50.000Z</time>
      </trkpt>
      <trkpt lat="40.812888" lon="-3.867114">
        <ele>2066.9</ele>
        <time>2018-04-21T08:33:51.000Z</time>
      </trkpt>
      <trkpt lat="40.812888" lon="-3.867115">
        <ele>2066.9</ele>
        <time>2018-04-21T08:33:52.000Z</time>
      </trkpt>
      <trkpt lat="40.812888" lon="-3.867115">
        <ele>2066.9</ele>
        <time>2018-04-21T08:33:53.000Z</time>
      </trkpt>
      <trkpt lat="40.812886" lon="-3.867115">
        <ele>2066.9</ele>
        <time>2018-04-21T08:33:54.000Z</time>
      </trkpt>
      <trkpt lat="40.812884" lon="-3.867117">
        <ele>2066.9</ele>
        <time>2018-04-21T08:33:55.000Z</time>
      </trkpt>
      <trkpt lat="40.812882" lon="-3.867119">
        <ele>2066.9</ele>
        <time>2018-04-21T08:33:56.000Z</time>
      </trkpt>
      <trkpt lat="40.81288" lon="-3.867122">
        <ele>2066.9</ele>
        <time>2018-04-21T08:33:57.000Z</time>
      </trkpt>
      <trkpt lat="40.812877" lon="-3.867126">
        <ele>2066.8</ele>
        <time>2018-04-21T08:33:58.000Z</time>
      </trkpt>
      <trkpt lat="40.812874" lon="-3.86713">
        <ele>2066.8</ele>
        <time>2018-04-21T08:33:59.000Z</time>
      </trkpt>
      <trkpt lat="40.812871" lon="-3.867136">
        <ele>2066.7</ele>
        <time>2018-04-21T08:34:00.000Z</time>
      </trkpt>
      <trkpt lat="40.812868" lon="-3.867144">
        <ele>2066.7</ele>
        <time>2018-04-21T08:34:01.000Z</time>
      </trkpt>
      <trkpt lat="40.812866" lon="-3.867152">
        <ele>2066.6</ele>
        <time>2018-04-21T08:34:02.000Z</time>
      </trkpt>
      <trkpt lat="40.812864" lon="-3.86716">
        <ele>2066.5</ele>
        <time>2018-04-21T08:34:03.000Z</time>
      </trkpt>
      <trkpt lat="40.812862" lon="-3.867169">
        <ele>2066.4</ele>
        <time>2018-04-21T08:34:04.000Z</time>
      </trkpt>
      <trkpt lat="40.812861" lon="-3.867176">
        <ele>2066.4</ele>
        <time>2018-04-21T08:34:05.000Z</time>
      </trkpt>
      <trkpt lat="40.81286" lon="-3.867181">
        <ele>2066.3</ele>
        <time>2018-04-21T08:34:06.000Z</time>
      </trkpt>
      <trkpt lat="40.812859" lon="-3.867184">
        <ele>2066.3</ele>
        <time>2018-04-21T08:34:07.000Z</time>
      </trkpt>
      <trkpt lat="40.812859" lon="-3.867185">
        <ele>2066.3</ele>
        <time>2018-04-21T08:34:08.000Z</time>
      </trkpt>
      <trkpt lat="40.812859" lon="-3.867185">
        <ele>2066.3</ele>
        <time>2018-04-21T08:34:09.000Z</time>
      </trkpt>
      <trkpt lat="40.812859" lon="-3.867185">
        <ele>2066.3</ele>
        <time>2018-04-21T08:34:10.000Z</time>
      </trkpt>
      <trkpt lat="40.812858" lon="-3.867185">
        <ele>2066.3</ele>
        <time>2018-04-21T08:34:11.000Z</time>
      </trkpt>
      <trkpt lat="40.812858" lon="-3.867185">
        <ele>2066.3</ele>
        <time>2018-04-21T08:34:12.000Z</time>
      </trkpt>
      <trkpt lat="40.812856" lon="-3.867187">
        <ele>2066.3</ele>
        <time>2018-04-21T08:34:13.000Z</time>
      </trkpt>
      <trkpt lat="40.812853" lon="-3.86719">
        <ele>2066.3</ele>
        <time>2018-04-21T08:34:14.000Z</time>
      </trkpt>
      <trkpt lat="40.812849" lon="-3.867193">
        <ele>2066.3</ele>
        <time>2018-04-21T08:34:15.000Z</time>
      </trkpt>
      <trkpt lat="40.812845" lon="-3.867198">
        <ele>2066.3</ele>
        <time>2018-04-21T08:34:16.000Z</time>
      </trkpt>
      <trkpt lat="40.812842" lon="-3.867203">
        <ele>2066.2</ele>
        <time>2018-04-21T08:34:17.000Z</time>
      </trkpt>
      <trkpt lat="40.812838" lon="-3.867209">
        <ele>2066.2</ele>
        <time>2018-04-21T08:34:18.000Z</time>
      </trkpt>
      <trkpt lat="40.812834" lon="-3.867215">
        <ele>2066.2</ele>
        <time>2018-04-21T08:34:19.000Z</time>
      </trkpt>
      <trkpt lat="40.812831" lon="-3.867219">
        <ele>2066.2</ele>
        <time>2018-04-21T08:34:20.000Z</time>
      </trkpt>
      <trkpt lat="40.812828" lon="-3.867224">
        <ele>2066.2</ele>
        <time>2018-04-21T08:34:21.000Z</time>
      </trkpt>
      <trkpt lat="40.812826" lon="-3.867228">
        <ele>2066.1</ele>
        <time>2018-04-21T08:34:22.000Z</time>
      </trkpt>
      <trkpt lat="40.812823" lon="-3.867231">
        <ele>2066.1</ele>
        <time>2018-04-21T08:34:23.000Z</time>
      </trkpt>
      <trkpt lat="40.812822" lon="-3.867234">
        <ele>2066.1</ele>
        <time>2018-04-21T08:34:24.000Z</time>
      </trkpt>
      <trkpt lat="40.81282" lon="-3.867237">
        <ele>2066.1</ele>
        <time>2018-04-21T08:34:25.000Z</time>
      </trkpt>
      <trkpt lat="40.812819" lon="-3.867239">
        <ele>2066.1</ele>
        <time>2018-04-21T08:34:26.000Z</time>
      </trkpt>
      <trkpt lat="40.812817" lon="-3.867241">
        <ele>2066.1</ele>
        <time>2018-04-21T08:34:27.000Z</time>
      </trkpt>
      <trkpt lat="40.812816" lon="-3.867242">
        <ele>2066.1</ele>
        <time>2018-04-21T08:34:28.000Z</time>
      </trkpt>
      <trkpt lat="40.812816" lon="-3.867243">
        <ele>2066.1</ele>
        <time>2018-04-21T08:34:29.000Z</time>
      </trkpt>
      <trkpt lat="40.812815" lon="-3.867244">
        <ele>2066.1</ele>
        <time>2018-04-21T08:34:30.000Z</time>
      </trkpt>
      <trkpt lat="40.812815" lon="-3.867245">
        <ele>2066.1</ele>
        <time>2018-04-21T08:34:31.000Z</time>
      </trkpt>
      <trkpt lat="40.812814" lon="-3.867245">
        <ele>2066.1</ele>
        <time>2018-04-21T08:34:32.000Z</time>
      </trkpt>
      <trkpt lat="40.812814" lon="-3.867246">
        <ele>2066.1</ele>
        <time>2018-04-21T08:34:33.000Z</time>
      </trkpt>
      <trkpt lat="40.812814" lon="-3.867246">
        <ele>2066.1</ele>
        <time>2018-04-21T08:34:34.000Z</time>
      </trkpt>
      <trkpt lat="40.812814" lon="-3.867246">
        <ele>2066.1</ele>
        <time>2018-04-21T08:34:35.000Z</time>
      </trkpt>
      <trkpt lat="40.812814" lon="-3.867246">
        <ele>2066.1</ele>
        <time>2018-04-21T08:34:36.000Z</time>
      </trkpt>
      <trkpt lat="40.812814" lon="-3.867246">
        <ele>2066.1</ele>
        <time>2018-04-21T08:34:37.000Z</time>
      </trkpt>
      <trkpt lat="40.812814" lon="-3.867246">
        <ele>2066.1</ele>
        <time>2018-04-21T08:34:38.000Z</time>
      </trkpt>
      <trkpt lat="40.812814" lon="-3.867246">
        <ele>2066.1</ele>
        <time>2018-04-21T08:34:39.000Z</time>
      </trkpt>
      <trkpt lat="40.812814" lon="-3.867246">
        <ele>2066.1</ele>
        <time>2018-04-21T08:34:40.000Z</time>
      </trkpt>
      <trkpt lat="40.812814" lon="-3.867246">
        <ele>2066.1</ele>
        <time>2018-04-21T08:34:41.000Z</time>
      </trkpt>
      <trkpt lat="40.812814" lon="-3.867246">
        <ele>2066.1</ele>
        <time>2018-04-21T08:34:42.000Z</time>
      </trkpt>
      <trkpt lat="40.812814" lon="-3.867246">
        <ele>2066.1</ele>
        <time>2018-04-21T08:34:43.000Z</time>
      </trkpt>
      <trkpt lat="40.812814" lon="-3.867246">
        <ele>2066.1</ele>
        <time>2018-04-21T08:34:44.000Z</time>
      </trkpt>
      <trkpt lat="40.812814" lon="-3.867246">
        <ele>2066.1</ele>
        <time>2018-04-21T08:34:45.000Z</time>
      </trkpt>
      <trkpt lat="40.812814" lon="-3.867246">
        <ele>2066.1</ele>
        <time>2018-04-21T08:34:46.000Z</time>
      </trkpt>
      <trkpt lat="40.812814" lon="-3.867246">
        <ele>2066.1</ele>
        <time>2018-04-21T08:34:47.000Z</time>
      </trkpt>
      <trkpt lat="40.812814" lon="-3.867246">
        <ele>2066.1</ele>
        <time>2018-04-21T08:34:48.000Z</time>
      </trkpt>
      <trkpt lat="40.812814" lon="-3.867246">
        <ele>2066.1</ele>
        <time>2018-04-21T08:34:49.000Z</time>
      </trkpt>
      <trkpt lat="40.812814" lon="-3.867246">
        <ele>2066.1</ele>
        <time>2018-04-21T08:34:50.000Z</time>
      </trkpt>
      <trkpt lat="40.812814" lon="-3.867246">
        <ele>2066.1</ele>
        <time>2018-04-21T08:34:51.000Z</time>
      </trkpt>
      <trkpt lat="40.812814" lon="-3.867246">
        <ele>2066.1</ele>
        <time>2018-04-21T08:34:52.000Z</time>
      </trkpt>
      <trkpt lat="40.812814" lon="-3.867246">
        <ele>2066.1</ele>
        <time>2018-04-21T08:34:53.000Z</time>
      </trkpt>
      <trkpt lat="40.812814" lon="-3.867246">
        <ele>2066.1</ele>
        <time>2018-04-21T08:34:54.000Z</time>
      </trkpt>
      <trkpt lat="40.812814" lon="-3.867246">
        <ele>2066.1</ele>
        <time>2018-04-21T08:34:55.000Z</time>
      </trkpt>
      <trkpt lat="40.812814" lon="-3.867246">
        <ele>2066.1</ele>
        <time>2018-04-21T08:34:56.000Z</time>
      </trkpt>
      <trkpt lat="40.812814" lon="-3.867246">
        <ele>2066.1</ele>
        <time>2018-04-21T08:34:57.000Z</time>
      </trkpt>
      <trkpt lat="40.812814" lon="-3.867246">
        <ele>2066.1</ele>
        <time>2018-04-21T08:34:58.000Z</time>
      </trkpt>
      <trkpt lat="40.812814" lon="-3.867246">
        <ele>2066.1</ele>
        <time>2018-04-21T08:34:59.000Z</time>
      </trkpt>
      <trkpt lat="40.812814" lon="-3.867246">
        <ele>2066.1</ele>
        <time>2018-04-21T08:35:00.000Z</time>
      </trkpt>
      <trkpt lat="40.812814" lon="-3.867246">
        <ele>2066.1</ele>
        <time>2018-04-21T08:35:01.000Z</time>
      </trkpt>
      <trkpt lat="40.812814" lon="-3.867246">
        <ele>2066.1</ele>
        <time>2018-04-21T08:35:02.000Z</time>
      </trkpt>
      <trkpt lat="40.812814" lon="-3.867246">
        <ele>2066.1</ele>
        <time>2018-04-21T08:35:03.000Z</time>
      </trkpt>
      <trkpt lat="40.812814" lon="-3.867246">
        <ele>2066.1</ele>
        <time>2018-04-21T08:35:04.000Z</time>
      </trkpt>
      <trkpt lat="40.812814" lon="-3.867246">
        <ele>2066.1</ele>
        <time>2018-04-21T08:35:05.000Z</time>
      </trkpt>
      <trkpt lat="40.812814" lon="-3.867246">
        <ele>2066.1</ele>
        <time>2018-04-21T08:35:06.000Z</time>
      </trkpt>
      <trkpt lat="40.812814" lon="-3.867246">
        <ele>2066.1</ele>
        <time>2018-04-21T08:35:07.000Z</time>
      </trkpt>
      <trkpt lat="40.812814" lon="-3.867246">
        <ele>2066.1</ele>
        <time>2018-04-21T08:35:08.000Z</time>
      </trkpt>
      <trkpt lat="40.812814" lon="-3.867246">
        <ele>2066.1</ele>
        <time>2018-04-21T08:35:09.000Z</time>
      </trkpt>
      <trkpt lat="40.812814" lon="-3.867246">
        <ele>2066.1</ele>
        <time>2018-04-21T08:35:10.000Z</time>
      </trkpt>
      <trkpt lat="40.812814" lon="-3.867246">
        <ele>2066.1</ele>
        <time>2018-04-21T08:35:11.000Z</time>
      </trkpt>
      <trkpt lat="40.812814" lon="-3.867246">
        <ele>2066.1</ele>
        <time>2018-04-21T08:35:12.000Z</time>
      </trkpt>
      <trkpt lat="40.812814" lon="-3.867246">
        <ele>2066.1</ele>
        <time>2018-04-21T08:35:13.000Z</time>
      </trkpt>
      <trkpt lat="40.812814" lon="-3.867246">
        <ele>2066.1</ele>
        <time>2018-04-21T08:35:14.000Z</time>
      </trkpt>
      <trkpt lat="40.812814" lon="-3.867246">
        <ele>2066.1</ele>
        <time>2018-04-21T08:35:15.000Z</time>
      </trkpt>
      <trkpt lat="40.812814" lon="-3.867246">
        <ele>2066.1</ele>
        <time>2018-04-21T08:35:16.000Z</time>
      </trkpt>
      <trkpt lat="40.812814" lon="-3.867247">
        <ele>2066.1</ele>
        <time>2018-04-21T08:35:17.000Z</time>
      </trkpt>
      <trkpt lat="40.812813" lon="-3.867247">
        <ele>2066.1</ele>
        <time>2018-04-21T08:35:18.000Z</time>
      </trkpt>
      <trkpt lat="40.812813" lon="-3.867249">
        <ele>2066.1</ele>
        <time>2018-04-21T08:35:19.000Z</time>
      </trkpt>
      <trkpt lat="40.812812" lon="-3.86725">
        <ele>2066.1</ele>
        <time>2018-04-21T08:35:20.000Z</time>
      </trkpt>
      <trkpt lat="40.812811" lon="-3.867253">
        <ele>2066.1</ele>
        <time>2018-04-21T08:35:21.000Z</time>
      </trkpt>
      <trkpt lat="40.81281" lon="-3.867256">
        <ele>2066.1</ele>
        <time>2018-04-21T08:35:22.000Z</time>
      </trkpt>
      <trkpt lat="40.812809" lon="-3.867259">
        <ele>2066.1</ele>
        <time>2018-04-21T08:35:23.000Z</time>
      </trkpt>
      <trkpt lat="40.812807" lon="-3.867264">
        <ele>2066.0</ele>
        <time>2018-04-21T08:35:24.000Z</time>
      </trkpt>
      <trkpt lat="40.812805" lon="-3.867268">
        <ele>2066.0</ele>
        <time>2018-04-21T08:35:25.000Z</time>
      </trkpt>
      <trkpt lat="40.812803" lon="-3.867273">
        <ele>2066.0</ele>
        <time>2018-04-21T08:35:26.000Z</time>
      </trkpt>
      <trkpt lat="40.812801" lon="-3.867278">
        <ele>2066.0</ele>
        <time>2018-04-21T08:35:27.000Z</time>
      </trkpt>
      <trkpt lat="40.812799" lon="-3.867283">
        <ele>2066.0</ele>
        <time>2018-04-21T08:35:28.000Z</time>
      </trkpt>
      <trkpt lat="40.812797" lon="-3.867288">
        <ele>2066.0</ele>
        <time>2018-04-21T08:35:29.000Z</time>
      </trkpt>
      <trkpt lat="40.812795" lon="-3.867292">
        <ele>2066.0</ele>
        <time>2018-04-21T08:35:30.000Z</time>
      </trkpt>
      <trkpt lat="40.812793" lon="-3.867296">
        <ele>2066.0</ele>
        <time>2018-04-21T08:35:31.000Z</time>
      </trkpt>
      <trkpt lat="40.812792" lon="-3.867299">
        <ele>2066.0</ele>
        <time>2018-04-21T08:35:32.000Z</time>
      </trkpt>
      <trkpt lat="40.81279" lon="-3.867302">
        <ele>2066.0</ele>
        <time>2018-04-21T08:35:33.000Z</time>
      </trkpt>
      <trkpt lat="40.812789" lon="-3.867304">
        <ele>2066.0</ele>
        <time>2018-04-21T08:35:34.000Z</time>
      </trkpt>
      <trkpt lat="40.812789" lon="-3.867305">
        <ele>2066.0</ele>
        <time>2018-04-21T08:35:35.000Z</time>
      </trkpt>
      <trkpt lat="40.812788" lon="-3.867306">
        <ele>2066.0</ele>
        <time>2018-04-21T08:35:36.000Z</time>
      </trkpt>
      <trkpt lat="40.812788" lon="-3.867306">
        <ele>2066.0</ele>
        <time>2018-04-21T08:35:37.000Z</time>
      </trkpt>
      <trkpt lat="40.812787" lon="-3.867307">
        <ele>2066.0</ele>
        <time>2018-04-21T08:35:38.000Z</time>
      </trkpt>
      <trkpt lat="40.812787" lon="-3.867307">
        <ele>2066.0</ele>
        <time>2018-04-21T08:35:39.000Z</time>
      </trkpt>
      <trkpt lat="40.812787" lon="-3.867307">
        <ele>2066.0</ele>
        <time>2018-04-21T08:35:40.000Z</time>
      </trkpt>
      <trkpt lat="40.812787" lon="-3.867307">
        <ele>2066.0</ele>
        <time>2018-04-21T08:35:41.000Z</time>
      </trkpt>
      <trkpt lat="40.812787" lon="-3.867307">
        <ele>2066.0</ele>
        <time>2018-04-21T08:35:42.000Z</time>
      </trkpt>
      <trkpt lat="40.812787" lon="-3.867307">
        <ele>2066.0</ele>
        <time>2018-04-21T08:35:43.000Z</time>
      </trkpt>
      <trkpt lat="40.812787" lon="-3.867307">
        <ele>2066.0</ele>
        <time>2018-04-21T08:35:44.000Z</time>
      </trkpt>
      <trkpt lat="40.812787" lon="-3.867307">
        <ele>2066.0</ele>
        <time>2018-04-21T08:35:45.000Z</time>
      </trkpt>
      <trkpt lat="40.812787" lon="-3.867307">
        <ele>2066.0</ele>
        <time>2018-04-21T08:35:46.000Z</time>
      </trkpt>
      <trkpt lat="40.812787" lon="-3.867307">
        <ele>2066.0</ele>
        <time>2018-04-21T08:35:47.000Z</time>
      </trkpt>
      <trkpt lat="40.812787" lon="-3.867307">
        <ele>2066.0</ele>
        <time>2018-04-21T08:35:48.000Z</time>
      </trkpt>
      <trkpt lat="40.812787" lon="-3.867307">
        <ele>2066.0</ele>
        <time>2018-04-21T08:35:49.000Z</time>
      </trkpt>
      <trkpt lat="40.812787" lon="-3.867307">
        <ele>2066.0</ele>
        <time>2018-04-21T08:35:50.000Z</time>
      </trkpt>
      <trkpt lat="40.812787" lon="-3.867307">
        <ele>2066.0</ele>
        <time>2018-04-21T08:35:51.000Z</time>
      </trkpt>
      <trkpt lat="40.812787" lon="-3.867307">
        <ele>2066.0</ele>
        <time>2018-04-21T08:35:52.000Z</time>
      </trkpt>
      <trkpt lat="40.812787" lon="-3.867307">
        <ele>2066.0</ele>
        <time>2018-04-21T08:35:53.000Z</time>
      </trkpt>
      <trkpt lat="40.812787" lon="-3.867307">
        <ele>2066.0</ele>
        <time>2018-04-21T08:35:54.000Z</time>
      </trkpt>
      <trkpt lat="40.812786" lon="-3.867307">
        <ele>2066.0</ele>
        <time>2018-04-21T08:35:55.000Z</time>
      </trkpt>
      <trkpt lat="40.812786" lon="-3.867307">
        <ele>2066.0</ele>
        <time>2018-04-21T08:35:56.000Z</time>
      </trkpt>
      <trkpt lat="40.812786" lon="-3.867307">
        <ele>2066.0</ele>
        <time>2018-04-21T08:35:57.000Z</time>
      </trkpt>
      <trkpt lat="40.812786" lon="-3.867307">
        <ele>2066.0</ele>
        <time>2018-04-21T08:35:58.000Z</time>
      </trkpt>
      <trkpt lat="40.812786" lon="-3.867307">
        <ele>2066.0</ele>
        <time>2018-04-21T08:35:59.000Z</time>
      </trkpt>
      <trkpt lat="40.812786" lon="-3.867307">
        <ele>2066.0</ele>
        <time>2018-04-21T08:36:00.000Z</time>
      </trkpt>
      <trkpt lat="40.812786" lon="-3.867308">
        <ele>2066.0</ele>
        <time>2018-04-21T08:36:01.000Z</time>
      </trkpt>
      <trkpt lat="40.812786" lon="-3.867309">
        <ele>2066.0</ele>
        <time>2018-04-21T08:36:02.000Z</time>
      </trkpt>
      <trkpt lat="40.812785" lon="-3.86731">
        <ele>2066.0</ele>
        <time>2018-04-21T08:36:03.000Z</time>
      </trkpt>
      <trkpt lat="40.812783" lon="-3.867313">
        <ele>2066.0</ele>
        <time>2018-04-21T08:36:04.000Z</time>
      </trkpt>
      <trkpt lat="40.812781" lon="-3.867315">
        <ele>2066.0</ele>
        <time>2018-04-21T08:36:05.000Z</time>
      </trkpt>
      <trkpt lat="40.812778" lon="-3.867319">
        <ele>2066.0</ele>
        <time>2018-04-21T08:36:06.000Z</time>
      </trkpt>
      <trkpt lat="40.812774" lon="-3.867323">
        <ele>2066.0</ele>
        <time>2018-04-21T08:36:07.000Z</time>
      </trkpt>
      <trkpt lat="40.812769" lon="-3.867327">
        <ele>2066.1</ele>
        <time>2018-04-21T08:36:08.000Z</time>
      </trkpt>
      <trkpt lat="40.812763" lon="-3.867331">
        <ele>2066.1</ele>
        <time>2018-04-21T08:36:09.000Z</time>
      </trkpt>
      <trkpt lat="40.812757" lon="-3.867335">
        <ele>2066.2</ele>
        <time>2018-04-21T08:36:10.000Z</time>
      </trkpt>
      <trkpt lat="40.81275" lon="-3.86734">
        <ele>2066.3</ele>
        <time>2018-04-21T08:36:11.000Z</time>
      </trkpt>
      <trkpt lat="40.812742" lon="-3.867344">
        <ele>2066.4</ele>
        <time>2018-04-21T08:36:12.000Z</time>
      </trkpt>
      <trkpt lat="40.812735" lon="-3.867348">
        <ele>2066.4</ele>
        <time>2018-04-21T08:36:13.000Z</time>
      </trkpt>
      <trkpt lat="40.812729" lon="-3.867352">
        <ele>2066.5</ele>
        <time>2018-04-21T08:36:14.000Z</time>
      </trkpt>
      <trkpt lat="40.812723" lon="-3.867355">
        <ele>2066.6</ele>
        <time>2018-04-21T08:36:15.000Z</time>
      </trkpt>
      <trkpt lat="40.812718" lon="-3.867358">
        <ele>2066.7</ele>
        <time>2018-04-21T08:36:16.000Z</time>
      </trkpt>
      <trkpt lat="40.812714" lon="-3.86736">
        <ele>2066.7</ele>
        <time>2018-04-21T08:36:17.000Z</time>
      </trkpt>
      <trkpt lat="40.812712" lon="-3.867362">
        <ele>2066.7</ele>
        <time>2018-04-21T08:36:18.000Z</time>
      </trkpt>
      <trkpt lat="40.81271" lon="-3.867363">
        <ele>2066.8</ele>
        <time>2018-04-21T08:36:19.000Z</time>
      </trkpt>
      <trkpt lat="40.812709" lon="-3.867364">
        <ele>2066.8</ele>
        <time>2018-04-21T08:36:20.000Z</time>
      </trkpt>
      <trkpt lat="40.812708" lon="-3.867365">
        <ele>2066.8</ele>
        <time>2018-04-21T08:36:21.000Z</time>
      </trkpt>
      <trkpt lat="40.812708" lon="-3.867365">
        <ele>2066.8</ele>
        <time>2018-04-21T08:36:22.000Z</time>
      </trkpt>
      <trkpt lat="40.812708" lon="-3.867366">
        <ele>2066.8</ele>
        <time>2018-04-21T08:36:23.000Z</time>
      </trkpt>
      <trkpt lat="40.812709" lon="-3.867366">
        <ele>2066.8</ele>
        <time>2018-04-21T08:36:24.000Z</time>
      </trkpt>
      <trkpt lat="40.812709" lon="-3.867366">
        <ele>2066.8</ele>
        <time>2018-04-21T08:36:25.000Z</time>
      </trkpt>
      <trkpt lat="40.812709" lon="-3.867366">
        <ele>2066.8</ele>
        <time>2018-04-21T08:36:26.000Z</time>
      </trkpt>
      <trkpt lat="40.812709" lon="-3.867367">
        <ele>2066.8</ele>
        <time>2018-04-21T08:36:27.000Z</time>
      </trkpt>
      <trkpt lat="40.812708" lon="-3.867368">
        <ele>2066.8</ele>
        <time>2018-04-21T08:36:28.000Z</time>
      </trkpt>
      <trkpt lat="40.812707" lon="-3.86737">
        <ele>2066.8</ele>
        <time>2018-04-21T08:36:29.000Z</time>
      </trkpt>
      <trkpt lat="40.812704" lon="-3.867372">
        <ele>2066.8</ele>
        <time>2018-04-21T08:36:30.000Z</time>
      </trkpt>
      <trkpt lat="40.8127" lon="-3.867376">
        <ele>2066.9</ele>
        <time>2018-04-21T08:36:31.000Z</time>
      </trkpt>
      <trkpt lat="40.812696" lon="-3.867381">
        <ele>2066.9</ele>
        <time>2018-04-21T08:36:32.000Z</time>
      </trkpt>
      <trkpt lat="40.812692" lon="-3.867387">
        <ele>2067.0</ele>
        <time>2018-04-21T08:36:33.000Z</time>
      </trkpt>
      <trkpt lat="40.812688" lon="-3.867396">
        <ele>2067.1</ele>
        <time>2018-04-21T08:36:34.000Z</time>
      </trkpt>
      <trkpt lat="40.812687" lon="-3.867406">
        <ele>2067.1</ele>
        <time>2018-04-21T08:36:35.000Z</time>
      </trkpt>
      <trkpt lat="40.812686" lon="-3.867418">
        <ele>2067.1</ele>
        <time>2018-04-21T08:36:36.000Z</time>
      </trkpt>
      <trkpt lat="40.812687" lon="-3.86743">
        <ele>2067.0</ele>
        <time>2018-04-21T08:36:37.000Z</time>
      </trkpt>
      <trkpt lat="40.812688" lon="-3.867442">
        <ele>2067.0</ele>
        <time>2018-04-21T08:36:38.000Z</time>
      </trkpt>
      <trkpt lat="40.812689" lon="-3.867452">
        <ele>2067.0</ele>
        <time>2018-04-21T08:36:39.000Z</time>
      </trkpt>
      <trkpt lat="40.812691" lon="-3.867461">
        <ele>2066.9</ele>
        <time>2018-04-21T08:36:40.000Z</time>
      </trkpt>
      <trkpt lat="40.812692" lon="-3.867468">
        <ele>2066.9</ele>
        <time>2018-04-21T08:36:41.000Z</time>
      </trkpt>
      <trkpt lat="40.812693" lon="-3.867473">
        <ele>2066.9</ele>
        <time>2018-04-21T08:36:42.000Z</time>
      </trkpt>
      <trkpt lat="40.812694" lon="-3.867475">
        <ele>2066.8</ele>
        <time>2018-04-21T08:36:43.000Z</time>
      </trkpt>
      <trkpt lat="40.812695" lon="-3.867476">
        <ele>2066.8</ele>
        <time>2018-04-21T08:36:44.000Z</time>
      </trkpt>
      <trkpt lat="40.812695" lon="-3.867475">
        <ele>2066.8</ele>
        <time>2018-04-21T08:36:45.000Z</time>
      </trkpt>
      <trkpt lat="40.812695" lon="-3.867474">
        <ele>2066.8</ele>
        <time>2018-04-21T08:36:46.000Z</time>
      </trkpt>
      <trkpt lat="40.812695" lon="-3.867474">
        <ele>2066.8</ele>
        <time>2018-04-21T08:36:47.000Z</time>
      </trkpt>
      <trkpt lat="40.812694" lon="-3.867475">
        <ele>2066.8</ele>
        <time>2018-04-21T08:36:48.000Z</time>
      </trkpt>
      <trkpt lat="40.812692" lon="-3.867478">
        <ele>2066.9</ele>
        <time>2018-04-21T08:36:49.000Z</time>
      </trkpt>
      <trkpt lat="40.812689" lon="-3.867483">
        <ele>2066.9</ele>
        <time>2018-04-21T08:36:50.000Z</time>
      </trkpt>
      <trkpt lat="40.812686" lon="-3.867489">
        <ele>2067.0</ele>
        <time>2018-04-21T08:36:51.000Z</time>
      </trkpt>
      <trkpt lat="40.812681" lon="-3.867494">
        <ele>2067.1</ele>
        <time>2018-04-21T08:36:52.000Z</time>
      </trkpt>
      <trkpt lat="40.812675" lon="-3.867498">
        <ele>2067.2</ele>
        <time>2018-04-21T08:36:53.000Z</time>
      </trkpt>
      <trkpt lat="40.812668" lon="-3.8675">
        <ele>2067.4</ele>
        <time>2018-04-21T08:36:54.000Z</time>
      </trkpt>
      <trkpt lat="40.812661" lon="-3.8675">
        <ele>2067.5</ele>
        <time>2018-04-21T08:36:55.000Z</time>
      </trkpt>
      <trkpt lat="40.812654" lon="-3.867499">
        <ele>2067.7</ele>
        <time>2018-04-21T08:36:56.000Z</time>
      </trkpt>
      <trkpt lat="40.812647" lon="-3.867498">
        <ele>2067.8</ele>
        <time>2018-04-21T08:36:57.000Z</time>
      </trkpt>
      <trkpt lat="40.812642" lon="-3.867496">
        <ele>2067.9</ele>
        <time>2018-04-21T08:36:58.000Z</time>
      </trkpt>
      <trkpt lat="40.812639" lon="-3.867495">
        <ele>2068.0</ele>
        <time>2018-04-21T08:36:59.000Z</time>
      </trkpt>
      <trkpt lat="40.812638" lon="-3.867494">
        <ele>2068.0</ele>
        <time>2018-04-21T08:37:00.000Z</time>
      </trkpt>
      <trkpt lat="40.812638" lon="-3.867494">
        <ele>2068.0</ele>
        <time>2018-04-21T08:37:01.000Z</time>
      </trkpt>
      <trkpt lat="40.812638" lon="-3.867493">
        <ele>2068.0</ele>
        <time>2018-04-21T08:37:02.000Z</time>
      </trkpt>
      <trkpt lat="40.812638" lon="-3.867493">
        <ele>2068.0</ele>
        <time>2018-04-21T08:37:03.000Z</time>
      </trkpt>
      <trkpt lat="40.812638" lon="-3.867493">
        <ele>2068.0</ele>
        <time>2018-04-21T08:37:04.000Z</time>
      </trkpt>
      <trkpt lat="40.812638" lon="-3.867493">
        <ele>2068.0</ele>
        <time>2018-04-21T08:37:05.000Z</time>
      </trkpt>
      <trkpt lat="40.812638" lon="-3.867493">
        <ele>2068.0</ele>
        <time>2018-04-21T08:37:06.000Z</time>
      </trkpt>
      <trkpt lat="40.812638" lon="-3.867493">
        <ele>2068.0</ele>
        <time>2018-04-21T08:37:07.000Z</time>
      </trkpt>
      <trkpt lat="40.812638" lon="-3.867493">
        <ele>2068.0</ele>
        <time>2018-04-21T08:37:08.000Z</time>
      </trkpt>
      <trkpt lat="40.812637" lon="-3.867493">
        <ele>2068.0</ele>
        <time>2018-04-21T08:37:09.000Z</time>
      </trkpt>
      <trkpt lat="40.812637" lon="-3.867492">
        <ele>2068.0</ele>
        <time>2018-04-21T08:37:10.000Z</time>
      </trkpt>
      <trkpt lat="40.812637" lon="-3.867492">
        <ele>2068.0</ele>
        <time>2018-04-21T08:37:11.000Z</time>
      </trkpt>
      <trkpt lat="40.812636" lon="-3.867491">
        <ele>2068.0</ele>
        <time>2018-04-21T08:41:38.000Z</time>
      </trkpt>
      <trkpt lat="40.812636" lon="-3.867489">
        <ele>2068.0</ele>
        <time>2018-04-21T08:41:39.000Z</time>
      </trkpt>
      <trkpt lat="40.812634" lon="-3.867487">
        <ele>2068.1</ele>
        <time>2018-04-21T08:41:40.000Z</time>
      </trkpt>
      <trkpt lat="40.812632" lon="-3.867483">
        <ele>2068.1</ele>
        <time>2018-04-21T08:41:41.000Z</time>
      </trkpt>
      <trkpt lat="40.812628" lon="-3.867477">
        <ele>2068.2</ele>
        <time>2018-04-21T08:41:42.000Z</time>
      </trkpt>
      <trkpt lat="40.812622" lon="-3.867468">
        <ele>2068.3</ele>
        <time>2018-04-21T08:41:43.000Z</time>
      </trkpt>
      <trkpt lat="40.812615" lon="-3.867459">
        <ele>2068.4</ele>
        <time>2018-04-21T08:41:44.000Z</time>
      </trkpt>
      <trkpt lat="40.812608" lon="-3.867449">
        <ele>2068.5</ele>
        <time>2018-04-21T08:41:45.000Z</time>
      </trkpt>
      <trkpt lat="40.8126" lon="-3.86744">
        <ele>2068.6</ele>
        <time>2018-04-21T08:41:46.000Z</time>
      </trkpt>
      <trkpt lat="40.812592" lon="-3.867433">
        <ele>2068.8</ele>
        <time>2018-04-21T08:41:47.000Z</time>
      </trkpt>
      <trkpt lat="40.812584" lon="-3.867427">
        <ele>2068.9</ele>
        <time>2018-04-21T08:41:48.000Z</time>
      </trkpt>
      <trkpt lat="40.812576" lon="-3.867424">
        <ele>2069.0</ele>
        <time>2018-04-21T08:41:49.000Z</time>
      </trkpt>
      <trkpt lat="40.812568" lon="-3.867421">
        <ele>2069.1</ele>
        <time>2018-04-21T08:41:50.000Z</time>
      </trkpt>
      <trkpt lat="40.812561" lon="-3.86742">
        <ele>2069.3</ele>
        <time>2018-04-21T08:41:51.000Z</time>
      </trkpt>
      <trkpt lat="40.812553" lon="-3.86742">
        <ele>2069.4</ele>
        <time>2018-04-21T08:41:52.000Z</time>
      </trkpt>
      <trkpt lat="40.812546" lon="-3.867421">
        <ele>2069.5</ele>
        <time>2018-04-21T08:41:53.000Z</time>
      </trkpt>
      <trkpt lat="40.812539" lon="-3.867423">
        <ele>2069.7</ele>
        <time>2018-04-21T08:41:54.000Z</time>
      </trkpt>
      <trkpt lat="40.812532" lon="-3.867425">
        <ele>2069.8</ele>
        <time>2018-04-21T08:41:55.000Z</time>
      </trkpt>
      <trkpt lat="40.812525" lon="-3.867427">
        <ele>2069.9</ele>
        <time>2018-04-21T08:41:56.000Z</time>
      </trkpt>
      <trkpt lat="40.812519" lon="-3.867429">
        <ele>2070.1</ele>
        <time>2018-04-21T08:41:57.000Z</time>
      </trkpt>
      <trkpt lat="40.812513" lon="-3.867432">
        <ele>2070.2</ele>
        <time>2018-04-21T08:41:58.000Z</time>
      </trkpt>
      <trkpt lat="40.812507" lon="-3.867435">
        <ele>2070.3</ele>
        <time>2018-04-21T08:41:59.000Z</time>
      </trkpt>
      <trkpt lat="40.812502" lon="-3.867439">
        <ele>2070.5</ele>
        <time>2018-04-21T08:42:00.000Z</time>
      </trkpt>
      <trkpt lat="40.812498" lon="-3.867443">
        <ele>2070.5</ele>
        <time>2018-04-21T08:42:01.000Z</time>
      </trkpt>
      <trkpt lat="40.812495" lon="-3.867447">
        <ele>2070.4</ele>
        <time>2018-04-21T08:42:02.000Z</time>
      </trkpt>
      <trkpt lat="40.812493" lon="-3.867452">
        <ele>2070.4</ele>
        <time>2018-04-21T08:42:03.000Z</time>
      </trkpt>
      <trkpt lat="40.812491" lon="-3.867457">
        <ele>2070.3</ele>
        <time>2018-04-21T08:42:04.000Z</time>
      </trkpt>
      <trkpt lat="40.812491" lon="-3.867463">
        <ele>2070.4</ele>
        <time>2018-04-21T08:42:05.000Z</time>
      </trkpt>
      <trkpt lat="40.812492" lon="-3.867469">
        <ele>2070.5</ele>
        <time>2018-04-21T08:42:06.000Z</time>
      </trkpt>
      <trkpt lat="40.812492" lon="-3.867476">
        <ele>2070.5</ele>
        <time>2018-04-21T08:42:07.000Z</time>
      </trkpt>
      <trkpt lat="40.812492" lon="-3.867483">
        <ele>2070.6</ele>
        <time>2018-04-21T08:42:08.000Z</time>
      </trkpt>
      <trkpt lat="40.812491" lon="-3.867491">
        <ele>2070.6</ele>
        <time>2018-04-21T08:42:09.000Z</time>
      </trkpt>
      <trkpt lat="40.812489" lon="-3.867499">
        <ele>2070.6</ele>
        <time>2018-04-21T08:42:10.000Z</time>
      </trkpt>
      <trkpt lat="40.812485" lon="-3.867507">
        <ele>2070.3</ele>
        <time>2018-04-21T08:42:11.000Z</time>
      </trkpt>
      <trkpt lat="40.81248" lon="-3.867515">
        <ele>2070.0</ele>
        <time>2018-04-21T08:42:12.000Z</time>
      </trkpt>
      <trkpt lat="40.812473" lon="-3.86752">
        <ele>2069.6</ele>
        <time>2018-04-21T08:42:13.000Z</time>
      </trkpt>
      <trkpt lat="40.812466" lon="-3.867524">
        <ele>2069.3</ele>
        <time>2018-04-21T08:42:14.000Z</time>
      </trkpt>
      <trkpt lat="40.812459" lon="-3.867527">
        <ele>2069.0</ele>
        <time>2018-04-21T08:42:15.000Z</time>
      </trkpt>
      <trkpt lat="40.81245" lon="-3.867527">
        <ele>2068.7</ele>
        <time>2018-04-21T08:42:16.000Z</time>
      </trkpt>
      <trkpt lat="40.812442" lon="-3.867528">
        <ele>2068.5</ele>
        <time>2018-04-21T08:42:17.000Z</time>
      </trkpt>
      <trkpt lat="40.812434" lon="-3.867528">
        <ele>2068.2</ele>
        <time>2018-04-21T08:42:18.000Z</time>
      </trkpt>
      <trkpt lat="40.812425" lon="-3.867528">
        <ele>2067.9</ele>
        <time>2018-04-21T08:42:19.000Z</time>
      </trkpt>
      <trkpt lat="40.812418" lon="-3.867528">
        <ele>2067.7</ele>
        <time>2018-04-21T08:42:20.000Z</time>
      </trkpt>
      <trkpt lat="40.812412" lon="-3.867528">
        <ele>2067.5</ele>
        <time>2018-04-21T08:42:21.000Z</time>
      </trkpt>
      <trkpt lat="40.812408" lon="-3.867528">
        <ele>2067.4</ele>
        <time>2018-04-21T08:42:22.000Z</time>
      </trkpt>
      <trkpt lat="40.812405" lon="-3.867528">
        <ele>2067.3</ele>
        <time>2018-04-21T08:42:23.000Z</time>
      </trkpt>
      <trkpt lat="40.812405" lon="-3.867529">
        <ele>2067.2</ele>
        <time>2018-04-21T08:42:24.000Z</time>
      </trkpt>
      <trkpt lat="40.812405" lon="-3.867529">
        <ele>2067.2</ele>
        <time>2018-04-21T08:42:25.000Z</time>
      </trkpt>
      <trkpt lat="40.812405" lon="-3.86753">
        <ele>2067.2</ele>
        <time>2018-04-21T08:42:26.000Z</time>
      </trkpt>
      <trkpt lat="40.812404" lon="-3.867532">
        <ele>2067.1</ele>
        <time>2018-04-21T08:42:27.000Z</time>
      </trkpt>
      <trkpt lat="40.812401" lon="-3.867534">
        <ele>2067.0</ele>
        <time>2018-04-21T08:42:28.000Z</time>
      </trkpt>
      <trkpt lat="40.812397" lon="-3.867537">
        <ele>2066.8</ele>
        <time>2018-04-21T08:42:29.000Z</time>
      </trkpt>
      <trkpt lat="40.812391" lon="-3.867539">
        <ele>2066.6</ele>
        <time>2018-04-21T08:42:30.000Z</time>
      </trkpt>
      <trkpt lat="40.812384" lon="-3.86754">
        <ele>2066.4</ele>
        <time>2018-04-21T08:42:31.000Z</time>
      </trkpt>
      <trkpt lat="40.812376" lon="-3.867539">
        <ele>2066.1</ele>
        <time>2018-04-21T08:42:32.000Z</time>
      </trkpt>
      <trkpt lat="40.812368" lon="-3.867538">
        <ele>2065.9</ele>
        <time>2018-04-21T08:42:33.000Z</time>
      </trkpt>
      <trkpt lat="40.812361" lon="-3.867539">
        <ele>2065.6</ele>
        <time>2018-04-21T08:42:34.000Z</time>
      </trkpt>
      <trkpt lat="40.812355" lon="-3.867545">
        <ele>2065.3</ele>
        <time>2018-04-21T08:42:35.000Z</time>
      </trkpt>
      <trkpt lat="40.812351" lon="-3.867551">
        <ele>2065.1</ele>
        <time>2018-04-21T08:42:36.000Z</time>
      </trkpt>
      <trkpt lat="40.812347" lon="-3.867556">
        <ele>2064.9</ele>
        <time>2018-04-21T08:42:37.000Z</time>
      </trkpt>
      <trkpt lat="40.812345" lon="-3.86756">
        <ele>2064.8</ele>
        <time>2018-04-21T08:42:38.000Z</time>
      </trkpt>
      <trkpt lat="40.812343" lon="-3.867563">
        <ele>2064.7</ele>
        <time>2018-04-21T08:42:39.000Z</time>
      </trkpt>
      <trkpt lat="40.812341" lon="-3.867566">
        <ele>2064.6</ele>
        <time>2018-04-21T08:42:40.000Z</time>
      </trkpt>
      <trkpt lat="40.81234" lon="-3.867571">
        <ele>2064.4</ele>
        <time>2018-04-21T08:42:41.000Z</time>
      </trkpt>
      <trkpt lat="40.812339" lon="-3.867576">
        <ele>2064.3</ele>
        <time>2018-04-21T08:42:42.000Z</time>
      </trkpt>
      <trkpt lat="40.812337" lon="-3.867582">
        <ele>2064.2</ele>
        <time>2018-04-21T08:42:43.000Z</time>
      </trkpt>
      <trkpt lat="40.812333" lon="-3.867587">
        <ele>2064.0</ele>
        <time>2018-04-21T08:42:44.000Z</time>
      </trkpt>
      <trkpt lat="40.812327" lon="-3.867591">
        <ele>2063.7</ele>
        <time>2018-04-21T08:42:45.000Z</time>
      </trkpt>
      <trkpt lat="40.812318" lon="-3.867594">
        <ele>2063.4</ele>
        <time>2018-04-21T08:42:46.000Z</time>
      </trkpt>
      <trkpt lat="40.812308" lon="-3.867597">
        <ele>2063.1</ele>
        <time>2018-04-21T08:42:47.000Z</time>
      </trkpt>
      <trkpt lat="40.812298" lon="-3.8676">
        <ele>2062.7</ele>
        <time>2018-04-21T08:42:48.000Z</time>
      </trkpt>
      <trkpt lat="40.81229" lon="-3.867604">
        <ele>2062.5</ele>
        <time>2018-04-21T08:42:49.000Z</time>
      </trkpt>
      <trkpt lat="40.812284" lon="-3.86761">
        <ele>2062.2</ele>
        <time>2018-04-21T08:42:50.000Z</time>
      </trkpt>
      <trkpt lat="40.81228" lon="-3.867618">
        <ele>2062.0</ele>
        <time>2018-04-21T08:42:51.000Z</time>
      </trkpt>
      <trkpt lat="40.812278" lon="-3.867628">
        <ele>2061.8</ele>
        <time>2018-04-21T08:42:52.000Z</time>
      </trkpt>
      <trkpt lat="40.812278" lon="-3.867639">
        <ele>2061.6</ele>
        <time>2018-04-21T08:42:53.000Z</time>
      </trkpt>
      <trkpt lat="40.812279" lon="-3.86765">
        <ele>2061.5</ele>
        <time>2018-04-21T08:42:54.000Z</time>
      </trkpt>
      <trkpt lat="40.812281" lon="-3.867663">
        <ele>2061.4</ele>
        <time>2018-04-21T08:42:55.000Z</time>
      </trkpt>
      <trkpt lat="40.812283" lon="-3.867675">
        <ele>2061.3</ele>
        <time>2018-04-21T08:42:56.000Z</time>
      </trkpt>
      <trkpt lat="40.812285" lon="-3.867687">
        <ele>2061.1</ele>
        <time>2018-04-21T08:42:57.000Z</time>
      </trkpt>
      <trkpt lat="40.812286" lon="-3.867699">
        <ele>2061.0</ele>
        <time>2018-04-21T08:42:58.000Z</time>
      </trkpt>
      <trkpt lat="40.812287" lon="-3.86771">
        <ele>2060.9</ele>
        <time>2018-04-21T08:42:59.000Z</time>
      </trkpt>
      <trkpt lat="40.812287" lon="-3.867721">
        <ele>2060.7</ele>
        <time>2018-04-21T08:43:00.000Z</time>
      </trkpt>
      <trkpt lat="40.812287" lon="-3.867731">
        <ele>2060.6</ele>
        <time>2018-04-21T08:43:01.000Z</time>
      </trkpt>
      <trkpt lat="40.812286" lon="-3.86774">
        <ele>2060.4</ele>
        <time>2018-04-21T08:43:02.000Z</time>
      </trkpt>
      <trkpt lat="40.812285" lon="-3.867748">
        <ele>2060.3</ele>
        <time>2018-04-21T08:43:03.000Z</time>
      </trkpt>
      <trkpt lat="40.812285" lon="-3.867756">
        <ele>2060.2</ele>
        <time>2018-04-21T08:43:04.000Z</time>
      </trkpt>
      <trkpt lat="40.812284" lon="-3.867764">
        <ele>2060.0</ele>
        <time>2018-04-21T08:43:05.000Z</time>
      </trkpt>
      <trkpt lat="40.812283" lon="-3.867771">
        <ele>2059.9</ele>
        <time>2018-04-21T08:43:06.000Z</time>
      </trkpt>
      <trkpt lat="40.812284" lon="-3.867777">
        <ele>2059.9</ele>
        <time>2018-04-21T08:43:07.000Z</time>
      </trkpt>
      <trkpt lat="40.812284" lon="-3.867783">
        <ele>2059.8</ele>
        <time>2018-04-21T08:43:08.000Z</time>
      </trkpt>
      <trkpt lat="40.812286" lon="-3.867789">
        <ele>2059.7</ele>
        <time>2018-04-21T08:43:09.000Z</time>
      </trkpt>
      <trkpt lat="40.812287" lon="-3.867795">
        <ele>2059.7</ele>
        <time>2018-04-21T08:43:10.000Z</time>
      </trkpt>
      <trkpt lat="40.812289" lon="-3.8678">
        <ele>2059.6</ele>
        <time>2018-04-21T08:43:11.000Z</time>
      </trkpt>
      <trkpt lat="40.812291" lon="-3.867805">
        <ele>2059.6</ele>
        <time>2018-04-21T08:43:12.000Z</time>
      </trkpt>
      <trkpt lat="40.812293" lon="-3.867809">
        <ele>2059.6</ele>
        <time>2018-04-21T08:43:13.000Z</time>
      </trkpt>
      <trkpt lat="40.812294" lon="-3.867813">
        <ele>2059.5</ele>
        <time>2018-04-21T08:43:14.000Z</time>
      </trkpt>
      <trkpt lat="40.812295" lon="-3.867817">
        <ele>2059.5</ele>
        <time>2018-04-21T08:43:15.000Z</time>
      </trkpt>
      <trkpt lat="40.812295" lon="-3.867821">
        <ele>2059.4</ele>
        <time>2018-04-21T08:43:16.000Z</time>
      </trkpt>
      <trkpt lat="40.812295" lon="-3.867824">
        <ele>2059.4</ele>
        <time>2018-04-21T08:43:17.000Z</time>
      </trkpt>
      <trkpt lat="40.812293" lon="-3.867827">
        <ele>2059.3</ele>
        <time>2018-04-21T08:43:18.000Z</time>
      </trkpt>
      <trkpt lat="40.812291" lon="-3.867831">
        <ele>2059.2</ele>
        <time>2018-04-21T08:43:19.000Z</time>
      </trkpt>
      <trkpt lat="40.812289" lon="-3.867835">
        <ele>2059.1</ele>
        <time>2018-04-21T08:43:20.000Z</time>
      </trkpt>
      <trkpt lat="40.812285" lon="-3.867841">
        <ele>2059.0</ele>
        <time>2018-04-21T08:43:21.000Z</time>
      </trkpt>
      <trkpt lat="40.81228" lon="-3.867849">
        <ele>2058.8</ele>
        <time>2018-04-21T08:43:22.000Z</time>
      </trkpt>
      <trkpt lat="40.812276" lon="-3.867857">
        <ele>2058.6</ele>
        <time>2018-04-21T08:43:23.000Z</time>
      </trkpt>
      <trkpt lat="40.812271" lon="-3.867866">
        <ele>2058.4</ele>
        <time>2018-04-21T08:43:24.000Z</time>
      </trkpt>
      <trkpt lat="40.812268" lon="-3.867873">
        <ele>2058.2</ele>
        <time>2018-04-21T08:43:25.000Z</time>
      </trkpt>
      <trkpt lat="40.812265" lon="-3.867878">
        <ele>2058.1</ele>
        <time>2018-04-21T08:43:26.000Z</time>
      </trkpt>
      <trkpt lat="40.812263" lon="-3.867882">
        <ele>2058.0</ele>
        <time>2018-04-21T08:43:27.000Z</time>
      </trkpt>
      <trkpt lat="40.812262" lon="-3.867884">
        <ele>2058.0</ele>
        <time>2018-04-21T08:43:28.000Z</time>
      </trkpt>
      <trkpt lat="40.812262" lon="-3.867885">
        <ele>2058.0</ele>
        <time>2018-04-21T08:43:29.000Z</time>
      </trkpt>
      <trkpt lat="40.812262" lon="-3.867886">
        <ele>2058.0</ele>
        <time>2018-04-21T08:43:30.000Z</time>
      </trkpt>
      <trkpt lat="40.812262" lon="-3.867886">
        <ele>2058.0</ele>
        <time>2018-04-21T08:43:31.000Z</time>
      </trkpt>
      <trkpt lat="40.812263" lon="-3.867885">
        <ele>2058.0</ele>
        <time>2018-04-21T08:43:32.000Z</time>
      </trkpt>
      <trkpt lat="40.812263" lon="-3.867885">
        <ele>2058.0</ele>
        <time>2018-04-21T08:43:33.000Z</time>
      </trkpt>
      <trkpt lat="40.812263" lon="-3.867886">
        <ele>2058.0</ele>
        <time>2018-04-21T08:43:34.000Z</time>
      </trkpt>
      <trkpt lat="40.812263" lon="-3.867887">
        <ele>2058.0</ele>
        <time>2018-04-21T08:43:35.000Z</time>
      </trkpt>
      <trkpt lat="40.812263" lon="-3.867889">
        <ele>2057.9</ele>
        <time>2018-04-21T08:43:36.000Z</time>
      </trkpt>
      <trkpt lat="40.812262" lon="-3.867892">
        <ele>2057.9</ele>
        <time>2018-04-21T08:43:37.000Z</time>
      </trkpt>
      <trkpt lat="40.812261" lon="-3.867894">
        <ele>2057.9</ele>
        <time>2018-04-21T08:43:38.000Z</time>
      </trkpt>
      <trkpt lat="40.812259" lon="-3.867898">
        <ele>2057.8</ele>
        <time>2018-04-21T08:43:39.000Z</time>
      </trkpt>
      <trkpt lat="40.812258" lon="-3.867901">
        <ele>2057.7</ele>
        <time>2018-04-21T08:43:40.000Z</time>
      </trkpt>
      <trkpt lat="40.812256" lon="-3.867905">
        <ele>2057.6</ele>
        <time>2018-04-21T08:43:41.000Z</time>
      </trkpt>
      <trkpt lat="40.812253" lon="-3.867908">
        <ele>2057.6</ele>
        <time>2018-04-21T08:43:42.000Z</time>
      </trkpt>
      <trkpt lat="40.812251" lon="-3.867911">
        <ele>2057.5</ele>
        <time>2018-04-21T08:43:43.000Z</time>
      </trkpt>
      <trkpt lat="40.812248" lon="-3.867915">
        <ele>2057.4</ele>
        <time>2018-04-21T08:43:44.000Z</time>
      </trkpt>
      <trkpt lat="40.812246" lon="-3.867917">
        <ele>2057.3</ele>
        <time>2018-04-21T08:43:45.000Z</time>
      </trkpt>
      <trkpt lat="40.812243" lon="-3.86792">
        <ele>2057.3</ele>
        <time>2018-04-21T08:43:46.000Z</time>
      </trkpt>
      <trkpt lat="40.81224" lon="-3.867923">
        <ele>2057.2</ele>
        <time>2018-04-21T08:43:47.000Z</time>
      </trkpt>
      <trkpt lat="40.812238" lon="-3.867925">
        <ele>2057.1</ele>
        <time>2018-04-21T08:43:48.000Z</time>
      </trkpt>
      <trkpt lat="40.812235" lon="-3.867928">
        <ele>2057.1</ele>
        <time>2018-04-21T08:43:49.000Z</time>
      </trkpt>
      <trkpt lat="40.812233" lon="-3.86793">
        <ele>2057.0</ele>
        <time>2018-04-21T08:43:50.000Z</time>
      </trkpt>
      <trkpt lat="40.812231" lon="-3.867933">
        <ele>2056.9</ele>
        <time>2018-04-21T08:43:51.000Z</time>
      </trkpt>
      <trkpt lat="40.81223" lon="-3.867936">
        <ele>2056.9</ele>
        <time>2018-04-21T08:43:52.000Z</time>
      </trkpt>
      <trkpt lat="40.812228" lon="-3.867939">
        <ele>2056.8</ele>
        <time>2018-04-21T08:43:53.000Z</time>
      </trkpt>
      <trkpt lat="40.812227" lon="-3.867943">
        <ele>2056.8</ele>
        <time>2018-04-21T08:43:54.000Z</time>
      </trkpt>
      <trkpt lat="40.812227" lon="-3.867946">
        <ele>2056.7</ele>
        <time>2018-04-21T08:43:55.000Z</time>
      </trkpt>
      <trkpt lat="40.812227" lon="-3.867949">
        <ele>2056.7</ele>
        <time>2018-04-21T08:43:56.000Z</time>
      </trkpt>
      <trkpt lat="40.812227" lon="-3.867953">
        <ele>2056.7</ele>
        <time>2018-04-21T08:43:57.000Z</time>
      </trkpt>
      <trkpt lat="40.812227" lon="-3.867956">
        <ele>2056.6</ele>
        <time>2018-04-21T08:43:58.000Z</time>
      </trkpt>
      <trkpt lat="40.812227" lon="-3.867959">
        <ele>2056.6</ele>
        <time>2018-04-21T08:43:59.000Z</time>
      </trkpt>
      <trkpt lat="40.812228" lon="-3.867961">
        <ele>2056.6</ele>
        <time>2018-04-21T08:44:00.000Z</time>
      </trkpt>
      <trkpt lat="40.812228" lon="-3.867963">
        <ele>2056.6</ele>
        <time>2018-04-21T08:44:01.000Z</time>
      </trkpt>
      <trkpt lat="40.812229" lon="-3.867964">
        <ele>2056.6</ele>
        <time>2018-04-21T08:44:02.000Z</time>
      </trkpt>
      <trkpt lat="40.81223" lon="-3.867965">
        <ele>2056.6</ele>
        <time>2018-04-21T08:44:03.000Z</time>
      </trkpt>
      <trkpt lat="40.81223" lon="-3.867965">
        <ele>2056.6</ele>
        <time>2018-04-21T08:44:04.000Z</time>
      </trkpt>
      <trkpt lat="40.812231" lon="-3.867966">
        <ele>2056.6</ele>
        <time>2018-04-21T08:44:05.000Z</time>
      </trkpt>
      <trkpt lat="40.812231" lon="-3.867966">
        <ele>2056.6</ele>
        <time>2018-04-21T08:44:06.000Z</time>
      </trkpt>
      <trkpt lat="40.812231" lon="-3.867966">
        <ele>2056.6</ele>
        <time>2018-04-21T08:44:07.000Z</time>
      </trkpt>
      <trkpt lat="40.812231" lon="-3.867966">
        <ele>2056.6</ele>
        <time>2018-04-21T08:44:08.000Z</time>
      </trkpt>
      <trkpt lat="40.812231" lon="-3.867966">
        <ele>2056.6</ele>
        <time>2018-04-21T08:44:09.000Z</time>
      </trkpt>
      <trkpt lat="40.812231" lon="-3.867966">
        <ele>2056.6</ele>
        <time>2018-04-21T08:44:10.000Z</time>
      </trkpt>
      <trkpt lat="40.812231" lon="-3.867966">
        <ele>2056.6</ele>
        <time>2018-04-21T08:44:11.000Z</time>
      </trkpt>
      <trkpt lat="40.812231" lon="-3.867966">
        <ele>2056.6</ele>
        <time>2018-04-21T08:44:12.000Z</time>
      </trkpt>
      <trkpt lat="40.812231" lon="-3.867966">
        <ele>2056.6</ele>
        <time>2018-04-21T08:44:13.000Z</time>
      </trkpt>
      <trkpt lat="40.812231" lon="-3.867967">
        <ele>2056.5</ele>
        <time>2018-04-21T08:44:14.000Z</time>
      </trkpt>
      <trkpt lat="40.812231" lon="-3.867967">
        <ele>2056.5</ele>
        <time>2018-04-21T08:44:15.000Z</time>
      </trkpt>
      <trkpt lat="40.812231" lon="-3.867967">
        <ele>2056.5</ele>
        <time>2018-04-21T08:44:16.000Z</time>
      </trkpt>
      <trkpt lat="40.812231" lon="-3.867967">
        <ele>2056.5</ele>
        <time>2018-04-21T08:44:17.000Z</time>
      </trkpt>
      <trkpt lat="40.812231" lon="-3.867967">
        <ele>2056.5</ele>
        <time>2018-04-21T08:44:18.000Z</time>
      </trkpt>
      <trkpt lat="40.812231" lon="-3.867967">
        <ele>2056.5</ele>
        <time>2018-04-21T08:44:19.000Z</time>
      </trkpt>
      <trkpt lat="40.812231" lon="-3.867967">
        <ele>2056.5</ele>
        <time>2018-04-21T08:44:20.000Z</time>
      </trkpt>
      <trkpt lat="40.812231" lon="-3.867967">
        <ele>2056.5</ele>
        <time>2018-04-21T08:44:21.000Z</time>
      </trkpt>
      <trkpt lat="40.812231" lon="-3.867967">
        <ele>2056.5</ele>
        <time>2018-04-21T08:44:22.000Z</time>
      </trkpt>
      <trkpt lat="40.812231" lon="-3.867967">
        <ele>2056.5</ele>
        <time>2018-04-21T08:44:23.000Z</time>
      </trkpt>
      <trkpt lat="40.812231" lon="-3.867967">
        <ele>2056.5</ele>
        <time>2018-04-21T08:44:24.000Z</time>
      </trkpt>
      <trkpt lat="40.812231" lon="-3.867967">
        <ele>2056.5</ele>
        <time>2018-04-21T08:44:25.000Z</time>
      </trkpt>
      <trkpt lat="40.812231" lon="-3.867967">
        <ele>2056.5</ele>
        <time>2018-04-21T08:44:26.000Z</time>
      </trkpt>
      <trkpt lat="40.812231" lon="-3.867967">
        <ele>2056.5</ele>
        <time>2018-04-21T08:44:27.000Z</time>
      </trkpt>
      <trkpt lat="40.812231" lon="-3.867967">
        <ele>2056.5</ele>
        <time>2018-04-21T08:44:28.000Z</time>
      </trkpt>
      <trkpt lat="40.812231" lon="-3.867967">
        <ele>2056.5</ele>
        <time>2018-04-21T08:44:29.000Z</time>
      </trkpt>
      <trkpt lat="40.812231" lon="-3.867968">
        <ele>2056.5</ele>
        <time>2018-04-21T08:44:30.000Z</time>
      </trkpt>
      <trkpt lat="40.812231" lon="-3.867968">
        <ele>2056.5</ele>
        <time>2018-04-21T08:44:31.000Z</time>
      </trkpt>
      <trkpt lat="40.812231" lon="-3.86797">
        <ele>2056.5</ele>
        <time>2018-04-21T08:44:32.000Z</time>
      </trkpt>
      <trkpt lat="40.812232" lon="-3.867973">
        <ele>2056.5</ele>
        <time>2018-04-21T08:44:33.000Z</time>
      </trkpt>
      <trkpt lat="40.812233" lon="-3.867976">
        <ele>2056.5</ele>
        <time>2018-04-21T08:44:34.000Z</time>
      </trkpt>
      <trkpt lat="40.812234" lon="-3.867982">
        <ele>2056.4</ele>
        <time>2018-04-21T08:44:35.000Z</time>
      </trkpt>
      <trkpt lat="40.812234" lon="-3.867988">
        <ele>2056.3</ele>
        <time>2018-04-21T08:44:36.000Z</time>
      </trkpt>
      <trkpt lat="40.812234" lon="-3.867996">
        <ele>2056.2</ele>
        <time>2018-04-21T08:44:37.000Z</time>
      </trkpt>
      <trkpt lat="40.812233" lon="-3.868004">
        <ele>2056.1</ele>
        <time>2018-04-21T08:44:38.000Z</time>
      </trkpt>
      <trkpt lat="40.812231" lon="-3.868014">
        <ele>2056.0</ele>
        <time>2018-04-21T08:44:39.000Z</time>
      </trkpt>
      <trkpt lat="40.812229" lon="-3.868023">
        <ele>2055.9</ele>
        <time>2018-04-21T08:44:40.000Z</time>
      </trkpt>
      <trkpt lat="40.812226" lon="-3.868033">
        <ele>2055.7</ele>
        <time>2018-04-21T08:44:41.000Z</time>
      </trkpt>
      <trkpt lat="40.812223" lon="-3.868043">
        <ele>2055.6</ele>
        <time>2018-04-21T08:44:42.000Z</time>
      </trkpt>
      <trkpt lat="40.81222" lon="-3.868052">
        <ele>2055.5</ele>
        <time>2018-04-21T08:44:43.000Z</time>
      </trkpt>
      <trkpt lat="40.812217" lon="-3.86806">
        <ele>2055.4</ele>
        <time>2018-04-21T08:44:44.000Z</time>
      </trkpt>
      <trkpt lat="40.812215" lon="-3.868067">
        <ele>2055.3</ele>
        <time>2018-04-21T08:44:45.000Z</time>
      </trkpt>
      <trkpt lat="40.812214" lon="-3.868072">
        <ele>2055.2</ele>
        <time>2018-04-21T08:44:46.000Z</time>
      </trkpt>
      <trkpt lat="40.812214" lon="-3.868075">
        <ele>2055.2</ele>
        <time>2018-04-21T08:44:47.000Z</time>
      </trkpt>
      <trkpt lat="40.812214" lon="-3.868076">
        <ele>2055.2</ele>
        <time>2018-04-21T08:44:48.000Z</time>
      </trkpt>
      <trkpt lat="40.812214" lon="-3.868077">
        <ele>2055.1</ele>
        <time>2018-04-21T08:44:49.000Z</time>
      </trkpt>
      <trkpt lat="40.812214" lon="-3.868077">
        <ele>2055.1</ele>
        <time>2018-04-21T08:44:50.000Z</time>
      </trkpt>
      <trkpt lat="40.812213" lon="-3.868077">
        <ele>2055.1</ele>
        <time>2018-04-21T08:44:51.000Z</time>
      </trkpt>
      <trkpt lat="40.812212" lon="-3.868078">
        <ele>2055.1</ele>
        <time>2018-04-21T08:44:52.000Z</time>
      </trkpt>
      <trkpt lat="40.812209" lon="-3.868079">
        <ele>2055.1</ele>
        <time>2018-04-21T08:44:53.000Z</time>
      </trkpt>
      <trkpt lat="40.812206" lon="-3.86808">
        <ele>2055.1</ele>
        <time>2018-04-21T08:44:54.000Z</time>
      </trkpt>
      <trkpt lat="40.812203" lon="-3.868081">
        <ele>2055.0</ele>
        <time>2018-04-21T08:44:55.000Z</time>
      </trkpt>
      <trkpt lat="40.812201" lon="-3.868081">
        <ele>2055.0</ele>
        <time>2018-04-21T08:44:56.000Z</time>
      </trkpt>
      <trkpt lat="40.8122" lon="-3.868082">
        <ele>2055.0</ele>
        <time>2018-04-21T08:44:57.000Z</time>
      </trkpt>
      <trkpt lat="40.812199" lon="-3.868082">
        <ele>2055.0</ele>
        <time>2018-04-21T08:44:58.000Z</time>
      </trkpt>
      <trkpt lat="40.812199" lon="-3.868083">
        <ele>2055.0</ele>
        <time>2018-04-21T08:44:59.000Z</time>
      </trkpt>
      <trkpt lat="40.812199" lon="-3.868083">
        <ele>2055.0</ele>
        <time>2018-04-21T08:45:00.000Z</time>
      </trkpt>
      <trkpt lat="40.812199" lon="-3.868083">
        <ele>2055.0</ele>
        <time>2018-04-21T08:45:01.000Z</time>
      </trkpt>
      <trkpt lat="40.812199" lon="-3.868083">
        <ele>2055.0</ele>
        <time>2018-04-21T08:45:02.000Z</time>
      </trkpt>
      <trkpt lat="40.812199" lon="-3.868083">
        <ele>2055.0</ele>
        <time>2018-04-21T08:45:03.000Z</time>
      </trkpt>
      <trkpt lat="40.812199" lon="-3.868083">
        <ele>2055.0</ele>
        <time>2018-04-21T08:45:04.000Z</time>
      </trkpt>
      <trkpt lat="40.812199" lon="-3.868083">
        <ele>2055.0</ele>
        <time>2018-04-21T08:45:05.000Z</time>
      </trkpt>
      <trkpt lat="40.812198" lon="-3.868083">
        <ele>2055.0</ele>
        <time>2018-04-21T08:45:06.000Z</time>
      </trkpt>
      <trkpt lat="40.812198" lon="-3.868083">
        <ele>2055.0</ele>
        <time>2018-04-21T08:45:07.000Z</time>
      </trkpt>
      <trkpt lat="40.812196" lon="-3.868083">
        <ele>2055.0</ele>
        <time>2018-04-21T08:45:08.000Z</time>
      </trkpt>
      <trkpt lat="40.812193" lon="-3.868083">
        <ele>2054.9</ele>
        <time>2018-04-21T08:45:09.000Z</time>
      </trkpt>
      <trkpt lat="40.812189" lon="-3.868083">
        <ele>2054.9</ele>
        <time>2018-04-21T08:45:10.000Z</time>
      </trkpt>
      <trkpt lat="40.812184" lon="-3.868084">
        <ele>2054.9</ele>
        <time>2018-04-21T08:45:11.000Z</time>
      </trkpt>
      <trkpt lat="40.812179" lon="-3.868085">
        <ele>2054.8</ele>
        <time>2018-04-21T08:45:12.000Z</time>
      </trkpt>
      <trkpt lat="40.812174" lon="-3.868088">
        <ele>2054.8</ele>
        <time>2018-04-21T08:45:13.000Z</time>
      </trkpt>
      <trkpt lat="40.812172" lon="-3.868093">
        <ele>2054.7</ele>
        <time>2018-04-21T08:45:14.000Z</time>
      </trkpt>
      <trkpt lat="40.81217" lon="-3.868099">
        <ele>2054.6</ele>
        <time>2018-04-21T08:45:15.000Z</time>
      </trkpt>
      <trkpt lat="40.81217" lon="-3.868105">
        <ele>2054.6</ele>
        <time>2018-04-21T08:45:16.000Z</time>
      </trkpt>
      <trkpt lat="40.812171" lon="-3.868113">
        <ele>2054.5</ele>
        <time>2018-04-21T08:45:17.000Z</time>
      </trkpt>
      <trkpt lat="40.812172" lon="-3.86812">
        <ele>2054.5</ele>
        <time>2018-04-21T08:45:18.000Z</time>
      </trkpt>
      <trkpt lat="40.812174" lon="-3.868128">
        <ele>2054.4</ele>
        <time>2018-04-21T08:45:19.000Z</time>
      </trkpt>
      <trkpt lat="40.812176" lon="-3.868136">
        <ele>2054.3</ele>
        <time>2018-04-21T08:45:20.000Z</time>
      </trkpt>
      <trkpt lat="40.812179" lon="-3.868143">
        <ele>2054.3</ele>
        <time>2018-04-21T08:45:21.000Z</time>
      </trkpt>
      <trkpt lat="40.812182" lon="-3.868151">
        <ele>2054.2</ele>
        <time>2018-04-21T08:45:22.000Z</time>
      </trkpt>
      <trkpt lat="40.812185" lon="-3.86816">
        <ele>2054.2</ele>
        <time>2018-04-21T08:45:23.000Z</time>
      </trkpt>
      <trkpt lat="40.812189" lon="-3.868168">
        <ele>2054.1</ele>
        <time>2018-04-21T08:45:24.000Z</time>
      </trkpt>
      <trkpt lat="40.812193" lon="-3.868176">
        <ele>2054.0</ele>
        <time>2018-04-21T08:45:25.000Z</time>
      </trkpt>
      <trkpt lat="40.812196" lon="-3.868184">
        <ele>2054.0</ele>
        <time>2018-04-21T08:45:26.000Z</time>
      </trkpt>
      <trkpt lat="40.8122" lon="-3.868191">
        <ele>2053.9</ele>
        <time>2018-04-21T08:45:27.000Z</time>
      </trkpt>
      <trkpt lat="40.812203" lon="-3.868198">
        <ele>2053.8</ele>
        <time>2018-04-21T08:45:28.000Z</time>
      </trkpt>
      <trkpt lat="40.812205" lon="-3.868203">
        <ele>2053.8</ele>
        <time>2018-04-21T08:45:29.000Z</time>
      </trkpt>
      <trkpt lat="40.812207" lon="-3.868208">
        <ele>2053.7</ele>
        <time>2018-04-21T08:45:30.000Z</time>
      </trkpt>
      <trkpt lat="40.812209" lon="-3.868212">
        <ele>2053.7</ele>
        <time>2018-04-21T08:45:31.000Z</time>
      </trkpt>
      <trkpt lat="40.812209" lon="-3.868214">
        <ele>2053.7</ele>
        <time>2018-04-21T08:45:32.000Z</time>
      </trkpt>
      <trkpt lat="40.812209" lon="-3.868216">
        <ele>2053.6</ele>
        <time>2018-04-21T08:45:33.000Z</time>
      </trkpt>
      <trkpt lat="40.812208" lon="-3.868216">
        <ele>2053.6</ele>
        <time>2018-04-21T08:45:34.000Z</time>
      </trkpt>
      <trkpt lat="40.812207" lon="-3.868215">
        <ele>2053.6</ele>
        <time>2018-04-21T08:45:35.000Z</time>
      </trkpt>
      <trkpt lat="40.812206" lon="-3.868215">
        <ele>2053.6</ele>
        <time>2018-04-21T08:45:36.000Z</time>
      </trkpt>
      <trkpt lat="40.812204" lon="-3.868213">
        <ele>2053.7</ele>
        <time>2018-04-21T08:45:37.000Z</time>
      </trkpt>
      <trkpt lat="40.812203" lon="-3.868212">
        <ele>2053.7</ele>
        <time>2018-04-21T08:45:38.000Z</time>
      </trkpt>
      <trkpt lat="40.812203" lon="-3.868211">
        <ele>2053.7</ele>
        <time>2018-04-21T08:45:39.000Z</time>
      </trkpt>
      <trkpt lat="40.812203" lon="-3.868211">
        <ele>2053.7</ele>
        <time>2018-04-21T08:45:40.000Z</time>
      </trkpt>
      <trkpt lat="40.812204" lon="-3.868211">
        <ele>2053.7</ele>
        <time>2018-04-21T08:45:41.000Z</time>
      </trkpt>
      <trkpt lat="40.812204" lon="-3.868211">
        <ele>2053.7</ele>
        <time>2018-04-21T08:45:42.000Z</time>
      </trkpt>
      <trkpt lat="40.812205" lon="-3.868211">
        <ele>2053.7</ele>
        <time>2018-04-21T08:45:43.000Z</time>
      </trkpt>
      <trkpt lat="40.812205" lon="-3.868212">
        <ele>2053.7</ele>
        <time>2018-04-21T08:45:44.000Z</time>
      </trkpt>
      <trkpt lat="40.812203" lon="-3.868211">
        <ele>2053.7</ele>
        <time>2018-04-21T08:45:45.000Z</time>
      </trkpt>
      <trkpt lat="40.812199" lon="-3.86821">
        <ele>2053.7</ele>
        <time>2018-04-21T08:45:46.000Z</time>
      </trkpt>
      <trkpt lat="40.812194" lon="-3.868208">
        <ele>2053.7</ele>
        <time>2018-04-21T08:45:47.000Z</time>
      </trkpt>
      <trkpt lat="40.812188" lon="-3.868206">
        <ele>2053.7</ele>
        <time>2018-04-21T08:45:48.000Z</time>
      </trkpt>
      <trkpt lat="40.812183" lon="-3.868204">
        <ele>2053.7</ele>
        <time>2018-04-21T08:45:49.000Z</time>
      </trkpt>
      <trkpt lat="40.812179" lon="-3.868203">
        <ele>2053.7</ele>
        <time>2018-04-21T08:45:50.000Z</time>
      </trkpt>
      <trkpt lat="40.812176" lon="-3.868203">
        <ele>2053.7</ele>
        <time>2018-04-21T08:45:51.000Z</time>
      </trkpt>
      <trkpt lat="40.812174" lon="-3.868203">
        <ele>2053.7</ele>
        <time>2018-04-21T08:45:52.000Z</time>
      </trkpt>
      <trkpt lat="40.812172" lon="-3.868203">
        <ele>2053.7</ele>
        <time>2018-04-21T08:45:53.000Z</time>
      </trkpt>
      <trkpt lat="40.812172" lon="-3.868203">
        <ele>2053.7</ele>
        <time>2018-04-21T08:45:54.000Z</time>
      </trkpt>
      <trkpt lat="40.812171" lon="-3.868203">
        <ele>2053.7</ele>
        <time>2018-04-21T08:45:55.000Z</time>
      </trkpt>
      <trkpt lat="40.812171" lon="-3.868203">
        <ele>2053.7</ele>
        <time>2018-04-21T08:45:56.000Z</time>
      </trkpt>
      <trkpt lat="40.812171" lon="-3.868203">
        <ele>2053.7</ele>
        <time>2018-04-21T08:45:57.000Z</time>
      </trkpt>
      <trkpt lat="40.812172" lon="-3.868203">
        <ele>2053.7</ele>
        <time>2018-04-21T08:45:58.000Z</time>
      </trkpt>
      <trkpt lat="40.812172" lon="-3.868203">
        <ele>2053.7</ele>
        <time>2018-04-21T08:45:59.000Z</time>
      </trkpt>
      <trkpt lat="40.812172" lon="-3.868203">
        <ele>2053.7</ele>
        <time>2018-04-21T08:46:00.000Z</time>
      </trkpt>
      <trkpt lat="40.812172" lon="-3.868203">
        <ele>2053.7</ele>
        <time>2018-04-21T08:46:01.000Z</time>
      </trkpt>
      <trkpt lat="40.812172" lon="-3.868203">
        <ele>2053.7</ele>
        <time>2018-04-21T08:46:02.000Z</time>
      </trkpt>
      <trkpt lat="40.812172" lon="-3.868203">
        <ele>2053.7</ele>
        <time>2018-04-21T08:46:03.000Z</time>
      </trkpt>
      <trkpt lat="40.812172" lon="-3.868203">
        <ele>2053.7</ele>
        <time>2018-04-21T08:46:04.000Z</time>
      </trkpt>
      <trkpt lat="40.812172" lon="-3.868203">
        <ele>2053.7</ele>
        <time>2018-04-21T08:46:05.000Z</time>
      </trkpt>
      <trkpt lat="40.812172" lon="-3.868203">
        <ele>2053.7</ele>
        <time>2018-04-21T08:46:06.000Z</time>
      </trkpt>
      <trkpt lat="40.812172" lon="-3.868203">
        <ele>2053.7</ele>
        <time>2018-04-21T08:46:07.000Z</time>
      </trkpt>
      <trkpt lat="40.812172" lon="-3.868203">
        <ele>2053.7</ele>
        <time>2018-04-21T08:46:08.000Z</time>
      </trkpt>
      <trkpt lat="40.812172" lon="-3.868203">
        <ele>2053.7</ele>
        <time>2018-04-21T08:46:09.000Z</time>
      </trkpt>
      <trkpt lat="40.812172" lon="-3.868203">
        <ele>2053.7</ele>
        <time>2018-04-21T08:46:10.000Z</time>
      </trkpt>
      <trkpt lat="40.812172" lon="-3.868203">
        <ele>2053.7</ele>
        <time>2018-04-21T08:46:11.000Z</time>
      </trkpt>
      <trkpt lat="40.812172" lon="-3.868203">
        <ele>2053.7</ele>
        <time>2018-04-21T08:46:12.000Z</time>
      </trkpt>
      <trkpt lat="40.812171" lon="-3.868204">
        <ele>2053.7</ele>
        <time>2018-04-21T08:46:13.000Z</time>
      </trkpt>
      <trkpt lat="40.81217" lon="-3.868205">
        <ele>2053.7</ele>
        <time>2018-04-21T08:46:14.000Z</time>
      </trkpt>
      <trkpt lat="40.812169" lon="-3.868206">
        <ele>2053.7</ele>
        <time>2018-04-21T08:46:15.000Z</time>
      </trkpt>
      <trkpt lat="40.812167" lon="-3.868207">
        <ele>2053.7</ele>
        <time>2018-04-21T08:46:16.000Z</time>
      </trkpt>
      <trkpt lat="40.812164" lon="-3.868209">
        <ele>2053.7</ele>
        <time>2018-04-21T08:46:17.000Z</time>
      </trkpt>
      <trkpt lat="40.812161" lon="-3.868211">
        <ele>2053.7</ele>
        <time>2018-04-21T08:46:18.000Z</time>
      </trkpt>
      <trkpt lat="40.812157" lon="-3.868214">
        <ele>2053.6</ele>
        <time>2018-04-21T08:46:19.000Z</time>
      </trkpt>
      <trkpt lat="40.812153" lon="-3.868217">
        <ele>2053.6</ele>
        <time>2018-04-21T08:46:20.000Z</time>
      </trkpt>
      <trkpt lat="40.812149" lon="-3.86822">
        <ele>2053.6</ele>
        <time>2018-04-21T08:46:21.000Z</time>
      </trkpt>
      <trkpt lat="40.812146" lon="-3.868223">
        <ele>2053.5</ele>
        <time>2018-04-21T08:46:22.000Z</time>
      </trkpt>
      <trkpt lat="40.812144" lon="-3.868226">
        <ele>2053.5</ele>
        <time>2018-04-21T08:46:23.000Z</time>
      </trkpt>
      <trkpt lat="40.812142" lon="-3.868229">
        <ele>2053.5</ele>
        <time>2018-04-21T08:46:24.000Z</time>
      </trkpt>
      <trkpt lat="40.81214" lon="-3.868231">
        <ele>2053.5</ele>
        <time>2018-04-21T08:46:25.000Z</time>
      </trkpt>
      <trkpt lat="40.812139" lon="-3.868234">
        <ele>2053.5</ele>
        <time>2018-04-21T08:46:26.000Z</time>
      </trkpt>
      <trkpt lat="40.812136" lon="-3.868236">
        <ele>2053.5</ele>
        <time>2018-04-21T08:46:27.000Z</time>
      </trkpt>
      <trkpt lat="40.812134" lon="-3.868238">
        <ele>2053.4</ele>
        <time>2018-04-21T08:46:28.000Z</time>
      </trkpt>
      <trkpt lat="40.812131" lon="-3.86824">
        <ele>2053.4</ele>
        <time>2018-04-21T08:46:29.000Z</time>
      </trkpt>
      <trkpt lat="40.812128" lon="-3.868242">
        <ele>2053.4</ele>
        <time>2018-04-21T08:46:30.000Z</time>
      </trkpt>
      <trkpt lat="40.812124" lon="-3.868243">
        <ele>2053.4</ele>
        <time>2018-04-21T08:46:31.000Z</time>
      </trkpt>
      <trkpt lat="40.812121" lon="-3.868245">
        <ele>2053.4</ele>
        <time>2018-04-21T08:46:32.000Z</time>
      </trkpt>
      <trkpt lat="40.812119" lon="-3.868247">
        <ele>2053.4</ele>
        <time>2018-04-21T08:46:33.000Z</time>
      </trkpt>
      <trkpt lat="40.812116" lon="-3.868249">
        <ele>2053.4</ele>
        <time>2018-04-21T08:46:34.000Z</time>
      </trkpt>
      <trkpt lat="40.812114" lon="-3.868252">
        <ele>2053.4</ele>
        <time>2018-04-21T08:46:35.000Z</time>
      </trkpt>
      <trkpt lat="40.812113" lon="-3.868254">
        <ele>2053.3</ele>
        <time>2018-04-21T08:46:36.000Z</time>
      </trkpt>
      <trkpt lat="40.812112" lon="-3.868258">
        <ele>2053.3</ele>
        <time>2018-04-21T08:46:37.000Z</time>
      </trkpt>
      <trkpt lat="40.812111" lon="-3.868261">
        <ele>2053.3</ele>
        <time>2018-04-21T08:46:38.000Z</time>
      </trkpt>
      <trkpt lat="40.812111" lon="-3.868264">
        <ele>2053.3</ele>
        <time>2018-04-21T08:46:39.000Z</time>
      </trkpt>
      <trkpt lat="40.812111" lon="-3.868268">
        <ele>2053.3</ele>
        <time>2018-04-21T08:46:40.000Z</time>
      </trkpt>
      <trkpt lat="40.812111" lon="-3.868271">
        <ele>2053.2</ele>
        <time>2018-04-21T08:46:41.000Z</time>
      </trkpt>
      <trkpt lat="40.812111" lon="-3.868273">
        <ele>2053.2</ele>
        <time>2018-04-21T08:46:42.000Z</time>
      </trkpt>
      <trkpt lat="40.812112" lon="-3.868276">
        <ele>2053.2</ele>
        <time>2018-04-21T08:46:43.000Z</time>
      </trkpt>
      <trkpt lat="40.812112" lon="-3.868278">
        <ele>2053.2</ele>
        <time>2018-04-21T08:46:44.000Z</time>
      </trkpt>
      <trkpt lat="40.812113" lon="-3.868279">
        <ele>2053.2</ele>
        <time>2018-04-21T08:46:45.000Z</time>
      </trkpt>
      <trkpt lat="40.812113" lon="-3.86828">
        <ele>2053.2</ele>
        <time>2018-04-21T08:46:46.000Z</time>
      </trkpt>
      <trkpt lat="40.812113" lon="-3.868281">
        <ele>2053.2</ele>
        <time>2018-04-21T08:46:47.000Z</time>
      </trkpt>
      <trkpt lat="40.812113" lon="-3.868281">
        <ele>2053.2</ele>
        <time>2018-04-21T08:46:48.000Z</time>
      </trkpt>
      <trkpt lat="40.812112" lon="-3.868282">
        <ele>2053.2</ele>
        <time>2018-04-21T08:46:49.000Z</time>
      </trkpt>
      <trkpt lat="40.812112" lon="-3.868284">
        <ele>2053.2</ele>
        <time>2018-04-21T08:46:50.000Z</time>
      </trkpt>
      <trkpt lat="40.812111" lon="-3.868286">
        <ele>2053.2</ele>
        <time>2018-04-21T08:46:51.000Z</time>
      </trkpt>
      <trkpt lat="40.81211" lon="-3.868289">
        <ele>2053.1</ele>
        <time>2018-04-21T08:46:52.000Z</time>
      </trkpt>
      <trkpt lat="40.812108" lon="-3.868293">
        <ele>2053.1</ele>
        <time>2018-04-21T08:46:53.000Z</time>
      </trkpt>
      <trkpt lat="40.812107" lon="-3.868298">
        <ele>2053.1</ele>
        <time>2018-04-21T08:46:54.000Z</time>
      </trkpt>
      <trkpt lat="40.812105" lon="-3.868304">
        <ele>2053.1</ele>
        <time>2018-04-21T08:46:55.000Z</time>
      </trkpt>
      <trkpt lat="40.812103" lon="-3.868311">
        <ele>2053.0</ele>
        <time>2018-04-21T08:46:56.000Z</time>
      </trkpt>
      <trkpt lat="40.812102" lon="-3.868317">
        <ele>2053.0</ele>
        <time>2018-04-21T08:46:57.000Z</time>
      </trkpt>
      <trkpt lat="40.812102" lon="-3.868322">
        <ele>2053.0</ele>
        <time>2018-04-21T08:46:58.000Z</time>
      </trkpt>
      <trkpt lat="40.812102" lon="-3.868327">
        <ele>2052.9</ele>
        <time>2018-04-21T08:46:59.000Z</time>
      </trkpt>
      <trkpt lat="40.812103" lon="-3.86833">
        <ele>2052.9</ele>
        <time>2018-04-21T08:47:00.000Z</time>
      </trkpt>
      <trkpt lat="40.812104" lon="-3.868333">
        <ele>2052.9</ele>
        <time>2018-04-21T08:47:01.000Z</time>
      </trkpt>
      <trkpt lat="40.812104" lon="-3.868336">
        <ele>2052.8</ele>
        <time>2018-04-21T08:47:02.000Z</time>
      </trkpt>
      <trkpt lat="40.812104" lon="-3.868339">
        <ele>2052.8</ele>
        <time>2018-04-21T08:47:03.000Z</time>
      </trkpt>
      <trkpt lat="40.812103" lon="-3.868342">
        <ele>2052.7</ele>
        <time>2018-04-21T08:47:04.000Z</time>
      </trkpt>
      <trkpt lat="40.812101" lon="-3.868345">
        <ele>2052.6</ele>
        <time>2018-04-21T08:47:05.000Z</time>
      </trkpt>
      <trkpt lat="40.812099" lon="-3.868348">
        <ele>2052.6</ele>
        <time>2018-04-21T08:47:06.000Z</time>
      </trkpt>
      <trkpt lat="40.812096" lon="-3.868351">
        <ele>2052.5</ele>
        <time>2018-04-21T08:47:07.000Z</time>
      </trkpt>
      <trkpt lat="40.812093" lon="-3.868354">
        <ele>2052.5</ele>
        <time>2018-04-21T08:47:08.000Z</time>
      </trkpt>
      <trkpt lat="40.81209" lon="-3.868357">
        <ele>2052.4</ele>
        <time>2018-04-21T08:47:09.000Z</time>
      </trkpt>
      <trkpt lat="40.812088" lon="-3.868359">
        <ele>2052.4</ele>
        <time>2018-04-21T08:47:10.000Z</time>
      </trkpt>
      <trkpt lat="40.812085" lon="-3.868362">
        <ele>2052.3</ele>
        <time>2018-04-21T08:47:11.000Z</time>
      </trkpt>
      <trkpt lat="40.812083" lon="-3.868364">
        <ele>2052.3</ele>
        <time>2018-04-21T08:47:12.000Z</time>
      </trkpt>
      <trkpt lat="40.812081" lon="-3.868366">
        <ele>2052.3</ele>
        <time>2018-04-21T08:47:13.000Z</time>
      </trkpt>
      <trkpt lat="40.81208" lon="-3.868367">
        <ele>2052.3</ele>
        <time>2018-04-21T08:47:14.000Z</time>
      </trkpt>
      <trkpt lat="40.812078" lon="-3.868369">
        <ele>2052.2</ele>
        <time>2018-04-21T08:47:15.000Z</time>
      </trkpt>
      <trkpt lat="40.812077" lon="-3.868371">
        <ele>2052.2</ele>
        <time>2018-04-21T08:47:16.000Z</time>
      </trkpt>
      <trkpt lat="40.812076" lon="-3.868373">
        <ele>2052.1</ele>
        <time>2018-04-21T08:47:17.000Z</time>
      </trkpt>
      <trkpt lat="40.812074" lon="-3.868376">
        <ele>2052.1</ele>
        <time>2018-04-21T08:47:18.000Z</time>
      </trkpt>
      <trkpt lat="40.812073" lon="-3.868379">
        <ele>2052.0</ele>
        <time>2018-04-21T08:47:19.000Z</time>
      </trkpt>
      <trkpt lat="40.812071" lon="-3.868383">
        <ele>2051.9</ele>
        <time>2018-04-21T08:47:20.000Z</time>
      </trkpt>
      <trkpt lat="40.812069" lon="-3.868387">
        <ele>2051.9</ele>
        <time>2018-04-21T08:47:21.000Z</time>
      </trkpt>
      <trkpt lat="40.812067" lon="-3.868392">
        <ele>2051.8</ele>
        <time>2018-04-21T08:47:22.000Z</time>
      </trkpt>
      <trkpt lat="40.812064" lon="-3.868397">
        <ele>2051.7</ele>
        <time>2018-04-21T08:47:23.000Z</time>
      </trkpt>
      <trkpt lat="40.812062" lon="-3.868403">
        <ele>2051.6</ele>
        <time>2018-04-21T08:47:24.000Z</time>
      </trkpt>
      <trkpt lat="40.812059" lon="-3.868409">
        <ele>2051.4</ele>
        <time>2018-04-21T08:47:25.000Z</time>
      </trkpt>
      <trkpt lat="40.812056" lon="-3.868415">
        <ele>2051.3</ele>
        <time>2018-04-21T08:47:26.000Z</time>
      </trkpt>
      <trkpt lat="40.812053" lon="-3.868421">
        <ele>2051.2</ele>
        <time>2018-04-21T08:47:27.000Z</time>
      </trkpt>
      <trkpt lat="40.81205" lon="-3.868426">
        <ele>2051.1</ele>
        <time>2018-04-21T08:47:28.000Z</time>
      </trkpt>
      <trkpt lat="40.812047" lon="-3.868431">
        <ele>2051.0</ele>
        <time>2018-04-21T08:47:29.000Z</time>
      </trkpt>
      <trkpt lat="40.812044" lon="-3.868436">
        <ele>2051.0</ele>
        <time>2018-04-21T08:47:30.000Z</time>
      </trkpt>
      <trkpt lat="40.812041" lon="-3.86844">
        <ele>2050.9</ele>
        <time>2018-04-21T08:47:31.000Z</time>
      </trkpt>
      <trkpt lat="40.812038" lon="-3.868444">
        <ele>2050.8</ele>
        <time>2018-04-21T08:47:32.000Z</time>
      </trkpt>
      <trkpt lat="40.812036" lon="-3.868447">
        <ele>2050.8</ele>
        <time>2018-04-21T08:47:33.000Z</time>
      </trkpt>
      <trkpt lat="40.812033" lon="-3.86845">
        <ele>2050.7</ele>
        <time>2018-04-21T08:47:34.000Z</time>
      </trkpt>
      <trkpt lat="40.81203" lon="-3.868452">
        <ele>2050.7</ele>
        <time>2018-04-21T08:47:35.000Z</time>
      </trkpt>
      <trkpt lat="40.812027" lon="-3.868454">
        <ele>2050.7</ele>
        <time>2018-04-21T08:47:36.000Z</time>
      </trkpt>
      <trkpt lat="40.812025" lon="-3.868456">
        <ele>2050.7</ele>
        <time>2018-04-21T08:47:37.000Z</time>
      </trkpt>
      <trkpt lat="40.812022" lon="-3.868457">
        <ele>2050.7</ele>
        <time>2018-04-21T08:47:38.000Z</time>
      </trkpt>
      <trkpt lat="40.81202" lon="-3.868458">
        <ele>2050.7</ele>
        <time>2018-04-21T08:47:39.000Z</time>
      </trkpt>
      <trkpt lat="40.812017" lon="-3.868459">
        <ele>2050.7</ele>
        <time>2018-04-21T08:47:40.000Z</time>
      </trkpt>
      <trkpt lat="40.812015" lon="-3.86846">
        <ele>2050.7</ele>
        <time>2018-04-21T08:47:41.000Z</time>
      </trkpt>
      <trkpt lat="40.812013" lon="-3.868461">
        <ele>2050.7</ele>
        <time>2018-04-21T08:47:42.000Z</time>
      </trkpt>
      <trkpt lat="40.81201" lon="-3.868461">
        <ele>2050.7</ele>
        <time>2018-04-21T08:47:43.000Z</time>
      </trkpt>
      <trkpt lat="40.812008" lon="-3.868462">
        <ele>2050.7</ele>
        <time>2018-04-21T08:47:44.000Z</time>
      </trkpt>
      <trkpt lat="40.812006" lon="-3.868462">
        <ele>2050.7</ele>
        <time>2018-04-21T08:47:45.000Z</time>
      </trkpt>
      <trkpt lat="40.812004" lon="-3.868462">
        <ele>2050.7</ele>
        <time>2018-04-21T08:47:46.000Z</time>
      </trkpt>
      <trkpt lat="40.812002" lon="-3.868463">
        <ele>2050.7</ele>
        <time>2018-04-21T08:47:47.000Z</time>
      </trkpt>
      <trkpt lat="40.812" lon="-3.868463">
        <ele>2050.7</ele>
        <time>2018-04-21T08:47:48.000Z</time>
      </trkpt>
      <trkpt lat="40.811998" lon="-3.868463">
        <ele>2050.7</ele>
        <time>2018-04-21T08:47:49.000Z</time>
      </trkpt>
      <trkpt lat="40.811996" lon="-3.868464">
        <ele>2050.7</ele>
        <time>2018-04-21T08:47:50.000Z</time>
      </trkpt>
      <trkpt lat="40.811993" lon="-3.868464">
        <ele>2050.8</ele>
        <time>2018-04-21T08:47:51.000Z</time>
      </trkpt>
      <trkpt lat="40.811991" lon="-3.868464">
        <ele>2050.8</ele>
        <time>2018-04-21T08:47:52.000Z</time>
      </trkpt>
      <trkpt lat="40.811988" lon="-3.868465">
        <ele>2050.8</ele>
        <time>2018-04-21T08:47:53.000Z</time>
      </trkpt>
      <trkpt lat="40.811985" lon="-3.868465">
        <ele>2050.8</ele>
        <time>2018-04-21T08:47:54.000Z</time>
      </trkpt>
      <trkpt lat="40.811981" lon="-3.868466">
        <ele>2050.8</ele>
        <time>2018-04-21T08:47:55.000Z</time>
      </trkpt>
      <trkpt lat="40.811977" lon="-3.868466">
        <ele>2050.9</ele>
        <time>2018-04-21T08:47:56.000Z</time>
      </trkpt>
      <trkpt lat="40.811972" lon="-3.868467">
        <ele>2050.9</ele>
        <time>2018-04-21T08:47:57.000Z</time>
      </trkpt>
      <trkpt lat="40.811967" lon="-3.868467">
        <ele>2050.9</ele>
        <time>2018-04-21T08:47:58.000Z</time>
      </trkpt>
      <trkpt lat="40.811961" lon="-3.868468">
        <ele>2050.9</ele>
        <time>2018-04-21T08:47:59.000Z</time>
      </trkpt>
      <trkpt lat="40.811955" lon="-3.868468">
        <ele>2051.0</ele>
        <time>2018-04-21T08:48:00.000Z</time>
      </trkpt>
      <trkpt lat="40.81195" lon="-3.868469">
        <ele>2051.0</ele>
        <time>2018-04-21T08:48:01.000Z</time>
      </trkpt>
      <trkpt lat="40.811944" lon="-3.86847">
        <ele>2051.0</ele>
        <time>2018-04-21T08:48:02.000Z</time>
      </trkpt>
      <trkpt lat="40.811939" lon="-3.868471">
        <ele>2051.1</ele>
        <time>2018-04-21T08:48:03.000Z</time>
      </trkpt>
      <trkpt lat="40.811935" lon="-3.868472">
        <ele>2051.1</ele>
        <time>2018-04-21T08:48:04.000Z</time>
      </trkpt>
      <trkpt lat="40.811931" lon="-3.868473">
        <ele>2051.1</ele>
        <time>2018-04-21T08:48:05.000Z</time>
      </trkpt>
      <trkpt lat="40.811928" lon="-3.868474">
        <ele>2051.1</ele>
        <time>2018-04-21T08:48:06.000Z</time>
      </trkpt>
      <trkpt lat="40.811925" lon="-3.868476">
        <ele>2051.1</ele>
        <time>2018-04-21T08:48:07.000Z</time>
      </trkpt>
      <trkpt lat="40.811924" lon="-3.868477">
        <ele>2051.1</ele>
        <time>2018-04-21T08:48:08.000Z</time>
      </trkpt>
      <trkpt lat="40.811923" lon="-3.868478">
        <ele>2051.1</ele>
        <time>2018-04-21T08:48:09.000Z</time>
      </trkpt>
      <trkpt lat="40.811922" lon="-3.868479">
        <ele>2051.1</ele>
        <time>2018-04-21T08:48:10.000Z</time>
      </trkpt>
      <trkpt lat="40.811922" lon="-3.868479">
        <ele>2051.1</ele>
        <time>2018-04-21T08:48:11.000Z</time>
      </trkpt>
      <trkpt lat="40.811921" lon="-3.868479">
        <ele>2051.1</ele>
        <time>2018-04-21T08:48:12.000Z</time>
      </trkpt>
      <trkpt lat="40.811921" lon="-3.868479">
        <ele>2051.1</ele>
        <time>2018-04-21T08:48:13.000Z</time>
      </trkpt>
      <trkpt lat="40.811922" lon="-3.868479">
        <ele>2051.1</ele>
        <time>2018-04-21T08:48:14.000Z</time>
      </trkpt>
      <trkpt lat="40.811922" lon="-3.868479">
        <ele>2051.1</ele>
        <time>2018-04-21T08:48:15.000Z</time>
      </trkpt>
      <trkpt lat="40.811922" lon="-3.868479">
        <ele>2051.1</ele>
        <time>2018-04-21T08:48:16.000Z</time>
      </trkpt>
      <trkpt lat="40.811922" lon="-3.868479">
        <ele>2051.1</ele>
        <time>2018-04-21T08:48:17.000Z</time>
      </trkpt>
      <trkpt lat="40.811922" lon="-3.868479">
        <ele>2051.1</ele>
        <time>2018-04-21T08:48:18.000Z</time>
      </trkpt>
      <trkpt lat="40.811922" lon="-3.868479">
        <ele>2051.1</ele>
        <time>2018-04-21T08:48:19.000Z</time>
      </trkpt>
      <trkpt lat="40.811922" lon="-3.868479">
        <ele>2051.1</ele>
        <time>2018-04-21T08:48:20.000Z</time>
      </trkpt>
      <trkpt lat="40.811922" lon="-3.868479">
        <ele>2051.1</ele>
        <time>2018-04-21T08:48:21.000Z</time>
      </trkpt>
      <trkpt lat="40.811922" lon="-3.868479">
        <ele>2051.1</ele>
        <time>2018-04-21T08:48:22.000Z</time>
      </trkpt>
      <trkpt lat="40.811922" lon="-3.868479">
        <ele>2051.1</ele>
        <time>2018-04-21T08:48:23.000Z</time>
      </trkpt>
      <trkpt lat="40.811922" lon="-3.868479">
        <ele>2051.1</ele>
        <time>2018-04-21T08:48:24.000Z</time>
      </trkpt>
      <trkpt lat="40.811922" lon="-3.868479">
        <ele>2051.1</ele>
        <time>2018-04-21T08:48:25.000Z</time>
      </trkpt>
      <trkpt lat="40.811922" lon="-3.868479">
        <ele>2051.1</ele>
        <time>2018-04-21T08:48:26.000Z</time>
      </trkpt>
      <trkpt lat="40.811922" lon="-3.868479">
        <ele>2051.1</ele>
        <time>2018-04-21T08:48:27.000Z</time>
      </trkpt>
      <trkpt lat="40.811922" lon="-3.868479">
        <ele>2051.1</ele>
        <time>2018-04-21T08:48:28.000Z</time>
      </trkpt>
      <trkpt lat="40.811922" lon="-3.868479">
        <ele>2051.1</ele>
        <time>2018-04-21T08:48:29.000Z</time>
      </trkpt>
      <trkpt lat="40.811922" lon="-3.868479">
        <ele>2051.1</ele>
        <time>2018-04-21T08:48:30.000Z</time>
      </trkpt>
      <trkpt lat="40.811922" lon="-3.868479">
        <ele>2051.1</ele>
        <time>2018-04-21T08:48:31.000Z</time>
      </trkpt>
      <trkpt lat="40.811922" lon="-3.868479">
        <ele>2051.1</ele>
        <time>2018-04-21T08:48:32.000Z</time>
      </trkpt>
      <trkpt lat="40.811922" lon="-3.868479">
        <ele>2051.1</ele>
        <time>2018-04-21T08:48:33.000Z</time>
      </trkpt>
      <trkpt lat="40.811922" lon="-3.868479">
        <ele>2051.1</ele>
        <time>2018-04-21T08:48:34.000Z</time>
      </trkpt>
      <trkpt lat="40.811922" lon="-3.868479">
        <ele>2051.1</ele>
        <time>2018-04-21T08:48:35.000Z</time>
      </trkpt>
      <trkpt lat="40.811922" lon="-3.868479">
        <ele>2051.1</ele>
        <time>2018-04-21T08:48:36.000Z</time>
      </trkpt>
      <trkpt lat="40.811922" lon="-3.868479">
        <ele>2051.1</ele>
        <time>2018-04-21T08:48:37.000Z</time>
      </trkpt>
      <trkpt lat="40.811922" lon="-3.868479">
        <ele>2051.1</ele>
        <time>2018-04-21T08:48:38.000Z</time>
      </trkpt>
      <trkpt lat="40.811922" lon="-3.868479">
        <ele>2051.1</ele>
        <time>2018-04-21T08:48:39.000Z</time>
      </trkpt>
      <trkpt lat="40.811922" lon="-3.868479">
        <ele>2051.1</ele>
        <time>2018-04-21T08:48:40.000Z</time>
      </trkpt>
      <trkpt lat="40.811922" lon="-3.868479">
        <ele>2051.1</ele>
        <time>2018-04-21T08:48:41.000Z</time>
      </trkpt>
      <trkpt lat="40.811922" lon="-3.868479">
        <ele>2051.1</ele>
        <time>2018-04-21T08:48:42.000Z</time>
      </trkpt>
      <trkpt lat="40.811922" lon="-3.868479">
        <ele>2051.1</ele>
        <time>2018-04-21T08:48:43.000Z</time>
      </trkpt>
      <trkpt lat="40.811922" lon="-3.868479">
        <ele>2051.1</ele>
        <time>2018-04-21T08:48:44.000Z</time>
      </trkpt>
      <trkpt lat="40.811922" lon="-3.868479">
        <ele>2051.1</ele>
        <time>2018-04-21T08:48:45.000Z</time>
      </trkpt>
      <trkpt lat="40.811922" lon="-3.868479">
        <ele>2051.1</ele>
        <time>2018-04-21T08:48:46.000Z</time>
      </trkpt>
      <trkpt lat="40.811923" lon="-3.868479">
        <ele>2051.1</ele>
        <time>2018-04-21T08:48:47.000Z</time>
      </trkpt>
      <trkpt lat="40.811923" lon="-3.868478">
        <ele>2051.1</ele>
        <time>2018-04-21T08:48:48.000Z</time>
      </trkpt>
      <trkpt lat="40.811922" lon="-3.868477">
        <ele>2051.1</ele>
        <time>2018-04-21T08:48:49.000Z</time>
      </trkpt>
      <trkpt lat="40.81192" lon="-3.868475">
        <ele>2051.2</ele>
        <time>2018-04-21T08:48:50.000Z</time>
      </trkpt>
      <trkpt lat="40.811915" lon="-3.868473">
        <ele>2051.2</ele>
        <time>2018-04-21T08:48:51.000Z</time>
      </trkpt>
      <trkpt lat="40.811909" lon="-3.86847">
        <ele>2051.3</ele>
        <time>2018-04-21T08:48:52.000Z</time>
      </trkpt>
      <trkpt lat="40.811902" lon="-3.868468">
        <ele>2051.4</ele>
        <time>2018-04-21T08:48:53.000Z</time>
      </trkpt>
      <trkpt lat="40.811894" lon="-3.868468">
        <ele>2051.5</ele>
        <time>2018-04-21T08:48:54.000Z</time>
      </trkpt>
      <trkpt lat="40.811885" lon="-3.868471">
        <ele>2051.5</ele>
        <time>2018-04-21T08:48:55.000Z</time>
      </trkpt>
      <trkpt lat="40.811876" lon="-3.868476">
        <ele>2051.5</ele>
        <time>2018-04-21T08:48:56.000Z</time>
      </trkpt>
      <trkpt lat="40.811867" lon="-3.868483">
        <ele>2051.5</ele>
        <time>2018-04-21T08:48:57.000Z</time>
      </trkpt>
      <trkpt lat="40.811857" lon="-3.86849">
        <ele>2051.4</ele>
        <time>2018-04-21T08:48:58.000Z</time>
      </trkpt>
      <trkpt lat="40.811847" lon="-3.868494">
        <ele>2051.5</ele>
        <time>2018-04-21T08:48:59.000Z</time>
      </trkpt>
      <trkpt lat="40.811838" lon="-3.868496">
        <ele>2051.5</ele>
        <time>2018-04-21T08:49:00.000Z</time>
      </trkpt>
      <trkpt lat="40.811828" lon="-3.868494">
        <ele>2051.6</ele>
        <time>2018-04-21T08:49:01.000Z</time>
      </trkpt>
      <trkpt lat="40.811819" lon="-3.86849">
        <ele>2051.8</ele>
        <time>2018-04-21T08:49:02.000Z</time>
      </trkpt>
      <trkpt lat="40.811811" lon="-3.868485">
        <ele>2051.9</ele>
        <time>2018-04-21T08:49:03.000Z</time>
      </trkpt>
      <trkpt lat="40.811805" lon="-3.86848">
        <ele>2052.1</ele>
        <time>2018-04-21T08:49:04.000Z</time>
      </trkpt>
      <trkpt lat="40.811801" lon="-3.868475">
        <ele>2052.2</ele>
        <time>2018-04-21T08:49:05.000Z</time>
      </trkpt>
      <trkpt lat="40.811798" lon="-3.868471">
        <ele>2052.2</ele>
        <time>2018-04-21T08:49:06.000Z</time>
      </trkpt>
      <trkpt lat="40.811796" lon="-3.868468">
        <ele>2052.3</ele>
        <time>2018-04-21T08:49:07.000Z</time>
      </trkpt>
      <trkpt lat="40.811796" lon="-3.868467">
        <ele>2052.3</ele>
        <time>2018-04-21T08:49:08.000Z</time>
      </trkpt>
      <trkpt lat="40.811796" lon="-3.868467">
        <ele>2052.3</ele>
        <time>2018-04-21T08:49:09.000Z</time>
      </trkpt>
      <trkpt lat="40.811796" lon="-3.868467">
        <ele>2052.3</ele>
        <time>2018-04-21T08:49:10.000Z</time>
      </trkpt>
      <trkpt lat="40.811796" lon="-3.868467">
        <ele>2052.3</ele>
        <time>2018-04-21T08:49:11.000Z</time>
      </trkpt>
      <trkpt lat="40.811795" lon="-3.868465">
        <ele>2052.4</ele>
        <time>2018-04-21T08:49:12.000Z</time>
      </trkpt>
      <trkpt lat="40.811793" lon="-3.86846">
        <ele>2052.5</ele>
        <time>2018-04-21T08:49:13.000Z</time>
      </trkpt>
      <trkpt lat="40.81179" lon="-3.868451">
        <ele>2052.6</ele>
        <time>2018-04-21T08:49:14.000Z</time>
      </trkpt>
      <trkpt lat="40.811786" lon="-3.86844">
        <ele>2052.8</ele>
        <time>2018-04-21T08:49:15.000Z</time>
      </trkpt>
      <trkpt lat="40.81178" lon="-3.868429">
        <ele>2053.0</ele>
        <time>2018-04-21T08:49:16.000Z</time>
      </trkpt>
      <trkpt lat="40.811772" lon="-3.868418">
        <ele>2053.2</ele>
        <time>2018-04-21T08:49:17.000Z</time>
      </trkpt>
      <trkpt lat="40.811762" lon="-3.868411">
        <ele>2053.4</ele>
        <time>2018-04-21T08:49:18.000Z</time>
      </trkpt>
      <trkpt lat="40.811751" lon="-3.868406">
        <ele>2053.6</ele>
        <time>2018-04-21T08:49:19.000Z</time>
      </trkpt>
      <trkpt lat="40.811741" lon="-3.868404">
        <ele>2053.7</ele>
        <time>2018-04-21T08:49:20.000Z</time>
      </trkpt>
      <trkpt lat="40.81173" lon="-3.868404">
        <ele>2053.7</ele>
        <time>2018-04-21T08:49:21.000Z</time>
      </trkpt>
      <trkpt lat="40.811721" lon="-3.868406">
        <ele>2053.8</ele>
        <time>2018-04-21T08:49:22.000Z</time>
      </trkpt>
      <trkpt lat="40.811713" lon="-3.868409">
        <ele>2053.8</ele>
        <time>2018-04-21T08:49:23.000Z</time>
      </trkpt>
      <trkpt lat="40.811706" lon="-3.868413">
        <ele>2053.8</ele>
        <time>2018-04-21T08:49:24.000Z</time>
      </trkpt>
      <trkpt lat="40.811699" lon="-3.868417">
        <ele>2053.8</ele>
        <time>2018-04-21T08:49:25.000Z</time>
      </trkpt>
      <trkpt lat="40.811691" lon="-3.86842">
        <ele>2053.8</ele>
        <time>2018-04-21T08:49:26.000Z</time>
      </trkpt>
      <trkpt lat="40.811681" lon="-3.868421">
        <ele>2053.8</ele>
        <time>2018-04-21T08:49:27.000Z</time>
      </trkpt>
      <trkpt lat="40.811671" lon="-3.868421">
        <ele>2053.9</ele>
        <time>2018-04-21T08:49:28.000Z</time>
      </trkpt>
      <trkpt lat="40.811661" lon="-3.868421">
        <ele>2053.8</ele>
        <time>2018-04-21T08:49:29.000Z</time>
      </trkpt>
      <trkpt lat="40.811654" lon="-3.868421">
        <ele>2053.7</ele>
        <time>2018-04-21T08:49:30.000Z</time>
      </trkpt>
      <trkpt lat="40.811649" lon="-3.868423">
        <ele>2053.5</ele>
        <time>2018-04-21T08:49:31.000Z</time>
      </trkpt>
      <trkpt lat="40.81165" lon="-3.868425">
        <ele>2053.5</ele>
        <time>2018-04-21T08:49:32.000Z</time>
      </trkpt>
      <trkpt lat="40.811654" lon="-3.86843">
        <ele>2053.6</ele>
        <time>2018-04-21T08:49:33.000Z</time>
      </trkpt>
      <trkpt lat="40.81166" lon="-3.868435">
        <ele>2053.6</ele>
        <time>2018-04-21T08:49:34.000Z</time>
      </trkpt>
      <trkpt lat="40.811667" lon="-3.868441">
        <ele>2053.7</ele>
        <time>2018-04-21T08:49:35.000Z</time>
      </trkpt>
      <trkpt lat="40.811675" lon="-3.868446">
        <ele>2053.6</ele>
        <time>2018-04-21T08:49:36.000Z</time>
      </trkpt>
      <trkpt lat="40.811682" lon="-3.868452">
        <ele>2053.5</ele>
        <time>2018-04-21T08:49:37.000Z</time>
      </trkpt>
      <trkpt lat="40.811689" lon="-3.868458">
        <ele>2053.3</ele>
        <time>2018-04-21T08:49:38.000Z</time>
      </trkpt>
      <trkpt lat="40.811696" lon="-3.868464">
        <ele>2053.2</ele>
        <time>2018-04-21T08:49:39.000Z</time>
      </trkpt>
      <trkpt lat="40.811702" lon="-3.86847">
        <ele>2053.1</ele>
        <time>2018-04-21T08:49:40.000Z</time>
      </trkpt>
      <trkpt lat="40.811708" lon="-3.868475">
        <ele>2052.9</ele>
        <time>2018-04-21T08:49:41.000Z</time>
      </trkpt>
      <trkpt lat="40.811714" lon="-3.868481">
        <ele>2052.8</ele>
        <time>2018-04-21T08:49:42.000Z</time>
      </trkpt>
      <trkpt lat="40.811719" lon="-3.868488">
        <ele>2052.7</ele>
        <time>2018-04-21T08:49:43.000Z</time>
      </trkpt>
      <trkpt lat="40.811724" lon="-3.868494">
        <ele>2052.6</ele>
        <time>2018-04-21T08:49:44.000Z</time>
      </trkpt>
      <trkpt lat="40.811728" lon="-3.868501">
        <ele>2052.4</ele>
        <time>2018-04-21T08:49:45.000Z</time>
      </trkpt>
      <trkpt lat="40.811732" lon="-3.868507">
        <ele>2052.3</ele>
        <time>2018-04-21T08:49:46.000Z</time>
      </trkpt>
      <trkpt lat="40.811735" lon="-3.868514">
        <ele>2052.2</ele>
        <time>2018-04-21T08:49:47.000Z</time>
      </trkpt>
      <trkpt lat="40.811738" lon="-3.868521">
        <ele>2052.1</ele>
        <time>2018-04-21T08:49:48.000Z</time>
      </trkpt>
      <trkpt lat="40.811739" lon="-3.868528">
        <ele>2052.0</ele>
        <time>2018-04-21T08:49:49.000Z</time>
      </trkpt>
      <trkpt lat="40.81174" lon="-3.868534">
        <ele>2051.9</ele>
        <time>2018-04-21T08:49:50.000Z</time>
      </trkpt>
      <trkpt lat="40.81174" lon="-3.868541">
        <ele>2051.8</ele>
        <time>2018-04-21T08:49:51.000Z</time>
      </trkpt>
      <trkpt lat="40.81174" lon="-3.868548">
        <ele>2051.7</ele>
        <time>2018-04-21T08:49:52.000Z</time>
      </trkpt>
      <trkpt lat="40.811738" lon="-3.868554">
        <ele>2051.6</ele>
        <time>2018-04-21T08:49:53.000Z</time>
      </trkpt>
      <trkpt lat="40.811736" lon="-3.86856">
        <ele>2051.5</ele>
        <time>2018-04-21T08:49:54.000Z</time>
      </trkpt>
      <trkpt lat="40.811732" lon="-3.868566">
        <ele>2051.5</ele>
        <time>2018-04-21T08:49:55.000Z</time>
      </trkpt>
      <trkpt lat="40.811729" lon="-3.868572">
        <ele>2051.5</ele>
        <time>2018-04-21T08:49:56.000Z</time>
      </trkpt>
      <trkpt lat="40.811724" lon="-3.868578">
        <ele>2051.4</ele>
        <time>2018-04-21T08:49:57.000Z</time>
      </trkpt>
      <trkpt lat="40.81172" lon="-3.868584">
        <ele>2051.4</ele>
        <time>2018-04-21T08:49:58.000Z</time>
      </trkpt>
      <trkpt lat="40.811716" lon="-3.86859">
        <ele>2051.4</ele>
        <time>2018-04-21T08:49:59.000Z</time>
      </trkpt>
      <trkpt lat="40.811712" lon="-3.868597">
        <ele>2051.3</ele>
        <time>2018-04-21T08:50:00.000Z</time>
      </trkpt>
      <trkpt lat="40.811709" lon="-3.868603">
        <ele>2051.3</ele>
        <time>2018-04-21T08:50:01.000Z</time>
      </trkpt>
      <trkpt lat="40.811706" lon="-3.86861">
        <ele>2051.2</ele>
        <time>2018-04-21T08:50:02.000Z</time>
      </trkpt>
      <trkpt lat="40.811704" lon="-3.868617">
        <ele>2051.1</ele>
        <time>2018-04-21T08:50:03.000Z</time>
      </trkpt>
      <trkpt lat="40.811703" lon="-3.868625">
        <ele>2051.1</ele>
        <time>2018-04-21T08:50:04.000Z</time>
      </trkpt>
      <trkpt lat="40.811702" lon="-3.868632">
        <ele>2051.0</ele>
        <time>2018-04-21T08:50:05.000Z</time>
      </trkpt>
      <trkpt lat="40.811702" lon="-3.868639">
        <ele>2050.9</ele>
        <time>2018-04-21T08:50:06.000Z</time>
      </trkpt>
      <trkpt lat="40.811702" lon="-3.868646">
        <ele>2050.8</ele>
        <time>2018-04-21T08:50:07.000Z</time>
      </trkpt>
      <trkpt lat="40.811703" lon="-3.868651">
        <ele>2050.7</ele>
        <time>2018-04-21T08:50:08.000Z</time>
      </trkpt>
      <trkpt lat="40.811704" lon="-3.868656">
        <ele>2050.6</ele>
        <time>2018-04-21T08:50:09.000Z</time>
      </trkpt>
      <trkpt lat="40.811704" lon="-3.86866">
        <ele>2050.6</ele>
        <time>2018-04-21T08:50:10.000Z</time>
      </trkpt>
      <trkpt lat="40.811705" lon="-3.868662">
        <ele>2050.5</ele>
        <time>2018-04-21T08:50:11.000Z</time>
      </trkpt>
      <trkpt lat="40.811705" lon="-3.868662">
        <ele>2050.5</ele>
        <time>2018-04-21T08:50:12.000Z</time>
      </trkpt>
      <trkpt lat="40.811706" lon="-3.868662">
        <ele>2050.5</ele>
        <time>2018-04-21T08:50:13.000Z</time>
      </trkpt>
      <trkpt lat="40.811706" lon="-3.868662">
        <ele>2050.5</ele>
        <time>2018-04-21T08:50:14.000Z</time>
      </trkpt>
      <trkpt lat="40.811706" lon="-3.868662">
        <ele>2050.5</ele>
        <time>2018-04-21T08:50:15.000Z</time>
      </trkpt>
      <trkpt lat="40.811705" lon="-3.868664">
        <ele>2050.5</ele>
        <time>2018-04-21T08:50:16.000Z</time>
      </trkpt>
      <trkpt lat="40.811705" lon="-3.868667">
        <ele>2050.5</ele>
        <time>2018-04-21T08:50:17.000Z</time>
      </trkpt>
      <trkpt lat="40.811705" lon="-3.868672">
        <ele>2050.4</ele>
        <time>2018-04-21T08:50:18.000Z</time>
      </trkpt>
      <trkpt lat="40.811705" lon="-3.868677">
        <ele>2050.4</ele>
        <time>2018-04-21T08:50:19.000Z</time>
      </trkpt>
      <trkpt lat="40.811705" lon="-3.868681">
        <ele>2050.3</ele>
        <time>2018-04-21T08:50:20.000Z</time>
      </trkpt>
      <trkpt lat="40.811705" lon="-3.868683">
        <ele>2050.3</ele>
        <time>2018-04-21T08:50:21.000Z</time>
      </trkpt>
      <trkpt lat="40.811706" lon="-3.868685">
        <ele>2050.2</ele>
        <time>2018-04-21T08:50:22.000Z</time>
      </trkpt>
      <trkpt lat="40.811706" lon="-3.868685">
        <ele>2050.2</ele>
        <time>2018-04-21T08:50:23.000Z</time>
      </trkpt>
      <trkpt lat="40.811707" lon="-3.868685">
        <ele>2050.2</ele>
        <time>2018-04-21T08:50:24.000Z</time>
      </trkpt>
      <trkpt lat="40.811707" lon="-3.868684">
        <ele>2050.2</ele>
        <time>2018-04-21T08:50:25.000Z</time>
      </trkpt>
      <trkpt lat="40.811706" lon="-3.868684">
        <ele>2050.2</ele>
        <time>2018-04-21T08:50:26.000Z</time>
      </trkpt>
      <trkpt lat="40.811706" lon="-3.868684">
        <ele>2050.2</ele>
        <time>2018-04-21T08:50:27.000Z</time>
      </trkpt>
      <trkpt lat="40.811704" lon="-3.868685">
        <ele>2050.3</ele>
        <time>2018-04-21T08:50:28.000Z</time>
      </trkpt>
      <trkpt lat="40.811702" lon="-3.868686">
        <ele>2050.3</ele>
        <time>2018-04-21T08:50:29.000Z</time>
      </trkpt>
      <trkpt lat="40.811698" lon="-3.86869">
        <ele>2050.3</ele>
        <time>2018-04-21T08:50:30.000Z</time>
      </trkpt>
      <trkpt lat="40.811694" lon="-3.868694">
        <ele>2050.3</ele>
        <time>2018-04-21T08:50:31.000Z</time>
      </trkpt>
      <trkpt lat="40.811689" lon="-3.868699">
        <ele>2050.3</ele>
        <time>2018-04-21T08:50:32.000Z</time>
      </trkpt>
      <trkpt lat="40.811683" lon="-3.868706">
        <ele>2050.3</ele>
        <time>2018-04-21T08:50:33.000Z</time>
      </trkpt>
      <trkpt lat="40.811677" lon="-3.868712">
        <ele>2050.3</ele>
        <time>2018-04-21T08:50:34.000Z</time>
      </trkpt>
      <trkpt lat="40.81167" lon="-3.86872">
        <ele>2050.3</ele>
        <time>2018-04-21T08:50:35.000Z</time>
      </trkpt>
      <trkpt lat="40.811663" lon="-3.868727">
        <ele>2050.2</ele>
        <time>2018-04-21T08:50:36.000Z</time>
      </trkpt>
      <trkpt lat="40.811657" lon="-3.868735">
        <ele>2050.1</ele>
        <time>2018-04-21T08:50:37.000Z</time>
      </trkpt>
      <trkpt lat="40.811652" lon="-3.868743">
        <ele>2049.9</ele>
        <time>2018-04-21T08:50:38.000Z</time>
      </trkpt>
      <trkpt lat="40.811649" lon="-3.86875">
        <ele>2049.8</ele>
        <time>2018-04-21T08:50:39.000Z</time>
      </trkpt>
      <trkpt lat="40.811648" lon="-3.868758">
        <ele>2049.7</ele>
        <time>2018-04-21T08:50:40.000Z</time>
      </trkpt>
      <trkpt lat="40.811648" lon="-3.868765">
        <ele>2049.6</ele>
        <time>2018-04-21T08:50:41.000Z</time>
      </trkpt>
      <trkpt lat="40.81165" lon="-3.868772">
        <ele>2049.6</ele>
        <time>2018-04-21T08:50:42.000Z</time>
      </trkpt>
      <trkpt lat="40.811653" lon="-3.868779">
        <ele>2049.5</ele>
        <time>2018-04-21T08:50:43.000Z</time>
      </trkpt>
      <trkpt lat="40.811656" lon="-3.868786">
        <ele>2049.5</ele>
        <time>2018-04-21T08:50:44.000Z</time>
      </trkpt>
      <trkpt lat="40.811659" lon="-3.868792">
        <ele>2049.4</ele>
        <time>2018-04-21T08:50:45.000Z</time>
      </trkpt>
      <trkpt lat="40.811663" lon="-3.868798">
        <ele>2049.4</ele>
        <time>2018-04-21T08:50:46.000Z</time>
      </trkpt>
      <trkpt lat="40.811666" lon="-3.868804">
        <ele>2049.3</ele>
        <time>2018-04-21T08:50:47.000Z</time>
      </trkpt>
      <trkpt lat="40.811669" lon="-3.86881">
        <ele>2049.2</ele>
        <time>2018-04-21T08:50:48.000Z</time>
      </trkpt>
      <trkpt lat="40.811671" lon="-3.868815">
        <ele>2049.1</ele>
        <time>2018-04-21T08:50:49.000Z</time>
      </trkpt>
      <trkpt lat="40.811673" lon="-3.86882">
        <ele>2049.0</ele>
        <time>2018-04-21T08:50:50.000Z</time>
      </trkpt>
      <trkpt lat="40.811675" lon="-3.868824">
        <ele>2049.0</ele>
        <time>2018-04-21T08:50:51.000Z</time>
      </trkpt>
      <trkpt lat="40.811676" lon="-3.868829">
        <ele>2048.9</ele>
        <time>2018-04-21T08:50:52.000Z</time>
      </trkpt>
      <trkpt lat="40.811677" lon="-3.868834">
        <ele>2048.8</ele>
        <time>2018-04-21T08:50:53.000Z</time>
      </trkpt>
      <trkpt lat="40.811679" lon="-3.868838">
        <ele>2048.7</ele>
        <time>2018-04-21T08:50:54.000Z</time>
      </trkpt>
      <trkpt lat="40.81168" lon="-3.868842">
        <ele>2048.7</ele>
        <time>2018-04-21T08:50:55.000Z</time>
      </trkpt>
      <trkpt lat="40.811681" lon="-3.868847">
        <ele>2048.6</ele>
        <time>2018-04-21T08:50:56.000Z</time>
      </trkpt>
      <trkpt lat="40.811683" lon="-3.868851">
        <ele>2048.5</ele>
        <time>2018-04-21T08:50:57.000Z</time>
      </trkpt>
      <trkpt lat="40.811684" lon="-3.868855">
        <ele>2048.4</ele>
        <time>2018-04-21T08:50:58.000Z</time>
      </trkpt>
      <trkpt lat="40.811686" lon="-3.86886">
        <ele>2048.3</ele>
        <time>2018-04-21T08:50:59.000Z</time>
      </trkpt>
      <trkpt lat="40.811687" lon="-3.868864">
        <ele>2048.3</ele>
        <time>2018-04-21T08:51:00.000Z</time>
      </trkpt>
      <trkpt lat="40.811688" lon="-3.868869">
        <ele>2048.2</ele>
        <time>2018-04-21T08:51:01.000Z</time>
      </trkpt>
      <trkpt lat="40.811689" lon="-3.868874">
        <ele>2048.1</ele>
        <time>2018-04-21T08:51:02.000Z</time>
      </trkpt>
      <trkpt lat="40.811689" lon="-3.868879">
        <ele>2048.0</ele>
        <time>2018-04-21T08:51:03.000Z</time>
      </trkpt>
      <trkpt lat="40.811688" lon="-3.868884">
        <ele>2048.0</ele>
        <time>2018-04-21T08:51:04.000Z</time>
      </trkpt>
      <trkpt lat="40.811686" lon="-3.86889">
        <ele>2047.9</ele>
        <time>2018-04-21T08:51:05.000Z</time>
      </trkpt>
      <trkpt lat="40.811683" lon="-3.868895">
        <ele>2047.9</ele>
        <time>2018-04-21T08:51:06.000Z</time>
      </trkpt>
      <trkpt lat="40.811679" lon="-3.868901">
        <ele>2047.9</ele>
        <time>2018-04-21T08:51:07.000Z</time>
      </trkpt>
      <trkpt lat="40.811675" lon="-3.868907">
        <ele>2048.0</ele>
        <time>2018-04-21T08:51:08.000Z</time>
      </trkpt>
      <trkpt lat="40.81167" lon="-3.868912">
        <ele>2048.0</ele>
        <time>2018-04-21T08:51:09.000Z</time>
      </trkpt>
      <trkpt lat="40.811665" lon="-3.868917">
        <ele>2048.0</ele>
        <time>2018-04-21T08:51:10.000Z</time>
      </trkpt>
      <trkpt lat="40.81166" lon="-3.868922">
        <ele>2047.9</ele>
        <time>2018-04-21T08:51:11.000Z</time>
      </trkpt>
      <trkpt lat="40.811655" lon="-3.868926">
        <ele>2047.8</ele>
        <time>2018-04-21T08:51:12.000Z</time>
      </trkpt>
      <trkpt lat="40.81165" lon="-3.868929">
        <ele>2047.8</ele>
        <time>2018-04-21T08:51:13.000Z</time>
      </trkpt>
      <trkpt lat="40.811646" lon="-3.868932">
        <ele>2047.7</ele>
        <time>2018-04-21T08:51:14.000Z</time>
      </trkpt>
      <trkpt lat="40.811643" lon="-3.868934">
        <ele>2047.7</ele>
        <time>2018-04-21T08:51:15.000Z</time>
      </trkpt>
      <trkpt lat="40.81164" lon="-3.868934">
        <ele>2047.7</ele>
        <time>2018-04-21T08:51:16.000Z</time>
      </trkpt>
      <trkpt lat="40.811638" lon="-3.868935">
        <ele>2047.7</ele>
        <time>2018-04-21T08:51:17.000Z</time>
      </trkpt>
      <trkpt lat="40.811637" lon="-3.868934">
        <ele>2047.7</ele>
        <time>2018-04-21T08:51:18.000Z</time>
      </trkpt>
      <trkpt lat="40.811636" lon="-3.868934">
        <ele>2047.7</ele>
        <time>2018-04-21T08:51:19.000Z</time>
      </trkpt>
      <trkpt lat="40.811635" lon="-3.868933">
        <ele>2047.7</ele>
        <time>2018-04-21T08:51:20.000Z</time>
      </trkpt>
      <trkpt lat="40.811634" lon="-3.868932">
        <ele>2047.7</ele>
        <time>2018-04-21T08:51:21.000Z</time>
      </trkpt>
      <trkpt lat="40.811633" lon="-3.868931">
        <ele>2047.7</ele>
        <time>2018-04-21T08:51:22.000Z</time>
      </trkpt>
      <trkpt lat="40.811633" lon="-3.86893">
        <ele>2047.7</ele>
        <time>2018-04-21T08:51:23.000Z</time>
      </trkpt>
      <trkpt lat="40.811632" lon="-3.86893">
        <ele>2047.7</ele>
        <time>2018-04-21T08:51:24.000Z</time>
      </trkpt>
      <trkpt lat="40.811631" lon="-3.868929">
        <ele>2047.7</ele>
        <time>2018-04-21T08:51:25.000Z</time>
      </trkpt>
      <trkpt lat="40.81163" lon="-3.86893">
        <ele>2047.7</ele>
        <time>2018-04-21T08:51:26.000Z</time>
      </trkpt>
      <trkpt lat="40.811629" lon="-3.868931">
        <ele>2047.7</ele>
        <time>2018-04-21T08:51:27.000Z</time>
      </trkpt>
      <trkpt lat="40.811627" lon="-3.868932">
        <ele>2047.7</ele>
        <time>2018-04-21T08:51:28.000Z</time>
      </trkpt>
      <trkpt lat="40.811626" lon="-3.868933">
        <ele>2047.6</ele>
        <time>2018-04-21T08:51:29.000Z</time>
      </trkpt>
      <trkpt lat="40.811625" lon="-3.868935">
        <ele>2047.6</ele>
        <time>2018-04-21T08:51:30.000Z</time>
      </trkpt>
      <trkpt lat="40.811623" lon="-3.868938">
        <ele>2047.6</ele>
        <time>2018-04-21T08:51:31.000Z</time>
      </trkpt>
      <trkpt lat="40.811621" lon="-3.86894">
        <ele>2047.6</ele>
        <time>2018-04-21T08:51:32.000Z</time>
      </trkpt>
      <trkpt lat="40.81162" lon="-3.868943">
        <ele>2047.5</ele>
        <time>2018-04-21T08:51:33.000Z</time>
      </trkpt>
      <trkpt lat="40.811618" lon="-3.868947">
        <ele>2047.5</ele>
        <time>2018-04-21T08:51:34.000Z</time>
      </trkpt>
      <trkpt lat="40.811616" lon="-3.868951">
        <ele>2047.4</ele>
        <time>2018-04-21T08:51:35.000Z</time>
      </trkpt>
      <trkpt lat="40.811613" lon="-3.868956">
        <ele>2047.4</ele>
        <time>2018-04-21T08:51:36.000Z</time>
      </trkpt>
      <trkpt lat="40.81161" lon="-3.868961">
        <ele>2047.3</ele>
        <time>2018-04-21T08:51:37.000Z</time>
      </trkpt>
      <trkpt lat="40.811607" lon="-3.868966">
        <ele>2047.2</ele>
        <time>2018-04-21T08:51:38.000Z</time>
      </trkpt>
      <trkpt lat="40.811603" lon="-3.868972">
        <ele>2047.2</ele>
        <time>2018-04-21T08:51:39.000Z</time>
      </trkpt>
      <trkpt lat="40.811599" lon="-3.868979">
        <ele>2047.1</ele>
        <time>2018-04-21T08:51:40.000Z</time>
      </trkpt>
      <trkpt lat="40.811594" lon="-3.868986">
        <ele>2047.0</ele>
        <time>2018-04-21T08:51:41.000Z</time>
      </trkpt>
      <trkpt lat="40.811588" lon="-3.868994">
        <ele>2046.9</ele>
        <time>2018-04-21T08:51:42.000Z</time>
      </trkpt>
      <trkpt lat="40.811582" lon="-3.869002">
        <ele>2046.9</ele>
        <time>2018-04-21T08:51:43.000Z</time>
      </trkpt>
      <trkpt lat="40.811577" lon="-3.869009">
        <ele>2046.8</ele>
        <time>2018-04-21T08:51:44.000Z</time>
      </trkpt>
      <trkpt lat="40.811572" lon="-3.869015">
        <ele>2046.7</ele>
        <time>2018-04-21T08:51:45.000Z</time>
      </trkpt>
      <trkpt lat="40.811569" lon="-3.86902">
        <ele>2046.7</ele>
        <time>2018-04-21T08:51:46.000Z</time>
      </trkpt>
      <trkpt lat="40.811568" lon="-3.869022">
        <ele>2046.7</ele>
        <time>2018-04-21T08:51:47.000Z</time>
      </trkpt>
      <trkpt lat="40.811568" lon="-3.869023">
        <ele>2046.7</ele>
        <time>2018-04-21T08:51:48.000Z</time>
      </trkpt>
      <trkpt lat="40.811568" lon="-3.869024">
        <ele>2046.7</ele>
        <time>2018-04-21T08:51:49.000Z</time>
      </trkpt>
      <trkpt lat="40.811568" lon="-3.869024">
        <ele>2046.7</ele>
        <time>2018-04-21T08:51:50.000Z</time>
      </trkpt>
      <trkpt lat="40.811567" lon="-3.869025">
        <ele>2046.6</ele>
        <time>2018-04-21T08:51:51.000Z</time>
      </trkpt>
      <trkpt lat="40.811565" lon="-3.869026">
        <ele>2046.6</ele>
        <time>2018-04-21T08:51:52.000Z</time>
      </trkpt>
      <trkpt lat="40.811563" lon="-3.869029">
        <ele>2046.6</ele>
        <time>2018-04-21T08:51:53.000Z</time>
      </trkpt>
      <trkpt lat="40.81156" lon="-3.869032">
        <ele>2046.6</ele>
        <time>2018-04-21T08:51:54.000Z</time>
      </trkpt>
      <trkpt lat="40.811556" lon="-3.869035">
        <ele>2046.6</ele>
        <time>2018-04-21T08:51:55.000Z</time>
      </trkpt>
      <trkpt lat="40.811553" lon="-3.86904">
        <ele>2046.5</ele>
        <time>2018-04-21T08:51:56.000Z</time>
      </trkpt>
      <trkpt lat="40.811549" lon="-3.869044">
        <ele>2046.5</ele>
        <time>2018-04-21T08:51:57.000Z</time>
      </trkpt>
      <trkpt lat="40.811546" lon="-3.86905">
        <ele>2046.5</ele>
        <time>2018-04-21T08:51:58.000Z</time>
      </trkpt>
      <trkpt lat="40.811544" lon="-3.869056">
        <ele>2046.4</ele>
        <time>2018-04-21T08:51:59.000Z</time>
      </trkpt>
      <trkpt lat="40.811542" lon="-3.869062">
        <ele>2046.4</ele>
        <time>2018-04-21T08:52:00.000Z</time>
      </trkpt>
      <trkpt lat="40.811541" lon="-3.869069">
        <ele>2046.3</ele>
        <time>2018-04-21T08:52:01.000Z</time>
      </trkpt>
      <trkpt lat="40.81154" lon="-3.869076">
        <ele>2046.3</ele>
        <time>2018-04-21T08:52:02.000Z</time>
      </trkpt>
      <trkpt lat="40.81154" lon="-3.869084">
        <ele>2046.2</ele>
        <time>2018-04-21T08:52:03.000Z</time>
      </trkpt>
      <trkpt lat="40.811539" lon="-3.869092">
        <ele>2046.2</ele>
        <time>2018-04-21T08:52:04.000Z</time>
      </trkpt>
      <trkpt lat="40.811538" lon="-3.869101">
        <ele>2046.1</ele>
        <time>2018-04-21T08:52:05.000Z</time>
      </trkpt>
      <trkpt lat="40.811537" lon="-3.86911">
        <ele>2046.0</ele>
        <time>2018-04-21T08:52:06.000Z</time>
      </trkpt>
      <trkpt lat="40.811535" lon="-3.869119">
        <ele>2046.0</ele>
        <time>2018-04-21T08:52:07.000Z</time>
      </trkpt>
      <trkpt lat="40.811531" lon="-3.869129">
        <ele>2045.9</ele>
        <time>2018-04-21T08:52:08.000Z</time>
      </trkpt>
      <trkpt lat="40.811527" lon="-3.869139">
        <ele>2045.9</ele>
        <time>2018-04-21T08:52:09.000Z</time>
      </trkpt>
      <trkpt lat="40.811522" lon="-3.869149">
        <ele>2045.8</ele>
        <time>2018-04-21T08:52:10.000Z</time>
      </trkpt>
      <trkpt lat="40.811515" lon="-3.869159">
        <ele>2045.8</ele>
        <time>2018-04-21T08:52:11.000Z</time>
      </trkpt>
      <trkpt lat="40.811508" lon="-3.869169">
        <ele>2045.7</ele>
        <time>2018-04-21T08:52:12.000Z</time>
      </trkpt>
      <trkpt lat="40.811501" lon="-3.869178">
        <ele>2045.7</ele>
        <time>2018-04-21T08:52:13.000Z</time>
      </trkpt>
      <trkpt lat="40.811493" lon="-3.869186">
        <ele>2045.7</ele>
        <time>2018-04-21T08:52:14.000Z</time>
      </trkpt>
      <trkpt lat="40.811485" lon="-3.869194">
        <ele>2045.6</ele>
        <time>2018-04-21T08:52:15.000Z</time>
      </trkpt>
      <trkpt lat="40.811477" lon="-3.8692">
        <ele>2045.6</ele>
        <time>2018-04-21T08:52:16.000Z</time>
      </trkpt>
      <trkpt lat="40.811469" lon="-3.869205">
        <ele>2045.6</ele>
        <time>2018-04-21T08:52:17.000Z</time>
      </trkpt>
      <trkpt lat="40.811462" lon="-3.869209">
        <ele>2045.6</ele>
        <time>2018-04-21T08:52:18.000Z</time>
      </trkpt>
      <trkpt lat="40.811455" lon="-3.86921">
        <ele>2045.7</ele>
        <time>2018-04-21T08:52:19.000Z</time>
      </trkpt>
      <trkpt lat="40.811449" lon="-3.869209">
        <ele>2045.7</ele>
        <time>2018-04-21T08:52:20.000Z</time>
      </trkpt>
      <trkpt lat="40.811444" lon="-3.869206">
        <ele>2045.8</ele>
        <time>2018-04-21T08:52:21.000Z</time>
      </trkpt>
      <trkpt lat="40.811441" lon="-3.8692">
        <ele>2045.8</ele>
        <time>2018-04-21T08:52:22.000Z</time>
      </trkpt>
      <trkpt lat="40.81144" lon="-3.86919">
        <ele>2045.9</ele>
        <time>2018-04-21T08:52:23.000Z</time>
      </trkpt>
      <trkpt lat="40.81144" lon="-3.869179">
        <ele>2046.0</ele>
        <time>2018-04-21T08:52:24.000Z</time>
      </trkpt>
      <trkpt lat="40.811441" lon="-3.869166">
        <ele>2046.1</ele>
        <time>2018-04-21T08:52:25.000Z</time>
      </trkpt>
      <trkpt lat="40.811443" lon="-3.869155">
        <ele>2046.1</ele>
        <time>2018-04-21T08:52:26.000Z</time>
      </trkpt>
      <trkpt lat="40.811446" lon="-3.869145">
        <ele>2046.1</ele>
        <time>2018-04-21T08:52:27.000Z</time>
      </trkpt>
      <trkpt lat="40.811449" lon="-3.869138">
        <ele>2046.2</ele>
        <time>2018-04-21T08:52:28.000Z</time>
      </trkpt>
      <trkpt lat="40.811453" lon="-3.869132">
        <ele>2046.2</ele>
        <time>2018-04-21T08:52:29.000Z</time>
      </trkpt>
      <trkpt lat="40.811458" lon="-3.869128">
        <ele>2046.2</ele>
        <time>2018-04-21T08:52:30.000Z</time>
      </trkpt>
      <trkpt lat="40.811462" lon="-3.869125">
        <ele>2046.2</ele>
        <time>2018-04-21T08:52:31.000Z</time>
      </trkpt>
      <trkpt lat="40.811466" lon="-3.869124">
        <ele>2046.2</ele>
        <time>2018-04-21T08:52:32.000Z</time>
      </trkpt>
      <trkpt lat="40.81147" lon="-3.869124">
        <ele>2046.1</ele>
        <time>2018-04-21T08:52:33.000Z</time>
      </trkpt>
      <trkpt lat="40.811473" lon="-3.869125">
        <ele>2046.1</ele>
        <time>2018-04-21T08:52:34.000Z</time>
      </trkpt>
      <trkpt lat="40.811476" lon="-3.869127">
        <ele>2046.1</ele>
        <time>2018-04-21T08:52:35.000Z</time>
      </trkpt>
      <trkpt lat="40.811478" lon="-3.869129">
        <ele>2046.1</ele>
        <time>2018-04-21T08:52:36.000Z</time>
      </trkpt>
      <trkpt lat="40.81148" lon="-3.869132">
        <ele>2046.1</ele>
        <time>2018-04-21T08:52:37.000Z</time>
      </trkpt>
      <trkpt lat="40.81148" lon="-3.869135">
        <ele>2046.1</ele>
        <time>2018-04-21T08:52:38.000Z</time>
      </trkpt>
      <trkpt lat="40.811481" lon="-3.869137">
        <ele>2046.0</ele>
        <time>2018-04-21T08:52:39.000Z</time>
      </trkpt>
      <trkpt lat="40.81148" lon="-3.869138">
        <ele>2046.0</ele>
        <time>2018-04-21T08:52:40.000Z</time>
      </trkpt>
      <trkpt lat="40.811479" lon="-3.869138">
        <ele>2046.0</ele>
        <time>2018-04-21T08:52:41.000Z</time>
      </trkpt>
      <trkpt lat="40.811478" lon="-3.869138">
        <ele>2046.0</ele>
        <time>2018-04-21T08:52:42.000Z</time>
      </trkpt>
      <trkpt lat="40.811474" lon="-3.869137">
        <ele>2046.1</ele>
        <time>2018-04-21T08:52:43.000Z</time>
      </trkpt>
      <trkpt lat="40.81147" lon="-3.869139">
        <ele>2046.1</ele>
        <time>2018-04-21T08:52:44.000Z</time>
      </trkpt>
      <trkpt lat="40.811463" lon="-3.869142">
        <ele>2046.1</ele>
        <time>2018-04-21T08:52:45.000Z</time>
      </trkpt>
      <trkpt lat="40.811454" lon="-3.869147">
        <ele>2046.1</ele>
        <time>2018-04-21T08:52:46.000Z</time>
      </trkpt>
      <trkpt lat="40.811445" lon="-3.869154">
        <ele>2046.1</ele>
        <time>2018-04-21T08:52:47.000Z</time>
      </trkpt>
      <trkpt lat="40.811435" lon="-3.869162">
        <ele>2046.1</ele>
        <time>2018-04-21T08:52:48.000Z</time>
      </trkpt>
      <trkpt lat="40.811426" lon="-3.86917">
        <ele>2046.1</ele>
        <time>2018-04-21T08:52:49.000Z</time>
      </trkpt>
      <trkpt lat="40.811417" lon="-3.869177">
        <ele>2046.1</ele>
        <time>2018-04-21T08:52:50.000Z</time>
      </trkpt>
      <trkpt lat="40.811409" lon="-3.869185">
        <ele>2046.1</ele>
        <time>2018-04-21T08:52:51.000Z</time>
      </trkpt>
      <trkpt lat="40.8114" lon="-3.86919">
        <ele>2046.1</ele>
        <time>2018-04-21T08:52:52.000Z</time>
      </trkpt>
      <trkpt lat="40.811392" lon="-3.869192">
        <ele>2046.1</ele>
        <time>2018-04-21T08:52:53.000Z</time>
      </trkpt>
      <trkpt lat="40.811383" lon="-3.869191">
        <ele>2046.2</ele>
        <time>2018-04-21T08:52:54.000Z</time>
      </trkpt>
      <trkpt lat="40.811373" lon="-3.869188">
        <ele>2046.3</ele>
        <time>2018-04-21T08:52:55.000Z</time>
      </trkpt>
      <trkpt lat="40.811364" lon="-3.869184">
        <ele>2046.3</ele>
        <time>2018-04-21T08:52:56.000Z</time>
      </trkpt>
      <trkpt lat="40.811355" lon="-3.869181">
        <ele>2046.4</ele>
        <time>2018-04-21T08:52:57.000Z</time>
      </trkpt>
      <trkpt lat="40.811346" lon="-3.86918">
        <ele>2046.5</ele>
        <time>2018-04-21T08:52:58.000Z</time>
      </trkpt>
      <trkpt lat="40.811338" lon="-3.869183">
        <ele>2046.5</ele>
        <time>2018-04-21T08:52:59.000Z</time>
      </trkpt>
      <trkpt lat="40.811331" lon="-3.869189">
        <ele>2046.5</ele>
        <time>2018-04-21T08:53:00.000Z</time>
      </trkpt>
      <trkpt lat="40.811325" lon="-3.869197">
        <ele>2046.5</ele>
        <time>2018-04-21T08:53:01.000Z</time>
      </trkpt>
      <trkpt lat="40.811319" lon="-3.869206">
        <ele>2046.5</ele>
        <time>2018-04-21T08:53:02.000Z</time>
      </trkpt>
      <trkpt lat="40.811314" lon="-3.869217">
        <ele>2046.4</ele>
        <time>2018-04-21T08:53:03.000Z</time>
      </trkpt>
      <trkpt lat="40.811308" lon="-3.869228">
        <ele>2046.4</ele>
        <time>2018-04-21T08:53:04.000Z</time>
      </trkpt>
      <trkpt lat="40.811303" lon="-3.869239">
        <ele>2046.4</ele>
        <time>2018-04-21T08:53:05.000Z</time>
      </trkpt>
      <trkpt lat="40.811298" lon="-3.86925">
        <ele>2046.4</ele>
        <time>2018-04-21T08:53:06.000Z</time>
      </trkpt>
      <trkpt lat="40.811293" lon="-3.869261">
        <ele>2046.4</ele>
        <time>2018-04-21T08:53:07.000Z</time>
      </trkpt>
      <trkpt lat="40.811288" lon="-3.869272">
        <ele>2046.3</ele>
        <time>2018-04-21T08:53:08.000Z</time>
      </trkpt>
      <trkpt lat="40.811282" lon="-3.869282">
        <ele>2046.3</ele>
        <time>2018-04-21T08:53:09.000Z</time>
      </trkpt>
      <trkpt lat="40.811275" lon="-3.869292">
        <ele>2046.4</ele>
        <time>2018-04-21T08:53:10.000Z</time>
      </trkpt>
      <trkpt lat="40.811267" lon="-3.8693">
        <ele>2046.4</ele>
        <time>2018-04-21T08:53:11.000Z</time>
      </trkpt>
      <trkpt lat="40.811259" lon="-3.869307">
        <ele>2046.4</ele>
        <time>2018-04-21T08:53:12.000Z</time>
      </trkpt>
      <trkpt lat="40.811249" lon="-3.869313">
        <ele>2046.5</ele>
        <time>2018-04-21T08:53:13.000Z</time>
      </trkpt>
      <trkpt lat="40.811239" lon="-3.869319">
        <ele>2046.5</ele>
        <time>2018-04-21T08:53:14.000Z</time>
      </trkpt>
      <trkpt lat="40.81123" lon="-3.869323">
        <ele>2046.6</ele>
        <time>2018-04-21T08:53:15.000Z</time>
      </trkpt>
      <trkpt lat="40.81122" lon="-3.869328">
        <ele>2046.7</ele>
        <time>2018-04-21T08:53:16.000Z</time>
      </trkpt>
      <trkpt lat="40.81121" lon="-3.869332">
        <ele>2046.7</ele>
        <time>2018-04-21T08:53:17.000Z</time>
      </trkpt>
      <trkpt lat="40.811201" lon="-3.869336">
        <ele>2046.8</ele>
        <time>2018-04-21T08:53:18.000Z</time>
      </trkpt>
      <trkpt lat="40.811193" lon="-3.869341">
        <ele>2046.9</ele>
        <time>2018-04-21T08:53:19.000Z</time>
      </trkpt>
      <trkpt lat="40.811186" lon="-3.869347">
        <ele>2046.9</ele>
        <time>2018-04-21T08:53:20.000Z</time>
      </trkpt>
      <trkpt lat="40.811181" lon="-3.869353">
        <ele>2047.0</ele>
        <time>2018-04-21T08:53:21.000Z</time>
      </trkpt>
      <trkpt lat="40.811177" lon="-3.86936">
        <ele>2047.0</ele>
        <time>2018-04-21T08:53:22.000Z</time>
      </trkpt>
      <trkpt lat="40.811173" lon="-3.869367">
        <ele>2047.0</ele>
        <time>2018-04-21T08:53:23.000Z</time>
      </trkpt>
      <trkpt lat="40.81117" lon="-3.869375">
        <ele>2047.0</ele>
        <time>2018-04-21T08:53:24.000Z</time>
      </trkpt>
      <trkpt lat="40.811167" lon="-3.869382">
        <ele>2047.0</ele>
        <time>2018-04-21T08:53:25.000Z</time>
      </trkpt>
      <trkpt lat="40.811164" lon="-3.86939">
        <ele>2047.1</ele>
        <time>2018-04-21T08:53:26.000Z</time>
      </trkpt>
      <trkpt lat="40.811161" lon="-3.869398">
        <ele>2047.1</ele>
        <time>2018-04-21T08:53:27.000Z</time>
      </trkpt>
      <trkpt lat="40.811156" lon="-3.869405">
        <ele>2047.1</ele>
        <time>2018-04-21T08:53:28.000Z</time>
      </trkpt>
      <trkpt lat="40.811151" lon="-3.869412">
        <ele>2047.2</ele>
        <time>2018-04-21T08:53:29.000Z</time>
      </trkpt>
      <trkpt lat="40.811144" lon="-3.869418">
        <ele>2047.2</ele>
        <time>2018-04-21T08:53:30.000Z</time>
      </trkpt>
      <trkpt lat="40.811135" lon="-3.869424">
        <ele>2047.3</ele>
        <time>2018-04-21T08:53:31.000Z</time>
      </trkpt>
      <trkpt lat="40.811126" lon="-3.869429">
        <ele>2047.4</ele>
        <time>2018-04-21T08:53:32.000Z</time>
      </trkpt>
      <trkpt lat="40.811117" lon="-3.869434">
        <ele>2047.5</ele>
        <time>2018-04-21T08:53:33.000Z</time>
      </trkpt>
      <trkpt lat="40.811107" lon="-3.86944">
        <ele>2047.6</ele>
        <time>2018-04-21T08:53:34.000Z</time>
      </trkpt>
      <trkpt lat="40.811097" lon="-3.869445">
        <ele>2047.7</ele>
        <time>2018-04-21T08:53:35.000Z</time>
      </trkpt>
      <trkpt lat="40.811087" lon="-3.869451">
        <ele>2047.8</ele>
        <time>2018-04-21T08:53:36.000Z</time>
      </trkpt>
      <trkpt lat="40.811078" lon="-3.869458">
        <ele>2047.9</ele>
        <time>2018-04-21T08:53:37.000Z</time>
      </trkpt>
      <trkpt lat="40.81107" lon="-3.869465">
        <ele>2048.0</ele>
        <time>2018-04-21T08:53:38.000Z</time>
      </trkpt>
      <trkpt lat="40.811063" lon="-3.869474">
        <ele>2048.1</ele>
        <time>2018-04-21T08:53:39.000Z</time>
      </trkpt>
      <trkpt lat="40.811057" lon="-3.869483">
        <ele>2048.2</ele>
        <time>2018-04-21T08:53:40.000Z</time>
      </trkpt>
      <trkpt lat="40.811052" lon="-3.869492">
        <ele>2048.3</ele>
        <time>2018-04-21T08:53:41.000Z</time>
      </trkpt>
      <trkpt lat="40.811047" lon="-3.869502">
        <ele>2048.3</ele>
        <time>2018-04-21T08:53:42.000Z</time>
      </trkpt>
      <trkpt lat="40.811042" lon="-3.869511">
        <ele>2048.4</ele>
        <time>2018-04-21T08:53:43.000Z</time>
      </trkpt>
      <trkpt lat="40.811037" lon="-3.869519">
        <ele>2048.5</ele>
        <time>2018-04-21T08:53:44.000Z</time>
      </trkpt>
      <trkpt lat="40.811031" lon="-3.869527">
        <ele>2048.6</ele>
        <time>2018-04-21T08:53:45.000Z</time>
      </trkpt>
      <trkpt lat="40.811025" lon="-3.869534">
        <ele>2048.7</ele>
        <time>2018-04-21T08:53:46.000Z</time>
      </trkpt>
      <trkpt lat="40.811018" lon="-3.86954">
        <ele>2048.8</ele>
        <time>2018-04-21T08:53:47.000Z</time>
      </trkpt>
      <trkpt lat="40.81101" lon="-3.869546">
        <ele>2048.9</ele>
        <time>2018-04-21T08:53:48.000Z</time>
      </trkpt>
      <trkpt lat="40.811002" lon="-3.869551">
        <ele>2049.0</ele>
        <time>2018-04-21T08:53:49.000Z</time>
      </trkpt>
      <trkpt lat="40.810992" lon="-3.869556">
        <ele>2049.2</ele>
        <time>2018-04-21T08:53:50.000Z</time>
      </trkpt>
      <trkpt lat="40.810983" lon="-3.86956">
        <ele>2049.3</ele>
        <time>2018-04-21T08:53:51.000Z</time>
      </trkpt>
      <trkpt lat="40.810973" lon="-3.869565">
        <ele>2049.4</ele>
        <time>2018-04-21T08:53:52.000Z</time>
      </trkpt>
      <trkpt lat="40.810963" lon="-3.86957">
        <ele>2049.6</ele>
        <time>2018-04-21T08:53:53.000Z</time>
      </trkpt>
      <trkpt lat="40.810953" lon="-3.869575">
        <ele>2049.7</ele>
        <time>2018-04-21T08:53:54.000Z</time>
      </trkpt>
      <trkpt lat="40.810943" lon="-3.869581">
        <ele>2049.9</ele>
        <time>2018-04-21T08:53:55.000Z</time>
      </trkpt>
      <trkpt lat="40.810934" lon="-3.869588">
        <ele>2050.1</ele>
        <time>2018-04-21T08:53:56.000Z</time>
      </trkpt>
      <trkpt lat="40.810924" lon="-3.869596">
        <ele>2050.2</ele>
        <time>2018-04-21T08:53:57.000Z</time>
      </trkpt>
      <trkpt lat="40.810916" lon="-3.869605">
        <ele>2050.4</ele>
        <time>2018-04-21T08:53:58.000Z</time>
      </trkpt>
      <trkpt lat="40.810907" lon="-3.869615">
        <ele>2050.6</ele>
        <time>2018-04-21T08:53:59.000Z</time>
      </trkpt>
      <trkpt lat="40.810899" lon="-3.869625">
        <ele>2050.7</ele>
        <time>2018-04-21T08:54:00.000Z</time>
      </trkpt>
      <trkpt lat="40.810891" lon="-3.869635">
        <ele>2050.9</ele>
        <time>2018-04-21T08:54:01.000Z</time>
      </trkpt>
      <trkpt lat="40.810882" lon="-3.869646">
        <ele>2051.1</ele>
        <time>2018-04-21T08:54:02.000Z</time>
      </trkpt>
      <trkpt lat="40.810874" lon="-3.869656">
        <ele>2051.3</ele>
        <time>2018-04-21T08:54:03.000Z</time>
      </trkpt>
      <trkpt lat="40.810865" lon="-3.869667">
        <ele>2051.5</ele>
        <time>2018-04-21T08:54:04.000Z</time>
      </trkpt>
      <trkpt lat="40.810856" lon="-3.869676">
        <ele>2051.7</ele>
        <time>2018-04-21T08:54:05.000Z</time>
      </trkpt>
      <trkpt lat="40.810846" lon="-3.869685">
        <ele>2051.9</ele>
        <time>2018-04-21T08:54:06.000Z</time>
      </trkpt>
      <trkpt lat="40.810837" lon="-3.869694">
        <ele>2052.1</ele>
        <time>2018-04-21T08:54:07.000Z</time>
      </trkpt>
      <trkpt lat="40.810827" lon="-3.869702">
        <ele>2052.2</ele>
        <time>2018-04-21T08:54:08.000Z</time>
      </trkpt>
      <trkpt lat="40.810817" lon="-3.86971">
        <ele>2052.2</ele>
        <time>2018-04-21T08:54:09.000Z</time>
      </trkpt>
      <trkpt lat="40.810807" lon="-3.869718">
        <ele>2052.1</ele>
        <time>2018-04-21T08:54:10.000Z</time>
      </trkpt>
      <trkpt lat="40.810798" lon="-3.869725">
        <ele>2052.1</ele>
        <time>2018-04-21T08:54:11.000Z</time>
      </trkpt>
      <trkpt lat="40.810789" lon="-3.869732">
        <ele>2052.1</ele>
        <time>2018-04-21T08:54:12.000Z</time>
      </trkpt>
      <trkpt lat="40.810781" lon="-3.86974">
        <ele>2052.1</ele>
        <time>2018-04-21T08:54:13.000Z</time>
      </trkpt>
      <trkpt lat="40.810774" lon="-3.869748">
        <ele>2052.1</ele>
        <time>2018-04-21T08:54:14.000Z</time>
      </trkpt>
      <trkpt lat="40.810768" lon="-3.869756">
        <ele>2052.2</ele>
        <time>2018-04-21T08:54:15.000Z</time>
      </trkpt>
      <trkpt lat="40.810762" lon="-3.869764">
        <ele>2052.2</ele>
        <time>2018-04-21T08:54:16.000Z</time>
      </trkpt>
      <trkpt lat="40.810758" lon="-3.869773">
        <ele>2052.2</ele>
        <time>2018-04-21T08:54:17.000Z</time>
      </trkpt>
      <trkpt lat="40.810754" lon="-3.869782">
        <ele>2052.3</ele>
        <time>2018-04-21T08:54:18.000Z</time>
      </trkpt>
      <trkpt lat="40.81075" lon="-3.869791">
        <ele>2052.3</ele>
        <time>2018-04-21T08:54:19.000Z</time>
      </trkpt>
      <trkpt lat="40.810746" lon="-3.8698">
        <ele>2052.3</ele>
        <time>2018-04-21T08:54:20.000Z</time>
      </trkpt>
      <trkpt lat="40.810742" lon="-3.86981">
        <ele>2052.4</ele>
        <time>2018-04-21T08:54:21.000Z</time>
      </trkpt>
      <trkpt lat="40.810737" lon="-3.86982">
        <ele>2052.4</ele>
        <time>2018-04-21T08:54:22.000Z</time>
      </trkpt>
      <trkpt lat="40.810732" lon="-3.86983">
        <ele>2052.5</ele>
        <time>2018-04-21T08:54:23.000Z</time>
      </trkpt>
      <trkpt lat="40.810726" lon="-3.86984">
        <ele>2052.5</ele>
        <time>2018-04-21T08:54:24.000Z</time>
      </trkpt>
      <trkpt lat="40.81072" lon="-3.869851">
        <ele>2052.6</ele>
        <time>2018-04-21T08:54:25.000Z</time>
      </trkpt>
      <trkpt lat="40.810713" lon="-3.869862">
        <ele>2052.6</ele>
        <time>2018-04-21T08:54:26.000Z</time>
      </trkpt>
      <trkpt lat="40.810705" lon="-3.869873">
        <ele>2052.6</ele>
        <time>2018-04-21T08:54:27.000Z</time>
      </trkpt>
      <trkpt lat="40.810698" lon="-3.869884">
        <ele>2052.7</ele>
        <time>2018-04-21T08:54:28.000Z</time>
      </trkpt>
      <trkpt lat="40.81069" lon="-3.869895">
        <ele>2052.7</ele>
        <time>2018-04-21T08:54:29.000Z</time>
      </trkpt>
      <trkpt lat="40.810682" lon="-3.869906">
        <ele>2052.8</ele>
        <time>2018-04-21T08:54:30.000Z</time>
      </trkpt>
      <trkpt lat="40.810674" lon="-3.869918">
        <ele>2052.8</ele>
        <time>2018-04-21T08:54:31.000Z</time>
      </trkpt>
      <trkpt lat="40.810666" lon="-3.869929">
        <ele>2052.9</ele>
        <time>2018-04-21T08:54:32.000Z</time>
      </trkpt>
      <trkpt lat="40.810658" lon="-3.86994">
        <ele>2052.9</ele>
        <time>2018-04-21T08:54:33.000Z</time>
      </trkpt>
      <trkpt lat="40.810651" lon="-3.869951">
        <ele>2053.0</ele>
        <time>2018-04-21T08:54:34.000Z</time>
      </trkpt>
      <trkpt lat="40.810644" lon="-3.869962">
        <ele>2053.0</ele>
        <time>2018-04-21T08:54:35.000Z</time>
      </trkpt>
      <trkpt lat="40.810636" lon="-3.869973">
        <ele>2053.1</ele>
        <time>2018-04-21T08:54:36.000Z</time>
      </trkpt>
      <trkpt lat="40.810628" lon="-3.869982">
        <ele>2053.1</ele>
        <time>2018-04-21T08:54:37.000Z</time>
      </trkpt>
      <trkpt lat="40.810619" lon="-3.869991">
        <ele>2053.2</ele>
        <time>2018-04-21T08:54:38.000Z</time>
      </trkpt>
      <trkpt lat="40.81061" lon="-3.87">
        <ele>2053.2</ele>
        <time>2018-04-21T08:54:39.000Z</time>
      </trkpt>
      <trkpt lat="40.8106" lon="-3.870009">
        <ele>2053.1</ele>
        <time>2018-04-21T08:54:40.000Z</time>
      </trkpt>
      <trkpt lat="40.810589" lon="-3.870018">
        <ele>2053.1</ele>
        <time>2018-04-21T08:54:41.000Z</time>
      </trkpt>
      <trkpt lat="40.810579" lon="-3.870027">
        <ele>2053.0</ele>
        <time>2018-04-21T08:54:42.000Z</time>
      </trkpt>
      <trkpt lat="40.810568" lon="-3.870037">
        <ele>2052.9</ele>
        <time>2018-04-21T08:54:43.000Z</time>
      </trkpt>
      <trkpt lat="40.810557" lon="-3.870048">
        <ele>2052.9</ele>
        <time>2018-04-21T08:54:44.000Z</time>
      </trkpt>
      <trkpt lat="40.810546" lon="-3.870059">
        <ele>2052.8</ele>
        <time>2018-04-21T08:54:45.000Z</time>
      </trkpt>
      <trkpt lat="40.810534" lon="-3.87007">
        <ele>2052.8</ele>
        <time>2018-04-21T08:54:46.000Z</time>
      </trkpt>
      <trkpt lat="40.810523" lon="-3.870082">
        <ele>2052.7</ele>
        <time>2018-04-21T08:54:47.000Z</time>
      </trkpt>
      <trkpt lat="40.810512" lon="-3.870094">
        <ele>2052.7</ele>
        <time>2018-04-21T08:54:48.000Z</time>
      </trkpt>
      <trkpt lat="40.8105" lon="-3.870106">
        <ele>2052.7</ele>
        <time>2018-04-21T08:54:49.000Z</time>
      </trkpt>
      <trkpt lat="40.810489" lon="-3.870118">
        <ele>2052.6</ele>
        <time>2018-04-21T08:54:50.000Z</time>
      </trkpt>
      <trkpt lat="40.810477" lon="-3.87013">
        <ele>2052.6</ele>
        <time>2018-04-21T08:54:51.000Z</time>
      </trkpt>
      <trkpt lat="40.810466" lon="-3.870142">
        <ele>2052.6</ele>
        <time>2018-04-21T08:54:52.000Z</time>
      </trkpt>
      <trkpt lat="40.810456" lon="-3.870154">
        <ele>2052.6</ele>
        <time>2018-04-21T08:54:53.000Z</time>
      </trkpt>
      <trkpt lat="40.810445" lon="-3.870165">
        <ele>2052.6</ele>
        <time>2018-04-21T08:54:54.000Z</time>
      </trkpt>
      <trkpt lat="40.810435" lon="-3.870177">
        <ele>2052.6</ele>
        <time>2018-04-21T08:54:55.000Z</time>
      </trkpt>
      <trkpt lat="40.810425" lon="-3.870188">
        <ele>2052.6</ele>
        <time>2018-04-21T08:54:56.000Z</time>
      </trkpt>
      <trkpt lat="40.810415" lon="-3.870198">
        <ele>2052.6</ele>
        <time>2018-04-21T08:54:57.000Z</time>
      </trkpt>
      <trkpt lat="40.810406" lon="-3.870208">
        <ele>2052.6</ele>
        <time>2018-04-21T08:54:58.000Z</time>
      </trkpt>
      <trkpt lat="40.810397" lon="-3.870218">
        <ele>2052.7</ele>
        <time>2018-04-21T08:54:59.000Z</time>
      </trkpt>
      <trkpt lat="40.810389" lon="-3.870227">
        <ele>2052.7</ele>
        <time>2018-04-21T08:55:00.000Z</time>
      </trkpt>
      <trkpt lat="40.810382" lon="-3.870236">
        <ele>2052.7</ele>
        <time>2018-04-21T08:55:01.000Z</time>
      </trkpt>
      <trkpt lat="40.810375" lon="-3.870244">
        <ele>2052.7</ele>
        <time>2018-04-21T08:55:02.000Z</time>
      </trkpt>
      <trkpt lat="40.810368" lon="-3.870252">
        <ele>2052.7</ele>
        <time>2018-04-21T08:55:03.000Z</time>
      </trkpt>
      <trkpt lat="40.810363" lon="-3.870261">
        <ele>2052.8</ele>
        <time>2018-04-21T08:55:04.000Z</time>
      </trkpt>
      <trkpt lat="40.810357" lon="-3.87027">
        <ele>2052.8</ele>
        <time>2018-04-21T08:55:05.000Z</time>
      </trkpt>
      <trkpt lat="40.810352" lon="-3.87028">
        <ele>2052.8</ele>
        <time>2018-04-21T08:55:06.000Z</time>
      </trkpt>
      <trkpt lat="40.810347" lon="-3.87029">
        <ele>2052.9</ele>
        <time>2018-04-21T08:55:07.000Z</time>
      </trkpt>
      <trkpt lat="40.810342" lon="-3.8703">
        <ele>2052.9</ele>
        <time>2018-04-21T08:55:08.000Z</time>
      </trkpt>
      <trkpt lat="40.810336" lon="-3.870312">
        <ele>2052.9</ele>
        <time>2018-04-21T08:55:09.000Z</time>
      </trkpt>
      <trkpt lat="40.81033" lon="-3.870323">
        <ele>2053.0</ele>
        <time>2018-04-21T08:55:10.000Z</time>
      </trkpt>
      <trkpt lat="40.810323" lon="-3.870335">
        <ele>2053.0</ele>
        <time>2018-04-21T08:55:11.000Z</time>
      </trkpt>
      <trkpt lat="40.810316" lon="-3.870347">
        <ele>2053.1</ele>
        <time>2018-04-21T08:55:12.000Z</time>
      </trkpt>
      <trkpt lat="40.810308" lon="-3.870359">
        <ele>2053.2</ele>
        <time>2018-04-21T08:55:13.000Z</time>
      </trkpt>
      <trkpt lat="40.810301" lon="-3.870371">
        <ele>2053.2</ele>
        <time>2018-04-21T08:55:14.000Z</time>
      </trkpt>
      <trkpt lat="40.810293" lon="-3.870384">
        <ele>2053.3</ele>
        <time>2018-04-21T08:55:15.000Z</time>
      </trkpt>
      <trkpt lat="40.810286" lon="-3.870396">
        <ele>2053.4</ele>
        <time>2018-04-21T08:55:16.000Z</time>
      </trkpt>
      <trkpt lat="40.810278" lon="-3.870408">
        <ele>2053.5</ele>
        <time>2018-04-21T08:55:17.000Z</time>
      </trkpt>
      <trkpt lat="40.810271" lon="-3.870421">
        <ele>2053.6</ele>
        <time>2018-04-21T08:55:18.000Z</time>
      </trkpt>
      <trkpt lat="40.810263" lon="-3.870433">
        <ele>2053.6</ele>
        <time>2018-04-21T08:55:19.000Z</time>
      </trkpt>
      <trkpt lat="40.810256" lon="-3.870444">
        <ele>2053.7</ele>
        <time>2018-04-21T08:55:20.000Z</time>
      </trkpt>
      <trkpt lat="40.810249" lon="-3.870456">
        <ele>2053.8</ele>
        <time>2018-04-21T08:55:21.000Z</time>
      </trkpt>
      <trkpt lat="40.810242" lon="-3.870468">
        <ele>2053.9</ele>
        <time>2018-04-21T08:55:22.000Z</time>
      </trkpt>
      <trkpt lat="40.810235" lon="-3.870481">
        <ele>2054.0</ele>
        <time>2018-04-21T08:55:23.000Z</time>
      </trkpt>
      <trkpt lat="40.810229" lon="-3.870493">
        <ele>2054.1</ele>
        <time>2018-04-21T08:55:24.000Z</time>
      </trkpt>
      <trkpt lat="40.810222" lon="-3.870505">
        <ele>2054.2</ele>
        <time>2018-04-21T08:55:25.000Z</time>
      </trkpt>
      <trkpt lat="40.810215" lon="-3.870518">
        <ele>2054.3</ele>
        <time>2018-04-21T08:55:26.000Z</time>
      </trkpt>
      <trkpt lat="40.810209" lon="-3.870532">
        <ele>2054.5</ele>
        <time>2018-04-21T08:55:27.000Z</time>
      </trkpt>
      <trkpt lat="40.810202" lon="-3.870545">
        <ele>2054.6</ele>
        <time>2018-04-21T08:55:28.000Z</time>
      </trkpt>
      <trkpt lat="40.810195" lon="-3.870559">
        <ele>2054.7</ele>
        <time>2018-04-21T08:55:29.000Z</time>
      </trkpt>
      <trkpt lat="40.810188" lon="-3.870572">
        <ele>2054.8</ele>
        <time>2018-04-21T08:55:30.000Z</time>
      </trkpt>
      <trkpt lat="40.810181" lon="-3.870585">
        <ele>2055.0</ele>
        <time>2018-04-21T08:55:31.000Z</time>
      </trkpt>
      <trkpt lat="40.810174" lon="-3.870598">
        <ele>2055.1</ele>
        <time>2018-04-21T08:55:32.000Z</time>
      </trkpt>
      <trkpt lat="40.810167" lon="-3.870611">
        <ele>2055.3</ele>
        <time>2018-04-21T08:55:33.000Z</time>
      </trkpt>
      <trkpt lat="40.810159" lon="-3.870623">
        <ele>2055.4</ele>
        <time>2018-04-21T08:55:34.000Z</time>
      </trkpt>
      <trkpt lat="40.810151" lon="-3.870634">
        <ele>2055.6</ele>
        <time>2018-04-21T08:55:35.000Z</time>
      </trkpt>
      <trkpt lat="40.810142" lon="-3.870644">
        <ele>2055.7</ele>
        <time>2018-04-21T08:55:36.000Z</time>
      </trkpt>
      <trkpt lat="40.810134" lon="-3.870654">
        <ele>2055.9</ele>
        <time>2018-04-21T08:55:37.000Z</time>
      </trkpt>
      <trkpt lat="40.810125" lon="-3.870663">
        <ele>2056.0</ele>
        <time>2018-04-21T08:55:38.000Z</time>
      </trkpt>
      <trkpt lat="40.810116" lon="-3.870671">
        <ele>2056.2</ele>
        <time>2018-04-21T08:55:39.000Z</time>
      </trkpt>
      <trkpt lat="40.810107" lon="-3.870679">
        <ele>2056.3</ele>
        <time>2018-04-21T08:55:40.000Z</time>
      </trkpt>
      <trkpt lat="40.810098" lon="-3.870687">
        <ele>2056.5</ele>
        <time>2018-04-21T08:55:41.000Z</time>
      </trkpt>
      <trkpt lat="40.810089" lon="-3.870695">
        <ele>2056.7</ele>
        <time>2018-04-21T08:55:42.000Z</time>
      </trkpt>
      <trkpt lat="40.81008" lon="-3.870703">
        <ele>2056.8</ele>
        <time>2018-04-21T08:55:43.000Z</time>
      </trkpt>
      <trkpt lat="40.810072" lon="-3.870711">
        <ele>2057.0</ele>
        <time>2018-04-21T08:55:44.000Z</time>
      </trkpt>
      <trkpt lat="40.810065" lon="-3.87072">
        <ele>2057.1</ele>
        <time>2018-04-21T08:55:45.000Z</time>
      </trkpt>
      <trkpt lat="40.810057" lon="-3.870728">
        <ele>2057.3</ele>
        <time>2018-04-21T08:55:46.000Z</time>
      </trkpt>
      <trkpt lat="40.810051" lon="-3.870738">
        <ele>2057.5</ele>
        <time>2018-04-21T08:55:47.000Z</time>
      </trkpt>
      <trkpt lat="40.810044" lon="-3.870748">
        <ele>2057.6</ele>
        <time>2018-04-21T08:55:48.000Z</time>
      </trkpt>
      <trkpt lat="40.810039" lon="-3.870758">
        <ele>2057.8</ele>
        <time>2018-04-21T08:55:49.000Z</time>
      </trkpt>
      <trkpt lat="40.810033" lon="-3.870768">
        <ele>2057.9</ele>
        <time>2018-04-21T08:55:50.000Z</time>
      </trkpt>
      <trkpt lat="40.810028" lon="-3.870779">
        <ele>2058.1</ele>
        <time>2018-04-21T08:55:51.000Z</time>
      </trkpt>
      <trkpt lat="40.810023" lon="-3.87079">
        <ele>2058.3</ele>
        <time>2018-04-21T08:55:52.000Z</time>
      </trkpt>
      <trkpt lat="40.810018" lon="-3.870801">
        <ele>2058.4</ele>
        <time>2018-04-21T08:55:53.000Z</time>
      </trkpt>
      <trkpt lat="40.810014" lon="-3.870812">
        <ele>2058.6</ele>
        <time>2018-04-21T08:55:54.000Z</time>
      </trkpt>
      <trkpt lat="40.810009" lon="-3.870824">
        <ele>2058.8</ele>
        <time>2018-04-21T08:55:55.000Z</time>
      </trkpt>
      <trkpt lat="40.810005" lon="-3.870835">
        <ele>2058.9</ele>
        <time>2018-04-21T08:55:56.000Z</time>
      </trkpt>
      <trkpt lat="40.810001" lon="-3.870846">
        <ele>2059.1</ele>
        <time>2018-04-21T08:55:57.000Z</time>
      </trkpt>
      <trkpt lat="40.809997" lon="-3.870857">
        <ele>2059.2</ele>
        <time>2018-04-21T08:55:58.000Z</time>
      </trkpt>
      <trkpt lat="40.809993" lon="-3.870868">
        <ele>2059.3</ele>
        <time>2018-04-21T08:55:59.000Z</time>
      </trkpt>
      <trkpt lat="40.80999" lon="-3.870879">
        <ele>2059.4</ele>
        <time>2018-04-21T08:56:00.000Z</time>
      </trkpt>
      <trkpt lat="40.809986" lon="-3.87089">
        <ele>2059.4</ele>
        <time>2018-04-21T08:56:01.000Z</time>
      </trkpt>
      <trkpt lat="40.809983" lon="-3.8709">
        <ele>2059.5</ele>
        <time>2018-04-21T08:56:02.000Z</time>
      </trkpt>
      <trkpt lat="40.80998" lon="-3.87091">
        <ele>2059.6</ele>
        <time>2018-04-21T08:56:03.000Z</time>
      </trkpt>
      <trkpt lat="40.809977" lon="-3.87092">
        <ele>2059.7</ele>
        <time>2018-04-21T08:56:04.000Z</time>
      </trkpt>
      <trkpt lat="40.809975" lon="-3.87093">
        <ele>2059.7</ele>
        <time>2018-04-21T08:56:05.000Z</time>
      </trkpt>
      <trkpt lat="40.809973" lon="-3.870939">
        <ele>2059.8</ele>
        <time>2018-04-21T08:56:06.000Z</time>
      </trkpt>
      <trkpt lat="40.80997" lon="-3.870948">
        <ele>2059.9</ele>
        <time>2018-04-21T08:56:07.000Z</time>
      </trkpt>
      <trkpt lat="40.809968" lon="-3.870957">
        <ele>2059.9</ele>
        <time>2018-04-21T08:56:08.000Z</time>
      </trkpt>
      <trkpt lat="40.809966" lon="-3.870966">
        <ele>2060.0</ele>
        <time>2018-04-21T08:56:09.000Z</time>
      </trkpt>
      <trkpt lat="40.809963" lon="-3.870975">
        <ele>2060.1</ele>
        <time>2018-04-21T08:56:10.000Z</time>
      </trkpt>
      <trkpt lat="40.809961" lon="-3.870984">
        <ele>2060.2</ele>
        <time>2018-04-21T08:56:11.000Z</time>
      </trkpt>
      <trkpt lat="40.809958" lon="-3.870993">
        <ele>2060.2</ele>
        <time>2018-04-21T08:56:12.000Z</time>
      </trkpt>
      <trkpt lat="40.809955" lon="-3.871003">
        <ele>2060.3</ele>
        <time>2018-04-21T08:56:13.000Z</time>
      </trkpt>
      <trkpt lat="40.809952" lon="-3.871012">
        <ele>2060.4</ele>
        <time>2018-04-21T08:56:14.000Z</time>
      </trkpt>
      <trkpt lat="40.809948" lon="-3.871022">
        <ele>2060.4</ele>
        <time>2018-04-21T08:56:15.000Z</time>
      </trkpt>
      <trkpt lat="40.809945" lon="-3.871032">
        <ele>2060.5</ele>
        <time>2018-04-21T08:56:16.000Z</time>
      </trkpt>
      <trkpt lat="40.809941" lon="-3.871042">
        <ele>2060.6</ele>
        <time>2018-04-21T08:56:17.000Z</time>
      </trkpt>
      <trkpt lat="40.809937" lon="-3.871052">
        <ele>2060.7</ele>
        <time>2018-04-21T08:56:18.000Z</time>
      </trkpt>
      <trkpt lat="40.809934" lon="-3.871062">
        <ele>2060.7</ele>
        <time>2018-04-21T08:56:19.000Z</time>
      </trkpt>
      <trkpt lat="40.80993" lon="-3.871072">
        <ele>2060.8</ele>
        <time>2018-04-21T08:56:20.000Z</time>
      </trkpt>
      <trkpt lat="40.809926" lon="-3.871083">
        <ele>2060.9</ele>
        <time>2018-04-21T08:56:21.000Z</time>
      </trkpt>
      <trkpt lat="40.809922" lon="-3.871093">
        <ele>2061.0</ele>
        <time>2018-04-21T08:56:22.000Z</time>
      </trkpt>
      <trkpt lat="40.809919" lon="-3.871104">
        <ele>2061.1</ele>
        <time>2018-04-21T08:56:23.000Z</time>
      </trkpt>
      <trkpt lat="40.809915" lon="-3.871115">
        <ele>2061.2</ele>
        <time>2018-04-21T08:56:24.000Z</time>
      </trkpt>
      <trkpt lat="40.809912" lon="-3.871126">
        <ele>2061.3</ele>
        <time>2018-04-21T08:56:25.000Z</time>
      </trkpt>
      <trkpt lat="40.809909" lon="-3.871137">
        <ele>2061.3</ele>
        <time>2018-04-21T08:56:26.000Z</time>
      </trkpt>
      <trkpt lat="40.809906" lon="-3.871148">
        <ele>2061.4</ele>
        <time>2018-04-21T08:56:27.000Z</time>
      </trkpt>
      <trkpt lat="40.809904" lon="-3.871159">
        <ele>2061.5</ele>
        <time>2018-04-21T08:56:28.000Z</time>
      </trkpt>
      <trkpt lat="40.809902" lon="-3.87117">
        <ele>2061.6</ele>
        <time>2018-04-21T08:56:29.000Z</time>
      </trkpt>
      <trkpt lat="40.8099" lon="-3.871181">
        <ele>2061.7</ele>
        <time>2018-04-21T08:56:30.000Z</time>
      </trkpt>
      <trkpt lat="40.809898" lon="-3.871192">
        <ele>2061.8</ele>
        <time>2018-04-21T08:56:31.000Z</time>
      </trkpt>
      <trkpt lat="40.809897" lon="-3.871204">
        <ele>2062.0</ele>
        <time>2018-04-21T08:56:32.000Z</time>
      </trkpt>
      <trkpt lat="40.809896" lon="-3.871215">
        <ele>2062.1</ele>
        <time>2018-04-21T08:56:33.000Z</time>
      </trkpt>
      <trkpt lat="40.809895" lon="-3.871226">
        <ele>2062.2</ele>
        <time>2018-04-21T08:56:34.000Z</time>
      </trkpt>
      <trkpt lat="40.809895" lon="-3.871237">
        <ele>2062.3</ele>
        <time>2018-04-21T08:56:35.000Z</time>
      </trkpt>
      <trkpt lat="40.809894" lon="-3.871249">
        <ele>2062.4</ele>
        <time>2018-04-21T08:56:36.000Z</time>
      </trkpt>
      <trkpt lat="40.809894" lon="-3.87126">
        <ele>2062.5</ele>
        <time>2018-04-21T08:56:37.000Z</time>
      </trkpt>
      <trkpt lat="40.809893" lon="-3.871271">
        <ele>2062.6</ele>
        <time>2018-04-21T08:56:38.000Z</time>
      </trkpt>
      <trkpt lat="40.809893" lon="-3.871282">
        <ele>2062.8</ele>
        <time>2018-04-21T08:56:39.000Z</time>
      </trkpt>
      <trkpt lat="40.809893" lon="-3.871293">
        <ele>2062.9</ele>
        <time>2018-04-21T08:56:40.000Z</time>
      </trkpt>
      <trkpt lat="40.809892" lon="-3.871304">
        <ele>2063.0</ele>
        <time>2018-04-21T08:56:41.000Z</time>
      </trkpt>
      <trkpt lat="40.809891" lon="-3.871315">
        <ele>2063.1</ele>
        <time>2018-04-21T08:56:42.000Z</time>
      </trkpt>
      <trkpt lat="40.809891" lon="-3.871326">
        <ele>2063.2</ele>
        <time>2018-04-21T08:56:43.000Z</time>
      </trkpt>
      <trkpt lat="40.809889" lon="-3.871336">
        <ele>2063.3</ele>
        <time>2018-04-21T08:56:44.000Z</time>
      </trkpt>
      <trkpt lat="40.809888" lon="-3.871347">
        <ele>2063.4</ele>
        <time>2018-04-21T08:56:45.000Z</time>
      </trkpt>
      <trkpt lat="40.809886" lon="-3.871357">
        <ele>2063.5</ele>
        <time>2018-04-21T08:56:46.000Z</time>
      </trkpt>
      <trkpt lat="40.809884" lon="-3.871368">
        <ele>2063.6</ele>
        <time>2018-04-21T08:56:47.000Z</time>
      </trkpt>
      <trkpt lat="40.809881" lon="-3.871378">
        <ele>2063.7</ele>
        <time>2018-04-21T08:56:48.000Z</time>
      </trkpt>
      <trkpt lat="40.809878" lon="-3.871388">
        <ele>2063.8</ele>
        <time>2018-04-21T08:56:49.000Z</time>
      </trkpt>
      <trkpt lat="40.809874" lon="-3.871398">
        <ele>2063.9</ele>
        <time>2018-04-21T08:56:50.000Z</time>
      </trkpt>
      <trkpt lat="40.80987" lon="-3.871408">
        <ele>2064.0</ele>
        <time>2018-04-21T08:56:51.000Z</time>
      </trkpt>
      <trkpt lat="40.809866" lon="-3.871418">
        <ele>2064.1</ele>
        <time>2018-04-21T08:56:52.000Z</time>
      </trkpt>
      <trkpt lat="40.809861" lon="-3.871428">
        <ele>2064.1</ele>
        <time>2018-04-21T08:56:53.000Z</time>
      </trkpt>
      <trkpt lat="40.809857" lon="-3.871439">
        <ele>2064.2</ele>
        <time>2018-04-21T08:56:54.000Z</time>
      </trkpt>
      <trkpt lat="40.809854" lon="-3.871449">
        <ele>2064.3</ele>
        <time>2018-04-21T08:56:55.000Z</time>
      </trkpt>
      <trkpt lat="40.809851" lon="-3.87146">
        <ele>2064.4</ele>
        <time>2018-04-21T08:56:56.000Z</time>
      </trkpt>
      <trkpt lat="40.80985" lon="-3.871471">
        <ele>2064.6</ele>
        <time>2018-04-21T08:56:57.000Z</time>
      </trkpt>
      <trkpt lat="40.809852" lon="-3.871482">
        <ele>2064.7</ele>
        <time>2018-04-21T08:56:58.000Z</time>
      </trkpt>
      <trkpt lat="40.809855" lon="-3.871493">
        <ele>2064.8</ele>
        <time>2018-04-21T08:56:59.000Z</time>
      </trkpt>
      <trkpt lat="40.809858" lon="-3.871503">
        <ele>2064.9</ele>
        <time>2018-04-21T08:57:00.000Z</time>
      </trkpt>
      <trkpt lat="40.809861" lon="-3.871513">
        <ele>2065.0</ele>
        <time>2018-04-21T08:57:01.000Z</time>
      </trkpt>
      <trkpt lat="40.809863" lon="-3.871522">
        <ele>2065.1</ele>
        <time>2018-04-21T08:57:02.000Z</time>
      </trkpt>
      <trkpt lat="40.809863" lon="-3.87153">
        <ele>2065.2</ele>
        <time>2018-04-21T08:57:03.000Z</time>
      </trkpt>
      <trkpt lat="40.809861" lon="-3.871537">
        <ele>2065.3</ele>
        <time>2018-04-21T08:57:04.000Z</time>
      </trkpt>
      <trkpt lat="40.809857" lon="-3.871544">
        <ele>2065.4</ele>
        <time>2018-04-21T08:57:05.000Z</time>
      </trkpt>
      <trkpt lat="40.809853" lon="-3.871551">
        <ele>2065.4</ele>
        <time>2018-04-21T08:57:06.000Z</time>
      </trkpt>
      <trkpt lat="40.809848" lon="-3.871558">
        <ele>2065.5</ele>
        <time>2018-04-21T08:57:07.000Z</time>
      </trkpt>
      <trkpt lat="40.809842" lon="-3.871566">
        <ele>2065.5</ele>
        <time>2018-04-21T08:57:08.000Z</time>
      </trkpt>
      <trkpt lat="40.809836" lon="-3.871574">
        <ele>2065.6</ele>
        <time>2018-04-21T08:57:09.000Z</time>
      </trkpt>
      <trkpt lat="40.80983" lon="-3.871583">
        <ele>2065.7</ele>
        <time>2018-04-21T08:57:10.000Z</time>
      </trkpt>
      <trkpt lat="40.809824" lon="-3.871592">
        <ele>2065.8</ele>
        <time>2018-04-21T08:57:11.000Z</time>
      </trkpt>
      <trkpt lat="40.809819" lon="-3.871601">
        <ele>2065.8</ele>
        <time>2018-04-21T08:57:12.000Z</time>
      </trkpt>
      <trkpt lat="40.809814" lon="-3.871612">
        <ele>2066.0</ele>
        <time>2018-04-21T08:57:13.000Z</time>
      </trkpt>
      <trkpt lat="40.80981" lon="-3.871623">
        <ele>2066.1</ele>
        <time>2018-04-21T08:57:14.000Z</time>
      </trkpt>
      <trkpt lat="40.809807" lon="-3.871634">
        <ele>2066.2</ele>
        <time>2018-04-21T08:57:15.000Z</time>
      </trkpt>
      <trkpt lat="40.809805" lon="-3.871647">
        <ele>2066.3</ele>
        <time>2018-04-21T08:57:16.000Z</time>
      </trkpt>
      <trkpt lat="40.809804" lon="-3.87166">
        <ele>2066.5</ele>
        <time>2018-04-21T08:57:17.000Z</time>
      </trkpt>
      <trkpt lat="40.809804" lon="-3.871673">
        <ele>2066.6</ele>
        <time>2018-04-21T08:57:18.000Z</time>
      </trkpt>
      <trkpt lat="40.809805" lon="-3.871687">
        <ele>2066.7</ele>
        <time>2018-04-21T08:57:19.000Z</time>
      </trkpt>
      <trkpt lat="40.809806" lon="-3.8717">
        <ele>2066.8</ele>
        <time>2018-04-21T08:57:20.000Z</time>
      </trkpt>
      <trkpt lat="40.809807" lon="-3.871714">
        <ele>2067.0</ele>
        <time>2018-04-21T08:57:21.000Z</time>
      </trkpt>
      <trkpt lat="40.809808" lon="-3.871727">
        <ele>2067.1</ele>
        <time>2018-04-21T08:57:22.000Z</time>
      </trkpt>
      <trkpt lat="40.809809" lon="-3.87174">
        <ele>2067.2</ele>
        <time>2018-04-21T08:57:23.000Z</time>
      </trkpt>
      <trkpt lat="40.809809" lon="-3.871753">
        <ele>2067.3</ele>
        <time>2018-04-21T08:57:24.000Z</time>
      </trkpt>
      <trkpt lat="40.809809" lon="-3.871765">
        <ele>2067.4</ele>
        <time>2018-04-21T08:57:25.000Z</time>
      </trkpt>
      <trkpt lat="40.809807" lon="-3.871777">
        <ele>2067.5</ele>
        <time>2018-04-21T08:57:26.000Z</time>
      </trkpt>
      <trkpt lat="40.809805" lon="-3.871788">
        <ele>2067.6</ele>
        <time>2018-04-21T08:57:27.000Z</time>
      </trkpt>
      <trkpt lat="40.809803" lon="-3.871798">
        <ele>2067.7</ele>
        <time>2018-04-21T08:57:28.000Z</time>
      </trkpt>
      <trkpt lat="40.8098" lon="-3.871809">
        <ele>2067.8</ele>
        <time>2018-04-21T08:57:29.000Z</time>
      </trkpt>
      <trkpt lat="40.809797" lon="-3.871818">
        <ele>2067.9</ele>
        <time>2018-04-21T08:57:30.000Z</time>
      </trkpt>
      <trkpt lat="40.809793" lon="-3.871828">
        <ele>2068.0</ele>
        <time>2018-04-21T08:57:31.000Z</time>
      </trkpt>
      <trkpt lat="40.80979" lon="-3.871837">
        <ele>2068.0</ele>
        <time>2018-04-21T08:57:32.000Z</time>
      </trkpt>
      <trkpt lat="40.809787" lon="-3.871846">
        <ele>2068.1</ele>
        <time>2018-04-21T08:57:33.000Z</time>
      </trkpt>
      <trkpt lat="40.809784" lon="-3.871855">
        <ele>2068.2</ele>
        <time>2018-04-21T08:57:34.000Z</time>
      </trkpt>
      <trkpt lat="40.809781" lon="-3.871864">
        <ele>2068.3</ele>
        <time>2018-04-21T08:57:35.000Z</time>
      </trkpt>
      <trkpt lat="40.809778" lon="-3.871873">
        <ele>2068.3</ele>
        <time>2018-04-21T08:57:36.000Z</time>
      </trkpt>
      <trkpt lat="40.809775" lon="-3.871882">
        <ele>2068.4</ele>
        <time>2018-04-21T08:57:37.000Z</time>
      </trkpt>
      <trkpt lat="40.809773" lon="-3.871891">
        <ele>2068.5</ele>
        <time>2018-04-21T08:57:38.000Z</time>
      </trkpt>
      <trkpt lat="40.809771" lon="-3.8719">
        <ele>2068.6</ele>
        <time>2018-04-21T08:57:39.000Z</time>
      </trkpt>
      <trkpt lat="40.809769" lon="-3.87191">
        <ele>2068.7</ele>
        <time>2018-04-21T08:57:40.000Z</time>
      </trkpt>
      <trkpt lat="40.809767" lon="-3.87192">
        <ele>2068.8</ele>
        <time>2018-04-21T08:57:41.000Z</time>
      </trkpt>
      <trkpt lat="40.809765" lon="-3.87193">
        <ele>2068.9</ele>
        <time>2018-04-21T08:57:42.000Z</time>
      </trkpt>
      <trkpt lat="40.809764" lon="-3.87194">
        <ele>2069.0</ele>
        <time>2018-04-21T08:57:43.000Z</time>
      </trkpt>
      <trkpt lat="40.809763" lon="-3.871951">
        <ele>2069.1</ele>
        <time>2018-04-21T08:57:44.000Z</time>
      </trkpt>
      <trkpt lat="40.809762" lon="-3.871963">
        <ele>2069.2</ele>
        <time>2018-04-21T08:57:45.000Z</time>
      </trkpt>
      <trkpt lat="40.809761" lon="-3.871974">
        <ele>2069.3</ele>
        <time>2018-04-21T08:57:46.000Z</time>
      </trkpt>
      <trkpt lat="40.80976" lon="-3.871986">
        <ele>2069.4</ele>
        <time>2018-04-21T08:57:47.000Z</time>
      </trkpt>
      <trkpt lat="40.809758" lon="-3.871998">
        <ele>2069.5</ele>
        <time>2018-04-21T08:57:48.000Z</time>
      </trkpt>
      <trkpt lat="40.809756" lon="-3.87201">
        <ele>2069.6</ele>
        <time>2018-04-21T08:57:49.000Z</time>
      </trkpt>
      <trkpt lat="40.809754" lon="-3.872022">
        <ele>2069.7</ele>
        <time>2018-04-21T08:57:50.000Z</time>
      </trkpt>
      <trkpt lat="40.809751" lon="-3.872034">
        <ele>2069.8</ele>
        <time>2018-04-21T08:57:51.000Z</time>
      </trkpt>
      <trkpt lat="40.809747" lon="-3.872046">
        <ele>2070.0</ele>
        <time>2018-04-21T08:57:52.000Z</time>
      </trkpt>
      <trkpt lat="40.809742" lon="-3.872058">
        <ele>2070.1</ele>
        <time>2018-04-21T08:57:53.000Z</time>
      </trkpt>
      <trkpt lat="40.809737" lon="-3.872069">
        <ele>2070.2</ele>
        <time>2018-04-21T08:57:54.000Z</time>
      </trkpt>
      <trkpt lat="40.809732" lon="-3.872081">
        <ele>2070.3</ele>
        <time>2018-04-21T08:57:55.000Z</time>
      </trkpt>
      <trkpt lat="40.809726" lon="-3.872093">
        <ele>2070.4</ele>
        <time>2018-04-21T08:57:56.000Z</time>
      </trkpt>
      <trkpt lat="40.80972" lon="-3.872104">
        <ele>2070.5</ele>
        <time>2018-04-21T08:57:57.000Z</time>
      </trkpt>
      <trkpt lat="40.809713" lon="-3.872116">
        <ele>2070.7</ele>
        <time>2018-04-21T08:57:58.000Z</time>
      </trkpt>
      <trkpt lat="40.809706" lon="-3.872128">
        <ele>2070.8</ele>
        <time>2018-04-21T08:57:59.000Z</time>
      </trkpt>
      <trkpt lat="40.809699" lon="-3.872139">
        <ele>2070.9</ele>
        <time>2018-04-21T08:58:00.000Z</time>
      </trkpt>
      <trkpt lat="40.809692" lon="-3.872151">
        <ele>2071.0</ele>
        <time>2018-04-21T08:58:01.000Z</time>
      </trkpt>
      <trkpt lat="40.809685" lon="-3.872163">
        <ele>2071.2</ele>
        <time>2018-04-21T08:58:02.000Z</time>
      </trkpt>
      <trkpt lat="40.809679" lon="-3.872174">
        <ele>2071.3</ele>
        <time>2018-04-21T08:58:03.000Z</time>
      </trkpt>
      <trkpt lat="40.809672" lon="-3.872185">
        <ele>2071.4</ele>
        <time>2018-04-21T08:58:04.000Z</time>
      </trkpt>
      <trkpt lat="40.809667" lon="-3.872196">
        <ele>2071.5</ele>
        <time>2018-04-21T08:58:05.000Z</time>
      </trkpt>
      <trkpt lat="40.809661" lon="-3.872206">
        <ele>2071.6</ele>
        <time>2018-04-21T08:58:06.000Z</time>
      </trkpt>
      <trkpt lat="40.809657" lon="-3.872216">
        <ele>2071.8</ele>
        <time>2018-04-21T08:58:07.000Z</time>
      </trkpt>
      <trkpt lat="40.809654" lon="-3.872224">
        <ele>2071.8</ele>
        <time>2018-04-21T08:58:08.000Z</time>
      </trkpt>
      <trkpt lat="40.809651" lon="-3.872232">
        <ele>2071.9</ele>
        <time>2018-04-21T08:58:09.000Z</time>
      </trkpt>
      <trkpt lat="40.80965" lon="-3.872238">
        <ele>2072.0</ele>
        <time>2018-04-21T08:58:10.000Z</time>
      </trkpt>
      <trkpt lat="40.809649" lon="-3.872244">
        <ele>2072.1</ele>
        <time>2018-04-21T08:58:11.000Z</time>
      </trkpt>
      <trkpt lat="40.809648" lon="-3.872249">
        <ele>2072.1</ele>
        <time>2018-04-21T08:58:12.000Z</time>
      </trkpt>
      <trkpt lat="40.809646" lon="-3.872254">
        <ele>2072.2</ele>
        <time>2018-04-21T08:58:13.000Z</time>
      </trkpt>
      <trkpt lat="40.809643" lon="-3.872259">
        <ele>2072.2</ele>
        <time>2018-04-21T08:58:14.000Z</time>
      </trkpt>
      <trkpt lat="40.809637" lon="-3.872265">
        <ele>2072.3</ele>
        <time>2018-04-21T08:58:15.000Z</time>
      </trkpt>
      <trkpt lat="40.80963" lon="-3.872271">
        <ele>2072.4</ele>
        <time>2018-04-21T08:58:16.000Z</time>
      </trkpt>
      <trkpt lat="40.809622" lon="-3.872278">
        <ele>2072.5</ele>
        <time>2018-04-21T08:58:17.000Z</time>
      </trkpt>
      <trkpt lat="40.809615" lon="-3.872285">
        <ele>2072.6</ele>
        <time>2018-04-21T08:58:18.000Z</time>
      </trkpt>
      <trkpt lat="40.809608" lon="-3.872293">
        <ele>2072.7</ele>
        <time>2018-04-21T08:58:19.000Z</time>
      </trkpt>
      <trkpt lat="40.809602" lon="-3.872302">
        <ele>2072.8</ele>
        <time>2018-04-21T08:58:20.000Z</time>
      </trkpt>
      <trkpt lat="40.809596" lon="-3.872312">
        <ele>2072.9</ele>
        <time>2018-04-21T08:58:21.000Z</time>
      </trkpt>
      <trkpt lat="40.809591" lon="-3.872322">
        <ele>2073.1</ele>
        <time>2018-04-21T08:58:22.000Z</time>
      </trkpt>
      <trkpt lat="40.809586" lon="-3.872332">
        <ele>2073.2</ele>
        <time>2018-04-21T08:58:23.000Z</time>
      </trkpt>
      <trkpt lat="40.809582" lon="-3.872343">
        <ele>2073.3</ele>
        <time>2018-04-21T08:58:24.000Z</time>
      </trkpt>
      <trkpt lat="40.809577" lon="-3.872353">
        <ele>2073.4</ele>
        <time>2018-04-21T08:58:25.000Z</time>
      </trkpt>
      <trkpt lat="40.809573" lon="-3.872364">
        <ele>2073.6</ele>
        <time>2018-04-21T08:58:26.000Z</time>
      </trkpt>
      <trkpt lat="40.809569" lon="-3.872373">
        <ele>2073.7</ele>
        <time>2018-04-21T08:58:27.000Z</time>
      </trkpt>
      <trkpt lat="40.809565" lon="-3.872383">
        <ele>2073.8</ele>
        <time>2018-04-21T08:58:28.000Z</time>
      </trkpt>
      <trkpt lat="40.809561" lon="-3.872392">
        <ele>2073.9</ele>
        <time>2018-04-21T08:58:29.000Z</time>
      </trkpt>
      <trkpt lat="40.809557" lon="-3.872401">
        <ele>2074.0</ele>
        <time>2018-04-21T08:58:30.000Z</time>
      </trkpt>
      <trkpt lat="40.809552" lon="-3.872409">
        <ele>2074.1</ele>
        <time>2018-04-21T08:58:31.000Z</time>
      </trkpt>
      <trkpt lat="40.809548" lon="-3.872417">
        <ele>2074.2</ele>
        <time>2018-04-21T08:58:32.000Z</time>
      </trkpt>
      <trkpt lat="40.809543" lon="-3.872424">
        <ele>2074.3</ele>
        <time>2018-04-21T08:58:33.000Z</time>
      </trkpt>
      <trkpt lat="40.809538" lon="-3.872431">
        <ele>2074.4</ele>
        <time>2018-04-21T08:58:34.000Z</time>
      </trkpt>
      <trkpt lat="40.809534" lon="-3.872438">
        <ele>2074.5</ele>
        <time>2018-04-21T08:58:35.000Z</time>
      </trkpt>
      <trkpt lat="40.809529" lon="-3.872444">
        <ele>2074.6</ele>
        <time>2018-04-21T08:58:36.000Z</time>
      </trkpt>
      <trkpt lat="40.809524" lon="-3.87245">
        <ele>2074.7</ele>
        <time>2018-04-21T08:58:37.000Z</time>
      </trkpt>
      <trkpt lat="40.809519" lon="-3.872457">
        <ele>2074.8</ele>
        <time>2018-04-21T08:58:38.000Z</time>
      </trkpt>
      <trkpt lat="40.809514" lon="-3.872463">
        <ele>2074.9</ele>
        <time>2018-04-21T08:58:39.000Z</time>
      </trkpt>
      <trkpt lat="40.809508" lon="-3.872469">
        <ele>2075.0</ele>
        <time>2018-04-21T08:58:40.000Z</time>
      </trkpt>
      <trkpt lat="40.809503" lon="-3.872476">
        <ele>2075.1</ele>
        <time>2018-04-21T08:58:41.000Z</time>
      </trkpt>
      <trkpt lat="40.809498" lon="-3.872484">
        <ele>2075.2</ele>
        <time>2018-04-21T08:58:42.000Z</time>
      </trkpt>
      <trkpt lat="40.809493" lon="-3.872492">
        <ele>2075.3</ele>
        <time>2018-04-21T08:58:43.000Z</time>
      </trkpt>
      <trkpt lat="40.809488" lon="-3.872502">
        <ele>2075.5</ele>
        <time>2018-04-21T08:58:44.000Z</time>
      </trkpt>
      <trkpt lat="40.809484" lon="-3.872512">
        <ele>2075.6</ele>
        <time>2018-04-21T08:58:45.000Z</time>
      </trkpt>
      <trkpt lat="40.809479" lon="-3.872524">
        <ele>2075.8</ele>
        <time>2018-04-21T08:58:46.000Z</time>
      </trkpt>
      <trkpt lat="40.809475" lon="-3.872537">
        <ele>2076.0</ele>
        <time>2018-04-21T08:58:47.000Z</time>
      </trkpt>
      <trkpt lat="40.809471" lon="-3.87255">
        <ele>2076.2</ele>
        <time>2018-04-21T08:58:48.000Z</time>
      </trkpt>
      <trkpt lat="40.809468" lon="-3.872564">
        <ele>2076.4</ele>
        <time>2018-04-21T08:58:49.000Z</time>
      </trkpt>
      <trkpt lat="40.809465" lon="-3.872577">
        <ele>2076.5</ele>
        <time>2018-04-21T08:58:50.000Z</time>
      </trkpt>
      <trkpt lat="40.809463" lon="-3.872589">
        <ele>2076.7</ele>
        <time>2018-04-21T08:58:51.000Z</time>
      </trkpt>
      <trkpt lat="40.809461" lon="-3.8726">
        <ele>2076.9</ele>
        <time>2018-04-21T08:58:52.000Z</time>
      </trkpt>
      <trkpt lat="40.809461" lon="-3.872609">
        <ele>2077.0</ele>
        <time>2018-04-21T08:58:53.000Z</time>
      </trkpt>
      <trkpt lat="40.809461" lon="-3.872617">
        <ele>2077.1</ele>
        <time>2018-04-21T08:58:54.000Z</time>
      </trkpt>
      <trkpt lat="40.809462" lon="-3.872622">
        <ele>2077.1</ele>
        <time>2018-04-21T08:58:55.000Z</time>
      </trkpt>
      <trkpt lat="40.809464" lon="-3.872626">
        <ele>2077.2</ele>
        <time>2018-04-21T08:58:56.000Z</time>
      </trkpt>
      <trkpt lat="40.809466" lon="-3.87263">
        <ele>2077.2</ele>
        <time>2018-04-21T08:58:57.000Z</time>
      </trkpt>
      <trkpt lat="40.809468" lon="-3.872635">
        <ele>2077.2</ele>
        <time>2018-04-21T08:58:58.000Z</time>
      </trkpt>
      <trkpt lat="40.809469" lon="-3.872643">
        <ele>2077.3</ele>
        <time>2018-04-21T08:58:59.000Z</time>
      </trkpt>
      <trkpt lat="40.80947" lon="-3.872654">
        <ele>2077.5</ele>
        <time>2018-04-21T08:59:00.000Z</time>
      </trkpt>
      <trkpt lat="40.80947" lon="-3.872668">
        <ele>2077.7</ele>
        <time>2018-04-21T08:59:01.000Z</time>
      </trkpt>
      <trkpt lat="40.809469" lon="-3.872683">
        <ele>2077.8</ele>
        <time>2018-04-21T08:59:02.000Z</time>
      </trkpt>
      <trkpt lat="40.809468" lon="-3.872699">
        <ele>2078.1</ele>
        <time>2018-04-21T08:59:03.000Z</time>
      </trkpt>
      <trkpt lat="40.809465" lon="-3.872715">
        <ele>2078.3</ele>
        <time>2018-04-21T08:59:04.000Z</time>
      </trkpt>
      <trkpt lat="40.809462" lon="-3.87273">
        <ele>2078.5</ele>
        <time>2018-04-21T08:59:05.000Z</time>
      </trkpt>
      <trkpt lat="40.809459" lon="-3.872744">
        <ele>2078.7</ele>
        <time>2018-04-21T08:59:06.000Z</time>
      </trkpt>
      <trkpt lat="40.809456" lon="-3.872757">
        <ele>2078.9</ele>
        <time>2018-04-21T08:59:07.000Z</time>
      </trkpt>
      <trkpt lat="40.809452" lon="-3.872769">
        <ele>2079.1</ele>
        <time>2018-04-21T08:59:08.000Z</time>
      </trkpt>
      <trkpt lat="40.809448" lon="-3.872781">
        <ele>2079.2</ele>
        <time>2018-04-21T08:59:09.000Z</time>
      </trkpt>
      <trkpt lat="40.809445" lon="-3.872791">
        <ele>2079.4</ele>
        <time>2018-04-21T08:59:10.000Z</time>
      </trkpt>
      <trkpt lat="40.809442" lon="-3.872801">
        <ele>2079.5</ele>
        <time>2018-04-21T08:59:11.000Z</time>
      </trkpt>
      <trkpt lat="40.809439" lon="-3.872809">
        <ele>2079.7</ele>
        <time>2018-04-21T08:59:12.000Z</time>
      </trkpt>
      <trkpt lat="40.809438" lon="-3.872816">
        <ele>2079.8</ele>
        <time>2018-04-21T08:59:13.000Z</time>
      </trkpt>
      <trkpt lat="40.809436" lon="-3.872823">
        <ele>2079.9</ele>
        <time>2018-04-21T08:59:14.000Z</time>
      </trkpt>
      <trkpt lat="40.809436" lon="-3.872829">
        <ele>2079.9</ele>
        <time>2018-04-21T08:59:15.000Z</time>
      </trkpt>
      <trkpt lat="40.809435" lon="-3.872834">
        <ele>2080.0</ele>
        <time>2018-04-21T08:59:16.000Z</time>
      </trkpt>
      <trkpt lat="40.809434" lon="-3.87284">
        <ele>2080.1</ele>
        <time>2018-04-21T08:59:17.000Z</time>
      </trkpt>
      <trkpt lat="40.809434" lon="-3.872846">
        <ele>2080.2</ele>
        <time>2018-04-21T08:59:18.000Z</time>
      </trkpt>
      <trkpt lat="40.809433" lon="-3.872853">
        <ele>2080.3</ele>
        <time>2018-04-21T08:59:19.000Z</time>
      </trkpt>
      <trkpt lat="40.809432" lon="-3.872861">
        <ele>2080.4</ele>
        <time>2018-04-21T08:59:20.000Z</time>
      </trkpt>
      <trkpt lat="40.809431" lon="-3.87287">
        <ele>2080.5</ele>
        <time>2018-04-21T08:59:21.000Z</time>
      </trkpt>
      <trkpt lat="40.809429" lon="-3.87288">
        <ele>2080.7</ele>
        <time>2018-04-21T08:59:22.000Z</time>
      </trkpt>
      <trkpt lat="40.809426" lon="-3.872892">
        <ele>2080.8</ele>
        <time>2018-04-21T08:59:23.000Z</time>
      </trkpt>
      <trkpt lat="40.809423" lon="-3.872904">
        <ele>2081.0</ele>
        <time>2018-04-21T08:59:24.000Z</time>
      </trkpt>
      <trkpt lat="40.809419" lon="-3.872916">
        <ele>2081.2</ele>
        <time>2018-04-21T08:59:25.000Z</time>
      </trkpt>
      <trkpt lat="40.809415" lon="-3.872927">
        <ele>2081.4</ele>
        <time>2018-04-21T08:59:26.000Z</time>
      </trkpt>
      <trkpt lat="40.809409" lon="-3.872937">
        <ele>2081.6</ele>
        <time>2018-04-21T08:59:27.000Z</time>
      </trkpt>
      <trkpt lat="40.809403" lon="-3.872945">
        <ele>2081.7</ele>
        <time>2018-04-21T08:59:28.000Z</time>
      </trkpt>
      <trkpt lat="40.809397" lon="-3.87295">
        <ele>2081.9</ele>
        <time>2018-04-21T08:59:29.000Z</time>
      </trkpt>
      <trkpt lat="40.80939" lon="-3.872951">
        <ele>2081.9</ele>
        <time>2018-04-21T08:59:30.000Z</time>
      </trkpt>
      <trkpt lat="40.809382" lon="-3.872949">
        <ele>2082.0</ele>
        <time>2018-04-21T08:59:31.000Z</time>
      </trkpt>
      <trkpt lat="40.809373" lon="-3.872945">
        <ele>2082.0</ele>
        <time>2018-04-21T08:59:32.000Z</time>
      </trkpt>
      <trkpt lat="40.809365" lon="-3.87294">
        <ele>2082.0</ele>
        <time>2018-04-21T08:59:33.000Z</time>
      </trkpt>
      <trkpt lat="40.809357" lon="-3.872936">
        <ele>2082.1</ele>
        <time>2018-04-21T08:59:34.000Z</time>
      </trkpt>
      <trkpt lat="40.809349" lon="-3.872934">
        <ele>2082.1</ele>
        <time>2018-04-21T08:59:35.000Z</time>
      </trkpt>
      <trkpt lat="40.809341" lon="-3.872936">
        <ele>2082.2</ele>
        <time>2018-04-21T08:59:36.000Z</time>
      </trkpt>
      <trkpt lat="40.809334" lon="-3.872941">
        <ele>2082.3</ele>
        <time>2018-04-21T08:59:37.000Z</time>
      </trkpt>
      <trkpt lat="40.809328" lon="-3.872948">
        <ele>2082.5</ele>
        <time>2018-04-21T08:59:38.000Z</time>
      </trkpt>
      <trkpt lat="40.809323" lon="-3.872957">
        <ele>2082.7</ele>
        <time>2018-04-21T08:59:39.000Z</time>
      </trkpt>
      <trkpt lat="40.809318" lon="-3.872967">
        <ele>2082.8</ele>
        <time>2018-04-21T08:59:40.000Z</time>
      </trkpt>
      <trkpt lat="40.809314" lon="-3.872976">
        <ele>2083.0</ele>
        <time>2018-04-21T08:59:41.000Z</time>
      </trkpt>
      <trkpt lat="40.80931" lon="-3.872986">
        <ele>2083.2</ele>
        <time>2018-04-21T08:59:42.000Z</time>
      </trkpt>
      <trkpt lat="40.809306" lon="-3.872997">
        <ele>2083.4</ele>
        <time>2018-04-21T08:59:43.000Z</time>
      </trkpt>
      <trkpt lat="40.809303" lon="-3.873007">
        <ele>2083.6</ele>
        <time>2018-04-21T08:59:44.000Z</time>
      </trkpt>
      <trkpt lat="40.809299" lon="-3.873018">
        <ele>2083.8</ele>
        <time>2018-04-21T08:59:45.000Z</time>
      </trkpt>
      <trkpt lat="40.809296" lon="-3.873028">
        <ele>2083.9</ele>
        <time>2018-04-21T08:59:46.000Z</time>
      </trkpt>
      <trkpt lat="40.809292" lon="-3.873039">
        <ele>2084.1</ele>
        <time>2018-04-21T08:59:47.000Z</time>
      </trkpt>
      <trkpt lat="40.809288" lon="-3.873049">
        <ele>2084.3</ele>
        <time>2018-04-21T08:59:48.000Z</time>
      </trkpt>
      <trkpt lat="40.809284" lon="-3.873059">
        <ele>2084.5</ele>
        <time>2018-04-21T08:59:49.000Z</time>
      </trkpt>
      <trkpt lat="40.809279" lon="-3.873069">
        <ele>2084.7</ele>
        <time>2018-04-21T08:59:50.000Z</time>
      </trkpt>
      <trkpt lat="40.809274" lon="-3.873079">
        <ele>2084.9</ele>
        <time>2018-04-21T08:59:51.000Z</time>
      </trkpt>
      <trkpt lat="40.809268" lon="-3.873088">
        <ele>2085.1</ele>
        <time>2018-04-21T08:59:52.000Z</time>
      </trkpt>
      <trkpt lat="40.809262" lon="-3.873096">
        <ele>2085.3</ele>
        <time>2018-04-21T08:59:53.000Z</time>
      </trkpt>
      <trkpt lat="40.809256" lon="-3.873104">
        <ele>2085.4</ele>
        <time>2018-04-21T08:59:54.000Z</time>
      </trkpt>
      <trkpt lat="40.809249" lon="-3.873111">
        <ele>2085.6</ele>
        <time>2018-04-21T08:59:55.000Z</time>
      </trkpt>
      <trkpt lat="40.809242" lon="-3.873117">
        <ele>2085.8</ele>
        <time>2018-04-21T08:59:56.000Z</time>
      </trkpt>
      <trkpt lat="40.809234" lon="-3.873122">
        <ele>2086.0</ele>
        <time>2018-04-21T08:59:57.000Z</time>
      </trkpt>
      <trkpt lat="40.809226" lon="-3.873126">
        <ele>2086.1</ele>
        <time>2018-04-21T08:59:58.000Z</time>
      </trkpt>
      <trkpt lat="40.809218" lon="-3.873129">
        <ele>2086.2</ele>
        <time>2018-04-21T08:59:59.000Z</time>
      </trkpt>
      <trkpt lat="40.80921" lon="-3.873132">
        <ele>2086.4</ele>
        <time>2018-04-21T09:00:00.000Z</time>
      </trkpt>
      <trkpt lat="40.809203" lon="-3.873136">
        <ele>2086.5</ele>
        <time>2018-04-21T09:00:01.000Z</time>
      </trkpt>
      <trkpt lat="40.809196" lon="-3.87314">
        <ele>2086.7</ele>
        <time>2018-04-21T09:00:02.000Z</time>
      </trkpt>
      <trkpt lat="40.80919" lon="-3.873146">
        <ele>2086.8</ele>
        <time>2018-04-21T09:00:03.000Z</time>
      </trkpt>
      <trkpt lat="40.809185" lon="-3.873152">
        <ele>2087.0</ele>
        <time>2018-04-21T09:00:04.000Z</time>
      </trkpt>
      <trkpt lat="40.809179" lon="-3.87316">
        <ele>2087.2</ele>
        <time>2018-04-21T09:00:05.000Z</time>
      </trkpt>
      <trkpt lat="40.809174" lon="-3.873168">
        <ele>2087.3</ele>
        <time>2018-04-21T09:00:06.000Z</time>
      </trkpt>
      <trkpt lat="40.809169" lon="-3.873176">
        <ele>2087.5</ele>
        <time>2018-04-21T09:00:07.000Z</time>
      </trkpt>
      <trkpt lat="40.809164" lon="-3.873184">
        <ele>2087.7</ele>
        <time>2018-04-21T09:00:08.000Z</time>
      </trkpt>
      <trkpt lat="40.809159" lon="-3.873193">
        <ele>2087.8</ele>
        <time>2018-04-21T09:00:09.000Z</time>
      </trkpt>
      <trkpt lat="40.809153" lon="-3.873201">
        <ele>2088.0</ele>
        <time>2018-04-21T09:00:10.000Z</time>
      </trkpt>
      <trkpt lat="40.809148" lon="-3.87321">
        <ele>2088.1</ele>
        <time>2018-04-21T09:00:11.000Z</time>
      </trkpt>
      <trkpt lat="40.809143" lon="-3.873218">
        <ele>2088.3</ele>
        <time>2018-04-21T09:00:12.000Z</time>
      </trkpt>
      <trkpt lat="40.809137" lon="-3.873226">
        <ele>2088.4</ele>
        <time>2018-04-21T09:00:13.000Z</time>
      </trkpt>
      <trkpt lat="40.809133" lon="-3.873233">
        <ele>2088.5</ele>
        <time>2018-04-21T09:00:14.000Z</time>
      </trkpt>
      <trkpt lat="40.809128" lon="-3.873241">
        <ele>2088.7</ele>
        <time>2018-04-21T09:00:15.000Z</time>
      </trkpt>
      <trkpt lat="40.809124" lon="-3.873247">
        <ele>2088.8</ele>
        <time>2018-04-21T09:00:16.000Z</time>
      </trkpt>
      <trkpt lat="40.80912" lon="-3.873254">
        <ele>2088.9</ele>
        <time>2018-04-21T09:00:17.000Z</time>
      </trkpt>
      <trkpt lat="40.809116" lon="-3.87326">
        <ele>2089.0</ele>
        <time>2018-04-21T09:00:18.000Z</time>
      </trkpt>
      <trkpt lat="40.809113" lon="-3.873267">
        <ele>2089.1</ele>
        <time>2018-04-21T09:00:19.000Z</time>
      </trkpt>
      <trkpt lat="40.80911" lon="-3.873273">
        <ele>2089.3</ele>
        <time>2018-04-21T09:00:20.000Z</time>
      </trkpt>
      <trkpt lat="40.809107" lon="-3.873279">
        <ele>2089.4</ele>
        <time>2018-04-21T09:00:21.000Z</time>
      </trkpt>
      <trkpt lat="40.809104" lon="-3.873286">
        <ele>2089.5</ele>
        <time>2018-04-21T09:00:22.000Z</time>
      </trkpt>
      <trkpt lat="40.809102" lon="-3.873294">
        <ele>2089.6</ele>
        <time>2018-04-21T09:00:23.000Z</time>
      </trkpt>
      <trkpt lat="40.809099" lon="-3.873302">
        <ele>2089.7</ele>
        <time>2018-04-21T09:00:24.000Z</time>
      </trkpt>
      <trkpt lat="40.809097" lon="-3.87331">
        <ele>2089.9</ele>
        <time>2018-04-21T09:00:25.000Z</time>
      </trkpt>
      <trkpt lat="40.809094" lon="-3.873319">
        <ele>2090.0</ele>
        <time>2018-04-21T09:00:26.000Z</time>
      </trkpt>
      <trkpt lat="40.809092" lon="-3.873329">
        <ele>2090.2</ele>
        <time>2018-04-21T09:00:27.000Z</time>
      </trkpt>
      <trkpt lat="40.80909" lon="-3.873339">
        <ele>2090.3</ele>
        <time>2018-04-21T09:00:28.000Z</time>
      </trkpt>
      <trkpt lat="40.809087" lon="-3.873349">
        <ele>2090.5</ele>
        <time>2018-04-21T09:00:29.000Z</time>
      </trkpt>
      <trkpt lat="40.809085" lon="-3.873358">
        <ele>2090.6</ele>
        <time>2018-04-21T09:00:30.000Z</time>
      </trkpt>
      <trkpt lat="40.809083" lon="-3.873368">
        <ele>2090.8</ele>
        <time>2018-04-21T09:00:31.000Z</time>
      </trkpt>
      <trkpt lat="40.80908" lon="-3.873377">
        <ele>2090.9</ele>
        <time>2018-04-21T09:00:32.000Z</time>
      </trkpt>
      <trkpt lat="40.809078" lon="-3.873386">
        <ele>2091.0</ele>
        <time>2018-04-21T09:00:33.000Z</time>
      </trkpt>
      <trkpt lat="40.809076" lon="-3.873394">
        <ele>2091.1</ele>
        <time>2018-04-21T09:00:34.000Z</time>
      </trkpt>
      <trkpt lat="40.809073" lon="-3.873401">
        <ele>2091.2</ele>
        <time>2018-04-21T09:00:35.000Z</time>
      </trkpt>
      <trkpt lat="40.809071" lon="-3.873407">
        <ele>2091.3</ele>
        <time>2018-04-21T09:00:36.000Z</time>
      </trkpt>
      <trkpt lat="40.809069" lon="-3.873412">
        <ele>2091.4</ele>
        <time>2018-04-21T09:00:37.000Z</time>
      </trkpt>
      <trkpt lat="40.809066" lon="-3.873416">
        <ele>2091.5</ele>
        <time>2018-04-21T09:00:38.000Z</time>
      </trkpt>
      <trkpt lat="40.809064" lon="-3.87342">
        <ele>2091.5</ele>
        <time>2018-04-21T09:00:39.000Z</time>
      </trkpt>
      <trkpt lat="40.809063" lon="-3.873423">
        <ele>2091.6</ele>
        <time>2018-04-21T09:00:40.000Z</time>
      </trkpt>
      <trkpt lat="40.809061" lon="-3.873425">
        <ele>2091.6</ele>
        <time>2018-04-21T09:00:41.000Z</time>
      </trkpt>
      <trkpt lat="40.80906" lon="-3.873426">
        <ele>2091.6</ele>
        <time>2018-04-21T09:00:42.000Z</time>
      </trkpt>
      <trkpt lat="40.80906" lon="-3.873427">
        <ele>2091.6</ele>
        <time>2018-04-21T09:00:43.000Z</time>
      </trkpt>
      <trkpt lat="40.80906" lon="-3.873427">
        <ele>2091.6</ele>
        <time>2018-04-21T09:00:44.000Z</time>
      </trkpt>
      <trkpt lat="40.80906" lon="-3.873427">
        <ele>2091.6</ele>
        <time>2018-04-21T09:00:45.000Z</time>
      </trkpt>
      <trkpt lat="40.809059" lon="-3.873428">
        <ele>2091.6</ele>
        <time>2018-04-21T09:00:46.000Z</time>
      </trkpt>
      <trkpt lat="40.809059" lon="-3.87343">
        <ele>2091.7</ele>
        <time>2018-04-21T09:00:47.000Z</time>
      </trkpt>
      <trkpt lat="40.809057" lon="-3.873433">
        <ele>2091.7</ele>
        <time>2018-04-21T09:00:48.000Z</time>
      </trkpt>
      <trkpt lat="40.809054" lon="-3.87344">
        <ele>2091.8</ele>
        <time>2018-04-21T09:00:49.000Z</time>
      </trkpt>
      <trkpt lat="40.809051" lon="-3.873448">
        <ele>2091.9</ele>
        <time>2018-04-21T09:00:50.000Z</time>
      </trkpt>
      <trkpt lat="40.809048" lon="-3.873457">
        <ele>2092.1</ele>
        <time>2018-04-21T09:00:51.000Z</time>
      </trkpt>
      <trkpt lat="40.809045" lon="-3.873468">
        <ele>2092.2</ele>
        <time>2018-04-21T09:00:52.000Z</time>
      </trkpt>
      <trkpt lat="40.809044" lon="-3.873478">
        <ele>2092.4</ele>
        <time>2018-04-21T09:00:53.000Z</time>
      </trkpt>
      <trkpt lat="40.809044" lon="-3.873488">
        <ele>2092.5</ele>
        <time>2018-04-21T09:00:54.000Z</time>
      </trkpt>
      <trkpt lat="40.809045" lon="-3.873498">
        <ele>2092.6</ele>
        <time>2018-04-21T09:00:55.000Z</time>
      </trkpt>
      <trkpt lat="40.809045" lon="-3.873508">
        <ele>2092.8</ele>
        <time>2018-04-21T09:00:56.000Z</time>
      </trkpt>
      <trkpt lat="40.809046" lon="-3.873516">
        <ele>2092.9</ele>
        <time>2018-04-21T09:00:57.000Z</time>
      </trkpt>
      <trkpt lat="40.809045" lon="-3.873524">
        <ele>2093.0</ele>
        <time>2018-04-21T09:00:58.000Z</time>
      </trkpt>
      <trkpt lat="40.809044" lon="-3.873532">
        <ele>2093.1</ele>
        <time>2018-04-21T09:00:59.000Z</time>
      </trkpt>
      <trkpt lat="40.809043" lon="-3.873538">
        <ele>2093.2</ele>
        <time>2018-04-21T09:01:00.000Z</time>
      </trkpt>
      <trkpt lat="40.809041" lon="-3.873545">
        <ele>2093.3</ele>
        <time>2018-04-21T09:01:01.000Z</time>
      </trkpt>
      <trkpt lat="40.809038" lon="-3.873551">
        <ele>2093.4</ele>
        <time>2018-04-21T09:01:02.000Z</time>
      </trkpt>
      <trkpt lat="40.809036" lon="-3.873557">
        <ele>2093.5</ele>
        <time>2018-04-21T09:01:03.000Z</time>
      </trkpt>
      <trkpt lat="40.809033" lon="-3.873563">
        <ele>2093.6</ele>
        <time>2018-04-21T09:01:04.000Z</time>
      </trkpt>
      <trkpt lat="40.809029" lon="-3.87357">
        <ele>2093.7</ele>
        <time>2018-04-21T09:01:05.000Z</time>
      </trkpt>
      <trkpt lat="40.809026" lon="-3.873576">
        <ele>2093.8</ele>
        <time>2018-04-21T09:01:06.000Z</time>
      </trkpt>
      <trkpt lat="40.809022" lon="-3.873582">
        <ele>2093.9</ele>
        <time>2018-04-21T09:01:07.000Z</time>
      </trkpt>
      <trkpt lat="40.809018" lon="-3.873589">
        <ele>2094.0</ele>
        <time>2018-04-21T09:01:08.000Z</time>
      </trkpt>
      <trkpt lat="40.809014" lon="-3.873595">
        <ele>2094.1</ele>
        <time>2018-04-21T09:01:09.000Z</time>
      </trkpt>
      <trkpt lat="40.80901" lon="-3.873602">
        <ele>2094.3</ele>
        <time>2018-04-21T09:01:10.000Z</time>
      </trkpt>
      <trkpt lat="40.809006" lon="-3.873609">
        <ele>2094.4</ele>
        <time>2018-04-21T09:01:11.000Z</time>
      </trkpt>
      <trkpt lat="40.809001" lon="-3.873616">
        <ele>2094.5</ele>
        <time>2018-04-21T09:01:12.000Z</time>
      </trkpt>
      <trkpt lat="40.808997" lon="-3.873623">
        <ele>2094.7</ele>
        <time>2018-04-21T09:01:13.000Z</time>
      </trkpt>
      <trkpt lat="40.808992" lon="-3.87363">
        <ele>2094.8</ele>
        <time>2018-04-21T09:01:14.000Z</time>
      </trkpt>
      <trkpt lat="40.808988" lon="-3.873637">
        <ele>2094.9</ele>
        <time>2018-04-21T09:01:15.000Z</time>
      </trkpt>
      <trkpt lat="40.808983" lon="-3.873645">
        <ele>2095.1</ele>
        <time>2018-04-21T09:01:16.000Z</time>
      </trkpt>
      <trkpt lat="40.808978" lon="-3.873653">
        <ele>2095.2</ele>
        <time>2018-04-21T09:01:17.000Z</time>
      </trkpt>
      <trkpt lat="40.808974" lon="-3.873661">
        <ele>2095.4</ele>
        <time>2018-04-21T09:01:18.000Z</time>
      </trkpt>
      <trkpt lat="40.808969" lon="-3.873669">
        <ele>2095.5</ele>
        <time>2018-04-21T09:01:19.000Z</time>
      </trkpt>
      <trkpt lat="40.808965" lon="-3.873678">
        <ele>2095.7</ele>
        <time>2018-04-21T09:01:20.000Z</time>
      </trkpt>
      <trkpt lat="40.808961" lon="-3.873687">
        <ele>2095.8</ele>
        <time>2018-04-21T09:01:21.000Z</time>
      </trkpt>
      <trkpt lat="40.808957" lon="-3.873696">
        <ele>2096.0</ele>
        <time>2018-04-21T09:01:22.000Z</time>
      </trkpt>
      <trkpt lat="40.808953" lon="-3.873705">
        <ele>2096.1</ele>
        <time>2018-04-21T09:01:23.000Z</time>
      </trkpt>
      <trkpt lat="40.808949" lon="-3.873714">
        <ele>2096.3</ele>
        <time>2018-04-21T09:01:24.000Z</time>
      </trkpt>
      <trkpt lat="40.808945" lon="-3.873724">
        <ele>2096.5</ele>
        <time>2018-04-21T09:01:25.000Z</time>
      </trkpt>
      <trkpt lat="40.808942" lon="-3.873733">
        <ele>2096.6</ele>
        <time>2018-04-21T09:01:26.000Z</time>
      </trkpt>
      <trkpt lat="40.808939" lon="-3.873742">
        <ele>2096.8</ele>
        <time>2018-04-21T09:01:27.000Z</time>
      </trkpt>
      <trkpt lat="40.808936" lon="-3.873751">
        <ele>2097.0</ele>
        <time>2018-04-21T09:01:28.000Z</time>
      </trkpt>
      <trkpt lat="40.808933" lon="-3.87376">
        <ele>2097.1</ele>
        <time>2018-04-21T09:01:29.000Z</time>
      </trkpt>
      <trkpt lat="40.808931" lon="-3.873769">
        <ele>2097.3</ele>
        <time>2018-04-21T09:01:30.000Z</time>
      </trkpt>
      <trkpt lat="40.808929" lon="-3.873777">
        <ele>2097.4</ele>
        <time>2018-04-21T09:01:31.000Z</time>
      </trkpt>
      <trkpt lat="40.808927" lon="-3.873785">
        <ele>2097.5</ele>
        <time>2018-04-21T09:01:32.000Z</time>
      </trkpt>
      <trkpt lat="40.808925" lon="-3.873794">
        <ele>2097.7</ele>
        <time>2018-04-21T09:01:33.000Z</time>
      </trkpt>
      <trkpt lat="40.808923" lon="-3.873802">
        <ele>2097.8</ele>
        <time>2018-04-21T09:01:34.000Z</time>
      </trkpt>
      <trkpt lat="40.808921" lon="-3.873809">
        <ele>2097.9</ele>
        <time>2018-04-21T09:01:35.000Z</time>
      </trkpt>
      <trkpt lat="40.80892" lon="-3.873817">
        <ele>2098.1</ele>
        <time>2018-04-21T09:01:36.000Z</time>
      </trkpt>
      <trkpt lat="40.808918" lon="-3.873825">
        <ele>2098.2</ele>
        <time>2018-04-21T09:01:37.000Z</time>
      </trkpt>
      <trkpt lat="40.808916" lon="-3.873832">
        <ele>2098.3</ele>
        <time>2018-04-21T09:01:38.000Z</time>
      </trkpt>
      <trkpt lat="40.808915" lon="-3.87384">
        <ele>2098.5</ele>
        <time>2018-04-21T09:01:39.000Z</time>
      </trkpt>
      <trkpt lat="40.808913" lon="-3.873847">
        <ele>2098.6</ele>
        <time>2018-04-21T09:01:40.000Z</time>
      </trkpt>
      <trkpt lat="40.808911" lon="-3.873854">
        <ele>2098.7</ele>
        <time>2018-04-21T09:01:41.000Z</time>
      </trkpt>
      <trkpt lat="40.808909" lon="-3.873861">
        <ele>2098.8</ele>
        <time>2018-04-21T09:01:42.000Z</time>
      </trkpt>
      <trkpt lat="40.808907" lon="-3.873869">
        <ele>2099.0</ele>
        <time>2018-04-21T09:01:43.000Z</time>
      </trkpt>
      <trkpt lat="40.808904" lon="-3.873876">
        <ele>2099.1</ele>
        <time>2018-04-21T09:01:44.000Z</time>
      </trkpt>
      <trkpt lat="40.808902" lon="-3.873883">
        <ele>2099.2</ele>
        <time>2018-04-21T09:01:45.000Z</time>
      </trkpt>
      <trkpt lat="40.808899" lon="-3.87389">
        <ele>2099.4</ele>
        <time>2018-04-21T09:01:46.000Z</time>
      </trkpt>
      <trkpt lat="40.808895" lon="-3.873897">
        <ele>2099.5</ele>
        <time>2018-04-21T09:01:47.000Z</time>
      </trkpt>
      <trkpt lat="40.808892" lon="-3.873904">
        <ele>2099.6</ele>
        <time>2018-04-21T09:01:48.000Z</time>
      </trkpt>
      <trkpt lat="40.808888" lon="-3.873911">
        <ele>2099.8</ele>
        <time>2018-04-21T09:01:49.000Z</time>
      </trkpt>
      <trkpt lat="40.808885" lon="-3.873918">
        <ele>2099.9</ele>
        <time>2018-04-21T09:01:50.000Z</time>
      </trkpt>
      <trkpt lat="40.808881" lon="-3.873925">
        <ele>2100.1</ele>
        <time>2018-04-21T09:01:51.000Z</time>
      </trkpt>
      <trkpt lat="40.808877" lon="-3.873932">
        <ele>2100.2</ele>
        <time>2018-04-21T09:01:52.000Z</time>
      </trkpt>
      <trkpt lat="40.808874" lon="-3.873939">
        <ele>2100.4</ele>
        <time>2018-04-21T09:01:53.000Z</time>
      </trkpt>
      <trkpt lat="40.808871" lon="-3.873945">
        <ele>2100.5</ele>
        <time>2018-04-21T09:01:54.000Z</time>
      </trkpt>
      <trkpt lat="40.808869" lon="-3.873952">
        <ele>2100.6</ele>
        <time>2018-04-21T09:01:55.000Z</time>
      </trkpt>
      <trkpt lat="40.808867" lon="-3.873958">
        <ele>2100.7</ele>
        <time>2018-04-21T09:01:56.000Z</time>
      </trkpt>
      <trkpt lat="40.808865" lon="-3.873964">
        <ele>2100.8</ele>
        <time>2018-04-21T09:01:57.000Z</time>
      </trkpt>
      <trkpt lat="40.808864" lon="-3.873971">
        <ele>2101.0</ele>
        <time>2018-04-21T09:01:58.000Z</time>
      </trkpt>
      <trkpt lat="40.808863" lon="-3.873977">
        <ele>2101.1</ele>
        <time>2018-04-21T09:01:59.000Z</time>
      </trkpt>
      <trkpt lat="40.808861" lon="-3.873983">
        <ele>2101.2</ele>
        <time>2018-04-21T09:02:00.000Z</time>
      </trkpt>
      <trkpt lat="40.80886" lon="-3.87399">
        <ele>2101.3</ele>
        <time>2018-04-21T09:02:01.000Z</time>
      </trkpt>
      <trkpt lat="40.808858" lon="-3.873997">
        <ele>2101.4</ele>
        <time>2018-04-21T09:02:02.000Z</time>
      </trkpt>
      <trkpt lat="40.808855" lon="-3.874005">
        <ele>2101.6</ele>
        <time>2018-04-21T09:02:03.000Z</time>
      </trkpt>
      <trkpt lat="40.808852" lon="-3.874013">
        <ele>2101.8</ele>
        <time>2018-04-21T09:02:04.000Z</time>
      </trkpt>
      <trkpt lat="40.808848" lon="-3.874021">
        <ele>2101.9</ele>
        <time>2018-04-21T09:02:05.000Z</time>
      </trkpt>
      <trkpt lat="40.808843" lon="-3.87403">
        <ele>2102.1</ele>
        <time>2018-04-21T09:02:06.000Z</time>
      </trkpt>
      <trkpt lat="40.808838" lon="-3.874039">
        <ele>2102.3</ele>
        <time>2018-04-21T09:02:07.000Z</time>
      </trkpt>
      <trkpt lat="40.808832" lon="-3.874049">
        <ele>2102.6</ele>
        <time>2018-04-21T09:02:08.000Z</time>
      </trkpt>
      <trkpt lat="40.808826" lon="-3.874058">
        <ele>2102.8</ele>
        <time>2018-04-21T09:02:09.000Z</time>
      </trkpt>
      <trkpt lat="40.80882" lon="-3.874068">
        <ele>2103.0</ele>
        <time>2018-04-21T09:02:10.000Z</time>
      </trkpt>
      <trkpt lat="40.808814" lon="-3.874078">
        <ele>2103.2</ele>
        <time>2018-04-21T09:02:11.000Z</time>
      </trkpt>
      <trkpt lat="40.808807" lon="-3.874088">
        <ele>2103.5</ele>
        <time>2018-04-21T09:02:12.000Z</time>
      </trkpt>
      <trkpt lat="40.808801" lon="-3.874098">
        <ele>2103.7</ele>
        <time>2018-04-21T09:02:13.000Z</time>
      </trkpt>
      <trkpt lat="40.808795" lon="-3.874107">
        <ele>2103.9</ele>
        <time>2018-04-21T09:02:14.000Z</time>
      </trkpt>
      <trkpt lat="40.80879" lon="-3.874117">
        <ele>2104.2</ele>
        <time>2018-04-21T09:02:15.000Z</time>
      </trkpt>
      <trkpt lat="40.808785" lon="-3.874126">
        <ele>2104.4</ele>
        <time>2018-04-21T09:02:16.000Z</time>
      </trkpt>
      <trkpt lat="40.80878" lon="-3.874135">
        <ele>2104.6</ele>
        <time>2018-04-21T09:02:17.000Z</time>
      </trkpt>
      <trkpt lat="40.808775" lon="-3.874144">
        <ele>2104.8</ele>
        <time>2018-04-21T09:02:18.000Z</time>
      </trkpt>
      <trkpt lat="40.80877" lon="-3.874152">
        <ele>2105.0</ele>
        <time>2018-04-21T09:02:19.000Z</time>
      </trkpt>
      <trkpt lat="40.808766" lon="-3.874161">
        <ele>2105.2</ele>
        <time>2018-04-21T09:02:20.000Z</time>
      </trkpt>
      <trkpt lat="40.808762" lon="-3.874169">
        <ele>2105.4</ele>
        <time>2018-04-21T09:02:21.000Z</time>
      </trkpt>
      <trkpt lat="40.808758" lon="-3.874177">
        <ele>2105.5</ele>
        <time>2018-04-21T09:02:22.000Z</time>
      </trkpt>
      <trkpt lat="40.808754" lon="-3.874185">
        <ele>2105.7</ele>
        <time>2018-04-21T09:02:23.000Z</time>
      </trkpt>
      <trkpt lat="40.80875" lon="-3.874193">
        <ele>2105.8</ele>
        <time>2018-04-21T09:02:24.000Z</time>
      </trkpt>
      <trkpt lat="40.808746" lon="-3.874201">
        <ele>2106.0</ele>
        <time>2018-04-21T09:02:25.000Z</time>
      </trkpt>
      <trkpt lat="40.808743" lon="-3.874209">
        <ele>2106.2</ele>
        <time>2018-04-21T09:02:26.000Z</time>
      </trkpt>
      <trkpt lat="40.808739" lon="-3.874217">
        <ele>2106.3</ele>
        <time>2018-04-21T09:02:27.000Z</time>
      </trkpt>
      <trkpt lat="40.808736" lon="-3.874225">
        <ele>2106.5</ele>
        <time>2018-04-21T09:02:28.000Z</time>
      </trkpt>
      <trkpt lat="40.808732" lon="-3.874233">
        <ele>2106.6</ele>
        <time>2018-04-21T09:02:29.000Z</time>
      </trkpt>
      <trkpt lat="40.808728" lon="-3.874241">
        <ele>2106.8</ele>
        <time>2018-04-21T09:02:30.000Z</time>
      </trkpt>
      <trkpt lat="40.808725" lon="-3.874249">
        <ele>2106.9</ele>
        <time>2018-04-21T09:02:31.000Z</time>
      </trkpt>
      <trkpt lat="40.808721" lon="-3.874256">
        <ele>2107.1</ele>
        <time>2018-04-21T09:02:32.000Z</time>
      </trkpt>
      <trkpt lat="40.808717" lon="-3.874264">
        <ele>2107.3</ele>
        <time>2018-04-21T09:02:33.000Z</time>
      </trkpt>
      <trkpt lat="40.808713" lon="-3.874272">
        <ele>2107.4</ele>
        <time>2018-04-21T09:02:34.000Z</time>
      </trkpt>
      <trkpt lat="40.808709" lon="-3.87428">
        <ele>2107.6</ele>
        <time>2018-04-21T09:02:35.000Z</time>
      </trkpt>
      <trkpt lat="40.808705" lon="-3.874287">
        <ele>2107.7</ele>
        <time>2018-04-21T09:02:36.000Z</time>
      </trkpt>
      <trkpt lat="40.8087" lon="-3.874295">
        <ele>2107.9</ele>
        <time>2018-04-21T09:02:37.000Z</time>
      </trkpt>
      <trkpt lat="40.808695" lon="-3.874302">
        <ele>2108.1</ele>
        <time>2018-04-21T09:02:38.000Z</time>
      </trkpt>
      <trkpt lat="40.808691" lon="-3.874309">
        <ele>2108.3</ele>
        <time>2018-04-21T09:02:39.000Z</time>
      </trkpt>
      <trkpt lat="40.808686" lon="-3.874316">
        <ele>2108.4</ele>
        <time>2018-04-21T09:02:40.000Z</time>
      </trkpt>
      <trkpt lat="40.80868" lon="-3.874322">
        <ele>2108.6</ele>
        <time>2018-04-21T09:02:41.000Z</time>
      </trkpt>
      <trkpt lat="40.808675" lon="-3.874329">
        <ele>2108.8</ele>
        <time>2018-04-21T09:02:42.000Z</time>
      </trkpt>
      <trkpt lat="40.80867" lon="-3.874335">
        <ele>2108.9</ele>
        <time>2018-04-21T09:02:43.000Z</time>
      </trkpt>
      <trkpt lat="40.808664" lon="-3.874341">
        <ele>2109.1</ele>
        <time>2018-04-21T09:02:44.000Z</time>
      </trkpt>
      <trkpt lat="40.808659" lon="-3.874347">
        <ele>2109.3</ele>
        <time>2018-04-21T09:02:45.000Z</time>
      </trkpt>
      <trkpt lat="40.808654" lon="-3.874353">
        <ele>2109.4</ele>
        <time>2018-04-21T09:02:46.000Z</time>
      </trkpt>
      <trkpt lat="40.808649" lon="-3.874359">
        <ele>2109.6</ele>
        <time>2018-04-21T09:02:47.000Z</time>
      </trkpt>
      <trkpt lat="40.808645" lon="-3.874365">
        <ele>2109.7</ele>
        <time>2018-04-21T09:02:48.000Z</time>
      </trkpt>
      <trkpt lat="40.808641" lon="-3.874372">
        <ele>2109.9</ele>
        <time>2018-04-21T09:02:49.000Z</time>
      </trkpt>
      <trkpt lat="40.808637" lon="-3.874379">
        <ele>2110.1</ele>
        <time>2018-04-21T09:02:50.000Z</time>
      </trkpt>
      <trkpt lat="40.808634" lon="-3.874387">
        <ele>2110.2</ele>
        <time>2018-04-21T09:02:51.000Z</time>
      </trkpt>
      <trkpt lat="40.808631" lon="-3.874395">
        <ele>2110.4</ele>
        <time>2018-04-21T09:02:52.000Z</time>
      </trkpt>
      <trkpt lat="40.808628" lon="-3.874403">
        <ele>2110.6</ele>
        <time>2018-04-21T09:02:53.000Z</time>
      </trkpt>
      <trkpt lat="40.808624" lon="-3.874411">
        <ele>2110.7</ele>
        <time>2018-04-21T09:02:54.000Z</time>
      </trkpt>
      <trkpt lat="40.80862" lon="-3.874419">
        <ele>2110.9</ele>
        <time>2018-04-21T09:02:55.000Z</time>
      </trkpt>
      <trkpt lat="40.808616" lon="-3.874427">
        <ele>2111.1</ele>
        <time>2018-04-21T09:02:56.000Z</time>
      </trkpt>
      <trkpt lat="40.80861" lon="-3.874435">
        <ele>2111.3</ele>
        <time>2018-04-21T09:02:57.000Z</time>
      </trkpt>
      <trkpt lat="40.808604" lon="-3.874443">
        <ele>2111.5</ele>
        <time>2018-04-21T09:02:58.000Z</time>
      </trkpt>
      <trkpt lat="40.808596" lon="-3.874451">
        <ele>2111.8</ele>
        <time>2018-04-21T09:02:59.000Z</time>
      </trkpt>
      <trkpt lat="40.808588" lon="-3.874458">
        <ele>2112.0</ele>
        <time>2018-04-21T09:03:00.000Z</time>
      </trkpt>
      <trkpt lat="40.808579" lon="-3.874466">
        <ele>2112.3</ele>
        <time>2018-04-21T09:03:01.000Z</time>
      </trkpt>
      <trkpt lat="40.808572" lon="-3.874475">
        <ele>2112.6</ele>
        <time>2018-04-21T09:03:02.000Z</time>
      </trkpt>
      <trkpt lat="40.808565" lon="-3.874483">
        <ele>2112.8</ele>
        <time>2018-04-21T09:03:03.000Z</time>
      </trkpt>
      <trkpt lat="40.80856" lon="-3.874493">
        <ele>2113.0</ele>
        <time>2018-04-21T09:03:04.000Z</time>
      </trkpt>
      <trkpt lat="40.808557" lon="-3.874503">
        <ele>2113.2</ele>
        <time>2018-04-21T09:03:05.000Z</time>
      </trkpt>
      <trkpt lat="40.808554" lon="-3.874514">
        <ele>2113.5</ele>
        <time>2018-04-21T09:03:06.000Z</time>
      </trkpt>
      <trkpt lat="40.808551" lon="-3.874524">
        <ele>2113.7</ele>
        <time>2018-04-21T09:03:07.000Z</time>
      </trkpt>
      <trkpt lat="40.808547" lon="-3.874534">
        <ele>2113.9</ele>
        <time>2018-04-21T09:03:08.000Z</time>
      </trkpt>
      <trkpt lat="40.808543" lon="-3.874543">
        <ele>2114.1</ele>
        <time>2018-04-21T09:03:09.000Z</time>
      </trkpt>
      <trkpt lat="40.808538" lon="-3.87455">
        <ele>2114.3</ele>
        <time>2018-04-21T09:03:10.000Z</time>
      </trkpt>
      <trkpt lat="40.808533" lon="-3.874556">
        <ele>2114.5</ele>
        <time>2018-04-21T09:03:11.000Z</time>
      </trkpt>
      <trkpt lat="40.808527" lon="-3.87456">
        <ele>2114.6</ele>
        <time>2018-04-21T09:03:12.000Z</time>
      </trkpt>
      <trkpt lat="40.808522" lon="-3.874562">
        <ele>2114.8</ele>
        <time>2018-04-21T09:03:13.000Z</time>
      </trkpt>
      <trkpt lat="40.808516" lon="-3.874562">
        <ele>2114.9</ele>
        <time>2018-04-21T09:03:14.000Z</time>
      </trkpt>
      <trkpt lat="40.80851" lon="-3.874562">
        <ele>2115.0</ele>
        <time>2018-04-21T09:03:15.000Z</time>
      </trkpt>
      <trkpt lat="40.808505" lon="-3.874562">
        <ele>2115.1</ele>
        <time>2018-04-21T09:03:16.000Z</time>
      </trkpt>
      <trkpt lat="40.808499" lon="-3.874564">
        <ele>2115.2</ele>
        <time>2018-04-21T09:03:17.000Z</time>
      </trkpt>
      <trkpt lat="40.808494" lon="-3.874568">
        <ele>2115.4</ele>
        <time>2018-04-21T09:03:18.000Z</time>
      </trkpt>
      <trkpt lat="40.808489" lon="-3.874573">
        <ele>2115.5</ele>
        <time>2018-04-21T09:03:19.000Z</time>
      </trkpt>
      <trkpt lat="40.808483" lon="-3.874579">
        <ele>2115.7</ele>
        <time>2018-04-21T09:03:20.000Z</time>
      </trkpt>
      <trkpt lat="40.808478" lon="-3.874586">
        <ele>2115.9</ele>
        <time>2018-04-21T09:03:21.000Z</time>
      </trkpt>
      <trkpt lat="40.808472" lon="-3.874592">
        <ele>2116.1</ele>
        <time>2018-04-21T09:03:22.000Z</time>
      </trkpt>
      <trkpt lat="40.808466" lon="-3.8746">
        <ele>2116.4</ele>
        <time>2018-04-21T09:03:23.000Z</time>
      </trkpt>
      <trkpt lat="40.80846" lon="-3.874607">
        <ele>2116.6</ele>
        <time>2018-04-21T09:03:24.000Z</time>
      </trkpt>
      <trkpt lat="40.808453" lon="-3.874613">
        <ele>2116.8</ele>
        <time>2018-04-21T09:03:25.000Z</time>
      </trkpt>
      <trkpt lat="40.808446" lon="-3.874619">
        <ele>2117.1</ele>
        <time>2018-04-21T09:03:26.000Z</time>
      </trkpt>
      <trkpt lat="40.808439" lon="-3.874624">
        <ele>2117.3</ele>
        <time>2018-04-21T09:03:27.000Z</time>
      </trkpt>
      <trkpt lat="40.808431" lon="-3.874629">
        <ele>2117.5</ele>
        <time>2018-04-21T09:03:28.000Z</time>
      </trkpt>
      <trkpt lat="40.808423" lon="-3.874633">
        <ele>2117.7</ele>
        <time>2018-04-21T09:03:29.000Z</time>
      </trkpt>
      <trkpt lat="40.808415" lon="-3.874637">
        <ele>2117.9</ele>
        <time>2018-04-21T09:03:30.000Z</time>
      </trkpt>
      <trkpt lat="40.808408" lon="-3.87464">
        <ele>2118.1</ele>
        <time>2018-04-21T09:03:31.000Z</time>
      </trkpt>
      <trkpt lat="40.8084" lon="-3.874643">
        <ele>2118.3</ele>
        <time>2018-04-21T09:03:32.000Z</time>
      </trkpt>
      <trkpt lat="40.808394" lon="-3.874646">
        <ele>2118.5</ele>
        <time>2018-04-21T09:03:33.000Z</time>
      </trkpt>
      <trkpt lat="40.808388" lon="-3.874649">
        <ele>2118.7</ele>
        <time>2018-04-21T09:03:34.000Z</time>
      </trkpt>
      <trkpt lat="40.808382" lon="-3.874652">
        <ele>2118.8</ele>
        <time>2018-04-21T09:03:35.000Z</time>
      </trkpt>
      <trkpt lat="40.808378" lon="-3.874654">
        <ele>2118.9</ele>
        <time>2018-04-21T09:03:36.000Z</time>
      </trkpt>
      <trkpt lat="40.808373" lon="-3.874657">
        <ele>2119.1</ele>
        <time>2018-04-21T09:03:37.000Z</time>
      </trkpt>
      <trkpt lat="40.808369" lon="-3.87466">
        <ele>2119.2</ele>
        <time>2018-04-21T09:03:38.000Z</time>
      </trkpt>
      <trkpt lat="40.808365" lon="-3.874664">
        <ele>2119.4</ele>
        <time>2018-04-21T09:03:39.000Z</time>
      </trkpt>
      <trkpt lat="40.808361" lon="-3.874667">
        <ele>2119.5</ele>
        <time>2018-04-21T09:03:40.000Z</time>
      </trkpt>
      <trkpt lat="40.808356" lon="-3.874671">
        <ele>2119.6</ele>
        <time>2018-04-21T09:03:41.000Z</time>
      </trkpt>
      <trkpt lat="40.808351" lon="-3.874676">
        <ele>2119.8</ele>
        <time>2018-04-21T09:03:42.000Z</time>
      </trkpt>
      <trkpt lat="40.808345" lon="-3.87468">
        <ele>2120.0</ele>
        <time>2018-04-21T09:03:43.000Z</time>
      </trkpt>
      <trkpt lat="40.808338" lon="-3.874686">
        <ele>2120.3</ele>
        <time>2018-04-21T09:03:44.000Z</time>
      </trkpt>
      <trkpt lat="40.80833" lon="-3.874692">
        <ele>2120.5</ele>
        <time>2018-04-21T09:03:45.000Z</time>
      </trkpt>
      <trkpt lat="40.808323" lon="-3.874698">
        <ele>2120.7</ele>
        <time>2018-04-21T09:03:46.000Z</time>
      </trkpt>
      <trkpt lat="40.808315" lon="-3.874705">
        <ele>2120.9</ele>
        <time>2018-04-21T09:03:47.000Z</time>
      </trkpt>
      <trkpt lat="40.808308" lon="-3.874713">
        <ele>2121.1</ele>
        <time>2018-04-21T09:03:48.000Z</time>
      </trkpt>
      <trkpt lat="40.808302" lon="-3.874721">
        <ele>2121.3</ele>
        <time>2018-04-21T09:03:49.000Z</time>
      </trkpt>
      <trkpt lat="40.808295" lon="-3.874729">
        <ele>2121.5</ele>
        <time>2018-04-21T09:03:50.000Z</time>
      </trkpt>
      <trkpt lat="40.808288" lon="-3.874736">
        <ele>2121.7</ele>
        <time>2018-04-21T09:03:51.000Z</time>
      </trkpt>
      <trkpt lat="40.808281" lon="-3.874743">
        <ele>2121.9</ele>
        <time>2018-04-21T09:03:52.000Z</time>
      </trkpt>
      <trkpt lat="40.808272" lon="-3.874748">
        <ele>2122.1</ele>
        <time>2018-04-21T09:03:53.000Z</time>
      </trkpt>
      <trkpt lat="40.808264" lon="-3.874752">
        <ele>2122.3</ele>
        <time>2018-04-21T09:03:54.000Z</time>
      </trkpt>
      <trkpt lat="40.80826" lon="-3.874753">
        <ele>2122.3</ele>
        <time>2018-04-21T09:03:55.000Z</time>
      </trkpt>
      <trkpt lat="40.80826" lon="-3.874753">
        <ele>2122.3</ele>
        <time>2018-04-21T09:03:56.000Z</time>
      </trkpt>
      <trkpt lat="40.80826" lon="-3.874754">
        <ele>2122.3</ele>
        <time>2018-04-21T09:03:57.000Z</time>
      </trkpt>
      <trkpt lat="40.808255" lon="-3.874756">
        <ele>2122.4</ele>
        <time>2018-04-21T09:03:58.000Z</time>
      </trkpt>
      <trkpt lat="40.808246" lon="-3.874761">
        <ele>2122.6</ele>
        <time>2018-04-21T09:03:59.000Z</time>
      </trkpt>
      <trkpt lat="40.808235" lon="-3.874767">
        <ele>2122.9</ele>
        <time>2018-04-21T09:04:00.000Z</time>
      </trkpt>
      <trkpt lat="40.808223" lon="-3.874775">
        <ele>2123.1</ele>
        <time>2018-04-21T09:04:01.000Z</time>
      </trkpt>
      <trkpt lat="40.808213" lon="-3.874784">
        <ele>2123.4</ele>
        <time>2018-04-21T09:04:02.000Z</time>
      </trkpt>
      <trkpt lat="40.808205" lon="-3.874794">
        <ele>2123.7</ele>
        <time>2018-04-21T09:04:03.000Z</time>
      </trkpt>
      <trkpt lat="40.808198" lon="-3.874804">
        <ele>2123.9</ele>
        <time>2018-04-21T09:04:04.000Z</time>
      </trkpt>
      <trkpt lat="40.808193" lon="-3.874815">
        <ele>2124.2</ele>
        <time>2018-04-21T09:04:05.000Z</time>
      </trkpt>
      <trkpt lat="40.808188" lon="-3.874826">
        <ele>2124.5</ele>
        <time>2018-04-21T09:04:06.000Z</time>
      </trkpt>
      <trkpt lat="40.808183" lon="-3.874837">
        <ele>2124.7</ele>
        <time>2018-04-21T09:04:07.000Z</time>
      </trkpt>
      <trkpt lat="40.808179" lon="-3.874847">
        <ele>2125.0</ele>
        <time>2018-04-21T09:04:08.000Z</time>
      </trkpt>
      <trkpt lat="40.808174" lon="-3.874857">
        <ele>2125.2</ele>
        <time>2018-04-21T09:04:09.000Z</time>
      </trkpt>
      <trkpt lat="40.808169" lon="-3.874865">
        <ele>2125.4</ele>
        <time>2018-04-21T09:04:10.000Z</time>
      </trkpt>
      <trkpt lat="40.808164" lon="-3.874873">
        <ele>2125.6</ele>
        <time>2018-04-21T09:04:11.000Z</time>
      </trkpt>
      <trkpt lat="40.808158" lon="-3.87488">
        <ele>2125.8</ele>
        <time>2018-04-21T09:04:12.000Z</time>
      </trkpt>
      <trkpt lat="40.808151" lon="-3.874885">
        <ele>2126.0</ele>
        <time>2018-04-21T09:04:13.000Z</time>
      </trkpt>
      <trkpt lat="40.808144" lon="-3.874891">
        <ele>2126.2</ele>
        <time>2018-04-21T09:04:14.000Z</time>
      </trkpt>
      <trkpt lat="40.808136" lon="-3.874895">
        <ele>2126.4</ele>
        <time>2018-04-21T09:04:15.000Z</time>
      </trkpt>
      <trkpt lat="40.808128" lon="-3.8749">
        <ele>2126.5</ele>
        <time>2018-04-21T09:04:16.000Z</time>
      </trkpt>
      <trkpt lat="40.808119" lon="-3.874904">
        <ele>2126.7</ele>
        <time>2018-04-21T09:04:17.000Z</time>
      </trkpt>
      <trkpt lat="40.80811" lon="-3.874908">
        <ele>2126.9</ele>
        <time>2018-04-21T09:04:18.000Z</time>
      </trkpt>
      <trkpt lat="40.808101" lon="-3.874913">
        <ele>2127.1</ele>
        <time>2018-04-21T09:04:19.000Z</time>
      </trkpt>
      <trkpt lat="40.808092" lon="-3.874918">
        <ele>2127.3</ele>
        <time>2018-04-21T09:04:20.000Z</time>
      </trkpt>
      <trkpt lat="40.808083" lon="-3.874923">
        <ele>2127.5</ele>
        <time>2018-04-21T09:04:21.000Z</time>
      </trkpt>
      <trkpt lat="40.808074" lon="-3.874928">
        <ele>2127.7</ele>
        <time>2018-04-21T09:04:22.000Z</time>
      </trkpt>
      <trkpt lat="40.808065" lon="-3.874933">
        <ele>2127.9</ele>
        <time>2018-04-21T09:04:23.000Z</time>
      </trkpt>
      <trkpt lat="40.808057" lon="-3.874939">
        <ele>2128.1</ele>
        <time>2018-04-21T09:04:24.000Z</time>
      </trkpt>
      <trkpt lat="40.80805" lon="-3.874944">
        <ele>2128.3</ele>
        <time>2018-04-21T09:04:25.000Z</time>
      </trkpt>
      <trkpt lat="40.808043" lon="-3.874949">
        <ele>2128.5</ele>
        <time>2018-04-21T09:04:26.000Z</time>
      </trkpt>
      <trkpt lat="40.808037" lon="-3.874953">
        <ele>2128.6</ele>
        <time>2018-04-21T09:04:27.000Z</time>
      </trkpt>
      <trkpt lat="40.808033" lon="-3.874957">
        <ele>2128.8</ele>
        <time>2018-04-21T09:04:28.000Z</time>
      </trkpt>
      <trkpt lat="40.808029" lon="-3.874961">
        <ele>2128.9</ele>
        <time>2018-04-21T09:04:29.000Z</time>
      </trkpt>
      <trkpt lat="40.808027" lon="-3.874964">
        <ele>2129.0</ele>
        <time>2018-04-21T09:04:30.000Z</time>
      </trkpt>
      <trkpt lat="40.808025" lon="-3.874967">
        <ele>2129.0</ele>
        <time>2018-04-21T09:04:31.000Z</time>
      </trkpt>
      <trkpt lat="40.808022" lon="-3.87497">
        <ele>2129.1</ele>
        <time>2018-04-21T09:04:32.000Z</time>
      </trkpt>
      <trkpt lat="40.808019" lon="-3.874973">
        <ele>2129.2</ele>
        <time>2018-04-21T09:04:33.000Z</time>
      </trkpt>
      <trkpt lat="40.808015" lon="-3.874976">
        <ele>2129.3</ele>
        <time>2018-04-21T09:04:34.000Z</time>
      </trkpt>
      <trkpt lat="40.808011" lon="-3.87498">
        <ele>2129.5</ele>
        <time>2018-04-21T09:04:35.000Z</time>
      </trkpt>
      <trkpt lat="40.808005" lon="-3.874984">
        <ele>2129.6</ele>
        <time>2018-04-21T09:04:36.000Z</time>
      </trkpt>
      <trkpt lat="40.807999" lon="-3.874989">
        <ele>2129.8</ele>
        <time>2018-04-21T09:04:37.000Z</time>
      </trkpt>
      <trkpt lat="40.807993" lon="-3.874993">
        <ele>2129.9</ele>
        <time>2018-04-21T09:04:38.000Z</time>
      </trkpt>
      <trkpt lat="40.807987" lon="-3.874998">
        <ele>2130.1</ele>
        <time>2018-04-21T09:04:39.000Z</time>
      </trkpt>
      <trkpt lat="40.807981" lon="-3.875003">
        <ele>2130.3</ele>
        <time>2018-04-21T09:04:40.000Z</time>
      </trkpt>
      <trkpt lat="40.807976" lon="-3.875009">
        <ele>2130.4</ele>
        <time>2018-04-21T09:04:41.000Z</time>
      </trkpt>
      <trkpt lat="40.80797" lon="-3.875014">
        <ele>2130.5</ele>
        <time>2018-04-21T09:04:42.000Z</time>
      </trkpt>
      <trkpt lat="40.807964" lon="-3.87502">
        <ele>2130.7</ele>
        <time>2018-04-21T09:04:43.000Z</time>
      </trkpt>
      <trkpt lat="40.807958" lon="-3.875026">
        <ele>2130.8</ele>
        <time>2018-04-21T09:04:44.000Z</time>
      </trkpt>
      <trkpt lat="40.807952" lon="-3.875032">
        <ele>2130.9</ele>
        <time>2018-04-21T09:04:45.000Z</time>
      </trkpt>
      <trkpt lat="40.807946" lon="-3.875038">
        <ele>2131.1</ele>
        <time>2018-04-21T09:04:46.000Z</time>
      </trkpt>
      <trkpt lat="40.80794" lon="-3.875044">
        <ele>2131.2</ele>
        <time>2018-04-21T09:04:47.000Z</time>
      </trkpt>
      <trkpt lat="40.807934" lon="-3.875051">
        <ele>2131.4</ele>
        <time>2018-04-21T09:04:48.000Z</time>
      </trkpt>
      <trkpt lat="40.807929" lon="-3.875057">
        <ele>2131.5</ele>
        <time>2018-04-21T09:04:49.000Z</time>
      </trkpt>
      <trkpt lat="40.807923" lon="-3.875063">
        <ele>2131.6</ele>
        <time>2018-04-21T09:04:50.000Z</time>
      </trkpt>
      <trkpt lat="40.807917" lon="-3.87507">
        <ele>2131.8</ele>
        <time>2018-04-21T09:04:51.000Z</time>
      </trkpt>
      <trkpt lat="40.807911" lon="-3.875076">
        <ele>2131.9</ele>
        <time>2018-04-21T09:04:52.000Z</time>
      </trkpt>
      <trkpt lat="40.807906" lon="-3.875083">
        <ele>2132.1</ele>
        <time>2018-04-21T09:04:53.000Z</time>
      </trkpt>
      <trkpt lat="40.8079" lon="-3.875089">
        <ele>2132.2</ele>
        <time>2018-04-21T09:04:54.000Z</time>
      </trkpt>
      <trkpt lat="40.807895" lon="-3.875096">
        <ele>2132.4</ele>
        <time>2018-04-21T09:04:55.000Z</time>
      </trkpt>
      <trkpt lat="40.807889" lon="-3.875102">
        <ele>2132.5</ele>
        <time>2018-04-21T09:04:56.000Z</time>
      </trkpt>
      <trkpt lat="40.807884" lon="-3.875108">
        <ele>2132.6</ele>
        <time>2018-04-21T09:04:57.000Z</time>
      </trkpt>
      <trkpt lat="40.807878" lon="-3.875114">
        <ele>2132.8</ele>
        <time>2018-04-21T09:04:58.000Z</time>
      </trkpt>
      <trkpt lat="40.807873" lon="-3.87512">
        <ele>2132.9</ele>
        <time>2018-04-21T09:04:59.000Z</time>
      </trkpt>
      <trkpt lat="40.807868" lon="-3.875127">
        <ele>2133.1</ele>
        <time>2018-04-21T09:05:00.000Z</time>
      </trkpt>
      <trkpt lat="40.807862" lon="-3.875133">
        <ele>2133.2</ele>
        <time>2018-04-21T09:05:01.000Z</time>
      </trkpt>
      <trkpt lat="40.807857" lon="-3.875139">
        <ele>2133.3</ele>
        <time>2018-04-21T09:05:02.000Z</time>
      </trkpt>
      <trkpt lat="40.807852" lon="-3.875145">
        <ele>2133.5</ele>
        <time>2018-04-21T09:05:03.000Z</time>
      </trkpt>
      <trkpt lat="40.807847" lon="-3.875151">
        <ele>2133.6</ele>
        <time>2018-04-21T09:05:04.000Z</time>
      </trkpt>
      <trkpt lat="40.807842" lon="-3.875157">
        <ele>2133.7</ele>
        <time>2018-04-21T09:05:05.000Z</time>
      </trkpt>
      <trkpt lat="40.807837" lon="-3.875163">
        <ele>2133.9</ele>
        <time>2018-04-21T09:05:06.000Z</time>
      </trkpt>
      <trkpt lat="40.807832" lon="-3.875169">
        <ele>2134.0</ele>
        <time>2018-04-21T09:05:07.000Z</time>
      </trkpt>
      <trkpt lat="40.807828" lon="-3.875175">
        <ele>2134.1</ele>
        <time>2018-04-21T09:05:08.000Z</time>
      </trkpt>
      <trkpt lat="40.807823" lon="-3.875181">
        <ele>2134.3</ele>
        <time>2018-04-21T09:05:09.000Z</time>
      </trkpt>
      <trkpt lat="40.807818" lon="-3.875187">
        <ele>2134.4</ele>
        <time>2018-04-21T09:05:10.000Z</time>
      </trkpt>
      <trkpt lat="40.807814" lon="-3.875194">
        <ele>2134.5</ele>
        <time>2018-04-21T09:05:11.000Z</time>
      </trkpt>
      <trkpt lat="40.807809" lon="-3.8752">
        <ele>2134.7</ele>
        <time>2018-04-21T09:05:12.000Z</time>
      </trkpt>
      <trkpt lat="40.807804" lon="-3.875206">
        <ele>2134.8</ele>
        <time>2018-04-21T09:05:13.000Z</time>
      </trkpt>
      <trkpt lat="40.8078" lon="-3.875213">
        <ele>2134.9</ele>
        <time>2018-04-21T09:05:14.000Z</time>
      </trkpt>
      <trkpt lat="40.807796" lon="-3.875219">
        <ele>2135.1</ele>
        <time>2018-04-21T09:05:15.000Z</time>
      </trkpt>
      <trkpt lat="40.807791" lon="-3.875226">
        <ele>2135.2</ele>
        <time>2018-04-21T09:05:16.000Z</time>
      </trkpt>
      <trkpt lat="40.807787" lon="-3.875233">
        <ele>2135.3</ele>
        <time>2018-04-21T09:05:17.000Z</time>
      </trkpt>
      <trkpt lat="40.807783" lon="-3.87524">
        <ele>2135.5</ele>
        <time>2018-04-21T09:05:18.000Z</time>
      </trkpt>
      <trkpt lat="40.807779" lon="-3.875248">
        <ele>2135.6</ele>
        <time>2018-04-21T09:05:19.000Z</time>
      </trkpt>
      <trkpt lat="40.807775" lon="-3.875255">
        <ele>2135.8</ele>
        <time>2018-04-21T09:05:20.000Z</time>
      </trkpt>
      <trkpt lat="40.807771" lon="-3.875263">
        <ele>2135.9</ele>
        <time>2018-04-21T09:05:21.000Z</time>
      </trkpt>
      <trkpt lat="40.807768" lon="-3.875271">
        <ele>2136.0</ele>
        <time>2018-04-21T09:05:22.000Z</time>
      </trkpt>
      <trkpt lat="40.807764" lon="-3.87528">
        <ele>2136.2</ele>
        <time>2018-04-21T09:05:23.000Z</time>
      </trkpt>
      <trkpt lat="40.807761" lon="-3.875289">
        <ele>2136.4</ele>
        <time>2018-04-21T09:05:24.000Z</time>
      </trkpt>
      <trkpt lat="40.807757" lon="-3.875297">
        <ele>2136.5</ele>
        <time>2018-04-21T09:05:25.000Z</time>
      </trkpt>
      <trkpt lat="40.807754" lon="-3.875305">
        <ele>2136.6</ele>
        <time>2018-04-21T09:05:26.000Z</time>
      </trkpt>
      <trkpt lat="40.80775" lon="-3.875312">
        <ele>2136.8</ele>
        <time>2018-04-21T09:05:27.000Z</time>
      </trkpt>
      <trkpt lat="40.807747" lon="-3.875317">
        <ele>2136.9</ele>
        <time>2018-04-21T09:05:28.000Z</time>
      </trkpt>
      <trkpt lat="40.807743" lon="-3.875319">
        <ele>2137.0</ele>
        <time>2018-04-21T09:05:29.000Z</time>
      </trkpt>
      <trkpt lat="40.807739" lon="-3.875321">
        <ele>2137.0</ele>
        <time>2018-04-21T09:05:30.000Z</time>
      </trkpt>
      <trkpt lat="40.807736" lon="-3.87532">
        <ele>2137.1</ele>
        <time>2018-04-21T09:05:31.000Z</time>
      </trkpt>
      <trkpt lat="40.807733" lon="-3.87532">
        <ele>2137.1</ele>
        <time>2018-04-21T09:05:32.000Z</time>
      </trkpt>
      <trkpt lat="40.807732" lon="-3.875319">
        <ele>2137.1</ele>
        <time>2018-04-21T09:05:33.000Z</time>
      </trkpt>
      <trkpt lat="40.807731" lon="-3.875318">
        <ele>2137.1</ele>
        <time>2018-04-21T09:05:34.000Z</time>
      </trkpt>
      <trkpt lat="40.807732" lon="-3.875318">
        <ele>2137.1</ele>
        <time>2018-04-21T09:05:35.000Z</time>
      </trkpt>
      <trkpt lat="40.807732" lon="-3.875317">
        <ele>2137.1</ele>
        <time>2018-04-21T09:05:36.000Z</time>
      </trkpt>
      <trkpt lat="40.807732" lon="-3.875317">
        <ele>2137.1</ele>
        <time>2018-04-21T09:05:37.000Z</time>
      </trkpt>
      <trkpt lat="40.807732" lon="-3.875317">
        <ele>2137.1</ele>
        <time>2018-04-21T09:05:38.000Z</time>
      </trkpt>
      <trkpt lat="40.807732" lon="-3.875318">
        <ele>2137.1</ele>
        <time>2018-04-21T09:05:39.000Z</time>
      </trkpt>
      <trkpt lat="40.80773" lon="-3.875318">
        <ele>2137.1</ele>
        <time>2018-04-21T09:05:40.000Z</time>
      </trkpt>
      <trkpt lat="40.807727" lon="-3.875319">
        <ele>2137.2</ele>
        <time>2018-04-21T09:05:41.000Z</time>
      </trkpt>
      <trkpt lat="40.807723" lon="-3.875321">
        <ele>2137.3</ele>
        <time>2018-04-21T09:05:42.000Z</time>
      </trkpt>
      <trkpt lat="40.807717" lon="-3.875322">
        <ele>2137.3</ele>
        <time>2018-04-21T09:05:43.000Z</time>
      </trkpt>
      <trkpt lat="40.807712" lon="-3.875324">
        <ele>2137.4</ele>
        <time>2018-04-21T09:05:44.000Z</time>
      </trkpt>
      <trkpt lat="40.807706" lon="-3.875325">
        <ele>2137.5</ele>
        <time>2018-04-21T09:05:45.000Z</time>
      </trkpt>
      <trkpt lat="40.807702" lon="-3.875325">
        <ele>2137.6</ele>
        <time>2018-04-21T09:05:46.000Z</time>
      </trkpt>
      <trkpt lat="40.8077" lon="-3.875325">
        <ele>2137.6</ele>
        <time>2018-04-21T09:05:47.000Z</time>
      </trkpt>
      <trkpt lat="40.807699" lon="-3.875324">
        <ele>2137.6</ele>
        <time>2018-04-21T09:05:48.000Z</time>
      </trkpt>
      <trkpt lat="40.807698" lon="-3.875325">
        <ele>2137.6</ele>
        <time>2018-04-21T09:05:49.000Z</time>
      </trkpt>
      <trkpt lat="40.807697" lon="-3.875327">
        <ele>2137.7</ele>
        <time>2018-04-21T09:05:50.000Z</time>
      </trkpt>
      <trkpt lat="40.807696" lon="-3.875332">
        <ele>2137.7</ele>
        <time>2018-04-21T09:05:51.000Z</time>
      </trkpt>
      <trkpt lat="40.807693" lon="-3.875339">
        <ele>2137.9</ele>
        <time>2018-04-21T09:05:52.000Z</time>
      </trkpt>
      <trkpt lat="40.80769" lon="-3.875347">
        <ele>2138.0</ele>
        <time>2018-04-21T09:05:53.000Z</time>
      </trkpt>
      <trkpt lat="40.807687" lon="-3.875354">
        <ele>2138.1</ele>
        <time>2018-04-21T09:05:54.000Z</time>
      </trkpt>
      <trkpt lat="40.807683" lon="-3.875361">
        <ele>2138.3</ele>
        <time>2018-04-21T09:05:55.000Z</time>
      </trkpt>
      <trkpt lat="40.807678" lon="-3.875366">
        <ele>2138.4</ele>
        <time>2018-04-21T09:05:56.000Z</time>
      </trkpt>
      <trkpt lat="40.807674" lon="-3.87537">
        <ele>2138.5</ele>
        <time>2018-04-21T09:05:57.000Z</time>
      </trkpt>
      <trkpt lat="40.807669" lon="-3.875374">
        <ele>2138.6</ele>
        <time>2018-04-21T09:05:58.000Z</time>
      </trkpt>
      <trkpt lat="40.807664" lon="-3.875377">
        <ele>2138.7</ele>
        <time>2018-04-21T09:05:59.000Z</time>
      </trkpt>
      <trkpt lat="40.80766" lon="-3.87538">
        <ele>2138.8</ele>
        <time>2018-04-21T09:06:00.000Z</time>
      </trkpt>
      <trkpt lat="40.807655" lon="-3.875384">
        <ele>2139.0</ele>
        <time>2018-04-21T09:06:01.000Z</time>
      </trkpt>
      <trkpt lat="40.807651" lon="-3.875389">
        <ele>2139.1</ele>
        <time>2018-04-21T09:06:02.000Z</time>
      </trkpt>
      <trkpt lat="40.807646" lon="-3.875394">
        <ele>2139.2</ele>
        <time>2018-04-21T09:06:03.000Z</time>
      </trkpt>
      <trkpt lat="40.807642" lon="-3.875399">
        <ele>2139.3</ele>
        <time>2018-04-21T09:06:04.000Z</time>
      </trkpt>
      <trkpt lat="40.807638" lon="-3.875405">
        <ele>2139.4</ele>
        <time>2018-04-21T09:06:05.000Z</time>
      </trkpt>
      <trkpt lat="40.807633" lon="-3.87541">
        <ele>2139.6</ele>
        <time>2018-04-21T09:06:06.000Z</time>
      </trkpt>
      <trkpt lat="40.807629" lon="-3.875416">
        <ele>2139.7</ele>
        <time>2018-04-21T09:06:07.000Z</time>
      </trkpt>
      <trkpt lat="40.807625" lon="-3.875422">
        <ele>2139.8</ele>
        <time>2018-04-21T09:06:08.000Z</time>
      </trkpt>
      <trkpt lat="40.807621" lon="-3.875429">
        <ele>2140.0</ele>
        <time>2018-04-21T09:06:09.000Z</time>
      </trkpt>
      <trkpt lat="40.807616" lon="-3.875435">
        <ele>2140.1</ele>
        <time>2018-04-21T09:06:10.000Z</time>
      </trkpt>
      <trkpt lat="40.807612" lon="-3.875441">
        <ele>2140.3</ele>
        <time>2018-04-21T09:06:11.000Z</time>
      </trkpt>
      <trkpt lat="40.807608" lon="-3.875448">
        <ele>2140.4</ele>
        <time>2018-04-21T09:06:12.000Z</time>
      </trkpt>
      <trkpt lat="40.807604" lon="-3.875454">
        <ele>2140.5</ele>
        <time>2018-04-21T09:06:13.000Z</time>
      </trkpt>
      <trkpt lat="40.8076" lon="-3.875461">
        <ele>2140.7</ele>
        <time>2018-04-21T09:06:14.000Z</time>
      </trkpt>
      <trkpt lat="40.807596" lon="-3.875467">
        <ele>2140.8</ele>
        <time>2018-04-21T09:06:15.000Z</time>
      </trkpt>
      <trkpt lat="40.807592" lon="-3.875473">
        <ele>2141.0</ele>
        <time>2018-04-21T09:06:16.000Z</time>
      </trkpt>
      <trkpt lat="40.807588" lon="-3.87548">
        <ele>2141.1</ele>
        <time>2018-04-21T09:06:17.000Z</time>
      </trkpt>
      <trkpt lat="40.807584" lon="-3.875486">
        <ele>2141.2</ele>
        <time>2018-04-21T09:06:18.000Z</time>
      </trkpt>
      <trkpt lat="40.80758" lon="-3.875492">
        <ele>2141.4</ele>
        <time>2018-04-21T09:06:19.000Z</time>
      </trkpt>
      <trkpt lat="40.807576" lon="-3.875497">
        <ele>2141.5</ele>
        <time>2018-04-21T09:06:20.000Z</time>
      </trkpt>
      <trkpt lat="40.807572" lon="-3.875503">
        <ele>2141.6</ele>
        <time>2018-04-21T09:06:21.000Z</time>
      </trkpt>
      <trkpt lat="40.807568" lon="-3.875509">
        <ele>2141.8</ele>
        <time>2018-04-21T09:06:22.000Z</time>
      </trkpt>
      <trkpt lat="40.807564" lon="-3.875514">
        <ele>2141.9</ele>
        <time>2018-04-21T09:06:23.000Z</time>
      </trkpt>
      <trkpt lat="40.807559" lon="-3.875519">
        <ele>2142.0</ele>
        <time>2018-04-21T09:06:24.000Z</time>
      </trkpt>
      <trkpt lat="40.807555" lon="-3.875523">
        <ele>2142.1</ele>
        <time>2018-04-21T09:06:25.000Z</time>
      </trkpt>
      <trkpt lat="40.807551" lon="-3.875528">
        <ele>2142.2</ele>
        <time>2018-04-21T09:06:26.000Z</time>
      </trkpt>
      <trkpt lat="40.807546" lon="-3.875532">
        <ele>2142.4</ele>
        <time>2018-04-21T09:06:27.000Z</time>
      </trkpt>
      <trkpt lat="40.807542" lon="-3.875536">
        <ele>2142.5</ele>
        <time>2018-04-21T09:06:28.000Z</time>
      </trkpt>
      <trkpt lat="40.807537" lon="-3.87554">
        <ele>2142.6</ele>
        <time>2018-04-21T09:06:29.000Z</time>
      </trkpt>
      <trkpt lat="40.807533" lon="-3.875543">
        <ele>2142.7</ele>
        <time>2018-04-21T09:06:30.000Z</time>
      </trkpt>
      <trkpt lat="40.807528" lon="-3.875547">
        <ele>2142.8</ele>
        <time>2018-04-21T09:06:31.000Z</time>
      </trkpt>
      <trkpt lat="40.807524" lon="-3.875551">
        <ele>2142.9</ele>
        <time>2018-04-21T09:06:32.000Z</time>
      </trkpt>
      <trkpt lat="40.80752" lon="-3.875556">
        <ele>2143.1</ele>
        <time>2018-04-21T09:06:33.000Z</time>
      </trkpt>
      <trkpt lat="40.807517" lon="-3.875561">
        <ele>2143.2</ele>
        <time>2018-04-21T09:06:34.000Z</time>
      </trkpt>
      <trkpt lat="40.807513" lon="-3.875566">
        <ele>2143.3</ele>
        <time>2018-04-21T09:06:35.000Z</time>
      </trkpt>
      <trkpt lat="40.80751" lon="-3.875572">
        <ele>2143.4</ele>
        <time>2018-04-21T09:06:36.000Z</time>
      </trkpt>
      <trkpt lat="40.807508" lon="-3.875578">
        <ele>2143.5</ele>
        <time>2018-04-21T09:06:37.000Z</time>
      </trkpt>
      <trkpt lat="40.807505" lon="-3.875585">
        <ele>2143.6</ele>
        <time>2018-04-21T09:06:38.000Z</time>
      </trkpt>
      <trkpt lat="40.807503" lon="-3.875592">
        <ele>2143.8</ele>
        <time>2018-04-21T09:06:39.000Z</time>
      </trkpt>
      <trkpt lat="40.8075" lon="-3.8756">
        <ele>2143.9</ele>
        <time>2018-04-21T09:06:40.000Z</time>
      </trkpt>
      <trkpt lat="40.807498" lon="-3.875607">
        <ele>2144.0</ele>
        <time>2018-04-21T09:06:41.000Z</time>
      </trkpt>
      <trkpt lat="40.807496" lon="-3.875614">
        <ele>2144.1</ele>
        <time>2018-04-21T09:06:42.000Z</time>
      </trkpt>
      <trkpt lat="40.807493" lon="-3.875621">
        <ele>2144.2</ele>
        <time>2018-04-21T09:06:43.000Z</time>
      </trkpt>
      <trkpt lat="40.807491" lon="-3.875628">
        <ele>2144.4</ele>
        <time>2018-04-21T09:06:44.000Z</time>
      </trkpt>
      <trkpt lat="40.807488" lon="-3.875634">
        <ele>2144.5</ele>
        <time>2018-04-21T09:06:45.000Z</time>
      </trkpt>
      <trkpt lat="40.807485" lon="-3.87564">
        <ele>2144.6</ele>
        <time>2018-04-21T09:06:46.000Z</time>
      </trkpt>
      <trkpt lat="40.807482" lon="-3.875645">
        <ele>2144.7</ele>
        <time>2018-04-21T09:06:47.000Z</time>
      </trkpt>
      <trkpt lat="40.807479" lon="-3.87565">
        <ele>2144.7</ele>
        <time>2018-04-21T09:06:48.000Z</time>
      </trkpt>
      <trkpt lat="40.807476" lon="-3.875655">
        <ele>2144.8</ele>
        <time>2018-04-21T09:06:49.000Z</time>
      </trkpt>
      <trkpt lat="40.807473" lon="-3.875659">
        <ele>2144.9</ele>
        <time>2018-04-21T09:06:50.000Z</time>
      </trkpt>
      <trkpt lat="40.807469" lon="-3.875664">
        <ele>2145.0</ele>
        <time>2018-04-21T09:06:51.000Z</time>
      </trkpt>
      <trkpt lat="40.807466" lon="-3.875668">
        <ele>2145.1</ele>
        <time>2018-04-21T09:06:52.000Z</time>
      </trkpt>
      <trkpt lat="40.807463" lon="-3.875672">
        <ele>2145.2</ele>
        <time>2018-04-21T09:06:53.000Z</time>
      </trkpt>
      <trkpt lat="40.80746" lon="-3.875676">
        <ele>2145.2</ele>
        <time>2018-04-21T09:06:54.000Z</time>
      </trkpt>
      <trkpt lat="40.807457" lon="-3.87568">
        <ele>2145.3</ele>
        <time>2018-04-21T09:06:55.000Z</time>
      </trkpt>
      <trkpt lat="40.807454" lon="-3.875684">
        <ele>2145.4</ele>
        <time>2018-04-21T09:06:56.000Z</time>
      </trkpt>
      <trkpt lat="40.807452" lon="-3.875688">
        <ele>2145.5</ele>
        <time>2018-04-21T09:06:57.000Z</time>
      </trkpt>
      <trkpt lat="40.807449" lon="-3.875692">
        <ele>2145.6</ele>
        <time>2018-04-21T09:06:58.000Z</time>
      </trkpt>
      <trkpt lat="40.807447" lon="-3.875696">
        <ele>2145.6</ele>
        <time>2018-04-21T09:06:59.000Z</time>
      </trkpt>
      <trkpt lat="40.807445" lon="-3.8757">
        <ele>2145.7</ele>
        <time>2018-04-21T09:07:00.000Z</time>
      </trkpt>
      <trkpt lat="40.807443" lon="-3.875705">
        <ele>2145.8</ele>
        <time>2018-04-21T09:07:01.000Z</time>
      </trkpt>
      <trkpt lat="40.807442" lon="-3.875709">
        <ele>2145.8</ele>
        <time>2018-04-21T09:07:02.000Z</time>
      </trkpt>
      <trkpt lat="40.80744" lon="-3.875713">
        <ele>2145.9</ele>
        <time>2018-04-21T09:07:03.000Z</time>
      </trkpt>
      <trkpt lat="40.807439" lon="-3.875718">
        <ele>2146.0</ele>
        <time>2018-04-21T09:07:04.000Z</time>
      </trkpt>
      <trkpt lat="40.807438" lon="-3.875722">
        <ele>2146.1</ele>
        <time>2018-04-21T09:07:05.000Z</time>
      </trkpt>
      <trkpt lat="40.807437" lon="-3.875727">
        <ele>2146.1</ele>
        <time>2018-04-21T09:07:06.000Z</time>
      </trkpt>
      <trkpt lat="40.807435" lon="-3.875733">
        <ele>2146.2</ele>
        <time>2018-04-21T09:07:07.000Z</time>
      </trkpt>
      <trkpt lat="40.807434" lon="-3.875738">
        <ele>2146.3</ele>
        <time>2018-04-21T09:07:08.000Z</time>
      </trkpt>
      <trkpt lat="40.807433" lon="-3.875744">
        <ele>2146.4</ele>
        <time>2018-04-21T09:07:09.000Z</time>
      </trkpt>
      <trkpt lat="40.807432" lon="-3.875751">
        <ele>2146.5</ele>
        <time>2018-04-21T09:07:10.000Z</time>
      </trkpt>
      <trkpt lat="40.80743" lon="-3.875758">
        <ele>2146.6</ele>
        <time>2018-04-21T09:07:11.000Z</time>
      </trkpt>
      <trkpt lat="40.807429" lon="-3.875766">
        <ele>2146.7</ele>
        <time>2018-04-21T09:07:12.000Z</time>
      </trkpt>
      <trkpt lat="40.807427" lon="-3.875774">
        <ele>2146.9</ele>
        <time>2018-04-21T09:07:13.000Z</time>
      </trkpt>
      <trkpt lat="40.807425" lon="-3.875783">
        <ele>2147.0</ele>
        <time>2018-04-21T09:07:14.000Z</time>
      </trkpt>
      <trkpt lat="40.807424" lon="-3.875791">
        <ele>2147.1</ele>
        <time>2018-04-21T09:07:15.000Z</time>
      </trkpt>
      <trkpt lat="40.807423" lon="-3.8758">
        <ele>2147.3</ele>
        <time>2018-04-21T09:07:16.000Z</time>
      </trkpt>
      <trkpt lat="40.807422" lon="-3.875808">
        <ele>2147.4</ele>
        <time>2018-04-21T09:07:17.000Z</time>
      </trkpt>
      <trkpt lat="40.807422" lon="-3.875815">
        <ele>2147.5</ele>
        <time>2018-04-21T09:07:18.000Z</time>
      </trkpt>
      <trkpt lat="40.807423" lon="-3.875822">
        <ele>2147.6</ele>
        <time>2018-04-21T09:07:19.000Z</time>
      </trkpt>
      <trkpt lat="40.807424" lon="-3.875828">
        <ele>2147.7</ele>
        <time>2018-04-21T09:07:20.000Z</time>
      </trkpt>
      <trkpt lat="40.807427" lon="-3.875833">
        <ele>2147.7</ele>
        <time>2018-04-21T09:07:21.000Z</time>
      </trkpt>
      <trkpt lat="40.807429" lon="-3.875837">
        <ele>2147.7</ele>
        <time>2018-04-21T09:07:22.000Z</time>
      </trkpt>
      <trkpt lat="40.807431" lon="-3.87584">
        <ele>2147.7</ele>
        <time>2018-04-21T09:07:23.000Z</time>
      </trkpt>
      <trkpt lat="40.807431" lon="-3.875844">
        <ele>2147.8</ele>
        <time>2018-04-21T09:07:24.000Z</time>
      </trkpt>
      <trkpt lat="40.807429" lon="-3.875847">
        <ele>2147.8</ele>
        <time>2018-04-21T09:07:25.000Z</time>
      </trkpt>
      <trkpt lat="40.807424" lon="-3.875852">
        <ele>2147.9</ele>
        <time>2018-04-21T09:07:26.000Z</time>
      </trkpt>
      <trkpt lat="40.807418" lon="-3.875857">
        <ele>2148.0</ele>
        <time>2018-04-21T09:07:27.000Z</time>
      </trkpt>
      <trkpt lat="40.807411" lon="-3.875864">
        <ele>2148.1</ele>
        <time>2018-04-21T09:07:28.000Z</time>
      </trkpt>
      <trkpt lat="40.807406" lon="-3.875873">
        <ele>2148.3</ele>
        <time>2018-04-21T09:07:29.000Z</time>
      </trkpt>
      <trkpt lat="40.807404" lon="-3.875884">
        <ele>2148.4</ele>
        <time>2018-04-21T09:07:30.000Z</time>
      </trkpt>
      <trkpt lat="40.807404" lon="-3.875896">
        <ele>2148.5</ele>
        <time>2018-04-21T09:07:31.000Z</time>
      </trkpt>
      <trkpt lat="40.807406" lon="-3.875908">
        <ele>2148.6</ele>
        <time>2018-04-21T09:07:32.000Z</time>
      </trkpt>
      <trkpt lat="40.807408" lon="-3.87592">
        <ele>2148.7</ele>
        <time>2018-04-21T09:07:33.000Z</time>
      </trkpt>
      <trkpt lat="40.80741" lon="-3.87593">
        <ele>2148.8</ele>
        <time>2018-04-21T09:07:34.000Z</time>
      </trkpt>
      <trkpt lat="40.807411" lon="-3.875938">
        <ele>2148.8</ele>
        <time>2018-04-21T09:07:35.000Z</time>
      </trkpt>
      <trkpt lat="40.807412" lon="-3.875944">
        <ele>2148.9</ele>
        <time>2018-04-21T09:07:36.000Z</time>
      </trkpt>
      <trkpt lat="40.807412" lon="-3.875948">
        <ele>2148.9</ele>
        <time>2018-04-21T09:07:37.000Z</time>
      </trkpt>
      <trkpt lat="40.807411" lon="-3.875951">
        <ele>2148.9</ele>
        <time>2018-04-21T09:07:38.000Z</time>
      </trkpt>
      <trkpt lat="40.807411" lon="-3.875952">
        <ele>2148.9</ele>
        <time>2018-04-21T09:07:39.000Z</time>
      </trkpt>
      <trkpt lat="40.807411" lon="-3.875953">
        <ele>2149.0</ele>
        <time>2018-04-21T09:07:40.000Z</time>
      </trkpt>
      <trkpt lat="40.807411" lon="-3.875953">
        <ele>2149.0</ele>
        <time>2018-04-21T09:07:41.000Z</time>
      </trkpt>
      <trkpt lat="40.807411" lon="-3.875953">
        <ele>2149.0</ele>
        <time>2018-04-21T09:07:42.000Z</time>
      </trkpt>
      <trkpt lat="40.807411" lon="-3.875952">
        <ele>2148.9</ele>
        <time>2018-04-21T09:07:43.000Z</time>
      </trkpt>
      <trkpt lat="40.807411" lon="-3.875952">
        <ele>2148.9</ele>
        <time>2018-04-21T09:07:44.000Z</time>
      </trkpt>
      <trkpt lat="40.80741" lon="-3.875951">
        <ele>2148.9</ele>
        <time>2018-04-21T09:07:45.000Z</time>
      </trkpt>
      <trkpt lat="40.807409" lon="-3.875952">
        <ele>2149.0</ele>
        <time>2018-04-21T09:07:46.000Z</time>
      </trkpt>
      <trkpt lat="40.807408" lon="-3.875953">
        <ele>2149.0</ele>
        <time>2018-04-21T09:07:47.000Z</time>
      </trkpt>
      <trkpt lat="40.807407" lon="-3.875955">
        <ele>2149.0</ele>
        <time>2018-04-21T09:07:48.000Z</time>
      </trkpt>
      <trkpt lat="40.807405" lon="-3.875958">
        <ele>2149.1</ele>
        <time>2018-04-21T09:07:49.000Z</time>
      </trkpt>
      <trkpt lat="40.807403" lon="-3.875962">
        <ele>2149.1</ele>
        <time>2018-04-21T09:07:50.000Z</time>
      </trkpt>
      <trkpt lat="40.8074" lon="-3.875966">
        <ele>2149.2</ele>
        <time>2018-04-21T09:07:51.000Z</time>
      </trkpt>
      <trkpt lat="40.807397" lon="-3.875971">
        <ele>2149.3</ele>
        <time>2018-04-21T09:07:52.000Z</time>
      </trkpt>
      <trkpt lat="40.807393" lon="-3.875975">
        <ele>2149.3</ele>
        <time>2018-04-21T09:07:53.000Z</time>
      </trkpt>
      <trkpt lat="40.807389" lon="-3.87598">
        <ele>2149.4</ele>
        <time>2018-04-21T09:07:54.000Z</time>
      </trkpt>
      <trkpt lat="40.807384" lon="-3.875984">
        <ele>2149.5</ele>
        <time>2018-04-21T09:07:55.000Z</time>
      </trkpt>
      <trkpt lat="40.80738" lon="-3.875988">
        <ele>2149.6</ele>
        <time>2018-04-21T09:07:56.000Z</time>
      </trkpt>
      <trkpt lat="40.807374" lon="-3.875992">
        <ele>2149.7</ele>
        <time>2018-04-21T09:07:57.000Z</time>
      </trkpt>
      <trkpt lat="40.807369" lon="-3.875995">
        <ele>2149.8</ele>
        <time>2018-04-21T09:07:58.000Z</time>
      </trkpt>
      <trkpt lat="40.807363" lon="-3.875998">
        <ele>2149.9</ele>
        <time>2018-04-21T09:07:59.000Z</time>
      </trkpt>
      <trkpt lat="40.807357" lon="-3.876">
        <ele>2150.0</ele>
        <time>2018-04-21T09:08:00.000Z</time>
      </trkpt>
      <trkpt lat="40.807352" lon="-3.876003">
        <ele>2150.1</ele>
        <time>2018-04-21T09:08:01.000Z</time>
      </trkpt>
      <trkpt lat="40.807346" lon="-3.876007">
        <ele>2150.2</ele>
        <time>2018-04-21T09:08:02.000Z</time>
      </trkpt>
      <trkpt lat="40.80734" lon="-3.87601">
        <ele>2150.3</ele>
        <time>2018-04-21T09:08:03.000Z</time>
      </trkpt>
      <trkpt lat="40.807335" lon="-3.876015">
        <ele>2150.4</ele>
        <time>2018-04-21T09:08:04.000Z</time>
      </trkpt>
      <trkpt lat="40.807329" lon="-3.87602">
        <ele>2150.5</ele>
        <time>2018-04-21T09:08:05.000Z</time>
      </trkpt>
      <trkpt lat="40.807324" lon="-3.876026">
        <ele>2150.6</ele>
        <time>2018-04-21T09:08:06.000Z</time>
      </trkpt>
      <trkpt lat="40.80732" lon="-3.876034">
        <ele>2150.7</ele>
        <time>2018-04-21T09:08:07.000Z</time>
      </trkpt>
      <trkpt lat="40.807316" lon="-3.876041">
        <ele>2150.8</ele>
        <time>2018-04-21T09:08:08.000Z</time>
      </trkpt>
      <trkpt lat="40.807312" lon="-3.87605">
        <ele>2151.0</ele>
        <time>2018-04-21T09:08:09.000Z</time>
      </trkpt>
      <trkpt lat="40.807308" lon="-3.876058">
        <ele>2151.1</ele>
        <time>2018-04-21T09:08:10.000Z</time>
      </trkpt>
      <trkpt lat="40.807304" lon="-3.876066">
        <ele>2151.2</ele>
        <time>2018-04-21T09:08:11.000Z</time>
      </trkpt>
      <trkpt lat="40.8073" lon="-3.876075">
        <ele>2151.4</ele>
        <time>2018-04-21T09:08:12.000Z</time>
      </trkpt>
      <trkpt lat="40.807296" lon="-3.876082">
        <ele>2151.5</ele>
        <time>2018-04-21T09:08:13.000Z</time>
      </trkpt>
      <trkpt lat="40.807292" lon="-3.87609">
        <ele>2151.6</ele>
        <time>2018-04-21T09:08:14.000Z</time>
      </trkpt>
      <trkpt lat="40.807287" lon="-3.876096">
        <ele>2151.7</ele>
        <time>2018-04-21T09:08:15.000Z</time>
      </trkpt>
      <trkpt lat="40.807283" lon="-3.876101">
        <ele>2151.8</ele>
        <time>2018-04-21T09:08:16.000Z</time>
      </trkpt>
      <trkpt lat="40.807278" lon="-3.876106">
        <ele>2151.9</ele>
        <time>2018-04-21T09:08:17.000Z</time>
      </trkpt>
      <trkpt lat="40.807273" lon="-3.876111">
        <ele>2152.1</ele>
        <time>2018-04-21T09:08:18.000Z</time>
      </trkpt>
      <trkpt lat="40.807268" lon="-3.876115">
        <ele>2152.2</ele>
        <time>2018-04-21T09:08:19.000Z</time>
      </trkpt>
      <trkpt lat="40.807262" lon="-3.876119">
        <ele>2152.3</ele>
        <time>2018-04-21T09:08:20.000Z</time>
      </trkpt>
      <trkpt lat="40.807256" lon="-3.876123">
        <ele>2152.4</ele>
        <time>2018-04-21T09:08:21.000Z</time>
      </trkpt>
      <trkpt lat="40.807249" lon="-3.876127">
        <ele>2152.5</ele>
        <time>2018-04-21T09:08:22.000Z</time>
      </trkpt>
      <trkpt lat="40.807242" lon="-3.87613">
        <ele>2152.6</ele>
        <time>2018-04-21T09:08:23.000Z</time>
      </trkpt>
      <trkpt lat="40.807234" lon="-3.876135">
        <ele>2152.8</ele>
        <time>2018-04-21T09:08:24.000Z</time>
      </trkpt>
      <trkpt lat="40.807226" lon="-3.876139">
        <ele>2152.9</ele>
        <time>2018-04-21T09:08:25.000Z</time>
      </trkpt>
      <trkpt lat="40.807218" lon="-3.876143">
        <ele>2153.1</ele>
        <time>2018-04-21T09:08:26.000Z</time>
      </trkpt>
      <trkpt lat="40.80721" lon="-3.876148">
        <ele>2153.2</ele>
        <time>2018-04-21T09:08:27.000Z</time>
      </trkpt>
      <trkpt lat="40.807201" lon="-3.876153">
        <ele>2153.4</ele>
        <time>2018-04-21T09:08:28.000Z</time>
      </trkpt>
      <trkpt lat="40.807193" lon="-3.876158">
        <ele>2153.5</ele>
        <time>2018-04-21T09:08:29.000Z</time>
      </trkpt>
      <trkpt lat="40.807185" lon="-3.876163">
        <ele>2153.7</ele>
        <time>2018-04-21T09:08:30.000Z</time>
      </trkpt>
      <trkpt lat="40.807177" lon="-3.876168">
        <ele>2153.8</ele>
        <time>2018-04-21T09:08:31.000Z</time>
      </trkpt>
      <trkpt lat="40.807169" lon="-3.876174">
        <ele>2154.0</ele>
        <time>2018-04-21T09:08:32.000Z</time>
      </trkpt>
      <trkpt lat="40.807162" lon="-3.876179">
        <ele>2154.2</ele>
        <time>2018-04-21T09:08:33.000Z</time>
      </trkpt>
      <trkpt lat="40.807155" lon="-3.876184">
        <ele>2154.3</ele>
        <time>2018-04-21T09:08:34.000Z</time>
      </trkpt>
      <trkpt lat="40.807148" lon="-3.876189">
        <ele>2154.4</ele>
        <time>2018-04-21T09:08:35.000Z</time>
      </trkpt>
      <trkpt lat="40.807142" lon="-3.876194">
        <ele>2154.6</ele>
        <time>2018-04-21T09:08:36.000Z</time>
      </trkpt>
      <trkpt lat="40.807135" lon="-3.8762">
        <ele>2154.7</ele>
        <time>2018-04-21T09:08:37.000Z</time>
      </trkpt>
      <trkpt lat="40.807129" lon="-3.876205">
        <ele>2154.9</ele>
        <time>2018-04-21T09:08:38.000Z</time>
      </trkpt>
      <trkpt lat="40.807123" lon="-3.87621">
        <ele>2155.0</ele>
        <time>2018-04-21T09:08:39.000Z</time>
      </trkpt>
      <trkpt lat="40.807118" lon="-3.876216">
        <ele>2155.1</ele>
        <time>2018-04-21T09:08:40.000Z</time>
      </trkpt>
      <trkpt lat="40.807112" lon="-3.876221">
        <ele>2155.3</ele>
        <time>2018-04-21T09:08:41.000Z</time>
      </trkpt>
      <trkpt lat="40.807106" lon="-3.876226">
        <ele>2155.4</ele>
        <time>2018-04-21T09:08:42.000Z</time>
      </trkpt>
      <trkpt lat="40.8071" lon="-3.876232">
        <ele>2155.6</ele>
        <time>2018-04-21T09:08:43.000Z</time>
      </trkpt>
      <trkpt lat="40.807094" lon="-3.876237">
        <ele>2155.7</ele>
        <time>2018-04-21T09:08:44.000Z</time>
      </trkpt>
      <trkpt lat="40.807089" lon="-3.876242">
        <ele>2155.8</ele>
        <time>2018-04-21T09:08:45.000Z</time>
      </trkpt>
      <trkpt lat="40.807084" lon="-3.876247">
        <ele>2156.0</ele>
        <time>2018-04-21T09:08:46.000Z</time>
      </trkpt>
      <trkpt lat="40.80708" lon="-3.876251">
        <ele>2156.1</ele>
        <time>2018-04-21T09:08:47.000Z</time>
      </trkpt>
      <trkpt lat="40.807076" lon="-3.876256">
        <ele>2156.2</ele>
        <time>2018-04-21T09:08:48.000Z</time>
      </trkpt>
      <trkpt lat="40.807073" lon="-3.876259">
        <ele>2156.2</ele>
        <time>2018-04-21T09:08:49.000Z</time>
      </trkpt>
      <trkpt lat="40.807072" lon="-3.876262">
        <ele>2156.3</ele>
        <time>2018-04-21T09:08:50.000Z</time>
      </trkpt>
      <trkpt lat="40.807071" lon="-3.876265">
        <ele>2156.3</ele>
        <time>2018-04-21T09:08:51.000Z</time>
      </trkpt>
      <trkpt lat="40.807071" lon="-3.876267">
        <ele>2156.4</ele>
        <time>2018-04-21T09:08:52.000Z</time>
      </trkpt>
      <trkpt lat="40.807072" lon="-3.876268">
        <ele>2156.4</ele>
        <time>2018-04-21T09:08:53.000Z</time>
      </trkpt>
      <trkpt lat="40.807073" lon="-3.876269">
        <ele>2156.4</ele>
        <time>2018-04-21T09:08:54.000Z</time>
      </trkpt>
      <trkpt lat="40.807074" lon="-3.876269">
        <ele>2156.4</ele>
        <time>2018-04-21T09:08:55.000Z</time>
      </trkpt>
      <trkpt lat="40.807075" lon="-3.876269">
        <ele>2156.3</ele>
        <time>2018-04-21T09:08:56.000Z</time>
      </trkpt>
      <trkpt lat="40.807075" lon="-3.876268">
        <ele>2156.3</ele>
        <time>2018-04-21T09:08:57.000Z</time>
      </trkpt>
      <trkpt lat="40.807075" lon="-3.876267">
        <ele>2156.3</ele>
        <time>2018-04-21T09:08:58.000Z</time>
      </trkpt>
      <trkpt lat="40.807074" lon="-3.876265">
        <ele>2156.3</ele>
        <time>2018-04-21T09:08:59.000Z</time>
      </trkpt>
      <trkpt lat="40.807071" lon="-3.876262">
        <ele>2156.3</ele>
        <time>2018-04-21T09:09:00.000Z</time>
      </trkpt>
      <trkpt lat="40.807067" lon="-3.876259">
        <ele>2156.3</ele>
        <time>2018-04-21T09:09:01.000Z</time>
      </trkpt>
      <trkpt lat="40.807063" lon="-3.876257">
        <ele>2156.4</ele>
        <time>2018-04-21T09:09:02.000Z</time>
      </trkpt>
      <trkpt lat="40.807057" lon="-3.876254">
        <ele>2156.4</ele>
        <time>2018-04-21T09:09:03.000Z</time>
      </trkpt>
      <trkpt lat="40.807051" lon="-3.876251">
        <ele>2156.4</ele>
        <time>2018-04-21T09:09:04.000Z</time>
      </trkpt>
      <trkpt lat="40.807044" lon="-3.876249">
        <ele>2156.5</ele>
        <time>2018-04-21T09:09:05.000Z</time>
      </trkpt>
      <trkpt lat="40.807037" lon="-3.876248">
        <ele>2156.6</ele>
        <time>2018-04-21T09:09:06.000Z</time>
      </trkpt>
      <trkpt lat="40.80703" lon="-3.876247">
        <ele>2156.7</ele>
        <time>2018-04-21T09:09:07.000Z</time>
      </trkpt>
      <trkpt lat="40.807022" lon="-3.876248">
        <ele>2156.8</ele>
        <time>2018-04-21T09:09:08.000Z</time>
      </trkpt>
      <trkpt lat="40.807015" lon="-3.876249">
        <ele>2156.9</ele>
        <time>2018-04-21T09:09:09.000Z</time>
      </trkpt>
      <trkpt lat="40.807008" lon="-3.876252">
        <ele>2157.0</ele>
        <time>2018-04-21T09:09:10.000Z</time>
      </trkpt>
      <trkpt lat="40.807" lon="-3.876256">
        <ele>2157.2</ele>
        <time>2018-04-21T09:09:11.000Z</time>
      </trkpt>
      <trkpt lat="40.806993" lon="-3.876261">
        <ele>2157.3</ele>
        <time>2018-04-21T09:09:12.000Z</time>
      </trkpt>
      <trkpt lat="40.806986" lon="-3.876267">
        <ele>2157.5</ele>
        <time>2018-04-21T09:09:13.000Z</time>
      </trkpt>
      <trkpt lat="40.80698" lon="-3.876273">
        <ele>2157.7</ele>
        <time>2018-04-21T09:09:14.000Z</time>
      </trkpt>
      <trkpt lat="40.806973" lon="-3.87628">
        <ele>2157.8</ele>
        <time>2018-04-21T09:09:15.000Z</time>
      </trkpt>
      <trkpt lat="40.806967" lon="-3.876288">
        <ele>2158.0</ele>
        <time>2018-04-21T09:09:16.000Z</time>
      </trkpt>
      <trkpt lat="40.80696" lon="-3.876296">
        <ele>2158.2</ele>
        <time>2018-04-21T09:09:17.000Z</time>
      </trkpt>
      <trkpt lat="40.806955" lon="-3.876304">
        <ele>2158.4</ele>
        <time>2018-04-21T09:09:18.000Z</time>
      </trkpt>
      <trkpt lat="40.806949" lon="-3.876313">
        <ele>2158.6</ele>
        <time>2018-04-21T09:09:19.000Z</time>
      </trkpt>
      <trkpt lat="40.806943" lon="-3.876321">
        <ele>2158.8</ele>
        <time>2018-04-21T09:09:20.000Z</time>
      </trkpt>
      <trkpt lat="40.806938" lon="-3.87633">
        <ele>2159.0</ele>
        <time>2018-04-21T09:09:21.000Z</time>
      </trkpt>
      <trkpt lat="40.806932" lon="-3.876338">
        <ele>2159.2</ele>
        <time>2018-04-21T09:09:22.000Z</time>
      </trkpt>
      <trkpt lat="40.806927" lon="-3.876346">
        <ele>2159.3</ele>
        <time>2018-04-21T09:09:23.000Z</time>
      </trkpt>
      <trkpt lat="40.806922" lon="-3.876352">
        <ele>2159.5</ele>
        <time>2018-04-21T09:09:24.000Z</time>
      </trkpt>
      <trkpt lat="40.806916" lon="-3.876359">
        <ele>2159.7</ele>
        <time>2018-04-21T09:09:25.000Z</time>
      </trkpt>
      <trkpt lat="40.806911" lon="-3.876364">
        <ele>2159.8</ele>
        <time>2018-04-21T09:09:26.000Z</time>
      </trkpt>
      <trkpt lat="40.806906" lon="-3.876368">
        <ele>2159.9</ele>
        <time>2018-04-21T09:09:27.000Z</time>
      </trkpt>
      <trkpt lat="40.8069" lon="-3.876371">
        <ele>2160.1</ele>
        <time>2018-04-21T09:09:28.000Z</time>
      </trkpt>
      <trkpt lat="40.806894" lon="-3.876375">
        <ele>2160.2</ele>
        <time>2018-04-21T09:09:29.000Z</time>
      </trkpt>
      <trkpt lat="40.806888" lon="-3.876379">
        <ele>2160.3</ele>
        <time>2018-04-21T09:09:30.000Z</time>
      </trkpt>
      <trkpt lat="40.806881" lon="-3.876385">
        <ele>2160.5</ele>
        <time>2018-04-21T09:09:31.000Z</time>
      </trkpt>
      <trkpt lat="40.806872" lon="-3.876393">
        <ele>2160.8</ele>
        <time>2018-04-21T09:09:32.000Z</time>
      </trkpt>
      <trkpt lat="40.806864" lon="-3.876403">
        <ele>2161.0</ele>
        <time>2018-04-21T09:09:33.000Z</time>
      </trkpt>
      <trkpt lat="40.806856" lon="-3.876412">
        <ele>2161.3</ele>
        <time>2018-04-21T09:09:34.000Z</time>
      </trkpt>
      <trkpt lat="40.80685" lon="-3.876421">
        <ele>2161.5</ele>
        <time>2018-04-21T09:09:35.000Z</time>
      </trkpt>
      <trkpt lat="40.806845" lon="-3.876428">
        <ele>2161.6</ele>
        <time>2018-04-21T09:09:36.000Z</time>
      </trkpt>
      <trkpt lat="40.806842" lon="-3.876435">
        <ele>2161.8</ele>
        <time>2018-04-21T09:09:37.000Z</time>
      </trkpt>
      <trkpt lat="40.80684" lon="-3.87644">
        <ele>2161.9</ele>
        <time>2018-04-21T09:09:38.000Z</time>
      </trkpt>
      <trkpt lat="40.806839" lon="-3.876443">
        <ele>2161.9</ele>
        <time>2018-04-21T09:09:39.000Z</time>
      </trkpt>
      <trkpt lat="40.806838" lon="-3.876446">
        <ele>2162.0</ele>
        <time>2018-04-21T09:09:40.000Z</time>
      </trkpt>
      <trkpt lat="40.806837" lon="-3.876447">
        <ele>2162.0</ele>
        <time>2018-04-21T09:09:41.000Z</time>
      </trkpt>
      <trkpt lat="40.806835" lon="-3.876448">
        <ele>2162.1</ele>
        <time>2018-04-21T09:09:42.000Z</time>
      </trkpt>
      <trkpt lat="40.806834" lon="-3.876449">
        <ele>2162.1</ele>
        <time>2018-04-21T09:09:43.000Z</time>
      </trkpt>
      <trkpt lat="40.806831" lon="-3.876451">
        <ele>2162.2</ele>
        <time>2018-04-21T09:09:44.000Z</time>
      </trkpt>
      <trkpt lat="40.806828" lon="-3.876454">
        <ele>2162.3</ele>
        <time>2018-04-21T09:09:45.000Z</time>
      </trkpt>
      <trkpt lat="40.806825" lon="-3.876458">
        <ele>2162.4</ele>
        <time>2018-04-21T09:09:46.000Z</time>
      </trkpt>
      <trkpt lat="40.806822" lon="-3.876462">
        <ele>2162.5</ele>
        <time>2018-04-21T09:09:47.000Z</time>
      </trkpt>
      <trkpt lat="40.80682" lon="-3.876466">
        <ele>2162.6</ele>
        <time>2018-04-21T09:09:48.000Z</time>
      </trkpt>
      <trkpt lat="40.806819" lon="-3.876467">
        <ele>2162.6</ele>
        <time>2018-04-21T09:09:49.000Z</time>
      </trkpt>
      <trkpt lat="40.806819" lon="-3.876467">
        <ele>2162.6</ele>
        <time>2018-04-21T09:09:50.000Z</time>
      </trkpt>
      <trkpt lat="40.80682" lon="-3.876466">
        <ele>2162.6</ele>
        <time>2018-04-21T09:09:51.000Z</time>
      </trkpt>
      <trkpt lat="40.806821" lon="-3.876465">
        <ele>2162.5</ele>
        <time>2018-04-21T09:09:52.000Z</time>
      </trkpt>
      <trkpt lat="40.806821" lon="-3.876465">
        <ele>2162.5</ele>
        <time>2018-04-21T09:09:53.000Z</time>
      </trkpt>
      <trkpt lat="40.806819" lon="-3.876467">
        <ele>2162.6</ele>
        <time>2018-04-21T09:09:54.000Z</time>
      </trkpt>
      <trkpt lat="40.806816" lon="-3.876471">
        <ele>2162.7</ele>
        <time>2018-04-21T09:09:55.000Z</time>
      </trkpt>
      <trkpt lat="40.806812" lon="-3.876477">
        <ele>2162.8</ele>
        <time>2018-04-21T09:09:56.000Z</time>
      </trkpt>
      <trkpt lat="40.806807" lon="-3.876483">
        <ele>2163.0</ele>
        <time>2018-04-21T09:09:57.000Z</time>
      </trkpt>
      <trkpt lat="40.8068" lon="-3.876491">
        <ele>2163.2</ele>
        <time>2018-04-21T09:09:58.000Z</time>
      </trkpt>
      <trkpt lat="40.806793" lon="-3.8765">
        <ele>2163.5</ele>
        <time>2018-04-21T09:09:59.000Z</time>
      </trkpt>
      <trkpt lat="40.806786" lon="-3.876509">
        <ele>2163.7</ele>
        <time>2018-04-21T09:10:00.000Z</time>
      </trkpt>
      <trkpt lat="40.806779" lon="-3.876518">
        <ele>2163.9</ele>
        <time>2018-04-21T09:10:01.000Z</time>
      </trkpt>
      <trkpt lat="40.806771" lon="-3.876526">
        <ele>2164.2</ele>
        <time>2018-04-21T09:10:02.000Z</time>
      </trkpt>
      <trkpt lat="40.806764" lon="-3.876535">
        <ele>2164.4</ele>
        <time>2018-04-21T09:10:03.000Z</time>
      </trkpt>
      <trkpt lat="40.806758" lon="-3.876543">
        <ele>2164.6</ele>
        <time>2018-04-21T09:10:04.000Z</time>
      </trkpt>
      <trkpt lat="40.806751" lon="-3.87655">
        <ele>2164.8</ele>
        <time>2018-04-21T09:10:05.000Z</time>
      </trkpt>
      <trkpt lat="40.806745" lon="-3.876557">
        <ele>2165.0</ele>
        <time>2018-04-21T09:10:06.000Z</time>
      </trkpt>
      <trkpt lat="40.806738" lon="-3.876564">
        <ele>2165.3</ele>
        <time>2018-04-21T09:10:07.000Z</time>
      </trkpt>
      <trkpt lat="40.806732" lon="-3.87657">
        <ele>2165.4</ele>
        <time>2018-04-21T09:10:08.000Z</time>
      </trkpt>
      <trkpt lat="40.806726" lon="-3.876576">
        <ele>2165.6</ele>
        <time>2018-04-21T09:10:09.000Z</time>
      </trkpt>
      <trkpt lat="40.806719" lon="-3.876582">
        <ele>2165.8</ele>
        <time>2018-04-21T09:10:10.000Z</time>
      </trkpt>
      <trkpt lat="40.806713" lon="-3.876587">
        <ele>2166.0</ele>
        <time>2018-04-21T09:10:11.000Z</time>
      </trkpt>
      <trkpt lat="40.806706" lon="-3.876593">
        <ele>2166.2</ele>
        <time>2018-04-21T09:10:12.000Z</time>
      </trkpt>
      <trkpt lat="40.806698" lon="-3.876598">
        <ele>2166.4</ele>
        <time>2018-04-21T09:10:13.000Z</time>
      </trkpt>
      <trkpt lat="40.806691" lon="-3.876603">
        <ele>2166.6</ele>
        <time>2018-04-21T09:10:14.000Z</time>
      </trkpt>
      <trkpt lat="40.806683" lon="-3.876608">
        <ele>2166.8</ele>
        <time>2018-04-21T09:10:15.000Z</time>
      </trkpt>
      <trkpt lat="40.806675" lon="-3.876613">
        <ele>2167.0</ele>
        <time>2018-04-21T09:10:16.000Z</time>
      </trkpt>
      <trkpt lat="40.806667" lon="-3.876618">
        <ele>2167.2</ele>
        <time>2018-04-21T09:10:17.000Z</time>
      </trkpt>
      <trkpt lat="40.806659" lon="-3.876622">
        <ele>2167.3</ele>
        <time>2018-04-21T09:10:18.000Z</time>
      </trkpt>
      <trkpt lat="40.806652" lon="-3.876626">
        <ele>2167.4</ele>
        <time>2018-04-21T09:10:19.000Z</time>
      </trkpt>
      <trkpt lat="40.806644" lon="-3.87663">
        <ele>2167.6</ele>
        <time>2018-04-21T09:10:20.000Z</time>
      </trkpt>
      <trkpt lat="40.806637" lon="-3.876634">
        <ele>2167.7</ele>
        <time>2018-04-21T09:10:21.000Z</time>
      </trkpt>
      <trkpt lat="40.806631" lon="-3.876637">
        <ele>2167.7</ele>
        <time>2018-04-21T09:10:22.000Z</time>
      </trkpt>
      <trkpt lat="40.806625" lon="-3.87664">
        <ele>2167.8</ele>
        <time>2018-04-21T09:10:23.000Z</time>
      </trkpt>
      <trkpt lat="40.806619" lon="-3.876643">
        <ele>2167.9</ele>
        <time>2018-04-21T09:10:24.000Z</time>
      </trkpt>
      <trkpt lat="40.806614" lon="-3.876646">
        <ele>2168.0</ele>
        <time>2018-04-21T09:10:25.000Z</time>
      </trkpt>
      <trkpt lat="40.806609" lon="-3.876649">
        <ele>2168.1</ele>
        <time>2018-04-21T09:10:26.000Z</time>
      </trkpt>
      <trkpt lat="40.806605" lon="-3.876652">
        <ele>2168.1</ele>
        <time>2018-04-21T09:10:27.000Z</time>
      </trkpt>
      <trkpt lat="40.806601" lon="-3.876655">
        <ele>2168.2</ele>
        <time>2018-04-21T09:10:28.000Z</time>
      </trkpt>
      <trkpt lat="40.806596" lon="-3.876659">
        <ele>2168.3</ele>
        <time>2018-04-21T09:10:29.000Z</time>
      </trkpt>
      <trkpt lat="40.806591" lon="-3.876663">
        <ele>2168.4</ele>
        <time>2018-04-21T09:10:30.000Z</time>
      </trkpt>
      <trkpt lat="40.806586" lon="-3.876668">
        <ele>2168.5</ele>
        <time>2018-04-21T09:10:31.000Z</time>
      </trkpt>
      <trkpt lat="40.806579" lon="-3.876674">
        <ele>2168.6</ele>
        <time>2018-04-21T09:10:32.000Z</time>
      </trkpt>
      <trkpt lat="40.806572" lon="-3.87668">
        <ele>2168.8</ele>
        <time>2018-04-21T09:10:33.000Z</time>
      </trkpt>
      <trkpt lat="40.806565" lon="-3.876686">
        <ele>2168.9</ele>
        <time>2018-04-21T09:10:34.000Z</time>
      </trkpt>
      <trkpt lat="40.806558" lon="-3.876693">
        <ele>2169.0</ele>
        <time>2018-04-21T09:10:35.000Z</time>
      </trkpt>
      <trkpt lat="40.806551" lon="-3.8767">
        <ele>2169.2</ele>
        <time>2018-04-21T09:10:36.000Z</time>
      </trkpt>
      <trkpt lat="40.806546" lon="-3.876706">
        <ele>2169.3</ele>
        <time>2018-04-21T09:10:37.000Z</time>
      </trkpt>
      <trkpt lat="40.806541" lon="-3.876713">
        <ele>2169.4</ele>
        <time>2018-04-21T09:10:38.000Z</time>
      </trkpt>
      <trkpt lat="40.806537" lon="-3.87672">
        <ele>2169.5</ele>
        <time>2018-04-21T09:10:39.000Z</time>
      </trkpt>
      <trkpt lat="40.806534" lon="-3.876726">
        <ele>2169.6</ele>
        <time>2018-04-21T09:10:40.000Z</time>
      </trkpt>
      <trkpt lat="40.806532" lon="-3.876732">
        <ele>2169.7</ele>
        <time>2018-04-21T09:10:41.000Z</time>
      </trkpt>
      <trkpt lat="40.80653" lon="-3.876738">
        <ele>2169.8</ele>
        <time>2018-04-21T09:10:42.000Z</time>
      </trkpt>
      <trkpt lat="40.806527" lon="-3.876744">
        <ele>2170.0</ele>
        <time>2018-04-21T09:10:43.000Z</time>
      </trkpt>
      <trkpt lat="40.806522" lon="-3.876751">
        <ele>2170.1</ele>
        <time>2018-04-21T09:10:44.000Z</time>
      </trkpt>
      <trkpt lat="40.806514" lon="-3.876758">
        <ele>2170.2</ele>
        <time>2018-04-21T09:10:45.000Z</time>
      </trkpt>
      <trkpt lat="40.806504" lon="-3.876765">
        <ele>2170.4</ele>
        <time>2018-04-21T09:10:46.000Z</time>
      </trkpt>
      <trkpt lat="40.806494" lon="-3.876772">
        <ele>2170.6</ele>
        <time>2018-04-21T09:10:47.000Z</time>
      </trkpt>
      <trkpt lat="40.806483" lon="-3.876778">
        <ele>2170.7</ele>
        <time>2018-04-21T09:10:48.000Z</time>
      </trkpt>
      <trkpt lat="40.806473" lon="-3.876783">
        <ele>2170.9</ele>
        <time>2018-04-21T09:10:49.000Z</time>
      </trkpt>
      <trkpt lat="40.806464" lon="-3.876787">
        <ele>2171.0</ele>
        <time>2018-04-21T09:10:50.000Z</time>
      </trkpt>
      <trkpt lat="40.806455" lon="-3.87679">
        <ele>2171.1</ele>
        <time>2018-04-21T09:10:51.000Z</time>
      </trkpt>
      <trkpt lat="40.806447" lon="-3.876793">
        <ele>2171.2</ele>
        <time>2018-04-21T09:10:52.000Z</time>
      </trkpt>
      <trkpt lat="40.80644" lon="-3.876797">
        <ele>2171.3</ele>
        <time>2018-04-21T09:10:53.000Z</time>
      </trkpt>
      <trkpt lat="40.806433" lon="-3.876801">
        <ele>2171.4</ele>
        <time>2018-04-21T09:10:54.000Z</time>
      </trkpt>
      <trkpt lat="40.806426" lon="-3.876805">
        <ele>2171.6</ele>
        <time>2018-04-21T09:10:55.000Z</time>
      </trkpt>
      <trkpt lat="40.806419" lon="-3.876811">
        <ele>2171.7</ele>
        <time>2018-04-21T09:10:56.000Z</time>
      </trkpt>
      <trkpt lat="40.806412" lon="-3.876816">
        <ele>2171.8</ele>
        <time>2018-04-21T09:10:57.000Z</time>
      </trkpt>
      <trkpt lat="40.806406" lon="-3.876822">
        <ele>2172.0</ele>
        <time>2018-04-21T09:10:58.000Z</time>
      </trkpt>
      <trkpt lat="40.8064" lon="-3.876827">
        <ele>2172.1</ele>
        <time>2018-04-21T09:10:59.000Z</time>
      </trkpt>
      <trkpt lat="40.806393" lon="-3.876833">
        <ele>2172.2</ele>
        <time>2018-04-21T09:11:00.000Z</time>
      </trkpt>
      <trkpt lat="40.806387" lon="-3.876839">
        <ele>2172.4</ele>
        <time>2018-04-21T09:11:01.000Z</time>
      </trkpt>
      <trkpt lat="40.806381" lon="-3.876844">
        <ele>2172.5</ele>
        <time>2018-04-21T09:11:02.000Z</time>
      </trkpt>
      <trkpt lat="40.806376" lon="-3.87685">
        <ele>2172.6</ele>
        <time>2018-04-21T09:11:03.000Z</time>
      </trkpt>
      <trkpt lat="40.80637" lon="-3.876856">
        <ele>2172.8</ele>
        <time>2018-04-21T09:11:04.000Z</time>
      </trkpt>
      <trkpt lat="40.806365" lon="-3.876861">
        <ele>2172.9</ele>
        <time>2018-04-21T09:11:05.000Z</time>
      </trkpt>
      <trkpt lat="40.806361" lon="-3.876867">
        <ele>2173.0</ele>
        <time>2018-04-21T09:11:06.000Z</time>
      </trkpt>
      <trkpt lat="40.806357" lon="-3.876873">
        <ele>2173.1</ele>
        <time>2018-04-21T09:11:07.000Z</time>
      </trkpt>
      <trkpt lat="40.806353" lon="-3.876878">
        <ele>2173.2</ele>
        <time>2018-04-21T09:11:08.000Z</time>
      </trkpt>
      <trkpt lat="40.806349" lon="-3.876883">
        <ele>2173.4</ele>
        <time>2018-04-21T09:11:09.000Z</time>
      </trkpt>
      <trkpt lat="40.806345" lon="-3.876889">
        <ele>2173.5</ele>
        <time>2018-04-21T09:11:10.000Z</time>
      </trkpt>
      <trkpt lat="40.806342" lon="-3.876894">
        <ele>2173.6</ele>
        <time>2018-04-21T09:11:11.000Z</time>
      </trkpt>
      <trkpt lat="40.806338" lon="-3.8769">
        <ele>2173.7</ele>
        <time>2018-04-21T09:11:12.000Z</time>
      </trkpt>
      <trkpt lat="40.806335" lon="-3.876905">
        <ele>2173.8</ele>
        <time>2018-04-21T09:11:13.000Z</time>
      </trkpt>
      <trkpt lat="40.806331" lon="-3.876911">
        <ele>2173.9</ele>
        <time>2018-04-21T09:11:14.000Z</time>
      </trkpt>
      <trkpt lat="40.806327" lon="-3.876917">
        <ele>2174.1</ele>
        <time>2018-04-21T09:11:15.000Z</time>
      </trkpt>
      <trkpt lat="40.806322" lon="-3.876923">
        <ele>2174.2</ele>
        <time>2018-04-21T09:11:16.000Z</time>
      </trkpt>
      <trkpt lat="40.806317" lon="-3.876929">
        <ele>2174.4</ele>
        <time>2018-04-21T09:11:17.000Z</time>
      </trkpt>
      <trkpt lat="40.806312" lon="-3.876935">
        <ele>2174.5</ele>
        <time>2018-04-21T09:11:18.000Z</time>
      </trkpt>
      <trkpt lat="40.806307" lon="-3.876942">
        <ele>2174.6</ele>
        <time>2018-04-21T09:11:19.000Z</time>
      </trkpt>
      <trkpt lat="40.806302" lon="-3.876948">
        <ele>2174.8</ele>
        <time>2018-04-21T09:11:20.000Z</time>
      </trkpt>
      <trkpt lat="40.806296" lon="-3.876955">
        <ele>2175.0</ele>
        <time>2018-04-21T09:11:21.000Z</time>
      </trkpt>
      <trkpt lat="40.80629" lon="-3.876962">
        <ele>2175.1</ele>
        <time>2018-04-21T09:11:22.000Z</time>
      </trkpt>
      <trkpt lat="40.806285" lon="-3.876968">
        <ele>2175.3</ele>
        <time>2018-04-21T09:11:23.000Z</time>
      </trkpt>
      <trkpt lat="40.806279" lon="-3.876975">
        <ele>2175.4</ele>
        <time>2018-04-21T09:11:24.000Z</time>
      </trkpt>
      <trkpt lat="40.806273" lon="-3.876982">
        <ele>2175.6</ele>
        <time>2018-04-21T09:11:25.000Z</time>
      </trkpt>
      <trkpt lat="40.806268" lon="-3.876988">
        <ele>2175.7</ele>
        <time>2018-04-21T09:11:26.000Z</time>
      </trkpt>
      <trkpt lat="40.806262" lon="-3.876995">
        <ele>2175.9</ele>
        <time>2018-04-21T09:11:27.000Z</time>
      </trkpt>
      <trkpt lat="40.806257" lon="-3.877001">
        <ele>2176.1</ele>
        <time>2018-04-21T09:11:28.000Z</time>
      </trkpt>
      <trkpt lat="40.806252" lon="-3.877008">
        <ele>2176.2</ele>
        <time>2018-04-21T09:11:29.000Z</time>
      </trkpt>
      <trkpt lat="40.806247" lon="-3.877014">
        <ele>2176.4</ele>
        <time>2018-04-21T09:11:30.000Z</time>
      </trkpt>
      <trkpt lat="40.806242" lon="-3.87702">
        <ele>2176.5</ele>
        <time>2018-04-21T09:11:31.000Z</time>
      </trkpt>
      <trkpt lat="40.806238" lon="-3.877026">
        <ele>2176.6</ele>
        <time>2018-04-21T09:11:32.000Z</time>
      </trkpt>
      <trkpt lat="40.806234" lon="-3.877032">
        <ele>2176.8</ele>
        <time>2018-04-21T09:11:33.000Z</time>
      </trkpt>
      <trkpt lat="40.806231" lon="-3.877037">
        <ele>2176.9</ele>
        <time>2018-04-21T09:11:34.000Z</time>
      </trkpt>
      <trkpt lat="40.806228" lon="-3.877042">
        <ele>2177.0</ele>
        <time>2018-04-21T09:11:35.000Z</time>
      </trkpt>
      <trkpt lat="40.806225" lon="-3.877047">
        <ele>2177.1</ele>
        <time>2018-04-21T09:11:36.000Z</time>
      </trkpt>
      <trkpt lat="40.806223" lon="-3.877052">
        <ele>2177.2</ele>
        <time>2018-04-21T09:11:37.000Z</time>
      </trkpt>
      <trkpt lat="40.806221" lon="-3.877056">
        <ele>2177.3</ele>
        <time>2018-04-21T09:11:38.000Z</time>
      </trkpt>
      <trkpt lat="40.806219" lon="-3.877059">
        <ele>2177.4</ele>
        <time>2018-04-21T09:11:39.000Z</time>
      </trkpt>
      <trkpt lat="40.806218" lon="-3.877063">
        <ele>2177.5</ele>
        <time>2018-04-21T09:11:40.000Z</time>
      </trkpt>
      <trkpt lat="40.806217" lon="-3.877065">
        <ele>2177.5</ele>
        <time>2018-04-21T09:11:41.000Z</time>
      </trkpt>
      <trkpt lat="40.806217" lon="-3.877067">
        <ele>2177.5</ele>
        <time>2018-04-21T09:11:42.000Z</time>
      </trkpt>
      <trkpt lat="40.806216" lon="-3.877069">
        <ele>2177.6</ele>
        <time>2018-04-21T09:11:43.000Z</time>
      </trkpt>
      <trkpt lat="40.806216" lon="-3.87707">
        <ele>2177.6</ele>
        <time>2018-04-21T09:11:44.000Z</time>
      </trkpt>
      <trkpt lat="40.806216" lon="-3.877071">
        <ele>2177.6</ele>
        <time>2018-04-21T09:11:45.000Z</time>
      </trkpt>
      <trkpt lat="40.806216" lon="-3.877071">
        <ele>2177.6</ele>
        <time>2018-04-21T09:11:46.000Z</time>
      </trkpt>
      <trkpt lat="40.806216" lon="-3.877071">
        <ele>2177.6</ele>
        <time>2018-04-21T09:11:47.000Z</time>
      </trkpt>
      <trkpt lat="40.806216" lon="-3.877071">
        <ele>2177.6</ele>
        <time>2018-04-21T09:11:48.000Z</time>
      </trkpt>
      <trkpt lat="40.806216" lon="-3.877071">
        <ele>2177.6</ele>
        <time>2018-04-21T09:11:49.000Z</time>
      </trkpt>
      <trkpt lat="40.806216" lon="-3.877071">
        <ele>2177.6</ele>
        <time>2018-04-21T09:11:50.000Z</time>
      </trkpt>
      <trkpt lat="40.806216" lon="-3.87707">
        <ele>2177.6</ele>
        <time>2018-04-21T09:11:51.000Z</time>
      </trkpt>
      <trkpt lat="40.806216" lon="-3.87707">
        <ele>2177.6</ele>
        <time>2018-04-21T09:11:52.000Z</time>
      </trkpt>
      <trkpt lat="40.806216" lon="-3.87707">
        <ele>2177.6</ele>
        <time>2018-04-21T09:11:53.000Z</time>
      </trkpt>
      <trkpt lat="40.806216" lon="-3.87707">
        <ele>2177.6</ele>
        <time>2018-04-21T09:11:54.000Z</time>
      </trkpt>
      <trkpt lat="40.806216" lon="-3.87707">
        <ele>2177.6</ele>
        <time>2018-04-21T09:11:55.000Z</time>
      </trkpt>
      <trkpt lat="40.806215" lon="-3.877071">
        <ele>2177.6</ele>
        <time>2018-04-21T09:11:56.000Z</time>
      </trkpt>
      <trkpt lat="40.806215" lon="-3.877072">
        <ele>2177.6</ele>
        <time>2018-04-21T09:11:57.000Z</time>
      </trkpt>
      <trkpt lat="40.806214" lon="-3.877073">
        <ele>2177.7</ele>
        <time>2018-04-21T09:11:58.000Z</time>
      </trkpt>
      <trkpt lat="40.806214" lon="-3.877074">
        <ele>2177.7</ele>
        <time>2018-04-21T09:11:59.000Z</time>
      </trkpt>
      <trkpt lat="40.806213" lon="-3.877076">
        <ele>2177.7</ele>
        <time>2018-04-21T09:12:00.000Z</time>
      </trkpt>
      <trkpt lat="40.806212" lon="-3.877077">
        <ele>2177.8</ele>
        <time>2018-04-21T09:12:01.000Z</time>
      </trkpt>
      <trkpt lat="40.806211" lon="-3.87708">
        <ele>2177.8</ele>
        <time>2018-04-21T09:12:02.000Z</time>
      </trkpt>
      <trkpt lat="40.806209" lon="-3.877082">
        <ele>2177.9</ele>
        <time>2018-04-21T09:12:03.000Z</time>
      </trkpt>
      <trkpt lat="40.806208" lon="-3.877085">
        <ele>2177.9</ele>
        <time>2018-04-21T09:12:04.000Z</time>
      </trkpt>
      <trkpt lat="40.806206" lon="-3.877089">
        <ele>2178.0</ele>
        <time>2018-04-21T09:12:05.000Z</time>
      </trkpt>
      <trkpt lat="40.806204" lon="-3.877092">
        <ele>2178.1</ele>
        <time>2018-04-21T09:12:06.000Z</time>
      </trkpt>
      <trkpt lat="40.806202" lon="-3.877097">
        <ele>2178.2</ele>
        <time>2018-04-21T09:12:07.000Z</time>
      </trkpt>
      <trkpt lat="40.8062" lon="-3.877102">
        <ele>2178.3</ele>
        <time>2018-04-21T09:12:08.000Z</time>
      </trkpt>
      <trkpt lat="40.806197" lon="-3.877107">
        <ele>2178.4</ele>
        <time>2018-04-21T09:12:09.000Z</time>
      </trkpt>
      <trkpt lat="40.806195" lon="-3.877113">
        <ele>2178.5</ele>
        <time>2018-04-21T09:12:10.000Z</time>
      </trkpt>
      <trkpt lat="40.806192" lon="-3.877119">
        <ele>2178.7</ele>
        <time>2018-04-21T09:12:11.000Z</time>
      </trkpt>
      <trkpt lat="40.806189" lon="-3.877125">
        <ele>2178.8</ele>
        <time>2018-04-21T09:12:12.000Z</time>
      </trkpt>
      <trkpt lat="40.806186" lon="-3.877131">
        <ele>2178.9</ele>
        <time>2018-04-21T09:12:13.000Z</time>
      </trkpt>
      <trkpt lat="40.806184" lon="-3.877137">
        <ele>2179.1</ele>
        <time>2018-04-21T09:12:14.000Z</time>
      </trkpt>
      <trkpt lat="40.806182" lon="-3.877141">
        <ele>2179.2</ele>
        <time>2018-04-21T09:12:15.000Z</time>
      </trkpt>
      <trkpt lat="40.80618" lon="-3.877145">
        <ele>2179.2</ele>
        <time>2018-04-21T09:12:16.000Z</time>
      </trkpt>
      <trkpt lat="40.806178" lon="-3.877148">
        <ele>2179.3</ele>
        <time>2018-04-21T09:12:17.000Z</time>
      </trkpt>
      <trkpt lat="40.806178" lon="-3.87715">
        <ele>2179.4</ele>
        <time>2018-04-21T09:12:18.000Z</time>
      </trkpt>
      <trkpt lat="40.806178" lon="-3.87715">
        <ele>2179.4</ele>
        <time>2018-04-21T09:12:19.000Z</time>
      </trkpt>
      <trkpt lat="40.806178" lon="-3.877149">
        <ele>2179.3</ele>
        <time>2018-04-21T09:12:20.000Z</time>
      </trkpt>
      <trkpt lat="40.806178" lon="-3.877148">
        <ele>2179.3</ele>
        <time>2018-04-21T09:12:21.000Z</time>
      </trkpt>
      <trkpt lat="40.806178" lon="-3.877148">
        <ele>2179.3</ele>
        <time>2018-04-21T09:12:22.000Z</time>
      </trkpt>
      <trkpt lat="40.806178" lon="-3.87715">
        <ele>2179.4</ele>
        <time>2018-04-21T09:12:23.000Z</time>
      </trkpt>
      <trkpt lat="40.806176" lon="-3.877154">
        <ele>2179.4</ele>
        <time>2018-04-21T09:12:24.000Z</time>
      </trkpt>
      <trkpt lat="40.806174" lon="-3.877159">
        <ele>2179.6</ele>
        <time>2018-04-21T09:12:25.000Z</time>
      </trkpt>
      <trkpt lat="40.806171" lon="-3.877166">
        <ele>2179.7</ele>
        <time>2018-04-21T09:12:26.000Z</time>
      </trkpt>
      <trkpt lat="40.806168" lon="-3.877174">
        <ele>2179.9</ele>
        <time>2018-04-21T09:12:27.000Z</time>
      </trkpt>
      <trkpt lat="40.806166" lon="-3.877183">
        <ele>2180.1</ele>
        <time>2018-04-21T09:12:28.000Z</time>
      </trkpt>
      <trkpt lat="40.806163" lon="-3.877192">
        <ele>2180.2</ele>
        <time>2018-04-21T09:12:29.000Z</time>
      </trkpt>
      <trkpt lat="40.806161" lon="-3.877202">
        <ele>2180.4</ele>
        <time>2018-04-21T09:12:30.000Z</time>
      </trkpt>
      <trkpt lat="40.806158" lon="-3.877212">
        <ele>2180.6</ele>
        <time>2018-04-21T09:12:31.000Z</time>
      </trkpt>
      <trkpt lat="40.806156" lon="-3.877222">
        <ele>2180.8</ele>
        <time>2018-04-21T09:12:32.000Z</time>
      </trkpt>
      <trkpt lat="40.806153" lon="-3.877233">
        <ele>2181.1</ele>
        <time>2018-04-21T09:12:33.000Z</time>
      </trkpt>
      <trkpt lat="40.80615" lon="-3.877244">
        <ele>2181.3</ele>
        <time>2018-04-21T09:12:34.000Z</time>
      </trkpt>
      <trkpt lat="40.806146" lon="-3.877255">
        <ele>2181.5</ele>
        <time>2018-04-21T09:12:35.000Z</time>
      </trkpt>
      <trkpt lat="40.806142" lon="-3.877266">
        <ele>2181.8</ele>
        <time>2018-04-21T09:12:36.000Z</time>
      </trkpt>
      <trkpt lat="40.806137" lon="-3.877277">
        <ele>2182.0</ele>
        <time>2018-04-21T09:12:37.000Z</time>
      </trkpt>
      <trkpt lat="40.806132" lon="-3.877288">
        <ele>2182.3</ele>
        <time>2018-04-21T09:12:38.000Z</time>
      </trkpt>
      <trkpt lat="40.806127" lon="-3.877299">
        <ele>2182.5</ele>
        <time>2018-04-21T09:12:39.000Z</time>
      </trkpt>
      <trkpt lat="40.806122" lon="-3.877309">
        <ele>2182.8</ele>
        <time>2018-04-21T09:12:40.000Z</time>
      </trkpt>
      <trkpt lat="40.806117" lon="-3.877319">
        <ele>2183.0</ele>
        <time>2018-04-21T09:12:41.000Z</time>
      </trkpt>
      <trkpt lat="40.806112" lon="-3.877328">
        <ele>2183.2</ele>
        <time>2018-04-21T09:12:42.000Z</time>
      </trkpt>
      <trkpt lat="40.806108" lon="-3.877335">
        <ele>2183.4</ele>
        <time>2018-04-21T09:12:43.000Z</time>
      </trkpt>
      <trkpt lat="40.806104" lon="-3.877342">
        <ele>2183.6</ele>
        <time>2018-04-21T09:12:44.000Z</time>
      </trkpt>
      <trkpt lat="40.806102" lon="-3.877347">
        <ele>2183.7</ele>
        <time>2018-04-21T09:12:45.000Z</time>
      </trkpt>
      <trkpt lat="40.8061" lon="-3.87735">
        <ele>2183.8</ele>
        <time>2018-04-21T09:12:46.000Z</time>
      </trkpt>
      <trkpt lat="40.806099" lon="-3.877353">
        <ele>2183.8</ele>
        <time>2018-04-21T09:12:47.000Z</time>
      </trkpt>
      <trkpt lat="40.806099" lon="-3.877355">
        <ele>2183.9</ele>
        <time>2018-04-21T09:12:48.000Z</time>
      </trkpt>
      <trkpt lat="40.806099" lon="-3.877356">
        <ele>2183.9</ele>
        <time>2018-04-21T09:12:49.000Z</time>
      </trkpt>
      <trkpt lat="40.806099" lon="-3.877358">
        <ele>2183.9</ele>
        <time>2018-04-21T09:12:50.000Z</time>
      </trkpt>
      <trkpt lat="40.806099" lon="-3.87736">
        <ele>2184.0</ele>
        <time>2018-04-21T09:12:51.000Z</time>
      </trkpt>
      <trkpt lat="40.8061" lon="-3.877364">
        <ele>2184.0</ele>
        <time>2018-04-21T09:12:52.000Z</time>
      </trkpt>
      <trkpt lat="40.8061" lon="-3.877368">
        <ele>2184.1</ele>
        <time>2018-04-21T09:12:53.000Z</time>
      </trkpt>
      <trkpt lat="40.806099" lon="-3.877375">
        <ele>2184.2</ele>
        <time>2018-04-21T09:12:54.000Z</time>
      </trkpt>
      <trkpt lat="40.806098" lon="-3.877384">
        <ele>2184.4</ele>
        <time>2018-04-21T09:12:55.000Z</time>
      </trkpt>
      <trkpt lat="40.806096" lon="-3.877395">
        <ele>2184.6</ele>
        <time>2018-04-21T09:12:56.000Z</time>
      </trkpt>
      <trkpt lat="40.806094" lon="-3.877407">
        <ele>2184.9</ele>
        <time>2018-04-21T09:12:57.000Z</time>
      </trkpt>
      <trkpt lat="40.806091" lon="-3.87742">
        <ele>2185.1</ele>
        <time>2018-04-21T09:12:58.000Z</time>
      </trkpt>
      <trkpt lat="40.806088" lon="-3.877433">
        <ele>2185.4</ele>
        <time>2018-04-21T09:12:59.000Z</time>
      </trkpt>
      <trkpt lat="40.806086" lon="-3.877447">
        <ele>2185.7</ele>
        <time>2018-04-21T09:13:00.000Z</time>
      </trkpt>
      <trkpt lat="40.806083" lon="-3.87746">
        <ele>2186.0</ele>
        <time>2018-04-21T09:13:01.000Z</time>
      </trkpt>
      <trkpt lat="40.80608" lon="-3.877473">
        <ele>2186.3</ele>
        <time>2018-04-21T09:13:02.000Z</time>
      </trkpt>
      <trkpt lat="40.806078" lon="-3.877484">
        <ele>2186.5</ele>
        <time>2018-04-21T09:13:03.000Z</time>
      </trkpt>
      <trkpt lat="40.806076" lon="-3.877493">
        <ele>2186.7</ele>
        <time>2018-04-21T09:13:04.000Z</time>
      </trkpt>
      <trkpt lat="40.806074" lon="-3.877501">
        <ele>2186.8</ele>
        <time>2018-04-21T09:13:05.000Z</time>
      </trkpt>
      <trkpt lat="40.806073" lon="-3.877508">
        <ele>2186.9</ele>
        <time>2018-04-21T09:13:06.000Z</time>
      </trkpt>
      <trkpt lat="40.806072" lon="-3.877515">
        <ele>2187.0</ele>
        <time>2018-04-21T09:13:07.000Z</time>
      </trkpt>
      <trkpt lat="40.806071" lon="-3.87752">
        <ele>2187.1</ele>
        <time>2018-04-21T09:13:08.000Z</time>
      </trkpt>
      <trkpt lat="40.80607" lon="-3.877526">
        <ele>2187.1</ele>
        <time>2018-04-21T09:13:09.000Z</time>
      </trkpt>
      <trkpt lat="40.806069" lon="-3.877531">
        <ele>2187.2</ele>
        <time>2018-04-21T09:13:10.000Z</time>
      </trkpt>
      <trkpt lat="40.806068" lon="-3.877537">
        <ele>2187.3</ele>
        <time>2018-04-21T09:13:11.000Z</time>
      </trkpt>
      <trkpt lat="40.806067" lon="-3.877543">
        <ele>2187.4</ele>
        <time>2018-04-21T09:13:12.000Z</time>
      </trkpt>
      <trkpt lat="40.806065" lon="-3.877551">
        <ele>2187.5</ele>
        <time>2018-04-21T09:13:13.000Z</time>
      </trkpt>
      <trkpt lat="40.806063" lon="-3.877559">
        <ele>2187.6</ele>
        <time>2018-04-21T09:13:14.000Z</time>
      </trkpt>
      <trkpt lat="40.806061" lon="-3.877567">
        <ele>2187.7</ele>
        <time>2018-04-21T09:13:15.000Z</time>
      </trkpt>
      <trkpt lat="40.806059" lon="-3.877576">
        <ele>2187.8</ele>
        <time>2018-04-21T09:13:16.000Z</time>
      </trkpt>
      <trkpt lat="40.806057" lon="-3.877585">
        <ele>2187.9</ele>
        <time>2018-04-21T09:13:17.000Z</time>
      </trkpt>
      <trkpt lat="40.806055" lon="-3.877593">
        <ele>2188.0</ele>
        <time>2018-04-21T09:13:18.000Z</time>
      </trkpt>
      <trkpt lat="40.806053" lon="-3.877602">
        <ele>2188.2</ele>
        <time>2018-04-21T09:13:19.000Z</time>
      </trkpt>
      <trkpt lat="40.806052" lon="-3.877609">
        <ele>2188.3</ele>
        <time>2018-04-21T09:13:20.000Z</time>
      </trkpt>
      <trkpt lat="40.806051" lon="-3.877616">
        <ele>2188.3</ele>
        <time>2018-04-21T09:13:21.000Z</time>
      </trkpt>
      <trkpt lat="40.80605" lon="-3.877621">
        <ele>2188.4</ele>
        <time>2018-04-21T09:13:22.000Z</time>
      </trkpt>
      <trkpt lat="40.80605" lon="-3.877626">
        <ele>2188.5</ele>
        <time>2018-04-21T09:13:23.000Z</time>
      </trkpt>
      <trkpt lat="40.806049" lon="-3.877631">
        <ele>2188.5</ele>
        <time>2018-04-21T09:13:24.000Z</time>
      </trkpt>
      <trkpt lat="40.806049" lon="-3.877635">
        <ele>2188.6</ele>
        <time>2018-04-21T09:13:25.000Z</time>
      </trkpt>
      <trkpt lat="40.806049" lon="-3.87764">
        <ele>2188.6</ele>
        <time>2018-04-21T09:13:26.000Z</time>
      </trkpt>
      <trkpt lat="40.806049" lon="-3.877645">
        <ele>2188.7</ele>
        <time>2018-04-21T09:13:27.000Z</time>
      </trkpt>
      <trkpt lat="40.806049" lon="-3.877651">
        <ele>2188.7</ele>
        <time>2018-04-21T09:13:28.000Z</time>
      </trkpt>
      <trkpt lat="40.806049" lon="-3.877656">
        <ele>2188.8</ele>
        <time>2018-04-21T09:13:29.000Z</time>
      </trkpt>
      <trkpt lat="40.806048" lon="-3.877663">
        <ele>2188.9</ele>
        <time>2018-04-21T09:13:30.000Z</time>
      </trkpt>
      <trkpt lat="40.806047" lon="-3.877669">
        <ele>2189.0</ele>
        <time>2018-04-21T09:13:31.000Z</time>
      </trkpt>
      <trkpt lat="40.806046" lon="-3.877675">
        <ele>2189.0</ele>
        <time>2018-04-21T09:13:32.000Z</time>
      </trkpt>
      <trkpt lat="40.806045" lon="-3.877681">
        <ele>2189.1</ele>
        <time>2018-04-21T09:13:33.000Z</time>
      </trkpt>
      <trkpt lat="40.806044" lon="-3.877687">
        <ele>2189.2</ele>
        <time>2018-04-21T09:13:34.000Z</time>
      </trkpt>
      <trkpt lat="40.806042" lon="-3.877694">
        <ele>2189.3</ele>
        <time>2018-04-21T09:13:35.000Z</time>
      </trkpt>
      <trkpt lat="40.806041" lon="-3.8777">
        <ele>2189.4</ele>
        <time>2018-04-21T09:13:36.000Z</time>
      </trkpt>
      <trkpt lat="40.806039" lon="-3.877707">
        <ele>2189.5</ele>
        <time>2018-04-21T09:13:37.000Z</time>
      </trkpt>
      <trkpt lat="40.806037" lon="-3.877715">
        <ele>2189.6</ele>
        <time>2018-04-21T09:13:38.000Z</time>
      </trkpt>
      <trkpt lat="40.806035" lon="-3.877722">
        <ele>2189.7</ele>
        <time>2018-04-21T09:13:39.000Z</time>
      </trkpt>
      <trkpt lat="40.806032" lon="-3.87773">
        <ele>2189.8</ele>
        <time>2018-04-21T09:13:40.000Z</time>
      </trkpt>
      <trkpt lat="40.80603" lon="-3.877738">
        <ele>2189.9</ele>
        <time>2018-04-21T09:13:41.000Z</time>
      </trkpt>
      <trkpt lat="40.806028" lon="-3.877747">
        <ele>2190.0</ele>
        <time>2018-04-21T09:13:42.000Z</time>
      </trkpt>
      <trkpt lat="40.806027" lon="-3.877755">
        <ele>2190.1</ele>
        <time>2018-04-21T09:13:43.000Z</time>
      </trkpt>
      <trkpt lat="40.806027" lon="-3.877764">
        <ele>2190.2</ele>
        <time>2018-04-21T09:13:44.000Z</time>
      </trkpt>
      <trkpt lat="40.806028" lon="-3.877773">
        <ele>2190.3</ele>
        <time>2018-04-21T09:13:45.000Z</time>
      </trkpt>
      <trkpt lat="40.80603" lon="-3.877782">
        <ele>2190.4</ele>
        <time>2018-04-21T09:13:46.000Z</time>
      </trkpt>
      <trkpt lat="40.806032" lon="-3.877791">
        <ele>2190.4</ele>
        <time>2018-04-21T09:13:47.000Z</time>
      </trkpt>
      <trkpt lat="40.806033" lon="-3.877799">
        <ele>2190.5</ele>
        <time>2018-04-21T09:13:48.000Z</time>
      </trkpt>
      <trkpt lat="40.806034" lon="-3.877806">
        <ele>2190.6</ele>
        <time>2018-04-21T09:13:49.000Z</time>
      </trkpt>
      <trkpt lat="40.806034" lon="-3.877813">
        <ele>2190.6</ele>
        <time>2018-04-21T09:13:50.000Z</time>
      </trkpt>
      <trkpt lat="40.806033" lon="-3.87782">
        <ele>2190.7</ele>
        <time>2018-04-21T09:13:51.000Z</time>
      </trkpt>
      <trkpt lat="40.806032" lon="-3.877826">
        <ele>2190.8</ele>
        <time>2018-04-21T09:13:52.000Z</time>
      </trkpt>
      <trkpt lat="40.80603" lon="-3.877832">
        <ele>2190.9</ele>
        <time>2018-04-21T09:13:53.000Z</time>
      </trkpt>
      <trkpt lat="40.806028" lon="-3.877837">
        <ele>2191.0</ele>
        <time>2018-04-21T09:13:54.000Z</time>
      </trkpt>
      <trkpt lat="40.806026" lon="-3.877843">
        <ele>2191.1</ele>
        <time>2018-04-21T09:13:55.000Z</time>
      </trkpt>
      <trkpt lat="40.806024" lon="-3.877849">
        <ele>2191.2</ele>
        <time>2018-04-21T09:13:56.000Z</time>
      </trkpt>
      <trkpt lat="40.806022" lon="-3.877855">
        <ele>2191.2</ele>
        <time>2018-04-21T09:13:57.000Z</time>
      </trkpt>
      <trkpt lat="40.80602" lon="-3.877862">
        <ele>2191.3</ele>
        <time>2018-04-21T09:13:58.000Z</time>
      </trkpt>
      <trkpt lat="40.806018" lon="-3.877869">
        <ele>2191.4</ele>
        <time>2018-04-21T09:13:59.000Z</time>
      </trkpt>
      <trkpt lat="40.806016" lon="-3.877875">
        <ele>2191.5</ele>
        <time>2018-04-21T09:14:00.000Z</time>
      </trkpt>
      <trkpt lat="40.806015" lon="-3.877882">
        <ele>2191.6</ele>
        <time>2018-04-21T09:14:01.000Z</time>
      </trkpt>
      <trkpt lat="40.806013" lon="-3.877889">
        <ele>2191.7</ele>
        <time>2018-04-21T09:14:02.000Z</time>
      </trkpt>
      <trkpt lat="40.806012" lon="-3.877895">
        <ele>2191.8</ele>
        <time>2018-04-21T09:14:03.000Z</time>
      </trkpt>
      <trkpt lat="40.806011" lon="-3.877901">
        <ele>2191.9</ele>
        <time>2018-04-21T09:14:04.000Z</time>
      </trkpt>
      <trkpt lat="40.80601" lon="-3.877906">
        <ele>2191.9</ele>
        <time>2018-04-21T09:14:05.000Z</time>
      </trkpt>
      <trkpt lat="40.806009" lon="-3.87791">
        <ele>2192.0</ele>
        <time>2018-04-21T09:14:06.000Z</time>
      </trkpt>
      <trkpt lat="40.806009" lon="-3.877914">
        <ele>2192.0</ele>
        <time>2018-04-21T09:14:07.000Z</time>
      </trkpt>
      <trkpt lat="40.806008" lon="-3.877917">
        <ele>2192.1</ele>
        <time>2018-04-21T09:14:08.000Z</time>
      </trkpt>
      <trkpt lat="40.806008" lon="-3.877919">
        <ele>2192.1</ele>
        <time>2018-04-21T09:14:09.000Z</time>
      </trkpt>
      <trkpt lat="40.806007" lon="-3.87792">
        <ele>2192.1</ele>
        <time>2018-04-21T09:14:10.000Z</time>
      </trkpt>
      <trkpt lat="40.806007" lon="-3.877922">
        <ele>2192.2</ele>
        <time>2018-04-21T09:14:11.000Z</time>
      </trkpt>
      <trkpt lat="40.806007" lon="-3.877922">
        <ele>2192.2</ele>
        <time>2018-04-21T09:14:12.000Z</time>
      </trkpt>
      <trkpt lat="40.806007" lon="-3.877923">
        <ele>2192.2</ele>
        <time>2018-04-21T09:14:13.000Z</time>
      </trkpt>
      <trkpt lat="40.806007" lon="-3.877923">
        <ele>2192.2</ele>
        <time>2018-04-21T09:14:14.000Z</time>
      </trkpt>
      <trkpt lat="40.806007" lon="-3.877923">
        <ele>2192.2</ele>
        <time>2018-04-21T09:14:15.000Z</time>
      </trkpt>
      <trkpt lat="40.806006" lon="-3.877923">
        <ele>2192.2</ele>
        <time>2018-04-21T09:14:16.000Z</time>
      </trkpt>
      <trkpt lat="40.806006" lon="-3.877923">
        <ele>2192.2</ele>
        <time>2018-04-21T09:14:17.000Z</time>
      </trkpt>
      <trkpt lat="40.806006" lon="-3.877922">
        <ele>2192.2</ele>
        <time>2018-04-21T09:14:18.000Z</time>
      </trkpt>
      <trkpt lat="40.806006" lon="-3.877922">
        <ele>2192.2</ele>
        <time>2018-04-21T09:14:19.000Z</time>
      </trkpt>
      <trkpt lat="40.806007" lon="-3.877922">
        <ele>2192.2</ele>
        <time>2018-04-21T09:14:20.000Z</time>
      </trkpt>
      <trkpt lat="40.806007" lon="-3.877922">
        <ele>2192.2</ele>
        <time>2018-04-21T09:14:21.000Z</time>
      </trkpt>
      <trkpt lat="40.806007" lon="-3.877922">
        <ele>2192.2</ele>
        <time>2018-04-21T09:14:22.000Z</time>
      </trkpt>
      <trkpt lat="40.806007" lon="-3.877922">
        <ele>2192.2</ele>
        <time>2018-04-21T09:14:23.000Z</time>
      </trkpt>
      <trkpt lat="40.806007" lon="-3.877922">
        <ele>2192.2</ele>
        <time>2018-04-21T09:14:24.000Z</time>
      </trkpt>
      <trkpt lat="40.806007" lon="-3.877922">
        <ele>2192.2</ele>
        <time>2018-04-21T09:14:25.000Z</time>
      </trkpt>
      <trkpt lat="40.806007" lon="-3.877922">
        <ele>2192.2</ele>
        <time>2018-04-21T09:14:26.000Z</time>
      </trkpt>
      <trkpt lat="40.806006" lon="-3.877922">
        <ele>2192.2</ele>
        <time>2018-04-21T09:14:27.000Z</time>
      </trkpt>
      <trkpt lat="40.806006" lon="-3.877923">
        <ele>2192.2</ele>
        <time>2018-04-21T09:14:28.000Z</time>
      </trkpt>
      <trkpt lat="40.806006" lon="-3.877923">
        <ele>2192.2</ele>
        <time>2018-04-21T09:14:29.000Z</time>
      </trkpt>
      <trkpt lat="40.806006" lon="-3.877924">
        <ele>2192.2</ele>
        <time>2018-04-21T09:14:30.000Z</time>
      </trkpt>
      <trkpt lat="40.806006" lon="-3.877924">
        <ele>2192.2</ele>
        <time>2018-04-21T09:14:31.000Z</time>
      </trkpt>
      <trkpt lat="40.806006" lon="-3.877925">
        <ele>2192.2</ele>
        <time>2018-04-21T09:14:32.000Z</time>
      </trkpt>
      <trkpt lat="40.806005" lon="-3.877925">
        <ele>2192.2</ele>
        <time>2018-04-21T09:14:33.000Z</time>
      </trkpt>
      <trkpt lat="40.806005" lon="-3.877926">
        <ele>2192.2</ele>
        <time>2018-04-21T09:14:34.000Z</time>
      </trkpt>
      <trkpt lat="40.806004" lon="-3.877928">
        <ele>2192.3</ele>
        <time>2018-04-21T09:14:35.000Z</time>
      </trkpt>
      <trkpt lat="40.806002" lon="-3.87793">
        <ele>2192.3</ele>
        <time>2018-04-21T09:14:36.000Z</time>
      </trkpt>
      <trkpt lat="40.806" lon="-3.877932">
        <ele>2192.4</ele>
        <time>2018-04-21T09:14:37.000Z</time>
      </trkpt>
      <trkpt lat="40.805996" lon="-3.877936">
        <ele>2192.5</ele>
        <time>2018-04-21T09:14:38.000Z</time>
      </trkpt>
      <trkpt lat="40.80599" lon="-3.877941">
        <ele>2192.6</ele>
        <time>2018-04-21T09:14:39.000Z</time>
      </trkpt>
      <trkpt lat="40.805984" lon="-3.877946">
        <ele>2192.7</ele>
        <time>2018-04-21T09:14:40.000Z</time>
      </trkpt>
      <trkpt lat="40.805978" lon="-3.877951">
        <ele>2192.9</ele>
        <time>2018-04-21T09:14:41.000Z</time>
      </trkpt>
      <trkpt lat="40.805973" lon="-3.877955">
        <ele>2193.0</ele>
        <time>2018-04-21T09:14:42.000Z</time>
      </trkpt>
      <trkpt lat="40.805969" lon="-3.877958">
        <ele>2193.1</ele>
        <time>2018-04-21T09:14:43.000Z</time>
      </trkpt>
      <trkpt lat="40.805968" lon="-3.877959">
        <ele>2193.1</ele>
        <time>2018-04-21T09:14:44.000Z</time>
      </trkpt>
      <trkpt lat="40.805967" lon="-3.87796">
        <ele>2193.1</ele>
        <time>2018-04-21T09:14:45.000Z</time>
      </trkpt>
      <trkpt lat="40.805967" lon="-3.87796">
        <ele>2193.1</ele>
        <time>2018-04-21T09:14:46.000Z</time>
      </trkpt>
      <trkpt lat="40.805967" lon="-3.877959">
        <ele>2193.1</ele>
        <time>2018-04-21T09:14:47.000Z</time>
      </trkpt>
      <trkpt lat="40.805967" lon="-3.87796">
        <ele>2193.1</ele>
        <time>2018-04-21T09:14:48.000Z</time>
      </trkpt>
      <trkpt lat="40.805966" lon="-3.87796">
        <ele>2193.1</ele>
        <time>2018-04-21T09:14:49.000Z</time>
      </trkpt>
      <trkpt lat="40.805966" lon="-3.877961">
        <ele>2193.1</ele>
        <time>2018-04-21T09:14:50.000Z</time>
      </trkpt>
      <trkpt lat="40.805966" lon="-3.877961">
        <ele>2193.1</ele>
        <time>2018-04-21T09:14:51.000Z</time>
      </trkpt>
      <trkpt lat="40.805966" lon="-3.877961">
        <ele>2193.1</ele>
        <time>2018-04-21T09:14:52.000Z</time>
      </trkpt>
      <trkpt lat="40.805966" lon="-3.877961">
        <ele>2193.1</ele>
        <time>2018-04-21T09:15:51.000Z</time>
      </trkpt>
      <trkpt lat="40.805966" lon="-3.877961">
        <ele>2193.1</ele>
        <time>2018-04-21T09:15:52.000Z</time>
      </trkpt>
      <trkpt lat="40.805966" lon="-3.877962">
        <ele>2193.2</ele>
        <time>2018-04-21T09:15:53.000Z</time>
      </trkpt>
      <trkpt lat="40.805965" lon="-3.877964">
        <ele>2193.2</ele>
        <time>2018-04-21T09:15:54.000Z</time>
      </trkpt>
      <trkpt lat="40.805963" lon="-3.877967">
        <ele>2193.2</ele>
        <time>2018-04-21T09:15:55.000Z</time>
      </trkpt>
      <trkpt lat="40.805961" lon="-3.877971">
        <ele>2193.3</ele>
        <time>2018-04-21T09:15:56.000Z</time>
      </trkpt>
      <trkpt lat="40.805958" lon="-3.877977">
        <ele>2193.4</ele>
        <time>2018-04-21T09:15:57.000Z</time>
      </trkpt>
      <trkpt lat="40.805955" lon="-3.877983">
        <ele>2193.5</ele>
        <time>2018-04-21T09:15:58.000Z</time>
      </trkpt>
      <trkpt lat="40.805951" lon="-3.877988">
        <ele>2193.6</ele>
        <time>2018-04-21T09:15:59.000Z</time>
      </trkpt>
      <trkpt lat="40.805947" lon="-3.877994">
        <ele>2193.8</ele>
        <time>2018-04-21T09:16:00.000Z</time>
      </trkpt>
      <trkpt lat="40.805943" lon="-3.878">
        <ele>2193.9</ele>
        <time>2018-04-21T09:16:01.000Z</time>
      </trkpt>
      <trkpt lat="40.805939" lon="-3.878005">
        <ele>2194.0</ele>
        <time>2018-04-21T09:16:02.000Z</time>
      </trkpt>
      <trkpt lat="40.805934" lon="-3.878011">
        <ele>2194.1</ele>
        <time>2018-04-21T09:16:03.000Z</time>
      </trkpt>
      <trkpt lat="40.80593" lon="-3.878016">
        <ele>2194.2</ele>
        <time>2018-04-21T09:16:04.000Z</time>
      </trkpt>
      <trkpt lat="40.805925" lon="-3.878021">
        <ele>2194.3</ele>
        <time>2018-04-21T09:16:05.000Z</time>
      </trkpt>
      <trkpt lat="40.805921" lon="-3.878026">
        <ele>2194.5</ele>
        <time>2018-04-21T09:16:06.000Z</time>
      </trkpt>
      <trkpt lat="40.805916" lon="-3.878032">
        <ele>2194.6</ele>
        <time>2018-04-21T09:16:07.000Z</time>
      </trkpt>
      <trkpt lat="40.805912" lon="-3.878037">
        <ele>2194.7</ele>
        <time>2018-04-21T09:16:08.000Z</time>
      </trkpt>
      <trkpt lat="40.805908" lon="-3.878043">
        <ele>2194.8</ele>
        <time>2018-04-21T09:16:09.000Z</time>
      </trkpt>
      <trkpt lat="40.805904" lon="-3.878048">
        <ele>2194.9</ele>
        <time>2018-04-21T09:16:10.000Z</time>
      </trkpt>
      <trkpt lat="40.8059" lon="-3.878054">
        <ele>2195.1</ele>
        <time>2018-04-21T09:16:11.000Z</time>
      </trkpt>
      <trkpt lat="40.805896" lon="-3.878059">
        <ele>2195.2</ele>
        <time>2018-04-21T09:16:12.000Z</time>
      </trkpt>
      <trkpt lat="40.805893" lon="-3.878063">
        <ele>2195.2</ele>
        <time>2018-04-21T09:16:13.000Z</time>
      </trkpt>
      <trkpt lat="40.80589" lon="-3.878067">
        <ele>2195.3</ele>
        <time>2018-04-21T09:16:14.000Z</time>
      </trkpt>
      <trkpt lat="40.805888" lon="-3.878071">
        <ele>2195.4</ele>
        <time>2018-04-21T09:16:15.000Z</time>
      </trkpt>
      <trkpt lat="40.805886" lon="-3.878073">
        <ele>2195.4</ele>
        <time>2018-04-21T09:16:16.000Z</time>
      </trkpt>
      <trkpt lat="40.805885" lon="-3.878075">
        <ele>2195.5</ele>
        <time>2018-04-21T09:16:17.000Z</time>
      </trkpt>
      <trkpt lat="40.805885" lon="-3.878076">
        <ele>2195.5</ele>
        <time>2018-04-21T09:16:18.000Z</time>
      </trkpt>
      <trkpt lat="40.805885" lon="-3.878076">
        <ele>2195.5</ele>
        <time>2018-04-21T09:16:19.000Z</time>
      </trkpt>
      <trkpt lat="40.805885" lon="-3.878076">
        <ele>2195.5</ele>
        <time>2018-04-21T09:16:20.000Z</time>
      </trkpt>
      <trkpt lat="40.805885" lon="-3.878076">
        <ele>2195.5</ele>
        <time>2018-04-21T09:16:21.000Z</time>
      </trkpt>
      <trkpt lat="40.805884" lon="-3.878076">
        <ele>2195.5</ele>
        <time>2018-04-21T09:16:22.000Z</time>
      </trkpt>
      <trkpt lat="40.805882" lon="-3.878078">
        <ele>2195.6</ele>
        <time>2018-04-21T09:16:23.000Z</time>
      </trkpt>
      <trkpt lat="40.80588" lon="-3.878081">
        <ele>2195.6</ele>
        <time>2018-04-21T09:16:24.000Z</time>
      </trkpt>
      <trkpt lat="40.805876" lon="-3.878084">
        <ele>2195.7</ele>
        <time>2018-04-21T09:16:25.000Z</time>
      </trkpt>
      <trkpt lat="40.805873" lon="-3.878088">
        <ele>2195.8</ele>
        <time>2018-04-21T09:16:26.000Z</time>
      </trkpt>
      <trkpt lat="40.805869" lon="-3.878092">
        <ele>2195.9</ele>
        <time>2018-04-21T09:16:27.000Z</time>
      </trkpt>
      <trkpt lat="40.805866" lon="-3.878097">
        <ele>2196.0</ele>
        <time>2018-04-21T09:16:28.000Z</time>
      </trkpt>
      <trkpt lat="40.805862" lon="-3.878102">
        <ele>2196.1</ele>
        <time>2018-04-21T09:16:29.000Z</time>
      </trkpt>
      <trkpt lat="40.805858" lon="-3.878107">
        <ele>2196.2</ele>
        <time>2018-04-21T09:16:30.000Z</time>
      </trkpt>
      <trkpt lat="40.805854" lon="-3.878112">
        <ele>2196.3</ele>
        <time>2018-04-21T09:16:31.000Z</time>
      </trkpt>
      <trkpt lat="40.805851" lon="-3.878118">
        <ele>2196.4</ele>
        <time>2018-04-21T09:16:32.000Z</time>
      </trkpt>
      <trkpt lat="40.805847" lon="-3.878125">
        <ele>2196.6</ele>
        <time>2018-04-21T09:16:33.000Z</time>
      </trkpt>
      <trkpt lat="40.805844" lon="-3.878132">
        <ele>2196.7</ele>
        <time>2018-04-21T09:16:34.000Z</time>
      </trkpt>
      <trkpt lat="40.80584" lon="-3.878139">
        <ele>2196.8</ele>
        <time>2018-04-21T09:16:35.000Z</time>
      </trkpt>
      <trkpt lat="40.805837" lon="-3.878146">
        <ele>2196.9</ele>
        <time>2018-04-21T09:16:36.000Z</time>
      </trkpt>
      <trkpt lat="40.805835" lon="-3.878154">
        <ele>2197.0</ele>
        <time>2018-04-21T09:16:37.000Z</time>
      </trkpt>
      <trkpt lat="40.805832" lon="-3.878162">
        <ele>2197.2</ele>
        <time>2018-04-21T09:16:38.000Z</time>
      </trkpt>
      <trkpt lat="40.805829" lon="-3.878171">
        <ele>2197.3</ele>
        <time>2018-04-21T09:16:39.000Z</time>
      </trkpt>
      <trkpt lat="40.805826" lon="-3.878179">
        <ele>2197.4</ele>
        <time>2018-04-21T09:16:40.000Z</time>
      </trkpt>
      <trkpt lat="40.805823" lon="-3.878187">
        <ele>2197.5</ele>
        <time>2018-04-21T09:16:41.000Z</time>
      </trkpt>
      <trkpt lat="40.80582" lon="-3.878195">
        <ele>2197.6</ele>
        <time>2018-04-21T09:16:42.000Z</time>
      </trkpt>
      <trkpt lat="40.805816" lon="-3.878202">
        <ele>2197.7</ele>
        <time>2018-04-21T09:16:43.000Z</time>
      </trkpt>
      <trkpt lat="40.805813" lon="-3.878209">
        <ele>2197.8</ele>
        <time>2018-04-21T09:16:44.000Z</time>
      </trkpt>
      <trkpt lat="40.805808" lon="-3.878215">
        <ele>2197.9</ele>
        <time>2018-04-21T09:16:45.000Z</time>
      </trkpt>
      <trkpt lat="40.805804" lon="-3.878221">
        <ele>2198.0</ele>
        <time>2018-04-21T09:16:46.000Z</time>
      </trkpt>
      <trkpt lat="40.805799" lon="-3.878227">
        <ele>2198.1</ele>
        <time>2018-04-21T09:16:47.000Z</time>
      </trkpt>
      <trkpt lat="40.805794" lon="-3.878232">
        <ele>2198.1</ele>
        <time>2018-04-21T09:16:48.000Z</time>
      </trkpt>
      <trkpt lat="40.805789" lon="-3.878237">
        <ele>2198.2</ele>
        <time>2018-04-21T09:16:49.000Z</time>
      </trkpt>
      <trkpt lat="40.805784" lon="-3.878242">
        <ele>2198.3</ele>
        <time>2018-04-21T09:16:50.000Z</time>
      </trkpt>
      <trkpt lat="40.805779" lon="-3.878247">
        <ele>2198.4</ele>
        <time>2018-04-21T09:16:51.000Z</time>
      </trkpt>
      <trkpt lat="40.805774" lon="-3.878252">
        <ele>2198.5</ele>
        <time>2018-04-21T09:16:52.000Z</time>
      </trkpt>
      <trkpt lat="40.805769" lon="-3.878257">
        <ele>2198.6</ele>
        <time>2018-04-21T09:16:53.000Z</time>
      </trkpt>
      <trkpt lat="40.805765" lon="-3.878262">
        <ele>2198.6</ele>
        <time>2018-04-21T09:16:54.000Z</time>
      </trkpt>
      <trkpt lat="40.805761" lon="-3.878267">
        <ele>2198.7</ele>
        <time>2018-04-21T09:16:55.000Z</time>
      </trkpt>
      <trkpt lat="40.805758" lon="-3.878273">
        <ele>2198.8</ele>
        <time>2018-04-21T09:16:56.000Z</time>
      </trkpt>
      <trkpt lat="40.805755" lon="-3.878278">
        <ele>2198.9</ele>
        <time>2018-04-21T09:16:57.000Z</time>
      </trkpt>
      <trkpt lat="40.805752" lon="-3.878283">
        <ele>2198.9</ele>
        <time>2018-04-21T09:16:58.000Z</time>
      </trkpt>
      <trkpt lat="40.80575" lon="-3.878287">
        <ele>2199.0</ele>
        <time>2018-04-21T09:16:59.000Z</time>
      </trkpt>
      <trkpt lat="40.805749" lon="-3.878291">
        <ele>2199.0</ele>
        <time>2018-04-21T09:17:00.000Z</time>
      </trkpt>
      <trkpt lat="40.805748" lon="-3.878294">
        <ele>2199.1</ele>
        <time>2018-04-21T09:17:01.000Z</time>
      </trkpt>
      <trkpt lat="40.805747" lon="-3.878296">
        <ele>2199.1</ele>
        <time>2018-04-21T09:17:02.000Z</time>
      </trkpt>
      <trkpt lat="40.805747" lon="-3.878297">
        <ele>2199.1</ele>
        <time>2018-04-21T09:17:03.000Z</time>
      </trkpt>
      <trkpt lat="40.805747" lon="-3.878298">
        <ele>2199.1</ele>
        <time>2018-04-21T09:17:04.000Z</time>
      </trkpt>
      <trkpt lat="40.805747" lon="-3.878298">
        <ele>2199.1</ele>
        <time>2018-04-21T09:17:05.000Z</time>
      </trkpt>
      <trkpt lat="40.805748" lon="-3.878297">
        <ele>2199.1</ele>
        <time>2018-04-21T09:17:06.000Z</time>
      </trkpt>
      <trkpt lat="40.805749" lon="-3.878296">
        <ele>2199.1</ele>
        <time>2018-04-21T09:17:07.000Z</time>
      </trkpt>
      <trkpt lat="40.805749" lon="-3.878295">
        <ele>2199.1</ele>
        <time>2018-04-21T09:17:08.000Z</time>
      </trkpt>
      <trkpt lat="40.805749" lon="-3.878295">
        <ele>2199.1</ele>
        <time>2018-04-21T09:17:09.000Z</time>
      </trkpt>
      <trkpt lat="40.805749" lon="-3.878294">
        <ele>2199.1</ele>
        <time>2018-04-21T09:17:10.000Z</time>
      </trkpt>
      <trkpt lat="40.805748" lon="-3.878295">
        <ele>2199.1</ele>
        <time>2018-04-21T09:17:11.000Z</time>
      </trkpt>
      <trkpt lat="40.805747" lon="-3.878296">
        <ele>2199.1</ele>
        <time>2018-04-21T09:17:12.000Z</time>
      </trkpt>
      <trkpt lat="40.805745" lon="-3.878297">
        <ele>2199.1</ele>
        <time>2018-04-21T09:17:13.000Z</time>
      </trkpt>
      <trkpt lat="40.805742" lon="-3.8783">
        <ele>2199.2</ele>
        <time>2018-04-21T09:17:14.000Z</time>
      </trkpt>
      <trkpt lat="40.805739" lon="-3.878303">
        <ele>2199.2</ele>
        <time>2018-04-21T09:17:15.000Z</time>
      </trkpt>
      <trkpt lat="40.805736" lon="-3.878306">
        <ele>2199.3</ele>
        <time>2018-04-21T09:17:16.000Z</time>
      </trkpt>
      <trkpt lat="40.805732" lon="-3.87831">
        <ele>2199.4</ele>
        <time>2018-04-21T09:17:17.000Z</time>
      </trkpt>
      <trkpt lat="40.805728" lon="-3.878315">
        <ele>2199.4</ele>
        <time>2018-04-21T09:17:18.000Z</time>
      </trkpt>
      <trkpt lat="40.805724" lon="-3.878319">
        <ele>2199.5</ele>
        <time>2018-04-21T09:17:19.000Z</time>
      </trkpt>
      <trkpt lat="40.80572" lon="-3.878325">
        <ele>2199.6</ele>
        <time>2018-04-21T09:17:20.000Z</time>
      </trkpt>
      <trkpt lat="40.805715" lon="-3.87833">
        <ele>2199.7</ele>
        <time>2018-04-21T09:17:21.000Z</time>
      </trkpt>
      <trkpt lat="40.80571" lon="-3.878336">
        <ele>2199.8</ele>
        <time>2018-04-21T09:17:22.000Z</time>
      </trkpt>
      <trkpt lat="40.805706" lon="-3.878342">
        <ele>2199.9</ele>
        <time>2018-04-21T09:17:23.000Z</time>
      </trkpt>
      <trkpt lat="40.805701" lon="-3.878348">
        <ele>2199.9</ele>
        <time>2018-04-21T09:17:24.000Z</time>
      </trkpt>
      <trkpt lat="40.805696" lon="-3.878354">
        <ele>2200.0</ele>
        <time>2018-04-21T09:17:25.000Z</time>
      </trkpt>
      <trkpt lat="40.805691" lon="-3.878361">
        <ele>2200.1</ele>
        <time>2018-04-21T09:17:26.000Z</time>
      </trkpt>
      <trkpt lat="40.805686" lon="-3.878367">
        <ele>2200.2</ele>
        <time>2018-04-21T09:17:27.000Z</time>
      </trkpt>
      <trkpt lat="40.805681" lon="-3.878374">
        <ele>2200.3</ele>
        <time>2018-04-21T09:17:28.000Z</time>
      </trkpt>
      <trkpt lat="40.805676" lon="-3.878381">
        <ele>2200.4</ele>
        <time>2018-04-21T09:17:29.000Z</time>
      </trkpt>
      <trkpt lat="40.805671" lon="-3.878388">
        <ele>2200.5</ele>
        <time>2018-04-21T09:17:30.000Z</time>
      </trkpt>
      <trkpt lat="40.805666" lon="-3.878395">
        <ele>2200.6</ele>
        <time>2018-04-21T09:17:31.000Z</time>
      </trkpt>
      <trkpt lat="40.805661" lon="-3.878402">
        <ele>2200.7</ele>
        <time>2018-04-21T09:17:32.000Z</time>
      </trkpt>
      <trkpt lat="40.805656" lon="-3.878409">
        <ele>2200.8</ele>
        <time>2018-04-21T09:17:33.000Z</time>
      </trkpt>
      <trkpt lat="40.805651" lon="-3.878416">
        <ele>2200.9</ele>
        <time>2018-04-21T09:17:34.000Z</time>
      </trkpt>
      <trkpt lat="40.805647" lon="-3.878424">
        <ele>2201.0</ele>
        <time>2018-04-21T09:17:35.000Z</time>
      </trkpt>
      <trkpt lat="40.805642" lon="-3.878431">
        <ele>2201.1</ele>
        <time>2018-04-21T09:17:36.000Z</time>
      </trkpt>
      <trkpt lat="40.805638" lon="-3.878438">
        <ele>2201.2</ele>
        <time>2018-04-21T09:17:37.000Z</time>
      </trkpt>
      <trkpt lat="40.805634" lon="-3.878444">
        <ele>2201.3</ele>
        <time>2018-04-21T09:17:38.000Z</time>
      </trkpt>
      <trkpt lat="40.80563" lon="-3.878451">
        <ele>2201.4</ele>
        <time>2018-04-21T09:17:39.000Z</time>
      </trkpt>
      <trkpt lat="40.805627" lon="-3.878458">
        <ele>2201.5</ele>
        <time>2018-04-21T09:17:40.000Z</time>
      </trkpt>
      <trkpt lat="40.805623" lon="-3.878464">
        <ele>2201.6</ele>
        <time>2018-04-21T09:17:41.000Z</time>
      </trkpt>
      <trkpt lat="40.80562" lon="-3.878471">
        <ele>2201.7</ele>
        <time>2018-04-21T09:17:42.000Z</time>
      </trkpt>
      <trkpt lat="40.805617" lon="-3.878477">
        <ele>2201.8</ele>
        <time>2018-04-21T09:17:43.000Z</time>
      </trkpt>
      <trkpt lat="40.805613" lon="-3.878484">
        <ele>2201.9</ele>
        <time>2018-04-21T09:17:44.000Z</time>
      </trkpt>
      <trkpt lat="40.80561" lon="-3.87849">
        <ele>2201.9</ele>
        <time>2018-04-21T09:17:45.000Z</time>
      </trkpt>
      <trkpt lat="40.805607" lon="-3.878496">
        <ele>2202.0</ele>
        <time>2018-04-21T09:17:46.000Z</time>
      </trkpt>
      <trkpt lat="40.805604" lon="-3.878502">
        <ele>2202.1</ele>
        <time>2018-04-21T09:17:47.000Z</time>
      </trkpt>
      <trkpt lat="40.805601" lon="-3.878509">
        <ele>2202.2</ele>
        <time>2018-04-21T09:17:48.000Z</time>
      </trkpt>
      <trkpt lat="40.805598" lon="-3.878515">
        <ele>2202.3</ele>
        <time>2018-04-21T09:17:49.000Z</time>
      </trkpt>
      <trkpt lat="40.805595" lon="-3.878521">
        <ele>2202.3</ele>
        <time>2018-04-21T09:17:50.000Z</time>
      </trkpt>
      <trkpt lat="40.805592" lon="-3.878527">
        <ele>2202.4</ele>
        <time>2018-04-21T09:17:51.000Z</time>
      </trkpt>
      <trkpt lat="40.805588" lon="-3.878534">
        <ele>2202.5</ele>
        <time>2018-04-21T09:17:52.000Z</time>
      </trkpt>
      <trkpt lat="40.805585" lon="-3.87854">
        <ele>2202.6</ele>
        <time>2018-04-21T09:17:53.000Z</time>
      </trkpt>
      <trkpt lat="40.805581" lon="-3.878546">
        <ele>2202.7</ele>
        <time>2018-04-21T09:17:54.000Z</time>
      </trkpt>
      <trkpt lat="40.805577" lon="-3.878553">
        <ele>2202.7</ele>
        <time>2018-04-21T09:17:55.000Z</time>
      </trkpt>
      <trkpt lat="40.805573" lon="-3.878559">
        <ele>2202.8</ele>
        <time>2018-04-21T09:17:56.000Z</time>
      </trkpt>
      <trkpt lat="40.805568" lon="-3.878566">
        <ele>2202.9</ele>
        <time>2018-04-21T09:17:57.000Z</time>
      </trkpt>
      <trkpt lat="40.805563" lon="-3.878572">
        <ele>2203.0</ele>
        <time>2018-04-21T09:17:58.000Z</time>
      </trkpt>
      <trkpt lat="40.805558" lon="-3.878579">
        <ele>2203.1</ele>
        <time>2018-04-21T09:17:59.000Z</time>
      </trkpt>
      <trkpt lat="40.805554" lon="-3.878585">
        <ele>2203.2</ele>
        <time>2018-04-21T09:18:00.000Z</time>
      </trkpt>
      <trkpt lat="40.805549" lon="-3.878591">
        <ele>2203.3</ele>
        <time>2018-04-21T09:18:01.000Z</time>
      </trkpt>
      <trkpt lat="40.805545" lon="-3.878596">
        <ele>2203.3</ele>
        <time>2018-04-21T09:18:02.000Z</time>
      </trkpt>
      <trkpt lat="40.805541" lon="-3.878601">
        <ele>2203.4</ele>
        <time>2018-04-21T09:18:03.000Z</time>
      </trkpt>
      <trkpt lat="40.805538" lon="-3.878605">
        <ele>2203.5</ele>
        <time>2018-04-21T09:18:04.000Z</time>
      </trkpt>
      <trkpt lat="40.805535" lon="-3.878609">
        <ele>2203.5</ele>
        <time>2018-04-21T09:18:05.000Z</time>
      </trkpt>
      <trkpt lat="40.805533" lon="-3.878611">
        <ele>2203.6</ele>
        <time>2018-04-21T09:18:06.000Z</time>
      </trkpt>
      <trkpt lat="40.805532" lon="-3.878613">
        <ele>2203.6</ele>
        <time>2018-04-21T09:18:07.000Z</time>
      </trkpt>
      <trkpt lat="40.805531" lon="-3.878614">
        <ele>2203.6</ele>
        <time>2018-04-21T09:18:08.000Z</time>
      </trkpt>
      <trkpt lat="40.805531" lon="-3.878615">
        <ele>2203.6</ele>
        <time>2018-04-21T09:18:09.000Z</time>
      </trkpt>
      <trkpt lat="40.805531" lon="-3.878615">
        <ele>2203.6</ele>
        <time>2018-04-21T09:18:10.000Z</time>
      </trkpt>
      <trkpt lat="40.805531" lon="-3.878615">
        <ele>2203.6</ele>
        <time>2018-04-21T09:18:11.000Z</time>
      </trkpt>
      <trkpt lat="40.805531" lon="-3.878615">
        <ele>2203.6</ele>
        <time>2018-04-21T09:18:12.000Z</time>
      </trkpt>
      <trkpt lat="40.805531" lon="-3.878615">
        <ele>2203.6</ele>
        <time>2018-04-21T09:18:13.000Z</time>
      </trkpt>
      <trkpt lat="40.805531" lon="-3.878615">
        <ele>2203.6</ele>
        <time>2018-04-21T09:18:14.000Z</time>
      </trkpt>
      <trkpt lat="40.805531" lon="-3.878615">
        <ele>2203.6</ele>
        <time>2018-04-21T09:18:15.000Z</time>
      </trkpt>
      <trkpt lat="40.805531" lon="-3.878615">
        <ele>2203.6</ele>
        <time>2018-04-21T09:18:16.000Z</time>
      </trkpt>
      <trkpt lat="40.80553" lon="-3.878616">
        <ele>2203.6</ele>
        <time>2018-04-21T09:18:17.000Z</time>
      </trkpt>
      <trkpt lat="40.805529" lon="-3.878618">
        <ele>2203.7</ele>
        <time>2018-04-21T09:18:18.000Z</time>
      </trkpt>
      <trkpt lat="40.805528" lon="-3.87862">
        <ele>2203.7</ele>
        <time>2018-04-21T09:18:19.000Z</time>
      </trkpt>
      <trkpt lat="40.805527" lon="-3.878623">
        <ele>2203.7</ele>
        <time>2018-04-21T09:18:20.000Z</time>
      </trkpt>
      <trkpt lat="40.805526" lon="-3.878628">
        <ele>2203.8</ele>
        <time>2018-04-21T09:18:21.000Z</time>
      </trkpt>
      <trkpt lat="40.805525" lon="-3.878633">
        <ele>2203.8</ele>
        <time>2018-04-21T09:18:22.000Z</time>
      </trkpt>
      <trkpt lat="40.805524" lon="-3.878639">
        <ele>2203.9</ele>
        <time>2018-04-21T09:18:23.000Z</time>
      </trkpt>
      <trkpt lat="40.805523" lon="-3.878647">
        <ele>2204.0</ele>
        <time>2018-04-21T09:18:24.000Z</time>
      </trkpt>
      <trkpt lat="40.805522" lon="-3.878655">
        <ele>2204.1</ele>
        <time>2018-04-21T09:18:25.000Z</time>
      </trkpt>
      <trkpt lat="40.805521" lon="-3.878665">
        <ele>2204.2</ele>
        <time>2018-04-21T09:18:26.000Z</time>
      </trkpt>
      <trkpt lat="40.80552" lon="-3.878675">
        <ele>2204.3</ele>
        <time>2018-04-21T09:18:27.000Z</time>
      </trkpt>
      <trkpt lat="40.805518" lon="-3.878686">
        <ele>2204.4</ele>
        <time>2018-04-21T09:18:28.000Z</time>
      </trkpt>
      <trkpt lat="40.805516" lon="-3.878697">
        <ele>2204.5</ele>
        <time>2018-04-21T09:18:29.000Z</time>
      </trkpt>
      <trkpt lat="40.805514" lon="-3.878708">
        <ele>2204.6</ele>
        <time>2018-04-21T09:18:30.000Z</time>
      </trkpt>
      <trkpt lat="40.805512" lon="-3.878719">
        <ele>2204.7</ele>
        <time>2018-04-21T09:18:31.000Z</time>
      </trkpt>
      <trkpt lat="40.805508" lon="-3.87873">
        <ele>2204.9</ele>
        <time>2018-04-21T09:18:32.000Z</time>
      </trkpt>
      <trkpt lat="40.805505" lon="-3.87874">
        <ele>2205.0</ele>
        <time>2018-04-21T09:18:33.000Z</time>
      </trkpt>
      <trkpt lat="40.805501" lon="-3.878749">
        <ele>2205.1</ele>
        <time>2018-04-21T09:18:34.000Z</time>
      </trkpt>
      <trkpt lat="40.805496" lon="-3.878759">
        <ele>2205.2</ele>
        <time>2018-04-21T09:18:35.000Z</time>
      </trkpt>
      <trkpt lat="40.805492" lon="-3.878767">
        <ele>2205.3</ele>
        <time>2018-04-21T09:18:36.000Z</time>
      </trkpt>
      <trkpt lat="40.805487" lon="-3.878776">
        <ele>2205.4</ele>
        <time>2018-04-21T09:18:37.000Z</time>
      </trkpt>
      <trkpt lat="40.805482" lon="-3.878784">
        <ele>2205.5</ele>
        <time>2018-04-21T09:18:38.000Z</time>
      </trkpt>
      <trkpt lat="40.805478" lon="-3.878792">
        <ele>2205.6</ele>
        <time>2018-04-21T09:18:39.000Z</time>
      </trkpt>
      <trkpt lat="40.805473" lon="-3.878799">
        <ele>2205.7</ele>
        <time>2018-04-21T09:18:40.000Z</time>
      </trkpt>
      <trkpt lat="40.805469" lon="-3.878807">
        <ele>2205.8</ele>
        <time>2018-04-21T09:18:41.000Z</time>
      </trkpt>
      <trkpt lat="40.805466" lon="-3.878814">
        <ele>2205.9</ele>
        <time>2018-04-21T09:18:42.000Z</time>
      </trkpt>
      <trkpt lat="40.805463" lon="-3.878821">
        <ele>2206.0</ele>
        <time>2018-04-21T09:18:43.000Z</time>
      </trkpt>
      <trkpt lat="40.80546" lon="-3.878828">
        <ele>2206.1</ele>
        <time>2018-04-21T09:18:44.000Z</time>
      </trkpt>
      <trkpt lat="40.805457" lon="-3.878834">
        <ele>2206.1</ele>
        <time>2018-04-21T09:18:45.000Z</time>
      </trkpt>
      <trkpt lat="40.805454" lon="-3.878841">
        <ele>2206.2</ele>
        <time>2018-04-21T09:18:46.000Z</time>
      </trkpt>
      <trkpt lat="40.805451" lon="-3.878848">
        <ele>2206.3</ele>
        <time>2018-04-21T09:18:47.000Z</time>
      </trkpt>
      <trkpt lat="40.805449" lon="-3.878854">
        <ele>2206.4</ele>
        <time>2018-04-21T09:18:48.000Z</time>
      </trkpt>
      <trkpt lat="40.805446" lon="-3.878861">
        <ele>2206.4</ele>
        <time>2018-04-21T09:18:49.000Z</time>
      </trkpt>
      <trkpt lat="40.805442" lon="-3.878868">
        <ele>2206.5</ele>
        <time>2018-04-21T09:18:50.000Z</time>
      </trkpt>
      <trkpt lat="40.805439" lon="-3.878874">
        <ele>2206.6</ele>
        <time>2018-04-21T09:18:51.000Z</time>
      </trkpt>
      <trkpt lat="40.805435" lon="-3.878882">
        <ele>2206.7</ele>
        <time>2018-04-21T09:18:52.000Z</time>
      </trkpt>
      <trkpt lat="40.805432" lon="-3.878889">
        <ele>2206.8</ele>
        <time>2018-04-21T09:18:53.000Z</time>
      </trkpt>
      <trkpt lat="40.80543" lon="-3.878898">
        <ele>2206.9</ele>
        <time>2018-04-21T09:18:54.000Z</time>
      </trkpt>
      <trkpt lat="40.80543" lon="-3.878907">
        <ele>2206.9</ele>
        <time>2018-04-21T09:18:55.000Z</time>
      </trkpt>
      <trkpt lat="40.805431" lon="-3.878918">
        <ele>2207.1</ele>
        <time>2018-04-21T09:18:56.000Z</time>
      </trkpt>
      <trkpt lat="40.805433" lon="-3.87893">
        <ele>2207.2</ele>
        <time>2018-04-21T09:18:57.000Z</time>
      </trkpt>
      <trkpt lat="40.805435" lon="-3.878942">
        <ele>2207.3</ele>
        <time>2018-04-21T09:18:58.000Z</time>
      </trkpt>
      <trkpt lat="40.805437" lon="-3.878955">
        <ele>2207.4</ele>
        <time>2018-04-21T09:18:59.000Z</time>
      </trkpt>
      <trkpt lat="40.805438" lon="-3.878967">
        <ele>2207.5</ele>
        <time>2018-04-21T09:19:00.000Z</time>
      </trkpt>
      <trkpt lat="40.805438" lon="-3.878979">
        <ele>2207.6</ele>
        <time>2018-04-21T09:19:01.000Z</time>
      </trkpt>
      <trkpt lat="40.805437" lon="-3.878991">
        <ele>2207.7</ele>
        <time>2018-04-21T09:19:02.000Z</time>
      </trkpt>
      <trkpt lat="40.805436" lon="-3.879003">
        <ele>2207.9</ele>
        <time>2018-04-21T09:19:03.000Z</time>
      </trkpt>
      <trkpt lat="40.805434" lon="-3.879014">
        <ele>2208.0</ele>
        <time>2018-04-21T09:19:04.000Z</time>
      </trkpt>
      <trkpt lat="40.805433" lon="-3.879025">
        <ele>2208.1</ele>
        <time>2018-04-21T09:19:05.000Z</time>
      </trkpt>
      <trkpt lat="40.805432" lon="-3.879035">
        <ele>2208.2</ele>
        <time>2018-04-21T09:19:06.000Z</time>
      </trkpt>
      <trkpt lat="40.805432" lon="-3.879046">
        <ele>2208.3</ele>
        <time>2018-04-21T09:19:07.000Z</time>
      </trkpt>
      <trkpt lat="40.805433" lon="-3.879055">
        <ele>2208.4</ele>
        <time>2018-04-21T09:19:08.000Z</time>
      </trkpt>
      <trkpt lat="40.805435" lon="-3.879065">
        <ele>2208.5</ele>
        <time>2018-04-21T09:19:09.000Z</time>
      </trkpt>
      <trkpt lat="40.805438" lon="-3.879074">
        <ele>2208.5</ele>
        <time>2018-04-21T09:19:10.000Z</time>
      </trkpt>
      <trkpt lat="40.805441" lon="-3.879081">
        <ele>2208.6</ele>
        <time>2018-04-21T09:19:11.000Z</time>
      </trkpt>
      <trkpt lat="40.805444" lon="-3.879088">
        <ele>2208.6</ele>
        <time>2018-04-21T09:19:12.000Z</time>
      </trkpt>
      <trkpt lat="40.805445" lon="-3.879092">
        <ele>2208.7</ele>
        <time>2018-04-21T09:19:13.000Z</time>
      </trkpt>
      <trkpt lat="40.805446" lon="-3.879094">
        <ele>2208.7</ele>
        <time>2018-04-21T09:19:14.000Z</time>
      </trkpt>
      <trkpt lat="40.805445" lon="-3.879094">
        <ele>2208.7</ele>
        <time>2018-04-21T09:19:15.000Z</time>
      </trkpt>
      <trkpt lat="40.805444" lon="-3.879094">
        <ele>2208.7</ele>
        <time>2018-04-21T09:19:16.000Z</time>
      </trkpt>
      <trkpt lat="40.805444" lon="-3.879092">
        <ele>2208.7</ele>
        <time>2018-04-21T09:19:17.000Z</time>
      </trkpt>
      <trkpt lat="40.805443" lon="-3.879091">
        <ele>2208.7</ele>
        <time>2018-04-21T09:19:18.000Z</time>
      </trkpt>
      <trkpt lat="40.805443" lon="-3.87909">
        <ele>2208.7</ele>
        <time>2018-04-21T09:19:19.000Z</time>
      </trkpt>
      <trkpt lat="40.805443" lon="-3.879091">
        <ele>2208.7</ele>
        <time>2018-04-21T09:19:20.000Z</time>
      </trkpt>
      <trkpt lat="40.805443" lon="-3.879093">
        <ele>2208.7</ele>
        <time>2018-04-21T09:19:21.000Z</time>
      </trkpt>
      <trkpt lat="40.805442" lon="-3.879097">
        <ele>2208.7</ele>
        <time>2018-04-21T09:19:22.000Z</time>
      </trkpt>
      <trkpt lat="40.805442" lon="-3.879104">
        <ele>2208.8</ele>
        <time>2018-04-21T09:19:23.000Z</time>
      </trkpt>
      <trkpt lat="40.805442" lon="-3.879113">
        <ele>2208.9</ele>
        <time>2018-04-21T09:19:24.000Z</time>
      </trkpt>
      <trkpt lat="40.805441" lon="-3.879124">
        <ele>2209.0</ele>
        <time>2018-04-21T09:19:25.000Z</time>
      </trkpt>
      <trkpt lat="40.80544" lon="-3.879135">
        <ele>2209.1</ele>
        <time>2018-04-21T09:19:26.000Z</time>
      </trkpt>
      <trkpt lat="40.805439" lon="-3.879146">
        <ele>2209.2</ele>
        <time>2018-04-21T09:19:27.000Z</time>
      </trkpt>
      <trkpt lat="40.805438" lon="-3.879156">
        <ele>2209.3</ele>
        <time>2018-04-21T09:19:28.000Z</time>
      </trkpt>
      <trkpt lat="40.805437" lon="-3.879167">
        <ele>2209.4</ele>
        <time>2018-04-21T09:19:29.000Z</time>
      </trkpt>
      <trkpt lat="40.805437" lon="-3.879178">
        <ele>2209.5</ele>
        <time>2018-04-21T09:19:30.000Z</time>
      </trkpt>
      <trkpt lat="40.805436" lon="-3.879188">
        <ele>2209.5</ele>
        <time>2018-04-21T09:19:31.000Z</time>
      </trkpt>
      <trkpt lat="40.805436" lon="-3.879198">
        <ele>2209.6</ele>
        <time>2018-04-21T09:19:32.000Z</time>
      </trkpt>
      <trkpt lat="40.805436" lon="-3.879209">
        <ele>2209.6</ele>
        <time>2018-04-21T09:19:33.000Z</time>
      </trkpt>
      <trkpt lat="40.805437" lon="-3.87922">
        <ele>2209.7</ele>
        <time>2018-04-21T09:19:34.000Z</time>
      </trkpt>
      <trkpt lat="40.805438" lon="-3.87923">
        <ele>2209.7</ele>
        <time>2018-04-21T09:19:35.000Z</time>
      </trkpt>
      <trkpt lat="40.805441" lon="-3.879241">
        <ele>2209.7</ele>
        <time>2018-04-21T09:19:36.000Z</time>
      </trkpt>
      <trkpt lat="40.805443" lon="-3.879252">
        <ele>2209.8</ele>
        <time>2018-04-21T09:19:37.000Z</time>
      </trkpt>
      <trkpt lat="40.805446" lon="-3.879263">
        <ele>2209.8</ele>
        <time>2018-04-21T09:19:38.000Z</time>
      </trkpt>
      <trkpt lat="40.805448" lon="-3.879273">
        <ele>2209.9</ele>
        <time>2018-04-21T09:19:39.000Z</time>
      </trkpt>
      <trkpt lat="40.805449" lon="-3.879283">
        <ele>2209.9</ele>
        <time>2018-04-21T09:19:40.000Z</time>
      </trkpt>
      <trkpt lat="40.805448" lon="-3.879292">
        <ele>2209.9</ele>
        <time>2018-04-21T09:19:41.000Z</time>
      </trkpt>
      <trkpt lat="40.805448" lon="-3.879301">
        <ele>2210.0</ele>
        <time>2018-04-21T09:19:42.000Z</time>
      </trkpt>
      <trkpt lat="40.805447" lon="-3.87931">
        <ele>2210.0</ele>
        <time>2018-04-21T09:19:43.000Z</time>
      </trkpt>
      <trkpt lat="40.805447" lon="-3.879318">
        <ele>2210.1</ele>
        <time>2018-04-21T09:19:44.000Z</time>
      </trkpt>
      <trkpt lat="40.805447" lon="-3.879326">
        <ele>2210.1</ele>
        <time>2018-04-21T09:19:45.000Z</time>
      </trkpt>
      <trkpt lat="40.80545" lon="-3.879334">
        <ele>2210.1</ele>
        <time>2018-04-21T09:19:46.000Z</time>
      </trkpt>
      <trkpt lat="40.805452" lon="-3.879341">
        <ele>2210.1</ele>
        <time>2018-04-21T09:19:47.000Z</time>
      </trkpt>
      <trkpt lat="40.805456" lon="-3.879349">
        <ele>2210.2</ele>
        <time>2018-04-21T09:19:48.000Z</time>
      </trkpt>
      <trkpt lat="40.805459" lon="-3.879357">
        <ele>2210.2</ele>
        <time>2018-04-21T09:19:49.000Z</time>
      </trkpt>
      <trkpt lat="40.805463" lon="-3.879365">
        <ele>2210.2</ele>
        <time>2018-04-21T09:19:50.000Z</time>
      </trkpt>
      <trkpt lat="40.805466" lon="-3.879373">
        <ele>2210.3</ele>
        <time>2018-04-21T09:19:51.000Z</time>
      </trkpt>
      <trkpt lat="40.805469" lon="-3.879382">
        <ele>2210.3</ele>
        <time>2018-04-21T09:19:52.000Z</time>
      </trkpt>
      <trkpt lat="40.805471" lon="-3.879391">
        <ele>2210.3</ele>
        <time>2018-04-21T09:19:53.000Z</time>
      </trkpt>
      <trkpt lat="40.805472" lon="-3.879401">
        <ele>2210.4</ele>
        <time>2018-04-21T09:19:54.000Z</time>
      </trkpt>
      <trkpt lat="40.805472" lon="-3.879411">
        <ele>2210.4</ele>
        <time>2018-04-21T09:19:55.000Z</time>
      </trkpt>
      <trkpt lat="40.805471" lon="-3.879421">
        <ele>2210.5</ele>
        <time>2018-04-21T09:19:56.000Z</time>
      </trkpt>
      <trkpt lat="40.80547" lon="-3.879432">
        <ele>2210.5</ele>
        <time>2018-04-21T09:19:57.000Z</time>
      </trkpt>
      <trkpt lat="40.805469" lon="-3.879444">
        <ele>2210.6</ele>
        <time>2018-04-21T09:19:58.000Z</time>
      </trkpt>
      <trkpt lat="40.805467" lon="-3.879455">
        <ele>2210.6</ele>
        <time>2018-04-21T09:19:59.000Z</time>
      </trkpt>
      <trkpt lat="40.805465" lon="-3.879467">
        <ele>2210.7</ele>
        <time>2018-04-21T09:20:00.000Z</time>
      </trkpt>
      <trkpt lat="40.805464" lon="-3.879479">
        <ele>2210.7</ele>
        <time>2018-04-21T09:20:01.000Z</time>
      </trkpt>
      <trkpt lat="40.805463" lon="-3.879491">
        <ele>2210.8</ele>
        <time>2018-04-21T09:20:02.000Z</time>
      </trkpt>
      <trkpt lat="40.805462" lon="-3.879503">
        <ele>2210.9</ele>
        <time>2018-04-21T09:20:03.000Z</time>
      </trkpt>
      <trkpt lat="40.805462" lon="-3.879515">
        <ele>2210.9</ele>
        <time>2018-04-21T09:20:04.000Z</time>
      </trkpt>
      <trkpt lat="40.805462" lon="-3.879527">
        <ele>2211.0</ele>
        <time>2018-04-21T09:20:05.000Z</time>
      </trkpt>
      <trkpt lat="40.805463" lon="-3.879539">
        <ele>2211.0</ele>
        <time>2018-04-21T09:20:06.000Z</time>
      </trkpt>
      <trkpt lat="40.805464" lon="-3.879551">
        <ele>2211.1</ele>
        <time>2018-04-21T09:20:07.000Z</time>
      </trkpt>
      <trkpt lat="40.805465" lon="-3.879563">
        <ele>2211.1</ele>
        <time>2018-04-21T09:20:08.000Z</time>
      </trkpt>
      <trkpt lat="40.805467" lon="-3.879575">
        <ele>2211.2</ele>
        <time>2018-04-21T09:20:09.000Z</time>
      </trkpt>
      <trkpt lat="40.805469" lon="-3.879587">
        <ele>2211.2</ele>
        <time>2018-04-21T09:20:10.000Z</time>
      </trkpt>
      <trkpt lat="40.805471" lon="-3.879599">
        <ele>2211.3</ele>
        <time>2018-04-21T09:20:11.000Z</time>
      </trkpt>
      <trkpt lat="40.805473" lon="-3.879611">
        <ele>2211.3</ele>
        <time>2018-04-21T09:20:12.000Z</time>
      </trkpt>
      <trkpt lat="40.805475" lon="-3.879623">
        <ele>2211.4</ele>
        <time>2018-04-21T09:20:13.000Z</time>
      </trkpt>
      <trkpt lat="40.805477" lon="-3.879635">
        <ele>2211.5</ele>
        <time>2018-04-21T09:20:14.000Z</time>
      </trkpt>
      <trkpt lat="40.805479" lon="-3.879646">
        <ele>2211.5</ele>
        <time>2018-04-21T09:20:15.000Z</time>
      </trkpt>
      <trkpt lat="40.805481" lon="-3.879658">
        <ele>2211.6</ele>
        <time>2018-04-21T09:20:16.000Z</time>
      </trkpt>
      <trkpt lat="40.805483" lon="-3.879669">
        <ele>2211.6</ele>
        <time>2018-04-21T09:20:17.000Z</time>
      </trkpt>
      <trkpt lat="40.805484" lon="-3.87968">
        <ele>2211.7</ele>
        <time>2018-04-21T09:20:18.000Z</time>
      </trkpt>
      <trkpt lat="40.805485" lon="-3.879691">
        <ele>2211.7</ele>
        <time>2018-04-21T09:20:19.000Z</time>
      </trkpt>
      <trkpt lat="40.805486" lon="-3.879702">
        <ele>2211.8</ele>
        <time>2018-04-21T09:20:20.000Z</time>
      </trkpt>
      <trkpt lat="40.805487" lon="-3.879712">
        <ele>2211.8</ele>
        <time>2018-04-21T09:20:21.000Z</time>
      </trkpt>
      <trkpt lat="40.805487" lon="-3.879723">
        <ele>2211.9</ele>
        <time>2018-04-21T09:20:22.000Z</time>
      </trkpt>
      <trkpt lat="40.805488" lon="-3.879733">
        <ele>2211.9</ele>
        <time>2018-04-21T09:20:23.000Z</time>
      </trkpt>
      <trkpt lat="40.805488" lon="-3.879743">
        <ele>2212.0</ele>
        <time>2018-04-21T09:20:24.000Z</time>
      </trkpt>
      <trkpt lat="40.805488" lon="-3.879753">
        <ele>2212.0</ele>
        <time>2018-04-21T09:20:25.000Z</time>
      </trkpt>
      <trkpt lat="40.805488" lon="-3.879763">
        <ele>2212.1</ele>
        <time>2018-04-21T09:20:26.000Z</time>
      </trkpt>
      <trkpt lat="40.805488" lon="-3.879773">
        <ele>2212.1</ele>
        <time>2018-04-21T09:20:27.000Z</time>
      </trkpt>
      <trkpt lat="40.805489" lon="-3.879784">
        <ele>2212.2</ele>
        <time>2018-04-21T09:20:28.000Z</time>
      </trkpt>
      <trkpt lat="40.805491" lon="-3.879794">
        <ele>2212.2</ele>
        <time>2018-04-21T09:20:29.000Z</time>
      </trkpt>
      <trkpt lat="40.805492" lon="-3.879805">
        <ele>2212.3</ele>
        <time>2018-04-21T09:20:30.000Z</time>
      </trkpt>
      <trkpt lat="40.805494" lon="-3.879816">
        <ele>2212.3</ele>
        <time>2018-04-21T09:20:31.000Z</time>
      </trkpt>
      <trkpt lat="40.805497" lon="-3.879827">
        <ele>2212.4</ele>
        <time>2018-04-21T09:20:32.000Z</time>
      </trkpt>
      <trkpt lat="40.805499" lon="-3.879838">
        <ele>2212.4</ele>
        <time>2018-04-21T09:20:33.000Z</time>
      </trkpt>
      <trkpt lat="40.805502" lon="-3.879849">
        <ele>2212.5</ele>
        <time>2018-04-21T09:20:34.000Z</time>
      </trkpt>
      <trkpt lat="40.805505" lon="-3.879861">
        <ele>2212.5</ele>
        <time>2018-04-21T09:20:35.000Z</time>
      </trkpt>
      <trkpt lat="40.805507" lon="-3.879872">
        <ele>2212.6</ele>
        <time>2018-04-21T09:20:36.000Z</time>
      </trkpt>
      <trkpt lat="40.805509" lon="-3.879883">
        <ele>2212.7</ele>
        <time>2018-04-21T09:20:37.000Z</time>
      </trkpt>
      <trkpt lat="40.805511" lon="-3.879894">
        <ele>2212.7</ele>
        <time>2018-04-21T09:20:38.000Z</time>
      </trkpt>
      <trkpt lat="40.805513" lon="-3.879905">
        <ele>2212.8</ele>
        <time>2018-04-21T09:20:39.000Z</time>
      </trkpt>
      <trkpt lat="40.805513" lon="-3.879916">
        <ele>2212.8</ele>
        <time>2018-04-21T09:20:40.000Z</time>
      </trkpt>
      <trkpt lat="40.805514" lon="-3.879927">
        <ele>2212.9</ele>
        <time>2018-04-21T09:20:41.000Z</time>
      </trkpt>
      <trkpt lat="40.805515" lon="-3.879938">
        <ele>2212.9</ele>
        <time>2018-04-21T09:20:42.000Z</time>
      </trkpt>
      <trkpt lat="40.805516" lon="-3.879949">
        <ele>2213.0</ele>
        <time>2018-04-21T09:20:43.000Z</time>
      </trkpt>
      <trkpt lat="40.805516" lon="-3.879961">
        <ele>2213.0</ele>
        <time>2018-04-21T09:20:44.000Z</time>
      </trkpt>
      <trkpt lat="40.805518" lon="-3.879972">
        <ele>2213.1</ele>
        <time>2018-04-21T09:20:45.000Z</time>
      </trkpt>
      <trkpt lat="40.805519" lon="-3.879983">
        <ele>2213.2</ele>
        <time>2018-04-21T09:20:46.000Z</time>
      </trkpt>
      <trkpt lat="40.805522" lon="-3.879995">
        <ele>2213.2</ele>
        <time>2018-04-21T09:20:47.000Z</time>
      </trkpt>
      <trkpt lat="40.805524" lon="-3.880007">
        <ele>2213.3</ele>
        <time>2018-04-21T09:20:48.000Z</time>
      </trkpt>
      <trkpt lat="40.805528" lon="-3.880019">
        <ele>2213.3</ele>
        <time>2018-04-21T09:20:49.000Z</time>
      </trkpt>
      <trkpt lat="40.805533" lon="-3.880031">
        <ele>2213.4</ele>
        <time>2018-04-21T09:20:50.000Z</time>
      </trkpt>
      <trkpt lat="40.805537" lon="-3.880043">
        <ele>2213.4</ele>
        <time>2018-04-21T09:20:51.000Z</time>
      </trkpt>
      <trkpt lat="40.805542" lon="-3.880055">
        <ele>2213.5</ele>
        <time>2018-04-21T09:20:52.000Z</time>
      </trkpt>
      <trkpt lat="40.805547" lon="-3.880065">
        <ele>2213.5</ele>
        <time>2018-04-21T09:20:53.000Z</time>
      </trkpt>
      <trkpt lat="40.805552" lon="-3.880075">
        <ele>2213.6</ele>
        <time>2018-04-21T09:20:54.000Z</time>
      </trkpt>
      <trkpt lat="40.805556" lon="-3.880084">
        <ele>2213.6</ele>
        <time>2018-04-21T09:20:55.000Z</time>
      </trkpt>
      <trkpt lat="40.805559" lon="-3.880092">
        <ele>2213.6</ele>
        <time>2018-04-21T09:20:56.000Z</time>
      </trkpt>
      <trkpt lat="40.805561" lon="-3.880097">
        <ele>2213.7</ele>
        <time>2018-04-21T09:20:57.000Z</time>
      </trkpt>
      <trkpt lat="40.805562" lon="-3.880102">
        <ele>2213.7</ele>
        <time>2018-04-21T09:20:58.000Z</time>
      </trkpt>
      <trkpt lat="40.805563" lon="-3.880105">
        <ele>2213.7</ele>
        <time>2018-04-21T09:20:59.000Z</time>
      </trkpt>
      <trkpt lat="40.805564" lon="-3.880108">
        <ele>2213.7</ele>
        <time>2018-04-21T09:21:00.000Z</time>
      </trkpt>
      <trkpt lat="40.805565" lon="-3.880113">
        <ele>2213.7</ele>
        <time>2018-04-21T09:21:01.000Z</time>
      </trkpt>
      <trkpt lat="40.805569" lon="-3.88012">
        <ele>2213.8</ele>
        <time>2018-04-21T09:21:02.000Z</time>
      </trkpt>
      <trkpt lat="40.805574" lon="-3.88013">
        <ele>2213.8</ele>
        <time>2018-04-21T09:21:03.000Z</time>
      </trkpt>
      <trkpt lat="40.80558" lon="-3.88014">
        <ele>2213.9</ele>
        <time>2018-04-21T09:21:04.000Z</time>
      </trkpt>
      <trkpt lat="40.805586" lon="-3.880151">
        <ele>2213.9</ele>
        <time>2018-04-21T09:21:05.000Z</time>
      </trkpt>
      <trkpt lat="40.80559" lon="-3.880158">
        <ele>2214.0</ele>
        <time>2018-04-21T09:21:06.000Z</time>
      </trkpt>
      <trkpt lat="40.805591" lon="-3.880161">
        <ele>2214.0</ele>
        <time>2018-04-21T09:21:07.000Z</time>
      </trkpt>
      <trkpt lat="40.80559" lon="-3.880162">
        <ele>2214.0</ele>
        <time>2018-04-21T09:21:08.000Z</time>
      </trkpt>
      <trkpt lat="40.80559" lon="-3.880162">
        <ele>2214.0</ele>
        <time>2018-04-21T09:21:09.000Z</time>
      </trkpt>
      <trkpt lat="40.805593" lon="-3.880182">
        <ele>2214.0</ele>
        <time>2018-04-21T09:21:10.000Z</time>
      </trkpt>
      <trkpt lat="40.805601" lon="-3.880482">
        <ele>2215.1</ele>
        <time>2018-04-21T09:21:11.000Z</time>
      </trkpt>
      <trkpt lat="40.805618" lon="-3.881331">
        <ele>2218.2</ele>
        <time>2018-04-21T09:22:59.000Z</time>
      </trkpt>
      <trkpt lat="40.805623" lon="-3.881346">
        <ele>2218.3</ele>
        <time>2018-04-21T09:23:00.000Z</time>
      </trkpt>
      <trkpt lat="40.805627" lon="-3.881358">
        <ele>2218.4</ele>
        <time>2018-04-21T09:23:01.000Z</time>
      </trkpt>
      <trkpt lat="40.805633" lon="-3.881384">
        <ele>2218.6</ele>
        <time>2018-04-21T09:23:02.000Z</time>
      </trkpt>
      <trkpt lat="40.805639" lon="-3.881395">
        <ele>2218.7</ele>
        <time>2018-04-21T09:23:03.000Z</time>
      </trkpt>
      <trkpt lat="40.805643" lon="-3.881408">
        <ele>2218.8</ele>
        <time>2018-04-21T09:23:04.000Z</time>
      </trkpt>
      <trkpt lat="40.805648" lon="-3.881422">
        <ele>2218.9</ele>
        <time>2018-04-21T09:23:05.000Z</time>
      </trkpt>
      <trkpt lat="40.805652" lon="-3.881437">
        <ele>2219.0</ele>
        <time>2018-04-21T09:23:06.000Z</time>
      </trkpt>
      <trkpt lat="40.805656" lon="-3.881453">
        <ele>2219.1</ele>
        <time>2018-04-21T09:23:07.000Z</time>
      </trkpt>
      <trkpt lat="40.805659" lon="-3.88147">
        <ele>2219.2</ele>
        <time>2018-04-21T09:23:08.000Z</time>
      </trkpt>
      <trkpt lat="40.805663" lon="-3.881486">
        <ele>2219.3</ele>
        <time>2018-04-21T09:23:09.000Z</time>
      </trkpt>
      <trkpt lat="40.805667" lon="-3.881503">
        <ele>2219.4</ele>
        <time>2018-04-21T09:23:10.000Z</time>
      </trkpt>
      <trkpt lat="40.805671" lon="-3.88152">
        <ele>2219.5</ele>
        <time>2018-04-21T09:23:11.000Z</time>
      </trkpt>
      <trkpt lat="40.805675" lon="-3.881536">
        <ele>2219.6</ele>
        <time>2018-04-21T09:23:12.000Z</time>
      </trkpt>
      <trkpt lat="40.80568" lon="-3.881552">
        <ele>2219.7</ele>
        <time>2018-04-21T09:23:13.000Z</time>
      </trkpt>
      <trkpt lat="40.805685" lon="-3.881568">
        <ele>2219.8</ele>
        <time>2018-04-21T09:23:14.000Z</time>
      </trkpt>
      <trkpt lat="40.80569" lon="-3.881583">
        <ele>2219.9</ele>
        <time>2018-04-21T09:23:15.000Z</time>
      </trkpt>
      <trkpt lat="40.805696" lon="-3.881598">
        <ele>2220.1</ele>
        <time>2018-04-21T09:23:16.000Z</time>
      </trkpt>
      <trkpt lat="40.805701" lon="-3.881613">
        <ele>2220.2</ele>
        <time>2018-04-21T09:23:17.000Z</time>
      </trkpt>
      <trkpt lat="40.805706" lon="-3.881628">
        <ele>2220.3</ele>
        <time>2018-04-21T09:23:18.000Z</time>
      </trkpt>
      <trkpt lat="40.805712" lon="-3.881642">
        <ele>2220.4</ele>
        <time>2018-04-21T09:23:19.000Z</time>
      </trkpt>
      <trkpt lat="40.805717" lon="-3.881656">
        <ele>2220.6</ele>
        <time>2018-04-21T09:23:20.000Z</time>
      </trkpt>
      <trkpt lat="40.805722" lon="-3.88167">
        <ele>2220.7</ele>
        <time>2018-04-21T09:23:21.000Z</time>
      </trkpt>
      <trkpt lat="40.805726" lon="-3.881684">
        <ele>2220.8</ele>
        <time>2018-04-21T09:23:22.000Z</time>
      </trkpt>
      <trkpt lat="40.80573" lon="-3.881698">
        <ele>2221.0</ele>
        <time>2018-04-21T09:23:23.000Z</time>
      </trkpt>
      <trkpt lat="40.805735" lon="-3.881712">
        <ele>2221.1</ele>
        <time>2018-04-21T09:23:24.000Z</time>
      </trkpt>
      <trkpt lat="40.805739" lon="-3.881725">
        <ele>2221.3</ele>
        <time>2018-04-21T09:23:25.000Z</time>
      </trkpt>
      <trkpt lat="40.805743" lon="-3.881739">
        <ele>2221.4</ele>
        <time>2018-04-21T09:23:26.000Z</time>
      </trkpt>
      <trkpt lat="40.805747" lon="-3.881753">
        <ele>2221.6</ele>
        <time>2018-04-21T09:23:27.000Z</time>
      </trkpt>
      <trkpt lat="40.80575" lon="-3.881766">
        <ele>2221.7</ele>
        <time>2018-04-21T09:23:28.000Z</time>
      </trkpt>
      <trkpt lat="40.805754" lon="-3.88178">
        <ele>2221.9</ele>
        <time>2018-04-21T09:23:29.000Z</time>
      </trkpt>
      <trkpt lat="40.805758" lon="-3.881794">
        <ele>2222.1</ele>
        <time>2018-04-21T09:23:30.000Z</time>
      </trkpt>
      <trkpt lat="40.805762" lon="-3.881808">
        <ele>2222.2</ele>
        <time>2018-04-21T09:23:31.000Z</time>
      </trkpt>
      <trkpt lat="40.805766" lon="-3.881822">
        <ele>2222.4</ele>
        <time>2018-04-21T09:23:32.000Z</time>
      </trkpt>
      <trkpt lat="40.805769" lon="-3.881836">
        <ele>2222.5</ele>
        <time>2018-04-21T09:23:33.000Z</time>
      </trkpt>
      <trkpt lat="40.805774" lon="-3.881851">
        <ele>2222.7</ele>
        <time>2018-04-21T09:23:34.000Z</time>
      </trkpt>
      <trkpt lat="40.805778" lon="-3.881865">
        <ele>2222.9</ele>
        <time>2018-04-21T09:23:35.000Z</time>
      </trkpt>
      <trkpt lat="40.805782" lon="-3.88188">
        <ele>2223.0</ele>
        <time>2018-04-21T09:23:36.000Z</time>
      </trkpt>
      <trkpt lat="40.805787" lon="-3.881895">
        <ele>2223.2</ele>
        <time>2018-04-21T09:23:37.000Z</time>
      </trkpt>
      <trkpt lat="40.805792" lon="-3.881911">
        <ele>2223.4</ele>
        <time>2018-04-21T09:23:38.000Z</time>
      </trkpt>
      <trkpt lat="40.805797" lon="-3.881927">
        <ele>2223.6</ele>
        <time>2018-04-21T09:23:39.000Z</time>
      </trkpt>
      <trkpt lat="40.805802" lon="-3.881943">
        <ele>2223.8</ele>
        <time>2018-04-21T09:23:40.000Z</time>
      </trkpt>
      <trkpt lat="40.805808" lon="-3.881959">
        <ele>2224.1</ele>
        <time>2018-04-21T09:23:41.000Z</time>
      </trkpt>
      <trkpt lat="40.805814" lon="-3.881975">
        <ele>2224.3</ele>
        <time>2018-04-21T09:23:42.000Z</time>
      </trkpt>
      <trkpt lat="40.805819" lon="-3.88199">
        <ele>2224.5</ele>
        <time>2018-04-21T09:23:43.000Z</time>
      </trkpt>
      <trkpt lat="40.805825" lon="-3.882006">
        <ele>2224.7</ele>
        <time>2018-04-21T09:23:44.000Z</time>
      </trkpt>
      <trkpt lat="40.805831" lon="-3.88202">
        <ele>2224.9</ele>
        <time>2018-04-21T09:23:45.000Z</time>
      </trkpt>
      <trkpt lat="40.805837" lon="-3.882034">
        <ele>2225.0</ele>
        <time>2018-04-21T09:23:46.000Z</time>
      </trkpt>
      <trkpt lat="40.805842" lon="-3.882047">
        <ele>2225.1</ele>
        <time>2018-04-21T09:23:47.000Z</time>
      </trkpt>
      <trkpt lat="40.805848" lon="-3.882059">
        <ele>2225.1</ele>
        <time>2018-04-21T09:23:48.000Z</time>
      </trkpt>
      <trkpt lat="40.805853" lon="-3.88207">
        <ele>2225.1</ele>
        <time>2018-04-21T09:23:49.000Z</time>
      </trkpt>
      <trkpt lat="40.805859" lon="-3.88208">
        <ele>2225.1</ele>
        <time>2018-04-21T09:23:50.000Z</time>
      </trkpt>
      <trkpt lat="40.805864" lon="-3.88209">
        <ele>2225.1</ele>
        <time>2018-04-21T09:23:51.000Z</time>
      </trkpt>
      <trkpt lat="40.805869" lon="-3.8821">
        <ele>2225.1</ele>
        <time>2018-04-21T09:23:52.000Z</time>
      </trkpt>
      <trkpt lat="40.805874" lon="-3.88211">
        <ele>2225.1</ele>
        <time>2018-04-21T09:23:53.000Z</time>
      </trkpt>
      <trkpt lat="40.805879" lon="-3.88212">
        <ele>2225.1</ele>
        <time>2018-04-21T09:23:54.000Z</time>
      </trkpt>
      <trkpt lat="40.805884" lon="-3.88213">
        <ele>2225.1</ele>
        <time>2018-04-21T09:23:55.000Z</time>
      </trkpt>
      <trkpt lat="40.805889" lon="-3.882142">
        <ele>2225.2</ele>
        <time>2018-04-21T09:23:56.000Z</time>
      </trkpt>
      <trkpt lat="40.805894" lon="-3.882154">
        <ele>2225.2</ele>
        <time>2018-04-21T09:23:57.000Z</time>
      </trkpt>
      <trkpt lat="40.805899" lon="-3.882167">
        <ele>2225.2</ele>
        <time>2018-04-21T09:23:58.000Z</time>
      </trkpt>
      <trkpt lat="40.805904" lon="-3.882181">
        <ele>2225.3</ele>
        <time>2018-04-21T09:23:59.000Z</time>
      </trkpt>
      <trkpt lat="40.805909" lon="-3.882196">
        <ele>2225.3</ele>
        <time>2018-04-21T09:24:00.000Z</time>
      </trkpt>
      <trkpt lat="40.805914" lon="-3.88221">
        <ele>2225.4</ele>
        <time>2018-04-21T09:24:01.000Z</time>
      </trkpt>
      <trkpt lat="40.805918" lon="-3.882225">
        <ele>2225.5</ele>
        <time>2018-04-21T09:24:02.000Z</time>
      </trkpt>
      <trkpt lat="40.805923" lon="-3.88224">
        <ele>2225.5</ele>
        <time>2018-04-21T09:24:03.000Z</time>
      </trkpt>
      <trkpt lat="40.805927" lon="-3.882254">
        <ele>2225.6</ele>
        <time>2018-04-21T09:24:04.000Z</time>
      </trkpt>
      <trkpt lat="40.80593" lon="-3.882268">
        <ele>2225.7</ele>
        <time>2018-04-21T09:24:05.000Z</time>
      </trkpt>
      <trkpt lat="40.805933" lon="-3.882282">
        <ele>2225.8</ele>
        <time>2018-04-21T09:24:06.000Z</time>
      </trkpt>
      <trkpt lat="40.805936" lon="-3.882295">
        <ele>2225.8</ele>
        <time>2018-04-21T09:24:07.000Z</time>
      </trkpt>
      <trkpt lat="40.805939" lon="-3.882308">
        <ele>2225.9</ele>
        <time>2018-04-21T09:24:08.000Z</time>
      </trkpt>
      <trkpt lat="40.805942" lon="-3.88232">
        <ele>2226.0</ele>
        <time>2018-04-21T09:24:09.000Z</time>
      </trkpt>
      <trkpt lat="40.805945" lon="-3.882332">
        <ele>2226.0</ele>
        <time>2018-04-21T09:24:10.000Z</time>
      </trkpt>
      <trkpt lat="40.805947" lon="-3.882344">
        <ele>2226.1</ele>
        <time>2018-04-21T09:24:11.000Z</time>
      </trkpt>
      <trkpt lat="40.805951" lon="-3.882355">
        <ele>2226.2</ele>
        <time>2018-04-21T09:24:12.000Z</time>
      </trkpt>
      <trkpt lat="40.805954" lon="-3.882366">
        <ele>2226.2</ele>
        <time>2018-04-21T09:24:13.000Z</time>
      </trkpt>
      <trkpt lat="40.805958" lon="-3.882377">
        <ele>2226.3</ele>
        <time>2018-04-21T09:24:14.000Z</time>
      </trkpt>
      <trkpt lat="40.805963" lon="-3.882387">
        <ele>2226.3</ele>
        <time>2018-04-21T09:24:15.000Z</time>
      </trkpt>
      <trkpt lat="40.805967" lon="-3.882398">
        <ele>2226.3</ele>
        <time>2018-04-21T09:24:16.000Z</time>
      </trkpt>
      <trkpt lat="40.805972" lon="-3.882408">
        <ele>2226.3</ele>
        <time>2018-04-21T09:24:17.000Z</time>
      </trkpt>
      <trkpt lat="40.805976" lon="-3.882418">
        <ele>2226.4</ele>
        <time>2018-04-21T09:24:18.000Z</time>
      </trkpt>
      <trkpt lat="40.805979" lon="-3.882429">
        <ele>2226.4</ele>
        <time>2018-04-21T09:24:19.000Z</time>
      </trkpt>
      <trkpt lat="40.805981" lon="-3.88244">
        <ele>2226.5</ele>
        <time>2018-04-21T09:24:20.000Z</time>
      </trkpt>
      <trkpt lat="40.805982" lon="-3.882451">
        <ele>2226.6</ele>
        <time>2018-04-21T09:24:21.000Z</time>
      </trkpt>
      <trkpt lat="40.805981" lon="-3.882461">
        <ele>2226.7</ele>
        <time>2018-04-21T09:24:22.000Z</time>
      </trkpt>
      <trkpt lat="40.80598" lon="-3.882472">
        <ele>2226.8</ele>
        <time>2018-04-21T09:24:23.000Z</time>
      </trkpt>
      <trkpt lat="40.805978" lon="-3.882483">
        <ele>2226.9</ele>
        <time>2018-04-21T09:24:24.000Z</time>
      </trkpt>
      <trkpt lat="40.805975" lon="-3.882493">
        <ele>2227.1</ele>
        <time>2018-04-21T09:24:25.000Z</time>
      </trkpt>
      <trkpt lat="40.805972" lon="-3.882503">
        <ele>2227.2</ele>
        <time>2018-04-21T09:24:26.000Z</time>
      </trkpt>
      <trkpt lat="40.805969" lon="-3.882513">
        <ele>2227.2</ele>
        <time>2018-04-21T09:24:27.000Z</time>
      </trkpt>
      <trkpt lat="40.805966" lon="-3.882523">
        <ele>2227.3</ele>
        <time>2018-04-21T09:24:28.000Z</time>
      </trkpt>
      <trkpt lat="40.805963" lon="-3.882533">
        <ele>2227.3</ele>
        <time>2018-04-21T09:24:29.000Z</time>
      </trkpt>
      <trkpt lat="40.80596" lon="-3.882544">
        <ele>2227.4</ele>
        <time>2018-04-21T09:24:30.000Z</time>
      </trkpt>
      <trkpt lat="40.805958" lon="-3.882555">
        <ele>2227.4</ele>
        <time>2018-04-21T09:24:31.000Z</time>
      </trkpt>
      <trkpt lat="40.805957" lon="-3.882567">
        <ele>2227.4</ele>
        <time>2018-04-21T09:24:32.000Z</time>
      </trkpt>
      <trkpt lat="40.805956" lon="-3.882579">
        <ele>2227.4</ele>
        <time>2018-04-21T09:24:33.000Z</time>
      </trkpt>
      <trkpt lat="40.805956" lon="-3.882591">
        <ele>2227.4</ele>
        <time>2018-04-21T09:24:34.000Z</time>
      </trkpt>
      <trkpt lat="40.805957" lon="-3.882604">
        <ele>2227.4</ele>
        <time>2018-04-21T09:24:35.000Z</time>
      </trkpt>
      <trkpt lat="40.805958" lon="-3.882617">
        <ele>2227.4</ele>
        <time>2018-04-21T09:24:36.000Z</time>
      </trkpt>
      <trkpt lat="40.80596" lon="-3.88263">
        <ele>2227.4</ele>
        <time>2018-04-21T09:24:37.000Z</time>
      </trkpt>
      <trkpt lat="40.805961" lon="-3.882642">
        <ele>2227.4</ele>
        <time>2018-04-21T09:24:38.000Z</time>
      </trkpt>
      <trkpt lat="40.805962" lon="-3.882655">
        <ele>2227.4</ele>
        <time>2018-04-21T09:24:39.000Z</time>
      </trkpt>
      <trkpt lat="40.805962" lon="-3.882666">
        <ele>2227.4</ele>
        <time>2018-04-21T09:24:40.000Z</time>
      </trkpt>
      <trkpt lat="40.805962" lon="-3.882678">
        <ele>2227.4</ele>
        <time>2018-04-21T09:24:41.000Z</time>
      </trkpt>
      <trkpt lat="40.805961" lon="-3.882688">
        <ele>2227.4</ele>
        <time>2018-04-21T09:24:42.000Z</time>
      </trkpt>
      <trkpt lat="40.805959" lon="-3.882698">
        <ele>2227.5</ele>
        <time>2018-04-21T09:24:43.000Z</time>
      </trkpt>
      <trkpt lat="40.805957" lon="-3.882706">
        <ele>2227.5</ele>
        <time>2018-04-21T09:24:44.000Z</time>
      </trkpt>
      <trkpt lat="40.805954" lon="-3.882714">
        <ele>2227.5</ele>
        <time>2018-04-21T09:24:45.000Z</time>
      </trkpt>
      <trkpt lat="40.805952" lon="-3.88272">
        <ele>2227.5</ele>
        <time>2018-04-21T09:24:46.000Z</time>
      </trkpt>
      <trkpt lat="40.805949" lon="-3.882725">
        <ele>2227.6</ele>
        <time>2018-04-21T09:24:47.000Z</time>
      </trkpt>
      <trkpt lat="40.805946" lon="-3.882728">
        <ele>2227.6</ele>
        <time>2018-04-21T09:24:48.000Z</time>
      </trkpt>
      <trkpt lat="40.805944" lon="-3.88273">
        <ele>2227.6</ele>
        <time>2018-04-21T09:24:49.000Z</time>
      </trkpt>
      <trkpt lat="40.805942" lon="-3.88273">
        <ele>2227.6</ele>
        <time>2018-04-21T09:24:50.000Z</time>
      </trkpt>
      <trkpt lat="40.805941" lon="-3.882729">
        <ele>2227.7</ele>
        <time>2018-04-21T09:24:51.000Z</time>
      </trkpt>
      <trkpt lat="40.805941" lon="-3.882726">
        <ele>2227.7</ele>
        <time>2018-04-21T09:24:52.000Z</time>
      </trkpt>
      <trkpt lat="40.80594" lon="-3.882724">
        <ele>2227.7</ele>
        <time>2018-04-21T09:24:53.000Z</time>
      </trkpt>
      <trkpt lat="40.80594" lon="-3.882724">
        <ele>2227.7</ele>
        <time>2018-04-21T09:24:54.000Z</time>
      </trkpt>
      <trkpt lat="40.805938" lon="-3.882725">
        <ele>2227.7</ele>
        <time>2018-04-21T09:24:55.000Z</time>
      </trkpt>
      <trkpt lat="40.805937" lon="-3.88273">
        <ele>2227.7</ele>
        <time>2018-04-21T09:24:56.000Z</time>
      </trkpt>
      <trkpt lat="40.805934" lon="-3.882737">
        <ele>2227.7</ele>
        <time>2018-04-21T09:24:57.000Z</time>
      </trkpt>
      <trkpt lat="40.805932" lon="-3.882744">
        <ele>2227.8</ele>
        <time>2018-04-21T09:24:58.000Z</time>
      </trkpt>
      <trkpt lat="40.80593" lon="-3.88275">
        <ele>2227.8</ele>
        <time>2018-04-21T09:24:59.000Z</time>
      </trkpt>
      <trkpt lat="40.805928" lon="-3.882753">
        <ele>2227.8</ele>
        <time>2018-04-21T09:25:00.000Z</time>
      </trkpt>
      <trkpt lat="40.805926" lon="-3.882754">
        <ele>2227.8</ele>
        <time>2018-04-21T09:25:01.000Z</time>
      </trkpt>
      <trkpt lat="40.805924" lon="-3.882755">
        <ele>2227.8</ele>
        <time>2018-04-21T09:25:02.000Z</time>
      </trkpt>
      <trkpt lat="40.805922" lon="-3.882757">
        <ele>2227.8</ele>
        <time>2018-04-21T09:25:03.000Z</time>
      </trkpt>
      <trkpt lat="40.80592" lon="-3.882762">
        <ele>2227.9</ele>
        <time>2018-04-21T09:25:04.000Z</time>
      </trkpt>
      <trkpt lat="40.805918" lon="-3.88277">
        <ele>2227.9</ele>
        <time>2018-04-21T09:25:05.000Z</time>
      </trkpt>
      <trkpt lat="40.805915" lon="-3.88278">
        <ele>2227.9</ele>
        <time>2018-04-21T09:25:06.000Z</time>
      </trkpt>
      <trkpt lat="40.805913" lon="-3.882791">
        <ele>2227.9</ele>
        <time>2018-04-21T09:25:07.000Z</time>
      </trkpt>
      <trkpt lat="40.805911" lon="-3.882802">
        <ele>2228.0</ele>
        <time>2018-04-21T09:25:08.000Z</time>
      </trkpt>
      <trkpt lat="40.805911" lon="-3.882811">
        <ele>2227.9</ele>
        <time>2018-04-21T09:25:09.000Z</time>
      </trkpt>
      <trkpt lat="40.805911" lon="-3.882817">
        <ele>2227.9</ele>
        <time>2018-04-21T09:25:10.000Z</time>
      </trkpt>
      <trkpt lat="40.805912" lon="-3.882823">
        <ele>2227.9</ele>
        <time>2018-04-21T09:25:11.000Z</time>
      </trkpt>
      <trkpt lat="40.805913" lon="-3.882827">
        <ele>2227.9</ele>
        <time>2018-04-21T09:25:12.000Z</time>
      </trkpt>
      <trkpt lat="40.805914" lon="-3.882831">
        <ele>2227.9</ele>
        <time>2018-04-21T09:25:13.000Z</time>
      </trkpt>
      <trkpt lat="40.805913" lon="-3.882834">
        <ele>2227.9</ele>
        <time>2018-04-21T09:25:14.000Z</time>
      </trkpt>
      <trkpt lat="40.805912" lon="-3.882837">
        <ele>2227.9</ele>
        <time>2018-04-21T09:25:15.000Z</time>
      </trkpt>
      <trkpt lat="40.80591" lon="-3.88284">
        <ele>2228.0</ele>
        <time>2018-04-21T09:25:16.000Z</time>
      </trkpt>
      <trkpt lat="40.805909" lon="-3.882842">
        <ele>2228.0</ele>
        <time>2018-04-21T09:25:17.000Z</time>
      </trkpt>
      <trkpt lat="40.805908" lon="-3.882843">
        <ele>2228.0</ele>
        <time>2018-04-21T09:25:18.000Z</time>
      </trkpt>
      <trkpt lat="40.805908" lon="-3.882843">
        <ele>2228.0</ele>
        <time>2018-04-21T09:25:19.000Z</time>
      </trkpt>
      <trkpt lat="40.805908" lon="-3.882843">
        <ele>2228.0</ele>
        <time>2018-04-21T09:25:20.000Z</time>
      </trkpt>
      <trkpt lat="40.805908" lon="-3.882842">
        <ele>2228.0</ele>
        <time>2018-04-21T09:25:21.000Z</time>
      </trkpt>
      <trkpt lat="40.805908" lon="-3.882842">
        <ele>2228.0</ele>
        <time>2018-04-21T09:25:22.000Z</time>
      </trkpt>
      <trkpt lat="40.805908" lon="-3.882842">
        <ele>2228.0</ele>
        <time>2018-04-21T09:25:23.000Z</time>
      </trkpt>
      <trkpt lat="40.805907" lon="-3.882843">
        <ele>2228.0</ele>
        <time>2018-04-21T09:25:24.000Z</time>
      </trkpt>
      <trkpt lat="40.805906" lon="-3.882844">
        <ele>2228.0</ele>
        <time>2018-04-21T09:25:25.000Z</time>
      </trkpt>
      <trkpt lat="40.805904" lon="-3.882846">
        <ele>2228.0</ele>
        <time>2018-04-21T09:25:26.000Z</time>
      </trkpt>
      <trkpt lat="40.805901" lon="-3.88285">
        <ele>2228.0</ele>
        <time>2018-04-21T09:25:27.000Z</time>
      </trkpt>
      <trkpt lat="40.805897" lon="-3.882854">
        <ele>2228.1</ele>
        <time>2018-04-21T09:25:28.000Z</time>
      </trkpt>
      <trkpt lat="40.805892" lon="-3.88286">
        <ele>2228.1</ele>
        <time>2018-04-21T09:25:29.000Z</time>
      </trkpt>
      <trkpt lat="40.805887" lon="-3.882867">
        <ele>2228.1</ele>
        <time>2018-04-21T09:25:30.000Z</time>
      </trkpt>
      <trkpt lat="40.805882" lon="-3.882874">
        <ele>2228.2</ele>
        <time>2018-04-21T09:25:31.000Z</time>
      </trkpt>
      <trkpt lat="40.805877" lon="-3.882882">
        <ele>2228.2</ele>
        <time>2018-04-21T09:25:32.000Z</time>
      </trkpt>
      <trkpt lat="40.805872" lon="-3.882891">
        <ele>2228.2</ele>
        <time>2018-04-21T09:25:33.000Z</time>
      </trkpt>
      <trkpt lat="40.805867" lon="-3.8829">
        <ele>2228.3</ele>
        <time>2018-04-21T09:25:34.000Z</time>
      </trkpt>
      <trkpt lat="40.805863" lon="-3.88291">
        <ele>2228.3</ele>
        <time>2018-04-21T09:25:35.000Z</time>
      </trkpt>
      <trkpt lat="40.805859" lon="-3.882919">
        <ele>2228.3</ele>
        <time>2018-04-21T09:25:36.000Z</time>
      </trkpt>
      <trkpt lat="40.805857" lon="-3.882929">
        <ele>2228.3</ele>
        <time>2018-04-21T09:25:37.000Z</time>
      </trkpt>
      <trkpt lat="40.805855" lon="-3.882938">
        <ele>2228.3</ele>
        <time>2018-04-21T09:25:38.000Z</time>
      </trkpt>
      <trkpt lat="40.805854" lon="-3.882948">
        <ele>2228.3</ele>
        <time>2018-04-21T09:25:39.000Z</time>
      </trkpt>
      <trkpt lat="40.805854" lon="-3.882956">
        <ele>2228.3</ele>
        <time>2018-04-21T09:25:40.000Z</time>
      </trkpt>
      <trkpt lat="40.805855" lon="-3.882965">
        <ele>2228.3</ele>
        <time>2018-04-21T09:25:41.000Z</time>
      </trkpt>
      <trkpt lat="40.805857" lon="-3.882972">
        <ele>2228.3</ele>
        <time>2018-04-21T09:25:42.000Z</time>
      </trkpt>
      <trkpt lat="40.805859" lon="-3.882978">
        <ele>2228.3</ele>
        <time>2018-04-21T09:25:43.000Z</time>
      </trkpt>
      <trkpt lat="40.805861" lon="-3.882982">
        <ele>2228.2</ele>
        <time>2018-04-21T09:25:44.000Z</time>
      </trkpt>
      <trkpt lat="40.805863" lon="-3.882984">
        <ele>2228.2</ele>
        <time>2018-04-21T09:25:45.000Z</time>
      </trkpt>
      <trkpt lat="40.805865" lon="-3.882985">
        <ele>2228.2</ele>
        <time>2018-04-21T09:25:46.000Z</time>
      </trkpt>
      <trkpt lat="40.805867" lon="-3.882984">
        <ele>2228.2</ele>
        <time>2018-04-21T09:25:47.000Z</time>
      </trkpt>
      <trkpt lat="40.805868" lon="-3.882983">
        <ele>2228.2</ele>
        <time>2018-04-21T09:25:48.000Z</time>
      </trkpt>
      <trkpt lat="40.80587" lon="-3.882981">
        <ele>2228.2</ele>
        <time>2018-04-21T09:25:49.000Z</time>
      </trkpt>
      <trkpt lat="40.805871" lon="-3.88298">
        <ele>2228.2</ele>
        <time>2018-04-21T09:25:50.000Z</time>
      </trkpt>
      <trkpt lat="40.805873" lon="-3.882979">
        <ele>2228.2</ele>
        <time>2018-04-21T09:25:51.000Z</time>
      </trkpt>
      <trkpt lat="40.805875" lon="-3.882979">
        <ele>2228.2</ele>
        <time>2018-04-21T09:25:52.000Z</time>
      </trkpt>
      <trkpt lat="40.805879" lon="-3.882981">
        <ele>2228.1</ele>
        <time>2018-04-21T09:25:53.000Z</time>
      </trkpt>
      <trkpt lat="40.805884" lon="-3.882984">
        <ele>2228.1</ele>
        <time>2018-04-21T09:25:54.000Z</time>
      </trkpt>
      <trkpt lat="40.80589" lon="-3.882988">
        <ele>2228.1</ele>
        <time>2018-04-21T09:25:55.000Z</time>
      </trkpt>
      <trkpt lat="40.805898" lon="-3.882993">
        <ele>2228.0</ele>
        <time>2018-04-21T09:25:56.000Z</time>
      </trkpt>
      <trkpt lat="40.805907" lon="-3.882999">
        <ele>2228.0</ele>
        <time>2018-04-21T09:25:57.000Z</time>
      </trkpt>
      <trkpt lat="40.805916" lon="-3.883006">
        <ele>2227.9</ele>
        <time>2018-04-21T09:25:58.000Z</time>
      </trkpt>
      <trkpt lat="40.805927" lon="-3.883013">
        <ele>2227.8</ele>
        <time>2018-04-21T09:25:59.000Z</time>
      </trkpt>
      <trkpt lat="40.805937" lon="-3.88302">
        <ele>2227.8</ele>
        <time>2018-04-21T09:26:00.000Z</time>
      </trkpt>
      <trkpt lat="40.805948" lon="-3.883027">
        <ele>2227.7</ele>
        <time>2018-04-21T09:26:01.000Z</time>
      </trkpt>
      <trkpt lat="40.805958" lon="-3.883035">
        <ele>2227.7</ele>
        <time>2018-04-21T09:26:02.000Z</time>
      </trkpt>
      <trkpt lat="40.805969" lon="-3.883041">
        <ele>2227.6</ele>
        <time>2018-04-21T09:26:03.000Z</time>
      </trkpt>
      <trkpt lat="40.805979" lon="-3.883048">
        <ele>2227.6</ele>
        <time>2018-04-21T09:26:04.000Z</time>
      </trkpt>
      <trkpt lat="40.805989" lon="-3.883054">
        <ele>2227.5</ele>
        <time>2018-04-21T09:26:05.000Z</time>
      </trkpt>
      <trkpt lat="40.805998" lon="-3.88306">
        <ele>2227.5</ele>
        <time>2018-04-21T09:26:06.000Z</time>
      </trkpt>
      <trkpt lat="40.806008" lon="-3.883066">
        <ele>2227.4</ele>
        <time>2018-04-21T09:26:07.000Z</time>
      </trkpt>
      <trkpt lat="40.806018" lon="-3.883071">
        <ele>2227.4</ele>
        <time>2018-04-21T09:26:08.000Z</time>
      </trkpt>
      <trkpt lat="40.806028" lon="-3.883077">
        <ele>2227.4</ele>
        <time>2018-04-21T09:26:09.000Z</time>
      </trkpt>
      <trkpt lat="40.806038" lon="-3.883083">
        <ele>2227.3</ele>
        <time>2018-04-21T09:26:10.000Z</time>
      </trkpt>
      <trkpt lat="40.806047" lon="-3.883089">
        <ele>2227.3</ele>
        <time>2018-04-21T09:26:11.000Z</time>
      </trkpt>
      <trkpt lat="40.806058" lon="-3.883096">
        <ele>2227.2</ele>
        <time>2018-04-21T09:26:12.000Z</time>
      </trkpt>
      <trkpt lat="40.806068" lon="-3.883103">
        <ele>2227.2</ele>
        <time>2018-04-21T09:26:13.000Z</time>
      </trkpt>
      <trkpt lat="40.806078" lon="-3.88311">
        <ele>2227.2</ele>
        <time>2018-04-21T09:26:14.000Z</time>
      </trkpt>
      <trkpt lat="40.806089" lon="-3.883117">
        <ele>2227.2</ele>
        <time>2018-04-21T09:26:15.000Z</time>
      </trkpt>
      <trkpt lat="40.8061" lon="-3.883124">
        <ele>2227.1</ele>
        <time>2018-04-21T09:26:16.000Z</time>
      </trkpt>
      <trkpt lat="40.80611" lon="-3.883132">
        <ele>2227.1</ele>
        <time>2018-04-21T09:26:17.000Z</time>
      </trkpt>
      <trkpt lat="40.806121" lon="-3.883139">
        <ele>2227.1</ele>
        <time>2018-04-21T09:26:18.000Z</time>
      </trkpt>
      <trkpt lat="40.806131" lon="-3.883147">
        <ele>2227.1</ele>
        <time>2018-04-21T09:26:19.000Z</time>
      </trkpt>
      <trkpt lat="40.806142" lon="-3.883154">
        <ele>2227.0</ele>
        <time>2018-04-21T09:26:20.000Z</time>
      </trkpt>
      <trkpt lat="40.806152" lon="-3.883162">
        <ele>2227.0</ele>
        <time>2018-04-21T09:26:21.000Z</time>
      </trkpt>
      <trkpt lat="40.806162" lon="-3.883169">
        <ele>2227.0</ele>
        <time>2018-04-21T09:26:22.000Z</time>
      </trkpt>
      <trkpt lat="40.806172" lon="-3.883177">
        <ele>2227.0</ele>
        <time>2018-04-21T09:26:23.000Z</time>
      </trkpt>
      <trkpt lat="40.806181" lon="-3.883184">
        <ele>2227.0</ele>
        <time>2018-04-21T09:26:24.000Z</time>
      </trkpt>
      <trkpt lat="40.80619" lon="-3.883192">
        <ele>2227.0</ele>
        <time>2018-04-21T09:26:25.000Z</time>
      </trkpt>
      <trkpt lat="40.806199" lon="-3.8832">
        <ele>2227.0</ele>
        <time>2018-04-21T09:26:26.000Z</time>
      </trkpt>
      <trkpt lat="40.806207" lon="-3.883208">
        <ele>2227.0</ele>
        <time>2018-04-21T09:26:27.000Z</time>
      </trkpt>
      <trkpt lat="40.806214" lon="-3.883216">
        <ele>2227.0</ele>
        <time>2018-04-21T09:26:28.000Z</time>
      </trkpt>
      <trkpt lat="40.806221" lon="-3.883224">
        <ele>2227.1</ele>
        <time>2018-04-21T09:26:29.000Z</time>
      </trkpt>
      <trkpt lat="40.806227" lon="-3.883233">
        <ele>2227.1</ele>
        <time>2018-04-21T09:26:30.000Z</time>
      </trkpt>
      <trkpt lat="40.806233" lon="-3.883242">
        <ele>2227.1</ele>
        <time>2018-04-21T09:26:31.000Z</time>
      </trkpt>
      <trkpt lat="40.806238" lon="-3.883251">
        <ele>2227.1</ele>
        <time>2018-04-21T09:26:32.000Z</time>
      </trkpt>
      <trkpt lat="40.806242" lon="-3.883261">
        <ele>2227.2</ele>
        <time>2018-04-21T09:26:33.000Z</time>
      </trkpt>
      <trkpt lat="40.806246" lon="-3.88327">
        <ele>2227.2</ele>
        <time>2018-04-21T09:26:34.000Z</time>
      </trkpt>
      <trkpt lat="40.80625" lon="-3.883279">
        <ele>2227.2</ele>
        <time>2018-04-21T09:26:35.000Z</time>
      </trkpt>
      <trkpt lat="40.806254" lon="-3.883288">
        <ele>2227.3</ele>
        <time>2018-04-21T09:26:36.000Z</time>
      </trkpt>
      <trkpt lat="40.806258" lon="-3.883297">
        <ele>2227.3</ele>
        <time>2018-04-21T09:26:37.000Z</time>
      </trkpt>
      <trkpt lat="40.806262" lon="-3.883306">
        <ele>2227.3</ele>
        <time>2018-04-21T09:26:38.000Z</time>
      </trkpt>
      <trkpt lat="40.806266" lon="-3.883314">
        <ele>2227.4</ele>
        <time>2018-04-21T09:26:39.000Z</time>
      </trkpt>
      <trkpt lat="40.80627" lon="-3.883323">
        <ele>2227.4</ele>
        <time>2018-04-21T09:26:40.000Z</time>
      </trkpt>
      <trkpt lat="40.806274" lon="-3.883331">
        <ele>2227.5</ele>
        <time>2018-04-21T09:26:41.000Z</time>
      </trkpt>
      <trkpt lat="40.806279" lon="-3.883339">
        <ele>2227.4</ele>
        <time>2018-04-21T09:26:42.000Z</time>
      </trkpt>
      <trkpt lat="40.806283" lon="-3.883347">
        <ele>2227.3</ele>
        <time>2018-04-21T09:26:43.000Z</time>
      </trkpt>
      <trkpt lat="40.806287" lon="-3.883354">
        <ele>2227.2</ele>
        <time>2018-04-21T09:26:44.000Z</time>
      </trkpt>
      <trkpt lat="40.806292" lon="-3.883362">
        <ele>2227.1</ele>
        <time>2018-04-21T09:26:45.000Z</time>
      </trkpt>
      <trkpt lat="40.806296" lon="-3.88337">
        <ele>2227.0</ele>
        <time>2018-04-21T09:26:46.000Z</time>
      </trkpt>
      <trkpt lat="40.806301" lon="-3.883378">
        <ele>2226.9</ele>
        <time>2018-04-21T09:26:47.000Z</time>
      </trkpt>
      <trkpt lat="40.806305" lon="-3.883387">
        <ele>2226.8</ele>
        <time>2018-04-21T09:26:48.000Z</time>
      </trkpt>
      <trkpt lat="40.80631" lon="-3.883395">
        <ele>2226.7</ele>
        <time>2018-04-21T09:26:49.000Z</time>
      </trkpt>
      <trkpt lat="40.806317" lon="-3.883405">
        <ele>2226.6</ele>
        <time>2018-04-21T09:26:50.000Z</time>
      </trkpt>
      <trkpt lat="40.806326" lon="-3.883414">
        <ele>2226.5</ele>
        <time>2018-04-21T09:26:51.000Z</time>
      </trkpt>
      <trkpt lat="40.806335" lon="-3.883423">
        <ele>2226.4</ele>
        <time>2018-04-21T09:26:52.000Z</time>
      </trkpt>
      <trkpt lat="40.806341" lon="-3.883429">
        <ele>2226.4</ele>
        <time>2018-04-21T09:26:53.000Z</time>
      </trkpt>
      <trkpt lat="40.806344" lon="-3.883433">
        <ele>2226.3</ele>
        <time>2018-04-21T09:26:54.000Z</time>
      </trkpt>
      <trkpt lat="40.806346" lon="-3.883434">
        <ele>2226.3</ele>
        <time>2018-04-21T09:26:55.000Z</time>
      </trkpt>
      <trkpt lat="40.806347" lon="-3.883435">
        <ele>2226.3</ele>
        <time>2018-04-21T09:26:56.000Z</time>
      </trkpt>
      <trkpt lat="40.806347" lon="-3.883435">
        <ele>2226.3</ele>
        <time>2018-04-21T09:26:57.000Z</time>
      </trkpt>
      <trkpt lat="40.806348" lon="-3.883435">
        <ele>2226.3</ele>
        <time>2018-04-21T09:26:58.000Z</time>
      </trkpt>
      <trkpt lat="40.806349" lon="-3.883436">
        <ele>2226.3</ele>
        <time>2018-04-21T09:26:59.000Z</time>
      </trkpt>
      <trkpt lat="40.80635" lon="-3.883437">
        <ele>2226.3</ele>
        <time>2018-04-21T09:27:00.000Z</time>
      </trkpt>
      <trkpt lat="40.806353" lon="-3.88344">
        <ele>2226.3</ele>
        <time>2018-04-21T09:27:01.000Z</time>
      </trkpt>
      <trkpt lat="40.806356" lon="-3.883445">
        <ele>2226.2</ele>
        <time>2018-04-21T09:27:02.000Z</time>
      </trkpt>
      <trkpt lat="40.806361" lon="-3.883451">
        <ele>2226.2</ele>
        <time>2018-04-21T09:27:03.000Z</time>
      </trkpt>
      <trkpt lat="40.806366" lon="-3.883458">
        <ele>2226.1</ele>
        <time>2018-04-21T09:27:04.000Z</time>
      </trkpt>
      <trkpt lat="40.806372" lon="-3.883466">
        <ele>2226.0</ele>
        <time>2018-04-21T09:27:05.000Z</time>
      </trkpt>
      <trkpt lat="40.806378" lon="-3.883473">
        <ele>2226.0</ele>
        <time>2018-04-21T09:27:06.000Z</time>
      </trkpt>
      <trkpt lat="40.806384" lon="-3.88348">
        <ele>2225.9</ele>
        <time>2018-04-21T09:27:07.000Z</time>
      </trkpt>
      <trkpt lat="40.806389" lon="-3.883488">
        <ele>2225.8</ele>
        <time>2018-04-21T09:27:08.000Z</time>
      </trkpt>
      <trkpt lat="40.806395" lon="-3.883495">
        <ele>2225.8</ele>
        <time>2018-04-21T09:27:09.000Z</time>
      </trkpt>
      <trkpt lat="40.806401" lon="-3.883503">
        <ele>2225.7</ele>
        <time>2018-04-21T09:27:10.000Z</time>
      </trkpt>
      <trkpt lat="40.806407" lon="-3.88351">
        <ele>2225.7</ele>
        <time>2018-04-21T09:27:11.000Z</time>
      </trkpt>
      <trkpt lat="40.806414" lon="-3.883518">
        <ele>2225.6</ele>
        <time>2018-04-21T09:27:12.000Z</time>
      </trkpt>
      <trkpt lat="40.80642" lon="-3.883526">
        <ele>2225.6</ele>
        <time>2018-04-21T09:27:13.000Z</time>
      </trkpt>
      <trkpt lat="40.806426" lon="-3.883534">
        <ele>2225.5</ele>
        <time>2018-04-21T09:27:14.000Z</time>
      </trkpt>
      <trkpt lat="40.806433" lon="-3.883543">
        <ele>2225.5</ele>
        <time>2018-04-21T09:27:15.000Z</time>
      </trkpt>
      <trkpt lat="40.80644" lon="-3.883551">
        <ele>2225.4</ele>
        <time>2018-04-21T09:27:16.000Z</time>
      </trkpt>
      <trkpt lat="40.806447" lon="-3.88356">
        <ele>2225.4</ele>
        <time>2018-04-21T09:27:17.000Z</time>
      </trkpt>
      <trkpt lat="40.806454" lon="-3.883569">
        <ele>2225.3</ele>
        <time>2018-04-21T09:27:18.000Z</time>
      </trkpt>
      <trkpt lat="40.806461" lon="-3.883577">
        <ele>2225.3</ele>
        <time>2018-04-21T09:27:19.000Z</time>
      </trkpt>
      <trkpt lat="40.806468" lon="-3.883585">
        <ele>2225.3</ele>
        <time>2018-04-21T09:27:20.000Z</time>
      </trkpt>
      <trkpt lat="40.806476" lon="-3.883593">
        <ele>2225.2</ele>
        <time>2018-04-21T09:27:21.000Z</time>
      </trkpt>
      <trkpt lat="40.806483" lon="-3.8836">
        <ele>2225.2</ele>
        <time>2018-04-21T09:27:22.000Z</time>
      </trkpt>
      <trkpt lat="40.806491" lon="-3.883606">
        <ele>2225.2</ele>
        <time>2018-04-21T09:27:23.000Z</time>
      </trkpt>
      <trkpt lat="40.806498" lon="-3.883611">
        <ele>2225.2</ele>
        <time>2018-04-21T09:27:24.000Z</time>
      </trkpt>
      <trkpt lat="40.806506" lon="-3.883616">
        <ele>2225.2</ele>
        <time>2018-04-21T09:27:25.000Z</time>
      </trkpt>
      <trkpt lat="40.806514" lon="-3.88362">
        <ele>2225.2</ele>
        <time>2018-04-21T09:27:26.000Z</time>
      </trkpt>
      <trkpt lat="40.806523" lon="-3.883623">
        <ele>2225.2</ele>
        <time>2018-04-21T09:27:27.000Z</time>
      </trkpt>
      <trkpt lat="40.806532" lon="-3.883627">
        <ele>2225.3</ele>
        <time>2018-04-21T09:27:28.000Z</time>
      </trkpt>
      <trkpt lat="40.806542" lon="-3.883632">
        <ele>2225.3</ele>
        <time>2018-04-21T09:27:29.000Z</time>
      </trkpt>
      <trkpt lat="40.806553" lon="-3.883638">
        <ele>2225.3</ele>
        <time>2018-04-21T09:27:30.000Z</time>
      </trkpt>
      <trkpt lat="40.806564" lon="-3.883646">
        <ele>2225.3</ele>
        <time>2018-04-21T09:27:31.000Z</time>
      </trkpt>
      <trkpt lat="40.806574" lon="-3.883654">
        <ele>2225.3</ele>
        <time>2018-04-21T09:27:32.000Z</time>
      </trkpt>
      <trkpt lat="40.806582" lon="-3.883664">
        <ele>2225.3</ele>
        <time>2018-04-21T09:27:33.000Z</time>
      </trkpt>
      <trkpt lat="40.806587" lon="-3.883674">
        <ele>2225.3</ele>
        <time>2018-04-21T09:27:34.000Z</time>
      </trkpt>
      <trkpt lat="40.80659" lon="-3.883686">
        <ele>2225.2</ele>
        <time>2018-04-21T09:27:35.000Z</time>
      </trkpt>
      <trkpt lat="40.80659" lon="-3.883697">
        <ele>2225.2</ele>
        <time>2018-04-21T09:27:36.000Z</time>
      </trkpt>
      <trkpt lat="40.806589" lon="-3.883708">
        <ele>2225.1</ele>
        <time>2018-04-21T09:27:37.000Z</time>
      </trkpt>
      <trkpt lat="40.806586" lon="-3.883719">
        <ele>2225.0</ele>
        <time>2018-04-21T09:27:38.000Z</time>
      </trkpt>
      <trkpt lat="40.806583" lon="-3.88373">
        <ele>2225.0</ele>
        <time>2018-04-21T09:27:39.000Z</time>
      </trkpt>
      <trkpt lat="40.806579" lon="-3.883739">
        <ele>2224.9</ele>
        <time>2018-04-21T09:27:40.000Z</time>
      </trkpt>
      <trkpt lat="40.806575" lon="-3.883747">
        <ele>2224.8</ele>
        <time>2018-04-21T09:27:41.000Z</time>
      </trkpt>
      <trkpt lat="40.806571" lon="-3.883754">
        <ele>2224.7</ele>
        <time>2018-04-21T09:27:42.000Z</time>
      </trkpt>
      <trkpt lat="40.806568" lon="-3.883759">
        <ele>2224.7</ele>
        <time>2018-04-21T09:27:43.000Z</time>
      </trkpt>
      <trkpt lat="40.806566" lon="-3.883762">
        <ele>2224.6</ele>
        <time>2018-04-21T09:27:44.000Z</time>
      </trkpt>
      <trkpt lat="40.806565" lon="-3.883764">
        <ele>2224.6</ele>
        <time>2018-04-21T09:27:45.000Z</time>
      </trkpt>
      <trkpt lat="40.806564" lon="-3.883766">
        <ele>2224.6</ele>
        <time>2018-04-21T09:27:46.000Z</time>
      </trkpt>
      <trkpt lat="40.806564" lon="-3.883767">
        <ele>2224.6</ele>
        <time>2018-04-21T09:27:47.000Z</time>
      </trkpt>
      <trkpt lat="40.806564" lon="-3.883768">
        <ele>2224.6</ele>
        <time>2018-04-21T09:27:48.000Z</time>
      </trkpt>
      <trkpt lat="40.806565" lon="-3.883771">
        <ele>2224.6</ele>
        <time>2018-04-21T09:27:49.000Z</time>
      </trkpt>
      <trkpt lat="40.806566" lon="-3.883774">
        <ele>2224.6</ele>
        <time>2018-04-21T09:27:50.000Z</time>
      </trkpt>
      <trkpt lat="40.806568" lon="-3.883778">
        <ele>2224.6</ele>
        <time>2018-04-21T09:27:51.000Z</time>
      </trkpt>
      <trkpt lat="40.80657" lon="-3.883784">
        <ele>2224.6</ele>
        <time>2018-04-21T09:27:52.000Z</time>
      </trkpt>
      <trkpt lat="40.806573" lon="-3.883792">
        <ele>2224.5</ele>
        <time>2018-04-21T09:27:53.000Z</time>
      </trkpt>
      <trkpt lat="40.806575" lon="-3.883801">
        <ele>2224.5</ele>
        <time>2018-04-21T09:27:54.000Z</time>
      </trkpt>
      <trkpt lat="40.806577" lon="-3.88381">
        <ele>2224.5</ele>
        <time>2018-04-21T09:27:55.000Z</time>
      </trkpt>
      <trkpt lat="40.806578" lon="-3.88382">
        <ele>2224.4</ele>
        <time>2018-04-21T09:27:56.000Z</time>
      </trkpt>
      <trkpt lat="40.806578" lon="-3.883831">
        <ele>2224.4</ele>
        <time>2018-04-21T09:27:57.000Z</time>
      </trkpt>
      <trkpt lat="40.806578" lon="-3.883841">
        <ele>2224.3</ele>
        <time>2018-04-21T09:27:58.000Z</time>
      </trkpt>
      <trkpt lat="40.806579" lon="-3.883852">
        <ele>2224.3</ele>
        <time>2018-04-21T09:27:59.000Z</time>
      </trkpt>
      <trkpt lat="40.806581" lon="-3.883863">
        <ele>2224.2</ele>
        <time>2018-04-21T09:28:00.000Z</time>
      </trkpt>
      <trkpt lat="40.806585" lon="-3.883874">
        <ele>2224.2</ele>
        <time>2018-04-21T09:28:01.000Z</time>
      </trkpt>
      <trkpt lat="40.806591" lon="-3.883885">
        <ele>2224.2</ele>
        <time>2018-04-21T09:28:02.000Z</time>
      </trkpt>
      <trkpt lat="40.806598" lon="-3.883896">
        <ele>2224.2</ele>
        <time>2018-04-21T09:28:03.000Z</time>
      </trkpt>
      <trkpt lat="40.806607" lon="-3.883906">
        <ele>2224.3</ele>
        <time>2018-04-21T09:28:04.000Z</time>
      </trkpt>
      <trkpt lat="40.806617" lon="-3.883916">
        <ele>2224.3</ele>
        <time>2018-04-21T09:28:05.000Z</time>
      </trkpt>
      <trkpt lat="40.806628" lon="-3.883924">
        <ele>2224.4</ele>
        <time>2018-04-21T09:28:06.000Z</time>
      </trkpt>
      <trkpt lat="40.806639" lon="-3.883932">
        <ele>2224.5</ele>
        <time>2018-04-21T09:28:07.000Z</time>
      </trkpt>
      <trkpt lat="40.80665" lon="-3.883938">
        <ele>2224.6</ele>
        <time>2018-04-21T09:28:08.000Z</time>
      </trkpt>
      <trkpt lat="40.806662" lon="-3.883942">
        <ele>2224.8</ele>
        <time>2018-04-21T09:28:09.000Z</time>
      </trkpt>
      <trkpt lat="40.806674" lon="-3.883944">
        <ele>2224.7</ele>
        <time>2018-04-21T09:28:10.000Z</time>
      </trkpt>
      <trkpt lat="40.806685" lon="-3.883945">
        <ele>2224.5</ele>
        <time>2018-04-21T09:28:11.000Z</time>
      </trkpt>
      <trkpt lat="40.806696" lon="-3.883944">
        <ele>2224.4</ele>
        <time>2018-04-21T09:28:12.000Z</time>
      </trkpt>
      <trkpt lat="40.806706" lon="-3.883943">
        <ele>2224.2</ele>
        <time>2018-04-21T09:28:13.000Z</time>
      </trkpt>
      <trkpt lat="40.806716" lon="-3.883941">
        <ele>2224.1</ele>
        <time>2018-04-21T09:28:14.000Z</time>
      </trkpt>
      <trkpt lat="40.806726" lon="-3.88394">
        <ele>2224.0</ele>
        <time>2018-04-21T09:28:15.000Z</time>
      </trkpt>
      <trkpt lat="40.806735" lon="-3.883939">
        <ele>2223.8</ele>
        <time>2018-04-21T09:28:16.000Z</time>
      </trkpt>
      <trkpt lat="40.806743" lon="-3.883939">
        <ele>2223.7</ele>
        <time>2018-04-21T09:28:17.000Z</time>
      </trkpt>
      <trkpt lat="40.806751" lon="-3.883941">
        <ele>2223.6</ele>
        <time>2018-04-21T09:28:18.000Z</time>
      </trkpt>
      <trkpt lat="40.806758" lon="-3.883944">
        <ele>2223.5</ele>
        <time>2018-04-21T09:28:19.000Z</time>
      </trkpt>
      <trkpt lat="40.806765" lon="-3.88395">
        <ele>2223.4</ele>
        <time>2018-04-21T09:28:20.000Z</time>
      </trkpt>
      <trkpt lat="40.806771" lon="-3.883956">
        <ele>2223.3</ele>
        <time>2018-04-21T09:28:21.000Z</time>
      </trkpt>
      <trkpt lat="40.806777" lon="-3.883964">
        <ele>2223.2</ele>
        <time>2018-04-21T09:28:22.000Z</time>
      </trkpt>
      <trkpt lat="40.806782" lon="-3.883973">
        <ele>2223.1</ele>
        <time>2018-04-21T09:28:23.000Z</time>
      </trkpt>
      <trkpt lat="40.806786" lon="-3.883983">
        <ele>2223.0</ele>
        <time>2018-04-21T09:28:24.000Z</time>
      </trkpt>
      <trkpt lat="40.806791" lon="-3.883994">
        <ele>2222.9</ele>
        <time>2018-04-21T09:28:25.000Z</time>
      </trkpt>
      <trkpt lat="40.806795" lon="-3.884005">
        <ele>2222.9</ele>
        <time>2018-04-21T09:28:26.000Z</time>
      </trkpt>
      <trkpt lat="40.806798" lon="-3.884017">
        <ele>2222.8</ele>
        <time>2018-04-21T09:28:27.000Z</time>
      </trkpt>
      <trkpt lat="40.806802" lon="-3.884028">
        <ele>2222.7</ele>
        <time>2018-04-21T09:28:28.000Z</time>
      </trkpt>
      <trkpt lat="40.806805" lon="-3.88404">
        <ele>2222.7</ele>
        <time>2018-04-21T09:28:29.000Z</time>
      </trkpt>
      <trkpt lat="40.806809" lon="-3.88405">
        <ele>2222.6</ele>
        <time>2018-04-21T09:28:30.000Z</time>
      </trkpt>
      <trkpt lat="40.806812" lon="-3.884058">
        <ele>2222.6</ele>
        <time>2018-04-21T09:28:31.000Z</time>
      </trkpt>
      <trkpt lat="40.806816" lon="-3.884064">
        <ele>2222.5</ele>
        <time>2018-04-21T09:28:32.000Z</time>
      </trkpt>
      <trkpt lat="40.806819" lon="-3.884069">
        <ele>2222.5</ele>
        <time>2018-04-21T09:28:33.000Z</time>
      </trkpt>
      <trkpt lat="40.806822" lon="-3.884078">
        <ele>2222.4</ele>
        <time>2018-04-21T09:28:34.000Z</time>
      </trkpt>
      <trkpt lat="40.806823" lon="-3.88408">
        <ele>2222.4</ele>
        <time>2018-04-21T09:28:35.000Z</time>
      </trkpt>
      <trkpt lat="40.806829" lon="-3.88409">
        <ele>2222.3</ele>
        <time>2018-04-21T09:43:07.000Z</time>
      </trkpt>
      <trkpt lat="40.807003" lon="-3.884383">
        <ele>2219.1</ele>
        <time>2018-04-21T09:43:08.000Z</time>
      </trkpt>
      <trkpt lat="40.80719" lon="-3.884742">
        <ele>2217.9</ele>
        <time>2018-04-21T09:43:09.000Z</time>
      </trkpt>
      <trkpt lat="40.807225" lon="-3.884811">
        <ele>2218.0</ele>
        <time>2018-04-21T09:43:10.000Z</time>
      </trkpt>
      <trkpt lat="40.80723" lon="-3.88482">
        <ele>2218.0</ele>
        <time>2018-04-21T09:43:11.000Z</time>
      </trkpt>
      <trkpt lat="40.80724" lon="-3.884839">
        <ele>2218.1</ele>
        <time>2018-04-21T09:43:12.000Z</time>
      </trkpt>
      <trkpt lat="40.807247" lon="-3.884856">
        <ele>2218.2</ele>
        <time>2018-04-21T09:43:13.000Z</time>
      </trkpt>
      <trkpt lat="40.807252" lon="-3.884869">
        <ele>2218.2</ele>
        <time>2018-04-21T09:43:14.000Z</time>
      </trkpt>
      <trkpt lat="40.807255" lon="-3.88488">
        <ele>2218.3</ele>
        <time>2018-04-21T09:43:15.000Z</time>
      </trkpt>
      <trkpt lat="40.807258" lon="-3.884892">
        <ele>2218.3</ele>
        <time>2018-04-21T09:43:16.000Z</time>
      </trkpt>
      <trkpt lat="40.807262" lon="-3.884905">
        <ele>2218.3</ele>
        <time>2018-04-21T09:43:17.000Z</time>
      </trkpt>
      <trkpt lat="40.807267" lon="-3.88492">
        <ele>2218.4</ele>
        <time>2018-04-21T09:43:18.000Z</time>
      </trkpt>
      <trkpt lat="40.807272" lon="-3.884936">
        <ele>2218.5</ele>
        <time>2018-04-21T09:43:19.000Z</time>
      </trkpt>
      <trkpt lat="40.807278" lon="-3.884951">
        <ele>2218.5</ele>
        <time>2018-04-21T09:43:20.000Z</time>
      </trkpt>
      <trkpt lat="40.807283" lon="-3.884966">
        <ele>2218.6</ele>
        <time>2018-04-21T09:43:21.000Z</time>
      </trkpt>
      <trkpt lat="40.807287" lon="-3.88498">
        <ele>2218.7</ele>
        <time>2018-04-21T09:43:22.000Z</time>
      </trkpt>
      <trkpt lat="40.807291" lon="-3.88499">
        <ele>2218.7</ele>
        <time>2018-04-21T09:43:23.000Z</time>
      </trkpt>
      <trkpt lat="40.807294" lon="-3.884998">
        <ele>2218.8</ele>
        <time>2018-04-21T09:43:24.000Z</time>
      </trkpt>
      <trkpt lat="40.807296" lon="-3.885002">
        <ele>2218.8</ele>
        <time>2018-04-21T09:43:25.000Z</time>
      </trkpt>
      <trkpt lat="40.807296" lon="-3.885002">
        <ele>2218.8</ele>
        <time>2018-04-21T09:43:26.000Z</time>
      </trkpt>
      <trkpt lat="40.807296" lon="-3.885002">
        <ele>2218.8</ele>
        <time>2018-04-21T09:43:27.000Z</time>
      </trkpt>
      <trkpt lat="40.807298" lon="-3.885009">
        <ele>2218.8</ele>
        <time>2018-04-21T09:43:28.000Z</time>
      </trkpt>
      <trkpt lat="40.807304" lon="-3.885023">
        <ele>2218.8</ele>
        <time>2018-04-21T09:43:29.000Z</time>
      </trkpt>
      <trkpt lat="40.80731" lon="-3.885039">
        <ele>2218.8</ele>
        <time>2018-04-21T09:43:30.000Z</time>
      </trkpt>
      <trkpt lat="40.807313" lon="-3.885049">
        <ele>2218.8</ele>
        <time>2018-04-21T09:43:31.000Z</time>
      </trkpt>
      <trkpt lat="40.807315" lon="-3.885054">
        <ele>2218.8</ele>
        <time>2018-04-21T09:43:32.000Z</time>
      </trkpt>
      <trkpt lat="40.807315" lon="-3.885055">
        <ele>2218.8</ele>
        <time>2018-04-21T09:43:33.000Z</time>
      </trkpt>
      <trkpt lat="40.807315" lon="-3.885056">
        <ele>2218.8</ele>
        <time>2018-04-21T09:43:34.000Z</time>
      </trkpt>
      <trkpt lat="40.807315" lon="-3.885057">
        <ele>2218.8</ele>
        <time>2018-04-21T09:43:35.000Z</time>
      </trkpt>
      <trkpt lat="40.807316" lon="-3.885061">
        <ele>2218.8</ele>
        <time>2018-04-21T09:43:36.000Z</time>
      </trkpt>
      <trkpt lat="40.807317" lon="-3.885065">
        <ele>2218.8</ele>
        <time>2018-04-21T09:43:37.000Z</time>
      </trkpt>
      <trkpt lat="40.807319" lon="-3.885071">
        <ele>2218.8</ele>
        <time>2018-04-21T09:43:38.000Z</time>
      </trkpt>
      <trkpt lat="40.807322" lon="-3.885079">
        <ele>2218.8</ele>
        <time>2018-04-21T09:43:39.000Z</time>
      </trkpt>
      <trkpt lat="40.807324" lon="-3.885088">
        <ele>2218.8</ele>
        <time>2018-04-21T09:43:40.000Z</time>
      </trkpt>
      <trkpt lat="40.807327" lon="-3.885098">
        <ele>2218.8</ele>
        <time>2018-04-21T09:43:41.000Z</time>
      </trkpt>
      <trkpt lat="40.807331" lon="-3.88511">
        <ele>2218.9</ele>
        <time>2018-04-21T09:43:42.000Z</time>
      </trkpt>
      <trkpt lat="40.807334" lon="-3.885123">
        <ele>2218.9</ele>
        <time>2018-04-21T09:43:43.000Z</time>
      </trkpt>
      <trkpt lat="40.807337" lon="-3.885138">
        <ele>2218.8</ele>
        <time>2018-04-21T09:43:44.000Z</time>
      </trkpt>
      <trkpt lat="40.807341" lon="-3.885153">
        <ele>2218.9</ele>
        <time>2018-04-21T09:43:45.000Z</time>
      </trkpt>
      <trkpt lat="40.807345" lon="-3.885168">
        <ele>2218.9</ele>
        <time>2018-04-21T09:43:46.000Z</time>
      </trkpt>
      <trkpt lat="40.807349" lon="-3.885182">
        <ele>2218.9</ele>
        <time>2018-04-21T09:43:47.000Z</time>
      </trkpt>
      <trkpt lat="40.807353" lon="-3.885193">
        <ele>2218.9</ele>
        <time>2018-04-21T09:43:48.000Z</time>
      </trkpt>
      <trkpt lat="40.807358" lon="-3.885202">
        <ele>2218.9</ele>
        <time>2018-04-21T09:43:49.000Z</time>
      </trkpt>
      <trkpt lat="40.807363" lon="-3.885208">
        <ele>2219.0</ele>
        <time>2018-04-21T09:43:50.000Z</time>
      </trkpt>
      <trkpt lat="40.807368" lon="-3.885214">
        <ele>2219.0</ele>
        <time>2018-04-21T09:43:51.000Z</time>
      </trkpt>
      <trkpt lat="40.807373" lon="-3.885219">
        <ele>2219.1</ele>
        <time>2018-04-21T09:43:52.000Z</time>
      </trkpt>
      <trkpt lat="40.807379" lon="-3.885225">
        <ele>2219.1</ele>
        <time>2018-04-21T09:43:53.000Z</time>
      </trkpt>
      <trkpt lat="40.807383" lon="-3.885232">
        <ele>2219.2</ele>
        <time>2018-04-21T09:43:54.000Z</time>
      </trkpt>
      <trkpt lat="40.807388" lon="-3.88524">
        <ele>2219.2</ele>
        <time>2018-04-21T09:43:55.000Z</time>
      </trkpt>
      <trkpt lat="40.807392" lon="-3.885249">
        <ele>2219.3</ele>
        <time>2018-04-21T09:43:56.000Z</time>
      </trkpt>
      <trkpt lat="40.807395" lon="-3.885258">
        <ele>2219.3</ele>
        <time>2018-04-21T09:43:57.000Z</time>
      </trkpt>
      <trkpt lat="40.807398" lon="-3.885269">
        <ele>2219.3</ele>
        <time>2018-04-21T09:43:58.000Z</time>
      </trkpt>
      <trkpt lat="40.807399" lon="-3.88528">
        <ele>2219.3</ele>
        <time>2018-04-21T09:43:59.000Z</time>
      </trkpt>
      <trkpt lat="40.807399" lon="-3.885291">
        <ele>2219.3</ele>
        <time>2018-04-21T09:44:00.000Z</time>
      </trkpt>
      <trkpt lat="40.807398" lon="-3.885303">
        <ele>2219.2</ele>
        <time>2018-04-21T09:44:01.000Z</time>
      </trkpt>
      <trkpt lat="40.807395" lon="-3.885315">
        <ele>2219.2</ele>
        <time>2018-04-21T09:44:02.000Z</time>
      </trkpt>
      <trkpt lat="40.807392" lon="-3.885327">
        <ele>2219.1</ele>
        <time>2018-04-21T09:44:03.000Z</time>
      </trkpt>
      <trkpt lat="40.807388" lon="-3.885337">
        <ele>2219.0</ele>
        <time>2018-04-21T09:44:04.000Z</time>
      </trkpt>
      <trkpt lat="40.807384" lon="-3.885346">
        <ele>2218.9</ele>
        <time>2018-04-21T09:44:05.000Z</time>
      </trkpt>
      <trkpt lat="40.807381" lon="-3.885351">
        <ele>2218.9</ele>
        <time>2018-04-21T09:44:06.000Z</time>
      </trkpt>
      <trkpt lat="40.807379" lon="-3.885353">
        <ele>2218.8</ele>
        <time>2018-04-21T09:44:07.000Z</time>
      </trkpt>
      <trkpt lat="40.807378" lon="-3.885353">
        <ele>2218.8</ele>
        <time>2018-04-21T09:44:08.000Z</time>
      </trkpt>
      <trkpt lat="40.807378" lon="-3.885352">
        <ele>2218.8</ele>
        <time>2018-04-21T09:44:09.000Z</time>
      </trkpt>
      <trkpt lat="40.807378" lon="-3.885353">
        <ele>2218.8</ele>
        <time>2018-04-21T09:44:10.000Z</time>
      </trkpt>
      <trkpt lat="40.807378" lon="-3.885356">
        <ele>2218.8</ele>
        <time>2018-04-21T09:44:11.000Z</time>
      </trkpt>
      <trkpt lat="40.807378" lon="-3.885362">
        <ele>2218.8</ele>
        <time>2018-04-21T09:44:12.000Z</time>
      </trkpt>
      <trkpt lat="40.807378" lon="-3.88537">
        <ele>2218.8</ele>
        <time>2018-04-21T09:44:13.000Z</time>
      </trkpt>
      <trkpt lat="40.807378" lon="-3.88538">
        <ele>2218.8</ele>
        <time>2018-04-21T09:44:14.000Z</time>
      </trkpt>
      <trkpt lat="40.807379" lon="-3.885391">
        <ele>2218.7</ele>
        <time>2018-04-21T09:44:15.000Z</time>
      </trkpt>
      <trkpt lat="40.807381" lon="-3.885404">
        <ele>2218.7</ele>
        <time>2018-04-21T09:44:16.000Z</time>
      </trkpt>
      <trkpt lat="40.807383" lon="-3.885417">
        <ele>2218.7</ele>
        <time>2018-04-21T09:44:17.000Z</time>
      </trkpt>
      <trkpt lat="40.807386" lon="-3.88543">
        <ele>2218.8</ele>
        <time>2018-04-21T09:44:18.000Z</time>
      </trkpt>
      <trkpt lat="40.80739" lon="-3.885443">
        <ele>2218.8</ele>
        <time>2018-04-21T09:44:19.000Z</time>
      </trkpt>
      <trkpt lat="40.807395" lon="-3.885456">
        <ele>2218.8</ele>
        <time>2018-04-21T09:44:20.000Z</time>
      </trkpt>
      <trkpt lat="40.807401" lon="-3.885469">
        <ele>2218.9</ele>
        <time>2018-04-21T09:44:21.000Z</time>
      </trkpt>
      <trkpt lat="40.807407" lon="-3.885481">
        <ele>2219.0</ele>
        <time>2018-04-21T09:44:22.000Z</time>
      </trkpt>
      <trkpt lat="40.807413" lon="-3.885494">
        <ele>2219.0</ele>
        <time>2018-04-21T09:44:23.000Z</time>
      </trkpt>
      <trkpt lat="40.807419" lon="-3.885506">
        <ele>2219.1</ele>
        <time>2018-04-21T09:44:24.000Z</time>
      </trkpt>
      <trkpt lat="40.807425" lon="-3.885519">
        <ele>2219.2</ele>
        <time>2018-04-21T09:44:25.000Z</time>
      </trkpt>
      <trkpt lat="40.80743" lon="-3.885531">
        <ele>2219.2</ele>
        <time>2018-04-21T09:44:26.000Z</time>
      </trkpt>
      <trkpt lat="40.807434" lon="-3.885544">
        <ele>2219.3</ele>
        <time>2018-04-21T09:44:27.000Z</time>
      </trkpt>
      <trkpt lat="40.807436" lon="-3.885558">
        <ele>2219.3</ele>
        <time>2018-04-21T09:44:28.000Z</time>
      </trkpt>
      <trkpt lat="40.807437" lon="-3.885572">
        <ele>2219.3</ele>
        <time>2018-04-21T09:44:29.000Z</time>
      </trkpt>
      <trkpt lat="40.807436" lon="-3.885587">
        <ele>2219.2</ele>
        <time>2018-04-21T09:44:30.000Z</time>
      </trkpt>
      <trkpt lat="40.807434" lon="-3.885602">
        <ele>2219.2</ele>
        <time>2018-04-21T09:44:31.000Z</time>
      </trkpt>
      <trkpt lat="40.807431" lon="-3.885617">
        <ele>2219.1</ele>
        <time>2018-04-21T09:44:32.000Z</time>
      </trkpt>
      <trkpt lat="40.807427" lon="-3.885632">
        <ele>2219.0</ele>
        <time>2018-04-21T09:44:33.000Z</time>
      </trkpt>
      <trkpt lat="40.807422" lon="-3.885647">
        <ele>2218.9</ele>
        <time>2018-04-21T09:44:34.000Z</time>
      </trkpt>
      <trkpt lat="40.807417" lon="-3.885661">
        <ele>2218.8</ele>
        <time>2018-04-21T09:44:35.000Z</time>
      </trkpt>
      <trkpt lat="40.807412" lon="-3.885675">
        <ele>2218.6</ele>
        <time>2018-04-21T09:44:36.000Z</time>
      </trkpt>
      <trkpt lat="40.807407" lon="-3.885689">
        <ele>2218.5</ele>
        <time>2018-04-21T09:44:37.000Z</time>
      </trkpt>
      <trkpt lat="40.807402" lon="-3.885702">
        <ele>2218.4</ele>
        <time>2018-04-21T09:44:38.000Z</time>
      </trkpt>
      <trkpt lat="40.807397" lon="-3.885714">
        <ele>2218.3</ele>
        <time>2018-04-21T09:44:39.000Z</time>
      </trkpt>
      <trkpt lat="40.807392" lon="-3.885725">
        <ele>2218.2</ele>
        <time>2018-04-21T09:44:40.000Z</time>
      </trkpt>
      <trkpt lat="40.807388" lon="-3.885736">
        <ele>2218.1</ele>
        <time>2018-04-21T09:44:41.000Z</time>
      </trkpt>
      <trkpt lat="40.807383" lon="-3.885746">
        <ele>2218.0</ele>
        <time>2018-04-21T09:44:42.000Z</time>
      </trkpt>
      <trkpt lat="40.807377" lon="-3.885756">
        <ele>2217.8</ele>
        <time>2018-04-21T09:44:43.000Z</time>
      </trkpt>
      <trkpt lat="40.807372" lon="-3.885766">
        <ele>2217.7</ele>
        <time>2018-04-21T09:44:44.000Z</time>
      </trkpt>
      <trkpt lat="40.807366" lon="-3.885775">
        <ele>2217.6</ele>
        <time>2018-04-21T09:44:45.000Z</time>
      </trkpt>
      <trkpt lat="40.807359" lon="-3.885785">
        <ele>2217.4</ele>
        <time>2018-04-21T09:44:46.000Z</time>
      </trkpt>
      <trkpt lat="40.807351" lon="-3.885794">
        <ele>2217.2</ele>
        <time>2018-04-21T09:44:47.000Z</time>
      </trkpt>
      <trkpt lat="40.807343" lon="-3.885802">
        <ele>2217.1</ele>
        <time>2018-04-21T09:44:48.000Z</time>
      </trkpt>
      <trkpt lat="40.807335" lon="-3.885811">
        <ele>2216.9</ele>
        <time>2018-04-21T09:44:49.000Z</time>
      </trkpt>
      <trkpt lat="40.807327" lon="-3.885819">
        <ele>2216.7</ele>
        <time>2018-04-21T09:44:50.000Z</time>
      </trkpt>
      <trkpt lat="40.807319" lon="-3.885828">
        <ele>2216.5</ele>
        <time>2018-04-21T09:44:51.000Z</time>
      </trkpt>
      <trkpt lat="40.807312" lon="-3.885836">
        <ele>2216.3</ele>
        <time>2018-04-21T09:44:52.000Z</time>
      </trkpt>
      <trkpt lat="40.807306" lon="-3.885844">
        <ele>2216.0</ele>
        <time>2018-04-21T09:44:53.000Z</time>
      </trkpt>
      <trkpt lat="40.807301" lon="-3.885851">
        <ele>2215.8</ele>
        <time>2018-04-21T09:44:54.000Z</time>
      </trkpt>
      <trkpt lat="40.807297" lon="-3.885859">
        <ele>2215.5</ele>
        <time>2018-04-21T09:44:55.000Z</time>
      </trkpt>
      <trkpt lat="40.807295" lon="-3.885866">
        <ele>2215.3</ele>
        <time>2018-04-21T09:44:56.000Z</time>
      </trkpt>
      <trkpt lat="40.807295" lon="-3.885873">
        <ele>2215.2</ele>
        <time>2018-04-21T09:44:57.000Z</time>
      </trkpt>
      <trkpt lat="40.807296" lon="-3.88588">
        <ele>2215.0</ele>
        <time>2018-04-21T09:44:58.000Z</time>
      </trkpt>
      <trkpt lat="40.807297" lon="-3.885886">
        <ele>2214.9</ele>
        <time>2018-04-21T09:44:59.000Z</time>
      </trkpt>
      <trkpt lat="40.8073" lon="-3.885893">
        <ele>2214.8</ele>
        <time>2018-04-21T09:45:00.000Z</time>
      </trkpt>
      <trkpt lat="40.807303" lon="-3.8859">
        <ele>2214.7</ele>
        <time>2018-04-21T09:45:01.000Z</time>
      </trkpt>
      <trkpt lat="40.807306" lon="-3.885907">
        <ele>2214.6</ele>
        <time>2018-04-21T09:45:02.000Z</time>
      </trkpt>
      <trkpt lat="40.807308" lon="-3.885914">
        <ele>2214.5</ele>
        <time>2018-04-21T09:45:03.000Z</time>
      </trkpt>
      <trkpt lat="40.807311" lon="-3.885921">
        <ele>2214.4</ele>
        <time>2018-04-21T09:45:04.000Z</time>
      </trkpt>
      <trkpt lat="40.807313" lon="-3.885928">
        <ele>2214.3</ele>
        <time>2018-04-21T09:45:05.000Z</time>
      </trkpt>
      <trkpt lat="40.807314" lon="-3.885936">
        <ele>2214.1</ele>
        <time>2018-04-21T09:45:06.000Z</time>
      </trkpt>
      <trkpt lat="40.807314" lon="-3.885943">
        <ele>2213.9</ele>
        <time>2018-04-21T09:45:07.000Z</time>
      </trkpt>
      <trkpt lat="40.807313" lon="-3.885951">
        <ele>2213.7</ele>
        <time>2018-04-21T09:45:08.000Z</time>
      </trkpt>
      <trkpt lat="40.80731" lon="-3.885958">
        <ele>2213.5</ele>
        <time>2018-04-21T09:45:09.000Z</time>
      </trkpt>
      <trkpt lat="40.807305" lon="-3.885966">
        <ele>2213.2</ele>
        <time>2018-04-21T09:45:10.000Z</time>
      </trkpt>
      <trkpt lat="40.8073" lon="-3.885973">
        <ele>2213.0</ele>
        <time>2018-04-21T09:45:11.000Z</time>
      </trkpt>
      <trkpt lat="40.807295" lon="-3.88598">
        <ele>2212.8</ele>
        <time>2018-04-21T09:45:12.000Z</time>
      </trkpt>
      <trkpt lat="40.80729" lon="-3.885987">
        <ele>2212.5</ele>
        <time>2018-04-21T09:45:13.000Z</time>
      </trkpt>
      <trkpt lat="40.807287" lon="-3.885994">
        <ele>2212.3</ele>
        <time>2018-04-21T09:45:14.000Z</time>
      </trkpt>
      <trkpt lat="40.807286" lon="-3.886002">
        <ele>2212.1</ele>
        <time>2018-04-21T09:45:15.000Z</time>
      </trkpt>
      <trkpt lat="40.807285" lon="-3.88601">
        <ele>2211.9</ele>
        <time>2018-04-21T09:45:16.000Z</time>
      </trkpt>
      <trkpt lat="40.807285" lon="-3.886018">
        <ele>2211.7</ele>
        <time>2018-04-21T09:45:17.000Z</time>
      </trkpt>
      <trkpt lat="40.807285" lon="-3.886026">
        <ele>2211.6</ele>
        <time>2018-04-21T09:45:18.000Z</time>
      </trkpt>
      <trkpt lat="40.807284" lon="-3.886033">
        <ele>2211.4</ele>
        <time>2018-04-21T09:45:19.000Z</time>
      </trkpt>
      <trkpt lat="40.807283" lon="-3.886041">
        <ele>2211.2</ele>
        <time>2018-04-21T09:45:20.000Z</time>
      </trkpt>
      <trkpt lat="40.807281" lon="-3.886048">
        <ele>2211.0</ele>
        <time>2018-04-21T09:45:21.000Z</time>
      </trkpt>
      <trkpt lat="40.807277" lon="-3.886055">
        <ele>2210.8</ele>
        <time>2018-04-21T09:45:22.000Z</time>
      </trkpt>
      <trkpt lat="40.807271" lon="-3.886062">
        <ele>2210.5</ele>
        <time>2018-04-21T09:45:23.000Z</time>
      </trkpt>
      <trkpt lat="40.807264" lon="-3.886068">
        <ele>2210.3</ele>
        <time>2018-04-21T09:45:24.000Z</time>
      </trkpt>
      <trkpt lat="40.807256" lon="-3.886074">
        <ele>2210.0</ele>
        <time>2018-04-21T09:45:25.000Z</time>
      </trkpt>
      <trkpt lat="40.807249" lon="-3.886081">
        <ele>2209.7</ele>
        <time>2018-04-21T09:45:26.000Z</time>
      </trkpt>
      <trkpt lat="40.807243" lon="-3.886088">
        <ele>2209.5</ele>
        <time>2018-04-21T09:45:27.000Z</time>
      </trkpt>
      <trkpt lat="40.807238" lon="-3.886095">
        <ele>2209.3</ele>
        <time>2018-04-21T09:45:28.000Z</time>
      </trkpt>
      <trkpt lat="40.807235" lon="-3.886104">
        <ele>2209.0</ele>
        <time>2018-04-21T09:45:29.000Z</time>
      </trkpt>
      <trkpt lat="40.807233" lon="-3.886112">
        <ele>2208.8</ele>
        <time>2018-04-21T09:45:30.000Z</time>
      </trkpt>
      <trkpt lat="40.807233" lon="-3.886121">
        <ele>2208.6</ele>
        <time>2018-04-21T09:45:31.000Z</time>
      </trkpt>
      <trkpt lat="40.807232" lon="-3.886131">
        <ele>2208.4</ele>
        <time>2018-04-21T09:45:32.000Z</time>
      </trkpt>
      <trkpt lat="40.807232" lon="-3.88614">
        <ele>2208.2</ele>
        <time>2018-04-21T09:45:33.000Z</time>
      </trkpt>
      <trkpt lat="40.807233" lon="-3.88615">
        <ele>2208.0</ele>
        <time>2018-04-21T09:45:34.000Z</time>
      </trkpt>
      <trkpt lat="40.807233" lon="-3.88616">
        <ele>2207.8</ele>
        <time>2018-04-21T09:45:35.000Z</time>
      </trkpt>
      <trkpt lat="40.807234" lon="-3.88617">
        <ele>2207.6</ele>
        <time>2018-04-21T09:45:36.000Z</time>
      </trkpt>
      <trkpt lat="40.807234" lon="-3.886181">
        <ele>2207.3</ele>
        <time>2018-04-21T09:45:37.000Z</time>
      </trkpt>
      <trkpt lat="40.807233" lon="-3.886192">
        <ele>2207.1</ele>
        <time>2018-04-21T09:45:38.000Z</time>
      </trkpt>
      <trkpt lat="40.807232" lon="-3.886203">
        <ele>2206.8</ele>
        <time>2018-04-21T09:45:39.000Z</time>
      </trkpt>
      <trkpt lat="40.807229" lon="-3.886215">
        <ele>2206.5</ele>
        <time>2018-04-21T09:45:40.000Z</time>
      </trkpt>
      <trkpt lat="40.807226" lon="-3.886227">
        <ele>2206.2</ele>
        <time>2018-04-21T09:45:41.000Z</time>
      </trkpt>
      <trkpt lat="40.807222" lon="-3.886239">
        <ele>2205.9</ele>
        <time>2018-04-21T09:45:42.000Z</time>
      </trkpt>
      <trkpt lat="40.807217" lon="-3.886251">
        <ele>2205.6</ele>
        <time>2018-04-21T09:45:43.000Z</time>
      </trkpt>
      <trkpt lat="40.807212" lon="-3.886263">
        <ele>2205.2</ele>
        <time>2018-04-21T09:45:44.000Z</time>
      </trkpt>
      <trkpt lat="40.807207" lon="-3.886274">
        <ele>2204.9</ele>
        <time>2018-04-21T09:45:45.000Z</time>
      </trkpt>
      <trkpt lat="40.807202" lon="-3.886285">
        <ele>2204.6</ele>
        <time>2018-04-21T09:45:46.000Z</time>
      </trkpt>
      <trkpt lat="40.807197" lon="-3.886294">
        <ele>2204.4</ele>
        <time>2018-04-21T09:45:47.000Z</time>
      </trkpt>
      <trkpt lat="40.807194" lon="-3.886302">
        <ele>2204.2</ele>
        <time>2018-04-21T09:45:48.000Z</time>
      </trkpt>
      <trkpt lat="40.807191" lon="-3.886309">
        <ele>2204.0</ele>
        <time>2018-04-21T09:45:49.000Z</time>
      </trkpt>
      <trkpt lat="40.80719" lon="-3.886314">
        <ele>2203.9</ele>
        <time>2018-04-21T09:45:50.000Z</time>
      </trkpt>
      <trkpt lat="40.80719" lon="-3.886317">
        <ele>2203.8</ele>
        <time>2018-04-21T09:45:51.000Z</time>
      </trkpt>
      <trkpt lat="40.807191" lon="-3.88632">
        <ele>2203.8</ele>
        <time>2018-04-21T09:45:52.000Z</time>
      </trkpt>
      <trkpt lat="40.807192" lon="-3.886323">
        <ele>2203.7</ele>
        <time>2018-04-21T09:45:53.000Z</time>
      </trkpt>
      <trkpt lat="40.807193" lon="-3.886326">
        <ele>2203.7</ele>
        <time>2018-04-21T09:45:54.000Z</time>
      </trkpt>
      <trkpt lat="40.807194" lon="-3.886331">
        <ele>2203.6</ele>
        <time>2018-04-21T09:45:55.000Z</time>
      </trkpt>
      <trkpt lat="40.807195" lon="-3.886336">
        <ele>2203.5</ele>
        <time>2018-04-21T09:45:56.000Z</time>
      </trkpt>
      <trkpt lat="40.807195" lon="-3.886341">
        <ele>2203.4</ele>
        <time>2018-04-21T09:45:57.000Z</time>
      </trkpt>
      <trkpt lat="40.807195" lon="-3.886347">
        <ele>2203.2</ele>
        <time>2018-04-21T09:45:58.000Z</time>
      </trkpt>
      <trkpt lat="40.807193" lon="-3.886353">
        <ele>2203.1</ele>
        <time>2018-04-21T09:45:59.000Z</time>
      </trkpt>
      <trkpt lat="40.807191" lon="-3.886359">
        <ele>2202.9</ele>
        <time>2018-04-21T09:46:00.000Z</time>
      </trkpt>
      <trkpt lat="40.807189" lon="-3.886364">
        <ele>2202.8</ele>
        <time>2018-04-21T09:46:01.000Z</time>
      </trkpt>
      <trkpt lat="40.807186" lon="-3.88637">
        <ele>2202.6</ele>
        <time>2018-04-21T09:46:02.000Z</time>
      </trkpt>
      <trkpt lat="40.807183" lon="-3.886376">
        <ele>2202.5</ele>
        <time>2018-04-21T09:46:03.000Z</time>
      </trkpt>
      <trkpt lat="40.807181" lon="-3.886382">
        <ele>2202.3</ele>
        <time>2018-04-21T09:46:04.000Z</time>
      </trkpt>
      <trkpt lat="40.807179" lon="-3.886388">
        <ele>2202.2</ele>
        <time>2018-04-21T09:46:05.000Z</time>
      </trkpt>
      <trkpt lat="40.807177" lon="-3.886394">
        <ele>2202.0</ele>
        <time>2018-04-21T09:46:06.000Z</time>
      </trkpt>
      <trkpt lat="40.807177" lon="-3.8864">
        <ele>2201.9</ele>
        <time>2018-04-21T09:46:07.000Z</time>
      </trkpt>
      <trkpt lat="40.807177" lon="-3.886406">
        <ele>2201.8</ele>
        <time>2018-04-21T09:46:08.000Z</time>
      </trkpt>
      <trkpt lat="40.807178" lon="-3.886413">
        <ele>2201.6</ele>
        <time>2018-04-21T09:46:09.000Z</time>
      </trkpt>
      <trkpt lat="40.807179" lon="-3.886419">
        <ele>2201.5</ele>
        <time>2018-04-21T09:46:10.000Z</time>
      </trkpt>
      <trkpt lat="40.807178" lon="-3.886426">
        <ele>2201.4</ele>
        <time>2018-04-21T09:46:11.000Z</time>
      </trkpt>
      <trkpt lat="40.807176" lon="-3.886432">
        <ele>2201.2</ele>
        <time>2018-04-21T09:46:12.000Z</time>
      </trkpt>
      <trkpt lat="40.807172" lon="-3.886439">
        <ele>2201.0</ele>
        <time>2018-04-21T09:46:13.000Z</time>
      </trkpt>
      <trkpt lat="40.807166" lon="-3.886445">
        <ele>2200.8</ele>
        <time>2018-04-21T09:46:14.000Z</time>
      </trkpt>
      <trkpt lat="40.80716" lon="-3.886452">
        <ele>2200.6</ele>
        <time>2018-04-21T09:46:15.000Z</time>
      </trkpt>
      <trkpt lat="40.807155" lon="-3.886458">
        <ele>2200.4</ele>
        <time>2018-04-21T09:46:16.000Z</time>
      </trkpt>
      <trkpt lat="40.807151" lon="-3.886464">
        <ele>2200.3</ele>
        <time>2018-04-21T09:46:17.000Z</time>
      </trkpt>
      <trkpt lat="40.807149" lon="-3.88647">
        <ele>2200.1</ele>
        <time>2018-04-21T09:46:18.000Z</time>
      </trkpt>
      <trkpt lat="40.807148" lon="-3.886477">
        <ele>2200.0</ele>
        <time>2018-04-21T09:46:19.000Z</time>
      </trkpt>
      <trkpt lat="40.807148" lon="-3.886483">
        <ele>2199.8</ele>
        <time>2018-04-21T09:46:20.000Z</time>
      </trkpt>
      <trkpt lat="40.807148" lon="-3.886489">
        <ele>2199.7</ele>
        <time>2018-04-21T09:46:21.000Z</time>
      </trkpt>
      <trkpt lat="40.807149" lon="-3.886495">
        <ele>2199.6</ele>
        <time>2018-04-21T09:46:22.000Z</time>
      </trkpt>
      <trkpt lat="40.80715" lon="-3.886501">
        <ele>2199.5</ele>
        <time>2018-04-21T09:46:23.000Z</time>
      </trkpt>
      <trkpt lat="40.80715" lon="-3.886507">
        <ele>2199.4</ele>
        <time>2018-04-21T09:46:24.000Z</time>
      </trkpt>
      <trkpt lat="40.80715" lon="-3.886514">
        <ele>2199.2</ele>
        <time>2018-04-21T09:46:25.000Z</time>
      </trkpt>
      <trkpt lat="40.807148" lon="-3.88652">
        <ele>2199.1</ele>
        <time>2018-04-21T09:46:26.000Z</time>
      </trkpt>
      <trkpt lat="40.807146" lon="-3.886527">
        <ele>2198.9</ele>
        <time>2018-04-21T09:46:27.000Z</time>
      </trkpt>
      <trkpt lat="40.807144" lon="-3.886534">
        <ele>2198.7</ele>
        <time>2018-04-21T09:46:28.000Z</time>
      </trkpt>
      <trkpt lat="40.807141" lon="-3.88654">
        <ele>2198.6</ele>
        <time>2018-04-21T09:46:29.000Z</time>
      </trkpt>
      <trkpt lat="40.807138" lon="-3.886547">
        <ele>2198.4</ele>
        <time>2018-04-21T09:46:30.000Z</time>
      </trkpt>
      <trkpt lat="40.807134" lon="-3.886554">
        <ele>2198.2</ele>
        <time>2018-04-21T09:46:31.000Z</time>
      </trkpt>
      <trkpt lat="40.807131" lon="-3.886561">
        <ele>2198.1</ele>
        <time>2018-04-21T09:46:32.000Z</time>
      </trkpt>
      <trkpt lat="40.807128" lon="-3.886568">
        <ele>2197.9</ele>
        <time>2018-04-21T09:46:33.000Z</time>
      </trkpt>
      <trkpt lat="40.807125" lon="-3.886575">
        <ele>2197.7</ele>
        <time>2018-04-21T09:46:34.000Z</time>
      </trkpt>
      <trkpt lat="40.807123" lon="-3.886582">
        <ele>2197.6</ele>
        <time>2018-04-21T09:46:35.000Z</time>
      </trkpt>
      <trkpt lat="40.807122" lon="-3.886589">
        <ele>2197.4</ele>
        <time>2018-04-21T09:46:36.000Z</time>
      </trkpt>
      <trkpt lat="40.807121" lon="-3.886596">
        <ele>2197.3</ele>
        <time>2018-04-21T09:46:37.000Z</time>
      </trkpt>
      <trkpt lat="40.80712" lon="-3.886602">
        <ele>2197.1</ele>
        <time>2018-04-21T09:46:38.000Z</time>
      </trkpt>
      <trkpt lat="40.80712" lon="-3.886609">
        <ele>2197.0</ele>
        <time>2018-04-21T09:46:39.000Z</time>
      </trkpt>
      <trkpt lat="40.80712" lon="-3.886616">
        <ele>2196.8</ele>
        <time>2018-04-21T09:46:40.000Z</time>
      </trkpt>
      <trkpt lat="40.807119" lon="-3.886622">
        <ele>2196.7</ele>
        <time>2018-04-21T09:46:41.000Z</time>
      </trkpt>
      <trkpt lat="40.807119" lon="-3.886629">
        <ele>2196.6</ele>
        <time>2018-04-21T09:46:42.000Z</time>
      </trkpt>
      <trkpt lat="40.807119" lon="-3.886635">
        <ele>2196.4</ele>
        <time>2018-04-21T09:46:43.000Z</time>
      </trkpt>
      <trkpt lat="40.807118" lon="-3.886641">
        <ele>2196.3</ele>
        <time>2018-04-21T09:46:44.000Z</time>
      </trkpt>
      <trkpt lat="40.807118" lon="-3.886648">
        <ele>2196.2</ele>
        <time>2018-04-21T09:46:45.000Z</time>
      </trkpt>
      <trkpt lat="40.807117" lon="-3.886654">
        <ele>2196.0</ele>
        <time>2018-04-21T09:46:46.000Z</time>
      </trkpt>
      <trkpt lat="40.807115" lon="-3.88666">
        <ele>2195.9</ele>
        <time>2018-04-21T09:46:47.000Z</time>
      </trkpt>
      <trkpt lat="40.807114" lon="-3.886667">
        <ele>2195.8</ele>
        <time>2018-04-21T09:46:48.000Z</time>
      </trkpt>
      <trkpt lat="40.807112" lon="-3.886673">
        <ele>2195.6</ele>
        <time>2018-04-21T09:46:49.000Z</time>
      </trkpt>
      <trkpt lat="40.807109" lon="-3.88668">
        <ele>2195.5</ele>
        <time>2018-04-21T09:46:50.000Z</time>
      </trkpt>
      <trkpt lat="40.807107" lon="-3.886687">
        <ele>2195.4</ele>
        <time>2018-04-21T09:46:51.000Z</time>
      </trkpt>
      <trkpt lat="40.807104" lon="-3.886694">
        <ele>2195.2</ele>
        <time>2018-04-21T09:46:52.000Z</time>
      </trkpt>
      <trkpt lat="40.807101" lon="-3.886702">
        <ele>2195.1</ele>
        <time>2018-04-21T09:46:53.000Z</time>
      </trkpt>
      <trkpt lat="40.807097" lon="-3.886709">
        <ele>2194.9</ele>
        <time>2018-04-21T09:46:54.000Z</time>
      </trkpt>
      <trkpt lat="40.807093" lon="-3.886717">
        <ele>2194.8</ele>
        <time>2018-04-21T09:46:55.000Z</time>
      </trkpt>
      <trkpt lat="40.807089" lon="-3.886725">
        <ele>2194.6</ele>
        <time>2018-04-21T09:46:56.000Z</time>
      </trkpt>
      <trkpt lat="40.807086" lon="-3.886733">
        <ele>2194.4</ele>
        <time>2018-04-21T09:46:57.000Z</time>
      </trkpt>
      <trkpt lat="40.807082" lon="-3.886741">
        <ele>2194.3</ele>
        <time>2018-04-21T09:46:58.000Z</time>
      </trkpt>
      <trkpt lat="40.807079" lon="-3.886749">
        <ele>2194.1</ele>
        <time>2018-04-21T09:46:59.000Z</time>
      </trkpt>
      <trkpt lat="40.807076" lon="-3.886757">
        <ele>2194.0</ele>
        <time>2018-04-21T09:47:00.000Z</time>
      </trkpt>
      <trkpt lat="40.807073" lon="-3.886765">
        <ele>2193.8</ele>
        <time>2018-04-21T09:47:01.000Z</time>
      </trkpt>
      <trkpt lat="40.807072" lon="-3.886772">
        <ele>2193.7</ele>
        <time>2018-04-21T09:47:02.000Z</time>
      </trkpt>
      <trkpt lat="40.807071" lon="-3.88678">
        <ele>2193.6</ele>
        <time>2018-04-21T09:47:03.000Z</time>
      </trkpt>
      <trkpt lat="40.80707" lon="-3.886787">
        <ele>2193.5</ele>
        <time>2018-04-21T09:47:04.000Z</time>
      </trkpt>
      <trkpt lat="40.807069" lon="-3.886793">
        <ele>2193.4</ele>
        <time>2018-04-21T09:47:05.000Z</time>
      </trkpt>
      <trkpt lat="40.807066" lon="-3.886799">
        <ele>2193.2</ele>
        <time>2018-04-21T09:47:06.000Z</time>
      </trkpt>
      <trkpt lat="40.80706" lon="-3.886805">
        <ele>2193.1</ele>
        <time>2018-04-21T09:47:07.000Z</time>
      </trkpt>
      <trkpt lat="40.807053" lon="-3.886811">
        <ele>2193.0</ele>
        <time>2018-04-21T09:47:08.000Z</time>
      </trkpt>
      <trkpt lat="40.807043" lon="-3.886816">
        <ele>2192.8</ele>
        <time>2018-04-21T09:47:09.000Z</time>
      </trkpt>
      <trkpt lat="40.807034" lon="-3.886821">
        <ele>2192.7</ele>
        <time>2018-04-21T09:47:10.000Z</time>
      </trkpt>
      <trkpt lat="40.807026" lon="-3.886827">
        <ele>2192.6</ele>
        <time>2018-04-21T09:47:11.000Z</time>
      </trkpt>
      <trkpt lat="40.807021" lon="-3.886833">
        <ele>2192.4</ele>
        <time>2018-04-21T09:47:12.000Z</time>
      </trkpt>
      <trkpt lat="40.807019" lon="-3.88684">
        <ele>2192.3</ele>
        <time>2018-04-21T09:47:13.000Z</time>
      </trkpt>
      <trkpt lat="40.807018" lon="-3.886846">
        <ele>2192.2</ele>
        <time>2018-04-21T09:47:14.000Z</time>
      </trkpt>
      <trkpt lat="40.807019" lon="-3.886853">
        <ele>2192.1</ele>
        <time>2018-04-21T09:47:15.000Z</time>
      </trkpt>
      <trkpt lat="40.807021" lon="-3.88686">
        <ele>2192.0</ele>
        <time>2018-04-21T09:47:16.000Z</time>
      </trkpt>
      <trkpt lat="40.807024" lon="-3.886866">
        <ele>2192.0</ele>
        <time>2018-04-21T09:47:17.000Z</time>
      </trkpt>
      <trkpt lat="40.807026" lon="-3.886872">
        <ele>2191.9</ele>
        <time>2018-04-21T09:47:18.000Z</time>
      </trkpt>
      <trkpt lat="40.807028" lon="-3.886877">
        <ele>2191.8</ele>
        <time>2018-04-21T09:47:19.000Z</time>
      </trkpt>
      <trkpt lat="40.80703" lon="-3.886881">
        <ele>2191.8</ele>
        <time>2018-04-21T09:47:20.000Z</time>
      </trkpt>
      <trkpt lat="40.80703" lon="-3.886884">
        <ele>2191.7</ele>
        <time>2018-04-21T09:47:21.000Z</time>
      </trkpt>
      <trkpt lat="40.807029" lon="-3.886888">
        <ele>2191.6</ele>
        <time>2018-04-21T09:47:22.000Z</time>
      </trkpt>
      <trkpt lat="40.807026" lon="-3.886892">
        <ele>2191.6</ele>
        <time>2018-04-21T09:47:23.000Z</time>
      </trkpt>
      <trkpt lat="40.807021" lon="-3.886898">
        <ele>2191.5</ele>
        <time>2018-04-21T09:47:24.000Z</time>
      </trkpt>
      <trkpt lat="40.807015" lon="-3.886907">
        <ele>2191.3</ele>
        <time>2018-04-21T09:47:25.000Z</time>
      </trkpt>
      <trkpt lat="40.807007" lon="-3.886919">
        <ele>2191.1</ele>
        <time>2018-04-21T09:47:26.000Z</time>
      </trkpt>
      <trkpt lat="40.806999" lon="-3.886929">
        <ele>2190.9</ele>
        <time>2018-04-21T09:47:27.000Z</time>
      </trkpt>
      <trkpt lat="40.806992" lon="-3.886933">
        <ele>2190.8</ele>
        <time>2018-04-21T09:47:28.000Z</time>
      </trkpt>
      <trkpt lat="40.806985" lon="-3.886934">
        <ele>2190.8</ele>
        <time>2018-04-21T09:47:29.000Z</time>
      </trkpt>
      <trkpt lat="40.806977" lon="-3.886934">
        <ele>2190.7</ele>
        <time>2018-04-21T09:47:30.000Z</time>
      </trkpt>
      <trkpt lat="40.806967" lon="-3.886935">
        <ele>2190.7</ele>
        <time>2018-04-21T09:47:31.000Z</time>
      </trkpt>
      <trkpt lat="40.806958" lon="-3.886937">
        <ele>2190.6</ele>
        <time>2018-04-21T09:47:32.000Z</time>
      </trkpt>
      <trkpt lat="40.806948" lon="-3.88694">
        <ele>2190.5</ele>
        <time>2018-04-21T09:47:33.000Z</time>
      </trkpt>
      <trkpt lat="40.80694" lon="-3.886945">
        <ele>2190.4</ele>
        <time>2018-04-21T09:47:34.000Z</time>
      </trkpt>
      <trkpt lat="40.806934" lon="-3.886953">
        <ele>2190.3</ele>
        <time>2018-04-21T09:47:35.000Z</time>
      </trkpt>
      <trkpt lat="40.806928" lon="-3.886962">
        <ele>2190.1</ele>
        <time>2018-04-21T09:47:36.000Z</time>
      </trkpt>
      <trkpt lat="40.806924" lon="-3.886972">
        <ele>2190.0</ele>
        <time>2018-04-21T09:47:37.000Z</time>
      </trkpt>
      <trkpt lat="40.806919" lon="-3.886983">
        <ele>2189.8</ele>
        <time>2018-04-21T09:47:38.000Z</time>
      </trkpt>
      <trkpt lat="40.806913" lon="-3.886993">
        <ele>2189.7</ele>
        <time>2018-04-21T09:47:39.000Z</time>
      </trkpt>
      <trkpt lat="40.806905" lon="-3.887003">
        <ele>2189.5</ele>
        <time>2018-04-21T09:47:40.000Z</time>
      </trkpt>
      <trkpt lat="40.806897" lon="-3.887013">
        <ele>2189.3</ele>
        <time>2018-04-21T09:47:41.000Z</time>
      </trkpt>
      <trkpt lat="40.806889" lon="-3.887023">
        <ele>2189.2</ele>
        <time>2018-04-21T09:47:42.000Z</time>
      </trkpt>
      <trkpt lat="40.80688" lon="-3.887034">
        <ele>2189.0</ele>
        <time>2018-04-21T09:47:43.000Z</time>
      </trkpt>
      <trkpt lat="40.806871" lon="-3.887045">
        <ele>2188.9</ele>
        <time>2018-04-21T09:47:44.000Z</time>
      </trkpt>
      <trkpt lat="40.806863" lon="-3.887057">
        <ele>2188.7</ele>
        <time>2018-04-21T09:47:45.000Z</time>
      </trkpt>
      <trkpt lat="40.806855" lon="-3.88707">
        <ele>2188.5</ele>
        <time>2018-04-21T09:47:46.000Z</time>
      </trkpt>
      <trkpt lat="40.806847" lon="-3.887084">
        <ele>2188.3</ele>
        <time>2018-04-21T09:47:47.000Z</time>
      </trkpt>
      <trkpt lat="40.80684" lon="-3.8871">
        <ele>2188.1</ele>
        <time>2018-04-21T09:47:48.000Z</time>
      </trkpt>
      <trkpt lat="40.806835" lon="-3.887116">
        <ele>2187.9</ele>
        <time>2018-04-21T09:47:49.000Z</time>
      </trkpt>
      <trkpt lat="40.80683" lon="-3.887134">
        <ele>2187.7</ele>
        <time>2018-04-21T09:47:50.000Z</time>
      </trkpt>
      <trkpt lat="40.806826" lon="-3.887151">
        <ele>2187.5</ele>
        <time>2018-04-21T09:47:51.000Z</time>
      </trkpt>
      <trkpt lat="40.806823" lon="-3.887169">
        <ele>2187.2</ele>
        <time>2018-04-21T09:47:52.000Z</time>
      </trkpt>
      <trkpt lat="40.806822" lon="-3.887185">
        <ele>2187.1</ele>
        <time>2018-04-21T09:47:53.000Z</time>
      </trkpt>
      <trkpt lat="40.806821" lon="-3.887201">
        <ele>2186.9</ele>
        <time>2018-04-21T09:47:54.000Z</time>
      </trkpt>
      <trkpt lat="40.806822" lon="-3.887216">
        <ele>2186.7</ele>
        <time>2018-04-21T09:47:55.000Z</time>
      </trkpt>
      <trkpt lat="40.806824" lon="-3.887228">
        <ele>2186.5</ele>
        <time>2018-04-21T09:47:56.000Z</time>
      </trkpt>
      <trkpt lat="40.806827" lon="-3.887239">
        <ele>2186.4</ele>
        <time>2018-04-21T09:47:57.000Z</time>
      </trkpt>
      <trkpt lat="40.80683" lon="-3.887247">
        <ele>2186.3</ele>
        <time>2018-04-21T09:47:58.000Z</time>
      </trkpt>
      <trkpt lat="40.806835" lon="-3.887254">
        <ele>2186.2</ele>
        <time>2018-04-21T09:47:59.000Z</time>
      </trkpt>
      <trkpt lat="40.80684" lon="-3.88726">
        <ele>2186.1</ele>
        <time>2018-04-21T09:48:00.000Z</time>
      </trkpt>
      <trkpt lat="40.806844" lon="-3.887266">
        <ele>2186.1</ele>
        <time>2018-04-21T09:48:01.000Z</time>
      </trkpt>
      <trkpt lat="40.806848" lon="-3.887271">
        <ele>2186.0</ele>
        <time>2018-04-21T09:48:02.000Z</time>
      </trkpt>
      <trkpt lat="40.806852" lon="-3.887276">
        <ele>2185.9</ele>
        <time>2018-04-21T09:48:03.000Z</time>
      </trkpt>
      <trkpt lat="40.806854" lon="-3.887281">
        <ele>2185.9</ele>
        <time>2018-04-21T09:48:04.000Z</time>
      </trkpt>
      <trkpt lat="40.806856" lon="-3.887288">
        <ele>2185.8</ele>
        <time>2018-04-21T09:48:05.000Z</time>
      </trkpt>
      <trkpt lat="40.806855" lon="-3.887295">
        <ele>2185.7</ele>
        <time>2018-04-21T09:48:06.000Z</time>
      </trkpt>
      <trkpt lat="40.806854" lon="-3.887303">
        <ele>2185.6</ele>
        <time>2018-04-21T09:48:07.000Z</time>
      </trkpt>
      <trkpt lat="40.806852" lon="-3.887312">
        <ele>2185.5</ele>
        <time>2018-04-21T09:48:08.000Z</time>
      </trkpt>
      <trkpt lat="40.806852" lon="-3.887321">
        <ele>2185.4</ele>
        <time>2018-04-21T09:48:09.000Z</time>
      </trkpt>
      <trkpt lat="40.806852" lon="-3.887329">
        <ele>2185.3</ele>
        <time>2018-04-21T09:48:10.000Z</time>
      </trkpt>
      <trkpt lat="40.806854" lon="-3.887337">
        <ele>2185.1</ele>
        <time>2018-04-21T09:48:11.000Z</time>
      </trkpt>
      <trkpt lat="40.806858" lon="-3.887344">
        <ele>2185.1</ele>
        <time>2018-04-21T09:48:12.000Z</time>
      </trkpt>
      <trkpt lat="40.806861" lon="-3.887351">
        <ele>2185.0</ele>
        <time>2018-04-21T09:48:13.000Z</time>
      </trkpt>
      <trkpt lat="40.806864" lon="-3.887359">
        <ele>2184.8</ele>
        <time>2018-04-21T09:48:14.000Z</time>
      </trkpt>
      <trkpt lat="40.806864" lon="-3.887367">
        <ele>2184.7</ele>
        <time>2018-04-21T09:48:15.000Z</time>
      </trkpt>
      <trkpt lat="40.806864" lon="-3.887376">
        <ele>2184.6</ele>
        <time>2018-04-21T09:48:16.000Z</time>
      </trkpt>
      <trkpt lat="40.806862" lon="-3.887385">
        <ele>2184.5</ele>
        <time>2018-04-21T09:48:17.000Z</time>
      </trkpt>
      <trkpt lat="40.806861" lon="-3.887392">
        <ele>2184.4</ele>
        <time>2018-04-21T09:48:18.000Z</time>
      </trkpt>
      <trkpt lat="40.806859" lon="-3.887398">
        <ele>2184.4</ele>
        <time>2018-04-21T09:48:19.000Z</time>
      </trkpt>
      <trkpt lat="40.806858" lon="-3.8874">
        <ele>2184.3</ele>
        <time>2018-04-21T09:48:20.000Z</time>
      </trkpt>
      <trkpt lat="40.806858" lon="-3.887401">
        <ele>2184.3</ele>
        <time>2018-04-21T09:48:21.000Z</time>
      </trkpt>
      <trkpt lat="40.806858" lon="-3.887401">
        <ele>2184.3</ele>
        <time>2018-04-21T09:48:22.000Z</time>
      </trkpt>
      <trkpt lat="40.806858" lon="-3.887402">
        <ele>2184.3</ele>
        <time>2018-04-21T09:48:23.000Z</time>
      </trkpt>
      <trkpt lat="40.806857" lon="-3.887403">
        <ele>2184.3</ele>
        <time>2018-04-21T09:48:24.000Z</time>
      </trkpt>
      <trkpt lat="40.806856" lon="-3.887405">
        <ele>2184.3</ele>
        <time>2018-04-21T09:48:25.000Z</time>
      </trkpt>
      <trkpt lat="40.806854" lon="-3.887407">
        <ele>2184.3</ele>
        <time>2018-04-21T09:48:26.000Z</time>
      </trkpt>
      <trkpt lat="40.806852" lon="-3.887411">
        <ele>2184.2</ele>
        <time>2018-04-21T09:48:27.000Z</time>
      </trkpt>
      <trkpt lat="40.80685" lon="-3.887416">
        <ele>2184.2</ele>
        <time>2018-04-21T09:48:28.000Z</time>
      </trkpt>
      <trkpt lat="40.806848" lon="-3.887421">
        <ele>2184.1</ele>
        <time>2018-04-21T09:48:29.000Z</time>
      </trkpt>
      <trkpt lat="40.806845" lon="-3.887426">
        <ele>2184.1</ele>
        <time>2018-04-21T09:48:30.000Z</time>
      </trkpt>
      <trkpt lat="40.806842" lon="-3.887432">
        <ele>2184.0</ele>
        <time>2018-04-21T09:48:31.000Z</time>
      </trkpt>
      <trkpt lat="40.80684" lon="-3.887439">
        <ele>2183.9</ele>
        <time>2018-04-21T09:48:32.000Z</time>
      </trkpt>
      <trkpt lat="40.806837" lon="-3.887446">
        <ele>2183.8</ele>
        <time>2018-04-21T09:48:33.000Z</time>
      </trkpt>
      <trkpt lat="40.806834" lon="-3.887453">
        <ele>2183.8</ele>
        <time>2018-04-21T09:48:34.000Z</time>
      </trkpt>
      <trkpt lat="40.806832" lon="-3.887461">
        <ele>2183.7</ele>
        <time>2018-04-21T09:48:35.000Z</time>
      </trkpt>
      <trkpt lat="40.806829" lon="-3.887469">
        <ele>2183.6</ele>
        <time>2018-04-21T09:48:36.000Z</time>
      </trkpt>
      <trkpt lat="40.806827" lon="-3.887477">
        <ele>2183.5</ele>
        <time>2018-04-21T09:48:37.000Z</time>
      </trkpt>
      <trkpt lat="40.806825" lon="-3.887486">
        <ele>2183.4</ele>
        <time>2018-04-21T09:48:38.000Z</time>
      </trkpt>
      <trkpt lat="40.806822" lon="-3.887494">
        <ele>2183.3</ele>
        <time>2018-04-21T09:48:39.000Z</time>
      </trkpt>
      <trkpt lat="40.80682" lon="-3.887503">
        <ele>2183.2</ele>
        <time>2018-04-21T09:48:40.000Z</time>
      </trkpt>
      <trkpt lat="40.806818" lon="-3.887512">
        <ele>2183.2</ele>
        <time>2018-04-21T09:48:41.000Z</time>
      </trkpt>
      <trkpt lat="40.806816" lon="-3.887521">
        <ele>2183.1</ele>
        <time>2018-04-21T09:48:42.000Z</time>
      </trkpt>
      <trkpt lat="40.806814" lon="-3.88753">
        <ele>2183.0</ele>
        <time>2018-04-21T09:48:43.000Z</time>
      </trkpt>
      <trkpt lat="40.806813" lon="-3.887539">
        <ele>2183.0</ele>
        <time>2018-04-21T09:48:44.000Z</time>
      </trkpt>
      <trkpt lat="40.806811" lon="-3.887548">
        <ele>2182.9</ele>
        <time>2018-04-21T09:48:45.000Z</time>
      </trkpt>
      <trkpt lat="40.806809" lon="-3.887557">
        <ele>2182.8</ele>
        <time>2018-04-21T09:48:46.000Z</time>
      </trkpt>
      <trkpt lat="40.806808" lon="-3.887566">
        <ele>2182.7</ele>
        <time>2018-04-21T09:48:47.000Z</time>
      </trkpt>
      <trkpt lat="40.806806" lon="-3.887574">
        <ele>2182.7</ele>
        <time>2018-04-21T09:48:48.000Z</time>
      </trkpt>
      <trkpt lat="40.806805" lon="-3.887583">
        <ele>2182.6</ele>
        <time>2018-04-21T09:48:49.000Z</time>
      </trkpt>
      <trkpt lat="40.806803" lon="-3.887591">
        <ele>2182.5</ele>
        <time>2018-04-21T09:48:50.000Z</time>
      </trkpt>
      <trkpt lat="40.806802" lon="-3.887599">
        <ele>2182.5</ele>
        <time>2018-04-21T09:48:51.000Z</time>
      </trkpt>
      <trkpt lat="40.806801" lon="-3.887607">
        <ele>2182.4</ele>
        <time>2018-04-21T09:48:52.000Z</time>
      </trkpt>
      <trkpt lat="40.8068" lon="-3.887615">
        <ele>2182.4</ele>
        <time>2018-04-21T09:48:53.000Z</time>
      </trkpt>
      <trkpt lat="40.806799" lon="-3.887622">
        <ele>2182.3</ele>
        <time>2018-04-21T09:48:54.000Z</time>
      </trkpt>
      <trkpt lat="40.806798" lon="-3.887629">
        <ele>2182.2</ele>
        <time>2018-04-21T09:48:55.000Z</time>
      </trkpt>
      <trkpt lat="40.806797" lon="-3.887636">
        <ele>2182.2</ele>
        <time>2018-04-21T09:48:56.000Z</time>
      </trkpt>
      <trkpt lat="40.806796" lon="-3.887642">
        <ele>2182.1</ele>
        <time>2018-04-21T09:48:57.000Z</time>
      </trkpt>
      <trkpt lat="40.806795" lon="-3.887648">
        <ele>2182.1</ele>
        <time>2018-04-21T09:48:58.000Z</time>
      </trkpt>
      <trkpt lat="40.806794" lon="-3.887653">
        <ele>2182.1</ele>
        <time>2018-04-21T09:48:59.000Z</time>
      </trkpt>
      <trkpt lat="40.806793" lon="-3.887658">
        <ele>2182.0</ele>
        <time>2018-04-21T09:49:00.000Z</time>
      </trkpt>
      <trkpt lat="40.806793" lon="-3.887663">
        <ele>2182.0</ele>
        <time>2018-04-21T09:49:01.000Z</time>
      </trkpt>
      <trkpt lat="40.806792" lon="-3.887667">
        <ele>2182.0</ele>
        <time>2018-04-21T09:49:02.000Z</time>
      </trkpt>
      <trkpt lat="40.806792" lon="-3.887672">
        <ele>2181.9</ele>
        <time>2018-04-21T09:49:03.000Z</time>
      </trkpt>
      <trkpt lat="40.806791" lon="-3.887677">
        <ele>2181.9</ele>
        <time>2018-04-21T09:49:04.000Z</time>
      </trkpt>
      <trkpt lat="40.806791" lon="-3.887682">
        <ele>2181.8</ele>
        <time>2018-04-21T09:49:05.000Z</time>
      </trkpt>
      <trkpt lat="40.806792" lon="-3.887689">
        <ele>2181.8</ele>
        <time>2018-04-21T09:49:06.000Z</time>
      </trkpt>
      <trkpt lat="40.806792" lon="-3.887696">
        <ele>2181.7</ele>
        <time>2018-04-21T09:49:07.000Z</time>
      </trkpt>
      <trkpt lat="40.806793" lon="-3.887704">
        <ele>2181.6</ele>
        <time>2018-04-21T09:49:08.000Z</time>
      </trkpt>
      <trkpt lat="40.806794" lon="-3.887714">
        <ele>2181.5</ele>
        <time>2018-04-21T09:49:09.000Z</time>
      </trkpt>
      <trkpt lat="40.806795" lon="-3.887724">
        <ele>2181.4</ele>
        <time>2018-04-21T09:49:10.000Z</time>
      </trkpt>
      <trkpt lat="40.806796" lon="-3.887735">
        <ele>2181.3</ele>
        <time>2018-04-21T09:49:11.000Z</time>
      </trkpt>
      <trkpt lat="40.806796" lon="-3.887744">
        <ele>2181.3</ele>
        <time>2018-04-21T09:49:12.000Z</time>
      </trkpt>
      <trkpt lat="40.806794" lon="-3.887753">
        <ele>2181.2</ele>
        <time>2018-04-21T09:49:13.000Z</time>
      </trkpt>
      <trkpt lat="40.806791" lon="-3.88776">
        <ele>2181.2</ele>
        <time>2018-04-21T09:49:14.000Z</time>
      </trkpt>
      <trkpt lat="40.806787" lon="-3.887766">
        <ele>2181.1</ele>
        <time>2018-04-21T09:49:15.000Z</time>
      </trkpt>
      <trkpt lat="40.806782" lon="-3.887771">
        <ele>2181.1</ele>
        <time>2018-04-21T09:49:16.000Z</time>
      </trkpt>
      <trkpt lat="40.806777" lon="-3.887777">
        <ele>2181.1</ele>
        <time>2018-04-21T09:49:17.000Z</time>
      </trkpt>
      <trkpt lat="40.806771" lon="-3.887784">
        <ele>2181.1</ele>
        <time>2018-04-21T09:49:18.000Z</time>
      </trkpt>
      <trkpt lat="40.806765" lon="-3.887791">
        <ele>2181.1</ele>
        <time>2018-04-21T09:49:19.000Z</time>
      </trkpt>
      <trkpt lat="40.806759" lon="-3.8878">
        <ele>2181.1</ele>
        <time>2018-04-21T09:49:20.000Z</time>
      </trkpt>
      <trkpt lat="40.806752" lon="-3.887809">
        <ele>2181.1</ele>
        <time>2018-04-21T09:49:21.000Z</time>
      </trkpt>
      <trkpt lat="40.806746" lon="-3.887818">
        <ele>2181.0</ele>
        <time>2018-04-21T09:49:22.000Z</time>
      </trkpt>
      <trkpt lat="40.80674" lon="-3.887829">
        <ele>2181.0</ele>
        <time>2018-04-21T09:49:23.000Z</time>
      </trkpt>
      <trkpt lat="40.806734" lon="-3.88784">
        <ele>2181.0</ele>
        <time>2018-04-21T09:49:24.000Z</time>
      </trkpt>
      <trkpt lat="40.806729" lon="-3.887851">
        <ele>2180.9</ele>
        <time>2018-04-21T09:49:25.000Z</time>
      </trkpt>
      <trkpt lat="40.806723" lon="-3.887862">
        <ele>2180.9</ele>
        <time>2018-04-21T09:49:26.000Z</time>
      </trkpt>
      <trkpt lat="40.806718" lon="-3.887874">
        <ele>2180.8</ele>
        <time>2018-04-21T09:49:27.000Z</time>
      </trkpt>
      <trkpt lat="40.806713" lon="-3.887886">
        <ele>2180.8</ele>
        <time>2018-04-21T09:49:28.000Z</time>
      </trkpt>
      <trkpt lat="40.806708" lon="-3.887898">
        <ele>2180.7</ele>
        <time>2018-04-21T09:49:29.000Z</time>
      </trkpt>
      <trkpt lat="40.806704" lon="-3.887911">
        <ele>2180.7</ele>
        <time>2018-04-21T09:49:30.000Z</time>
      </trkpt>
      <trkpt lat="40.8067" lon="-3.887924">
        <ele>2180.6</ele>
        <time>2018-04-21T09:49:31.000Z</time>
      </trkpt>
      <trkpt lat="40.806696" lon="-3.887937">
        <ele>2180.6</ele>
        <time>2018-04-21T09:49:32.000Z</time>
      </trkpt>
      <trkpt lat="40.806693" lon="-3.88795">
        <ele>2180.5</ele>
        <time>2018-04-21T09:49:33.000Z</time>
      </trkpt>
      <trkpt lat="40.806689" lon="-3.887964">
        <ele>2180.4</ele>
        <time>2018-04-21T09:49:34.000Z</time>
      </trkpt>
      <trkpt lat="40.806686" lon="-3.887979">
        <ele>2180.4</ele>
        <time>2018-04-21T09:49:35.000Z</time>
      </trkpt>
      <trkpt lat="40.806683" lon="-3.887994">
        <ele>2180.3</ele>
        <time>2018-04-21T09:49:36.000Z</time>
      </trkpt>
      <trkpt lat="40.806681" lon="-3.888009">
        <ele>2180.2</ele>
        <time>2018-04-21T09:49:37.000Z</time>
      </trkpt>
      <trkpt lat="40.806678" lon="-3.888024">
        <ele>2180.1</ele>
        <time>2018-04-21T09:49:38.000Z</time>
      </trkpt>
      <trkpt lat="40.806676" lon="-3.88804">
        <ele>2180.0</ele>
        <time>2018-04-21T09:49:39.000Z</time>
      </trkpt>
      <trkpt lat="40.806674" lon="-3.888055">
        <ele>2179.9</ele>
        <time>2018-04-21T09:49:40.000Z</time>
      </trkpt>
      <trkpt lat="40.806673" lon="-3.888069">
        <ele>2179.8</ele>
        <time>2018-04-21T09:49:41.000Z</time>
      </trkpt>
      <trkpt lat="40.806672" lon="-3.888083">
        <ele>2179.7</ele>
        <time>2018-04-21T09:49:42.000Z</time>
      </trkpt>
      <trkpt lat="40.806671" lon="-3.888097">
        <ele>2179.7</ele>
        <time>2018-04-21T09:49:43.000Z</time>
      </trkpt>
      <trkpt lat="40.80667" lon="-3.888109">
        <ele>2179.6</ele>
        <time>2018-04-21T09:49:44.000Z</time>
      </trkpt>
      <trkpt lat="40.80667" lon="-3.88812">
        <ele>2179.5</ele>
        <time>2018-04-21T09:49:45.000Z</time>
      </trkpt>
      <trkpt lat="40.80667" lon="-3.888131">
        <ele>2179.4</ele>
        <time>2018-04-21T09:49:46.000Z</time>
      </trkpt>
      <trkpt lat="40.80667" lon="-3.888141">
        <ele>2179.3</ele>
        <time>2018-04-21T09:49:47.000Z</time>
      </trkpt>
      <trkpt lat="40.80667" lon="-3.888152">
        <ele>2179.3</ele>
        <time>2018-04-21T09:49:48.000Z</time>
      </trkpt>
      <trkpt lat="40.806669" lon="-3.888164">
        <ele>2179.2</ele>
        <time>2018-04-21T09:49:49.000Z</time>
      </trkpt>
      <trkpt lat="40.806668" lon="-3.888177">
        <ele>2179.1</ele>
        <time>2018-04-21T09:49:50.000Z</time>
      </trkpt>
      <trkpt lat="40.806667" lon="-3.888191">
        <ele>2179.0</ele>
        <time>2018-04-21T09:49:51.000Z</time>
      </trkpt>
      <trkpt lat="40.806666" lon="-3.888206">
        <ele>2178.9</ele>
        <time>2018-04-21T09:49:52.000Z</time>
      </trkpt>
      <trkpt lat="40.806665" lon="-3.888221">
        <ele>2178.8</ele>
        <time>2018-04-21T09:49:53.000Z</time>
      </trkpt>
      <trkpt lat="40.806664" lon="-3.888236">
        <ele>2178.6</ele>
        <time>2018-04-21T09:49:54.000Z</time>
      </trkpt>
      <trkpt lat="40.806664" lon="-3.88825">
        <ele>2178.5</ele>
        <time>2018-04-21T09:49:55.000Z</time>
      </trkpt>
      <trkpt lat="40.806663" lon="-3.888264">
        <ele>2178.4</ele>
        <time>2018-04-21T09:49:56.000Z</time>
      </trkpt>
      <trkpt lat="40.806664" lon="-3.888277">
        <ele>2178.3</ele>
        <time>2018-04-21T09:49:57.000Z</time>
      </trkpt>
      <trkpt lat="40.806664" lon="-3.88829">
        <ele>2178.2</ele>
        <time>2018-04-21T09:49:58.000Z</time>
      </trkpt>
      <trkpt lat="40.806664" lon="-3.888303">
        <ele>2178.1</ele>
        <time>2018-04-21T09:49:59.000Z</time>
      </trkpt>
      <trkpt lat="40.806665" lon="-3.888316">
        <ele>2178.1</ele>
        <time>2018-04-21T09:50:00.000Z</time>
      </trkpt>
      <trkpt lat="40.806666" lon="-3.888328">
        <ele>2178.0</ele>
        <time>2018-04-21T09:50:01.000Z</time>
      </trkpt>
      <trkpt lat="40.806666" lon="-3.888341">
        <ele>2178.0</ele>
        <time>2018-04-21T09:50:02.000Z</time>
      </trkpt>
      <trkpt lat="40.806667" lon="-3.888353">
        <ele>2178.0</ele>
        <time>2018-04-21T09:50:03.000Z</time>
      </trkpt>
      <trkpt lat="40.806667" lon="-3.888365">
        <ele>2178.0</ele>
        <time>2018-04-21T09:50:04.000Z</time>
      </trkpt>
      <trkpt lat="40.806667" lon="-3.888377">
        <ele>2178.0</ele>
        <time>2018-04-21T09:50:05.000Z</time>
      </trkpt>
      <trkpt lat="40.806667" lon="-3.888389">
        <ele>2178.0</ele>
        <time>2018-04-21T09:50:06.000Z</time>
      </trkpt>
      <trkpt lat="40.806667" lon="-3.888401">
        <ele>2178.0</ele>
        <time>2018-04-21T09:50:07.000Z</time>
      </trkpt>
      <trkpt lat="40.806667" lon="-3.888413">
        <ele>2178.0</ele>
        <time>2018-04-21T09:50:08.000Z</time>
      </trkpt>
      <trkpt lat="40.806666" lon="-3.888425">
        <ele>2178.0</ele>
        <time>2018-04-21T09:50:09.000Z</time>
      </trkpt>
      <trkpt lat="40.806664" lon="-3.888437">
        <ele>2177.9</ele>
        <time>2018-04-21T09:50:10.000Z</time>
      </trkpt>
      <trkpt lat="40.806662" lon="-3.888449">
        <ele>2177.9</ele>
        <time>2018-04-21T09:50:11.000Z</time>
      </trkpt>
      <trkpt lat="40.80666" lon="-3.888461">
        <ele>2177.8</ele>
        <time>2018-04-21T09:50:12.000Z</time>
      </trkpt>
      <trkpt lat="40.806657" lon="-3.888474">
        <ele>2177.7</ele>
        <time>2018-04-21T09:50:13.000Z</time>
      </trkpt>
      <trkpt lat="40.806654" lon="-3.888486">
        <ele>2177.7</ele>
        <time>2018-04-21T09:50:14.000Z</time>
      </trkpt>
      <trkpt lat="40.80665" lon="-3.888499">
        <ele>2177.6</ele>
        <time>2018-04-21T09:50:15.000Z</time>
      </trkpt>
      <trkpt lat="40.806647" lon="-3.888512">
        <ele>2177.5</ele>
        <time>2018-04-21T09:50:16.000Z</time>
      </trkpt>
      <trkpt lat="40.806643" lon="-3.888525">
        <ele>2177.4</ele>
        <time>2018-04-21T09:50:17.000Z</time>
      </trkpt>
      <trkpt lat="40.80664" lon="-3.888538">
        <ele>2177.3</ele>
        <time>2018-04-21T09:50:18.000Z</time>
      </trkpt>
      <trkpt lat="40.806636" lon="-3.888551">
        <ele>2177.2</ele>
        <time>2018-04-21T09:50:19.000Z</time>
      </trkpt>
      <trkpt lat="40.806633" lon="-3.888564">
        <ele>2177.1</ele>
        <time>2018-04-21T09:50:20.000Z</time>
      </trkpt>
      <trkpt lat="40.806631" lon="-3.888577">
        <ele>2177.1</ele>
        <time>2018-04-21T09:50:21.000Z</time>
      </trkpt>
      <trkpt lat="40.806628" lon="-3.88859">
        <ele>2177.0</ele>
        <time>2018-04-21T09:50:22.000Z</time>
      </trkpt>
      <trkpt lat="40.806626" lon="-3.888603">
        <ele>2177.0</ele>
        <time>2018-04-21T09:50:23.000Z</time>
      </trkpt>
      <trkpt lat="40.806624" lon="-3.888616">
        <ele>2176.9</ele>
        <time>2018-04-21T09:50:24.000Z</time>
      </trkpt>
      <trkpt lat="40.806623" lon="-3.88863">
        <ele>2176.9</ele>
        <time>2018-04-21T09:50:25.000Z</time>
      </trkpt>
      <trkpt lat="40.806621" lon="-3.888643">
        <ele>2176.8</ele>
        <time>2018-04-21T09:50:26.000Z</time>
      </trkpt>
      <trkpt lat="40.80662" lon="-3.888657">
        <ele>2176.8</ele>
        <time>2018-04-21T09:50:27.000Z</time>
      </trkpt>
      <trkpt lat="40.806619" lon="-3.888671">
        <ele>2176.8</ele>
        <time>2018-04-21T09:50:28.000Z</time>
      </trkpt>
      <trkpt lat="40.806618" lon="-3.888684">
        <ele>2176.8</ele>
        <time>2018-04-21T09:50:29.000Z</time>
      </trkpt>
      <trkpt lat="40.806617" lon="-3.888698">
        <ele>2176.8</ele>
        <time>2018-04-21T09:50:30.000Z</time>
      </trkpt>
      <trkpt lat="40.806616" lon="-3.888712">
        <ele>2176.7</ele>
        <time>2018-04-21T09:50:31.000Z</time>
      </trkpt>
      <trkpt lat="40.806615" lon="-3.888726">
        <ele>2176.7</ele>
        <time>2018-04-21T09:50:32.000Z</time>
      </trkpt>
      <trkpt lat="40.806613" lon="-3.888739">
        <ele>2176.7</ele>
        <time>2018-04-21T09:50:33.000Z</time>
      </trkpt>
      <trkpt lat="40.806611" lon="-3.888752">
        <ele>2176.6</ele>
        <time>2018-04-21T09:50:34.000Z</time>
      </trkpt>
      <trkpt lat="40.806608" lon="-3.888765">
        <ele>2176.6</ele>
        <time>2018-04-21T09:50:35.000Z</time>
      </trkpt>
      <trkpt lat="40.806605" lon="-3.888776">
        <ele>2176.5</ele>
        <time>2018-04-21T09:50:36.000Z</time>
      </trkpt>
      <trkpt lat="40.8066" lon="-3.888787">
        <ele>2176.4</ele>
        <time>2018-04-21T09:50:37.000Z</time>
      </trkpt>
      <trkpt lat="40.806594" lon="-3.888797">
        <ele>2176.2</ele>
        <time>2018-04-21T09:50:38.000Z</time>
      </trkpt>
      <trkpt lat="40.806587" lon="-3.888806">
        <ele>2176.1</ele>
        <time>2018-04-21T09:50:39.000Z</time>
      </trkpt>
      <trkpt lat="40.80658" lon="-3.888814">
        <ele>2175.9</ele>
        <time>2018-04-21T09:50:40.000Z</time>
      </trkpt>
      <trkpt lat="40.806573" lon="-3.888822">
        <ele>2175.7</ele>
        <time>2018-04-21T09:50:41.000Z</time>
      </trkpt>
      <trkpt lat="40.806567" lon="-3.88883">
        <ele>2175.6</ele>
        <time>2018-04-21T09:50:42.000Z</time>
      </trkpt>
      <trkpt lat="40.806562" lon="-3.88884">
        <ele>2175.5</ele>
        <time>2018-04-21T09:50:43.000Z</time>
      </trkpt>
      <trkpt lat="40.80656" lon="-3.88885">
        <ele>2175.5</ele>
        <time>2018-04-21T09:50:44.000Z</time>
      </trkpt>
      <trkpt lat="40.80656" lon="-3.888862">
        <ele>2175.5</ele>
        <time>2018-04-21T09:50:45.000Z</time>
      </trkpt>
      <trkpt lat="40.806561" lon="-3.888874">
        <ele>2175.5</ele>
        <time>2018-04-21T09:50:46.000Z</time>
      </trkpt>
      <trkpt lat="40.806564" lon="-3.888886">
        <ele>2175.6</ele>
        <time>2018-04-21T09:50:47.000Z</time>
      </trkpt>
      <trkpt lat="40.806567" lon="-3.888897">
        <ele>2175.7</ele>
        <time>2018-04-21T09:50:48.000Z</time>
      </trkpt>
      <trkpt lat="40.80657" lon="-3.888908">
        <ele>2175.7</ele>
        <time>2018-04-21T09:50:49.000Z</time>
      </trkpt>
      <trkpt lat="40.806573" lon="-3.888918">
        <ele>2175.8</ele>
        <time>2018-04-21T09:50:50.000Z</time>
      </trkpt>
      <trkpt lat="40.806576" lon="-3.888927">
        <ele>2175.9</ele>
        <time>2018-04-21T09:50:51.000Z</time>
      </trkpt>
      <trkpt lat="40.80658" lon="-3.888936">
        <ele>2176.0</ele>
        <time>2018-04-21T09:50:52.000Z</time>
      </trkpt>
      <trkpt lat="40.806583" lon="-3.888945">
        <ele>2176.1</ele>
        <time>2018-04-21T09:50:53.000Z</time>
      </trkpt>
      <trkpt lat="40.806585" lon="-3.888953">
        <ele>2176.1</ele>
        <time>2018-04-21T09:50:54.000Z</time>
      </trkpt>
      <trkpt lat="40.806588" lon="-3.888962">
        <ele>2176.2</ele>
        <time>2018-04-21T09:50:55.000Z</time>
      </trkpt>
      <trkpt lat="40.80659" lon="-3.88897">
        <ele>2176.2</ele>
        <time>2018-04-21T09:50:56.000Z</time>
      </trkpt>
      <trkpt lat="40.806591" lon="-3.888978">
        <ele>2176.3</ele>
        <time>2018-04-21T09:50:57.000Z</time>
      </trkpt>
      <trkpt lat="40.806591" lon="-3.888987">
        <ele>2176.3</ele>
        <time>2018-04-21T09:50:58.000Z</time>
      </trkpt>
      <trkpt lat="40.806591" lon="-3.888995">
        <ele>2176.3</ele>
        <time>2018-04-21T09:50:59.000Z</time>
      </trkpt>
      <trkpt lat="40.806591" lon="-3.889002">
        <ele>2176.3</ele>
        <time>2018-04-21T09:51:00.000Z</time>
      </trkpt>
      <trkpt lat="40.80659" lon="-3.88901">
        <ele>2176.3</ele>
        <time>2018-04-21T09:51:01.000Z</time>
      </trkpt>
      <trkpt lat="40.80659" lon="-3.889017">
        <ele>2176.3</ele>
        <time>2018-04-21T09:51:02.000Z</time>
      </trkpt>
      <trkpt lat="40.806589" lon="-3.889023">
        <ele>2176.2</ele>
        <time>2018-04-21T09:51:03.000Z</time>
      </trkpt>
      <trkpt lat="40.806588" lon="-3.889028">
        <ele>2176.2</ele>
        <time>2018-04-21T09:51:04.000Z</time>
      </trkpt>
      <trkpt lat="40.806588" lon="-3.889033">
        <ele>2176.2</ele>
        <time>2018-04-21T09:51:05.000Z</time>
      </trkpt>
      <trkpt lat="40.806587" lon="-3.889037">
        <ele>2176.2</ele>
        <time>2018-04-21T09:51:06.000Z</time>
      </trkpt>
      <trkpt lat="40.806587" lon="-3.88904">
        <ele>2176.2</ele>
        <time>2018-04-21T09:51:07.000Z</time>
      </trkpt>
      <trkpt lat="40.806588" lon="-3.889043">
        <ele>2176.2</ele>
        <time>2018-04-21T09:51:08.000Z</time>
      </trkpt>
      <trkpt lat="40.806588" lon="-3.889045">
        <ele>2176.2</ele>
        <time>2018-04-21T09:51:09.000Z</time>
      </trkpt>
      <trkpt lat="40.806588" lon="-3.889047">
        <ele>2176.2</ele>
        <time>2018-04-21T09:51:10.000Z</time>
      </trkpt>
      <trkpt lat="40.806588" lon="-3.88905">
        <ele>2176.2</ele>
        <time>2018-04-21T09:51:11.000Z</time>
      </trkpt>
      <trkpt lat="40.806589" lon="-3.889053">
        <ele>2176.3</ele>
        <time>2018-04-21T09:51:12.000Z</time>
      </trkpt>
      <trkpt lat="40.806589" lon="-3.889057">
        <ele>2176.3</ele>
        <time>2018-04-21T09:51:13.000Z</time>
      </trkpt>
      <trkpt lat="40.806588" lon="-3.889061">
        <ele>2176.2</ele>
        <time>2018-04-21T09:51:14.000Z</time>
      </trkpt>
      <trkpt lat="40.806588" lon="-3.889066">
        <ele>2176.2</ele>
        <time>2018-04-21T09:51:15.000Z</time>
      </trkpt>
      <trkpt lat="40.806587" lon="-3.889073">
        <ele>2176.2</ele>
        <time>2018-04-21T09:51:16.000Z</time>
      </trkpt>
      <trkpt lat="40.806586" lon="-3.889079">
        <ele>2176.2</ele>
        <time>2018-04-21T09:51:17.000Z</time>
      </trkpt>
      <trkpt lat="40.806585" lon="-3.889087">
        <ele>2176.2</ele>
        <time>2018-04-21T09:51:18.000Z</time>
      </trkpt>
      <trkpt lat="40.806584" lon="-3.889094">
        <ele>2176.2</ele>
        <time>2018-04-21T09:51:19.000Z</time>
      </trkpt>
      <trkpt lat="40.806583" lon="-3.889101">
        <ele>2176.2</ele>
        <time>2018-04-21T09:51:20.000Z</time>
      </trkpt>
      <trkpt lat="40.806582" lon="-3.889108">
        <ele>2176.1</ele>
        <time>2018-04-21T09:51:21.000Z</time>
      </trkpt>
      <trkpt lat="40.806581" lon="-3.889115">
        <ele>2176.1</ele>
        <time>2018-04-21T09:51:22.000Z</time>
      </trkpt>
      <trkpt lat="40.80658" lon="-3.889121">
        <ele>2176.1</ele>
        <time>2018-04-21T09:51:23.000Z</time>
      </trkpt>
      <trkpt lat="40.806579" lon="-3.889126">
        <ele>2176.1</ele>
        <time>2018-04-21T09:51:24.000Z</time>
      </trkpt>
      <trkpt lat="40.806579" lon="-3.889131">
        <ele>2176.1</ele>
        <time>2018-04-21T09:51:25.000Z</time>
      </trkpt>
      <trkpt lat="40.806579" lon="-3.889134">
        <ele>2176.1</ele>
        <time>2018-04-21T09:51:26.000Z</time>
      </trkpt>
      <trkpt lat="40.806578" lon="-3.889137">
        <ele>2176.1</ele>
        <time>2018-04-21T09:51:27.000Z</time>
      </trkpt>
      <trkpt lat="40.806578" lon="-3.889138">
        <ele>2176.1</ele>
        <time>2018-04-21T09:51:28.000Z</time>
      </trkpt>
      <trkpt lat="40.806578" lon="-3.889139">
        <ele>2176.1</ele>
        <time>2018-04-21T09:51:29.000Z</time>
      </trkpt>
      <trkpt lat="40.806578" lon="-3.889139">
        <ele>2176.1</ele>
        <time>2018-04-21T09:51:30.000Z</time>
      </trkpt>
      <trkpt lat="40.806578" lon="-3.889139">
        <ele>2176.1</ele>
        <time>2018-04-21T09:51:31.000Z</time>
      </trkpt>
      <trkpt lat="40.806578" lon="-3.889138">
        <ele>2176.1</ele>
        <time>2018-04-21T09:51:32.000Z</time>
      </trkpt>
      <trkpt lat="40.806578" lon="-3.889138">
        <ele>2176.1</ele>
        <time>2018-04-21T09:51:33.000Z</time>
      </trkpt>
      <trkpt lat="40.806578" lon="-3.889138">
        <ele>2176.1</ele>
        <time>2018-04-21T09:51:34.000Z</time>
      </trkpt>
      <trkpt lat="40.806578" lon="-3.889138">
        <ele>2176.1</ele>
        <time>2018-04-21T09:51:35.000Z</time>
      </trkpt>
      <trkpt lat="40.806578" lon="-3.889139">
        <ele>2176.1</ele>
        <time>2018-04-21T09:51:36.000Z</time>
      </trkpt>
      <trkpt lat="40.806577" lon="-3.889142">
        <ele>2176.0</ele>
        <time>2018-04-21T09:51:37.000Z</time>
      </trkpt>
      <trkpt lat="40.806577" lon="-3.889145">
        <ele>2176.0</ele>
        <time>2018-04-21T09:51:38.000Z</time>
      </trkpt>
      <trkpt lat="40.806576" lon="-3.889151">
        <ele>2176.0</ele>
        <time>2018-04-21T09:51:39.000Z</time>
      </trkpt>
      <trkpt lat="40.806575" lon="-3.889157">
        <ele>2176.0</ele>
        <time>2018-04-21T09:51:40.000Z</time>
      </trkpt>
      <trkpt lat="40.806574" lon="-3.889164">
        <ele>2176.0</ele>
        <time>2018-04-21T09:51:41.000Z</time>
      </trkpt>
      <trkpt lat="40.806572" lon="-3.889171">
        <ele>2176.0</ele>
        <time>2018-04-21T09:51:42.000Z</time>
      </trkpt>
      <trkpt lat="40.80657" lon="-3.889178">
        <ele>2175.9</ele>
        <time>2018-04-21T09:51:43.000Z</time>
      </trkpt>
      <trkpt lat="40.806569" lon="-3.889184">
        <ele>2175.9</ele>
        <time>2018-04-21T09:51:44.000Z</time>
      </trkpt>
      <trkpt lat="40.806567" lon="-3.889191">
        <ele>2175.9</ele>
        <time>2018-04-21T09:51:45.000Z</time>
      </trkpt>
      <trkpt lat="40.806564" lon="-3.889196">
        <ele>2175.9</ele>
        <time>2018-04-21T09:51:46.000Z</time>
      </trkpt>
      <trkpt lat="40.806562" lon="-3.889202">
        <ele>2175.9</ele>
        <time>2018-04-21T09:51:47.000Z</time>
      </trkpt>
      <trkpt lat="40.80656" lon="-3.889207">
        <ele>2175.8</ele>
        <time>2018-04-21T09:51:48.000Z</time>
      </trkpt>
      <trkpt lat="40.806558" lon="-3.889213">
        <ele>2175.8</ele>
        <time>2018-04-21T09:51:49.000Z</time>
      </trkpt>
      <trkpt lat="40.806556" lon="-3.889218">
        <ele>2175.8</ele>
        <time>2018-04-21T09:51:50.000Z</time>
      </trkpt>
      <trkpt lat="40.806554" lon="-3.889223">
        <ele>2175.7</ele>
        <time>2018-04-21T09:51:51.000Z</time>
      </trkpt>
      <trkpt lat="40.806552" lon="-3.889227">
        <ele>2175.7</ele>
        <time>2018-04-21T09:51:52.000Z</time>
      </trkpt>
      <trkpt lat="40.80655" lon="-3.889232">
        <ele>2175.7</ele>
        <time>2018-04-21T09:51:53.000Z</time>
      </trkpt>
      <trkpt lat="40.806549" lon="-3.889237">
        <ele>2175.7</ele>
        <time>2018-04-21T09:51:54.000Z</time>
      </trkpt>
      <trkpt lat="40.806547" lon="-3.889242">
        <ele>2175.7</ele>
        <time>2018-04-21T09:51:55.000Z</time>
      </trkpt>
      <trkpt lat="40.806546" lon="-3.889247">
        <ele>2175.7</ele>
        <time>2018-04-21T09:51:56.000Z</time>
      </trkpt>
      <trkpt lat="40.806546" lon="-3.889252">
        <ele>2175.7</ele>
        <time>2018-04-21T09:51:57.000Z</time>
      </trkpt>
      <trkpt lat="40.806545" lon="-3.889258">
        <ele>2175.7</ele>
        <time>2018-04-21T09:51:58.000Z</time>
      </trkpt>
      <trkpt lat="40.806546" lon="-3.889263">
        <ele>2175.7</ele>
        <time>2018-04-21T09:51:59.000Z</time>
      </trkpt>
      <trkpt lat="40.806546" lon="-3.889269">
        <ele>2175.7</ele>
        <time>2018-04-21T09:52:00.000Z</time>
      </trkpt>
      <trkpt lat="40.806547" lon="-3.889275">
        <ele>2175.8</ele>
        <time>2018-04-21T09:52:01.000Z</time>
      </trkpt>
      <trkpt lat="40.806549" lon="-3.889281">
        <ele>2175.8</ele>
        <time>2018-04-21T09:52:02.000Z</time>
      </trkpt>
      <trkpt lat="40.80655" lon="-3.889288">
        <ele>2175.9</ele>
        <time>2018-04-21T09:52:03.000Z</time>
      </trkpt>
      <trkpt lat="40.806552" lon="-3.889295">
        <ele>2175.9</ele>
        <time>2018-04-21T09:52:04.000Z</time>
      </trkpt>
      <trkpt lat="40.806552" lon="-3.889302">
        <ele>2176.0</ele>
        <time>2018-04-21T09:52:05.000Z</time>
      </trkpt>
      <trkpt lat="40.806553" lon="-3.889309">
        <ele>2176.0</ele>
        <time>2018-04-21T09:52:06.000Z</time>
      </trkpt>
      <trkpt lat="40.806552" lon="-3.889317">
        <ele>2176.0</ele>
        <time>2018-04-21T09:52:07.000Z</time>
      </trkpt>
      <trkpt lat="40.806551" lon="-3.889325">
        <ele>2176.0</ele>
        <time>2018-04-21T09:52:08.000Z</time>
      </trkpt>
      <trkpt lat="40.806548" lon="-3.889333">
        <ele>2176.0</ele>
        <time>2018-04-21T09:52:09.000Z</time>
      </trkpt>
      <trkpt lat="40.806544" lon="-3.889342">
        <ele>2175.9</ele>
        <time>2018-04-21T09:52:10.000Z</time>
      </trkpt>
      <trkpt lat="40.80654" lon="-3.88935">
        <ele>2175.9</ele>
        <time>2018-04-21T09:52:11.000Z</time>
      </trkpt>
      <trkpt lat="40.806535" lon="-3.889358">
        <ele>2175.8</ele>
        <time>2018-04-21T09:52:12.000Z</time>
      </trkpt>
      <trkpt lat="40.80653" lon="-3.889365">
        <ele>2175.7</ele>
        <time>2018-04-21T09:52:13.000Z</time>
      </trkpt>
      <trkpt lat="40.806527" lon="-3.88937">
        <ele>2175.7</ele>
        <time>2018-04-21T09:52:14.000Z</time>
      </trkpt>
      <trkpt lat="40.806525" lon="-3.889375">
        <ele>2175.7</ele>
        <time>2018-04-21T09:52:15.000Z</time>
      </trkpt>
      <trkpt lat="40.806525" lon="-3.889377">
        <ele>2175.7</ele>
        <time>2018-04-21T09:52:16.000Z</time>
      </trkpt>
      <trkpt lat="40.806525" lon="-3.889379">
        <ele>2175.7</ele>
        <time>2018-04-21T09:52:17.000Z</time>
      </trkpt>
      <trkpt lat="40.806526" lon="-3.88938">
        <ele>2175.7</ele>
        <time>2018-04-21T09:52:18.000Z</time>
      </trkpt>
      <trkpt lat="40.806526" lon="-3.88938">
        <ele>2175.7</ele>
        <time>2018-04-21T09:52:19.000Z</time>
      </trkpt>
      <trkpt lat="40.806526" lon="-3.88938">
        <ele>2175.7</ele>
        <time>2018-04-21T09:52:20.000Z</time>
      </trkpt>
      <trkpt lat="40.806526" lon="-3.889379">
        <ele>2175.7</ele>
        <time>2018-04-21T09:52:21.000Z</time>
      </trkpt>
      <trkpt lat="40.806526" lon="-3.889379">
        <ele>2175.7</ele>
        <time>2018-04-21T09:52:22.000Z</time>
      </trkpt>
      <trkpt lat="40.806526" lon="-3.889381">
        <ele>2175.7</ele>
        <time>2018-04-21T09:52:23.000Z</time>
      </trkpt>
      <trkpt lat="40.806527" lon="-3.889383">
        <ele>2175.7</ele>
        <time>2018-04-21T09:52:24.000Z</time>
      </trkpt>
      <trkpt lat="40.806527" lon="-3.889387">
        <ele>2175.7</ele>
        <time>2018-04-21T09:52:25.000Z</time>
      </trkpt>
      <trkpt lat="40.806527" lon="-3.889392">
        <ele>2175.8</ele>
        <time>2018-04-21T09:52:26.000Z</time>
      </trkpt>
      <trkpt lat="40.806526" lon="-3.889399">
        <ele>2175.8</ele>
        <time>2018-04-21T09:52:27.000Z</time>
      </trkpt>
      <trkpt lat="40.806524" lon="-3.889408">
        <ele>2175.7</ele>
        <time>2018-04-21T09:52:28.000Z</time>
      </trkpt>
      <trkpt lat="40.806519" lon="-3.889417">
        <ele>2175.7</ele>
        <time>2018-04-21T09:52:29.000Z</time>
      </trkpt>
      <trkpt lat="40.806514" lon="-3.889427">
        <ele>2175.6</ele>
        <time>2018-04-21T09:52:30.000Z</time>
      </trkpt>
      <trkpt lat="40.806508" lon="-3.889437">
        <ele>2175.5</ele>
        <time>2018-04-21T09:52:31.000Z</time>
      </trkpt>
      <trkpt lat="40.806502" lon="-3.889445">
        <ele>2175.4</ele>
        <time>2018-04-21T09:52:32.000Z</time>
      </trkpt>
      <trkpt lat="40.806495" lon="-3.889452">
        <ele>2175.3</ele>
        <time>2018-04-21T09:52:33.000Z</time>
      </trkpt>
      <trkpt lat="40.806489" lon="-3.889457">
        <ele>2175.2</ele>
        <time>2018-04-21T09:52:34.000Z</time>
      </trkpt>
      <trkpt lat="40.806483" lon="-3.889461">
        <ele>2175.1</ele>
        <time>2018-04-21T09:52:35.000Z</time>
      </trkpt>
      <trkpt lat="40.806478" lon="-3.889466">
        <ele>2175.0</ele>
        <time>2018-04-21T09:52:36.000Z</time>
      </trkpt>
      <trkpt lat="40.806473" lon="-3.889471">
        <ele>2175.0</ele>
        <time>2018-04-21T09:52:37.000Z</time>
      </trkpt>
      <trkpt lat="40.80647" lon="-3.889477">
        <ele>2174.9</ele>
        <time>2018-04-21T09:52:38.000Z</time>
      </trkpt>
      <trkpt lat="40.806467" lon="-3.889483">
        <ele>2174.9</ele>
        <time>2018-04-21T09:52:39.000Z</time>
      </trkpt>
      <trkpt lat="40.806465" lon="-3.88949">
        <ele>2174.9</ele>
        <time>2018-04-21T09:52:40.000Z</time>
      </trkpt>
      <trkpt lat="40.806464" lon="-3.889498">
        <ele>2174.9</ele>
        <time>2018-04-21T09:52:41.000Z</time>
      </trkpt>
      <trkpt lat="40.806464" lon="-3.889506">
        <ele>2174.9</ele>
        <time>2018-04-21T09:52:42.000Z</time>
      </trkpt>
      <trkpt lat="40.806464" lon="-3.889515">
        <ele>2175.0</ele>
        <time>2018-04-21T09:52:43.000Z</time>
      </trkpt>
      <trkpt lat="40.806465" lon="-3.889524">
        <ele>2175.0</ele>
        <time>2018-04-21T09:52:44.000Z</time>
      </trkpt>
      <trkpt lat="40.806467" lon="-3.889534">
        <ele>2175.1</ele>
        <time>2018-04-21T09:52:45.000Z</time>
      </trkpt>
      <trkpt lat="40.806469" lon="-3.889544">
        <ele>2175.2</ele>
        <time>2018-04-21T09:52:46.000Z</time>
      </trkpt>
      <trkpt lat="40.806472" lon="-3.889555">
        <ele>2175.3</ele>
        <time>2018-04-21T09:52:47.000Z</time>
      </trkpt>
      <trkpt lat="40.806475" lon="-3.889567">
        <ele>2175.4</ele>
        <time>2018-04-21T09:52:48.000Z</time>
      </trkpt>
      <trkpt lat="40.806477" lon="-3.88958">
        <ele>2175.5</ele>
        <time>2018-04-21T09:52:49.000Z</time>
      </trkpt>
      <trkpt lat="40.80648" lon="-3.889593">
        <ele>2175.6</ele>
        <time>2018-04-21T09:52:50.000Z</time>
      </trkpt>
      <trkpt lat="40.806482" lon="-3.889608">
        <ele>2175.7</ele>
        <time>2018-04-21T09:52:51.000Z</time>
      </trkpt>
      <trkpt lat="40.806484" lon="-3.889623">
        <ele>2175.7</ele>
        <time>2018-04-21T09:52:52.000Z</time>
      </trkpt>
      <trkpt lat="40.806485" lon="-3.889638">
        <ele>2175.8</ele>
        <time>2018-04-21T09:52:53.000Z</time>
      </trkpt>
      <trkpt lat="40.806485" lon="-3.889652">
        <ele>2175.9</ele>
        <time>2018-04-21T09:52:54.000Z</time>
      </trkpt>
      <trkpt lat="40.806483" lon="-3.889664">
        <ele>2175.9</ele>
        <time>2018-04-21T09:52:55.000Z</time>
      </trkpt>
      <trkpt lat="40.806481" lon="-3.889675">
        <ele>2175.9</ele>
        <time>2018-04-21T09:52:56.000Z</time>
      </trkpt>
      <trkpt lat="40.806479" lon="-3.889686">
        <ele>2175.9</ele>
        <time>2018-04-21T09:52:57.000Z</time>
      </trkpt>
      <trkpt lat="40.806477" lon="-3.889695">
        <ele>2175.9</ele>
        <time>2018-04-21T09:52:58.000Z</time>
      </trkpt>
      <trkpt lat="40.806476" lon="-3.889703">
        <ele>2175.9</ele>
        <time>2018-04-21T09:52:59.000Z</time>
      </trkpt>
      <trkpt lat="40.806476" lon="-3.889711">
        <ele>2175.9</ele>
        <time>2018-04-21T09:53:00.000Z</time>
      </trkpt>
      <trkpt lat="40.806479" lon="-3.889719">
        <ele>2176.0</ele>
        <time>2018-04-21T09:53:01.000Z</time>
      </trkpt>
      <trkpt lat="40.806482" lon="-3.889726">
        <ele>2176.1</ele>
        <time>2018-04-21T09:53:02.000Z</time>
      </trkpt>
      <trkpt lat="40.806486" lon="-3.889733">
        <ele>2176.2</ele>
        <time>2018-04-21T09:53:03.000Z</time>
      </trkpt>
      <trkpt lat="40.806491" lon="-3.889739">
        <ele>2176.3</ele>
        <time>2018-04-21T09:53:04.000Z</time>
      </trkpt>
      <trkpt lat="40.806496" lon="-3.889746">
        <ele>2176.4</ele>
        <time>2018-04-21T09:53:05.000Z</time>
      </trkpt>
      <trkpt lat="40.8065" lon="-3.889753">
        <ele>2176.5</ele>
        <time>2018-04-21T09:53:06.000Z</time>
      </trkpt>
      <trkpt lat="40.806502" lon="-3.88976">
        <ele>2176.6</ele>
        <time>2018-04-21T09:53:07.000Z</time>
      </trkpt>
      <trkpt lat="40.806502" lon="-3.889768">
        <ele>2176.6</ele>
        <time>2018-04-21T09:53:08.000Z</time>
      </trkpt>
      <trkpt lat="40.806498" lon="-3.889777">
        <ele>2176.6</ele>
        <time>2018-04-21T09:53:09.000Z</time>
      </trkpt>
      <trkpt lat="40.806492" lon="-3.889787">
        <ele>2176.5</ele>
        <time>2018-04-21T09:53:10.000Z</time>
      </trkpt>
      <trkpt lat="40.806485" lon="-3.889797">
        <ele>2176.4</ele>
        <time>2018-04-21T09:53:11.000Z</time>
      </trkpt>
      <trkpt lat="40.806478" lon="-3.889809">
        <ele>2176.3</ele>
        <time>2018-04-21T09:53:12.000Z</time>
      </trkpt>
      <trkpt lat="40.806472" lon="-3.889822">
        <ele>2176.3</ele>
        <time>2018-04-21T09:53:13.000Z</time>
      </trkpt>
      <trkpt lat="40.806467" lon="-3.889836">
        <ele>2176.3</ele>
        <time>2018-04-21T09:53:14.000Z</time>
      </trkpt>
      <trkpt lat="40.806464" lon="-3.88985">
        <ele>2176.3</ele>
        <time>2018-04-21T09:53:15.000Z</time>
      </trkpt>
      <trkpt lat="40.806461" lon="-3.889864">
        <ele>2176.3</ele>
        <time>2018-04-21T09:53:16.000Z</time>
      </trkpt>
      <trkpt lat="40.806459" lon="-3.889878">
        <ele>2176.3</ele>
        <time>2018-04-21T09:53:17.000Z</time>
      </trkpt>
      <trkpt lat="40.806459" lon="-3.889892">
        <ele>2176.3</ele>
        <time>2018-04-21T09:53:18.000Z</time>
      </trkpt>
      <trkpt lat="40.806459" lon="-3.889905">
        <ele>2176.4</ele>
        <time>2018-04-21T09:53:19.000Z</time>
      </trkpt>
      <trkpt lat="40.806459" lon="-3.889917">
        <ele>2176.4</ele>
        <time>2018-04-21T09:53:20.000Z</time>
      </trkpt>
      <trkpt lat="40.80646" lon="-3.889928">
        <ele>2176.5</ele>
        <time>2018-04-21T09:53:21.000Z</time>
      </trkpt>
      <trkpt lat="40.806461" lon="-3.889939">
        <ele>2176.6</ele>
        <time>2018-04-21T09:53:22.000Z</time>
      </trkpt>
      <trkpt lat="40.806463" lon="-3.889949">
        <ele>2176.6</ele>
        <time>2018-04-21T09:53:23.000Z</time>
      </trkpt>
      <trkpt lat="40.806465" lon="-3.889959">
        <ele>2176.7</ele>
        <time>2018-04-21T09:53:24.000Z</time>
      </trkpt>
      <trkpt lat="40.806467" lon="-3.889969">
        <ele>2176.8</ele>
        <time>2018-04-21T09:53:25.000Z</time>
      </trkpt>
      <trkpt lat="40.80647" lon="-3.889978">
        <ele>2176.8</ele>
        <time>2018-04-21T09:53:26.000Z</time>
      </trkpt>
      <trkpt lat="40.806473" lon="-3.889987">
        <ele>2176.9</ele>
        <time>2018-04-21T09:53:27.000Z</time>
      </trkpt>
      <trkpt lat="40.806476" lon="-3.889997">
        <ele>2177.0</ele>
        <time>2018-04-21T09:53:28.000Z</time>
      </trkpt>
      <trkpt lat="40.806481" lon="-3.890007">
        <ele>2177.1</ele>
        <time>2018-04-21T09:53:29.000Z</time>
      </trkpt>
      <trkpt lat="40.806485" lon="-3.890017">
        <ele>2177.2</ele>
        <time>2018-04-21T09:53:30.000Z</time>
      </trkpt>
      <trkpt lat="40.80649" lon="-3.890027">
        <ele>2177.3</ele>
        <time>2018-04-21T09:53:31.000Z</time>
      </trkpt>
      <trkpt lat="40.806496" lon="-3.890038">
        <ele>2177.4</ele>
        <time>2018-04-21T09:53:32.000Z</time>
      </trkpt>
      <trkpt lat="40.806501" lon="-3.89005">
        <ele>2177.5</ele>
        <time>2018-04-21T09:53:33.000Z</time>
      </trkpt>
      <trkpt lat="40.806507" lon="-3.890061">
        <ele>2177.6</ele>
        <time>2018-04-21T09:53:34.000Z</time>
      </trkpt>
      <trkpt lat="40.806513" lon="-3.890072">
        <ele>2177.7</ele>
        <time>2018-04-21T09:53:35.000Z</time>
      </trkpt>
      <trkpt lat="40.806518" lon="-3.890083">
        <ele>2177.8</ele>
        <time>2018-04-21T09:53:36.000Z</time>
      </trkpt>
      <trkpt lat="40.806523" lon="-3.890093">
        <ele>2177.9</ele>
        <time>2018-04-21T09:53:37.000Z</time>
      </trkpt>
      <trkpt lat="40.806528" lon="-3.890103">
        <ele>2178.0</ele>
        <time>2018-04-21T09:53:38.000Z</time>
      </trkpt>
      <trkpt lat="40.806532" lon="-3.890112">
        <ele>2178.1</ele>
        <time>2018-04-21T09:53:39.000Z</time>
      </trkpt>
      <trkpt lat="40.806535" lon="-3.89012">
        <ele>2178.2</ele>
        <time>2018-04-21T09:53:40.000Z</time>
      </trkpt>
      <trkpt lat="40.806537" lon="-3.890128">
        <ele>2178.2</ele>
        <time>2018-04-21T09:53:41.000Z</time>
      </trkpt>
      <trkpt lat="40.806537" lon="-3.890134">
        <ele>2178.2</ele>
        <time>2018-04-21T09:53:42.000Z</time>
      </trkpt>
      <trkpt lat="40.806535" lon="-3.890141">
        <ele>2178.2</ele>
        <time>2018-04-21T09:53:43.000Z</time>
      </trkpt>
      <trkpt lat="40.806531" lon="-3.890146">
        <ele>2178.1</ele>
        <time>2018-04-21T09:53:44.000Z</time>
      </trkpt>
      <trkpt lat="40.806524" lon="-3.890152">
        <ele>2178.1</ele>
        <time>2018-04-21T09:53:45.000Z</time>
      </trkpt>
      <trkpt lat="40.806516" lon="-3.890156">
        <ele>2177.9</ele>
        <time>2018-04-21T09:53:46.000Z</time>
      </trkpt>
      <trkpt lat="40.806507" lon="-3.890161">
        <ele>2177.8</ele>
        <time>2018-04-21T09:53:47.000Z</time>
      </trkpt>
      <trkpt lat="40.8065" lon="-3.890165">
        <ele>2177.7</ele>
        <time>2018-04-21T09:53:48.000Z</time>
      </trkpt>
      <trkpt lat="40.806494" lon="-3.890168">
        <ele>2177.6</ele>
        <time>2018-04-21T09:53:49.000Z</time>
      </trkpt>
      <trkpt lat="40.80649" lon="-3.89017">
        <ele>2177.6</ele>
        <time>2018-04-21T09:53:50.000Z</time>
      </trkpt>
      <trkpt lat="40.806488" lon="-3.890172">
        <ele>2177.6</ele>
        <time>2018-04-21T09:53:51.000Z</time>
      </trkpt>
      <trkpt lat="40.806486" lon="-3.890174">
        <ele>2177.5</ele>
        <time>2018-04-21T09:53:52.000Z</time>
      </trkpt>
      <trkpt lat="40.806486" lon="-3.890176">
        <ele>2177.5</ele>
        <time>2018-04-21T09:53:53.000Z</time>
      </trkpt>
      <trkpt lat="40.806487" lon="-3.890178">
        <ele>2177.5</ele>
        <time>2018-04-21T09:53:54.000Z</time>
      </trkpt>
      <trkpt lat="40.806487" lon="-3.890181">
        <ele>2177.6</ele>
        <time>2018-04-21T09:53:55.000Z</time>
      </trkpt>
      <trkpt lat="40.806488" lon="-3.890184">
        <ele>2177.6</ele>
        <time>2018-04-21T09:53:56.000Z</time>
      </trkpt>
      <trkpt lat="40.806488" lon="-3.890188">
        <ele>2177.6</ele>
        <time>2018-04-21T09:53:57.000Z</time>
      </trkpt>
      <trkpt lat="40.806487" lon="-3.890193">
        <ele>2177.6</ele>
        <time>2018-04-21T09:53:58.000Z</time>
      </trkpt>
      <trkpt lat="40.806486" lon="-3.890199">
        <ele>2177.6</ele>
        <time>2018-04-21T09:53:59.000Z</time>
      </trkpt>
      <trkpt lat="40.806484" lon="-3.890205">
        <ele>2177.6</ele>
        <time>2018-04-21T09:54:00.000Z</time>
      </trkpt>
      <trkpt lat="40.806482" lon="-3.890213">
        <ele>2177.5</ele>
        <time>2018-04-21T09:54:01.000Z</time>
      </trkpt>
      <trkpt lat="40.80648" lon="-3.89022">
        <ele>2177.5</ele>
        <time>2018-04-21T09:54:02.000Z</time>
      </trkpt>
      <trkpt lat="40.806477" lon="-3.890228">
        <ele>2177.5</ele>
        <time>2018-04-21T09:54:03.000Z</time>
      </trkpt>
      <trkpt lat="40.806474" lon="-3.890237">
        <ele>2177.5</ele>
        <time>2018-04-21T09:54:04.000Z</time>
      </trkpt>
      <trkpt lat="40.806471" lon="-3.890245">
        <ele>2177.4</ele>
        <time>2018-04-21T09:54:05.000Z</time>
      </trkpt>
      <trkpt lat="40.806469" lon="-3.890253">
        <ele>2177.4</ele>
        <time>2018-04-21T09:54:06.000Z</time>
      </trkpt>
      <trkpt lat="40.806466" lon="-3.890261">
        <ele>2177.4</ele>
        <time>2018-04-21T09:54:07.000Z</time>
      </trkpt>
      <trkpt lat="40.806463" lon="-3.890269">
        <ele>2177.4</ele>
        <time>2018-04-21T09:54:08.000Z</time>
      </trkpt>
      <trkpt lat="40.806461" lon="-3.890278">
        <ele>2177.4</ele>
        <time>2018-04-21T09:54:09.000Z</time>
      </trkpt>
      <trkpt lat="40.806458" lon="-3.890286">
        <ele>2177.3</ele>
        <time>2018-04-21T09:54:10.000Z</time>
      </trkpt>
      <trkpt lat="40.806455" lon="-3.890294">
        <ele>2177.3</ele>
        <time>2018-04-21T09:54:11.000Z</time>
      </trkpt>
      <trkpt lat="40.806452" lon="-3.890303">
        <ele>2177.3</ele>
        <time>2018-04-21T09:54:12.000Z</time>
      </trkpt>
      <trkpt lat="40.806449" lon="-3.890312">
        <ele>2177.3</ele>
        <time>2018-04-21T09:54:13.000Z</time>
      </trkpt>
      <trkpt lat="40.806446" lon="-3.890322">
        <ele>2177.3</ele>
        <time>2018-04-21T09:54:14.000Z</time>
      </trkpt>
      <trkpt lat="40.806442" lon="-3.890332">
        <ele>2177.2</ele>
        <time>2018-04-21T09:54:15.000Z</time>
      </trkpt>
      <trkpt lat="40.806439" lon="-3.890343">
        <ele>2177.2</ele>
        <time>2018-04-21T09:54:16.000Z</time>
      </trkpt>
      <trkpt lat="40.806434" lon="-3.890354">
        <ele>2177.2</ele>
        <time>2018-04-21T09:54:17.000Z</time>
      </trkpt>
      <trkpt lat="40.80643" lon="-3.890365">
        <ele>2177.1</ele>
        <time>2018-04-21T09:54:18.000Z</time>
      </trkpt>
      <trkpt lat="40.806426" lon="-3.890377">
        <ele>2177.1</ele>
        <time>2018-04-21T09:54:19.000Z</time>
      </trkpt>
      <trkpt lat="40.806422" lon="-3.890388">
        <ele>2177.1</ele>
        <time>2018-04-21T09:54:20.000Z</time>
      </trkpt>
      <trkpt lat="40.806418" lon="-3.890399">
        <ele>2177.0</ele>
        <time>2018-04-21T09:54:21.000Z</time>
      </trkpt>
      <trkpt lat="40.806414" lon="-3.890408">
        <ele>2177.0</ele>
        <time>2018-04-21T09:54:22.000Z</time>
      </trkpt>
      <trkpt lat="40.806411" lon="-3.890418">
        <ele>2177.0</ele>
        <time>2018-04-21T09:54:23.000Z</time>
      </trkpt>
      <trkpt lat="40.806408" lon="-3.890425">
        <ele>2176.9</ele>
        <time>2018-04-21T09:54:24.000Z</time>
      </trkpt>
      <trkpt lat="40.806406" lon="-3.890432">
        <ele>2176.9</ele>
        <time>2018-04-21T09:54:25.000Z</time>
      </trkpt>
      <trkpt lat="40.806404" lon="-3.890437">
        <ele>2176.9</ele>
        <time>2018-04-21T09:54:26.000Z</time>
      </trkpt>
      <trkpt lat="40.806403" lon="-3.890441">
        <ele>2176.9</ele>
        <time>2018-04-21T09:54:27.000Z</time>
      </trkpt>
      <trkpt lat="40.806402" lon="-3.890444">
        <ele>2176.9</ele>
        <time>2018-04-21T09:54:28.000Z</time>
      </trkpt>
      <trkpt lat="40.806402" lon="-3.890446">
        <ele>2176.9</ele>
        <time>2018-04-21T09:54:29.000Z</time>
      </trkpt>
      <trkpt lat="40.806402" lon="-3.890448">
        <ele>2176.9</ele>
        <time>2018-04-21T09:54:30.000Z</time>
      </trkpt>
      <trkpt lat="40.806403" lon="-3.890448">
        <ele>2176.9</ele>
        <time>2018-04-21T09:54:31.000Z</time>
      </trkpt>
      <trkpt lat="40.806404" lon="-3.890448">
        <ele>2176.9</ele>
        <time>2018-04-21T09:54:32.000Z</time>
      </trkpt>
      <trkpt lat="40.806404" lon="-3.890447">
        <ele>2176.9</ele>
        <time>2018-04-21T09:54:33.000Z</time>
      </trkpt>
      <trkpt lat="40.806405" lon="-3.890446">
        <ele>2177.0</ele>
        <time>2018-04-21T09:54:34.000Z</time>
      </trkpt>
      <trkpt lat="40.806406" lon="-3.890444">
        <ele>2177.0</ele>
        <time>2018-04-21T09:54:35.000Z</time>
      </trkpt>
      <trkpt lat="40.806407" lon="-3.890443">
        <ele>2177.0</ele>
        <time>2018-04-21T09:54:36.000Z</time>
      </trkpt>
      <trkpt lat="40.806407" lon="-3.890442">
        <ele>2177.0</ele>
        <time>2018-04-21T09:54:37.000Z</time>
      </trkpt>
      <trkpt lat="40.806408" lon="-3.890442">
        <ele>2177.0</ele>
        <time>2018-04-21T09:54:38.000Z</time>
      </trkpt>
      <trkpt lat="40.806408" lon="-3.890442">
        <ele>2177.0</ele>
        <time>2018-04-21T09:54:39.000Z</time>
      </trkpt>
      <trkpt lat="40.806407" lon="-3.890444">
        <ele>2177.0</ele>
        <time>2018-04-21T09:54:40.000Z</time>
      </trkpt>
      <trkpt lat="40.806406" lon="-3.890448">
        <ele>2177.0</ele>
        <time>2018-04-21T09:54:41.000Z</time>
      </trkpt>
      <trkpt lat="40.806404" lon="-3.890453">
        <ele>2177.0</ele>
        <time>2018-04-21T09:54:42.000Z</time>
      </trkpt>
      <trkpt lat="40.806401" lon="-3.89046">
        <ele>2176.9</ele>
        <time>2018-04-21T09:54:43.000Z</time>
      </trkpt>
      <trkpt lat="40.806398" lon="-3.890468">
        <ele>2176.9</ele>
        <time>2018-04-21T09:54:44.000Z</time>
      </trkpt>
      <trkpt lat="40.806395" lon="-3.890477">
        <ele>2176.9</ele>
        <time>2018-04-21T09:54:45.000Z</time>
      </trkpt>
      <trkpt lat="40.806392" lon="-3.890487">
        <ele>2176.9</ele>
        <time>2018-04-21T09:54:46.000Z</time>
      </trkpt>
      <trkpt lat="40.80639" lon="-3.890497">
        <ele>2176.9</ele>
        <time>2018-04-21T09:54:47.000Z</time>
      </trkpt>
      <trkpt lat="40.806388" lon="-3.890506">
        <ele>2176.9</ele>
        <time>2018-04-21T09:54:48.000Z</time>
      </trkpt>
      <trkpt lat="40.806388" lon="-3.890514">
        <ele>2176.9</ele>
        <time>2018-04-21T09:54:49.000Z</time>
      </trkpt>
      <trkpt lat="40.806387" lon="-3.890521">
        <ele>2176.9</ele>
        <time>2018-04-21T09:54:50.000Z</time>
      </trkpt>
      <trkpt lat="40.806387" lon="-3.890526">
        <ele>2176.9</ele>
        <time>2018-04-21T09:54:51.000Z</time>
      </trkpt>
      <trkpt lat="40.806387" lon="-3.890529">
        <ele>2176.9</ele>
        <time>2018-04-21T09:54:52.000Z</time>
      </trkpt>
      <trkpt lat="40.806387" lon="-3.89053">
        <ele>2176.9</ele>
        <time>2018-04-21T09:54:53.000Z</time>
      </trkpt>
      <trkpt lat="40.806387" lon="-3.89053">
        <ele>2176.9</ele>
        <time>2018-04-21T09:54:54.000Z</time>
      </trkpt>
      <trkpt lat="40.806387" lon="-3.890529">
        <ele>2176.9</ele>
        <time>2018-04-21T09:54:55.000Z</time>
      </trkpt>
      <trkpt lat="40.806387" lon="-3.890529">
        <ele>2176.9</ele>
        <time>2018-04-21T09:54:56.000Z</time>
      </trkpt>
      <trkpt lat="40.806387" lon="-3.89053">
        <ele>2176.9</ele>
        <time>2018-04-21T09:54:57.000Z</time>
      </trkpt>
      <trkpt lat="40.806387" lon="-3.890531">
        <ele>2176.9</ele>
        <time>2018-04-21T09:54:58.000Z</time>
      </trkpt>
      <trkpt lat="40.806387" lon="-3.890533">
        <ele>2176.9</ele>
        <time>2018-04-21T09:54:59.000Z</time>
      </trkpt>
      <trkpt lat="40.806387" lon="-3.890534">
        <ele>2176.9</ele>
        <time>2018-04-21T09:55:00.000Z</time>
      </trkpt>
      <trkpt lat="40.806387" lon="-3.890535">
        <ele>2176.9</ele>
        <time>2018-04-21T09:55:01.000Z</time>
      </trkpt>
      <trkpt lat="40.806386" lon="-3.890535">
        <ele>2176.9</ele>
        <time>2018-04-21T09:55:02.000Z</time>
      </trkpt>
      <trkpt lat="40.806386" lon="-3.890535">
        <ele>2176.9</ele>
        <time>2018-04-21T09:55:03.000Z</time>
      </trkpt>
      <trkpt lat="40.806386" lon="-3.890535">
        <ele>2176.9</ele>
        <time>2018-04-21T09:55:04.000Z</time>
      </trkpt>
      <trkpt lat="40.806386" lon="-3.890535">
        <ele>2176.9</ele>
        <time>2018-04-21T09:55:05.000Z</time>
      </trkpt>
      <trkpt lat="40.806386" lon="-3.890535">
        <ele>2176.9</ele>
        <time>2018-04-21T09:55:06.000Z</time>
      </trkpt>
      <trkpt lat="40.806386" lon="-3.890535">
        <ele>2176.9</ele>
        <time>2018-04-21T09:55:07.000Z</time>
      </trkpt>
      <trkpt lat="40.806386" lon="-3.890535">
        <ele>2176.9</ele>
        <time>2018-04-21T09:55:08.000Z</time>
      </trkpt>
      <trkpt lat="40.806386" lon="-3.890536">
        <ele>2176.9</ele>
        <time>2018-04-21T09:55:09.000Z</time>
      </trkpt>
      <trkpt lat="40.806387" lon="-3.890536">
        <ele>2176.9</ele>
        <time>2018-04-21T09:55:10.000Z</time>
      </trkpt>
      <trkpt lat="40.806387" lon="-3.890538">
        <ele>2176.9</ele>
        <time>2018-04-21T09:55:11.000Z</time>
      </trkpt>
      <trkpt lat="40.806388" lon="-3.890539">
        <ele>2176.9</ele>
        <time>2018-04-21T09:55:12.000Z</time>
      </trkpt>
      <trkpt lat="40.806388" lon="-3.890542">
        <ele>2177.0</ele>
        <time>2018-04-21T09:55:13.000Z</time>
      </trkpt>
      <trkpt lat="40.806389" lon="-3.890545">
        <ele>2177.0</ele>
        <time>2018-04-21T09:55:14.000Z</time>
      </trkpt>
      <trkpt lat="40.80639" lon="-3.890549">
        <ele>2177.0</ele>
        <time>2018-04-21T09:55:15.000Z</time>
      </trkpt>
      <trkpt lat="40.806391" lon="-3.890554">
        <ele>2177.0</ele>
        <time>2018-04-21T09:55:16.000Z</time>
      </trkpt>
      <trkpt lat="40.806392" lon="-3.89056">
        <ele>2177.1</ele>
        <time>2018-04-21T09:55:17.000Z</time>
      </trkpt>
      <trkpt lat="40.806393" lon="-3.890567">
        <ele>2177.1</ele>
        <time>2018-04-21T09:55:18.000Z</time>
      </trkpt>
      <trkpt lat="40.806394" lon="-3.890576">
        <ele>2177.1</ele>
        <time>2018-04-21T09:55:19.000Z</time>
      </trkpt>
      <trkpt lat="40.806395" lon="-3.890584">
        <ele>2177.1</ele>
        <time>2018-04-21T09:55:20.000Z</time>
      </trkpt>
      <trkpt lat="40.806396" lon="-3.890592">
        <ele>2177.2</ele>
        <time>2018-04-21T09:55:21.000Z</time>
      </trkpt>
      <trkpt lat="40.806397" lon="-3.890599">
        <ele>2177.2</ele>
        <time>2018-04-21T09:55:22.000Z</time>
      </trkpt>
      <trkpt lat="40.806398" lon="-3.890603">
        <ele>2177.2</ele>
        <time>2018-04-21T09:55:23.000Z</time>
      </trkpt>
      <trkpt lat="40.8064" lon="-3.890604">
        <ele>2177.3</ele>
        <time>2018-04-21T09:55:24.000Z</time>
      </trkpt>
      <trkpt lat="40.806401" lon="-3.890603">
        <ele>2177.3</ele>
        <time>2018-04-21T09:55:25.000Z</time>
      </trkpt>
      <trkpt lat="40.806402" lon="-3.890603">
        <ele>2177.3</ele>
        <time>2018-04-21T09:55:26.000Z</time>
      </trkpt>
      <trkpt lat="40.806402" lon="-3.890605">
        <ele>2177.3</ele>
        <time>2018-04-21T09:55:27.000Z</time>
      </trkpt>
      <trkpt lat="40.806402" lon="-3.890611">
        <ele>2177.3</ele>
        <time>2018-04-21T09:55:28.000Z</time>
      </trkpt>
      <trkpt lat="40.8064" lon="-3.89062">
        <ele>2177.3</ele>
        <time>2018-04-21T09:55:29.000Z</time>
      </trkpt>
      <trkpt lat="40.806398" lon="-3.890631">
        <ele>2177.3</ele>
        <time>2018-04-21T09:55:30.000Z</time>
      </trkpt>
      <trkpt lat="40.806396" lon="-3.890644">
        <ele>2177.3</ele>
        <time>2018-04-21T09:55:31.000Z</time>
      </trkpt>
      <trkpt lat="40.806393" lon="-3.890658">
        <ele>2177.3</ele>
        <time>2018-04-21T09:55:32.000Z</time>
      </trkpt>
      <trkpt lat="40.80639" lon="-3.890673">
        <ele>2177.3</ele>
        <time>2018-04-21T09:55:33.000Z</time>
      </trkpt>
      <trkpt lat="40.806388" lon="-3.890687">
        <ele>2177.3</ele>
        <time>2018-04-21T09:55:34.000Z</time>
      </trkpt>
      <trkpt lat="40.806385" lon="-3.8907">
        <ele>2177.3</ele>
        <time>2018-04-21T09:55:35.000Z</time>
      </trkpt>
      <trkpt lat="40.806383" lon="-3.890711">
        <ele>2177.3</ele>
        <time>2018-04-21T09:55:36.000Z</time>
      </trkpt>
      <trkpt lat="40.806381" lon="-3.89072">
        <ele>2177.3</ele>
        <time>2018-04-21T09:55:37.000Z</time>
      </trkpt>
      <trkpt lat="40.806379" lon="-3.890728">
        <ele>2177.3</ele>
        <time>2018-04-21T09:55:38.000Z</time>
      </trkpt>
      <trkpt lat="40.806378" lon="-3.890735">
        <ele>2177.3</ele>
        <time>2018-04-21T09:55:39.000Z</time>
      </trkpt>
      <trkpt lat="40.806376" lon="-3.890742">
        <ele>2177.3</ele>
        <time>2018-04-21T09:55:40.000Z</time>
      </trkpt>
      <trkpt lat="40.806373" lon="-3.890749">
        <ele>2177.3</ele>
        <time>2018-04-21T09:55:41.000Z</time>
      </trkpt>
      <trkpt lat="40.806368" lon="-3.890759">
        <ele>2177.2</ele>
        <time>2018-04-21T09:55:42.000Z</time>
      </trkpt>
      <trkpt lat="40.806364" lon="-3.890769">
        <ele>2177.2</ele>
        <time>2018-04-21T09:55:43.000Z</time>
      </trkpt>
      <trkpt lat="40.806359" lon="-3.89078">
        <ele>2177.2</ele>
        <time>2018-04-21T09:55:44.000Z</time>
      </trkpt>
      <trkpt lat="40.806355" lon="-3.89079">
        <ele>2177.1</ele>
        <time>2018-04-21T09:55:45.000Z</time>
      </trkpt>
      <trkpt lat="40.806351" lon="-3.890799">
        <ele>2177.1</ele>
        <time>2018-04-21T09:55:46.000Z</time>
      </trkpt>
      <trkpt lat="40.806349" lon="-3.890807">
        <ele>2177.1</ele>
        <time>2018-04-21T09:55:47.000Z</time>
      </trkpt>
      <trkpt lat="40.806348" lon="-3.890814">
        <ele>2177.1</ele>
        <time>2018-04-21T09:55:48.000Z</time>
      </trkpt>
      <trkpt lat="40.806348" lon="-3.89082">
        <ele>2177.1</ele>
        <time>2018-04-21T09:55:49.000Z</time>
      </trkpt>
      <trkpt lat="40.806349" lon="-3.890826">
        <ele>2177.2</ele>
        <time>2018-04-21T09:55:50.000Z</time>
      </trkpt>
      <trkpt lat="40.80635" lon="-3.890832">
        <ele>2177.2</ele>
        <time>2018-04-21T09:55:51.000Z</time>
      </trkpt>
      <trkpt lat="40.806352" lon="-3.890837">
        <ele>2177.2</ele>
        <time>2018-04-21T09:55:52.000Z</time>
      </trkpt>
      <trkpt lat="40.806354" lon="-3.890843">
        <ele>2177.2</ele>
        <time>2018-04-21T09:55:53.000Z</time>
      </trkpt>
      <trkpt lat="40.806357" lon="-3.890848">
        <ele>2177.2</ele>
        <time>2018-04-21T09:55:54.000Z</time>
      </trkpt>
      <trkpt lat="40.80636" lon="-3.890855">
        <ele>2177.2</ele>
        <time>2018-04-21T09:55:55.000Z</time>
      </trkpt>
      <trkpt lat="40.806364" lon="-3.890861">
        <ele>2177.2</ele>
        <time>2018-04-21T09:55:56.000Z</time>
      </trkpt>
      <trkpt lat="40.806367" lon="-3.890868">
        <ele>2177.2</ele>
        <time>2018-04-21T09:55:57.000Z</time>
      </trkpt>
      <trkpt lat="40.806371" lon="-3.890876">
        <ele>2177.2</ele>
        <time>2018-04-21T09:55:58.000Z</time>
      </trkpt>
      <trkpt lat="40.806375" lon="-3.890883">
        <ele>2177.2</ele>
        <time>2018-04-21T09:55:59.000Z</time>
      </trkpt>
      <trkpt lat="40.806379" lon="-3.890891">
        <ele>2177.2</ele>
        <time>2018-04-21T09:56:00.000Z</time>
      </trkpt>
      <trkpt lat="40.806383" lon="-3.8909">
        <ele>2177.2</ele>
        <time>2018-04-21T09:56:01.000Z</time>
      </trkpt>
      <trkpt lat="40.806387" lon="-3.890908">
        <ele>2177.2</ele>
        <time>2018-04-21T09:56:02.000Z</time>
      </trkpt>
      <trkpt lat="40.806391" lon="-3.890917">
        <ele>2177.2</ele>
        <time>2018-04-21T09:56:03.000Z</time>
      </trkpt>
      <trkpt lat="40.806395" lon="-3.890926">
        <ele>2177.2</ele>
        <time>2018-04-21T09:56:04.000Z</time>
      </trkpt>
      <trkpt lat="40.806399" lon="-3.890934">
        <ele>2177.2</ele>
        <time>2018-04-21T09:56:05.000Z</time>
      </trkpt>
      <trkpt lat="40.806403" lon="-3.890944">
        <ele>2177.2</ele>
        <time>2018-04-21T09:56:06.000Z</time>
      </trkpt>
      <trkpt lat="40.806406" lon="-3.890953">
        <ele>2177.2</ele>
        <time>2018-04-21T09:56:07.000Z</time>
      </trkpt>
      <trkpt lat="40.806409" lon="-3.890962">
        <ele>2177.1</ele>
        <time>2018-04-21T09:56:08.000Z</time>
      </trkpt>
      <trkpt lat="40.806412" lon="-3.890971">
        <ele>2177.1</ele>
        <time>2018-04-21T09:56:09.000Z</time>
      </trkpt>
      <trkpt lat="40.806415" lon="-3.89098">
        <ele>2177.1</ele>
        <time>2018-04-21T09:56:10.000Z</time>
      </trkpt>
      <trkpt lat="40.806417" lon="-3.890989">
        <ele>2177.1</ele>
        <time>2018-04-21T09:56:11.000Z</time>
      </trkpt>
      <trkpt lat="40.806418" lon="-3.890998">
        <ele>2177.0</ele>
        <time>2018-04-21T09:56:12.000Z</time>
      </trkpt>
      <trkpt lat="40.806419" lon="-3.891007">
        <ele>2177.0</ele>
        <time>2018-04-21T09:56:13.000Z</time>
      </trkpt>
      <trkpt lat="40.80642" lon="-3.891015">
        <ele>2176.9</ele>
        <time>2018-04-21T09:56:14.000Z</time>
      </trkpt>
      <trkpt lat="40.80642" lon="-3.891023">
        <ele>2176.9</ele>
        <time>2018-04-21T09:56:15.000Z</time>
      </trkpt>
      <trkpt lat="40.80642" lon="-3.891032">
        <ele>2176.8</ele>
        <time>2018-04-21T09:56:16.000Z</time>
      </trkpt>
      <trkpt lat="40.80642" lon="-3.891039">
        <ele>2176.8</ele>
        <time>2018-04-21T09:56:17.000Z</time>
      </trkpt>
      <trkpt lat="40.80642" lon="-3.891047">
        <ele>2176.7</ele>
        <time>2018-04-21T09:56:18.000Z</time>
      </trkpt>
      <trkpt lat="40.806419" lon="-3.891054">
        <ele>2176.7</ele>
        <time>2018-04-21T09:56:19.000Z</time>
      </trkpt>
      <trkpt lat="40.806419" lon="-3.891062">
        <ele>2176.6</ele>
        <time>2018-04-21T09:56:20.000Z</time>
      </trkpt>
      <trkpt lat="40.806418" lon="-3.891068">
        <ele>2176.6</ele>
        <time>2018-04-21T09:56:21.000Z</time>
      </trkpt>
      <trkpt lat="40.806418" lon="-3.891075">
        <ele>2176.5</ele>
        <time>2018-04-21T09:56:22.000Z</time>
      </trkpt>
      <trkpt lat="40.806418" lon="-3.891081">
        <ele>2176.5</ele>
        <time>2018-04-21T09:56:23.000Z</time>
      </trkpt>
      <trkpt lat="40.806418" lon="-3.891086">
        <ele>2176.5</ele>
        <time>2018-04-21T09:56:24.000Z</time>
      </trkpt>
      <trkpt lat="40.806418" lon="-3.891092">
        <ele>2176.4</ele>
        <time>2018-04-21T09:56:25.000Z</time>
      </trkpt>
      <trkpt lat="40.806418" lon="-3.891098">
        <ele>2176.4</ele>
        <time>2018-04-21T09:56:26.000Z</time>
      </trkpt>
      <trkpt lat="40.806418" lon="-3.891104">
        <ele>2176.4</ele>
        <time>2018-04-21T09:56:27.000Z</time>
      </trkpt>
      <trkpt lat="40.806418" lon="-3.89111">
        <ele>2176.3</ele>
        <time>2018-04-21T09:56:28.000Z</time>
      </trkpt>
      <trkpt lat="40.806417" lon="-3.891116">
        <ele>2176.3</ele>
        <time>2018-04-21T09:56:29.000Z</time>
      </trkpt>
      <trkpt lat="40.806416" lon="-3.891123">
        <ele>2176.2</ele>
        <time>2018-04-21T09:56:30.000Z</time>
      </trkpt>
      <trkpt lat="40.806415" lon="-3.89113">
        <ele>2176.2</ele>
        <time>2018-04-21T09:56:31.000Z</time>
      </trkpt>
      <trkpt lat="40.806413" lon="-3.891138">
        <ele>2176.1</ele>
        <time>2018-04-21T09:56:32.000Z</time>
      </trkpt>
      <trkpt lat="40.80641" lon="-3.891146">
        <ele>2176.0</ele>
        <time>2018-04-21T09:56:33.000Z</time>
      </trkpt>
      <trkpt lat="40.806408" lon="-3.891155">
        <ele>2176.0</ele>
        <time>2018-04-21T09:56:34.000Z</time>
      </trkpt>
      <trkpt lat="40.806404" lon="-3.891164">
        <ele>2175.9</ele>
        <time>2018-04-21T09:56:35.000Z</time>
      </trkpt>
      <trkpt lat="40.806401" lon="-3.891173">
        <ele>2175.8</ele>
        <time>2018-04-21T09:56:36.000Z</time>
      </trkpt>
      <trkpt lat="40.806398" lon="-3.891181">
        <ele>2175.8</ele>
        <time>2018-04-21T09:56:37.000Z</time>
      </trkpt>
      <trkpt lat="40.806395" lon="-3.891189">
        <ele>2175.7</ele>
        <time>2018-04-21T09:56:38.000Z</time>
      </trkpt>
      <trkpt lat="40.806392" lon="-3.891196">
        <ele>2175.7</ele>
        <time>2018-04-21T09:56:39.000Z</time>
      </trkpt>
      <trkpt lat="40.806389" lon="-3.891203">
        <ele>2175.6</ele>
        <time>2018-04-21T09:56:40.000Z</time>
      </trkpt>
      <trkpt lat="40.806387" lon="-3.891208">
        <ele>2175.6</ele>
        <time>2018-04-21T09:56:41.000Z</time>
      </trkpt>
      <trkpt lat="40.806384" lon="-3.891212">
        <ele>2175.5</ele>
        <time>2018-04-21T09:56:42.000Z</time>
      </trkpt>
      <trkpt lat="40.806383" lon="-3.891215">
        <ele>2175.5</ele>
        <time>2018-04-21T09:56:43.000Z</time>
      </trkpt>
      <trkpt lat="40.806381" lon="-3.891219">
        <ele>2175.5</ele>
        <time>2018-04-21T09:56:44.000Z</time>
      </trkpt>
      <trkpt lat="40.806379" lon="-3.891222">
        <ele>2175.4</ele>
        <time>2018-04-21T09:56:45.000Z</time>
      </trkpt>
      <trkpt lat="40.806378" lon="-3.891225">
        <ele>2175.4</ele>
        <time>2018-04-21T09:56:46.000Z</time>
      </trkpt>
      <trkpt lat="40.806376" lon="-3.891229">
        <ele>2175.4</ele>
        <time>2018-04-21T09:56:47.000Z</time>
      </trkpt>
      <trkpt lat="40.806374" lon="-3.891233">
        <ele>2175.4</ele>
        <time>2018-04-21T09:56:48.000Z</time>
      </trkpt>
      <trkpt lat="40.806371" lon="-3.891238">
        <ele>2175.3</ele>
        <time>2018-04-21T09:56:49.000Z</time>
      </trkpt>
      <trkpt lat="40.806368" lon="-3.891244">
        <ele>2175.3</ele>
        <time>2018-04-21T09:56:50.000Z</time>
      </trkpt>
      <trkpt lat="40.806365" lon="-3.891252">
        <ele>2175.2</ele>
        <time>2018-04-21T09:56:51.000Z</time>
      </trkpt>
      <trkpt lat="40.806361" lon="-3.89126">
        <ele>2175.2</ele>
        <time>2018-04-21T09:56:52.000Z</time>
      </trkpt>
      <trkpt lat="40.806357" lon="-3.891269">
        <ele>2175.1</ele>
        <time>2018-04-21T09:56:53.000Z</time>
      </trkpt>
      <trkpt lat="40.806353" lon="-3.891278">
        <ele>2175.0</ele>
        <time>2018-04-21T09:56:54.000Z</time>
      </trkpt>
      <trkpt lat="40.806349" lon="-3.891288">
        <ele>2175.0</ele>
        <time>2018-04-21T09:56:55.000Z</time>
      </trkpt>
      <trkpt lat="40.806346" lon="-3.891298">
        <ele>2174.9</ele>
        <time>2018-04-21T09:56:56.000Z</time>
      </trkpt>
      <trkpt lat="40.806343" lon="-3.891308">
        <ele>2174.9</ele>
        <time>2018-04-21T09:56:57.000Z</time>
      </trkpt>
      <trkpt lat="40.80634" lon="-3.891319">
        <ele>2174.8</ele>
        <time>2018-04-21T09:56:58.000Z</time>
      </trkpt>
      <trkpt lat="40.806338" lon="-3.891329">
        <ele>2174.8</ele>
        <time>2018-04-21T09:56:59.000Z</time>
      </trkpt>
      <trkpt lat="40.806336" lon="-3.891339">
        <ele>2174.7</ele>
        <time>2018-04-21T09:57:00.000Z</time>
      </trkpt>
      <trkpt lat="40.806335" lon="-3.891349">
        <ele>2174.7</ele>
        <time>2018-04-21T09:57:01.000Z</time>
      </trkpt>
      <trkpt lat="40.806334" lon="-3.891358">
        <ele>2174.6</ele>
        <time>2018-04-21T09:57:02.000Z</time>
      </trkpt>
      <trkpt lat="40.806333" lon="-3.891368">
        <ele>2174.6</ele>
        <time>2018-04-21T09:57:03.000Z</time>
      </trkpt>
      <trkpt lat="40.806332" lon="-3.891377">
        <ele>2174.5</ele>
        <time>2018-04-21T09:57:04.000Z</time>
      </trkpt>
      <trkpt lat="40.80633" lon="-3.891386">
        <ele>2174.5</ele>
        <time>2018-04-21T09:57:05.000Z</time>
      </trkpt>
      <trkpt lat="40.806328" lon="-3.891395">
        <ele>2174.4</ele>
        <time>2018-04-21T09:57:06.000Z</time>
      </trkpt>
      <trkpt lat="40.806324" lon="-3.891403">
        <ele>2174.4</ele>
        <time>2018-04-21T09:57:07.000Z</time>
      </trkpt>
      <trkpt lat="40.80632" lon="-3.891412">
        <ele>2174.3</ele>
        <time>2018-04-21T09:57:08.000Z</time>
      </trkpt>
      <trkpt lat="40.806316" lon="-3.89142">
        <ele>2174.3</ele>
        <time>2018-04-21T09:57:09.000Z</time>
      </trkpt>
      <trkpt lat="40.806312" lon="-3.891428">
        <ele>2174.3</ele>
        <time>2018-04-21T09:57:10.000Z</time>
      </trkpt>
      <trkpt lat="40.806309" lon="-3.891436">
        <ele>2174.2</ele>
        <time>2018-04-21T09:57:11.000Z</time>
      </trkpt>
      <trkpt lat="40.806307" lon="-3.891444">
        <ele>2174.2</ele>
        <time>2018-04-21T09:57:12.000Z</time>
      </trkpt>
      <trkpt lat="40.806307" lon="-3.891453">
        <ele>2174.2</ele>
        <time>2018-04-21T09:57:13.000Z</time>
      </trkpt>
      <trkpt lat="40.806307" lon="-3.891461">
        <ele>2174.1</ele>
        <time>2018-04-21T09:57:14.000Z</time>
      </trkpt>
      <trkpt lat="40.806309" lon="-3.89147">
        <ele>2174.1</ele>
        <time>2018-04-21T09:57:15.000Z</time>
      </trkpt>
      <trkpt lat="40.80631" lon="-3.891479">
        <ele>2174.1</ele>
        <time>2018-04-21T09:57:16.000Z</time>
      </trkpt>
      <trkpt lat="40.80631" lon="-3.891488">
        <ele>2174.0</ele>
        <time>2018-04-21T09:57:17.000Z</time>
      </trkpt>
      <trkpt lat="40.806309" lon="-3.891497">
        <ele>2174.0</ele>
        <time>2018-04-21T09:57:18.000Z</time>
      </trkpt>
      <trkpt lat="40.806307" lon="-3.891506">
        <ele>2173.9</ele>
        <time>2018-04-21T09:57:19.000Z</time>
      </trkpt>
      <trkpt lat="40.806305" lon="-3.891516">
        <ele>2173.9</ele>
        <time>2018-04-21T09:57:20.000Z</time>
      </trkpt>
      <trkpt lat="40.806302" lon="-3.891525">
        <ele>2173.9</ele>
        <time>2018-04-21T09:57:21.000Z</time>
      </trkpt>
      <trkpt lat="40.806299" lon="-3.891534">
        <ele>2173.8</ele>
        <time>2018-04-21T09:57:22.000Z</time>
      </trkpt>
      <trkpt lat="40.806296" lon="-3.891543">
        <ele>2173.8</ele>
        <time>2018-04-21T09:57:23.000Z</time>
      </trkpt>
      <trkpt lat="40.806292" lon="-3.891551">
        <ele>2173.8</ele>
        <time>2018-04-21T09:57:24.000Z</time>
      </trkpt>
      <trkpt lat="40.806289" lon="-3.89156">
        <ele>2173.8</ele>
        <time>2018-04-21T09:57:25.000Z</time>
      </trkpt>
      <trkpt lat="40.806286" lon="-3.891568">
        <ele>2173.7</ele>
        <time>2018-04-21T09:57:26.000Z</time>
      </trkpt>
      <trkpt lat="40.806283" lon="-3.891575">
        <ele>2173.7</ele>
        <time>2018-04-21T09:57:27.000Z</time>
      </trkpt>
      <trkpt lat="40.80628" lon="-3.891582">
        <ele>2173.7</ele>
        <time>2018-04-21T09:57:28.000Z</time>
      </trkpt>
      <trkpt lat="40.806278" lon="-3.891589">
        <ele>2173.7</ele>
        <time>2018-04-21T09:57:29.000Z</time>
      </trkpt>
      <trkpt lat="40.806275" lon="-3.891596">
        <ele>2173.7</ele>
        <time>2018-04-21T09:57:30.000Z</time>
      </trkpt>
      <trkpt lat="40.806273" lon="-3.891602">
        <ele>2173.6</ele>
        <time>2018-04-21T09:57:31.000Z</time>
      </trkpt>
      <trkpt lat="40.80627" lon="-3.891608">
        <ele>2173.6</ele>
        <time>2018-04-21T09:57:32.000Z</time>
      </trkpt>
      <trkpt lat="40.806268" lon="-3.891614">
        <ele>2173.6</ele>
        <time>2018-04-21T09:57:33.000Z</time>
      </trkpt>
      <trkpt lat="40.806266" lon="-3.891619">
        <ele>2173.6</ele>
        <time>2018-04-21T09:57:34.000Z</time>
      </trkpt>
      <trkpt lat="40.806263" lon="-3.891625">
        <ele>2173.6</ele>
        <time>2018-04-21T09:57:35.000Z</time>
      </trkpt>
      <trkpt lat="40.806261" lon="-3.891631">
        <ele>2173.6</ele>
        <time>2018-04-21T09:57:36.000Z</time>
      </trkpt>
      <trkpt lat="40.806258" lon="-3.891636">
        <ele>2173.6</ele>
        <time>2018-04-21T09:57:37.000Z</time>
      </trkpt>
      <trkpt lat="40.806255" lon="-3.891642">
        <ele>2173.6</ele>
        <time>2018-04-21T09:57:38.000Z</time>
      </trkpt>
      <trkpt lat="40.806252" lon="-3.891647">
        <ele>2173.6</ele>
        <time>2018-04-21T09:57:39.000Z</time>
      </trkpt>
      <trkpt lat="40.806249" lon="-3.891653">
        <ele>2173.5</ele>
        <time>2018-04-21T09:57:40.000Z</time>
      </trkpt>
      <trkpt lat="40.806246" lon="-3.891659">
        <ele>2173.5</ele>
        <time>2018-04-21T09:57:41.000Z</time>
      </trkpt>
      <trkpt lat="40.806242" lon="-3.891664">
        <ele>2173.5</ele>
        <time>2018-04-21T09:57:42.000Z</time>
      </trkpt>
      <trkpt lat="40.806238" lon="-3.891671">
        <ele>2173.5</ele>
        <time>2018-04-21T09:57:43.000Z</time>
      </trkpt>
      <trkpt lat="40.806233" lon="-3.891677">
        <ele>2173.5</ele>
        <time>2018-04-21T09:57:44.000Z</time>
      </trkpt>
      <trkpt lat="40.806229" lon="-3.891683">
        <ele>2173.5</ele>
        <time>2018-04-21T09:57:45.000Z</time>
      </trkpt>
      <trkpt lat="40.806224" lon="-3.89169">
        <ele>2173.5</ele>
        <time>2018-04-21T09:57:46.000Z</time>
      </trkpt>
      <trkpt lat="40.806219" lon="-3.891696">
        <ele>2173.5</ele>
        <time>2018-04-21T09:57:47.000Z</time>
      </trkpt>
      <trkpt lat="40.806215" lon="-3.891702">
        <ele>2173.5</ele>
        <time>2018-04-21T09:57:48.000Z</time>
      </trkpt>
      <trkpt lat="40.80621" lon="-3.891709">
        <ele>2173.5</ele>
        <time>2018-04-21T09:57:49.000Z</time>
      </trkpt>
      <trkpt lat="40.806206" lon="-3.891715">
        <ele>2173.5</ele>
        <time>2018-04-21T09:57:50.000Z</time>
      </trkpt>
      <trkpt lat="40.806202" lon="-3.89172">
        <ele>2173.5</ele>
        <time>2018-04-21T09:57:51.000Z</time>
      </trkpt>
      <trkpt lat="40.806199" lon="-3.891726">
        <ele>2173.5</ele>
        <time>2018-04-21T09:57:52.000Z</time>
      </trkpt>
      <trkpt lat="40.806197" lon="-3.891731">
        <ele>2173.5</ele>
        <time>2018-04-21T09:57:53.000Z</time>
      </trkpt>
      <trkpt lat="40.806195" lon="-3.891735">
        <ele>2173.5</ele>
        <time>2018-04-21T09:57:54.000Z</time>
      </trkpt>
      <trkpt lat="40.806193" lon="-3.89174">
        <ele>2173.5</ele>
        <time>2018-04-21T09:57:55.000Z</time>
      </trkpt>
      <trkpt lat="40.806193" lon="-3.891745">
        <ele>2173.4</ele>
        <time>2018-04-21T09:57:56.000Z</time>
      </trkpt>
      <trkpt lat="40.806193" lon="-3.89175">
        <ele>2173.4</ele>
        <time>2018-04-21T09:57:57.000Z</time>
      </trkpt>
      <trkpt lat="40.806193" lon="-3.891756">
        <ele>2173.4</ele>
        <time>2018-04-21T09:57:58.000Z</time>
      </trkpt>
      <trkpt lat="40.806194" lon="-3.891763">
        <ele>2173.4</ele>
        <time>2018-04-21T09:57:59.000Z</time>
      </trkpt>
      <trkpt lat="40.806196" lon="-3.89177">
        <ele>2173.3</ele>
        <time>2018-04-21T09:58:00.000Z</time>
      </trkpt>
      <trkpt lat="40.806198" lon="-3.891779">
        <ele>2173.3</ele>
        <time>2018-04-21T09:58:01.000Z</time>
      </trkpt>
      <trkpt lat="40.806201" lon="-3.89179">
        <ele>2173.2</ele>
        <time>2018-04-21T09:58:02.000Z</time>
      </trkpt>
      <trkpt lat="40.806204" lon="-3.891801">
        <ele>2173.2</ele>
        <time>2018-04-21T09:58:03.000Z</time>
      </trkpt>
      <trkpt lat="40.806208" lon="-3.891813">
        <ele>2173.1</ele>
        <time>2018-04-21T09:58:04.000Z</time>
      </trkpt>
      <trkpt lat="40.806211" lon="-3.891825">
        <ele>2173.1</ele>
        <time>2018-04-21T09:58:05.000Z</time>
      </trkpt>
      <trkpt lat="40.806214" lon="-3.891837">
        <ele>2173.0</ele>
        <time>2018-04-21T09:58:06.000Z</time>
      </trkpt>
      <trkpt lat="40.806217" lon="-3.891847">
        <ele>2172.9</ele>
        <time>2018-04-21T09:58:07.000Z</time>
      </trkpt>
      <trkpt lat="40.806219" lon="-3.891858">
        <ele>2172.9</ele>
        <time>2018-04-21T09:58:08.000Z</time>
      </trkpt>
      <trkpt lat="40.806221" lon="-3.891867">
        <ele>2172.8</ele>
        <time>2018-04-21T09:58:09.000Z</time>
      </trkpt>
      <trkpt lat="40.806222" lon="-3.891877">
        <ele>2172.8</ele>
        <time>2018-04-21T09:58:10.000Z</time>
      </trkpt>
      <trkpt lat="40.806222" lon="-3.891886">
        <ele>2172.8</ele>
        <time>2018-04-21T09:58:11.000Z</time>
      </trkpt>
      <trkpt lat="40.806221" lon="-3.891895">
        <ele>2172.7</ele>
        <time>2018-04-21T09:58:12.000Z</time>
      </trkpt>
      <trkpt lat="40.80622" lon="-3.891903">
        <ele>2172.7</ele>
        <time>2018-04-21T09:58:13.000Z</time>
      </trkpt>
      <trkpt lat="40.806219" lon="-3.891911">
        <ele>2172.7</ele>
        <time>2018-04-21T09:58:14.000Z</time>
      </trkpt>
      <trkpt lat="40.806217" lon="-3.891919">
        <ele>2172.7</ele>
        <time>2018-04-21T09:58:15.000Z</time>
      </trkpt>
      <trkpt lat="40.806215" lon="-3.891925">
        <ele>2172.7</ele>
        <time>2018-04-21T09:58:16.000Z</time>
      </trkpt>
      <trkpt lat="40.806213" lon="-3.891931">
        <ele>2172.6</ele>
        <time>2018-04-21T09:58:17.000Z</time>
      </trkpt>
      <trkpt lat="40.806212" lon="-3.891936">
        <ele>2172.6</ele>
        <time>2018-04-21T09:58:18.000Z</time>
      </trkpt>
      <trkpt lat="40.80621" lon="-3.891939">
        <ele>2172.6</ele>
        <time>2018-04-21T09:58:19.000Z</time>
      </trkpt>
      <trkpt lat="40.80621" lon="-3.891941">
        <ele>2172.6</ele>
        <time>2018-04-21T09:58:20.000Z</time>
      </trkpt>
      <trkpt lat="40.80621" lon="-3.891942">
        <ele>2172.6</ele>
        <time>2018-04-21T09:58:21.000Z</time>
      </trkpt>
      <trkpt lat="40.80621" lon="-3.891943">
        <ele>2172.6</ele>
        <time>2018-04-21T09:58:22.000Z</time>
      </trkpt>
      <trkpt lat="40.80621" lon="-3.891943">
        <ele>2172.6</ele>
        <time>2018-04-21T09:58:23.000Z</time>
      </trkpt>
      <trkpt lat="40.806209" lon="-3.891943">
        <ele>2172.6</ele>
        <time>2018-04-21T09:58:24.000Z</time>
      </trkpt>
      <trkpt lat="40.806209" lon="-3.891943">
        <ele>2172.6</ele>
        <time>2018-04-21T09:58:25.000Z</time>
      </trkpt>
      <trkpt lat="40.806208" lon="-3.891944">
        <ele>2172.6</ele>
        <time>2018-04-21T09:58:26.000Z</time>
      </trkpt>
      <trkpt lat="40.806206" lon="-3.891947">
        <ele>2172.6</ele>
        <time>2018-04-21T09:58:27.000Z</time>
      </trkpt>
      <trkpt lat="40.806203" lon="-3.891951">
        <ele>2172.6</ele>
        <time>2018-04-21T09:58:28.000Z</time>
      </trkpt>
      <trkpt lat="40.806199" lon="-3.891956">
        <ele>2172.7</ele>
        <time>2018-04-21T09:58:29.000Z</time>
      </trkpt>
      <trkpt lat="40.806194" lon="-3.891963">
        <ele>2172.7</ele>
        <time>2018-04-21T09:58:30.000Z</time>
      </trkpt>
      <trkpt lat="40.806189" lon="-3.891971">
        <ele>2172.7</ele>
        <time>2018-04-21T09:58:31.000Z</time>
      </trkpt>
      <trkpt lat="40.806183" lon="-3.891981">
        <ele>2172.7</ele>
        <time>2018-04-21T09:58:32.000Z</time>
      </trkpt>
      <trkpt lat="40.806176" lon="-3.891992">
        <ele>2172.7</ele>
        <time>2018-04-21T09:58:33.000Z</time>
      </trkpt>
      <trkpt lat="40.80617" lon="-3.892003">
        <ele>2172.7</ele>
        <time>2018-04-21T09:58:34.000Z</time>
      </trkpt>
      <trkpt lat="40.806164" lon="-3.892015">
        <ele>2172.7</ele>
        <time>2018-04-21T09:58:35.000Z</time>
      </trkpt>
      <trkpt lat="40.806158" lon="-3.892027">
        <ele>2172.7</ele>
        <time>2018-04-21T09:58:36.000Z</time>
      </trkpt>
      <trkpt lat="40.806152" lon="-3.892039">
        <ele>2172.8</ele>
        <time>2018-04-21T09:58:37.000Z</time>
      </trkpt>
      <trkpt lat="40.806147" lon="-3.892051">
        <ele>2172.8</ele>
        <time>2018-04-21T09:58:38.000Z</time>
      </trkpt>
      <trkpt lat="40.806143" lon="-3.892063">
        <ele>2172.8</ele>
        <time>2018-04-21T09:58:39.000Z</time>
      </trkpt>
      <trkpt lat="40.806139" lon="-3.892075">
        <ele>2172.8</ele>
        <time>2018-04-21T09:58:40.000Z</time>
      </trkpt>
      <trkpt lat="40.806136" lon="-3.892087">
        <ele>2172.8</ele>
        <time>2018-04-21T09:58:41.000Z</time>
      </trkpt>
      <trkpt lat="40.806133" lon="-3.892098">
        <ele>2172.8</ele>
        <time>2018-04-21T09:58:42.000Z</time>
      </trkpt>
      <trkpt lat="40.806131" lon="-3.89211">
        <ele>2172.8</ele>
        <time>2018-04-21T09:58:43.000Z</time>
      </trkpt>
      <trkpt lat="40.806129" lon="-3.892121">
        <ele>2172.7</ele>
        <time>2018-04-21T09:58:44.000Z</time>
      </trkpt>
      <trkpt lat="40.806127" lon="-3.892133">
        <ele>2172.7</ele>
        <time>2018-04-21T09:58:45.000Z</time>
      </trkpt>
      <trkpt lat="40.806126" lon="-3.892144">
        <ele>2172.7</ele>
        <time>2018-04-21T09:58:46.000Z</time>
      </trkpt>
      <trkpt lat="40.806125" lon="-3.892155">
        <ele>2172.7</ele>
        <time>2018-04-21T09:58:47.000Z</time>
      </trkpt>
      <trkpt lat="40.806124" lon="-3.892167">
        <ele>2172.7</ele>
        <time>2018-04-21T09:58:48.000Z</time>
      </trkpt>
      <trkpt lat="40.806123" lon="-3.892178">
        <ele>2172.7</ele>
        <time>2018-04-21T09:58:49.000Z</time>
      </trkpt>
      <trkpt lat="40.806122" lon="-3.892189">
        <ele>2172.6</ele>
        <time>2018-04-21T09:58:50.000Z</time>
      </trkpt>
      <trkpt lat="40.806121" lon="-3.8922">
        <ele>2172.6</ele>
        <time>2018-04-21T09:58:51.000Z</time>
      </trkpt>
      <trkpt lat="40.80612" lon="-3.892211">
        <ele>2172.6</ele>
        <time>2018-04-21T09:58:52.000Z</time>
      </trkpt>
      <trkpt lat="40.806118" lon="-3.892222">
        <ele>2172.6</ele>
        <time>2018-04-21T09:58:53.000Z</time>
      </trkpt>
      <trkpt lat="40.806117" lon="-3.892232">
        <ele>2172.6</ele>
        <time>2018-04-21T09:58:54.000Z</time>
      </trkpt>
      <trkpt lat="40.806115" lon="-3.892243">
        <ele>2172.6</ele>
        <time>2018-04-21T09:58:55.000Z</time>
      </trkpt>
      <trkpt lat="40.806113" lon="-3.892254">
        <ele>2172.6</ele>
        <time>2018-04-21T09:58:56.000Z</time>
      </trkpt>
      <trkpt lat="40.806111" lon="-3.892265">
        <ele>2172.6</ele>
        <time>2018-04-21T09:58:57.000Z</time>
      </trkpt>
      <trkpt lat="40.806108" lon="-3.892275">
        <ele>2172.6</ele>
        <time>2018-04-21T09:58:58.000Z</time>
      </trkpt>
      <trkpt lat="40.806105" lon="-3.892286">
        <ele>2172.6</ele>
        <time>2018-04-21T09:58:59.000Z</time>
      </trkpt>
      <trkpt lat="40.806102" lon="-3.892297">
        <ele>2172.6</ele>
        <time>2018-04-21T09:59:00.000Z</time>
      </trkpt>
      <trkpt lat="40.806099" lon="-3.892307">
        <ele>2172.6</ele>
        <time>2018-04-21T09:59:01.000Z</time>
      </trkpt>
      <trkpt lat="40.806095" lon="-3.892318">
        <ele>2172.6</ele>
        <time>2018-04-21T09:59:02.000Z</time>
      </trkpt>
      <trkpt lat="40.806091" lon="-3.892328">
        <ele>2172.7</ele>
        <time>2018-04-21T09:59:03.000Z</time>
      </trkpt>
      <trkpt lat="40.806088" lon="-3.892339">
        <ele>2172.7</ele>
        <time>2018-04-21T09:59:04.000Z</time>
      </trkpt>
      <trkpt lat="40.806084" lon="-3.892349">
        <ele>2172.7</ele>
        <time>2018-04-21T09:59:05.000Z</time>
      </trkpt>
      <trkpt lat="40.80608" lon="-3.892359">
        <ele>2172.7</ele>
        <time>2018-04-21T09:59:06.000Z</time>
      </trkpt>
      <trkpt lat="40.806076" lon="-3.89237">
        <ele>2172.8</ele>
        <time>2018-04-21T09:59:07.000Z</time>
      </trkpt>
      <trkpt lat="40.806072" lon="-3.89238">
        <ele>2172.8</ele>
        <time>2018-04-21T09:59:08.000Z</time>
      </trkpt>
      <trkpt lat="40.806068" lon="-3.89239">
        <ele>2172.8</ele>
        <time>2018-04-21T09:59:09.000Z</time>
      </trkpt>
      <trkpt lat="40.806064" lon="-3.8924">
        <ele>2172.9</ele>
        <time>2018-04-21T09:59:10.000Z</time>
      </trkpt>
      <trkpt lat="40.80606" lon="-3.89241">
        <ele>2172.9</ele>
        <time>2018-04-21T09:59:11.000Z</time>
      </trkpt>
      <trkpt lat="40.806057" lon="-3.892421">
        <ele>2172.9</ele>
        <time>2018-04-21T09:59:12.000Z</time>
      </trkpt>
      <trkpt lat="40.806053" lon="-3.892431">
        <ele>2173.0</ele>
        <time>2018-04-21T09:59:13.000Z</time>
      </trkpt>
      <trkpt lat="40.80605" lon="-3.892441">
        <ele>2173.0</ele>
        <time>2018-04-21T09:59:14.000Z</time>
      </trkpt>
      <trkpt lat="40.806046" lon="-3.89245">
        <ele>2173.0</ele>
        <time>2018-04-21T09:59:15.000Z</time>
      </trkpt>
      <trkpt lat="40.806043" lon="-3.89246">
        <ele>2173.0</ele>
        <time>2018-04-21T09:59:16.000Z</time>
      </trkpt>
      <trkpt lat="40.80604" lon="-3.89247">
        <ele>2173.1</ele>
        <time>2018-04-21T09:59:17.000Z</time>
      </trkpt>
      <trkpt lat="40.806037" lon="-3.89248">
        <ele>2173.1</ele>
        <time>2018-04-21T09:59:18.000Z</time>
      </trkpt>
      <trkpt lat="40.806034" lon="-3.892489">
        <ele>2173.1</ele>
        <time>2018-04-21T09:59:19.000Z</time>
      </trkpt>
      <trkpt lat="40.806031" lon="-3.892498">
        <ele>2173.2</ele>
        <time>2018-04-21T09:59:20.000Z</time>
      </trkpt>
      <trkpt lat="40.806028" lon="-3.892508">
        <ele>2173.1</ele>
        <time>2018-04-21T09:59:21.000Z</time>
      </trkpt>
      <trkpt lat="40.806025" lon="-3.892517">
        <ele>2173.1</ele>
        <time>2018-04-21T09:59:22.000Z</time>
      </trkpt>
      <trkpt lat="40.806023" lon="-3.892525">
        <ele>2173.1</ele>
        <time>2018-04-21T09:59:23.000Z</time>
      </trkpt>
      <trkpt lat="40.80602" lon="-3.892534">
        <ele>2173.0</ele>
        <time>2018-04-21T09:59:24.000Z</time>
      </trkpt>
      <trkpt lat="40.806017" lon="-3.892543">
        <ele>2173.0</ele>
        <time>2018-04-21T09:59:25.000Z</time>
      </trkpt>
      <trkpt lat="40.806014" lon="-3.892551">
        <ele>2173.0</ele>
        <time>2018-04-21T09:59:26.000Z</time>
      </trkpt>
      <trkpt lat="40.806012" lon="-3.892559">
        <ele>2173.0</ele>
        <time>2018-04-21T09:59:27.000Z</time>
      </trkpt>
      <trkpt lat="40.806009" lon="-3.892567">
        <ele>2172.9</ele>
        <time>2018-04-21T09:59:28.000Z</time>
      </trkpt>
      <trkpt lat="40.806006" lon="-3.892574">
        <ele>2172.9</ele>
        <time>2018-04-21T09:59:29.000Z</time>
      </trkpt>
      <trkpt lat="40.806003" lon="-3.892581">
        <ele>2172.9</ele>
        <time>2018-04-21T09:59:30.000Z</time>
      </trkpt>
      <trkpt lat="40.806" lon="-3.892588">
        <ele>2172.9</ele>
        <time>2018-04-21T09:59:31.000Z</time>
      </trkpt>
      <trkpt lat="40.805997" lon="-3.892595">
        <ele>2172.9</ele>
        <time>2018-04-21T09:59:32.000Z</time>
      </trkpt>
      <trkpt lat="40.805994" lon="-3.892601">
        <ele>2172.9</ele>
        <time>2018-04-21T09:59:33.000Z</time>
      </trkpt>
      <trkpt lat="40.80599" lon="-3.892608">
        <ele>2172.9</ele>
        <time>2018-04-21T09:59:34.000Z</time>
      </trkpt>
      <trkpt lat="40.805987" lon="-3.892615">
        <ele>2172.9</ele>
        <time>2018-04-21T09:59:35.000Z</time>
      </trkpt>
      <trkpt lat="40.805984" lon="-3.892622">
        <ele>2172.9</ele>
        <time>2018-04-21T09:59:36.000Z</time>
      </trkpt>
      <trkpt lat="40.805981" lon="-3.892629">
        <ele>2172.9</ele>
        <time>2018-04-21T09:59:37.000Z</time>
      </trkpt>
      <trkpt lat="40.805978" lon="-3.892637">
        <ele>2172.8</ele>
        <time>2018-04-21T09:59:38.000Z</time>
      </trkpt>
      <trkpt lat="40.805975" lon="-3.892645">
        <ele>2172.8</ele>
        <time>2018-04-21T09:59:39.000Z</time>
      </trkpt>
      <trkpt lat="40.805972" lon="-3.892655">
        <ele>2172.8</ele>
        <time>2018-04-21T09:59:40.000Z</time>
      </trkpt>
      <trkpt lat="40.805969" lon="-3.892665">
        <ele>2172.8</ele>
        <time>2018-04-21T09:59:41.000Z</time>
      </trkpt>
      <trkpt lat="40.805967" lon="-3.892676">
        <ele>2172.7</ele>
        <time>2018-04-21T09:59:42.000Z</time>
      </trkpt>
      <trkpt lat="40.805965" lon="-3.892687">
        <ele>2172.7</ele>
        <time>2018-04-21T09:59:43.000Z</time>
      </trkpt>
      <trkpt lat="40.805964" lon="-3.892697">
        <ele>2172.6</ele>
        <time>2018-04-21T09:59:44.000Z</time>
      </trkpt>
      <trkpt lat="40.805964" lon="-3.892706">
        <ele>2172.5</ele>
        <time>2018-04-21T09:59:45.000Z</time>
      </trkpt>
      <trkpt lat="40.805965" lon="-3.892713">
        <ele>2172.4</ele>
        <time>2018-04-21T09:59:46.000Z</time>
      </trkpt>
      <trkpt lat="40.805966" lon="-3.892718">
        <ele>2172.4</ele>
        <time>2018-04-21T09:59:47.000Z</time>
      </trkpt>
      <trkpt lat="40.805968" lon="-3.892723">
        <ele>2172.3</ele>
        <time>2018-04-21T09:59:48.000Z</time>
      </trkpt>
      <trkpt lat="40.805971" lon="-3.892728">
        <ele>2172.2</ele>
        <time>2018-04-21T09:59:49.000Z</time>
      </trkpt>
      <trkpt lat="40.805973" lon="-3.892733">
        <ele>2172.2</ele>
        <time>2018-04-21T09:59:50.000Z</time>
      </trkpt>
      <trkpt lat="40.805975" lon="-3.892737">
        <ele>2172.1</ele>
        <time>2018-04-21T09:59:51.000Z</time>
      </trkpt>
      <trkpt lat="40.805978" lon="-3.892742">
        <ele>2172.0</ele>
        <time>2018-04-21T09:59:52.000Z</time>
      </trkpt>
      <trkpt lat="40.80598" lon="-3.892748">
        <ele>2171.9</ele>
        <time>2018-04-21T09:59:53.000Z</time>
      </trkpt>
      <trkpt lat="40.805982" lon="-3.892754">
        <ele>2171.9</ele>
        <time>2018-04-21T09:59:54.000Z</time>
      </trkpt>
      <trkpt lat="40.805984" lon="-3.89276">
        <ele>2171.8</ele>
        <time>2018-04-21T09:59:55.000Z</time>
      </trkpt>
      <trkpt lat="40.805986" lon="-3.892766">
        <ele>2171.7</ele>
        <time>2018-04-21T09:59:56.000Z</time>
      </trkpt>
      <trkpt lat="40.805988" lon="-3.892773">
        <ele>2171.6</ele>
        <time>2018-04-21T09:59:57.000Z</time>
      </trkpt>
      <trkpt lat="40.805989" lon="-3.89278">
        <ele>2171.6</ele>
        <time>2018-04-21T09:59:58.000Z</time>
      </trkpt>
      <trkpt lat="40.805991" lon="-3.892788">
        <ele>2171.5</ele>
        <time>2018-04-21T09:59:59.000Z</time>
      </trkpt>
      <trkpt lat="40.805993" lon="-3.892796">
        <ele>2171.4</ele>
        <time>2018-04-21T10:00:00.000Z</time>
      </trkpt>
      <trkpt lat="40.805994" lon="-3.892805">
        <ele>2171.3</ele>
        <time>2018-04-21T10:00:01.000Z</time>
      </trkpt>
      <trkpt lat="40.805995" lon="-3.892813">
        <ele>2171.2</ele>
        <time>2018-04-21T10:00:02.000Z</time>
      </trkpt>
      <trkpt lat="40.805996" lon="-3.892821">
        <ele>2171.1</ele>
        <time>2018-04-21T10:00:03.000Z</time>
      </trkpt>
      <trkpt lat="40.805997" lon="-3.892828">
        <ele>2171.0</ele>
        <time>2018-04-21T10:00:04.000Z</time>
      </trkpt>
      <trkpt lat="40.805998" lon="-3.892835">
        <ele>2171.0</ele>
        <time>2018-04-21T10:00:05.000Z</time>
      </trkpt>
      <trkpt lat="40.805998" lon="-3.892841">
        <ele>2170.9</ele>
        <time>2018-04-21T10:00:06.000Z</time>
      </trkpt>
      <trkpt lat="40.805999" lon="-3.892846">
        <ele>2170.9</ele>
        <time>2018-04-21T10:00:07.000Z</time>
      </trkpt>
      <trkpt lat="40.805999" lon="-3.89285">
        <ele>2170.8</ele>
        <time>2018-04-21T10:00:08.000Z</time>
      </trkpt>
      <trkpt lat="40.805999" lon="-3.892852">
        <ele>2170.8</ele>
        <time>2018-04-21T10:00:09.000Z</time>
      </trkpt>
      <trkpt lat="40.805998" lon="-3.892854">
        <ele>2170.8</ele>
        <time>2018-04-21T10:00:10.000Z</time>
      </trkpt>
      <trkpt lat="40.805998" lon="-3.892856">
        <ele>2170.8</ele>
        <time>2018-04-21T10:00:11.000Z</time>
      </trkpt>
      <trkpt lat="40.805997" lon="-3.892858">
        <ele>2170.8</ele>
        <time>2018-04-21T10:00:12.000Z</time>
      </trkpt>
      <trkpt lat="40.805996" lon="-3.892859">
        <ele>2170.8</ele>
        <time>2018-04-21T10:00:13.000Z</time>
      </trkpt>
      <trkpt lat="40.805995" lon="-3.892862">
        <ele>2170.8</ele>
        <time>2018-04-21T10:00:14.000Z</time>
      </trkpt>
      <trkpt lat="40.805993" lon="-3.892865">
        <ele>2170.8</ele>
        <time>2018-04-21T10:00:15.000Z</time>
      </trkpt>
      <trkpt lat="40.805991" lon="-3.892869">
        <ele>2170.8</ele>
        <time>2018-04-21T10:00:16.000Z</time>
      </trkpt>
      <trkpt lat="40.805989" lon="-3.892874">
        <ele>2170.8</ele>
        <time>2018-04-21T10:00:17.000Z</time>
      </trkpt>
      <trkpt lat="40.805987" lon="-3.892881">
        <ele>2170.8</ele>
        <time>2018-04-21T10:00:18.000Z</time>
      </trkpt>
      <trkpt lat="40.805984" lon="-3.892888">
        <ele>2170.8</ele>
        <time>2018-04-21T10:00:19.000Z</time>
      </trkpt>
      <trkpt lat="40.805982" lon="-3.892896">
        <ele>2170.8</ele>
        <time>2018-04-21T10:00:20.000Z</time>
      </trkpt>
      <trkpt lat="40.80598" lon="-3.892903">
        <ele>2170.7</ele>
        <time>2018-04-21T10:00:21.000Z</time>
      </trkpt>
      <trkpt lat="40.805977" lon="-3.892911">
        <ele>2170.7</ele>
        <time>2018-04-21T10:00:22.000Z</time>
      </trkpt>
      <trkpt lat="40.805975" lon="-3.892917">
        <ele>2170.7</ele>
        <time>2018-04-21T10:00:23.000Z</time>
      </trkpt>
      <trkpt lat="40.805974" lon="-3.892923">
        <ele>2170.7</ele>
        <time>2018-04-21T10:00:24.000Z</time>
      </trkpt>
      <trkpt lat="40.805973" lon="-3.892927">
        <ele>2170.7</ele>
        <time>2018-04-21T10:00:25.000Z</time>
      </trkpt>
      <trkpt lat="40.805972" lon="-3.89293">
        <ele>2170.6</ele>
        <time>2018-04-21T10:00:26.000Z</time>
      </trkpt>
      <trkpt lat="40.805972" lon="-3.892932">
        <ele>2170.6</ele>
        <time>2018-04-21T10:00:27.000Z</time>
      </trkpt>
      <trkpt lat="40.805972" lon="-3.892935">
        <ele>2170.6</ele>
        <time>2018-04-21T10:00:28.000Z</time>
      </trkpt>
      <trkpt lat="40.805971" lon="-3.892939">
        <ele>2170.6</ele>
        <time>2018-04-21T10:00:29.000Z</time>
      </trkpt>
      <trkpt lat="40.805971" lon="-3.892946">
        <ele>2170.5</ele>
        <time>2018-04-21T10:00:30.000Z</time>
      </trkpt>
      <trkpt lat="40.80597" lon="-3.892956">
        <ele>2170.5</ele>
        <time>2018-04-21T10:00:31.000Z</time>
      </trkpt>
      <trkpt lat="40.805969" lon="-3.892968">
        <ele>2170.4</ele>
        <time>2018-04-21T10:00:32.000Z</time>
      </trkpt>
      <trkpt lat="40.805966" lon="-3.892981">
        <ele>2170.4</ele>
        <time>2018-04-21T10:00:33.000Z</time>
      </trkpt>
      <trkpt lat="40.805963" lon="-3.892995">
        <ele>2170.3</ele>
        <time>2018-04-21T10:00:34.000Z</time>
      </trkpt>
      <trkpt lat="40.805958" lon="-3.893007">
        <ele>2170.3</ele>
        <time>2018-04-21T10:00:35.000Z</time>
      </trkpt>
      <trkpt lat="40.805952" lon="-3.893018">
        <ele>2170.3</ele>
        <time>2018-04-21T10:00:36.000Z</time>
      </trkpt>
      <trkpt lat="40.805947" lon="-3.893029">
        <ele>2170.3</ele>
        <time>2018-04-21T10:00:37.000Z</time>
      </trkpt>
      <trkpt lat="40.805941" lon="-3.893038">
        <ele>2170.3</ele>
        <time>2018-04-21T10:00:38.000Z</time>
      </trkpt>
      <trkpt lat="40.805937" lon="-3.893046">
        <ele>2170.3</ele>
        <time>2018-04-21T10:00:39.000Z</time>
      </trkpt>
      <trkpt lat="40.805934" lon="-3.893054">
        <ele>2170.3</ele>
        <time>2018-04-21T10:00:40.000Z</time>
      </trkpt>
      <trkpt lat="40.805932" lon="-3.893061">
        <ele>2170.3</ele>
        <time>2018-04-21T10:00:41.000Z</time>
      </trkpt>
      <trkpt lat="40.80593" lon="-3.893067">
        <ele>2170.3</ele>
        <time>2018-04-21T10:00:42.000Z</time>
      </trkpt>
      <trkpt lat="40.805927" lon="-3.893072">
        <ele>2170.3</ele>
        <time>2018-04-21T10:00:43.000Z</time>
      </trkpt>
      <trkpt lat="40.805924" lon="-3.893078">
        <ele>2170.3</ele>
        <time>2018-04-21T10:00:44.000Z</time>
      </trkpt>
      <trkpt lat="40.805919" lon="-3.893082">
        <ele>2170.4</ele>
        <time>2018-04-21T10:00:45.000Z</time>
      </trkpt>
      <trkpt lat="40.805913" lon="-3.893087">
        <ele>2170.4</ele>
        <time>2018-04-21T10:00:46.000Z</time>
      </trkpt>
      <trkpt lat="40.805907" lon="-3.893091">
        <ele>2170.5</ele>
        <time>2018-04-21T10:00:47.000Z</time>
      </trkpt>
      <trkpt lat="40.805901" lon="-3.893095">
        <ele>2170.6</ele>
        <time>2018-04-21T10:00:48.000Z</time>
      </trkpt>
      <trkpt lat="40.805894" lon="-3.893099">
        <ele>2170.7</ele>
        <time>2018-04-21T10:00:49.000Z</time>
      </trkpt>
      <trkpt lat="40.805887" lon="-3.893104">
        <ele>2170.7</ele>
        <time>2018-04-21T10:00:50.000Z</time>
      </trkpt>
      <trkpt lat="40.80588" lon="-3.893108">
        <ele>2170.8</ele>
        <time>2018-04-21T10:00:51.000Z</time>
      </trkpt>
      <trkpt lat="40.805873" lon="-3.893113">
        <ele>2170.9</ele>
        <time>2018-04-21T10:00:52.000Z</time>
      </trkpt>
      <trkpt lat="40.805867" lon="-3.893119">
        <ele>2171.0</ele>
        <time>2018-04-21T10:00:53.000Z</time>
      </trkpt>
      <trkpt lat="40.805861" lon="-3.893125">
        <ele>2171.0</ele>
        <time>2018-04-21T10:00:54.000Z</time>
      </trkpt>
      <trkpt lat="40.805855" lon="-3.893132">
        <ele>2171.1</ele>
        <time>2018-04-21T10:00:55.000Z</time>
      </trkpt>
      <trkpt lat="40.80585" lon="-3.893138">
        <ele>2171.1</ele>
        <time>2018-04-21T10:00:56.000Z</time>
      </trkpt>
      <trkpt lat="40.805845" lon="-3.893145">
        <ele>2171.2</ele>
        <time>2018-04-21T10:00:57.000Z</time>
      </trkpt>
      <trkpt lat="40.80584" lon="-3.893151">
        <ele>2171.2</ele>
        <time>2018-04-21T10:00:58.000Z</time>
      </trkpt>
      <trkpt lat="40.805834" lon="-3.893158">
        <ele>2171.3</ele>
        <time>2018-04-21T10:00:59.000Z</time>
      </trkpt>
      <trkpt lat="40.805829" lon="-3.893164">
        <ele>2171.1</ele>
        <time>2018-04-21T10:01:00.000Z</time>
      </trkpt>
      <trkpt lat="40.805824" lon="-3.89317">
        <ele>2171.0</ele>
        <time>2018-04-21T10:01:01.000Z</time>
      </trkpt>
      <trkpt lat="40.805819" lon="-3.893175">
        <ele>2170.8</ele>
        <time>2018-04-21T10:01:02.000Z</time>
      </trkpt>
      <trkpt lat="40.805814" lon="-3.89318">
        <ele>2170.7</ele>
        <time>2018-04-21T10:01:03.000Z</time>
      </trkpt>
      <trkpt lat="40.805809" lon="-3.893184">
        <ele>2170.5</ele>
        <time>2018-04-21T10:01:04.000Z</time>
      </trkpt>
      <trkpt lat="40.805805" lon="-3.893186">
        <ele>2170.4</ele>
        <time>2018-04-21T10:01:05.000Z</time>
      </trkpt>
      <trkpt lat="40.805802" lon="-3.893188">
        <ele>2170.4</ele>
        <time>2018-04-21T10:01:06.000Z</time>
      </trkpt>
      <trkpt lat="40.805801" lon="-3.893188">
        <ele>2170.3</ele>
        <time>2018-04-21T10:01:07.000Z</time>
      </trkpt>
      <trkpt lat="40.8058" lon="-3.893187">
        <ele>2170.3</ele>
        <time>2018-04-21T10:01:08.000Z</time>
      </trkpt>
      <trkpt lat="40.8058" lon="-3.893188">
        <ele>2170.3</ele>
        <time>2018-04-21T10:01:09.000Z</time>
      </trkpt>
      <trkpt lat="40.805799" lon="-3.893191">
        <ele>2170.3</ele>
        <time>2018-04-21T10:01:10.000Z</time>
      </trkpt>
      <trkpt lat="40.805798" lon="-3.893197">
        <ele>2170.2</ele>
        <time>2018-04-21T10:01:11.000Z</time>
      </trkpt>
      <trkpt lat="40.805796" lon="-3.893208">
        <ele>2170.1</ele>
        <time>2018-04-21T10:01:12.000Z</time>
      </trkpt>
      <trkpt lat="40.805793" lon="-3.893222">
        <ele>2169.9</ele>
        <time>2018-04-21T10:01:13.000Z</time>
      </trkpt>
      <trkpt lat="40.80579" lon="-3.893237">
        <ele>2169.8</ele>
        <time>2018-04-21T10:01:14.000Z</time>
      </trkpt>
      <trkpt lat="40.805787" lon="-3.893253">
        <ele>2169.6</ele>
        <time>2018-04-21T10:01:15.000Z</time>
      </trkpt>
      <trkpt lat="40.805785" lon="-3.893269">
        <ele>2169.5</ele>
        <time>2018-04-21T10:01:16.000Z</time>
      </trkpt>
      <trkpt lat="40.805784" lon="-3.893283">
        <ele>2169.4</ele>
        <time>2018-04-21T10:01:17.000Z</time>
      </trkpt>
      <trkpt lat="40.805784" lon="-3.893294">
        <ele>2169.3</ele>
        <time>2018-04-21T10:01:18.000Z</time>
      </trkpt>
      <trkpt lat="40.805785" lon="-3.893305">
        <ele>2169.2</ele>
        <time>2018-04-21T10:01:19.000Z</time>
      </trkpt>
      <trkpt lat="40.805785" lon="-3.893315">
        <ele>2169.2</ele>
        <time>2018-04-21T10:01:20.000Z</time>
      </trkpt>
      <trkpt lat="40.805785" lon="-3.893324">
        <ele>2169.1</ele>
        <time>2018-04-21T10:01:21.000Z</time>
      </trkpt>
      <trkpt lat="40.805785" lon="-3.893333">
        <ele>2169.1</ele>
        <time>2018-04-21T10:01:22.000Z</time>
      </trkpt>
      <trkpt lat="40.805784" lon="-3.893342">
        <ele>2169.0</ele>
        <time>2018-04-21T10:01:23.000Z</time>
      </trkpt>
      <trkpt lat="40.805783" lon="-3.893351">
        <ele>2169.0</ele>
        <time>2018-04-21T10:01:24.000Z</time>
      </trkpt>
      <trkpt lat="40.805781" lon="-3.89336">
        <ele>2168.9</ele>
        <time>2018-04-21T10:01:25.000Z</time>
      </trkpt>
      <trkpt lat="40.805779" lon="-3.89337">
        <ele>2168.8</ele>
        <time>2018-04-21T10:01:26.000Z</time>
      </trkpt>
      <trkpt lat="40.805777" lon="-3.89338">
        <ele>2168.7</ele>
        <time>2018-04-21T10:01:27.000Z</time>
      </trkpt>
      <trkpt lat="40.805774" lon="-3.89339">
        <ele>2168.6</ele>
        <time>2018-04-21T10:01:28.000Z</time>
      </trkpt>
      <trkpt lat="40.805772" lon="-3.893402">
        <ele>2168.5</ele>
        <time>2018-04-21T10:01:29.000Z</time>
      </trkpt>
      <trkpt lat="40.805769" lon="-3.893414">
        <ele>2168.4</ele>
        <time>2018-04-21T10:01:30.000Z</time>
      </trkpt>
      <trkpt lat="40.805766" lon="-3.893427">
        <ele>2168.3</ele>
        <time>2018-04-21T10:01:31.000Z</time>
      </trkpt>
      <trkpt lat="40.805763" lon="-3.893441">
        <ele>2168.2</ele>
        <time>2018-04-21T10:01:32.000Z</time>
      </trkpt>
      <trkpt lat="40.80576" lon="-3.893456">
        <ele>2168.1</ele>
        <time>2018-04-21T10:01:33.000Z</time>
      </trkpt>
      <trkpt lat="40.805757" lon="-3.89347">
        <ele>2167.9</ele>
        <time>2018-04-21T10:01:34.000Z</time>
      </trkpt>
      <trkpt lat="40.805754" lon="-3.893485">
        <ele>2167.8</ele>
        <time>2018-04-21T10:01:35.000Z</time>
      </trkpt>
      <trkpt lat="40.805752" lon="-3.8935">
        <ele>2167.7</ele>
        <time>2018-04-21T10:01:36.000Z</time>
      </trkpt>
      <trkpt lat="40.80575" lon="-3.893514">
        <ele>2167.6</ele>
        <time>2018-04-21T10:01:37.000Z</time>
      </trkpt>
      <trkpt lat="40.805748" lon="-3.893528">
        <ele>2167.5</ele>
        <time>2018-04-21T10:01:38.000Z</time>
      </trkpt>
      <trkpt lat="40.805747" lon="-3.893542">
        <ele>2167.4</ele>
        <time>2018-04-21T10:01:39.000Z</time>
      </trkpt>
      <trkpt lat="40.805747" lon="-3.893555">
        <ele>2167.4</ele>
        <time>2018-04-21T10:01:40.000Z</time>
      </trkpt>
      <trkpt lat="40.805747" lon="-3.893568">
        <ele>2167.3</ele>
        <time>2018-04-21T10:01:41.000Z</time>
      </trkpt>
      <trkpt lat="40.805747" lon="-3.89358">
        <ele>2167.3</ele>
        <time>2018-04-21T10:01:42.000Z</time>
      </trkpt>
      <trkpt lat="40.805748" lon="-3.893592">
        <ele>2167.2</ele>
        <time>2018-04-21T10:01:43.000Z</time>
      </trkpt>
      <trkpt lat="40.805749" lon="-3.893604">
        <ele>2167.2</ele>
        <time>2018-04-21T10:01:44.000Z</time>
      </trkpt>
      <trkpt lat="40.80575" lon="-3.893615">
        <ele>2167.2</ele>
        <time>2018-04-21T10:01:45.000Z</time>
      </trkpt>
      <trkpt lat="40.805751" lon="-3.893626">
        <ele>2167.2</ele>
        <time>2018-04-21T10:01:46.000Z</time>
      </trkpt>
      <trkpt lat="40.805753" lon="-3.893637">
        <ele>2167.1</ele>
        <time>2018-04-21T10:01:47.000Z</time>
      </trkpt>
      <trkpt lat="40.805754" lon="-3.893648">
        <ele>2167.1</ele>
        <time>2018-04-21T10:01:48.000Z</time>
      </trkpt>
      <trkpt lat="40.805755" lon="-3.893659">
        <ele>2167.1</ele>
        <time>2018-04-21T10:01:49.000Z</time>
      </trkpt>
      <trkpt lat="40.805755" lon="-3.89367">
        <ele>2167.0</ele>
        <time>2018-04-21T10:01:50.000Z</time>
      </trkpt>
      <trkpt lat="40.805756" lon="-3.893681">
        <ele>2167.0</ele>
        <time>2018-04-21T10:01:51.000Z</time>
      </trkpt>
      <trkpt lat="40.805756" lon="-3.893693">
        <ele>2166.9</ele>
        <time>2018-04-21T10:01:52.000Z</time>
      </trkpt>
      <trkpt lat="40.805756" lon="-3.893704">
        <ele>2166.9</ele>
        <time>2018-04-21T10:01:53.000Z</time>
      </trkpt>
      <trkpt lat="40.805755" lon="-3.893715">
        <ele>2166.8</ele>
        <time>2018-04-21T10:01:54.000Z</time>
      </trkpt>
      <trkpt lat="40.805754" lon="-3.893727">
        <ele>2166.8</ele>
        <time>2018-04-21T10:01:55.000Z</time>
      </trkpt>
      <trkpt lat="40.805752" lon="-3.893739">
        <ele>2166.7</ele>
        <time>2018-04-21T10:01:56.000Z</time>
      </trkpt>
      <trkpt lat="40.805749" lon="-3.893752">
        <ele>2166.6</ele>
        <time>2018-04-21T10:01:57.000Z</time>
      </trkpt>
      <trkpt lat="40.805746" lon="-3.893764">
        <ele>2166.5</ele>
        <time>2018-04-21T10:01:58.000Z</time>
      </trkpt>
      <trkpt lat="40.805742" lon="-3.893777">
        <ele>2166.4</ele>
        <time>2018-04-21T10:01:59.000Z</time>
      </trkpt>
      <trkpt lat="40.805739" lon="-3.89379">
        <ele>2166.2</ele>
        <time>2018-04-21T10:02:00.000Z</time>
      </trkpt>
      <trkpt lat="40.805735" lon="-3.893803">
        <ele>2166.1</ele>
        <time>2018-04-21T10:02:01.000Z</time>
      </trkpt>
      <trkpt lat="40.805732" lon="-3.893816">
        <ele>2166.0</ele>
        <time>2018-04-21T10:02:02.000Z</time>
      </trkpt>
      <trkpt lat="40.805728" lon="-3.893829">
        <ele>2165.9</ele>
        <time>2018-04-21T10:02:03.000Z</time>
      </trkpt>
      <trkpt lat="40.805726" lon="-3.893842">
        <ele>2165.8</ele>
        <time>2018-04-21T10:02:04.000Z</time>
      </trkpt>
      <trkpt lat="40.805724" lon="-3.893855">
        <ele>2165.7</ele>
        <time>2018-04-21T10:02:05.000Z</time>
      </trkpt>
      <trkpt lat="40.805723" lon="-3.893867">
        <ele>2165.7</ele>
        <time>2018-04-21T10:02:06.000Z</time>
      </trkpt>
      <trkpt lat="40.805723" lon="-3.893879">
        <ele>2165.6</ele>
        <time>2018-04-21T10:02:07.000Z</time>
      </trkpt>
      <trkpt lat="40.805721" lon="-3.893891">
        <ele>2165.5</ele>
        <time>2018-04-21T10:02:08.000Z</time>
      </trkpt>
      <trkpt lat="40.805719" lon="-3.893901">
        <ele>2165.5</ele>
        <time>2018-04-21T10:02:09.000Z</time>
      </trkpt>
      <trkpt lat="40.805716" lon="-3.893912">
        <ele>2165.4</ele>
        <time>2018-04-21T10:02:10.000Z</time>
      </trkpt>
      <trkpt lat="40.80571" lon="-3.893921">
        <ele>2165.2</ele>
        <time>2018-04-21T10:02:11.000Z</time>
      </trkpt>
      <trkpt lat="40.805704" lon="-3.893931">
        <ele>2165.1</ele>
        <time>2018-04-21T10:02:12.000Z</time>
      </trkpt>
      <trkpt lat="40.805697" lon="-3.89394">
        <ele>2164.9</ele>
        <time>2018-04-21T10:02:13.000Z</time>
      </trkpt>
      <trkpt lat="40.805692" lon="-3.893949">
        <ele>2164.8</ele>
        <time>2018-04-21T10:02:14.000Z</time>
      </trkpt>
      <trkpt lat="40.80569" lon="-3.893958">
        <ele>2164.8</ele>
        <time>2018-04-21T10:02:15.000Z</time>
      </trkpt>
      <trkpt lat="40.80569" lon="-3.893968">
        <ele>2164.7</ele>
        <time>2018-04-21T10:02:16.000Z</time>
      </trkpt>
      <trkpt lat="40.805692" lon="-3.893979">
        <ele>2164.7</ele>
        <time>2018-04-21T10:02:17.000Z</time>
      </trkpt>
      <trkpt lat="40.805696" lon="-3.89399">
        <ele>2164.7</ele>
        <time>2018-04-21T10:02:18.000Z</time>
      </trkpt>
      <trkpt lat="40.805701" lon="-3.894001">
        <ele>2164.8</ele>
        <time>2018-04-21T10:02:19.000Z</time>
      </trkpt>
      <trkpt lat="40.805707" lon="-3.894013">
        <ele>2164.8</ele>
        <time>2018-04-21T10:02:20.000Z</time>
      </trkpt>
      <trkpt lat="40.805713" lon="-3.894026">
        <ele>2164.8</ele>
        <time>2018-04-21T10:02:21.000Z</time>
      </trkpt>
      <trkpt lat="40.80572" lon="-3.894039">
        <ele>2164.9</ele>
        <time>2018-04-21T10:02:22.000Z</time>
      </trkpt>
      <trkpt lat="40.805726" lon="-3.894053">
        <ele>2164.9</ele>
        <time>2018-04-21T10:02:23.000Z</time>
      </trkpt>
      <trkpt lat="40.805732" lon="-3.894067">
        <ele>2165.0</ele>
        <time>2018-04-21T10:02:24.000Z</time>
      </trkpt>
      <trkpt lat="40.805737" lon="-3.894082">
        <ele>2165.0</ele>
        <time>2018-04-21T10:02:25.000Z</time>
      </trkpt>
      <trkpt lat="40.805742" lon="-3.894097">
        <ele>2165.0</ele>
        <time>2018-04-21T10:02:26.000Z</time>
      </trkpt>
      <trkpt lat="40.805748" lon="-3.894112">
        <ele>2165.0</ele>
        <time>2018-04-21T10:02:27.000Z</time>
      </trkpt>
      <trkpt lat="40.805753" lon="-3.894127">
        <ele>2165.0</ele>
        <time>2018-04-21T10:02:28.000Z</time>
      </trkpt>
      <trkpt lat="40.805759" lon="-3.894141">
        <ele>2165.0</ele>
        <time>2018-04-21T10:02:29.000Z</time>
      </trkpt>
      <trkpt lat="40.805764" lon="-3.894154">
        <ele>2165.1</ele>
        <time>2018-04-21T10:02:30.000Z</time>
      </trkpt>
      <trkpt lat="40.805769" lon="-3.894167">
        <ele>2165.1</ele>
        <time>2018-04-21T10:02:31.000Z</time>
      </trkpt>
      <trkpt lat="40.805772" lon="-3.894179">
        <ele>2165.1</ele>
        <time>2018-04-21T10:02:32.000Z</time>
      </trkpt>
      <trkpt lat="40.805773" lon="-3.89419">
        <ele>2165.2</ele>
        <time>2018-04-21T10:02:33.000Z</time>
      </trkpt>
      <trkpt lat="40.805773" lon="-3.894201">
        <ele>2165.2</ele>
        <time>2018-04-21T10:02:34.000Z</time>
      </trkpt>
      <trkpt lat="40.805771" lon="-3.89421">
        <ele>2165.2</ele>
        <time>2018-04-21T10:02:35.000Z</time>
      </trkpt>
      <trkpt lat="40.805768" lon="-3.89422">
        <ele>2165.2</ele>
        <time>2018-04-21T10:02:36.000Z</time>
      </trkpt>
      <trkpt lat="40.805764" lon="-3.894229">
        <ele>2165.1</ele>
        <time>2018-04-21T10:02:37.000Z</time>
      </trkpt>
      <trkpt lat="40.805759" lon="-3.894237">
        <ele>2165.1</ele>
        <time>2018-04-21T10:02:38.000Z</time>
      </trkpt>
      <trkpt lat="40.805753" lon="-3.894245">
        <ele>2165.0</ele>
        <time>2018-04-21T10:02:39.000Z</time>
      </trkpt>
      <trkpt lat="40.805747" lon="-3.894253">
        <ele>2164.9</ele>
        <time>2018-04-21T10:02:40.000Z</time>
      </trkpt>
      <trkpt lat="40.805741" lon="-3.89426">
        <ele>2164.9</ele>
        <time>2018-04-21T10:02:41.000Z</time>
      </trkpt>
      <trkpt lat="40.805736" lon="-3.894267">
        <ele>2164.8</ele>
        <time>2018-04-21T10:02:42.000Z</time>
      </trkpt>
      <trkpt lat="40.80573" lon="-3.894274">
        <ele>2164.7</ele>
        <time>2018-04-21T10:02:43.000Z</time>
      </trkpt>
      <trkpt lat="40.805725" lon="-3.894281">
        <ele>2164.7</ele>
        <time>2018-04-21T10:02:44.000Z</time>
      </trkpt>
      <trkpt lat="40.805721" lon="-3.894288">
        <ele>2164.6</ele>
        <time>2018-04-21T10:02:45.000Z</time>
      </trkpt>
      <trkpt lat="40.805717" lon="-3.894296">
        <ele>2164.6</ele>
        <time>2018-04-21T10:02:46.000Z</time>
      </trkpt>
      <trkpt lat="40.805714" lon="-3.894303">
        <ele>2164.5</ele>
        <time>2018-04-21T10:02:47.000Z</time>
      </trkpt>
      <trkpt lat="40.805712" lon="-3.894311">
        <ele>2164.5</ele>
        <time>2018-04-21T10:02:48.000Z</time>
      </trkpt>
      <trkpt lat="40.80571" lon="-3.894319">
        <ele>2164.5</ele>
        <time>2018-04-21T10:02:49.000Z</time>
      </trkpt>
      <trkpt lat="40.80571" lon="-3.894328">
        <ele>2164.5</ele>
        <time>2018-04-21T10:02:50.000Z</time>
      </trkpt>
      <trkpt lat="40.80571" lon="-3.894337">
        <ele>2164.5</ele>
        <time>2018-04-21T10:02:51.000Z</time>
      </trkpt>
      <trkpt lat="40.805712" lon="-3.894347">
        <ele>2164.6</ele>
        <time>2018-04-21T10:02:52.000Z</time>
      </trkpt>
      <trkpt lat="40.805714" lon="-3.894357">
        <ele>2164.6</ele>
        <time>2018-04-21T10:02:53.000Z</time>
      </trkpt>
      <trkpt lat="40.805716" lon="-3.894368">
        <ele>2164.7</ele>
        <time>2018-04-21T10:02:54.000Z</time>
      </trkpt>
      <trkpt lat="40.805719" lon="-3.894379">
        <ele>2164.8</ele>
        <time>2018-04-21T10:02:55.000Z</time>
      </trkpt>
      <trkpt lat="40.805723" lon="-3.894391">
        <ele>2164.8</ele>
        <time>2018-04-21T10:02:56.000Z</time>
      </trkpt>
      <trkpt lat="40.805726" lon="-3.894402">
        <ele>2164.9</ele>
        <time>2018-04-21T10:02:57.000Z</time>
      </trkpt>
      <trkpt lat="40.805729" lon="-3.894414">
        <ele>2165.0</ele>
        <time>2018-04-21T10:02:58.000Z</time>
      </trkpt>
      <trkpt lat="40.805732" lon="-3.894426">
        <ele>2165.0</ele>
        <time>2018-04-21T10:02:59.000Z</time>
      </trkpt>
      <trkpt lat="40.805735" lon="-3.894438">
        <ele>2165.1</ele>
        <time>2018-04-21T10:03:00.000Z</time>
      </trkpt>
      <trkpt lat="40.805737" lon="-3.894449">
        <ele>2165.2</ele>
        <time>2018-04-21T10:03:01.000Z</time>
      </trkpt>
      <trkpt lat="40.805738" lon="-3.894461">
        <ele>2165.2</ele>
        <time>2018-04-21T10:03:02.000Z</time>
      </trkpt>
      <trkpt lat="40.805738" lon="-3.894472">
        <ele>2165.2</ele>
        <time>2018-04-21T10:03:03.000Z</time>
      </trkpt>
      <trkpt lat="40.805738" lon="-3.894483">
        <ele>2165.3</ele>
        <time>2018-04-21T10:03:04.000Z</time>
      </trkpt>
      <trkpt lat="40.805736" lon="-3.894494">
        <ele>2165.2</ele>
        <time>2018-04-21T10:03:05.000Z</time>
      </trkpt>
      <trkpt lat="40.805732" lon="-3.894504">
        <ele>2165.2</ele>
        <time>2018-04-21T10:03:06.000Z</time>
      </trkpt>
      <trkpt lat="40.805728" lon="-3.894513">
        <ele>2165.2</ele>
        <time>2018-04-21T10:03:07.000Z</time>
      </trkpt>
      <trkpt lat="40.805721" lon="-3.894522">
        <ele>2165.1</ele>
        <time>2018-04-21T10:03:08.000Z</time>
      </trkpt>
      <trkpt lat="40.805713" lon="-3.89453">
        <ele>2165.0</ele>
        <time>2018-04-21T10:03:09.000Z</time>
      </trkpt>
      <trkpt lat="40.805704" lon="-3.894538">
        <ele>2164.8</ele>
        <time>2018-04-21T10:03:10.000Z</time>
      </trkpt>
      <trkpt lat="40.805696" lon="-3.894545">
        <ele>2164.7</ele>
        <time>2018-04-21T10:03:11.000Z</time>
      </trkpt>
      <trkpt lat="40.805688" lon="-3.894552">
        <ele>2164.6</ele>
        <time>2018-04-21T10:03:12.000Z</time>
      </trkpt>
      <trkpt lat="40.805682" lon="-3.894558">
        <ele>2164.5</ele>
        <time>2018-04-21T10:03:13.000Z</time>
      </trkpt>
      <trkpt lat="40.805678" lon="-3.894565">
        <ele>2164.5</ele>
        <time>2018-04-21T10:03:14.000Z</time>
      </trkpt>
      <trkpt lat="40.805677" lon="-3.894572">
        <ele>2164.4</ele>
        <time>2018-04-21T10:03:15.000Z</time>
      </trkpt>
      <trkpt lat="40.805676" lon="-3.89458">
        <ele>2164.4</ele>
        <time>2018-04-21T10:03:16.000Z</time>
      </trkpt>
      <trkpt lat="40.805675" lon="-3.894589">
        <ele>2164.4</ele>
        <time>2018-04-21T10:03:17.000Z</time>
      </trkpt>
      <trkpt lat="40.805673" lon="-3.8946">
        <ele>2164.4</ele>
        <time>2018-04-21T10:03:18.000Z</time>
      </trkpt>
      <trkpt lat="40.80567" lon="-3.894612">
        <ele>2164.4</ele>
        <time>2018-04-21T10:03:19.000Z</time>
      </trkpt>
      <trkpt lat="40.805666" lon="-3.894626">
        <ele>2164.4</ele>
        <time>2018-04-21T10:03:20.000Z</time>
      </trkpt>
      <trkpt lat="40.805661" lon="-3.89464">
        <ele>2164.3</ele>
        <time>2018-04-21T10:03:21.000Z</time>
      </trkpt>
      <trkpt lat="40.805657" lon="-3.894656">
        <ele>2164.3</ele>
        <time>2018-04-21T10:03:22.000Z</time>
      </trkpt>
      <trkpt lat="40.805652" lon="-3.894672">
        <ele>2164.2</ele>
        <time>2018-04-21T10:03:23.000Z</time>
      </trkpt>
      <trkpt lat="40.805648" lon="-3.894689">
        <ele>2164.2</ele>
        <time>2018-04-21T10:03:24.000Z</time>
      </trkpt>
      <trkpt lat="40.805643" lon="-3.894706">
        <ele>2164.1</ele>
        <time>2018-04-21T10:03:25.000Z</time>
      </trkpt>
      <trkpt lat="40.80564" lon="-3.894723">
        <ele>2164.1</ele>
        <time>2018-04-21T10:03:26.000Z</time>
      </trkpt>
      <trkpt lat="40.805637" lon="-3.894741">
        <ele>2164.1</ele>
        <time>2018-04-21T10:03:27.000Z</time>
      </trkpt>
      <trkpt lat="40.805635" lon="-3.894758">
        <ele>2164.1</ele>
        <time>2018-04-21T10:03:28.000Z</time>
      </trkpt>
      <trkpt lat="40.805634" lon="-3.894775">
        <ele>2164.1</ele>
        <time>2018-04-21T10:03:29.000Z</time>
      </trkpt>
      <trkpt lat="40.805633" lon="-3.894792">
        <ele>2164.1</ele>
        <time>2018-04-21T10:03:30.000Z</time>
      </trkpt>
      <trkpt lat="40.805633" lon="-3.894808">
        <ele>2164.1</ele>
        <time>2018-04-21T10:03:31.000Z</time>
      </trkpt>
      <trkpt lat="40.805632" lon="-3.894825">
        <ele>2164.1</ele>
        <time>2018-04-21T10:03:32.000Z</time>
      </trkpt>
      <trkpt lat="40.805633" lon="-3.894841">
        <ele>2164.2</ele>
        <time>2018-04-21T10:03:33.000Z</time>
      </trkpt>
      <trkpt lat="40.805633" lon="-3.894856">
        <ele>2164.2</ele>
        <time>2018-04-21T10:03:34.000Z</time>
      </trkpt>
      <trkpt lat="40.805634" lon="-3.894872">
        <ele>2164.2</ele>
        <time>2018-04-21T10:03:35.000Z</time>
      </trkpt>
      <trkpt lat="40.805634" lon="-3.894887">
        <ele>2164.2</ele>
        <time>2018-04-21T10:03:36.000Z</time>
      </trkpt>
      <trkpt lat="40.805634" lon="-3.894902">
        <ele>2164.3</ele>
        <time>2018-04-21T10:03:37.000Z</time>
      </trkpt>
      <trkpt lat="40.805635" lon="-3.894916">
        <ele>2164.3</ele>
        <time>2018-04-21T10:03:38.000Z</time>
      </trkpt>
      <trkpt lat="40.805634" lon="-3.89493">
        <ele>2164.3</ele>
        <time>2018-04-21T10:03:39.000Z</time>
      </trkpt>
      <trkpt lat="40.805634" lon="-3.894944">
        <ele>2164.3</ele>
        <time>2018-04-21T10:03:40.000Z</time>
      </trkpt>
      <trkpt lat="40.805633" lon="-3.894958">
        <ele>2164.3</ele>
        <time>2018-04-21T10:03:41.000Z</time>
      </trkpt>
      <trkpt lat="40.805631" lon="-3.894972">
        <ele>2164.3</ele>
        <time>2018-04-21T10:03:42.000Z</time>
      </trkpt>
      <trkpt lat="40.805629" lon="-3.894986">
        <ele>2164.3</ele>
        <time>2018-04-21T10:03:43.000Z</time>
      </trkpt>
      <trkpt lat="40.805626" lon="-3.895">
        <ele>2164.3</ele>
        <time>2018-04-21T10:03:44.000Z</time>
      </trkpt>
      <trkpt lat="40.805623" lon="-3.895014">
        <ele>2164.3</ele>
        <time>2018-04-21T10:03:45.000Z</time>
      </trkpt>
      <trkpt lat="40.805618" lon="-3.895028">
        <ele>2164.2</ele>
        <time>2018-04-21T10:03:46.000Z</time>
      </trkpt>
      <trkpt lat="40.805614" lon="-3.895043">
        <ele>2164.2</ele>
        <time>2018-04-21T10:03:47.000Z</time>
      </trkpt>
      <trkpt lat="40.805609" lon="-3.895057">
        <ele>2164.2</ele>
        <time>2018-04-21T10:03:48.000Z</time>
      </trkpt>
      <trkpt lat="40.805604" lon="-3.895072">
        <ele>2164.1</ele>
        <time>2018-04-21T10:03:49.000Z</time>
      </trkpt>
      <trkpt lat="40.8056" lon="-3.895087">
        <ele>2164.1</ele>
        <time>2018-04-21T10:03:50.000Z</time>
      </trkpt>
      <trkpt lat="40.805596" lon="-3.895102">
        <ele>2164.1</ele>
        <time>2018-04-21T10:03:51.000Z</time>
      </trkpt>
      <trkpt lat="40.805593" lon="-3.895117">
        <ele>2164.1</ele>
        <time>2018-04-21T10:03:52.000Z</time>
      </trkpt>
      <trkpt lat="40.805592" lon="-3.895132">
        <ele>2164.1</ele>
        <time>2018-04-21T10:03:53.000Z</time>
      </trkpt>
      <trkpt lat="40.805591" lon="-3.895148">
        <ele>2164.2</ele>
        <time>2018-04-21T10:03:54.000Z</time>
      </trkpt>
      <trkpt lat="40.805591" lon="-3.895164">
        <ele>2164.2</ele>
        <time>2018-04-21T10:03:55.000Z</time>
      </trkpt>
      <trkpt lat="40.805592" lon="-3.895179">
        <ele>2164.3</ele>
        <time>2018-04-21T10:03:56.000Z</time>
      </trkpt>
      <trkpt lat="40.805593" lon="-3.895195">
        <ele>2164.4</ele>
        <time>2018-04-21T10:03:57.000Z</time>
      </trkpt>
      <trkpt lat="40.805593" lon="-3.89521">
        <ele>2164.4</ele>
        <time>2018-04-21T10:03:58.000Z</time>
      </trkpt>
      <trkpt lat="40.805593" lon="-3.895226">
        <ele>2164.5</ele>
        <time>2018-04-21T10:03:59.000Z</time>
      </trkpt>
      <trkpt lat="40.805593" lon="-3.89524">
        <ele>2164.5</ele>
        <time>2018-04-21T10:04:00.000Z</time>
      </trkpt>
      <trkpt lat="40.805591" lon="-3.895255">
        <ele>2164.6</ele>
        <time>2018-04-21T10:04:01.000Z</time>
      </trkpt>
      <trkpt lat="40.80559" lon="-3.895269">
        <ele>2164.6</ele>
        <time>2018-04-21T10:04:02.000Z</time>
      </trkpt>
      <trkpt lat="40.805587" lon="-3.895283">
        <ele>2164.6</ele>
        <time>2018-04-21T10:04:03.000Z</time>
      </trkpt>
      <trkpt lat="40.805585" lon="-3.895297">
        <ele>2164.6</ele>
        <time>2018-04-21T10:04:04.000Z</time>
      </trkpt>
      <trkpt lat="40.805582" lon="-3.895311">
        <ele>2164.6</ele>
        <time>2018-04-21T10:04:05.000Z</time>
      </trkpt>
      <trkpt lat="40.805579" lon="-3.895325">
        <ele>2164.6</ele>
        <time>2018-04-21T10:04:06.000Z</time>
      </trkpt>
      <trkpt lat="40.805575" lon="-3.895338">
        <ele>2164.6</ele>
        <time>2018-04-21T10:04:07.000Z</time>
      </trkpt>
      <trkpt lat="40.805572" lon="-3.895352">
        <ele>2164.6</ele>
        <time>2018-04-21T10:04:08.000Z</time>
      </trkpt>
      <trkpt lat="40.805569" lon="-3.895365">
        <ele>2164.6</ele>
        <time>2018-04-21T10:04:09.000Z</time>
      </trkpt>
      <trkpt lat="40.805566" lon="-3.895379">
        <ele>2164.6</ele>
        <time>2018-04-21T10:04:10.000Z</time>
      </trkpt>
      <trkpt lat="40.805564" lon="-3.895393">
        <ele>2164.6</ele>
        <time>2018-04-21T10:04:11.000Z</time>
      </trkpt>
      <trkpt lat="40.805562" lon="-3.895407">
        <ele>2164.6</ele>
        <time>2018-04-21T10:04:12.000Z</time>
      </trkpt>
      <trkpt lat="40.80556" lon="-3.895422">
        <ele>2164.6</ele>
        <time>2018-04-21T10:04:13.000Z</time>
      </trkpt>
      <trkpt lat="40.805559" lon="-3.895436">
        <ele>2164.6</ele>
        <time>2018-04-21T10:04:14.000Z</time>
      </trkpt>
      <trkpt lat="40.805557" lon="-3.895451">
        <ele>2164.6</ele>
        <time>2018-04-21T10:04:15.000Z</time>
      </trkpt>
      <trkpt lat="40.805556" lon="-3.895466">
        <ele>2164.7</ele>
        <time>2018-04-21T10:04:16.000Z</time>
      </trkpt>
      <trkpt lat="40.805555" lon="-3.895481">
        <ele>2164.7</ele>
        <time>2018-04-21T10:04:17.000Z</time>
      </trkpt>
      <trkpt lat="40.805554" lon="-3.895497">
        <ele>2164.8</ele>
        <time>2018-04-21T10:04:18.000Z</time>
      </trkpt>
      <trkpt lat="40.805553" lon="-3.895513">
        <ele>2164.8</ele>
        <time>2018-04-21T10:04:19.000Z</time>
      </trkpt>
      <trkpt lat="40.805552" lon="-3.895529">
        <ele>2164.8</ele>
        <time>2018-04-21T10:04:20.000Z</time>
      </trkpt>
      <trkpt lat="40.80555" lon="-3.895545">
        <ele>2164.9</ele>
        <time>2018-04-21T10:04:21.000Z</time>
      </trkpt>
      <trkpt lat="40.805549" lon="-3.895561">
        <ele>2164.9</ele>
        <time>2018-04-21T10:04:22.000Z</time>
      </trkpt>
      <trkpt lat="40.805547" lon="-3.895578">
        <ele>2164.9</ele>
        <time>2018-04-21T10:04:23.000Z</time>
      </trkpt>
      <trkpt lat="40.805544" lon="-3.895595">
        <ele>2164.9</ele>
        <time>2018-04-21T10:04:24.000Z</time>
      </trkpt>
      <trkpt lat="40.805542" lon="-3.895612">
        <ele>2165.0</ele>
        <time>2018-04-21T10:04:25.000Z</time>
      </trkpt>
      <trkpt lat="40.805539" lon="-3.895629">
        <ele>2165.0</ele>
        <time>2018-04-21T10:04:26.000Z</time>
      </trkpt>
      <trkpt lat="40.805537" lon="-3.895646">
        <ele>2165.0</ele>
        <time>2018-04-21T10:04:27.000Z</time>
      </trkpt>
      <trkpt lat="40.805534" lon="-3.895663">
        <ele>2165.0</ele>
        <time>2018-04-21T10:04:28.000Z</time>
      </trkpt>
      <trkpt lat="40.805531" lon="-3.89568">
        <ele>2165.0</ele>
        <time>2018-04-21T10:04:29.000Z</time>
      </trkpt>
      <trkpt lat="40.805527" lon="-3.895698">
        <ele>2165.0</ele>
        <time>2018-04-21T10:04:30.000Z</time>
      </trkpt>
      <trkpt lat="40.805524" lon="-3.895715">
        <ele>2165.0</ele>
        <time>2018-04-21T10:04:31.000Z</time>
      </trkpt>
      <trkpt lat="40.805521" lon="-3.895732">
        <ele>2165.0</ele>
        <time>2018-04-21T10:04:32.000Z</time>
      </trkpt>
      <trkpt lat="40.805517" lon="-3.895749">
        <ele>2165.0</ele>
        <time>2018-04-21T10:04:33.000Z</time>
      </trkpt>
      <trkpt lat="40.805514" lon="-3.895766">
        <ele>2165.0</ele>
        <time>2018-04-21T10:04:34.000Z</time>
      </trkpt>
      <trkpt lat="40.80551" lon="-3.895783">
        <ele>2165.0</ele>
        <time>2018-04-21T10:04:35.000Z</time>
      </trkpt>
      <trkpt lat="40.805507" lon="-3.895799">
        <ele>2165.0</ele>
        <time>2018-04-21T10:04:36.000Z</time>
      </trkpt>
      <trkpt lat="40.805503" lon="-3.895815">
        <ele>2165.0</ele>
        <time>2018-04-21T10:04:37.000Z</time>
      </trkpt>
      <trkpt lat="40.8055" lon="-3.895831">
        <ele>2165.0</ele>
        <time>2018-04-21T10:04:38.000Z</time>
      </trkpt>
      <trkpt lat="40.805496" lon="-3.895847">
        <ele>2165.1</ele>
        <time>2018-04-21T10:04:39.000Z</time>
      </trkpt>
      <trkpt lat="40.805493" lon="-3.895863">
        <ele>2165.2</ele>
        <time>2018-04-21T10:04:40.000Z</time>
      </trkpt>
      <trkpt lat="40.805489" lon="-3.895878">
        <ele>2165.2</ele>
        <time>2018-04-21T10:04:41.000Z</time>
      </trkpt>
      <trkpt lat="40.805486" lon="-3.895893">
        <ele>2165.3</ele>
        <time>2018-04-21T10:04:42.000Z</time>
      </trkpt>
      <trkpt lat="40.805482" lon="-3.895908">
        <ele>2165.4</ele>
        <time>2018-04-21T10:04:43.000Z</time>
      </trkpt>
      <trkpt lat="40.805479" lon="-3.895923">
        <ele>2165.5</ele>
        <time>2018-04-21T10:04:44.000Z</time>
      </trkpt>
      <trkpt lat="40.805476" lon="-3.895938">
        <ele>2165.6</ele>
        <time>2018-04-21T10:04:45.000Z</time>
      </trkpt>
      <trkpt lat="40.805472" lon="-3.895952">
        <ele>2165.7</ele>
        <time>2018-04-21T10:04:46.000Z</time>
      </trkpt>
      <trkpt lat="40.805469" lon="-3.895967">
        <ele>2165.8</ele>
        <time>2018-04-21T10:04:47.000Z</time>
      </trkpt>
      <trkpt lat="40.805465" lon="-3.895981">
        <ele>2165.8</ele>
        <time>2018-04-21T10:04:48.000Z</time>
      </trkpt>
      <trkpt lat="40.805462" lon="-3.895996">
        <ele>2165.9</ele>
        <time>2018-04-21T10:04:49.000Z</time>
      </trkpt>
      <trkpt lat="40.805459" lon="-3.89601">
        <ele>2166.0</ele>
        <time>2018-04-21T10:04:50.000Z</time>
      </trkpt>
      <trkpt lat="40.805455" lon="-3.896024">
        <ele>2166.1</ele>
        <time>2018-04-21T10:04:51.000Z</time>
      </trkpt>
      <trkpt lat="40.805452" lon="-3.896039">
        <ele>2166.2</ele>
        <time>2018-04-21T10:04:52.000Z</time>
      </trkpt>
      <trkpt lat="40.805448" lon="-3.896053">
        <ele>2166.3</ele>
        <time>2018-04-21T10:04:53.000Z</time>
      </trkpt>
      <trkpt lat="40.805445" lon="-3.896068">
        <ele>2166.4</ele>
        <time>2018-04-21T10:04:54.000Z</time>
      </trkpt>
      <trkpt lat="40.805441" lon="-3.896083">
        <ele>2166.5</ele>
        <time>2018-04-21T10:04:55.000Z</time>
      </trkpt>
      <trkpt lat="40.805438" lon="-3.896097">
        <ele>2166.6</ele>
        <time>2018-04-21T10:04:56.000Z</time>
      </trkpt>
      <trkpt lat="40.805434" lon="-3.896112">
        <ele>2166.7</ele>
        <time>2018-04-21T10:04:57.000Z</time>
      </trkpt>
      <trkpt lat="40.805431" lon="-3.896127">
        <ele>2166.9</ele>
        <time>2018-04-21T10:04:58.000Z</time>
      </trkpt>
      <trkpt lat="40.805427" lon="-3.896142">
        <ele>2167.0</ele>
        <time>2018-04-21T10:04:59.000Z</time>
      </trkpt>
      <trkpt lat="40.805424" lon="-3.896158">
        <ele>2167.1</ele>
        <time>2018-04-21T10:05:00.000Z</time>
      </trkpt>
      <trkpt lat="40.80542" lon="-3.896173">
        <ele>2167.2</ele>
        <time>2018-04-21T10:05:01.000Z</time>
      </trkpt>
      <trkpt lat="40.805416" lon="-3.896188">
        <ele>2167.3</ele>
        <time>2018-04-21T10:05:02.000Z</time>
      </trkpt>
      <trkpt lat="40.805413" lon="-3.896204">
        <ele>2167.5</ele>
        <time>2018-04-21T10:05:03.000Z</time>
      </trkpt>
      <trkpt lat="40.805409" lon="-3.896219">
        <ele>2167.6</ele>
        <time>2018-04-21T10:05:04.000Z</time>
      </trkpt>
      <trkpt lat="40.805405" lon="-3.896234">
        <ele>2167.7</ele>
        <time>2018-04-21T10:05:05.000Z</time>
      </trkpt>
      <trkpt lat="40.805401" lon="-3.89625">
        <ele>2167.8</ele>
        <time>2018-04-21T10:05:06.000Z</time>
      </trkpt>
      <trkpt lat="40.805398" lon="-3.896265">
        <ele>2168.0</ele>
        <time>2018-04-21T10:05:07.000Z</time>
      </trkpt>
      <trkpt lat="40.805394" lon="-3.89628">
        <ele>2168.1</ele>
        <time>2018-04-21T10:05:08.000Z</time>
      </trkpt>
      <trkpt lat="40.80539" lon="-3.896295">
        <ele>2168.2</ele>
        <time>2018-04-21T10:05:09.000Z</time>
      </trkpt>
      <trkpt lat="40.805386" lon="-3.896311">
        <ele>2168.4</ele>
        <time>2018-04-21T10:05:10.000Z</time>
      </trkpt>
      <trkpt lat="40.805382" lon="-3.896325">
        <ele>2168.5</ele>
        <time>2018-04-21T10:05:11.000Z</time>
      </trkpt>
      <trkpt lat="40.805378" lon="-3.89634">
        <ele>2168.6</ele>
        <time>2018-04-21T10:05:12.000Z</time>
      </trkpt>
      <trkpt lat="40.805374" lon="-3.896355">
        <ele>2168.8</ele>
        <time>2018-04-21T10:05:13.000Z</time>
      </trkpt>
      <trkpt lat="40.80537" lon="-3.896369">
        <ele>2168.9</ele>
        <time>2018-04-21T10:05:14.000Z</time>
      </trkpt>
      <trkpt lat="40.805366" lon="-3.896384">
        <ele>2169.0</ele>
        <time>2018-04-21T10:05:15.000Z</time>
      </trkpt>
      <trkpt lat="40.805362" lon="-3.896398">
        <ele>2169.1</ele>
        <time>2018-04-21T10:05:16.000Z</time>
      </trkpt>
      <trkpt lat="40.805358" lon="-3.896412">
        <ele>2169.3</ele>
        <time>2018-04-21T10:05:17.000Z</time>
      </trkpt>
      <trkpt lat="40.805354" lon="-3.896426">
        <ele>2169.4</ele>
        <time>2018-04-21T10:05:18.000Z</time>
      </trkpt>
      <trkpt lat="40.80535" lon="-3.89644">
        <ele>2169.6</ele>
        <time>2018-04-21T10:05:19.000Z</time>
      </trkpt>
      <trkpt lat="40.805347" lon="-3.896454">
        <ele>2169.7</ele>
        <time>2018-04-21T10:05:20.000Z</time>
      </trkpt>
      <trkpt lat="40.805343" lon="-3.896468">
        <ele>2169.8</ele>
        <time>2018-04-21T10:05:21.000Z</time>
      </trkpt>
      <trkpt lat="40.80534" lon="-3.896483">
        <ele>2170.0</ele>
        <time>2018-04-21T10:05:22.000Z</time>
      </trkpt>
      <trkpt lat="40.805338" lon="-3.896497">
        <ele>2170.2</ele>
        <time>2018-04-21T10:05:23.000Z</time>
      </trkpt>
      <trkpt lat="40.805335" lon="-3.896512">
        <ele>2170.3</ele>
        <time>2018-04-21T10:05:24.000Z</time>
      </trkpt>
      <trkpt lat="40.805333" lon="-3.896528">
        <ele>2170.5</ele>
        <time>2018-04-21T10:05:25.000Z</time>
      </trkpt>
      <trkpt lat="40.805332" lon="-3.896543">
        <ele>2170.7</ele>
        <time>2018-04-21T10:05:26.000Z</time>
      </trkpt>
      <trkpt lat="40.80533" lon="-3.896559">
        <ele>2170.9</ele>
        <time>2018-04-21T10:05:27.000Z</time>
      </trkpt>
      <trkpt lat="40.805329" lon="-3.896574">
        <ele>2171.0</ele>
        <time>2018-04-21T10:05:28.000Z</time>
      </trkpt>
      <trkpt lat="40.805327" lon="-3.89659">
        <ele>2171.2</ele>
        <time>2018-04-21T10:05:29.000Z</time>
      </trkpt>
      <trkpt lat="40.805326" lon="-3.896605">
        <ele>2171.4</ele>
        <time>2018-04-21T10:05:30.000Z</time>
      </trkpt>
      <trkpt lat="40.805325" lon="-3.896621">
        <ele>2171.6</ele>
        <time>2018-04-21T10:05:31.000Z</time>
      </trkpt>
      <trkpt lat="40.805323" lon="-3.896636">
        <ele>2171.8</ele>
        <time>2018-04-21T10:05:32.000Z</time>
      </trkpt>
      <trkpt lat="40.805321" lon="-3.896651">
        <ele>2172.0</ele>
        <time>2018-04-21T10:05:33.000Z</time>
      </trkpt>
      <trkpt lat="40.805319" lon="-3.896665">
        <ele>2172.1</ele>
        <time>2018-04-21T10:05:34.000Z</time>
      </trkpt>
      <trkpt lat="40.805317" lon="-3.89668">
        <ele>2172.3</ele>
        <time>2018-04-21T10:05:35.000Z</time>
      </trkpt>
      <trkpt lat="40.805314" lon="-3.896694">
        <ele>2172.5</ele>
        <time>2018-04-21T10:05:36.000Z</time>
      </trkpt>
      <trkpt lat="40.805312" lon="-3.896708">
        <ele>2172.6</ele>
        <time>2018-04-21T10:05:37.000Z</time>
      </trkpt>
      <trkpt lat="40.805309" lon="-3.896721">
        <ele>2172.8</ele>
        <time>2018-04-21T10:05:38.000Z</time>
      </trkpt>
      <trkpt lat="40.805306" lon="-3.896735">
        <ele>2172.9</ele>
        <time>2018-04-21T10:05:39.000Z</time>
      </trkpt>
      <trkpt lat="40.805303" lon="-3.896749">
        <ele>2173.1</ele>
        <time>2018-04-21T10:05:40.000Z</time>
      </trkpt>
      <trkpt lat="40.805299" lon="-3.896762">
        <ele>2173.3</ele>
        <time>2018-04-21T10:05:41.000Z</time>
      </trkpt>
      <trkpt lat="40.805296" lon="-3.896775">
        <ele>2173.4</ele>
        <time>2018-04-21T10:05:42.000Z</time>
      </trkpt>
      <trkpt lat="40.805292" lon="-3.896788">
        <ele>2173.6</ele>
        <time>2018-04-21T10:05:43.000Z</time>
      </trkpt>
      <trkpt lat="40.805288" lon="-3.896802">
        <ele>2173.7</ele>
        <time>2018-04-21T10:05:44.000Z</time>
      </trkpt>
      <trkpt lat="40.805284" lon="-3.896815">
        <ele>2173.9</ele>
        <time>2018-04-21T10:05:45.000Z</time>
      </trkpt>
      <trkpt lat="40.80528" lon="-3.896828">
        <ele>2174.1</ele>
        <time>2018-04-21T10:05:46.000Z</time>
      </trkpt>
      <trkpt lat="40.805276" lon="-3.896841">
        <ele>2174.2</ele>
        <time>2018-04-21T10:05:47.000Z</time>
      </trkpt>
      <trkpt lat="40.805272" lon="-3.896854">
        <ele>2174.4</ele>
        <time>2018-04-21T10:05:48.000Z</time>
      </trkpt>
      <trkpt lat="40.805267" lon="-3.896867">
        <ele>2174.6</ele>
        <time>2018-04-21T10:05:49.000Z</time>
      </trkpt>
      <trkpt lat="40.805263" lon="-3.89688">
        <ele>2174.7</ele>
        <time>2018-04-21T10:05:50.000Z</time>
      </trkpt>
      <trkpt lat="40.805258" lon="-3.896893">
        <ele>2174.9</ele>
        <time>2018-04-21T10:05:51.000Z</time>
      </trkpt>
      <trkpt lat="40.805253" lon="-3.896907">
        <ele>2175.1</ele>
        <time>2018-04-21T10:05:52.000Z</time>
      </trkpt>
      <trkpt lat="40.805248" lon="-3.89692">
        <ele>2175.2</ele>
        <time>2018-04-21T10:05:53.000Z</time>
      </trkpt>
      <trkpt lat="40.805243" lon="-3.896933">
        <ele>2175.4</ele>
        <time>2018-04-21T10:05:54.000Z</time>
      </trkpt>
      <trkpt lat="40.805238" lon="-3.896947">
        <ele>2175.6</ele>
        <time>2018-04-21T10:05:55.000Z</time>
      </trkpt>
      <trkpt lat="40.805233" lon="-3.89696">
        <ele>2175.8</ele>
        <time>2018-04-21T10:05:56.000Z</time>
      </trkpt>
      <trkpt lat="40.805228" lon="-3.896974">
        <ele>2176.0</ele>
        <time>2018-04-21T10:05:57.000Z</time>
      </trkpt>
      <trkpt lat="40.805223" lon="-3.896988">
        <ele>2176.2</ele>
        <time>2018-04-21T10:05:58.000Z</time>
      </trkpt>
      <trkpt lat="40.805218" lon="-3.897001">
        <ele>2176.4</ele>
        <time>2018-04-21T10:05:59.000Z</time>
      </trkpt>
      <trkpt lat="40.805213" lon="-3.897015">
        <ele>2176.6</ele>
        <time>2018-04-21T10:06:00.000Z</time>
      </trkpt>
      <trkpt lat="40.805207" lon="-3.897029">
        <ele>2176.8</ele>
        <time>2018-04-21T10:06:01.000Z</time>
      </trkpt>
      <trkpt lat="40.805202" lon="-3.897042">
        <ele>2176.9</ele>
        <time>2018-04-21T10:06:02.000Z</time>
      </trkpt>
      <trkpt lat="40.805196" lon="-3.897056">
        <ele>2177.1</ele>
        <time>2018-04-21T10:06:03.000Z</time>
      </trkpt>
      <trkpt lat="40.805191" lon="-3.89707">
        <ele>2177.4</ele>
        <time>2018-04-21T10:06:04.000Z</time>
      </trkpt>
      <trkpt lat="40.805185" lon="-3.897083">
        <ele>2177.6</ele>
        <time>2018-04-21T10:06:05.000Z</time>
      </trkpt>
      <trkpt lat="40.80518" lon="-3.897097">
        <ele>2177.8</ele>
        <time>2018-04-21T10:06:06.000Z</time>
      </trkpt>
      <trkpt lat="40.805174" lon="-3.897111">
        <ele>2178.0</ele>
        <time>2018-04-21T10:06:07.000Z</time>
      </trkpt>
      <trkpt lat="40.805169" lon="-3.897125">
        <ele>2178.2</ele>
        <time>2018-04-21T10:06:08.000Z</time>
      </trkpt>
      <trkpt lat="40.805163" lon="-3.897138">
        <ele>2178.4</ele>
        <time>2018-04-21T10:06:09.000Z</time>
      </trkpt>
      <trkpt lat="40.805157" lon="-3.897152">
        <ele>2178.6</ele>
        <time>2018-04-21T10:06:10.000Z</time>
      </trkpt>
      <trkpt lat="40.805152" lon="-3.897165">
        <ele>2178.8</ele>
        <time>2018-04-21T10:06:11.000Z</time>
      </trkpt>
      <trkpt lat="40.805146" lon="-3.897179">
        <ele>2179.1</ele>
        <time>2018-04-21T10:06:12.000Z</time>
      </trkpt>
      <trkpt lat="40.805141" lon="-3.897192">
        <ele>2179.3</ele>
        <time>2018-04-21T10:06:13.000Z</time>
      </trkpt>
      <trkpt lat="40.805135" lon="-3.897206">
        <ele>2179.5</ele>
        <time>2018-04-21T10:06:14.000Z</time>
      </trkpt>
      <trkpt lat="40.80513" lon="-3.897219">
        <ele>2179.7</ele>
        <time>2018-04-21T10:06:15.000Z</time>
      </trkpt>
      <trkpt lat="40.805124" lon="-3.897233">
        <ele>2179.9</ele>
        <time>2018-04-21T10:06:16.000Z</time>
      </trkpt>
      <trkpt lat="40.805119" lon="-3.897246">
        <ele>2180.2</ele>
        <time>2018-04-21T10:06:17.000Z</time>
      </trkpt>
      <trkpt lat="40.805113" lon="-3.897259">
        <ele>2180.4</ele>
        <time>2018-04-21T10:06:18.000Z</time>
      </trkpt>
      <trkpt lat="40.805108" lon="-3.897272">
        <ele>2180.6</ele>
        <time>2018-04-21T10:06:19.000Z</time>
      </trkpt>
      <trkpt lat="40.805103" lon="-3.897285">
        <ele>2180.8</ele>
        <time>2018-04-21T10:06:20.000Z</time>
      </trkpt>
      <trkpt lat="40.805097" lon="-3.897298">
        <ele>2181.1</ele>
        <time>2018-04-21T10:06:21.000Z</time>
      </trkpt>
      <trkpt lat="40.805092" lon="-3.897311">
        <ele>2181.3</ele>
        <time>2018-04-21T10:06:22.000Z</time>
      </trkpt>
      <trkpt lat="40.805087" lon="-3.897324">
        <ele>2181.5</ele>
        <time>2018-04-21T10:06:23.000Z</time>
      </trkpt>
      <trkpt lat="40.805082" lon="-3.897337">
        <ele>2181.8</ele>
        <time>2018-04-21T10:06:24.000Z</time>
      </trkpt>
      <trkpt lat="40.805077" lon="-3.897349">
        <ele>2182.0</ele>
        <time>2018-04-21T10:06:25.000Z</time>
      </trkpt>
      <trkpt lat="40.805072" lon="-3.897362">
        <ele>2182.2</ele>
        <time>2018-04-21T10:06:26.000Z</time>
      </trkpt>
      <trkpt lat="40.805067" lon="-3.897374">
        <ele>2182.4</ele>
        <time>2018-04-21T10:06:27.000Z</time>
      </trkpt>
      <trkpt lat="40.805062" lon="-3.897386">
        <ele>2182.7</ele>
        <time>2018-04-21T10:06:28.000Z</time>
      </trkpt>
      <trkpt lat="40.805057" lon="-3.897398">
        <ele>2182.9</ele>
        <time>2018-04-21T10:06:29.000Z</time>
      </trkpt>
      <trkpt lat="40.805053" lon="-3.89741">
        <ele>2183.1</ele>
        <time>2018-04-21T10:06:30.000Z</time>
      </trkpt>
      <trkpt lat="40.805048" lon="-3.897422">
        <ele>2183.3</ele>
        <time>2018-04-21T10:06:31.000Z</time>
      </trkpt>
      <trkpt lat="40.805044" lon="-3.897434">
        <ele>2183.6</ele>
        <time>2018-04-21T10:06:32.000Z</time>
      </trkpt>
      <trkpt lat="40.805039" lon="-3.897446">
        <ele>2183.8</ele>
        <time>2018-04-21T10:06:33.000Z</time>
      </trkpt>
      <trkpt lat="40.805035" lon="-3.897457">
        <ele>2184.0</ele>
        <time>2018-04-21T10:06:34.000Z</time>
      </trkpt>
      <trkpt lat="40.80503" lon="-3.897469">
        <ele>2184.2</ele>
        <time>2018-04-21T10:06:35.000Z</time>
      </trkpt>
      <trkpt lat="40.805026" lon="-3.89748">
        <ele>2184.5</ele>
        <time>2018-04-21T10:06:36.000Z</time>
      </trkpt>
      <trkpt lat="40.805021" lon="-3.897492">
        <ele>2184.7</ele>
        <time>2018-04-21T10:06:37.000Z</time>
      </trkpt>
      <trkpt lat="40.805017" lon="-3.897503">
        <ele>2184.9</ele>
        <time>2018-04-21T10:06:38.000Z</time>
      </trkpt>
      <trkpt lat="40.805012" lon="-3.897515">
        <ele>2184.9</ele>
        <time>2018-04-21T10:06:39.000Z</time>
      </trkpt>
      <trkpt lat="40.805008" lon="-3.897526">
        <ele>2185.0</ele>
        <time>2018-04-21T10:06:40.000Z</time>
      </trkpt>
      <trkpt lat="40.805003" lon="-3.897537">
        <ele>2185.0</ele>
        <time>2018-04-21T10:06:41.000Z</time>
      </trkpt>
      <trkpt lat="40.804998" lon="-3.897548">
        <ele>2185.0</ele>
        <time>2018-04-21T10:06:42.000Z</time>
      </trkpt>
      <trkpt lat="40.804994" lon="-3.897559">
        <ele>2185.0</ele>
        <time>2018-04-21T10:06:43.000Z</time>
      </trkpt>
      <trkpt lat="40.804989" lon="-3.89757">
        <ele>2184.9</ele>
        <time>2018-04-21T10:06:44.000Z</time>
      </trkpt>
      <trkpt lat="40.804984" lon="-3.897581">
        <ele>2184.9</ele>
        <time>2018-04-21T10:06:45.000Z</time>
      </trkpt>
      <trkpt lat="40.804979" lon="-3.897592">
        <ele>2184.9</ele>
        <time>2018-04-21T10:06:46.000Z</time>
      </trkpt>
      <trkpt lat="40.804974" lon="-3.897603">
        <ele>2184.8</ele>
        <time>2018-04-21T10:06:47.000Z</time>
      </trkpt>
      <trkpt lat="40.804969" lon="-3.897615">
        <ele>2184.8</ele>
        <time>2018-04-21T10:06:48.000Z</time>
      </trkpt>
      <trkpt lat="40.804964" lon="-3.897626">
        <ele>2184.7</ele>
        <time>2018-04-21T10:06:49.000Z</time>
      </trkpt>
      <trkpt lat="40.804958" lon="-3.897637">
        <ele>2184.7</ele>
        <time>2018-04-21T10:06:50.000Z</time>
      </trkpt>
      <trkpt lat="40.804953" lon="-3.897648">
        <ele>2184.6</ele>
        <time>2018-04-21T10:06:51.000Z</time>
      </trkpt>
      <trkpt lat="40.804948" lon="-3.897659">
        <ele>2184.6</ele>
        <time>2018-04-21T10:06:52.000Z</time>
      </trkpt>
      <trkpt lat="40.804943" lon="-3.89767">
        <ele>2184.6</ele>
        <time>2018-04-21T10:06:53.000Z</time>
      </trkpt>
      <trkpt lat="40.804938" lon="-3.897682">
        <ele>2184.5</ele>
        <time>2018-04-21T10:06:54.000Z</time>
      </trkpt>
      <trkpt lat="40.804933" lon="-3.897693">
        <ele>2184.5</ele>
        <time>2018-04-21T10:06:55.000Z</time>
      </trkpt>
      <trkpt lat="40.804928" lon="-3.897705">
        <ele>2184.5</ele>
        <time>2018-04-21T10:06:56.000Z</time>
      </trkpt>
      <trkpt lat="40.804923" lon="-3.897717">
        <ele>2184.5</ele>
        <time>2018-04-21T10:06:57.000Z</time>
      </trkpt>
      <trkpt lat="40.804919" lon="-3.897729">
        <ele>2184.4</ele>
        <time>2018-04-21T10:06:58.000Z</time>
      </trkpt>
      <trkpt lat="40.804914" lon="-3.897741">
        <ele>2184.4</ele>
        <time>2018-04-21T10:06:59.000Z</time>
      </trkpt>
      <trkpt lat="40.80491" lon="-3.897753">
        <ele>2184.4</ele>
        <time>2018-04-21T10:07:00.000Z</time>
      </trkpt>
      <trkpt lat="40.804905" lon="-3.897765">
        <ele>2184.4</ele>
        <time>2018-04-21T10:07:01.000Z</time>
      </trkpt>
      <trkpt lat="40.804901" lon="-3.897777">
        <ele>2184.4</ele>
        <time>2018-04-21T10:07:02.000Z</time>
      </trkpt>
      <trkpt lat="40.804898" lon="-3.89779">
        <ele>2184.4</ele>
        <time>2018-04-21T10:07:03.000Z</time>
      </trkpt>
      <trkpt lat="40.804894" lon="-3.897803">
        <ele>2184.4</ele>
        <time>2018-04-21T10:07:04.000Z</time>
      </trkpt>
      <trkpt lat="40.804891" lon="-3.897816">
        <ele>2184.4</ele>
        <time>2018-04-21T10:07:05.000Z</time>
      </trkpt>
      <trkpt lat="40.804887" lon="-3.897829">
        <ele>2184.4</ele>
        <time>2018-04-21T10:07:06.000Z</time>
      </trkpt>
      <trkpt lat="40.804884" lon="-3.897842">
        <ele>2184.4</ele>
        <time>2018-04-21T10:07:07.000Z</time>
      </trkpt>
      <trkpt lat="40.80488" lon="-3.897855">
        <ele>2184.4</ele>
        <time>2018-04-21T10:07:08.000Z</time>
      </trkpt>
      <trkpt lat="40.804876" lon="-3.897868">
        <ele>2184.4</ele>
        <time>2018-04-21T10:07:09.000Z</time>
      </trkpt>
      <trkpt lat="40.804871" lon="-3.897881">
        <ele>2184.4</ele>
        <time>2018-04-21T10:07:10.000Z</time>
      </trkpt>
      <trkpt lat="40.804865" lon="-3.897894">
        <ele>2184.4</ele>
        <time>2018-04-21T10:07:11.000Z</time>
      </trkpt>
      <trkpt lat="40.804859" lon="-3.897906">
        <ele>2184.4</ele>
        <time>2018-04-21T10:07:12.000Z</time>
      </trkpt>
      <trkpt lat="40.804852" lon="-3.897918">
        <ele>2184.3</ele>
        <time>2018-04-21T10:07:13.000Z</time>
      </trkpt>
      <trkpt lat="40.804845" lon="-3.89793">
        <ele>2184.3</ele>
        <time>2018-04-21T10:07:14.000Z</time>
      </trkpt>
      <trkpt lat="40.804836" lon="-3.897942">
        <ele>2184.3</ele>
        <time>2018-04-21T10:07:15.000Z</time>
      </trkpt>
      <trkpt lat="40.804828" lon="-3.897953">
        <ele>2184.3</ele>
        <time>2018-04-21T10:07:16.000Z</time>
      </trkpt>
      <trkpt lat="40.804819" lon="-3.897964">
        <ele>2184.3</ele>
        <time>2018-04-21T10:07:17.000Z</time>
      </trkpt>
      <trkpt lat="40.80481" lon="-3.897976">
        <ele>2184.2</ele>
        <time>2018-04-21T10:07:18.000Z</time>
      </trkpt>
      <trkpt lat="40.804801" lon="-3.897987">
        <ele>2184.2</ele>
        <time>2018-04-21T10:07:19.000Z</time>
      </trkpt>
      <trkpt lat="40.804792" lon="-3.897998">
        <ele>2184.2</ele>
        <time>2018-04-21T10:07:20.000Z</time>
      </trkpt>
      <trkpt lat="40.804784" lon="-3.898009">
        <ele>2184.2</ele>
        <time>2018-04-21T10:07:21.000Z</time>
      </trkpt>
      <trkpt lat="40.804776" lon="-3.89802">
        <ele>2184.2</ele>
        <time>2018-04-21T10:07:22.000Z</time>
      </trkpt>
      <trkpt lat="40.804768" lon="-3.898031">
        <ele>2184.2</ele>
        <time>2018-04-21T10:07:23.000Z</time>
      </trkpt>
      <trkpt lat="40.804761" lon="-3.898042">
        <ele>2184.2</ele>
        <time>2018-04-21T10:07:24.000Z</time>
      </trkpt>
      <trkpt lat="40.804755" lon="-3.898053">
        <ele>2184.2</ele>
        <time>2018-04-21T10:07:25.000Z</time>
      </trkpt>
      <trkpt lat="40.804748" lon="-3.898064">
        <ele>2184.2</ele>
        <time>2018-04-21T10:07:26.000Z</time>
      </trkpt>
      <trkpt lat="40.804742" lon="-3.898076">
        <ele>2184.2</ele>
        <time>2018-04-21T10:07:27.000Z</time>
      </trkpt>
      <trkpt lat="40.804736" lon="-3.898087">
        <ele>2184.2</ele>
        <time>2018-04-21T10:07:28.000Z</time>
      </trkpt>
      <trkpt lat="40.804729" lon="-3.898098">
        <ele>2184.2</ele>
        <time>2018-04-21T10:07:29.000Z</time>
      </trkpt>
      <trkpt lat="40.804722" lon="-3.898109">
        <ele>2184.3</ele>
        <time>2018-04-21T10:07:30.000Z</time>
      </trkpt>
      <trkpt lat="40.804716" lon="-3.89812">
        <ele>2184.3</ele>
        <time>2018-04-21T10:07:31.000Z</time>
      </trkpt>
      <trkpt lat="40.804708" lon="-3.898131">
        <ele>2184.3</ele>
        <time>2018-04-21T10:07:32.000Z</time>
      </trkpt>
      <trkpt lat="40.804701" lon="-3.898142">
        <ele>2184.3</ele>
        <time>2018-04-21T10:07:33.000Z</time>
      </trkpt>
      <trkpt lat="40.804694" lon="-3.898154">
        <ele>2184.3</ele>
        <time>2018-04-21T10:07:34.000Z</time>
      </trkpt>
      <trkpt lat="40.804687" lon="-3.898166">
        <ele>2184.4</ele>
        <time>2018-04-21T10:07:35.000Z</time>
      </trkpt>
      <trkpt lat="40.80468" lon="-3.898178">
        <ele>2184.4</ele>
        <time>2018-04-21T10:07:36.000Z</time>
      </trkpt>
      <trkpt lat="40.804674" lon="-3.898191">
        <ele>2184.4</ele>
        <time>2018-04-21T10:07:37.000Z</time>
      </trkpt>
      <trkpt lat="40.804667" lon="-3.898205">
        <ele>2184.5</ele>
        <time>2018-04-21T10:07:38.000Z</time>
      </trkpt>
      <trkpt lat="40.804661" lon="-3.898219">
        <ele>2184.5</ele>
        <time>2018-04-21T10:07:39.000Z</time>
      </trkpt>
      <trkpt lat="40.804656" lon="-3.898234">
        <ele>2184.6</ele>
        <time>2018-04-21T10:07:40.000Z</time>
      </trkpt>
      <trkpt lat="40.804652" lon="-3.89825">
        <ele>2184.7</ele>
        <time>2018-04-21T10:07:41.000Z</time>
      </trkpt>
      <trkpt lat="40.80465" lon="-3.898265">
        <ele>2184.8</ele>
        <time>2018-04-21T10:07:42.000Z</time>
      </trkpt>
      <trkpt lat="40.804649" lon="-3.89828">
        <ele>2184.9</ele>
        <time>2018-04-21T10:07:43.000Z</time>
      </trkpt>
      <trkpt lat="40.804651" lon="-3.898294">
        <ele>2184.9</ele>
        <time>2018-04-21T10:07:44.000Z</time>
      </trkpt>
      <trkpt lat="40.804656" lon="-3.898306">
        <ele>2185.0</ele>
        <time>2018-04-21T10:07:45.000Z</time>
      </trkpt>
      <trkpt lat="40.804662" lon="-3.898318">
        <ele>2185.1</ele>
        <time>2018-04-21T10:07:46.000Z</time>
      </trkpt>
      <trkpt lat="40.804669" lon="-3.898329">
        <ele>2185.2</ele>
        <time>2018-04-21T10:07:47.000Z</time>
      </trkpt>
      <trkpt lat="40.804674" lon="-3.89834">
        <ele>2185.3</ele>
        <time>2018-04-21T10:07:48.000Z</time>
      </trkpt>
      <trkpt lat="40.804676" lon="-3.898353">
        <ele>2185.3</ele>
        <time>2018-04-21T10:07:49.000Z</time>
      </trkpt>
      <trkpt lat="40.804675" lon="-3.898366">
        <ele>2185.4</ele>
        <time>2018-04-21T10:07:50.000Z</time>
      </trkpt>
      <trkpt lat="40.804673" lon="-3.898379">
        <ele>2185.4</ele>
        <time>2018-04-21T10:07:51.000Z</time>
      </trkpt>
      <trkpt lat="40.80467" lon="-3.898392">
        <ele>2185.5</ele>
        <time>2018-04-21T10:07:52.000Z</time>
      </trkpt>
      <trkpt lat="40.804667" lon="-3.898406">
        <ele>2185.6</ele>
        <time>2018-04-21T10:07:53.000Z</time>
      </trkpt>
      <trkpt lat="40.804664" lon="-3.898419">
        <ele>2185.6</ele>
        <time>2018-04-21T10:07:54.000Z</time>
      </trkpt>
      <trkpt lat="40.804662" lon="-3.898432">
        <ele>2185.7</ele>
        <time>2018-04-21T10:07:55.000Z</time>
      </trkpt>
      <trkpt lat="40.804659" lon="-3.898445">
        <ele>2185.7</ele>
        <time>2018-04-21T10:07:56.000Z</time>
      </trkpt>
      <trkpt lat="40.804657" lon="-3.898458">
        <ele>2185.8</ele>
        <time>2018-04-21T10:07:57.000Z</time>
      </trkpt>
      <trkpt lat="40.804654" lon="-3.898472">
        <ele>2185.9</ele>
        <time>2018-04-21T10:07:58.000Z</time>
      </trkpt>
      <trkpt lat="40.804651" lon="-3.898486">
        <ele>2185.9</ele>
        <time>2018-04-21T10:07:59.000Z</time>
      </trkpt>
      <trkpt lat="40.804648" lon="-3.898501">
        <ele>2186.0</ele>
        <time>2018-04-21T10:08:00.000Z</time>
      </trkpt>
      <trkpt lat="40.804645" lon="-3.898516">
        <ele>2186.1</ele>
        <time>2018-04-21T10:08:01.000Z</time>
      </trkpt>
      <trkpt lat="40.804642" lon="-3.898531">
        <ele>2186.1</ele>
        <time>2018-04-21T10:08:02.000Z</time>
      </trkpt>
      <trkpt lat="40.804638" lon="-3.898547">
        <ele>2186.2</ele>
        <time>2018-04-21T10:08:03.000Z</time>
      </trkpt>
      <trkpt lat="40.804635" lon="-3.898563">
        <ele>2186.3</ele>
        <time>2018-04-21T10:08:04.000Z</time>
      </trkpt>
      <trkpt lat="40.804631" lon="-3.898579">
        <ele>2186.3</ele>
        <time>2018-04-21T10:08:05.000Z</time>
      </trkpt>
      <trkpt lat="40.804628" lon="-3.898595">
        <ele>2186.4</ele>
        <time>2018-04-21T10:08:06.000Z</time>
      </trkpt>
      <trkpt lat="40.804624" lon="-3.898611">
        <ele>2186.5</ele>
        <time>2018-04-21T10:08:07.000Z</time>
      </trkpt>
      <trkpt lat="40.80462" lon="-3.898628">
        <ele>2186.5</ele>
        <time>2018-04-21T10:08:08.000Z</time>
      </trkpt>
      <trkpt lat="40.804616" lon="-3.898645">
        <ele>2186.6</ele>
        <time>2018-04-21T10:08:09.000Z</time>
      </trkpt>
      <trkpt lat="40.804612" lon="-3.898661">
        <ele>2186.7</ele>
        <time>2018-04-21T10:08:10.000Z</time>
      </trkpt>
      <trkpt lat="40.804608" lon="-3.898678">
        <ele>2186.7</ele>
        <time>2018-04-21T10:08:11.000Z</time>
      </trkpt>
      <trkpt lat="40.804604" lon="-3.898695">
        <ele>2186.8</ele>
        <time>2018-04-21T10:08:12.000Z</time>
      </trkpt>
      <trkpt lat="40.8046" lon="-3.898712">
        <ele>2186.9</ele>
        <time>2018-04-21T10:08:13.000Z</time>
      </trkpt>
      <trkpt lat="40.804596" lon="-3.898728">
        <ele>2186.9</ele>
        <time>2018-04-21T10:08:14.000Z</time>
      </trkpt>
      <trkpt lat="40.804592" lon="-3.898745">
        <ele>2187.0</ele>
        <time>2018-04-21T10:08:15.000Z</time>
      </trkpt>
      <trkpt lat="40.804588" lon="-3.898761">
        <ele>2187.1</ele>
        <time>2018-04-21T10:08:16.000Z</time>
      </trkpt>
      <trkpt lat="40.804584" lon="-3.898777">
        <ele>2187.1</ele>
        <time>2018-04-21T10:08:17.000Z</time>
      </trkpt>
      <trkpt lat="40.80458" lon="-3.898793">
        <ele>2187.2</ele>
        <time>2018-04-21T10:08:18.000Z</time>
      </trkpt>
      <trkpt lat="40.804577" lon="-3.898809">
        <ele>2187.3</ele>
        <time>2018-04-21T10:08:19.000Z</time>
      </trkpt>
      <trkpt lat="40.804574" lon="-3.898825">
        <ele>2187.3</ele>
        <time>2018-04-21T10:08:20.000Z</time>
      </trkpt>
      <trkpt lat="40.804571" lon="-3.898841">
        <ele>2187.4</ele>
        <time>2018-04-21T10:08:21.000Z</time>
      </trkpt>
      <trkpt lat="40.804568" lon="-3.898857">
        <ele>2187.5</ele>
        <time>2018-04-21T10:08:22.000Z</time>
      </trkpt>
      <trkpt lat="40.804567" lon="-3.898873">
        <ele>2187.5</ele>
        <time>2018-04-21T10:08:23.000Z</time>
      </trkpt>
      <trkpt lat="40.804566" lon="-3.898889">
        <ele>2187.6</ele>
        <time>2018-04-21T10:08:24.000Z</time>
      </trkpt>
      <trkpt lat="40.804565" lon="-3.898904">
        <ele>2187.7</ele>
        <time>2018-04-21T10:08:25.000Z</time>
      </trkpt>
      <trkpt lat="40.804565" lon="-3.89892">
        <ele>2187.7</ele>
        <time>2018-04-21T10:08:26.000Z</time>
      </trkpt>
      <trkpt lat="40.804566" lon="-3.898936">
        <ele>2187.8</ele>
        <time>2018-04-21T10:08:27.000Z</time>
      </trkpt>
      <trkpt lat="40.804566" lon="-3.898952">
        <ele>2187.9</ele>
        <time>2018-04-21T10:08:28.000Z</time>
      </trkpt>
      <trkpt lat="40.804567" lon="-3.898967">
        <ele>2188.0</ele>
        <time>2018-04-21T10:08:29.000Z</time>
      </trkpt>
      <trkpt lat="40.804568" lon="-3.898983">
        <ele>2188.1</ele>
        <time>2018-04-21T10:08:30.000Z</time>
      </trkpt>
      <trkpt lat="40.804568" lon="-3.898999">
        <ele>2188.1</ele>
        <time>2018-04-21T10:08:31.000Z</time>
      </trkpt>
      <trkpt lat="40.804568" lon="-3.899015">
        <ele>2188.2</ele>
        <time>2018-04-21T10:08:32.000Z</time>
      </trkpt>
      <trkpt lat="40.804567" lon="-3.899032">
        <ele>2188.3</ele>
        <time>2018-04-21T10:08:33.000Z</time>
      </trkpt>
      <trkpt lat="40.804565" lon="-3.899048">
        <ele>2188.3</ele>
        <time>2018-04-21T10:08:34.000Z</time>
      </trkpt>
      <trkpt lat="40.804563" lon="-3.899064">
        <ele>2188.4</ele>
        <time>2018-04-21T10:08:35.000Z</time>
      </trkpt>
      <trkpt lat="40.80456" lon="-3.899081">
        <ele>2188.5</ele>
        <time>2018-04-21T10:08:36.000Z</time>
      </trkpt>
      <trkpt lat="40.804558" lon="-3.899098">
        <ele>2188.6</ele>
        <time>2018-04-21T10:08:37.000Z</time>
      </trkpt>
      <trkpt lat="40.804555" lon="-3.899114">
        <ele>2188.6</ele>
        <time>2018-04-21T10:08:38.000Z</time>
      </trkpt>
      <trkpt lat="40.804553" lon="-3.899131">
        <ele>2188.7</ele>
        <time>2018-04-21T10:08:39.000Z</time>
      </trkpt>
      <trkpt lat="40.804551" lon="-3.899147">
        <ele>2188.8</ele>
        <time>2018-04-21T10:08:40.000Z</time>
      </trkpt>
      <trkpt lat="40.80455" lon="-3.899163">
        <ele>2188.8</ele>
        <time>2018-04-21T10:08:41.000Z</time>
      </trkpt>
      <trkpt lat="40.80455" lon="-3.899179">
        <ele>2188.9</ele>
        <time>2018-04-21T10:08:42.000Z</time>
      </trkpt>
      <trkpt lat="40.804551" lon="-3.899195">
        <ele>2188.9</ele>
        <time>2018-04-21T10:08:43.000Z</time>
      </trkpt>
      <trkpt lat="40.804553" lon="-3.89921">
        <ele>2188.9</ele>
        <time>2018-04-21T10:08:44.000Z</time>
      </trkpt>
      <trkpt lat="40.804556" lon="-3.899226">
        <ele>2188.9</ele>
        <time>2018-04-21T10:08:45.000Z</time>
      </trkpt>
      <trkpt lat="40.804559" lon="-3.899241">
        <ele>2189.0</ele>
        <time>2018-04-21T10:08:46.000Z</time>
      </trkpt>
      <trkpt lat="40.804563" lon="-3.899257">
        <ele>2189.0</ele>
        <time>2018-04-21T10:08:47.000Z</time>
      </trkpt>
      <trkpt lat="40.804566" lon="-3.899272">
        <ele>2189.0</ele>
        <time>2018-04-21T10:08:48.000Z</time>
      </trkpt>
      <trkpt lat="40.804569" lon="-3.899288">
        <ele>2189.1</ele>
        <time>2018-04-21T10:08:49.000Z</time>
      </trkpt>
      <trkpt lat="40.804572" lon="-3.899304">
        <ele>2189.1</ele>
        <time>2018-04-21T10:08:50.000Z</time>
      </trkpt>
      <trkpt lat="40.804574" lon="-3.89932">
        <ele>2189.1</ele>
        <time>2018-04-21T10:08:51.000Z</time>
      </trkpt>
      <trkpt lat="40.804575" lon="-3.899336">
        <ele>2189.2</ele>
        <time>2018-04-21T10:08:52.000Z</time>
      </trkpt>
      <trkpt lat="40.804575" lon="-3.899353">
        <ele>2189.2</ele>
        <time>2018-04-21T10:08:53.000Z</time>
      </trkpt>
      <trkpt lat="40.804574" lon="-3.89937">
        <ele>2189.2</ele>
        <time>2018-04-21T10:08:54.000Z</time>
      </trkpt>
      <trkpt lat="40.804573" lon="-3.899387">
        <ele>2189.2</ele>
        <time>2018-04-21T10:08:55.000Z</time>
      </trkpt>
      <trkpt lat="40.804571" lon="-3.899404">
        <ele>2189.2</ele>
        <time>2018-04-21T10:08:56.000Z</time>
      </trkpt>
      <trkpt lat="40.804569" lon="-3.899422">
        <ele>2189.2</ele>
        <time>2018-04-21T10:08:57.000Z</time>
      </trkpt>
      <trkpt lat="40.804566" lon="-3.899439">
        <ele>2189.3</ele>
        <time>2018-04-21T10:08:58.000Z</time>
      </trkpt>
      <trkpt lat="40.804564" lon="-3.899456">
        <ele>2189.3</ele>
        <time>2018-04-21T10:08:59.000Z</time>
      </trkpt>
      <trkpt lat="40.804561" lon="-3.899473">
        <ele>2189.3</ele>
        <time>2018-04-21T10:09:00.000Z</time>
      </trkpt>
      <trkpt lat="40.804559" lon="-3.89949">
        <ele>2189.3</ele>
        <time>2018-04-21T10:09:01.000Z</time>
      </trkpt>
      <trkpt lat="40.804557" lon="-3.899506">
        <ele>2189.3</ele>
        <time>2018-04-21T10:09:02.000Z</time>
      </trkpt>
      <trkpt lat="40.804555" lon="-3.899523">
        <ele>2189.3</ele>
        <time>2018-04-21T10:09:03.000Z</time>
      </trkpt>
      <trkpt lat="40.804553" lon="-3.899539">
        <ele>2189.3</ele>
        <time>2018-04-21T10:09:04.000Z</time>
      </trkpt>
      <trkpt lat="40.804551" lon="-3.899555">
        <ele>2189.3</ele>
        <time>2018-04-21T10:09:05.000Z</time>
      </trkpt>
      <trkpt lat="40.804549" lon="-3.899572">
        <ele>2189.4</ele>
        <time>2018-04-21T10:09:06.000Z</time>
      </trkpt>
      <trkpt lat="40.804547" lon="-3.899588">
        <ele>2189.4</ele>
        <time>2018-04-21T10:09:07.000Z</time>
      </trkpt>
      <trkpt lat="40.804545" lon="-3.899604">
        <ele>2189.4</ele>
        <time>2018-04-21T10:09:08.000Z</time>
      </trkpt>
      <trkpt lat="40.804543" lon="-3.899621">
        <ele>2189.4</ele>
        <time>2018-04-21T10:09:09.000Z</time>
      </trkpt>
      <trkpt lat="40.804541" lon="-3.899637">
        <ele>2189.4</ele>
        <time>2018-04-21T10:09:10.000Z</time>
      </trkpt>
      <trkpt lat="40.804539" lon="-3.899654">
        <ele>2189.4</ele>
        <time>2018-04-21T10:09:11.000Z</time>
      </trkpt>
      <trkpt lat="40.804537" lon="-3.89967">
        <ele>2189.4</ele>
        <time>2018-04-21T10:09:12.000Z</time>
      </trkpt>
      <trkpt lat="40.804535" lon="-3.899687">
        <ele>2189.5</ele>
        <time>2018-04-21T10:09:13.000Z</time>
      </trkpt>
      <trkpt lat="40.804533" lon="-3.899704">
        <ele>2189.5</ele>
        <time>2018-04-21T10:09:14.000Z</time>
      </trkpt>
      <trkpt lat="40.804531" lon="-3.899721">
        <ele>2189.5</ele>
        <time>2018-04-21T10:09:15.000Z</time>
      </trkpt>
      <trkpt lat="40.804528" lon="-3.899738">
        <ele>2189.5</ele>
        <time>2018-04-21T10:09:16.000Z</time>
      </trkpt>
      <trkpt lat="40.804526" lon="-3.899755">
        <ele>2189.5</ele>
        <time>2018-04-21T10:09:17.000Z</time>
      </trkpt>
      <trkpt lat="40.804524" lon="-3.899772">
        <ele>2189.5</ele>
        <time>2018-04-21T10:09:18.000Z</time>
      </trkpt>
      <trkpt lat="40.804521" lon="-3.899789">
        <ele>2189.6</ele>
        <time>2018-04-21T10:09:19.000Z</time>
      </trkpt>
      <trkpt lat="40.804519" lon="-3.899806">
        <ele>2189.6</ele>
        <time>2018-04-21T10:09:20.000Z</time>
      </trkpt>
      <trkpt lat="40.804517" lon="-3.899823">
        <ele>2189.6</ele>
        <time>2018-04-21T10:09:21.000Z</time>
      </trkpt>
      <trkpt lat="40.804514" lon="-3.89984">
        <ele>2189.6</ele>
        <time>2018-04-21T10:09:22.000Z</time>
      </trkpt>
      <trkpt lat="40.804512" lon="-3.899857">
        <ele>2189.6</ele>
        <time>2018-04-21T10:09:23.000Z</time>
      </trkpt>
      <trkpt lat="40.80451" lon="-3.899874">
        <ele>2189.6</ele>
        <time>2018-04-21T10:09:24.000Z</time>
      </trkpt>
      <trkpt lat="40.804507" lon="-3.899891">
        <ele>2189.7</ele>
        <time>2018-04-21T10:09:25.000Z</time>
      </trkpt>
      <trkpt lat="40.804505" lon="-3.899907">
        <ele>2189.7</ele>
        <time>2018-04-21T10:09:26.000Z</time>
      </trkpt>
      <trkpt lat="40.804503" lon="-3.899924">
        <ele>2189.7</ele>
        <time>2018-04-21T10:09:27.000Z</time>
      </trkpt>
      <trkpt lat="40.8045" lon="-3.899941">
        <ele>2189.7</ele>
        <time>2018-04-21T10:09:28.000Z</time>
      </trkpt>
      <trkpt lat="40.804498" lon="-3.899957">
        <ele>2189.7</ele>
        <time>2018-04-21T10:09:29.000Z</time>
      </trkpt>
      <trkpt lat="40.804496" lon="-3.899974">
        <ele>2189.8</ele>
        <time>2018-04-21T10:09:30.000Z</time>
      </trkpt>
      <trkpt lat="40.804494" lon="-3.89999">
        <ele>2189.8</ele>
        <time>2018-04-21T10:09:31.000Z</time>
      </trkpt>
      <trkpt lat="40.804492" lon="-3.900007">
        <ele>2189.8</ele>
        <time>2018-04-21T10:09:32.000Z</time>
      </trkpt>
      <trkpt lat="40.804491" lon="-3.900023">
        <ele>2189.7</ele>
        <time>2018-04-21T10:09:33.000Z</time>
      </trkpt>
      <trkpt lat="40.80449" lon="-3.90004">
        <ele>2189.7</ele>
        <time>2018-04-21T10:09:34.000Z</time>
      </trkpt>
      <trkpt lat="40.804489" lon="-3.900057">
        <ele>2189.6</ele>
        <time>2018-04-21T10:09:35.000Z</time>
      </trkpt>
      <trkpt lat="40.804488" lon="-3.900075">
        <ele>2189.6</ele>
        <time>2018-04-21T10:09:36.000Z</time>
      </trkpt>
      <trkpt lat="40.804488" lon="-3.900093">
        <ele>2189.5</ele>
        <time>2018-04-21T10:09:37.000Z</time>
      </trkpt>
      <trkpt lat="40.804488" lon="-3.900111">
        <ele>2189.5</ele>
        <time>2018-04-21T10:09:38.000Z</time>
      </trkpt>
      <trkpt lat="40.804488" lon="-3.900129">
        <ele>2189.4</ele>
        <time>2018-04-21T10:09:39.000Z</time>
      </trkpt>
      <trkpt lat="40.804489" lon="-3.900147">
        <ele>2189.4</ele>
        <time>2018-04-21T10:09:40.000Z</time>
      </trkpt>
      <trkpt lat="40.804489" lon="-3.900166">
        <ele>2189.3</ele>
        <time>2018-04-21T10:09:41.000Z</time>
      </trkpt>
      <trkpt lat="40.804489" lon="-3.900184">
        <ele>2189.2</ele>
        <time>2018-04-21T10:09:42.000Z</time>
      </trkpt>
      <trkpt lat="40.804489" lon="-3.900202">
        <ele>2189.2</ele>
        <time>2018-04-21T10:09:43.000Z</time>
      </trkpt>
      <trkpt lat="40.804489" lon="-3.90022">
        <ele>2189.1</ele>
        <time>2018-04-21T10:09:44.000Z</time>
      </trkpt>
      <trkpt lat="40.804488" lon="-3.900238">
        <ele>2189.1</ele>
        <time>2018-04-21T10:09:45.000Z</time>
      </trkpt>
      <trkpt lat="40.804487" lon="-3.900255">
        <ele>2189.0</ele>
        <time>2018-04-21T10:09:46.000Z</time>
      </trkpt>
      <trkpt lat="40.804485" lon="-3.900272">
        <ele>2189.0</ele>
        <time>2018-04-21T10:09:47.000Z</time>
      </trkpt>
      <trkpt lat="40.804483" lon="-3.900289">
        <ele>2188.9</ele>
        <time>2018-04-21T10:09:48.000Z</time>
      </trkpt>
      <trkpt lat="40.804481" lon="-3.900305">
        <ele>2188.9</ele>
        <time>2018-04-21T10:09:49.000Z</time>
      </trkpt>
      <trkpt lat="40.804478" lon="-3.900321">
        <ele>2188.8</ele>
        <time>2018-04-21T10:09:50.000Z</time>
      </trkpt>
      <trkpt lat="40.804475" lon="-3.900337">
        <ele>2188.8</ele>
        <time>2018-04-21T10:09:51.000Z</time>
      </trkpt>
      <trkpt lat="40.804472" lon="-3.900353">
        <ele>2188.7</ele>
        <time>2018-04-21T10:09:52.000Z</time>
      </trkpt>
      <trkpt lat="40.804469" lon="-3.900368">
        <ele>2188.7</ele>
        <time>2018-04-21T10:09:53.000Z</time>
      </trkpt>
      <trkpt lat="40.804466" lon="-3.900384">
        <ele>2188.6</ele>
        <time>2018-04-21T10:09:54.000Z</time>
      </trkpt>
      <trkpt lat="40.804463" lon="-3.900399">
        <ele>2188.6</ele>
        <time>2018-04-21T10:09:55.000Z</time>
      </trkpt>
      <trkpt lat="40.80446" lon="-3.900414">
        <ele>2188.5</ele>
        <time>2018-04-21T10:09:56.000Z</time>
      </trkpt>
      <trkpt lat="40.804458" lon="-3.90043">
        <ele>2188.5</ele>
        <time>2018-04-21T10:09:57.000Z</time>
      </trkpt>
      <trkpt lat="40.804455" lon="-3.900445">
        <ele>2188.4</ele>
        <time>2018-04-21T10:09:58.000Z</time>
      </trkpt>
      <trkpt lat="40.804454" lon="-3.900461">
        <ele>2188.4</ele>
        <time>2018-04-21T10:09:59.000Z</time>
      </trkpt>
      <trkpt lat="40.804452" lon="-3.900476">
        <ele>2188.3</ele>
        <time>2018-04-21T10:10:00.000Z</time>
      </trkpt>
      <trkpt lat="40.804451" lon="-3.900492">
        <ele>2188.3</ele>
        <time>2018-04-21T10:10:01.000Z</time>
      </trkpt>
      <trkpt lat="40.80445" lon="-3.900508">
        <ele>2188.3</ele>
        <time>2018-04-21T10:10:02.000Z</time>
      </trkpt>
      <trkpt lat="40.80445" lon="-3.900525">
        <ele>2188.2</ele>
        <time>2018-04-21T10:10:03.000Z</time>
      </trkpt>
      <trkpt lat="40.804451" lon="-3.900541">
        <ele>2188.2</ele>
        <time>2018-04-21T10:10:04.000Z</time>
      </trkpt>
      <trkpt lat="40.804452" lon="-3.900558">
        <ele>2188.1</ele>
        <time>2018-04-21T10:10:05.000Z</time>
      </trkpt>
      <trkpt lat="40.804453" lon="-3.900575">
        <ele>2188.1</ele>
        <time>2018-04-21T10:10:06.000Z</time>
      </trkpt>
      <trkpt lat="40.804453" lon="-3.900591">
        <ele>2188.0</ele>
        <time>2018-04-21T10:10:07.000Z</time>
      </trkpt>
      <trkpt lat="40.804452" lon="-3.900608">
        <ele>2188.0</ele>
        <time>2018-04-21T10:10:08.000Z</time>
      </trkpt>
      <trkpt lat="40.80445" lon="-3.900624">
        <ele>2187.9</ele>
        <time>2018-04-21T10:10:09.000Z</time>
      </trkpt>
      <trkpt lat="40.804447" lon="-3.900641">
        <ele>2187.9</ele>
        <time>2018-04-21T10:10:10.000Z</time>
      </trkpt>
      <trkpt lat="40.804443" lon="-3.900657">
        <ele>2187.8</ele>
        <time>2018-04-21T10:10:11.000Z</time>
      </trkpt>
      <trkpt lat="40.804438" lon="-3.900673">
        <ele>2187.8</ele>
        <time>2018-04-21T10:10:12.000Z</time>
      </trkpt>
      <trkpt lat="40.804435" lon="-3.900689">
        <ele>2187.7</ele>
        <time>2018-04-21T10:10:13.000Z</time>
      </trkpt>
      <trkpt lat="40.804431" lon="-3.900705">
        <ele>2187.7</ele>
        <time>2018-04-21T10:10:14.000Z</time>
      </trkpt>
      <trkpt lat="40.804427" lon="-3.900721">
        <ele>2187.6</ele>
        <time>2018-04-21T10:10:15.000Z</time>
      </trkpt>
      <trkpt lat="40.804424" lon="-3.900737">
        <ele>2187.6</ele>
        <time>2018-04-21T10:10:16.000Z</time>
      </trkpt>
      <trkpt lat="40.804421" lon="-3.900753">
        <ele>2187.5</ele>
        <time>2018-04-21T10:10:17.000Z</time>
      </trkpt>
      <trkpt lat="40.804417" lon="-3.900769">
        <ele>2187.5</ele>
        <time>2018-04-21T10:10:18.000Z</time>
      </trkpt>
      <trkpt lat="40.804414" lon="-3.900785">
        <ele>2187.4</ele>
        <time>2018-04-21T10:10:19.000Z</time>
      </trkpt>
      <trkpt lat="40.804411" lon="-3.900801">
        <ele>2187.4</ele>
        <time>2018-04-21T10:10:20.000Z</time>
      </trkpt>
      <trkpt lat="40.804408" lon="-3.900818">
        <ele>2187.3</ele>
        <time>2018-04-21T10:10:21.000Z</time>
      </trkpt>
      <trkpt lat="40.804405" lon="-3.900835">
        <ele>2187.3</ele>
        <time>2018-04-21T10:10:22.000Z</time>
      </trkpt>
      <trkpt lat="40.804402" lon="-3.900851">
        <ele>2187.3</ele>
        <time>2018-04-21T10:10:23.000Z</time>
      </trkpt>
      <trkpt lat="40.804399" lon="-3.900868">
        <ele>2187.4</ele>
        <time>2018-04-21T10:10:24.000Z</time>
      </trkpt>
      <trkpt lat="40.804396" lon="-3.900885">
        <ele>2187.4</ele>
        <time>2018-04-21T10:10:25.000Z</time>
      </trkpt>
      <trkpt lat="40.804392" lon="-3.900901">
        <ele>2187.5</ele>
        <time>2018-04-21T10:10:26.000Z</time>
      </trkpt>
      <trkpt lat="40.804389" lon="-3.900917">
        <ele>2187.5</ele>
        <time>2018-04-21T10:10:27.000Z</time>
      </trkpt>
      <trkpt lat="40.804384" lon="-3.900933">
        <ele>2187.6</ele>
        <time>2018-04-21T10:10:28.000Z</time>
      </trkpt>
      <trkpt lat="40.80438" lon="-3.900948">
        <ele>2187.6</ele>
        <time>2018-04-21T10:10:29.000Z</time>
      </trkpt>
      <trkpt lat="40.804375" lon="-3.900963">
        <ele>2187.7</ele>
        <time>2018-04-21T10:10:30.000Z</time>
      </trkpt>
      <trkpt lat="40.804369" lon="-3.900977">
        <ele>2187.7</ele>
        <time>2018-04-21T10:10:31.000Z</time>
      </trkpt>
      <trkpt lat="40.804364" lon="-3.900991">
        <ele>2187.8</ele>
        <time>2018-04-21T10:10:32.000Z</time>
      </trkpt>
      <trkpt lat="40.804358" lon="-3.901005">
        <ele>2187.8</ele>
        <time>2018-04-21T10:10:33.000Z</time>
      </trkpt>
      <trkpt lat="40.804353" lon="-3.901019">
        <ele>2187.8</ele>
        <time>2018-04-21T10:10:34.000Z</time>
      </trkpt>
      <trkpt lat="40.804348" lon="-3.901034">
        <ele>2187.9</ele>
        <time>2018-04-21T10:10:35.000Z</time>
      </trkpt>
      <trkpt lat="40.804344" lon="-3.901049">
        <ele>2187.9</ele>
        <time>2018-04-21T10:10:36.000Z</time>
      </trkpt>
      <trkpt lat="40.804341" lon="-3.901066">
        <ele>2188.0</ele>
        <time>2018-04-21T10:10:37.000Z</time>
      </trkpt>
      <trkpt lat="40.804339" lon="-3.901082">
        <ele>2188.0</ele>
        <time>2018-04-21T10:10:38.000Z</time>
      </trkpt>
      <trkpt lat="40.804338" lon="-3.901099">
        <ele>2188.1</ele>
        <time>2018-04-21T10:10:39.000Z</time>
      </trkpt>
      <trkpt lat="40.804337" lon="-3.901116">
        <ele>2188.2</ele>
        <time>2018-04-21T10:10:40.000Z</time>
      </trkpt>
      <trkpt lat="40.804336" lon="-3.901133">
        <ele>2188.2</ele>
        <time>2018-04-21T10:10:41.000Z</time>
      </trkpt>
      <trkpt lat="40.804336" lon="-3.901149">
        <ele>2188.3</ele>
        <time>2018-04-21T10:10:42.000Z</time>
      </trkpt>
      <trkpt lat="40.804335" lon="-3.901165">
        <ele>2188.3</ele>
        <time>2018-04-21T10:10:43.000Z</time>
      </trkpt>
      <trkpt lat="40.804335" lon="-3.901181">
        <ele>2188.4</ele>
        <time>2018-04-21T10:10:44.000Z</time>
      </trkpt>
      <trkpt lat="40.804334" lon="-3.901197">
        <ele>2188.4</ele>
        <time>2018-04-21T10:10:45.000Z</time>
      </trkpt>
      <trkpt lat="40.804334" lon="-3.901213">
        <ele>2188.5</ele>
        <time>2018-04-21T10:10:46.000Z</time>
      </trkpt>
      <trkpt lat="40.804332" lon="-3.901228">
        <ele>2188.5</ele>
        <time>2018-04-21T10:10:47.000Z</time>
      </trkpt>
      <trkpt lat="40.80433" lon="-3.901243">
        <ele>2188.6</ele>
        <time>2018-04-21T10:10:48.000Z</time>
      </trkpt>
      <trkpt lat="40.804327" lon="-3.901257">
        <ele>2188.6</ele>
        <time>2018-04-21T10:10:49.000Z</time>
      </trkpt>
      <trkpt lat="40.804323" lon="-3.901272">
        <ele>2188.7</ele>
        <time>2018-04-21T10:10:50.000Z</time>
      </trkpt>
      <trkpt lat="40.804319" lon="-3.901285">
        <ele>2188.7</ele>
        <time>2018-04-21T10:10:51.000Z</time>
      </trkpt>
      <trkpt lat="40.804314" lon="-3.901299">
        <ele>2188.8</ele>
        <time>2018-04-21T10:10:52.000Z</time>
      </trkpt>
      <trkpt lat="40.804308" lon="-3.901313">
        <ele>2188.8</ele>
        <time>2018-04-21T10:10:53.000Z</time>
      </trkpt>
      <trkpt lat="40.804302" lon="-3.901327">
        <ele>2188.8</ele>
        <time>2018-04-21T10:10:54.000Z</time>
      </trkpt>
      <trkpt lat="40.804296" lon="-3.901341">
        <ele>2188.9</ele>
        <time>2018-04-21T10:10:55.000Z</time>
      </trkpt>
      <trkpt lat="40.80429" lon="-3.901355">
        <ele>2188.9</ele>
        <time>2018-04-21T10:10:56.000Z</time>
      </trkpt>
      <trkpt lat="40.804284" lon="-3.901369">
        <ele>2189.0</ele>
        <time>2018-04-21T10:10:57.000Z</time>
      </trkpt>
      <trkpt lat="40.804278" lon="-3.901383">
        <ele>2189.0</ele>
        <time>2018-04-21T10:10:58.000Z</time>
      </trkpt>
      <trkpt lat="40.804273" lon="-3.901399">
        <ele>2189.1</ele>
        <time>2018-04-21T10:10:59.000Z</time>
      </trkpt>
      <trkpt lat="40.804268" lon="-3.901414">
        <ele>2189.1</ele>
        <time>2018-04-21T10:11:00.000Z</time>
      </trkpt>
      <trkpt lat="40.804264" lon="-3.90143">
        <ele>2189.2</ele>
        <time>2018-04-21T10:11:01.000Z</time>
      </trkpt>
      <trkpt lat="40.80426" lon="-3.901446">
        <ele>2189.2</ele>
        <time>2018-04-21T10:11:02.000Z</time>
      </trkpt>
      <trkpt lat="40.804256" lon="-3.901463">
        <ele>2189.3</ele>
        <time>2018-04-21T10:11:03.000Z</time>
      </trkpt>
      <trkpt lat="40.804253" lon="-3.901479">
        <ele>2189.3</ele>
        <time>2018-04-21T10:11:04.000Z</time>
      </trkpt>
      <trkpt lat="40.80425" lon="-3.901496">
        <ele>2189.4</ele>
        <time>2018-04-21T10:11:05.000Z</time>
      </trkpt>
      <trkpt lat="40.804247" lon="-3.901513">
        <ele>2189.5</ele>
        <time>2018-04-21T10:11:06.000Z</time>
      </trkpt>
      <trkpt lat="40.804245" lon="-3.90153">
        <ele>2189.5</ele>
        <time>2018-04-21T10:11:07.000Z</time>
      </trkpt>
      <trkpt lat="40.804242" lon="-3.901547">
        <ele>2189.6</ele>
        <time>2018-04-21T10:11:08.000Z</time>
      </trkpt>
      <trkpt lat="40.80424" lon="-3.901564">
        <ele>2189.6</ele>
        <time>2018-04-21T10:11:09.000Z</time>
      </trkpt>
      <trkpt lat="40.804238" lon="-3.901581">
        <ele>2189.7</ele>
        <time>2018-04-21T10:11:10.000Z</time>
      </trkpt>
      <trkpt lat="40.804236" lon="-3.901597">
        <ele>2189.8</ele>
        <time>2018-04-21T10:11:11.000Z</time>
      </trkpt>
      <trkpt lat="40.804234" lon="-3.901614">
        <ele>2189.8</ele>
        <time>2018-04-21T10:11:12.000Z</time>
      </trkpt>
      <trkpt lat="40.804232" lon="-3.90163">
        <ele>2189.9</ele>
        <time>2018-04-21T10:11:13.000Z</time>
      </trkpt>
      <trkpt lat="40.80423" lon="-3.901646">
        <ele>2189.9</ele>
        <time>2018-04-21T10:11:14.000Z</time>
      </trkpt>
      <trkpt lat="40.804228" lon="-3.901662">
        <ele>2190.0</ele>
        <time>2018-04-21T10:11:15.000Z</time>
      </trkpt>
      <trkpt lat="40.804226" lon="-3.901677">
        <ele>2190.1</ele>
        <time>2018-04-21T10:11:16.000Z</time>
      </trkpt>
      <trkpt lat="40.804224" lon="-3.901691">
        <ele>2190.2</ele>
        <time>2018-04-21T10:11:17.000Z</time>
      </trkpt>
      <trkpt lat="40.804221" lon="-3.901706">
        <ele>2190.3</ele>
        <time>2018-04-21T10:11:18.000Z</time>
      </trkpt>
      <trkpt lat="40.804219" lon="-3.901719">
        <ele>2190.3</ele>
        <time>2018-04-21T10:11:19.000Z</time>
      </trkpt>
      <trkpt lat="40.804216" lon="-3.901733">
        <ele>2190.4</ele>
        <time>2018-04-21T10:11:20.000Z</time>
      </trkpt>
      <trkpt lat="40.804214" lon="-3.901746">
        <ele>2190.5</ele>
        <time>2018-04-21T10:11:21.000Z</time>
      </trkpt>
      <trkpt lat="40.804211" lon="-3.901758">
        <ele>2190.6</ele>
        <time>2018-04-21T10:11:22.000Z</time>
      </trkpt>
      <trkpt lat="40.804208" lon="-3.90177">
        <ele>2190.7</ele>
        <time>2018-04-21T10:11:23.000Z</time>
      </trkpt>
      <trkpt lat="40.804205" lon="-3.901782">
        <ele>2190.8</ele>
        <time>2018-04-21T10:11:24.000Z</time>
      </trkpt>
      <trkpt lat="40.804202" lon="-3.901794">
        <ele>2190.9</ele>
        <time>2018-04-21T10:11:25.000Z</time>
      </trkpt>
      <trkpt lat="40.804199" lon="-3.901805">
        <ele>2191.0</ele>
        <time>2018-04-21T10:11:26.000Z</time>
      </trkpt>
      <trkpt lat="40.804196" lon="-3.901815">
        <ele>2191.0</ele>
        <time>2018-04-21T10:11:27.000Z</time>
      </trkpt>
      <trkpt lat="40.804193" lon="-3.901826">
        <ele>2191.1</ele>
        <time>2018-04-21T10:11:28.000Z</time>
      </trkpt>
      <trkpt lat="40.80419" lon="-3.901836">
        <ele>2191.2</ele>
        <time>2018-04-21T10:11:29.000Z</time>
      </trkpt>
      <trkpt lat="40.804187" lon="-3.901846">
        <ele>2191.3</ele>
        <time>2018-04-21T10:11:30.000Z</time>
      </trkpt>
      <trkpt lat="40.804184" lon="-3.901856">
        <ele>2191.3</ele>
        <time>2018-04-21T10:11:31.000Z</time>
      </trkpt>
      <trkpt lat="40.804181" lon="-3.901865">
        <ele>2191.4</ele>
        <time>2018-04-21T10:11:32.000Z</time>
      </trkpt>
      <trkpt lat="40.804178" lon="-3.901874">
        <ele>2191.5</ele>
        <time>2018-04-21T10:11:33.000Z</time>
      </trkpt>
      <trkpt lat="40.804175" lon="-3.901883">
        <ele>2191.5</ele>
        <time>2018-04-21T10:11:34.000Z</time>
      </trkpt>
      <trkpt lat="40.804172" lon="-3.901891">
        <ele>2191.6</ele>
        <time>2018-04-21T10:11:35.000Z</time>
      </trkpt>
      <trkpt lat="40.804169" lon="-3.9019">
        <ele>2191.7</ele>
        <time>2018-04-21T10:11:36.000Z</time>
      </trkpt>
      <trkpt lat="40.804167" lon="-3.901908">
        <ele>2191.7</ele>
        <time>2018-04-21T10:11:37.000Z</time>
      </trkpt>
      <trkpt lat="40.804164" lon="-3.901916">
        <ele>2191.7</ele>
        <time>2018-04-21T10:11:38.000Z</time>
      </trkpt>
      <trkpt lat="40.804162" lon="-3.901924">
        <ele>2191.8</ele>
        <time>2018-04-21T10:11:39.000Z</time>
      </trkpt>
      <trkpt lat="40.804161" lon="-3.901932">
        <ele>2191.8</ele>
        <time>2018-04-21T10:11:40.000Z</time>
      </trkpt>
      <trkpt lat="40.80416" lon="-3.90194">
        <ele>2191.8</ele>
        <time>2018-04-21T10:11:41.000Z</time>
      </trkpt>
      <trkpt lat="40.804159" lon="-3.901948">
        <ele>2191.9</ele>
        <time>2018-04-21T10:11:42.000Z</time>
      </trkpt>
      <trkpt lat="40.804159" lon="-3.901956">
        <ele>2191.9</ele>
        <time>2018-04-21T10:11:43.000Z</time>
      </trkpt>
      <trkpt lat="40.80416" lon="-3.901965">
        <ele>2192.0</ele>
        <time>2018-04-21T10:11:44.000Z</time>
      </trkpt>
      <trkpt lat="40.804162" lon="-3.901973">
        <ele>2192.1</ele>
        <time>2018-04-21T10:11:45.000Z</time>
      </trkpt>
      <trkpt lat="40.804163" lon="-3.901981">
        <ele>2192.2</ele>
        <time>2018-04-21T10:11:46.000Z</time>
      </trkpt>
      <trkpt lat="40.804165" lon="-3.90199">
        <ele>2192.3</ele>
        <time>2018-04-21T10:11:47.000Z</time>
      </trkpt>
      <trkpt lat="40.804167" lon="-3.901998">
        <ele>2192.4</ele>
        <time>2018-04-21T10:11:48.000Z</time>
      </trkpt>
      <trkpt lat="40.804169" lon="-3.902007">
        <ele>2192.4</ele>
        <time>2018-04-21T10:11:49.000Z</time>
      </trkpt>
      <trkpt lat="40.804171" lon="-3.902016">
        <ele>2192.5</ele>
        <time>2018-04-21T10:11:50.000Z</time>
      </trkpt>
      <trkpt lat="40.804171" lon="-3.902025">
        <ele>2192.6</ele>
        <time>2018-04-21T10:11:51.000Z</time>
      </trkpt>
      <trkpt lat="40.804172" lon="-3.902034">
        <ele>2192.6</ele>
        <time>2018-04-21T10:11:52.000Z</time>
      </trkpt>
      <trkpt lat="40.804171" lon="-3.902044">
        <ele>2192.7</ele>
        <time>2018-04-21T10:11:53.000Z</time>
      </trkpt>
      <trkpt lat="40.80417" lon="-3.902053">
        <ele>2192.8</ele>
        <time>2018-04-21T10:11:54.000Z</time>
      </trkpt>
      <trkpt lat="40.80417" lon="-3.902063">
        <ele>2192.8</ele>
        <time>2018-04-21T10:11:55.000Z</time>
      </trkpt>
      <trkpt lat="40.804171" lon="-3.902072">
        <ele>2192.9</ele>
        <time>2018-04-21T10:11:56.000Z</time>
      </trkpt>
      <trkpt lat="40.804174" lon="-3.902081">
        <ele>2193.0</ele>
        <time>2018-04-21T10:11:57.000Z</time>
      </trkpt>
      <trkpt lat="40.804179" lon="-3.902089">
        <ele>2193.0</ele>
        <time>2018-04-21T10:11:58.000Z</time>
      </trkpt>
      <trkpt lat="40.804186" lon="-3.902097">
        <ele>2193.0</ele>
        <time>2018-04-21T10:11:59.000Z</time>
      </trkpt>
      <trkpt lat="40.804194" lon="-3.902105">
        <ele>2193.0</ele>
        <time>2018-04-21T10:12:00.000Z</time>
      </trkpt>
      <trkpt lat="40.804201" lon="-3.902113">
        <ele>2193.1</ele>
        <time>2018-04-21T10:12:01.000Z</time>
      </trkpt>
      <trkpt lat="40.804208" lon="-3.902121">
        <ele>2193.1</ele>
        <time>2018-04-21T10:12:02.000Z</time>
      </trkpt>
      <trkpt lat="40.804213" lon="-3.902129">
        <ele>2193.1</ele>
        <time>2018-04-21T10:12:03.000Z</time>
      </trkpt>
      <trkpt lat="40.804218" lon="-3.902137">
        <ele>2193.1</ele>
        <time>2018-04-21T10:12:04.000Z</time>
      </trkpt>
      <trkpt lat="40.804222" lon="-3.902145">
        <ele>2193.2</ele>
        <time>2018-04-21T10:12:05.000Z</time>
      </trkpt>
      <trkpt lat="40.804226" lon="-3.902153">
        <ele>2193.2</ele>
        <time>2018-04-21T10:12:06.000Z</time>
      </trkpt>
      <trkpt lat="40.804229" lon="-3.902162">
        <ele>2193.3</ele>
        <time>2018-04-21T10:12:07.000Z</time>
      </trkpt>
      <trkpt lat="40.804232" lon="-3.90217">
        <ele>2193.3</ele>
        <time>2018-04-21T10:12:08.000Z</time>
      </trkpt>
      <trkpt lat="40.804235" lon="-3.902179">
        <ele>2193.3</ele>
        <time>2018-04-21T10:12:09.000Z</time>
      </trkpt>
      <trkpt lat="40.804238" lon="-3.902188">
        <ele>2193.4</ele>
        <time>2018-04-21T10:12:10.000Z</time>
      </trkpt>
      <trkpt lat="40.804242" lon="-3.902197">
        <ele>2193.4</ele>
        <time>2018-04-21T10:12:11.000Z</time>
      </trkpt>
      <trkpt lat="40.804246" lon="-3.902207">
        <ele>2193.5</ele>
        <time>2018-04-21T10:12:12.000Z</time>
      </trkpt>
      <trkpt lat="40.80425" lon="-3.902217">
        <ele>2193.5</ele>
        <time>2018-04-21T10:12:13.000Z</time>
      </trkpt>
      <trkpt lat="40.804254" lon="-3.902227">
        <ele>2193.5</ele>
        <time>2018-04-21T10:12:14.000Z</time>
      </trkpt>
      <trkpt lat="40.804257" lon="-3.902237">
        <ele>2193.6</ele>
        <time>2018-04-21T10:12:15.000Z</time>
      </trkpt>
      <trkpt lat="40.80426" lon="-3.902247">
        <ele>2193.6</ele>
        <time>2018-04-21T10:12:16.000Z</time>
      </trkpt>
      <trkpt lat="40.804262" lon="-3.902258">
        <ele>2193.7</ele>
        <time>2018-04-21T10:12:17.000Z</time>
      </trkpt>
      <trkpt lat="40.804264" lon="-3.902268">
        <ele>2193.7</ele>
        <time>2018-04-21T10:12:18.000Z</time>
      </trkpt>
      <trkpt lat="40.804264" lon="-3.902279">
        <ele>2193.8</ele>
        <time>2018-04-21T10:12:19.000Z</time>
      </trkpt>
      <trkpt lat="40.804263" lon="-3.90229">
        <ele>2193.9</ele>
        <time>2018-04-21T10:12:20.000Z</time>
      </trkpt>
      <trkpt lat="40.80426" lon="-3.9023">
        <ele>2194.0</ele>
        <time>2018-04-21T10:12:21.000Z</time>
      </trkpt>
      <trkpt lat="40.804257" lon="-3.902311">
        <ele>2194.1</ele>
        <time>2018-04-21T10:12:22.000Z</time>
      </trkpt>
      <trkpt lat="40.804253" lon="-3.902322">
        <ele>2194.1</ele>
        <time>2018-04-21T10:12:23.000Z</time>
      </trkpt>
      <trkpt lat="40.804249" lon="-3.902333">
        <ele>2194.2</ele>
        <time>2018-04-21T10:12:24.000Z</time>
      </trkpt>
      <trkpt lat="40.804244" lon="-3.902344">
        <ele>2194.3</ele>
        <time>2018-04-21T10:12:25.000Z</time>
      </trkpt>
      <trkpt lat="40.804239" lon="-3.902355">
        <ele>2194.5</ele>
        <time>2018-04-21T10:12:26.000Z</time>
      </trkpt>
      <trkpt lat="40.804235" lon="-3.902366">
        <ele>2194.6</ele>
        <time>2018-04-21T10:12:27.000Z</time>
      </trkpt>
      <trkpt lat="40.804231" lon="-3.902376">
        <ele>2194.6</ele>
        <time>2018-04-21T10:12:28.000Z</time>
      </trkpt>
      <trkpt lat="40.804227" lon="-3.902387">
        <ele>2194.7</ele>
        <time>2018-04-21T10:12:29.000Z</time>
      </trkpt>
      <trkpt lat="40.804223" lon="-3.902397">
        <ele>2194.8</ele>
        <time>2018-04-21T10:12:30.000Z</time>
      </trkpt>
      <trkpt lat="40.804221" lon="-3.902408">
        <ele>2194.9</ele>
        <time>2018-04-21T10:12:31.000Z</time>
      </trkpt>
      <trkpt lat="40.804218" lon="-3.902418">
        <ele>2195.0</ele>
        <time>2018-04-21T10:12:32.000Z</time>
      </trkpt>
      <trkpt lat="40.804216" lon="-3.902428">
        <ele>2195.1</ele>
        <time>2018-04-21T10:12:33.000Z</time>
      </trkpt>
      <trkpt lat="40.804214" lon="-3.902438">
        <ele>2195.2</ele>
        <time>2018-04-21T10:12:34.000Z</time>
      </trkpt>
      <trkpt lat="40.804213" lon="-3.902448">
        <ele>2195.3</ele>
        <time>2018-04-21T10:12:35.000Z</time>
      </trkpt>
      <trkpt lat="40.804212" lon="-3.902458">
        <ele>2195.3</ele>
        <time>2018-04-21T10:12:36.000Z</time>
      </trkpt>
      <trkpt lat="40.80421" lon="-3.902468">
        <ele>2195.4</ele>
        <time>2018-04-21T10:12:37.000Z</time>
      </trkpt>
      <trkpt lat="40.80421" lon="-3.902479">
        <ele>2195.5</ele>
        <time>2018-04-21T10:12:38.000Z</time>
      </trkpt>
      <trkpt lat="40.804209" lon="-3.902489">
        <ele>2195.6</ele>
        <time>2018-04-21T10:12:39.000Z</time>
      </trkpt>
      <trkpt lat="40.804208" lon="-3.902499">
        <ele>2195.6</ele>
        <time>2018-04-21T10:12:40.000Z</time>
      </trkpt>
      <trkpt lat="40.804207" lon="-3.902509">
        <ele>2195.7</ele>
        <time>2018-04-21T10:12:41.000Z</time>
      </trkpt>
      <trkpt lat="40.804206" lon="-3.902519">
        <ele>2195.7</ele>
        <time>2018-04-21T10:12:42.000Z</time>
      </trkpt>
      <trkpt lat="40.804206" lon="-3.90253">
        <ele>2195.7</ele>
        <time>2018-04-21T10:12:43.000Z</time>
      </trkpt>
      <trkpt lat="40.804205" lon="-3.90254">
        <ele>2195.7</ele>
        <time>2018-04-21T10:12:44.000Z</time>
      </trkpt>
      <trkpt lat="40.804203" lon="-3.90255">
        <ele>2195.7</ele>
        <time>2018-04-21T10:12:45.000Z</time>
      </trkpt>
      <trkpt lat="40.804202" lon="-3.902561">
        <ele>2195.7</ele>
        <time>2018-04-21T10:12:46.000Z</time>
      </trkpt>
      <trkpt lat="40.804201" lon="-3.902572">
        <ele>2195.7</ele>
        <time>2018-04-21T10:12:47.000Z</time>
      </trkpt>
      <trkpt lat="40.804199" lon="-3.902583">
        <ele>2195.7</ele>
        <time>2018-04-21T10:12:48.000Z</time>
      </trkpt>
      <trkpt lat="40.804197" lon="-3.902594">
        <ele>2195.7</ele>
        <time>2018-04-21T10:12:49.000Z</time>
      </trkpt>
      <trkpt lat="40.804195" lon="-3.902605">
        <ele>2195.7</ele>
        <time>2018-04-21T10:12:50.000Z</time>
      </trkpt>
      <trkpt lat="40.804192" lon="-3.902616">
        <ele>2195.8</ele>
        <time>2018-04-21T10:12:51.000Z</time>
      </trkpt>
      <trkpt lat="40.80419" lon="-3.902627">
        <ele>2195.8</ele>
        <time>2018-04-21T10:12:52.000Z</time>
      </trkpt>
      <trkpt lat="40.804187" lon="-3.902638">
        <ele>2195.8</ele>
        <time>2018-04-21T10:12:53.000Z</time>
      </trkpt>
      <trkpt lat="40.804184" lon="-3.902649">
        <ele>2195.8</ele>
        <time>2018-04-21T10:12:54.000Z</time>
      </trkpt>
      <trkpt lat="40.804181" lon="-3.90266">
        <ele>2195.9</ele>
        <time>2018-04-21T10:12:55.000Z</time>
      </trkpt>
      <trkpt lat="40.804178" lon="-3.902671">
        <ele>2195.9</ele>
        <time>2018-04-21T10:12:56.000Z</time>
      </trkpt>
      <trkpt lat="40.804175" lon="-3.902682">
        <ele>2195.9</ele>
        <time>2018-04-21T10:12:57.000Z</time>
      </trkpt>
      <trkpt lat="40.804171" lon="-3.902693">
        <ele>2196.0</ele>
        <time>2018-04-21T10:12:58.000Z</time>
      </trkpt>
      <trkpt lat="40.804168" lon="-3.902704">
        <ele>2196.0</ele>
        <time>2018-04-21T10:12:59.000Z</time>
      </trkpt>
      <trkpt lat="40.804165" lon="-3.902715">
        <ele>2196.0</ele>
        <time>2018-04-21T10:13:00.000Z</time>
      </trkpt>
      <trkpt lat="40.804161" lon="-3.902725">
        <ele>2195.9</ele>
        <time>2018-04-21T10:13:01.000Z</time>
      </trkpt>
      <trkpt lat="40.804158" lon="-3.902736">
        <ele>2195.8</ele>
        <time>2018-04-21T10:13:02.000Z</time>
      </trkpt>
      <trkpt lat="40.804154" lon="-3.902746">
        <ele>2195.7</ele>
        <time>2018-04-21T10:13:03.000Z</time>
      </trkpt>
      <trkpt lat="40.804151" lon="-3.902756">
        <ele>2195.7</ele>
        <time>2018-04-21T10:13:04.000Z</time>
      </trkpt>
      <trkpt lat="40.804148" lon="-3.902766">
        <ele>2195.6</ele>
        <time>2018-04-21T10:13:05.000Z</time>
      </trkpt>
      <trkpt lat="40.804144" lon="-3.902776">
        <ele>2195.5</ele>
        <time>2018-04-21T10:13:06.000Z</time>
      </trkpt>
      <trkpt lat="40.804141" lon="-3.902786">
        <ele>2195.5</ele>
        <time>2018-04-21T10:13:07.000Z</time>
      </trkpt>
      <trkpt lat="40.804138" lon="-3.902795">
        <ele>2195.4</ele>
        <time>2018-04-21T10:13:08.000Z</time>
      </trkpt>
      <trkpt lat="40.804134" lon="-3.902805">
        <ele>2195.4</ele>
        <time>2018-04-21T10:13:09.000Z</time>
      </trkpt>
      <trkpt lat="40.804131" lon="-3.902815">
        <ele>2195.3</ele>
        <time>2018-04-21T10:13:10.000Z</time>
      </trkpt>
      <trkpt lat="40.804127" lon="-3.902825">
        <ele>2195.2</ele>
        <time>2018-04-21T10:13:11.000Z</time>
      </trkpt>
      <trkpt lat="40.804124" lon="-3.902835">
        <ele>2195.2</ele>
        <time>2018-04-21T10:13:12.000Z</time>
      </trkpt>
      <trkpt lat="40.80412" lon="-3.902845">
        <ele>2195.1</ele>
        <time>2018-04-21T10:13:13.000Z</time>
      </trkpt>
      <trkpt lat="40.804117" lon="-3.902856">
        <ele>2195.0</ele>
        <time>2018-04-21T10:13:14.000Z</time>
      </trkpt>
      <trkpt lat="40.804113" lon="-3.902866">
        <ele>2195.0</ele>
        <time>2018-04-21T10:13:15.000Z</time>
      </trkpt>
      <trkpt lat="40.80411" lon="-3.902877">
        <ele>2194.9</ele>
        <time>2018-04-21T10:13:16.000Z</time>
      </trkpt>
      <trkpt lat="40.804106" lon="-3.902888">
        <ele>2194.8</ele>
        <time>2018-04-21T10:13:17.000Z</time>
      </trkpt>
      <trkpt lat="40.804102" lon="-3.9029">
        <ele>2194.8</ele>
        <time>2018-04-21T10:13:18.000Z</time>
      </trkpt>
      <trkpt lat="40.804099" lon="-3.902911">
        <ele>2194.7</ele>
        <time>2018-04-21T10:13:19.000Z</time>
      </trkpt>
      <trkpt lat="40.804095" lon="-3.902922">
        <ele>2194.6</ele>
        <time>2018-04-21T10:13:20.000Z</time>
      </trkpt>
      <trkpt lat="40.804092" lon="-3.902932">
        <ele>2194.6</ele>
        <time>2018-04-21T10:13:21.000Z</time>
      </trkpt>
      <trkpt lat="40.804089" lon="-3.902943">
        <ele>2194.5</ele>
        <time>2018-04-21T10:13:22.000Z</time>
      </trkpt>
      <trkpt lat="40.804086" lon="-3.902953">
        <ele>2194.5</ele>
        <time>2018-04-21T10:13:23.000Z</time>
      </trkpt>
      <trkpt lat="40.804084" lon="-3.902963">
        <ele>2194.4</ele>
        <time>2018-04-21T10:13:24.000Z</time>
      </trkpt>
      <trkpt lat="40.804081" lon="-3.902973">
        <ele>2194.4</ele>
        <time>2018-04-21T10:13:25.000Z</time>
      </trkpt>
      <trkpt lat="40.804079" lon="-3.902983">
        <ele>2194.4</ele>
        <time>2018-04-21T10:13:26.000Z</time>
      </trkpt>
      <trkpt lat="40.804076" lon="-3.902992">
        <ele>2194.3</ele>
        <time>2018-04-21T10:13:27.000Z</time>
      </trkpt>
      <trkpt lat="40.804074" lon="-3.903002">
        <ele>2194.3</ele>
        <time>2018-04-21T10:13:28.000Z</time>
      </trkpt>
      <trkpt lat="40.804072" lon="-3.903011">
        <ele>2194.2</ele>
        <time>2018-04-21T10:13:29.000Z</time>
      </trkpt>
      <trkpt lat="40.80407" lon="-3.90302">
        <ele>2194.2</ele>
        <time>2018-04-21T10:13:30.000Z</time>
      </trkpt>
      <trkpt lat="40.804068" lon="-3.903029">
        <ele>2194.2</ele>
        <time>2018-04-21T10:13:31.000Z</time>
      </trkpt>
      <trkpt lat="40.804066" lon="-3.903039">
        <ele>2194.1</ele>
        <time>2018-04-21T10:13:32.000Z</time>
      </trkpt>
      <trkpt lat="40.804063" lon="-3.903048">
        <ele>2194.1</ele>
        <time>2018-04-21T10:13:33.000Z</time>
      </trkpt>
      <trkpt lat="40.804061" lon="-3.903057">
        <ele>2194.1</ele>
        <time>2018-04-21T10:13:34.000Z</time>
      </trkpt>
      <trkpt lat="40.804058" lon="-3.903067">
        <ele>2194.0</ele>
        <time>2018-04-21T10:13:35.000Z</time>
      </trkpt>
      <trkpt lat="40.804055" lon="-3.903076">
        <ele>2194.0</ele>
        <time>2018-04-21T10:13:36.000Z</time>
      </trkpt>
      <trkpt lat="40.804052" lon="-3.903086">
        <ele>2193.9</ele>
        <time>2018-04-21T10:13:37.000Z</time>
      </trkpt>
      <trkpt lat="40.804049" lon="-3.903096">
        <ele>2193.9</ele>
        <time>2018-04-21T10:13:38.000Z</time>
      </trkpt>
      <trkpt lat="40.804046" lon="-3.903106">
        <ele>2193.8</ele>
        <time>2018-04-21T10:13:39.000Z</time>
      </trkpt>
      <trkpt lat="40.804042" lon="-3.903117">
        <ele>2193.8</ele>
        <time>2018-04-21T10:13:40.000Z</time>
      </trkpt>
      <trkpt lat="40.804038" lon="-3.903127">
        <ele>2193.7</ele>
        <time>2018-04-21T10:13:41.000Z</time>
      </trkpt>
      <trkpt lat="40.804033" lon="-3.903138">
        <ele>2193.6</ele>
        <time>2018-04-21T10:13:42.000Z</time>
      </trkpt>
      <trkpt lat="40.804029" lon="-3.90315">
        <ele>2193.5</ele>
        <time>2018-04-21T10:13:43.000Z</time>
      </trkpt>
      <trkpt lat="40.804024" lon="-3.903161">
        <ele>2193.5</ele>
        <time>2018-04-21T10:13:44.000Z</time>
      </trkpt>
      <trkpt lat="40.804018" lon="-3.903173">
        <ele>2193.4</ele>
        <time>2018-04-21T10:13:45.000Z</time>
      </trkpt>
      <trkpt lat="40.804013" lon="-3.903184">
        <ele>2193.3</ele>
        <time>2018-04-21T10:13:46.000Z</time>
      </trkpt>
      <trkpt lat="40.804008" lon="-3.903196">
        <ele>2193.2</ele>
        <time>2018-04-21T10:13:47.000Z</time>
      </trkpt>
      <trkpt lat="40.804002" lon="-3.903207">
        <ele>2193.1</ele>
        <time>2018-04-21T10:13:48.000Z</time>
      </trkpt>
      <trkpt lat="40.803996" lon="-3.903219">
        <ele>2193.0</ele>
        <time>2018-04-21T10:13:49.000Z</time>
      </trkpt>
      <trkpt lat="40.803991" lon="-3.90323">
        <ele>2192.9</ele>
        <time>2018-04-21T10:13:50.000Z</time>
      </trkpt>
      <trkpt lat="40.803985" lon="-3.903241">
        <ele>2192.9</ele>
        <time>2018-04-21T10:13:51.000Z</time>
      </trkpt>
      <trkpt lat="40.80398" lon="-3.903252">
        <ele>2192.8</ele>
        <time>2018-04-21T10:13:52.000Z</time>
      </trkpt>
      <trkpt lat="40.803974" lon="-3.903264">
        <ele>2192.7</ele>
        <time>2018-04-21T10:13:53.000Z</time>
      </trkpt>
      <trkpt lat="40.80397" lon="-3.903275">
        <ele>2192.6</ele>
        <time>2018-04-21T10:13:54.000Z</time>
      </trkpt>
      <trkpt lat="40.803965" lon="-3.903287">
        <ele>2192.6</ele>
        <time>2018-04-21T10:13:55.000Z</time>
      </trkpt>
      <trkpt lat="40.803962" lon="-3.903299">
        <ele>2192.5</ele>
        <time>2018-04-21T10:13:56.000Z</time>
      </trkpt>
      <trkpt lat="40.803959" lon="-3.903311">
        <ele>2192.5</ele>
        <time>2018-04-21T10:13:57.000Z</time>
      </trkpt>
      <trkpt lat="40.803956" lon="-3.903324">
        <ele>2192.4</ele>
        <time>2018-04-21T10:13:58.000Z</time>
      </trkpt>
      <trkpt lat="40.803955" lon="-3.903337">
        <ele>2192.4</ele>
        <time>2018-04-21T10:13:59.000Z</time>
      </trkpt>
      <trkpt lat="40.803954" lon="-3.903351">
        <ele>2192.4</ele>
        <time>2018-04-21T10:14:00.000Z</time>
      </trkpt>
      <trkpt lat="40.803954" lon="-3.903365">
        <ele>2192.4</ele>
        <time>2018-04-21T10:14:01.000Z</time>
      </trkpt>
      <trkpt lat="40.803954" lon="-3.903379">
        <ele>2192.4</ele>
        <time>2018-04-21T10:14:02.000Z</time>
      </trkpt>
      <trkpt lat="40.803954" lon="-3.903394">
        <ele>2192.4</ele>
        <time>2018-04-21T10:14:03.000Z</time>
      </trkpt>
      <trkpt lat="40.803954" lon="-3.903408">
        <ele>2192.4</ele>
        <time>2018-04-21T10:14:04.000Z</time>
      </trkpt>
      <trkpt lat="40.803953" lon="-3.903422">
        <ele>2192.4</ele>
        <time>2018-04-21T10:14:05.000Z</time>
      </trkpt>
      <trkpt lat="40.803952" lon="-3.903435">
        <ele>2192.4</ele>
        <time>2018-04-21T10:14:06.000Z</time>
      </trkpt>
      <trkpt lat="40.80395" lon="-3.903448">
        <ele>2192.3</ele>
        <time>2018-04-21T10:14:07.000Z</time>
      </trkpt>
      <trkpt lat="40.803948" lon="-3.903461">
        <ele>2192.3</ele>
        <time>2018-04-21T10:14:08.000Z</time>
      </trkpt>
      <trkpt lat="40.803944" lon="-3.903473">
        <ele>2192.2</ele>
        <time>2018-04-21T10:14:09.000Z</time>
      </trkpt>
      <trkpt lat="40.803939" lon="-3.903485">
        <ele>2192.2</ele>
        <time>2018-04-21T10:14:10.000Z</time>
      </trkpt>
      <trkpt lat="40.803934" lon="-3.903496">
        <ele>2192.1</ele>
        <time>2018-04-21T10:14:11.000Z</time>
      </trkpt>
      <trkpt lat="40.803929" lon="-3.903507">
        <ele>2192.0</ele>
        <time>2018-04-21T10:14:12.000Z</time>
      </trkpt>
      <trkpt lat="40.803923" lon="-3.903518">
        <ele>2191.9</ele>
        <time>2018-04-21T10:14:13.000Z</time>
      </trkpt>
      <trkpt lat="40.803917" lon="-3.90353">
        <ele>2191.8</ele>
        <time>2018-04-21T10:14:14.000Z</time>
      </trkpt>
      <trkpt lat="40.80391" lon="-3.903541">
        <ele>2191.7</ele>
        <time>2018-04-21T10:14:15.000Z</time>
      </trkpt>
      <trkpt lat="40.803904" lon="-3.903552">
        <ele>2191.6</ele>
        <time>2018-04-21T10:14:16.000Z</time>
      </trkpt>
      <trkpt lat="40.803898" lon="-3.903564">
        <ele>2191.6</ele>
        <time>2018-04-21T10:14:17.000Z</time>
      </trkpt>
      <trkpt lat="40.803893" lon="-3.903576">
        <ele>2191.5</ele>
        <time>2018-04-21T10:14:18.000Z</time>
      </trkpt>
      <trkpt lat="40.803887" lon="-3.903588">
        <ele>2191.4</ele>
        <time>2018-04-21T10:14:19.000Z</time>
      </trkpt>
      <trkpt lat="40.803882" lon="-3.903601">
        <ele>2191.3</ele>
        <time>2018-04-21T10:14:20.000Z</time>
      </trkpt>
      <trkpt lat="40.803877" lon="-3.903614">
        <ele>2191.3</ele>
        <time>2018-04-21T10:14:21.000Z</time>
      </trkpt>
      <trkpt lat="40.803873" lon="-3.903626">
        <ele>2191.2</ele>
        <time>2018-04-21T10:14:22.000Z</time>
      </trkpt>
      <trkpt lat="40.803868" lon="-3.903639">
        <ele>2191.2</ele>
        <time>2018-04-21T10:14:23.000Z</time>
      </trkpt>
      <trkpt lat="40.803864" lon="-3.903652">
        <ele>2191.1</ele>
        <time>2018-04-21T10:14:24.000Z</time>
      </trkpt>
      <trkpt lat="40.80386" lon="-3.903665">
        <ele>2191.1</ele>
        <time>2018-04-21T10:14:25.000Z</time>
      </trkpt>
      <trkpt lat="40.803856" lon="-3.903679">
        <ele>2191.0</ele>
        <time>2018-04-21T10:14:26.000Z</time>
      </trkpt>
      <trkpt lat="40.803853" lon="-3.903692">
        <ele>2191.0</ele>
        <time>2018-04-21T10:14:27.000Z</time>
      </trkpt>
      <trkpt lat="40.80385" lon="-3.903704">
        <ele>2191.0</ele>
        <time>2018-04-21T10:14:28.000Z</time>
      </trkpt>
      <trkpt lat="40.803847" lon="-3.903717">
        <ele>2190.9</ele>
        <time>2018-04-21T10:14:29.000Z</time>
      </trkpt>
      <trkpt lat="40.803844" lon="-3.90373">
        <ele>2190.9</ele>
        <time>2018-04-21T10:14:30.000Z</time>
      </trkpt>
      <trkpt lat="40.803842" lon="-3.903742">
        <ele>2190.9</ele>
        <time>2018-04-21T10:14:31.000Z</time>
      </trkpt>
      <trkpt lat="40.803839" lon="-3.903755">
        <ele>2190.9</ele>
        <time>2018-04-21T10:14:32.000Z</time>
      </trkpt>
      <trkpt lat="40.803838" lon="-3.903767">
        <ele>2190.9</ele>
        <time>2018-04-21T10:14:33.000Z</time>
      </trkpt>
      <trkpt lat="40.803836" lon="-3.903778">
        <ele>2190.9</ele>
        <time>2018-04-21T10:14:34.000Z</time>
      </trkpt>
      <trkpt lat="40.803835" lon="-3.90379">
        <ele>2190.9</ele>
        <time>2018-04-21T10:14:35.000Z</time>
      </trkpt>
      <trkpt lat="40.803834" lon="-3.903801">
        <ele>2190.9</ele>
        <time>2018-04-21T10:14:36.000Z</time>
      </trkpt>
      <trkpt lat="40.803833" lon="-3.903812">
        <ele>2190.9</ele>
        <time>2018-04-21T10:14:37.000Z</time>
      </trkpt>
      <trkpt lat="40.803832" lon="-3.903822">
        <ele>2190.9</ele>
        <time>2018-04-21T10:14:38.000Z</time>
      </trkpt>
      <trkpt lat="40.803831" lon="-3.903833">
        <ele>2190.9</ele>
        <time>2018-04-21T10:14:39.000Z</time>
      </trkpt>
      <trkpt lat="40.80383" lon="-3.903843">
        <ele>2190.9</ele>
        <time>2018-04-21T10:14:40.000Z</time>
      </trkpt>
      <trkpt lat="40.803829" lon="-3.903854">
        <ele>2190.8</ele>
        <time>2018-04-21T10:14:41.000Z</time>
      </trkpt>
      <trkpt lat="40.803828" lon="-3.903865">
        <ele>2190.8</ele>
        <time>2018-04-21T10:14:42.000Z</time>
      </trkpt>
      <trkpt lat="40.803827" lon="-3.903876">
        <ele>2190.8</ele>
        <time>2018-04-21T10:14:43.000Z</time>
      </trkpt>
      <trkpt lat="40.803825" lon="-3.903887">
        <ele>2190.8</ele>
        <time>2018-04-21T10:14:44.000Z</time>
      </trkpt>
      <trkpt lat="40.803823" lon="-3.903898">
        <ele>2190.8</ele>
        <time>2018-04-21T10:14:45.000Z</time>
      </trkpt>
      <trkpt lat="40.80382" lon="-3.90391">
        <ele>2190.8</ele>
        <time>2018-04-21T10:14:46.000Z</time>
      </trkpt>
      <trkpt lat="40.803818" lon="-3.903921">
        <ele>2190.8</ele>
        <time>2018-04-21T10:14:47.000Z</time>
      </trkpt>
      <trkpt lat="40.803815" lon="-3.903932">
        <ele>2190.8</ele>
        <time>2018-04-21T10:14:48.000Z</time>
      </trkpt>
      <trkpt lat="40.803812" lon="-3.903943">
        <ele>2190.8</ele>
        <time>2018-04-21T10:14:49.000Z</time>
      </trkpt>
      <trkpt lat="40.803809" lon="-3.903954">
        <ele>2190.7</ele>
        <time>2018-04-21T10:14:50.000Z</time>
      </trkpt>
      <trkpt lat="40.803805" lon="-3.903964">
        <ele>2190.7</ele>
        <time>2018-04-21T10:14:51.000Z</time>
      </trkpt>
      <trkpt lat="40.803802" lon="-3.903974">
        <ele>2190.7</ele>
        <time>2018-04-21T10:14:52.000Z</time>
      </trkpt>
      <trkpt lat="40.803799" lon="-3.903983">
        <ele>2190.7</ele>
        <time>2018-04-21T10:14:53.000Z</time>
      </trkpt>
      <trkpt lat="40.803796" lon="-3.903992">
        <ele>2190.7</ele>
        <time>2018-04-21T10:14:54.000Z</time>
      </trkpt>
      <trkpt lat="40.803793" lon="-3.904001">
        <ele>2190.6</ele>
        <time>2018-04-21T10:14:55.000Z</time>
      </trkpt>
      <trkpt lat="40.80379" lon="-3.904009">
        <ele>2190.6</ele>
        <time>2018-04-21T10:14:56.000Z</time>
      </trkpt>
      <trkpt lat="40.803787" lon="-3.904017">
        <ele>2190.6</ele>
        <time>2018-04-21T10:14:57.000Z</time>
      </trkpt>
      <trkpt lat="40.803785" lon="-3.904025">
        <ele>2190.6</ele>
        <time>2018-04-21T10:14:58.000Z</time>
      </trkpt>
      <trkpt lat="40.803783" lon="-3.904033">
        <ele>2190.6</ele>
        <time>2018-04-21T10:14:59.000Z</time>
      </trkpt>
      <trkpt lat="40.803782" lon="-3.904042">
        <ele>2190.6</ele>
        <time>2018-04-21T10:15:00.000Z</time>
      </trkpt>
      <trkpt lat="40.803782" lon="-3.90405">
        <ele>2190.6</ele>
        <time>2018-04-21T10:15:01.000Z</time>
      </trkpt>
      <trkpt lat="40.803782" lon="-3.904059">
        <ele>2190.6</ele>
        <time>2018-04-21T10:15:02.000Z</time>
      </trkpt>
      <trkpt lat="40.803783" lon="-3.904068">
        <ele>2190.6</ele>
        <time>2018-04-21T10:15:03.000Z</time>
      </trkpt>
      <trkpt lat="40.803784" lon="-3.904078">
        <ele>2190.7</ele>
        <time>2018-04-21T10:15:04.000Z</time>
      </trkpt>
      <trkpt lat="40.803785" lon="-3.904088">
        <ele>2190.7</ele>
        <time>2018-04-21T10:15:05.000Z</time>
      </trkpt>
      <trkpt lat="40.803785" lon="-3.904098">
        <ele>2190.7</ele>
        <time>2018-04-21T10:15:06.000Z</time>
      </trkpt>
      <trkpt lat="40.803786" lon="-3.904108">
        <ele>2190.7</ele>
        <time>2018-04-21T10:15:07.000Z</time>
      </trkpt>
      <trkpt lat="40.803785" lon="-3.904118">
        <ele>2190.7</ele>
        <time>2018-04-21T10:15:08.000Z</time>
      </trkpt>
      <trkpt lat="40.803784" lon="-3.904127">
        <ele>2190.7</ele>
        <time>2018-04-21T10:15:09.000Z</time>
      </trkpt>
      <trkpt lat="40.803782" lon="-3.904137">
        <ele>2190.7</ele>
        <time>2018-04-21T10:15:10.000Z</time>
      </trkpt>
      <trkpt lat="40.803778" lon="-3.904147">
        <ele>2190.7</ele>
        <time>2018-04-21T10:15:11.000Z</time>
      </trkpt>
      <trkpt lat="40.803773" lon="-3.904156">
        <ele>2190.7</ele>
        <time>2018-04-21T10:15:12.000Z</time>
      </trkpt>
      <trkpt lat="40.803767" lon="-3.904165">
        <ele>2190.6</ele>
        <time>2018-04-21T10:15:13.000Z</time>
      </trkpt>
      <trkpt lat="40.80376" lon="-3.904175">
        <ele>2190.6</ele>
        <time>2018-04-21T10:15:14.000Z</time>
      </trkpt>
      <trkpt lat="40.803753" lon="-3.904184">
        <ele>2190.5</ele>
        <time>2018-04-21T10:15:15.000Z</time>
      </trkpt>
      <trkpt lat="40.803745" lon="-3.904193">
        <ele>2190.4</ele>
        <time>2018-04-21T10:15:16.000Z</time>
      </trkpt>
      <trkpt lat="40.803737" lon="-3.904203">
        <ele>2190.4</ele>
        <time>2018-04-21T10:15:17.000Z</time>
      </trkpt>
      <trkpt lat="40.803729" lon="-3.904213">
        <ele>2190.3</ele>
        <time>2018-04-21T10:15:18.000Z</time>
      </trkpt>
      <trkpt lat="40.803721" lon="-3.904223">
        <ele>2190.2</ele>
        <time>2018-04-21T10:15:19.000Z</time>
      </trkpt>
      <trkpt lat="40.803712" lon="-3.904233">
        <ele>2190.1</ele>
        <time>2018-04-21T10:15:20.000Z</time>
      </trkpt>
      <trkpt lat="40.803705" lon="-3.904244">
        <ele>2190.1</ele>
        <time>2018-04-21T10:15:21.000Z</time>
      </trkpt>
      <trkpt lat="40.803697" lon="-3.904254">
        <ele>2190.0</ele>
        <time>2018-04-21T10:15:22.000Z</time>
      </trkpt>
      <trkpt lat="40.80369" lon="-3.904266">
        <ele>2189.9</ele>
        <time>2018-04-21T10:15:23.000Z</time>
      </trkpt>
      <trkpt lat="40.803684" lon="-3.904277">
        <ele>2189.9</ele>
        <time>2018-04-21T10:15:24.000Z</time>
      </trkpt>
      <trkpt lat="40.803678" lon="-3.904289">
        <ele>2189.8</ele>
        <time>2018-04-21T10:15:25.000Z</time>
      </trkpt>
      <trkpt lat="40.803673" lon="-3.904301">
        <ele>2189.8</ele>
        <time>2018-04-21T10:15:26.000Z</time>
      </trkpt>
      <trkpt lat="40.803668" lon="-3.904313">
        <ele>2189.8</ele>
        <time>2018-04-21T10:15:27.000Z</time>
      </trkpt>
      <trkpt lat="40.803664" lon="-3.904325">
        <ele>2189.7</ele>
        <time>2018-04-21T10:15:28.000Z</time>
      </trkpt>
      <trkpt lat="40.803662" lon="-3.904338">
        <ele>2189.7</ele>
        <time>2018-04-21T10:15:29.000Z</time>
      </trkpt>
      <trkpt lat="40.803659" lon="-3.90435">
        <ele>2189.7</ele>
        <time>2018-04-21T10:15:30.000Z</time>
      </trkpt>
      <trkpt lat="40.803658" lon="-3.904363">
        <ele>2189.7</ele>
        <time>2018-04-21T10:15:31.000Z</time>
      </trkpt>
      <trkpt lat="40.803657" lon="-3.904376">
        <ele>2189.7</ele>
        <time>2018-04-21T10:15:32.000Z</time>
      </trkpt>
      <trkpt lat="40.803656" lon="-3.90439">
        <ele>2189.7</ele>
        <time>2018-04-21T10:15:33.000Z</time>
      </trkpt>
      <trkpt lat="40.803655" lon="-3.904403">
        <ele>2189.7</ele>
        <time>2018-04-21T10:15:34.000Z</time>
      </trkpt>
      <trkpt lat="40.803655" lon="-3.904416">
        <ele>2189.7</ele>
        <time>2018-04-21T10:15:35.000Z</time>
      </trkpt>
      <trkpt lat="40.803654" lon="-3.904429">
        <ele>2189.7</ele>
        <time>2018-04-21T10:15:36.000Z</time>
      </trkpt>
      <trkpt lat="40.803652" lon="-3.904442">
        <ele>2189.7</ele>
        <time>2018-04-21T10:15:37.000Z</time>
      </trkpt>
      <trkpt lat="40.80365" lon="-3.904454">
        <ele>2189.6</ele>
        <time>2018-04-21T10:15:38.000Z</time>
      </trkpt>
      <trkpt lat="40.803648" lon="-3.904467">
        <ele>2189.6</ele>
        <time>2018-04-21T10:15:39.000Z</time>
      </trkpt>
      <trkpt lat="40.803645" lon="-3.904479">
        <ele>2189.6</ele>
        <time>2018-04-21T10:15:40.000Z</time>
      </trkpt>
      <trkpt lat="40.803641" lon="-3.904491">
        <ele>2189.6</ele>
        <time>2018-04-21T10:15:41.000Z</time>
      </trkpt>
      <trkpt lat="40.803636" lon="-3.904503">
        <ele>2189.6</ele>
        <time>2018-04-21T10:15:42.000Z</time>
      </trkpt>
      <trkpt lat="40.803632" lon="-3.904515">
        <ele>2189.6</ele>
        <time>2018-04-21T10:15:43.000Z</time>
      </trkpt>
      <trkpt lat="40.803627" lon="-3.904526">
        <ele>2189.5</ele>
        <time>2018-04-21T10:15:44.000Z</time>
      </trkpt>
      <trkpt lat="40.803621" lon="-3.904538">
        <ele>2189.5</ele>
        <time>2018-04-21T10:15:45.000Z</time>
      </trkpt>
      <trkpt lat="40.803615" lon="-3.904549">
        <ele>2189.5</ele>
        <time>2018-04-21T10:15:46.000Z</time>
      </trkpt>
      <trkpt lat="40.803609" lon="-3.90456">
        <ele>2189.5</ele>
        <time>2018-04-21T10:15:47.000Z</time>
      </trkpt>
      <trkpt lat="40.803603" lon="-3.904571">
        <ele>2189.5</ele>
        <time>2018-04-21T10:15:48.000Z</time>
      </trkpt>
      <trkpt lat="40.803597" lon="-3.904582">
        <ele>2189.4</ele>
        <time>2018-04-21T10:15:49.000Z</time>
      </trkpt>
      <trkpt lat="40.80359" lon="-3.904593">
        <ele>2189.4</ele>
        <time>2018-04-21T10:15:50.000Z</time>
      </trkpt>
      <trkpt lat="40.803584" lon="-3.904604">
        <ele>2189.4</ele>
        <time>2018-04-21T10:15:51.000Z</time>
      </trkpt>
      <trkpt lat="40.803577" lon="-3.904615">
        <ele>2189.4</ele>
        <time>2018-04-21T10:15:52.000Z</time>
      </trkpt>
      <trkpt lat="40.80357" lon="-3.904626">
        <ele>2189.4</ele>
        <time>2018-04-21T10:15:53.000Z</time>
      </trkpt>
      <trkpt lat="40.803564" lon="-3.904637">
        <ele>2189.4</ele>
        <time>2018-04-21T10:15:54.000Z</time>
      </trkpt>
      <trkpt lat="40.803557" lon="-3.904647">
        <ele>2189.4</ele>
        <time>2018-04-21T10:15:55.000Z</time>
      </trkpt>
      <trkpt lat="40.80355" lon="-3.904658">
        <ele>2189.4</ele>
        <time>2018-04-21T10:15:56.000Z</time>
      </trkpt>
      <trkpt lat="40.803544" lon="-3.904669">
        <ele>2189.4</ele>
        <time>2018-04-21T10:15:57.000Z</time>
      </trkpt>
      <trkpt lat="40.803537" lon="-3.90468">
        <ele>2189.4</ele>
        <time>2018-04-21T10:15:58.000Z</time>
      </trkpt>
      <trkpt lat="40.80353" lon="-3.904692">
        <ele>2189.4</ele>
        <time>2018-04-21T10:15:59.000Z</time>
      </trkpt>
      <trkpt lat="40.803524" lon="-3.904703">
        <ele>2189.4</ele>
        <time>2018-04-21T10:16:00.000Z</time>
      </trkpt>
      <trkpt lat="40.803518" lon="-3.904714">
        <ele>2189.4</ele>
        <time>2018-04-21T10:16:01.000Z</time>
      </trkpt>
      <trkpt lat="40.803511" lon="-3.904726">
        <ele>2189.4</ele>
        <time>2018-04-21T10:16:02.000Z</time>
      </trkpt>
      <trkpt lat="40.803505" lon="-3.904738">
        <ele>2189.4</ele>
        <time>2018-04-21T10:16:03.000Z</time>
      </trkpt>
      <trkpt lat="40.8035" lon="-3.90475">
        <ele>2189.4</ele>
        <time>2018-04-21T10:16:04.000Z</time>
      </trkpt>
      <trkpt lat="40.803494" lon="-3.904762">
        <ele>2189.4</ele>
        <time>2018-04-21T10:16:05.000Z</time>
      </trkpt>
      <trkpt lat="40.803488" lon="-3.904774">
        <ele>2189.4</ele>
        <time>2018-04-21T10:16:06.000Z</time>
      </trkpt>
      <trkpt lat="40.803483" lon="-3.904787">
        <ele>2189.4</ele>
        <time>2018-04-21T10:16:07.000Z</time>
      </trkpt>
      <trkpt lat="40.803478" lon="-3.9048">
        <ele>2189.4</ele>
        <time>2018-04-21T10:16:08.000Z</time>
      </trkpt>
      <trkpt lat="40.803474" lon="-3.904813">
        <ele>2189.5</ele>
        <time>2018-04-21T10:16:09.000Z</time>
      </trkpt>
      <trkpt lat="40.80347" lon="-3.904826">
        <ele>2189.5</ele>
        <time>2018-04-21T10:16:10.000Z</time>
      </trkpt>
      <trkpt lat="40.803466" lon="-3.904839">
        <ele>2189.5</ele>
        <time>2018-04-21T10:16:11.000Z</time>
      </trkpt>
      <trkpt lat="40.803462" lon="-3.904852">
        <ele>2189.5</ele>
        <time>2018-04-21T10:16:12.000Z</time>
      </trkpt>
      <trkpt lat="40.803459" lon="-3.904865">
        <ele>2189.6</ele>
        <time>2018-04-21T10:16:13.000Z</time>
      </trkpt>
      <trkpt lat="40.803456" lon="-3.904877">
        <ele>2189.6</ele>
        <time>2018-04-21T10:16:14.000Z</time>
      </trkpt>
      <trkpt lat="40.803454" lon="-3.90489">
        <ele>2189.6</ele>
        <time>2018-04-21T10:16:15.000Z</time>
      </trkpt>
      <trkpt lat="40.803452" lon="-3.904903">
        <ele>2189.6</ele>
        <time>2018-04-21T10:16:16.000Z</time>
      </trkpt>
      <trkpt lat="40.80345" lon="-3.904915">
        <ele>2189.7</ele>
        <time>2018-04-21T10:16:17.000Z</time>
      </trkpt>
      <trkpt lat="40.803448" lon="-3.904928">
        <ele>2189.7</ele>
        <time>2018-04-21T10:16:18.000Z</time>
      </trkpt>
      <trkpt lat="40.803446" lon="-3.90494">
        <ele>2189.7</ele>
        <time>2018-04-21T10:16:19.000Z</time>
      </trkpt>
      <trkpt lat="40.803444" lon="-3.904953">
        <ele>2189.8</ele>
        <time>2018-04-21T10:16:20.000Z</time>
      </trkpt>
      <trkpt lat="40.803441" lon="-3.904965">
        <ele>2189.8</ele>
        <time>2018-04-21T10:16:21.000Z</time>
      </trkpt>
      <trkpt lat="40.803439" lon="-3.904978">
        <ele>2189.8</ele>
        <time>2018-04-21T10:16:22.000Z</time>
      </trkpt>
      <trkpt lat="40.803435" lon="-3.904991">
        <ele>2189.9</ele>
        <time>2018-04-21T10:16:23.000Z</time>
      </trkpt>
      <trkpt lat="40.803431" lon="-3.905004">
        <ele>2189.9</ele>
        <time>2018-04-21T10:16:24.000Z</time>
      </trkpt>
      <trkpt lat="40.803427" lon="-3.905017">
        <ele>2190.0</ele>
        <time>2018-04-21T10:16:25.000Z</time>
      </trkpt>
      <trkpt lat="40.803422" lon="-3.90503">
        <ele>2190.1</ele>
        <time>2018-04-21T10:16:26.000Z</time>
      </trkpt>
      <trkpt lat="40.803417" lon="-3.905043">
        <ele>2190.2</ele>
        <time>2018-04-21T10:16:27.000Z</time>
      </trkpt>
      <trkpt lat="40.803412" lon="-3.905056">
        <ele>2190.3</ele>
        <time>2018-04-21T10:16:28.000Z</time>
      </trkpt>
      <trkpt lat="40.803407" lon="-3.90507">
        <ele>2190.4</ele>
        <time>2018-04-21T10:16:29.000Z</time>
      </trkpt>
      <trkpt lat="40.803402" lon="-3.905083">
        <ele>2190.4</ele>
        <time>2018-04-21T10:16:30.000Z</time>
      </trkpt>
      <trkpt lat="40.803397" lon="-3.905097">
        <ele>2190.6</ele>
        <time>2018-04-21T10:16:31.000Z</time>
      </trkpt>
      <trkpt lat="40.803393" lon="-3.905111">
        <ele>2190.7</ele>
        <time>2018-04-21T10:16:32.000Z</time>
      </trkpt>
      <trkpt lat="40.803389" lon="-3.905124">
        <ele>2190.7</ele>
        <time>2018-04-21T10:16:33.000Z</time>
      </trkpt>
      <trkpt lat="40.803385" lon="-3.905138">
        <ele>2190.8</ele>
        <time>2018-04-21T10:16:34.000Z</time>
      </trkpt>
      <trkpt lat="40.803382" lon="-3.905152">
        <ele>2191.0</ele>
        <time>2018-04-21T10:16:35.000Z</time>
      </trkpt>
      <trkpt lat="40.803379" lon="-3.905166">
        <ele>2191.1</ele>
        <time>2018-04-21T10:16:36.000Z</time>
      </trkpt>
      <trkpt lat="40.803376" lon="-3.90518">
        <ele>2191.2</ele>
        <time>2018-04-21T10:16:37.000Z</time>
      </trkpt>
      <trkpt lat="40.803373" lon="-3.905193">
        <ele>2191.3</ele>
        <time>2018-04-21T10:16:38.000Z</time>
      </trkpt>
      <trkpt lat="40.803371" lon="-3.905207">
        <ele>2191.4</ele>
        <time>2018-04-21T10:16:39.000Z</time>
      </trkpt>
      <trkpt lat="40.803368" lon="-3.90522">
        <ele>2191.5</ele>
        <time>2018-04-21T10:16:40.000Z</time>
      </trkpt>
      <trkpt lat="40.803365" lon="-3.905234">
        <ele>2191.6</ele>
        <time>2018-04-21T10:16:41.000Z</time>
      </trkpt>
      <trkpt lat="40.803361" lon="-3.905247">
        <ele>2191.7</ele>
        <time>2018-04-21T10:16:42.000Z</time>
      </trkpt>
      <trkpt lat="40.803358" lon="-3.90526">
        <ele>2191.8</ele>
        <time>2018-04-21T10:16:43.000Z</time>
      </trkpt>
      <trkpt lat="40.803354" lon="-3.905273">
        <ele>2191.9</ele>
        <time>2018-04-21T10:16:44.000Z</time>
      </trkpt>
      <trkpt lat="40.80335" lon="-3.905286">
        <ele>2192.0</ele>
        <time>2018-04-21T10:16:45.000Z</time>
      </trkpt>
      <trkpt lat="40.803345" lon="-3.905299">
        <ele>2192.1</ele>
        <time>2018-04-21T10:16:46.000Z</time>
      </trkpt>
      <trkpt lat="40.803341" lon="-3.905311">
        <ele>2192.2</ele>
        <time>2018-04-21T10:16:47.000Z</time>
      </trkpt>
      <trkpt lat="40.803336" lon="-3.905324">
        <ele>2192.3</ele>
        <time>2018-04-21T10:16:48.000Z</time>
      </trkpt>
      <trkpt lat="40.803331" lon="-3.905336">
        <ele>2192.4</ele>
        <time>2018-04-21T10:16:49.000Z</time>
      </trkpt>
      <trkpt lat="40.803326" lon="-3.905349">
        <ele>2192.4</ele>
        <time>2018-04-21T10:16:50.000Z</time>
      </trkpt>
      <trkpt lat="40.803321" lon="-3.905361">
        <ele>2192.4</ele>
        <time>2018-04-21T10:16:51.000Z</time>
      </trkpt>
      <trkpt lat="40.803315" lon="-3.905374">
        <ele>2192.3</ele>
        <time>2018-04-21T10:16:52.000Z</time>
      </trkpt>
      <trkpt lat="40.80331" lon="-3.905387">
        <ele>2192.3</ele>
        <time>2018-04-21T10:16:53.000Z</time>
      </trkpt>
      <trkpt lat="40.803304" lon="-3.905399">
        <ele>2192.3</ele>
        <time>2018-04-21T10:16:54.000Z</time>
      </trkpt>
      <trkpt lat="40.803299" lon="-3.905412">
        <ele>2192.3</ele>
        <time>2018-04-21T10:16:55.000Z</time>
      </trkpt>
      <trkpt lat="40.803293" lon="-3.905424">
        <ele>2192.3</ele>
        <time>2018-04-21T10:16:56.000Z</time>
      </trkpt>
      <trkpt lat="40.803287" lon="-3.905437">
        <ele>2192.2</ele>
        <time>2018-04-21T10:16:57.000Z</time>
      </trkpt>
      <trkpt lat="40.803281" lon="-3.90545">
        <ele>2192.2</ele>
        <time>2018-04-21T10:16:58.000Z</time>
      </trkpt>
      <trkpt lat="40.803276" lon="-3.905463">
        <ele>2192.2</ele>
        <time>2018-04-21T10:16:59.000Z</time>
      </trkpt>
      <trkpt lat="40.80327" lon="-3.905476">
        <ele>2192.2</ele>
        <time>2018-04-21T10:17:00.000Z</time>
      </trkpt>
      <trkpt lat="40.803264" lon="-3.905489">
        <ele>2192.2</ele>
        <time>2018-04-21T10:17:01.000Z</time>
      </trkpt>
      <trkpt lat="40.803259" lon="-3.905502">
        <ele>2192.2</ele>
        <time>2018-04-21T10:17:02.000Z</time>
      </trkpt>
      <trkpt lat="40.803253" lon="-3.905516">
        <ele>2192.2</ele>
        <time>2018-04-21T10:17:03.000Z</time>
      </trkpt>
      <trkpt lat="40.803248" lon="-3.905529">
        <ele>2192.2</ele>
        <time>2018-04-21T10:17:04.000Z</time>
      </trkpt>
      <trkpt lat="40.803242" lon="-3.905543">
        <ele>2192.2</ele>
        <time>2018-04-21T10:17:05.000Z</time>
      </trkpt>
      <trkpt lat="40.803237" lon="-3.905556">
        <ele>2192.2</ele>
        <time>2018-04-21T10:17:06.000Z</time>
      </trkpt>
      <trkpt lat="40.803231" lon="-3.90557">
        <ele>2192.2</ele>
        <time>2018-04-21T10:17:07.000Z</time>
      </trkpt>
      <trkpt lat="40.803226" lon="-3.905584">
        <ele>2192.2</ele>
        <time>2018-04-21T10:17:08.000Z</time>
      </trkpt>
      <trkpt lat="40.80322" lon="-3.905597">
        <ele>2192.2</ele>
        <time>2018-04-21T10:17:09.000Z</time>
      </trkpt>
      <trkpt lat="40.803215" lon="-3.905611">
        <ele>2192.2</ele>
        <time>2018-04-21T10:17:10.000Z</time>
      </trkpt>
      <trkpt lat="40.80321" lon="-3.905624">
        <ele>2192.2</ele>
        <time>2018-04-21T10:17:11.000Z</time>
      </trkpt>
      <trkpt lat="40.803205" lon="-3.905638">
        <ele>2192.3</ele>
        <time>2018-04-21T10:17:12.000Z</time>
      </trkpt>
      <trkpt lat="40.8032" lon="-3.905651">
        <ele>2192.3</ele>
        <time>2018-04-21T10:17:13.000Z</time>
      </trkpt>
      <trkpt lat="40.803195" lon="-3.905665">
        <ele>2192.3</ele>
        <time>2018-04-21T10:17:14.000Z</time>
      </trkpt>
      <trkpt lat="40.80319" lon="-3.905678">
        <ele>2192.3</ele>
        <time>2018-04-21T10:17:15.000Z</time>
      </trkpt>
      <trkpt lat="40.803185" lon="-3.905691">
        <ele>2192.3</ele>
        <time>2018-04-21T10:17:16.000Z</time>
      </trkpt>
      <trkpt lat="40.803181" lon="-3.905705">
        <ele>2192.4</ele>
        <time>2018-04-21T10:17:17.000Z</time>
      </trkpt>
      <trkpt lat="40.803176" lon="-3.905718">
        <ele>2192.4</ele>
        <time>2018-04-21T10:17:18.000Z</time>
      </trkpt>
      <trkpt lat="40.803172" lon="-3.90573">
        <ele>2192.4</ele>
        <time>2018-04-21T10:17:19.000Z</time>
      </trkpt>
      <trkpt lat="40.803167" lon="-3.905743">
        <ele>2192.4</ele>
        <time>2018-04-21T10:17:20.000Z</time>
      </trkpt>
      <trkpt lat="40.803163" lon="-3.905756">
        <ele>2192.5</ele>
        <time>2018-04-21T10:17:21.000Z</time>
      </trkpt>
      <trkpt lat="40.803159" lon="-3.905768">
        <ele>2192.5</ele>
        <time>2018-04-21T10:17:22.000Z</time>
      </trkpt>
      <trkpt lat="40.803156" lon="-3.905781">
        <ele>2192.6</ele>
        <time>2018-04-21T10:17:23.000Z</time>
      </trkpt>
      <trkpt lat="40.803152" lon="-3.905793">
        <ele>2192.6</ele>
        <time>2018-04-21T10:17:24.000Z</time>
      </trkpt>
      <trkpt lat="40.803149" lon="-3.905805">
        <ele>2192.7</ele>
        <time>2018-04-21T10:17:25.000Z</time>
      </trkpt>
      <trkpt lat="40.803146" lon="-3.905817">
        <ele>2192.7</ele>
        <time>2018-04-21T10:17:26.000Z</time>
      </trkpt>
      <trkpt lat="40.803143" lon="-3.905829">
        <ele>2192.8</ele>
        <time>2018-04-21T10:17:27.000Z</time>
      </trkpt>
      <trkpt lat="40.80314" lon="-3.90584">
        <ele>2192.8</ele>
        <time>2018-04-21T10:17:28.000Z</time>
      </trkpt>
      <trkpt lat="40.803138" lon="-3.905852">
        <ele>2192.9</ele>
        <time>2018-04-21T10:17:29.000Z</time>
      </trkpt>
      <trkpt lat="40.803136" lon="-3.905863">
        <ele>2193.0</ele>
        <time>2018-04-21T10:17:30.000Z</time>
      </trkpt>
      <trkpt lat="40.803134" lon="-3.905875">
        <ele>2193.0</ele>
        <time>2018-04-21T10:17:31.000Z</time>
      </trkpt>
      <trkpt lat="40.803132" lon="-3.905886">
        <ele>2193.1</ele>
        <time>2018-04-21T10:17:32.000Z</time>
      </trkpt>
      <trkpt lat="40.80313" lon="-3.905897">
        <ele>2193.2</ele>
        <time>2018-04-21T10:17:33.000Z</time>
      </trkpt>
      <trkpt lat="40.803128" lon="-3.905908">
        <ele>2193.2</ele>
        <time>2018-04-21T10:17:34.000Z</time>
      </trkpt>
      <trkpt lat="40.803126" lon="-3.90592">
        <ele>2193.3</ele>
        <time>2018-04-21T10:17:35.000Z</time>
      </trkpt>
      <trkpt lat="40.803124" lon="-3.905931">
        <ele>2193.4</ele>
        <time>2018-04-21T10:17:36.000Z</time>
      </trkpt>
      <trkpt lat="40.803122" lon="-3.905942">
        <ele>2193.5</ele>
        <time>2018-04-21T10:17:37.000Z</time>
      </trkpt>
      <trkpt lat="40.803121" lon="-3.905954">
        <ele>2193.6</ele>
        <time>2018-04-21T10:17:38.000Z</time>
      </trkpt>
      <trkpt lat="40.803119" lon="-3.905965">
        <ele>2193.6</ele>
        <time>2018-04-21T10:17:39.000Z</time>
      </trkpt>
      <trkpt lat="40.803117" lon="-3.905976">
        <ele>2193.7</ele>
        <time>2018-04-21T10:17:40.000Z</time>
      </trkpt>
      <trkpt lat="40.803115" lon="-3.905988">
        <ele>2193.8</ele>
        <time>2018-04-21T10:17:41.000Z</time>
      </trkpt>
      <trkpt lat="40.803113" lon="-3.905999">
        <ele>2193.9</ele>
        <time>2018-04-21T10:17:42.000Z</time>
      </trkpt>
      <trkpt lat="40.803111" lon="-3.906011">
        <ele>2193.9</ele>
        <time>2018-04-21T10:17:43.000Z</time>
      </trkpt>
      <trkpt lat="40.803109" lon="-3.906022">
        <ele>2194.0</ele>
        <time>2018-04-21T10:17:44.000Z</time>
      </trkpt>
      <trkpt lat="40.803107" lon="-3.906034">
        <ele>2194.1</ele>
        <time>2018-04-21T10:17:45.000Z</time>
      </trkpt>
      <trkpt lat="40.803105" lon="-3.906045">
        <ele>2194.2</ele>
        <time>2018-04-21T10:17:46.000Z</time>
      </trkpt>
      <trkpt lat="40.803103" lon="-3.906057">
        <ele>2194.3</ele>
        <time>2018-04-21T10:17:47.000Z</time>
      </trkpt>
      <trkpt lat="40.8031" lon="-3.906069">
        <ele>2194.3</ele>
        <time>2018-04-21T10:17:48.000Z</time>
      </trkpt>
      <trkpt lat="40.803098" lon="-3.90608">
        <ele>2194.4</ele>
        <time>2018-04-21T10:17:49.000Z</time>
      </trkpt>
      <trkpt lat="40.803096" lon="-3.906092">
        <ele>2194.5</ele>
        <time>2018-04-21T10:17:50.000Z</time>
      </trkpt>
      <trkpt lat="40.803094" lon="-3.906104">
        <ele>2194.6</ele>
        <time>2018-04-21T10:17:51.000Z</time>
      </trkpt>
      <trkpt lat="40.803091" lon="-3.906116">
        <ele>2194.7</ele>
        <time>2018-04-21T10:17:52.000Z</time>
      </trkpt>
      <trkpt lat="40.803089" lon="-3.906128">
        <ele>2194.7</ele>
        <time>2018-04-21T10:17:53.000Z</time>
      </trkpt>
      <trkpt lat="40.803086" lon="-3.90614">
        <ele>2194.8</ele>
        <time>2018-04-21T10:17:54.000Z</time>
      </trkpt>
      <trkpt lat="40.803084" lon="-3.906153">
        <ele>2194.9</ele>
        <time>2018-04-21T10:17:55.000Z</time>
      </trkpt>
      <trkpt lat="40.803081" lon="-3.906165">
        <ele>2195.0</ele>
        <time>2018-04-21T10:17:56.000Z</time>
      </trkpt>
      <trkpt lat="40.803078" lon="-3.906177">
        <ele>2195.1</ele>
        <time>2018-04-21T10:17:57.000Z</time>
      </trkpt>
      <trkpt lat="40.803076" lon="-3.906189">
        <ele>2195.2</ele>
        <time>2018-04-21T10:17:58.000Z</time>
      </trkpt>
      <trkpt lat="40.803073" lon="-3.906202">
        <ele>2195.2</ele>
        <time>2018-04-21T10:17:59.000Z</time>
      </trkpt>
      <trkpt lat="40.80307" lon="-3.906214">
        <ele>2195.3</ele>
        <time>2018-04-21T10:18:00.000Z</time>
      </trkpt>
      <trkpt lat="40.803067" lon="-3.906226">
        <ele>2195.4</ele>
        <time>2018-04-21T10:18:01.000Z</time>
      </trkpt>
      <trkpt lat="40.803064" lon="-3.906239">
        <ele>2195.5</ele>
        <time>2018-04-21T10:18:02.000Z</time>
      </trkpt>
      <trkpt lat="40.803061" lon="-3.906251">
        <ele>2195.6</ele>
        <time>2018-04-21T10:18:03.000Z</time>
      </trkpt>
      <trkpt lat="40.803057" lon="-3.906263">
        <ele>2195.6</ele>
        <time>2018-04-21T10:18:04.000Z</time>
      </trkpt>
      <trkpt lat="40.803054" lon="-3.906275">
        <ele>2195.7</ele>
        <time>2018-04-21T10:18:05.000Z</time>
      </trkpt>
      <trkpt lat="40.803051" lon="-3.906287">
        <ele>2195.8</ele>
        <time>2018-04-21T10:18:06.000Z</time>
      </trkpt>
      <trkpt lat="40.803048" lon="-3.9063">
        <ele>2195.9</ele>
        <time>2018-04-21T10:18:07.000Z</time>
      </trkpt>
      <trkpt lat="40.803045" lon="-3.906312">
        <ele>2196.0</ele>
        <time>2018-04-21T10:18:08.000Z</time>
      </trkpt>
      <trkpt lat="40.803042" lon="-3.906324">
        <ele>2196.1</ele>
        <time>2018-04-21T10:18:09.000Z</time>
      </trkpt>
      <trkpt lat="40.803039" lon="-3.906337">
        <ele>2196.2</ele>
        <time>2018-04-21T10:18:10.000Z</time>
      </trkpt>
      <trkpt lat="40.803037" lon="-3.906349">
        <ele>2196.3</ele>
        <time>2018-04-21T10:18:11.000Z</time>
      </trkpt>
      <trkpt lat="40.803034" lon="-3.906361">
        <ele>2196.4</ele>
        <time>2018-04-21T10:18:12.000Z</time>
      </trkpt>
      <trkpt lat="40.803032" lon="-3.906374">
        <ele>2196.5</ele>
        <time>2018-04-21T10:18:13.000Z</time>
      </trkpt>
      <trkpt lat="40.80303" lon="-3.906386">
        <ele>2196.6</ele>
        <time>2018-04-21T10:18:14.000Z</time>
      </trkpt>
      <trkpt lat="40.803028" lon="-3.906399">
        <ele>2196.7</ele>
        <time>2018-04-21T10:18:15.000Z</time>
      </trkpt>
      <trkpt lat="40.803026" lon="-3.906412">
        <ele>2196.8</ele>
        <time>2018-04-21T10:18:16.000Z</time>
      </trkpt>
      <trkpt lat="40.803024" lon="-3.906424">
        <ele>2196.9</ele>
        <time>2018-04-21T10:18:17.000Z</time>
      </trkpt>
      <trkpt lat="40.803022" lon="-3.906436">
        <ele>2197.0</ele>
        <time>2018-04-21T10:18:18.000Z</time>
      </trkpt>
      <trkpt lat="40.80302" lon="-3.906449">
        <ele>2197.1</ele>
        <time>2018-04-21T10:18:19.000Z</time>
      </trkpt>
      <trkpt lat="40.803017" lon="-3.906461">
        <ele>2197.2</ele>
        <time>2018-04-21T10:18:20.000Z</time>
      </trkpt>
      <trkpt lat="40.803013" lon="-3.906473">
        <ele>2197.3</ele>
        <time>2018-04-21T10:18:21.000Z</time>
      </trkpt>
      <trkpt lat="40.80301" lon="-3.906484">
        <ele>2197.4</ele>
        <time>2018-04-21T10:18:22.000Z</time>
      </trkpt>
      <trkpt lat="40.803006" lon="-3.906496">
        <ele>2197.5</ele>
        <time>2018-04-21T10:18:23.000Z</time>
      </trkpt>
      <trkpt lat="40.803002" lon="-3.906508">
        <ele>2197.5</ele>
        <time>2018-04-21T10:18:24.000Z</time>
      </trkpt>
      <trkpt lat="40.802997" lon="-3.906519">
        <ele>2197.6</ele>
        <time>2018-04-21T10:18:25.000Z</time>
      </trkpt>
      <trkpt lat="40.802993" lon="-3.906531">
        <ele>2197.7</ele>
        <time>2018-04-21T10:18:26.000Z</time>
      </trkpt>
      <trkpt lat="40.802988" lon="-3.906542">
        <ele>2197.8</ele>
        <time>2018-04-21T10:18:27.000Z</time>
      </trkpt>
      <trkpt lat="40.802984" lon="-3.906553">
        <ele>2197.8</ele>
        <time>2018-04-21T10:18:28.000Z</time>
      </trkpt>
      <trkpt lat="40.802979" lon="-3.906565">
        <ele>2197.9</ele>
        <time>2018-04-21T10:18:29.000Z</time>
      </trkpt>
      <trkpt lat="40.802975" lon="-3.906576">
        <ele>2198.0</ele>
        <time>2018-04-21T10:18:30.000Z</time>
      </trkpt>
      <trkpt lat="40.802971" lon="-3.906588">
        <ele>2198.1</ele>
        <time>2018-04-21T10:18:31.000Z</time>
      </trkpt>
      <trkpt lat="40.802967" lon="-3.906599">
        <ele>2198.2</ele>
        <time>2018-04-21T10:18:32.000Z</time>
      </trkpt>
      <trkpt lat="40.802963" lon="-3.906611">
        <ele>2198.3</ele>
        <time>2018-04-21T10:18:33.000Z</time>
      </trkpt>
      <trkpt lat="40.80296" lon="-3.906622">
        <ele>2198.4</ele>
        <time>2018-04-21T10:18:34.000Z</time>
      </trkpt>
      <trkpt lat="40.802956" lon="-3.906634">
        <ele>2198.5</ele>
        <time>2018-04-21T10:18:35.000Z</time>
      </trkpt>
      <trkpt lat="40.802953" lon="-3.906645">
        <ele>2198.6</ele>
        <time>2018-04-21T10:18:36.000Z</time>
      </trkpt>
      <trkpt lat="40.80295" lon="-3.906657">
        <ele>2198.7</ele>
        <time>2018-04-21T10:18:37.000Z</time>
      </trkpt>
      <trkpt lat="40.802947" lon="-3.906669">
        <ele>2198.8</ele>
        <time>2018-04-21T10:18:38.000Z</time>
      </trkpt>
      <trkpt lat="40.802944" lon="-3.90668">
        <ele>2198.8</ele>
        <time>2018-04-21T10:18:39.000Z</time>
      </trkpt>
      <trkpt lat="40.802941" lon="-3.906692">
        <ele>2198.8</ele>
        <time>2018-04-21T10:18:40.000Z</time>
      </trkpt>
      <trkpt lat="40.802938" lon="-3.906703">
        <ele>2198.9</ele>
        <time>2018-04-21T10:18:41.000Z</time>
      </trkpt>
      <trkpt lat="40.802935" lon="-3.906715">
        <ele>2198.9</ele>
        <time>2018-04-21T10:18:42.000Z</time>
      </trkpt>
      <trkpt lat="40.802932" lon="-3.906726">
        <ele>2199.0</ele>
        <time>2018-04-21T10:18:43.000Z</time>
      </trkpt>
      <trkpt lat="40.80293" lon="-3.906738">
        <ele>2199.0</ele>
        <time>2018-04-21T10:18:44.000Z</time>
      </trkpt>
      <trkpt lat="40.802927" lon="-3.906749">
        <ele>2199.1</ele>
        <time>2018-04-21T10:18:45.000Z</time>
      </trkpt>
      <trkpt lat="40.802925" lon="-3.906761">
        <ele>2199.1</ele>
        <time>2018-04-21T10:18:46.000Z</time>
      </trkpt>
      <trkpt lat="40.802923" lon="-3.906772">
        <ele>2199.2</ele>
        <time>2018-04-21T10:18:47.000Z</time>
      </trkpt>
      <trkpt lat="40.80292" lon="-3.906783">
        <ele>2199.2</ele>
        <time>2018-04-21T10:18:48.000Z</time>
      </trkpt>
      <trkpt lat="40.802918" lon="-3.906795">
        <ele>2199.3</ele>
        <time>2018-04-21T10:18:49.000Z</time>
      </trkpt>
      <trkpt lat="40.802916" lon="-3.906806">
        <ele>2199.3</ele>
        <time>2018-04-21T10:18:50.000Z</time>
      </trkpt>
      <trkpt lat="40.802913" lon="-3.906817">
        <ele>2199.4</ele>
        <time>2018-04-21T10:18:51.000Z</time>
      </trkpt>
      <trkpt lat="40.802911" lon="-3.906828">
        <ele>2199.4</ele>
        <time>2018-04-21T10:18:52.000Z</time>
      </trkpt>
      <trkpt lat="40.802908" lon="-3.906839">
        <ele>2199.5</ele>
        <time>2018-04-21T10:18:53.000Z</time>
      </trkpt>
      <trkpt lat="40.802906" lon="-3.90685">
        <ele>2199.5</ele>
        <time>2018-04-21T10:18:54.000Z</time>
      </trkpt>
      <trkpt lat="40.802903" lon="-3.906861">
        <ele>2199.6</ele>
        <time>2018-04-21T10:18:55.000Z</time>
      </trkpt>
      <trkpt lat="40.8029" lon="-3.906872">
        <ele>2199.6</ele>
        <time>2018-04-21T10:18:56.000Z</time>
      </trkpt>
      <trkpt lat="40.802897" lon="-3.906883">
        <ele>2199.7</ele>
        <time>2018-04-21T10:18:57.000Z</time>
      </trkpt>
      <trkpt lat="40.802894" lon="-3.906894">
        <ele>2199.7</ele>
        <time>2018-04-21T10:18:58.000Z</time>
      </trkpt>
      <trkpt lat="40.80289" lon="-3.906905">
        <ele>2199.8</ele>
        <time>2018-04-21T10:18:59.000Z</time>
      </trkpt>
      <trkpt lat="40.802887" lon="-3.906916">
        <ele>2199.8</ele>
        <time>2018-04-21T10:19:00.000Z</time>
      </trkpt>
      <trkpt lat="40.802883" lon="-3.906926">
        <ele>2199.9</ele>
        <time>2018-04-21T10:19:01.000Z</time>
      </trkpt>
      <trkpt lat="40.802879" lon="-3.906937">
        <ele>2199.9</ele>
        <time>2018-04-21T10:19:02.000Z</time>
      </trkpt>
      <trkpt lat="40.802875" lon="-3.906947">
        <ele>2200.0</ele>
        <time>2018-04-21T10:19:03.000Z</time>
      </trkpt>
      <trkpt lat="40.80287" lon="-3.906957">
        <ele>2200.0</ele>
        <time>2018-04-21T10:19:04.000Z</time>
      </trkpt>
      <trkpt lat="40.802866" lon="-3.906967">
        <ele>2200.1</ele>
        <time>2018-04-21T10:19:05.000Z</time>
      </trkpt>
      <trkpt lat="40.802861" lon="-3.906977">
        <ele>2200.1</ele>
        <time>2018-04-21T10:19:06.000Z</time>
      </trkpt>
      <trkpt lat="40.802856" lon="-3.906986">
        <ele>2200.1</ele>
        <time>2018-04-21T10:19:07.000Z</time>
      </trkpt>
      <trkpt lat="40.802851" lon="-3.906996">
        <ele>2200.2</ele>
        <time>2018-04-21T10:19:08.000Z</time>
      </trkpt>
      <trkpt lat="40.802847" lon="-3.907005">
        <ele>2200.2</ele>
        <time>2018-04-21T10:19:09.000Z</time>
      </trkpt>
      <trkpt lat="40.802842" lon="-3.907014">
        <ele>2200.3</ele>
        <time>2018-04-21T10:19:10.000Z</time>
      </trkpt>
      <trkpt lat="40.802838" lon="-3.907024">
        <ele>2200.3</ele>
        <time>2018-04-21T10:19:11.000Z</time>
      </trkpt>
      <trkpt lat="40.802834" lon="-3.907033">
        <ele>2200.4</ele>
        <time>2018-04-21T10:19:12.000Z</time>
      </trkpt>
      <trkpt lat="40.80283" lon="-3.907042">
        <ele>2200.4</ele>
        <time>2018-04-21T10:19:13.000Z</time>
      </trkpt>
      <trkpt lat="40.802827" lon="-3.907052">
        <ele>2200.5</ele>
        <time>2018-04-21T10:19:14.000Z</time>
      </trkpt>
      <trkpt lat="40.802825" lon="-3.907061">
        <ele>2200.5</ele>
        <time>2018-04-21T10:19:15.000Z</time>
      </trkpt>
      <trkpt lat="40.802824" lon="-3.907071">
        <ele>2200.6</ele>
        <time>2018-04-21T10:19:16.000Z</time>
      </trkpt>
      <trkpt lat="40.802822" lon="-3.907081">
        <ele>2200.6</ele>
        <time>2018-04-21T10:19:17.000Z</time>
      </trkpt>
      <trkpt lat="40.802821" lon="-3.907091">
        <ele>2200.7</ele>
        <time>2018-04-21T10:19:18.000Z</time>
      </trkpt>
      <trkpt lat="40.80282" lon="-3.9071">
        <ele>2200.8</ele>
        <time>2018-04-21T10:19:19.000Z</time>
      </trkpt>
      <trkpt lat="40.80282" lon="-3.90711">
        <ele>2200.8</ele>
        <time>2018-04-21T10:19:20.000Z</time>
      </trkpt>
      <trkpt lat="40.802819" lon="-3.90712">
        <ele>2200.9</ele>
        <time>2018-04-21T10:19:21.000Z</time>
      </trkpt>
      <trkpt lat="40.802818" lon="-3.90713">
        <ele>2201.0</ele>
        <time>2018-04-21T10:19:22.000Z</time>
      </trkpt>
      <trkpt lat="40.802817" lon="-3.907139">
        <ele>2201.0</ele>
        <time>2018-04-21T10:19:23.000Z</time>
      </trkpt>
      <trkpt lat="40.802815" lon="-3.907148">
        <ele>2201.1</ele>
        <time>2018-04-21T10:19:24.000Z</time>
      </trkpt>
      <trkpt lat="40.802813" lon="-3.907157">
        <ele>2201.2</ele>
        <time>2018-04-21T10:19:25.000Z</time>
      </trkpt>
      <trkpt lat="40.802811" lon="-3.907166">
        <ele>2201.2</ele>
        <time>2018-04-21T10:19:26.000Z</time>
      </trkpt>
      <trkpt lat="40.802809" lon="-3.907175">
        <ele>2201.3</ele>
        <time>2018-04-21T10:19:27.000Z</time>
      </trkpt>
      <trkpt lat="40.802806" lon="-3.907184">
        <ele>2201.3</ele>
        <time>2018-04-21T10:19:28.000Z</time>
      </trkpt>
      <trkpt lat="40.802803" lon="-3.907193">
        <ele>2201.4</ele>
        <time>2018-04-21T10:19:29.000Z</time>
      </trkpt>
      <trkpt lat="40.8028" lon="-3.907202">
        <ele>2201.5</ele>
        <time>2018-04-21T10:19:30.000Z</time>
      </trkpt>
      <trkpt lat="40.802798" lon="-3.907212">
        <ele>2201.5</ele>
        <time>2018-04-21T10:19:31.000Z</time>
      </trkpt>
      <trkpt lat="40.802795" lon="-3.907221">
        <ele>2201.6</ele>
        <time>2018-04-21T10:19:32.000Z</time>
      </trkpt>
      <trkpt lat="40.802792" lon="-3.907231">
        <ele>2201.6</ele>
        <time>2018-04-21T10:19:33.000Z</time>
      </trkpt>
      <trkpt lat="40.80279" lon="-3.907242">
        <ele>2201.7</ele>
        <time>2018-04-21T10:19:34.000Z</time>
      </trkpt>
      <trkpt lat="40.802787" lon="-3.907252">
        <ele>2201.8</ele>
        <time>2018-04-21T10:19:35.000Z</time>
      </trkpt>
      <trkpt lat="40.802784" lon="-3.907263">
        <ele>2201.9</ele>
        <time>2018-04-21T10:19:36.000Z</time>
      </trkpt>
      <trkpt lat="40.802782" lon="-3.907273">
        <ele>2201.9</ele>
        <time>2018-04-21T10:19:37.000Z</time>
      </trkpt>
      <trkpt lat="40.802779" lon="-3.907284">
        <ele>2202.0</ele>
        <time>2018-04-21T10:19:38.000Z</time>
      </trkpt>
      <trkpt lat="40.802776" lon="-3.907295">
        <ele>2202.1</ele>
        <time>2018-04-21T10:19:39.000Z</time>
      </trkpt>
      <trkpt lat="40.802774" lon="-3.907307">
        <ele>2202.2</ele>
        <time>2018-04-21T10:19:40.000Z</time>
      </trkpt>
      <trkpt lat="40.802771" lon="-3.907318">
        <ele>2202.3</ele>
        <time>2018-04-21T10:19:41.000Z</time>
      </trkpt>
      <trkpt lat="40.802767" lon="-3.907329">
        <ele>2202.4</ele>
        <time>2018-04-21T10:19:42.000Z</time>
      </trkpt>
      <trkpt lat="40.802764" lon="-3.907341">
        <ele>2202.4</ele>
        <time>2018-04-21T10:19:43.000Z</time>
      </trkpt>
      <trkpt lat="40.802761" lon="-3.907352">
        <ele>2202.5</ele>
        <time>2018-04-21T10:19:44.000Z</time>
      </trkpt>
      <trkpt lat="40.802757" lon="-3.907364">
        <ele>2202.6</ele>
        <time>2018-04-21T10:19:45.000Z</time>
      </trkpt>
      <trkpt lat="40.802754" lon="-3.907376">
        <ele>2202.7</ele>
        <time>2018-04-21T10:19:46.000Z</time>
      </trkpt>
      <trkpt lat="40.80275" lon="-3.907387">
        <ele>2202.8</ele>
        <time>2018-04-21T10:19:47.000Z</time>
      </trkpt>
      <trkpt lat="40.802746" lon="-3.907399">
        <ele>2202.9</ele>
        <time>2018-04-21T10:19:48.000Z</time>
      </trkpt>
      <trkpt lat="40.802742" lon="-3.907411">
        <ele>2203.0</ele>
        <time>2018-04-21T10:19:49.000Z</time>
      </trkpt>
      <trkpt lat="40.802738" lon="-3.907423">
        <ele>2203.1</ele>
        <time>2018-04-21T10:19:50.000Z</time>
      </trkpt>
      <trkpt lat="40.802734" lon="-3.907435">
        <ele>2203.2</ele>
        <time>2018-04-21T10:19:51.000Z</time>
      </trkpt>
      <trkpt lat="40.802731" lon="-3.907447">
        <ele>2203.3</ele>
        <time>2018-04-21T10:19:52.000Z</time>
      </trkpt>
      <trkpt lat="40.802727" lon="-3.90746">
        <ele>2203.4</ele>
        <time>2018-04-21T10:19:53.000Z</time>
      </trkpt>
      <trkpt lat="40.802723" lon="-3.907472">
        <ele>2203.5</ele>
        <time>2018-04-21T10:19:54.000Z</time>
      </trkpt>
      <trkpt lat="40.802719" lon="-3.907485">
        <ele>2203.6</ele>
        <time>2018-04-21T10:19:55.000Z</time>
      </trkpt>
      <trkpt lat="40.802715" lon="-3.907498">
        <ele>2203.7</ele>
        <time>2018-04-21T10:19:56.000Z</time>
      </trkpt>
      <trkpt lat="40.802712" lon="-3.907511">
        <ele>2203.9</ele>
        <time>2018-04-21T10:19:57.000Z</time>
      </trkpt>
      <trkpt lat="40.802708" lon="-3.907524">
        <ele>2204.0</ele>
        <time>2018-04-21T10:19:58.000Z</time>
      </trkpt>
      <trkpt lat="40.802705" lon="-3.907537">
        <ele>2204.1</ele>
        <time>2018-04-21T10:19:59.000Z</time>
      </trkpt>
      <trkpt lat="40.802702" lon="-3.90755">
        <ele>2204.3</ele>
        <time>2018-04-21T10:20:00.000Z</time>
      </trkpt>
      <trkpt lat="40.802699" lon="-3.907564">
        <ele>2204.4</ele>
        <time>2018-04-21T10:20:01.000Z</time>
      </trkpt>
      <trkpt lat="40.802695" lon="-3.907577">
        <ele>2204.6</ele>
        <time>2018-04-21T10:20:02.000Z</time>
      </trkpt>
      <trkpt lat="40.802692" lon="-3.90759">
        <ele>2204.7</ele>
        <time>2018-04-21T10:20:03.000Z</time>
      </trkpt>
      <trkpt lat="40.802689" lon="-3.907603">
        <ele>2204.8</ele>
        <time>2018-04-21T10:20:04.000Z</time>
      </trkpt>
      <trkpt lat="40.802685" lon="-3.907616">
        <ele>2205.0</ele>
        <time>2018-04-21T10:20:05.000Z</time>
      </trkpt>
      <trkpt lat="40.802681" lon="-3.907628">
        <ele>2205.1</ele>
        <time>2018-04-21T10:20:06.000Z</time>
      </trkpt>
      <trkpt lat="40.802677" lon="-3.907639">
        <ele>2205.2</ele>
        <time>2018-04-21T10:20:07.000Z</time>
      </trkpt>
      <trkpt lat="40.802672" lon="-3.907649">
        <ele>2205.4</ele>
        <time>2018-04-21T10:20:08.000Z</time>
      </trkpt>
      <trkpt lat="40.802666" lon="-3.907659">
        <ele>2205.5</ele>
        <time>2018-04-21T10:20:09.000Z</time>
      </trkpt>
      <trkpt lat="40.802661" lon="-3.907668">
        <ele>2205.6</ele>
        <time>2018-04-21T10:20:10.000Z</time>
      </trkpt>
      <trkpt lat="40.802655" lon="-3.907677">
        <ele>2205.7</ele>
        <time>2018-04-21T10:20:11.000Z</time>
      </trkpt>
      <trkpt lat="40.802649" lon="-3.907685">
        <ele>2205.8</ele>
        <time>2018-04-21T10:20:12.000Z</time>
      </trkpt>
      <trkpt lat="40.802643" lon="-3.907693">
        <ele>2205.9</ele>
        <time>2018-04-21T10:20:13.000Z</time>
      </trkpt>
      <trkpt lat="40.802638" lon="-3.907702">
        <ele>2206.0</ele>
        <time>2018-04-21T10:20:14.000Z</time>
      </trkpt>
      <trkpt lat="40.802634" lon="-3.907711">
        <ele>2206.1</ele>
        <time>2018-04-21T10:20:15.000Z</time>
      </trkpt>
      <trkpt lat="40.80263" lon="-3.90772">
        <ele>2206.2</ele>
        <time>2018-04-21T10:20:16.000Z</time>
      </trkpt>
      <trkpt lat="40.802628" lon="-3.907731">
        <ele>2206.4</ele>
        <time>2018-04-21T10:20:17.000Z</time>
      </trkpt>
      <trkpt lat="40.802626" lon="-3.907742">
        <ele>2206.5</ele>
        <time>2018-04-21T10:20:18.000Z</time>
      </trkpt>
      <trkpt lat="40.802626" lon="-3.907754">
        <ele>2206.6</ele>
        <time>2018-04-21T10:20:19.000Z</time>
      </trkpt>
      <trkpt lat="40.802626" lon="-3.907766">
        <ele>2206.8</ele>
        <time>2018-04-21T10:20:20.000Z</time>
      </trkpt>
      <trkpt lat="40.802625" lon="-3.907778">
        <ele>2206.9</ele>
        <time>2018-04-21T10:20:21.000Z</time>
      </trkpt>
      <trkpt lat="40.802624" lon="-3.907789">
        <ele>2207.0</ele>
        <time>2018-04-21T10:20:22.000Z</time>
      </trkpt>
      <trkpt lat="40.802621" lon="-3.907799">
        <ele>2207.1</ele>
        <time>2018-04-21T10:20:23.000Z</time>
      </trkpt>
      <trkpt lat="40.802617" lon="-3.907808">
        <ele>2207.2</ele>
        <time>2018-04-21T10:20:24.000Z</time>
      </trkpt>
      <trkpt lat="40.802611" lon="-3.907816">
        <ele>2207.4</ele>
        <time>2018-04-21T10:20:25.000Z</time>
      </trkpt>
      <trkpt lat="40.802605" lon="-3.907825">
        <ele>2207.5</ele>
        <time>2018-04-21T10:20:26.000Z</time>
      </trkpt>
      <trkpt lat="40.802597" lon="-3.907833">
        <ele>2207.6</ele>
        <time>2018-04-21T10:20:27.000Z</time>
      </trkpt>
      <trkpt lat="40.802588" lon="-3.907841">
        <ele>2207.7</ele>
        <time>2018-04-21T10:20:28.000Z</time>
      </trkpt>
      <trkpt lat="40.802579" lon="-3.90785">
        <ele>2207.9</ele>
        <time>2018-04-21T10:20:29.000Z</time>
      </trkpt>
      <trkpt lat="40.802571" lon="-3.90786">
        <ele>2208.0</ele>
        <time>2018-04-21T10:20:30.000Z</time>
      </trkpt>
      <trkpt lat="40.802565" lon="-3.90787">
        <ele>2208.2</ele>
        <time>2018-04-21T10:20:31.000Z</time>
      </trkpt>
      <trkpt lat="40.802561" lon="-3.907881">
        <ele>2208.3</ele>
        <time>2018-04-21T10:20:32.000Z</time>
      </trkpt>
      <trkpt lat="40.802561" lon="-3.907893">
        <ele>2208.4</ele>
        <time>2018-04-21T10:20:33.000Z</time>
      </trkpt>
      <trkpt lat="40.802564" lon="-3.907906">
        <ele>2208.6</ele>
        <time>2018-04-21T10:20:34.000Z</time>
      </trkpt>
      <trkpt lat="40.802568" lon="-3.907918">
        <ele>2208.7</ele>
        <time>2018-04-21T10:20:35.000Z</time>
      </trkpt>
      <trkpt lat="40.802572" lon="-3.90793">
        <ele>2208.8</ele>
        <time>2018-04-21T10:20:36.000Z</time>
      </trkpt>
      <trkpt lat="40.802575" lon="-3.907942">
        <ele>2208.9</ele>
        <time>2018-04-21T10:20:37.000Z</time>
      </trkpt>
      <trkpt lat="40.802577" lon="-3.907953">
        <ele>2209.0</ele>
        <time>2018-04-21T10:20:38.000Z</time>
      </trkpt>
      <trkpt lat="40.802578" lon="-3.907963">
        <ele>2209.2</ele>
        <time>2018-04-21T10:20:39.000Z</time>
      </trkpt>
      <trkpt lat="40.802578" lon="-3.907973">
        <ele>2209.3</ele>
        <time>2018-04-21T10:20:40.000Z</time>
      </trkpt>
      <trkpt lat="40.802578" lon="-3.907983">
        <ele>2209.4</ele>
        <time>2018-04-21T10:20:41.000Z</time>
      </trkpt>
      <trkpt lat="40.802577" lon="-3.907993">
        <ele>2209.5</ele>
        <time>2018-04-21T10:20:42.000Z</time>
      </trkpt>
      <trkpt lat="40.802576" lon="-3.908002">
        <ele>2209.6</ele>
        <time>2018-04-21T10:20:43.000Z</time>
      </trkpt>
      <trkpt lat="40.802574" lon="-3.908012">
        <ele>2209.7</ele>
        <time>2018-04-21T10:20:44.000Z</time>
      </trkpt>
      <trkpt lat="40.802573" lon="-3.908022">
        <ele>2209.8</ele>
        <time>2018-04-21T10:20:45.000Z</time>
      </trkpt>
      <trkpt lat="40.802571" lon="-3.908032">
        <ele>2210.0</ele>
        <time>2018-04-21T10:20:46.000Z</time>
      </trkpt>
      <trkpt lat="40.802569" lon="-3.908043">
        <ele>2210.1</ele>
        <time>2018-04-21T10:20:47.000Z</time>
      </trkpt>
      <trkpt lat="40.802567" lon="-3.908054">
        <ele>2210.2</ele>
        <time>2018-04-21T10:20:48.000Z</time>
      </trkpt>
      <trkpt lat="40.802566" lon="-3.908065">
        <ele>2210.4</ele>
        <time>2018-04-21T10:20:49.000Z</time>
      </trkpt>
      <trkpt lat="40.802564" lon="-3.908076">
        <ele>2210.5</ele>
        <time>2018-04-21T10:20:50.000Z</time>
      </trkpt>
      <trkpt lat="40.802561" lon="-3.908088">
        <ele>2210.7</ele>
        <time>2018-04-21T10:20:51.000Z</time>
      </trkpt>
      <trkpt lat="40.802559" lon="-3.908099">
        <ele>2210.8</ele>
        <time>2018-04-21T10:20:52.000Z</time>
      </trkpt>
      <trkpt lat="40.802557" lon="-3.908111">
        <ele>2211.0</ele>
        <time>2018-04-21T10:20:53.000Z</time>
      </trkpt>
      <trkpt lat="40.802554" lon="-3.908123">
        <ele>2211.1</ele>
        <time>2018-04-21T10:20:54.000Z</time>
      </trkpt>
      <trkpt lat="40.802551" lon="-3.908135">
        <ele>2211.3</ele>
        <time>2018-04-21T10:20:55.000Z</time>
      </trkpt>
      <trkpt lat="40.802548" lon="-3.908147">
        <ele>2211.4</ele>
        <time>2018-04-21T10:20:56.000Z</time>
      </trkpt>
      <trkpt lat="40.802545" lon="-3.908158">
        <ele>2211.6</ele>
        <time>2018-04-21T10:20:57.000Z</time>
      </trkpt>
      <trkpt lat="40.802542" lon="-3.90817">
        <ele>2211.7</ele>
        <time>2018-04-21T10:20:58.000Z</time>
      </trkpt>
      <trkpt lat="40.802538" lon="-3.908182">
        <ele>2211.9</ele>
        <time>2018-04-21T10:20:59.000Z</time>
      </trkpt>
      <trkpt lat="40.802535" lon="-3.908194">
        <ele>2212.1</ele>
        <time>2018-04-21T10:21:00.000Z</time>
      </trkpt>
      <trkpt lat="40.802531" lon="-3.908206">
        <ele>2212.2</ele>
        <time>2018-04-21T10:21:01.000Z</time>
      </trkpt>
      <trkpt lat="40.802527" lon="-3.908218">
        <ele>2212.4</ele>
        <time>2018-04-21T10:21:02.000Z</time>
      </trkpt>
      <trkpt lat="40.802524" lon="-3.90823">
        <ele>2212.6</ele>
        <time>2018-04-21T10:21:03.000Z</time>
      </trkpt>
      <trkpt lat="40.80252" lon="-3.908242">
        <ele>2212.8</ele>
        <time>2018-04-21T10:21:04.000Z</time>
      </trkpt>
      <trkpt lat="40.802516" lon="-3.908254">
        <ele>2212.9</ele>
        <time>2018-04-21T10:21:05.000Z</time>
      </trkpt>
      <trkpt lat="40.802513" lon="-3.908266">
        <ele>2213.1</ele>
        <time>2018-04-21T10:21:06.000Z</time>
      </trkpt>
      <trkpt lat="40.802509" lon="-3.908278">
        <ele>2213.3</ele>
        <time>2018-04-21T10:21:07.000Z</time>
      </trkpt>
      <trkpt lat="40.802506" lon="-3.90829">
        <ele>2213.4</ele>
        <time>2018-04-21T10:21:08.000Z</time>
      </trkpt>
      <trkpt lat="40.802503" lon="-3.908302">
        <ele>2213.6</ele>
        <time>2018-04-21T10:21:09.000Z</time>
      </trkpt>
      <trkpt lat="40.8025" lon="-3.908315">
        <ele>2213.8</ele>
        <time>2018-04-21T10:21:10.000Z</time>
      </trkpt>
      <trkpt lat="40.802497" lon="-3.908327">
        <ele>2213.9</ele>
        <time>2018-04-21T10:21:11.000Z</time>
      </trkpt>
      <trkpt lat="40.802494" lon="-3.90834">
        <ele>2214.0</ele>
        <time>2018-04-21T10:21:12.000Z</time>
      </trkpt>
      <trkpt lat="40.802492" lon="-3.908352">
        <ele>2214.1</ele>
        <time>2018-04-21T10:21:13.000Z</time>
      </trkpt>
      <trkpt lat="40.802491" lon="-3.908365">
        <ele>2214.2</ele>
        <time>2018-04-21T10:21:14.000Z</time>
      </trkpt>
      <trkpt lat="40.80249" lon="-3.908377">
        <ele>2214.3</ele>
        <time>2018-04-21T10:21:15.000Z</time>
      </trkpt>
      <trkpt lat="40.802491" lon="-3.908389">
        <ele>2214.5</ele>
        <time>2018-04-21T10:21:16.000Z</time>
      </trkpt>
      <trkpt lat="40.802493" lon="-3.908401">
        <ele>2214.7</ele>
        <time>2018-04-21T10:21:17.000Z</time>
      </trkpt>
      <trkpt lat="40.802497" lon="-3.908413">
        <ele>2214.9</ele>
        <time>2018-04-21T10:21:18.000Z</time>
      </trkpt>
      <trkpt lat="40.802502" lon="-3.908424">
        <ele>2215.1</ele>
        <time>2018-04-21T10:21:19.000Z</time>
      </trkpt>
      <trkpt lat="40.802508" lon="-3.908435">
        <ele>2215.1</ele>
        <time>2018-04-21T10:21:20.000Z</time>
      </trkpt>
      <trkpt lat="40.802513" lon="-3.908445">
        <ele>2215.2</ele>
        <time>2018-04-21T10:21:21.000Z</time>
      </trkpt>
      <trkpt lat="40.802517" lon="-3.908454">
        <ele>2215.3</ele>
        <time>2018-04-21T10:21:22.000Z</time>
      </trkpt>
      <trkpt lat="40.80252" lon="-3.908463">
        <ele>2215.4</ele>
        <time>2018-04-21T10:21:23.000Z</time>
      </trkpt>
      <trkpt lat="40.802521" lon="-3.908472">
        <ele>2215.5</ele>
        <time>2018-04-21T10:21:24.000Z</time>
      </trkpt>
      <trkpt lat="40.802519" lon="-3.908481">
        <ele>2215.6</ele>
        <time>2018-04-21T10:21:25.000Z</time>
      </trkpt>
      <trkpt lat="40.802516" lon="-3.908489">
        <ele>2215.7</ele>
        <time>2018-04-21T10:21:26.000Z</time>
      </trkpt>
      <trkpt lat="40.802509" lon="-3.908497">
        <ele>2215.9</ele>
        <time>2018-04-21T10:21:27.000Z</time>
      </trkpt>
      <trkpt lat="40.802501" lon="-3.908505">
        <ele>2216.0</ele>
        <time>2018-04-21T10:21:28.000Z</time>
      </trkpt>
      <trkpt lat="40.802492" lon="-3.908513">
        <ele>2216.0</ele>
        <time>2018-04-21T10:21:29.000Z</time>
      </trkpt>
      <trkpt lat="40.802483" lon="-3.908521">
        <ele>2216.0</ele>
        <time>2018-04-21T10:21:30.000Z</time>
      </trkpt>
      <trkpt lat="40.802474" lon="-3.908529">
        <ele>2215.9</ele>
        <time>2018-04-21T10:21:31.000Z</time>
      </trkpt>
      <trkpt lat="40.802467" lon="-3.908536">
        <ele>2215.9</ele>
        <time>2018-04-21T10:21:32.000Z</time>
      </trkpt>
      <trkpt lat="40.80246" lon="-3.908544">
        <ele>2215.8</ele>
        <time>2018-04-21T10:21:33.000Z</time>
      </trkpt>
      <trkpt lat="40.802453" lon="-3.908552">
        <ele>2215.8</ele>
        <time>2018-04-21T10:21:34.000Z</time>
      </trkpt>
      <trkpt lat="40.802447" lon="-3.90856">
        <ele>2215.8</ele>
        <time>2018-04-21T10:21:35.000Z</time>
      </trkpt>
      <trkpt lat="40.802442" lon="-3.908569">
        <ele>2215.8</ele>
        <time>2018-04-21T10:21:36.000Z</time>
      </trkpt>
      <trkpt lat="40.802438" lon="-3.908577">
        <ele>2215.9</ele>
        <time>2018-04-21T10:21:37.000Z</time>
      </trkpt>
      <trkpt lat="40.802434" lon="-3.908586">
        <ele>2215.9</ele>
        <time>2018-04-21T10:21:38.000Z</time>
      </trkpt>
      <trkpt lat="40.802431" lon="-3.908594">
        <ele>2216.0</ele>
        <time>2018-04-21T10:21:39.000Z</time>
      </trkpt>
      <trkpt lat="40.802428" lon="-3.908603">
        <ele>2216.0</ele>
        <time>2018-04-21T10:21:40.000Z</time>
      </trkpt>
      <trkpt lat="40.802425" lon="-3.908613">
        <ele>2216.1</ele>
        <time>2018-04-21T10:21:41.000Z</time>
      </trkpt>
      <trkpt lat="40.802423" lon="-3.908622">
        <ele>2216.2</ele>
        <time>2018-04-21T10:21:42.000Z</time>
      </trkpt>
      <trkpt lat="40.802422" lon="-3.908632">
        <ele>2216.3</ele>
        <time>2018-04-21T10:21:43.000Z</time>
      </trkpt>
      <trkpt lat="40.802421" lon="-3.908642">
        <ele>2216.4</ele>
        <time>2018-04-21T10:21:44.000Z</time>
      </trkpt>
      <trkpt lat="40.802421" lon="-3.908653">
        <ele>2216.5</ele>
        <time>2018-04-21T10:21:45.000Z</time>
      </trkpt>
      <trkpt lat="40.80242" lon="-3.908663">
        <ele>2216.6</ele>
        <time>2018-04-21T10:21:46.000Z</time>
      </trkpt>
      <trkpt lat="40.80242" lon="-3.908674">
        <ele>2216.8</ele>
        <time>2018-04-21T10:21:47.000Z</time>
      </trkpt>
      <trkpt lat="40.80242" lon="-3.908684">
        <ele>2216.9</ele>
        <time>2018-04-21T10:21:48.000Z</time>
      </trkpt>
      <trkpt lat="40.802419" lon="-3.908695">
        <ele>2217.0</ele>
        <time>2018-04-21T10:21:49.000Z</time>
      </trkpt>
      <trkpt lat="40.802418" lon="-3.908705">
        <ele>2217.1</ele>
        <time>2018-04-21T10:21:50.000Z</time>
      </trkpt>
      <trkpt lat="40.802416" lon="-3.908715">
        <ele>2217.2</ele>
        <time>2018-04-21T10:21:51.000Z</time>
      </trkpt>
      <trkpt lat="40.802415" lon="-3.908726">
        <ele>2217.4</ele>
        <time>2018-04-21T10:21:52.000Z</time>
      </trkpt>
      <trkpt lat="40.802412" lon="-3.908736">
        <ele>2217.4</ele>
        <time>2018-04-21T10:21:53.000Z</time>
      </trkpt>
      <trkpt lat="40.80241" lon="-3.908746">
        <ele>2217.5</ele>
        <time>2018-04-21T10:21:54.000Z</time>
      </trkpt>
      <trkpt lat="40.802407" lon="-3.908755">
        <ele>2217.6</ele>
        <time>2018-04-21T10:21:55.000Z</time>
      </trkpt>
      <trkpt lat="40.802404" lon="-3.908765">
        <ele>2217.7</ele>
        <time>2018-04-21T10:21:56.000Z</time>
      </trkpt>
      <trkpt lat="40.802401" lon="-3.908775">
        <ele>2217.8</ele>
        <time>2018-04-21T10:21:57.000Z</time>
      </trkpt>
      <trkpt lat="40.802398" lon="-3.908785">
        <ele>2217.9</ele>
        <time>2018-04-21T10:21:58.000Z</time>
      </trkpt>
      <trkpt lat="40.802394" lon="-3.908794">
        <ele>2217.9</ele>
        <time>2018-04-21T10:21:59.000Z</time>
      </trkpt>
      <trkpt lat="40.802391" lon="-3.908804">
        <ele>2218.0</ele>
        <time>2018-04-21T10:22:00.000Z</time>
      </trkpt>
      <trkpt lat="40.802387" lon="-3.908813">
        <ele>2218.1</ele>
        <time>2018-04-21T10:22:01.000Z</time>
      </trkpt>
      <trkpt lat="40.802383" lon="-3.908823">
        <ele>2218.1</ele>
        <time>2018-04-21T10:22:02.000Z</time>
      </trkpt>
      <trkpt lat="40.802379" lon="-3.908832">
        <ele>2218.2</ele>
        <time>2018-04-21T10:22:03.000Z</time>
      </trkpt>
      <trkpt lat="40.802376" lon="-3.908842">
        <ele>2218.3</ele>
        <time>2018-04-21T10:22:04.000Z</time>
      </trkpt>
      <trkpt lat="40.802372" lon="-3.908851">
        <ele>2218.3</ele>
        <time>2018-04-21T10:22:05.000Z</time>
      </trkpt>
      <trkpt lat="40.802369" lon="-3.908861">
        <ele>2218.4</ele>
        <time>2018-04-21T10:22:06.000Z</time>
      </trkpt>
      <trkpt lat="40.802366" lon="-3.90887">
        <ele>2218.5</ele>
        <time>2018-04-21T10:22:07.000Z</time>
      </trkpt>
      <trkpt lat="40.802363" lon="-3.908879">
        <ele>2218.6</ele>
        <time>2018-04-21T10:22:08.000Z</time>
      </trkpt>
      <trkpt lat="40.80236" lon="-3.908889">
        <ele>2218.7</ele>
        <time>2018-04-21T10:22:09.000Z</time>
      </trkpt>
      <trkpt lat="40.802357" lon="-3.908899">
        <ele>2218.7</ele>
        <time>2018-04-21T10:22:10.000Z</time>
      </trkpt>
      <trkpt lat="40.802355" lon="-3.908908">
        <ele>2218.8</ele>
        <time>2018-04-21T10:22:11.000Z</time>
      </trkpt>
      <trkpt lat="40.802352" lon="-3.908919">
        <ele>2218.9</ele>
        <time>2018-04-21T10:22:12.000Z</time>
      </trkpt>
      <trkpt lat="40.802349" lon="-3.908929">
        <ele>2219.0</ele>
        <time>2018-04-21T10:22:13.000Z</time>
      </trkpt>
      <trkpt lat="40.802346" lon="-3.90894">
        <ele>2219.1</ele>
        <time>2018-04-21T10:22:14.000Z</time>
      </trkpt>
      <trkpt lat="40.802343" lon="-3.908952">
        <ele>2219.2</ele>
        <time>2018-04-21T10:22:15.000Z</time>
      </trkpt>
      <trkpt lat="40.80234" lon="-3.908964">
        <ele>2219.4</ele>
        <time>2018-04-21T10:22:16.000Z</time>
      </trkpt>
      <trkpt lat="40.802337" lon="-3.908977">
        <ele>2219.5</ele>
        <time>2018-04-21T10:22:17.000Z</time>
      </trkpt>
      <trkpt lat="40.802334" lon="-3.908989">
        <ele>2219.6</ele>
        <time>2018-04-21T10:22:18.000Z</time>
      </trkpt>
      <trkpt lat="40.802331" lon="-3.909001">
        <ele>2219.7</ele>
        <time>2018-04-21T10:22:19.000Z</time>
      </trkpt>
      <trkpt lat="40.802327" lon="-3.909013">
        <ele>2219.9</ele>
        <time>2018-04-21T10:22:20.000Z</time>
      </trkpt>
      <trkpt lat="40.802325" lon="-3.909023">
        <ele>2220.0</ele>
        <time>2018-04-21T10:22:21.000Z</time>
      </trkpt>
      <trkpt lat="40.802322" lon="-3.909033">
        <ele>2220.1</ele>
        <time>2018-04-21T10:22:22.000Z</time>
      </trkpt>
      <trkpt lat="40.80232" lon="-3.909041">
        <ele>2220.1</ele>
        <time>2018-04-21T10:22:23.000Z</time>
      </trkpt>
      <trkpt lat="40.802318" lon="-3.909047">
        <ele>2220.2</ele>
        <time>2018-04-21T10:22:24.000Z</time>
      </trkpt>
      <trkpt lat="40.802317" lon="-3.909052">
        <ele>2220.2</ele>
        <time>2018-04-21T10:22:25.000Z</time>
      </trkpt>
      <trkpt lat="40.802317" lon="-3.909054">
        <ele>2220.3</ele>
        <time>2018-04-21T10:22:26.000Z</time>
      </trkpt>
      <trkpt lat="40.802316" lon="-3.909056">
        <ele>2220.3</ele>
        <time>2018-04-21T10:22:27.000Z</time>
      </trkpt>
      <trkpt lat="40.802316" lon="-3.909056">
        <ele>2220.3</ele>
        <time>2018-04-21T10:22:28.000Z</time>
      </trkpt>
      <trkpt lat="40.802316" lon="-3.909056">
        <ele>2220.3</ele>
        <time>2018-04-21T10:22:29.000Z</time>
      </trkpt>
      <trkpt lat="40.802316" lon="-3.909056">
        <ele>2220.3</ele>
        <time>2018-04-21T10:22:30.000Z</time>
      </trkpt>
      <trkpt lat="40.802316" lon="-3.909056">
        <ele>2220.3</ele>
        <time>2018-04-21T10:22:31.000Z</time>
      </trkpt>
      <trkpt lat="40.802316" lon="-3.909057">
        <ele>2220.3</ele>
        <time>2018-04-21T10:22:32.000Z</time>
      </trkpt>
      <trkpt lat="40.802315" lon="-3.909059">
        <ele>2220.3</ele>
        <time>2018-04-21T10:22:33.000Z</time>
      </trkpt>
      <trkpt lat="40.802314" lon="-3.909061">
        <ele>2220.3</ele>
        <time>2018-04-21T10:22:34.000Z</time>
      </trkpt>
      <trkpt lat="40.802313" lon="-3.909065">
        <ele>2220.4</ele>
        <time>2018-04-21T10:22:35.000Z</time>
      </trkpt>
      <trkpt lat="40.802312" lon="-3.909071">
        <ele>2220.4</ele>
        <time>2018-04-21T10:22:36.000Z</time>
      </trkpt>
      <trkpt lat="40.80231" lon="-3.909077">
        <ele>2220.5</ele>
        <time>2018-04-21T10:22:37.000Z</time>
      </trkpt>
      <trkpt lat="40.802308" lon="-3.909084">
        <ele>2220.6</ele>
        <time>2018-04-21T10:22:38.000Z</time>
      </trkpt>
      <trkpt lat="40.802307" lon="-3.909092">
        <ele>2220.7</ele>
        <time>2018-04-21T10:22:39.000Z</time>
      </trkpt>
      <trkpt lat="40.802305" lon="-3.909101">
        <ele>2220.8</ele>
        <time>2018-04-21T10:22:40.000Z</time>
      </trkpt>
      <trkpt lat="40.802303" lon="-3.90911">
        <ele>2220.9</ele>
        <time>2018-04-21T10:22:41.000Z</time>
      </trkpt>
      <trkpt lat="40.802302" lon="-3.90912">
        <ele>2221.0</ele>
        <time>2018-04-21T10:22:42.000Z</time>
      </trkpt>
      <trkpt lat="40.802301" lon="-3.90913">
        <ele>2221.1</ele>
        <time>2018-04-21T10:22:43.000Z</time>
      </trkpt>
      <trkpt lat="40.802301" lon="-3.909141">
        <ele>2221.3</ele>
        <time>2018-04-21T10:22:44.000Z</time>
      </trkpt>
      <trkpt lat="40.8023" lon="-3.909152">
        <ele>2221.4</ele>
        <time>2018-04-21T10:22:45.000Z</time>
      </trkpt>
      <trkpt lat="40.8023" lon="-3.909163">
        <ele>2221.5</ele>
        <time>2018-04-21T10:22:46.000Z</time>
      </trkpt>
      <trkpt lat="40.8023" lon="-3.909174">
        <ele>2221.7</ele>
        <time>2018-04-21T10:22:47.000Z</time>
      </trkpt>
      <trkpt lat="40.802301" lon="-3.909186">
        <ele>2221.9</ele>
        <time>2018-04-21T10:22:48.000Z</time>
      </trkpt>
      <trkpt lat="40.802302" lon="-3.909197">
        <ele>2222.0</ele>
        <time>2018-04-21T10:22:49.000Z</time>
      </trkpt>
      <trkpt lat="40.802303" lon="-3.909209">
        <ele>2222.2</ele>
        <time>2018-04-21T10:22:50.000Z</time>
      </trkpt>
      <trkpt lat="40.802305" lon="-3.909221">
        <ele>2222.4</ele>
        <time>2018-04-21T10:22:51.000Z</time>
      </trkpt>
      <trkpt lat="40.802307" lon="-3.909232">
        <ele>2222.5</ele>
        <time>2018-04-21T10:22:52.000Z</time>
      </trkpt>
      <trkpt lat="40.802309" lon="-3.909243">
        <ele>2222.7</ele>
        <time>2018-04-21T10:22:53.000Z</time>
      </trkpt>
      <trkpt lat="40.802311" lon="-3.909255">
        <ele>2222.9</ele>
        <time>2018-04-21T10:22:54.000Z</time>
      </trkpt>
      <trkpt lat="40.802313" lon="-3.909266">
        <ele>2223.0</ele>
        <time>2018-04-21T10:22:55.000Z</time>
      </trkpt>
      <trkpt lat="40.802316" lon="-3.909277">
        <ele>2223.2</ele>
        <time>2018-04-21T10:22:56.000Z</time>
      </trkpt>
      <trkpt lat="40.802318" lon="-3.909289">
        <ele>2223.4</ele>
        <time>2018-04-21T10:22:57.000Z</time>
      </trkpt>
      <trkpt lat="40.80232" lon="-3.9093">
        <ele>2223.5</ele>
        <time>2018-04-21T10:22:58.000Z</time>
      </trkpt>
      <trkpt lat="40.802322" lon="-3.909311">
        <ele>2223.7</ele>
        <time>2018-04-21T10:22:59.000Z</time>
      </trkpt>
      <trkpt lat="40.802324" lon="-3.909323">
        <ele>2223.9</ele>
        <time>2018-04-21T10:23:00.000Z</time>
      </trkpt>
      <trkpt lat="40.802325" lon="-3.909335">
        <ele>2224.0</ele>
        <time>2018-04-21T10:23:01.000Z</time>
      </trkpt>
      <trkpt lat="40.802326" lon="-3.909347">
        <ele>2224.2</ele>
        <time>2018-04-21T10:23:02.000Z</time>
      </trkpt>
      <trkpt lat="40.802327" lon="-3.909358">
        <ele>2224.3</ele>
        <time>2018-04-21T10:23:03.000Z</time>
      </trkpt>
      <trkpt lat="40.802327" lon="-3.90937">
        <ele>2224.5</ele>
        <time>2018-04-21T10:23:04.000Z</time>
      </trkpt>
      <trkpt lat="40.802327" lon="-3.909381">
        <ele>2224.6</ele>
        <time>2018-04-21T10:23:05.000Z</time>
      </trkpt>
      <trkpt lat="40.802326" lon="-3.909392">
        <ele>2224.7</ele>
        <time>2018-04-21T10:23:06.000Z</time>
      </trkpt>
      <trkpt lat="40.802324" lon="-3.909403">
        <ele>2224.9</ele>
        <time>2018-04-21T10:23:07.000Z</time>
      </trkpt>
      <trkpt lat="40.802322" lon="-3.909413">
        <ele>2225.0</ele>
        <time>2018-04-21T10:23:08.000Z</time>
      </trkpt>
      <trkpt lat="40.802318" lon="-3.909422">
        <ele>2225.0</ele>
        <time>2018-04-21T10:23:09.000Z</time>
      </trkpt>
      <trkpt lat="40.802315" lon="-3.909431">
        <ele>2225.1</ele>
        <time>2018-04-21T10:23:10.000Z</time>
      </trkpt>
      <trkpt lat="40.80231" lon="-3.909439">
        <ele>2225.2</ele>
        <time>2018-04-21T10:23:11.000Z</time>
      </trkpt>
      <trkpt lat="40.802307" lon="-3.909446">
        <ele>2225.2</ele>
        <time>2018-04-21T10:23:12.000Z</time>
      </trkpt>
      <trkpt lat="40.802304" lon="-3.909454">
        <ele>2225.3</ele>
        <time>2018-04-21T10:23:13.000Z</time>
      </trkpt>
      <trkpt lat="40.802303" lon="-3.909462">
        <ele>2225.4</ele>
        <time>2018-04-21T10:23:14.000Z</time>
      </trkpt>
      <trkpt lat="40.802304" lon="-3.909471">
        <ele>2225.5</ele>
        <time>2018-04-21T10:23:15.000Z</time>
      </trkpt>
      <trkpt lat="40.802307" lon="-3.90948">
        <ele>2225.7</ele>
        <time>2018-04-21T10:23:16.000Z</time>
      </trkpt>
      <trkpt lat="40.80231" lon="-3.90949">
        <ele>2225.8</ele>
        <time>2018-04-21T10:23:17.000Z</time>
      </trkpt>
      <trkpt lat="40.802313" lon="-3.909501">
        <ele>2226.0</ele>
        <time>2018-04-21T10:23:18.000Z</time>
      </trkpt>
      <trkpt lat="40.802314" lon="-3.909512">
        <ele>2226.1</ele>
        <time>2018-04-21T10:23:19.000Z</time>
      </trkpt>
      <trkpt lat="40.802314" lon="-3.909524">
        <ele>2226.3</ele>
        <time>2018-04-21T10:23:20.000Z</time>
      </trkpt>
      <trkpt lat="40.802314" lon="-3.909536">
        <ele>2226.4</ele>
        <time>2018-04-21T10:23:21.000Z</time>
      </trkpt>
      <trkpt lat="40.802312" lon="-3.909549">
        <ele>2226.6</ele>
        <time>2018-04-21T10:23:22.000Z</time>
      </trkpt>
      <trkpt lat="40.802309" lon="-3.909561">
        <ele>2226.7</ele>
        <time>2018-04-21T10:23:23.000Z</time>
      </trkpt>
      <trkpt lat="40.802306" lon="-3.909574">
        <ele>2226.9</ele>
        <time>2018-04-21T10:23:24.000Z</time>
      </trkpt>
      <trkpt lat="40.802303" lon="-3.909587">
        <ele>2227.0</ele>
        <time>2018-04-21T10:23:25.000Z</time>
      </trkpt>
      <trkpt lat="40.802299" lon="-3.9096">
        <ele>2227.1</ele>
        <time>2018-04-21T10:23:26.000Z</time>
      </trkpt>
      <trkpt lat="40.802294" lon="-3.909612">
        <ele>2227.3</ele>
        <time>2018-04-21T10:23:27.000Z</time>
      </trkpt>
      <trkpt lat="40.80229" lon="-3.909624">
        <ele>2227.4</ele>
        <time>2018-04-21T10:23:28.000Z</time>
      </trkpt>
      <trkpt lat="40.802285" lon="-3.909636">
        <ele>2227.5</ele>
        <time>2018-04-21T10:23:29.000Z</time>
      </trkpt>
      <trkpt lat="40.802281" lon="-3.909648">
        <ele>2227.6</ele>
        <time>2018-04-21T10:23:30.000Z</time>
      </trkpt>
      <trkpt lat="40.802276" lon="-3.90966">
        <ele>2227.8</ele>
        <time>2018-04-21T10:23:31.000Z</time>
      </trkpt>
      <trkpt lat="40.802272" lon="-3.909671">
        <ele>2227.9</ele>
        <time>2018-04-21T10:23:32.000Z</time>
      </trkpt>
      <trkpt lat="40.802268" lon="-3.909683">
        <ele>2228.0</ele>
        <time>2018-04-21T10:23:33.000Z</time>
      </trkpt>
      <trkpt lat="40.802264" lon="-3.909694">
        <ele>2228.1</ele>
        <time>2018-04-21T10:23:34.000Z</time>
      </trkpt>
      <trkpt lat="40.80226" lon="-3.909705">
        <ele>2228.2</ele>
        <time>2018-04-21T10:23:35.000Z</time>
      </trkpt>
      <trkpt lat="40.802256" lon="-3.909716">
        <ele>2228.4</ele>
        <time>2018-04-21T10:23:36.000Z</time>
      </trkpt>
      <trkpt lat="40.802253" lon="-3.909727">
        <ele>2228.5</ele>
        <time>2018-04-21T10:23:37.000Z</time>
      </trkpt>
      <trkpt lat="40.80225" lon="-3.909738">
        <ele>2228.6</ele>
        <time>2018-04-21T10:23:38.000Z</time>
      </trkpt>
      <trkpt lat="40.802247" lon="-3.909749">
        <ele>2228.7</ele>
        <time>2018-04-21T10:23:39.000Z</time>
      </trkpt>
      <trkpt lat="40.802244" lon="-3.90976">
        <ele>2228.9</ele>
        <time>2018-04-21T10:23:40.000Z</time>
      </trkpt>
      <trkpt lat="40.802241" lon="-3.909771">
        <ele>2229.0</ele>
        <time>2018-04-21T10:23:41.000Z</time>
      </trkpt>
      <trkpt lat="40.802239" lon="-3.909781">
        <ele>2229.1</ele>
        <time>2018-04-21T10:23:42.000Z</time>
      </trkpt>
      <trkpt lat="40.802236" lon="-3.909792">
        <ele>2229.2</ele>
        <time>2018-04-21T10:23:43.000Z</time>
      </trkpt>
      <trkpt lat="40.802233" lon="-3.909803">
        <ele>2229.4</ele>
        <time>2018-04-21T10:23:44.000Z</time>
      </trkpt>
      <trkpt lat="40.80223" lon="-3.909813">
        <ele>2229.5</ele>
        <time>2018-04-21T10:23:45.000Z</time>
      </trkpt>
      <trkpt lat="40.802227" lon="-3.909824">
        <ele>2229.6</ele>
        <time>2018-04-21T10:23:46.000Z</time>
      </trkpt>
      <trkpt lat="40.802224" lon="-3.909834">
        <ele>2229.8</ele>
        <time>2018-04-21T10:23:47.000Z</time>
      </trkpt>
      <trkpt lat="40.802221" lon="-3.909844">
        <ele>2229.9</ele>
        <time>2018-04-21T10:23:48.000Z</time>
      </trkpt>
      <trkpt lat="40.802217" lon="-3.909854">
        <ele>2230.0</ele>
        <time>2018-04-21T10:23:49.000Z</time>
      </trkpt>
      <trkpt lat="40.802214" lon="-3.909864">
        <ele>2230.1</ele>
        <time>2018-04-21T10:23:50.000Z</time>
      </trkpt>
      <trkpt lat="40.80221" lon="-3.909874">
        <ele>2230.2</ele>
        <time>2018-04-21T10:23:51.000Z</time>
      </trkpt>
      <trkpt lat="40.802206" lon="-3.909883">
        <ele>2230.3</ele>
        <time>2018-04-21T10:23:52.000Z</time>
      </trkpt>
      <trkpt lat="40.802203" lon="-3.909892">
        <ele>2230.4</ele>
        <time>2018-04-21T10:23:53.000Z</time>
      </trkpt>
      <trkpt lat="40.802199" lon="-3.909901">
        <ele>2230.5</ele>
        <time>2018-04-21T10:23:54.000Z</time>
      </trkpt>
      <trkpt lat="40.802196" lon="-3.909909">
        <ele>2230.6</ele>
        <time>2018-04-21T10:23:55.000Z</time>
      </trkpt>
      <trkpt lat="40.802193" lon="-3.909917">
        <ele>2230.7</ele>
        <time>2018-04-21T10:23:56.000Z</time>
      </trkpt>
      <trkpt lat="40.80219" lon="-3.909925">
        <ele>2230.8</ele>
        <time>2018-04-21T10:23:57.000Z</time>
      </trkpt>
      <trkpt lat="40.802187" lon="-3.909932">
        <ele>2230.9</ele>
        <time>2018-04-21T10:23:58.000Z</time>
      </trkpt>
      <trkpt lat="40.802184" lon="-3.909938">
        <ele>2231.0</ele>
        <time>2018-04-21T10:23:59.000Z</time>
      </trkpt>
      <trkpt lat="40.802182" lon="-3.909944">
        <ele>2231.1</ele>
        <time>2018-04-21T10:24:00.000Z</time>
      </trkpt>
      <trkpt lat="40.802179" lon="-3.909949">
        <ele>2231.1</ele>
        <time>2018-04-21T10:24:01.000Z</time>
      </trkpt>
      <trkpt lat="40.802178" lon="-3.909954">
        <ele>2231.2</ele>
        <time>2018-04-21T10:24:02.000Z</time>
      </trkpt>
      <trkpt lat="40.802176" lon="-3.909957">
        <ele>2231.2</ele>
        <time>2018-04-21T10:24:03.000Z</time>
      </trkpt>
      <trkpt lat="40.802175" lon="-3.90996">
        <ele>2231.3</ele>
        <time>2018-04-21T10:24:04.000Z</time>
      </trkpt>
      <trkpt lat="40.802174" lon="-3.909961">
        <ele>2231.3</ele>
        <time>2018-04-21T10:24:05.000Z</time>
      </trkpt>
      <trkpt lat="40.802174" lon="-3.909963">
        <ele>2231.3</ele>
        <time>2018-04-21T10:24:06.000Z</time>
      </trkpt>
      <trkpt lat="40.802174" lon="-3.909963">
        <ele>2231.3</ele>
        <time>2018-04-21T10:24:07.000Z</time>
      </trkpt>
      <trkpt lat="40.802174" lon="-3.909963">
        <ele>2231.3</ele>
        <time>2018-04-21T10:24:08.000Z</time>
      </trkpt>
      <trkpt lat="40.802174" lon="-3.909963">
        <ele>2231.3</ele>
        <time>2018-04-21T10:24:09.000Z</time>
      </trkpt>
      <trkpt lat="40.802174" lon="-3.909962">
        <ele>2231.3</ele>
        <time>2018-04-21T10:24:10.000Z</time>
      </trkpt>
      <trkpt lat="40.802175" lon="-3.909961">
        <ele>2231.3</ele>
        <time>2018-04-21T10:24:11.000Z</time>
      </trkpt>
      <trkpt lat="40.802176" lon="-3.90996">
        <ele>2231.3</ele>
        <time>2018-04-21T10:24:12.000Z</time>
      </trkpt>
      <trkpt lat="40.802176" lon="-3.909959">
        <ele>2231.3</ele>
        <time>2018-04-21T10:24:13.000Z</time>
      </trkpt>
      <trkpt lat="40.802177" lon="-3.909958">
        <ele>2231.2</ele>
        <time>2018-04-21T10:24:14.000Z</time>
      </trkpt>
      <trkpt lat="40.802177" lon="-3.909958">
        <ele>2231.2</ele>
        <time>2018-04-21T10:24:15.000Z</time>
      </trkpt>
      <trkpt lat="40.802177" lon="-3.909957">
        <ele>2231.2</ele>
        <time>2018-04-21T10:24:16.000Z</time>
      </trkpt>
      <trkpt lat="40.802177" lon="-3.909958">
        <ele>2231.2</ele>
        <time>2018-04-21T10:24:17.000Z</time>
      </trkpt>
      <trkpt lat="40.802176" lon="-3.909959">
        <ele>2231.3</ele>
        <time>2018-04-21T10:24:18.000Z</time>
      </trkpt>
      <trkpt lat="40.802175" lon="-3.909961">
        <ele>2231.3</ele>
        <time>2018-04-21T10:24:19.000Z</time>
      </trkpt>
      <trkpt lat="40.802173" lon="-3.909963">
        <ele>2231.3</ele>
        <time>2018-04-21T10:24:20.000Z</time>
      </trkpt>
      <trkpt lat="40.80217" lon="-3.909967">
        <ele>2231.3</ele>
        <time>2018-04-21T10:24:21.000Z</time>
      </trkpt>
      <trkpt lat="40.802166" lon="-3.909972">
        <ele>2231.4</ele>
        <time>2018-04-21T10:24:22.000Z</time>
      </trkpt>
      <trkpt lat="40.802161" lon="-3.909978">
        <ele>2231.5</ele>
        <time>2018-04-21T10:24:23.000Z</time>
      </trkpt>
      <trkpt lat="40.802156" lon="-3.909986">
        <ele>2231.6</ele>
        <time>2018-04-21T10:24:24.000Z</time>
      </trkpt>
      <trkpt lat="40.802151" lon="-3.909995">
        <ele>2231.7</ele>
        <time>2018-04-21T10:24:25.000Z</time>
      </trkpt>
      <trkpt lat="40.802146" lon="-3.910005">
        <ele>2231.7</ele>
        <time>2018-04-21T10:24:26.000Z</time>
      </trkpt>
      <trkpt lat="40.802142" lon="-3.910017">
        <ele>2231.8</ele>
        <time>2018-04-21T10:24:27.000Z</time>
      </trkpt>
      <trkpt lat="40.802138" lon="-3.91003">
        <ele>2231.8</ele>
        <time>2018-04-21T10:24:28.000Z</time>
      </trkpt>
      <trkpt lat="40.802134" lon="-3.910043">
        <ele>2231.8</ele>
        <time>2018-04-21T10:24:29.000Z</time>
      </trkpt>
      <trkpt lat="40.802131" lon="-3.910057">
        <ele>2231.8</ele>
        <time>2018-04-21T10:24:30.000Z</time>
      </trkpt>
      <trkpt lat="40.802128" lon="-3.91007">
        <ele>2231.8</ele>
        <time>2018-04-21T10:24:31.000Z</time>
      </trkpt>
      <trkpt lat="40.802125" lon="-3.910082">
        <ele>2231.9</ele>
        <time>2018-04-21T10:24:32.000Z</time>
      </trkpt>
      <trkpt lat="40.802122" lon="-3.910094">
        <ele>2231.9</ele>
        <time>2018-04-21T10:24:33.000Z</time>
      </trkpt>
      <trkpt lat="40.802119" lon="-3.910106">
        <ele>2231.9</ele>
        <time>2018-04-21T10:24:34.000Z</time>
      </trkpt>
      <trkpt lat="40.802116" lon="-3.910117">
        <ele>2231.9</ele>
        <time>2018-04-21T10:24:35.000Z</time>
      </trkpt>
      <trkpt lat="40.802113" lon="-3.910128">
        <ele>2232.0</ele>
        <time>2018-04-21T10:24:36.000Z</time>
      </trkpt>
      <trkpt lat="40.80211" lon="-3.910139">
        <ele>2232.0</ele>
        <time>2018-04-21T10:24:37.000Z</time>
      </trkpt>
      <trkpt lat="40.802106" lon="-3.910149">
        <ele>2232.0</ele>
        <time>2018-04-21T10:24:38.000Z</time>
      </trkpt>
      <trkpt lat="40.802103" lon="-3.91016">
        <ele>2232.0</ele>
        <time>2018-04-21T10:24:39.000Z</time>
      </trkpt>
      <trkpt lat="40.8021" lon="-3.91017">
        <ele>2232.0</ele>
        <time>2018-04-21T10:24:40.000Z</time>
      </trkpt>
      <trkpt lat="40.802097" lon="-3.91018">
        <ele>2232.1</ele>
        <time>2018-04-21T10:24:41.000Z</time>
      </trkpt>
      <trkpt lat="40.802094" lon="-3.91019">
        <ele>2232.1</ele>
        <time>2018-04-21T10:24:42.000Z</time>
      </trkpt>
      <trkpt lat="40.80209" lon="-3.9102">
        <ele>2232.1</ele>
        <time>2018-04-21T10:24:43.000Z</time>
      </trkpt>
      <trkpt lat="40.802087" lon="-3.91021">
        <ele>2232.1</ele>
        <time>2018-04-21T10:24:44.000Z</time>
      </trkpt>
      <trkpt lat="40.802083" lon="-3.91022">
        <ele>2232.2</ele>
        <time>2018-04-21T10:24:45.000Z</time>
      </trkpt>
      <trkpt lat="40.802079" lon="-3.910231">
        <ele>2232.2</ele>
        <time>2018-04-21T10:24:46.000Z</time>
      </trkpt>
      <trkpt lat="40.802075" lon="-3.910241">
        <ele>2232.2</ele>
        <time>2018-04-21T10:24:47.000Z</time>
      </trkpt>
      <trkpt lat="40.802071" lon="-3.910252">
        <ele>2232.2</ele>
        <time>2018-04-21T10:24:48.000Z</time>
      </trkpt>
      <trkpt lat="40.802066" lon="-3.910263">
        <ele>2232.3</ele>
        <time>2018-04-21T10:24:49.000Z</time>
      </trkpt>
      <trkpt lat="40.802061" lon="-3.910275">
        <ele>2232.3</ele>
        <time>2018-04-21T10:24:50.000Z</time>
      </trkpt>
      <trkpt lat="40.802056" lon="-3.910286">
        <ele>2232.3</ele>
        <time>2018-04-21T10:24:51.000Z</time>
      </trkpt>
      <trkpt lat="40.802051" lon="-3.910298">
        <ele>2232.3</ele>
        <time>2018-04-21T10:24:52.000Z</time>
      </trkpt>
      <trkpt lat="40.802046" lon="-3.91031">
        <ele>2232.4</ele>
        <time>2018-04-21T10:24:53.000Z</time>
      </trkpt>
      <trkpt lat="40.802041" lon="-3.910322">
        <ele>2232.4</ele>
        <time>2018-04-21T10:24:54.000Z</time>
      </trkpt>
      <trkpt lat="40.802035" lon="-3.910334">
        <ele>2232.4</ele>
        <time>2018-04-21T10:24:55.000Z</time>
      </trkpt>
      <trkpt lat="40.80203" lon="-3.910346">
        <ele>2232.5</ele>
        <time>2018-04-21T10:24:56.000Z</time>
      </trkpt>
      <trkpt lat="40.802024" lon="-3.910359">
        <ele>2232.5</ele>
        <time>2018-04-21T10:24:57.000Z</time>
      </trkpt>
      <trkpt lat="40.802019" lon="-3.910371">
        <ele>2232.6</ele>
        <time>2018-04-21T10:24:58.000Z</time>
      </trkpt>
      <trkpt lat="40.802013" lon="-3.910384">
        <ele>2232.6</ele>
        <time>2018-04-21T10:24:59.000Z</time>
      </trkpt>
      <trkpt lat="40.802008" lon="-3.910396">
        <ele>2232.6</ele>
        <time>2018-04-21T10:25:00.000Z</time>
      </trkpt>
      <trkpt lat="40.802002" lon="-3.910409">
        <ele>2232.7</ele>
        <time>2018-04-21T10:25:01.000Z</time>
      </trkpt>
      <trkpt lat="40.801996" lon="-3.910422">
        <ele>2232.7</ele>
        <time>2018-04-21T10:25:02.000Z</time>
      </trkpt>
      <trkpt lat="40.801991" lon="-3.910435">
        <ele>2232.8</ele>
        <time>2018-04-21T10:25:03.000Z</time>
      </trkpt>
      <trkpt lat="40.801985" lon="-3.910448">
        <ele>2232.8</ele>
        <time>2018-04-21T10:25:04.000Z</time>
      </trkpt>
      <trkpt lat="40.80198" lon="-3.910462">
        <ele>2232.9</ele>
        <time>2018-04-21T10:25:05.000Z</time>
      </trkpt>
      <trkpt lat="40.801974" lon="-3.910475">
        <ele>2232.9</ele>
        <time>2018-04-21T10:25:06.000Z</time>
      </trkpt>
      <trkpt lat="40.801969" lon="-3.910489">
        <ele>2233.0</ele>
        <time>2018-04-21T10:25:07.000Z</time>
      </trkpt>
      <trkpt lat="40.801964" lon="-3.910503">
        <ele>2233.0</ele>
        <time>2018-04-21T10:25:08.000Z</time>
      </trkpt>
      <trkpt lat="40.801958" lon="-3.910517">
        <ele>2233.1</ele>
        <time>2018-04-21T10:25:09.000Z</time>
      </trkpt>
      <trkpt lat="40.801953" lon="-3.910531">
        <ele>2233.1</ele>
        <time>2018-04-21T10:25:10.000Z</time>
      </trkpt>
      <trkpt lat="40.801948" lon="-3.910546">
        <ele>2233.2</ele>
        <time>2018-04-21T10:25:11.000Z</time>
      </trkpt>
      <trkpt lat="40.801942" lon="-3.91056">
        <ele>2233.2</ele>
        <time>2018-04-21T10:25:12.000Z</time>
      </trkpt>
      <trkpt lat="40.801937" lon="-3.910574">
        <ele>2233.3</ele>
        <time>2018-04-21T10:25:13.000Z</time>
      </trkpt>
      <trkpt lat="40.801932" lon="-3.910589">
        <ele>2233.4</ele>
        <time>2018-04-21T10:25:14.000Z</time>
      </trkpt>
      <trkpt lat="40.801926" lon="-3.910603">
        <ele>2233.4</ele>
        <time>2018-04-21T10:25:15.000Z</time>
      </trkpt>
      <trkpt lat="40.801921" lon="-3.910618">
        <ele>2233.5</ele>
        <time>2018-04-21T10:25:16.000Z</time>
      </trkpt>
      <trkpt lat="40.801915" lon="-3.910632">
        <ele>2233.6</ele>
        <time>2018-04-21T10:25:17.000Z</time>
      </trkpt>
      <trkpt lat="40.801909" lon="-3.910647">
        <ele>2233.6</ele>
        <time>2018-04-21T10:25:18.000Z</time>
      </trkpt>
      <trkpt lat="40.801903" lon="-3.910661">
        <ele>2233.7</ele>
        <time>2018-04-21T10:25:19.000Z</time>
      </trkpt>
      <trkpt lat="40.801897" lon="-3.910675">
        <ele>2233.8</ele>
        <time>2018-04-21T10:25:20.000Z</time>
      </trkpt>
      <trkpt lat="40.801891" lon="-3.910689">
        <ele>2233.8</ele>
        <time>2018-04-21T10:25:21.000Z</time>
      </trkpt>
      <trkpt lat="40.801885" lon="-3.910702">
        <ele>2233.9</ele>
        <time>2018-04-21T10:25:22.000Z</time>
      </trkpt>
      <trkpt lat="40.801878" lon="-3.910716">
        <ele>2234.0</ele>
        <time>2018-04-21T10:25:23.000Z</time>
      </trkpt>
      <trkpt lat="40.801871" lon="-3.910729">
        <ele>2234.0</ele>
        <time>2018-04-21T10:25:24.000Z</time>
      </trkpt>
      <trkpt lat="40.801864" lon="-3.910742">
        <ele>2234.1</ele>
        <time>2018-04-21T10:25:25.000Z</time>
      </trkpt>
      <trkpt lat="40.801857" lon="-3.910754">
        <ele>2234.2</ele>
        <time>2018-04-21T10:25:26.000Z</time>
      </trkpt>
      <trkpt lat="40.80185" lon="-3.910766">
        <ele>2234.2</ele>
        <time>2018-04-21T10:25:27.000Z</time>
      </trkpt>
      <trkpt lat="40.801843" lon="-3.910779">
        <ele>2234.3</ele>
        <time>2018-04-21T10:25:28.000Z</time>
      </trkpt>
      <trkpt lat="40.801836" lon="-3.910791">
        <ele>2234.4</ele>
        <time>2018-04-21T10:25:29.000Z</time>
      </trkpt>
      <trkpt lat="40.801829" lon="-3.910803">
        <ele>2234.5</ele>
        <time>2018-04-21T10:25:30.000Z</time>
      </trkpt>
      <trkpt lat="40.801822" lon="-3.910815">
        <ele>2234.5</ele>
        <time>2018-04-21T10:25:31.000Z</time>
      </trkpt>
      <trkpt lat="40.801816" lon="-3.910826">
        <ele>2234.6</ele>
        <time>2018-04-21T10:25:32.000Z</time>
      </trkpt>
      <trkpt lat="40.80181" lon="-3.910838">
        <ele>2234.7</ele>
        <time>2018-04-21T10:25:33.000Z</time>
      </trkpt>
      <trkpt lat="40.801805" lon="-3.91085">
        <ele>2234.7</ele>
        <time>2018-04-21T10:25:34.000Z</time>
      </trkpt>
      <trkpt lat="40.8018" lon="-3.910863">
        <ele>2234.8</ele>
        <time>2018-04-21T10:25:35.000Z</time>
      </trkpt>
      <trkpt lat="40.801796" lon="-3.910875">
        <ele>2234.8</ele>
        <time>2018-04-21T10:25:36.000Z</time>
      </trkpt>
      <trkpt lat="40.801792" lon="-3.910887">
        <ele>2234.9</ele>
        <time>2018-04-21T10:25:37.000Z</time>
      </trkpt>
      <trkpt lat="40.801787" lon="-3.910899">
        <ele>2234.9</ele>
        <time>2018-04-21T10:25:38.000Z</time>
      </trkpt>
      <trkpt lat="40.801783" lon="-3.910912">
        <ele>2235.0</ele>
        <time>2018-04-21T10:25:39.000Z</time>
      </trkpt>
      <trkpt lat="40.801779" lon="-3.910924">
        <ele>2235.0</ele>
        <time>2018-04-21T10:25:40.000Z</time>
      </trkpt>
      <trkpt lat="40.801775" lon="-3.910937">
        <ele>2235.1</ele>
        <time>2018-04-21T10:25:41.000Z</time>
      </trkpt>
      <trkpt lat="40.801771" lon="-3.91095">
        <ele>2235.2</ele>
        <time>2018-04-21T10:25:42.000Z</time>
      </trkpt>
      <trkpt lat="40.801767" lon="-3.910962">
        <ele>2235.2</ele>
        <time>2018-04-21T10:25:43.000Z</time>
      </trkpt>
      <trkpt lat="40.801762" lon="-3.910975">
        <ele>2235.3</ele>
        <time>2018-04-21T10:25:44.000Z</time>
      </trkpt>
      <trkpt lat="40.801757" lon="-3.910988">
        <ele>2235.4</ele>
        <time>2018-04-21T10:25:45.000Z</time>
      </trkpt>
      <trkpt lat="40.801751" lon="-3.911001">
        <ele>2235.4</ele>
        <time>2018-04-21T10:25:46.000Z</time>
      </trkpt>
      <trkpt lat="40.801746" lon="-3.911014">
        <ele>2235.5</ele>
        <time>2018-04-21T10:25:47.000Z</time>
      </trkpt>
      <trkpt lat="40.80174" lon="-3.911026">
        <ele>2235.6</ele>
        <time>2018-04-21T10:25:48.000Z</time>
      </trkpt>
      <trkpt lat="40.801735" lon="-3.91104">
        <ele>2235.7</ele>
        <time>2018-04-21T10:25:49.000Z</time>
      </trkpt>
      <trkpt lat="40.801729" lon="-3.911053">
        <ele>2235.7</ele>
        <time>2018-04-21T10:25:50.000Z</time>
      </trkpt>
      <trkpt lat="40.801723" lon="-3.911066">
        <ele>2235.8</ele>
        <time>2018-04-21T10:25:51.000Z</time>
      </trkpt>
      <trkpt lat="40.801717" lon="-3.911079">
        <ele>2235.9</ele>
        <time>2018-04-21T10:25:52.000Z</time>
      </trkpt>
      <trkpt lat="40.801711" lon="-3.911092">
        <ele>2236.0</ele>
        <time>2018-04-21T10:25:53.000Z</time>
      </trkpt>
      <trkpt lat="40.801704" lon="-3.911105">
        <ele>2236.1</ele>
        <time>2018-04-21T10:25:54.000Z</time>
      </trkpt>
      <trkpt lat="40.801698" lon="-3.911119">
        <ele>2236.2</ele>
        <time>2018-04-21T10:25:55.000Z</time>
      </trkpt>
      <trkpt lat="40.801692" lon="-3.911132">
        <ele>2236.3</ele>
        <time>2018-04-21T10:25:56.000Z</time>
      </trkpt>
      <trkpt lat="40.801686" lon="-3.911146">
        <ele>2236.4</ele>
        <time>2018-04-21T10:25:57.000Z</time>
      </trkpt>
      <trkpt lat="40.80168" lon="-3.911159">
        <ele>2236.5</ele>
        <time>2018-04-21T10:25:58.000Z</time>
      </trkpt>
      <trkpt lat="40.801673" lon="-3.911173">
        <ele>2236.6</ele>
        <time>2018-04-21T10:25:59.000Z</time>
      </trkpt>
      <trkpt lat="40.801667" lon="-3.911186">
        <ele>2236.7</ele>
        <time>2018-04-21T10:26:00.000Z</time>
      </trkpt>
      <trkpt lat="40.801661" lon="-3.9112">
        <ele>2236.6</ele>
        <time>2018-04-21T10:26:01.000Z</time>
      </trkpt>
      <trkpt lat="40.801655" lon="-3.911214">
        <ele>2236.6</ele>
        <time>2018-04-21T10:26:02.000Z</time>
      </trkpt>
      <trkpt lat="40.801649" lon="-3.911227">
        <ele>2236.5</ele>
        <time>2018-04-21T10:26:03.000Z</time>
      </trkpt>
      <trkpt lat="40.801644" lon="-3.911241">
        <ele>2236.5</ele>
        <time>2018-04-21T10:26:04.000Z</time>
      </trkpt>
      <trkpt lat="40.801638" lon="-3.911255">
        <ele>2236.5</ele>
        <time>2018-04-21T10:26:05.000Z</time>
      </trkpt>
      <trkpt lat="40.801632" lon="-3.911268">
        <ele>2236.4</ele>
        <time>2018-04-21T10:26:06.000Z</time>
      </trkpt>
      <trkpt lat="40.801627" lon="-3.911282">
        <ele>2236.4</ele>
        <time>2018-04-21T10:26:07.000Z</time>
      </trkpt>
      <trkpt lat="40.801622" lon="-3.911296">
        <ele>2236.4</ele>
        <time>2018-04-21T10:26:08.000Z</time>
      </trkpt>
      <trkpt lat="40.801616" lon="-3.911309">
        <ele>2236.3</ele>
        <time>2018-04-21T10:26:09.000Z</time>
      </trkpt>
      <trkpt lat="40.801611" lon="-3.911322">
        <ele>2236.3</ele>
        <time>2018-04-21T10:26:10.000Z</time>
      </trkpt>
      <trkpt lat="40.801606" lon="-3.911336">
        <ele>2236.2</ele>
        <time>2018-04-21T10:26:11.000Z</time>
      </trkpt>
      <trkpt lat="40.801601" lon="-3.911349">
        <ele>2236.2</ele>
        <time>2018-04-21T10:26:12.000Z</time>
      </trkpt>
      <trkpt lat="40.801596" lon="-3.911362">
        <ele>2236.2</ele>
        <time>2018-04-21T10:26:13.000Z</time>
      </trkpt>
      <trkpt lat="40.801592" lon="-3.911375">
        <ele>2236.2</ele>
        <time>2018-04-21T10:26:14.000Z</time>
      </trkpt>
      <trkpt lat="40.801587" lon="-3.911387">
        <ele>2236.2</ele>
        <time>2018-04-21T10:26:15.000Z</time>
      </trkpt>
      <trkpt lat="40.801583" lon="-3.9114">
        <ele>2236.2</ele>
        <time>2018-04-21T10:26:16.000Z</time>
      </trkpt>
      <trkpt lat="40.801578" lon="-3.911412">
        <ele>2236.1</ele>
        <time>2018-04-21T10:26:17.000Z</time>
      </trkpt>
      <trkpt lat="40.801574" lon="-3.911424">
        <ele>2236.1</ele>
        <time>2018-04-21T10:26:18.000Z</time>
      </trkpt>
      <trkpt lat="40.80157" lon="-3.911436">
        <ele>2236.1</ele>
        <time>2018-04-21T10:26:19.000Z</time>
      </trkpt>
      <trkpt lat="40.801566" lon="-3.911447">
        <ele>2236.1</ele>
        <time>2018-04-21T10:26:20.000Z</time>
      </trkpt>
      <trkpt lat="40.801562" lon="-3.911459">
        <ele>2236.1</ele>
        <time>2018-04-21T10:26:21.000Z</time>
      </trkpt>
      <trkpt lat="40.801558" lon="-3.911471">
        <ele>2236.1</ele>
        <time>2018-04-21T10:26:22.000Z</time>
      </trkpt>
      <trkpt lat="40.801554" lon="-3.911482">
        <ele>2236.1</ele>
        <time>2018-04-21T10:26:23.000Z</time>
      </trkpt>
      <trkpt lat="40.80155" lon="-3.911494">
        <ele>2236.1</ele>
        <time>2018-04-21T10:26:24.000Z</time>
      </trkpt>
      <trkpt lat="40.801546" lon="-3.911506">
        <ele>2236.1</ele>
        <time>2018-04-21T10:26:25.000Z</time>
      </trkpt>
      <trkpt lat="40.801542" lon="-3.911518">
        <ele>2236.1</ele>
        <time>2018-04-21T10:26:26.000Z</time>
      </trkpt>
      <trkpt lat="40.801537" lon="-3.91153">
        <ele>2236.0</ele>
        <time>2018-04-21T10:26:27.000Z</time>
      </trkpt>
      <trkpt lat="40.801532" lon="-3.911543">
        <ele>2236.0</ele>
        <time>2018-04-21T10:26:28.000Z</time>
      </trkpt>
      <trkpt lat="40.801528" lon="-3.911556">
        <ele>2236.0</ele>
        <time>2018-04-21T10:26:29.000Z</time>
      </trkpt>
      <trkpt lat="40.801522" lon="-3.91157">
        <ele>2236.0</ele>
        <time>2018-04-21T10:26:30.000Z</time>
      </trkpt>
      <trkpt lat="40.801517" lon="-3.911583">
        <ele>2236.0</ele>
        <time>2018-04-21T10:26:31.000Z</time>
      </trkpt>
      <trkpt lat="40.801512" lon="-3.911596">
        <ele>2236.0</ele>
        <time>2018-04-21T10:26:32.000Z</time>
      </trkpt>
      <trkpt lat="40.801506" lon="-3.91161">
        <ele>2236.0</ele>
        <time>2018-04-21T10:26:33.000Z</time>
      </trkpt>
      <trkpt lat="40.801501" lon="-3.911623">
        <ele>2236.0</ele>
        <time>2018-04-21T10:26:34.000Z</time>
      </trkpt>
      <trkpt lat="40.801495" lon="-3.911635">
        <ele>2235.9</ele>
        <time>2018-04-21T10:26:35.000Z</time>
      </trkpt>
      <trkpt lat="40.801489" lon="-3.911647">
        <ele>2235.9</ele>
        <time>2018-04-21T10:26:36.000Z</time>
      </trkpt>
      <trkpt lat="40.801483" lon="-3.911658">
        <ele>2235.9</ele>
        <time>2018-04-21T10:26:37.000Z</time>
      </trkpt>
      <trkpt lat="40.801478" lon="-3.911669">
        <ele>2235.8</ele>
        <time>2018-04-21T10:26:38.000Z</time>
      </trkpt>
      <trkpt lat="40.801472" lon="-3.911679">
        <ele>2235.7</ele>
        <time>2018-04-21T10:26:39.000Z</time>
      </trkpt>
      <trkpt lat="40.801466" lon="-3.911689">
        <ele>2235.6</ele>
        <time>2018-04-21T10:26:40.000Z</time>
      </trkpt>
      <trkpt lat="40.801461" lon="-3.911699">
        <ele>2235.5</ele>
        <time>2018-04-21T10:26:41.000Z</time>
      </trkpt>
      <trkpt lat="40.801455" lon="-3.911708">
        <ele>2235.4</ele>
        <time>2018-04-21T10:26:42.000Z</time>
      </trkpt>
      <trkpt lat="40.80145" lon="-3.911717">
        <ele>2235.3</ele>
        <time>2018-04-21T10:26:43.000Z</time>
      </trkpt>
      <trkpt lat="40.801444" lon="-3.911726">
        <ele>2235.2</ele>
        <time>2018-04-21T10:26:44.000Z</time>
      </trkpt>
      <trkpt lat="40.801439" lon="-3.911735">
        <ele>2235.1</ele>
        <time>2018-04-21T10:26:45.000Z</time>
      </trkpt>
      <trkpt lat="40.801433" lon="-3.911744">
        <ele>2235.0</ele>
        <time>2018-04-21T10:26:46.000Z</time>
      </trkpt>
      <trkpt lat="40.801428" lon="-3.911753">
        <ele>2234.9</ele>
        <time>2018-04-21T10:26:47.000Z</time>
      </trkpt>
      <trkpt lat="40.801422" lon="-3.911762">
        <ele>2234.8</ele>
        <time>2018-04-21T10:26:48.000Z</time>
      </trkpt>
      <trkpt lat="40.801417" lon="-3.911772">
        <ele>2234.7</ele>
        <time>2018-04-21T10:26:49.000Z</time>
      </trkpt>
      <trkpt lat="40.801412" lon="-3.911782">
        <ele>2234.6</ele>
        <time>2018-04-21T10:26:50.000Z</time>
      </trkpt>
      <trkpt lat="40.801407" lon="-3.911792">
        <ele>2234.6</ele>
        <time>2018-04-21T10:26:51.000Z</time>
      </trkpt>
      <trkpt lat="40.801402" lon="-3.911803">
        <ele>2234.5</ele>
        <time>2018-04-21T10:26:52.000Z</time>
      </trkpt>
      <trkpt lat="40.801397" lon="-3.911814">
        <ele>2234.4</ele>
        <time>2018-04-21T10:26:53.000Z</time>
      </trkpt>
      <trkpt lat="40.801392" lon="-3.911826">
        <ele>2234.3</ele>
        <time>2018-04-21T10:26:54.000Z</time>
      </trkpt>
      <trkpt lat="40.801387" lon="-3.911839">
        <ele>2234.2</ele>
        <time>2018-04-21T10:26:55.000Z</time>
      </trkpt>
      <trkpt lat="40.801383" lon="-3.911853">
        <ele>2234.2</ele>
        <time>2018-04-21T10:26:56.000Z</time>
      </trkpt>
      <trkpt lat="40.801378" lon="-3.911866">
        <ele>2234.1</ele>
        <time>2018-04-21T10:26:57.000Z</time>
      </trkpt>
      <trkpt lat="40.801374" lon="-3.911881">
        <ele>2234.0</ele>
        <time>2018-04-21T10:26:58.000Z</time>
      </trkpt>
      <trkpt lat="40.801369" lon="-3.911895">
        <ele>2234.0</ele>
        <time>2018-04-21T10:26:59.000Z</time>
      </trkpt>
      <trkpt lat="40.801365" lon="-3.911909">
        <ele>2233.9</ele>
        <time>2018-04-21T10:27:00.000Z</time>
      </trkpt>
      <trkpt lat="40.801361" lon="-3.911923">
        <ele>2233.8</ele>
        <time>2018-04-21T10:27:01.000Z</time>
      </trkpt>
      <trkpt lat="40.801357" lon="-3.911936">
        <ele>2233.8</ele>
        <time>2018-04-21T10:27:02.000Z</time>
      </trkpt>
      <trkpt lat="40.801354" lon="-3.911949">
        <ele>2233.7</ele>
        <time>2018-04-21T10:27:03.000Z</time>
      </trkpt>
      <trkpt lat="40.80135" lon="-3.911961">
        <ele>2233.7</ele>
        <time>2018-04-21T10:27:04.000Z</time>
      </trkpt>
      <trkpt lat="40.801347" lon="-3.911972">
        <ele>2233.7</ele>
        <time>2018-04-21T10:27:05.000Z</time>
      </trkpt>
      <trkpt lat="40.801344" lon="-3.911983">
        <ele>2233.6</ele>
        <time>2018-04-21T10:27:06.000Z</time>
      </trkpt>
      <trkpt lat="40.801341" lon="-3.911993">
        <ele>2233.6</ele>
        <time>2018-04-21T10:27:07.000Z</time>
      </trkpt>
      <trkpt lat="40.801338" lon="-3.912003">
        <ele>2233.5</ele>
        <time>2018-04-21T10:27:08.000Z</time>
      </trkpt>
      <trkpt lat="40.801337" lon="-3.912012">
        <ele>2233.5</ele>
        <time>2018-04-21T10:27:09.000Z</time>
      </trkpt>
      <trkpt lat="40.801335" lon="-3.912022">
        <ele>2233.5</ele>
        <time>2018-04-21T10:27:10.000Z</time>
      </trkpt>
      <trkpt lat="40.801335" lon="-3.912031">
        <ele>2233.5</ele>
        <time>2018-04-21T10:27:11.000Z</time>
      </trkpt>
      <trkpt lat="40.801334" lon="-3.91204">
        <ele>2233.5</ele>
        <time>2018-04-21T10:27:12.000Z</time>
      </trkpt>
      <trkpt lat="40.801335" lon="-3.912049">
        <ele>2233.5</ele>
        <time>2018-04-21T10:27:13.000Z</time>
      </trkpt>
      <trkpt lat="40.801336" lon="-3.912058">
        <ele>2233.5</ele>
        <time>2018-04-21T10:27:14.000Z</time>
      </trkpt>
      <trkpt lat="40.801337" lon="-3.912068">
        <ele>2233.5</ele>
        <time>2018-04-21T10:27:15.000Z</time>
      </trkpt>
      <trkpt lat="40.801337" lon="-3.912079">
        <ele>2233.5</ele>
        <time>2018-04-21T10:27:16.000Z</time>
      </trkpt>
      <trkpt lat="40.801337" lon="-3.912091">
        <ele>2233.5</ele>
        <time>2018-04-21T10:27:17.000Z</time>
      </trkpt>
      <trkpt lat="40.801336" lon="-3.912105">
        <ele>2233.5</ele>
        <time>2018-04-21T10:27:18.000Z</time>
      </trkpt>
      <trkpt lat="40.801334" lon="-3.91212">
        <ele>2233.5</ele>
        <time>2018-04-21T10:27:19.000Z</time>
      </trkpt>
      <trkpt lat="40.801331" lon="-3.912135">
        <ele>2233.5</ele>
        <time>2018-04-21T10:27:20.000Z</time>
      </trkpt>
      <trkpt lat="40.801328" lon="-3.912149">
        <ele>2233.5</ele>
        <time>2018-04-21T10:27:21.000Z</time>
      </trkpt>
      <trkpt lat="40.801323" lon="-3.912163">
        <ele>2233.4</ele>
        <time>2018-04-21T10:27:22.000Z</time>
      </trkpt>
      <trkpt lat="40.801319" lon="-3.912175">
        <ele>2233.4</ele>
        <time>2018-04-21T10:27:23.000Z</time>
      </trkpt>
      <trkpt lat="40.801313" lon="-3.912187">
        <ele>2233.3</ele>
        <time>2018-04-21T10:27:24.000Z</time>
      </trkpt>
      <trkpt lat="40.801307" lon="-3.912198">
        <ele>2233.2</ele>
        <time>2018-04-21T10:27:25.000Z</time>
      </trkpt>
      <trkpt lat="40.801301" lon="-3.912208">
        <ele>2233.2</ele>
        <time>2018-04-21T10:27:26.000Z</time>
      </trkpt>
      <trkpt lat="40.801295" lon="-3.912217">
        <ele>2233.1</ele>
        <time>2018-04-21T10:27:27.000Z</time>
      </trkpt>
      <trkpt lat="40.801288" lon="-3.912226">
        <ele>2233.1</ele>
        <time>2018-04-21T10:27:28.000Z</time>
      </trkpt>
      <trkpt lat="40.801281" lon="-3.912235">
        <ele>2233.0</ele>
        <time>2018-04-21T10:27:29.000Z</time>
      </trkpt>
      <trkpt lat="40.801273" lon="-3.912243">
        <ele>2232.9</ele>
        <time>2018-04-21T10:27:30.000Z</time>
      </trkpt>
      <trkpt lat="40.801266" lon="-3.912252">
        <ele>2232.9</ele>
        <time>2018-04-21T10:27:31.000Z</time>
      </trkpt>
      <trkpt lat="40.801258" lon="-3.91226">
        <ele>2232.8</ele>
        <time>2018-04-21T10:27:32.000Z</time>
      </trkpt>
      <trkpt lat="40.80125" lon="-3.912268">
        <ele>2232.7</ele>
        <time>2018-04-21T10:27:33.000Z</time>
      </trkpt>
      <trkpt lat="40.801242" lon="-3.912276">
        <ele>2232.7</ele>
        <time>2018-04-21T10:27:34.000Z</time>
      </trkpt>
      <trkpt lat="40.801234" lon="-3.912284">
        <ele>2232.6</ele>
        <time>2018-04-21T10:27:35.000Z</time>
      </trkpt>
      <trkpt lat="40.801226" lon="-3.912291">
        <ele>2232.5</ele>
        <time>2018-04-21T10:27:36.000Z</time>
      </trkpt>
      <trkpt lat="40.801218" lon="-3.912299">
        <ele>2232.5</ele>
        <time>2018-04-21T10:27:37.000Z</time>
      </trkpt>
      <trkpt lat="40.80121" lon="-3.912307">
        <ele>2232.4</ele>
        <time>2018-04-21T10:27:38.000Z</time>
      </trkpt>
      <trkpt lat="40.801202" lon="-3.912314">
        <ele>2232.3</ele>
        <time>2018-04-21T10:27:39.000Z</time>
      </trkpt>
      <trkpt lat="40.801194" lon="-3.912322">
        <ele>2232.3</ele>
        <time>2018-04-21T10:27:40.000Z</time>
      </trkpt>
      <trkpt lat="40.801186" lon="-3.912329">
        <ele>2232.2</ele>
        <time>2018-04-21T10:27:41.000Z</time>
      </trkpt>
      <trkpt lat="40.801178" lon="-3.912337">
        <ele>2232.2</ele>
        <time>2018-04-21T10:27:42.000Z</time>
      </trkpt>
      <trkpt lat="40.80117" lon="-3.912344">
        <ele>2232.1</ele>
        <time>2018-04-21T10:27:43.000Z</time>
      </trkpt>
      <trkpt lat="40.801163" lon="-3.912351">
        <ele>2232.0</ele>
        <time>2018-04-21T10:27:44.000Z</time>
      </trkpt>
      <trkpt lat="40.801156" lon="-3.912358">
        <ele>2232.0</ele>
        <time>2018-04-21T10:27:45.000Z</time>
      </trkpt>
      <trkpt lat="40.801149" lon="-3.912366">
        <ele>2232.0</ele>
        <time>2018-04-21T10:27:46.000Z</time>
      </trkpt>
      <trkpt lat="40.801142" lon="-3.912373">
        <ele>2231.9</ele>
        <time>2018-04-21T10:27:47.000Z</time>
      </trkpt>
      <trkpt lat="40.801136" lon="-3.91238">
        <ele>2231.9</ele>
        <time>2018-04-21T10:27:48.000Z</time>
      </trkpt>
      <trkpt lat="40.80113" lon="-3.912387">
        <ele>2231.8</ele>
        <time>2018-04-21T10:27:49.000Z</time>
      </trkpt>
      <trkpt lat="40.801125" lon="-3.912394">
        <ele>2231.8</ele>
        <time>2018-04-21T10:27:50.000Z</time>
      </trkpt>
      <trkpt lat="40.801119" lon="-3.912402">
        <ele>2231.8</ele>
        <time>2018-04-21T10:27:51.000Z</time>
      </trkpt>
      <trkpt lat="40.801114" lon="-3.912409">
        <ele>2231.8</ele>
        <time>2018-04-21T10:27:52.000Z</time>
      </trkpt>
      <trkpt lat="40.80111" lon="-3.912416">
        <ele>2231.8</ele>
        <time>2018-04-21T10:27:53.000Z</time>
      </trkpt>
      <trkpt lat="40.801105" lon="-3.912424">
        <ele>2231.7</ele>
        <time>2018-04-21T10:27:54.000Z</time>
      </trkpt>
      <trkpt lat="40.801101" lon="-3.912432">
        <ele>2231.7</ele>
        <time>2018-04-21T10:27:55.000Z</time>
      </trkpt>
      <trkpt lat="40.801098" lon="-3.91244">
        <ele>2231.7</ele>
        <time>2018-04-21T10:27:56.000Z</time>
      </trkpt>
      <trkpt lat="40.801094" lon="-3.912448">
        <ele>2231.7</ele>
        <time>2018-04-21T10:27:57.000Z</time>
      </trkpt>
      <trkpt lat="40.801091" lon="-3.912457">
        <ele>2231.7</ele>
        <time>2018-04-21T10:27:58.000Z</time>
      </trkpt>
      <trkpt lat="40.801088" lon="-3.912466">
        <ele>2231.7</ele>
        <time>2018-04-21T10:27:59.000Z</time>
      </trkpt>
      <trkpt lat="40.801085" lon="-3.912475">
        <ele>2231.7</ele>
        <time>2018-04-21T10:28:00.000Z</time>
      </trkpt>
      <trkpt lat="40.801082" lon="-3.912484">
        <ele>2231.7</ele>
        <time>2018-04-21T10:28:01.000Z</time>
      </trkpt>
      <trkpt lat="40.801079" lon="-3.912494">
        <ele>2231.7</ele>
        <time>2018-04-21T10:28:02.000Z</time>
      </trkpt>
      <trkpt lat="40.801076" lon="-3.912504">
        <ele>2231.7</ele>
        <time>2018-04-21T10:28:03.000Z</time>
      </trkpt>
      <trkpt lat="40.801073" lon="-3.912515">
        <ele>2231.7</ele>
        <time>2018-04-21T10:28:04.000Z</time>
      </trkpt>
      <trkpt lat="40.80107" lon="-3.912526">
        <ele>2231.7</ele>
        <time>2018-04-21T10:28:05.000Z</time>
      </trkpt>
      <trkpt lat="40.801066" lon="-3.912538">
        <ele>2231.6</ele>
        <time>2018-04-21T10:28:06.000Z</time>
      </trkpt>
      <trkpt lat="40.801062" lon="-3.912549">
        <ele>2231.6</ele>
        <time>2018-04-21T10:28:07.000Z</time>
      </trkpt>
      <trkpt lat="40.801058" lon="-3.912561">
        <ele>2231.5</ele>
        <time>2018-04-21T10:28:08.000Z</time>
      </trkpt>
      <trkpt lat="40.801054" lon="-3.912573">
        <ele>2231.5</ele>
        <time>2018-04-21T10:28:09.000Z</time>
      </trkpt>
      <trkpt lat="40.80105" lon="-3.912585">
        <ele>2231.5</ele>
        <time>2018-04-21T10:28:10.000Z</time>
      </trkpt>
      <trkpt lat="40.801046" lon="-3.912596">
        <ele>2231.4</ele>
        <time>2018-04-21T10:28:11.000Z</time>
      </trkpt>
      <trkpt lat="40.801042" lon="-3.912607">
        <ele>2231.4</ele>
        <time>2018-04-21T10:28:12.000Z</time>
      </trkpt>
      <trkpt lat="40.80104" lon="-3.912616">
        <ele>2231.4</ele>
        <time>2018-04-21T10:28:13.000Z</time>
      </trkpt>
      <trkpt lat="40.801037" lon="-3.912625">
        <ele>2231.4</ele>
        <time>2018-04-21T10:28:14.000Z</time>
      </trkpt>
      <trkpt lat="40.801036" lon="-3.912632">
        <ele>2231.4</ele>
        <time>2018-04-21T10:28:15.000Z</time>
      </trkpt>
      <trkpt lat="40.801036" lon="-3.912637">
        <ele>2231.3</ele>
        <time>2018-04-21T10:28:16.000Z</time>
      </trkpt>
      <trkpt lat="40.801036" lon="-3.912642">
        <ele>2231.3</ele>
        <time>2018-04-21T10:28:17.000Z</time>
      </trkpt>
      <trkpt lat="40.801037" lon="-3.912647">
        <ele>2231.3</ele>
        <time>2018-04-21T10:28:18.000Z</time>
      </trkpt>
      <trkpt lat="40.801037" lon="-3.912652">
        <ele>2231.3</ele>
        <time>2018-04-21T10:28:19.000Z</time>
      </trkpt>
      <trkpt lat="40.801036" lon="-3.91266">
        <ele>2231.3</ele>
        <time>2018-04-21T10:28:20.000Z</time>
      </trkpt>
      <trkpt lat="40.801035" lon="-3.912669">
        <ele>2231.3</ele>
        <time>2018-04-21T10:28:21.000Z</time>
      </trkpt>
      <trkpt lat="40.801033" lon="-3.91268">
        <ele>2231.3</ele>
        <time>2018-04-21T10:28:22.000Z</time>
      </trkpt>
      <trkpt lat="40.80103" lon="-3.912691">
        <ele>2231.3</ele>
        <time>2018-04-21T10:28:23.000Z</time>
      </trkpt>
      <trkpt lat="40.801028" lon="-3.912702">
        <ele>2231.3</ele>
        <time>2018-04-21T10:28:24.000Z</time>
      </trkpt>
      <trkpt lat="40.801026" lon="-3.912711">
        <ele>2231.2</ele>
        <time>2018-04-21T10:28:25.000Z</time>
      </trkpt>
      <trkpt lat="40.801025" lon="-3.912719">
        <ele>2231.2</ele>
        <time>2018-04-21T10:28:26.000Z</time>
      </trkpt>
      <trkpt lat="40.801024" lon="-3.912726">
        <ele>2231.2</ele>
        <time>2018-04-21T10:28:27.000Z</time>
      </trkpt>
      <trkpt lat="40.801024" lon="-3.912732">
        <ele>2231.2</ele>
        <time>2018-04-21T10:28:28.000Z</time>
      </trkpt>
      <trkpt lat="40.801024" lon="-3.912737">
        <ele>2231.2</ele>
        <time>2018-04-21T10:28:29.000Z</time>
      </trkpt>
      <trkpt lat="40.801024" lon="-3.912742">
        <ele>2231.2</ele>
        <time>2018-04-21T10:28:30.000Z</time>
      </trkpt>
      <trkpt lat="40.801024" lon="-3.912747">
        <ele>2231.2</ele>
        <time>2018-04-21T10:28:31.000Z</time>
      </trkpt>
      <trkpt lat="40.801024" lon="-3.912753">
        <ele>2231.2</ele>
        <time>2018-04-21T10:28:32.000Z</time>
      </trkpt>
      <trkpt lat="40.801024" lon="-3.912758">
        <ele>2231.2</ele>
        <time>2018-04-21T10:28:33.000Z</time>
      </trkpt>
      <trkpt lat="40.801023" lon="-3.912765">
        <ele>2231.2</ele>
        <time>2018-04-21T10:28:34.000Z</time>
      </trkpt>
      <trkpt lat="40.801022" lon="-3.912772">
        <ele>2231.2</ele>
        <time>2018-04-21T10:28:35.000Z</time>
      </trkpt>
      <trkpt lat="40.801021" lon="-3.912779">
        <ele>2231.2</ele>
        <time>2018-04-21T10:28:36.000Z</time>
      </trkpt>
      <trkpt lat="40.80102" lon="-3.912788">
        <ele>2231.2</ele>
        <time>2018-04-21T10:28:37.000Z</time>
      </trkpt>
      <trkpt lat="40.801018" lon="-3.912796">
        <ele>2231.2</ele>
        <time>2018-04-21T10:28:38.000Z</time>
      </trkpt>
      <trkpt lat="40.801016" lon="-3.912805">
        <ele>2231.2</ele>
        <time>2018-04-21T10:28:39.000Z</time>
      </trkpt>
      <trkpt lat="40.801015" lon="-3.912815">
        <ele>2231.2</ele>
        <time>2018-04-21T10:28:40.000Z</time>
      </trkpt>
      <trkpt lat="40.801013" lon="-3.912825">
        <ele>2231.1</ele>
        <time>2018-04-21T10:28:41.000Z</time>
      </trkpt>
      <trkpt lat="40.801012" lon="-3.912835">
        <ele>2231.1</ele>
        <time>2018-04-21T10:28:42.000Z</time>
      </trkpt>
      <trkpt lat="40.80101" lon="-3.912845">
        <ele>2231.1</ele>
        <time>2018-04-21T10:28:43.000Z</time>
      </trkpt>
      <trkpt lat="40.801009" lon="-3.912855">
        <ele>2231.1</ele>
        <time>2018-04-21T10:28:44.000Z</time>
      </trkpt>
      <trkpt lat="40.801007" lon="-3.912866">
        <ele>2231.1</ele>
        <time>2018-04-21T10:28:45.000Z</time>
      </trkpt>
      <trkpt lat="40.801006" lon="-3.912877">
        <ele>2231.1</ele>
        <time>2018-04-21T10:28:46.000Z</time>
      </trkpt>
      <trkpt lat="40.801004" lon="-3.912888">
        <ele>2231.1</ele>
        <time>2018-04-21T10:28:47.000Z</time>
      </trkpt>
      <trkpt lat="40.801001" lon="-3.912899">
        <ele>2231.1</ele>
        <time>2018-04-21T10:28:48.000Z</time>
      </trkpt>
      <trkpt lat="40.800998" lon="-3.91291">
        <ele>2231.1</ele>
        <time>2018-04-21T10:28:49.000Z</time>
      </trkpt>
      <trkpt lat="40.800995" lon="-3.912921">
        <ele>2231.1</ele>
        <time>2018-04-21T10:28:50.000Z</time>
      </trkpt>
      <trkpt lat="40.800991" lon="-3.912932">
        <ele>2231.1</ele>
        <time>2018-04-21T10:28:51.000Z</time>
      </trkpt>
      <trkpt lat="40.800985" lon="-3.912944">
        <ele>2231.1</ele>
        <time>2018-04-21T10:28:52.000Z</time>
      </trkpt>
      <trkpt lat="40.80098" lon="-3.912954">
        <ele>2231.1</ele>
        <time>2018-04-21T10:28:53.000Z</time>
      </trkpt>
      <trkpt lat="40.800975" lon="-3.912964">
        <ele>2231.1</ele>
        <time>2018-04-21T10:28:54.000Z</time>
      </trkpt>
      <trkpt lat="40.80097" lon="-3.912972">
        <ele>2231.1</ele>
        <time>2018-04-21T10:28:55.000Z</time>
      </trkpt>
      <trkpt lat="40.800967" lon="-3.912978">
        <ele>2231.1</ele>
        <time>2018-04-21T10:28:56.000Z</time>
      </trkpt>
      <trkpt lat="40.800965" lon="-3.912982">
        <ele>2231.1</ele>
        <time>2018-04-21T10:28:57.000Z</time>
      </trkpt>
      <trkpt lat="40.800964" lon="-3.912983">
        <ele>2231.1</ele>
        <time>2018-04-21T10:28:58.000Z</time>
      </trkpt>
      <trkpt lat="40.800964" lon="-3.912983">
        <ele>2231.1</ele>
        <time>2018-04-21T10:28:59.000Z</time>
      </trkpt>
      <trkpt lat="40.800965" lon="-3.912982">
        <ele>2231.1</ele>
        <time>2018-04-21T10:29:00.000Z</time>
      </trkpt>
      <trkpt lat="40.800965" lon="-3.912981">
        <ele>2231.1</ele>
        <time>2018-04-21T10:29:01.000Z</time>
      </trkpt>
      <trkpt lat="40.800966" lon="-3.912981">
        <ele>2231.1</ele>
        <time>2018-04-21T10:29:02.000Z</time>
      </trkpt>
      <trkpt lat="40.800966" lon="-3.912983">
        <ele>2231.1</ele>
        <time>2018-04-21T10:29:03.000Z</time>
      </trkpt>
      <trkpt lat="40.800965" lon="-3.912987">
        <ele>2231.1</ele>
        <time>2018-04-21T10:29:04.000Z</time>
      </trkpt>
      <trkpt lat="40.800963" lon="-3.912995">
        <ele>2231.1</ele>
        <time>2018-04-21T10:29:05.000Z</time>
      </trkpt>
      <trkpt lat="40.80096" lon="-3.913006">
        <ele>2231.1</ele>
        <time>2018-04-21T10:29:06.000Z</time>
      </trkpt>
      <trkpt lat="40.800957" lon="-3.913021">
        <ele>2231.1</ele>
        <time>2018-04-21T10:29:07.000Z</time>
      </trkpt>
      <trkpt lat="40.800953" lon="-3.913038">
        <ele>2231.1</ele>
        <time>2018-04-21T10:29:08.000Z</time>
      </trkpt>
      <trkpt lat="40.800949" lon="-3.913055">
        <ele>2231.1</ele>
        <time>2018-04-21T10:29:09.000Z</time>
      </trkpt>
      <trkpt lat="40.800946" lon="-3.913071">
        <ele>2231.2</ele>
        <time>2018-04-21T10:29:10.000Z</time>
      </trkpt>
      <trkpt lat="40.800944" lon="-3.913086">
        <ele>2231.2</ele>
        <time>2018-04-21T10:29:11.000Z</time>
      </trkpt>
      <trkpt lat="40.800943" lon="-3.913101">
        <ele>2231.2</ele>
        <time>2018-04-21T10:29:12.000Z</time>
      </trkpt>
      <trkpt lat="40.800942" lon="-3.913114">
        <ele>2231.2</ele>
        <time>2018-04-21T10:29:13.000Z</time>
      </trkpt>
      <trkpt lat="40.800941" lon="-3.913126">
        <ele>2231.2</ele>
        <time>2018-04-21T10:29:14.000Z</time>
      </trkpt>
      <trkpt lat="40.80094" lon="-3.913138">
        <ele>2231.2</ele>
        <time>2018-04-21T10:29:15.000Z</time>
      </trkpt>
      <trkpt lat="40.800939" lon="-3.913149">
        <ele>2231.2</ele>
        <time>2018-04-21T10:29:16.000Z</time>
      </trkpt>
      <trkpt lat="40.800937" lon="-3.913159">
        <ele>2231.2</ele>
        <time>2018-04-21T10:29:17.000Z</time>
      </trkpt>
      <trkpt lat="40.800935" lon="-3.913168">
        <ele>2231.3</ele>
        <time>2018-04-21T10:29:18.000Z</time>
      </trkpt>
      <trkpt lat="40.800933" lon="-3.913178">
        <ele>2231.3</ele>
        <time>2018-04-21T10:29:19.000Z</time>
      </trkpt>
      <trkpt lat="40.800929" lon="-3.913186">
        <ele>2231.3</ele>
        <time>2018-04-21T10:29:20.000Z</time>
      </trkpt>
      <trkpt lat="40.800925" lon="-3.913194">
        <ele>2231.3</ele>
        <time>2018-04-21T10:29:21.000Z</time>
      </trkpt>
      <trkpt lat="40.800921" lon="-3.913202">
        <ele>2231.3</ele>
        <time>2018-04-21T10:29:22.000Z</time>
      </trkpt>
      <trkpt lat="40.800916" lon="-3.91321">
        <ele>2231.4</ele>
        <time>2018-04-21T10:29:23.000Z</time>
      </trkpt>
      <trkpt lat="40.800911" lon="-3.913217">
        <ele>2231.4</ele>
        <time>2018-04-21T10:29:24.000Z</time>
      </trkpt>
      <trkpt lat="40.800906" lon="-3.913224">
        <ele>2231.4</ele>
        <time>2018-04-21T10:29:25.000Z</time>
      </trkpt>
      <trkpt lat="40.800901" lon="-3.913231">
        <ele>2231.5</ele>
        <time>2018-04-21T10:29:26.000Z</time>
      </trkpt>
      <trkpt lat="40.800895" lon="-3.913238">
        <ele>2231.5</ele>
        <time>2018-04-21T10:29:27.000Z</time>
      </trkpt>
      <trkpt lat="40.80089" lon="-3.913245">
        <ele>2231.5</ele>
        <time>2018-04-21T10:29:28.000Z</time>
      </trkpt>
      <trkpt lat="40.800884" lon="-3.913252">
        <ele>2231.6</ele>
        <time>2018-04-21T10:29:29.000Z</time>
      </trkpt>
      <trkpt lat="40.800879" lon="-3.913259">
        <ele>2231.6</ele>
        <time>2018-04-21T10:29:30.000Z</time>
      </trkpt>
      <trkpt lat="40.800874" lon="-3.913266">
        <ele>2231.6</ele>
        <time>2018-04-21T10:29:31.000Z</time>
      </trkpt>
      <trkpt lat="40.80087" lon="-3.913273">
        <ele>2231.7</ele>
        <time>2018-04-21T10:29:32.000Z</time>
      </trkpt>
      <trkpt lat="40.800865" lon="-3.913281">
        <ele>2231.7</ele>
        <time>2018-04-21T10:29:33.000Z</time>
      </trkpt>
      <trkpt lat="40.800862" lon="-3.913289">
        <ele>2231.7</ele>
        <time>2018-04-21T10:29:34.000Z</time>
      </trkpt>
      <trkpt lat="40.800858" lon="-3.913297">
        <ele>2231.8</ele>
        <time>2018-04-21T10:29:35.000Z</time>
      </trkpt>
      <trkpt lat="40.800856" lon="-3.913306">
        <ele>2231.8</ele>
        <time>2018-04-21T10:29:36.000Z</time>
      </trkpt>
      <trkpt lat="40.800854" lon="-3.913315">
        <ele>2231.8</ele>
        <time>2018-04-21T10:29:37.000Z</time>
      </trkpt>
      <trkpt lat="40.800853" lon="-3.913325">
        <ele>2231.9</ele>
        <time>2018-04-21T10:29:38.000Z</time>
      </trkpt>
      <trkpt lat="40.800852" lon="-3.913335">
        <ele>2231.9</ele>
        <time>2018-04-21T10:29:39.000Z</time>
      </trkpt>
      <trkpt lat="40.800852" lon="-3.913346">
        <ele>2231.9</ele>
        <time>2018-04-21T10:29:40.000Z</time>
      </trkpt>
      <trkpt lat="40.800852" lon="-3.913357">
        <ele>2231.9</ele>
        <time>2018-04-21T10:29:41.000Z</time>
      </trkpt>
      <trkpt lat="40.800853" lon="-3.913368">
        <ele>2232.0</ele>
        <time>2018-04-21T10:29:42.000Z</time>
      </trkpt>
      <trkpt lat="40.800853" lon="-3.91338">
        <ele>2232.0</ele>
        <time>2018-04-21T10:29:43.000Z</time>
      </trkpt>
      <trkpt lat="40.800854" lon="-3.913391">
        <ele>2232.0</ele>
        <time>2018-04-21T10:29:44.000Z</time>
      </trkpt>
      <trkpt lat="40.800855" lon="-3.913404">
        <ele>2232.0</ele>
        <time>2018-04-21T10:29:45.000Z</time>
      </trkpt>
      <trkpt lat="40.800855" lon="-3.913416">
        <ele>2232.0</ele>
        <time>2018-04-21T10:29:46.000Z</time>
      </trkpt>
      <trkpt lat="40.800856" lon="-3.913428">
        <ele>2232.1</ele>
        <time>2018-04-21T10:29:47.000Z</time>
      </trkpt>
      <trkpt lat="40.800856" lon="-3.913441">
        <ele>2232.1</ele>
        <time>2018-04-21T10:29:48.000Z</time>
      </trkpt>
      <trkpt lat="40.800856" lon="-3.913454">
        <ele>2232.1</ele>
        <time>2018-04-21T10:29:49.000Z</time>
      </trkpt>
      <trkpt lat="40.800856" lon="-3.913467">
        <ele>2232.1</ele>
        <time>2018-04-21T10:29:50.000Z</time>
      </trkpt>
      <trkpt lat="40.800855" lon="-3.91348">
        <ele>2232.2</ele>
        <time>2018-04-21T10:29:51.000Z</time>
      </trkpt>
      <trkpt lat="40.800853" lon="-3.913493">
        <ele>2232.2</ele>
        <time>2018-04-21T10:29:52.000Z</time>
      </trkpt>
      <trkpt lat="40.800851" lon="-3.913506">
        <ele>2232.3</ele>
        <time>2018-04-21T10:29:53.000Z</time>
      </trkpt>
      <trkpt lat="40.800848" lon="-3.913519">
        <ele>2232.3</ele>
        <time>2018-04-21T10:29:54.000Z</time>
      </trkpt>
      <trkpt lat="40.800844" lon="-3.913532">
        <ele>2232.4</ele>
        <time>2018-04-21T10:29:55.000Z</time>
      </trkpt>
      <trkpt lat="40.80084" lon="-3.913544">
        <ele>2232.4</ele>
        <time>2018-04-21T10:29:56.000Z</time>
      </trkpt>
      <trkpt lat="40.800836" lon="-3.913557">
        <ele>2232.5</ele>
        <time>2018-04-21T10:29:57.000Z</time>
      </trkpt>
      <trkpt lat="40.800832" lon="-3.913569">
        <ele>2232.5</ele>
        <time>2018-04-21T10:29:58.000Z</time>
      </trkpt>
      <trkpt lat="40.80083" lon="-3.913581">
        <ele>2232.5</ele>
        <time>2018-04-21T10:29:59.000Z</time>
      </trkpt>
      <trkpt lat="40.800828" lon="-3.913592">
        <ele>2232.5</ele>
        <time>2018-04-21T10:30:00.000Z</time>
      </trkpt>
      <trkpt lat="40.800827" lon="-3.913603">
        <ele>2232.5</ele>
        <time>2018-04-21T10:30:01.000Z</time>
      </trkpt>
      <trkpt lat="40.800827" lon="-3.913614">
        <ele>2232.6</ele>
        <time>2018-04-21T10:30:02.000Z</time>
      </trkpt>
      <trkpt lat="40.800828" lon="-3.913626">
        <ele>2232.6</ele>
        <time>2018-04-21T10:30:03.000Z</time>
      </trkpt>
      <trkpt lat="40.800827" lon="-3.913639">
        <ele>2232.6</ele>
        <time>2018-04-21T10:30:04.000Z</time>
      </trkpt>
      <trkpt lat="40.800826" lon="-3.913652">
        <ele>2232.6</ele>
        <time>2018-04-21T10:30:05.000Z</time>
      </trkpt>
      <trkpt lat="40.800825" lon="-3.913666">
        <ele>2232.7</ele>
        <time>2018-04-21T10:30:06.000Z</time>
      </trkpt>
      <trkpt lat="40.800823" lon="-3.913681">
        <ele>2232.7</ele>
        <time>2018-04-21T10:30:07.000Z</time>
      </trkpt>
      <trkpt lat="40.80082" lon="-3.913696">
        <ele>2232.6</ele>
        <time>2018-04-21T10:30:08.000Z</time>
      </trkpt>
      <trkpt lat="40.800817" lon="-3.913711">
        <ele>2232.6</ele>
        <time>2018-04-21T10:30:09.000Z</time>
      </trkpt>
      <trkpt lat="40.800814" lon="-3.913725">
        <ele>2232.6</ele>
        <time>2018-04-21T10:30:10.000Z</time>
      </trkpt>
      <trkpt lat="40.800811" lon="-3.913739">
        <ele>2232.6</ele>
        <time>2018-04-21T10:30:11.000Z</time>
      </trkpt>
      <trkpt lat="40.800808" lon="-3.913751">
        <ele>2232.6</ele>
        <time>2018-04-21T10:30:12.000Z</time>
      </trkpt>
      <trkpt lat="40.800806" lon="-3.913762">
        <ele>2232.6</ele>
        <time>2018-04-21T10:30:13.000Z</time>
      </trkpt>
      <trkpt lat="40.800803" lon="-3.913771">
        <ele>2232.5</ele>
        <time>2018-04-21T10:30:14.000Z</time>
      </trkpt>
      <trkpt lat="40.800801" lon="-3.913779">
        <ele>2232.5</ele>
        <time>2018-04-21T10:30:15.000Z</time>
      </trkpt>
      <trkpt lat="40.800799" lon="-3.913784">
        <ele>2232.5</ele>
        <time>2018-04-21T10:30:16.000Z</time>
      </trkpt>
      <trkpt lat="40.800798" lon="-3.913788">
        <ele>2232.5</ele>
        <time>2018-04-21T10:30:17.000Z</time>
      </trkpt>
      <trkpt lat="40.800798" lon="-3.91379">
        <ele>2232.5</ele>
        <time>2018-04-21T10:30:18.000Z</time>
      </trkpt>
      <trkpt lat="40.800798" lon="-3.913791">
        <ele>2232.5</ele>
        <time>2018-04-21T10:30:19.000Z</time>
      </trkpt>
      <trkpt lat="40.800798" lon="-3.913794">
        <ele>2232.5</ele>
        <time>2018-04-21T10:30:20.000Z</time>
      </trkpt>
      <trkpt lat="40.800798" lon="-3.913802">
        <ele>2232.5</ele>
        <time>2018-04-21T10:30:21.000Z</time>
      </trkpt>
      <trkpt lat="40.800798" lon="-3.913814">
        <ele>2232.6</ele>
        <time>2018-04-21T10:30:22.000Z</time>
      </trkpt>
      <trkpt lat="40.800797" lon="-3.913826">
        <ele>2232.6</ele>
        <time>2018-04-21T10:30:23.000Z</time>
      </trkpt>
      <trkpt lat="40.800795" lon="-3.913838">
        <ele>2232.6</ele>
        <time>2018-04-21T10:30:24.000Z</time>
      </trkpt>
      <trkpt lat="40.800793" lon="-3.91385">
        <ele>2232.6</ele>
        <time>2018-04-21T10:30:25.000Z</time>
      </trkpt>
      <trkpt lat="40.80079" lon="-3.913863">
        <ele>2232.6</ele>
        <time>2018-04-21T10:30:26.000Z</time>
      </trkpt>
      <trkpt lat="40.800787" lon="-3.913875">
        <ele>2232.6</ele>
        <time>2018-04-21T10:30:27.000Z</time>
      </trkpt>
      <trkpt lat="40.800784" lon="-3.913887">
        <ele>2232.5</ele>
        <time>2018-04-21T10:30:28.000Z</time>
      </trkpt>
      <trkpt lat="40.800781" lon="-3.913899">
        <ele>2232.5</ele>
        <time>2018-04-21T10:30:29.000Z</time>
      </trkpt>
      <trkpt lat="40.800778" lon="-3.913911">
        <ele>2232.5</ele>
        <time>2018-04-21T10:30:30.000Z</time>
      </trkpt>
      <trkpt lat="40.800774" lon="-3.913923">
        <ele>2232.5</ele>
        <time>2018-04-21T10:30:31.000Z</time>
      </trkpt>
      <trkpt lat="40.800771" lon="-3.913934">
        <ele>2232.5</ele>
        <time>2018-04-21T10:30:32.000Z</time>
      </trkpt>
      <trkpt lat="40.800768" lon="-3.913945">
        <ele>2232.4</ele>
        <time>2018-04-21T10:30:33.000Z</time>
      </trkpt>
      <trkpt lat="40.800765" lon="-3.913956">
        <ele>2232.4</ele>
        <time>2018-04-21T10:30:34.000Z</time>
      </trkpt>
      <trkpt lat="40.800763" lon="-3.913966">
        <ele>2232.4</ele>
        <time>2018-04-21T10:30:35.000Z</time>
      </trkpt>
      <trkpt lat="40.800761" lon="-3.913977">
        <ele>2232.4</ele>
        <time>2018-04-21T10:30:36.000Z</time>
      </trkpt>
      <trkpt lat="40.800759" lon="-3.913988">
        <ele>2232.4</ele>
        <time>2018-04-21T10:30:37.000Z</time>
      </trkpt>
      <trkpt lat="40.800757" lon="-3.913998">
        <ele>2232.4</ele>
        <time>2018-04-21T10:30:38.000Z</time>
      </trkpt>
      <trkpt lat="40.800755" lon="-3.914009">
        <ele>2232.4</ele>
        <time>2018-04-21T10:30:39.000Z</time>
      </trkpt>
      <trkpt lat="40.800754" lon="-3.91402">
        <ele>2232.4</ele>
        <time>2018-04-21T10:30:40.000Z</time>
      </trkpt>
      <trkpt lat="40.800753" lon="-3.914032">
        <ele>2232.5</ele>
        <time>2018-04-21T10:30:41.000Z</time>
      </trkpt>
      <trkpt lat="40.800752" lon="-3.914044">
        <ele>2232.5</ele>
        <time>2018-04-21T10:30:42.000Z</time>
      </trkpt>
      <trkpt lat="40.800751" lon="-3.914055">
        <ele>2232.5</ele>
        <time>2018-04-21T10:30:43.000Z</time>
      </trkpt>
      <trkpt lat="40.800751" lon="-3.914068">
        <ele>2232.5</ele>
        <time>2018-04-21T10:30:44.000Z</time>
      </trkpt>
      <trkpt lat="40.80075" lon="-3.91408">
        <ele>2232.6</ele>
        <time>2018-04-21T10:30:45.000Z</time>
      </trkpt>
      <trkpt lat="40.80075" lon="-3.914092">
        <ele>2232.6</ele>
        <time>2018-04-21T10:30:46.000Z</time>
      </trkpt>
      <trkpt lat="40.80075" lon="-3.914103">
        <ele>2232.6</ele>
        <time>2018-04-21T10:30:47.000Z</time>
      </trkpt>
      <trkpt lat="40.80075" lon="-3.914115">
        <ele>2232.7</ele>
        <time>2018-04-21T10:30:48.000Z</time>
      </trkpt>
      <trkpt lat="40.80075" lon="-3.914127">
        <ele>2232.7</ele>
        <time>2018-04-21T10:30:49.000Z</time>
      </trkpt>
      <trkpt lat="40.80075" lon="-3.914137">
        <ele>2232.7</ele>
        <time>2018-04-21T10:30:50.000Z</time>
      </trkpt>
      <trkpt lat="40.80075" lon="-3.914148">
        <ele>2232.7</ele>
        <time>2018-04-21T10:30:51.000Z</time>
      </trkpt>
      <trkpt lat="40.80075" lon="-3.914157">
        <ele>2232.8</ele>
        <time>2018-04-21T10:30:52.000Z</time>
      </trkpt>
      <trkpt lat="40.80075" lon="-3.914166">
        <ele>2232.8</ele>
        <time>2018-04-21T10:30:53.000Z</time>
      </trkpt>
      <trkpt lat="40.80075" lon="-3.914173">
        <ele>2232.8</ele>
        <time>2018-04-21T10:30:54.000Z</time>
      </trkpt>
      <trkpt lat="40.800749" lon="-3.914179">
        <ele>2232.7</ele>
        <time>2018-04-21T10:30:55.000Z</time>
      </trkpt>
      <trkpt lat="40.800749" lon="-3.914185">
        <ele>2232.7</ele>
        <time>2018-04-21T10:30:56.000Z</time>
      </trkpt>
      <trkpt lat="40.800747" lon="-3.914191">
        <ele>2232.6</ele>
        <time>2018-04-21T10:30:57.000Z</time>
      </trkpt>
      <trkpt lat="40.800746" lon="-3.914198">
        <ele>2232.6</ele>
        <time>2018-04-21T10:30:58.000Z</time>
      </trkpt>
      <trkpt lat="40.800743" lon="-3.914207">
        <ele>2232.5</ele>
        <time>2018-04-21T10:30:59.000Z</time>
      </trkpt>
      <trkpt lat="40.80074" lon="-3.914218">
        <ele>2232.4</ele>
        <time>2018-04-21T10:31:00.000Z</time>
      </trkpt>
      <trkpt lat="40.800736" lon="-3.914229">
        <ele>2232.2</ele>
        <time>2018-04-21T10:31:01.000Z</time>
      </trkpt>
      <trkpt lat="40.800732" lon="-3.914242">
        <ele>2232.1</ele>
        <time>2018-04-21T10:31:02.000Z</time>
      </trkpt>
      <trkpt lat="40.800729" lon="-3.914254">
        <ele>2232.0</ele>
        <time>2018-04-21T10:31:03.000Z</time>
      </trkpt>
      <trkpt lat="40.800725" lon="-3.914266">
        <ele>2231.9</ele>
        <time>2018-04-21T10:31:04.000Z</time>
      </trkpt>
      <trkpt lat="40.800722" lon="-3.914276">
        <ele>2231.8</ele>
        <time>2018-04-21T10:31:05.000Z</time>
      </trkpt>
      <trkpt lat="40.800719" lon="-3.914285">
        <ele>2231.7</ele>
        <time>2018-04-21T10:31:06.000Z</time>
      </trkpt>
      <trkpt lat="40.800718" lon="-3.914291">
        <ele>2231.6</ele>
        <time>2018-04-21T10:31:07.000Z</time>
      </trkpt>
      <trkpt lat="40.800717" lon="-3.914295">
        <ele>2231.6</ele>
        <time>2018-04-21T10:31:08.000Z</time>
      </trkpt>
      <trkpt lat="40.800717" lon="-3.914297">
        <ele>2231.6</ele>
        <time>2018-04-21T10:31:09.000Z</time>
      </trkpt>
      <trkpt lat="40.800716" lon="-3.914299">
        <ele>2231.5</ele>
        <time>2018-04-21T10:31:10.000Z</time>
      </trkpt>
      <trkpt lat="40.800715" lon="-3.914302">
        <ele>2231.5</ele>
        <time>2018-04-21T10:31:11.000Z</time>
      </trkpt>
      <trkpt lat="40.800713" lon="-3.914307">
        <ele>2231.4</ele>
        <time>2018-04-21T10:31:12.000Z</time>
      </trkpt>
      <trkpt lat="40.800709" lon="-3.914315">
        <ele>2231.3</ele>
        <time>2018-04-21T10:31:13.000Z</time>
      </trkpt>
      <trkpt lat="40.800704" lon="-3.914326">
        <ele>2231.2</ele>
        <time>2018-04-21T10:31:14.000Z</time>
      </trkpt>
      <trkpt lat="40.800699" lon="-3.914339">
        <ele>2231.1</ele>
        <time>2018-04-21T10:31:15.000Z</time>
      </trkpt>
      <trkpt lat="40.800693" lon="-3.914354">
        <ele>2230.9</ele>
        <time>2018-04-21T10:31:16.000Z</time>
      </trkpt>
      <trkpt lat="40.800688" lon="-3.91437">
        <ele>2230.7</ele>
        <time>2018-04-21T10:31:17.000Z</time>
      </trkpt>
      <trkpt lat="40.800684" lon="-3.914387">
        <ele>2230.6</ele>
        <time>2018-04-21T10:31:18.000Z</time>
      </trkpt>
      <trkpt lat="40.80068" lon="-3.914403">
        <ele>2230.4</ele>
        <time>2018-04-21T10:31:19.000Z</time>
      </trkpt>
      <trkpt lat="40.800675" lon="-3.914418">
        <ele>2230.3</ele>
        <time>2018-04-21T10:31:20.000Z</time>
      </trkpt>
      <trkpt lat="40.80067" lon="-3.91443">
        <ele>2230.1</ele>
        <time>2018-04-21T10:31:21.000Z</time>
      </trkpt>
      <trkpt lat="40.800664" lon="-3.914439">
        <ele>2230.0</ele>
        <time>2018-04-21T10:31:22.000Z</time>
      </trkpt>
      <trkpt lat="40.800657" lon="-3.914446">
        <ele>2229.9</ele>
        <time>2018-04-21T10:31:23.000Z</time>
      </trkpt>
      <trkpt lat="40.800649" lon="-3.914452">
        <ele>2229.7</ele>
        <time>2018-04-21T10:31:24.000Z</time>
      </trkpt>
      <trkpt lat="40.800642" lon="-3.914458">
        <ele>2229.6</ele>
        <time>2018-04-21T10:31:25.000Z</time>
      </trkpt>
      <trkpt lat="40.800635" lon="-3.914466">
        <ele>2229.4</ele>
        <time>2018-04-21T10:31:26.000Z</time>
      </trkpt>
      <trkpt lat="40.800629" lon="-3.914474">
        <ele>2229.3</ele>
        <time>2018-04-21T10:31:27.000Z</time>
      </trkpt>
      <trkpt lat="40.800623" lon="-3.914483">
        <ele>2229.2</ele>
        <time>2018-04-21T10:31:28.000Z</time>
      </trkpt>
      <trkpt lat="40.800617" lon="-3.914494">
        <ele>2229.0</ele>
        <time>2018-04-21T10:31:29.000Z</time>
      </trkpt>
      <trkpt lat="40.800611" lon="-3.914505">
        <ele>2228.9</ele>
        <time>2018-04-21T10:31:30.000Z</time>
      </trkpt>
      <trkpt lat="40.800606" lon="-3.914517">
        <ele>2228.7</ele>
        <time>2018-04-21T10:31:31.000Z</time>
      </trkpt>
      <trkpt lat="40.800602" lon="-3.91453">
        <ele>2228.6</ele>
        <time>2018-04-21T10:31:32.000Z</time>
      </trkpt>
      <trkpt lat="40.800597" lon="-3.914543">
        <ele>2228.5</ele>
        <time>2018-04-21T10:31:33.000Z</time>
      </trkpt>
      <trkpt lat="40.800593" lon="-3.914557">
        <ele>2228.3</ele>
        <time>2018-04-21T10:31:34.000Z</time>
      </trkpt>
      <trkpt lat="40.800589" lon="-3.914571">
        <ele>2228.2</ele>
        <time>2018-04-21T10:31:35.000Z</time>
      </trkpt>
      <trkpt lat="40.800585" lon="-3.914585">
        <ele>2228.1</ele>
        <time>2018-04-21T10:31:36.000Z</time>
      </trkpt>
      <trkpt lat="40.800581" lon="-3.9146">
        <ele>2227.9</ele>
        <time>2018-04-21T10:31:37.000Z</time>
      </trkpt>
      <trkpt lat="40.800578" lon="-3.914614">
        <ele>2227.8</ele>
        <time>2018-04-21T10:31:38.000Z</time>
      </trkpt>
      <trkpt lat="40.800575" lon="-3.914629">
        <ele>2227.7</ele>
        <time>2018-04-21T10:31:39.000Z</time>
      </trkpt>
      <trkpt lat="40.800572" lon="-3.914643">
        <ele>2227.6</ele>
        <time>2018-04-21T10:31:40.000Z</time>
      </trkpt>
      <trkpt lat="40.80057" lon="-3.914658">
        <ele>2227.4</ele>
        <time>2018-04-21T10:31:41.000Z</time>
      </trkpt>
      <trkpt lat="40.800567" lon="-3.914672">
        <ele>2227.3</ele>
        <time>2018-04-21T10:31:42.000Z</time>
      </trkpt>
      <trkpt lat="40.800565" lon="-3.914686">
        <ele>2227.2</ele>
        <time>2018-04-21T10:31:43.000Z</time>
      </trkpt>
      <trkpt lat="40.800562" lon="-3.914699">
        <ele>2227.1</ele>
        <time>2018-04-21T10:31:44.000Z</time>
      </trkpt>
      <trkpt lat="40.80056" lon="-3.914712">
        <ele>2227.0</ele>
        <time>2018-04-21T10:31:45.000Z</time>
      </trkpt>
      <trkpt lat="40.800558" lon="-3.914725">
        <ele>2226.9</ele>
        <time>2018-04-21T10:31:46.000Z</time>
      </trkpt>
      <trkpt lat="40.800556" lon="-3.914737">
        <ele>2226.8</ele>
        <time>2018-04-21T10:31:47.000Z</time>
      </trkpt>
      <trkpt lat="40.800555" lon="-3.914748">
        <ele>2226.7</ele>
        <time>2018-04-21T10:31:48.000Z</time>
      </trkpt>
      <trkpt lat="40.800553" lon="-3.91476">
        <ele>2226.6</ele>
        <time>2018-04-21T10:31:49.000Z</time>
      </trkpt>
      <trkpt lat="40.800551" lon="-3.914771">
        <ele>2226.6</ele>
        <time>2018-04-21T10:31:50.000Z</time>
      </trkpt>
      <trkpt lat="40.80055" lon="-3.914782">
        <ele>2226.5</ele>
        <time>2018-04-21T10:31:51.000Z</time>
      </trkpt>
      <trkpt lat="40.800548" lon="-3.914793">
        <ele>2226.4</ele>
        <time>2018-04-21T10:31:52.000Z</time>
      </trkpt>
      <trkpt lat="40.800547" lon="-3.914804">
        <ele>2226.3</ele>
        <time>2018-04-21T10:31:53.000Z</time>
      </trkpt>
      <trkpt lat="40.800545" lon="-3.914814">
        <ele>2226.2</ele>
        <time>2018-04-21T10:31:54.000Z</time>
      </trkpt>
      <trkpt lat="40.800543" lon="-3.914824">
        <ele>2226.2</ele>
        <time>2018-04-21T10:31:55.000Z</time>
      </trkpt>
      <trkpt lat="40.800542" lon="-3.914835">
        <ele>2226.1</ele>
        <time>2018-04-21T10:31:56.000Z</time>
      </trkpt>
      <trkpt lat="40.80054" lon="-3.914845">
        <ele>2226.0</ele>
        <time>2018-04-21T10:31:57.000Z</time>
      </trkpt>
      <trkpt lat="40.800539" lon="-3.914855">
        <ele>2225.9</ele>
        <time>2018-04-21T10:31:58.000Z</time>
      </trkpt>
      <trkpt lat="40.800537" lon="-3.914865">
        <ele>2225.8</ele>
        <time>2018-04-21T10:31:59.000Z</time>
      </trkpt>
      <trkpt lat="40.800535" lon="-3.914875">
        <ele>2225.8</ele>
        <time>2018-04-21T10:32:00.000Z</time>
      </trkpt>
      <trkpt lat="40.800534" lon="-3.914886">
        <ele>2225.7</ele>
        <time>2018-04-21T10:32:01.000Z</time>
      </trkpt>
      <trkpt lat="40.800532" lon="-3.914896">
        <ele>2225.6</ele>
        <time>2018-04-21T10:32:02.000Z</time>
      </trkpt>
      <trkpt lat="40.80053" lon="-3.914906">
        <ele>2225.5</ele>
        <time>2018-04-21T10:32:03.000Z</time>
      </trkpt>
      <trkpt lat="40.800528" lon="-3.914917">
        <ele>2225.4</ele>
        <time>2018-04-21T10:32:04.000Z</time>
      </trkpt>
      <trkpt lat="40.800527" lon="-3.914927">
        <ele>2225.4</ele>
        <time>2018-04-21T10:32:05.000Z</time>
      </trkpt>
      <trkpt lat="40.800526" lon="-3.914937">
        <ele>2225.3</ele>
        <time>2018-04-21T10:32:06.000Z</time>
      </trkpt>
      <trkpt lat="40.800525" lon="-3.914947">
        <ele>2225.2</ele>
        <time>2018-04-21T10:32:07.000Z</time>
      </trkpt>
      <trkpt lat="40.800525" lon="-3.914957">
        <ele>2225.2</ele>
        <time>2018-04-21T10:32:08.000Z</time>
      </trkpt>
      <trkpt lat="40.800526" lon="-3.914967">
        <ele>2225.1</ele>
        <time>2018-04-21T10:32:09.000Z</time>
      </trkpt>
      <trkpt lat="40.800528" lon="-3.914976">
        <ele>2225.1</ele>
        <time>2018-04-21T10:32:10.000Z</time>
      </trkpt>
      <trkpt lat="40.800531" lon="-3.914986">
        <ele>2225.1</ele>
        <time>2018-04-21T10:32:11.000Z</time>
      </trkpt>
      <trkpt lat="40.800534" lon="-3.914995">
        <ele>2225.1</ele>
        <time>2018-04-21T10:32:12.000Z</time>
      </trkpt>
      <trkpt lat="40.800538" lon="-3.915004">
        <ele>2225.1</ele>
        <time>2018-04-21T10:32:13.000Z</time>
      </trkpt>
      <trkpt lat="40.800542" lon="-3.915014">
        <ele>2225.1</ele>
        <time>2018-04-21T10:32:14.000Z</time>
      </trkpt>
      <trkpt lat="40.800545" lon="-3.915024">
        <ele>2225.0</ele>
        <time>2018-04-21T10:32:15.000Z</time>
      </trkpt>
      <trkpt lat="40.800548" lon="-3.915036">
        <ele>2225.0</ele>
        <time>2018-04-21T10:32:16.000Z</time>
      </trkpt>
      <trkpt lat="40.80055" lon="-3.915048">
        <ele>2225.0</ele>
        <time>2018-04-21T10:32:17.000Z</time>
      </trkpt>
      <trkpt lat="40.800551" lon="-3.91506">
        <ele>2224.9</ele>
        <time>2018-04-21T10:32:18.000Z</time>
      </trkpt>
      <trkpt lat="40.800552" lon="-3.915071">
        <ele>2224.8</ele>
        <time>2018-04-21T10:32:19.000Z</time>
      </trkpt>
      <trkpt lat="40.800551" lon="-3.915081">
        <ele>2224.8</ele>
        <time>2018-04-21T10:32:20.000Z</time>
      </trkpt>
      <trkpt lat="40.80055" lon="-3.91509">
        <ele>2224.7</ele>
        <time>2018-04-21T10:32:21.000Z</time>
      </trkpt>
      <trkpt lat="40.800549" lon="-3.915099">
        <ele>2224.6</ele>
        <time>2018-04-21T10:32:22.000Z</time>
      </trkpt>
      <trkpt lat="40.800547" lon="-3.915107">
        <ele>2224.5</ele>
        <time>2018-04-21T10:32:23.000Z</time>
      </trkpt>
      <trkpt lat="40.800544" lon="-3.915114">
        <ele>2224.5</ele>
        <time>2018-04-21T10:32:24.000Z</time>
      </trkpt>
      <trkpt lat="40.800542" lon="-3.915121">
        <ele>2224.4</ele>
        <time>2018-04-21T10:32:25.000Z</time>
      </trkpt>
      <trkpt lat="40.80054" lon="-3.915127">
        <ele>2224.3</ele>
        <time>2018-04-21T10:32:26.000Z</time>
      </trkpt>
      <trkpt lat="40.800538" lon="-3.915134">
        <ele>2224.3</ele>
        <time>2018-04-21T10:32:27.000Z</time>
      </trkpt>
      <trkpt lat="40.800536" lon="-3.91514">
        <ele>2224.2</ele>
        <time>2018-04-21T10:32:28.000Z</time>
      </trkpt>
      <trkpt lat="40.800535" lon="-3.915147">
        <ele>2224.2</ele>
        <time>2018-04-21T10:32:29.000Z</time>
      </trkpt>
      <trkpt lat="40.800535" lon="-3.915154">
        <ele>2224.1</ele>
        <time>2018-04-21T10:32:30.000Z</time>
      </trkpt>
      <trkpt lat="40.800535" lon="-3.915161">
        <ele>2224.1</ele>
        <time>2018-04-21T10:32:31.000Z</time>
      </trkpt>
      <trkpt lat="40.800534" lon="-3.915168">
        <ele>2224.0</ele>
        <time>2018-04-21T10:32:32.000Z</time>
      </trkpt>
      <trkpt lat="40.800534" lon="-3.915176">
        <ele>2224.0</ele>
        <time>2018-04-21T10:32:33.000Z</time>
      </trkpt>
      <trkpt lat="40.800534" lon="-3.915184">
        <ele>2223.9</ele>
        <time>2018-04-21T10:32:34.000Z</time>
      </trkpt>
      <trkpt lat="40.800534" lon="-3.915193">
        <ele>2223.9</ele>
        <time>2018-04-21T10:32:35.000Z</time>
      </trkpt>
      <trkpt lat="40.800533" lon="-3.915203">
        <ele>2223.8</ele>
        <time>2018-04-21T10:32:36.000Z</time>
      </trkpt>
      <trkpt lat="40.800531" lon="-3.915213">
        <ele>2223.7</ele>
        <time>2018-04-21T10:32:37.000Z</time>
      </trkpt>
      <trkpt lat="40.800529" lon="-3.915224">
        <ele>2223.6</ele>
        <time>2018-04-21T10:32:38.000Z</time>
      </trkpt>
      <trkpt lat="40.800526" lon="-3.915235">
        <ele>2223.5</ele>
        <time>2018-04-21T10:32:39.000Z</time>
      </trkpt>
      <trkpt lat="40.800523" lon="-3.915247">
        <ele>2223.4</ele>
        <time>2018-04-21T10:32:40.000Z</time>
      </trkpt>
      <trkpt lat="40.800519" lon="-3.915259">
        <ele>2223.3</ele>
        <time>2018-04-21T10:32:41.000Z</time>
      </trkpt>
      <trkpt lat="40.800515" lon="-3.915272">
        <ele>2223.2</ele>
        <time>2018-04-21T10:32:42.000Z</time>
      </trkpt>
      <trkpt lat="40.800511" lon="-3.915284">
        <ele>2223.1</ele>
        <time>2018-04-21T10:32:43.000Z</time>
      </trkpt>
      <trkpt lat="40.800507" lon="-3.915296">
        <ele>2223.0</ele>
        <time>2018-04-21T10:32:44.000Z</time>
      </trkpt>
      <trkpt lat="40.800503" lon="-3.915306">
        <ele>2222.9</ele>
        <time>2018-04-21T10:32:45.000Z</time>
      </trkpt>
      <trkpt lat="40.800501" lon="-3.915313">
        <ele>2222.8</ele>
        <time>2018-04-21T10:32:46.000Z</time>
      </trkpt>
      <trkpt lat="40.800501" lon="-3.915316">
        <ele>2222.8</ele>
        <time>2018-04-21T10:32:47.000Z</time>
      </trkpt>
      <trkpt lat="40.800501" lon="-3.915316">
        <ele>2222.8</ele>
        <time>2018-04-21T10:32:48.000Z</time>
      </trkpt>
      <trkpt lat="40.800502" lon="-3.915316">
        <ele>2222.8</ele>
        <time>2018-04-21T10:32:49.000Z</time>
      </trkpt>
      <trkpt lat="40.800502" lon="-3.915318">
        <ele>2222.8</ele>
        <time>2018-04-21T10:32:50.000Z</time>
      </trkpt>
      <trkpt lat="40.8005" lon="-3.915323">
        <ele>2222.7</ele>
        <time>2018-04-21T10:32:51.000Z</time>
      </trkpt>
      <trkpt lat="40.800496" lon="-3.915332">
        <ele>2222.7</ele>
        <time>2018-04-21T10:32:52.000Z</time>
      </trkpt>
      <trkpt lat="40.80049" lon="-3.915345">
        <ele>2222.5</ele>
        <time>2018-04-21T10:32:53.000Z</time>
      </trkpt>
      <trkpt lat="40.800483" lon="-3.915361">
        <ele>2222.4</ele>
        <time>2018-04-21T10:32:54.000Z</time>
      </trkpt>
      <trkpt lat="40.800477" lon="-3.915376">
        <ele>2222.2</ele>
        <time>2018-04-21T10:32:55.000Z</time>
      </trkpt>
      <trkpt lat="40.800471" lon="-3.915391">
        <ele>2222.1</ele>
        <time>2018-04-21T10:32:56.000Z</time>
      </trkpt>
      <trkpt lat="40.800467" lon="-3.915405">
        <ele>2222.0</ele>
        <time>2018-04-21T10:32:57.000Z</time>
      </trkpt>
      <trkpt lat="40.800463" lon="-3.915417">
        <ele>2221.9</ele>
        <time>2018-04-21T10:32:58.000Z</time>
      </trkpt>
      <trkpt lat="40.80046" lon="-3.915429">
        <ele>2221.8</ele>
        <time>2018-04-21T10:32:59.000Z</time>
      </trkpt>
      <trkpt lat="40.800458" lon="-3.915441">
        <ele>2221.7</ele>
        <time>2018-04-21T10:33:00.000Z</time>
      </trkpt>
      <trkpt lat="40.800456" lon="-3.915453">
        <ele>2221.6</ele>
        <time>2018-04-21T10:33:01.000Z</time>
      </trkpt>
      <trkpt lat="40.800455" lon="-3.915464">
        <ele>2221.6</ele>
        <time>2018-04-21T10:33:02.000Z</time>
      </trkpt>
      <trkpt lat="40.800454" lon="-3.915476">
        <ele>2221.5</ele>
        <time>2018-04-21T10:33:03.000Z</time>
      </trkpt>
      <trkpt lat="40.800453" lon="-3.915488">
        <ele>2221.4</ele>
        <time>2018-04-21T10:33:04.000Z</time>
      </trkpt>
      <trkpt lat="40.800452" lon="-3.915501">
        <ele>2221.4</ele>
        <time>2018-04-21T10:33:05.000Z</time>
      </trkpt>
      <trkpt lat="40.800451" lon="-3.915514">
        <ele>2221.3</ele>
        <time>2018-04-21T10:33:06.000Z</time>
      </trkpt>
      <trkpt lat="40.800449" lon="-3.915528">
        <ele>2221.2</ele>
        <time>2018-04-21T10:33:07.000Z</time>
      </trkpt>
      <trkpt lat="40.800448" lon="-3.915542">
        <ele>2221.1</ele>
        <time>2018-04-21T10:33:08.000Z</time>
      </trkpt>
      <trkpt lat="40.800446" lon="-3.915556">
        <ele>2221.0</ele>
        <time>2018-04-21T10:33:09.000Z</time>
      </trkpt>
      <trkpt lat="40.800444" lon="-3.91557">
        <ele>2220.9</ele>
        <time>2018-04-21T10:33:10.000Z</time>
      </trkpt>
      <trkpt lat="40.800442" lon="-3.915585">
        <ele>2220.9</ele>
        <time>2018-04-21T10:33:11.000Z</time>
      </trkpt>
      <trkpt lat="40.800439" lon="-3.9156">
        <ele>2220.8</ele>
        <time>2018-04-21T10:33:12.000Z</time>
      </trkpt>
      <trkpt lat="40.800436" lon="-3.915614">
        <ele>2220.7</ele>
        <time>2018-04-21T10:33:13.000Z</time>
      </trkpt>
      <trkpt lat="40.800432" lon="-3.915628">
        <ele>2220.6</ele>
        <time>2018-04-21T10:33:14.000Z</time>
      </trkpt>
      <trkpt lat="40.800428" lon="-3.915642">
        <ele>2220.5</ele>
        <time>2018-04-21T10:33:15.000Z</time>
      </trkpt>
      <trkpt lat="40.800423" lon="-3.915656">
        <ele>2220.4</ele>
        <time>2018-04-21T10:33:16.000Z</time>
      </trkpt>
      <trkpt lat="40.800418" lon="-3.91567">
        <ele>2220.3</ele>
        <time>2018-04-21T10:33:17.000Z</time>
      </trkpt>
      <trkpt lat="40.800413" lon="-3.915684">
        <ele>2220.2</ele>
        <time>2018-04-21T10:33:18.000Z</time>
      </trkpt>
      <trkpt lat="40.800408" lon="-3.915697">
        <ele>2220.1</ele>
        <time>2018-04-21T10:33:19.000Z</time>
      </trkpt>
      <trkpt lat="40.800402" lon="-3.91571">
        <ele>2220.0</ele>
        <time>2018-04-21T10:33:20.000Z</time>
      </trkpt>
      <trkpt lat="40.800397" lon="-3.915723">
        <ele>2219.9</ele>
        <time>2018-04-21T10:33:21.000Z</time>
      </trkpt>
      <trkpt lat="40.800391" lon="-3.915736">
        <ele>2219.8</ele>
        <time>2018-04-21T10:33:22.000Z</time>
      </trkpt>
      <trkpt lat="40.800385" lon="-3.915749">
        <ele>2219.8</ele>
        <time>2018-04-21T10:33:23.000Z</time>
      </trkpt>
      <trkpt lat="40.80038" lon="-3.915761">
        <ele>2219.7</ele>
        <time>2018-04-21T10:33:24.000Z</time>
      </trkpt>
      <trkpt lat="40.800374" lon="-3.915774">
        <ele>2219.6</ele>
        <time>2018-04-21T10:33:25.000Z</time>
      </trkpt>
      <trkpt lat="40.800369" lon="-3.915786">
        <ele>2219.5</ele>
        <time>2018-04-21T10:33:26.000Z</time>
      </trkpt>
      <trkpt lat="40.800364" lon="-3.915799">
        <ele>2219.5</ele>
        <time>2018-04-21T10:33:27.000Z</time>
      </trkpt>
      <trkpt lat="40.800359" lon="-3.915812">
        <ele>2219.4</ele>
        <time>2018-04-21T10:33:28.000Z</time>
      </trkpt>
      <trkpt lat="40.800355" lon="-3.915825">
        <ele>2219.3</ele>
        <time>2018-04-21T10:33:29.000Z</time>
      </trkpt>
      <trkpt lat="40.800351" lon="-3.915839">
        <ele>2219.3</ele>
        <time>2018-04-21T10:33:30.000Z</time>
      </trkpt>
      <trkpt lat="40.800348" lon="-3.915853">
        <ele>2219.2</ele>
        <time>2018-04-21T10:33:31.000Z</time>
      </trkpt>
      <trkpt lat="40.800345" lon="-3.915867">
        <ele>2219.2</ele>
        <time>2018-04-21T10:33:32.000Z</time>
      </trkpt>
      <trkpt lat="40.800342" lon="-3.915882">
        <ele>2219.1</ele>
        <time>2018-04-21T10:33:33.000Z</time>
      </trkpt>
      <trkpt lat="40.80034" lon="-3.915898">
        <ele>2219.1</ele>
        <time>2018-04-21T10:33:34.000Z</time>
      </trkpt>
      <trkpt lat="40.800338" lon="-3.915913">
        <ele>2219.1</ele>
        <time>2018-04-21T10:33:35.000Z</time>
      </trkpt>
      <trkpt lat="40.800336" lon="-3.915929">
        <ele>2219.0</ele>
        <time>2018-04-21T10:33:36.000Z</time>
      </trkpt>
      <trkpt lat="40.800334" lon="-3.915945">
        <ele>2219.0</ele>
        <time>2018-04-21T10:33:37.000Z</time>
      </trkpt>
      <trkpt lat="40.800333" lon="-3.915962">
        <ele>2219.0</ele>
        <time>2018-04-21T10:33:38.000Z</time>
      </trkpt>
      <trkpt lat="40.800331" lon="-3.915978">
        <ele>2218.9</ele>
        <time>2018-04-21T10:33:39.000Z</time>
      </trkpt>
      <trkpt lat="40.800329" lon="-3.915993">
        <ele>2218.9</ele>
        <time>2018-04-21T10:33:40.000Z</time>
      </trkpt>
      <trkpt lat="40.800326" lon="-3.916009">
        <ele>2218.9</ele>
        <time>2018-04-21T10:33:41.000Z</time>
      </trkpt>
      <trkpt lat="40.800324" lon="-3.916025">
        <ele>2218.8</ele>
        <time>2018-04-21T10:33:42.000Z</time>
      </trkpt>
      <trkpt lat="40.800321" lon="-3.91604">
        <ele>2218.8</ele>
        <time>2018-04-21T10:33:43.000Z</time>
      </trkpt>
      <trkpt lat="40.800318" lon="-3.916055">
        <ele>2218.8</ele>
        <time>2018-04-21T10:33:44.000Z</time>
      </trkpt>
      <trkpt lat="40.800315" lon="-3.91607">
        <ele>2218.7</ele>
        <time>2018-04-21T10:33:45.000Z</time>
      </trkpt>
      <trkpt lat="40.800312" lon="-3.916085">
        <ele>2218.7</ele>
        <time>2018-04-21T10:33:46.000Z</time>
      </trkpt>
      <trkpt lat="40.80031" lon="-3.9161">
        <ele>2218.7</ele>
        <time>2018-04-21T10:33:47.000Z</time>
      </trkpt>
      <trkpt lat="40.800307" lon="-3.916114">
        <ele>2218.7</ele>
        <time>2018-04-21T10:33:48.000Z</time>
      </trkpt>
      <trkpt lat="40.800305" lon="-3.916129">
        <ele>2218.6</ele>
        <time>2018-04-21T10:33:49.000Z</time>
      </trkpt>
      <trkpt lat="40.800304" lon="-3.916143">
        <ele>2218.6</ele>
        <time>2018-04-21T10:33:50.000Z</time>
      </trkpt>
      <trkpt lat="40.800302" lon="-3.916157">
        <ele>2218.6</ele>
        <time>2018-04-21T10:33:51.000Z</time>
      </trkpt>
      <trkpt lat="40.800301" lon="-3.916171">
        <ele>2218.6</ele>
        <time>2018-04-21T10:33:52.000Z</time>
      </trkpt>
      <trkpt lat="40.800301" lon="-3.916185">
        <ele>2218.6</ele>
        <time>2018-04-21T10:33:53.000Z</time>
      </trkpt>
      <trkpt lat="40.8003" lon="-3.916198">
        <ele>2218.5</ele>
        <time>2018-04-21T10:33:54.000Z</time>
      </trkpt>
      <trkpt lat="40.8003" lon="-3.916212">
        <ele>2218.5</ele>
        <time>2018-04-21T10:33:55.000Z</time>
      </trkpt>
      <trkpt lat="40.800301" lon="-3.916225">
        <ele>2218.5</ele>
        <time>2018-04-21T10:33:56.000Z</time>
      </trkpt>
      <trkpt lat="40.800301" lon="-3.916238">
        <ele>2218.5</ele>
        <time>2018-04-21T10:33:57.000Z</time>
      </trkpt>
      <trkpt lat="40.800302" lon="-3.916251">
        <ele>2218.5</ele>
        <time>2018-04-21T10:33:58.000Z</time>
      </trkpt>
      <trkpt lat="40.800303" lon="-3.916263">
        <ele>2218.4</ele>
        <time>2018-04-21T10:33:59.000Z</time>
      </trkpt>
      <trkpt lat="40.800304" lon="-3.916276">
        <ele>2218.4</ele>
        <time>2018-04-21T10:34:00.000Z</time>
      </trkpt>
      <trkpt lat="40.800305" lon="-3.916288">
        <ele>2218.4</ele>
        <time>2018-04-21T10:34:01.000Z</time>
      </trkpt>
      <trkpt lat="40.800306" lon="-3.9163">
        <ele>2218.4</ele>
        <time>2018-04-21T10:34:02.000Z</time>
      </trkpt>
      <trkpt lat="40.800308" lon="-3.916312">
        <ele>2218.3</ele>
        <time>2018-04-21T10:34:03.000Z</time>
      </trkpt>
      <trkpt lat="40.80031" lon="-3.916323">
        <ele>2218.3</ele>
        <time>2018-04-21T10:34:04.000Z</time>
      </trkpt>
      <trkpt lat="40.800311" lon="-3.916335">
        <ele>2218.3</ele>
        <time>2018-04-21T10:34:05.000Z</time>
      </trkpt>
      <trkpt lat="40.800313" lon="-3.916346">
        <ele>2218.3</ele>
        <time>2018-04-21T10:34:06.000Z</time>
      </trkpt>
      <trkpt lat="40.800315" lon="-3.916356">
        <ele>2218.3</ele>
        <time>2018-04-21T10:34:07.000Z</time>
      </trkpt>
      <trkpt lat="40.800317" lon="-3.916367">
        <ele>2218.2</ele>
        <time>2018-04-21T10:34:08.000Z</time>
      </trkpt>
      <trkpt lat="40.800319" lon="-3.916377">
        <ele>2218.2</ele>
        <time>2018-04-21T10:34:09.000Z</time>
      </trkpt>
      <trkpt lat="40.80032" lon="-3.916387">
        <ele>2218.2</ele>
        <time>2018-04-21T10:34:10.000Z</time>
      </trkpt>
      <trkpt lat="40.800322" lon="-3.916396">
        <ele>2218.2</ele>
        <time>2018-04-21T10:34:11.000Z</time>
      </trkpt>
      <trkpt lat="40.800323" lon="-3.916404">
        <ele>2218.1</ele>
        <time>2018-04-21T10:34:12.000Z</time>
      </trkpt>
      <trkpt lat="40.800323" lon="-3.916412">
        <ele>2218.1</ele>
        <time>2018-04-21T10:34:13.000Z</time>
      </trkpt>
      <trkpt lat="40.800324" lon="-3.916419">
        <ele>2218.1</ele>
        <time>2018-04-21T10:34:14.000Z</time>
      </trkpt>
      <trkpt lat="40.800324" lon="-3.916425">
        <ele>2218.1</ele>
        <time>2018-04-21T10:34:15.000Z</time>
      </trkpt>
      <trkpt lat="40.800323" lon="-3.91643">
        <ele>2218.1</ele>
        <time>2018-04-21T10:34:16.000Z</time>
      </trkpt>
      <trkpt lat="40.800322" lon="-3.916433">
        <ele>2218.1</ele>
        <time>2018-04-21T10:34:17.000Z</time>
      </trkpt>
      <trkpt lat="40.80032" lon="-3.916436">
        <ele>2218.1</ele>
        <time>2018-04-21T10:34:18.000Z</time>
      </trkpt>
      <trkpt lat="40.800317" lon="-3.916438">
        <ele>2218.1</ele>
        <time>2018-04-21T10:34:19.000Z</time>
      </trkpt>
      <trkpt lat="40.800314" lon="-3.916439">
        <ele>2218.1</ele>
        <time>2018-04-21T10:34:20.000Z</time>
      </trkpt>
      <trkpt lat="40.80031" lon="-3.916439">
        <ele>2218.1</ele>
        <time>2018-04-21T10:34:21.000Z</time>
      </trkpt>
      <trkpt lat="40.800305" lon="-3.916439">
        <ele>2218.2</ele>
        <time>2018-04-21T10:34:22.000Z</time>
      </trkpt>
      <trkpt lat="40.8003" lon="-3.916439">
        <ele>2218.2</ele>
        <time>2018-04-21T10:34:23.000Z</time>
      </trkpt>
      <trkpt lat="40.800294" lon="-3.916438">
        <ele>2218.2</ele>
        <time>2018-04-21T10:34:24.000Z</time>
      </trkpt>
      <trkpt lat="40.800287" lon="-3.916438">
        <ele>2218.2</ele>
        <time>2018-04-21T10:34:25.000Z</time>
      </trkpt>
      <trkpt lat="40.800279" lon="-3.916438">
        <ele>2218.3</ele>
        <time>2018-04-21T10:34:26.000Z</time>
      </trkpt>
      <trkpt lat="40.800271" lon="-3.916437">
        <ele>2218.3</ele>
        <time>2018-04-21T10:34:27.000Z</time>
      </trkpt>
      <trkpt lat="40.800263" lon="-3.916438">
        <ele>2218.3</ele>
        <time>2018-04-21T10:34:28.000Z</time>
      </trkpt>
      <trkpt lat="40.800255" lon="-3.916438">
        <ele>2218.4</ele>
        <time>2018-04-21T10:34:29.000Z</time>
      </trkpt>
      <trkpt lat="40.800247" lon="-3.916439">
        <ele>2218.4</ele>
        <time>2018-04-21T10:34:30.000Z</time>
      </trkpt>
      <trkpt lat="40.800239" lon="-3.916441">
        <ele>2218.4</ele>
        <time>2018-04-21T10:34:31.000Z</time>
      </trkpt>
      <trkpt lat="40.800231" lon="-3.916444">
        <ele>2218.5</ele>
        <time>2018-04-21T10:34:32.000Z</time>
      </trkpt>
      <trkpt lat="40.800225" lon="-3.916447">
        <ele>2218.5</ele>
        <time>2018-04-21T10:34:33.000Z</time>
      </trkpt>
      <trkpt lat="40.800219" lon="-3.916452">
        <ele>2218.5</ele>
        <time>2018-04-21T10:34:34.000Z</time>
      </trkpt>
      <trkpt lat="40.800215" lon="-3.916457">
        <ele>2218.5</ele>
        <time>2018-04-21T10:34:35.000Z</time>
      </trkpt>
      <trkpt lat="40.800211" lon="-3.916464">
        <ele>2218.5</ele>
        <time>2018-04-21T10:34:36.000Z</time>
      </trkpt>
      <trkpt lat="40.800209" lon="-3.916471">
        <ele>2218.6</ele>
        <time>2018-04-21T10:34:37.000Z</time>
      </trkpt>
      <trkpt lat="40.800207" lon="-3.916479">
        <ele>2218.6</ele>
        <time>2018-04-21T10:34:38.000Z</time>
      </trkpt>
      <trkpt lat="40.800205" lon="-3.916489">
        <ele>2218.6</ele>
        <time>2018-04-21T10:34:39.000Z</time>
      </trkpt>
      <trkpt lat="40.800204" lon="-3.916498">
        <ele>2218.6</ele>
        <time>2018-04-21T10:34:40.000Z</time>
      </trkpt>
      <trkpt lat="40.800203" lon="-3.916509">
        <ele>2218.6</ele>
        <time>2018-04-21T10:34:41.000Z</time>
      </trkpt>
      <trkpt lat="40.800202" lon="-3.91652">
        <ele>2218.6</ele>
        <time>2018-04-21T10:34:42.000Z</time>
      </trkpt>
      <trkpt lat="40.800201" lon="-3.916531">
        <ele>2218.6</ele>
        <time>2018-04-21T10:34:43.000Z</time>
      </trkpt>
      <trkpt lat="40.800199" lon="-3.916543">
        <ele>2218.6</ele>
        <time>2018-04-21T10:34:44.000Z</time>
      </trkpt>
      <trkpt lat="40.800198" lon="-3.916555">
        <ele>2218.6</ele>
        <time>2018-04-21T10:34:45.000Z</time>
      </trkpt>
      <trkpt lat="40.800197" lon="-3.916565">
        <ele>2218.6</ele>
        <time>2018-04-21T10:34:46.000Z</time>
      </trkpt>
      <trkpt lat="40.800197" lon="-3.916575">
        <ele>2218.6</ele>
        <time>2018-04-21T10:34:47.000Z</time>
      </trkpt>
      <trkpt lat="40.8002" lon="-3.916583">
        <ele>2218.6</ele>
        <time>2018-04-21T10:34:48.000Z</time>
      </trkpt>
      <trkpt lat="40.800204" lon="-3.916589">
        <ele>2218.6</ele>
        <time>2018-04-21T10:34:49.000Z</time>
      </trkpt>
      <trkpt lat="40.800209" lon="-3.916594">
        <ele>2218.5</ele>
        <time>2018-04-21T10:34:50.000Z</time>
      </trkpt>
      <trkpt lat="40.800215" lon="-3.916598">
        <ele>2218.5</ele>
        <time>2018-04-21T10:34:51.000Z</time>
      </trkpt>
      <trkpt lat="40.80022" lon="-3.916602">
        <ele>2218.4</ele>
        <time>2018-04-21T10:34:52.000Z</time>
      </trkpt>
      <trkpt lat="40.800223" lon="-3.916608">
        <ele>2218.4</ele>
        <time>2018-04-21T10:34:53.000Z</time>
      </trkpt>
      <trkpt lat="40.800223" lon="-3.916615">
        <ele>2218.4</ele>
        <time>2018-04-21T10:34:54.000Z</time>
      </trkpt>
      <trkpt lat="40.800222" lon="-3.916624">
        <ele>2218.4</ele>
        <time>2018-04-21T10:34:55.000Z</time>
      </trkpt>
      <trkpt lat="40.800219" lon="-3.916635">
        <ele>2218.4</ele>
        <time>2018-04-21T10:34:56.000Z</time>
      </trkpt>
      <trkpt lat="40.800215" lon="-3.916648">
        <ele>2218.5</ele>
        <time>2018-04-21T10:34:57.000Z</time>
      </trkpt>
      <trkpt lat="40.800211" lon="-3.916661">
        <ele>2218.5</ele>
        <time>2018-04-21T10:34:58.000Z</time>
      </trkpt>
      <trkpt lat="40.800207" lon="-3.916676">
        <ele>2218.5</ele>
        <time>2018-04-21T10:34:59.000Z</time>
      </trkpt>
      <trkpt lat="40.800203" lon="-3.916691">
        <ele>2218.5</ele>
        <time>2018-04-21T10:35:00.000Z</time>
      </trkpt>
      <trkpt lat="40.800198" lon="-3.916704">
        <ele>2218.5</ele>
        <time>2018-04-21T10:35:01.000Z</time>
      </trkpt>
      <trkpt lat="40.800194" lon="-3.916713">
        <ele>2218.5</ele>
        <time>2018-04-21T10:35:02.000Z</time>
      </trkpt>
      <trkpt lat="40.800188" lon="-3.916717">
        <ele>2218.5</ele>
        <time>2018-04-21T10:35:03.000Z</time>
      </trkpt>
      <trkpt lat="40.800182" lon="-3.916718">
        <ele>2218.5</ele>
        <time>2018-04-21T10:35:04.000Z</time>
      </trkpt>
      <trkpt lat="40.800176" lon="-3.916717">
        <ele>2218.6</ele>
        <time>2018-04-21T10:35:05.000Z</time>
      </trkpt>
      <trkpt lat="40.80017" lon="-3.916716">
        <ele>2218.6</ele>
        <time>2018-04-21T10:35:06.000Z</time>
      </trkpt>
      <trkpt lat="40.800163" lon="-3.916717">
        <ele>2218.7</ele>
        <time>2018-04-21T10:35:07.000Z</time>
      </trkpt>
      <trkpt lat="40.800158" lon="-3.916722">
        <ele>2218.7</ele>
        <time>2018-04-21T10:35:08.000Z</time>
      </trkpt>
      <trkpt lat="40.800153" lon="-3.91673">
        <ele>2218.7</ele>
        <time>2018-04-21T10:35:09.000Z</time>
      </trkpt>
      <trkpt lat="40.800149" lon="-3.916741">
        <ele>2218.7</ele>
        <time>2018-04-21T10:35:10.000Z</time>
      </trkpt>
      <trkpt lat="40.800146" lon="-3.916753">
        <ele>2218.7</ele>
        <time>2018-04-21T10:35:11.000Z</time>
      </trkpt>
      <trkpt lat="40.800145" lon="-3.916766">
        <ele>2218.7</ele>
        <time>2018-04-21T10:35:12.000Z</time>
      </trkpt>
      <trkpt lat="40.800146" lon="-3.916779">
        <ele>2218.6</ele>
        <time>2018-04-21T10:35:13.000Z</time>
      </trkpt>
      <trkpt lat="40.800147" lon="-3.916793">
        <ele>2218.6</ele>
        <time>2018-04-21T10:35:14.000Z</time>
      </trkpt>
      <trkpt lat="40.80015" lon="-3.916808">
        <ele>2218.5</ele>
        <time>2018-04-21T10:35:15.000Z</time>
      </trkpt>
      <trkpt lat="40.800152" lon="-3.916823">
        <ele>2218.5</ele>
        <time>2018-04-21T10:35:16.000Z</time>
      </trkpt>
      <trkpt lat="40.800155" lon="-3.916837">
        <ele>2218.4</ele>
        <time>2018-04-21T10:35:17.000Z</time>
      </trkpt>
      <trkpt lat="40.800157" lon="-3.916852">
        <ele>2218.4</ele>
        <time>2018-04-21T10:35:18.000Z</time>
      </trkpt>
      <trkpt lat="40.800159" lon="-3.916866">
        <ele>2218.3</ele>
        <time>2018-04-21T10:35:19.000Z</time>
      </trkpt>
      <trkpt lat="40.80016" lon="-3.91688">
        <ele>2218.2</ele>
        <time>2018-04-21T10:35:20.000Z</time>
      </trkpt>
      <trkpt lat="40.80016" lon="-3.916893">
        <ele>2218.2</ele>
        <time>2018-04-21T10:35:21.000Z</time>
      </trkpt>
      <trkpt lat="40.800158" lon="-3.916905">
        <ele>2218.2</ele>
        <time>2018-04-21T10:35:22.000Z</time>
      </trkpt>
      <trkpt lat="40.800157" lon="-3.916917">
        <ele>2218.2</ele>
        <time>2018-04-21T10:35:23.000Z</time>
      </trkpt>
      <trkpt lat="40.800155" lon="-3.916929">
        <ele>2218.2</ele>
        <time>2018-04-21T10:35:24.000Z</time>
      </trkpt>
      <trkpt lat="40.800154" lon="-3.91694">
        <ele>2218.1</ele>
        <time>2018-04-21T10:35:25.000Z</time>
      </trkpt>
      <trkpt lat="40.800154" lon="-3.91695">
        <ele>2218.1</ele>
        <time>2018-04-21T10:35:26.000Z</time>
      </trkpt>
      <trkpt lat="40.800154" lon="-3.91696">
        <ele>2218.1</ele>
        <time>2018-04-21T10:35:27.000Z</time>
      </trkpt>
      <trkpt lat="40.800153" lon="-3.91697">
        <ele>2218.1</ele>
        <time>2018-04-21T10:35:28.000Z</time>
      </trkpt>
      <trkpt lat="40.800152" lon="-3.916981">
        <ele>2218.0</ele>
        <time>2018-04-21T10:35:29.000Z</time>
      </trkpt>
      <trkpt lat="40.80015" lon="-3.916991">
        <ele>2218.0</ele>
        <time>2018-04-21T10:35:30.000Z</time>
      </trkpt>
      <trkpt lat="40.800147" lon="-3.917002">
        <ele>2218.0</ele>
        <time>2018-04-21T10:35:31.000Z</time>
      </trkpt>
      <trkpt lat="40.800143" lon="-3.917014">
        <ele>2218.1</ele>
        <time>2018-04-21T10:35:32.000Z</time>
      </trkpt>
      <trkpt lat="40.800139" lon="-3.917026">
        <ele>2218.1</ele>
        <time>2018-04-21T10:35:33.000Z</time>
      </trkpt>
      <trkpt lat="40.800134" lon="-3.917038">
        <ele>2218.1</ele>
        <time>2018-04-21T10:35:34.000Z</time>
      </trkpt>
      <trkpt lat="40.800129" lon="-3.917051">
        <ele>2218.1</ele>
        <time>2018-04-21T10:35:35.000Z</time>
      </trkpt>
      <trkpt lat="40.800124" lon="-3.917064">
        <ele>2218.1</ele>
        <time>2018-04-21T10:35:36.000Z</time>
      </trkpt>
      <trkpt lat="40.800119" lon="-3.917077">
        <ele>2218.2</ele>
        <time>2018-04-21T10:35:37.000Z</time>
      </trkpt>
      <trkpt lat="40.800115" lon="-3.917091">
        <ele>2218.2</ele>
        <time>2018-04-21T10:35:38.000Z</time>
      </trkpt>
      <trkpt lat="40.800112" lon="-3.917106">
        <ele>2218.2</ele>
        <time>2018-04-21T10:35:39.000Z</time>
      </trkpt>
      <trkpt lat="40.800109" lon="-3.917121">
        <ele>2218.2</ele>
        <time>2018-04-21T10:35:40.000Z</time>
      </trkpt>
      <trkpt lat="40.800107" lon="-3.917136">
        <ele>2218.2</ele>
        <time>2018-04-21T10:35:41.000Z</time>
      </trkpt>
      <trkpt lat="40.800105" lon="-3.917151">
        <ele>2218.2</ele>
        <time>2018-04-21T10:35:42.000Z</time>
      </trkpt>
      <trkpt lat="40.800103" lon="-3.917166">
        <ele>2218.1</ele>
        <time>2018-04-21T10:35:43.000Z</time>
      </trkpt>
      <trkpt lat="40.800101" lon="-3.917182">
        <ele>2218.1</ele>
        <time>2018-04-21T10:35:44.000Z</time>
      </trkpt>
      <trkpt lat="40.8001" lon="-3.917197">
        <ele>2218.1</ele>
        <time>2018-04-21T10:35:45.000Z</time>
      </trkpt>
      <trkpt lat="40.800097" lon="-3.917213">
        <ele>2218.1</ele>
        <time>2018-04-21T10:35:46.000Z</time>
      </trkpt>
      <trkpt lat="40.800095" lon="-3.917228">
        <ele>2218.1</ele>
        <time>2018-04-21T10:35:47.000Z</time>
      </trkpt>
      <trkpt lat="40.800092" lon="-3.917243">
        <ele>2218.1</ele>
        <time>2018-04-21T10:35:48.000Z</time>
      </trkpt>
      <trkpt lat="40.800088" lon="-3.917258">
        <ele>2218.1</ele>
        <time>2018-04-21T10:35:49.000Z</time>
      </trkpt>
      <trkpt lat="40.800084" lon="-3.917273">
        <ele>2218.2</ele>
        <time>2018-04-21T10:35:50.000Z</time>
      </trkpt>
      <trkpt lat="40.80008" lon="-3.917287">
        <ele>2218.2</ele>
        <time>2018-04-21T10:35:51.000Z</time>
      </trkpt>
      <trkpt lat="40.800076" lon="-3.917302">
        <ele>2218.2</ele>
        <time>2018-04-21T10:35:52.000Z</time>
      </trkpt>
      <trkpt lat="40.800071" lon="-3.917317">
        <ele>2218.2</ele>
        <time>2018-04-21T10:35:53.000Z</time>
      </trkpt>
      <trkpt lat="40.800067" lon="-3.917332">
        <ele>2218.3</ele>
        <time>2018-04-21T10:35:54.000Z</time>
      </trkpt>
      <trkpt lat="40.800063" lon="-3.917347">
        <ele>2218.3</ele>
        <time>2018-04-21T10:35:55.000Z</time>
      </trkpt>
      <trkpt lat="40.800059" lon="-3.917362">
        <ele>2218.3</ele>
        <time>2018-04-21T10:35:56.000Z</time>
      </trkpt>
      <trkpt lat="40.800055" lon="-3.917377">
        <ele>2218.4</ele>
        <time>2018-04-21T10:35:57.000Z</time>
      </trkpt>
      <trkpt lat="40.800052" lon="-3.917393">
        <ele>2218.4</ele>
        <time>2018-04-21T10:35:58.000Z</time>
      </trkpt>
      <trkpt lat="40.80005" lon="-3.917409">
        <ele>2218.4</ele>
        <time>2018-04-21T10:35:59.000Z</time>
      </trkpt>
      <trkpt lat="40.800048" lon="-3.917425">
        <ele>2218.4</ele>
        <time>2018-04-21T10:36:00.000Z</time>
      </trkpt>
      <trkpt lat="40.800046" lon="-3.917441">
        <ele>2218.4</ele>
        <time>2018-04-21T10:36:01.000Z</time>
      </trkpt>
      <trkpt lat="40.800045" lon="-3.917457">
        <ele>2218.4</ele>
        <time>2018-04-21T10:36:02.000Z</time>
      </trkpt>
      <trkpt lat="40.800044" lon="-3.917472">
        <ele>2218.4</ele>
        <time>2018-04-21T10:36:03.000Z</time>
      </trkpt>
      <trkpt lat="40.800044" lon="-3.917487">
        <ele>2218.3</ele>
        <time>2018-04-21T10:36:04.000Z</time>
      </trkpt>
      <trkpt lat="40.800043" lon="-3.9175">
        <ele>2218.3</ele>
        <time>2018-04-21T10:36:05.000Z</time>
      </trkpt>
      <trkpt lat="40.800042" lon="-3.917514">
        <ele>2218.3</ele>
        <time>2018-04-21T10:36:06.000Z</time>
      </trkpt>
      <trkpt lat="40.80004" lon="-3.917534">
        <ele>2218.2</ele>
        <time>2018-04-21T10:36:07.000Z</time>
      </trkpt>
      <trkpt lat="40.800039" lon="-3.917546">
        <ele>2218.2</ele>
        <time>2018-04-21T10:36:08.000Z</time>
      </trkpt>
      <trkpt lat="40.800037" lon="-3.917562">
        <ele>2218.2</ele>
        <time>2018-04-21T10:36:09.000Z</time>
      </trkpt>
      <trkpt lat="40.799994" lon="-3.91777">
        <ele>2217.9</ele>
        <time>2018-04-21T10:38:26.000Z</time>
      </trkpt>
      <trkpt lat="40.799994" lon="-3.917782">
        <ele>2217.9</ele>
        <time>2018-04-21T10:38:27.000Z</time>
      </trkpt>
      <trkpt lat="40.799997" lon="-3.917784">
        <ele>2217.9</ele>
        <time>2018-04-21T10:38:28.000Z</time>
      </trkpt>
      <trkpt lat="40.799996" lon="-3.917791">
        <ele>2217.9</ele>
        <time>2018-04-21T10:38:29.000Z</time>
      </trkpt>
      <trkpt lat="40.799996" lon="-3.917792">
        <ele>2217.9</ele>
        <time>2018-04-21T10:38:30.000Z</time>
      </trkpt>
      <trkpt lat="40.799996" lon="-3.917793">
        <ele>2217.9</ele>
        <time>2018-04-21T10:38:31.000Z</time>
      </trkpt>
      <trkpt lat="40.799996" lon="-3.917797">
        <ele>2217.9</ele>
        <time>2018-04-21T10:38:32.000Z</time>
      </trkpt>
      <trkpt lat="40.799997" lon="-3.917803">
        <ele>2217.8</ele>
        <time>2018-04-21T10:38:33.000Z</time>
      </trkpt>
      <trkpt lat="40.799997" lon="-3.917811">
        <ele>2217.8</ele>
        <time>2018-04-21T10:38:34.000Z</time>
      </trkpt>
      <trkpt lat="40.799998" lon="-3.917821">
        <ele>2217.8</ele>
        <time>2018-04-21T10:38:35.000Z</time>
      </trkpt>
      <trkpt lat="40.799998" lon="-3.917832">
        <ele>2217.8</ele>
        <time>2018-04-21T10:38:36.000Z</time>
      </trkpt>
      <trkpt lat="40.799997" lon="-3.917845">
        <ele>2217.7</ele>
        <time>2018-04-21T10:38:37.000Z</time>
      </trkpt>
      <trkpt lat="40.799996" lon="-3.917858">
        <ele>2217.6</ele>
        <time>2018-04-21T10:38:38.000Z</time>
      </trkpt>
      <trkpt lat="40.799994" lon="-3.917872">
        <ele>2217.5</ele>
        <time>2018-04-21T10:38:39.000Z</time>
      </trkpt>
      <trkpt lat="40.799991" lon="-3.917886">
        <ele>2217.4</ele>
        <time>2018-04-21T10:38:40.000Z</time>
      </trkpt>
      <trkpt lat="40.799987" lon="-3.917901">
        <ele>2217.3</ele>
        <time>2018-04-21T10:38:41.000Z</time>
      </trkpt>
      <trkpt lat="40.799983" lon="-3.917916">
        <ele>2217.2</ele>
        <time>2018-04-21T10:38:42.000Z</time>
      </trkpt>
      <trkpt lat="40.799978" lon="-3.917931">
        <ele>2217.0</ele>
        <time>2018-04-21T10:38:43.000Z</time>
      </trkpt>
      <trkpt lat="40.799973" lon="-3.917946">
        <ele>2216.9</ele>
        <time>2018-04-21T10:38:44.000Z</time>
      </trkpt>
      <trkpt lat="40.799968" lon="-3.917962">
        <ele>2216.7</ele>
        <time>2018-04-21T10:38:45.000Z</time>
      </trkpt>
      <trkpt lat="40.799963" lon="-3.917977">
        <ele>2216.6</ele>
        <time>2018-04-21T10:38:46.000Z</time>
      </trkpt>
      <trkpt lat="40.79996" lon="-3.917993">
        <ele>2216.5</ele>
        <time>2018-04-21T10:38:47.000Z</time>
      </trkpt>
      <trkpt lat="40.799957" lon="-3.918008">
        <ele>2216.4</ele>
        <time>2018-04-21T10:38:48.000Z</time>
      </trkpt>
      <trkpt lat="40.799955" lon="-3.918024">
        <ele>2216.3</ele>
        <time>2018-04-21T10:38:49.000Z</time>
      </trkpt>
      <trkpt lat="40.799954" lon="-3.918039">
        <ele>2216.2</ele>
        <time>2018-04-21T10:38:50.000Z</time>
      </trkpt>
      <trkpt lat="40.799953" lon="-3.918054">
        <ele>2216.1</ele>
        <time>2018-04-21T10:38:51.000Z</time>
      </trkpt>
      <trkpt lat="40.799954" lon="-3.918069">
        <ele>2216.1</ele>
        <time>2018-04-21T10:38:52.000Z</time>
      </trkpt>
      <trkpt lat="40.799956" lon="-3.918084">
        <ele>2216.1</ele>
        <time>2018-04-21T10:38:53.000Z</time>
      </trkpt>
      <trkpt lat="40.799958" lon="-3.9181">
        <ele>2216.1</ele>
        <time>2018-04-21T10:38:54.000Z</time>
      </trkpt>
      <trkpt lat="40.799961" lon="-3.918115">
        <ele>2216.1</ele>
        <time>2018-04-21T10:38:55.000Z</time>
      </trkpt>
      <trkpt lat="40.799964" lon="-3.91813">
        <ele>2216.1</ele>
        <time>2018-04-21T10:38:56.000Z</time>
      </trkpt>
      <trkpt lat="40.799967" lon="-3.918144">
        <ele>2216.1</ele>
        <time>2018-04-21T10:38:57.000Z</time>
      </trkpt>
      <trkpt lat="40.799971" lon="-3.918159">
        <ele>2216.1</ele>
        <time>2018-04-21T10:38:58.000Z</time>
      </trkpt>
      <trkpt lat="40.799975" lon="-3.918174">
        <ele>2216.1</ele>
        <time>2018-04-21T10:38:59.000Z</time>
      </trkpt>
      <trkpt lat="40.799979" lon="-3.918189">
        <ele>2216.1</ele>
        <time>2018-04-21T10:39:00.000Z</time>
      </trkpt>
      <trkpt lat="40.799983" lon="-3.918204">
        <ele>2216.2</ele>
        <time>2018-04-21T10:39:01.000Z</time>
      </trkpt>
      <trkpt lat="40.799987" lon="-3.91822">
        <ele>2216.2</ele>
        <time>2018-04-21T10:39:02.000Z</time>
      </trkpt>
      <trkpt lat="40.799991" lon="-3.918235">
        <ele>2216.2</ele>
        <time>2018-04-21T10:39:03.000Z</time>
      </trkpt>
      <trkpt lat="40.799995" lon="-3.91825">
        <ele>2216.2</ele>
        <time>2018-04-21T10:39:04.000Z</time>
      </trkpt>
      <trkpt lat="40.799998" lon="-3.918265">
        <ele>2216.2</ele>
        <time>2018-04-21T10:39:05.000Z</time>
      </trkpt>
      <trkpt lat="40.800001" lon="-3.918281">
        <ele>2216.2</ele>
        <time>2018-04-21T10:39:06.000Z</time>
      </trkpt>
      <trkpt lat="40.800003" lon="-3.918296">
        <ele>2216.1</ele>
        <time>2018-04-21T10:39:07.000Z</time>
      </trkpt>
      <trkpt lat="40.800005" lon="-3.918312">
        <ele>2216.0</ele>
        <time>2018-04-21T10:39:08.000Z</time>
      </trkpt>
      <trkpt lat="40.800006" lon="-3.918327">
        <ele>2215.9</ele>
        <time>2018-04-21T10:39:09.000Z</time>
      </trkpt>
      <trkpt lat="40.800007" lon="-3.918343">
        <ele>2215.9</ele>
        <time>2018-04-21T10:39:10.000Z</time>
      </trkpt>
      <trkpt lat="40.800007" lon="-3.918359">
        <ele>2215.9</ele>
        <time>2018-04-21T10:39:11.000Z</time>
      </trkpt>
      <trkpt lat="40.800007" lon="-3.918376">
        <ele>2215.9</ele>
        <time>2018-04-21T10:39:12.000Z</time>
      </trkpt>
      <trkpt lat="40.800006" lon="-3.918392">
        <ele>2215.9</ele>
        <time>2018-04-21T10:39:13.000Z</time>
      </trkpt>
      <trkpt lat="40.800004" lon="-3.918409">
        <ele>2216.0</ele>
        <time>2018-04-21T10:39:14.000Z</time>
      </trkpt>
      <trkpt lat="40.800003" lon="-3.918427">
        <ele>2216.0</ele>
        <time>2018-04-21T10:39:15.000Z</time>
      </trkpt>
      <trkpt lat="40.8" lon="-3.918444">
        <ele>2216.1</ele>
        <time>2018-04-21T10:39:16.000Z</time>
      </trkpt>
      <trkpt lat="40.799998" lon="-3.918461">
        <ele>2216.1</ele>
        <time>2018-04-21T10:39:17.000Z</time>
      </trkpt>
      <trkpt lat="40.799995" lon="-3.918478">
        <ele>2216.1</ele>
        <time>2018-04-21T10:39:18.000Z</time>
      </trkpt>
      <trkpt lat="40.799992" lon="-3.918494">
        <ele>2216.1</ele>
        <time>2018-04-21T10:39:19.000Z</time>
      </trkpt>
      <trkpt lat="40.799989" lon="-3.918509">
        <ele>2216.0</ele>
        <time>2018-04-21T10:39:20.000Z</time>
      </trkpt>
      <trkpt lat="40.799986" lon="-3.918522">
        <ele>2216.0</ele>
        <time>2018-04-21T10:39:21.000Z</time>
      </trkpt>
      <trkpt lat="40.799983" lon="-3.918534">
        <ele>2216.0</ele>
        <time>2018-04-21T10:39:22.000Z</time>
      </trkpt>
      <trkpt lat="40.79998" lon="-3.918546">
        <ele>2215.9</ele>
        <time>2018-04-21T10:39:23.000Z</time>
      </trkpt>
      <trkpt lat="40.799977" lon="-3.918558">
        <ele>2215.9</ele>
        <time>2018-04-21T10:39:24.000Z</time>
      </trkpt>
      <trkpt lat="40.799975" lon="-3.91857">
        <ele>2215.9</ele>
        <time>2018-04-21T10:39:25.000Z</time>
      </trkpt>
      <trkpt lat="40.799973" lon="-3.918583">
        <ele>2215.9</ele>
        <time>2018-04-21T10:39:26.000Z</time>
      </trkpt>
      <trkpt lat="40.799971" lon="-3.918597">
        <ele>2215.9</ele>
        <time>2018-04-21T10:39:27.000Z</time>
      </trkpt>
      <trkpt lat="40.799969" lon="-3.918611">
        <ele>2215.8</ele>
        <time>2018-04-21T10:39:28.000Z</time>
      </trkpt>
      <trkpt lat="40.799967" lon="-3.918626">
        <ele>2215.8</ele>
        <time>2018-04-21T10:39:29.000Z</time>
      </trkpt>
      <trkpt lat="40.799965" lon="-3.918641">
        <ele>2215.8</ele>
        <time>2018-04-21T10:39:30.000Z</time>
      </trkpt>
      <trkpt lat="40.799964" lon="-3.918656">
        <ele>2215.8</ele>
        <time>2018-04-21T10:39:31.000Z</time>
      </trkpt>
      <trkpt lat="40.799962" lon="-3.918671">
        <ele>2215.8</ele>
        <time>2018-04-21T10:39:32.000Z</time>
      </trkpt>
      <trkpt lat="40.79996" lon="-3.918686">
        <ele>2215.8</ele>
        <time>2018-04-21T10:39:33.000Z</time>
      </trkpt>
      <trkpt lat="40.799957" lon="-3.918701">
        <ele>2215.8</ele>
        <time>2018-04-21T10:39:34.000Z</time>
      </trkpt>
      <trkpt lat="40.799955" lon="-3.918716">
        <ele>2215.8</ele>
        <time>2018-04-21T10:39:35.000Z</time>
      </trkpt>
      <trkpt lat="40.799952" lon="-3.918731">
        <ele>2215.8</ele>
        <time>2018-04-21T10:39:36.000Z</time>
      </trkpt>
      <trkpt lat="40.799949" lon="-3.918745">
        <ele>2215.7</ele>
        <time>2018-04-21T10:39:37.000Z</time>
      </trkpt>
      <trkpt lat="40.799946" lon="-3.918758">
        <ele>2215.7</ele>
        <time>2018-04-21T10:39:38.000Z</time>
      </trkpt>
      <trkpt lat="40.799942" lon="-3.918771">
        <ele>2215.7</ele>
        <time>2018-04-21T10:39:39.000Z</time>
      </trkpt>
      <trkpt lat="40.799937" lon="-3.918783">
        <ele>2215.6</ele>
        <time>2018-04-21T10:39:40.000Z</time>
      </trkpt>
      <trkpt lat="40.799932" lon="-3.918794">
        <ele>2215.5</ele>
        <time>2018-04-21T10:39:41.000Z</time>
      </trkpt>
      <trkpt lat="40.799926" lon="-3.918804">
        <ele>2215.5</ele>
        <time>2018-04-21T10:39:42.000Z</time>
      </trkpt>
      <trkpt lat="40.79992" lon="-3.918813">
        <ele>2215.4</ele>
        <time>2018-04-21T10:39:43.000Z</time>
      </trkpt>
      <trkpt lat="40.799913" lon="-3.918821">
        <ele>2215.3</ele>
        <time>2018-04-21T10:39:44.000Z</time>
      </trkpt>
      <trkpt lat="40.799906" lon="-3.918828">
        <ele>2215.2</ele>
        <time>2018-04-21T10:39:45.000Z</time>
      </trkpt>
      <trkpt lat="40.799898" lon="-3.918836">
        <ele>2215.1</ele>
        <time>2018-04-21T10:39:46.000Z</time>
      </trkpt>
      <trkpt lat="40.79989" lon="-3.918842">
        <ele>2215.0</ele>
        <time>2018-04-21T10:39:47.000Z</time>
      </trkpt>
      <trkpt lat="40.799883" lon="-3.918849">
        <ele>2214.9</ele>
        <time>2018-04-21T10:39:48.000Z</time>
      </trkpt>
      <trkpt lat="40.799875" lon="-3.918857">
        <ele>2214.8</ele>
        <time>2018-04-21T10:39:49.000Z</time>
      </trkpt>
      <trkpt lat="40.799868" lon="-3.918864">
        <ele>2214.7</ele>
        <time>2018-04-21T10:39:50.000Z</time>
      </trkpt>
      <trkpt lat="40.799862" lon="-3.918873">
        <ele>2214.7</ele>
        <time>2018-04-21T10:39:51.000Z</time>
      </trkpt>
      <trkpt lat="40.799856" lon="-3.918882">
        <ele>2214.6</ele>
        <time>2018-04-21T10:39:52.000Z</time>
      </trkpt>
      <trkpt lat="40.799851" lon="-3.918893">
        <ele>2214.5</ele>
        <time>2018-04-21T10:39:53.000Z</time>
      </trkpt>
      <trkpt lat="40.799847" lon="-3.918904">
        <ele>2214.5</ele>
        <time>2018-04-21T10:39:54.000Z</time>
      </trkpt>
      <trkpt lat="40.799843" lon="-3.918915">
        <ele>2214.5</ele>
        <time>2018-04-21T10:39:55.000Z</time>
      </trkpt>
      <trkpt lat="40.799839" lon="-3.918927">
        <ele>2214.4</ele>
        <time>2018-04-21T10:39:56.000Z</time>
      </trkpt>
      <trkpt lat="40.799837" lon="-3.918939">
        <ele>2214.4</ele>
        <time>2018-04-21T10:39:57.000Z</time>
      </trkpt>
      <trkpt lat="40.799835" lon="-3.918952">
        <ele>2214.4</ele>
        <time>2018-04-21T10:39:58.000Z</time>
      </trkpt>
      <trkpt lat="40.799833" lon="-3.918964">
        <ele>2214.4</ele>
        <time>2018-04-21T10:39:59.000Z</time>
      </trkpt>
      <trkpt lat="40.799832" lon="-3.918976">
        <ele>2214.4</ele>
        <time>2018-04-21T10:40:00.000Z</time>
      </trkpt>
      <trkpt lat="40.799832" lon="-3.918987">
        <ele>2214.4</ele>
        <time>2018-04-21T10:40:01.000Z</time>
      </trkpt>
      <trkpt lat="40.799832" lon="-3.918999">
        <ele>2214.5</ele>
        <time>2018-04-21T10:40:02.000Z</time>
      </trkpt>
      <trkpt lat="40.799833" lon="-3.919009">
        <ele>2214.5</ele>
        <time>2018-04-21T10:40:03.000Z</time>
      </trkpt>
      <trkpt lat="40.799834" lon="-3.91902">
        <ele>2214.5</ele>
        <time>2018-04-21T10:40:04.000Z</time>
      </trkpt>
      <trkpt lat="40.799835" lon="-3.91903">
        <ele>2214.6</ele>
        <time>2018-04-21T10:40:05.000Z</time>
      </trkpt>
      <trkpt lat="40.799836" lon="-3.91904">
        <ele>2214.6</ele>
        <time>2018-04-21T10:40:06.000Z</time>
      </trkpt>
      <trkpt lat="40.799838" lon="-3.91905">
        <ele>2214.6</ele>
        <time>2018-04-21T10:40:07.000Z</time>
      </trkpt>
      <trkpt lat="40.79984" lon="-3.91906">
        <ele>2214.7</ele>
        <time>2018-04-21T10:40:08.000Z</time>
      </trkpt>
      <trkpt lat="40.799841" lon="-3.919069">
        <ele>2214.7</ele>
        <time>2018-04-21T10:40:09.000Z</time>
      </trkpt>
      <trkpt lat="40.799843" lon="-3.919078">
        <ele>2214.8</ele>
        <time>2018-04-21T10:40:10.000Z</time>
      </trkpt>
      <trkpt lat="40.799844" lon="-3.919087">
        <ele>2214.8</ele>
        <time>2018-04-21T10:40:11.000Z</time>
      </trkpt>
      <trkpt lat="40.799846" lon="-3.919096">
        <ele>2214.8</ele>
        <time>2018-04-21T10:40:12.000Z</time>
      </trkpt>
      <trkpt lat="40.799847" lon="-3.919104">
        <ele>2214.9</ele>
        <time>2018-04-21T10:40:13.000Z</time>
      </trkpt>
      <trkpt lat="40.79985" lon="-3.919112">
        <ele>2214.9</ele>
        <time>2018-04-21T10:40:14.000Z</time>
      </trkpt>
      <trkpt lat="40.799852" lon="-3.919121">
        <ele>2215.0</ele>
        <time>2018-04-21T10:40:15.000Z</time>
      </trkpt>
      <trkpt lat="40.799855" lon="-3.919128">
        <ele>2215.0</ele>
        <time>2018-04-21T10:40:16.000Z</time>
      </trkpt>
      <trkpt lat="40.799859" lon="-3.919136">
        <ele>2215.1</ele>
        <time>2018-04-21T10:40:17.000Z</time>
      </trkpt>
      <trkpt lat="40.799863" lon="-3.919143">
        <ele>2215.1</ele>
        <time>2018-04-21T10:40:18.000Z</time>
      </trkpt>
      <trkpt lat="40.799868" lon="-3.91915">
        <ele>2215.2</ele>
        <time>2018-04-21T10:40:19.000Z</time>
      </trkpt>
      <trkpt lat="40.799874" lon="-3.919158">
        <ele>2215.3</ele>
        <time>2018-04-21T10:40:20.000Z</time>
      </trkpt>
      <trkpt lat="40.79988" lon="-3.919165">
        <ele>2215.4</ele>
        <time>2018-04-21T10:40:21.000Z</time>
      </trkpt>
      <trkpt lat="40.799885" lon="-3.919173">
        <ele>2215.5</ele>
        <time>2018-04-21T10:40:22.000Z</time>
      </trkpt>
      <trkpt lat="40.79989" lon="-3.919181">
        <ele>2215.6</ele>
        <time>2018-04-21T10:40:23.000Z</time>
      </trkpt>
      <trkpt lat="40.799894" lon="-3.91919">
        <ele>2215.6</ele>
        <time>2018-04-21T10:40:24.000Z</time>
      </trkpt>
      <trkpt lat="40.799896" lon="-3.9192">
        <ele>2215.7</ele>
        <time>2018-04-21T10:40:25.000Z</time>
      </trkpt>
      <trkpt lat="40.799898" lon="-3.91921">
        <ele>2215.7</ele>
        <time>2018-04-21T10:40:26.000Z</time>
      </trkpt>
      <trkpt lat="40.799899" lon="-3.91922">
        <ele>2215.7</ele>
        <time>2018-04-21T10:40:27.000Z</time>
      </trkpt>
      <trkpt lat="40.799899" lon="-3.91923">
        <ele>2215.7</ele>
        <time>2018-04-21T10:40:28.000Z</time>
      </trkpt>
      <trkpt lat="40.799898" lon="-3.919241">
        <ele>2215.7</ele>
        <time>2018-04-21T10:40:29.000Z</time>
      </trkpt>
      <trkpt lat="40.799896" lon="-3.919252">
        <ele>2215.7</ele>
        <time>2018-04-21T10:40:30.000Z</time>
      </trkpt>
      <trkpt lat="40.799895" lon="-3.919264">
        <ele>2215.7</ele>
        <time>2018-04-21T10:40:31.000Z</time>
      </trkpt>
      <trkpt lat="40.799893" lon="-3.919277">
        <ele>2215.7</ele>
        <time>2018-04-21T10:40:32.000Z</time>
      </trkpt>
      <trkpt lat="40.799891" lon="-3.919291">
        <ele>2215.7</ele>
        <time>2018-04-21T10:40:33.000Z</time>
      </trkpt>
      <trkpt lat="40.79989" lon="-3.919304">
        <ele>2215.7</ele>
        <time>2018-04-21T10:40:34.000Z</time>
      </trkpt>
      <trkpt lat="40.799889" lon="-3.919317">
        <ele>2215.7</ele>
        <time>2018-04-21T10:40:35.000Z</time>
      </trkpt>
      <trkpt lat="40.799888" lon="-3.919328">
        <ele>2215.7</ele>
        <time>2018-04-21T10:40:36.000Z</time>
      </trkpt>
      <trkpt lat="40.799887" lon="-3.919335">
        <ele>2215.7</ele>
        <time>2018-04-21T10:40:37.000Z</time>
      </trkpt>
      <trkpt lat="40.799887" lon="-3.91934">
        <ele>2215.7</ele>
        <time>2018-04-21T10:40:38.000Z</time>
      </trkpt>
      <trkpt lat="40.799887" lon="-3.919343">
        <ele>2215.7</ele>
        <time>2018-04-21T10:40:39.000Z</time>
      </trkpt>
      <trkpt lat="40.799887" lon="-3.919344">
        <ele>2215.7</ele>
        <time>2018-04-21T10:40:40.000Z</time>
      </trkpt>
      <trkpt lat="40.799887" lon="-3.919344">
        <ele>2215.7</ele>
        <time>2018-04-21T10:40:41.000Z</time>
      </trkpt>
      <trkpt lat="40.799887" lon="-3.919343">
        <ele>2215.7</ele>
        <time>2018-04-21T10:40:42.000Z</time>
      </trkpt>
      <trkpt lat="40.799887" lon="-3.919342">
        <ele>2215.7</ele>
        <time>2018-04-21T10:40:43.000Z</time>
      </trkpt>
      <trkpt lat="40.799887" lon="-3.919342">
        <ele>2215.7</ele>
        <time>2018-04-21T10:40:44.000Z</time>
      </trkpt>
      <trkpt lat="40.799887" lon="-3.919342">
        <ele>2215.7</ele>
        <time>2018-04-21T10:40:45.000Z</time>
      </trkpt>
      <trkpt lat="40.799887" lon="-3.919343">
        <ele>2215.7</ele>
        <time>2018-04-21T10:40:46.000Z</time>
      </trkpt>
      <trkpt lat="40.799888" lon="-3.919345">
        <ele>2215.7</ele>
        <time>2018-04-21T10:40:47.000Z</time>
      </trkpt>
      <trkpt lat="40.799889" lon="-3.919348">
        <ele>2215.7</ele>
        <time>2018-04-21T10:40:48.000Z</time>
      </trkpt>
      <trkpt lat="40.79989" lon="-3.919352">
        <ele>2215.7</ele>
        <time>2018-04-21T10:40:49.000Z</time>
      </trkpt>
      <trkpt lat="40.799891" lon="-3.919357">
        <ele>2215.7</ele>
        <time>2018-04-21T10:40:50.000Z</time>
      </trkpt>
      <trkpt lat="40.799893" lon="-3.919363">
        <ele>2215.8</ele>
        <time>2018-04-21T10:40:51.000Z</time>
      </trkpt>
      <trkpt lat="40.799895" lon="-3.919371">
        <ele>2215.8</ele>
        <time>2018-04-21T10:40:52.000Z</time>
      </trkpt>
      <trkpt lat="40.799897" lon="-3.91938">
        <ele>2215.8</ele>
        <time>2018-04-21T10:40:53.000Z</time>
      </trkpt>
      <trkpt lat="40.799899" lon="-3.91939">
        <ele>2215.9</ele>
        <time>2018-04-21T10:40:54.000Z</time>
      </trkpt>
      <trkpt lat="40.799901" lon="-3.919402">
        <ele>2215.9</ele>
        <time>2018-04-21T10:40:55.000Z</time>
      </trkpt>
      <trkpt lat="40.799903" lon="-3.919415">
        <ele>2215.9</ele>
        <time>2018-04-21T10:40:56.000Z</time>
      </trkpt>
      <trkpt lat="40.799906" lon="-3.919429">
        <ele>2216.0</ele>
        <time>2018-04-21T10:40:57.000Z</time>
      </trkpt>
      <trkpt lat="40.799908" lon="-3.919444">
        <ele>2216.0</ele>
        <time>2018-04-21T10:40:58.000Z</time>
      </trkpt>
      <trkpt lat="40.79991" lon="-3.919459">
        <ele>2216.1</ele>
        <time>2018-04-21T10:40:59.000Z</time>
      </trkpt>
      <trkpt lat="40.799912" lon="-3.919474">
        <ele>2216.1</ele>
        <time>2018-04-21T10:41:00.000Z</time>
      </trkpt>
      <trkpt lat="40.799914" lon="-3.919489">
        <ele>2216.2</ele>
        <time>2018-04-21T10:41:01.000Z</time>
      </trkpt>
      <trkpt lat="40.799916" lon="-3.919504">
        <ele>2216.2</ele>
        <time>2018-04-21T10:41:02.000Z</time>
      </trkpt>
      <trkpt lat="40.799917" lon="-3.919518">
        <ele>2216.2</ele>
        <time>2018-04-21T10:41:03.000Z</time>
      </trkpt>
      <trkpt lat="40.799918" lon="-3.919532">
        <ele>2216.3</ele>
        <time>2018-04-21T10:41:04.000Z</time>
      </trkpt>
      <trkpt lat="40.799918" lon="-3.919545">
        <ele>2216.3</ele>
        <time>2018-04-21T10:41:05.000Z</time>
      </trkpt>
      <trkpt lat="40.799918" lon="-3.919557">
        <ele>2216.3</ele>
        <time>2018-04-21T10:41:06.000Z</time>
      </trkpt>
      <trkpt lat="40.799918" lon="-3.919568">
        <ele>2216.3</ele>
        <time>2018-04-21T10:41:07.000Z</time>
      </trkpt>
      <trkpt lat="40.799917" lon="-3.919579">
        <ele>2216.3</ele>
        <time>2018-04-21T10:41:08.000Z</time>
      </trkpt>
      <trkpt lat="40.799917" lon="-3.91959">
        <ele>2216.3</ele>
        <time>2018-04-21T10:41:09.000Z</time>
      </trkpt>
      <trkpt lat="40.799916" lon="-3.9196">
        <ele>2216.3</ele>
        <time>2018-04-21T10:41:10.000Z</time>
      </trkpt>
      <trkpt lat="40.799915" lon="-3.91961">
        <ele>2216.3</ele>
        <time>2018-04-21T10:41:11.000Z</time>
      </trkpt>
      <trkpt lat="40.799914" lon="-3.91962">
        <ele>2216.3</ele>
        <time>2018-04-21T10:41:12.000Z</time>
      </trkpt>
      <trkpt lat="40.799913" lon="-3.91963">
        <ele>2216.3</ele>
        <time>2018-04-21T10:41:13.000Z</time>
      </trkpt>
      <trkpt lat="40.799912" lon="-3.91964">
        <ele>2216.3</ele>
        <time>2018-04-21T10:41:14.000Z</time>
      </trkpt>
      <trkpt lat="40.799911" lon="-3.91965">
        <ele>2216.3</ele>
        <time>2018-04-21T10:41:15.000Z</time>
      </trkpt>
      <trkpt lat="40.79991" lon="-3.91966">
        <ele>2216.3</ele>
        <time>2018-04-21T10:41:16.000Z</time>
      </trkpt>
      <trkpt lat="40.799909" lon="-3.919669">
        <ele>2216.3</ele>
        <time>2018-04-21T10:41:17.000Z</time>
      </trkpt>
      <trkpt lat="40.799909" lon="-3.919679">
        <ele>2216.3</ele>
        <time>2018-04-21T10:41:18.000Z</time>
      </trkpt>
      <trkpt lat="40.799909" lon="-3.919688">
        <ele>2216.3</ele>
        <time>2018-04-21T10:41:19.000Z</time>
      </trkpt>
      <trkpt lat="40.799909" lon="-3.919696">
        <ele>2216.3</ele>
        <time>2018-04-21T10:41:20.000Z</time>
      </trkpt>
      <trkpt lat="40.79991" lon="-3.919705">
        <ele>2216.3</ele>
        <time>2018-04-21T10:41:21.000Z</time>
      </trkpt>
      <trkpt lat="40.799911" lon="-3.919713">
        <ele>2216.3</ele>
        <time>2018-04-21T10:41:22.000Z</time>
      </trkpt>
      <trkpt lat="40.799912" lon="-3.91972">
        <ele>2216.4</ele>
        <time>2018-04-21T10:41:23.000Z</time>
      </trkpt>
      <trkpt lat="40.799914" lon="-3.919728">
        <ele>2216.4</ele>
        <time>2018-04-21T10:41:24.000Z</time>
      </trkpt>
      <trkpt lat="40.799916" lon="-3.919735">
        <ele>2216.4</ele>
        <time>2018-04-21T10:41:25.000Z</time>
      </trkpt>
      <trkpt lat="40.799917" lon="-3.919743">
        <ele>2216.5</ele>
        <time>2018-04-21T10:41:26.000Z</time>
      </trkpt>
      <trkpt lat="40.799918" lon="-3.91975">
        <ele>2216.5</ele>
        <time>2018-04-21T10:41:27.000Z</time>
      </trkpt>
      <trkpt lat="40.799919" lon="-3.919758">
        <ele>2216.5</ele>
        <time>2018-04-21T10:41:28.000Z</time>
      </trkpt>
      <trkpt lat="40.799919" lon="-3.919767">
        <ele>2216.5</ele>
        <time>2018-04-21T10:41:29.000Z</time>
      </trkpt>
      <trkpt lat="40.799918" lon="-3.919776">
        <ele>2216.5</ele>
        <time>2018-04-21T10:41:30.000Z</time>
      </trkpt>
      <trkpt lat="40.799916" lon="-3.919785">
        <ele>2216.5</ele>
        <time>2018-04-21T10:41:31.000Z</time>
      </trkpt>
      <trkpt lat="40.799913" lon="-3.919795">
        <ele>2216.4</ele>
        <time>2018-04-21T10:41:32.000Z</time>
      </trkpt>
      <trkpt lat="40.79991" lon="-3.919806">
        <ele>2216.4</ele>
        <time>2018-04-21T10:41:33.000Z</time>
      </trkpt>
      <trkpt lat="40.799907" lon="-3.919817">
        <ele>2216.4</ele>
        <time>2018-04-21T10:41:34.000Z</time>
      </trkpt>
      <trkpt lat="40.799903" lon="-3.919829">
        <ele>2216.3</ele>
        <time>2018-04-21T10:41:35.000Z</time>
      </trkpt>
      <trkpt lat="40.7999" lon="-3.919841">
        <ele>2216.3</ele>
        <time>2018-04-21T10:41:36.000Z</time>
      </trkpt>
      <trkpt lat="40.799898" lon="-3.919854">
        <ele>2216.3</ele>
        <time>2018-04-21T10:41:37.000Z</time>
      </trkpt>
      <trkpt lat="40.799896" lon="-3.919867">
        <ele>2216.3</ele>
        <time>2018-04-21T10:41:38.000Z</time>
      </trkpt>
      <trkpt lat="40.799895" lon="-3.919881">
        <ele>2216.3</ele>
        <time>2018-04-21T10:41:39.000Z</time>
      </trkpt>
      <trkpt lat="40.799895" lon="-3.919896">
        <ele>2216.3</ele>
        <time>2018-04-21T10:41:40.000Z</time>
      </trkpt>
      <trkpt lat="40.799896" lon="-3.91991">
        <ele>2216.3</ele>
        <time>2018-04-21T10:41:41.000Z</time>
      </trkpt>
      <trkpt lat="40.799897" lon="-3.919925">
        <ele>2216.3</ele>
        <time>2018-04-21T10:41:42.000Z</time>
      </trkpt>
      <trkpt lat="40.799897" lon="-3.91994">
        <ele>2216.3</ele>
        <time>2018-04-21T10:41:43.000Z</time>
      </trkpt>
      <trkpt lat="40.799896" lon="-3.919954">
        <ele>2216.3</ele>
        <time>2018-04-21T10:41:44.000Z</time>
      </trkpt>
      <trkpt lat="40.799893" lon="-3.919969">
        <ele>2216.3</ele>
        <time>2018-04-21T10:41:45.000Z</time>
      </trkpt>
      <trkpt lat="40.79989" lon="-3.919983">
        <ele>2216.3</ele>
        <time>2018-04-21T10:41:46.000Z</time>
      </trkpt>
      <trkpt lat="40.799886" lon="-3.919997">
        <ele>2216.2</ele>
        <time>2018-04-21T10:41:47.000Z</time>
      </trkpt>
      <trkpt lat="40.799883" lon="-3.920011">
        <ele>2216.1</ele>
        <time>2018-04-21T10:41:48.000Z</time>
      </trkpt>
      <trkpt lat="40.799882" lon="-3.920025">
        <ele>2216.1</ele>
        <time>2018-04-21T10:41:49.000Z</time>
      </trkpt>
      <trkpt lat="40.799882" lon="-3.92004">
        <ele>2216.0</ele>
        <time>2018-04-21T10:41:50.000Z</time>
      </trkpt>
      <trkpt lat="40.799884" lon="-3.920054">
        <ele>2216.0</ele>
        <time>2018-04-21T10:41:51.000Z</time>
      </trkpt>
      <trkpt lat="40.799887" lon="-3.920069">
        <ele>2216.0</ele>
        <time>2018-04-21T10:41:52.000Z</time>
      </trkpt>
      <trkpt lat="40.799891" lon="-3.920084">
        <ele>2216.0</ele>
        <time>2018-04-21T10:41:53.000Z</time>
      </trkpt>
      <trkpt lat="40.799896" lon="-3.920098">
        <ele>2216.1</ele>
        <time>2018-04-21T10:41:54.000Z</time>
      </trkpt>
      <trkpt lat="40.799901" lon="-3.920112">
        <ele>2216.1</ele>
        <time>2018-04-21T10:41:55.000Z</time>
      </trkpt>
      <trkpt lat="40.799907" lon="-3.920126">
        <ele>2216.1</ele>
        <time>2018-04-21T10:41:56.000Z</time>
      </trkpt>
      <trkpt lat="40.799914" lon="-3.92014">
        <ele>2216.2</ele>
        <time>2018-04-21T10:41:57.000Z</time>
      </trkpt>
      <trkpt lat="40.79992" lon="-3.920153">
        <ele>2216.2</ele>
        <time>2018-04-21T10:41:58.000Z</time>
      </trkpt>
      <trkpt lat="40.799927" lon="-3.920166">
        <ele>2216.3</ele>
        <time>2018-04-21T10:41:59.000Z</time>
      </trkpt>
      <trkpt lat="40.799933" lon="-3.920178">
        <ele>2216.3</ele>
        <time>2018-04-21T10:42:00.000Z</time>
      </trkpt>
      <trkpt lat="40.79994" lon="-3.920189">
        <ele>2216.4</ele>
        <time>2018-04-21T10:42:01.000Z</time>
      </trkpt>
      <trkpt lat="40.799946" lon="-3.920201">
        <ele>2216.5</ele>
        <time>2018-04-21T10:42:02.000Z</time>
      </trkpt>
      <trkpt lat="40.799952" lon="-3.920212">
        <ele>2216.5</ele>
        <time>2018-04-21T10:42:03.000Z</time>
      </trkpt>
      <trkpt lat="40.799958" lon="-3.920223">
        <ele>2216.6</ele>
        <time>2018-04-21T10:42:04.000Z</time>
      </trkpt>
      <trkpt lat="40.799963" lon="-3.920233">
        <ele>2216.6</ele>
        <time>2018-04-21T10:42:05.000Z</time>
      </trkpt>
      <trkpt lat="40.799968" lon="-3.920244">
        <ele>2216.6</ele>
        <time>2018-04-21T10:42:06.000Z</time>
      </trkpt>
      <trkpt lat="40.799972" lon="-3.920254">
        <ele>2216.7</ele>
        <time>2018-04-21T10:42:07.000Z</time>
      </trkpt>
      <trkpt lat="40.799975" lon="-3.920265">
        <ele>2216.7</ele>
        <time>2018-04-21T10:42:08.000Z</time>
      </trkpt>
      <trkpt lat="40.799978" lon="-3.920275">
        <ele>2216.7</ele>
        <time>2018-04-21T10:42:09.000Z</time>
      </trkpt>
      <trkpt lat="40.799981" lon="-3.920286">
        <ele>2216.7</ele>
        <time>2018-04-21T10:42:10.000Z</time>
      </trkpt>
      <trkpt lat="40.799983" lon="-3.920296">
        <ele>2216.7</ele>
        <time>2018-04-21T10:42:11.000Z</time>
      </trkpt>
      <trkpt lat="40.799984" lon="-3.920307">
        <ele>2216.7</ele>
        <time>2018-04-21T10:42:12.000Z</time>
      </trkpt>
      <trkpt lat="40.799986" lon="-3.920319">
        <ele>2216.6</ele>
        <time>2018-04-21T10:42:13.000Z</time>
      </trkpt>
      <trkpt lat="40.799987" lon="-3.92033">
        <ele>2216.6</ele>
        <time>2018-04-21T10:42:14.000Z</time>
      </trkpt>
      <trkpt lat="40.799988" lon="-3.920342">
        <ele>2216.6</ele>
        <time>2018-04-21T10:42:15.000Z</time>
      </trkpt>
      <trkpt lat="40.799989" lon="-3.920355">
        <ele>2216.6</ele>
        <time>2018-04-21T10:42:16.000Z</time>
      </trkpt>
      <trkpt lat="40.799989" lon="-3.920368">
        <ele>2216.5</ele>
        <time>2018-04-21T10:42:17.000Z</time>
      </trkpt>
      <trkpt lat="40.79999" lon="-3.920382">
        <ele>2216.5</ele>
        <time>2018-04-21T10:42:18.000Z</time>
      </trkpt>
      <trkpt lat="40.799991" lon="-3.920396">
        <ele>2216.4</ele>
        <time>2018-04-21T10:42:19.000Z</time>
      </trkpt>
      <trkpt lat="40.799992" lon="-3.92041">
        <ele>2216.4</ele>
        <time>2018-04-21T10:42:20.000Z</time>
      </trkpt>
      <trkpt lat="40.799993" lon="-3.920425">
        <ele>2216.4</ele>
        <time>2018-04-21T10:42:21.000Z</time>
      </trkpt>
      <trkpt lat="40.799994" lon="-3.920439">
        <ele>2216.3</ele>
        <time>2018-04-21T10:42:22.000Z</time>
      </trkpt>
      <trkpt lat="40.799995" lon="-3.920454">
        <ele>2216.3</ele>
        <time>2018-04-21T10:42:23.000Z</time>
      </trkpt>
      <trkpt lat="40.799995" lon="-3.92047">
        <ele>2216.2</ele>
        <time>2018-04-21T10:42:24.000Z</time>
      </trkpt>
      <trkpt lat="40.799996" lon="-3.920485">
        <ele>2216.2</ele>
        <time>2018-04-21T10:42:25.000Z</time>
      </trkpt>
      <trkpt lat="40.799997" lon="-3.9205">
        <ele>2216.2</ele>
        <time>2018-04-21T10:42:26.000Z</time>
      </trkpt>
      <trkpt lat="40.799998" lon="-3.920515">
        <ele>2216.1</ele>
        <time>2018-04-21T10:42:27.000Z</time>
      </trkpt>
      <trkpt lat="40.799998" lon="-3.92053">
        <ele>2216.1</ele>
        <time>2018-04-21T10:42:28.000Z</time>
      </trkpt>
      <trkpt lat="40.799999" lon="-3.920545">
        <ele>2216.0</ele>
        <time>2018-04-21T10:42:29.000Z</time>
      </trkpt>
      <trkpt lat="40.8" lon="-3.92056">
        <ele>2216.0</ele>
        <time>2018-04-21T10:42:30.000Z</time>
      </trkpt>
      <trkpt lat="40.8" lon="-3.920574">
        <ele>2215.9</ele>
        <time>2018-04-21T10:42:31.000Z</time>
      </trkpt>
      <trkpt lat="40.800001" lon="-3.920589">
        <ele>2215.9</ele>
        <time>2018-04-21T10:42:32.000Z</time>
      </trkpt>
      <trkpt lat="40.800002" lon="-3.920604">
        <ele>2215.8</ele>
        <time>2018-04-21T10:42:33.000Z</time>
      </trkpt>
      <trkpt lat="40.800002" lon="-3.920619">
        <ele>2215.7</ele>
        <time>2018-04-21T10:42:34.000Z</time>
      </trkpt>
      <trkpt lat="40.800003" lon="-3.920633">
        <ele>2215.7</ele>
        <time>2018-04-21T10:42:35.000Z</time>
      </trkpt>
      <trkpt lat="40.800004" lon="-3.920648">
        <ele>2215.6</ele>
        <time>2018-04-21T10:42:36.000Z</time>
      </trkpt>
      <trkpt lat="40.800005" lon="-3.920662">
        <ele>2215.5</ele>
        <time>2018-04-21T10:42:37.000Z</time>
      </trkpt>
      <trkpt lat="40.800005" lon="-3.920677">
        <ele>2215.5</ele>
        <time>2018-04-21T10:42:38.000Z</time>
      </trkpt>
      <trkpt lat="40.800006" lon="-3.920691">
        <ele>2215.4</ele>
        <time>2018-04-21T10:42:39.000Z</time>
      </trkpt>
      <trkpt lat="40.800007" lon="-3.920705">
        <ele>2215.3</ele>
        <time>2018-04-21T10:42:40.000Z</time>
      </trkpt>
      <trkpt lat="40.800008" lon="-3.92072">
        <ele>2215.2</ele>
        <time>2018-04-21T10:42:41.000Z</time>
      </trkpt>
      <trkpt lat="40.800009" lon="-3.920734">
        <ele>2215.2</ele>
        <time>2018-04-21T10:42:42.000Z</time>
      </trkpt>
      <trkpt lat="40.80001" lon="-3.920748">
        <ele>2215.1</ele>
        <time>2018-04-21T10:42:43.000Z</time>
      </trkpt>
      <trkpt lat="40.800011" lon="-3.920762">
        <ele>2215.0</ele>
        <time>2018-04-21T10:42:44.000Z</time>
      </trkpt>
      <trkpt lat="40.800012" lon="-3.920776">
        <ele>2215.0</ele>
        <time>2018-04-21T10:42:45.000Z</time>
      </trkpt>
      <trkpt lat="40.800013" lon="-3.92079">
        <ele>2214.9</ele>
        <time>2018-04-21T10:42:46.000Z</time>
      </trkpt>
      <trkpt lat="40.800014" lon="-3.920804">
        <ele>2214.8</ele>
        <time>2018-04-21T10:42:47.000Z</time>
      </trkpt>
      <trkpt lat="40.800014" lon="-3.920818">
        <ele>2214.8</ele>
        <time>2018-04-21T10:42:48.000Z</time>
      </trkpt>
      <trkpt lat="40.800014" lon="-3.920832">
        <ele>2214.7</ele>
        <time>2018-04-21T10:42:49.000Z</time>
      </trkpt>
      <trkpt lat="40.800014" lon="-3.920847">
        <ele>2214.8</ele>
        <time>2018-04-21T10:42:50.000Z</time>
      </trkpt>
      <trkpt lat="40.800013" lon="-3.920862">
        <ele>2214.9</ele>
        <time>2018-04-21T10:42:51.000Z</time>
      </trkpt>
      <trkpt lat="40.800011" lon="-3.920877">
        <ele>2215.0</ele>
        <time>2018-04-21T10:42:52.000Z</time>
      </trkpt>
      <trkpt lat="40.800009" lon="-3.920892">
        <ele>2215.1</ele>
        <time>2018-04-21T10:42:53.000Z</time>
      </trkpt>
      <trkpt lat="40.800006" lon="-3.920908">
        <ele>2215.2</ele>
        <time>2018-04-21T10:42:54.000Z</time>
      </trkpt>
      <trkpt lat="40.800004" lon="-3.920923">
        <ele>2215.4</ele>
        <time>2018-04-21T10:42:55.000Z</time>
      </trkpt>
      <trkpt lat="40.800002" lon="-3.920939">
        <ele>2215.5</ele>
        <time>2018-04-21T10:42:56.000Z</time>
      </trkpt>
      <trkpt lat="40.800001" lon="-3.920954">
        <ele>2215.6</ele>
        <time>2018-04-21T10:42:57.000Z</time>
      </trkpt>
      <trkpt lat="40.800002" lon="-3.920968">
        <ele>2215.6</ele>
        <time>2018-04-21T10:42:58.000Z</time>
      </trkpt>
      <trkpt lat="40.800004" lon="-3.920982">
        <ele>2215.6</ele>
        <time>2018-04-21T10:42:59.000Z</time>
      </trkpt>
      <trkpt lat="40.800006" lon="-3.920996">
        <ele>2215.7</ele>
        <time>2018-04-21T10:43:00.000Z</time>
      </trkpt>
      <trkpt lat="40.800009" lon="-3.92101">
        <ele>2215.7</ele>
        <time>2018-04-21T10:43:01.000Z</time>
      </trkpt>
      <trkpt lat="40.800011" lon="-3.921023">
        <ele>2215.7</ele>
        <time>2018-04-21T10:43:02.000Z</time>
      </trkpt>
      <trkpt lat="40.800013" lon="-3.921037">
        <ele>2215.7</ele>
        <time>2018-04-21T10:43:03.000Z</time>
      </trkpt>
      <trkpt lat="40.800016" lon="-3.92105">
        <ele>2215.7</ele>
        <time>2018-04-21T10:43:04.000Z</time>
      </trkpt>
      <trkpt lat="40.800017" lon="-3.921064">
        <ele>2215.8</ele>
        <time>2018-04-21T10:43:05.000Z</time>
      </trkpt>
      <trkpt lat="40.800019" lon="-3.921077">
        <ele>2215.8</ele>
        <time>2018-04-21T10:43:06.000Z</time>
      </trkpt>
      <trkpt lat="40.800021" lon="-3.921091">
        <ele>2215.8</ele>
        <time>2018-04-21T10:43:07.000Z</time>
      </trkpt>
      <trkpt lat="40.800022" lon="-3.921104">
        <ele>2215.9</ele>
        <time>2018-04-21T10:43:08.000Z</time>
      </trkpt>
      <trkpt lat="40.800023" lon="-3.921117">
        <ele>2215.9</ele>
        <time>2018-04-21T10:43:09.000Z</time>
      </trkpt>
      <trkpt lat="40.800024" lon="-3.921131">
        <ele>2216.0</ele>
        <time>2018-04-21T10:43:10.000Z</time>
      </trkpt>
      <trkpt lat="40.800025" lon="-3.921144">
        <ele>2216.0</ele>
        <time>2018-04-21T10:43:11.000Z</time>
      </trkpt>
      <trkpt lat="40.800026" lon="-3.921157">
        <ele>2216.1</ele>
        <time>2018-04-21T10:43:12.000Z</time>
      </trkpt>
      <trkpt lat="40.800027" lon="-3.92117">
        <ele>2216.1</ele>
        <time>2018-04-21T10:43:13.000Z</time>
      </trkpt>
      <trkpt lat="40.800028" lon="-3.921184">
        <ele>2216.2</ele>
        <time>2018-04-21T10:43:14.000Z</time>
      </trkpt>
      <trkpt lat="40.800029" lon="-3.921197">
        <ele>2216.2</ele>
        <time>2018-04-21T10:43:15.000Z</time>
      </trkpt>
      <trkpt lat="40.80003" lon="-3.92121">
        <ele>2216.2</ele>
        <time>2018-04-21T10:43:16.000Z</time>
      </trkpt>
      <trkpt lat="40.80003" lon="-3.921224">
        <ele>2216.3</ele>
        <time>2018-04-21T10:43:17.000Z</time>
      </trkpt>
      <trkpt lat="40.800031" lon="-3.921237">
        <ele>2216.4</ele>
        <time>2018-04-21T10:43:18.000Z</time>
      </trkpt>
      <trkpt lat="40.800032" lon="-3.921251">
        <ele>2216.4</ele>
        <time>2018-04-21T10:43:19.000Z</time>
      </trkpt>
      <trkpt lat="40.800032" lon="-3.921264">
        <ele>2216.5</ele>
        <time>2018-04-21T10:43:20.000Z</time>
      </trkpt>
      <trkpt lat="40.800033" lon="-3.921278">
        <ele>2216.5</ele>
        <time>2018-04-21T10:43:21.000Z</time>
      </trkpt>
      <trkpt lat="40.800034" lon="-3.921291">
        <ele>2216.6</ele>
        <time>2018-04-21T10:43:22.000Z</time>
      </trkpt>
      <trkpt lat="40.800035" lon="-3.921305">
        <ele>2216.6</ele>
        <time>2018-04-21T10:43:23.000Z</time>
      </trkpt>
      <trkpt lat="40.800035" lon="-3.921318">
        <ele>2216.7</ele>
        <time>2018-04-21T10:43:24.000Z</time>
      </trkpt>
      <trkpt lat="40.800036" lon="-3.921332">
        <ele>2216.7</ele>
        <time>2018-04-21T10:43:25.000Z</time>
      </trkpt>
      <trkpt lat="40.800037" lon="-3.921345">
        <ele>2216.8</ele>
        <time>2018-04-21T10:43:26.000Z</time>
      </trkpt>
      <trkpt lat="40.800038" lon="-3.921359">
        <ele>2216.8</ele>
        <time>2018-04-21T10:43:27.000Z</time>
      </trkpt>
      <trkpt lat="40.800038" lon="-3.921372">
        <ele>2216.9</ele>
        <time>2018-04-21T10:43:28.000Z</time>
      </trkpt>
      <trkpt lat="40.800039" lon="-3.921386">
        <ele>2216.9</ele>
        <time>2018-04-21T10:43:29.000Z</time>
      </trkpt>
      <trkpt lat="40.80004" lon="-3.921399">
        <ele>2217.0</ele>
        <time>2018-04-21T10:43:30.000Z</time>
      </trkpt>
      <trkpt lat="40.80004" lon="-3.921412">
        <ele>2217.0</ele>
        <time>2018-04-21T10:43:31.000Z</time>
      </trkpt>
      <trkpt lat="40.800041" lon="-3.921425">
        <ele>2217.1</ele>
        <time>2018-04-21T10:43:32.000Z</time>
      </trkpt>
      <trkpt lat="40.800041" lon="-3.921438">
        <ele>2217.2</ele>
        <time>2018-04-21T10:43:33.000Z</time>
      </trkpt>
      <trkpt lat="40.800041" lon="-3.921451">
        <ele>2217.2</ele>
        <time>2018-04-21T10:43:34.000Z</time>
      </trkpt>
      <trkpt lat="40.800042" lon="-3.921464">
        <ele>2217.3</ele>
        <time>2018-04-21T10:43:35.000Z</time>
      </trkpt>
      <trkpt lat="40.800042" lon="-3.921477">
        <ele>2217.3</ele>
        <time>2018-04-21T10:43:36.000Z</time>
      </trkpt>
      <trkpt lat="40.800042" lon="-3.921489">
        <ele>2217.4</ele>
        <time>2018-04-21T10:43:37.000Z</time>
      </trkpt>
      <trkpt lat="40.800042" lon="-3.921502">
        <ele>2217.4</ele>
        <time>2018-04-21T10:43:38.000Z</time>
      </trkpt>
      <trkpt lat="40.800042" lon="-3.921514">
        <ele>2217.5</ele>
        <time>2018-04-21T10:43:39.000Z</time>
      </trkpt>
      <trkpt lat="40.800042" lon="-3.921526">
        <ele>2217.6</ele>
        <time>2018-04-21T10:43:40.000Z</time>
      </trkpt>
      <trkpt lat="40.800042" lon="-3.921538">
        <ele>2217.6</ele>
        <time>2018-04-21T10:43:41.000Z</time>
      </trkpt>
      <trkpt lat="40.800042" lon="-3.92155">
        <ele>2217.7</ele>
        <time>2018-04-21T10:43:42.000Z</time>
      </trkpt>
      <trkpt lat="40.800042" lon="-3.921561">
        <ele>2217.7</ele>
        <time>2018-04-21T10:43:43.000Z</time>
      </trkpt>
      <trkpt lat="40.800043" lon="-3.921572">
        <ele>2217.8</ele>
        <time>2018-04-21T10:43:44.000Z</time>
      </trkpt>
      <trkpt lat="40.800043" lon="-3.921582">
        <ele>2217.8</ele>
        <time>2018-04-21T10:43:45.000Z</time>
      </trkpt>
      <trkpt lat="40.800044" lon="-3.921593">
        <ele>2217.8</ele>
        <time>2018-04-21T10:43:46.000Z</time>
      </trkpt>
      <trkpt lat="40.800044" lon="-3.921602">
        <ele>2217.9</ele>
        <time>2018-04-21T10:43:47.000Z</time>
      </trkpt>
      <trkpt lat="40.800045" lon="-3.921612">
        <ele>2217.9</ele>
        <time>2018-04-21T10:43:48.000Z</time>
      </trkpt>
      <trkpt lat="40.800046" lon="-3.921621">
        <ele>2217.9</ele>
        <time>2018-04-21T10:43:49.000Z</time>
      </trkpt>
      <trkpt lat="40.800048" lon="-3.921631">
        <ele>2218.0</ele>
        <time>2018-04-21T10:43:50.000Z</time>
      </trkpt>
      <trkpt lat="40.800049" lon="-3.921641">
        <ele>2218.0</ele>
        <time>2018-04-21T10:43:51.000Z</time>
      </trkpt>
      <trkpt lat="40.80005" lon="-3.921651">
        <ele>2218.0</ele>
        <time>2018-04-21T10:43:52.000Z</time>
      </trkpt>
      <trkpt lat="40.800051" lon="-3.921662">
        <ele>2218.1</ele>
        <time>2018-04-21T10:43:53.000Z</time>
      </trkpt>
      <trkpt lat="40.800052" lon="-3.921673">
        <ele>2218.1</ele>
        <time>2018-04-21T10:43:54.000Z</time>
      </trkpt>
      <trkpt lat="40.800053" lon="-3.921685">
        <ele>2218.1</ele>
        <time>2018-04-21T10:43:55.000Z</time>
      </trkpt>
      <trkpt lat="40.800054" lon="-3.921698">
        <ele>2218.1</ele>
        <time>2018-04-21T10:43:56.000Z</time>
      </trkpt>
      <trkpt lat="40.800055" lon="-3.921713">
        <ele>2218.1</ele>
        <time>2018-04-21T10:43:57.000Z</time>
      </trkpt>
      <trkpt lat="40.800056" lon="-3.921727">
        <ele>2218.1</ele>
        <time>2018-04-21T10:43:58.000Z</time>
      </trkpt>
      <trkpt lat="40.800057" lon="-3.921743">
        <ele>2218.1</ele>
        <time>2018-04-21T10:43:59.000Z</time>
      </trkpt>
      <trkpt lat="40.800057" lon="-3.921758">
        <ele>2218.1</ele>
        <time>2018-04-21T10:44:00.000Z</time>
      </trkpt>
      <trkpt lat="40.800057" lon="-3.921774">
        <ele>2218.1</ele>
        <time>2018-04-21T10:44:01.000Z</time>
      </trkpt>
      <trkpt lat="40.800058" lon="-3.92179">
        <ele>2218.1</ele>
        <time>2018-04-21T10:44:02.000Z</time>
      </trkpt>
      <trkpt lat="40.800058" lon="-3.921805">
        <ele>2218.2</ele>
        <time>2018-04-21T10:44:03.000Z</time>
      </trkpt>
      <trkpt lat="40.800058" lon="-3.92182">
        <ele>2218.2</ele>
        <time>2018-04-21T10:44:04.000Z</time>
      </trkpt>
      <trkpt lat="40.800058" lon="-3.921835">
        <ele>2218.2</ele>
        <time>2018-04-21T10:44:05.000Z</time>
      </trkpt>
      <trkpt lat="40.800058" lon="-3.921849">
        <ele>2218.2</ele>
        <time>2018-04-21T10:44:06.000Z</time>
      </trkpt>
      <trkpt lat="40.800058" lon="-3.921863">
        <ele>2218.2</ele>
        <time>2018-04-21T10:44:07.000Z</time>
      </trkpt>
      <trkpt lat="40.800058" lon="-3.921877">
        <ele>2218.3</ele>
        <time>2018-04-21T10:44:08.000Z</time>
      </trkpt>
      <trkpt lat="40.800058" lon="-3.92189">
        <ele>2218.3</ele>
        <time>2018-04-21T10:44:09.000Z</time>
      </trkpt>
      <trkpt lat="40.800058" lon="-3.921903">
        <ele>2218.3</ele>
        <time>2018-04-21T10:44:10.000Z</time>
      </trkpt>
      <trkpt lat="40.800058" lon="-3.921915">
        <ele>2218.3</ele>
        <time>2018-04-21T10:44:11.000Z</time>
      </trkpt>
      <trkpt lat="40.800058" lon="-3.921928">
        <ele>2218.3</ele>
        <time>2018-04-21T10:44:12.000Z</time>
      </trkpt>
      <trkpt lat="40.800058" lon="-3.92194">
        <ele>2218.4</ele>
        <time>2018-04-21T10:44:13.000Z</time>
      </trkpt>
      <trkpt lat="40.800058" lon="-3.921953">
        <ele>2218.4</ele>
        <time>2018-04-21T10:44:14.000Z</time>
      </trkpt>
      <trkpt lat="40.800058" lon="-3.921965">
        <ele>2218.4</ele>
        <time>2018-04-21T10:44:15.000Z</time>
      </trkpt>
      <trkpt lat="40.800058" lon="-3.921978">
        <ele>2218.4</ele>
        <time>2018-04-21T10:44:16.000Z</time>
      </trkpt>
      <trkpt lat="40.800058" lon="-3.92199">
        <ele>2218.4</ele>
        <time>2018-04-21T10:44:17.000Z</time>
      </trkpt>
      <trkpt lat="40.800058" lon="-3.922002">
        <ele>2218.4</ele>
        <time>2018-04-21T10:44:18.000Z</time>
      </trkpt>
      <trkpt lat="40.800058" lon="-3.922015">
        <ele>2218.5</ele>
        <time>2018-04-21T10:44:19.000Z</time>
      </trkpt>
      <trkpt lat="40.800058" lon="-3.922027">
        <ele>2218.5</ele>
        <time>2018-04-21T10:44:20.000Z</time>
      </trkpt>
      <trkpt lat="40.800058" lon="-3.922039">
        <ele>2218.5</ele>
        <time>2018-04-21T10:44:21.000Z</time>
      </trkpt>
      <trkpt lat="40.800058" lon="-3.922052">
        <ele>2218.5</ele>
        <time>2018-04-21T10:44:22.000Z</time>
      </trkpt>
      <trkpt lat="40.800058" lon="-3.922064">
        <ele>2218.5</ele>
        <time>2018-04-21T10:44:23.000Z</time>
      </trkpt>
      <trkpt lat="40.800058" lon="-3.922076">
        <ele>2218.5</ele>
        <time>2018-04-21T10:44:24.000Z</time>
      </trkpt>
      <trkpt lat="40.800058" lon="-3.922088">
        <ele>2218.6</ele>
        <time>2018-04-21T10:44:25.000Z</time>
      </trkpt>
      <trkpt lat="40.800057" lon="-3.922101">
        <ele>2218.6</ele>
        <time>2018-04-21T10:44:26.000Z</time>
      </trkpt>
      <trkpt lat="40.800057" lon="-3.922113">
        <ele>2218.6</ele>
        <time>2018-04-21T10:44:27.000Z</time>
      </trkpt>
      <trkpt lat="40.800057" lon="-3.922125">
        <ele>2218.6</ele>
        <time>2018-04-21T10:44:28.000Z</time>
      </trkpt>
      <trkpt lat="40.800057" lon="-3.922138">
        <ele>2218.7</ele>
        <time>2018-04-21T10:44:29.000Z</time>
      </trkpt>
      <trkpt lat="40.800057" lon="-3.92215">
        <ele>2218.7</ele>
        <time>2018-04-21T10:44:30.000Z</time>
      </trkpt>
      <trkpt lat="40.800056" lon="-3.922162">
        <ele>2218.7</ele>
        <time>2018-04-21T10:44:31.000Z</time>
      </trkpt>
      <trkpt lat="40.800056" lon="-3.922175">
        <ele>2218.7</ele>
        <time>2018-04-21T10:44:32.000Z</time>
      </trkpt>
      <trkpt lat="40.800055" lon="-3.922187">
        <ele>2218.8</ele>
        <time>2018-04-21T10:44:33.000Z</time>
      </trkpt>
      <trkpt lat="40.800055" lon="-3.922199">
        <ele>2218.8</ele>
        <time>2018-04-21T10:44:34.000Z</time>
      </trkpt>
      <trkpt lat="40.800054" lon="-3.922211">
        <ele>2218.8</ele>
        <time>2018-04-21T10:44:35.000Z</time>
      </trkpt>
      <trkpt lat="40.800054" lon="-3.922224">
        <ele>2218.8</ele>
        <time>2018-04-21T10:44:36.000Z</time>
      </trkpt>
      <trkpt lat="40.800053" lon="-3.922236">
        <ele>2218.9</ele>
        <time>2018-04-21T10:44:37.000Z</time>
      </trkpt>
      <trkpt lat="40.800053" lon="-3.922248">
        <ele>2218.9</ele>
        <time>2018-04-21T10:44:38.000Z</time>
      </trkpt>
      <trkpt lat="40.800053" lon="-3.92226">
        <ele>2218.9</ele>
        <time>2018-04-21T10:44:39.000Z</time>
      </trkpt>
      <trkpt lat="40.800052" lon="-3.922272">
        <ele>2218.9</ele>
        <time>2018-04-21T10:44:40.000Z</time>
      </trkpt>
      <trkpt lat="40.800052" lon="-3.922284">
        <ele>2218.9</ele>
        <time>2018-04-21T10:44:41.000Z</time>
      </trkpt>
      <trkpt lat="40.800052" lon="-3.922296">
        <ele>2219.0</ele>
        <time>2018-04-21T10:44:42.000Z</time>
      </trkpt>
      <trkpt lat="40.800052" lon="-3.922307">
        <ele>2219.0</ele>
        <time>2018-04-21T10:44:43.000Z</time>
      </trkpt>
      <trkpt lat="40.800052" lon="-3.922319">
        <ele>2219.0</ele>
        <time>2018-04-21T10:44:44.000Z</time>
      </trkpt>
      <trkpt lat="40.800052" lon="-3.92233">
        <ele>2219.0</ele>
        <time>2018-04-21T10:44:45.000Z</time>
      </trkpt>
      <trkpt lat="40.800052" lon="-3.922341">
        <ele>2219.0</ele>
        <time>2018-04-21T10:44:46.000Z</time>
      </trkpt>
      <trkpt lat="40.800053" lon="-3.922353">
        <ele>2219.0</ele>
        <time>2018-04-21T10:44:47.000Z</time>
      </trkpt>
      <trkpt lat="40.800053" lon="-3.922363">
        <ele>2219.0</ele>
        <time>2018-04-21T10:44:48.000Z</time>
      </trkpt>
      <trkpt lat="40.800054" lon="-3.922374">
        <ele>2219.0</ele>
        <time>2018-04-21T10:44:49.000Z</time>
      </trkpt>
      <trkpt lat="40.800055" lon="-3.922384">
        <ele>2219.0</ele>
        <time>2018-04-21T10:44:50.000Z</time>
      </trkpt>
      <trkpt lat="40.800057" lon="-3.922395">
        <ele>2219.0</ele>
        <time>2018-04-21T10:44:51.000Z</time>
      </trkpt>
      <trkpt lat="40.800058" lon="-3.922405">
        <ele>2219.0</ele>
        <time>2018-04-21T10:44:52.000Z</time>
      </trkpt>
      <trkpt lat="40.800059" lon="-3.922414">
        <ele>2219.0</ele>
        <time>2018-04-21T10:44:53.000Z</time>
      </trkpt>
      <trkpt lat="40.800061" lon="-3.922424">
        <ele>2219.0</ele>
        <time>2018-04-21T10:44:54.000Z</time>
      </trkpt>
      <trkpt lat="40.800062" lon="-3.922433">
        <ele>2219.0</ele>
        <time>2018-04-21T10:44:55.000Z</time>
      </trkpt>
      <trkpt lat="40.800063" lon="-3.922441">
        <ele>2219.0</ele>
        <time>2018-04-21T10:44:56.000Z</time>
      </trkpt>
      <trkpt lat="40.800064" lon="-3.922449">
        <ele>2219.0</ele>
        <time>2018-04-21T10:44:57.000Z</time>
      </trkpt>
      <trkpt lat="40.800066" lon="-3.922457">
        <ele>2219.0</ele>
        <time>2018-04-21T10:44:58.000Z</time>
      </trkpt>
      <trkpt lat="40.800066" lon="-3.922465">
        <ele>2219.0</ele>
        <time>2018-04-21T10:44:59.000Z</time>
      </trkpt>
      <trkpt lat="40.800067" lon="-3.922472">
        <ele>2219.0</ele>
        <time>2018-04-21T10:45:00.000Z</time>
      </trkpt>
      <trkpt lat="40.800068" lon="-3.922479">
        <ele>2219.0</ele>
        <time>2018-04-21T10:45:01.000Z</time>
      </trkpt>
      <trkpt lat="40.800068" lon="-3.922485">
        <ele>2219.0</ele>
        <time>2018-04-21T10:45:02.000Z</time>
      </trkpt>
      <trkpt lat="40.800068" lon="-3.92249">
        <ele>2219.0</ele>
        <time>2018-04-21T10:45:03.000Z</time>
      </trkpt>
      <trkpt lat="40.800068" lon="-3.922495">
        <ele>2219.0</ele>
        <time>2018-04-21T10:45:04.000Z</time>
      </trkpt>
      <trkpt lat="40.800068" lon="-3.9225">
        <ele>2219.0</ele>
        <time>2018-04-21T10:45:05.000Z</time>
      </trkpt>
      <trkpt lat="40.800068" lon="-3.922503">
        <ele>2219.0</ele>
        <time>2018-04-21T10:45:06.000Z</time>
      </trkpt>
      <trkpt lat="40.800068" lon="-3.922507">
        <ele>2219.0</ele>
        <time>2018-04-21T10:45:07.000Z</time>
      </trkpt>
      <trkpt lat="40.800067" lon="-3.922509">
        <ele>2219.0</ele>
        <time>2018-04-21T10:45:08.000Z</time>
      </trkpt>
      <trkpt lat="40.800067" lon="-3.922511">
        <ele>2219.1</ele>
        <time>2018-04-21T10:45:09.000Z</time>
      </trkpt>
      <trkpt lat="40.800067" lon="-3.922513">
        <ele>2219.1</ele>
        <time>2018-04-21T10:45:10.000Z</time>
      </trkpt>
      <trkpt lat="40.800066" lon="-3.922515">
        <ele>2219.1</ele>
        <time>2018-04-21T10:45:11.000Z</time>
      </trkpt>
      <trkpt lat="40.800066" lon="-3.922516">
        <ele>2219.1</ele>
        <time>2018-04-21T10:45:12.000Z</time>
      </trkpt>
      <trkpt lat="40.800065" lon="-3.922517">
        <ele>2219.1</ele>
        <time>2018-04-21T10:45:13.000Z</time>
      </trkpt>
      <trkpt lat="40.800065" lon="-3.922519">
        <ele>2219.1</ele>
        <time>2018-04-21T10:45:14.000Z</time>
      </trkpt>
      <trkpt lat="40.800065" lon="-3.922521">
        <ele>2219.1</ele>
        <time>2018-04-21T10:45:15.000Z</time>
      </trkpt>
      <trkpt lat="40.800065" lon="-3.922523">
        <ele>2219.1</ele>
        <time>2018-04-21T10:45:16.000Z</time>
      </trkpt>
      <trkpt lat="40.800065" lon="-3.922525">
        <ele>2219.1</ele>
        <time>2018-04-21T10:45:17.000Z</time>
      </trkpt>
      <trkpt lat="40.800064" lon="-3.922529">
        <ele>2219.1</ele>
        <time>2018-04-21T10:45:18.000Z</time>
      </trkpt>
      <trkpt lat="40.800064" lon="-3.922533">
        <ele>2219.1</ele>
        <time>2018-04-21T10:45:19.000Z</time>
      </trkpt>
      <trkpt lat="40.800063" lon="-3.922537">
        <ele>2219.1</ele>
        <time>2018-04-21T10:45:20.000Z</time>
      </trkpt>
      <trkpt lat="40.800062" lon="-3.922541">
        <ele>2219.2</ele>
        <time>2018-04-21T10:45:21.000Z</time>
      </trkpt>
      <trkpt lat="40.80006" lon="-3.922547">
        <ele>2219.2</ele>
        <time>2018-04-21T10:45:22.000Z</time>
      </trkpt>
      <trkpt lat="40.800057" lon="-3.922552">
        <ele>2219.3</ele>
        <time>2018-04-21T10:45:23.000Z</time>
      </trkpt>
      <trkpt lat="40.800054" lon="-3.922558">
        <ele>2219.3</ele>
        <time>2018-04-21T10:45:24.000Z</time>
      </trkpt>
      <trkpt lat="40.80005" lon="-3.922565">
        <ele>2219.4</ele>
        <time>2018-04-21T10:45:25.000Z</time>
      </trkpt>
      <trkpt lat="40.800047" lon="-3.922573">
        <ele>2219.4</ele>
        <time>2018-04-21T10:45:26.000Z</time>
      </trkpt>
      <trkpt lat="40.800044" lon="-3.922581">
        <ele>2219.5</ele>
        <time>2018-04-21T10:45:27.000Z</time>
      </trkpt>
      <trkpt lat="40.800042" lon="-3.922589">
        <ele>2219.5</ele>
        <time>2018-04-21T10:45:28.000Z</time>
      </trkpt>
      <trkpt lat="40.800039" lon="-3.922598">
        <ele>2219.6</ele>
        <time>2018-04-21T10:45:29.000Z</time>
      </trkpt>
      <trkpt lat="40.800037" lon="-3.922606">
        <ele>2219.6</ele>
        <time>2018-04-21T10:45:30.000Z</time>
      </trkpt>
      <trkpt lat="40.800035" lon="-3.922614">
        <ele>2219.7</ele>
        <time>2018-04-21T10:45:31.000Z</time>
      </trkpt>
      <trkpt lat="40.800033" lon="-3.922621">
        <ele>2219.7</ele>
        <time>2018-04-21T10:45:32.000Z</time>
      </trkpt>
      <trkpt lat="40.800031" lon="-3.922628">
        <ele>2219.7</ele>
        <time>2018-04-21T10:45:33.000Z</time>
      </trkpt>
      <trkpt lat="40.80003" lon="-3.922634">
        <ele>2219.7</ele>
        <time>2018-04-21T10:45:34.000Z</time>
      </trkpt>
      <trkpt lat="40.800029" lon="-3.922638">
        <ele>2219.8</ele>
        <time>2018-04-21T10:45:35.000Z</time>
      </trkpt>
      <trkpt lat="40.800028" lon="-3.922642">
        <ele>2219.8</ele>
        <time>2018-04-21T10:45:36.000Z</time>
      </trkpt>
      <trkpt lat="40.800028" lon="-3.922644">
        <ele>2219.8</ele>
        <time>2018-04-21T10:45:37.000Z</time>
      </trkpt>
      <trkpt lat="40.800027" lon="-3.922646">
        <ele>2219.8</ele>
        <time>2018-04-21T10:45:38.000Z</time>
      </trkpt>
      <trkpt lat="40.800027" lon="-3.922647">
        <ele>2219.8</ele>
        <time>2018-04-21T10:45:39.000Z</time>
      </trkpt>
      <trkpt lat="40.800027" lon="-3.922647">
        <ele>2219.8</ele>
        <time>2018-04-21T10:45:40.000Z</time>
      </trkpt>
      <trkpt lat="40.800027" lon="-3.922648">
        <ele>2219.8</ele>
        <time>2018-04-21T10:45:41.000Z</time>
      </trkpt>
      <trkpt lat="40.800027" lon="-3.922648">
        <ele>2219.8</ele>
        <time>2018-04-21T10:45:42.000Z</time>
      </trkpt>
      <trkpt lat="40.800027" lon="-3.922648">
        <ele>2219.8</ele>
        <time>2018-04-21T10:45:43.000Z</time>
      </trkpt>
      <trkpt lat="40.800027" lon="-3.922647">
        <ele>2219.8</ele>
        <time>2018-04-21T10:45:44.000Z</time>
      </trkpt>
      <trkpt lat="40.800027" lon="-3.922648">
        <ele>2219.8</ele>
        <time>2018-04-21T10:45:45.000Z</time>
      </trkpt>
      <trkpt lat="40.800027" lon="-3.922648">
        <ele>2219.8</ele>
        <time>2018-04-21T10:45:46.000Z</time>
      </trkpt>
      <trkpt lat="40.800027" lon="-3.922648">
        <ele>2219.8</ele>
        <time>2018-04-21T10:45:47.000Z</time>
      </trkpt>
      <trkpt lat="40.800027" lon="-3.922648">
        <ele>2219.8</ele>
        <time>2018-04-21T10:45:48.000Z</time>
      </trkpt>
      <trkpt lat="40.800028" lon="-3.922649">
        <ele>2219.8</ele>
        <time>2018-04-21T10:45:49.000Z</time>
      </trkpt>
      <trkpt lat="40.800028" lon="-3.922649">
        <ele>2219.8</ele>
        <time>2018-04-21T10:45:50.000Z</time>
      </trkpt>
      <trkpt lat="40.800028" lon="-3.92265">
        <ele>2219.8</ele>
        <time>2018-04-21T10:45:51.000Z</time>
      </trkpt>
      <trkpt lat="40.800029" lon="-3.922651">
        <ele>2219.8</ele>
        <time>2018-04-21T10:45:52.000Z</time>
      </trkpt>
      <trkpt lat="40.800029" lon="-3.922653">
        <ele>2219.8</ele>
        <time>2018-04-21T10:45:53.000Z</time>
      </trkpt>
      <trkpt lat="40.80003" lon="-3.922654">
        <ele>2219.8</ele>
        <time>2018-04-21T10:45:54.000Z</time>
      </trkpt>
      <trkpt lat="40.80003" lon="-3.922656">
        <ele>2219.8</ele>
        <time>2018-04-21T10:45:55.000Z</time>
      </trkpt>
      <trkpt lat="40.800031" lon="-3.922658">
        <ele>2219.8</ele>
        <time>2018-04-21T10:45:56.000Z</time>
      </trkpt>
      <trkpt lat="40.800032" lon="-3.92266">
        <ele>2219.8</ele>
        <time>2018-04-21T10:45:57.000Z</time>
      </trkpt>
      <trkpt lat="40.800033" lon="-3.922663">
        <ele>2219.7</ele>
        <time>2018-04-21T10:45:58.000Z</time>
      </trkpt>
      <trkpt lat="40.800034" lon="-3.922665">
        <ele>2219.7</ele>
        <time>2018-04-21T10:45:59.000Z</time>
      </trkpt>
      <trkpt lat="40.800035" lon="-3.922668">
        <ele>2219.7</ele>
        <time>2018-04-21T10:46:00.000Z</time>
      </trkpt>
      <trkpt lat="40.800036" lon="-3.922671">
        <ele>2219.7</ele>
        <time>2018-04-21T10:46:01.000Z</time>
      </trkpt>
      <trkpt lat="40.800037" lon="-3.922674">
        <ele>2219.7</ele>
        <time>2018-04-21T10:46:02.000Z</time>
      </trkpt>
      <trkpt lat="40.800037" lon="-3.922677">
        <ele>2219.7</ele>
        <time>2018-04-21T10:46:03.000Z</time>
      </trkpt>
      <trkpt lat="40.800038" lon="-3.92268">
        <ele>2219.7</ele>
        <time>2018-04-21T10:46:04.000Z</time>
      </trkpt>
      <trkpt lat="40.800039" lon="-3.922683">
        <ele>2219.7</ele>
        <time>2018-04-21T10:46:05.000Z</time>
      </trkpt>
      <trkpt lat="40.80004" lon="-3.922687">
        <ele>2219.7</ele>
        <time>2018-04-21T10:46:06.000Z</time>
      </trkpt>
      <trkpt lat="40.80004" lon="-3.92269">
        <ele>2219.7</ele>
        <time>2018-04-21T10:46:07.000Z</time>
      </trkpt>
      <trkpt lat="40.80004" lon="-3.922694">
        <ele>2219.7</ele>
        <time>2018-04-21T10:46:08.000Z</time>
      </trkpt>
      <trkpt lat="40.80004" lon="-3.922698">
        <ele>2219.7</ele>
        <time>2018-04-21T10:46:09.000Z</time>
      </trkpt>
      <trkpt lat="40.80004" lon="-3.922701">
        <ele>2219.7</ele>
        <time>2018-04-21T10:46:10.000Z</time>
      </trkpt>
      <trkpt lat="40.80004" lon="-3.922705">
        <ele>2219.7</ele>
        <time>2018-04-21T10:46:11.000Z</time>
      </trkpt>
      <trkpt lat="40.800039" lon="-3.922709">
        <ele>2219.7</ele>
        <time>2018-04-21T10:46:12.000Z</time>
      </trkpt>
      <trkpt lat="40.800038" lon="-3.922713">
        <ele>2219.7</ele>
        <time>2018-04-21T10:46:13.000Z</time>
      </trkpt>
      <trkpt lat="40.800036" lon="-3.922717">
        <ele>2219.8</ele>
        <time>2018-04-21T10:46:14.000Z</time>
      </trkpt>
      <trkpt lat="40.800035" lon="-3.92272">
        <ele>2219.8</ele>
        <time>2018-04-21T10:46:15.000Z</time>
      </trkpt>
      <trkpt lat="40.800033" lon="-3.922724">
        <ele>2219.8</ele>
        <time>2018-04-21T10:46:16.000Z</time>
      </trkpt>
      <trkpt lat="40.800031" lon="-3.922728">
        <ele>2219.9</ele>
        <time>2018-04-21T10:46:17.000Z</time>
      </trkpt>
      <trkpt lat="40.80003" lon="-3.922731">
        <ele>2219.9</ele>
        <time>2018-04-21T10:46:18.000Z</time>
      </trkpt>
      <trkpt lat="40.800028" lon="-3.922734">
        <ele>2219.9</ele>
        <time>2018-04-21T10:46:19.000Z</time>
      </trkpt>
      <trkpt lat="40.800026" lon="-3.922738">
        <ele>2219.9</ele>
        <time>2018-04-21T10:46:20.000Z</time>
      </trkpt>
      <trkpt lat="40.800024" lon="-3.922741">
        <ele>2220.0</ele>
        <time>2018-04-21T10:46:21.000Z</time>
      </trkpt>
      <trkpt lat="40.800023" lon="-3.922746">
        <ele>2220.0</ele>
        <time>2018-04-21T10:46:22.000Z</time>
      </trkpt>
      <trkpt lat="40.800023" lon="-3.922752">
        <ele>2220.0</ele>
        <time>2018-04-21T10:46:23.000Z</time>
      </trkpt>
      <trkpt lat="40.800024" lon="-3.92276">
        <ele>2220.0</ele>
        <time>2018-04-21T10:46:24.000Z</time>
      </trkpt>
      <trkpt lat="40.800026" lon="-3.922771">
        <ele>2220.0</ele>
        <time>2018-04-21T10:46:25.000Z</time>
      </trkpt>
      <trkpt lat="40.80003" lon="-3.922784">
        <ele>2219.9</ele>
        <time>2018-04-21T10:46:26.000Z</time>
      </trkpt>
      <trkpt lat="40.800034" lon="-3.922796">
        <ele>2219.9</ele>
        <time>2018-04-21T10:46:27.000Z</time>
      </trkpt>
      <trkpt lat="40.800039" lon="-3.922808">
        <ele>2219.9</ele>
        <time>2018-04-21T10:46:28.000Z</time>
      </trkpt>
      <trkpt lat="40.800044" lon="-3.922817">
        <ele>2219.8</ele>
        <time>2018-04-21T10:46:29.000Z</time>
      </trkpt>
      <trkpt lat="40.800048" lon="-3.922825">
        <ele>2219.8</ele>
        <time>2018-04-21T10:46:30.000Z</time>
      </trkpt>
      <trkpt lat="40.800052" lon="-3.92283">
        <ele>2219.7</ele>
        <time>2018-04-21T10:46:31.000Z</time>
      </trkpt>
      <trkpt lat="40.800056" lon="-3.922834">
        <ele>2219.7</ele>
        <time>2018-04-21T10:46:32.000Z</time>
      </trkpt>
      <trkpt lat="40.800059" lon="-3.922835">
        <ele>2219.6</ele>
        <time>2018-04-21T10:46:33.000Z</time>
      </trkpt>
      <trkpt lat="40.80006" lon="-3.922836">
        <ele>2219.6</ele>
        <time>2018-04-21T10:46:34.000Z</time>
      </trkpt>
      <trkpt lat="40.80006" lon="-3.922835">
        <ele>2219.6</ele>
        <time>2018-04-21T10:46:35.000Z</time>
      </trkpt>
      <trkpt lat="40.800058" lon="-3.922836">
        <ele>2219.7</ele>
        <time>2018-04-21T10:46:36.000Z</time>
      </trkpt>
      <trkpt lat="40.800054" lon="-3.92284">
        <ele>2219.7</ele>
        <time>2018-04-21T10:46:37.000Z</time>
      </trkpt>
      <trkpt lat="40.800047" lon="-3.922846">
        <ele>2219.8</ele>
        <time>2018-04-21T10:46:38.000Z</time>
      </trkpt>
      <trkpt lat="40.800039" lon="-3.922856">
        <ele>2219.9</ele>
        <time>2018-04-21T10:46:39.000Z</time>
      </trkpt>
      <trkpt lat="40.800029" lon="-3.922866">
        <ele>2220.1</ele>
        <time>2018-04-21T10:46:40.000Z</time>
      </trkpt>
      <trkpt lat="40.800021" lon="-3.922878">
        <ele>2220.2</ele>
        <time>2018-04-21T10:46:41.000Z</time>
      </trkpt>
      <trkpt lat="40.800014" lon="-3.922888">
        <ele>2220.3</ele>
        <time>2018-04-21T10:46:42.000Z</time>
      </trkpt>
      <trkpt lat="40.80001" lon="-3.922897">
        <ele>2220.3</ele>
        <time>2018-04-21T10:46:43.000Z</time>
      </trkpt>
      <trkpt lat="40.800008" lon="-3.922905">
        <ele>2220.4</ele>
        <time>2018-04-21T10:46:44.000Z</time>
      </trkpt>
      <trkpt lat="40.800008" lon="-3.922912">
        <ele>2220.4</ele>
        <time>2018-04-21T10:46:45.000Z</time>
      </trkpt>
      <trkpt lat="40.800008" lon="-3.922917">
        <ele>2220.4</ele>
        <time>2018-04-21T10:46:46.000Z</time>
      </trkpt>
      <trkpt lat="40.800008" lon="-3.922922">
        <ele>2220.4</ele>
        <time>2018-04-21T10:46:47.000Z</time>
      </trkpt>
      <trkpt lat="40.800007" lon="-3.922926">
        <ele>2220.4</ele>
        <time>2018-04-21T10:46:48.000Z</time>
      </trkpt>
      <trkpt lat="40.800006" lon="-3.92293">
        <ele>2220.4</ele>
        <time>2018-04-21T10:46:49.000Z</time>
      </trkpt>
      <trkpt lat="40.800003" lon="-3.922935">
        <ele>2220.5</ele>
        <time>2018-04-21T10:46:50.000Z</time>
      </trkpt>
      <trkpt lat="40.8" lon="-3.92294">
        <ele>2220.5</ele>
        <time>2018-04-21T10:46:51.000Z</time>
      </trkpt>
      <trkpt lat="40.799995" lon="-3.922947">
        <ele>2220.4</ele>
        <time>2018-04-21T10:46:52.000Z</time>
      </trkpt>
      <trkpt lat="40.79999" lon="-3.922955">
        <ele>2220.4</ele>
        <time>2018-04-21T10:46:53.000Z</time>
      </trkpt>
      <trkpt lat="40.799985" lon="-3.922965">
        <ele>2220.3</ele>
        <time>2018-04-21T10:46:54.000Z</time>
      </trkpt>
      <trkpt lat="40.799979" lon="-3.922976">
        <ele>2220.2</ele>
        <time>2018-04-21T10:46:55.000Z</time>
      </trkpt>
      <trkpt lat="40.799973" lon="-3.922987">
        <ele>2220.1</ele>
        <time>2018-04-21T10:46:56.000Z</time>
      </trkpt>
      <trkpt lat="40.799967" lon="-3.922998">
        <ele>2220.0</ele>
        <time>2018-04-21T10:46:57.000Z</time>
      </trkpt>
      <trkpt lat="40.799961" lon="-3.923009">
        <ele>2219.9</ele>
        <time>2018-04-21T10:46:58.000Z</time>
      </trkpt>
      <trkpt lat="40.799955" lon="-3.92302">
        <ele>2219.8</ele>
        <time>2018-04-21T10:46:59.000Z</time>
      </trkpt>
      <trkpt lat="40.79995" lon="-3.923031">
        <ele>2219.7</ele>
        <time>2018-04-21T10:47:00.000Z</time>
      </trkpt>
      <trkpt lat="40.799945" lon="-3.923041">
        <ele>2219.7</ele>
        <time>2018-04-21T10:47:01.000Z</time>
      </trkpt>
      <trkpt lat="40.79994" lon="-3.923052">
        <ele>2219.6</ele>
        <time>2018-04-21T10:47:02.000Z</time>
      </trkpt>
      <trkpt lat="40.799935" lon="-3.923063">
        <ele>2219.5</ele>
        <time>2018-04-21T10:47:03.000Z</time>
      </trkpt>
      <trkpt lat="40.79993" lon="-3.923074">
        <ele>2219.4</ele>
        <time>2018-04-21T10:47:04.000Z</time>
      </trkpt>
      <trkpt lat="40.799926" lon="-3.923084">
        <ele>2219.4</ele>
        <time>2018-04-21T10:47:05.000Z</time>
      </trkpt>
      <trkpt lat="40.799921" lon="-3.923095">
        <ele>2219.3</ele>
        <time>2018-04-21T10:47:06.000Z</time>
      </trkpt>
      <trkpt lat="40.799917" lon="-3.923105">
        <ele>2219.2</ele>
        <time>2018-04-21T10:47:07.000Z</time>
      </trkpt>
      <trkpt lat="40.799913" lon="-3.923116">
        <ele>2219.2</ele>
        <time>2018-04-21T10:47:08.000Z</time>
      </trkpt>
      <trkpt lat="40.79991" lon="-3.923126">
        <ele>2219.2</ele>
        <time>2018-04-21T10:47:09.000Z</time>
      </trkpt>
      <trkpt lat="40.799906" lon="-3.923136">
        <ele>2219.1</ele>
        <time>2018-04-21T10:47:10.000Z</time>
      </trkpt>
      <trkpt lat="40.799903" lon="-3.923147">
        <ele>2219.1</ele>
        <time>2018-04-21T10:47:11.000Z</time>
      </trkpt>
      <trkpt lat="40.7999" lon="-3.923157">
        <ele>2219.0</ele>
        <time>2018-04-21T10:47:12.000Z</time>
      </trkpt>
      <trkpt lat="40.799897" lon="-3.923167">
        <ele>2219.0</ele>
        <time>2018-04-21T10:47:13.000Z</time>
      </trkpt>
      <trkpt lat="40.799894" lon="-3.923177">
        <ele>2219.0</ele>
        <time>2018-04-21T10:47:14.000Z</time>
      </trkpt>
      <trkpt lat="40.799892" lon="-3.923187">
        <ele>2218.9</ele>
        <time>2018-04-21T10:47:15.000Z</time>
      </trkpt>
      <trkpt lat="40.799889" lon="-3.923197">
        <ele>2218.9</ele>
        <time>2018-04-21T10:47:16.000Z</time>
      </trkpt>
      <trkpt lat="40.799887" lon="-3.923207">
        <ele>2218.9</ele>
        <time>2018-04-21T10:47:17.000Z</time>
      </trkpt>
      <trkpt lat="40.799884" lon="-3.923217">
        <ele>2218.9</ele>
        <time>2018-04-21T10:47:18.000Z</time>
      </trkpt>
      <trkpt lat="40.799882" lon="-3.923228">
        <ele>2218.8</ele>
        <time>2018-04-21T10:47:19.000Z</time>
      </trkpt>
      <trkpt lat="40.799878" lon="-3.923238">
        <ele>2218.8</ele>
        <time>2018-04-21T10:47:20.000Z</time>
      </trkpt>
      <trkpt lat="40.799875" lon="-3.923248">
        <ele>2218.8</ele>
        <time>2018-04-21T10:47:21.000Z</time>
      </trkpt>
      <trkpt lat="40.799871" lon="-3.923259">
        <ele>2218.7</ele>
        <time>2018-04-21T10:47:22.000Z</time>
      </trkpt>
      <trkpt lat="40.799866" lon="-3.92327">
        <ele>2218.6</ele>
        <time>2018-04-21T10:47:23.000Z</time>
      </trkpt>
      <trkpt lat="40.799861" lon="-3.923281">
        <ele>2218.6</ele>
        <time>2018-04-21T10:47:24.000Z</time>
      </trkpt>
      <trkpt lat="40.799854" lon="-3.923292">
        <ele>2218.5</ele>
        <time>2018-04-21T10:47:25.000Z</time>
      </trkpt>
      <trkpt lat="40.799848" lon="-3.923303">
        <ele>2218.4</ele>
        <time>2018-04-21T10:47:26.000Z</time>
      </trkpt>
      <trkpt lat="40.799841" lon="-3.923315">
        <ele>2218.3</ele>
        <time>2018-04-21T10:47:27.000Z</time>
      </trkpt>
      <trkpt lat="40.799835" lon="-3.923326">
        <ele>2218.2</ele>
        <time>2018-04-21T10:47:28.000Z</time>
      </trkpt>
      <trkpt lat="40.799828" lon="-3.923337">
        <ele>2218.1</ele>
        <time>2018-04-21T10:47:29.000Z</time>
      </trkpt>
      <trkpt lat="40.799822" lon="-3.923349">
        <ele>2218.1</ele>
        <time>2018-04-21T10:47:30.000Z</time>
      </trkpt>
      <trkpt lat="40.799817" lon="-3.92336">
        <ele>2218.2</ele>
        <time>2018-04-21T10:47:31.000Z</time>
      </trkpt>
      <trkpt lat="40.799812" lon="-3.923371">
        <ele>2218.2</ele>
        <time>2018-04-21T10:47:32.000Z</time>
      </trkpt>
      <trkpt lat="40.799808" lon="-3.923381">
        <ele>2218.2</ele>
        <time>2018-04-21T10:47:33.000Z</time>
      </trkpt>
      <trkpt lat="40.799806" lon="-3.923392">
        <ele>2218.3</ele>
        <time>2018-04-21T10:47:34.000Z</time>
      </trkpt>
      <trkpt lat="40.799805" lon="-3.923402">
        <ele>2218.3</ele>
        <time>2018-04-21T10:47:35.000Z</time>
      </trkpt>
      <trkpt lat="40.799805" lon="-3.923411">
        <ele>2218.4</ele>
        <time>2018-04-21T10:47:36.000Z</time>
      </trkpt>
      <trkpt lat="40.799807" lon="-3.923421">
        <ele>2218.5</ele>
        <time>2018-04-21T10:47:37.000Z</time>
      </trkpt>
      <trkpt lat="40.799811" lon="-3.92343">
        <ele>2218.7</ele>
        <time>2018-04-21T10:47:38.000Z</time>
      </trkpt>
      <trkpt lat="40.799816" lon="-3.923438">
        <ele>2218.8</ele>
        <time>2018-04-21T10:47:39.000Z</time>
      </trkpt>
      <trkpt lat="40.79982" lon="-3.923447">
        <ele>2219.0</ele>
        <time>2018-04-21T10:47:40.000Z</time>
      </trkpt>
      <trkpt lat="40.799824" lon="-3.923456">
        <ele>2219.1</ele>
        <time>2018-04-21T10:47:41.000Z</time>
      </trkpt>
      <trkpt lat="40.799825" lon="-3.923466">
        <ele>2219.2</ele>
        <time>2018-04-21T10:47:42.000Z</time>
      </trkpt>
      <trkpt lat="40.799824" lon="-3.923475">
        <ele>2219.3</ele>
        <time>2018-04-21T10:47:43.000Z</time>
      </trkpt>
      <trkpt lat="40.799822" lon="-3.923485">
        <ele>2219.4</ele>
        <time>2018-04-21T10:47:44.000Z</time>
      </trkpt>
      <trkpt lat="40.799819" lon="-3.923495">
        <ele>2219.4</ele>
        <time>2018-04-21T10:47:45.000Z</time>
      </trkpt>
      <trkpt lat="40.799815" lon="-3.923506">
        <ele>2219.4</ele>
        <time>2018-04-21T10:47:46.000Z</time>
      </trkpt>
      <trkpt lat="40.799811" lon="-3.923517">
        <ele>2219.5</ele>
        <time>2018-04-21T10:47:47.000Z</time>
      </trkpt>
      <trkpt lat="40.799808" lon="-3.923528">
        <ele>2219.5</ele>
        <time>2018-04-21T10:47:48.000Z</time>
      </trkpt>
      <trkpt lat="40.799806" lon="-3.923539">
        <ele>2219.6</ele>
        <time>2018-04-21T10:47:49.000Z</time>
      </trkpt>
      <trkpt lat="40.799805" lon="-3.923551">
        <ele>2219.7</ele>
        <time>2018-04-21T10:47:50.000Z</time>
      </trkpt>
      <trkpt lat="40.799806" lon="-3.923563">
        <ele>2219.8</ele>
        <time>2018-04-21T10:47:51.000Z</time>
      </trkpt>
      <trkpt lat="40.799808" lon="-3.923575">
        <ele>2219.9</ele>
        <time>2018-04-21T10:47:52.000Z</time>
      </trkpt>
      <trkpt lat="40.799812" lon="-3.923587">
        <ele>2220.1</ele>
        <time>2018-04-21T10:47:53.000Z</time>
      </trkpt>
      <trkpt lat="40.799817" lon="-3.923599">
        <ele>2220.3</ele>
        <time>2018-04-21T10:47:54.000Z</time>
      </trkpt>
      <trkpt lat="40.799822" lon="-3.923612">
        <ele>2220.5</ele>
        <time>2018-04-21T10:47:55.000Z</time>
      </trkpt>
      <trkpt lat="40.799827" lon="-3.923624">
        <ele>2220.7</ele>
        <time>2018-04-21T10:47:56.000Z</time>
      </trkpt>
      <trkpt lat="40.799832" lon="-3.923636">
        <ele>2220.9</ele>
        <time>2018-04-21T10:47:57.000Z</time>
      </trkpt>
      <trkpt lat="40.799836" lon="-3.923648">
        <ele>2221.0</ele>
        <time>2018-04-21T10:47:58.000Z</time>
      </trkpt>
      <trkpt lat="40.79984" lon="-3.92366">
        <ele>2221.2</ele>
        <time>2018-04-21T10:47:59.000Z</time>
      </trkpt>
      <trkpt lat="40.799842" lon="-3.923672">
        <ele>2221.3</ele>
        <time>2018-04-21T10:48:00.000Z</time>
      </trkpt>
      <trkpt lat="40.799843" lon="-3.923684">
        <ele>2221.5</ele>
        <time>2018-04-21T10:48:01.000Z</time>
      </trkpt>
      <trkpt lat="40.799843" lon="-3.923696">
        <ele>2221.6</ele>
        <time>2018-04-21T10:48:02.000Z</time>
      </trkpt>
      <trkpt lat="40.799843" lon="-3.923708">
        <ele>2221.7</ele>
        <time>2018-04-21T10:48:03.000Z</time>
      </trkpt>
      <trkpt lat="40.799841" lon="-3.923719">
        <ele>2221.7</ele>
        <time>2018-04-21T10:48:04.000Z</time>
      </trkpt>
      <trkpt lat="40.79984" lon="-3.923732">
        <ele>2221.8</ele>
        <time>2018-04-21T10:48:05.000Z</time>
      </trkpt>
      <trkpt lat="40.799837" lon="-3.923744">
        <ele>2221.9</ele>
        <time>2018-04-21T10:48:06.000Z</time>
      </trkpt>
      <trkpt lat="40.799834" lon="-3.923757">
        <ele>2222.0</ele>
        <time>2018-04-21T10:48:07.000Z</time>
      </trkpt>
      <trkpt lat="40.799832" lon="-3.92377">
        <ele>2222.1</ele>
        <time>2018-04-21T10:48:08.000Z</time>
      </trkpt>
      <trkpt lat="40.799829" lon="-3.923784">
        <ele>2222.1</ele>
        <time>2018-04-21T10:48:09.000Z</time>
      </trkpt>
      <trkpt lat="40.799826" lon="-3.923798">
        <ele>2222.2</ele>
        <time>2018-04-21T10:48:10.000Z</time>
      </trkpt>
      <trkpt lat="40.799823" lon="-3.923812">
        <ele>2222.3</ele>
        <time>2018-04-21T10:48:11.000Z</time>
      </trkpt>
      <trkpt lat="40.79982" lon="-3.923826">
        <ele>2222.4</ele>
        <time>2018-04-21T10:48:12.000Z</time>
      </trkpt>
      <trkpt lat="40.799817" lon="-3.92384">
        <ele>2222.4</ele>
        <time>2018-04-21T10:48:13.000Z</time>
      </trkpt>
      <trkpt lat="40.799815" lon="-3.923853">
        <ele>2222.5</ele>
        <time>2018-04-21T10:48:14.000Z</time>
      </trkpt>
      <trkpt lat="40.799812" lon="-3.923866">
        <ele>2222.6</ele>
        <time>2018-04-21T10:48:15.000Z</time>
      </trkpt>
      <trkpt lat="40.79981" lon="-3.923878">
        <ele>2222.7</ele>
        <time>2018-04-21T10:48:16.000Z</time>
      </trkpt>
      <trkpt lat="40.799809" lon="-3.923889">
        <ele>2222.8</ele>
        <time>2018-04-21T10:48:17.000Z</time>
      </trkpt>
      <trkpt lat="40.799807" lon="-3.923898">
        <ele>2222.8</ele>
        <time>2018-04-21T10:48:18.000Z</time>
      </trkpt>
      <trkpt lat="40.799806" lon="-3.923907">
        <ele>2222.9</ele>
        <time>2018-04-21T10:48:19.000Z</time>
      </trkpt>
      <trkpt lat="40.799805" lon="-3.923914">
        <ele>2222.9</ele>
        <time>2018-04-21T10:48:20.000Z</time>
      </trkpt>
      <trkpt lat="40.799805" lon="-3.92392">
        <ele>2223.0</ele>
        <time>2018-04-21T10:48:21.000Z</time>
      </trkpt>
      <trkpt lat="40.799804" lon="-3.923925">
        <ele>2223.0</ele>
        <time>2018-04-21T10:48:22.000Z</time>
      </trkpt>
      <trkpt lat="40.799804" lon="-3.923928">
        <ele>2223.0</ele>
        <time>2018-04-21T10:48:23.000Z</time>
      </trkpt>
      <trkpt lat="40.799804" lon="-3.923931">
        <ele>2223.1</ele>
        <time>2018-04-21T10:48:24.000Z</time>
      </trkpt>
      <trkpt lat="40.799804" lon="-3.923934">
        <ele>2223.1</ele>
        <time>2018-04-21T10:48:25.000Z</time>
      </trkpt>
      <trkpt lat="40.799804" lon="-3.923939">
        <ele>2223.1</ele>
        <time>2018-04-21T10:48:26.000Z</time>
      </trkpt>
      <trkpt lat="40.799804" lon="-3.923945">
        <ele>2223.2</ele>
        <time>2018-04-21T10:48:27.000Z</time>
      </trkpt>
      <trkpt lat="40.799803" lon="-3.923953">
        <ele>2223.2</ele>
        <time>2018-04-21T10:48:28.000Z</time>
      </trkpt>
      <trkpt lat="40.799802" lon="-3.923963">
        <ele>2223.3</ele>
        <time>2018-04-21T10:48:29.000Z</time>
      </trkpt>
      <trkpt lat="40.799801" lon="-3.923973">
        <ele>2223.4</ele>
        <time>2018-04-21T10:48:30.000Z</time>
      </trkpt>
      <trkpt lat="40.7998" lon="-3.923984">
        <ele>2223.5</ele>
        <time>2018-04-21T10:48:31.000Z</time>
      </trkpt>
      <trkpt lat="40.799799" lon="-3.923995">
        <ele>2223.6</ele>
        <time>2018-04-21T10:48:32.000Z</time>
      </trkpt>
      <trkpt lat="40.799797" lon="-3.924007">
        <ele>2223.6</ele>
        <time>2018-04-21T10:48:33.000Z</time>
      </trkpt>
      <trkpt lat="40.799796" lon="-3.924017">
        <ele>2223.7</ele>
        <time>2018-04-21T10:48:34.000Z</time>
      </trkpt>
      <trkpt lat="40.799794" lon="-3.924027">
        <ele>2223.8</ele>
        <time>2018-04-21T10:48:35.000Z</time>
      </trkpt>
      <trkpt lat="40.799793" lon="-3.924036">
        <ele>2223.8</ele>
        <time>2018-04-21T10:48:36.000Z</time>
      </trkpt>
      <trkpt lat="40.799792" lon="-3.924044">
        <ele>2223.9</ele>
        <time>2018-04-21T10:48:37.000Z</time>
      </trkpt>
      <trkpt lat="40.799791" lon="-3.924051">
        <ele>2223.9</ele>
        <time>2018-04-21T10:48:38.000Z</time>
      </trkpt>
      <trkpt lat="40.799791" lon="-3.924058">
        <ele>2224.0</ele>
        <time>2018-04-21T10:48:39.000Z</time>
      </trkpt>
      <trkpt lat="40.799792" lon="-3.924065">
        <ele>2224.1</ele>
        <time>2018-04-21T10:48:40.000Z</time>
      </trkpt>
      <trkpt lat="40.799793" lon="-3.924071">
        <ele>2224.2</ele>
        <time>2018-04-21T10:48:41.000Z</time>
      </trkpt>
      <trkpt lat="40.799796" lon="-3.924078">
        <ele>2224.3</ele>
        <time>2018-04-21T10:48:42.000Z</time>
      </trkpt>
      <trkpt lat="40.799798" lon="-3.924086">
        <ele>2224.4</ele>
        <time>2018-04-21T10:48:43.000Z</time>
      </trkpt>
      <trkpt lat="40.799801" lon="-3.924094">
        <ele>2224.5</ele>
        <time>2018-04-21T10:48:44.000Z</time>
      </trkpt>
      <trkpt lat="40.799803" lon="-3.924104">
        <ele>2224.6</ele>
        <time>2018-04-21T10:48:45.000Z</time>
      </trkpt>
      <trkpt lat="40.799805" lon="-3.924115">
        <ele>2224.7</ele>
        <time>2018-04-21T10:48:46.000Z</time>
      </trkpt>
      <trkpt lat="40.799807" lon="-3.924127">
        <ele>2224.9</ele>
        <time>2018-04-21T10:48:47.000Z</time>
      </trkpt>
      <trkpt lat="40.799807" lon="-3.92414">
        <ele>2225.0</ele>
        <time>2018-04-21T10:48:48.000Z</time>
      </trkpt>
      <trkpt lat="40.799807" lon="-3.924153">
        <ele>2225.1</ele>
        <time>2018-04-21T10:48:49.000Z</time>
      </trkpt>
      <trkpt lat="40.799807" lon="-3.924167">
        <ele>2225.2</ele>
        <time>2018-04-21T10:48:50.000Z</time>
      </trkpt>
      <trkpt lat="40.799806" lon="-3.924181">
        <ele>2225.4</ele>
        <time>2018-04-21T10:48:51.000Z</time>
      </trkpt>
      <trkpt lat="40.799803" lon="-3.924196">
        <ele>2225.5</ele>
        <time>2018-04-21T10:48:52.000Z</time>
      </trkpt>
      <trkpt lat="40.799801" lon="-3.92421">
        <ele>2225.6</ele>
        <time>2018-04-21T10:48:53.000Z</time>
      </trkpt>
      <trkpt lat="40.799797" lon="-3.924223">
        <ele>2225.7</ele>
        <time>2018-04-21T10:48:54.000Z</time>
      </trkpt>
      <trkpt lat="40.799793" lon="-3.924236">
        <ele>2225.7</ele>
        <time>2018-04-21T10:48:55.000Z</time>
      </trkpt>
      <trkpt lat="40.799789" lon="-3.924247">
        <ele>2225.8</ele>
        <time>2018-04-21T10:48:56.000Z</time>
      </trkpt>
      <trkpt lat="40.799785" lon="-3.924255">
        <ele>2225.8</ele>
        <time>2018-04-21T10:48:57.000Z</time>
      </trkpt>
      <trkpt lat="40.799782" lon="-3.924261">
        <ele>2225.8</ele>
        <time>2018-04-21T10:48:58.000Z</time>
      </trkpt>
      <trkpt lat="40.79978" lon="-3.924264">
        <ele>2225.8</ele>
        <time>2018-04-21T10:48:59.000Z</time>
      </trkpt>
      <trkpt lat="40.799779" lon="-3.924264">
        <ele>2225.8</ele>
        <time>2018-04-21T10:49:00.000Z</time>
      </trkpt>
      <trkpt lat="40.799779" lon="-3.924264">
        <ele>2225.8</ele>
        <time>2018-04-21T10:49:01.000Z</time>
      </trkpt>
      <trkpt lat="40.799779" lon="-3.924266">
        <ele>2225.8</ele>
        <time>2018-04-21T10:49:02.000Z</time>
      </trkpt>
      <trkpt lat="40.799779" lon="-3.92427">
        <ele>2225.9</ele>
        <time>2018-04-21T10:49:03.000Z</time>
      </trkpt>
      <trkpt lat="40.79978" lon="-3.924277">
        <ele>2225.9</ele>
        <time>2018-04-21T10:49:04.000Z</time>
      </trkpt>
      <trkpt lat="40.79978" lon="-3.924286">
        <ele>2226.0</ele>
        <time>2018-04-21T10:49:05.000Z</time>
      </trkpt>
      <trkpt lat="40.799781" lon="-3.924297">
        <ele>2226.2</ele>
        <time>2018-04-21T10:49:06.000Z</time>
      </trkpt>
      <trkpt lat="40.799782" lon="-3.924309">
        <ele>2226.3</ele>
        <time>2018-04-21T10:49:07.000Z</time>
      </trkpt>
      <trkpt lat="40.799783" lon="-3.924323">
        <ele>2226.5</ele>
        <time>2018-04-21T10:49:08.000Z</time>
      </trkpt>
      <trkpt lat="40.799784" lon="-3.924337">
        <ele>2226.6</ele>
        <time>2018-04-21T10:49:09.000Z</time>
      </trkpt>
      <trkpt lat="40.799786" lon="-3.924352">
        <ele>2226.8</ele>
        <time>2018-04-21T10:49:10.000Z</time>
      </trkpt>
      <trkpt lat="40.799788" lon="-3.924367">
        <ele>2227.0</ele>
        <time>2018-04-21T10:49:11.000Z</time>
      </trkpt>
      <trkpt lat="40.79979" lon="-3.924382">
        <ele>2227.2</ele>
        <time>2018-04-21T10:49:12.000Z</time>
      </trkpt>
      <trkpt lat="40.799792" lon="-3.924396">
        <ele>2227.3</ele>
        <time>2018-04-21T10:49:13.000Z</time>
      </trkpt>
      <trkpt lat="40.799795" lon="-3.92441">
        <ele>2227.5</ele>
        <time>2018-04-21T10:49:14.000Z</time>
      </trkpt>
      <trkpt lat="40.799799" lon="-3.924424">
        <ele>2227.7</ele>
        <time>2018-04-21T10:49:15.000Z</time>
      </trkpt>
      <trkpt lat="40.799802" lon="-3.924437">
        <ele>2227.9</ele>
        <time>2018-04-21T10:49:16.000Z</time>
      </trkpt>
      <trkpt lat="40.799806" lon="-3.924449">
        <ele>2228.1</ele>
        <time>2018-04-21T10:49:17.000Z</time>
      </trkpt>
      <trkpt lat="40.79981" lon="-3.924462">
        <ele>2228.3</ele>
        <time>2018-04-21T10:49:18.000Z</time>
      </trkpt>
      <trkpt lat="40.799815" lon="-3.924473">
        <ele>2228.5</ele>
        <time>2018-04-21T10:49:19.000Z</time>
      </trkpt>
      <trkpt lat="40.79982" lon="-3.924484">
        <ele>2228.7</ele>
        <time>2018-04-21T10:49:20.000Z</time>
      </trkpt>
      <trkpt lat="40.799825" lon="-3.924494">
        <ele>2228.9</ele>
        <time>2018-04-21T10:49:21.000Z</time>
      </trkpt>
      <trkpt lat="40.79983" lon="-3.924503">
        <ele>2229.1</ele>
        <time>2018-04-21T10:49:22.000Z</time>
      </trkpt>
      <trkpt lat="40.799836" lon="-3.924512">
        <ele>2229.3</ele>
        <time>2018-04-21T10:49:23.000Z</time>
      </trkpt>
      <trkpt lat="40.799841" lon="-3.924521">
        <ele>2229.5</ele>
        <time>2018-04-21T10:49:24.000Z</time>
      </trkpt>
      <trkpt lat="40.799846" lon="-3.92453">
        <ele>2229.7</ele>
        <time>2018-04-21T10:49:25.000Z</time>
      </trkpt>
      <trkpt lat="40.799851" lon="-3.924539">
        <ele>2229.8</ele>
        <time>2018-04-21T10:49:26.000Z</time>
      </trkpt>
      <trkpt lat="40.799856" lon="-3.924548">
        <ele>2230.0</ele>
        <time>2018-04-21T10:49:27.000Z</time>
      </trkpt>
      <trkpt lat="40.799859" lon="-3.924558">
        <ele>2230.2</ele>
        <time>2018-04-21T10:49:28.000Z</time>
      </trkpt>
      <trkpt lat="40.799862" lon="-3.924569">
        <ele>2230.4</ele>
        <time>2018-04-21T10:49:29.000Z</time>
      </trkpt>
      <trkpt lat="40.799864" lon="-3.92458">
        <ele>2230.5</ele>
        <time>2018-04-21T10:49:30.000Z</time>
      </trkpt>
      <trkpt lat="40.799866" lon="-3.924591">
        <ele>2230.7</ele>
        <time>2018-04-21T10:49:31.000Z</time>
      </trkpt>
      <trkpt lat="40.799867" lon="-3.924604">
        <ele>2230.8</ele>
        <time>2018-04-21T10:49:32.000Z</time>
      </trkpt>
      <trkpt lat="40.799867" lon="-3.924617">
        <ele>2231.0</ele>
        <time>2018-04-21T10:49:33.000Z</time>
      </trkpt>
      <trkpt lat="40.799868" lon="-3.92463">
        <ele>2231.1</ele>
        <time>2018-04-21T10:49:34.000Z</time>
      </trkpt>
      <trkpt lat="40.799868" lon="-3.924644">
        <ele>2231.3</ele>
        <time>2018-04-21T10:49:35.000Z</time>
      </trkpt>
      <trkpt lat="40.799869" lon="-3.924658">
        <ele>2231.5</ele>
        <time>2018-04-21T10:49:36.000Z</time>
      </trkpt>
      <trkpt lat="40.799871" lon="-3.924672">
        <ele>2231.6</ele>
        <time>2018-04-21T10:49:37.000Z</time>
      </trkpt>
      <trkpt lat="40.799873" lon="-3.924686">
        <ele>2231.8</ele>
        <time>2018-04-21T10:49:38.000Z</time>
      </trkpt>
      <trkpt lat="40.799876" lon="-3.924701">
        <ele>2232.1</ele>
        <time>2018-04-21T10:49:39.000Z</time>
      </trkpt>
      <trkpt lat="40.79988" lon="-3.924715">
        <ele>2232.3</ele>
        <time>2018-04-21T10:49:40.000Z</time>
      </trkpt>
      <trkpt lat="40.799883" lon="-3.924728">
        <ele>2232.5</ele>
        <time>2018-04-21T10:49:41.000Z</time>
      </trkpt>
      <trkpt lat="40.799887" lon="-3.924741">
        <ele>2232.7</ele>
        <time>2018-04-21T10:49:42.000Z</time>
      </trkpt>
      <trkpt lat="40.79989" lon="-3.924754">
        <ele>2232.9</ele>
        <time>2018-04-21T10:49:43.000Z</time>
      </trkpt>
      <trkpt lat="40.799893" lon="-3.924765">
        <ele>2233.1</ele>
        <time>2018-04-21T10:49:44.000Z</time>
      </trkpt>
      <trkpt lat="40.799895" lon="-3.924775">
        <ele>2233.2</ele>
        <time>2018-04-21T10:49:45.000Z</time>
      </trkpt>
      <trkpt lat="40.799896" lon="-3.924786">
        <ele>2233.4</ele>
        <time>2018-04-21T10:49:46.000Z</time>
      </trkpt>
      <trkpt lat="40.799897" lon="-3.924797">
        <ele>2233.5</ele>
        <time>2018-04-21T10:49:47.000Z</time>
      </trkpt>
      <trkpt lat="40.799897" lon="-3.924808">
        <ele>2233.6</ele>
        <time>2018-04-21T10:49:48.000Z</time>
      </trkpt>
      <trkpt lat="40.799897" lon="-3.92482">
        <ele>2233.8</ele>
        <time>2018-04-21T10:49:49.000Z</time>
      </trkpt>
      <trkpt lat="40.799896" lon="-3.924833">
        <ele>2233.9</ele>
        <time>2018-04-21T10:49:50.000Z</time>
      </trkpt>
      <trkpt lat="40.799895" lon="-3.924846">
        <ele>2234.0</ele>
        <time>2018-04-21T10:49:51.000Z</time>
      </trkpt>
      <trkpt lat="40.799894" lon="-3.92486">
        <ele>2234.2</ele>
        <time>2018-04-21T10:49:52.000Z</time>
      </trkpt>
      <trkpt lat="40.799893" lon="-3.924874">
        <ele>2234.3</ele>
        <time>2018-04-21T10:49:53.000Z</time>
      </trkpt>
      <trkpt lat="40.799892" lon="-3.924888">
        <ele>2234.4</ele>
        <time>2018-04-21T10:49:54.000Z</time>
      </trkpt>
      <trkpt lat="40.79989" lon="-3.924902">
        <ele>2234.5</ele>
        <time>2018-04-21T10:49:55.000Z</time>
      </trkpt>
      <trkpt lat="40.799888" lon="-3.924916">
        <ele>2234.7</ele>
        <time>2018-04-21T10:49:56.000Z</time>
      </trkpt>
      <trkpt lat="40.799887" lon="-3.92493">
        <ele>2234.8</ele>
        <time>2018-04-21T10:49:57.000Z</time>
      </trkpt>
      <trkpt lat="40.799886" lon="-3.924944">
        <ele>2234.9</ele>
        <time>2018-04-21T10:49:58.000Z</time>
      </trkpt>
      <trkpt lat="40.799884" lon="-3.924957">
        <ele>2235.0</ele>
        <time>2018-04-21T10:49:59.000Z</time>
      </trkpt>
      <trkpt lat="40.799883" lon="-3.924971">
        <ele>2235.2</ele>
        <time>2018-04-21T10:50:00.000Z</time>
      </trkpt>
      <trkpt lat="40.799883" lon="-3.924984">
        <ele>2235.3</ele>
        <time>2018-04-21T10:50:01.000Z</time>
      </trkpt>
      <trkpt lat="40.799883" lon="-3.924997">
        <ele>2235.4</ele>
        <time>2018-04-21T10:50:02.000Z</time>
      </trkpt>
      <trkpt lat="40.799884" lon="-3.925011">
        <ele>2235.6</ele>
        <time>2018-04-21T10:50:03.000Z</time>
      </trkpt>
      <trkpt lat="40.799885" lon="-3.925024">
        <ele>2235.7</ele>
        <time>2018-04-21T10:50:04.000Z</time>
      </trkpt>
      <trkpt lat="40.799887" lon="-3.925036">
        <ele>2235.8</ele>
        <time>2018-04-21T10:50:05.000Z</time>
      </trkpt>
      <trkpt lat="40.79989" lon="-3.925049">
        <ele>2235.9</ele>
        <time>2018-04-21T10:50:06.000Z</time>
      </trkpt>
      <trkpt lat="40.799894" lon="-3.925062">
        <ele>2236.1</ele>
        <time>2018-04-21T10:50:07.000Z</time>
      </trkpt>
      <trkpt lat="40.799898" lon="-3.925074">
        <ele>2236.3</ele>
        <time>2018-04-21T10:50:08.000Z</time>
      </trkpt>
      <trkpt lat="40.799903" lon="-3.925086">
        <ele>2236.5</ele>
        <time>2018-04-21T10:50:09.000Z</time>
      </trkpt>
      <trkpt lat="40.799907" lon="-3.925097">
        <ele>2236.6</ele>
        <time>2018-04-21T10:50:10.000Z</time>
      </trkpt>
      <trkpt lat="40.799912" lon="-3.925108">
        <ele>2236.8</ele>
        <time>2018-04-21T10:50:11.000Z</time>
      </trkpt>
      <trkpt lat="40.799916" lon="-3.925118">
        <ele>2236.9</ele>
        <time>2018-04-21T10:50:12.000Z</time>
      </trkpt>
      <trkpt lat="40.799919" lon="-3.925127">
        <ele>2237.1</ele>
        <time>2018-04-21T10:50:13.000Z</time>
      </trkpt>
      <trkpt lat="40.799922" lon="-3.925136">
        <ele>2237.2</ele>
        <time>2018-04-21T10:50:14.000Z</time>
      </trkpt>
      <trkpt lat="40.799924" lon="-3.925143">
        <ele>2237.3</ele>
        <time>2018-04-21T10:50:15.000Z</time>
      </trkpt>
      <trkpt lat="40.799926" lon="-3.92515">
        <ele>2237.4</ele>
        <time>2018-04-21T10:50:16.000Z</time>
      </trkpt>
      <trkpt lat="40.799928" lon="-3.925157">
        <ele>2237.5</ele>
        <time>2018-04-21T10:50:17.000Z</time>
      </trkpt>
      <trkpt lat="40.79993" lon="-3.925165">
        <ele>2237.6</ele>
        <time>2018-04-21T10:50:18.000Z</time>
      </trkpt>
      <trkpt lat="40.799933" lon="-3.925173">
        <ele>2237.7</ele>
        <time>2018-04-21T10:50:19.000Z</time>
      </trkpt>
      <trkpt lat="40.799937" lon="-3.925182">
        <ele>2237.9</ele>
        <time>2018-04-21T10:50:20.000Z</time>
      </trkpt>
      <trkpt lat="40.799941" lon="-3.925193">
        <ele>2238.0</ele>
        <time>2018-04-21T10:50:21.000Z</time>
      </trkpt>
      <trkpt lat="40.799947" lon="-3.925204">
        <ele>2238.2</ele>
        <time>2018-04-21T10:50:22.000Z</time>
      </trkpt>
      <trkpt lat="40.799953" lon="-3.925214">
        <ele>2238.4</ele>
        <time>2018-04-21T10:50:23.000Z</time>
      </trkpt>
      <trkpt lat="40.799958" lon="-3.925225">
        <ele>2238.6</ele>
        <time>2018-04-21T10:50:24.000Z</time>
      </trkpt>
      <trkpt lat="40.799964" lon="-3.925234">
        <ele>2238.8</ele>
        <time>2018-04-21T10:50:25.000Z</time>
      </trkpt>
      <trkpt lat="40.799969" lon="-3.925244">
        <ele>2239.0</ele>
        <time>2018-04-21T10:50:26.000Z</time>
      </trkpt>
      <trkpt lat="40.799975" lon="-3.925252">
        <ele>2239.2</ele>
        <time>2018-04-21T10:50:27.000Z</time>
      </trkpt>
      <trkpt lat="40.79998" lon="-3.92526">
        <ele>2239.4</ele>
        <time>2018-04-21T10:50:28.000Z</time>
      </trkpt>
      <trkpt lat="40.799984" lon="-3.925267">
        <ele>2239.5</ele>
        <time>2018-04-21T10:50:29.000Z</time>
      </trkpt>
      <trkpt lat="40.799989" lon="-3.925274">
        <ele>2239.7</ele>
        <time>2018-04-21T10:50:30.000Z</time>
      </trkpt>
      <trkpt lat="40.799994" lon="-3.92528">
        <ele>2239.9</ele>
        <time>2018-04-21T10:50:31.000Z</time>
      </trkpt>
      <trkpt lat="40.799998" lon="-3.925284">
        <ele>2240.0</ele>
        <time>2018-04-21T10:50:32.000Z</time>
      </trkpt>
      <trkpt lat="40.800002" lon="-3.925289">
        <ele>2240.1</ele>
        <time>2018-04-21T10:50:33.000Z</time>
      </trkpt>
      <trkpt lat="40.800005" lon="-3.925292">
        <ele>2240.1</ele>
        <time>2018-04-21T10:50:34.000Z</time>
      </trkpt>
      <trkpt lat="40.800009" lon="-3.925295">
        <ele>2240.1</ele>
        <time>2018-04-21T10:50:35.000Z</time>
      </trkpt>
      <trkpt lat="40.800012" lon="-3.925298">
        <ele>2240.2</ele>
        <time>2018-04-21T10:50:36.000Z</time>
      </trkpt>
      <trkpt lat="40.800015" lon="-3.925301">
        <ele>2240.2</ele>
        <time>2018-04-21T10:50:37.000Z</time>
      </trkpt>
      <trkpt lat="40.800018" lon="-3.925305">
        <ele>2240.2</ele>
        <time>2018-04-21T10:50:38.000Z</time>
      </trkpt>
      <trkpt lat="40.800021" lon="-3.925308">
        <ele>2240.3</ele>
        <time>2018-04-21T10:50:39.000Z</time>
      </trkpt>
      <trkpt lat="40.800024" lon="-3.925313">
        <ele>2240.3</ele>
        <time>2018-04-21T10:50:40.000Z</time>
      </trkpt>
      <trkpt lat="40.800027" lon="-3.925318">
        <ele>2240.3</ele>
        <time>2018-04-21T10:50:41.000Z</time>
      </trkpt>
      <trkpt lat="40.80003" lon="-3.925324">
        <ele>2240.4</ele>
        <time>2018-04-21T10:50:42.000Z</time>
      </trkpt>
      <trkpt lat="40.800034" lon="-3.925331">
        <ele>2240.5</ele>
        <time>2018-04-21T10:50:43.000Z</time>
      </trkpt>
      <trkpt lat="40.800037" lon="-3.925339">
        <ele>2240.5</ele>
        <time>2018-04-21T10:50:44.000Z</time>
      </trkpt>
      <trkpt lat="40.800041" lon="-3.925347">
        <ele>2240.6</ele>
        <time>2018-04-21T10:50:45.000Z</time>
      </trkpt>
      <trkpt lat="40.800044" lon="-3.925356">
        <ele>2240.7</ele>
        <time>2018-04-21T10:50:46.000Z</time>
      </trkpt>
      <trkpt lat="40.800049" lon="-3.925364">
        <ele>2240.8</ele>
        <time>2018-04-21T10:50:47.000Z</time>
      </trkpt>
      <trkpt lat="40.800053" lon="-3.925373">
        <ele>2240.8</ele>
        <time>2018-04-21T10:50:48.000Z</time>
      </trkpt>
      <trkpt lat="40.800058" lon="-3.925381">
        <ele>2240.9</ele>
        <time>2018-04-21T10:50:49.000Z</time>
      </trkpt>
      <trkpt lat="40.800063" lon="-3.925388">
        <ele>2241.0</ele>
        <time>2018-04-21T10:50:50.000Z</time>
      </trkpt>
      <trkpt lat="40.800069" lon="-3.925394">
        <ele>2241.1</ele>
        <time>2018-04-21T10:50:51.000Z</time>
      </trkpt>
      <trkpt lat="40.800075" lon="-3.9254">
        <ele>2241.1</ele>
        <time>2018-04-21T10:50:52.000Z</time>
      </trkpt>
      <trkpt lat="40.800081" lon="-3.925405">
        <ele>2241.2</ele>
        <time>2018-04-21T10:50:53.000Z</time>
      </trkpt>
      <trkpt lat="40.800088" lon="-3.925409">
        <ele>2241.2</ele>
        <time>2018-04-21T10:50:54.000Z</time>
      </trkpt>
      <trkpt lat="40.800095" lon="-3.925412">
        <ele>2241.3</ele>
        <time>2018-04-21T10:50:55.000Z</time>
      </trkpt>
      <trkpt lat="40.800103" lon="-3.925415">
        <ele>2241.4</ele>
        <time>2018-04-21T10:50:56.000Z</time>
      </trkpt>
      <trkpt lat="40.80011" lon="-3.925417">
        <ele>2241.4</ele>
        <time>2018-04-21T10:50:57.000Z</time>
      </trkpt>
      <trkpt lat="40.800118" lon="-3.925418">
        <ele>2241.4</ele>
        <time>2018-04-21T10:50:58.000Z</time>
      </trkpt>
      <trkpt lat="40.800126" lon="-3.925418">
        <ele>2241.5</ele>
        <time>2018-04-21T10:50:59.000Z</time>
      </trkpt>
      <trkpt lat="40.800134" lon="-3.925418">
        <ele>2241.5</ele>
        <time>2018-04-21T10:51:00.000Z</time>
      </trkpt>
      <trkpt lat="40.800142" lon="-3.925417">
        <ele>2241.5</ele>
        <time>2018-04-21T10:51:01.000Z</time>
      </trkpt>
      <trkpt lat="40.80015" lon="-3.925416">
        <ele>2241.5</ele>
        <time>2018-04-21T10:51:02.000Z</time>
      </trkpt>
      <trkpt lat="40.800158" lon="-3.925415">
        <ele>2241.6</ele>
        <time>2018-04-21T10:51:03.000Z</time>
      </trkpt>
      <trkpt lat="40.800165" lon="-3.925415">
        <ele>2241.6</ele>
        <time>2018-04-21T10:51:04.000Z</time>
      </trkpt>
      <trkpt lat="40.800172" lon="-3.925416">
        <ele>2241.6</ele>
        <time>2018-04-21T10:51:05.000Z</time>
      </trkpt>
      <trkpt lat="40.800178" lon="-3.925417">
        <ele>2241.6</ele>
        <time>2018-04-21T10:51:06.000Z</time>
      </trkpt>
      <trkpt lat="40.800183" lon="-3.92542">
        <ele>2241.7</ele>
        <time>2018-04-21T10:51:07.000Z</time>
      </trkpt>
      <trkpt lat="40.800187" lon="-3.925424">
        <ele>2241.7</ele>
        <time>2018-04-21T10:51:08.000Z</time>
      </trkpt>
      <trkpt lat="40.80019" lon="-3.92543">
        <ele>2241.8</ele>
        <time>2018-04-21T10:51:09.000Z</time>
      </trkpt>
      <trkpt lat="40.800192" lon="-3.925438">
        <ele>2241.9</ele>
        <time>2018-04-21T10:51:10.000Z</time>
      </trkpt>
      <trkpt lat="40.800193" lon="-3.925447">
        <ele>2242.0</ele>
        <time>2018-04-21T10:51:11.000Z</time>
      </trkpt>
      <trkpt lat="40.800194" lon="-3.925457">
        <ele>2242.1</ele>
        <time>2018-04-21T10:51:12.000Z</time>
      </trkpt>
      <trkpt lat="40.800194" lon="-3.925467">
        <ele>2242.2</ele>
        <time>2018-04-21T10:51:13.000Z</time>
      </trkpt>
      <trkpt lat="40.800193" lon="-3.925478">
        <ele>2242.3</ele>
        <time>2018-04-21T10:51:14.000Z</time>
      </trkpt>
      <trkpt lat="40.800193" lon="-3.925489">
        <ele>2242.5</ele>
        <time>2018-04-21T10:51:15.000Z</time>
      </trkpt>
      <trkpt lat="40.800193" lon="-3.925499">
        <ele>2242.6</ele>
        <time>2018-04-21T10:51:16.000Z</time>
      </trkpt>
      <trkpt lat="40.800193" lon="-3.925509">
        <ele>2242.7</ele>
        <time>2018-04-21T10:51:17.000Z</time>
      </trkpt>
      <trkpt lat="40.800193" lon="-3.925518">
        <ele>2242.8</ele>
        <time>2018-04-21T10:51:18.000Z</time>
      </trkpt>
      <trkpt lat="40.800193" lon="-3.925526">
        <ele>2242.8</ele>
        <time>2018-04-21T10:51:19.000Z</time>
      </trkpt>
      <trkpt lat="40.800194" lon="-3.925533">
        <ele>2242.9</ele>
        <time>2018-04-21T10:51:20.000Z</time>
      </trkpt>
      <trkpt lat="40.800195" lon="-3.92554">
        <ele>2243.0</ele>
        <time>2018-04-21T10:51:21.000Z</time>
      </trkpt>
      <trkpt lat="40.800196" lon="-3.925545">
        <ele>2243.1</ele>
        <time>2018-04-21T10:51:22.000Z</time>
      </trkpt>
      <trkpt lat="40.800197" lon="-3.92555">
        <ele>2243.1</ele>
        <time>2018-04-21T10:51:23.000Z</time>
      </trkpt>
      <trkpt lat="40.800198" lon="-3.925554">
        <ele>2243.2</ele>
        <time>2018-04-21T10:51:24.000Z</time>
      </trkpt>
      <trkpt lat="40.800199" lon="-3.925557">
        <ele>2243.2</ele>
        <time>2018-04-21T10:51:25.000Z</time>
      </trkpt>
      <trkpt lat="40.8002" lon="-3.92556">
        <ele>2243.2</ele>
        <time>2018-04-21T10:51:26.000Z</time>
      </trkpt>
      <trkpt lat="40.8002" lon="-3.925562">
        <ele>2243.3</ele>
        <time>2018-04-21T10:51:27.000Z</time>
      </trkpt>
      <trkpt lat="40.800201" lon="-3.925563">
        <ele>2243.3</ele>
        <time>2018-04-21T10:51:28.000Z</time>
      </trkpt>
      <trkpt lat="40.800201" lon="-3.925564">
        <ele>2243.3</ele>
        <time>2018-04-21T10:51:29.000Z</time>
      </trkpt>
      <trkpt lat="40.800201" lon="-3.925564">
        <ele>2243.3</ele>
        <time>2018-04-21T10:51:30.000Z</time>
      </trkpt>
      <trkpt lat="40.800201" lon="-3.925564">
        <ele>2243.3</ele>
        <time>2018-04-21T10:51:31.000Z</time>
      </trkpt>
      <trkpt lat="40.800201" lon="-3.925564">
        <ele>2243.3</ele>
        <time>2018-04-21T10:51:32.000Z</time>
      </trkpt>
      <trkpt lat="40.800201" lon="-3.925564">
        <ele>2243.3</ele>
        <time>2018-04-21T10:51:33.000Z</time>
      </trkpt>
      <trkpt lat="40.8002" lon="-3.925563">
        <ele>2243.3</ele>
        <time>2018-04-21T10:51:34.000Z</time>
      </trkpt>
      <trkpt lat="40.8002" lon="-3.925563">
        <ele>2243.3</ele>
        <time>2018-04-21T10:51:35.000Z</time>
      </trkpt>
      <trkpt lat="40.8002" lon="-3.925562">
        <ele>2243.3</ele>
        <time>2018-04-21T10:51:36.000Z</time>
      </trkpt>
      <trkpt lat="40.8002" lon="-3.925562">
        <ele>2243.3</ele>
        <time>2018-04-21T10:51:37.000Z</time>
      </trkpt>
      <trkpt lat="40.8002" lon="-3.925562">
        <ele>2243.3</ele>
        <time>2018-04-21T10:51:38.000Z</time>
      </trkpt>
      <trkpt lat="40.8002" lon="-3.925562">
        <ele>2243.3</ele>
        <time>2018-04-21T10:51:39.000Z</time>
      </trkpt>
      <trkpt lat="40.8002" lon="-3.925562">
        <ele>2243.3</ele>
        <time>2018-04-21T10:51:40.000Z</time>
      </trkpt>
      <trkpt lat="40.8002" lon="-3.925562">
        <ele>2243.3</ele>
        <time>2018-04-21T10:51:41.000Z</time>
      </trkpt>
      <trkpt lat="40.8002" lon="-3.925562">
        <ele>2243.3</ele>
        <time>2018-04-21T10:51:42.000Z</time>
      </trkpt>
      <trkpt lat="40.8002" lon="-3.925562">
        <ele>2243.3</ele>
        <time>2018-04-21T10:51:43.000Z</time>
      </trkpt>
      <trkpt lat="40.8002" lon="-3.925562">
        <ele>2243.3</ele>
        <time>2018-04-21T10:51:44.000Z</time>
      </trkpt>
      <trkpt lat="40.8002" lon="-3.925562">
        <ele>2243.3</ele>
        <time>2018-04-21T10:51:45.000Z</time>
      </trkpt>
      <trkpt lat="40.8002" lon="-3.925562">
        <ele>2243.3</ele>
        <time>2018-04-21T10:51:46.000Z</time>
      </trkpt>
      <trkpt lat="40.8002" lon="-3.925562">
        <ele>2243.3</ele>
        <time>2018-04-21T10:51:47.000Z</time>
      </trkpt>
      <trkpt lat="40.8002" lon="-3.925562">
        <ele>2243.3</ele>
        <time>2018-04-21T10:51:48.000Z</time>
      </trkpt>
      <trkpt lat="40.8002" lon="-3.925562">
        <ele>2243.3</ele>
        <time>2018-04-21T10:51:49.000Z</time>
      </trkpt>
      <trkpt lat="40.8002" lon="-3.925562">
        <ele>2243.3</ele>
        <time>2018-04-21T10:51:50.000Z</time>
      </trkpt>
      <trkpt lat="40.8002" lon="-3.925562">
        <ele>2243.3</ele>
        <time>2018-04-21T10:51:51.000Z</time>
      </trkpt>
      <trkpt lat="40.8002" lon="-3.925562">
        <ele>2243.3</ele>
        <time>2018-04-21T10:51:52.000Z</time>
      </trkpt>
      <trkpt lat="40.8002" lon="-3.925562">
        <ele>2243.3</ele>
        <time>2018-04-21T10:51:53.000Z</time>
      </trkpt>
      <trkpt lat="40.8002" lon="-3.925562">
        <ele>2243.3</ele>
        <time>2018-04-21T10:51:54.000Z</time>
      </trkpt>
      <trkpt lat="40.800201" lon="-3.925563">
        <ele>2243.3</ele>
        <time>2018-04-21T10:51:55.000Z</time>
      </trkpt>
      <trkpt lat="40.800201" lon="-3.925563">
        <ele>2243.3</ele>
        <time>2018-04-21T10:51:56.000Z</time>
      </trkpt>
      <trkpt lat="40.800201" lon="-3.925564">
        <ele>2243.3</ele>
        <time>2018-04-21T10:51:57.000Z</time>
      </trkpt>
      <trkpt lat="40.800202" lon="-3.925566">
        <ele>2243.3</ele>
        <time>2018-04-21T10:51:58.000Z</time>
      </trkpt>
      <trkpt lat="40.800203" lon="-3.92557">
        <ele>2243.4</ele>
        <time>2018-04-21T10:51:59.000Z</time>
      </trkpt>
      <trkpt lat="40.800204" lon="-3.925578">
        <ele>2243.5</ele>
        <time>2018-04-21T10:52:00.000Z</time>
      </trkpt>
      <trkpt lat="40.800206" lon="-3.925588">
        <ele>2243.6</ele>
        <time>2018-04-21T10:52:01.000Z</time>
      </trkpt>
      <trkpt lat="40.800208" lon="-3.9256">
        <ele>2243.7</ele>
        <time>2018-04-21T10:52:02.000Z</time>
      </trkpt>
      <trkpt lat="40.800211" lon="-3.925612">
        <ele>2243.9</ele>
        <time>2018-04-21T10:52:03.000Z</time>
      </trkpt>
      <trkpt lat="40.800213" lon="-3.925623">
        <ele>2244.0</ele>
        <time>2018-04-21T10:52:04.000Z</time>
      </trkpt>
      <trkpt lat="40.800215" lon="-3.925632">
        <ele>2244.1</ele>
        <time>2018-04-21T10:52:05.000Z</time>
      </trkpt>
      <trkpt lat="40.800216" lon="-3.925638">
        <ele>2244.2</ele>
        <time>2018-04-21T10:52:06.000Z</time>
      </trkpt>
      <trkpt lat="40.800216" lon="-3.925639">
        <ele>2244.2</ele>
        <time>2018-04-21T10:52:07.000Z</time>
      </trkpt>
      <trkpt lat="40.800217" lon="-3.925639">
        <ele>2244.2</ele>
        <time>2018-04-21T10:52:08.000Z</time>
      </trkpt>
      <trkpt lat="40.800217" lon="-3.925641">
        <ele>2244.2</ele>
        <time>2018-04-21T10:52:09.000Z</time>
      </trkpt>
      <trkpt lat="40.800217" lon="-3.925645">
        <ele>2244.3</ele>
        <time>2018-04-21T10:52:10.000Z</time>
      </trkpt>
      <trkpt lat="40.800219" lon="-3.925652">
        <ele>2244.4</ele>
        <time>2018-04-21T10:52:11.000Z</time>
      </trkpt>
      <trkpt lat="40.800222" lon="-3.925661">
        <ele>2244.5</ele>
        <time>2018-04-21T10:52:12.000Z</time>
      </trkpt>
      <trkpt lat="40.800227" lon="-3.925671">
        <ele>2244.6</ele>
        <time>2018-04-21T10:52:13.000Z</time>
      </trkpt>
      <trkpt lat="40.800233" lon="-3.925683">
        <ele>2244.8</ele>
        <time>2018-04-21T10:52:14.000Z</time>
      </trkpt>
      <trkpt lat="40.800239" lon="-3.925695">
        <ele>2245.0</ele>
        <time>2018-04-21T10:52:15.000Z</time>
      </trkpt>
      <trkpt lat="40.800246" lon="-3.925707">
        <ele>2245.2</ele>
        <time>2018-04-21T10:52:16.000Z</time>
      </trkpt>
      <trkpt lat="40.800251" lon="-3.925717">
        <ele>2245.4</ele>
        <time>2018-04-21T10:52:17.000Z</time>
      </trkpt>
      <trkpt lat="40.800255" lon="-3.925725">
        <ele>2245.5</ele>
        <time>2018-04-21T10:52:18.000Z</time>
      </trkpt>
      <trkpt lat="40.800258" lon="-3.925732">
        <ele>2245.6</ele>
        <time>2018-04-21T10:52:19.000Z</time>
      </trkpt>
      <trkpt lat="40.80026" lon="-3.925738">
        <ele>2245.7</ele>
        <time>2018-04-21T10:52:20.000Z</time>
      </trkpt>
      <trkpt lat="40.800262" lon="-3.925745">
        <ele>2245.8</ele>
        <time>2018-04-21T10:52:21.000Z</time>
      </trkpt>
      <trkpt lat="40.800264" lon="-3.925752">
        <ele>2245.9</ele>
        <time>2018-04-21T10:52:22.000Z</time>
      </trkpt>
      <trkpt lat="40.800266" lon="-3.925759">
        <ele>2246.0</ele>
        <time>2018-04-21T10:52:23.000Z</time>
      </trkpt>
      <trkpt lat="40.800268" lon="-3.925767">
        <ele>2246.1</ele>
        <time>2018-04-21T10:52:24.000Z</time>
      </trkpt>
      <trkpt lat="40.800271" lon="-3.925776">
        <ele>2246.2</ele>
        <time>2018-04-21T10:52:25.000Z</time>
      </trkpt>
      <trkpt lat="40.800273" lon="-3.925784">
        <ele>2246.4</ele>
        <time>2018-04-21T10:52:26.000Z</time>
      </trkpt>
      <trkpt lat="40.800276" lon="-3.925793">
        <ele>2246.5</ele>
        <time>2018-04-21T10:52:27.000Z</time>
      </trkpt>
      <trkpt lat="40.800279" lon="-3.925801">
        <ele>2246.6</ele>
        <time>2018-04-21T10:52:28.000Z</time>
      </trkpt>
      <trkpt lat="40.800282" lon="-3.92581">
        <ele>2246.8</ele>
        <time>2018-04-21T10:52:29.000Z</time>
      </trkpt>
      <trkpt lat="40.800286" lon="-3.925818">
        <ele>2246.9</ele>
        <time>2018-04-21T10:52:30.000Z</time>
      </trkpt>
      <trkpt lat="40.800289" lon="-3.925825">
        <ele>2247.0</ele>
        <time>2018-04-21T10:52:31.000Z</time>
      </trkpt>
      <trkpt lat="40.800293" lon="-3.925833">
        <ele>2247.2</ele>
        <time>2018-04-21T10:52:32.000Z</time>
      </trkpt>
      <trkpt lat="40.800297" lon="-3.925839">
        <ele>2247.3</ele>
        <time>2018-04-21T10:52:33.000Z</time>
      </trkpt>
      <trkpt lat="40.800301" lon="-3.925846">
        <ele>2247.5</ele>
        <time>2018-04-21T10:52:34.000Z</time>
      </trkpt>
      <trkpt lat="40.800305" lon="-3.925852">
        <ele>2247.7</ele>
        <time>2018-04-21T10:52:35.000Z</time>
      </trkpt>
      <trkpt lat="40.800309" lon="-3.925857">
        <ele>2247.8</ele>
        <time>2018-04-21T10:52:36.000Z</time>
      </trkpt>
      <trkpt lat="40.800312" lon="-3.925863">
        <ele>2248.0</ele>
        <time>2018-04-21T10:52:37.000Z</time>
      </trkpt>
      <trkpt lat="40.800316" lon="-3.925868">
        <ele>2248.1</ele>
        <time>2018-04-21T10:52:38.000Z</time>
      </trkpt>
      <trkpt lat="40.800318" lon="-3.925874">
        <ele>2248.3</ele>
        <time>2018-04-21T10:52:39.000Z</time>
      </trkpt>
      <trkpt lat="40.800321" lon="-3.925879">
        <ele>2248.4</ele>
        <time>2018-04-21T10:52:40.000Z</time>
      </trkpt>
      <trkpt lat="40.800323" lon="-3.925884">
        <ele>2248.6</ele>
        <time>2018-04-21T10:52:41.000Z</time>
      </trkpt>
      <trkpt lat="40.800325" lon="-3.925889">
        <ele>2248.7</ele>
        <time>2018-04-21T10:52:42.000Z</time>
      </trkpt>
      <trkpt lat="40.800326" lon="-3.925894">
        <ele>2248.8</ele>
        <time>2018-04-21T10:52:43.000Z</time>
      </trkpt>
      <trkpt lat="40.800328" lon="-3.9259">
        <ele>2248.9</ele>
        <time>2018-04-21T10:52:44.000Z</time>
      </trkpt>
      <trkpt lat="40.800329" lon="-3.925905">
        <ele>2249.1</ele>
        <time>2018-04-21T10:52:45.000Z</time>
      </trkpt>
      <trkpt lat="40.80033" lon="-3.925911">
        <ele>2249.2</ele>
        <time>2018-04-21T10:52:46.000Z</time>
      </trkpt>
      <trkpt lat="40.800332" lon="-3.925918">
        <ele>2249.4</ele>
        <time>2018-04-21T10:52:47.000Z</time>
      </trkpt>
      <trkpt lat="40.800333" lon="-3.925924">
        <ele>2249.5</ele>
        <time>2018-04-21T10:52:48.000Z</time>
      </trkpt>
      <trkpt lat="40.800335" lon="-3.925932">
        <ele>2249.7</ele>
        <time>2018-04-21T10:52:49.000Z</time>
      </trkpt>
      <trkpt lat="40.800337" lon="-3.925939">
        <ele>2249.9</ele>
        <time>2018-04-21T10:52:50.000Z</time>
      </trkpt>
      <trkpt lat="40.800339" lon="-3.925947">
        <ele>2250.1</ele>
        <time>2018-04-21T10:52:51.000Z</time>
      </trkpt>
      <trkpt lat="40.800341" lon="-3.925955">
        <ele>2250.3</ele>
        <time>2018-04-21T10:52:52.000Z</time>
      </trkpt>
      <trkpt lat="40.800343" lon="-3.925963">
        <ele>2250.5</ele>
        <time>2018-04-21T10:52:53.000Z</time>
      </trkpt>
      <trkpt lat="40.800346" lon="-3.925971">
        <ele>2250.7</ele>
        <time>2018-04-21T10:52:54.000Z</time>
      </trkpt>
      <trkpt lat="40.800348" lon="-3.925979">
        <ele>2250.9</ele>
        <time>2018-04-21T10:52:55.000Z</time>
      </trkpt>
      <trkpt lat="40.80035" lon="-3.925987">
        <ele>2251.1</ele>
        <time>2018-04-21T10:52:56.000Z</time>
      </trkpt>
      <trkpt lat="40.800352" lon="-3.925994">
        <ele>2251.2</ele>
        <time>2018-04-21T10:52:57.000Z</time>
      </trkpt>
      <trkpt lat="40.800354" lon="-3.926001">
        <ele>2251.4</ele>
        <time>2018-04-21T10:52:58.000Z</time>
      </trkpt>
      <trkpt lat="40.800356" lon="-3.926008">
        <ele>2251.6</ele>
        <time>2018-04-21T10:52:59.000Z</time>
      </trkpt>
      <trkpt lat="40.800357" lon="-3.926014">
        <ele>2251.7</ele>
        <time>2018-04-21T10:53:00.000Z</time>
      </trkpt>
      <trkpt lat="40.800358" lon="-3.926018">
        <ele>2251.8</ele>
        <time>2018-04-21T10:53:01.000Z</time>
      </trkpt>
      <trkpt lat="40.800358" lon="-3.926022">
        <ele>2251.9</ele>
        <time>2018-04-21T10:53:02.000Z</time>
      </trkpt>
      <trkpt lat="40.800358" lon="-3.926024">
        <ele>2252.0</ele>
        <time>2018-04-21T10:53:03.000Z</time>
      </trkpt>
      <trkpt lat="40.800358" lon="-3.926025">
        <ele>2252.0</ele>
        <time>2018-04-21T10:53:04.000Z</time>
      </trkpt>
      <trkpt lat="40.800358" lon="-3.926026">
        <ele>2252.0</ele>
        <time>2018-04-21T10:53:05.000Z</time>
      </trkpt>
      <trkpt lat="40.800358" lon="-3.926028">
        <ele>2252.0</ele>
        <time>2018-04-21T10:53:06.000Z</time>
      </trkpt>
      <trkpt lat="40.800358" lon="-3.92603">
        <ele>2252.1</ele>
        <time>2018-04-21T10:53:07.000Z</time>
      </trkpt>
      <trkpt lat="40.800358" lon="-3.926033">
        <ele>2252.1</ele>
        <time>2018-04-21T10:53:08.000Z</time>
      </trkpt>
      <trkpt lat="40.800359" lon="-3.926036">
        <ele>2252.2</ele>
        <time>2018-04-21T10:53:09.000Z</time>
      </trkpt>
      <trkpt lat="40.800361" lon="-3.926041">
        <ele>2252.4</ele>
        <time>2018-04-21T10:53:10.000Z</time>
      </trkpt>
      <trkpt lat="40.800363" lon="-3.926047">
        <ele>2252.5</ele>
        <time>2018-04-21T10:53:11.000Z</time>
      </trkpt>
      <trkpt lat="40.800366" lon="-3.926053">
        <ele>2252.7</ele>
        <time>2018-04-21T10:53:12.000Z</time>
      </trkpt>
      <trkpt lat="40.800369" lon="-3.92606">
        <ele>2252.9</ele>
        <time>2018-04-21T10:53:13.000Z</time>
      </trkpt>
      <trkpt lat="40.800372" lon="-3.926067">
        <ele>2253.1</ele>
        <time>2018-04-21T10:53:14.000Z</time>
      </trkpt>
      <trkpt lat="40.800375" lon="-3.926075">
        <ele>2253.3</ele>
        <time>2018-04-21T10:53:15.000Z</time>
      </trkpt>
      <trkpt lat="40.800378" lon="-3.926082">
        <ele>2253.5</ele>
        <time>2018-04-21T10:53:16.000Z</time>
      </trkpt>
      <trkpt lat="40.800381" lon="-3.926089">
        <ele>2253.7</ele>
        <time>2018-04-21T10:53:17.000Z</time>
      </trkpt>
      <trkpt lat="40.800384" lon="-3.926096">
        <ele>2253.9</ele>
        <time>2018-04-21T10:53:18.000Z</time>
      </trkpt>
      <trkpt lat="40.800386" lon="-3.926102">
        <ele>2254.0</ele>
        <time>2018-04-21T10:53:19.000Z</time>
      </trkpt>
      <trkpt lat="40.800388" lon="-3.926109">
        <ele>2254.2</ele>
        <time>2018-04-21T10:53:20.000Z</time>
      </trkpt>
      <trkpt lat="40.800391" lon="-3.926115">
        <ele>2254.4</ele>
        <time>2018-04-21T10:53:21.000Z</time>
      </trkpt>
      <trkpt lat="40.800393" lon="-3.926122">
        <ele>2254.6</ele>
        <time>2018-04-21T10:53:22.000Z</time>
      </trkpt>
      <trkpt lat="40.800395" lon="-3.926129">
        <ele>2254.7</ele>
        <time>2018-04-21T10:53:23.000Z</time>
      </trkpt>
      <trkpt lat="40.800396" lon="-3.926136">
        <ele>2254.9</ele>
        <time>2018-04-21T10:53:24.000Z</time>
      </trkpt>
      <trkpt lat="40.800398" lon="-3.926143">
        <ele>2255.1</ele>
        <time>2018-04-21T10:53:25.000Z</time>
      </trkpt>
      <trkpt lat="40.8004" lon="-3.92615">
        <ele>2255.3</ele>
        <time>2018-04-21T10:53:26.000Z</time>
      </trkpt>
      <trkpt lat="40.800402" lon="-3.926157">
        <ele>2255.5</ele>
        <time>2018-04-21T10:53:27.000Z</time>
      </trkpt>
      <trkpt lat="40.800404" lon="-3.926164">
        <ele>2255.6</ele>
        <time>2018-04-21T10:53:28.000Z</time>
      </trkpt>
      <trkpt lat="40.800406" lon="-3.926171">
        <ele>2255.8</ele>
        <time>2018-04-21T10:53:29.000Z</time>
      </trkpt>
      <trkpt lat="40.800408" lon="-3.926178">
        <ele>2256.0</ele>
        <time>2018-04-21T10:53:30.000Z</time>
      </trkpt>
      <trkpt lat="40.80041" lon="-3.926185">
        <ele>2256.2</ele>
        <time>2018-04-21T10:53:31.000Z</time>
      </trkpt>
      <trkpt lat="40.800411" lon="-3.926192">
        <ele>2256.4</ele>
        <time>2018-04-21T10:53:32.000Z</time>
      </trkpt>
      <trkpt lat="40.800413" lon="-3.926198">
        <ele>2256.5</ele>
        <time>2018-04-21T10:53:33.000Z</time>
      </trkpt>
      <trkpt lat="40.800414" lon="-3.926204">
        <ele>2256.7</ele>
        <time>2018-04-21T10:53:34.000Z</time>
      </trkpt>
      <trkpt lat="40.800415" lon="-3.92621">
        <ele>2256.8</ele>
        <time>2018-04-21T10:53:35.000Z</time>
      </trkpt>
      <trkpt lat="40.800417" lon="-3.926216">
        <ele>2257.0</ele>
        <time>2018-04-21T10:53:36.000Z</time>
      </trkpt>
      <trkpt lat="40.800418" lon="-3.926221">
        <ele>2257.1</ele>
        <time>2018-04-21T10:53:37.000Z</time>
      </trkpt>
      <trkpt lat="40.800419" lon="-3.926226">
        <ele>2257.3</ele>
        <time>2018-04-21T10:53:38.000Z</time>
      </trkpt>
      <trkpt lat="40.80042" lon="-3.926231">
        <ele>2257.4</ele>
        <time>2018-04-21T10:53:39.000Z</time>
      </trkpt>
      <trkpt lat="40.800421" lon="-3.926236">
        <ele>2257.5</ele>
        <time>2018-04-21T10:53:40.000Z</time>
      </trkpt>
      <trkpt lat="40.800422" lon="-3.926241">
        <ele>2257.6</ele>
        <time>2018-04-21T10:53:41.000Z</time>
      </trkpt>
      <trkpt lat="40.800422" lon="-3.926245">
        <ele>2257.7</ele>
        <time>2018-04-21T10:53:42.000Z</time>
      </trkpt>
      <trkpt lat="40.800423" lon="-3.92625">
        <ele>2257.9</ele>
        <time>2018-04-21T10:53:43.000Z</time>
      </trkpt>
      <trkpt lat="40.800424" lon="-3.926254">
        <ele>2258.0</ele>
        <time>2018-04-21T10:53:44.000Z</time>
      </trkpt>
      <trkpt lat="40.800425" lon="-3.926258">
        <ele>2258.1</ele>
        <time>2018-04-21T10:53:45.000Z</time>
      </trkpt>
      <trkpt lat="40.800426" lon="-3.926263">
        <ele>2258.2</ele>
        <time>2018-04-21T10:53:46.000Z</time>
      </trkpt>
      <trkpt lat="40.800427" lon="-3.926267">
        <ele>2258.3</ele>
        <time>2018-04-21T10:53:47.000Z</time>
      </trkpt>
      <trkpt lat="40.800428" lon="-3.926272">
        <ele>2258.4</ele>
        <time>2018-04-21T10:53:48.000Z</time>
      </trkpt>
      <trkpt lat="40.800429" lon="-3.926276">
        <ele>2258.5</ele>
        <time>2018-04-21T10:53:49.000Z</time>
      </trkpt>
      <trkpt lat="40.80043" lon="-3.926281">
        <ele>2258.7</ele>
        <time>2018-04-21T10:53:50.000Z</time>
      </trkpt>
      <trkpt lat="40.800431" lon="-3.926286">
        <ele>2258.8</ele>
        <time>2018-04-21T10:53:51.000Z</time>
      </trkpt>
      <trkpt lat="40.800432" lon="-3.926291">
        <ele>2258.9</ele>
        <time>2018-04-21T10:53:52.000Z</time>
      </trkpt>
      <trkpt lat="40.800434" lon="-3.926296">
        <ele>2259.1</ele>
        <time>2018-04-21T10:53:53.000Z</time>
      </trkpt>
      <trkpt lat="40.800435" lon="-3.926301">
        <ele>2259.2</ele>
        <time>2018-04-21T10:53:54.000Z</time>
      </trkpt>
      <trkpt lat="40.800436" lon="-3.926306">
        <ele>2259.3</ele>
        <time>2018-04-21T10:53:55.000Z</time>
      </trkpt>
      <trkpt lat="40.800438" lon="-3.926311">
        <ele>2259.5</ele>
        <time>2018-04-21T10:53:56.000Z</time>
      </trkpt>
      <trkpt lat="40.80044" lon="-3.926317">
        <ele>2259.6</ele>
        <time>2018-04-21T10:53:57.000Z</time>
      </trkpt>
      <trkpt lat="40.800441" lon="-3.926322">
        <ele>2259.8</ele>
        <time>2018-04-21T10:53:58.000Z</time>
      </trkpt>
      <trkpt lat="40.800443" lon="-3.926328">
        <ele>2259.9</ele>
        <time>2018-04-21T10:53:59.000Z</time>
      </trkpt>
      <trkpt lat="40.800445" lon="-3.926333">
        <ele>2260.1</ele>
        <time>2018-04-21T10:54:00.000Z</time>
      </trkpt>
      <trkpt lat="40.800447" lon="-3.926339">
        <ele>2260.3</ele>
        <time>2018-04-21T10:54:01.000Z</time>
      </trkpt>
      <trkpt lat="40.800448" lon="-3.926344">
        <ele>2260.4</ele>
        <time>2018-04-21T10:54:02.000Z</time>
      </trkpt>
      <trkpt lat="40.80045" lon="-3.92635">
        <ele>2260.6</ele>
        <time>2018-04-21T10:54:03.000Z</time>
      </trkpt>
      <trkpt lat="40.800452" lon="-3.926355">
        <ele>2260.7</ele>
        <time>2018-04-21T10:54:04.000Z</time>
      </trkpt>
      <trkpt lat="40.800454" lon="-3.926361">
        <ele>2260.9</ele>
        <time>2018-04-21T10:54:05.000Z</time>
      </trkpt>
      <trkpt lat="40.800456" lon="-3.926366">
        <ele>2261.0</ele>
        <time>2018-04-21T10:54:06.000Z</time>
      </trkpt>
      <trkpt lat="40.800458" lon="-3.926372">
        <ele>2261.2</ele>
        <time>2018-04-21T10:54:07.000Z</time>
      </trkpt>
      <trkpt lat="40.80046" lon="-3.926377">
        <ele>2261.3</ele>
        <time>2018-04-21T10:54:08.000Z</time>
      </trkpt>
      <trkpt lat="40.800462" lon="-3.926382">
        <ele>2261.5</ele>
        <time>2018-04-21T10:54:09.000Z</time>
      </trkpt>
      <trkpt lat="40.800464" lon="-3.926387">
        <ele>2261.6</ele>
        <time>2018-04-21T10:54:10.000Z</time>
      </trkpt>
      <trkpt lat="40.800466" lon="-3.926392">
        <ele>2261.8</ele>
        <time>2018-04-21T10:54:11.000Z</time>
      </trkpt>
      <trkpt lat="40.800468" lon="-3.926397">
        <ele>2261.9</ele>
        <time>2018-04-21T10:54:12.000Z</time>
      </trkpt>
      <trkpt lat="40.80047" lon="-3.926401">
        <ele>2262.1</ele>
        <time>2018-04-21T10:54:13.000Z</time>
      </trkpt>
      <trkpt lat="40.800472" lon="-3.926406">
        <ele>2262.2</ele>
        <time>2018-04-21T10:54:14.000Z</time>
      </trkpt>
      <trkpt lat="40.800474" lon="-3.92641">
        <ele>2262.3</ele>
        <time>2018-04-21T10:54:15.000Z</time>
      </trkpt>
      <trkpt lat="40.800476" lon="-3.926414">
        <ele>2262.5</ele>
        <time>2018-04-21T10:54:16.000Z</time>
      </trkpt>
      <trkpt lat="40.800478" lon="-3.926419">
        <ele>2262.6</ele>
        <time>2018-04-21T10:54:17.000Z</time>
      </trkpt>
      <trkpt lat="40.80048" lon="-3.926423">
        <ele>2262.8</ele>
        <time>2018-04-21T10:54:18.000Z</time>
      </trkpt>
      <trkpt lat="40.800481" lon="-3.926426">
        <ele>2262.8</ele>
        <time>2018-04-21T10:54:19.000Z</time>
      </trkpt>
      <trkpt lat="40.800483" lon="-3.92643">
        <ele>2263.0</ele>
        <time>2018-04-21T10:54:20.000Z</time>
      </trkpt>
      <trkpt lat="40.800485" lon="-3.926434">
        <ele>2263.1</ele>
        <time>2018-04-21T10:54:21.000Z</time>
      </trkpt>
      <trkpt lat="40.800486" lon="-3.926437">
        <ele>2263.2</ele>
        <time>2018-04-21T10:54:22.000Z</time>
      </trkpt>
      <trkpt lat="40.800487" lon="-3.926441">
        <ele>2263.3</ele>
        <time>2018-04-21T10:54:23.000Z</time>
      </trkpt>
      <trkpt lat="40.800488" lon="-3.926444">
        <ele>2263.4</ele>
        <time>2018-04-21T10:54:24.000Z</time>
      </trkpt>
      <trkpt lat="40.80049" lon="-3.926447">
        <ele>2263.5</ele>
        <time>2018-04-21T10:54:25.000Z</time>
      </trkpt>
      <trkpt lat="40.800491" lon="-3.92645">
        <ele>2263.6</ele>
        <time>2018-04-21T10:54:26.000Z</time>
      </trkpt>
      <trkpt lat="40.800491" lon="-3.926453">
        <ele>2263.7</ele>
        <time>2018-04-21T10:54:27.000Z</time>
      </trkpt>
      <trkpt lat="40.800492" lon="-3.926456">
        <ele>2263.7</ele>
        <time>2018-04-21T10:54:28.000Z</time>
      </trkpt>
      <trkpt lat="40.800493" lon="-3.926458">
        <ele>2263.8</ele>
        <time>2018-04-21T10:54:29.000Z</time>
      </trkpt>
      <trkpt lat="40.800493" lon="-3.926461">
        <ele>2263.9</ele>
        <time>2018-04-21T10:54:30.000Z</time>
      </trkpt>
      <trkpt lat="40.800494" lon="-3.926464">
        <ele>2264.0</ele>
        <time>2018-04-21T10:54:31.000Z</time>
      </trkpt>
      <trkpt lat="40.800494" lon="-3.926466">
        <ele>2264.0</ele>
        <time>2018-04-21T10:54:32.000Z</time>
      </trkpt>
      <trkpt lat="40.800495" lon="-3.926469">
        <ele>2264.1</ele>
        <time>2018-04-21T10:54:33.000Z</time>
      </trkpt>
      <trkpt lat="40.800496" lon="-3.926471">
        <ele>2264.2</ele>
        <time>2018-04-21T10:54:34.000Z</time>
      </trkpt>
      <trkpt lat="40.800497" lon="-3.926475">
        <ele>2264.3</ele>
        <time>2018-04-21T10:54:35.000Z</time>
      </trkpt>
      <trkpt lat="40.800499" lon="-3.926479">
        <ele>2264.4</ele>
        <time>2018-04-21T10:54:36.000Z</time>
      </trkpt>
      <trkpt lat="40.800501" lon="-3.926484">
        <ele>2264.6</ele>
        <time>2018-04-21T10:54:37.000Z</time>
      </trkpt>
      <trkpt lat="40.800504" lon="-3.92649">
        <ele>2264.8</ele>
        <time>2018-04-21T10:54:38.000Z</time>
      </trkpt>
      <trkpt lat="40.800506" lon="-3.926497">
        <ele>2265.0</ele>
        <time>2018-04-21T10:54:39.000Z</time>
      </trkpt>
      <trkpt lat="40.800509" lon="-3.926505">
        <ele>2265.2</ele>
        <time>2018-04-21T10:54:40.000Z</time>
      </trkpt>
      <trkpt lat="40.800512" lon="-3.926512">
        <ele>2265.4</ele>
        <time>2018-04-21T10:54:41.000Z</time>
      </trkpt>
      <trkpt lat="40.800515" lon="-3.926521">
        <ele>2265.7</ele>
        <time>2018-04-21T10:54:42.000Z</time>
      </trkpt>
      <trkpt lat="40.800517" lon="-3.926529">
        <ele>2265.9</ele>
        <time>2018-04-21T10:54:43.000Z</time>
      </trkpt>
      <trkpt lat="40.80052" lon="-3.926537">
        <ele>2266.2</ele>
        <time>2018-04-21T10:54:44.000Z</time>
      </trkpt>
      <trkpt lat="40.800522" lon="-3.926545">
        <ele>2266.4</ele>
        <time>2018-04-21T10:54:45.000Z</time>
      </trkpt>
      <trkpt lat="40.800524" lon="-3.926552">
        <ele>2266.6</ele>
        <time>2018-04-21T10:54:46.000Z</time>
      </trkpt>
      <trkpt lat="40.800525" lon="-3.926559">
        <ele>2266.8</ele>
        <time>2018-04-21T10:54:47.000Z</time>
      </trkpt>
      <trkpt lat="40.800526" lon="-3.926566">
        <ele>2267.0</ele>
        <time>2018-04-21T10:54:48.000Z</time>
      </trkpt>
      <trkpt lat="40.800527" lon="-3.926572">
        <ele>2267.1</ele>
        <time>2018-04-21T10:54:49.000Z</time>
      </trkpt>
      <trkpt lat="40.800527" lon="-3.926578">
        <ele>2267.3</ele>
        <time>2018-04-21T10:54:50.000Z</time>
      </trkpt>
      <trkpt lat="40.800528" lon="-3.926584">
        <ele>2267.5</ele>
        <time>2018-04-21T10:54:51.000Z</time>
      </trkpt>
      <trkpt lat="40.800528" lon="-3.92659">
        <ele>2267.6</ele>
        <time>2018-04-21T10:54:52.000Z</time>
      </trkpt>
      <trkpt lat="40.800528" lon="-3.926595">
        <ele>2267.7</ele>
        <time>2018-04-21T10:54:53.000Z</time>
      </trkpt>
      <trkpt lat="40.800528" lon="-3.9266">
        <ele>2267.8</ele>
        <time>2018-04-21T10:54:54.000Z</time>
      </trkpt>
      <trkpt lat="40.800528" lon="-3.926605">
        <ele>2267.9</ele>
        <time>2018-04-21T10:54:55.000Z</time>
      </trkpt>
      <trkpt lat="40.800528" lon="-3.926611">
        <ele>2268.1</ele>
        <time>2018-04-21T10:54:56.000Z</time>
      </trkpt>
      <trkpt lat="40.800528" lon="-3.926616">
        <ele>2268.2</ele>
        <time>2018-04-21T10:54:57.000Z</time>
      </trkpt>
      <trkpt lat="40.800528" lon="-3.926621">
        <ele>2268.3</ele>
        <time>2018-04-21T10:54:58.000Z</time>
      </trkpt>
      <trkpt lat="40.800529" lon="-3.926626">
        <ele>2268.5</ele>
        <time>2018-04-21T10:54:59.000Z</time>
      </trkpt>
      <trkpt lat="40.800529" lon="-3.926631">
        <ele>2268.6</ele>
        <time>2018-04-21T10:55:00.000Z</time>
      </trkpt>
      <trkpt lat="40.80053" lon="-3.926636">
        <ele>2268.7</ele>
        <time>2018-04-21T10:55:01.000Z</time>
      </trkpt>
      <trkpt lat="40.800531" lon="-3.926642">
        <ele>2268.9</ele>
        <time>2018-04-21T10:55:02.000Z</time>
      </trkpt>
      <trkpt lat="40.800533" lon="-3.926647">
        <ele>2269.0</ele>
        <time>2018-04-21T10:55:03.000Z</time>
      </trkpt>
      <trkpt lat="40.800535" lon="-3.926653">
        <ele>2269.2</ele>
        <time>2018-04-21T10:55:04.000Z</time>
      </trkpt>
      <trkpt lat="40.800537" lon="-3.926659">
        <ele>2269.4</ele>
        <time>2018-04-21T10:55:05.000Z</time>
      </trkpt>
      <trkpt lat="40.800539" lon="-3.926665">
        <ele>2269.6</ele>
        <time>2018-04-21T10:55:06.000Z</time>
      </trkpt>
      <trkpt lat="40.800542" lon="-3.92667">
        <ele>2269.8</ele>
        <time>2018-04-21T10:55:07.000Z</time>
      </trkpt>
      <trkpt lat="40.800544" lon="-3.926676">
        <ele>2270.0</ele>
        <time>2018-04-21T10:55:08.000Z</time>
      </trkpt>
      <trkpt lat="40.800547" lon="-3.926681">
        <ele>2270.2</ele>
        <time>2018-04-21T10:55:09.000Z</time>
      </trkpt>
      <trkpt lat="40.800549" lon="-3.926686">
        <ele>2270.4</ele>
        <time>2018-04-21T10:55:10.000Z</time>
      </trkpt>
      <trkpt lat="40.800551" lon="-3.92669">
        <ele>2270.5</ele>
        <time>2018-04-21T10:55:11.000Z</time>
      </trkpt>
      <trkpt lat="40.800553" lon="-3.926693">
        <ele>2270.7</ele>
        <time>2018-04-21T10:55:12.000Z</time>
      </trkpt>
      <trkpt lat="40.800555" lon="-3.926696">
        <ele>2270.8</ele>
        <time>2018-04-21T10:55:13.000Z</time>
      </trkpt>
      <trkpt lat="40.800556" lon="-3.926698">
        <ele>2270.8</ele>
        <time>2018-04-21T10:55:14.000Z</time>
      </trkpt>
      <trkpt lat="40.800556" lon="-3.9267">
        <ele>2270.9</ele>
        <time>2018-04-21T10:55:15.000Z</time>
      </trkpt>
      <trkpt lat="40.800557" lon="-3.926701">
        <ele>2271.0</ele>
        <time>2018-04-21T10:55:16.000Z</time>
      </trkpt>
      <trkpt lat="40.800557" lon="-3.926701">
        <ele>2271.0</ele>
        <time>2018-04-21T10:55:17.000Z</time>
      </trkpt>
      <trkpt lat="40.800557" lon="-3.926702">
        <ele>2271.0</ele>
        <time>2018-04-21T10:55:18.000Z</time>
      </trkpt>
      <trkpt lat="40.800557" lon="-3.926702">
        <ele>2271.0</ele>
        <time>2018-04-21T10:55:19.000Z</time>
      </trkpt>
      <trkpt lat="40.800557" lon="-3.926702">
        <ele>2271.0</ele>
        <time>2018-04-21T10:55:20.000Z</time>
      </trkpt>
      <trkpt lat="40.800557" lon="-3.926701">
        <ele>2271.0</ele>
        <time>2018-04-21T10:55:21.000Z</time>
      </trkpt>
      <trkpt lat="40.800557" lon="-3.926701">
        <ele>2271.0</ele>
        <time>2018-04-21T10:55:22.000Z</time>
      </trkpt>
      <trkpt lat="40.800556" lon="-3.926701">
        <ele>2270.9</ele>
        <time>2018-04-21T10:55:23.000Z</time>
      </trkpt>
      <trkpt lat="40.800556" lon="-3.926701">
        <ele>2270.9</ele>
        <time>2018-04-21T10:55:24.000Z</time>
      </trkpt>
      <trkpt lat="40.800556" lon="-3.926701">
        <ele>2270.9</ele>
        <time>2018-04-21T10:55:25.000Z</time>
      </trkpt>
      <trkpt lat="40.800556" lon="-3.926701">
        <ele>2270.9</ele>
        <time>2018-04-21T10:55:26.000Z</time>
      </trkpt>
      <trkpt lat="40.800556" lon="-3.926701">
        <ele>2270.9</ele>
        <time>2018-04-21T10:55:27.000Z</time>
      </trkpt>
      <trkpt lat="40.800556" lon="-3.926701">
        <ele>2270.9</ele>
        <time>2018-04-21T10:55:28.000Z</time>
      </trkpt>
      <trkpt lat="40.800556" lon="-3.926701">
        <ele>2270.9</ele>
        <time>2018-04-21T10:55:29.000Z</time>
      </trkpt>
      <trkpt lat="40.800556" lon="-3.926701">
        <ele>2270.9</ele>
        <time>2018-04-21T10:55:30.000Z</time>
      </trkpt>
      <trkpt lat="40.800556" lon="-3.926701">
        <ele>2270.9</ele>
        <time>2018-04-21T10:55:31.000Z</time>
      </trkpt>
      <trkpt lat="40.800556" lon="-3.926701">
        <ele>2270.9</ele>
        <time>2018-04-21T10:55:32.000Z</time>
      </trkpt>
      <trkpt lat="40.800556" lon="-3.926701">
        <ele>2270.9</ele>
        <time>2018-04-21T10:55:33.000Z</time>
      </trkpt>
      <trkpt lat="40.800556" lon="-3.926701">
        <ele>2270.9</ele>
        <time>2018-04-21T10:55:34.000Z</time>
      </trkpt>
      <trkpt lat="40.800556" lon="-3.926701">
        <ele>2270.9</ele>
        <time>2018-04-21T10:55:35.000Z</time>
      </trkpt>
      <trkpt lat="40.800556" lon="-3.926701">
        <ele>2270.9</ele>
        <time>2018-04-21T10:55:36.000Z</time>
      </trkpt>
      <trkpt lat="40.800556" lon="-3.926701">
        <ele>2270.9</ele>
        <time>2018-04-21T10:55:37.000Z</time>
      </trkpt>
      <trkpt lat="40.800556" lon="-3.926701">
        <ele>2270.9</ele>
        <time>2018-04-21T10:55:38.000Z</time>
      </trkpt>
      <trkpt lat="40.800556" lon="-3.926701">
        <ele>2270.9</ele>
        <time>2018-04-21T10:55:39.000Z</time>
      </trkpt>
      <trkpt lat="40.800556" lon="-3.926701">
        <ele>2270.9</ele>
        <time>2018-04-21T10:55:40.000Z</time>
      </trkpt>
      <trkpt lat="40.800556" lon="-3.926701">
        <ele>2270.9</ele>
        <time>2018-04-21T10:55:41.000Z</time>
      </trkpt>
      <trkpt lat="40.800556" lon="-3.926701">
        <ele>2270.9</ele>
        <time>2018-04-21T10:55:42.000Z</time>
      </trkpt>
      <trkpt lat="40.800556" lon="-3.926701">
        <ele>2270.9</ele>
        <time>2018-04-21T10:55:43.000Z</time>
      </trkpt>
      <trkpt lat="40.800556" lon="-3.926701">
        <ele>2270.9</ele>
        <time>2018-04-21T10:55:44.000Z</time>
      </trkpt>
      <trkpt lat="40.800556" lon="-3.926701">
        <ele>2270.9</ele>
        <time>2018-04-21T10:55:45.000Z</time>
      </trkpt>
      <trkpt lat="40.800556" lon="-3.926701">
        <ele>2270.9</ele>
        <time>2018-04-21T10:55:46.000Z</time>
      </trkpt>
      <trkpt lat="40.800556" lon="-3.926701">
        <ele>2270.9</ele>
        <time>2018-04-21T10:55:47.000Z</time>
      </trkpt>
      <trkpt lat="40.800556" lon="-3.926701">
        <ele>2270.9</ele>
        <time>2018-04-21T10:55:48.000Z</time>
      </trkpt>
      <trkpt lat="40.800556" lon="-3.926701">
        <ele>2270.9</ele>
        <time>2018-04-21T10:55:49.000Z</time>
      </trkpt>
      <trkpt lat="40.800556" lon="-3.926702">
        <ele>2271.0</ele>
        <time>2018-04-21T10:55:50.000Z</time>
      </trkpt>
      <trkpt lat="40.800557" lon="-3.926704">
        <ele>2271.0</ele>
        <time>2018-04-21T10:55:51.000Z</time>
      </trkpt>
      <trkpt lat="40.800559" lon="-3.926708">
        <ele>2271.2</ele>
        <time>2018-04-21T10:55:52.000Z</time>
      </trkpt>
      <trkpt lat="40.800561" lon="-3.926712">
        <ele>2271.3</ele>
        <time>2018-04-21T10:55:53.000Z</time>
      </trkpt>
      <trkpt lat="40.800563" lon="-3.926717">
        <ele>2271.5</ele>
        <time>2018-04-21T10:55:54.000Z</time>
      </trkpt>
      <trkpt lat="40.800564" lon="-3.926722">
        <ele>2271.7</ele>
        <time>2018-04-21T10:55:55.000Z</time>
      </trkpt>
      <trkpt lat="40.800565" lon="-3.926727">
        <ele>2271.8</ele>
        <time>2018-04-21T10:55:56.000Z</time>
      </trkpt>
      <trkpt lat="40.800565" lon="-3.926733">
        <ele>2272.0</ele>
        <time>2018-04-21T10:55:57.000Z</time>
      </trkpt>
      <trkpt lat="40.800566" lon="-3.926738">
        <ele>2272.1</ele>
        <time>2018-04-21T10:55:58.000Z</time>
      </trkpt>
      <trkpt lat="40.800566" lon="-3.926743">
        <ele>2272.3</ele>
        <time>2018-04-21T10:55:59.000Z</time>
      </trkpt>
      <trkpt lat="40.800567" lon="-3.926748">
        <ele>2272.4</ele>
        <time>2018-04-21T10:56:00.000Z</time>
      </trkpt>
      <trkpt lat="40.800567" lon="-3.926753">
        <ele>2272.6</ele>
        <time>2018-04-21T10:56:01.000Z</time>
      </trkpt>
      <trkpt lat="40.800567" lon="-3.926759">
        <ele>2272.7</ele>
        <time>2018-04-21T10:56:02.000Z</time>
      </trkpt>
      <trkpt lat="40.800568" lon="-3.926764">
        <ele>2272.9</ele>
        <time>2018-04-21T10:56:03.000Z</time>
      </trkpt>
      <trkpt lat="40.800568" lon="-3.926769">
        <ele>2273.0</ele>
        <time>2018-04-21T10:56:04.000Z</time>
      </trkpt>
      <trkpt lat="40.800568" lon="-3.926775">
        <ele>2273.2</ele>
        <time>2018-04-21T10:56:05.000Z</time>
      </trkpt>
      <trkpt lat="40.800569" lon="-3.926781">
        <ele>2273.4</ele>
        <time>2018-04-21T10:56:06.000Z</time>
      </trkpt>
      <trkpt lat="40.800569" lon="-3.926787">
        <ele>2273.5</ele>
        <time>2018-04-21T10:56:07.000Z</time>
      </trkpt>
      <trkpt lat="40.800569" lon="-3.926793">
        <ele>2273.7</ele>
        <time>2018-04-21T10:56:08.000Z</time>
      </trkpt>
      <trkpt lat="40.80057" lon="-3.926799">
        <ele>2273.9</ele>
        <time>2018-04-21T10:56:09.000Z</time>
      </trkpt>
      <trkpt lat="40.80057" lon="-3.926806">
        <ele>2274.1</ele>
        <time>2018-04-21T10:56:10.000Z</time>
      </trkpt>
      <trkpt lat="40.800571" lon="-3.926812">
        <ele>2274.2</ele>
        <time>2018-04-21T10:56:11.000Z</time>
      </trkpt>
      <trkpt lat="40.800571" lon="-3.926819">
        <ele>2274.4</ele>
        <time>2018-04-21T10:56:12.000Z</time>
      </trkpt>
      <trkpt lat="40.800572" lon="-3.926826">
        <ele>2274.6</ele>
        <time>2018-04-21T10:56:13.000Z</time>
      </trkpt>
      <trkpt lat="40.800572" lon="-3.926833">
        <ele>2274.8</ele>
        <time>2018-04-21T10:56:14.000Z</time>
      </trkpt>
      <trkpt lat="40.800572" lon="-3.92684">
        <ele>2275.0</ele>
        <time>2018-04-21T10:56:15.000Z</time>
      </trkpt>
      <trkpt lat="40.800573" lon="-3.926846">
        <ele>2275.2</ele>
        <time>2018-04-21T10:56:16.000Z</time>
      </trkpt>
      <trkpt lat="40.800573" lon="-3.926853">
        <ele>2275.4</ele>
        <time>2018-04-21T10:56:17.000Z</time>
      </trkpt>
      <trkpt lat="40.800573" lon="-3.92686">
        <ele>2275.6</ele>
        <time>2018-04-21T10:56:18.000Z</time>
      </trkpt>
      <trkpt lat="40.800574" lon="-3.926867">
        <ele>2275.8</ele>
        <time>2018-04-21T10:56:19.000Z</time>
      </trkpt>
      <trkpt lat="40.800574" lon="-3.926873">
        <ele>2276.0</ele>
        <time>2018-04-21T10:56:20.000Z</time>
      </trkpt>
      <trkpt lat="40.800574" lon="-3.92688">
        <ele>2276.1</ele>
        <time>2018-04-21T10:56:21.000Z</time>
      </trkpt>
      <trkpt lat="40.800575" lon="-3.926886">
        <ele>2276.3</ele>
        <time>2018-04-21T10:56:22.000Z</time>
      </trkpt>
      <trkpt lat="40.800575" lon="-3.926893">
        <ele>2276.5</ele>
        <time>2018-04-21T10:56:23.000Z</time>
      </trkpt>
      <trkpt lat="40.800576" lon="-3.926899">
        <ele>2276.7</ele>
        <time>2018-04-21T10:56:24.000Z</time>
      </trkpt>
      <trkpt lat="40.800576" lon="-3.926906">
        <ele>2276.9</ele>
        <time>2018-04-21T10:56:25.000Z</time>
      </trkpt>
      <trkpt lat="40.800577" lon="-3.926912">
        <ele>2277.1</ele>
        <time>2018-04-21T10:56:26.000Z</time>
      </trkpt>
      <trkpt lat="40.800578" lon="-3.926918">
        <ele>2277.3</ele>
        <time>2018-04-21T10:56:27.000Z</time>
      </trkpt>
      <trkpt lat="40.800579" lon="-3.926924">
        <ele>2277.4</ele>
        <time>2018-04-21T10:56:28.000Z</time>
      </trkpt>
      <trkpt lat="40.80058" lon="-3.92693">
        <ele>2277.6</ele>
        <time>2018-04-21T10:56:29.000Z</time>
      </trkpt>
      <trkpt lat="40.800581" lon="-3.926936">
        <ele>2277.8</ele>
        <time>2018-04-21T10:56:30.000Z</time>
      </trkpt>
      <trkpt lat="40.800583" lon="-3.926941">
        <ele>2278.0</ele>
        <time>2018-04-21T10:56:31.000Z</time>
      </trkpt>
      <trkpt lat="40.800585" lon="-3.926947">
        <ele>2278.2</ele>
        <time>2018-04-21T10:56:32.000Z</time>
      </trkpt>
      <trkpt lat="40.800586" lon="-3.926952">
        <ele>2278.4</ele>
        <time>2018-04-21T10:56:33.000Z</time>
      </trkpt>
      <trkpt lat="40.800589" lon="-3.926957">
        <ele>2278.6</ele>
        <time>2018-04-21T10:56:34.000Z</time>
      </trkpt>
      <trkpt lat="40.800591" lon="-3.926962">
        <ele>2278.8</ele>
        <time>2018-04-21T10:56:35.000Z</time>
      </trkpt>
      <trkpt lat="40.800594" lon="-3.926967">
        <ele>2279.0</ele>
        <time>2018-04-21T10:56:36.000Z</time>
      </trkpt>
      <trkpt lat="40.800596" lon="-3.926971">
        <ele>2279.1</ele>
        <time>2018-04-21T10:56:37.000Z</time>
      </trkpt>
      <trkpt lat="40.800599" lon="-3.926976">
        <ele>2279.3</ele>
        <time>2018-04-21T10:56:38.000Z</time>
      </trkpt>
      <trkpt lat="40.800602" lon="-3.92698">
        <ele>2279.5</ele>
        <time>2018-04-21T10:56:39.000Z</time>
      </trkpt>
      <trkpt lat="40.800605" lon="-3.926985">
        <ele>2279.7</ele>
        <time>2018-04-21T10:56:40.000Z</time>
      </trkpt>
      <trkpt lat="40.800608" lon="-3.926989">
        <ele>2279.9</ele>
        <time>2018-04-21T10:56:41.000Z</time>
      </trkpt>
      <trkpt lat="40.80061" lon="-3.926993">
        <ele>2280.0</ele>
        <time>2018-04-21T10:56:42.000Z</time>
      </trkpt>
      <trkpt lat="40.800612" lon="-3.926998">
        <ele>2280.2</ele>
        <time>2018-04-21T10:56:43.000Z</time>
      </trkpt>
      <trkpt lat="40.800615" lon="-3.927002">
        <ele>2280.4</ele>
        <time>2018-04-21T10:56:44.000Z</time>
      </trkpt>
      <trkpt lat="40.800617" lon="-3.927006">
        <ele>2280.6</ele>
        <time>2018-04-21T10:56:45.000Z</time>
      </trkpt>
      <trkpt lat="40.800618" lon="-3.92701">
        <ele>2280.7</ele>
        <time>2018-04-21T10:56:46.000Z</time>
      </trkpt>
      <trkpt lat="40.800619" lon="-3.927013">
        <ele>2280.8</ele>
        <time>2018-04-21T10:56:47.000Z</time>
      </trkpt>
      <trkpt lat="40.800621" lon="-3.927016">
        <ele>2280.9</ele>
        <time>2018-04-21T10:56:48.000Z</time>
      </trkpt>
      <trkpt lat="40.800621" lon="-3.927019">
        <ele>2281.0</ele>
        <time>2018-04-21T10:56:49.000Z</time>
      </trkpt>
      <trkpt lat="40.800622" lon="-3.927021">
        <ele>2281.1</ele>
        <time>2018-04-21T10:56:50.000Z</time>
      </trkpt>
      <trkpt lat="40.800622" lon="-3.927022">
        <ele>2281.1</ele>
        <time>2018-04-21T10:56:51.000Z</time>
      </trkpt>
      <trkpt lat="40.800622" lon="-3.927022">
        <ele>2281.1</ele>
        <time>2018-04-21T10:56:52.000Z</time>
      </trkpt>
      <trkpt lat="40.800622" lon="-3.927022">
        <ele>2281.1</ele>
        <time>2018-04-21T10:56:53.000Z</time>
      </trkpt>
      <trkpt lat="40.800624" lon="-3.927029">
        <ele>2281.4</ele>
        <time>2018-04-21T10:56:54.000Z</time>
      </trkpt>
      <trkpt lat="40.800629" lon="-3.927044">
        <ele>2281.9</ele>
        <time>2018-04-21T10:56:55.000Z</time>
      </trkpt>
      <trkpt lat="40.800633" lon="-3.927056">
        <ele>2282.3</ele>
        <time>2018-04-21T10:56:56.000Z</time>
      </trkpt>
      <trkpt lat="40.800636" lon="-3.927063">
        <ele>2282.6</ele>
        <time>2018-04-21T10:56:57.000Z</time>
      </trkpt>
      <trkpt lat="40.800638" lon="-3.927069">
        <ele>2282.8</ele>
        <time>2018-04-21T10:56:58.000Z</time>
      </trkpt>
      <trkpt lat="40.80064" lon="-3.927075">
        <ele>2283.0</ele>
        <time>2018-04-21T10:56:59.000Z</time>
      </trkpt>
      <trkpt lat="40.800642" lon="-3.927081">
        <ele>2283.2</ele>
        <time>2018-04-21T10:57:00.000Z</time>
      </trkpt>
      <trkpt lat="40.800643" lon="-3.927087">
        <ele>2283.4</ele>
        <time>2018-04-21T10:57:01.000Z</time>
      </trkpt>
      <trkpt lat="40.800644" lon="-3.927092">
        <ele>2283.6</ele>
        <time>2018-04-21T10:57:02.000Z</time>
      </trkpt>
      <trkpt lat="40.800646" lon="-3.927098">
        <ele>2283.8</ele>
        <time>2018-04-21T10:57:03.000Z</time>
      </trkpt>
      <trkpt lat="40.800647" lon="-3.927103">
        <ele>2284.0</ele>
        <time>2018-04-21T10:57:04.000Z</time>
      </trkpt>
      <trkpt lat="40.800648" lon="-3.927108">
        <ele>2284.1</ele>
        <time>2018-04-21T10:57:05.000Z</time>
      </trkpt>
      <trkpt lat="40.800649" lon="-3.927113">
        <ele>2284.3</ele>
        <time>2018-04-21T10:57:06.000Z</time>
      </trkpt>
      <trkpt lat="40.800651" lon="-3.927118">
        <ele>2284.5</ele>
        <time>2018-04-21T10:57:07.000Z</time>
      </trkpt>
      <trkpt lat="40.800653" lon="-3.927123">
        <ele>2284.7</ele>
        <time>2018-04-21T10:57:08.000Z</time>
      </trkpt>
      <trkpt lat="40.800655" lon="-3.927128">
        <ele>2284.8</ele>
        <time>2018-04-21T10:57:09.000Z</time>
      </trkpt>
      <trkpt lat="40.800658" lon="-3.927134">
        <ele>2285.1</ele>
        <time>2018-04-21T10:57:10.000Z</time>
      </trkpt>
      <trkpt lat="40.800659" lon="-3.927139">
        <ele>2285.2</ele>
        <time>2018-04-21T10:57:11.000Z</time>
      </trkpt>
      <trkpt lat="40.800661" lon="-3.927144">
        <ele>2285.4</ele>
        <time>2018-04-21T10:57:12.000Z</time>
      </trkpt>
      <trkpt lat="40.800663" lon="-3.92715">
        <ele>2285.6</ele>
        <time>2018-04-21T10:57:13.000Z</time>
      </trkpt>
      <trkpt lat="40.800664" lon="-3.927155">
        <ele>2285.8</ele>
        <time>2018-04-21T10:57:14.000Z</time>
      </trkpt>
      <trkpt lat="40.800665" lon="-3.927161">
        <ele>2286.0</ele>
        <time>2018-04-21T10:57:15.000Z</time>
      </trkpt>
      <trkpt lat="40.800667" lon="-3.927166">
        <ele>2286.2</ele>
        <time>2018-04-21T10:57:16.000Z</time>
      </trkpt>
      <trkpt lat="40.800668" lon="-3.927172">
        <ele>2286.4</ele>
        <time>2018-04-21T10:57:17.000Z</time>
      </trkpt>
      <trkpt lat="40.800668" lon="-3.927177">
        <ele>2286.5</ele>
        <time>2018-04-21T10:57:18.000Z</time>
      </trkpt>
      <trkpt lat="40.800669" lon="-3.927182">
        <ele>2286.7</ele>
        <time>2018-04-21T10:57:19.000Z</time>
      </trkpt>
      <trkpt lat="40.80067" lon="-3.927187">
        <ele>2286.8</ele>
        <time>2018-04-21T10:57:20.000Z</time>
      </trkpt>
      <trkpt lat="40.80067" lon="-3.927192">
        <ele>2287.0</ele>
        <time>2018-04-21T10:57:21.000Z</time>
      </trkpt>
      <trkpt lat="40.800671" lon="-3.927196">
        <ele>2287.1</ele>
        <time>2018-04-21T10:57:22.000Z</time>
      </trkpt>
      <trkpt lat="40.800671" lon="-3.9272">
        <ele>2287.2</ele>
        <time>2018-04-21T10:57:23.000Z</time>
      </trkpt>
      <trkpt lat="40.800672" lon="-3.927204">
        <ele>2287.4</ele>
        <time>2018-04-21T10:57:24.000Z</time>
      </trkpt>
      <trkpt lat="40.800672" lon="-3.927208">
        <ele>2287.5</ele>
        <time>2018-04-21T10:57:25.000Z</time>
      </trkpt>
      <trkpt lat="40.800672" lon="-3.927211">
        <ele>2287.6</ele>
        <time>2018-04-21T10:57:26.000Z</time>
      </trkpt>
      <trkpt lat="40.800672" lon="-3.927213">
        <ele>2287.6</ele>
        <time>2018-04-21T10:57:27.000Z</time>
      </trkpt>
      <trkpt lat="40.800672" lon="-3.927216">
        <ele>2287.7</ele>
        <time>2018-04-21T10:57:28.000Z</time>
      </trkpt>
      <trkpt lat="40.800672" lon="-3.927217">
        <ele>2287.7</ele>
        <time>2018-04-21T10:57:29.000Z</time>
      </trkpt>
      <trkpt lat="40.800672" lon="-3.927218">
        <ele>2287.8</ele>
        <time>2018-04-21T10:57:30.000Z</time>
      </trkpt>
      <trkpt lat="40.800672" lon="-3.927219">
        <ele>2287.8</ele>
        <time>2018-04-21T10:57:31.000Z</time>
      </trkpt>
      <trkpt lat="40.800672" lon="-3.927219">
        <ele>2287.8</ele>
        <time>2018-04-21T10:57:32.000Z</time>
      </trkpt>
      <trkpt lat="40.800672" lon="-3.927219">
        <ele>2287.8</ele>
        <time>2018-04-21T10:57:33.000Z</time>
      </trkpt>
      <trkpt lat="40.800672" lon="-3.927219">
        <ele>2287.8</ele>
        <time>2018-04-21T10:57:34.000Z</time>
      </trkpt>
      <trkpt lat="40.800672" lon="-3.927219">
        <ele>2287.8</ele>
        <time>2018-04-21T10:57:35.000Z</time>
      </trkpt>
      <trkpt lat="40.800672" lon="-3.927218">
        <ele>2287.8</ele>
        <time>2018-04-21T10:57:36.000Z</time>
      </trkpt>
      <trkpt lat="40.800672" lon="-3.927217">
        <ele>2287.7</ele>
        <time>2018-04-21T10:57:37.000Z</time>
      </trkpt>
      <trkpt lat="40.800672" lon="-3.927217">
        <ele>2287.7</ele>
        <time>2018-04-21T10:57:38.000Z</time>
      </trkpt>
      <trkpt lat="40.800672" lon="-3.927216">
        <ele>2287.7</ele>
        <time>2018-04-21T10:57:39.000Z</time>
      </trkpt>
      <trkpt lat="40.800672" lon="-3.927216">
        <ele>2287.7</ele>
        <time>2018-04-21T10:57:40.000Z</time>
      </trkpt>
      <trkpt lat="40.800672" lon="-3.927217">
        <ele>2287.7</ele>
        <time>2018-04-21T10:57:41.000Z</time>
      </trkpt>
      <trkpt lat="40.800672" lon="-3.927218">
        <ele>2287.8</ele>
        <time>2018-04-21T10:57:42.000Z</time>
      </trkpt>
      <trkpt lat="40.800672" lon="-3.927221">
        <ele>2287.8</ele>
        <time>2018-04-21T10:57:43.000Z</time>
      </trkpt>
      <trkpt lat="40.800671" lon="-3.927225">
        <ele>2287.9</ele>
        <time>2018-04-21T10:57:44.000Z</time>
      </trkpt>
      <trkpt lat="40.80067" lon="-3.92723">
        <ele>2288.0</ele>
        <time>2018-04-21T10:57:45.000Z</time>
      </trkpt>
      <trkpt lat="40.800669" lon="-3.927237">
        <ele>2288.2</ele>
        <time>2018-04-21T10:57:46.000Z</time>
      </trkpt>
      <trkpt lat="40.800668" lon="-3.927245">
        <ele>2288.4</ele>
        <time>2018-04-21T10:57:47.000Z</time>
      </trkpt>
      <trkpt lat="40.800666" lon="-3.927253">
        <ele>2288.6</ele>
        <time>2018-04-21T10:57:48.000Z</time>
      </trkpt>
      <trkpt lat="40.800666" lon="-3.927259">
        <ele>2288.7</ele>
        <time>2018-04-21T10:57:49.000Z</time>
      </trkpt>
      <trkpt lat="40.800665" lon="-3.92726">
        <ele>2288.7</ele>
        <time>2018-04-21T10:57:50.000Z</time>
      </trkpt>
      <trkpt lat="40.800665" lon="-3.92726">
        <ele>2288.7</ele>
        <time>2018-04-21T10:57:51.000Z</time>
      </trkpt>
      <trkpt lat="40.800665" lon="-3.927262">
        <ele>2288.8</ele>
        <time>2018-04-21T10:57:52.000Z</time>
      </trkpt>
      <trkpt lat="40.800664" lon="-3.927265">
        <ele>2288.8</ele>
        <time>2018-04-21T10:57:53.000Z</time>
      </trkpt>
      <trkpt lat="40.800663" lon="-3.927271">
        <ele>2289.0</ele>
        <time>2018-04-21T10:57:54.000Z</time>
      </trkpt>
      <trkpt lat="40.800662" lon="-3.927276">
        <ele>2289.1</ele>
        <time>2018-04-21T10:57:55.000Z</time>
      </trkpt>
      <trkpt lat="40.800661" lon="-3.927283">
        <ele>2289.3</ele>
        <time>2018-04-21T10:57:56.000Z</time>
      </trkpt>
      <trkpt lat="40.80066" lon="-3.927289">
        <ele>2289.4</ele>
        <time>2018-04-21T10:57:57.000Z</time>
      </trkpt>
      <trkpt lat="40.80066" lon="-3.927296">
        <ele>2289.6</ele>
        <time>2018-04-21T10:57:58.000Z</time>
      </trkpt>
      <trkpt lat="40.80066" lon="-3.927302">
        <ele>2289.8</ele>
        <time>2018-04-21T10:57:59.000Z</time>
      </trkpt>
      <trkpt lat="40.80066" lon="-3.927308">
        <ele>2289.9</ele>
        <time>2018-04-21T10:58:00.000Z</time>
      </trkpt>
      <trkpt lat="40.80066" lon="-3.927314">
        <ele>2290.1</ele>
        <time>2018-04-21T10:58:01.000Z</time>
      </trkpt>
      <trkpt lat="40.800661" lon="-3.927319">
        <ele>2290.3</ele>
        <time>2018-04-21T10:58:02.000Z</time>
      </trkpt>
      <trkpt lat="40.800661" lon="-3.927324">
        <ele>2290.4</ele>
        <time>2018-04-21T10:58:03.000Z</time>
      </trkpt>
      <trkpt lat="40.800661" lon="-3.927327">
        <ele>2290.5</ele>
        <time>2018-04-21T10:58:04.000Z</time>
      </trkpt>
      <trkpt lat="40.800661" lon="-3.92733">
        <ele>2290.6</ele>
        <time>2018-04-21T10:58:05.000Z</time>
      </trkpt>
      <trkpt lat="40.800662" lon="-3.927332">
        <ele>2290.6</ele>
        <time>2018-04-21T10:58:06.000Z</time>
      </trkpt>
      <trkpt lat="40.800662" lon="-3.927333">
        <ele>2290.7</ele>
        <time>2018-04-21T10:58:07.000Z</time>
      </trkpt>
      <trkpt lat="40.800662" lon="-3.927334">
        <ele>2290.7</ele>
        <time>2018-04-21T10:58:08.000Z</time>
      </trkpt>
      <trkpt lat="40.800662" lon="-3.927334">
        <ele>2290.7</ele>
        <time>2018-04-21T10:58:09.000Z</time>
      </trkpt>
      <trkpt lat="40.800662" lon="-3.927334">
        <ele>2290.7</ele>
        <time>2018-04-21T10:58:10.000Z</time>
      </trkpt>
      <trkpt lat="40.800662" lon="-3.927334">
        <ele>2290.7</ele>
        <time>2018-04-21T10:58:11.000Z</time>
      </trkpt>
      <trkpt lat="40.800662" lon="-3.927334">
        <ele>2290.7</ele>
        <time>2018-04-21T10:58:12.000Z</time>
      </trkpt>
      <trkpt lat="40.800662" lon="-3.927334">
        <ele>2290.7</ele>
        <time>2018-04-21T10:58:13.000Z</time>
      </trkpt>
      <trkpt lat="40.800662" lon="-3.927334">
        <ele>2290.7</ele>
        <time>2018-04-21T10:58:14.000Z</time>
      </trkpt>
      <trkpt lat="40.800662" lon="-3.927335">
        <ele>2290.7</ele>
        <time>2018-04-21T10:58:15.000Z</time>
      </trkpt>
      <trkpt lat="40.800661" lon="-3.927335">
        <ele>2290.7</ele>
        <time>2018-04-21T10:58:16.000Z</time>
      </trkpt>
      <trkpt lat="40.800661" lon="-3.927335">
        <ele>2290.7</ele>
        <time>2018-04-21T10:58:17.000Z</time>
      </trkpt>
      <trkpt lat="40.800661" lon="-3.927335">
        <ele>2290.7</ele>
        <time>2018-04-21T10:58:18.000Z</time>
      </trkpt>
      <trkpt lat="40.800661" lon="-3.927337">
        <ele>2290.8</ele>
        <time>2018-04-21T10:58:19.000Z</time>
      </trkpt>
      <trkpt lat="40.800661" lon="-3.927344">
        <ele>2290.9</ele>
        <time>2018-04-21T10:58:20.000Z</time>
      </trkpt>
      <trkpt lat="40.80066" lon="-3.92735">
        <ele>2291.1</ele>
        <time>2018-04-21T10:58:21.000Z</time>
      </trkpt>
      <trkpt lat="40.80066" lon="-3.927356">
        <ele>2291.2</ele>
        <time>2018-04-21T10:58:22.000Z</time>
      </trkpt>
      <trkpt lat="40.800659" lon="-3.927362">
        <ele>2291.4</ele>
        <time>2018-04-21T10:58:23.000Z</time>
      </trkpt>
      <trkpt lat="40.800659" lon="-3.927368">
        <ele>2291.6</ele>
        <time>2018-04-21T10:58:24.000Z</time>
      </trkpt>
      <trkpt lat="40.800659" lon="-3.927374">
        <ele>2291.7</ele>
        <time>2018-04-21T10:58:25.000Z</time>
      </trkpt>
      <trkpt lat="40.800658" lon="-3.92738">
        <ele>2291.9</ele>
        <time>2018-04-21T10:58:26.000Z</time>
      </trkpt>
      <trkpt lat="40.800658" lon="-3.927387">
        <ele>2292.0</ele>
        <time>2018-04-21T10:58:27.000Z</time>
      </trkpt>
      <trkpt lat="40.800657" lon="-3.927393">
        <ele>2292.2</ele>
        <time>2018-04-21T10:58:28.000Z</time>
      </trkpt>
      <trkpt lat="40.800657" lon="-3.9274">
        <ele>2292.4</ele>
        <time>2018-04-21T10:58:29.000Z</time>
      </trkpt>
      <trkpt lat="40.800657" lon="-3.927406">
        <ele>2292.5</ele>
        <time>2018-04-21T10:58:30.000Z</time>
      </trkpt>
      <trkpt lat="40.800656" lon="-3.927412">
        <ele>2292.7</ele>
        <time>2018-04-21T10:58:31.000Z</time>
      </trkpt>
      <trkpt lat="40.800656" lon="-3.927419">
        <ele>2292.9</ele>
        <time>2018-04-21T10:58:32.000Z</time>
      </trkpt>
      <trkpt lat="40.800655" lon="-3.927424">
        <ele>2293.0</ele>
        <time>2018-04-21T10:58:33.000Z</time>
      </trkpt>
      <trkpt lat="40.800655" lon="-3.92743">
        <ele>2293.2</ele>
        <time>2018-04-21T10:58:34.000Z</time>
      </trkpt>
      <trkpt lat="40.800655" lon="-3.927436">
        <ele>2293.3</ele>
        <time>2018-04-21T10:58:35.000Z</time>
      </trkpt>
      <trkpt lat="40.800654" lon="-3.927442">
        <ele>2293.5</ele>
        <time>2018-04-21T10:58:36.000Z</time>
      </trkpt>
      <trkpt lat="40.800654" lon="-3.927448">
        <ele>2293.6</ele>
        <time>2018-04-21T10:58:37.000Z</time>
      </trkpt>
      <trkpt lat="40.800653" lon="-3.927453">
        <ele>2293.7</ele>
        <time>2018-04-21T10:58:38.000Z</time>
      </trkpt>
      <trkpt lat="40.800652" lon="-3.927459">
        <ele>2293.9</ele>
        <time>2018-04-21T10:58:39.000Z</time>
      </trkpt>
      <trkpt lat="40.800652" lon="-3.927465">
        <ele>2294.0</ele>
        <time>2018-04-21T10:58:40.000Z</time>
      </trkpt>
      <trkpt lat="40.800651" lon="-3.927472">
        <ele>2294.2</ele>
        <time>2018-04-21T10:58:41.000Z</time>
      </trkpt>
      <trkpt lat="40.80065" lon="-3.927478">
        <ele>2294.3</ele>
        <time>2018-04-21T10:58:42.000Z</time>
      </trkpt>
      <trkpt lat="40.800649" lon="-3.927484">
        <ele>2294.5</ele>
        <time>2018-04-21T10:58:43.000Z</time>
      </trkpt>
      <trkpt lat="40.800648" lon="-3.927491">
        <ele>2294.6</ele>
        <time>2018-04-21T10:58:44.000Z</time>
      </trkpt>
      <trkpt lat="40.800647" lon="-3.927497">
        <ele>2294.8</ele>
        <time>2018-04-21T10:58:45.000Z</time>
      </trkpt>
      <trkpt lat="40.800646" lon="-3.927504">
        <ele>2294.9</ele>
        <time>2018-04-21T10:58:46.000Z</time>
      </trkpt>
      <trkpt lat="40.800645" lon="-3.927511">
        <ele>2295.1</ele>
        <time>2018-04-21T10:58:47.000Z</time>
      </trkpt>
      <trkpt lat="40.800644" lon="-3.927518">
        <ele>2295.2</ele>
        <time>2018-04-21T10:58:48.000Z</time>
      </trkpt>
      <trkpt lat="40.800643" lon="-3.927525">
        <ele>2295.4</ele>
        <time>2018-04-21T10:58:49.000Z</time>
      </trkpt>
      <trkpt lat="40.800642" lon="-3.927532">
        <ele>2295.5</ele>
        <time>2018-04-21T10:58:50.000Z</time>
      </trkpt>
      <trkpt lat="40.800642" lon="-3.927539">
        <ele>2295.7</ele>
        <time>2018-04-21T10:58:51.000Z</time>
      </trkpt>
      <trkpt lat="40.800641" lon="-3.927546">
        <ele>2295.9</ele>
        <time>2018-04-21T10:58:52.000Z</time>
      </trkpt>
      <trkpt lat="40.80064" lon="-3.927552">
        <ele>2296.0</ele>
        <time>2018-04-21T10:58:53.000Z</time>
      </trkpt>
      <trkpt lat="40.80064" lon="-3.927558">
        <ele>2296.1</ele>
        <time>2018-04-21T10:58:54.000Z</time>
      </trkpt>
      <trkpt lat="40.800639" lon="-3.927564">
        <ele>2296.2</ele>
        <time>2018-04-21T10:58:55.000Z</time>
      </trkpt>
      <trkpt lat="40.800639" lon="-3.927569">
        <ele>2296.4</ele>
        <time>2018-04-21T10:58:56.000Z</time>
      </trkpt>
      <trkpt lat="40.800639" lon="-3.927574">
        <ele>2296.5</ele>
        <time>2018-04-21T10:58:57.000Z</time>
      </trkpt>
      <trkpt lat="40.800638" lon="-3.927577">
        <ele>2296.5</ele>
        <time>2018-04-21T10:58:58.000Z</time>
      </trkpt>
      <trkpt lat="40.800638" lon="-3.92758">
        <ele>2296.6</ele>
        <time>2018-04-21T10:58:59.000Z</time>
      </trkpt>
      <trkpt lat="40.800638" lon="-3.927582">
        <ele>2296.7</ele>
        <time>2018-04-21T10:59:00.000Z</time>
      </trkpt>
      <trkpt lat="40.800638" lon="-3.927583">
        <ele>2296.7</ele>
        <time>2018-04-21T10:59:01.000Z</time>
      </trkpt>
      <trkpt lat="40.800638" lon="-3.927584">
        <ele>2296.7</ele>
        <time>2018-04-21T10:59:02.000Z</time>
      </trkpt>
      <trkpt lat="40.800638" lon="-3.927584">
        <ele>2296.7</ele>
        <time>2018-04-21T10:59:03.000Z</time>
      </trkpt>
      <trkpt lat="40.800638" lon="-3.927584">
        <ele>2296.7</ele>
        <time>2018-04-21T10:59:04.000Z</time>
      </trkpt>
      <trkpt lat="40.800637" lon="-3.927584">
        <ele>2296.7</ele>
        <time>2018-04-21T10:59:05.000Z</time>
      </trkpt>
      <trkpt lat="40.800638" lon="-3.927584">
        <ele>2296.7</ele>
        <time>2018-04-21T10:59:06.000Z</time>
      </trkpt>
      <trkpt lat="40.800638" lon="-3.927584">
        <ele>2296.7</ele>
        <time>2018-04-21T10:59:07.000Z</time>
      </trkpt>
      <trkpt lat="40.800638" lon="-3.927584">
        <ele>2296.7</ele>
        <time>2018-04-21T10:59:08.000Z</time>
      </trkpt>
      <trkpt lat="40.800638" lon="-3.927584">
        <ele>2296.7</ele>
        <time>2018-04-21T10:59:09.000Z</time>
      </trkpt>
      <trkpt lat="40.800638" lon="-3.927585">
        <ele>2296.8</ele>
        <time>2018-04-21T10:59:10.000Z</time>
      </trkpt>
      <trkpt lat="40.800638" lon="-3.927586">
        <ele>2296.8</ele>
        <time>2018-04-21T10:59:11.000Z</time>
      </trkpt>
      <trkpt lat="40.800639" lon="-3.927588">
        <ele>2296.9</ele>
        <time>2018-04-21T10:59:12.000Z</time>
      </trkpt>
      <trkpt lat="40.800639" lon="-3.92759">
        <ele>2296.9</ele>
        <time>2018-04-21T10:59:13.000Z</time>
      </trkpt>
      <trkpt lat="40.80064" lon="-3.927594">
        <ele>2297.0</ele>
        <time>2018-04-21T10:59:14.000Z</time>
      </trkpt>
      <trkpt lat="40.80064" lon="-3.927598">
        <ele>2297.1</ele>
        <time>2018-04-21T10:59:15.000Z</time>
      </trkpt>
      <trkpt lat="40.800641" lon="-3.927604">
        <ele>2297.3</ele>
        <time>2018-04-21T10:59:16.000Z</time>
      </trkpt>
      <trkpt lat="40.800641" lon="-3.92761">
        <ele>2297.5</ele>
        <time>2018-04-21T10:59:17.000Z</time>
      </trkpt>
      <trkpt lat="40.800642" lon="-3.927616">
        <ele>2297.6</ele>
        <time>2018-04-21T10:59:18.000Z</time>
      </trkpt>
      <trkpt lat="40.800642" lon="-3.927619">
        <ele>2297.7</ele>
        <time>2018-04-21T10:59:19.000Z</time>
      </trkpt>
      <trkpt lat="40.800642" lon="-3.927619">
        <ele>2297.7</ele>
        <time>2018-04-21T10:59:20.000Z</time>
      </trkpt>
      <trkpt lat="40.800642" lon="-3.927619">
        <ele>2297.7</ele>
        <time>2018-04-21T10:59:21.000Z</time>
      </trkpt>
      <trkpt lat="40.800643" lon="-3.927622">
        <ele>2297.8</ele>
        <time>2018-04-21T10:59:22.000Z</time>
      </trkpt>
      <trkpt lat="40.800644" lon="-3.927629">
        <ele>2298.0</ele>
        <time>2018-04-21T10:59:23.000Z</time>
      </trkpt>
      <trkpt lat="40.800646" lon="-3.927636">
        <ele>2298.3</ele>
        <time>2018-04-21T10:59:24.000Z</time>
      </trkpt>
      <trkpt lat="40.800647" lon="-3.927644">
        <ele>2298.5</ele>
        <time>2018-04-21T10:59:25.000Z</time>
      </trkpt>
      <trkpt lat="40.800649" lon="-3.92765">
        <ele>2298.7</ele>
        <time>2018-04-21T10:59:26.000Z</time>
      </trkpt>
      <trkpt lat="40.80065" lon="-3.927655">
        <ele>2298.8</ele>
        <time>2018-04-21T10:59:27.000Z</time>
      </trkpt>
      <trkpt lat="40.800651" lon="-3.927659">
        <ele>2299.0</ele>
        <time>2018-04-21T10:59:28.000Z</time>
      </trkpt>
      <trkpt lat="40.800651" lon="-3.927662">
        <ele>2299.0</ele>
        <time>2018-04-21T10:59:29.000Z</time>
      </trkpt>
      <trkpt lat="40.800652" lon="-3.927665">
        <ele>2299.2</ele>
        <time>2018-04-21T10:59:30.000Z</time>
      </trkpt>
      <trkpt lat="40.800652" lon="-3.927666">
        <ele>2299.2</ele>
        <time>2018-04-21T10:59:31.000Z</time>
      </trkpt>
      <trkpt lat="40.800652" lon="-3.927667">
        <ele>2299.2</ele>
        <time>2018-04-21T10:59:32.000Z</time>
      </trkpt>
      <trkpt lat="40.800652" lon="-3.927668">
        <ele>2299.2</ele>
        <time>2018-04-21T10:59:33.000Z</time>
      </trkpt>
      <trkpt lat="40.800652" lon="-3.927668">
        <ele>2299.2</ele>
        <time>2018-04-21T10:59:34.000Z</time>
      </trkpt>
      <trkpt lat="40.800652" lon="-3.927669">
        <ele>2299.3</ele>
        <time>2018-04-21T10:59:35.000Z</time>
      </trkpt>
      <trkpt lat="40.800652" lon="-3.927669">
        <ele>2299.3</ele>
        <time>2018-04-21T10:59:36.000Z</time>
      </trkpt>
      <trkpt lat="40.800652" lon="-3.927669">
        <ele>2299.3</ele>
        <time>2018-04-21T10:59:37.000Z</time>
      </trkpt>
      <trkpt lat="40.800652" lon="-3.927669">
        <ele>2299.3</ele>
        <time>2018-04-21T10:59:38.000Z</time>
      </trkpt>
      <trkpt lat="40.800653" lon="-3.927669">
        <ele>2299.3</ele>
        <time>2018-04-21T10:59:39.000Z</time>
      </trkpt>
      <trkpt lat="40.800653" lon="-3.927669">
        <ele>2299.3</ele>
        <time>2018-04-21T10:59:40.000Z</time>
      </trkpt>
      <trkpt lat="40.800653" lon="-3.927669">
        <ele>2299.3</ele>
        <time>2018-04-21T10:59:41.000Z</time>
      </trkpt>
      <trkpt lat="40.800653" lon="-3.927669">
        <ele>2299.3</ele>
        <time>2018-04-21T10:59:42.000Z</time>
      </trkpt>
      <trkpt lat="40.800653" lon="-3.927669">
        <ele>2299.3</ele>
        <time>2018-04-21T10:59:43.000Z</time>
      </trkpt>
      <trkpt lat="40.800653" lon="-3.927669">
        <ele>2299.3</ele>
        <time>2018-04-21T10:59:44.000Z</time>
      </trkpt>
      <trkpt lat="40.800653" lon="-3.927669">
        <ele>2299.3</ele>
        <time>2018-04-21T10:59:45.000Z</time>
      </trkpt>
      <trkpt lat="40.800653" lon="-3.927669">
        <ele>2299.3</ele>
        <time>2018-04-21T10:59:46.000Z</time>
      </trkpt>
      <trkpt lat="40.800653" lon="-3.927669">
        <ele>2299.3</ele>
        <time>2018-04-21T10:59:47.000Z</time>
      </trkpt>
      <trkpt lat="40.800653" lon="-3.927669">
        <ele>2299.3</ele>
        <time>2018-04-21T10:59:48.000Z</time>
      </trkpt>
      <trkpt lat="40.800653" lon="-3.927669">
        <ele>2299.3</ele>
        <time>2018-04-21T10:59:49.000Z</time>
      </trkpt>
      <trkpt lat="40.800653" lon="-3.927669">
        <ele>2299.3</ele>
        <time>2018-04-21T10:59:50.000Z</time>
      </trkpt>
      <trkpt lat="40.800653" lon="-3.927669">
        <ele>2299.3</ele>
        <time>2018-04-21T10:59:51.000Z</time>
      </trkpt>
      <trkpt lat="40.800652" lon="-3.92767">
        <ele>2299.3</ele>
        <time>2018-04-21T10:59:52.000Z</time>
      </trkpt>
      <trkpt lat="40.800652" lon="-3.92767">
        <ele>2299.3</ele>
        <time>2018-04-21T10:59:53.000Z</time>
      </trkpt>
      <trkpt lat="40.800653" lon="-3.927671">
        <ele>2299.3</ele>
        <time>2018-04-21T10:59:54.000Z</time>
      </trkpt>
      <trkpt lat="40.800653" lon="-3.927672">
        <ele>2299.4</ele>
        <time>2018-04-21T10:59:55.000Z</time>
      </trkpt>
      <trkpt lat="40.800654" lon="-3.927676">
        <ele>2299.5</ele>
        <time>2018-04-21T10:59:56.000Z</time>
      </trkpt>
      <trkpt lat="40.800656" lon="-3.927681">
        <ele>2299.7</ele>
        <time>2018-04-21T10:59:57.000Z</time>
      </trkpt>
      <trkpt lat="40.800658" lon="-3.927689">
        <ele>2299.9</ele>
        <time>2018-04-21T10:59:58.000Z</time>
      </trkpt>
      <trkpt lat="40.800661" lon="-3.927698">
        <ele>2300.2</ele>
        <time>2018-04-21T10:59:59.000Z</time>
      </trkpt>
      <trkpt lat="40.800663" lon="-3.927707">
        <ele>2300.5</ele>
        <time>2018-04-21T11:00:00.000Z</time>
      </trkpt>
      <trkpt lat="40.800665" lon="-3.927715">
        <ele>2300.8</ele>
        <time>2018-04-21T11:00:01.000Z</time>
      </trkpt>
      <trkpt lat="40.800666" lon="-3.927721">
        <ele>2301.0</ele>
        <time>2018-04-21T11:00:02.000Z</time>
      </trkpt>
      <trkpt lat="40.800667" lon="-3.927724">
        <ele>2301.1</ele>
        <time>2018-04-21T11:00:03.000Z</time>
      </trkpt>
      <trkpt lat="40.800667" lon="-3.927727">
        <ele>2301.1</ele>
        <time>2018-04-21T11:00:04.000Z</time>
      </trkpt>
      <trkpt lat="40.800667" lon="-3.92773">
        <ele>2301.2</ele>
        <time>2018-04-21T11:00:05.000Z</time>
      </trkpt>
      <trkpt lat="40.800668" lon="-3.927733">
        <ele>2301.3</ele>
        <time>2018-04-21T11:00:06.000Z</time>
      </trkpt>
      <trkpt lat="40.800668" lon="-3.927738">
        <ele>2301.4</ele>
        <time>2018-04-21T11:00:07.000Z</time>
      </trkpt>
      <trkpt lat="40.80067" lon="-3.927744">
        <ele>2301.6</ele>
        <time>2018-04-21T11:00:08.000Z</time>
      </trkpt>
      <trkpt lat="40.800671" lon="-3.92775">
        <ele>2301.8</ele>
        <time>2018-04-21T11:00:09.000Z</time>
      </trkpt>
      <trkpt lat="40.800672" lon="-3.927757">
        <ele>2302.0</ele>
        <time>2018-04-21T11:00:10.000Z</time>
      </trkpt>
      <trkpt lat="40.800673" lon="-3.927765">
        <ele>2302.3</ele>
        <time>2018-04-21T11:00:11.000Z</time>
      </trkpt>
      <trkpt lat="40.800674" lon="-3.927772">
        <ele>2302.5</ele>
        <time>2018-04-21T11:00:12.000Z</time>
      </trkpt>
      <trkpt lat="40.800674" lon="-3.927779">
        <ele>2302.6</ele>
        <time>2018-04-21T11:00:13.000Z</time>
      </trkpt>
      <trkpt lat="40.800675" lon="-3.927787">
        <ele>2302.9</ele>
        <time>2018-04-21T11:00:14.000Z</time>
      </trkpt>
      <trkpt lat="40.800675" lon="-3.927795">
        <ele>2303.1</ele>
        <time>2018-04-21T11:00:15.000Z</time>
      </trkpt>
      <trkpt lat="40.800675" lon="-3.927802">
        <ele>2303.2</ele>
        <time>2018-04-21T11:00:16.000Z</time>
      </trkpt>
      <trkpt lat="40.800675" lon="-3.92781">
        <ele>2303.4</ele>
        <time>2018-04-21T11:00:17.000Z</time>
      </trkpt>
      <trkpt lat="40.800675" lon="-3.927818">
        <ele>2303.6</ele>
        <time>2018-04-21T11:00:18.000Z</time>
      </trkpt>
      <trkpt lat="40.800674" lon="-3.927825">
        <ele>2303.8</ele>
        <time>2018-04-21T11:00:19.000Z</time>
      </trkpt>
      <trkpt lat="40.800674" lon="-3.927833">
        <ele>2304.0</ele>
        <time>2018-04-21T11:00:20.000Z</time>
      </trkpt>
      <trkpt lat="40.800674" lon="-3.92784">
        <ele>2304.2</ele>
        <time>2018-04-21T11:00:21.000Z</time>
      </trkpt>
      <trkpt lat="40.800674" lon="-3.927847">
        <ele>2304.3</ele>
        <time>2018-04-21T11:00:22.000Z</time>
      </trkpt>
      <trkpt lat="40.800673" lon="-3.927854">
        <ele>2304.5</ele>
        <time>2018-04-21T11:00:23.000Z</time>
      </trkpt>
      <trkpt lat="40.800673" lon="-3.927861">
        <ele>2304.7</ele>
        <time>2018-04-21T11:00:24.000Z</time>
      </trkpt>
      <trkpt lat="40.800673" lon="-3.927867">
        <ele>2304.8</ele>
        <time>2018-04-21T11:00:25.000Z</time>
      </trkpt>
      <trkpt lat="40.800673" lon="-3.927873">
        <ele>2305.0</ele>
        <time>2018-04-21T11:00:26.000Z</time>
      </trkpt>
      <trkpt lat="40.800673" lon="-3.927878">
        <ele>2305.1</ele>
        <time>2018-04-21T11:00:27.000Z</time>
      </trkpt>
      <trkpt lat="40.800673" lon="-3.927884">
        <ele>2305.3</ele>
        <time>2018-04-21T11:00:28.000Z</time>
      </trkpt>
      <trkpt lat="40.800674" lon="-3.927888">
        <ele>2305.4</ele>
        <time>2018-04-21T11:00:29.000Z</time>
      </trkpt>
      <trkpt lat="40.800674" lon="-3.927893">
        <ele>2305.5</ele>
        <time>2018-04-21T11:00:30.000Z</time>
      </trkpt>
      <trkpt lat="40.800675" lon="-3.927897">
        <ele>2305.6</ele>
        <time>2018-04-21T11:00:31.000Z</time>
      </trkpt>
      <trkpt lat="40.800676" lon="-3.927901">
        <ele>2305.8</ele>
        <time>2018-04-21T11:00:32.000Z</time>
      </trkpt>
      <trkpt lat="40.800676" lon="-3.927906">
        <ele>2305.9</ele>
        <time>2018-04-21T11:00:33.000Z</time>
      </trkpt>
      <trkpt lat="40.800677" lon="-3.92791">
        <ele>2306.0</ele>
        <time>2018-04-21T11:00:34.000Z</time>
      </trkpt>
      <trkpt lat="40.800677" lon="-3.927915">
        <ele>2306.1</ele>
        <time>2018-04-21T11:00:35.000Z</time>
      </trkpt>
      <trkpt lat="40.800678" lon="-3.927921">
        <ele>2306.3</ele>
        <time>2018-04-21T11:00:36.000Z</time>
      </trkpt>
      <trkpt lat="40.800677" lon="-3.927927">
        <ele>2306.4</ele>
        <time>2018-04-21T11:00:37.000Z</time>
      </trkpt>
      <trkpt lat="40.800677" lon="-3.927933">
        <ele>2306.6</ele>
        <time>2018-04-21T11:00:38.000Z</time>
      </trkpt>
      <trkpt lat="40.800676" lon="-3.927941">
        <ele>2306.8</ele>
        <time>2018-04-21T11:00:39.000Z</time>
      </trkpt>
      <trkpt lat="40.800676" lon="-3.927948">
        <ele>2306.9</ele>
        <time>2018-04-21T11:00:40.000Z</time>
      </trkpt>
      <trkpt lat="40.800674" lon="-3.927957">
        <ele>2307.1</ele>
        <time>2018-04-21T11:00:41.000Z</time>
      </trkpt>
      <trkpt lat="40.800673" lon="-3.927965">
        <ele>2307.3</ele>
        <time>2018-04-21T11:00:42.000Z</time>
      </trkpt>
      <trkpt lat="40.800672" lon="-3.927973">
        <ele>2307.5</ele>
        <time>2018-04-21T11:00:43.000Z</time>
      </trkpt>
      <trkpt lat="40.800671" lon="-3.927982">
        <ele>2307.7</ele>
        <time>2018-04-21T11:00:44.000Z</time>
      </trkpt>
      <trkpt lat="40.800669" lon="-3.92799">
        <ele>2307.8</ele>
        <time>2018-04-21T11:00:45.000Z</time>
      </trkpt>
      <trkpt lat="40.800668" lon="-3.927998">
        <ele>2308.0</ele>
        <time>2018-04-21T11:00:46.000Z</time>
      </trkpt>
      <trkpt lat="40.800666" lon="-3.928005">
        <ele>2308.1</ele>
        <time>2018-04-21T11:00:47.000Z</time>
      </trkpt>
      <trkpt lat="40.800665" lon="-3.928012">
        <ele>2308.3</ele>
        <time>2018-04-21T11:00:48.000Z</time>
      </trkpt>
      <trkpt lat="40.800664" lon="-3.928019">
        <ele>2308.4</ele>
        <time>2018-04-21T11:00:49.000Z</time>
      </trkpt>
      <trkpt lat="40.800663" lon="-3.928025">
        <ele>2308.5</ele>
        <time>2018-04-21T11:00:50.000Z</time>
      </trkpt>
      <trkpt lat="40.800662" lon="-3.92803">
        <ele>2308.6</ele>
        <time>2018-04-21T11:00:51.000Z</time>
      </trkpt>
      <trkpt lat="40.800661" lon="-3.928035">
        <ele>2308.7</ele>
        <time>2018-04-21T11:00:52.000Z</time>
      </trkpt>
      <trkpt lat="40.80066" lon="-3.928039">
        <ele>2308.8</ele>
        <time>2018-04-21T11:00:53.000Z</time>
      </trkpt>
      <trkpt lat="40.80066" lon="-3.928043">
        <ele>2308.9</ele>
        <time>2018-04-21T11:00:54.000Z</time>
      </trkpt>
      <trkpt lat="40.800659" lon="-3.928046">
        <ele>2308.9</ele>
        <time>2018-04-21T11:00:55.000Z</time>
      </trkpt>
      <trkpt lat="40.800658" lon="-3.928048">
        <ele>2309.0</ele>
        <time>2018-04-21T11:00:56.000Z</time>
      </trkpt>
      <trkpt lat="40.800658" lon="-3.92805">
        <ele>2309.0</ele>
        <time>2018-04-21T11:00:57.000Z</time>
      </trkpt>
      <trkpt lat="40.800658" lon="-3.928052">
        <ele>2309.1</ele>
        <time>2018-04-21T11:00:58.000Z</time>
      </trkpt>
      <trkpt lat="40.800658" lon="-3.928053">
        <ele>2309.1</ele>
        <time>2018-04-21T11:00:59.000Z</time>
      </trkpt>
      <trkpt lat="40.800657" lon="-3.928053">
        <ele>2309.1</ele>
        <time>2018-04-21T11:01:00.000Z</time>
      </trkpt>
      <trkpt lat="40.800657" lon="-3.928053">
        <ele>2309.1</ele>
        <time>2018-04-21T11:01:01.000Z</time>
      </trkpt>
      <trkpt lat="40.800657" lon="-3.928053">
        <ele>2309.1</ele>
        <time>2018-04-21T11:01:02.000Z</time>
      </trkpt>
      <trkpt lat="40.800658" lon="-3.928053">
        <ele>2309.1</ele>
        <time>2018-04-21T11:01:03.000Z</time>
      </trkpt>
      <trkpt lat="40.800658" lon="-3.928053">
        <ele>2309.1</ele>
        <time>2018-04-21T11:01:04.000Z</time>
      </trkpt>
      <trkpt lat="40.800658" lon="-3.928053">
        <ele>2309.1</ele>
        <time>2018-04-21T11:01:05.000Z</time>
      </trkpt>
      <trkpt lat="40.800658" lon="-3.928054">
        <ele>2309.1</ele>
        <time>2018-04-21T11:01:06.000Z</time>
      </trkpt>
      <trkpt lat="40.800658" lon="-3.928055">
        <ele>2309.1</ele>
        <time>2018-04-21T11:01:07.000Z</time>
      </trkpt>
      <trkpt lat="40.800658" lon="-3.928057">
        <ele>2309.2</ele>
        <time>2018-04-21T11:01:08.000Z</time>
      </trkpt>
      <trkpt lat="40.800657" lon="-3.928062">
        <ele>2309.3</ele>
        <time>2018-04-21T11:01:09.000Z</time>
      </trkpt>
      <trkpt lat="40.800656" lon="-3.928068">
        <ele>2309.4</ele>
        <time>2018-04-21T11:01:10.000Z</time>
      </trkpt>
      <trkpt lat="40.800654" lon="-3.928076">
        <ele>2309.6</ele>
        <time>2018-04-21T11:01:11.000Z</time>
      </trkpt>
      <trkpt lat="40.800653" lon="-3.928085">
        <ele>2309.8</ele>
        <time>2018-04-21T11:01:12.000Z</time>
      </trkpt>
      <trkpt lat="40.800651" lon="-3.928095">
        <ele>2310.0</ele>
        <time>2018-04-21T11:01:13.000Z</time>
      </trkpt>
      <trkpt lat="40.80065" lon="-3.928104">
        <ele>2310.2</ele>
        <time>2018-04-21T11:01:14.000Z</time>
      </trkpt>
      <trkpt lat="40.800649" lon="-3.928113">
        <ele>2310.4</ele>
        <time>2018-04-21T11:01:15.000Z</time>
      </trkpt>
      <trkpt lat="40.800648" lon="-3.928122">
        <ele>2310.6</ele>
        <time>2018-04-21T11:01:16.000Z</time>
      </trkpt>
      <trkpt lat="40.800648" lon="-3.928129">
        <ele>2310.7</ele>
        <time>2018-04-21T11:01:17.000Z</time>
      </trkpt>
      <trkpt lat="40.800648" lon="-3.928136">
        <ele>2310.9</ele>
        <time>2018-04-21T11:01:18.000Z</time>
      </trkpt>
      <trkpt lat="40.800648" lon="-3.928143">
        <ele>2311.1</ele>
        <time>2018-04-21T11:01:19.000Z</time>
      </trkpt>
      <trkpt lat="40.800649" lon="-3.928149">
        <ele>2311.3</ele>
        <time>2018-04-21T11:01:20.000Z</time>
      </trkpt>
      <trkpt lat="40.80065" lon="-3.928156">
        <ele>2311.5</ele>
        <time>2018-04-21T11:01:21.000Z</time>
      </trkpt>
      <trkpt lat="40.800651" lon="-3.928161">
        <ele>2311.6</ele>
        <time>2018-04-21T11:01:22.000Z</time>
      </trkpt>
      <trkpt lat="40.800652" lon="-3.928167">
        <ele>2311.8</ele>
        <time>2018-04-21T11:01:23.000Z</time>
      </trkpt>
      <trkpt lat="40.800652" lon="-3.928173">
        <ele>2312.0</ele>
        <time>2018-04-21T11:01:24.000Z</time>
      </trkpt>
      <trkpt lat="40.800653" lon="-3.928178">
        <ele>2312.1</ele>
        <time>2018-04-21T11:01:25.000Z</time>
      </trkpt>
      <trkpt lat="40.800654" lon="-3.928184">
        <ele>2312.3</ele>
        <time>2018-04-21T11:01:26.000Z</time>
      </trkpt>
      <trkpt lat="40.800655" lon="-3.92819">
        <ele>2312.5</ele>
        <time>2018-04-21T11:01:27.000Z</time>
      </trkpt>
      <trkpt lat="40.800655" lon="-3.928195">
        <ele>2312.6</ele>
        <time>2018-04-21T11:01:28.000Z</time>
      </trkpt>
      <trkpt lat="40.800656" lon="-3.928201">
        <ele>2312.8</ele>
        <time>2018-04-21T11:01:29.000Z</time>
      </trkpt>
      <trkpt lat="40.800656" lon="-3.928207">
        <ele>2312.9</ele>
        <time>2018-04-21T11:01:30.000Z</time>
      </trkpt>
      <trkpt lat="40.800657" lon="-3.928212">
        <ele>2313.1</ele>
        <time>2018-04-21T11:01:31.000Z</time>
      </trkpt>
      <trkpt lat="40.800657" lon="-3.928218">
        <ele>2313.2</ele>
        <time>2018-04-21T11:01:32.000Z</time>
      </trkpt>
      <trkpt lat="40.800657" lon="-3.928224">
        <ele>2313.4</ele>
        <time>2018-04-21T11:01:33.000Z</time>
      </trkpt>
      <trkpt lat="40.800657" lon="-3.928231">
        <ele>2313.6</ele>
        <time>2018-04-21T11:01:34.000Z</time>
      </trkpt>
      <trkpt lat="40.800657" lon="-3.928237">
        <ele>2313.7</ele>
        <time>2018-04-21T11:01:35.000Z</time>
      </trkpt>
      <trkpt lat="40.800657" lon="-3.928244">
        <ele>2313.9</ele>
        <time>2018-04-21T11:01:36.000Z</time>
      </trkpt>
      <trkpt lat="40.800656" lon="-3.928251">
        <ele>2314.0</ele>
        <time>2018-04-21T11:01:37.000Z</time>
      </trkpt>
      <trkpt lat="40.800656" lon="-3.928259">
        <ele>2314.2</ele>
        <time>2018-04-21T11:01:38.000Z</time>
      </trkpt>
      <trkpt lat="40.800655" lon="-3.928266">
        <ele>2314.4</ele>
        <time>2018-04-21T11:01:39.000Z</time>
      </trkpt>
      <trkpt lat="40.800654" lon="-3.928275">
        <ele>2314.6</ele>
        <time>2018-04-21T11:01:40.000Z</time>
      </trkpt>
      <trkpt lat="40.800653" lon="-3.928283">
        <ele>2314.8</ele>
        <time>2018-04-21T11:01:41.000Z</time>
      </trkpt>
      <trkpt lat="40.800652" lon="-3.928293">
        <ele>2315.0</ele>
        <time>2018-04-21T11:01:42.000Z</time>
      </trkpt>
      <trkpt lat="40.80065" lon="-3.928302">
        <ele>2315.2</ele>
        <time>2018-04-21T11:01:43.000Z</time>
      </trkpt>
      <trkpt lat="40.800649" lon="-3.928312">
        <ele>2315.4</ele>
        <time>2018-04-21T11:01:44.000Z</time>
      </trkpt>
      <trkpt lat="40.800648" lon="-3.928321">
        <ele>2315.6</ele>
        <time>2018-04-21T11:01:45.000Z</time>
      </trkpt>
      <trkpt lat="40.800646" lon="-3.928329">
        <ele>2315.7</ele>
        <time>2018-04-21T11:01:46.000Z</time>
      </trkpt>
      <trkpt lat="40.800645" lon="-3.928337">
        <ele>2315.9</ele>
        <time>2018-04-21T11:01:47.000Z</time>
      </trkpt>
      <trkpt lat="40.800644" lon="-3.928344">
        <ele>2316.1</ele>
        <time>2018-04-21T11:01:48.000Z</time>
      </trkpt>
      <trkpt lat="40.800643" lon="-3.928349">
        <ele>2316.2</ele>
        <time>2018-04-21T11:01:49.000Z</time>
      </trkpt>
      <trkpt lat="40.800642" lon="-3.928352">
        <ele>2316.3</ele>
        <time>2018-04-21T11:01:50.000Z</time>
      </trkpt>
      <trkpt lat="40.800642" lon="-3.928354">
        <ele>2316.3</ele>
        <time>2018-04-21T11:01:51.000Z</time>
      </trkpt>
      <trkpt lat="40.800642" lon="-3.928356">
        <ele>2316.4</ele>
        <time>2018-04-21T11:01:52.000Z</time>
      </trkpt>
      <trkpt lat="40.800641" lon="-3.928359">
        <ele>2316.4</ele>
        <time>2018-04-21T11:01:53.000Z</time>
      </trkpt>
      <trkpt lat="40.800641" lon="-3.928365">
        <ele>2316.6</ele>
        <time>2018-04-21T11:01:54.000Z</time>
      </trkpt>
      <trkpt lat="40.80064" lon="-3.928372">
        <ele>2316.8</ele>
        <time>2018-04-21T11:01:55.000Z</time>
      </trkpt>
      <trkpt lat="40.80064" lon="-3.928379">
        <ele>2317.0</ele>
        <time>2018-04-21T11:01:56.000Z</time>
      </trkpt>
      <trkpt lat="40.80064" lon="-3.928387">
        <ele>2317.2</ele>
        <time>2018-04-21T11:01:57.000Z</time>
      </trkpt>
      <trkpt lat="40.80064" lon="-3.928395">
        <ele>2317.4</ele>
        <time>2018-04-21T11:01:58.000Z</time>
      </trkpt>
      <trkpt lat="40.80064" lon="-3.928404">
        <ele>2317.7</ele>
        <time>2018-04-21T11:01:59.000Z</time>
      </trkpt>
      <trkpt lat="40.80064" lon="-3.928414">
        <ele>2318.0</ele>
        <time>2018-04-21T11:02:00.000Z</time>
      </trkpt>
      <trkpt lat="40.80064" lon="-3.928424">
        <ele>2318.3</ele>
        <time>2018-04-21T11:02:01.000Z</time>
      </trkpt>
      <trkpt lat="40.80064" lon="-3.928435">
        <ele>2318.6</ele>
        <time>2018-04-21T11:02:02.000Z</time>
      </trkpt>
      <trkpt lat="40.80064" lon="-3.928446">
        <ele>2318.9</ele>
        <time>2018-04-21T11:02:03.000Z</time>
      </trkpt>
      <trkpt lat="40.80064" lon="-3.928456">
        <ele>2319.2</ele>
        <time>2018-04-21T11:02:04.000Z</time>
      </trkpt>
      <trkpt lat="40.80064" lon="-3.928467">
        <ele>2319.5</ele>
        <time>2018-04-21T11:02:05.000Z</time>
      </trkpt>
      <trkpt lat="40.80064" lon="-3.928476">
        <ele>2319.8</ele>
        <time>2018-04-21T11:02:06.000Z</time>
      </trkpt>
      <trkpt lat="40.80064" lon="-3.928485">
        <ele>2320.0</ele>
        <time>2018-04-21T11:02:07.000Z</time>
      </trkpt>
      <trkpt lat="40.80064" lon="-3.928493">
        <ele>2320.3</ele>
        <time>2018-04-21T11:02:08.000Z</time>
      </trkpt>
      <trkpt lat="40.80064" lon="-3.928499">
        <ele>2320.4</ele>
        <time>2018-04-21T11:02:09.000Z</time>
      </trkpt>
      <trkpt lat="40.80064" lon="-3.928503">
        <ele>2320.6</ele>
        <time>2018-04-21T11:02:10.000Z</time>
      </trkpt>
      <trkpt lat="40.80064" lon="-3.928507">
        <ele>2320.7</ele>
        <time>2018-04-21T11:02:11.000Z</time>
      </trkpt>
      <trkpt lat="40.80064" lon="-3.928509">
        <ele>2320.7</ele>
        <time>2018-04-21T11:02:12.000Z</time>
      </trkpt>
      <trkpt lat="40.80064" lon="-3.928511">
        <ele>2320.8</ele>
        <time>2018-04-21T11:02:13.000Z</time>
      </trkpt>
      <trkpt lat="40.80064" lon="-3.928512">
        <ele>2320.8</ele>
        <time>2018-04-21T11:02:14.000Z</time>
      </trkpt>
      <trkpt lat="40.80064" lon="-3.928513">
        <ele>2320.8</ele>
        <time>2018-04-21T11:02:15.000Z</time>
      </trkpt>
      <trkpt lat="40.80064" lon="-3.928513">
        <ele>2320.8</ele>
        <time>2018-04-21T11:02:16.000Z</time>
      </trkpt>
      <trkpt lat="40.80064" lon="-3.928513">
        <ele>2320.8</ele>
        <time>2018-04-21T11:02:17.000Z</time>
      </trkpt>
      <trkpt lat="40.80064" lon="-3.928513">
        <ele>2320.8</ele>
        <time>2018-04-21T11:02:18.000Z</time>
      </trkpt>
      <trkpt lat="40.80064" lon="-3.928513">
        <ele>2320.8</ele>
        <time>2018-04-21T11:02:19.000Z</time>
      </trkpt>
      <trkpt lat="40.80064" lon="-3.928513">
        <ele>2320.8</ele>
        <time>2018-04-21T11:02:20.000Z</time>
      </trkpt>
      <trkpt lat="40.80064" lon="-3.928513">
        <ele>2320.8</ele>
        <time>2018-04-21T11:02:21.000Z</time>
      </trkpt>
      <trkpt lat="40.80064" lon="-3.928513">
        <ele>2320.8</ele>
        <time>2018-04-21T11:02:22.000Z</time>
      </trkpt>
      <trkpt lat="40.80064" lon="-3.928513">
        <ele>2320.8</ele>
        <time>2018-04-21T11:02:23.000Z</time>
      </trkpt>
      <trkpt lat="40.80064" lon="-3.928513">
        <ele>2320.8</ele>
        <time>2018-04-21T11:02:24.000Z</time>
      </trkpt>
      <trkpt lat="40.80064" lon="-3.928513">
        <ele>2320.8</ele>
        <time>2018-04-21T11:02:25.000Z</time>
      </trkpt>
      <trkpt lat="40.80064" lon="-3.928513">
        <ele>2320.8</ele>
        <time>2018-04-21T11:02:26.000Z</time>
      </trkpt>
      <trkpt lat="40.80064" lon="-3.928513">
        <ele>2320.8</ele>
        <time>2018-04-21T11:02:27.000Z</time>
      </trkpt>
      <trkpt lat="40.80064" lon="-3.928513">
        <ele>2320.8</ele>
        <time>2018-04-21T11:02:28.000Z</time>
      </trkpt>
      <trkpt lat="40.80064" lon="-3.928513">
        <ele>2320.8</ele>
        <time>2018-04-21T11:02:29.000Z</time>
      </trkpt>
      <trkpt lat="40.80064" lon="-3.928513">
        <ele>2320.8</ele>
        <time>2018-04-21T11:02:30.000Z</time>
      </trkpt>
      <trkpt lat="40.80064" lon="-3.928513">
        <ele>2320.8</ele>
        <time>2018-04-21T11:02:31.000Z</time>
      </trkpt>
      <trkpt lat="40.80064" lon="-3.928513">
        <ele>2320.8</ele>
        <time>2018-04-21T11:02:32.000Z</time>
      </trkpt>
      <trkpt lat="40.80064" lon="-3.928513">
        <ele>2320.8</ele>
        <time>2018-04-21T11:02:33.000Z</time>
      </trkpt>
      <trkpt lat="40.80064" lon="-3.928513">
        <ele>2320.8</ele>
        <time>2018-04-21T11:02:34.000Z</time>
      </trkpt>
      <trkpt lat="40.80064" lon="-3.928513">
        <ele>2320.8</ele>
        <time>2018-04-21T11:02:35.000Z</time>
      </trkpt>
      <trkpt lat="40.80064" lon="-3.928513">
        <ele>2320.8</ele>
        <time>2018-04-21T11:02:36.000Z</time>
      </trkpt>
      <trkpt lat="40.80064" lon="-3.928513">
        <ele>2320.8</ele>
        <time>2018-04-21T11:02:37.000Z</time>
      </trkpt>
      <trkpt lat="40.80064" lon="-3.928513">
        <ele>2320.8</ele>
        <time>2018-04-21T11:02:38.000Z</time>
      </trkpt>
      <trkpt lat="40.80064" lon="-3.928513">
        <ele>2320.8</ele>
        <time>2018-04-21T11:02:39.000Z</time>
      </trkpt>
      <trkpt lat="40.80064" lon="-3.928513">
        <ele>2320.8</ele>
        <time>2018-04-21T11:02:40.000Z</time>
      </trkpt>
      <trkpt lat="40.80064" lon="-3.928513">
        <ele>2320.8</ele>
        <time>2018-04-21T11:02:41.000Z</time>
      </trkpt>
      <trkpt lat="40.80064" lon="-3.928513">
        <ele>2320.8</ele>
        <time>2018-04-21T11:02:42.000Z</time>
      </trkpt>
      <trkpt lat="40.80064" lon="-3.928513">
        <ele>2320.8</ele>
        <time>2018-04-21T11:02:43.000Z</time>
      </trkpt>
      <trkpt lat="40.80064" lon="-3.928513">
        <ele>2320.8</ele>
        <time>2018-04-21T11:02:44.000Z</time>
      </trkpt>
      <trkpt lat="40.80064" lon="-3.928514">
        <ele>2320.9</ele>
        <time>2018-04-21T11:02:45.000Z</time>
      </trkpt>
      <trkpt lat="40.800639" lon="-3.928521">
        <ele>2321.0</ele>
        <time>2018-04-21T11:02:46.000Z</time>
      </trkpt>
      <trkpt lat="40.800637" lon="-3.928535">
        <ele>2321.4</ele>
        <time>2018-04-21T11:02:47.000Z</time>
      </trkpt>
      <trkpt lat="40.800635" lon="-3.928546">
        <ele>2321.7</ele>
        <time>2018-04-21T11:02:48.000Z</time>
      </trkpt>
      <trkpt lat="40.800633" lon="-3.928554">
        <ele>2321.8</ele>
        <time>2018-04-21T11:02:49.000Z</time>
      </trkpt>
      <trkpt lat="40.800631" lon="-3.928561">
        <ele>2322.0</ele>
        <time>2018-04-21T11:02:50.000Z</time>
      </trkpt>
      <trkpt lat="40.80063" lon="-3.928569">
        <ele>2322.2</ele>
        <time>2018-04-21T11:02:51.000Z</time>
      </trkpt>
      <trkpt lat="40.800629" lon="-3.928576">
        <ele>2322.3</ele>
        <time>2018-04-21T11:02:52.000Z</time>
      </trkpt>
      <trkpt lat="40.80063" lon="-3.928584">
        <ele>2322.6</ele>
        <time>2018-04-21T11:02:53.000Z</time>
      </trkpt>
      <trkpt lat="40.800632" lon="-3.928591">
        <ele>2322.9</ele>
        <time>2018-04-21T11:02:54.000Z</time>
      </trkpt>
      <trkpt lat="40.800634" lon="-3.928598">
        <ele>2323.1</ele>
        <time>2018-04-21T11:02:55.000Z</time>
      </trkpt>
      <trkpt lat="40.800637" lon="-3.928605">
        <ele>2323.4</ele>
        <time>2018-04-21T11:02:56.000Z</time>
      </trkpt>
      <trkpt lat="40.80064" lon="-3.928612">
        <ele>2323.7</ele>
        <time>2018-04-21T11:02:57.000Z</time>
      </trkpt>
      <trkpt lat="40.800641" lon="-3.928619">
        <ele>2323.9</ele>
        <time>2018-04-21T11:02:58.000Z</time>
      </trkpt>
      <trkpt lat="40.800642" lon="-3.928626">
        <ele>2324.1</ele>
        <time>2018-04-21T11:02:59.000Z</time>
      </trkpt>
      <trkpt lat="40.800641" lon="-3.928633">
        <ele>2324.3</ele>
        <time>2018-04-21T11:03:00.000Z</time>
      </trkpt>
      <trkpt lat="40.80064" lon="-3.928641">
        <ele>2324.5</ele>
        <time>2018-04-21T11:03:01.000Z</time>
      </trkpt>
      <trkpt lat="40.800639" lon="-3.928648">
        <ele>2324.7</ele>
        <time>2018-04-21T11:03:02.000Z</time>
      </trkpt>
      <trkpt lat="40.800638" lon="-3.928655">
        <ele>2324.9</ele>
        <time>2018-04-21T11:03:03.000Z</time>
      </trkpt>
      <trkpt lat="40.800637" lon="-3.928663">
        <ele>2325.1</ele>
        <time>2018-04-21T11:03:04.000Z</time>
      </trkpt>
      <trkpt lat="40.800636" lon="-3.92867">
        <ele>2325.2</ele>
        <time>2018-04-21T11:03:05.000Z</time>
      </trkpt>
      <trkpt lat="40.800636" lon="-3.928678">
        <ele>2325.5</ele>
        <time>2018-04-21T11:03:06.000Z</time>
      </trkpt>
      <trkpt lat="40.800636" lon="-3.928685">
        <ele>2325.7</ele>
        <time>2018-04-21T11:03:07.000Z</time>
      </trkpt>
      <trkpt lat="40.800636" lon="-3.928692">
        <ele>2325.9</ele>
        <time>2018-04-21T11:03:08.000Z</time>
      </trkpt>
      <trkpt lat="40.800636" lon="-3.928699">
        <ele>2326.1</ele>
        <time>2018-04-21T11:03:09.000Z</time>
      </trkpt>
      <trkpt lat="40.800636" lon="-3.928706">
        <ele>2326.3</ele>
        <time>2018-04-21T11:03:10.000Z</time>
      </trkpt>
      <trkpt lat="40.800637" lon="-3.928713">
        <ele>2326.5</ele>
        <time>2018-04-21T11:03:11.000Z</time>
      </trkpt>
      <trkpt lat="40.800638" lon="-3.92872">
        <ele>2326.7</ele>
        <time>2018-04-21T11:03:12.000Z</time>
      </trkpt>
      <trkpt lat="40.800638" lon="-3.928726">
        <ele>2326.9</ele>
        <time>2018-04-21T11:03:13.000Z</time>
      </trkpt>
      <trkpt lat="40.800639" lon="-3.928732">
        <ele>2327.1</ele>
        <time>2018-04-21T11:03:14.000Z</time>
      </trkpt>
      <trkpt lat="40.80064" lon="-3.928738">
        <ele>2327.3</ele>
        <time>2018-04-21T11:03:15.000Z</time>
      </trkpt>
      <trkpt lat="40.800641" lon="-3.928743">
        <ele>2327.5</ele>
        <time>2018-04-21T11:03:16.000Z</time>
      </trkpt>
      <trkpt lat="40.800642" lon="-3.928749">
        <ele>2327.7</ele>
        <time>2018-04-21T11:03:17.000Z</time>
      </trkpt>
      <trkpt lat="40.800643" lon="-3.928754">
        <ele>2327.9</ele>
        <time>2018-04-21T11:03:18.000Z</time>
      </trkpt>
      <trkpt lat="40.800644" lon="-3.928758">
        <ele>2328.0</ele>
        <time>2018-04-21T11:03:19.000Z</time>
      </trkpt>
      <trkpt lat="40.800646" lon="-3.928763">
        <ele>2328.2</ele>
        <time>2018-04-21T11:03:20.000Z</time>
      </trkpt>
      <trkpt lat="40.800647" lon="-3.928767">
        <ele>2328.3</ele>
        <time>2018-04-21T11:03:21.000Z</time>
      </trkpt>
      <trkpt lat="40.800648" lon="-3.928771">
        <ele>2328.5</ele>
        <time>2018-04-21T11:03:22.000Z</time>
      </trkpt>
      <trkpt lat="40.800649" lon="-3.928775">
        <ele>2328.6</ele>
        <time>2018-04-21T11:03:23.000Z</time>
      </trkpt>
      <trkpt lat="40.80065" lon="-3.928779">
        <ele>2328.8</ele>
        <time>2018-04-21T11:03:24.000Z</time>
      </trkpt>
      <trkpt lat="40.800651" lon="-3.928782">
        <ele>2328.9</ele>
        <time>2018-04-21T11:03:25.000Z</time>
      </trkpt>
      <trkpt lat="40.800652" lon="-3.928785">
        <ele>2329.0</ele>
        <time>2018-04-21T11:03:26.000Z</time>
      </trkpt>
      <trkpt lat="40.800653" lon="-3.928788">
        <ele>2329.1</ele>
        <time>2018-04-21T11:03:27.000Z</time>
      </trkpt>
      <trkpt lat="40.800654" lon="-3.928791">
        <ele>2329.2</ele>
        <time>2018-04-21T11:03:28.000Z</time>
      </trkpt>
      <trkpt lat="40.800655" lon="-3.928793">
        <ele>2329.3</ele>
        <time>2018-04-21T11:03:29.000Z</time>
      </trkpt>
      <trkpt lat="40.800655" lon="-3.928795">
        <ele>2329.4</ele>
        <time>2018-04-21T11:03:30.000Z</time>
      </trkpt>
      <trkpt lat="40.800656" lon="-3.928798">
        <ele>2329.5</ele>
        <time>2018-04-21T11:03:31.000Z</time>
      </trkpt>
      <trkpt lat="40.800656" lon="-3.928801">
        <ele>2329.6</ele>
        <time>2018-04-21T11:03:32.000Z</time>
      </trkpt>
      <trkpt lat="40.800655" lon="-3.928804">
        <ele>2329.6</ele>
        <time>2018-04-21T11:03:33.000Z</time>
      </trkpt>
      <trkpt lat="40.800654" lon="-3.928809">
        <ele>2329.7</ele>
        <time>2018-04-21T11:03:34.000Z</time>
      </trkpt>
      <trkpt lat="40.800653" lon="-3.928815">
        <ele>2329.9</ele>
        <time>2018-04-21T11:03:35.000Z</time>
      </trkpt>
      <trkpt lat="40.800651" lon="-3.928822">
        <ele>2330.0</ele>
        <time>2018-04-21T11:03:36.000Z</time>
      </trkpt>
      <trkpt lat="40.800649" lon="-3.92883">
        <ele>2330.2</ele>
        <time>2018-04-21T11:03:37.000Z</time>
      </trkpt>
      <trkpt lat="40.800646" lon="-3.928839">
        <ele>2330.4</ele>
        <time>2018-04-21T11:03:38.000Z</time>
      </trkpt>
      <trkpt lat="40.800644" lon="-3.928847">
        <ele>2330.6</ele>
        <time>2018-04-21T11:03:39.000Z</time>
      </trkpt>
      <trkpt lat="40.800641" lon="-3.928855">
        <ele>2330.7</ele>
        <time>2018-04-21T11:03:40.000Z</time>
      </trkpt>
      <trkpt lat="40.800639" lon="-3.928863">
        <ele>2330.9</ele>
        <time>2018-04-21T11:03:41.000Z</time>
      </trkpt>
      <trkpt lat="40.800637" lon="-3.928871">
        <ele>2331.1</ele>
        <time>2018-04-21T11:03:42.000Z</time>
      </trkpt>
      <trkpt lat="40.800634" lon="-3.928879">
        <ele>2331.2</ele>
        <time>2018-04-21T11:03:43.000Z</time>
      </trkpt>
      <trkpt lat="40.800632" lon="-3.928886">
        <ele>2331.4</ele>
        <time>2018-04-21T11:03:44.000Z</time>
      </trkpt>
      <trkpt lat="40.80063" lon="-3.928892">
        <ele>2331.5</ele>
        <time>2018-04-21T11:03:45.000Z</time>
      </trkpt>
      <trkpt lat="40.800629" lon="-3.928898">
        <ele>2331.6</ele>
        <time>2018-04-21T11:03:46.000Z</time>
      </trkpt>
      <trkpt lat="40.800627" lon="-3.928903">
        <ele>2331.7</ele>
        <time>2018-04-21T11:03:47.000Z</time>
      </trkpt>
      <trkpt lat="40.800626" lon="-3.928908">
        <ele>2331.8</ele>
        <time>2018-04-21T11:03:48.000Z</time>
      </trkpt>
      <trkpt lat="40.800625" lon="-3.928911">
        <ele>2331.9</ele>
        <time>2018-04-21T11:03:49.000Z</time>
      </trkpt>
      <trkpt lat="40.800624" lon="-3.928915">
        <ele>2332.0</ele>
        <time>2018-04-21T11:03:50.000Z</time>
      </trkpt>
      <trkpt lat="40.800623" lon="-3.928917">
        <ele>2332.0</ele>
        <time>2018-04-21T11:03:51.000Z</time>
      </trkpt>
      <trkpt lat="40.800622" lon="-3.928919">
        <ele>2332.0</ele>
        <time>2018-04-21T11:03:52.000Z</time>
      </trkpt>
      <trkpt lat="40.800622" lon="-3.92892">
        <ele>2332.1</ele>
        <time>2018-04-21T11:03:53.000Z</time>
      </trkpt>
      <trkpt lat="40.800622" lon="-3.928921">
        <ele>2332.1</ele>
        <time>2018-04-21T11:03:54.000Z</time>
      </trkpt>
      <trkpt lat="40.800621" lon="-3.928922">
        <ele>2332.1</ele>
        <time>2018-04-21T11:03:55.000Z</time>
      </trkpt>
      <trkpt lat="40.800621" lon="-3.928922">
        <ele>2332.1</ele>
        <time>2018-04-21T11:03:56.000Z</time>
      </trkpt>
      <trkpt lat="40.800621" lon="-3.928922">
        <ele>2332.1</ele>
        <time>2018-04-21T11:03:57.000Z</time>
      </trkpt>
      <trkpt lat="40.800621" lon="-3.928922">
        <ele>2332.1</ele>
        <time>2018-04-21T11:03:58.000Z</time>
      </trkpt>
      <trkpt lat="40.800621" lon="-3.928922">
        <ele>2332.1</ele>
        <time>2018-04-21T11:03:59.000Z</time>
      </trkpt>
      <trkpt lat="40.800622" lon="-3.928921">
        <ele>2332.1</ele>
        <time>2018-04-21T11:04:00.000Z</time>
      </trkpt>
      <trkpt lat="40.800622" lon="-3.928921">
        <ele>2332.1</ele>
        <time>2018-04-21T11:04:01.000Z</time>
      </trkpt>
      <trkpt lat="40.800622" lon="-3.92892">
        <ele>2332.1</ele>
        <time>2018-04-21T11:04:02.000Z</time>
      </trkpt>
      <trkpt lat="40.800622" lon="-3.92892">
        <ele>2332.1</ele>
        <time>2018-04-21T11:04:03.000Z</time>
      </trkpt>
      <trkpt lat="40.800622" lon="-3.928919">
        <ele>2332.0</ele>
        <time>2018-04-21T11:04:04.000Z</time>
      </trkpt>
      <trkpt lat="40.800623" lon="-3.928919">
        <ele>2332.1</ele>
        <time>2018-04-21T11:04:05.000Z</time>
      </trkpt>
      <trkpt lat="40.800623" lon="-3.928919">
        <ele>2332.1</ele>
        <time>2018-04-21T11:04:06.000Z</time>
      </trkpt>
      <trkpt lat="40.800623" lon="-3.928919">
        <ele>2332.1</ele>
        <time>2018-04-21T11:04:07.000Z</time>
      </trkpt>
      <trkpt lat="40.800623" lon="-3.92892">
        <ele>2332.1</ele>
        <time>2018-04-21T11:04:08.000Z</time>
      </trkpt>
      <trkpt lat="40.800623" lon="-3.928921">
        <ele>2332.1</ele>
        <time>2018-04-21T11:04:09.000Z</time>
      </trkpt>
      <trkpt lat="40.800623" lon="-3.928923">
        <ele>2332.2</ele>
        <time>2018-04-21T11:04:10.000Z</time>
      </trkpt>
      <trkpt lat="40.800623" lon="-3.928925">
        <ele>2332.2</ele>
        <time>2018-04-21T11:04:11.000Z</time>
      </trkpt>
      <trkpt lat="40.800623" lon="-3.928927">
        <ele>2332.3</ele>
        <time>2018-04-21T11:04:12.000Z</time>
      </trkpt>
      <trkpt lat="40.800623" lon="-3.928931">
        <ele>2332.4</ele>
        <time>2018-04-21T11:04:13.000Z</time>
      </trkpt>
      <trkpt lat="40.800623" lon="-3.928935">
        <ele>2332.5</ele>
        <time>2018-04-21T11:04:14.000Z</time>
      </trkpt>
      <trkpt lat="40.800623" lon="-3.92894">
        <ele>2332.7</ele>
        <time>2018-04-21T11:04:15.000Z</time>
      </trkpt>
      <trkpt lat="40.800623" lon="-3.928945">
        <ele>2332.8</ele>
        <time>2018-04-21T11:04:16.000Z</time>
      </trkpt>
      <trkpt lat="40.800623" lon="-3.928951">
        <ele>2333.0</ele>
        <time>2018-04-21T11:04:17.000Z</time>
      </trkpt>
      <trkpt lat="40.800624" lon="-3.928958">
        <ele>2333.2</ele>
        <time>2018-04-21T11:04:18.000Z</time>
      </trkpt>
      <trkpt lat="40.800624" lon="-3.928965">
        <ele>2333.4</ele>
        <time>2018-04-21T11:04:19.000Z</time>
      </trkpt>
      <trkpt lat="40.800624" lon="-3.928972">
        <ele>2333.6</ele>
        <time>2018-04-21T11:04:20.000Z</time>
      </trkpt>
      <trkpt lat="40.800623" lon="-3.928979">
        <ele>2333.8</ele>
        <time>2018-04-21T11:04:21.000Z</time>
      </trkpt>
      <trkpt lat="40.800623" lon="-3.928986">
        <ele>2334.0</ele>
        <time>2018-04-21T11:04:22.000Z</time>
      </trkpt>
      <trkpt lat="40.800622" lon="-3.928993">
        <ele>2334.2</ele>
        <time>2018-04-21T11:04:23.000Z</time>
      </trkpt>
      <trkpt lat="40.800622" lon="-3.929">
        <ele>2334.4</ele>
        <time>2018-04-21T11:04:24.000Z</time>
      </trkpt>
      <trkpt lat="40.800621" lon="-3.929007">
        <ele>2334.5</ele>
        <time>2018-04-21T11:04:25.000Z</time>
      </trkpt>
      <trkpt lat="40.80062" lon="-3.929014">
        <ele>2334.7</ele>
        <time>2018-04-21T11:04:26.000Z</time>
      </trkpt>
      <trkpt lat="40.800618" lon="-3.92902">
        <ele>2334.8</ele>
        <time>2018-04-21T11:04:27.000Z</time>
      </trkpt>
      <trkpt lat="40.800617" lon="-3.929026">
        <ele>2335.0</ele>
        <time>2018-04-21T11:04:28.000Z</time>
      </trkpt>
      <trkpt lat="40.800616" lon="-3.929032">
        <ele>2335.1</ele>
        <time>2018-04-21T11:04:29.000Z</time>
      </trkpt>
      <trkpt lat="40.800615" lon="-3.929038">
        <ele>2335.3</ele>
        <time>2018-04-21T11:04:30.000Z</time>
      </trkpt>
      <trkpt lat="40.800615" lon="-3.929044">
        <ele>2335.4</ele>
        <time>2018-04-21T11:04:31.000Z</time>
      </trkpt>
      <trkpt lat="40.800614" lon="-3.92905">
        <ele>2335.6</ele>
        <time>2018-04-21T11:04:32.000Z</time>
      </trkpt>
      <trkpt lat="40.800614" lon="-3.929055">
        <ele>2335.7</ele>
        <time>2018-04-21T11:04:33.000Z</time>
      </trkpt>
      <trkpt lat="40.800614" lon="-3.929061">
        <ele>2335.9</ele>
        <time>2018-04-21T11:04:34.000Z</time>
      </trkpt>
      <trkpt lat="40.800614" lon="-3.929066">
        <ele>2336.0</ele>
        <time>2018-04-21T11:04:35.000Z</time>
      </trkpt>
      <trkpt lat="40.800614" lon="-3.929071">
        <ele>2336.2</ele>
        <time>2018-04-21T11:04:36.000Z</time>
      </trkpt>
      <trkpt lat="40.800615" lon="-3.929077">
        <ele>2336.4</ele>
        <time>2018-04-21T11:04:37.000Z</time>
      </trkpt>
      <trkpt lat="40.800615" lon="-3.929082">
        <ele>2336.5</ele>
        <time>2018-04-21T11:04:38.000Z</time>
      </trkpt>
      <trkpt lat="40.800615" lon="-3.929088">
        <ele>2336.7</ele>
        <time>2018-04-21T11:04:39.000Z</time>
      </trkpt>
      <trkpt lat="40.800615" lon="-3.929094">
        <ele>2336.9</ele>
        <time>2018-04-21T11:04:40.000Z</time>
      </trkpt>
      <trkpt lat="40.800615" lon="-3.9291">
        <ele>2337.1</ele>
        <time>2018-04-21T11:04:41.000Z</time>
      </trkpt>
      <trkpt lat="40.800614" lon="-3.929106">
        <ele>2337.2</ele>
        <time>2018-04-21T11:04:42.000Z</time>
      </trkpt>
      <trkpt lat="40.800614" lon="-3.929113">
        <ele>2337.4</ele>
        <time>2018-04-21T11:04:43.000Z</time>
      </trkpt>
      <trkpt lat="40.800612" lon="-3.92912">
        <ele>2337.5</ele>
        <time>2018-04-21T11:04:44.000Z</time>
      </trkpt>
      <trkpt lat="40.800611" lon="-3.929127">
        <ele>2337.7</ele>
        <time>2018-04-21T11:04:45.000Z</time>
      </trkpt>
      <trkpt lat="40.80061" lon="-3.929135">
        <ele>2337.9</ele>
        <time>2018-04-21T11:04:46.000Z</time>
      </trkpt>
      <trkpt lat="40.800608" lon="-3.929142">
        <ele>2338.1</ele>
        <time>2018-04-21T11:04:47.000Z</time>
      </trkpt>
      <trkpt lat="40.800606" lon="-3.929149">
        <ele>2338.2</ele>
        <time>2018-04-21T11:04:48.000Z</time>
      </trkpt>
      <trkpt lat="40.800605" lon="-3.929155">
        <ele>2338.4</ele>
        <time>2018-04-21T11:04:49.000Z</time>
      </trkpt>
      <trkpt lat="40.800605" lon="-3.929159">
        <ele>2338.5</ele>
        <time>2018-04-21T11:04:50.000Z</time>
      </trkpt>
      <trkpt lat="40.800605" lon="-3.929161">
        <ele>2338.5</ele>
        <time>2018-04-21T11:04:51.000Z</time>
      </trkpt>
      <trkpt lat="40.800606" lon="-3.929162">
        <ele>2338.6</ele>
        <time>2018-04-21T11:04:52.000Z</time>
      </trkpt>
      <trkpt lat="40.800607" lon="-3.929163">
        <ele>2338.6</ele>
        <time>2018-04-21T11:04:53.000Z</time>
      </trkpt>
      <trkpt lat="40.800608" lon="-3.929165">
        <ele>2338.7</ele>
        <time>2018-04-21T11:04:54.000Z</time>
      </trkpt>
      <trkpt lat="40.800607" lon="-3.929169">
        <ele>2338.8</ele>
        <time>2018-04-21T11:04:55.000Z</time>
      </trkpt>
      <trkpt lat="40.800606" lon="-3.929175">
        <ele>2338.9</ele>
        <time>2018-04-21T11:04:56.000Z</time>
      </trkpt>
      <trkpt lat="40.800604" lon="-3.929184">
        <ele>2339.1</ele>
        <time>2018-04-21T11:04:57.000Z</time>
      </trkpt>
      <trkpt lat="40.800601" lon="-3.929194">
        <ele>2339.3</ele>
        <time>2018-04-21T11:04:58.000Z</time>
      </trkpt>
      <trkpt lat="40.800598" lon="-3.929204">
        <ele>2339.4</ele>
        <time>2018-04-21T11:04:59.000Z</time>
      </trkpt>
      <trkpt lat="40.800595" lon="-3.929215">
        <ele>2339.6</ele>
        <time>2018-04-21T11:05:00.000Z</time>
      </trkpt>
      <trkpt lat="40.800593" lon="-3.929226">
        <ele>2339.8</ele>
        <time>2018-04-21T11:05:01.000Z</time>
      </trkpt>
      <trkpt lat="40.80059" lon="-3.929236">
        <ele>2340.0</ele>
        <time>2018-04-21T11:05:02.000Z</time>
      </trkpt>
      <trkpt lat="40.800588" lon="-3.929247">
        <ele>2340.2</ele>
        <time>2018-04-21T11:05:03.000Z</time>
      </trkpt>
      <trkpt lat="40.800587" lon="-3.929257">
        <ele>2340.4</ele>
        <time>2018-04-21T11:05:04.000Z</time>
      </trkpt>
      <trkpt lat="40.800585" lon="-3.929267">
        <ele>2340.6</ele>
        <time>2018-04-21T11:05:05.000Z</time>
      </trkpt>
      <trkpt lat="40.800584" lon="-3.929276">
        <ele>2340.8</ele>
        <time>2018-04-21T11:05:06.000Z</time>
      </trkpt>
      <trkpt lat="40.800583" lon="-3.929286">
        <ele>2341.0</ele>
        <time>2018-04-21T11:05:07.000Z</time>
      </trkpt>
      <trkpt lat="40.800582" lon="-3.929295">
        <ele>2341.2</ele>
        <time>2018-04-21T11:05:08.000Z</time>
      </trkpt>
      <trkpt lat="40.800581" lon="-3.929304">
        <ele>2341.4</ele>
        <time>2018-04-21T11:05:09.000Z</time>
      </trkpt>
      <trkpt lat="40.80058" lon="-3.929312">
        <ele>2341.6</ele>
        <time>2018-04-21T11:05:10.000Z</time>
      </trkpt>
      <trkpt lat="40.800579" lon="-3.92932">
        <ele>2341.8</ele>
        <time>2018-04-21T11:05:11.000Z</time>
      </trkpt>
      <trkpt lat="40.800579" lon="-3.929328">
        <ele>2342.0</ele>
        <time>2018-04-21T11:05:12.000Z</time>
      </trkpt>
      <trkpt lat="40.800579" lon="-3.929335">
        <ele>2342.1</ele>
        <time>2018-04-21T11:05:13.000Z</time>
      </trkpt>
      <trkpt lat="40.800578" lon="-3.929341">
        <ele>2342.2</ele>
        <time>2018-04-21T11:05:14.000Z</time>
      </trkpt>
      <trkpt lat="40.800578" lon="-3.929347">
        <ele>2342.4</ele>
        <time>2018-04-21T11:05:15.000Z</time>
      </trkpt>
      <trkpt lat="40.800578" lon="-3.929353">
        <ele>2342.5</ele>
        <time>2018-04-21T11:05:16.000Z</time>
      </trkpt>
      <trkpt lat="40.800578" lon="-3.929358">
        <ele>2342.7</ele>
        <time>2018-04-21T11:05:17.000Z</time>
      </trkpt>
      <trkpt lat="40.800578" lon="-3.929362">
        <ele>2342.8</ele>
        <time>2018-04-21T11:05:18.000Z</time>
      </trkpt>
      <trkpt lat="40.800578" lon="-3.929366">
        <ele>2342.9</ele>
        <time>2018-04-21T11:05:19.000Z</time>
      </trkpt>
      <trkpt lat="40.800577" lon="-3.929369">
        <ele>2342.9</ele>
        <time>2018-04-21T11:05:20.000Z</time>
      </trkpt>
      <trkpt lat="40.800577" lon="-3.929372">
        <ele>2343.0</ele>
        <time>2018-04-21T11:05:21.000Z</time>
      </trkpt>
      <trkpt lat="40.800577" lon="-3.929374">
        <ele>2343.0</ele>
        <time>2018-04-21T11:05:22.000Z</time>
      </trkpt>
      <trkpt lat="40.800577" lon="-3.929376">
        <ele>2343.1</ele>
        <time>2018-04-21T11:05:23.000Z</time>
      </trkpt>
      <trkpt lat="40.800577" lon="-3.929377">
        <ele>2343.1</ele>
        <time>2018-04-21T11:05:24.000Z</time>
      </trkpt>
      <trkpt lat="40.800577" lon="-3.929378">
        <ele>2343.1</ele>
        <time>2018-04-21T11:05:25.000Z</time>
      </trkpt>
      <trkpt lat="40.800577" lon="-3.929379">
        <ele>2343.2</ele>
        <time>2018-04-21T11:05:26.000Z</time>
      </trkpt>
      <trkpt lat="40.800577" lon="-3.929379">
        <ele>2343.2</ele>
        <time>2018-04-21T11:05:27.000Z</time>
      </trkpt>
      <trkpt lat="40.800577" lon="-3.929379">
        <ele>2343.2</ele>
        <time>2018-04-21T11:05:28.000Z</time>
      </trkpt>
      <trkpt lat="40.800577" lon="-3.929379">
        <ele>2343.2</ele>
        <time>2018-04-21T11:05:29.000Z</time>
      </trkpt>
      <trkpt lat="40.800577" lon="-3.929379">
        <ele>2343.2</ele>
        <time>2018-04-21T11:05:30.000Z</time>
      </trkpt>
      <trkpt lat="40.800577" lon="-3.929378">
        <ele>2343.1</ele>
        <time>2018-04-21T11:05:31.000Z</time>
      </trkpt>
      <trkpt lat="40.800578" lon="-3.929378">
        <ele>2343.2</ele>
        <time>2018-04-21T11:05:32.000Z</time>
      </trkpt>
      <trkpt lat="40.800578" lon="-3.929377">
        <ele>2343.1</ele>
        <time>2018-04-21T11:05:33.000Z</time>
      </trkpt>
      <trkpt lat="40.800578" lon="-3.929376">
        <ele>2343.1</ele>
        <time>2018-04-21T11:05:34.000Z</time>
      </trkpt>
      <trkpt lat="40.800578" lon="-3.929376">
        <ele>2343.1</ele>
        <time>2018-04-21T11:05:35.000Z</time>
      </trkpt>
      <trkpt lat="40.800578" lon="-3.929375">
        <ele>2343.1</ele>
        <time>2018-04-21T11:05:36.000Z</time>
      </trkpt>
      <trkpt lat="40.800578" lon="-3.929374">
        <ele>2343.1</ele>
        <time>2018-04-21T11:05:37.000Z</time>
      </trkpt>
      <trkpt lat="40.800578" lon="-3.929374">
        <ele>2343.1</ele>
        <time>2018-04-21T11:05:38.000Z</time>
      </trkpt>
      <trkpt lat="40.800578" lon="-3.929374">
        <ele>2343.1</ele>
        <time>2018-04-21T11:05:39.000Z</time>
      </trkpt>
      <trkpt lat="40.800578" lon="-3.929373">
        <ele>2343.0</ele>
        <time>2018-04-21T11:05:40.000Z</time>
      </trkpt>
      <trkpt lat="40.800578" lon="-3.929374">
        <ele>2343.1</ele>
        <time>2018-04-21T11:05:41.000Z</time>
      </trkpt>
      <trkpt lat="40.800578" lon="-3.929374">
        <ele>2343.1</ele>
        <time>2018-04-21T11:05:42.000Z</time>
      </trkpt>
      <trkpt lat="40.800578" lon="-3.929375">
        <ele>2343.1</ele>
        <time>2018-04-21T11:05:43.000Z</time>
      </trkpt>
      <trkpt lat="40.800578" lon="-3.929376">
        <ele>2343.1</ele>
        <time>2018-04-21T11:05:44.000Z</time>
      </trkpt>
      <trkpt lat="40.800578" lon="-3.929378">
        <ele>2343.2</ele>
        <time>2018-04-21T11:05:45.000Z</time>
      </trkpt>
      <trkpt lat="40.800578" lon="-3.929381">
        <ele>2343.2</ele>
        <time>2018-04-21T11:05:46.000Z</time>
      </trkpt>
      <trkpt lat="40.800577" lon="-3.929384">
        <ele>2343.3</ele>
        <time>2018-04-21T11:05:47.000Z</time>
      </trkpt>
      <trkpt lat="40.800577" lon="-3.929387">
        <ele>2343.4</ele>
        <time>2018-04-21T11:05:48.000Z</time>
      </trkpt>
      <trkpt lat="40.800576" lon="-3.929391">
        <ele>2343.4</ele>
        <time>2018-04-21T11:05:49.000Z</time>
      </trkpt>
      <trkpt lat="40.800575" lon="-3.929396">
        <ele>2343.5</ele>
        <time>2018-04-21T11:05:50.000Z</time>
      </trkpt>
      <trkpt lat="40.800574" lon="-3.929402">
        <ele>2343.6</ele>
        <time>2018-04-21T11:05:51.000Z</time>
      </trkpt>
      <trkpt lat="40.800573" lon="-3.929408">
        <ele>2343.8</ele>
        <time>2018-04-21T11:05:52.000Z</time>
      </trkpt>
      <trkpt lat="40.800572" lon="-3.929416">
        <ele>2343.9</ele>
        <time>2018-04-21T11:05:53.000Z</time>
      </trkpt>
      <trkpt lat="40.800571" lon="-3.929424">
        <ele>2344.1</ele>
        <time>2018-04-21T11:05:54.000Z</time>
      </trkpt>
      <trkpt lat="40.800569" lon="-3.929433">
        <ele>2344.3</ele>
        <time>2018-04-21T11:05:55.000Z</time>
      </trkpt>
      <trkpt lat="40.800568" lon="-3.929443">
        <ele>2344.5</ele>
        <time>2018-04-21T11:05:56.000Z</time>
      </trkpt>
      <trkpt lat="40.800566" lon="-3.929453">
        <ele>2344.7</ele>
        <time>2018-04-21T11:05:57.000Z</time>
      </trkpt>
      <trkpt lat="40.800565" lon="-3.929463">
        <ele>2344.9</ele>
        <time>2018-04-21T11:05:58.000Z</time>
      </trkpt>
      <trkpt lat="40.800563" lon="-3.929473">
        <ele>2345.1</ele>
        <time>2018-04-21T11:05:59.000Z</time>
      </trkpt>
      <trkpt lat="40.800562" lon="-3.929483">
        <ele>2345.3</ele>
        <time>2018-04-21T11:06:00.000Z</time>
      </trkpt>
      <trkpt lat="40.800561" lon="-3.929493">
        <ele>2345.6</ele>
        <time>2018-04-21T11:06:01.000Z</time>
      </trkpt>
      <trkpt lat="40.80056" lon="-3.929502">
        <ele>2345.8</ele>
        <time>2018-04-21T11:06:02.000Z</time>
      </trkpt>
      <trkpt lat="40.800559" lon="-3.92951">
        <ele>2345.9</ele>
        <time>2018-04-21T11:06:03.000Z</time>
      </trkpt>
      <trkpt lat="40.800559" lon="-3.929518">
        <ele>2346.1</ele>
        <time>2018-04-21T11:06:04.000Z</time>
      </trkpt>
      <trkpt lat="40.800559" lon="-3.929525">
        <ele>2346.3</ele>
        <time>2018-04-21T11:06:05.000Z</time>
      </trkpt>
      <trkpt lat="40.800559" lon="-3.929532">
        <ele>2346.5</ele>
        <time>2018-04-21T11:06:06.000Z</time>
      </trkpt>
      <trkpt lat="40.800559" lon="-3.929538">
        <ele>2346.6</ele>
        <time>2018-04-21T11:06:07.000Z</time>
      </trkpt>
      <trkpt lat="40.80056" lon="-3.929544">
        <ele>2346.8</ele>
        <time>2018-04-21T11:06:08.000Z</time>
      </trkpt>
      <trkpt lat="40.80056" lon="-3.92955">
        <ele>2347.0</ele>
        <time>2018-04-21T11:06:09.000Z</time>
      </trkpt>
      <trkpt lat="40.800561" lon="-3.929556">
        <ele>2347.1</ele>
        <time>2018-04-21T11:06:10.000Z</time>
      </trkpt>
      <trkpt lat="40.800562" lon="-3.929561">
        <ele>2347.3</ele>
        <time>2018-04-21T11:06:11.000Z</time>
      </trkpt>
      <trkpt lat="40.800564" lon="-3.929567">
        <ele>2347.5</ele>
        <time>2018-04-21T11:06:12.000Z</time>
      </trkpt>
      <trkpt lat="40.800565" lon="-3.929573">
        <ele>2347.6</ele>
        <time>2018-04-21T11:06:13.000Z</time>
      </trkpt>
      <trkpt lat="40.800566" lon="-3.929579">
        <ele>2347.8</ele>
        <time>2018-04-21T11:06:14.000Z</time>
      </trkpt>
      <trkpt lat="40.800568" lon="-3.929586">
        <ele>2348.0</ele>
        <time>2018-04-21T11:06:15.000Z</time>
      </trkpt>
      <trkpt lat="40.80057" lon="-3.929592">
        <ele>2348.2</ele>
        <time>2018-04-21T11:06:16.000Z</time>
      </trkpt>
      <trkpt lat="40.800571" lon="-3.929598">
        <ele>2348.4</ele>
        <time>2018-04-21T11:06:17.000Z</time>
      </trkpt>
      <trkpt lat="40.800573" lon="-3.929605">
        <ele>2348.6</ele>
        <time>2018-04-21T11:06:18.000Z</time>
      </trkpt>
      <trkpt lat="40.800574" lon="-3.929612">
        <ele>2348.8</ele>
        <time>2018-04-21T11:06:19.000Z</time>
      </trkpt>
      <trkpt lat="40.800576" lon="-3.929618">
        <ele>2349.0</ele>
        <time>2018-04-21T11:06:20.000Z</time>
      </trkpt>
      <trkpt lat="40.800578" lon="-3.929625">
        <ele>2349.2</ele>
        <time>2018-04-21T11:06:21.000Z</time>
      </trkpt>
      <trkpt lat="40.800579" lon="-3.929633">
        <ele>2349.5</ele>
        <time>2018-04-21T11:06:22.000Z</time>
      </trkpt>
      <trkpt lat="40.80058" lon="-3.92964">
        <ele>2349.7</ele>
        <time>2018-04-21T11:06:23.000Z</time>
      </trkpt>
      <trkpt lat="40.800582" lon="-3.929647">
        <ele>2349.9</ele>
        <time>2018-04-21T11:06:24.000Z</time>
      </trkpt>
      <trkpt lat="40.800583" lon="-3.929655">
        <ele>2350.1</ele>
        <time>2018-04-21T11:06:25.000Z</time>
      </trkpt>
      <trkpt lat="40.800584" lon="-3.929663">
        <ele>2350.3</ele>
        <time>2018-04-21T11:06:26.000Z</time>
      </trkpt>
      <trkpt lat="40.800584" lon="-3.929671">
        <ele>2350.5</ele>
        <time>2018-04-21T11:06:27.000Z</time>
      </trkpt>
      <trkpt lat="40.800585" lon="-3.929679">
        <ele>2350.7</ele>
        <time>2018-04-21T11:06:28.000Z</time>
      </trkpt>
      <trkpt lat="40.800585" lon="-3.929687">
        <ele>2350.9</ele>
        <time>2018-04-21T11:06:29.000Z</time>
      </trkpt>
      <trkpt lat="40.800585" lon="-3.929696">
        <ele>2351.2</ele>
        <time>2018-04-21T11:06:30.000Z</time>
      </trkpt>
      <trkpt lat="40.800584" lon="-3.929705">
        <ele>2351.4</ele>
        <time>2018-04-21T11:06:31.000Z</time>
      </trkpt>
      <trkpt lat="40.800584" lon="-3.929713">
        <ele>2351.6</ele>
        <time>2018-04-21T11:06:32.000Z</time>
      </trkpt>
      <trkpt lat="40.800583" lon="-3.929722">
        <ele>2351.8</ele>
        <time>2018-04-21T11:06:33.000Z</time>
      </trkpt>
      <trkpt lat="40.800583" lon="-3.929731">
        <ele>2352.0</ele>
        <time>2018-04-21T11:06:34.000Z</time>
      </trkpt>
      <trkpt lat="40.800582" lon="-3.929739">
        <ele>2352.1</ele>
        <time>2018-04-21T11:06:35.000Z</time>
      </trkpt>
      <trkpt lat="40.800581" lon="-3.929748">
        <ele>2352.3</ele>
        <time>2018-04-21T11:06:36.000Z</time>
      </trkpt>
      <trkpt lat="40.800581" lon="-3.929756">
        <ele>2352.5</ele>
        <time>2018-04-21T11:06:37.000Z</time>
      </trkpt>
      <trkpt lat="40.80058" lon="-3.929764">
        <ele>2352.7</ele>
        <time>2018-04-21T11:06:38.000Z</time>
      </trkpt>
      <trkpt lat="40.80058" lon="-3.929771">
        <ele>2352.9</ele>
        <time>2018-04-21T11:06:39.000Z</time>
      </trkpt>
      <trkpt lat="40.80058" lon="-3.929778">
        <ele>2353.1</ele>
        <time>2018-04-21T11:06:40.000Z</time>
      </trkpt>
      <trkpt lat="40.80058" lon="-3.929785">
        <ele>2353.2</ele>
        <time>2018-04-21T11:06:41.000Z</time>
      </trkpt>
      <trkpt lat="40.80058" lon="-3.929791">
        <ele>2353.4</ele>
        <time>2018-04-21T11:06:42.000Z</time>
      </trkpt>
      <trkpt lat="40.800581" lon="-3.929796">
        <ele>2353.5</ele>
        <time>2018-04-21T11:06:43.000Z</time>
      </trkpt>
      <trkpt lat="40.800581" lon="-3.929801">
        <ele>2353.7</ele>
        <time>2018-04-21T11:06:44.000Z</time>
      </trkpt>
      <trkpt lat="40.800581" lon="-3.929805">
        <ele>2353.7</ele>
        <time>2018-04-21T11:06:45.000Z</time>
      </trkpt>
      <trkpt lat="40.800581" lon="-3.929809">
        <ele>2353.8</ele>
        <time>2018-04-21T11:06:46.000Z</time>
      </trkpt>
      <trkpt lat="40.800582" lon="-3.929812">
        <ele>2353.9</ele>
        <time>2018-04-21T11:06:47.000Z</time>
      </trkpt>
      <trkpt lat="40.800582" lon="-3.929815">
        <ele>2354.0</ele>
        <time>2018-04-21T11:06:48.000Z</time>
      </trkpt>
      <trkpt lat="40.800582" lon="-3.929816">
        <ele>2354.0</ele>
        <time>2018-04-21T11:06:49.000Z</time>
      </trkpt>
      <trkpt lat="40.800582" lon="-3.929818">
        <ele>2354.1</ele>
        <time>2018-04-21T11:06:50.000Z</time>
      </trkpt>
      <trkpt lat="40.800582" lon="-3.929818">
        <ele>2354.1</ele>
        <time>2018-04-21T11:06:51.000Z</time>
      </trkpt>
      <trkpt lat="40.800582" lon="-3.929819">
        <ele>2354.1</ele>
        <time>2018-04-21T11:06:52.000Z</time>
      </trkpt>
      <trkpt lat="40.800582" lon="-3.929819">
        <ele>2354.1</ele>
        <time>2018-04-21T11:06:53.000Z</time>
      </trkpt>
      <trkpt lat="40.800582" lon="-3.929819">
        <ele>2354.1</ele>
        <time>2018-04-21T11:06:54.000Z</time>
      </trkpt>
      <trkpt lat="40.800582" lon="-3.929819">
        <ele>2354.1</ele>
        <time>2018-04-21T11:06:55.000Z</time>
      </trkpt>
      <trkpt lat="40.800582" lon="-3.929818">
        <ele>2354.1</ele>
        <time>2018-04-21T11:06:56.000Z</time>
      </trkpt>
      <trkpt lat="40.800581" lon="-3.929818">
        <ele>2354.1</ele>
        <time>2018-04-21T11:06:57.000Z</time>
      </trkpt>
      <trkpt lat="40.800582" lon="-3.929818">
        <ele>2354.1</ele>
        <time>2018-04-21T11:06:58.000Z</time>
      </trkpt>
      <trkpt lat="40.800582" lon="-3.929818">
        <ele>2354.1</ele>
        <time>2018-04-21T11:06:59.000Z</time>
      </trkpt>
      <trkpt lat="40.800582" lon="-3.929818">
        <ele>2354.1</ele>
        <time>2018-04-21T11:07:00.000Z</time>
      </trkpt>
      <trkpt lat="40.800582" lon="-3.929819">
        <ele>2354.1</ele>
        <time>2018-04-21T11:07:01.000Z</time>
      </trkpt>
      <trkpt lat="40.800582" lon="-3.92982">
        <ele>2354.1</ele>
        <time>2018-04-21T11:07:02.000Z</time>
      </trkpt>
      <trkpt lat="40.800583" lon="-3.929821">
        <ele>2354.2</ele>
        <time>2018-04-21T11:07:03.000Z</time>
      </trkpt>
      <trkpt lat="40.800583" lon="-3.929823">
        <ele>2354.2</ele>
        <time>2018-04-21T11:07:04.000Z</time>
      </trkpt>
      <trkpt lat="40.800584" lon="-3.929826">
        <ele>2354.3</ele>
        <time>2018-04-21T11:07:05.000Z</time>
      </trkpt>
      <trkpt lat="40.800585" lon="-3.92983">
        <ele>2354.5</ele>
        <time>2018-04-21T11:07:06.000Z</time>
      </trkpt>
      <trkpt lat="40.800586" lon="-3.929835">
        <ele>2354.6</ele>
        <time>2018-04-21T11:07:07.000Z</time>
      </trkpt>
      <trkpt lat="40.800586" lon="-3.929843">
        <ele>2354.8</ele>
        <time>2018-04-21T11:07:08.000Z</time>
      </trkpt>
      <trkpt lat="40.800586" lon="-3.929854">
        <ele>2355.1</ele>
        <time>2018-04-21T11:07:09.000Z</time>
      </trkpt>
      <trkpt lat="40.800587" lon="-3.929866">
        <ele>2355.4</ele>
        <time>2018-04-21T11:07:10.000Z</time>
      </trkpt>
      <trkpt lat="40.800587" lon="-3.929877">
        <ele>2355.7</ele>
        <time>2018-04-21T11:07:11.000Z</time>
      </trkpt>
      <trkpt lat="40.800587" lon="-3.929888">
        <ele>2355.9</ele>
        <time>2018-04-21T11:07:12.000Z</time>
      </trkpt>
      <trkpt lat="40.800587" lon="-3.929898">
        <ele>2356.2</ele>
        <time>2018-04-21T11:07:13.000Z</time>
      </trkpt>
      <trkpt lat="40.800588" lon="-3.929907">
        <ele>2356.4</ele>
        <time>2018-04-21T11:07:14.000Z</time>
      </trkpt>
      <trkpt lat="40.800589" lon="-3.929916">
        <ele>2356.7</ele>
        <time>2018-04-21T11:07:15.000Z</time>
      </trkpt>
      <trkpt lat="40.800589" lon="-3.929925">
        <ele>2356.9</ele>
        <time>2018-04-21T11:07:16.000Z</time>
      </trkpt>
      <trkpt lat="40.80059" lon="-3.929933">
        <ele>2357.1</ele>
        <time>2018-04-21T11:07:17.000Z</time>
      </trkpt>
      <trkpt lat="40.800591" lon="-3.929941">
        <ele>2357.3</ele>
        <time>2018-04-21T11:07:18.000Z</time>
      </trkpt>
      <trkpt lat="40.800592" lon="-3.929949">
        <ele>2357.5</ele>
        <time>2018-04-21T11:07:19.000Z</time>
      </trkpt>
      <trkpt lat="40.800593" lon="-3.929957">
        <ele>2357.8</ele>
        <time>2018-04-21T11:07:20.000Z</time>
      </trkpt>
      <trkpt lat="40.800594" lon="-3.929965">
        <ele>2358.0</ele>
        <time>2018-04-21T11:07:21.000Z</time>
      </trkpt>
      <trkpt lat="40.800594" lon="-3.929974">
        <ele>2358.2</ele>
        <time>2018-04-21T11:07:22.000Z</time>
      </trkpt>
      <trkpt lat="40.800595" lon="-3.929983">
        <ele>2358.4</ele>
        <time>2018-04-21T11:07:23.000Z</time>
      </trkpt>
      <trkpt lat="40.800595" lon="-3.929993">
        <ele>2358.7</ele>
        <time>2018-04-21T11:07:24.000Z</time>
      </trkpt>
      <trkpt lat="40.800596" lon="-3.930003">
        <ele>2358.9</ele>
        <time>2018-04-21T11:07:25.000Z</time>
      </trkpt>
      <trkpt lat="40.800596" lon="-3.930014">
        <ele>2359.0</ele>
        <time>2018-04-21T11:07:26.000Z</time>
      </trkpt>
      <trkpt lat="40.800596" lon="-3.930025">
        <ele>2359.1</ele>
        <time>2018-04-21T11:07:27.000Z</time>
      </trkpt>
      <trkpt lat="40.800596" lon="-3.930036">
        <ele>2359.2</ele>
        <time>2018-04-21T11:07:28.000Z</time>
      </trkpt>
      <trkpt lat="40.800596" lon="-3.930047">
        <ele>2359.3</ele>
        <time>2018-04-21T11:07:29.000Z</time>
      </trkpt>
      <trkpt lat="40.800595" lon="-3.930058">
        <ele>2359.4</ele>
        <time>2018-04-21T11:07:30.000Z</time>
      </trkpt>
      <trkpt lat="40.800595" lon="-3.930069">
        <ele>2359.5</ele>
        <time>2018-04-21T11:07:31.000Z</time>
      </trkpt>
      <trkpt lat="40.800595" lon="-3.930079">
        <ele>2359.6</ele>
        <time>2018-04-21T11:07:32.000Z</time>
      </trkpt>
      <trkpt lat="40.800595" lon="-3.930089">
        <ele>2359.7</ele>
        <time>2018-04-21T11:07:33.000Z</time>
      </trkpt>
      <trkpt lat="40.800595" lon="-3.930099">
        <ele>2359.8</ele>
        <time>2018-04-21T11:07:34.000Z</time>
      </trkpt>
      <trkpt lat="40.800595" lon="-3.930108">
        <ele>2359.8</ele>
        <time>2018-04-21T11:07:35.000Z</time>
      </trkpt>
      <trkpt lat="40.800596" lon="-3.930117">
        <ele>2359.9</ele>
        <time>2018-04-21T11:07:36.000Z</time>
      </trkpt>
      <trkpt lat="40.800596" lon="-3.930126">
        <ele>2360.0</ele>
        <time>2018-04-21T11:07:37.000Z</time>
      </trkpt>
      <trkpt lat="40.800597" lon="-3.930134">
        <ele>2360.1</ele>
        <time>2018-04-21T11:07:38.000Z</time>
      </trkpt>
      <trkpt lat="40.800598" lon="-3.930143">
        <ele>2360.2</ele>
        <time>2018-04-21T11:07:39.000Z</time>
      </trkpt>
      <trkpt lat="40.800599" lon="-3.930151">
        <ele>2360.3</ele>
        <time>2018-04-21T11:07:40.000Z</time>
      </trkpt>
      <trkpt lat="40.800601" lon="-3.93016">
        <ele>2360.4</ele>
        <time>2018-04-21T11:07:41.000Z</time>
      </trkpt>
      <trkpt lat="40.800604" lon="-3.930168">
        <ele>2360.5</ele>
        <time>2018-04-21T11:07:42.000Z</time>
      </trkpt>
      <trkpt lat="40.800606" lon="-3.930176">
        <ele>2360.6</ele>
        <time>2018-04-21T11:07:43.000Z</time>
      </trkpt>
      <trkpt lat="40.800609" lon="-3.930185">
        <ele>2360.8</ele>
        <time>2018-04-21T11:07:44.000Z</time>
      </trkpt>
      <trkpt lat="40.800613" lon="-3.930193">
        <ele>2360.9</ele>
        <time>2018-04-21T11:07:45.000Z</time>
      </trkpt>
      <trkpt lat="40.800616" lon="-3.930201">
        <ele>2361.0</ele>
        <time>2018-04-21T11:07:46.000Z</time>
      </trkpt>
      <trkpt lat="40.800619" lon="-3.93021">
        <ele>2361.2</ele>
        <time>2018-04-21T11:07:47.000Z</time>
      </trkpt>
      <trkpt lat="40.800622" lon="-3.930218">
        <ele>2361.3</ele>
        <time>2018-04-21T11:07:48.000Z</time>
      </trkpt>
      <trkpt lat="40.800625" lon="-3.930226">
        <ele>2361.4</ele>
        <time>2018-04-21T11:07:49.000Z</time>
      </trkpt>
      <trkpt lat="40.800628" lon="-3.930235">
        <ele>2361.5</ele>
        <time>2018-04-21T11:07:50.000Z</time>
      </trkpt>
      <trkpt lat="40.800631" lon="-3.930243">
        <ele>2361.6</ele>
        <time>2018-04-21T11:07:51.000Z</time>
      </trkpt>
      <trkpt lat="40.800633" lon="-3.930252">
        <ele>2361.7</ele>
        <time>2018-04-21T11:07:52.000Z</time>
      </trkpt>
      <trkpt lat="40.800634" lon="-3.93026">
        <ele>2361.8</ele>
        <time>2018-04-21T11:07:53.000Z</time>
      </trkpt>
      <trkpt lat="40.800635" lon="-3.930269">
        <ele>2361.9</ele>
        <time>2018-04-21T11:07:54.000Z</time>
      </trkpt>
      <trkpt lat="40.800635" lon="-3.930277">
        <ele>2362.0</ele>
        <time>2018-04-21T11:07:55.000Z</time>
      </trkpt>
      <trkpt lat="40.800635" lon="-3.930286">
        <ele>2362.1</ele>
        <time>2018-04-21T11:07:56.000Z</time>
      </trkpt>
      <trkpt lat="40.800633" lon="-3.930295">
        <ele>2362.1</ele>
        <time>2018-04-21T11:07:57.000Z</time>
      </trkpt>
      <trkpt lat="40.800631" lon="-3.930303">
        <ele>2362.1</ele>
        <time>2018-04-21T11:07:58.000Z</time>
      </trkpt>
      <trkpt lat="40.800628" lon="-3.930312">
        <ele>2362.2</ele>
        <time>2018-04-21T11:07:59.000Z</time>
      </trkpt>
      <trkpt lat="40.800623" lon="-3.930321">
        <ele>2362.2</ele>
        <time>2018-04-21T11:08:00.000Z</time>
      </trkpt>
      <trkpt lat="40.800618" lon="-3.93033">
        <ele>2362.2</ele>
        <time>2018-04-21T11:08:01.000Z</time>
      </trkpt>
      <trkpt lat="40.800612" lon="-3.930339">
        <ele>2362.2</ele>
        <time>2018-04-21T11:08:02.000Z</time>
      </trkpt>
      <trkpt lat="40.800606" lon="-3.930348">
        <ele>2362.2</ele>
        <time>2018-04-21T11:08:03.000Z</time>
      </trkpt>
      <trkpt lat="40.8006" lon="-3.930358">
        <ele>2362.2</ele>
        <time>2018-04-21T11:08:04.000Z</time>
      </trkpt>
      <trkpt lat="40.800594" lon="-3.930368">
        <ele>2362.2</ele>
        <time>2018-04-21T11:08:05.000Z</time>
      </trkpt>
      <trkpt lat="40.800589" lon="-3.930378">
        <ele>2362.2</ele>
        <time>2018-04-21T11:08:06.000Z</time>
      </trkpt>
      <trkpt lat="40.800586" lon="-3.930389">
        <ele>2362.3</ele>
        <time>2018-04-21T11:08:07.000Z</time>
      </trkpt>
      <trkpt lat="40.800583" lon="-3.9304">
        <ele>2362.3</ele>
        <time>2018-04-21T11:08:08.000Z</time>
      </trkpt>
      <trkpt lat="40.800583" lon="-3.930412">
        <ele>2362.5</ele>
        <time>2018-04-21T11:08:09.000Z</time>
      </trkpt>
      <trkpt lat="40.800583" lon="-3.930424">
        <ele>2362.6</ele>
        <time>2018-04-21T11:08:10.000Z</time>
      </trkpt>
      <trkpt lat="40.800584" lon="-3.930437">
        <ele>2362.7</ele>
        <time>2018-04-21T11:08:11.000Z</time>
      </trkpt>
      <trkpt lat="40.800585" lon="-3.930449">
        <ele>2362.8</ele>
        <time>2018-04-21T11:08:12.000Z</time>
      </trkpt>
      <trkpt lat="40.800586" lon="-3.930462">
        <ele>2363.0</ele>
        <time>2018-04-21T11:08:13.000Z</time>
      </trkpt>
      <trkpt lat="40.800585" lon="-3.930475">
        <ele>2363.1</ele>
        <time>2018-04-21T11:08:14.000Z</time>
      </trkpt>
      <trkpt lat="40.800584" lon="-3.930487">
        <ele>2363.2</ele>
        <time>2018-04-21T11:08:15.000Z</time>
      </trkpt>
      <trkpt lat="40.800581" lon="-3.9305">
        <ele>2363.3</ele>
        <time>2018-04-21T11:08:16.000Z</time>
      </trkpt>
      <trkpt lat="40.800578" lon="-3.930513">
        <ele>2363.3</ele>
        <time>2018-04-21T11:08:17.000Z</time>
      </trkpt>
      <trkpt lat="40.800574" lon="-3.930526">
        <ele>2363.4</ele>
        <time>2018-04-21T11:08:18.000Z</time>
      </trkpt>
      <trkpt lat="40.80057" lon="-3.930539">
        <ele>2363.5</ele>
        <time>2018-04-21T11:08:19.000Z</time>
      </trkpt>
      <trkpt lat="40.800566" lon="-3.930553">
        <ele>2363.6</ele>
        <time>2018-04-21T11:08:20.000Z</time>
      </trkpt>
      <trkpt lat="40.800561" lon="-3.930566">
        <ele>2363.7</ele>
        <time>2018-04-21T11:08:21.000Z</time>
      </trkpt>
      <trkpt lat="40.800557" lon="-3.930579">
        <ele>2363.8</ele>
        <time>2018-04-21T11:08:22.000Z</time>
      </trkpt>
      <trkpt lat="40.800553" lon="-3.930592">
        <ele>2363.9</ele>
        <time>2018-04-21T11:08:23.000Z</time>
      </trkpt>
      <trkpt lat="40.800549" lon="-3.930603">
        <ele>2364.0</ele>
        <time>2018-04-21T11:08:24.000Z</time>
      </trkpt>
      <trkpt lat="40.800546" lon="-3.930615">
        <ele>2364.1</ele>
        <time>2018-04-21T11:08:25.000Z</time>
      </trkpt>
      <trkpt lat="40.800543" lon="-3.930625">
        <ele>2364.2</ele>
        <time>2018-04-21T11:08:26.000Z</time>
      </trkpt>
      <trkpt lat="40.800542" lon="-3.930634">
        <ele>2364.2</ele>
        <time>2018-04-21T11:08:27.000Z</time>
      </trkpt>
      <trkpt lat="40.800541" lon="-3.930643">
        <ele>2364.3</ele>
        <time>2018-04-21T11:08:28.000Z</time>
      </trkpt>
      <trkpt lat="40.800541" lon="-3.93065">
        <ele>2364.4</ele>
        <time>2018-04-21T11:08:29.000Z</time>
      </trkpt>
      <trkpt lat="40.800541" lon="-3.930658">
        <ele>2364.5</ele>
        <time>2018-04-21T11:08:30.000Z</time>
      </trkpt>
      <trkpt lat="40.80054" lon="-3.930665">
        <ele>2364.6</ele>
        <time>2018-04-21T11:08:31.000Z</time>
      </trkpt>
      <trkpt lat="40.80054" lon="-3.930671">
        <ele>2364.6</ele>
        <time>2018-04-21T11:08:32.000Z</time>
      </trkpt>
      <trkpt lat="40.800539" lon="-3.930678">
        <ele>2364.7</ele>
        <time>2018-04-21T11:08:33.000Z</time>
      </trkpt>
      <trkpt lat="40.800536" lon="-3.930685">
        <ele>2364.7</ele>
        <time>2018-04-21T11:08:34.000Z</time>
      </trkpt>
      <trkpt lat="40.800533" lon="-3.930693">
        <ele>2364.8</ele>
        <time>2018-04-21T11:08:35.000Z</time>
      </trkpt>
      <trkpt lat="40.800529" lon="-3.930701">
        <ele>2364.9</ele>
        <time>2018-04-21T11:08:36.000Z</time>
      </trkpt>
      <trkpt lat="40.800523" lon="-3.93071">
        <ele>2364.9</ele>
        <time>2018-04-21T11:08:37.000Z</time>
      </trkpt>
      <trkpt lat="40.800517" lon="-3.930719">
        <ele>2365.0</ele>
        <time>2018-04-21T11:08:38.000Z</time>
      </trkpt>
      <trkpt lat="40.80051" lon="-3.930729">
        <ele>2365.1</ele>
        <time>2018-04-21T11:08:39.000Z</time>
      </trkpt>
      <trkpt lat="40.800503" lon="-3.93074">
        <ele>2365.2</ele>
        <time>2018-04-21T11:08:40.000Z</time>
      </trkpt>
      <trkpt lat="40.800496" lon="-3.930752">
        <ele>2365.3</ele>
        <time>2018-04-21T11:08:41.000Z</time>
      </trkpt>
      <trkpt lat="40.800489" lon="-3.930765">
        <ele>2365.4</ele>
        <time>2018-04-21T11:08:42.000Z</time>
      </trkpt>
      <trkpt lat="40.800483" lon="-3.930778">
        <ele>2365.5</ele>
        <time>2018-04-21T11:08:43.000Z</time>
      </trkpt>
      <trkpt lat="40.800478" lon="-3.930792">
        <ele>2365.7</ele>
        <time>2018-04-21T11:08:44.000Z</time>
      </trkpt>
      <trkpt lat="40.800475" lon="-3.930807">
        <ele>2365.8</ele>
        <time>2018-04-21T11:08:45.000Z</time>
      </trkpt>
      <trkpt lat="40.800472" lon="-3.930822">
        <ele>2366.0</ele>
        <time>2018-04-21T11:08:46.000Z</time>
      </trkpt>
      <trkpt lat="40.80047" lon="-3.930838">
        <ele>2366.1</ele>
        <time>2018-04-21T11:08:47.000Z</time>
      </trkpt>
      <trkpt lat="40.800469" lon="-3.930854">
        <ele>2366.0</ele>
        <time>2018-04-21T11:08:48.000Z</time>
      </trkpt>
      <trkpt lat="40.800469" lon="-3.930868">
        <ele>2365.9</ele>
        <time>2018-04-21T11:08:49.000Z</time>
      </trkpt>
      <trkpt lat="40.800469" lon="-3.930882">
        <ele>2365.9</ele>
        <time>2018-04-21T11:08:50.000Z</time>
      </trkpt>
      <trkpt lat="40.80047" lon="-3.930895">
        <ele>2365.8</ele>
        <time>2018-04-21T11:08:51.000Z</time>
      </trkpt>
      <trkpt lat="40.80047" lon="-3.930906">
        <ele>2365.7</ele>
        <time>2018-04-21T11:08:52.000Z</time>
      </trkpt>
      <trkpt lat="40.800471" lon="-3.930915">
        <ele>2365.7</ele>
        <time>2018-04-21T11:08:53.000Z</time>
      </trkpt>
      <trkpt lat="40.800472" lon="-3.930922">
        <ele>2365.6</ele>
        <time>2018-04-21T11:08:54.000Z</time>
      </trkpt>
      <trkpt lat="40.800473" lon="-3.930927">
        <ele>2365.6</ele>
        <time>2018-04-21T11:08:55.000Z</time>
      </trkpt>
      <trkpt lat="40.800474" lon="-3.930933">
        <ele>2365.6</ele>
        <time>2018-04-21T11:08:56.000Z</time>
      </trkpt>
      <trkpt lat="40.800475" lon="-3.93094">
        <ele>2365.5</ele>
        <time>2018-04-21T11:08:57.000Z</time>
      </trkpt>
      <trkpt lat="40.800477" lon="-3.93095">
        <ele>2365.5</ele>
        <time>2018-04-21T11:08:58.000Z</time>
      </trkpt>
      <trkpt lat="40.800478" lon="-3.930963">
        <ele>2365.4</ele>
        <time>2018-04-21T11:08:59.000Z</time>
      </trkpt>
      <trkpt lat="40.80048" lon="-3.930979">
        <ele>2365.3</ele>
        <time>2018-04-21T11:09:00.000Z</time>
      </trkpt>
      <trkpt lat="40.800481" lon="-3.930996">
        <ele>2365.2</ele>
        <time>2018-04-21T11:09:01.000Z</time>
      </trkpt>
      <trkpt lat="40.800482" lon="-3.931014">
        <ele>2365.1</ele>
        <time>2018-04-21T11:09:02.000Z</time>
      </trkpt>
      <trkpt lat="40.800483" lon="-3.931031">
        <ele>2365.0</ele>
        <time>2018-04-21T11:09:03.000Z</time>
      </trkpt>
      <trkpt lat="40.800482" lon="-3.931049">
        <ele>2364.9</ele>
        <time>2018-04-21T11:09:04.000Z</time>
      </trkpt>
      <trkpt lat="40.800481" lon="-3.931065">
        <ele>2364.8</ele>
        <time>2018-04-21T11:09:05.000Z</time>
      </trkpt>
      <trkpt lat="40.800479" lon="-3.931082">
        <ele>2364.7</ele>
        <time>2018-04-21T11:09:06.000Z</time>
      </trkpt>
      <trkpt lat="40.800476" lon="-3.931097">
        <ele>2364.6</ele>
        <time>2018-04-21T11:09:07.000Z</time>
      </trkpt>
      <trkpt lat="40.800473" lon="-3.931113">
        <ele>2364.5</ele>
        <time>2018-04-21T11:09:08.000Z</time>
      </trkpt>
      <trkpt lat="40.800469" lon="-3.931127">
        <ele>2364.5</ele>
        <time>2018-04-21T11:09:09.000Z</time>
      </trkpt>
      <trkpt lat="40.800464" lon="-3.931142">
        <ele>2364.4</ele>
        <time>2018-04-21T11:09:10.000Z</time>
      </trkpt>
      <trkpt lat="40.800458" lon="-3.931155">
        <ele>2364.4</ele>
        <time>2018-04-21T11:09:11.000Z</time>
      </trkpt>
      <trkpt lat="40.800452" lon="-3.931168">
        <ele>2364.4</ele>
        <time>2018-04-21T11:09:12.000Z</time>
      </trkpt>
      <trkpt lat="40.800445" lon="-3.93118">
        <ele>2364.3</ele>
        <time>2018-04-21T11:09:13.000Z</time>
      </trkpt>
      <trkpt lat="40.800438" lon="-3.931192">
        <ele>2364.3</ele>
        <time>2018-04-21T11:09:14.000Z</time>
      </trkpt>
      <trkpt lat="40.800431" lon="-3.931204">
        <ele>2364.3</ele>
        <time>2018-04-21T11:09:15.000Z</time>
      </trkpt>
      <trkpt lat="40.800423" lon="-3.931215">
        <ele>2364.3</ele>
        <time>2018-04-21T11:09:16.000Z</time>
      </trkpt>
      <trkpt lat="40.800415" lon="-3.931226">
        <ele>2364.4</ele>
        <time>2018-04-21T11:09:17.000Z</time>
      </trkpt>
      <trkpt lat="40.800408" lon="-3.931237">
        <ele>2364.4</ele>
        <time>2018-04-21T11:09:18.000Z</time>
      </trkpt>
      <trkpt lat="40.8004" lon="-3.931248">
        <ele>2364.4</ele>
        <time>2018-04-21T11:09:19.000Z</time>
      </trkpt>
      <trkpt lat="40.800393" lon="-3.931258">
        <ele>2364.4</ele>
        <time>2018-04-21T11:09:20.000Z</time>
      </trkpt>
      <trkpt lat="40.800386" lon="-3.931268">
        <ele>2364.5</ele>
        <time>2018-04-21T11:09:21.000Z</time>
      </trkpt>
      <trkpt lat="40.80038" lon="-3.931279">
        <ele>2364.5</ele>
        <time>2018-04-21T11:09:22.000Z</time>
      </trkpt>
      <trkpt lat="40.800374" lon="-3.931289">
        <ele>2364.5</ele>
        <time>2018-04-21T11:09:23.000Z</time>
      </trkpt>
      <trkpt lat="40.800368" lon="-3.931299">
        <ele>2364.5</ele>
        <time>2018-04-21T11:09:24.000Z</time>
      </trkpt>
      <trkpt lat="40.800362" lon="-3.931309">
        <ele>2364.6</ele>
        <time>2018-04-21T11:09:25.000Z</time>
      </trkpt>
      <trkpt lat="40.800357" lon="-3.931318">
        <ele>2364.6</ele>
        <time>2018-04-21T11:09:26.000Z</time>
      </trkpt>
      <trkpt lat="40.800352" lon="-3.931327">
        <ele>2364.6</ele>
        <time>2018-04-21T11:09:27.000Z</time>
      </trkpt>
      <trkpt lat="40.800347" lon="-3.931336">
        <ele>2364.7</ele>
        <time>2018-04-21T11:09:28.000Z</time>
      </trkpt>
      <trkpt lat="40.800343" lon="-3.931344">
        <ele>2364.7</ele>
        <time>2018-04-21T11:09:29.000Z</time>
      </trkpt>
      <trkpt lat="40.800338" lon="-3.931352">
        <ele>2364.7</ele>
        <time>2018-04-21T11:09:30.000Z</time>
      </trkpt>
      <trkpt lat="40.800334" lon="-3.931359">
        <ele>2364.8</ele>
        <time>2018-04-21T11:09:31.000Z</time>
      </trkpt>
      <trkpt lat="40.80033" lon="-3.931366">
        <ele>2364.8</ele>
        <time>2018-04-21T11:09:32.000Z</time>
      </trkpt>
      <trkpt lat="40.800325" lon="-3.931373">
        <ele>2364.9</ele>
        <time>2018-04-21T11:09:33.000Z</time>
      </trkpt>
      <trkpt lat="40.800321" lon="-3.93138">
        <ele>2364.9</ele>
        <time>2018-04-21T11:09:34.000Z</time>
      </trkpt>
      <trkpt lat="40.800316" lon="-3.931387">
        <ele>2365.0</ele>
        <time>2018-04-21T11:09:35.000Z</time>
      </trkpt>
      <trkpt lat="40.800311" lon="-3.931394">
        <ele>2365.0</ele>
        <time>2018-04-21T11:09:36.000Z</time>
      </trkpt>
      <trkpt lat="40.800306" lon="-3.931402">
        <ele>2365.1</ele>
        <time>2018-04-21T11:09:37.000Z</time>
      </trkpt>
      <trkpt lat="40.8003" lon="-3.93141">
        <ele>2365.1</ele>
        <time>2018-04-21T11:09:38.000Z</time>
      </trkpt>
      <trkpt lat="40.800294" lon="-3.931419">
        <ele>2365.2</ele>
        <time>2018-04-21T11:09:39.000Z</time>
      </trkpt>
      <trkpt lat="40.800288" lon="-3.931428">
        <ele>2365.3</ele>
        <time>2018-04-21T11:09:40.000Z</time>
      </trkpt>
      <trkpt lat="40.800282" lon="-3.931438">
        <ele>2365.4</ele>
        <time>2018-04-21T11:09:41.000Z</time>
      </trkpt>
      <trkpt lat="40.800275" lon="-3.931449">
        <ele>2365.5</ele>
        <time>2018-04-21T11:09:42.000Z</time>
      </trkpt>
      <trkpt lat="40.800268" lon="-3.93146">
        <ele>2365.6</ele>
        <time>2018-04-21T11:09:43.000Z</time>
      </trkpt>
      <trkpt lat="40.800261" lon="-3.931472">
        <ele>2365.7</ele>
        <time>2018-04-21T11:09:44.000Z</time>
      </trkpt>
      <trkpt lat="40.800254" lon="-3.931484">
        <ele>2365.8</ele>
        <time>2018-04-21T11:09:45.000Z</time>
      </trkpt>
      <trkpt lat="40.800247" lon="-3.931497">
        <ele>2365.9</ele>
        <time>2018-04-21T11:09:46.000Z</time>
      </trkpt>
      <trkpt lat="40.80024" lon="-3.93151">
        <ele>2366.0</ele>
        <time>2018-04-21T11:09:47.000Z</time>
      </trkpt>
      <trkpt lat="40.800233" lon="-3.931523">
        <ele>2366.1</ele>
        <time>2018-04-21T11:09:48.000Z</time>
      </trkpt>
      <trkpt lat="40.800226" lon="-3.931537">
        <ele>2366.3</ele>
        <time>2018-04-21T11:09:49.000Z</time>
      </trkpt>
      <trkpt lat="40.80022" lon="-3.93155">
        <ele>2366.4</ele>
        <time>2018-04-21T11:09:50.000Z</time>
      </trkpt>
      <trkpt lat="40.800213" lon="-3.931563">
        <ele>2366.5</ele>
        <time>2018-04-21T11:09:51.000Z</time>
      </trkpt>
      <trkpt lat="40.800206" lon="-3.931577">
        <ele>2366.7</ele>
        <time>2018-04-21T11:09:52.000Z</time>
      </trkpt>
      <trkpt lat="40.800199" lon="-3.931589">
        <ele>2366.8</ele>
        <time>2018-04-21T11:09:53.000Z</time>
      </trkpt>
      <trkpt lat="40.800192" lon="-3.931601">
        <ele>2367.0</ele>
        <time>2018-04-21T11:09:54.000Z</time>
      </trkpt>
      <trkpt lat="40.800184" lon="-3.931612">
        <ele>2367.1</ele>
        <time>2018-04-21T11:09:55.000Z</time>
      </trkpt>
      <trkpt lat="40.800176" lon="-3.931621">
        <ele>2367.3</ele>
        <time>2018-04-21T11:09:56.000Z</time>
      </trkpt>
      <trkpt lat="40.800168" lon="-3.93163">
        <ele>2367.5</ele>
        <time>2018-04-21T11:09:57.000Z</time>
      </trkpt>
      <trkpt lat="40.80016" lon="-3.931637">
        <ele>2367.7</ele>
        <time>2018-04-21T11:09:58.000Z</time>
      </trkpt>
      <trkpt lat="40.800152" lon="-3.931644">
        <ele>2367.8</ele>
        <time>2018-04-21T11:09:59.000Z</time>
      </trkpt>
      <trkpt lat="40.800143" lon="-3.93165">
        <ele>2368.0</ele>
        <time>2018-04-21T11:10:00.000Z</time>
      </trkpt>
      <trkpt lat="40.800135" lon="-3.931656">
        <ele>2368.2</ele>
        <time>2018-04-21T11:10:01.000Z</time>
      </trkpt>
      <trkpt lat="40.800126" lon="-3.931662">
        <ele>2368.4</ele>
        <time>2018-04-21T11:10:02.000Z</time>
      </trkpt>
      <trkpt lat="40.800118" lon="-3.931668">
        <ele>2368.6</ele>
        <time>2018-04-21T11:10:03.000Z</time>
      </trkpt>
      <trkpt lat="40.80011" lon="-3.931674">
        <ele>2368.7</ele>
        <time>2018-04-21T11:10:04.000Z</time>
      </trkpt>
      <trkpt lat="40.800102" lon="-3.931682">
        <ele>2368.8</ele>
        <time>2018-04-21T11:10:05.000Z</time>
      </trkpt>
      <trkpt lat="40.800094" lon="-3.93169">
        <ele>2368.9</ele>
        <time>2018-04-21T11:10:06.000Z</time>
      </trkpt>
      <trkpt lat="40.800087" lon="-3.931699">
        <ele>2368.9</ele>
        <time>2018-04-21T11:10:07.000Z</time>
      </trkpt>
      <trkpt lat="40.80008" lon="-3.931708">
        <ele>2369.0</ele>
        <time>2018-04-21T11:10:08.000Z</time>
      </trkpt>
      <trkpt lat="40.800072" lon="-3.931718">
        <ele>2369.1</ele>
        <time>2018-04-21T11:10:09.000Z</time>
      </trkpt>
      <trkpt lat="40.800066" lon="-3.931728">
        <ele>2369.1</ele>
        <time>2018-04-21T11:10:10.000Z</time>
      </trkpt>
      <trkpt lat="40.800059" lon="-3.931738">
        <ele>2369.2</ele>
        <time>2018-04-21T11:10:11.000Z</time>
      </trkpt>
      <trkpt lat="40.800052" lon="-3.931749">
        <ele>2369.2</ele>
        <time>2018-04-21T11:10:12.000Z</time>
      </trkpt>
      <trkpt lat="40.800045" lon="-3.931759">
        <ele>2369.3</ele>
        <time>2018-04-21T11:10:13.000Z</time>
      </trkpt>
      <trkpt lat="40.800038" lon="-3.931768">
        <ele>2369.4</ele>
        <time>2018-04-21T11:10:14.000Z</time>
      </trkpt>
      <trkpt lat="40.800031" lon="-3.931777">
        <ele>2369.5</ele>
        <time>2018-04-21T11:10:15.000Z</time>
      </trkpt>
      <trkpt lat="40.800024" lon="-3.931785">
        <ele>2369.6</ele>
        <time>2018-04-21T11:10:16.000Z</time>
      </trkpt>
      <trkpt lat="40.800017" lon="-3.931793">
        <ele>2369.7</ele>
        <time>2018-04-21T11:10:17.000Z</time>
      </trkpt>
      <trkpt lat="40.80001" lon="-3.931801">
        <ele>2369.8</ele>
        <time>2018-04-21T11:10:18.000Z</time>
      </trkpt>
      <trkpt lat="40.800002" lon="-3.931809">
        <ele>2369.9</ele>
        <time>2018-04-21T11:10:19.000Z</time>
      </trkpt>
      <trkpt lat="40.799995" lon="-3.931816">
        <ele>2369.9</ele>
        <time>2018-04-21T11:10:20.000Z</time>
      </trkpt>
      <trkpt lat="40.799987" lon="-3.931824">
        <ele>2369.7</ele>
        <time>2018-04-21T11:10:21.000Z</time>
      </trkpt>
      <trkpt lat="40.79998" lon="-3.931833">
        <ele>2369.5</ele>
        <time>2018-04-21T11:10:22.000Z</time>
      </trkpt>
      <trkpt lat="40.799972" lon="-3.931841">
        <ele>2369.4</ele>
        <time>2018-04-21T11:10:23.000Z</time>
      </trkpt>
      <trkpt lat="40.799964" lon="-3.931851">
        <ele>2369.2</ele>
        <time>2018-04-21T11:10:24.000Z</time>
      </trkpt>
      <trkpt lat="40.799956" lon="-3.931861">
        <ele>2369.0</ele>
        <time>2018-04-21T11:10:25.000Z</time>
      </trkpt>
      <trkpt lat="40.799948" lon="-3.931871">
        <ele>2368.9</ele>
        <time>2018-04-21T11:10:26.000Z</time>
      </trkpt>
      <trkpt lat="40.79994" lon="-3.931882">
        <ele>2368.7</ele>
        <time>2018-04-21T11:10:27.000Z</time>
      </trkpt>
      <trkpt lat="40.799933" lon="-3.931892">
        <ele>2368.6</ele>
        <time>2018-04-21T11:10:28.000Z</time>
      </trkpt>
      <trkpt lat="40.799925" lon="-3.931903">
        <ele>2368.4</ele>
        <time>2018-04-21T11:10:29.000Z</time>
      </trkpt>
      <trkpt lat="40.799917" lon="-3.931915">
        <ele>2368.2</ele>
        <time>2018-04-21T11:10:30.000Z</time>
      </trkpt>
      <trkpt lat="40.79991" lon="-3.931925">
        <ele>2368.1</ele>
        <time>2018-04-21T11:10:31.000Z</time>
      </trkpt>
      <trkpt lat="40.799903" lon="-3.931936">
        <ele>2368.0</ele>
        <time>2018-04-21T11:10:32.000Z</time>
      </trkpt>
      <trkpt lat="40.799897" lon="-3.931947">
        <ele>2367.8</ele>
        <time>2018-04-21T11:10:33.000Z</time>
      </trkpt>
      <trkpt lat="40.79989" lon="-3.931957">
        <ele>2367.7</ele>
        <time>2018-04-21T11:10:34.000Z</time>
      </trkpt>
      <trkpt lat="40.799884" lon="-3.931968">
        <ele>2367.6</ele>
        <time>2018-04-21T11:10:35.000Z</time>
      </trkpt>
      <trkpt lat="40.799879" lon="-3.931978">
        <ele>2367.5</ele>
        <time>2018-04-21T11:10:36.000Z</time>
      </trkpt>
      <trkpt lat="40.799874" lon="-3.931988">
        <ele>2367.4</ele>
        <time>2018-04-21T11:10:37.000Z</time>
      </trkpt>
      <trkpt lat="40.799869" lon="-3.931998">
        <ele>2367.3</ele>
        <time>2018-04-21T11:10:38.000Z</time>
      </trkpt>
      <trkpt lat="40.799864" lon="-3.932009">
        <ele>2367.2</ele>
        <time>2018-04-21T11:10:39.000Z</time>
      </trkpt>
      <trkpt lat="40.79986" lon="-3.932019">
        <ele>2367.1</ele>
        <time>2018-04-21T11:10:40.000Z</time>
      </trkpt>
      <trkpt lat="40.799856" lon="-3.93203">
        <ele>2367.0</ele>
        <time>2018-04-21T11:10:41.000Z</time>
      </trkpt>
      <trkpt lat="40.799852" lon="-3.932042">
        <ele>2366.9</ele>
        <time>2018-04-21T11:10:42.000Z</time>
      </trkpt>
      <trkpt lat="40.799847" lon="-3.932054">
        <ele>2366.8</ele>
        <time>2018-04-21T11:10:43.000Z</time>
      </trkpt>
      <trkpt lat="40.799843" lon="-3.932066">
        <ele>2366.8</ele>
        <time>2018-04-21T11:10:44.000Z</time>
      </trkpt>
      <trkpt lat="40.799838" lon="-3.932078">
        <ele>2366.7</ele>
        <time>2018-04-21T11:10:45.000Z</time>
      </trkpt>
      <trkpt lat="40.799834" lon="-3.93209">
        <ele>2366.6</ele>
        <time>2018-04-21T11:10:46.000Z</time>
      </trkpt>
      <trkpt lat="40.799829" lon="-3.932103">
        <ele>2366.5</ele>
        <time>2018-04-21T11:10:47.000Z</time>
      </trkpt>
      <trkpt lat="40.799824" lon="-3.932116">
        <ele>2366.4</ele>
        <time>2018-04-21T11:10:48.000Z</time>
      </trkpt>
      <trkpt lat="40.799819" lon="-3.932129">
        <ele>2366.3</ele>
        <time>2018-04-21T11:10:49.000Z</time>
      </trkpt>
      <trkpt lat="40.799814" lon="-3.932141">
        <ele>2366.2</ele>
        <time>2018-04-21T11:10:50.000Z</time>
      </trkpt>
      <trkpt lat="40.799809" lon="-3.932154">
        <ele>2366.2</ele>
        <time>2018-04-21T11:10:51.000Z</time>
      </trkpt>
      <trkpt lat="40.799803" lon="-3.932167">
        <ele>2366.1</ele>
        <time>2018-04-21T11:10:52.000Z</time>
      </trkpt>
      <trkpt lat="40.799798" lon="-3.932179">
        <ele>2366.0</ele>
        <time>2018-04-21T11:10:53.000Z</time>
      </trkpt>
      <trkpt lat="40.799793" lon="-3.932191">
        <ele>2365.9</ele>
        <time>2018-04-21T11:10:54.000Z</time>
      </trkpt>
      <trkpt lat="40.799787" lon="-3.932203">
        <ele>2365.9</ele>
        <time>2018-04-21T11:10:55.000Z</time>
      </trkpt>
      <trkpt lat="40.799781" lon="-3.932215">
        <ele>2365.8</ele>
        <time>2018-04-21T11:10:56.000Z</time>
      </trkpt>
      <trkpt lat="40.799776" lon="-3.932226">
        <ele>2365.7</ele>
        <time>2018-04-21T11:10:57.000Z</time>
      </trkpt>
      <trkpt lat="40.79977" lon="-3.932237">
        <ele>2365.7</ele>
        <time>2018-04-21T11:10:58.000Z</time>
      </trkpt>
      <trkpt lat="40.799764" lon="-3.932248">
        <ele>2365.6</ele>
        <time>2018-04-21T11:10:59.000Z</time>
      </trkpt>
      <trkpt lat="40.799758" lon="-3.932258">
        <ele>2365.6</ele>
        <time>2018-04-21T11:11:00.000Z</time>
      </trkpt>
      <trkpt lat="40.799752" lon="-3.932267">
        <ele>2365.5</ele>
        <time>2018-04-21T11:11:01.000Z</time>
      </trkpt>
      <trkpt lat="40.799746" lon="-3.932276">
        <ele>2365.5</ele>
        <time>2018-04-21T11:11:02.000Z</time>
      </trkpt>
      <trkpt lat="40.79974" lon="-3.932284">
        <ele>2365.4</ele>
        <time>2018-04-21T11:11:03.000Z</time>
      </trkpt>
      <trkpt lat="40.799734" lon="-3.932292">
        <ele>2365.4</ele>
        <time>2018-04-21T11:11:04.000Z</time>
      </trkpt>
      <trkpt lat="40.799728" lon="-3.932298">
        <ele>2365.3</ele>
        <time>2018-04-21T11:11:05.000Z</time>
      </trkpt>
      <trkpt lat="40.799722" lon="-3.932304">
        <ele>2365.3</ele>
        <time>2018-04-21T11:11:06.000Z</time>
      </trkpt>
      <trkpt lat="40.799716" lon="-3.932309">
        <ele>2365.3</ele>
        <time>2018-04-21T11:11:07.000Z</time>
      </trkpt>
      <trkpt lat="40.79971" lon="-3.932313">
        <ele>2365.3</ele>
        <time>2018-04-21T11:11:08.000Z</time>
      </trkpt>
      <trkpt lat="40.799704" lon="-3.932316">
        <ele>2365.2</ele>
        <time>2018-04-21T11:11:09.000Z</time>
      </trkpt>
      <trkpt lat="40.799698" lon="-3.932318">
        <ele>2365.2</ele>
        <time>2018-04-21T11:11:10.000Z</time>
      </trkpt>
      <trkpt lat="40.799692" lon="-3.93232">
        <ele>2365.2</ele>
        <time>2018-04-21T11:11:11.000Z</time>
      </trkpt>
      <trkpt lat="40.799686" lon="-3.932322">
        <ele>2365.2</ele>
        <time>2018-04-21T11:11:12.000Z</time>
      </trkpt>
      <trkpt lat="40.799681" lon="-3.932326">
        <ele>2365.1</ele>
        <time>2018-04-21T11:11:13.000Z</time>
      </trkpt>
      <trkpt lat="40.799676" lon="-3.932332">
        <ele>2365.1</ele>
        <time>2018-04-21T11:11:14.000Z</time>
      </trkpt>
      <trkpt lat="40.799672" lon="-3.932341">
        <ele>2365.1</ele>
        <time>2018-04-21T11:11:15.000Z</time>
      </trkpt>
      <trkpt lat="40.799667" lon="-3.932352">
        <ele>2365.1</ele>
        <time>2018-04-21T11:11:16.000Z</time>
      </trkpt>
      <trkpt lat="40.799663" lon="-3.932364">
        <ele>2365.1</ele>
        <time>2018-04-21T11:11:17.000Z</time>
      </trkpt>
      <trkpt lat="40.799659" lon="-3.932377">
        <ele>2365.0</ele>
        <time>2018-04-21T11:11:18.000Z</time>
      </trkpt>
      <trkpt lat="40.799655" lon="-3.932389">
        <ele>2365.0</ele>
        <time>2018-04-21T11:11:19.000Z</time>
      </trkpt>
      <trkpt lat="40.79965" lon="-3.932401">
        <ele>2365.0</ele>
        <time>2018-04-21T11:11:20.000Z</time>
      </trkpt>
      <trkpt lat="40.799645" lon="-3.932412">
        <ele>2365.0</ele>
        <time>2018-04-21T11:11:21.000Z</time>
      </trkpt>
      <trkpt lat="40.79964" lon="-3.932423">
        <ele>2365.0</ele>
        <time>2018-04-21T11:11:22.000Z</time>
      </trkpt>
      <trkpt lat="40.799635" lon="-3.932433">
        <ele>2365.0</ele>
        <time>2018-04-21T11:11:23.000Z</time>
      </trkpt>
      <trkpt lat="40.79963" lon="-3.932443">
        <ele>2365.0</ele>
        <time>2018-04-21T11:11:24.000Z</time>
      </trkpt>
      <trkpt lat="40.799624" lon="-3.932452">
        <ele>2365.0</ele>
        <time>2018-04-21T11:11:25.000Z</time>
      </trkpt>
      <trkpt lat="40.799619" lon="-3.932461">
        <ele>2365.0</ele>
        <time>2018-04-21T11:11:26.000Z</time>
      </trkpt>
      <trkpt lat="40.799613" lon="-3.932469">
        <ele>2365.0</ele>
        <time>2018-04-21T11:11:27.000Z</time>
      </trkpt>
      <trkpt lat="40.799608" lon="-3.932477">
        <ele>2365.0</ele>
        <time>2018-04-21T11:11:28.000Z</time>
      </trkpt>
      <trkpt lat="40.799602" lon="-3.932484">
        <ele>2365.0</ele>
        <time>2018-04-21T11:11:29.000Z</time>
      </trkpt>
      <trkpt lat="40.799596" lon="-3.932491">
        <ele>2365.0</ele>
        <time>2018-04-21T11:11:30.000Z</time>
      </trkpt>
      <trkpt lat="40.799591" lon="-3.932498">
        <ele>2365.0</ele>
        <time>2018-04-21T11:11:31.000Z</time>
      </trkpt>
      <trkpt lat="40.799585" lon="-3.932505">
        <ele>2365.0</ele>
        <time>2018-04-21T11:11:32.000Z</time>
      </trkpt>
      <trkpt lat="40.799579" lon="-3.932512">
        <ele>2364.9</ele>
        <time>2018-04-21T11:11:33.000Z</time>
      </trkpt>
      <trkpt lat="40.799574" lon="-3.93252">
        <ele>2364.8</ele>
        <time>2018-04-21T11:11:34.000Z</time>
      </trkpt>
      <trkpt lat="40.799569" lon="-3.932527">
        <ele>2364.8</ele>
        <time>2018-04-21T11:11:35.000Z</time>
      </trkpt>
      <trkpt lat="40.799563" lon="-3.932536">
        <ele>2364.7</ele>
        <time>2018-04-21T11:11:36.000Z</time>
      </trkpt>
      <trkpt lat="40.799558" lon="-3.932545">
        <ele>2364.6</ele>
        <time>2018-04-21T11:11:37.000Z</time>
      </trkpt>
      <trkpt lat="40.799554" lon="-3.932554">
        <ele>2364.6</ele>
        <time>2018-04-21T11:11:38.000Z</time>
      </trkpt>
      <trkpt lat="40.799549" lon="-3.932564">
        <ele>2364.5</ele>
        <time>2018-04-21T11:11:39.000Z</time>
      </trkpt>
      <trkpt lat="40.799545" lon="-3.932574">
        <ele>2364.4</ele>
        <time>2018-04-21T11:11:40.000Z</time>
      </trkpt>
      <trkpt lat="40.79954" lon="-3.932585">
        <ele>2364.3</ele>
        <time>2018-04-21T11:11:41.000Z</time>
      </trkpt>
      <trkpt lat="40.799537" lon="-3.932595">
        <ele>2364.3</ele>
        <time>2018-04-21T11:11:42.000Z</time>
      </trkpt>
      <trkpt lat="40.799533" lon="-3.932605">
        <ele>2364.2</ele>
        <time>2018-04-21T11:11:43.000Z</time>
      </trkpt>
      <trkpt lat="40.79953" lon="-3.932615">
        <ele>2364.1</ele>
        <time>2018-04-21T11:11:44.000Z</time>
      </trkpt>
      <trkpt lat="40.799527" lon="-3.932625">
        <ele>2364.0</ele>
        <time>2018-04-21T11:11:45.000Z</time>
      </trkpt>
      <trkpt lat="40.799525" lon="-3.932634">
        <ele>2364.0</ele>
        <time>2018-04-21T11:11:46.000Z</time>
      </trkpt>
      <trkpt lat="40.799523" lon="-3.932643">
        <ele>2363.9</ele>
        <time>2018-04-21T11:11:47.000Z</time>
      </trkpt>
      <trkpt lat="40.799521" lon="-3.932652">
        <ele>2363.9</ele>
        <time>2018-04-21T11:11:48.000Z</time>
      </trkpt>
      <trkpt lat="40.799519" lon="-3.932661">
        <ele>2363.8</ele>
        <time>2018-04-21T11:11:49.000Z</time>
      </trkpt>
      <trkpt lat="40.799518" lon="-3.932669">
        <ele>2363.7</ele>
        <time>2018-04-21T11:11:50.000Z</time>
      </trkpt>
      <trkpt lat="40.799516" lon="-3.932678">
        <ele>2363.7</ele>
        <time>2018-04-21T11:11:51.000Z</time>
      </trkpt>
      <trkpt lat="40.799514" lon="-3.932686">
        <ele>2363.6</ele>
        <time>2018-04-21T11:11:52.000Z</time>
      </trkpt>
      <trkpt lat="40.799512" lon="-3.932695">
        <ele>2363.6</ele>
        <time>2018-04-21T11:11:53.000Z</time>
      </trkpt>
      <trkpt lat="40.79951" lon="-3.932705">
        <ele>2363.5</ele>
        <time>2018-04-21T11:11:54.000Z</time>
      </trkpt>
      <trkpt lat="40.799507" lon="-3.932715">
        <ele>2363.5</ele>
        <time>2018-04-21T11:11:55.000Z</time>
      </trkpt>
      <trkpt lat="40.799505" lon="-3.932725">
        <ele>2363.4</ele>
        <time>2018-04-21T11:11:56.000Z</time>
      </trkpt>
      <trkpt lat="40.799501" lon="-3.932736">
        <ele>2363.4</ele>
        <time>2018-04-21T11:11:57.000Z</time>
      </trkpt>
      <trkpt lat="40.799498" lon="-3.932747">
        <ele>2363.3</ele>
        <time>2018-04-21T11:11:58.000Z</time>
      </trkpt>
      <trkpt lat="40.799494" lon="-3.932759">
        <ele>2363.2</ele>
        <time>2018-04-21T11:11:59.000Z</time>
      </trkpt>
      <trkpt lat="40.79949" lon="-3.93277">
        <ele>2363.2</ele>
        <time>2018-04-21T11:12:00.000Z</time>
      </trkpt>
      <trkpt lat="40.799487" lon="-3.932782">
        <ele>2363.1</ele>
        <time>2018-04-21T11:12:01.000Z</time>
      </trkpt>
      <trkpt lat="40.799483" lon="-3.932794">
        <ele>2363.1</ele>
        <time>2018-04-21T11:12:02.000Z</time>
      </trkpt>
      <trkpt lat="40.799479" lon="-3.932806">
        <ele>2363.0</ele>
        <time>2018-04-21T11:12:03.000Z</time>
      </trkpt>
      <trkpt lat="40.799476" lon="-3.932818">
        <ele>2363.0</ele>
        <time>2018-04-21T11:12:04.000Z</time>
      </trkpt>
      <trkpt lat="40.799472" lon="-3.93283">
        <ele>2362.9</ele>
        <time>2018-04-21T11:12:05.000Z</time>
      </trkpt>
      <trkpt lat="40.799469" lon="-3.932841">
        <ele>2362.9</ele>
        <time>2018-04-21T11:12:06.000Z</time>
      </trkpt>
      <trkpt lat="40.799466" lon="-3.932853">
        <ele>2362.8</ele>
        <time>2018-04-21T11:12:07.000Z</time>
      </trkpt>
      <trkpt lat="40.799463" lon="-3.932864">
        <ele>2362.8</ele>
        <time>2018-04-21T11:12:08.000Z</time>
      </trkpt>
      <trkpt lat="40.799461" lon="-3.932875">
        <ele>2362.7</ele>
        <time>2018-04-21T11:12:09.000Z</time>
      </trkpt>
      <trkpt lat="40.799459" lon="-3.932886">
        <ele>2362.7</ele>
        <time>2018-04-21T11:12:10.000Z</time>
      </trkpt>
      <trkpt lat="40.799457" lon="-3.932897">
        <ele>2362.7</ele>
        <time>2018-04-21T11:12:11.000Z</time>
      </trkpt>
      <trkpt lat="40.799457" lon="-3.932906">
        <ele>2362.6</ele>
        <time>2018-04-21T11:12:12.000Z</time>
      </trkpt>
      <trkpt lat="40.799456" lon="-3.932916">
        <ele>2362.6</ele>
        <time>2018-04-21T11:12:13.000Z</time>
      </trkpt>
      <trkpt lat="40.799456" lon="-3.932924">
        <ele>2362.5</ele>
        <time>2018-04-21T11:12:14.000Z</time>
      </trkpt>
      <trkpt lat="40.799456" lon="-3.932932">
        <ele>2362.5</ele>
        <time>2018-04-21T11:12:15.000Z</time>
      </trkpt>
      <trkpt lat="40.799456" lon="-3.932938">
        <ele>2362.4</ele>
        <time>2018-04-21T11:12:16.000Z</time>
      </trkpt>
      <trkpt lat="40.799456" lon="-3.932944">
        <ele>2362.4</ele>
        <time>2018-04-21T11:12:17.000Z</time>
      </trkpt>
      <trkpt lat="40.799456" lon="-3.932947">
        <ele>2362.4</ele>
        <time>2018-04-21T11:12:18.000Z</time>
      </trkpt>
      <trkpt lat="40.799455" lon="-3.932949">
        <ele>2362.4</ele>
        <time>2018-04-21T11:12:19.000Z</time>
      </trkpt>
      <trkpt lat="40.799453" lon="-3.932951">
        <ele>2362.4</ele>
        <time>2018-04-21T11:12:20.000Z</time>
      </trkpt>
      <trkpt lat="40.799452" lon="-3.932952">
        <ele>2362.4</ele>
        <time>2018-04-21T11:12:21.000Z</time>
      </trkpt>
      <trkpt lat="40.799451" lon="-3.932952">
        <ele>2362.4</ele>
        <time>2018-04-21T11:12:22.000Z</time>
      </trkpt>
      <trkpt lat="40.79945" lon="-3.932953">
        <ele>2362.4</ele>
        <time>2018-04-21T11:12:23.000Z</time>
      </trkpt>
      <trkpt lat="40.79945" lon="-3.932953">
        <ele>2362.4</ele>
        <time>2018-04-21T11:12:24.000Z</time>
      </trkpt>
      <trkpt lat="40.79945" lon="-3.932954">
        <ele>2362.4</ele>
        <time>2018-04-21T11:12:25.000Z</time>
      </trkpt>
      <trkpt lat="40.799449" lon="-3.932954">
        <ele>2362.4</ele>
        <time>2018-04-21T11:12:26.000Z</time>
      </trkpt>
      <trkpt lat="40.799449" lon="-3.932954">
        <ele>2362.4</ele>
        <time>2018-04-21T11:12:27.000Z</time>
      </trkpt>
      <trkpt lat="40.799449" lon="-3.932954">
        <ele>2362.4</ele>
        <time>2018-04-21T11:12:28.000Z</time>
      </trkpt>
      <trkpt lat="40.799449" lon="-3.932954">
        <ele>2362.4</ele>
        <time>2018-04-21T11:12:29.000Z</time>
      </trkpt>
      <trkpt lat="40.799449" lon="-3.932954">
        <ele>2362.4</ele>
        <time>2018-04-21T11:12:30.000Z</time>
      </trkpt>
      <trkpt lat="40.799449" lon="-3.932954">
        <ele>2362.4</ele>
        <time>2018-04-21T11:12:31.000Z</time>
      </trkpt>
      <trkpt lat="40.799449" lon="-3.932954">
        <ele>2362.4</ele>
        <time>2018-04-21T11:12:32.000Z</time>
      </trkpt>
      <trkpt lat="40.799449" lon="-3.932954">
        <ele>2362.4</ele>
        <time>2018-04-21T11:12:33.000Z</time>
      </trkpt>
      <trkpt lat="40.799449" lon="-3.932954">
        <ele>2362.4</ele>
        <time>2018-04-21T11:12:34.000Z</time>
      </trkpt>
      <trkpt lat="40.799449" lon="-3.932954">
        <ele>2362.4</ele>
        <time>2018-04-21T11:12:35.000Z</time>
      </trkpt>
      <trkpt lat="40.799449" lon="-3.932954">
        <ele>2362.4</ele>
        <time>2018-04-21T11:12:36.000Z</time>
      </trkpt>
      <trkpt lat="40.799449" lon="-3.932954">
        <ele>2362.4</ele>
        <time>2018-04-21T11:12:37.000Z</time>
      </trkpt>
      <trkpt lat="40.799449" lon="-3.932954">
        <ele>2362.4</ele>
        <time>2018-04-21T11:12:38.000Z</time>
      </trkpt>
      <trkpt lat="40.799449" lon="-3.932954">
        <ele>2362.4</ele>
        <time>2018-04-21T11:12:39.000Z</time>
      </trkpt>
      <trkpt lat="40.799449" lon="-3.932954">
        <ele>2362.4</ele>
        <time>2018-04-21T11:12:40.000Z</time>
      </trkpt>
      <trkpt lat="40.799449" lon="-3.932954">
        <ele>2362.4</ele>
        <time>2018-04-21T11:12:41.000Z</time>
      </trkpt>
      <trkpt lat="40.799449" lon="-3.932954">
        <ele>2362.4</ele>
        <time>2018-04-21T11:12:42.000Z</time>
      </trkpt>
      <trkpt lat="40.799449" lon="-3.932954">
        <ele>2362.4</ele>
        <time>2018-04-21T11:12:43.000Z</time>
      </trkpt>
      <trkpt lat="40.799449" lon="-3.932954">
        <ele>2362.4</ele>
        <time>2018-04-21T11:12:44.000Z</time>
      </trkpt>
      <trkpt lat="40.799449" lon="-3.932954">
        <ele>2362.4</ele>
        <time>2018-04-21T11:12:45.000Z</time>
      </trkpt>
      <trkpt lat="40.799449" lon="-3.932954">
        <ele>2362.4</ele>
        <time>2018-04-21T11:12:46.000Z</time>
      </trkpt>
      <trkpt lat="40.799449" lon="-3.932954">
        <ele>2362.4</ele>
        <time>2018-04-21T11:12:47.000Z</time>
      </trkpt>
      <trkpt lat="40.799449" lon="-3.932954">
        <ele>2362.4</ele>
        <time>2018-04-21T11:12:48.000Z</time>
      </trkpt>
      <trkpt lat="40.799449" lon="-3.932954">
        <ele>2362.4</ele>
        <time>2018-04-21T11:12:49.000Z</time>
      </trkpt>
      <trkpt lat="40.799449" lon="-3.932954">
        <ele>2362.4</ele>
        <time>2018-04-21T11:12:50.000Z</time>
      </trkpt>
      <trkpt lat="40.799449" lon="-3.932954">
        <ele>2362.4</ele>
        <time>2018-04-21T11:12:51.000Z</time>
      </trkpt>
      <trkpt lat="40.799449" lon="-3.932954">
        <ele>2362.4</ele>
        <time>2018-04-21T11:12:52.000Z</time>
      </trkpt>
      <trkpt lat="40.799449" lon="-3.932954">
        <ele>2362.4</ele>
        <time>2018-04-21T11:12:53.000Z</time>
      </trkpt>
      <trkpt lat="40.799449" lon="-3.932954">
        <ele>2362.4</ele>
        <time>2018-04-21T11:12:54.000Z</time>
      </trkpt>
      <trkpt lat="40.799449" lon="-3.932954">
        <ele>2362.4</ele>
        <time>2018-04-21T11:12:55.000Z</time>
      </trkpt>
      <trkpt lat="40.799449" lon="-3.932954">
        <ele>2362.4</ele>
        <time>2018-04-21T11:12:56.000Z</time>
      </trkpt>
      <trkpt lat="40.799449" lon="-3.932954">
        <ele>2362.4</ele>
        <time>2018-04-21T11:12:57.000Z</time>
      </trkpt>
      <trkpt lat="40.799449" lon="-3.932954">
        <ele>2362.4</ele>
        <time>2018-04-21T11:12:58.000Z</time>
      </trkpt>
      <trkpt lat="40.799449" lon="-3.932954">
        <ele>2362.4</ele>
        <time>2018-04-21T11:12:59.000Z</time>
      </trkpt>
      <trkpt lat="40.799449" lon="-3.932954">
        <ele>2362.4</ele>
        <time>2018-04-21T11:13:00.000Z</time>
      </trkpt>
      <trkpt lat="40.799449" lon="-3.932954">
        <ele>2362.4</ele>
        <time>2018-04-21T11:13:01.000Z</time>
      </trkpt>
      <trkpt lat="40.799449" lon="-3.932954">
        <ele>2362.4</ele>
        <time>2018-04-21T11:13:02.000Z</time>
      </trkpt>
      <trkpt lat="40.799449" lon="-3.932954">
        <ele>2362.4</ele>
        <time>2018-04-21T11:13:03.000Z</time>
      </trkpt>
      <trkpt lat="40.799449" lon="-3.932954">
        <ele>2362.4</ele>
        <time>2018-04-21T11:13:04.000Z</time>
      </trkpt>
      <trkpt lat="40.799449" lon="-3.932954">
        <ele>2362.4</ele>
        <time>2018-04-21T11:13:05.000Z</time>
      </trkpt>
      <trkpt lat="40.799449" lon="-3.932954">
        <ele>2362.4</ele>
        <time>2018-04-21T11:13:06.000Z</time>
      </trkpt>
      <trkpt lat="40.799449" lon="-3.932954">
        <ele>2362.4</ele>
        <time>2018-04-21T11:13:07.000Z</time>
      </trkpt>
      <trkpt lat="40.799449" lon="-3.932954">
        <ele>2362.4</ele>
        <time>2018-04-21T11:13:08.000Z</time>
      </trkpt>
      <trkpt lat="40.799449" lon="-3.932954">
        <ele>2362.4</ele>
        <time>2018-04-21T11:13:09.000Z</time>
      </trkpt>
      <trkpt lat="40.799449" lon="-3.932954">
        <ele>2362.4</ele>
        <time>2018-04-21T11:13:10.000Z</time>
      </trkpt>
      <trkpt lat="40.799449" lon="-3.932954">
        <ele>2362.4</ele>
        <time>2018-04-21T11:13:11.000Z</time>
      </trkpt>
      <trkpt lat="40.799449" lon="-3.932954">
        <ele>2362.4</ele>
        <time>2018-04-21T11:13:12.000Z</time>
      </trkpt>
      <trkpt lat="40.799449" lon="-3.932954">
        <ele>2362.4</ele>
        <time>2018-04-21T11:13:13.000Z</time>
      </trkpt>
      <trkpt lat="40.799449" lon="-3.932954">
        <ele>2362.4</ele>
        <time>2018-04-21T11:13:14.000Z</time>
      </trkpt>
      <trkpt lat="40.799449" lon="-3.932954">
        <ele>2362.4</ele>
        <time>2018-04-21T11:13:15.000Z</time>
      </trkpt>
      <trkpt lat="40.799449" lon="-3.932954">
        <ele>2362.4</ele>
        <time>2018-04-21T11:13:16.000Z</time>
      </trkpt>
      <trkpt lat="40.799449" lon="-3.932954">
        <ele>2362.4</ele>
        <time>2018-04-21T11:13:17.000Z</time>
      </trkpt>
      <trkpt lat="40.799449" lon="-3.932954">
        <ele>2362.4</ele>
        <time>2018-04-21T11:13:18.000Z</time>
      </trkpt>
      <trkpt lat="40.799449" lon="-3.932954">
        <ele>2362.4</ele>
        <time>2018-04-21T11:13:19.000Z</time>
      </trkpt>
      <trkpt lat="40.799449" lon="-3.932954">
        <ele>2362.4</ele>
        <time>2018-04-21T11:13:20.000Z</time>
      </trkpt>
      <trkpt lat="40.799449" lon="-3.932954">
        <ele>2362.4</ele>
        <time>2018-04-21T11:13:21.000Z</time>
      </trkpt>
      <trkpt lat="40.799449" lon="-3.932954">
        <ele>2362.4</ele>
        <time>2018-04-21T11:13:22.000Z</time>
      </trkpt>
      <trkpt lat="40.799449" lon="-3.932954">
        <ele>2362.4</ele>
        <time>2018-04-21T11:13:23.000Z</time>
      </trkpt>
      <trkpt lat="40.799449" lon="-3.932954">
        <ele>2362.4</ele>
        <time>2018-04-21T11:13:24.000Z</time>
      </trkpt>
      <trkpt lat="40.799449" lon="-3.932954">
        <ele>2362.4</ele>
        <time>2018-04-21T11:13:25.000Z</time>
      </trkpt>
      <trkpt lat="40.799449" lon="-3.932954">
        <ele>2362.4</ele>
        <time>2018-04-21T11:13:26.000Z</time>
      </trkpt>
      <trkpt lat="40.799449" lon="-3.932954">
        <ele>2362.4</ele>
        <time>2018-04-21T11:13:27.000Z</time>
      </trkpt>
      <trkpt lat="40.799449" lon="-3.932954">
        <ele>2362.4</ele>
        <time>2018-04-21T11:13:28.000Z</time>
      </trkpt>
      <trkpt lat="40.799449" lon="-3.932954">
        <ele>2362.4</ele>
        <time>2018-04-21T11:13:29.000Z</time>
      </trkpt>
      <trkpt lat="40.799449" lon="-3.932954">
        <ele>2362.4</ele>
        <time>2018-04-21T11:13:30.000Z</time>
      </trkpt>
      <trkpt lat="40.799449" lon="-3.932954">
        <ele>2362.4</ele>
        <time>2018-04-21T11:13:31.000Z</time>
      </trkpt>
      <trkpt lat="40.799449" lon="-3.932954">
        <ele>2362.4</ele>
        <time>2018-04-21T11:13:32.000Z</time>
      </trkpt>
      <trkpt lat="40.799449" lon="-3.932954">
        <ele>2362.4</ele>
        <time>2018-04-21T11:13:33.000Z</time>
      </trkpt>
      <trkpt lat="40.799449" lon="-3.932954">
        <ele>2362.4</ele>
        <time>2018-04-21T11:13:34.000Z</time>
      </trkpt>
      <trkpt lat="40.799449" lon="-3.932954">
        <ele>2362.4</ele>
        <time>2018-04-21T11:13:35.000Z</time>
      </trkpt>
      <trkpt lat="40.799449" lon="-3.932954">
        <ele>2362.4</ele>
        <time>2018-04-21T11:13:36.000Z</time>
      </trkpt>
      <trkpt lat="40.799449" lon="-3.932954">
        <ele>2362.4</ele>
        <time>2018-04-21T11:13:37.000Z</time>
      </trkpt>
      <trkpt lat="40.799449" lon="-3.932954">
        <ele>2362.4</ele>
        <time>2018-04-21T11:13:38.000Z</time>
      </trkpt>
      <trkpt lat="40.799449" lon="-3.932954">
        <ele>2362.4</ele>
        <time>2018-04-21T11:13:39.000Z</time>
      </trkpt>
      <trkpt lat="40.799449" lon="-3.932954">
        <ele>2362.4</ele>
        <time>2018-04-21T11:13:40.000Z</time>
      </trkpt>
      <trkpt lat="40.799449" lon="-3.932954">
        <ele>2362.4</ele>
        <time>2018-04-21T11:13:41.000Z</time>
      </trkpt>
      <trkpt lat="40.799449" lon="-3.932954">
        <ele>2362.4</ele>
        <time>2018-04-21T11:13:42.000Z</time>
      </trkpt>
      <trkpt lat="40.799449" lon="-3.932954">
        <ele>2362.4</ele>
        <time>2018-04-21T11:13:43.000Z</time>
      </trkpt>
      <trkpt lat="40.799449" lon="-3.932954">
        <ele>2362.4</ele>
        <time>2018-04-21T11:13:44.000Z</time>
      </trkpt>
      <trkpt lat="40.799449" lon="-3.932954">
        <ele>2362.4</ele>
        <time>2018-04-21T11:13:45.000Z</time>
      </trkpt>
      <trkpt lat="40.799449" lon="-3.932954">
        <ele>2362.4</ele>
        <time>2018-04-21T11:13:46.000Z</time>
      </trkpt>
      <trkpt lat="40.799449" lon="-3.932954">
        <ele>2362.4</ele>
        <time>2018-04-21T11:13:47.000Z</time>
      </trkpt>
      <trkpt lat="40.799449" lon="-3.932954">
        <ele>2362.4</ele>
        <time>2018-04-21T11:13:48.000Z</time>
      </trkpt>
      <trkpt lat="40.799449" lon="-3.932954">
        <ele>2362.4</ele>
        <time>2018-04-21T11:13:49.000Z</time>
      </trkpt>
      <trkpt lat="40.799449" lon="-3.932954">
        <ele>2362.4</ele>
        <time>2018-04-21T11:13:50.000Z</time>
      </trkpt>
      <trkpt lat="40.799449" lon="-3.932954">
        <ele>2362.4</ele>
        <time>2018-04-21T11:13:51.000Z</time>
      </trkpt>
      <trkpt lat="40.799449" lon="-3.932954">
        <ele>2362.4</ele>
        <time>2018-04-21T11:13:52.000Z</time>
      </trkpt>
      <trkpt lat="40.799449" lon="-3.932954">
        <ele>2362.4</ele>
        <time>2018-04-21T11:13:53.000Z</time>
      </trkpt>
      <trkpt lat="40.799449" lon="-3.932954">
        <ele>2362.4</ele>
        <time>2018-04-21T11:13:54.000Z</time>
      </trkpt>
      <trkpt lat="40.799449" lon="-3.932954">
        <ele>2362.4</ele>
        <time>2018-04-21T11:13:55.000Z</time>
      </trkpt>
      <trkpt lat="40.799449" lon="-3.932954">
        <ele>2362.4</ele>
        <time>2018-04-21T11:13:56.000Z</time>
      </trkpt>
      <trkpt lat="40.799449" lon="-3.932954">
        <ele>2362.4</ele>
        <time>2018-04-21T11:13:57.000Z</time>
      </trkpt>
      <trkpt lat="40.799449" lon="-3.932954">
        <ele>2362.4</ele>
        <time>2018-04-21T11:13:58.000Z</time>
      </trkpt>
      <trkpt lat="40.799449" lon="-3.932954">
        <ele>2362.4</ele>
        <time>2018-04-21T11:13:59.000Z</time>
      </trkpt>
      <trkpt lat="40.799449" lon="-3.932954">
        <ele>2362.4</ele>
        <time>2018-04-21T11:14:00.000Z</time>
      </trkpt>
      <trkpt lat="40.799449" lon="-3.932954">
        <ele>2362.4</ele>
        <time>2018-04-21T11:14:01.000Z</time>
      </trkpt>
      <trkpt lat="40.799449" lon="-3.932954">
        <ele>2362.4</ele>
        <time>2018-04-21T11:14:02.000Z</time>
      </trkpt>
      <trkpt lat="40.799449" lon="-3.932954">
        <ele>2362.4</ele>
        <time>2018-04-21T11:14:03.000Z</time>
      </trkpt>
      <trkpt lat="40.799449" lon="-3.932954">
        <ele>2362.4</ele>
        <time>2018-04-21T11:14:04.000Z</time>
      </trkpt>
      <trkpt lat="40.799449" lon="-3.932954">
        <ele>2362.4</ele>
        <time>2018-04-21T11:14:05.000Z</time>
      </trkpt>
      <trkpt lat="40.799449" lon="-3.932954">
        <ele>2362.4</ele>
        <time>2018-04-21T11:14:06.000Z</time>
      </trkpt>
      <trkpt lat="40.799449" lon="-3.932954">
        <ele>2362.4</ele>
        <time>2018-04-21T11:14:07.000Z</time>
      </trkpt>
      <trkpt lat="40.799449" lon="-3.932954">
        <ele>2362.4</ele>
        <time>2018-04-21T11:14:08.000Z</time>
      </trkpt>
      <trkpt lat="40.799449" lon="-3.932954">
        <ele>2362.4</ele>
        <time>2018-04-21T11:14:09.000Z</time>
      </trkpt>
      <trkpt lat="40.799449" lon="-3.932954">
        <ele>2362.4</ele>
        <time>2018-04-21T11:14:10.000Z</time>
      </trkpt>
      <trkpt lat="40.799449" lon="-3.932954">
        <ele>2362.4</ele>
        <time>2018-04-21T11:14:11.000Z</time>
      </trkpt>
      <trkpt lat="40.799449" lon="-3.932954">
        <ele>2362.4</ele>
        <time>2018-04-21T11:14:12.000Z</time>
      </trkpt>
      <trkpt lat="40.799449" lon="-3.932954">
        <ele>2362.4</ele>
        <time>2018-04-21T11:14:13.000Z</time>
      </trkpt>
      <trkpt lat="40.799449" lon="-3.932954">
        <ele>2362.4</ele>
        <time>2018-04-21T11:14:14.000Z</time>
      </trkpt>
      <trkpt lat="40.799449" lon="-3.932954">
        <ele>2362.4</ele>
        <time>2018-04-21T11:14:15.000Z</time>
      </trkpt>
      <trkpt lat="40.799449" lon="-3.932954">
        <ele>2362.4</ele>
        <time>2018-04-21T11:14:16.000Z</time>
      </trkpt>
      <trkpt lat="40.799449" lon="-3.932954">
        <ele>2362.4</ele>
        <time>2018-04-21T11:14:17.000Z</time>
      </trkpt>
      <trkpt lat="40.799449" lon="-3.932954">
        <ele>2362.4</ele>
        <time>2018-04-21T11:14:18.000Z</time>
      </trkpt>
      <trkpt lat="40.799449" lon="-3.932954">
        <ele>2362.4</ele>
        <time>2018-04-21T11:14:19.000Z</time>
      </trkpt>
      <trkpt lat="40.799449" lon="-3.932954">
        <ele>2362.4</ele>
        <time>2018-04-21T11:14:20.000Z</time>
      </trkpt>
      <trkpt lat="40.799449" lon="-3.932954">
        <ele>2362.4</ele>
        <time>2018-04-21T11:14:21.000Z</time>
      </trkpt>
      <trkpt lat="40.799449" lon="-3.932954">
        <ele>2362.4</ele>
        <time>2018-04-21T11:14:22.000Z</time>
      </trkpt>
      <trkpt lat="40.799449" lon="-3.932954">
        <ele>2362.4</ele>
        <time>2018-04-21T11:14:23.000Z</time>
      </trkpt>
      <trkpt lat="40.799449" lon="-3.932954">
        <ele>2362.4</ele>
        <time>2018-04-21T11:14:24.000Z</time>
      </trkpt>
      <trkpt lat="40.799449" lon="-3.932954">
        <ele>2362.4</ele>
        <time>2018-04-21T11:14:25.000Z</time>
      </trkpt>
      <trkpt lat="40.799449" lon="-3.932954">
        <ele>2362.4</ele>
        <time>2018-04-21T11:14:26.000Z</time>
      </trkpt>
      <trkpt lat="40.799449" lon="-3.932954">
        <ele>2362.4</ele>
        <time>2018-04-21T11:14:27.000Z</time>
      </trkpt>
      <trkpt lat="40.799449" lon="-3.932954">
        <ele>2362.4</ele>
        <time>2018-04-21T11:14:28.000Z</time>
      </trkpt>
      <trkpt lat="40.79945" lon="-3.932954">
        <ele>2362.4</ele>
        <time>2018-04-21T11:14:29.000Z</time>
      </trkpt>
      <trkpt lat="40.79945" lon="-3.932954">
        <ele>2362.4</ele>
        <time>2018-04-21T11:14:30.000Z</time>
      </trkpt>
      <trkpt lat="40.79945" lon="-3.932954">
        <ele>2362.4</ele>
        <time>2018-04-21T11:14:31.000Z</time>
      </trkpt>
      <trkpt lat="40.79945" lon="-3.932953">
        <ele>2362.4</ele>
        <time>2018-04-21T11:14:32.000Z</time>
      </trkpt>
      <trkpt lat="40.799451" lon="-3.932953">
        <ele>2362.4</ele>
        <time>2018-04-21T11:14:33.000Z</time>
      </trkpt>
      <trkpt lat="40.799451" lon="-3.932953">
        <ele>2362.4</ele>
        <time>2018-04-21T11:14:34.000Z</time>
      </trkpt>
      <trkpt lat="40.799452" lon="-3.932953">
        <ele>2362.4</ele>
        <time>2018-04-21T11:14:35.000Z</time>
      </trkpt>
      <trkpt lat="40.799452" lon="-3.932953">
        <ele>2362.4</ele>
        <time>2018-04-21T11:14:36.000Z</time>
      </trkpt>
      <trkpt lat="40.799453" lon="-3.932953">
        <ele>2362.4</ele>
        <time>2018-04-21T11:14:37.000Z</time>
      </trkpt>
      <trkpt lat="40.799453" lon="-3.932953">
        <ele>2362.4</ele>
        <time>2018-04-21T11:14:38.000Z</time>
      </trkpt>
      <trkpt lat="40.799454" lon="-3.932952">
        <ele>2362.4</ele>
        <time>2018-04-21T11:14:39.000Z</time>
      </trkpt>
      <trkpt lat="40.799455" lon="-3.932952">
        <ele>2362.4</ele>
        <time>2018-04-21T11:14:40.000Z</time>
      </trkpt>
      <trkpt lat="40.799455" lon="-3.932952">
        <ele>2362.4</ele>
        <time>2018-04-21T11:14:41.000Z</time>
      </trkpt>
      <trkpt lat="40.799456" lon="-3.932952">
        <ele>2362.3</ele>
        <time>2018-04-21T11:14:42.000Z</time>
      </trkpt>
      <trkpt lat="40.799457" lon="-3.932952">
        <ele>2362.3</ele>
        <time>2018-04-21T11:14:43.000Z</time>
      </trkpt>
      <trkpt lat="40.799457" lon="-3.932952">
        <ele>2362.3</ele>
        <time>2018-04-21T11:14:44.000Z</time>
      </trkpt>
      <trkpt lat="40.799458" lon="-3.932951">
        <ele>2362.3</ele>
        <time>2018-04-21T11:14:45.000Z</time>
      </trkpt>
      <trkpt lat="40.799458" lon="-3.932951">
        <ele>2362.3</ele>
        <time>2018-04-21T11:14:46.000Z</time>
      </trkpt>
      <trkpt lat="40.799458" lon="-3.932951">
        <ele>2362.3</ele>
        <time>2018-04-21T11:14:47.000Z</time>
      </trkpt>
      <trkpt lat="40.799458" lon="-3.932951">
        <ele>2362.3</ele>
        <time>2018-04-21T11:14:48.000Z</time>
      </trkpt>
      <trkpt lat="40.799459" lon="-3.932951">
        <ele>2362.3</ele>
        <time>2018-04-21T11:14:49.000Z</time>
      </trkpt>
      <trkpt lat="40.799459" lon="-3.932951">
        <ele>2362.3</ele>
        <time>2018-04-21T11:14:50.000Z</time>
      </trkpt>
      <trkpt lat="40.799459" lon="-3.932951">
        <ele>2362.3</ele>
        <time>2018-04-21T11:14:51.000Z</time>
      </trkpt>
      <trkpt lat="40.799459" lon="-3.932951">
        <ele>2362.3</ele>
        <time>2018-04-21T11:14:52.000Z</time>
      </trkpt>
      <trkpt lat="40.799459" lon="-3.932951">
        <ele>2362.3</ele>
        <time>2018-04-21T11:14:53.000Z</time>
      </trkpt>
      <trkpt lat="40.799459" lon="-3.932951">
        <ele>2362.3</ele>
        <time>2018-04-21T11:14:54.000Z</time>
      </trkpt>
      <trkpt lat="40.799459" lon="-3.932951">
        <ele>2362.3</ele>
        <time>2018-04-21T11:14:55.000Z</time>
      </trkpt>
      <trkpt lat="40.799459" lon="-3.932951">
        <ele>2362.3</ele>
        <time>2018-04-21T11:14:56.000Z</time>
      </trkpt>
      <trkpt lat="40.799459" lon="-3.932951">
        <ele>2362.3</ele>
        <time>2018-04-21T11:14:57.000Z</time>
      </trkpt>
      <trkpt lat="40.799459" lon="-3.932951">
        <ele>2362.3</ele>
        <time>2018-04-21T11:14:58.000Z</time>
      </trkpt>
      <trkpt lat="40.799459" lon="-3.932951">
        <ele>2362.3</ele>
        <time>2018-04-21T11:14:59.000Z</time>
      </trkpt>
      <trkpt lat="40.799459" lon="-3.932951">
        <ele>2362.3</ele>
        <time>2018-04-21T11:15:00.000Z</time>
      </trkpt>
      <trkpt lat="40.799459" lon="-3.932951">
        <ele>2362.3</ele>
        <time>2018-04-21T11:15:01.000Z</time>
      </trkpt>
      <trkpt lat="40.799459" lon="-3.932951">
        <ele>2362.3</ele>
        <time>2018-04-21T11:15:02.000Z</time>
      </trkpt>
      <trkpt lat="40.799459" lon="-3.932951">
        <ele>2362.3</ele>
        <time>2018-04-21T11:15:03.000Z</time>
      </trkpt>
      <trkpt lat="40.799459" lon="-3.932951">
        <ele>2362.3</ele>
        <time>2018-04-21T11:15:04.000Z</time>
      </trkpt>
      <trkpt lat="40.799459" lon="-3.932951">
        <ele>2362.3</ele>
        <time>2018-04-21T11:15:05.000Z</time>
      </trkpt>
      <trkpt lat="40.799459" lon="-3.932951">
        <ele>2362.3</ele>
        <time>2018-04-21T11:15:06.000Z</time>
      </trkpt>
      <trkpt lat="40.799459" lon="-3.932951">
        <ele>2362.3</ele>
        <time>2018-04-21T11:15:07.000Z</time>
      </trkpt>
      <trkpt lat="40.799459" lon="-3.932951">
        <ele>2362.3</ele>
        <time>2018-04-21T11:15:08.000Z</time>
      </trkpt>
      <trkpt lat="40.799459" lon="-3.932951">
        <ele>2362.3</ele>
        <time>2018-04-21T11:15:09.000Z</time>
      </trkpt>
      <trkpt lat="40.799459" lon="-3.932951">
        <ele>2362.3</ele>
        <time>2018-04-21T11:15:10.000Z</time>
      </trkpt>
      <trkpt lat="40.799459" lon="-3.932951">
        <ele>2362.3</ele>
        <time>2018-04-21T11:15:11.000Z</time>
      </trkpt>
      <trkpt lat="40.799459" lon="-3.932951">
        <ele>2362.3</ele>
        <time>2018-04-21T11:15:12.000Z</time>
      </trkpt>
      <trkpt lat="40.799459" lon="-3.932951">
        <ele>2362.3</ele>
        <time>2018-04-21T11:15:13.000Z</time>
      </trkpt>
      <trkpt lat="40.799459" lon="-3.932951">
        <ele>2362.3</ele>
        <time>2018-04-21T11:15:14.000Z</time>
      </trkpt>
      <trkpt lat="40.799459" lon="-3.932951">
        <ele>2362.3</ele>
        <time>2018-04-21T11:15:15.000Z</time>
      </trkpt>
      <trkpt lat="40.799459" lon="-3.932951">
        <ele>2362.3</ele>
        <time>2018-04-21T11:15:16.000Z</time>
      </trkpt>
      <trkpt lat="40.799459" lon="-3.932951">
        <ele>2362.3</ele>
        <time>2018-04-21T11:15:17.000Z</time>
      </trkpt>
      <trkpt lat="40.799459" lon="-3.932951">
        <ele>2362.3</ele>
        <time>2018-04-21T11:15:18.000Z</time>
      </trkpt>
      <trkpt lat="40.799459" lon="-3.932951">
        <ele>2362.3</ele>
        <time>2018-04-21T11:15:19.000Z</time>
      </trkpt>
      <trkpt lat="40.799459" lon="-3.932951">
        <ele>2362.3</ele>
        <time>2018-04-21T11:15:20.000Z</time>
      </trkpt>
      <trkpt lat="40.799459" lon="-3.932951">
        <ele>2362.3</ele>
        <time>2018-04-21T11:15:21.000Z</time>
      </trkpt>
      <trkpt lat="40.799459" lon="-3.932951">
        <ele>2362.3</ele>
        <time>2018-04-21T11:15:22.000Z</time>
      </trkpt>
      <trkpt lat="40.799459" lon="-3.932951">
        <ele>2362.3</ele>
        <time>2018-04-21T11:15:23.000Z</time>
      </trkpt>
      <trkpt lat="40.799459" lon="-3.932951">
        <ele>2362.3</ele>
        <time>2018-04-21T11:15:24.000Z</time>
      </trkpt>
      <trkpt lat="40.799459" lon="-3.932951">
        <ele>2362.3</ele>
        <time>2018-04-21T11:15:25.000Z</time>
      </trkpt>
      <trkpt lat="40.799459" lon="-3.932951">
        <ele>2362.3</ele>
        <time>2018-04-21T11:15:26.000Z</time>
      </trkpt>
      <trkpt lat="40.799459" lon="-3.932951">
        <ele>2362.3</ele>
        <time>2018-04-21T11:15:27.000Z</time>
      </trkpt>
      <trkpt lat="40.799459" lon="-3.932951">
        <ele>2362.3</ele>
        <time>2018-04-21T11:15:28.000Z</time>
      </trkpt>
      <trkpt lat="40.799459" lon="-3.932951">
        <ele>2362.3</ele>
        <time>2018-04-21T11:15:29.000Z</time>
      </trkpt>
      <trkpt lat="40.799459" lon="-3.932951">
        <ele>2362.3</ele>
        <time>2018-04-21T11:15:30.000Z</time>
      </trkpt>
      <trkpt lat="40.799459" lon="-3.932951">
        <ele>2362.3</ele>
        <time>2018-04-21T11:15:31.000Z</time>
      </trkpt>
      <trkpt lat="40.799459" lon="-3.932951">
        <ele>2362.3</ele>
        <time>2018-04-21T11:15:32.000Z</time>
      </trkpt>
      <trkpt lat="40.799459" lon="-3.932951">
        <ele>2362.3</ele>
        <time>2018-04-21T11:15:33.000Z</time>
      </trkpt>
      <trkpt lat="40.799459" lon="-3.932951">
        <ele>2362.3</ele>
        <time>2018-04-21T11:15:34.000Z</time>
      </trkpt>
      <trkpt lat="40.799459" lon="-3.932951">
        <ele>2362.3</ele>
        <time>2018-04-21T11:15:35.000Z</time>
      </trkpt>
      <trkpt lat="40.799459" lon="-3.932951">
        <ele>2362.3</ele>
        <time>2018-04-21T11:15:36.000Z</time>
      </trkpt>
      <trkpt lat="40.799459" lon="-3.932951">
        <ele>2362.3</ele>
        <time>2018-04-21T11:15:37.000Z</time>
      </trkpt>
      <trkpt lat="40.799459" lon="-3.932951">
        <ele>2362.3</ele>
        <time>2018-04-21T11:15:38.000Z</time>
      </trkpt>
      <trkpt lat="40.799459" lon="-3.932951">
        <ele>2362.3</ele>
        <time>2018-04-21T11:15:39.000Z</time>
      </trkpt>
      <trkpt lat="40.799459" lon="-3.932951">
        <ele>2362.3</ele>
        <time>2018-04-21T11:15:40.000Z</time>
      </trkpt>
      <trkpt lat="40.799459" lon="-3.932951">
        <ele>2362.3</ele>
        <time>2018-04-21T11:15:41.000Z</time>
      </trkpt>
      <trkpt lat="40.799459" lon="-3.932951">
        <ele>2362.3</ele>
        <time>2018-04-21T11:15:42.000Z</time>
      </trkpt>
      <trkpt lat="40.799459" lon="-3.932951">
        <ele>2362.3</ele>
        <time>2018-04-21T11:15:43.000Z</time>
      </trkpt>
      <trkpt lat="40.799459" lon="-3.932951">
        <ele>2362.3</ele>
        <time>2018-04-21T11:15:44.000Z</time>
      </trkpt>
      <trkpt lat="40.799459" lon="-3.932951">
        <ele>2362.3</ele>
        <time>2018-04-21T11:15:45.000Z</time>
      </trkpt>
      <trkpt lat="40.799459" lon="-3.932951">
        <ele>2362.3</ele>
        <time>2018-04-21T11:15:46.000Z</time>
      </trkpt>
      <trkpt lat="40.799459" lon="-3.932951">
        <ele>2362.3</ele>
        <time>2018-04-21T11:15:47.000Z</time>
      </trkpt>
      <trkpt lat="40.799459" lon="-3.932951">
        <ele>2362.3</ele>
        <time>2018-04-21T11:15:48.000Z</time>
      </trkpt>
      <trkpt lat="40.799459" lon="-3.932951">
        <ele>2362.3</ele>
        <time>2018-04-21T11:15:49.000Z</time>
      </trkpt>
      <trkpt lat="40.799459" lon="-3.932951">
        <ele>2362.3</ele>
        <time>2018-04-21T11:15:50.000Z</time>
      </trkpt>
      <trkpt lat="40.799459" lon="-3.932951">
        <ele>2362.3</ele>
        <time>2018-04-21T11:15:51.000Z</time>
      </trkpt>
      <trkpt lat="40.799459" lon="-3.932951">
        <ele>2362.3</ele>
        <time>2018-04-21T11:15:52.000Z</time>
      </trkpt>
      <trkpt lat="40.799459" lon="-3.932951">
        <ele>2362.3</ele>
        <time>2018-04-21T11:15:53.000Z</time>
      </trkpt>
      <trkpt lat="40.799459" lon="-3.932951">
        <ele>2362.3</ele>
        <time>2018-04-21T11:15:54.000Z</time>
      </trkpt>
      <trkpt lat="40.799459" lon="-3.932951">
        <ele>2362.3</ele>
        <time>2018-04-21T11:15:55.000Z</time>
      </trkpt>
      <trkpt lat="40.799459" lon="-3.932951">
        <ele>2362.3</ele>
        <time>2018-04-21T11:15:56.000Z</time>
      </trkpt>
      <trkpt lat="40.799459" lon="-3.932951">
        <ele>2362.3</ele>
        <time>2018-04-21T11:15:57.000Z</time>
      </trkpt>
      <trkpt lat="40.799459" lon="-3.932951">
        <ele>2362.3</ele>
        <time>2018-04-21T11:15:58.000Z</time>
      </trkpt>
      <trkpt lat="40.799459" lon="-3.932951">
        <ele>2362.3</ele>
        <time>2018-04-21T11:15:59.000Z</time>
      </trkpt>
      <trkpt lat="40.799459" lon="-3.932951">
        <ele>2362.3</ele>
        <time>2018-04-21T11:16:00.000Z</time>
      </trkpt>
      <trkpt lat="40.799459" lon="-3.932951">
        <ele>2362.3</ele>
        <time>2018-04-21T11:16:01.000Z</time>
      </trkpt>
      <trkpt lat="40.799459" lon="-3.932951">
        <ele>2362.3</ele>
        <time>2018-04-21T11:16:02.000Z</time>
      </trkpt>
      <trkpt lat="40.799459" lon="-3.932951">
        <ele>2362.3</ele>
        <time>2018-04-21T11:16:03.000Z</time>
      </trkpt>
      <trkpt lat="40.799459" lon="-3.932951">
        <ele>2362.3</ele>
        <time>2018-04-21T11:16:04.000Z</time>
      </trkpt>
      <trkpt lat="40.799459" lon="-3.932951">
        <ele>2362.3</ele>
        <time>2018-04-21T11:16:05.000Z</time>
      </trkpt>
      <trkpt lat="40.799459" lon="-3.932951">
        <ele>2362.3</ele>
        <time>2018-04-21T11:16:06.000Z</time>
      </trkpt>
      <trkpt lat="40.799459" lon="-3.932951">
        <ele>2362.3</ele>
        <time>2018-04-21T11:16:07.000Z</time>
      </trkpt>
      <trkpt lat="40.799459" lon="-3.932951">
        <ele>2362.3</ele>
        <time>2018-04-21T11:16:08.000Z</time>
      </trkpt>
      <trkpt lat="40.799459" lon="-3.932951">
        <ele>2362.3</ele>
        <time>2018-04-21T11:16:09.000Z</time>
      </trkpt>
      <trkpt lat="40.799459" lon="-3.932951">
        <ele>2362.3</ele>
        <time>2018-04-21T11:16:10.000Z</time>
      </trkpt>
      <trkpt lat="40.799459" lon="-3.932951">
        <ele>2362.3</ele>
        <time>2018-04-21T11:16:11.000Z</time>
      </trkpt>
      <trkpt lat="40.799459" lon="-3.932951">
        <ele>2362.3</ele>
        <time>2018-04-21T11:16:12.000Z</time>
      </trkpt>
      <trkpt lat="40.799459" lon="-3.932951">
        <ele>2362.3</ele>
        <time>2018-04-21T11:16:13.000Z</time>
      </trkpt>
      <trkpt lat="40.799459" lon="-3.932951">
        <ele>2362.3</ele>
        <time>2018-04-21T11:16:14.000Z</time>
      </trkpt>
      <trkpt lat="40.799459" lon="-3.932951">
        <ele>2362.3</ele>
        <time>2018-04-21T11:16:15.000Z</time>
      </trkpt>
      <trkpt lat="40.799459" lon="-3.932951">
        <ele>2362.3</ele>
        <time>2018-04-21T11:16:16.000Z</time>
      </trkpt>
      <trkpt lat="40.799459" lon="-3.932951">
        <ele>2362.3</ele>
        <time>2018-04-21T11:16:17.000Z</time>
      </trkpt>
      <trkpt lat="40.799459" lon="-3.932951">
        <ele>2362.3</ele>
        <time>2018-04-21T11:16:18.000Z</time>
      </trkpt>
      <trkpt lat="40.799459" lon="-3.932951">
        <ele>2362.3</ele>
        <time>2018-04-21T11:16:19.000Z</time>
      </trkpt>
      <trkpt lat="40.799459" lon="-3.932951">
        <ele>2362.3</ele>
        <time>2018-04-21T11:16:20.000Z</time>
      </trkpt>
      <trkpt lat="40.799459" lon="-3.932951">
        <ele>2362.3</ele>
        <time>2018-04-21T11:16:21.000Z</time>
      </trkpt>
      <trkpt lat="40.799459" lon="-3.932951">
        <ele>2362.3</ele>
        <time>2018-04-21T11:16:22.000Z</time>
      </trkpt>
      <trkpt lat="40.799459" lon="-3.932951">
        <ele>2362.3</ele>
        <time>2018-04-21T11:16:23.000Z</time>
      </trkpt>
      <trkpt lat="40.799459" lon="-3.932951">
        <ele>2362.3</ele>
        <time>2018-04-21T11:16:24.000Z</time>
      </trkpt>
      <trkpt lat="40.799459" lon="-3.932951">
        <ele>2362.3</ele>
        <time>2018-04-21T11:16:25.000Z</time>
      </trkpt>
      <trkpt lat="40.799459" lon="-3.932951">
        <ele>2362.3</ele>
        <time>2018-04-21T11:16:26.000Z</time>
      </trkpt>
      <trkpt lat="40.799459" lon="-3.932951">
        <ele>2362.3</ele>
        <time>2018-04-21T11:16:27.000Z</time>
      </trkpt>
      <trkpt lat="40.799459" lon="-3.932951">
        <ele>2362.3</ele>
        <time>2018-04-21T11:16:28.000Z</time>
      </trkpt>
      <trkpt lat="40.799459" lon="-3.932951">
        <ele>2362.3</ele>
        <time>2018-04-21T11:16:29.000Z</time>
      </trkpt>
      <trkpt lat="40.799459" lon="-3.932951">
        <ele>2362.3</ele>
        <time>2018-04-21T11:16:30.000Z</time>
      </trkpt>
      <trkpt lat="40.799459" lon="-3.932951">
        <ele>2362.3</ele>
        <time>2018-04-21T11:16:31.000Z</time>
      </trkpt>
      <trkpt lat="40.799459" lon="-3.932951">
        <ele>2362.3</ele>
        <time>2018-04-21T11:16:32.000Z</time>
      </trkpt>
      <trkpt lat="40.799459" lon="-3.932951">
        <ele>2362.3</ele>
        <time>2018-04-21T11:16:33.000Z</time>
      </trkpt>
      <trkpt lat="40.799459" lon="-3.932951">
        <ele>2362.3</ele>
        <time>2018-04-21T11:16:34.000Z</time>
      </trkpt>
      <trkpt lat="40.799459" lon="-3.932951">
        <ele>2362.3</ele>
        <time>2018-04-21T11:16:35.000Z</time>
      </trkpt>
      <trkpt lat="40.799459" lon="-3.932951">
        <ele>2362.3</ele>
        <time>2018-04-21T11:16:36.000Z</time>
      </trkpt>
      <trkpt lat="40.799459" lon="-3.932951">
        <ele>2362.3</ele>
        <time>2018-04-21T11:16:37.000Z</time>
      </trkpt>
      <trkpt lat="40.799459" lon="-3.932951">
        <ele>2362.3</ele>
        <time>2018-04-21T11:16:38.000Z</time>
      </trkpt>
      <trkpt lat="40.799459" lon="-3.932951">
        <ele>2362.3</ele>
        <time>2018-04-21T11:16:39.000Z</time>
      </trkpt>
      <trkpt lat="40.799459" lon="-3.932951">
        <ele>2362.3</ele>
        <time>2018-04-21T11:16:40.000Z</time>
      </trkpt>
      <trkpt lat="40.799459" lon="-3.932951">
        <ele>2362.3</ele>
        <time>2018-04-21T11:16:41.000Z</time>
      </trkpt>
      <trkpt lat="40.799459" lon="-3.932951">
        <ele>2362.3</ele>
        <time>2018-04-21T11:16:42.000Z</time>
      </trkpt>
      <trkpt lat="40.799459" lon="-3.932951">
        <ele>2362.3</ele>
        <time>2018-04-21T11:16:43.000Z</time>
      </trkpt>
      <trkpt lat="40.799459" lon="-3.932951">
        <ele>2362.3</ele>
        <time>2018-04-21T11:16:44.000Z</time>
      </trkpt>
      <trkpt lat="40.799459" lon="-3.932951">
        <ele>2362.3</ele>
        <time>2018-04-21T11:16:45.000Z</time>
      </trkpt>
      <trkpt lat="40.799459" lon="-3.932951">
        <ele>2362.3</ele>
        <time>2018-04-21T11:16:46.000Z</time>
      </trkpt>
      <trkpt lat="40.799459" lon="-3.932951">
        <ele>2362.3</ele>
        <time>2018-04-21T11:16:47.000Z</time>
      </trkpt>
      <trkpt lat="40.799459" lon="-3.932951">
        <ele>2362.3</ele>
        <time>2018-04-21T11:16:48.000Z</time>
      </trkpt>
      <trkpt lat="40.799459" lon="-3.932951">
        <ele>2362.3</ele>
        <time>2018-04-21T11:16:49.000Z</time>
      </trkpt>
      <trkpt lat="40.799459" lon="-3.932951">
        <ele>2362.3</ele>
        <time>2018-04-21T11:16:50.000Z</time>
      </trkpt>
      <trkpt lat="40.799459" lon="-3.932951">
        <ele>2362.3</ele>
        <time>2018-04-21T11:16:51.000Z</time>
      </trkpt>
      <trkpt lat="40.799459" lon="-3.932951">
        <ele>2362.3</ele>
        <time>2018-04-21T11:16:52.000Z</time>
      </trkpt>
      <trkpt lat="40.799459" lon="-3.932951">
        <ele>2362.3</ele>
        <time>2018-04-21T11:16:53.000Z</time>
      </trkpt>
      <trkpt lat="40.799459" lon="-3.932951">
        <ele>2362.3</ele>
        <time>2018-04-21T11:16:54.000Z</time>
      </trkpt>
      <trkpt lat="40.799459" lon="-3.932951">
        <ele>2362.3</ele>
        <time>2018-04-21T11:16:55.000Z</time>
      </trkpt>
      <trkpt lat="40.799459" lon="-3.932951">
        <ele>2362.3</ele>
        <time>2018-04-21T11:16:56.000Z</time>
      </trkpt>
      <trkpt lat="40.799459" lon="-3.932951">
        <ele>2362.3</ele>
        <time>2018-04-21T11:16:57.000Z</time>
      </trkpt>
      <trkpt lat="40.799459" lon="-3.932951">
        <ele>2362.3</ele>
        <time>2018-04-21T11:16:58.000Z</time>
      </trkpt>
      <trkpt lat="40.799459" lon="-3.932951">
        <ele>2362.3</ele>
        <time>2018-04-21T11:16:59.000Z</time>
      </trkpt>
      <trkpt lat="40.799459" lon="-3.932951">
        <ele>2362.3</ele>
        <time>2018-04-21T11:17:00.000Z</time>
      </trkpt>
      <trkpt lat="40.799459" lon="-3.932951">
        <ele>2362.3</ele>
        <time>2018-04-21T11:17:01.000Z</time>
      </trkpt>
      <trkpt lat="40.799459" lon="-3.932951">
        <ele>2362.3</ele>
        <time>2018-04-21T11:17:02.000Z</time>
      </trkpt>
      <trkpt lat="40.799459" lon="-3.932951">
        <ele>2362.3</ele>
        <time>2018-04-21T11:17:03.000Z</time>
      </trkpt>
      <trkpt lat="40.799459" lon="-3.932951">
        <ele>2362.3</ele>
        <time>2018-04-21T11:17:04.000Z</time>
      </trkpt>
      <trkpt lat="40.799459" lon="-3.932951">
        <ele>2362.3</ele>
        <time>2018-04-21T11:17:05.000Z</time>
      </trkpt>
      <trkpt lat="40.799459" lon="-3.932951">
        <ele>2362.3</ele>
        <time>2018-04-21T11:17:06.000Z</time>
      </trkpt>
      <trkpt lat="40.799459" lon="-3.932951">
        <ele>2362.3</ele>
        <time>2018-04-21T11:17:07.000Z</time>
      </trkpt>
      <trkpt lat="40.799459" lon="-3.932951">
        <ele>2362.3</ele>
        <time>2018-04-21T11:17:08.000Z</time>
      </trkpt>
      <trkpt lat="40.799459" lon="-3.932951">
        <ele>2362.3</ele>
        <time>2018-04-21T11:17:09.000Z</time>
      </trkpt>
      <trkpt lat="40.799459" lon="-3.932951">
        <ele>2362.3</ele>
        <time>2018-04-21T11:17:10.000Z</time>
      </trkpt>
      <trkpt lat="40.799459" lon="-3.932951">
        <ele>2362.3</ele>
        <time>2018-04-21T11:17:11.000Z</time>
      </trkpt>
      <trkpt lat="40.799459" lon="-3.932951">
        <ele>2362.3</ele>
        <time>2018-04-21T11:17:12.000Z</time>
      </trkpt>
      <trkpt lat="40.799458" lon="-3.932951">
        <ele>2362.3</ele>
        <time>2018-04-21T11:17:13.000Z</time>
      </trkpt>
      <trkpt lat="40.799458" lon="-3.932951">
        <ele>2362.3</ele>
        <time>2018-04-21T11:17:14.000Z</time>
      </trkpt>
      <trkpt lat="40.799457" lon="-3.93295">
        <ele>2362.3</ele>
        <time>2018-04-21T11:17:15.000Z</time>
      </trkpt>
      <trkpt lat="40.799456" lon="-3.932949">
        <ele>2362.4</ele>
        <time>2018-04-21T11:17:16.000Z</time>
      </trkpt>
      <trkpt lat="40.799455" lon="-3.932948">
        <ele>2362.4</ele>
        <time>2018-04-21T11:17:17.000Z</time>
      </trkpt>
      <trkpt lat="40.799453" lon="-3.932947">
        <ele>2362.4</ele>
        <time>2018-04-21T11:17:18.000Z</time>
      </trkpt>
      <trkpt lat="40.799452" lon="-3.932946">
        <ele>2362.4</ele>
        <time>2018-04-21T11:17:19.000Z</time>
      </trkpt>
      <trkpt lat="40.799451" lon="-3.932945">
        <ele>2362.4</ele>
        <time>2018-04-21T11:17:20.000Z</time>
      </trkpt>
      <trkpt lat="40.79945" lon="-3.932944">
        <ele>2362.5</ele>
        <time>2018-04-21T11:17:21.000Z</time>
      </trkpt>
      <trkpt lat="40.799449" lon="-3.932943">
        <ele>2362.5</ele>
        <time>2018-04-21T11:17:22.000Z</time>
      </trkpt>
      <trkpt lat="40.799448" lon="-3.932943">
        <ele>2362.5</ele>
        <time>2018-04-21T11:17:23.000Z</time>
      </trkpt>
      <trkpt lat="40.799447" lon="-3.932942">
        <ele>2362.5</ele>
        <time>2018-04-21T11:17:24.000Z</time>
      </trkpt>
      <trkpt lat="40.799446" lon="-3.932942">
        <ele>2362.5</ele>
        <time>2018-04-21T11:17:25.000Z</time>
      </trkpt>
      <trkpt lat="40.799446" lon="-3.932941">
        <ele>2362.5</ele>
        <time>2018-04-21T11:17:26.000Z</time>
      </trkpt>
      <trkpt lat="40.799445" lon="-3.932941">
        <ele>2362.5</ele>
        <time>2018-04-21T11:17:27.000Z</time>
      </trkpt>
      <trkpt lat="40.799445" lon="-3.932941">
        <ele>2362.5</ele>
        <time>2018-04-21T11:17:28.000Z</time>
      </trkpt>
      <trkpt lat="40.799445" lon="-3.93294">
        <ele>2362.5</ele>
        <time>2018-04-21T11:17:29.000Z</time>
      </trkpt>
      <trkpt lat="40.799445" lon="-3.93294">
        <ele>2362.5</ele>
        <time>2018-04-21T11:17:30.000Z</time>
      </trkpt>
      <trkpt lat="40.799444" lon="-3.93294">
        <ele>2362.5</ele>
        <time>2018-04-21T11:17:31.000Z</time>
      </trkpt>
      <trkpt lat="40.799444" lon="-3.93294">
        <ele>2362.5</ele>
        <time>2018-04-21T11:17:32.000Z</time>
      </trkpt>
      <trkpt lat="40.799444" lon="-3.93294">
        <ele>2362.5</ele>
        <time>2018-04-21T11:17:33.000Z</time>
      </trkpt>
      <trkpt lat="40.799444" lon="-3.93294">
        <ele>2362.5</ele>
        <time>2018-04-21T11:17:34.000Z</time>
      </trkpt>
      <trkpt lat="40.799444" lon="-3.93294">
        <ele>2362.5</ele>
        <time>2018-04-21T11:17:35.000Z</time>
      </trkpt>
      <trkpt lat="40.799444" lon="-3.93294">
        <ele>2362.5</ele>
        <time>2018-04-21T11:17:36.000Z</time>
      </trkpt>
      <trkpt lat="40.799444" lon="-3.93294">
        <ele>2362.5</ele>
        <time>2018-04-21T11:17:37.000Z</time>
      </trkpt>
      <trkpt lat="40.799444" lon="-3.93294">
        <ele>2362.5</ele>
        <time>2018-04-21T11:17:38.000Z</time>
      </trkpt>
      <trkpt lat="40.799444" lon="-3.93294">
        <ele>2362.5</ele>
        <time>2018-04-21T11:17:39.000Z</time>
      </trkpt>
      <trkpt lat="40.799444" lon="-3.93294">
        <ele>2362.5</ele>
        <time>2018-04-21T11:17:40.000Z</time>
      </trkpt>
      <trkpt lat="40.799444" lon="-3.93294">
        <ele>2362.5</ele>
        <time>2018-04-21T11:17:41.000Z</time>
      </trkpt>
      <trkpt lat="40.799444" lon="-3.93294">
        <ele>2362.5</ele>
        <time>2018-04-21T11:17:42.000Z</time>
      </trkpt>
      <trkpt lat="40.799444" lon="-3.93294">
        <ele>2362.5</ele>
        <time>2018-04-21T11:17:43.000Z</time>
      </trkpt>
      <trkpt lat="40.799444" lon="-3.93294">
        <ele>2362.5</ele>
        <time>2018-04-21T11:17:44.000Z</time>
      </trkpt>
      <trkpt lat="40.799444" lon="-3.93294">
        <ele>2362.5</ele>
        <time>2018-04-21T11:17:45.000Z</time>
      </trkpt>
      <trkpt lat="40.799444" lon="-3.93294">
        <ele>2362.5</ele>
        <time>2018-04-21T11:17:46.000Z</time>
      </trkpt>
      <trkpt lat="40.799444" lon="-3.93294">
        <ele>2362.5</ele>
        <time>2018-04-21T11:17:47.000Z</time>
      </trkpt>
      <trkpt lat="40.799444" lon="-3.93294">
        <ele>2362.5</ele>
        <time>2018-04-21T11:17:48.000Z</time>
      </trkpt>
      <trkpt lat="40.799444" lon="-3.93294">
        <ele>2362.5</ele>
        <time>2018-04-21T11:17:49.000Z</time>
      </trkpt>
      <trkpt lat="40.799444" lon="-3.93294">
        <ele>2362.5</ele>
        <time>2018-04-21T11:17:50.000Z</time>
      </trkpt>
      <trkpt lat="40.799444" lon="-3.93294">
        <ele>2362.5</ele>
        <time>2018-04-21T11:17:51.000Z</time>
      </trkpt>
      <trkpt lat="40.799444" lon="-3.93294">
        <ele>2362.5</ele>
        <time>2018-04-21T11:17:52.000Z</time>
      </trkpt>
      <trkpt lat="40.799444" lon="-3.93294">
        <ele>2362.5</ele>
        <time>2018-04-21T11:17:53.000Z</time>
      </trkpt>
      <trkpt lat="40.799444" lon="-3.93294">
        <ele>2362.5</ele>
        <time>2018-04-21T11:17:54.000Z</time>
      </trkpt>
      <trkpt lat="40.799444" lon="-3.93294">
        <ele>2362.5</ele>
        <time>2018-04-21T11:17:55.000Z</time>
      </trkpt>
      <trkpt lat="40.799444" lon="-3.93294">
        <ele>2362.5</ele>
        <time>2018-04-21T11:17:56.000Z</time>
      </trkpt>
      <trkpt lat="40.799443" lon="-3.93294">
        <ele>2362.6</ele>
        <time>2018-04-21T11:17:57.000Z</time>
      </trkpt>
      <trkpt lat="40.799443" lon="-3.93294">
        <ele>2362.6</ele>
        <time>2018-04-21T11:17:58.000Z</time>
      </trkpt>
      <trkpt lat="40.799443" lon="-3.93294">
        <ele>2362.6</ele>
        <time>2018-04-21T11:17:59.000Z</time>
      </trkpt>
      <trkpt lat="40.799443" lon="-3.93294">
        <ele>2362.6</ele>
        <time>2018-04-21T11:18:00.000Z</time>
      </trkpt>
      <trkpt lat="40.799443" lon="-3.93294">
        <ele>2362.6</ele>
        <time>2018-04-21T11:18:01.000Z</time>
      </trkpt>
      <trkpt lat="40.799443" lon="-3.93294">
        <ele>2362.6</ele>
        <time>2018-04-21T11:18:02.000Z</time>
      </trkpt>
      <trkpt lat="40.799443" lon="-3.93294">
        <ele>2362.6</ele>
        <time>2018-04-21T11:18:03.000Z</time>
      </trkpt>
      <trkpt lat="40.799443" lon="-3.93294">
        <ele>2362.6</ele>
        <time>2018-04-21T11:18:04.000Z</time>
      </trkpt>
      <trkpt lat="40.799442" lon="-3.93294">
        <ele>2362.6</ele>
        <time>2018-04-21T11:18:05.000Z</time>
      </trkpt>
      <trkpt lat="40.799442" lon="-3.93294">
        <ele>2362.6</ele>
        <time>2018-04-21T11:18:06.000Z</time>
      </trkpt>
      <trkpt lat="40.799442" lon="-3.93294">
        <ele>2362.6</ele>
        <time>2018-04-21T11:18:07.000Z</time>
      </trkpt>
      <trkpt lat="40.799442" lon="-3.93294">
        <ele>2362.6</ele>
        <time>2018-04-21T11:18:08.000Z</time>
      </trkpt>
      <trkpt lat="40.799442" lon="-3.93294">
        <ele>2362.6</ele>
        <time>2018-04-21T11:18:09.000Z</time>
      </trkpt>
      <trkpt lat="40.799442" lon="-3.93294">
        <ele>2362.6</ele>
        <time>2018-04-21T11:18:10.000Z</time>
      </trkpt>
      <trkpt lat="40.799442" lon="-3.93294">
        <ele>2362.6</ele>
        <time>2018-04-21T11:18:11.000Z</time>
      </trkpt>
      <trkpt lat="40.799442" lon="-3.93294">
        <ele>2362.6</ele>
        <time>2018-04-21T11:18:12.000Z</time>
      </trkpt>
      <trkpt lat="40.799442" lon="-3.932941">
        <ele>2362.6</ele>
        <time>2018-04-21T11:18:13.000Z</time>
      </trkpt>
      <trkpt lat="40.799442" lon="-3.932941">
        <ele>2362.6</ele>
        <time>2018-04-21T11:18:14.000Z</time>
      </trkpt>
      <trkpt lat="40.799441" lon="-3.932941">
        <ele>2362.6</ele>
        <time>2018-04-21T11:18:15.000Z</time>
      </trkpt>
      <trkpt lat="40.799441" lon="-3.932941">
        <ele>2362.6</ele>
        <time>2018-04-21T11:18:16.000Z</time>
      </trkpt>
      <trkpt lat="40.799441" lon="-3.932941">
        <ele>2362.6</ele>
        <time>2018-04-21T11:18:17.000Z</time>
      </trkpt>
      <trkpt lat="40.799441" lon="-3.932941">
        <ele>2362.6</ele>
        <time>2018-04-21T11:18:18.000Z</time>
      </trkpt>
      <trkpt lat="40.799441" lon="-3.932941">
        <ele>2362.6</ele>
        <time>2018-04-21T11:18:19.000Z</time>
      </trkpt>
      <trkpt lat="40.799441" lon="-3.932941">
        <ele>2362.6</ele>
        <time>2018-04-21T11:18:20.000Z</time>
      </trkpt>
      <trkpt lat="40.799441" lon="-3.932941">
        <ele>2362.6</ele>
        <time>2018-04-21T11:18:21.000Z</time>
      </trkpt>
      <trkpt lat="40.799441" lon="-3.932941">
        <ele>2362.6</ele>
        <time>2018-04-21T11:18:22.000Z</time>
      </trkpt>
      <trkpt lat="40.799441" lon="-3.932941">
        <ele>2362.6</ele>
        <time>2018-04-21T11:18:23.000Z</time>
      </trkpt>
      <trkpt lat="40.799441" lon="-3.932941">
        <ele>2362.6</ele>
        <time>2018-04-21T11:18:24.000Z</time>
      </trkpt>
      <trkpt lat="40.799441" lon="-3.932941">
        <ele>2362.6</ele>
        <time>2018-04-21T11:18:25.000Z</time>
      </trkpt>
      <trkpt lat="40.799441" lon="-3.932941">
        <ele>2362.6</ele>
        <time>2018-04-21T11:18:26.000Z</time>
      </trkpt>
      <trkpt lat="40.799441" lon="-3.932941">
        <ele>2362.6</ele>
        <time>2018-04-21T11:18:27.000Z</time>
      </trkpt>
      <trkpt lat="40.799441" lon="-3.932941">
        <ele>2362.6</ele>
        <time>2018-04-21T11:18:28.000Z</time>
      </trkpt>
      <trkpt lat="40.799441" lon="-3.932941">
        <ele>2362.6</ele>
        <time>2018-04-21T11:18:29.000Z</time>
      </trkpt>
      <trkpt lat="40.799441" lon="-3.932941">
        <ele>2362.6</ele>
        <time>2018-04-21T11:18:30.000Z</time>
      </trkpt>
      <trkpt lat="40.799441" lon="-3.932941">
        <ele>2362.6</ele>
        <time>2018-04-21T11:18:31.000Z</time>
      </trkpt>
      <trkpt lat="40.799441" lon="-3.932941">
        <ele>2362.6</ele>
        <time>2018-04-21T11:18:32.000Z</time>
      </trkpt>
      <trkpt lat="40.799441" lon="-3.932941">
        <ele>2362.6</ele>
        <time>2018-04-21T11:18:33.000Z</time>
      </trkpt>
      <trkpt lat="40.799441" lon="-3.932942">
        <ele>2362.6</ele>
        <time>2018-04-21T11:18:34.000Z</time>
      </trkpt>
      <trkpt lat="40.799441" lon="-3.932944">
        <ele>2362.6</ele>
        <time>2018-04-21T11:18:35.000Z</time>
      </trkpt>
      <trkpt lat="40.79944" lon="-3.932948">
        <ele>2362.5</ele>
        <time>2018-04-21T11:18:36.000Z</time>
      </trkpt>
      <trkpt lat="40.799439" lon="-3.932952">
        <ele>2362.5</ele>
        <time>2018-04-21T11:18:37.000Z</time>
      </trkpt>
      <trkpt lat="40.799438" lon="-3.932958">
        <ele>2362.5</ele>
        <time>2018-04-21T11:18:38.000Z</time>
      </trkpt>
      <trkpt lat="40.799436" lon="-3.932963">
        <ele>2362.5</ele>
        <time>2018-04-21T11:18:39.000Z</time>
      </trkpt>
      <trkpt lat="40.799433" lon="-3.932967">
        <ele>2362.5</ele>
        <time>2018-04-21T11:18:40.000Z</time>
      </trkpt>
      <trkpt lat="40.79943" lon="-3.93297">
        <ele>2362.5</ele>
        <time>2018-04-21T11:18:41.000Z</time>
      </trkpt>
      <trkpt lat="40.799425" lon="-3.932971">
        <ele>2362.6</ele>
        <time>2018-04-21T11:18:42.000Z</time>
      </trkpt>
      <trkpt lat="40.799421" lon="-3.932971">
        <ele>2362.6</ele>
        <time>2018-04-21T11:18:43.000Z</time>
      </trkpt>
      <trkpt lat="40.799415" lon="-3.93297">
        <ele>2362.7</ele>
        <time>2018-04-21T11:18:44.000Z</time>
      </trkpt>
      <trkpt lat="40.799409" lon="-3.932969">
        <ele>2362.8</ele>
        <time>2018-04-21T11:18:45.000Z</time>
      </trkpt>
      <trkpt lat="40.799402" lon="-3.932969">
        <ele>2362.9</ele>
        <time>2018-04-21T11:18:46.000Z</time>
      </trkpt>
      <trkpt lat="40.799394" lon="-3.932968">
        <ele>2363.0</ele>
        <time>2018-04-21T11:18:47.000Z</time>
      </trkpt>
      <trkpt lat="40.799387" lon="-3.932968">
        <ele>2363.0</ele>
        <time>2018-04-21T11:18:48.000Z</time>
      </trkpt>
      <trkpt lat="40.79938" lon="-3.932967">
        <ele>2363.1</ele>
        <time>2018-04-21T11:18:49.000Z</time>
      </trkpt>
      <trkpt lat="40.799373" lon="-3.932965">
        <ele>2363.2</ele>
        <time>2018-04-21T11:18:50.000Z</time>
      </trkpt>
      <trkpt lat="40.799368" lon="-3.932963">
        <ele>2363.3</ele>
        <time>2018-04-21T11:18:51.000Z</time>
      </trkpt>
      <trkpt lat="40.799362" lon="-3.932962">
        <ele>2363.3</ele>
        <time>2018-04-21T11:18:52.000Z</time>
      </trkpt>
      <trkpt lat="40.799357" lon="-3.932961">
        <ele>2363.4</ele>
        <time>2018-04-21T11:18:53.000Z</time>
      </trkpt>
      <trkpt lat="40.799352" lon="-3.932961">
        <ele>2363.5</ele>
        <time>2018-04-21T11:18:54.000Z</time>
      </trkpt>
      <trkpt lat="40.799348" lon="-3.932963">
        <ele>2363.5</ele>
        <time>2018-04-21T11:18:55.000Z</time>
      </trkpt>
      <trkpt lat="40.799344" lon="-3.932966">
        <ele>2363.5</ele>
        <time>2018-04-21T11:18:56.000Z</time>
      </trkpt>
      <trkpt lat="40.799341" lon="-3.932969">
        <ele>2363.6</ele>
        <time>2018-04-21T11:18:57.000Z</time>
      </trkpt>
      <trkpt lat="40.799338" lon="-3.932972">
        <ele>2363.6</ele>
        <time>2018-04-21T11:18:58.000Z</time>
      </trkpt>
      <trkpt lat="40.799337" lon="-3.932973">
        <ele>2363.6</ele>
        <time>2018-04-21T11:18:59.000Z</time>
      </trkpt>
      <trkpt lat="40.799337" lon="-3.932974">
        <ele>2363.6</ele>
        <time>2018-04-21T11:19:00.000Z</time>
      </trkpt>
      <trkpt lat="40.799337" lon="-3.932974">
        <ele>2363.6</ele>
        <time>2018-04-21T11:19:01.000Z</time>
      </trkpt>
      <trkpt lat="40.799338" lon="-3.932974">
        <ele>2363.6</ele>
        <time>2018-04-21T11:19:02.000Z</time>
      </trkpt>
      <trkpt lat="40.799339" lon="-3.932974">
        <ele>2363.6</ele>
        <time>2018-04-21T11:19:03.000Z</time>
      </trkpt>
      <trkpt lat="40.799339" lon="-3.932974">
        <ele>2363.6</ele>
        <time>2018-04-21T11:19:04.000Z</time>
      </trkpt>
      <trkpt lat="40.79934" lon="-3.932975">
        <ele>2363.6</ele>
        <time>2018-04-21T11:19:05.000Z</time>
      </trkpt>
      <trkpt lat="40.799339" lon="-3.932977">
        <ele>2363.6</ele>
        <time>2018-04-21T11:19:06.000Z</time>
      </trkpt>
      <trkpt lat="40.799338" lon="-3.93298">
        <ele>2363.6</ele>
        <time>2018-04-21T11:19:07.000Z</time>
      </trkpt>
      <trkpt lat="40.799335" lon="-3.932984">
        <ele>2363.6</ele>
        <time>2018-04-21T11:19:08.000Z</time>
      </trkpt>
      <trkpt lat="40.799331" lon="-3.93299">
        <ele>2363.6</ele>
        <time>2018-04-21T11:19:09.000Z</time>
      </trkpt>
      <trkpt lat="40.799327" lon="-3.932996">
        <ele>2363.6</ele>
        <time>2018-04-21T11:19:10.000Z</time>
      </trkpt>
      <trkpt lat="40.799324" lon="-3.933001">
        <ele>2363.7</ele>
        <time>2018-04-21T11:19:11.000Z</time>
      </trkpt>
      <trkpt lat="40.799321" lon="-3.933005">
        <ele>2363.7</ele>
        <time>2018-04-21T11:19:12.000Z</time>
      </trkpt>
      <trkpt lat="40.799319" lon="-3.933009">
        <ele>2363.7</ele>
        <time>2018-04-21T11:19:13.000Z</time>
      </trkpt>
      <trkpt lat="40.799317" lon="-3.933011">
        <ele>2363.7</ele>
        <time>2018-04-21T11:19:14.000Z</time>
      </trkpt>
      <trkpt lat="40.799317" lon="-3.933012">
        <ele>2363.7</ele>
        <time>2018-04-21T11:19:15.000Z</time>
      </trkpt>
      <trkpt lat="40.799317" lon="-3.933013">
        <ele>2363.7</ele>
        <time>2018-04-21T11:19:16.000Z</time>
      </trkpt>
      <trkpt lat="40.799317" lon="-3.933013">
        <ele>2363.7</ele>
        <time>2018-04-21T11:19:17.000Z</time>
      </trkpt>
      <trkpt lat="40.799317" lon="-3.933014">
        <ele>2363.7</ele>
        <time>2018-04-21T11:19:18.000Z</time>
      </trkpt>
      <trkpt lat="40.799317" lon="-3.933014">
        <ele>2363.7</ele>
        <time>2018-04-21T11:19:19.000Z</time>
      </trkpt>
      <trkpt lat="40.799317" lon="-3.933014">
        <ele>2363.7</ele>
        <time>2018-04-21T11:19:20.000Z</time>
      </trkpt>
      <trkpt lat="40.799317" lon="-3.933014">
        <ele>2363.7</ele>
        <time>2018-04-21T11:19:21.000Z</time>
      </trkpt>
      <trkpt lat="40.799317" lon="-3.933014">
        <ele>2363.7</ele>
        <time>2018-04-21T11:19:22.000Z</time>
      </trkpt>
      <trkpt lat="40.799317" lon="-3.933014">
        <ele>2363.7</ele>
        <time>2018-04-21T11:19:23.000Z</time>
      </trkpt>
      <trkpt lat="40.799317" lon="-3.933014">
        <ele>2363.7</ele>
        <time>2018-04-21T11:19:24.000Z</time>
      </trkpt>
      <trkpt lat="40.799317" lon="-3.933014">
        <ele>2363.7</ele>
        <time>2018-04-21T11:19:25.000Z</time>
      </trkpt>
      <trkpt lat="40.799317" lon="-3.933014">
        <ele>2363.7</ele>
        <time>2018-04-21T11:19:26.000Z</time>
      </trkpt>
      <trkpt lat="40.799317" lon="-3.933014">
        <ele>2363.7</ele>
        <time>2018-04-21T11:19:27.000Z</time>
      </trkpt>
      <trkpt lat="40.799317" lon="-3.933014">
        <ele>2363.7</ele>
        <time>2018-04-21T11:19:28.000Z</time>
      </trkpt>
      <trkpt lat="40.799317" lon="-3.933013">
        <ele>2363.7</ele>
        <time>2018-04-21T11:19:29.000Z</time>
      </trkpt>
      <trkpt lat="40.799317" lon="-3.933013">
        <ele>2363.7</ele>
        <time>2018-04-21T11:19:30.000Z</time>
      </trkpt>
      <trkpt lat="40.799317" lon="-3.933013">
        <ele>2363.7</ele>
        <time>2018-04-21T11:19:31.000Z</time>
      </trkpt>
      <trkpt lat="40.799317" lon="-3.933013">
        <ele>2363.7</ele>
        <time>2018-04-21T11:19:32.000Z</time>
      </trkpt>
      <trkpt lat="40.799317" lon="-3.933013">
        <ele>2363.7</ele>
        <time>2018-04-21T11:19:33.000Z</time>
      </trkpt>
      <trkpt lat="40.799317" lon="-3.933013">
        <ele>2363.7</ele>
        <time>2018-04-21T11:19:34.000Z</time>
      </trkpt>
      <trkpt lat="40.799317" lon="-3.933013">
        <ele>2363.7</ele>
        <time>2018-04-21T11:19:35.000Z</time>
      </trkpt>
      <trkpt lat="40.799317" lon="-3.933013">
        <ele>2363.7</ele>
        <time>2018-04-21T11:19:36.000Z</time>
      </trkpt>
      <trkpt lat="40.799317" lon="-3.933013">
        <ele>2363.7</ele>
        <time>2018-04-21T11:19:37.000Z</time>
      </trkpt>
      <trkpt lat="40.799317" lon="-3.933013">
        <ele>2363.7</ele>
        <time>2018-04-21T11:19:38.000Z</time>
      </trkpt>
      <trkpt lat="40.799317" lon="-3.933013">
        <ele>2363.7</ele>
        <time>2018-04-21T11:19:39.000Z</time>
      </trkpt>
      <trkpt lat="40.799317" lon="-3.933013">
        <ele>2363.7</ele>
        <time>2018-04-21T11:19:40.000Z</time>
      </trkpt>
      <trkpt lat="40.799317" lon="-3.933013">
        <ele>2363.7</ele>
        <time>2018-04-21T11:19:41.000Z</time>
      </trkpt>
      <trkpt lat="40.799317" lon="-3.933013">
        <ele>2363.7</ele>
        <time>2018-04-21T11:19:42.000Z</time>
      </trkpt>
      <trkpt lat="40.799317" lon="-3.933013">
        <ele>2363.7</ele>
        <time>2018-04-21T11:19:43.000Z</time>
      </trkpt>
      <trkpt lat="40.799317" lon="-3.933013">
        <ele>2363.7</ele>
        <time>2018-04-21T11:19:44.000Z</time>
      </trkpt>
      <trkpt lat="40.799317" lon="-3.933013">
        <ele>2363.7</ele>
        <time>2018-04-21T11:19:45.000Z</time>
      </trkpt>
      <trkpt lat="40.799317" lon="-3.933013">
        <ele>2363.7</ele>
        <time>2018-04-21T11:19:46.000Z</time>
      </trkpt>
      <trkpt lat="40.799317" lon="-3.933013">
        <ele>2363.7</ele>
        <time>2018-04-21T11:19:47.000Z</time>
      </trkpt>
      <trkpt lat="40.799317" lon="-3.933013">
        <ele>2363.7</ele>
        <time>2018-04-21T11:19:48.000Z</time>
      </trkpt>
      <trkpt lat="40.799317" lon="-3.933013">
        <ele>2363.7</ele>
        <time>2018-04-21T11:19:49.000Z</time>
      </trkpt>
      <trkpt lat="40.799317" lon="-3.933013">
        <ele>2363.7</ele>
        <time>2018-04-21T11:19:50.000Z</time>
      </trkpt>
      <trkpt lat="40.799318" lon="-3.933013">
        <ele>2363.7</ele>
        <time>2018-04-21T11:19:51.000Z</time>
      </trkpt>
      <trkpt lat="40.799318" lon="-3.933013">
        <ele>2363.7</ele>
        <time>2018-04-21T11:19:52.000Z</time>
      </trkpt>
      <trkpt lat="40.799318" lon="-3.933013">
        <ele>2363.7</ele>
        <time>2018-04-21T11:19:53.000Z</time>
      </trkpt>
      <trkpt lat="40.799318" lon="-3.933013">
        <ele>2363.7</ele>
        <time>2018-04-21T11:19:54.000Z</time>
      </trkpt>
      <trkpt lat="40.799318" lon="-3.933013">
        <ele>2363.7</ele>
        <time>2018-04-21T11:19:55.000Z</time>
      </trkpt>
      <trkpt lat="40.799318" lon="-3.933013">
        <ele>2363.7</ele>
        <time>2018-04-21T11:19:56.000Z</time>
      </trkpt>
      <trkpt lat="40.799318" lon="-3.933013">
        <ele>2363.7</ele>
        <time>2018-04-21T11:19:57.000Z</time>
      </trkpt>
      <trkpt lat="40.799318" lon="-3.933013">
        <ele>2363.7</ele>
        <time>2018-04-21T11:19:58.000Z</time>
      </trkpt>
      <trkpt lat="40.799318" lon="-3.933013">
        <ele>2363.7</ele>
        <time>2018-04-21T11:19:59.000Z</time>
      </trkpt>
      <trkpt lat="40.799318" lon="-3.933012">
        <ele>2363.7</ele>
        <time>2018-04-21T11:20:00.000Z</time>
      </trkpt>
      <trkpt lat="40.799318" lon="-3.933012">
        <ele>2363.7</ele>
        <time>2018-04-21T11:20:01.000Z</time>
      </trkpt>
      <trkpt lat="40.799318" lon="-3.933012">
        <ele>2363.7</ele>
        <time>2018-04-21T11:20:02.000Z</time>
      </trkpt>
      <trkpt lat="40.799318" lon="-3.933012">
        <ele>2363.7</ele>
        <time>2018-04-21T11:20:03.000Z</time>
      </trkpt>
      <trkpt lat="40.799318" lon="-3.933012">
        <ele>2363.7</ele>
        <time>2018-04-21T11:20:04.000Z</time>
      </trkpt>
      <trkpt lat="40.799318" lon="-3.933012">
        <ele>2363.7</ele>
        <time>2018-04-21T11:20:05.000Z</time>
      </trkpt>
      <trkpt lat="40.799318" lon="-3.933012">
        <ele>2363.7</ele>
        <time>2018-04-21T11:20:06.000Z</time>
      </trkpt>
      <trkpt lat="40.799318" lon="-3.933012">
        <ele>2363.7</ele>
        <time>2018-04-21T11:20:07.000Z</time>
      </trkpt>
      <trkpt lat="40.799318" lon="-3.933012">
        <ele>2363.7</ele>
        <time>2018-04-21T11:20:08.000Z</time>
      </trkpt>
      <trkpt lat="40.799318" lon="-3.933012">
        <ele>2363.7</ele>
        <time>2018-04-21T11:20:09.000Z</time>
      </trkpt>
      <trkpt lat="40.799318" lon="-3.933012">
        <ele>2363.7</ele>
        <time>2018-04-21T11:20:10.000Z</time>
      </trkpt>
      <trkpt lat="40.799318" lon="-3.933011">
        <ele>2363.7</ele>
        <time>2018-04-21T11:20:11.000Z</time>
      </trkpt>
      <trkpt lat="40.799317" lon="-3.933011">
        <ele>2363.7</ele>
        <time>2018-04-21T11:20:12.000Z</time>
      </trkpt>
      <trkpt lat="40.799317" lon="-3.933011">
        <ele>2363.7</ele>
        <time>2018-04-21T11:20:13.000Z</time>
      </trkpt>
      <trkpt lat="40.799317" lon="-3.933011">
        <ele>2363.7</ele>
        <time>2018-04-21T11:20:14.000Z</time>
      </trkpt>
      <trkpt lat="40.799317" lon="-3.933011">
        <ele>2363.7</ele>
        <time>2018-04-21T11:20:15.000Z</time>
      </trkpt>
      <trkpt lat="40.799317" lon="-3.933011">
        <ele>2363.7</ele>
        <time>2018-04-21T11:20:16.000Z</time>
      </trkpt>
      <trkpt lat="40.799316" lon="-3.933011">
        <ele>2363.7</ele>
        <time>2018-04-21T11:20:17.000Z</time>
      </trkpt>
      <trkpt lat="40.799316" lon="-3.933011">
        <ele>2363.7</ele>
        <time>2018-04-21T11:20:18.000Z</time>
      </trkpt>
      <trkpt lat="40.799316" lon="-3.933011">
        <ele>2363.7</ele>
        <time>2018-04-21T11:20:19.000Z</time>
      </trkpt>
      <trkpt lat="40.799315" lon="-3.933011">
        <ele>2363.8</ele>
        <time>2018-04-21T11:20:20.000Z</time>
      </trkpt>
      <trkpt lat="40.799315" lon="-3.933011">
        <ele>2363.8</ele>
        <time>2018-04-21T11:20:21.000Z</time>
      </trkpt>
      <trkpt lat="40.799315" lon="-3.93301">
        <ele>2363.8</ele>
        <time>2018-04-21T11:20:22.000Z</time>
      </trkpt>
      <trkpt lat="40.799314" lon="-3.93301">
        <ele>2363.8</ele>
        <time>2018-04-21T11:20:23.000Z</time>
      </trkpt>
      <trkpt lat="40.799314" lon="-3.93301">
        <ele>2363.8</ele>
        <time>2018-04-21T11:20:24.000Z</time>
      </trkpt>
      <trkpt lat="40.799313" lon="-3.93301">
        <ele>2363.8</ele>
        <time>2018-04-21T11:20:25.000Z</time>
      </trkpt>
      <trkpt lat="40.799313" lon="-3.93301">
        <ele>2363.8</ele>
        <time>2018-04-21T11:20:26.000Z</time>
      </trkpt>
      <trkpt lat="40.799312" lon="-3.93301">
        <ele>2363.8</ele>
        <time>2018-04-21T11:20:27.000Z</time>
      </trkpt>
      <trkpt lat="40.799312" lon="-3.93301">
        <ele>2363.8</ele>
        <time>2018-04-21T11:20:28.000Z</time>
      </trkpt>
      <trkpt lat="40.799311" lon="-3.93301">
        <ele>2363.8</ele>
        <time>2018-04-21T11:20:29.000Z</time>
      </trkpt>
      <trkpt lat="40.799311" lon="-3.93301">
        <ele>2363.8</ele>
        <time>2018-04-21T11:20:30.000Z</time>
      </trkpt>
      <trkpt lat="40.79931" lon="-3.93301">
        <ele>2363.8</ele>
        <time>2018-04-21T11:20:31.000Z</time>
      </trkpt>
      <trkpt lat="40.79931" lon="-3.93301">
        <ele>2363.8</ele>
        <time>2018-04-21T11:20:32.000Z</time>
      </trkpt>
      <trkpt lat="40.79931" lon="-3.93301">
        <ele>2363.8</ele>
        <time>2018-04-21T11:20:33.000Z</time>
      </trkpt>
      <trkpt lat="40.799309" lon="-3.93301">
        <ele>2363.8</ele>
        <time>2018-04-21T11:20:34.000Z</time>
      </trkpt>
      <trkpt lat="40.799309" lon="-3.933009">
        <ele>2363.8</ele>
        <time>2018-04-21T11:20:35.000Z</time>
      </trkpt>
      <trkpt lat="40.799308" lon="-3.933009">
        <ele>2363.8</ele>
        <time>2018-04-21T11:20:36.000Z</time>
      </trkpt>
      <trkpt lat="40.799308" lon="-3.933009">
        <ele>2363.8</ele>
        <time>2018-04-21T11:20:37.000Z</time>
      </trkpt>
      <trkpt lat="40.799308" lon="-3.933009">
        <ele>2363.8</ele>
        <time>2018-04-21T11:20:38.000Z</time>
      </trkpt>
      <trkpt lat="40.799307" lon="-3.933009">
        <ele>2363.9</ele>
        <time>2018-04-21T11:20:39.000Z</time>
      </trkpt>
      <trkpt lat="40.799307" lon="-3.933009">
        <ele>2363.9</ele>
        <time>2018-04-21T11:20:40.000Z</time>
      </trkpt>
      <trkpt lat="40.799307" lon="-3.933009">
        <ele>2363.9</ele>
        <time>2018-04-21T11:20:41.000Z</time>
      </trkpt>
      <trkpt lat="40.799307" lon="-3.933009">
        <ele>2363.9</ele>
        <time>2018-04-21T11:20:42.000Z</time>
      </trkpt>
      <trkpt lat="40.799306" lon="-3.933009">
        <ele>2363.9</ele>
        <time>2018-04-21T11:20:43.000Z</time>
      </trkpt>
      <trkpt lat="40.799306" lon="-3.933009">
        <ele>2363.9</ele>
        <time>2018-04-21T11:20:44.000Z</time>
      </trkpt>
      <trkpt lat="40.799306" lon="-3.933009">
        <ele>2363.9</ele>
        <time>2018-04-21T11:20:45.000Z</time>
      </trkpt>
      <trkpt lat="40.799306" lon="-3.933009">
        <ele>2363.9</ele>
        <time>2018-04-21T11:20:46.000Z</time>
      </trkpt>
      <trkpt lat="40.799306" lon="-3.933009">
        <ele>2363.9</ele>
        <time>2018-04-21T11:20:47.000Z</time>
      </trkpt>
      <trkpt lat="40.799306" lon="-3.933009">
        <ele>2363.9</ele>
        <time>2018-04-21T11:20:48.000Z</time>
      </trkpt>
      <trkpt lat="40.799306" lon="-3.933009">
        <ele>2363.9</ele>
        <time>2018-04-21T11:20:49.000Z</time>
      </trkpt>
      <trkpt lat="40.799306" lon="-3.933009">
        <ele>2363.9</ele>
        <time>2018-04-21T11:20:50.000Z</time>
      </trkpt>
      <trkpt lat="40.799306" lon="-3.933009">
        <ele>2363.9</ele>
        <time>2018-04-21T11:20:51.000Z</time>
      </trkpt>
      <trkpt lat="40.799306" lon="-3.933009">
        <ele>2363.9</ele>
        <time>2018-04-21T11:20:52.000Z</time>
      </trkpt>
      <trkpt lat="40.799306" lon="-3.933009">
        <ele>2363.9</ele>
        <time>2018-04-21T11:20:53.000Z</time>
      </trkpt>
      <trkpt lat="40.799306" lon="-3.933009">
        <ele>2363.9</ele>
        <time>2018-04-21T11:20:54.000Z</time>
      </trkpt>
      <trkpt lat="40.799306" lon="-3.933009">
        <ele>2363.9</ele>
        <time>2018-04-21T11:20:55.000Z</time>
      </trkpt>
      <trkpt lat="40.799306" lon="-3.933009">
        <ele>2363.9</ele>
        <time>2018-04-21T11:20:56.000Z</time>
      </trkpt>
      <trkpt lat="40.799306" lon="-3.933009">
        <ele>2363.9</ele>
        <time>2018-04-21T11:20:57.000Z</time>
      </trkpt>
      <trkpt lat="40.799306" lon="-3.933009">
        <ele>2363.9</ele>
        <time>2018-04-21T11:20:58.000Z</time>
      </trkpt>
      <trkpt lat="40.799306" lon="-3.933009">
        <ele>2363.9</ele>
        <time>2018-04-21T11:20:59.000Z</time>
      </trkpt>
      <trkpt lat="40.799306" lon="-3.933009">
        <ele>2363.9</ele>
        <time>2018-04-21T11:21:00.000Z</time>
      </trkpt>
      <trkpt lat="40.799306" lon="-3.933009">
        <ele>2363.9</ele>
        <time>2018-04-21T11:21:01.000Z</time>
      </trkpt>
      <trkpt lat="40.799306" lon="-3.933009">
        <ele>2363.9</ele>
        <time>2018-04-21T11:21:02.000Z</time>
      </trkpt>
      <trkpt lat="40.799306" lon="-3.933009">
        <ele>2363.9</ele>
        <time>2018-04-21T11:21:03.000Z</time>
      </trkpt>
      <trkpt lat="40.799306" lon="-3.933009">
        <ele>2363.9</ele>
        <time>2018-04-21T11:21:04.000Z</time>
      </trkpt>
      <trkpt lat="40.799306" lon="-3.933009">
        <ele>2363.9</ele>
        <time>2018-04-21T11:21:05.000Z</time>
      </trkpt>
      <trkpt lat="40.799306" lon="-3.933009">
        <ele>2363.9</ele>
        <time>2018-04-21T11:21:06.000Z</time>
      </trkpt>
      <trkpt lat="40.799306" lon="-3.933009">
        <ele>2363.9</ele>
        <time>2018-04-21T11:21:07.000Z</time>
      </trkpt>
      <trkpt lat="40.799306" lon="-3.933009">
        <ele>2363.9</ele>
        <time>2018-04-21T11:21:08.000Z</time>
      </trkpt>
      <trkpt lat="40.799306" lon="-3.933009">
        <ele>2363.9</ele>
        <time>2018-04-21T11:21:09.000Z</time>
      </trkpt>
      <trkpt lat="40.799306" lon="-3.933009">
        <ele>2363.9</ele>
        <time>2018-04-21T11:21:10.000Z</time>
      </trkpt>
      <trkpt lat="40.799306" lon="-3.933009">
        <ele>2363.9</ele>
        <time>2018-04-21T11:21:11.000Z</time>
      </trkpt>
      <trkpt lat="40.799306" lon="-3.933009">
        <ele>2363.9</ele>
        <time>2018-04-21T11:21:12.000Z</time>
      </trkpt>
      <trkpt lat="40.799306" lon="-3.933009">
        <ele>2363.9</ele>
        <time>2018-04-21T11:21:13.000Z</time>
      </trkpt>
      <trkpt lat="40.799306" lon="-3.933009">
        <ele>2363.9</ele>
        <time>2018-04-21T11:21:14.000Z</time>
      </trkpt>
      <trkpt lat="40.799306" lon="-3.933009">
        <ele>2363.9</ele>
        <time>2018-04-21T11:21:15.000Z</time>
      </trkpt>
      <trkpt lat="40.799305" lon="-3.933009">
        <ele>2363.9</ele>
        <time>2018-04-21T11:21:16.000Z</time>
      </trkpt>
      <trkpt lat="40.799305" lon="-3.933009">
        <ele>2363.9</ele>
        <time>2018-04-21T11:21:17.000Z</time>
      </trkpt>
      <trkpt lat="40.799303" lon="-3.93301">
        <ele>2363.9</ele>
        <time>2018-04-21T11:21:18.000Z</time>
      </trkpt>
      <trkpt lat="40.799301" lon="-3.933011">
        <ele>2363.9</ele>
        <time>2018-04-21T11:21:19.000Z</time>
      </trkpt>
      <trkpt lat="40.799298" lon="-3.933013">
        <ele>2364.0</ele>
        <time>2018-04-21T11:21:20.000Z</time>
      </trkpt>
      <trkpt lat="40.799294" lon="-3.933014">
        <ele>2364.0</ele>
        <time>2018-04-21T11:21:21.000Z</time>
      </trkpt>
      <trkpt lat="40.799289" lon="-3.933016">
        <ele>2364.1</ele>
        <time>2018-04-21T11:21:22.000Z</time>
      </trkpt>
      <trkpt lat="40.799284" lon="-3.933017">
        <ele>2364.1</ele>
        <time>2018-04-21T11:21:23.000Z</time>
      </trkpt>
      <trkpt lat="40.799279" lon="-3.933018">
        <ele>2364.2</ele>
        <time>2018-04-21T11:21:24.000Z</time>
      </trkpt>
      <trkpt lat="40.799274" lon="-3.933018">
        <ele>2364.3</ele>
        <time>2018-04-21T11:21:25.000Z</time>
      </trkpt>
      <trkpt lat="40.799268" lon="-3.933017">
        <ele>2364.3</ele>
        <time>2018-04-21T11:21:26.000Z</time>
      </trkpt>
      <trkpt lat="40.799262" lon="-3.933016">
        <ele>2364.4</ele>
        <time>2018-04-21T11:21:27.000Z</time>
      </trkpt>
      <trkpt lat="40.799257" lon="-3.933015">
        <ele>2364.5</ele>
        <time>2018-04-21T11:21:28.000Z</time>
      </trkpt>
      <trkpt lat="40.799251" lon="-3.933013">
        <ele>2364.6</ele>
        <time>2018-04-21T11:21:29.000Z</time>
      </trkpt>
      <trkpt lat="40.799245" lon="-3.933012">
        <ele>2364.6</ele>
        <time>2018-04-21T11:21:30.000Z</time>
      </trkpt>
      <trkpt lat="40.799239" lon="-3.933011">
        <ele>2364.7</ele>
        <time>2018-04-21T11:21:31.000Z</time>
      </trkpt>
      <trkpt lat="40.799233" lon="-3.933011">
        <ele>2364.8</ele>
        <time>2018-04-21T11:21:32.000Z</time>
      </trkpt>
      <trkpt lat="40.799227" lon="-3.933011">
        <ele>2364.9</ele>
        <time>2018-04-21T11:21:33.000Z</time>
      </trkpt>
      <trkpt lat="40.799221" lon="-3.933012">
        <ele>2364.9</ele>
        <time>2018-04-21T11:21:34.000Z</time>
      </trkpt>
      <trkpt lat="40.799215" lon="-3.933013">
        <ele>2365.0</ele>
        <time>2018-04-21T11:21:35.000Z</time>
      </trkpt>
      <trkpt lat="40.799209" lon="-3.933015">
        <ele>2365.1</ele>
        <time>2018-04-21T11:21:36.000Z</time>
      </trkpt>
      <trkpt lat="40.799202" lon="-3.933017">
        <ele>2365.2</ele>
        <time>2018-04-21T11:21:37.000Z</time>
      </trkpt>
      <trkpt lat="40.799196" lon="-3.93302">
        <ele>2365.3</ele>
        <time>2018-04-21T11:21:38.000Z</time>
      </trkpt>
      <trkpt lat="40.79919" lon="-3.933023">
        <ele>2365.3</ele>
        <time>2018-04-21T11:21:39.000Z</time>
      </trkpt>
      <trkpt lat="40.799183" lon="-3.933026">
        <ele>2365.4</ele>
        <time>2018-04-21T11:21:40.000Z</time>
      </trkpt>
      <trkpt lat="40.799177" lon="-3.93303">
        <ele>2365.5</ele>
        <time>2018-04-21T11:21:41.000Z</time>
      </trkpt>
      <trkpt lat="40.799171" lon="-3.933034">
        <ele>2365.6</ele>
        <time>2018-04-21T11:21:42.000Z</time>
      </trkpt>
      <trkpt lat="40.799164" lon="-3.933039">
        <ele>2365.6</ele>
        <time>2018-04-21T11:21:43.000Z</time>
      </trkpt>
      <trkpt lat="40.799158" lon="-3.933044">
        <ele>2365.4</ele>
        <time>2018-04-21T11:21:44.000Z</time>
      </trkpt>
      <trkpt lat="40.799151" lon="-3.933049">
        <ele>2365.2</ele>
        <time>2018-04-21T11:21:45.000Z</time>
      </trkpt>
      <trkpt lat="40.799144" lon="-3.933054">
        <ele>2365.1</ele>
        <time>2018-04-21T11:21:46.000Z</time>
      </trkpt>
      <trkpt lat="40.799138" lon="-3.933059">
        <ele>2364.9</ele>
        <time>2018-04-21T11:21:47.000Z</time>
      </trkpt>
      <trkpt lat="40.799131" lon="-3.933065">
        <ele>2364.7</ele>
        <time>2018-04-21T11:21:48.000Z</time>
      </trkpt>
      <trkpt lat="40.799124" lon="-3.93307">
        <ele>2364.6</ele>
        <time>2018-04-21T11:21:49.000Z</time>
      </trkpt>
      <trkpt lat="40.799117" lon="-3.933076">
        <ele>2364.4</ele>
        <time>2018-04-21T11:21:50.000Z</time>
      </trkpt>
      <trkpt lat="40.79911" lon="-3.933082">
        <ele>2364.2</ele>
        <time>2018-04-21T11:21:51.000Z</time>
      </trkpt>
      <trkpt lat="40.799103" lon="-3.933087">
        <ele>2364.0</ele>
        <time>2018-04-21T11:21:52.000Z</time>
      </trkpt>
      <trkpt lat="40.799096" lon="-3.933093">
        <ele>2363.9</ele>
        <time>2018-04-21T11:21:53.000Z</time>
      </trkpt>
      <trkpt lat="40.79909" lon="-3.933099">
        <ele>2363.7</ele>
        <time>2018-04-21T11:21:54.000Z</time>
      </trkpt>
      <trkpt lat="40.799083" lon="-3.933104">
        <ele>2363.6</ele>
        <time>2018-04-21T11:21:55.000Z</time>
      </trkpt>
      <trkpt lat="40.799076" lon="-3.93311">
        <ele>2363.4</ele>
        <time>2018-04-21T11:21:56.000Z</time>
      </trkpt>
      <trkpt lat="40.799069" lon="-3.933116">
        <ele>2363.2</ele>
        <time>2018-04-21T11:21:57.000Z</time>
      </trkpt>
      <trkpt lat="40.799062" lon="-3.933121">
        <ele>2363.1</ele>
        <time>2018-04-21T11:21:58.000Z</time>
      </trkpt>
      <trkpt lat="40.799056" lon="-3.933126">
        <ele>2362.9</ele>
        <time>2018-04-21T11:21:59.000Z</time>
      </trkpt>
      <trkpt lat="40.799049" lon="-3.933132">
        <ele>2362.8</ele>
        <time>2018-04-21T11:22:00.000Z</time>
      </trkpt>
      <trkpt lat="40.799043" lon="-3.933137">
        <ele>2362.6</ele>
        <time>2018-04-21T11:22:01.000Z</time>
      </trkpt>
      <trkpt lat="40.799037" lon="-3.933142">
        <ele>2362.5</ele>
        <time>2018-04-21T11:22:02.000Z</time>
      </trkpt>
      <trkpt lat="40.799031" lon="-3.933147">
        <ele>2362.4</ele>
        <time>2018-04-21T11:22:03.000Z</time>
      </trkpt>
      <trkpt lat="40.799025" lon="-3.933151">
        <ele>2362.2</ele>
        <time>2018-04-21T11:22:04.000Z</time>
      </trkpt>
      <trkpt lat="40.79902" lon="-3.933155">
        <ele>2362.1</ele>
        <time>2018-04-21T11:22:05.000Z</time>
      </trkpt>
      <trkpt lat="40.799015" lon="-3.93316">
        <ele>2362.0</ele>
        <time>2018-04-21T11:22:06.000Z</time>
      </trkpt>
      <trkpt lat="40.79901" lon="-3.933163">
        <ele>2361.9</ele>
        <time>2018-04-21T11:22:07.000Z</time>
      </trkpt>
      <trkpt lat="40.799006" lon="-3.933167">
        <ele>2361.8</ele>
        <time>2018-04-21T11:22:08.000Z</time>
      </trkpt>
      <trkpt lat="40.799002" lon="-3.93317">
        <ele>2361.7</ele>
        <time>2018-04-21T11:22:09.000Z</time>
      </trkpt>
      <trkpt lat="40.798998" lon="-3.933174">
        <ele>2361.6</ele>
        <time>2018-04-21T11:22:10.000Z</time>
      </trkpt>
      <trkpt lat="40.798994" lon="-3.933177">
        <ele>2361.5</ele>
        <time>2018-04-21T11:22:11.000Z</time>
      </trkpt>
      <trkpt lat="40.798991" lon="-3.933181">
        <ele>2361.5</ele>
        <time>2018-04-21T11:22:12.000Z</time>
      </trkpt>
      <trkpt lat="40.798987" lon="-3.933185">
        <ele>2361.4</ele>
        <time>2018-04-21T11:22:13.000Z</time>
      </trkpt>
      <trkpt lat="40.798984" lon="-3.933189">
        <ele>2361.3</ele>
        <time>2018-04-21T11:22:14.000Z</time>
      </trkpt>
      <trkpt lat="40.79898" lon="-3.933195">
        <ele>2361.2</ele>
        <time>2018-04-21T11:22:15.000Z</time>
      </trkpt>
      <trkpt lat="40.798975" lon="-3.933201">
        <ele>2361.1</ele>
        <time>2018-04-21T11:22:16.000Z</time>
      </trkpt>
      <trkpt lat="40.798971" lon="-3.933209">
        <ele>2361.1</ele>
        <time>2018-04-21T11:22:17.000Z</time>
      </trkpt>
      <trkpt lat="40.798965" lon="-3.933218">
        <ele>2361.0</ele>
        <time>2018-04-21T11:22:18.000Z</time>
      </trkpt>
      <trkpt lat="40.79896" lon="-3.933227">
        <ele>2360.9</ele>
        <time>2018-04-21T11:22:19.000Z</time>
      </trkpt>
      <trkpt lat="40.798955" lon="-3.933236">
        <ele>2360.8</ele>
        <time>2018-04-21T11:22:20.000Z</time>
      </trkpt>
      <trkpt lat="40.79895" lon="-3.933245">
        <ele>2360.7</ele>
        <time>2018-04-21T11:22:21.000Z</time>
      </trkpt>
      <trkpt lat="40.798946" lon="-3.933252">
        <ele>2360.6</ele>
        <time>2018-04-21T11:22:22.000Z</time>
      </trkpt>
      <trkpt lat="40.798943" lon="-3.933256">
        <ele>2360.6</ele>
        <time>2018-04-21T11:22:23.000Z</time>
      </trkpt>
      <trkpt lat="40.798941" lon="-3.933259">
        <ele>2360.5</ele>
        <time>2018-04-21T11:22:24.000Z</time>
      </trkpt>
      <trkpt lat="40.798939" lon="-3.933261">
        <ele>2360.5</ele>
        <time>2018-04-21T11:22:25.000Z</time>
      </trkpt>
      <trkpt lat="40.798938" lon="-3.933262">
        <ele>2360.5</ele>
        <time>2018-04-21T11:22:26.000Z</time>
      </trkpt>
      <trkpt lat="40.798937" lon="-3.933264">
        <ele>2360.5</ele>
        <time>2018-04-21T11:22:27.000Z</time>
      </trkpt>
      <trkpt lat="40.798935" lon="-3.933266">
        <ele>2360.4</ele>
        <time>2018-04-21T11:22:28.000Z</time>
      </trkpt>
      <trkpt lat="40.798934" lon="-3.933268">
        <ele>2360.4</ele>
        <time>2018-04-21T11:22:29.000Z</time>
      </trkpt>
      <trkpt lat="40.798932" lon="-3.933271">
        <ele>2360.4</ele>
        <time>2018-04-21T11:22:30.000Z</time>
      </trkpt>
      <trkpt lat="40.798929" lon="-3.933275">
        <ele>2360.3</ele>
        <time>2018-04-21T11:22:31.000Z</time>
      </trkpt>
      <trkpt lat="40.798926" lon="-3.933279">
        <ele>2360.3</ele>
        <time>2018-04-21T11:22:32.000Z</time>
      </trkpt>
      <trkpt lat="40.798923" lon="-3.933285">
        <ele>2360.2</ele>
        <time>2018-04-21T11:22:33.000Z</time>
      </trkpt>
      <trkpt lat="40.798919" lon="-3.933291">
        <ele>2360.2</ele>
        <time>2018-04-21T11:22:34.000Z</time>
      </trkpt>
      <trkpt lat="40.798914" lon="-3.933298">
        <ele>2360.1</ele>
        <time>2018-04-21T11:22:35.000Z</time>
      </trkpt>
      <trkpt lat="40.798908" lon="-3.933307">
        <ele>2360.0</ele>
        <time>2018-04-21T11:22:36.000Z</time>
      </trkpt>
      <trkpt lat="40.798901" lon="-3.933316">
        <ele>2359.9</ele>
        <time>2018-04-21T11:22:37.000Z</time>
      </trkpt>
      <trkpt lat="40.798894" lon="-3.933327">
        <ele>2359.8</ele>
        <time>2018-04-21T11:22:38.000Z</time>
      </trkpt>
      <trkpt lat="40.798887" lon="-3.933338">
        <ele>2359.6</ele>
        <time>2018-04-21T11:22:39.000Z</time>
      </trkpt>
      <trkpt lat="40.798879" lon="-3.933349">
        <ele>2359.3</ele>
        <time>2018-04-21T11:22:40.000Z</time>
      </trkpt>
      <trkpt lat="40.798871" lon="-3.933361">
        <ele>2359.0</ele>
        <time>2018-04-21T11:22:41.000Z</time>
      </trkpt>
      <trkpt lat="40.798863" lon="-3.933373">
        <ele>2358.7</ele>
        <time>2018-04-21T11:22:42.000Z</time>
      </trkpt>
      <trkpt lat="40.798855" lon="-3.933385">
        <ele>2358.4</ele>
        <time>2018-04-21T11:22:43.000Z</time>
      </trkpt>
      <trkpt lat="40.798848" lon="-3.933397">
        <ele>2358.2</ele>
        <time>2018-04-21T11:22:44.000Z</time>
      </trkpt>
      <trkpt lat="40.798841" lon="-3.933408">
        <ele>2358.0</ele>
        <time>2018-04-21T11:22:45.000Z</time>
      </trkpt>
      <trkpt lat="40.798834" lon="-3.933419">
        <ele>2357.7</ele>
        <time>2018-04-21T11:22:46.000Z</time>
      </trkpt>
      <trkpt lat="40.798828" lon="-3.93343">
        <ele>2357.5</ele>
        <time>2018-04-21T11:22:47.000Z</time>
      </trkpt>
      <trkpt lat="40.798822" lon="-3.933441">
        <ele>2357.3</ele>
        <time>2018-04-21T11:22:48.000Z</time>
      </trkpt>
      <trkpt lat="40.798816" lon="-3.933451">
        <ele>2357.1</ele>
        <time>2018-04-21T11:22:49.000Z</time>
      </trkpt>
      <trkpt lat="40.79881" lon="-3.933461">
        <ele>2356.9</ele>
        <time>2018-04-21T11:22:50.000Z</time>
      </trkpt>
      <trkpt lat="40.798803" lon="-3.933471">
        <ele>2356.7</ele>
        <time>2018-04-21T11:22:51.000Z</time>
      </trkpt>
      <trkpt lat="40.798797" lon="-3.933481">
        <ele>2356.5</ele>
        <time>2018-04-21T11:22:52.000Z</time>
      </trkpt>
      <trkpt lat="40.79879" lon="-3.93349">
        <ele>2356.3</ele>
        <time>2018-04-21T11:22:53.000Z</time>
      </trkpt>
      <trkpt lat="40.798783" lon="-3.933499">
        <ele>2356.1</ele>
        <time>2018-04-21T11:22:54.000Z</time>
      </trkpt>
      <trkpt lat="40.798776" lon="-3.933509">
        <ele>2355.9</ele>
        <time>2018-04-21T11:22:55.000Z</time>
      </trkpt>
      <trkpt lat="40.798769" lon="-3.933517">
        <ele>2355.7</ele>
        <time>2018-04-21T11:22:56.000Z</time>
      </trkpt>
      <trkpt lat="40.798761" lon="-3.933526">
        <ele>2355.5</ele>
        <time>2018-04-21T11:22:57.000Z</time>
      </trkpt>
      <trkpt lat="40.798755" lon="-3.933534">
        <ele>2355.4</ele>
        <time>2018-04-21T11:22:58.000Z</time>
      </trkpt>
      <trkpt lat="40.798748" lon="-3.933542">
        <ele>2355.2</ele>
        <time>2018-04-21T11:22:59.000Z</time>
      </trkpt>
      <trkpt lat="40.798742" lon="-3.93355">
        <ele>2355.1</ele>
        <time>2018-04-21T11:23:00.000Z</time>
      </trkpt>
      <trkpt lat="40.798737" lon="-3.933557">
        <ele>2354.9</ele>
        <time>2018-04-21T11:23:01.000Z</time>
      </trkpt>
      <trkpt lat="40.798733" lon="-3.933563">
        <ele>2354.8</ele>
        <time>2018-04-21T11:23:02.000Z</time>
      </trkpt>
      <trkpt lat="40.79873" lon="-3.933569">
        <ele>2354.8</ele>
        <time>2018-04-21T11:23:03.000Z</time>
      </trkpt>
      <trkpt lat="40.798727" lon="-3.933574">
        <ele>2354.7</ele>
        <time>2018-04-21T11:23:04.000Z</time>
      </trkpt>
      <trkpt lat="40.798726" lon="-3.933578">
        <ele>2354.6</ele>
        <time>2018-04-21T11:23:05.000Z</time>
      </trkpt>
      <trkpt lat="40.798725" lon="-3.933581">
        <ele>2354.6</ele>
        <time>2018-04-21T11:23:06.000Z</time>
      </trkpt>
      <trkpt lat="40.798725" lon="-3.933582">
        <ele>2354.6</ele>
        <time>2018-04-21T11:23:07.000Z</time>
      </trkpt>
      <trkpt lat="40.798726" lon="-3.933582">
        <ele>2354.6</ele>
        <time>2018-04-21T11:23:08.000Z</time>
      </trkpt>
      <trkpt lat="40.798726" lon="-3.93358">
        <ele>2354.6</ele>
        <time>2018-04-21T11:23:09.000Z</time>
      </trkpt>
      <trkpt lat="40.798727" lon="-3.933579">
        <ele>2354.6</ele>
        <time>2018-04-21T11:23:10.000Z</time>
      </trkpt>
      <trkpt lat="40.798727" lon="-3.933579">
        <ele>2354.6</ele>
        <time>2018-04-21T11:23:11.000Z</time>
      </trkpt>
      <trkpt lat="40.798727" lon="-3.933582">
        <ele>2354.6</ele>
        <time>2018-04-21T11:23:12.000Z</time>
      </trkpt>
      <trkpt lat="40.798726" lon="-3.933586">
        <ele>2354.6</ele>
        <time>2018-04-21T11:23:13.000Z</time>
      </trkpt>
      <trkpt lat="40.798724" lon="-3.933593">
        <ele>2354.5</ele>
        <time>2018-04-21T11:23:14.000Z</time>
      </trkpt>
      <trkpt lat="40.798722" lon="-3.9336">
        <ele>2354.5</ele>
        <time>2018-04-21T11:23:15.000Z</time>
      </trkpt>
      <trkpt lat="40.798719" lon="-3.933608">
        <ele>2354.4</ele>
        <time>2018-04-21T11:23:16.000Z</time>
      </trkpt>
      <trkpt lat="40.798715" lon="-3.933616">
        <ele>2354.3</ele>
        <time>2018-04-21T11:23:17.000Z</time>
      </trkpt>
      <trkpt lat="40.798711" lon="-3.933625">
        <ele>2354.2</ele>
        <time>2018-04-21T11:23:18.000Z</time>
      </trkpt>
      <trkpt lat="40.798707" lon="-3.933632">
        <ele>2354.1</ele>
        <time>2018-04-21T11:23:19.000Z</time>
      </trkpt>
      <trkpt lat="40.798702" lon="-3.933639">
        <ele>2354.0</ele>
        <time>2018-04-21T11:23:20.000Z</time>
      </trkpt>
      <trkpt lat="40.798696" lon="-3.933644">
        <ele>2353.8</ele>
        <time>2018-04-21T11:23:21.000Z</time>
      </trkpt>
      <trkpt lat="40.79869" lon="-3.933648">
        <ele>2353.7</ele>
        <time>2018-04-21T11:23:22.000Z</time>
      </trkpt>
      <trkpt lat="40.798683" lon="-3.933651">
        <ele>2353.6</ele>
        <time>2018-04-21T11:23:23.000Z</time>
      </trkpt>
      <trkpt lat="40.798677" lon="-3.933654">
        <ele>2353.5</ele>
        <time>2018-04-21T11:23:24.000Z</time>
      </trkpt>
      <trkpt lat="40.79867" lon="-3.933656">
        <ele>2353.4</ele>
        <time>2018-04-21T11:23:25.000Z</time>
      </trkpt>
      <trkpt lat="40.798664" lon="-3.933659">
        <ele>2353.3</ele>
        <time>2018-04-21T11:23:26.000Z</time>
      </trkpt>
      <trkpt lat="40.798658" lon="-3.933662">
        <ele>2353.2</ele>
        <time>2018-04-21T11:23:27.000Z</time>
      </trkpt>
      <trkpt lat="40.798652" lon="-3.933666">
        <ele>2353.1</ele>
        <time>2018-04-21T11:23:28.000Z</time>
      </trkpt>
      <trkpt lat="40.798647" lon="-3.933671">
        <ele>2353.0</ele>
        <time>2018-04-21T11:23:29.000Z</time>
      </trkpt>
      <trkpt lat="40.798642" lon="-3.933678">
        <ele>2352.9</ele>
        <time>2018-04-21T11:23:30.000Z</time>
      </trkpt>
      <trkpt lat="40.798638" lon="-3.933686">
        <ele>2352.9</ele>
        <time>2018-04-21T11:23:31.000Z</time>
      </trkpt>
      <trkpt lat="40.798634" lon="-3.933695">
        <ele>2352.8</ele>
        <time>2018-04-21T11:23:32.000Z</time>
      </trkpt>
      <trkpt lat="40.798631" lon="-3.933705">
        <ele>2352.7</ele>
        <time>2018-04-21T11:23:33.000Z</time>
      </trkpt>
      <trkpt lat="40.798628" lon="-3.933715">
        <ele>2352.6</ele>
        <time>2018-04-21T11:23:34.000Z</time>
      </trkpt>
      <trkpt lat="40.798625" lon="-3.933726">
        <ele>2352.6</ele>
        <time>2018-04-21T11:23:35.000Z</time>
      </trkpt>
      <trkpt lat="40.798622" lon="-3.933737">
        <ele>2352.5</ele>
        <time>2018-04-21T11:23:36.000Z</time>
      </trkpt>
      <trkpt lat="40.798619" lon="-3.933748">
        <ele>2352.4</ele>
        <time>2018-04-21T11:23:37.000Z</time>
      </trkpt>
      <trkpt lat="40.798615" lon="-3.933758">
        <ele>2352.4</ele>
        <time>2018-04-21T11:23:38.000Z</time>
      </trkpt>
      <trkpt lat="40.798612" lon="-3.933769">
        <ele>2352.3</ele>
        <time>2018-04-21T11:23:39.000Z</time>
      </trkpt>
      <trkpt lat="40.798608" lon="-3.933779">
        <ele>2352.2</ele>
        <time>2018-04-21T11:23:40.000Z</time>
      </trkpt>
      <trkpt lat="40.798604" lon="-3.933788">
        <ele>2352.2</ele>
        <time>2018-04-21T11:23:41.000Z</time>
      </trkpt>
      <trkpt lat="40.7986" lon="-3.933797">
        <ele>2352.1</ele>
        <time>2018-04-21T11:23:42.000Z</time>
      </trkpt>
      <trkpt lat="40.798595" lon="-3.933806">
        <ele>2352.0</ele>
        <time>2018-04-21T11:23:43.000Z</time>
      </trkpt>
      <trkpt lat="40.798591" lon="-3.933814">
        <ele>2352.0</ele>
        <time>2018-04-21T11:23:44.000Z</time>
      </trkpt>
      <trkpt lat="40.798586" lon="-3.933822">
        <ele>2351.9</ele>
        <time>2018-04-21T11:23:45.000Z</time>
      </trkpt>
      <trkpt lat="40.798582" lon="-3.93383">
        <ele>2351.9</ele>
        <time>2018-04-21T11:23:46.000Z</time>
      </trkpt>
      <trkpt lat="40.798577" lon="-3.933837">
        <ele>2351.8</ele>
        <time>2018-04-21T11:23:47.000Z</time>
      </trkpt>
      <trkpt lat="40.798572" lon="-3.933845">
        <ele>2351.7</ele>
        <time>2018-04-21T11:23:48.000Z</time>
      </trkpt>
      <trkpt lat="40.798568" lon="-3.933852">
        <ele>2351.7</ele>
        <time>2018-04-21T11:23:49.000Z</time>
      </trkpt>
      <trkpt lat="40.798563" lon="-3.933859">
        <ele>2351.6</ele>
        <time>2018-04-21T11:23:50.000Z</time>
      </trkpt>
      <trkpt lat="40.798558" lon="-3.933866">
        <ele>2351.6</ele>
        <time>2018-04-21T11:23:51.000Z</time>
      </trkpt>
      <trkpt lat="40.798554" lon="-3.933872">
        <ele>2351.5</ele>
        <time>2018-04-21T11:23:52.000Z</time>
      </trkpt>
      <trkpt lat="40.79855" lon="-3.933879">
        <ele>2351.5</ele>
        <time>2018-04-21T11:23:53.000Z</time>
      </trkpt>
      <trkpt lat="40.798546" lon="-3.933885">
        <ele>2351.5</ele>
        <time>2018-04-21T11:23:54.000Z</time>
      </trkpt>
      <trkpt lat="40.798542" lon="-3.933892">
        <ele>2351.4</ele>
        <time>2018-04-21T11:23:55.000Z</time>
      </trkpt>
      <trkpt lat="40.798538" lon="-3.933899">
        <ele>2351.4</ele>
        <time>2018-04-21T11:23:56.000Z</time>
      </trkpt>
      <trkpt lat="40.798535" lon="-3.933905">
        <ele>2351.4</ele>
        <time>2018-04-21T11:23:57.000Z</time>
      </trkpt>
      <trkpt lat="40.798532" lon="-3.933912">
        <ele>2351.3</ele>
        <time>2018-04-21T11:23:58.000Z</time>
      </trkpt>
      <trkpt lat="40.798529" lon="-3.933918">
        <ele>2351.3</ele>
        <time>2018-04-21T11:23:59.000Z</time>
      </trkpt>
      <trkpt lat="40.798526" lon="-3.933925">
        <ele>2351.3</ele>
        <time>2018-04-21T11:24:00.000Z</time>
      </trkpt>
      <trkpt lat="40.798523" lon="-3.933931">
        <ele>2351.3</ele>
        <time>2018-04-21T11:24:01.000Z</time>
      </trkpt>
      <trkpt lat="40.798521" lon="-3.933936">
        <ele>2351.2</ele>
        <time>2018-04-21T11:24:02.000Z</time>
      </trkpt>
      <trkpt lat="40.798518" lon="-3.933941">
        <ele>2351.2</ele>
        <time>2018-04-21T11:24:03.000Z</time>
      </trkpt>
      <trkpt lat="40.798516" lon="-3.933946">
        <ele>2351.2</ele>
        <time>2018-04-21T11:24:04.000Z</time>
      </trkpt>
      <trkpt lat="40.798513" lon="-3.93395">
        <ele>2351.2</ele>
        <time>2018-04-21T11:24:05.000Z</time>
      </trkpt>
      <trkpt lat="40.79851" lon="-3.933953">
        <ele>2351.2</ele>
        <time>2018-04-21T11:24:06.000Z</time>
      </trkpt>
      <trkpt lat="40.798507" lon="-3.933956">
        <ele>2351.1</ele>
        <time>2018-04-21T11:24:07.000Z</time>
      </trkpt>
      <trkpt lat="40.798504" lon="-3.933958">
        <ele>2351.1</ele>
        <time>2018-04-21T11:24:08.000Z</time>
      </trkpt>
      <trkpt lat="40.798501" lon="-3.93396">
        <ele>2351.1</ele>
        <time>2018-04-21T11:24:09.000Z</time>
      </trkpt>
      <trkpt lat="40.798497" lon="-3.933962">
        <ele>2351.1</ele>
        <time>2018-04-21T11:24:10.000Z</time>
      </trkpt>
      <trkpt lat="40.798493" lon="-3.933963">
        <ele>2351.1</ele>
        <time>2018-04-21T11:24:11.000Z</time>
      </trkpt>
      <trkpt lat="40.798489" lon="-3.933965">
        <ele>2351.0</ele>
        <time>2018-04-21T11:24:12.000Z</time>
      </trkpt>
      <trkpt lat="40.798484" lon="-3.933967">
        <ele>2351.0</ele>
        <time>2018-04-21T11:24:13.000Z</time>
      </trkpt>
      <trkpt lat="40.798478" lon="-3.933969">
        <ele>2351.0</ele>
        <time>2018-04-21T11:24:14.000Z</time>
      </trkpt>
      <trkpt lat="40.798472" lon="-3.933971">
        <ele>2350.9</ele>
        <time>2018-04-21T11:24:15.000Z</time>
      </trkpt>
      <trkpt lat="40.798465" lon="-3.933974">
        <ele>2350.9</ele>
        <time>2018-04-21T11:24:16.000Z</time>
      </trkpt>
      <trkpt lat="40.798459" lon="-3.933977">
        <ele>2350.9</ele>
        <time>2018-04-21T11:24:17.000Z</time>
      </trkpt>
      <trkpt lat="40.798452" lon="-3.933981">
        <ele>2350.8</ele>
        <time>2018-04-21T11:24:18.000Z</time>
      </trkpt>
      <trkpt lat="40.798445" lon="-3.933986">
        <ele>2350.8</ele>
        <time>2018-04-21T11:24:19.000Z</time>
      </trkpt>
      <trkpt lat="40.798439" lon="-3.933991">
        <ele>2350.8</ele>
        <time>2018-04-21T11:24:20.000Z</time>
      </trkpt>
      <trkpt lat="40.798433" lon="-3.933997">
        <ele>2350.7</ele>
        <time>2018-04-21T11:24:21.000Z</time>
      </trkpt>
      <trkpt lat="40.798428" lon="-3.934004">
        <ele>2350.7</ele>
        <time>2018-04-21T11:24:22.000Z</time>
      </trkpt>
      <trkpt lat="40.798423" lon="-3.934012">
        <ele>2350.7</ele>
        <time>2018-04-21T11:24:23.000Z</time>
      </trkpt>
      <trkpt lat="40.79842" lon="-3.93402">
        <ele>2350.7</ele>
        <time>2018-04-21T11:24:24.000Z</time>
      </trkpt>
      <trkpt lat="40.798417" lon="-3.934029">
        <ele>2350.7</ele>
        <time>2018-04-21T11:24:25.000Z</time>
      </trkpt>
      <trkpt lat="40.798415" lon="-3.934039">
        <ele>2350.8</ele>
        <time>2018-04-21T11:24:26.000Z</time>
      </trkpt>
      <trkpt lat="40.798413" lon="-3.934049">
        <ele>2350.8</ele>
        <time>2018-04-21T11:24:27.000Z</time>
      </trkpt>
      <trkpt lat="40.798412" lon="-3.934059">
        <ele>2350.8</ele>
        <time>2018-04-21T11:24:28.000Z</time>
      </trkpt>
      <trkpt lat="40.798411" lon="-3.934069">
        <ele>2350.8</ele>
        <time>2018-04-21T11:24:29.000Z</time>
      </trkpt>
      <trkpt lat="40.79841" lon="-3.934078">
        <ele>2350.8</ele>
        <time>2018-04-21T11:24:30.000Z</time>
      </trkpt>
      <trkpt lat="40.79841" lon="-3.934088">
        <ele>2350.9</ele>
        <time>2018-04-21T11:24:31.000Z</time>
      </trkpt>
      <trkpt lat="40.798408" lon="-3.934096">
        <ele>2350.9</ele>
        <time>2018-04-21T11:24:32.000Z</time>
      </trkpt>
      <trkpt lat="40.798407" lon="-3.934103">
        <ele>2350.9</ele>
        <time>2018-04-21T11:24:33.000Z</time>
      </trkpt>
      <trkpt lat="40.798405" lon="-3.93411">
        <ele>2350.9</ele>
        <time>2018-04-21T11:24:34.000Z</time>
      </trkpt>
      <trkpt lat="40.798403" lon="-3.934116">
        <ele>2350.9</ele>
        <time>2018-04-21T11:24:35.000Z</time>
      </trkpt>
      <trkpt lat="40.7984" lon="-3.934121">
        <ele>2350.9</ele>
        <time>2018-04-21T11:24:36.000Z</time>
      </trkpt>
      <trkpt lat="40.798397" lon="-3.934126">
        <ele>2350.9</ele>
        <time>2018-04-21T11:24:37.000Z</time>
      </trkpt>
      <trkpt lat="40.798394" lon="-3.934131">
        <ele>2351.0</ele>
        <time>2018-04-21T11:24:38.000Z</time>
      </trkpt>
      <trkpt lat="40.798391" lon="-3.934136">
        <ele>2351.0</ele>
        <time>2018-04-21T11:24:39.000Z</time>
      </trkpt>
      <trkpt lat="40.798387" lon="-3.934141">
        <ele>2351.0</ele>
        <time>2018-04-21T11:24:40.000Z</time>
      </trkpt>
      <trkpt lat="40.798384" lon="-3.934145">
        <ele>2351.0</ele>
        <time>2018-04-21T11:24:41.000Z</time>
      </trkpt>
      <trkpt lat="40.79838" lon="-3.934151">
        <ele>2351.0</ele>
        <time>2018-04-21T11:24:42.000Z</time>
      </trkpt>
      <trkpt lat="40.798376" lon="-3.934156">
        <ele>2351.0</ele>
        <time>2018-04-21T11:24:43.000Z</time>
      </trkpt>
      <trkpt lat="40.798372" lon="-3.934161">
        <ele>2351.0</ele>
        <time>2018-04-21T11:24:44.000Z</time>
      </trkpt>
      <trkpt lat="40.798368" lon="-3.934166">
        <ele>2351.0</ele>
        <time>2018-04-21T11:24:45.000Z</time>
      </trkpt>
      <trkpt lat="40.798364" lon="-3.93417">
        <ele>2351.0</ele>
        <time>2018-04-21T11:24:46.000Z</time>
      </trkpt>
      <trkpt lat="40.798361" lon="-3.934173">
        <ele>2350.9</ele>
        <time>2018-04-21T11:24:47.000Z</time>
      </trkpt>
      <trkpt lat="40.798358" lon="-3.934176">
        <ele>2350.9</ele>
        <time>2018-04-21T11:24:48.000Z</time>
      </trkpt>
      <trkpt lat="40.798356" lon="-3.934178">
        <ele>2350.8</ele>
        <time>2018-04-21T11:24:49.000Z</time>
      </trkpt>
      <trkpt lat="40.798354" lon="-3.934179">
        <ele>2350.8</ele>
        <time>2018-04-21T11:24:50.000Z</time>
      </trkpt>
      <trkpt lat="40.798354" lon="-3.93418">
        <ele>2350.8</ele>
        <time>2018-04-21T11:24:51.000Z</time>
      </trkpt>
      <trkpt lat="40.798354" lon="-3.93418">
        <ele>2350.8</ele>
        <time>2018-04-21T11:24:52.000Z</time>
      </trkpt>
      <trkpt lat="40.798354" lon="-3.93418">
        <ele>2350.8</ele>
        <time>2018-04-21T11:24:53.000Z</time>
      </trkpt>
      <trkpt lat="40.798355" lon="-3.934179">
        <ele>2350.8</ele>
        <time>2018-04-21T11:24:54.000Z</time>
      </trkpt>
      <trkpt lat="40.798355" lon="-3.934179">
        <ele>2350.8</ele>
        <time>2018-04-21T11:24:55.000Z</time>
      </trkpt>
      <trkpt lat="40.798355" lon="-3.93418">
        <ele>2350.8</ele>
        <time>2018-04-21T11:24:56.000Z</time>
      </trkpt>
      <trkpt lat="40.798354" lon="-3.934181">
        <ele>2350.8</ele>
        <time>2018-04-21T11:24:57.000Z</time>
      </trkpt>
      <trkpt lat="40.798353" lon="-3.934184">
        <ele>2350.7</ele>
        <time>2018-04-21T11:24:58.000Z</time>
      </trkpt>
      <trkpt lat="40.798349" lon="-3.934187">
        <ele>2350.7</ele>
        <time>2018-04-21T11:24:59.000Z</time>
      </trkpt>
      <trkpt lat="40.798345" lon="-3.934192">
        <ele>2350.6</ele>
        <time>2018-04-21T11:25:00.000Z</time>
      </trkpt>
      <trkpt lat="40.79834" lon="-3.934198">
        <ele>2350.5</ele>
        <time>2018-04-21T11:25:01.000Z</time>
      </trkpt>
      <trkpt lat="40.798334" lon="-3.934204">
        <ele>2350.4</ele>
        <time>2018-04-21T11:25:02.000Z</time>
      </trkpt>
      <trkpt lat="40.798328" lon="-3.934211">
        <ele>2350.2</ele>
        <time>2018-04-21T11:25:03.000Z</time>
      </trkpt>
      <trkpt lat="40.798322" lon="-3.934218">
        <ele>2349.9</ele>
        <time>2018-04-21T11:25:04.000Z</time>
      </trkpt>
      <trkpt lat="40.798318" lon="-3.934225">
        <ele>2349.7</ele>
        <time>2018-04-21T11:25:05.000Z</time>
      </trkpt>
      <trkpt lat="40.798315" lon="-3.934231">
        <ele>2349.5</ele>
        <time>2018-04-21T11:25:06.000Z</time>
      </trkpt>
      <trkpt lat="40.798311" lon="-3.934238">
        <ele>2349.3</ele>
        <time>2018-04-21T11:25:07.000Z</time>
      </trkpt>
      <trkpt lat="40.798307" lon="-3.934245">
        <ele>2349.1</ele>
        <time>2018-04-21T11:25:08.000Z</time>
      </trkpt>
      <trkpt lat="40.798302" lon="-3.934254">
        <ele>2348.8</ele>
        <time>2018-04-21T11:25:09.000Z</time>
      </trkpt>
      <trkpt lat="40.798296" lon="-3.934263">
        <ele>2348.5</ele>
        <time>2018-04-21T11:25:10.000Z</time>
      </trkpt>
      <trkpt lat="40.798289" lon="-3.934271">
        <ele>2348.2</ele>
        <time>2018-04-21T11:25:11.000Z</time>
      </trkpt>
      <trkpt lat="40.798282" lon="-3.934279">
        <ele>2347.9</ele>
        <time>2018-04-21T11:25:12.000Z</time>
      </trkpt>
      <trkpt lat="40.798275" lon="-3.934284">
        <ele>2347.6</ele>
        <time>2018-04-21T11:25:13.000Z</time>
      </trkpt>
      <trkpt lat="40.798267" lon="-3.934286">
        <ele>2347.4</ele>
        <time>2018-04-21T11:25:14.000Z</time>
      </trkpt>
      <trkpt lat="40.798259" lon="-3.934287">
        <ele>2347.1</ele>
        <time>2018-04-21T11:25:15.000Z</time>
      </trkpt>
      <trkpt lat="40.798251" lon="-3.934287">
        <ele>2346.9</ele>
        <time>2018-04-21T11:25:16.000Z</time>
      </trkpt>
      <trkpt lat="40.798243" lon="-3.934286">
        <ele>2346.7</ele>
        <time>2018-04-21T11:25:17.000Z</time>
      </trkpt>
      <trkpt lat="40.798236" lon="-3.934288">
        <ele>2346.5</ele>
        <time>2018-04-21T11:25:18.000Z</time>
      </trkpt>
      <trkpt lat="40.798229" lon="-3.934291">
        <ele>2346.3</ele>
        <time>2018-04-21T11:25:19.000Z</time>
      </trkpt>
      <trkpt lat="40.798223" lon="-3.934296">
        <ele>2346.0</ele>
        <time>2018-04-21T11:25:20.000Z</time>
      </trkpt>
      <trkpt lat="40.798217" lon="-3.934302">
        <ele>2345.8</ele>
        <time>2018-04-21T11:25:21.000Z</time>
      </trkpt>
      <trkpt lat="40.798211" lon="-3.93431">
        <ele>2345.5</ele>
        <time>2018-04-21T11:25:22.000Z</time>
      </trkpt>
      <trkpt lat="40.798205" lon="-3.934318">
        <ele>2345.3</ele>
        <time>2018-04-21T11:25:23.000Z</time>
      </trkpt>
      <trkpt lat="40.7982" lon="-3.934327">
        <ele>2345.0</ele>
        <time>2018-04-21T11:25:24.000Z</time>
      </trkpt>
      <trkpt lat="40.798194" lon="-3.934336">
        <ele>2344.7</ele>
        <time>2018-04-21T11:25:25.000Z</time>
      </trkpt>
      <trkpt lat="40.798189" lon="-3.934344">
        <ele>2344.5</ele>
        <time>2018-04-21T11:25:26.000Z</time>
      </trkpt>
      <trkpt lat="40.798184" lon="-3.934351">
        <ele>2344.3</ele>
        <time>2018-04-21T11:25:27.000Z</time>
      </trkpt>
      <trkpt lat="40.798178" lon="-3.934358">
        <ele>2344.0</ele>
        <time>2018-04-21T11:25:28.000Z</time>
      </trkpt>
      <trkpt lat="40.798172" lon="-3.934363">
        <ele>2343.8</ele>
        <time>2018-04-21T11:25:29.000Z</time>
      </trkpt>
      <trkpt lat="40.798167" lon="-3.934367">
        <ele>2343.6</ele>
        <time>2018-04-21T11:25:30.000Z</time>
      </trkpt>
      <trkpt lat="40.798161" lon="-3.934371">
        <ele>2343.4</ele>
        <time>2018-04-21T11:25:31.000Z</time>
      </trkpt>
      <trkpt lat="40.798155" lon="-3.934374">
        <ele>2343.2</ele>
        <time>2018-04-21T11:25:32.000Z</time>
      </trkpt>
      <trkpt lat="40.79815" lon="-3.934377">
        <ele>2343.0</ele>
        <time>2018-04-21T11:25:33.000Z</time>
      </trkpt>
      <trkpt lat="40.798144" lon="-3.93438">
        <ele>2342.9</ele>
        <time>2018-04-21T11:25:34.000Z</time>
      </trkpt>
      <trkpt lat="40.798139" lon="-3.934383">
        <ele>2342.7</ele>
        <time>2018-04-21T11:25:35.000Z</time>
      </trkpt>
      <trkpt lat="40.798134" lon="-3.934386">
        <ele>2342.5</ele>
        <time>2018-04-21T11:25:36.000Z</time>
      </trkpt>
      <trkpt lat="40.798129" lon="-3.93439">
        <ele>2342.4</ele>
        <time>2018-04-21T11:25:37.000Z</time>
      </trkpt>
      <trkpt lat="40.798124" lon="-3.934394">
        <ele>2342.2</ele>
        <time>2018-04-21T11:25:38.000Z</time>
      </trkpt>
      <trkpt lat="40.79812" lon="-3.934398">
        <ele>2342.0</ele>
        <time>2018-04-21T11:25:39.000Z</time>
      </trkpt>
      <trkpt lat="40.798115" lon="-3.934402">
        <ele>2341.9</ele>
        <time>2018-04-21T11:25:40.000Z</time>
      </trkpt>
      <trkpt lat="40.79811" lon="-3.934407">
        <ele>2341.7</ele>
        <time>2018-04-21T11:25:41.000Z</time>
      </trkpt>
      <trkpt lat="40.798105" lon="-3.934411">
        <ele>2341.5</ele>
        <time>2018-04-21T11:25:42.000Z</time>
      </trkpt>
      <trkpt lat="40.798099" lon="-3.934415">
        <ele>2341.3</ele>
        <time>2018-04-21T11:25:43.000Z</time>
      </trkpt>
      <trkpt lat="40.798093" lon="-3.934419">
        <ele>2341.1</ele>
        <time>2018-04-21T11:25:44.000Z</time>
      </trkpt>
      <trkpt lat="40.798087" lon="-3.934423">
        <ele>2340.9</ele>
        <time>2018-04-21T11:25:45.000Z</time>
      </trkpt>
      <trkpt lat="40.798079" lon="-3.934426">
        <ele>2340.7</ele>
        <time>2018-04-21T11:25:46.000Z</time>
      </trkpt>
      <trkpt lat="40.798072" lon="-3.934429">
        <ele>2340.5</ele>
        <time>2018-04-21T11:25:47.000Z</time>
      </trkpt>
      <trkpt lat="40.798064" lon="-3.934432">
        <ele>2340.2</ele>
        <time>2018-04-21T11:25:48.000Z</time>
      </trkpt>
      <trkpt lat="40.798055" lon="-3.934435">
        <ele>2340.0</ele>
        <time>2018-04-21T11:25:49.000Z</time>
      </trkpt>
      <trkpt lat="40.798047" lon="-3.934438">
        <ele>2339.8</ele>
        <time>2018-04-21T11:25:50.000Z</time>
      </trkpt>
      <trkpt lat="40.798039" lon="-3.934441">
        <ele>2339.5</ele>
        <time>2018-04-21T11:25:51.000Z</time>
      </trkpt>
      <trkpt lat="40.798032" lon="-3.934446">
        <ele>2339.3</ele>
        <time>2018-04-21T11:25:52.000Z</time>
      </trkpt>
      <trkpt lat="40.798025" lon="-3.93445">
        <ele>2339.1</ele>
        <time>2018-04-21T11:25:53.000Z</time>
      </trkpt>
      <trkpt lat="40.798018" lon="-3.934456">
        <ele>2338.8</ele>
        <time>2018-04-21T11:25:54.000Z</time>
      </trkpt>
      <trkpt lat="40.798013" lon="-3.934463">
        <ele>2338.7</ele>
        <time>2018-04-21T11:25:55.000Z</time>
      </trkpt>
      <trkpt lat="40.798008" lon="-3.934471">
        <ele>2338.5</ele>
        <time>2018-04-21T11:25:56.000Z</time>
      </trkpt>
      <trkpt lat="40.798004" lon="-3.93448">
        <ele>2338.3</ele>
        <time>2018-04-21T11:25:57.000Z</time>
      </trkpt>
      <trkpt lat="40.798" lon="-3.93449">
        <ele>2338.1</ele>
        <time>2018-04-21T11:25:58.000Z</time>
      </trkpt>
      <trkpt lat="40.797997" lon="-3.9345">
        <ele>2337.9</ele>
        <time>2018-04-21T11:25:59.000Z</time>
      </trkpt>
      <trkpt lat="40.797994" lon="-3.934511">
        <ele>2337.7</ele>
        <time>2018-04-21T11:26:00.000Z</time>
      </trkpt>
      <trkpt lat="40.79799" lon="-3.934522">
        <ele>2337.5</ele>
        <time>2018-04-21T11:26:01.000Z</time>
      </trkpt>
      <trkpt lat="40.797987" lon="-3.934534">
        <ele>2337.3</ele>
        <time>2018-04-21T11:26:02.000Z</time>
      </trkpt>
      <trkpt lat="40.797983" lon="-3.934545">
        <ele>2337.1</ele>
        <time>2018-04-21T11:26:03.000Z</time>
      </trkpt>
      <trkpt lat="40.797979" lon="-3.934556">
        <ele>2336.9</ele>
        <time>2018-04-21T11:26:04.000Z</time>
      </trkpt>
      <trkpt lat="40.797974" lon="-3.934568">
        <ele>2336.7</ele>
        <time>2018-04-21T11:26:05.000Z</time>
      </trkpt>
      <trkpt lat="40.797969" lon="-3.934578">
        <ele>2336.5</ele>
        <time>2018-04-21T11:26:06.000Z</time>
      </trkpt>
      <trkpt lat="40.797964" lon="-3.934589">
        <ele>2336.2</ele>
        <time>2018-04-21T11:26:07.000Z</time>
      </trkpt>
      <trkpt lat="40.797959" lon="-3.934598">
        <ele>2336.0</ele>
        <time>2018-04-21T11:26:08.000Z</time>
      </trkpt>
      <trkpt lat="40.797955" lon="-3.934606">
        <ele>2335.9</ele>
        <time>2018-04-21T11:26:09.000Z</time>
      </trkpt>
      <trkpt lat="40.797951" lon="-3.934614">
        <ele>2335.7</ele>
        <time>2018-04-21T11:26:10.000Z</time>
      </trkpt>
      <trkpt lat="40.797948" lon="-3.934619">
        <ele>2335.6</ele>
        <time>2018-04-21T11:26:11.000Z</time>
      </trkpt>
      <trkpt lat="40.797946" lon="-3.934624">
        <ele>2335.5</ele>
        <time>2018-04-21T11:26:12.000Z</time>
      </trkpt>
      <trkpt lat="40.797944" lon="-3.934626">
        <ele>2335.5</ele>
        <time>2018-04-21T11:26:13.000Z</time>
      </trkpt>
      <trkpt lat="40.797944" lon="-3.934627">
        <ele>2335.4</ele>
        <time>2018-04-21T11:26:14.000Z</time>
      </trkpt>
      <trkpt lat="40.797944" lon="-3.934627">
        <ele>2335.4</ele>
        <time>2018-04-21T11:26:15.000Z</time>
      </trkpt>
      <trkpt lat="40.797944" lon="-3.934627">
        <ele>2335.4</ele>
        <time>2018-04-21T11:26:16.000Z</time>
      </trkpt>
      <trkpt lat="40.797944" lon="-3.934625">
        <ele>2335.5</ele>
        <time>2018-04-21T11:26:17.000Z</time>
      </trkpt>
      <trkpt lat="40.797944" lon="-3.934624">
        <ele>2335.5</ele>
        <time>2018-04-21T11:26:18.000Z</time>
      </trkpt>
      <trkpt lat="40.797944" lon="-3.934623">
        <ele>2335.5</ele>
        <time>2018-04-21T11:26:19.000Z</time>
      </trkpt>
      <trkpt lat="40.797943" lon="-3.934623">
        <ele>2335.5</ele>
        <time>2018-04-21T11:26:20.000Z</time>
      </trkpt>
      <trkpt lat="40.797941" lon="-3.934624">
        <ele>2335.4</ele>
        <time>2018-04-21T11:26:21.000Z</time>
      </trkpt>
      <trkpt lat="40.797937" lon="-3.934626">
        <ele>2335.3</ele>
        <time>2018-04-21T11:26:22.000Z</time>
      </trkpt>
      <trkpt lat="40.797933" lon="-3.934629">
        <ele>2335.2</ele>
        <time>2018-04-21T11:26:23.000Z</time>
      </trkpt>
      <trkpt lat="40.797928" lon="-3.934632">
        <ele>2335.1</ele>
        <time>2018-04-21T11:26:24.000Z</time>
      </trkpt>
      <trkpt lat="40.797923" lon="-3.934634">
        <ele>2334.9</ele>
        <time>2018-04-21T11:26:25.000Z</time>
      </trkpt>
      <trkpt lat="40.797919" lon="-3.934635">
        <ele>2334.8</ele>
        <time>2018-04-21T11:26:26.000Z</time>
      </trkpt>
      <trkpt lat="40.797914" lon="-3.934636">
        <ele>2334.7</ele>
        <time>2018-04-21T11:26:27.000Z</time>
      </trkpt>
      <trkpt lat="40.797911" lon="-3.934635">
        <ele>2334.7</ele>
        <time>2018-04-21T11:26:28.000Z</time>
      </trkpt>
      <trkpt lat="40.797908" lon="-3.934634">
        <ele>2334.6</ele>
        <time>2018-04-21T11:26:29.000Z</time>
      </trkpt>
      <trkpt lat="40.797907" lon="-3.934633">
        <ele>2334.6</ele>
        <time>2018-04-21T11:26:30.000Z</time>
      </trkpt>
      <trkpt lat="40.797906" lon="-3.934634">
        <ele>2334.6</ele>
        <time>2018-04-21T11:26:31.000Z</time>
      </trkpt>
      <trkpt lat="40.797907" lon="-3.934635">
        <ele>2334.6</ele>
        <time>2018-04-21T11:26:32.000Z</time>
      </trkpt>
      <trkpt lat="40.797907" lon="-3.934636">
        <ele>2334.6</ele>
        <time>2018-04-21T11:26:33.000Z</time>
      </trkpt>
      <trkpt lat="40.797907" lon="-3.934636">
        <ele>2334.6</ele>
        <time>2018-04-21T11:26:34.000Z</time>
      </trkpt>
      <trkpt lat="40.797905" lon="-3.934634">
        <ele>2334.5</ele>
        <time>2018-04-21T11:26:35.000Z</time>
      </trkpt>
      <trkpt lat="40.797901" lon="-3.93463">
        <ele>2334.5</ele>
        <time>2018-04-21T11:26:36.000Z</time>
      </trkpt>
      <trkpt lat="40.797897" lon="-3.934625">
        <ele>2334.5</ele>
        <time>2018-04-21T11:26:37.000Z</time>
      </trkpt>
      <trkpt lat="40.797891" lon="-3.934619">
        <ele>2334.4</ele>
        <time>2018-04-21T11:26:38.000Z</time>
      </trkpt>
      <trkpt lat="40.797884" lon="-3.934614">
        <ele>2334.3</ele>
        <time>2018-04-21T11:26:39.000Z</time>
      </trkpt>
      <trkpt lat="40.797878" lon="-3.934611">
        <ele>2334.2</ele>
        <time>2018-04-21T11:26:40.000Z</time>
      </trkpt>
      <trkpt lat="40.797872" lon="-3.93461">
        <ele>2334.0</ele>
        <time>2018-04-21T11:26:41.000Z</time>
      </trkpt>
      <trkpt lat="40.797866" lon="-3.934609">
        <ele>2333.9</ele>
        <time>2018-04-21T11:26:42.000Z</time>
      </trkpt>
      <trkpt lat="40.797862" lon="-3.934609">
        <ele>2333.8</ele>
        <time>2018-04-21T11:26:43.000Z</time>
      </trkpt>
      <trkpt lat="40.797859" lon="-3.934609">
        <ele>2333.8</ele>
        <time>2018-04-21T11:26:44.000Z</time>
      </trkpt>
      <trkpt lat="40.797858" lon="-3.934609">
        <ele>2333.7</ele>
        <time>2018-04-21T11:26:45.000Z</time>
      </trkpt>
      <trkpt lat="40.797858" lon="-3.934609">
        <ele>2333.7</ele>
        <time>2018-04-21T11:26:46.000Z</time>
      </trkpt>
      <trkpt lat="40.797858" lon="-3.934609">
        <ele>2333.7</ele>
        <time>2018-04-21T11:26:47.000Z</time>
      </trkpt>
      <trkpt lat="40.797857" lon="-3.93461">
        <ele>2333.7</ele>
        <time>2018-04-21T11:26:48.000Z</time>
      </trkpt>
      <trkpt lat="40.797855" lon="-3.934613">
        <ele>2333.6</ele>
        <time>2018-04-21T11:26:49.000Z</time>
      </trkpt>
      <trkpt lat="40.797852" lon="-3.934617">
        <ele>2333.5</ele>
        <time>2018-04-21T11:26:50.000Z</time>
      </trkpt>
      <trkpt lat="40.797848" lon="-3.934621">
        <ele>2333.4</ele>
        <time>2018-04-21T11:26:51.000Z</time>
      </trkpt>
      <trkpt lat="40.797843" lon="-3.934627">
        <ele>2333.3</ele>
        <time>2018-04-21T11:26:52.000Z</time>
      </trkpt>
      <trkpt lat="40.797838" lon="-3.934633">
        <ele>2333.1</ele>
        <time>2018-04-21T11:26:53.000Z</time>
      </trkpt>
      <trkpt lat="40.797832" lon="-3.93464">
        <ele>2332.9</ele>
        <time>2018-04-21T11:26:54.000Z</time>
      </trkpt>
      <trkpt lat="40.797825" lon="-3.934647">
        <ele>2332.7</ele>
        <time>2018-04-21T11:26:55.000Z</time>
      </trkpt>
      <trkpt lat="40.797819" lon="-3.934653">
        <ele>2332.6</ele>
        <time>2018-04-21T11:26:56.000Z</time>
      </trkpt>
      <trkpt lat="40.797813" lon="-3.934659">
        <ele>2332.4</ele>
        <time>2018-04-21T11:26:57.000Z</time>
      </trkpt>
      <trkpt lat="40.797807" lon="-3.934665">
        <ele>2332.2</ele>
        <time>2018-04-21T11:26:58.000Z</time>
      </trkpt>
      <trkpt lat="40.797801" lon="-3.93467">
        <ele>2332.1</ele>
        <time>2018-04-21T11:26:59.000Z</time>
      </trkpt>
      <trkpt lat="40.797796" lon="-3.934675">
        <ele>2331.9</ele>
        <time>2018-04-21T11:27:00.000Z</time>
      </trkpt>
      <trkpt lat="40.797791" lon="-3.93468">
        <ele>2331.8</ele>
        <time>2018-04-21T11:27:01.000Z</time>
      </trkpt>
      <trkpt lat="40.797785" lon="-3.934685">
        <ele>2331.6</ele>
        <time>2018-04-21T11:27:02.000Z</time>
      </trkpt>
      <trkpt lat="40.79778" lon="-3.93469">
        <ele>2331.5</ele>
        <time>2018-04-21T11:27:03.000Z</time>
      </trkpt>
      <trkpt lat="40.797774" lon="-3.934695">
        <ele>2331.3</ele>
        <time>2018-04-21T11:27:04.000Z</time>
      </trkpt>
      <trkpt lat="40.797769" lon="-3.934701">
        <ele>2331.2</ele>
        <time>2018-04-21T11:27:05.000Z</time>
      </trkpt>
      <trkpt lat="40.797763" lon="-3.934706">
        <ele>2331.0</ele>
        <time>2018-04-21T11:27:06.000Z</time>
      </trkpt>
      <trkpt lat="40.797756" lon="-3.934713">
        <ele>2330.8</ele>
        <time>2018-04-21T11:27:07.000Z</time>
      </trkpt>
      <trkpt lat="40.79775" lon="-3.93472">
        <ele>2330.7</ele>
        <time>2018-04-21T11:27:08.000Z</time>
      </trkpt>
      <trkpt lat="40.797743" lon="-3.934727">
        <ele>2330.5</ele>
        <time>2018-04-21T11:27:09.000Z</time>
      </trkpt>
      <trkpt lat="40.797736" lon="-3.934735">
        <ele>2330.3</ele>
        <time>2018-04-21T11:27:10.000Z</time>
      </trkpt>
      <trkpt lat="40.797729" lon="-3.934743">
        <ele>2330.1</ele>
        <time>2018-04-21T11:27:11.000Z</time>
      </trkpt>
      <trkpt lat="40.797721" lon="-3.934752">
        <ele>2329.9</ele>
        <time>2018-04-21T11:27:12.000Z</time>
      </trkpt>
      <trkpt lat="40.797714" lon="-3.934761">
        <ele>2329.7</ele>
        <time>2018-04-21T11:27:13.000Z</time>
      </trkpt>
      <trkpt lat="40.797707" lon="-3.93477">
        <ele>2329.5</ele>
        <time>2018-04-21T11:27:14.000Z</time>
      </trkpt>
      <trkpt lat="40.797699" lon="-3.934779">
        <ele>2329.3</ele>
        <time>2018-04-21T11:27:15.000Z</time>
      </trkpt>
      <trkpt lat="40.797692" lon="-3.934788">
        <ele>2329.1</ele>
        <time>2018-04-21T11:27:16.000Z</time>
      </trkpt>
      <trkpt lat="40.797685" lon="-3.934797">
        <ele>2329.0</ele>
        <time>2018-04-21T11:27:17.000Z</time>
      </trkpt>
      <trkpt lat="40.797678" lon="-3.934807">
        <ele>2328.8</ele>
        <time>2018-04-21T11:27:18.000Z</time>
      </trkpt>
      <trkpt lat="40.797671" lon="-3.934816">
        <ele>2328.6</ele>
        <time>2018-04-21T11:27:19.000Z</time>
      </trkpt>
      <trkpt lat="40.797665" lon="-3.934826">
        <ele>2328.4</ele>
        <time>2018-04-21T11:27:20.000Z</time>
      </trkpt>
      <trkpt lat="40.797658" lon="-3.934836">
        <ele>2328.3</ele>
        <time>2018-04-21T11:27:21.000Z</time>
      </trkpt>
      <trkpt lat="40.797652" lon="-3.934846">
        <ele>2328.1</ele>
        <time>2018-04-21T11:27:22.000Z</time>
      </trkpt>
      <trkpt lat="40.797646" lon="-3.934856">
        <ele>2328.0</ele>
        <time>2018-04-21T11:27:23.000Z</time>
      </trkpt>
      <trkpt lat="40.79764" lon="-3.934866">
        <ele>2327.8</ele>
        <time>2018-04-21T11:27:24.000Z</time>
      </trkpt>
      <trkpt lat="40.797634" lon="-3.934876">
        <ele>2327.7</ele>
        <time>2018-04-21T11:27:25.000Z</time>
      </trkpt>
      <trkpt lat="40.797629" lon="-3.934886">
        <ele>2327.5</ele>
        <time>2018-04-21T11:27:26.000Z</time>
      </trkpt>
      <trkpt lat="40.797623" lon="-3.934897">
        <ele>2327.4</ele>
        <time>2018-04-21T11:27:27.000Z</time>
      </trkpt>
      <trkpt lat="40.797618" lon="-3.934908">
        <ele>2327.2</ele>
        <time>2018-04-21T11:27:28.000Z</time>
      </trkpt>
      <trkpt lat="40.797613" lon="-3.934918">
        <ele>2327.1</ele>
        <time>2018-04-21T11:27:29.000Z</time>
      </trkpt>
      <trkpt lat="40.797609" lon="-3.93493">
        <ele>2327.0</ele>
        <time>2018-04-21T11:27:30.000Z</time>
      </trkpt>
      <trkpt lat="40.797604" lon="-3.934941">
        <ele>2326.9</ele>
        <time>2018-04-21T11:27:31.000Z</time>
      </trkpt>
      <trkpt lat="40.7976" lon="-3.934952">
        <ele>2326.8</ele>
        <time>2018-04-21T11:27:32.000Z</time>
      </trkpt>
      <trkpt lat="40.797596" lon="-3.934964">
        <ele>2326.6</ele>
        <time>2018-04-21T11:27:33.000Z</time>
      </trkpt>
      <trkpt lat="40.797593" lon="-3.934975">
        <ele>2326.5</ele>
        <time>2018-04-21T11:27:34.000Z</time>
      </trkpt>
      <trkpt lat="40.797589" lon="-3.934987">
        <ele>2326.4</ele>
        <time>2018-04-21T11:27:35.000Z</time>
      </trkpt>
      <trkpt lat="40.797586" lon="-3.934999">
        <ele>2326.3</ele>
        <time>2018-04-21T11:27:36.000Z</time>
      </trkpt>
      <trkpt lat="40.797583" lon="-3.935011">
        <ele>2326.2</ele>
        <time>2018-04-21T11:27:37.000Z</time>
      </trkpt>
      <trkpt lat="40.79758" lon="-3.935023">
        <ele>2326.1</ele>
        <time>2018-04-21T11:27:38.000Z</time>
      </trkpt>
      <trkpt lat="40.797577" lon="-3.935035">
        <ele>2325.9</ele>
        <time>2018-04-21T11:27:39.000Z</time>
      </trkpt>
      <trkpt lat="40.797575" lon="-3.935047">
        <ele>2325.8</ele>
        <time>2018-04-21T11:27:40.000Z</time>
      </trkpt>
      <trkpt lat="40.797572" lon="-3.935059">
        <ele>2325.6</ele>
        <time>2018-04-21T11:27:41.000Z</time>
      </trkpt>
      <trkpt lat="40.79757" lon="-3.93507">
        <ele>2325.5</ele>
        <time>2018-04-21T11:27:42.000Z</time>
      </trkpt>
      <trkpt lat="40.797568" lon="-3.935082">
        <ele>2325.4</ele>
        <time>2018-04-21T11:27:43.000Z</time>
      </trkpt>
      <trkpt lat="40.797565" lon="-3.935092">
        <ele>2325.3</ele>
        <time>2018-04-21T11:27:44.000Z</time>
      </trkpt>
      <trkpt lat="40.797564" lon="-3.935102">
        <ele>2325.2</ele>
        <time>2018-04-21T11:27:45.000Z</time>
      </trkpt>
      <trkpt lat="40.797562" lon="-3.935109">
        <ele>2325.1</ele>
        <time>2018-04-21T11:27:46.000Z</time>
      </trkpt>
      <trkpt lat="40.797562" lon="-3.935115">
        <ele>2325.1</ele>
        <time>2018-04-21T11:27:47.000Z</time>
      </trkpt>
      <trkpt lat="40.797562" lon="-3.935117">
        <ele>2325.0</ele>
        <time>2018-04-21T11:27:48.000Z</time>
      </trkpt>
      <trkpt lat="40.797563" lon="-3.935118">
        <ele>2325.0</ele>
        <time>2018-04-21T11:27:49.000Z</time>
      </trkpt>
      <trkpt lat="40.797564" lon="-3.935117">
        <ele>2325.1</ele>
        <time>2018-04-21T11:27:50.000Z</time>
      </trkpt>
      <trkpt lat="40.797564" lon="-3.935115">
        <ele>2325.1</ele>
        <time>2018-04-21T11:27:51.000Z</time>
      </trkpt>
      <trkpt lat="40.797565" lon="-3.935113">
        <ele>2325.1</ele>
        <time>2018-04-21T11:27:52.000Z</time>
      </trkpt>
      <trkpt lat="40.797566" lon="-3.935112">
        <ele>2325.1</ele>
        <time>2018-04-21T11:27:53.000Z</time>
      </trkpt>
      <trkpt lat="40.797566" lon="-3.935112">
        <ele>2325.1</ele>
        <time>2018-04-21T11:27:54.000Z</time>
      </trkpt>
      <trkpt lat="40.797565" lon="-3.935114">
        <ele>2325.1</ele>
        <time>2018-04-21T11:27:55.000Z</time>
      </trkpt>
      <trkpt lat="40.797564" lon="-3.935119">
        <ele>2325.0</ele>
        <time>2018-04-21T11:27:56.000Z</time>
      </trkpt>
      <trkpt lat="40.797563" lon="-3.935127">
        <ele>2325.0</ele>
        <time>2018-04-21T11:27:57.000Z</time>
      </trkpt>
      <trkpt lat="40.797561" lon="-3.935137">
        <ele>2324.9</ele>
        <time>2018-04-21T11:27:58.000Z</time>
      </trkpt>
      <trkpt lat="40.797558" lon="-3.935149">
        <ele>2324.7</ele>
        <time>2018-04-21T11:27:59.000Z</time>
      </trkpt>
      <trkpt lat="40.797553" lon="-3.93516">
        <ele>2324.6</ele>
        <time>2018-04-21T11:28:00.000Z</time>
      </trkpt>
      <trkpt lat="40.797548" lon="-3.935171">
        <ele>2324.5</ele>
        <time>2018-04-21T11:28:01.000Z</time>
      </trkpt>
      <trkpt lat="40.797541" lon="-3.93518">
        <ele>2324.3</ele>
        <time>2018-04-21T11:28:02.000Z</time>
      </trkpt>
      <trkpt lat="40.797534" lon="-3.935189">
        <ele>2324.2</ele>
        <time>2018-04-21T11:28:03.000Z</time>
      </trkpt>
      <trkpt lat="40.797526" lon="-3.935198">
        <ele>2324.1</ele>
        <time>2018-04-21T11:28:04.000Z</time>
      </trkpt>
      <trkpt lat="40.797518" lon="-3.935206">
        <ele>2323.9</ele>
        <time>2018-04-21T11:28:05.000Z</time>
      </trkpt>
      <trkpt lat="40.79751" lon="-3.935214">
        <ele>2323.8</ele>
        <time>2018-04-21T11:28:06.000Z</time>
      </trkpt>
      <trkpt lat="40.797504" lon="-3.935222">
        <ele>2323.7</ele>
        <time>2018-04-21T11:28:07.000Z</time>
      </trkpt>
      <trkpt lat="40.797498" lon="-3.935231">
        <ele>2323.6</ele>
        <time>2018-04-21T11:28:08.000Z</time>
      </trkpt>
      <trkpt lat="40.797493" lon="-3.93524">
        <ele>2323.4</ele>
        <time>2018-04-21T11:28:09.000Z</time>
      </trkpt>
      <trkpt lat="40.79749" lon="-3.93525">
        <ele>2323.3</ele>
        <time>2018-04-21T11:28:10.000Z</time>
      </trkpt>
      <trkpt lat="40.797488" lon="-3.93526">
        <ele>2323.2</ele>
        <time>2018-04-21T11:28:11.000Z</time>
      </trkpt>
      <trkpt lat="40.797487" lon="-3.935271">
        <ele>2323.1</ele>
        <time>2018-04-21T11:28:12.000Z</time>
      </trkpt>
      <trkpt lat="40.797487" lon="-3.935282">
        <ele>2323.1</ele>
        <time>2018-04-21T11:28:13.000Z</time>
      </trkpt>
      <trkpt lat="40.797488" lon="-3.935293">
        <ele>2323.0</ele>
        <time>2018-04-21T11:28:14.000Z</time>
      </trkpt>
      <trkpt lat="40.797488" lon="-3.935304">
        <ele>2323.0</ele>
        <time>2018-04-21T11:28:15.000Z</time>
      </trkpt>
      <trkpt lat="40.797488" lon="-3.935315">
        <ele>2322.9</ele>
        <time>2018-04-21T11:28:16.000Z</time>
      </trkpt>
      <trkpt lat="40.797488" lon="-3.935326">
        <ele>2322.8</ele>
        <time>2018-04-21T11:28:17.000Z</time>
      </trkpt>
      <trkpt lat="40.797487" lon="-3.935336">
        <ele>2322.8</ele>
        <time>2018-04-21T11:28:18.000Z</time>
      </trkpt>
      <trkpt lat="40.797484" lon="-3.935346">
        <ele>2322.7</ele>
        <time>2018-04-21T11:28:19.000Z</time>
      </trkpt>
      <trkpt lat="40.797481" lon="-3.935356">
        <ele>2322.6</ele>
        <time>2018-04-21T11:28:20.000Z</time>
      </trkpt>
      <trkpt lat="40.797476" lon="-3.935365">
        <ele>2322.4</ele>
        <time>2018-04-21T11:28:21.000Z</time>
      </trkpt>
      <trkpt lat="40.797471" lon="-3.935375">
        <ele>2322.3</ele>
        <time>2018-04-21T11:28:22.000Z</time>
      </trkpt>
      <trkpt lat="40.797466" lon="-3.935384">
        <ele>2322.2</ele>
        <time>2018-04-21T11:28:23.000Z</time>
      </trkpt>
      <trkpt lat="40.79746" lon="-3.935394">
        <ele>2322.0</ele>
        <time>2018-04-21T11:28:24.000Z</time>
      </trkpt>
      <trkpt lat="40.797454" lon="-3.935404">
        <ele>2321.9</ele>
        <time>2018-04-21T11:28:25.000Z</time>
      </trkpt>
      <trkpt lat="40.797448" lon="-3.935414">
        <ele>2321.7</ele>
        <time>2018-04-21T11:28:26.000Z</time>
      </trkpt>
      <trkpt lat="40.797443" lon="-3.935425">
        <ele>2321.6</ele>
        <time>2018-04-21T11:28:27.000Z</time>
      </trkpt>
      <trkpt lat="40.797437" lon="-3.935437">
        <ele>2321.5</ele>
        <time>2018-04-21T11:28:28.000Z</time>
      </trkpt>
      <trkpt lat="40.797432" lon="-3.93545">
        <ele>2321.3</ele>
        <time>2018-04-21T11:28:29.000Z</time>
      </trkpt>
      <trkpt lat="40.797427" lon="-3.935462">
        <ele>2321.2</ele>
        <time>2018-04-21T11:28:30.000Z</time>
      </trkpt>
      <trkpt lat="40.797422" lon="-3.935475">
        <ele>2321.1</ele>
        <time>2018-04-21T11:28:31.000Z</time>
      </trkpt>
      <trkpt lat="40.797417" lon="-3.935488">
        <ele>2321.0</ele>
        <time>2018-04-21T11:28:32.000Z</time>
      </trkpt>
      <trkpt lat="40.797411" lon="-3.935501">
        <ele>2320.8</ele>
        <time>2018-04-21T11:28:33.000Z</time>
      </trkpt>
      <trkpt lat="40.797405" lon="-3.935513">
        <ele>2320.7</ele>
        <time>2018-04-21T11:28:34.000Z</time>
      </trkpt>
      <trkpt lat="40.797398" lon="-3.935525">
        <ele>2320.6</ele>
        <time>2018-04-21T11:28:35.000Z</time>
      </trkpt>
      <trkpt lat="40.797391" lon="-3.935536">
        <ele>2320.5</ele>
        <time>2018-04-21T11:28:36.000Z</time>
      </trkpt>
      <trkpt lat="40.797383" lon="-3.935546">
        <ele>2320.3</ele>
        <time>2018-04-21T11:28:37.000Z</time>
      </trkpt>
      <trkpt lat="40.797376" lon="-3.935553">
        <ele>2320.2</ele>
        <time>2018-04-21T11:28:38.000Z</time>
      </trkpt>
      <trkpt lat="40.797372" lon="-3.935557">
        <ele>2320.2</ele>
        <time>2018-04-21T11:28:39.000Z</time>
      </trkpt>
      <trkpt lat="40.797372" lon="-3.935557">
        <ele>2320.2</ele>
        <time>2018-04-21T11:28:40.000Z</time>
      </trkpt>
      <trkpt lat="40.797373" lon="-3.935557">
        <ele>2320.2</ele>
        <time>2018-04-21T11:28:41.000Z</time>
      </trkpt>
      <trkpt lat="40.797373" lon="-3.93556">
        <ele>2320.2</ele>
        <time>2018-04-21T11:28:42.000Z</time>
      </trkpt>
      <trkpt lat="40.79737" lon="-3.935565">
        <ele>2320.1</ele>
        <time>2018-04-21T11:28:43.000Z</time>
      </trkpt>
      <trkpt lat="40.797366" lon="-3.935573">
        <ele>2320.1</ele>
        <time>2018-04-21T11:28:44.000Z</time>
      </trkpt>
      <trkpt lat="40.797362" lon="-3.935582">
        <ele>2320.0</ele>
        <time>2018-04-21T11:28:45.000Z</time>
      </trkpt>
      <trkpt lat="40.797357" lon="-3.935591">
        <ele>2319.9</ele>
        <time>2018-04-21T11:28:46.000Z</time>
      </trkpt>
      <trkpt lat="40.797353" lon="-3.9356">
        <ele>2319.9</ele>
        <time>2018-04-21T11:28:47.000Z</time>
      </trkpt>
      <trkpt lat="40.797348" lon="-3.935609">
        <ele>2319.8</ele>
        <time>2018-04-21T11:28:48.000Z</time>
      </trkpt>
      <trkpt lat="40.797342" lon="-3.935617">
        <ele>2319.7</ele>
        <time>2018-04-21T11:28:49.000Z</time>
      </trkpt>
      <trkpt lat="40.797337" lon="-3.935626">
        <ele>2319.6</ele>
        <time>2018-04-21T11:28:50.000Z</time>
      </trkpt>
      <trkpt lat="40.797332" lon="-3.935635">
        <ele>2319.6</ele>
        <time>2018-04-21T11:28:51.000Z</time>
      </trkpt>
      <trkpt lat="40.797326" lon="-3.935644">
        <ele>2319.5</ele>
        <time>2018-04-21T11:28:52.000Z</time>
      </trkpt>
      <trkpt lat="40.797321" lon="-3.935653">
        <ele>2319.4</ele>
        <time>2018-04-21T11:28:53.000Z</time>
      </trkpt>
      <trkpt lat="40.797315" lon="-3.935661">
        <ele>2319.4</ele>
        <time>2018-04-21T11:28:54.000Z</time>
      </trkpt>
      <trkpt lat="40.79731" lon="-3.93567">
        <ele>2319.3</ele>
        <time>2018-04-21T11:28:55.000Z</time>
      </trkpt>
      <trkpt lat="40.797304" lon="-3.935679">
        <ele>2319.2</ele>
        <time>2018-04-21T11:28:56.000Z</time>
      </trkpt>
      <trkpt lat="40.797298" lon="-3.935688">
        <ele>2319.2</ele>
        <time>2018-04-21T11:28:57.000Z</time>
      </trkpt>
      <trkpt lat="40.797293" lon="-3.935696">
        <ele>2319.1</ele>
        <time>2018-04-21T11:28:58.000Z</time>
      </trkpt>
      <trkpt lat="40.797287" lon="-3.935705">
        <ele>2319.1</ele>
        <time>2018-04-21T11:28:59.000Z</time>
      </trkpt>
      <trkpt lat="40.797281" lon="-3.935713">
        <ele>2319.0</ele>
        <time>2018-04-21T11:29:00.000Z</time>
      </trkpt>
      <trkpt lat="40.797276" lon="-3.935722">
        <ele>2319.0</ele>
        <time>2018-04-21T11:29:01.000Z</time>
      </trkpt>
      <trkpt lat="40.79727" lon="-3.93573">
        <ele>2318.9</ele>
        <time>2018-04-21T11:29:02.000Z</time>
      </trkpt>
      <trkpt lat="40.797265" lon="-3.935738">
        <ele>2318.9</ele>
        <time>2018-04-21T11:29:03.000Z</time>
      </trkpt>
      <trkpt lat="40.797259" lon="-3.935747">
        <ele>2318.9</ele>
        <time>2018-04-21T11:29:04.000Z</time>
      </trkpt>
      <trkpt lat="40.797254" lon="-3.935755">
        <ele>2318.8</ele>
        <time>2018-04-21T11:29:05.000Z</time>
      </trkpt>
      <trkpt lat="40.797249" lon="-3.935763">
        <ele>2318.8</ele>
        <time>2018-04-21T11:29:06.000Z</time>
      </trkpt>
      <trkpt lat="40.797244" lon="-3.935771">
        <ele>2318.8</ele>
        <time>2018-04-21T11:29:07.000Z</time>
      </trkpt>
      <trkpt lat="40.797239" lon="-3.935778">
        <ele>2318.7</ele>
        <time>2018-04-21T11:29:08.000Z</time>
      </trkpt>
      <trkpt lat="40.797234" lon="-3.935786">
        <ele>2318.7</ele>
        <time>2018-04-21T11:29:09.000Z</time>
      </trkpt>
      <trkpt lat="40.79723" lon="-3.935793">
        <ele>2318.7</ele>
        <time>2018-04-21T11:29:10.000Z</time>
      </trkpt>
      <trkpt lat="40.797225" lon="-3.9358">
        <ele>2318.7</ele>
        <time>2018-04-21T11:29:11.000Z</time>
      </trkpt>
      <trkpt lat="40.797221" lon="-3.935806">
        <ele>2318.6</ele>
        <time>2018-04-21T11:29:12.000Z</time>
      </trkpt>
      <trkpt lat="40.797217" lon="-3.935812">
        <ele>2318.6</ele>
        <time>2018-04-21T11:29:13.000Z</time>
      </trkpt>
      <trkpt lat="40.797214" lon="-3.935818">
        <ele>2318.6</ele>
        <time>2018-04-21T11:29:14.000Z</time>
      </trkpt>
      <trkpt lat="40.797211" lon="-3.935823">
        <ele>2318.6</ele>
        <time>2018-04-21T11:29:15.000Z</time>
      </trkpt>
      <trkpt lat="40.797208" lon="-3.935828">
        <ele>2318.6</ele>
        <time>2018-04-21T11:29:16.000Z</time>
      </trkpt>
      <trkpt lat="40.797205" lon="-3.935833">
        <ele>2318.6</ele>
        <time>2018-04-21T11:29:17.000Z</time>
      </trkpt>
      <trkpt lat="40.797203" lon="-3.935836">
        <ele>2318.6</ele>
        <time>2018-04-21T11:29:18.000Z</time>
      </trkpt>
      <trkpt lat="40.797201" lon="-3.93584">
        <ele>2318.6</ele>
        <time>2018-04-21T11:29:19.000Z</time>
      </trkpt>
      <trkpt lat="40.797199" lon="-3.935842">
        <ele>2318.6</ele>
        <time>2018-04-21T11:29:20.000Z</time>
      </trkpt>
      <trkpt lat="40.797198" lon="-3.935844">
        <ele>2318.6</ele>
        <time>2018-04-21T11:29:21.000Z</time>
      </trkpt>
      <trkpt lat="40.797198" lon="-3.935846">
        <ele>2318.6</ele>
        <time>2018-04-21T11:29:22.000Z</time>
      </trkpt>
      <trkpt lat="40.797197" lon="-3.935846">
        <ele>2318.6</ele>
        <time>2018-04-21T11:29:23.000Z</time>
      </trkpt>
      <trkpt lat="40.797197" lon="-3.935847">
        <ele>2318.6</ele>
        <time>2018-04-21T11:29:24.000Z</time>
      </trkpt>
      <trkpt lat="40.797198" lon="-3.935847">
        <ele>2318.6</ele>
        <time>2018-04-21T11:29:25.000Z</time>
      </trkpt>
      <trkpt lat="40.797198" lon="-3.935846">
        <ele>2318.6</ele>
        <time>2018-04-21T11:29:26.000Z</time>
      </trkpt>
      <trkpt lat="40.797199" lon="-3.935846">
        <ele>2318.6</ele>
        <time>2018-04-21T11:29:27.000Z</time>
      </trkpt>
      <trkpt lat="40.797199" lon="-3.935845">
        <ele>2318.6</ele>
        <time>2018-04-21T11:29:28.000Z</time>
      </trkpt>
      <trkpt lat="40.7972" lon="-3.935844">
        <ele>2318.6</ele>
        <time>2018-04-21T11:29:29.000Z</time>
      </trkpt>
      <trkpt lat="40.7972" lon="-3.935843">
        <ele>2318.6</ele>
        <time>2018-04-21T11:29:30.000Z</time>
      </trkpt>
      <trkpt lat="40.7972" lon="-3.935843">
        <ele>2318.6</ele>
        <time>2018-04-21T11:29:31.000Z</time>
      </trkpt>
      <trkpt lat="40.7972" lon="-3.935843">
        <ele>2318.6</ele>
        <time>2018-04-21T11:29:32.000Z</time>
      </trkpt>
      <trkpt lat="40.797201" lon="-3.935843">
        <ele>2318.6</ele>
        <time>2018-04-21T11:29:33.000Z</time>
      </trkpt>
      <trkpt lat="40.797201" lon="-3.935843">
        <ele>2318.6</ele>
        <time>2018-04-21T11:29:34.000Z</time>
      </trkpt>
      <trkpt lat="40.7972" lon="-3.935843">
        <ele>2318.6</ele>
        <time>2018-04-21T11:29:35.000Z</time>
      </trkpt>
      <trkpt lat="40.7972" lon="-3.935843">
        <ele>2318.6</ele>
        <time>2018-04-21T11:29:36.000Z</time>
      </trkpt>
      <trkpt lat="40.7972" lon="-3.935843">
        <ele>2318.6</ele>
        <time>2018-04-21T11:29:37.000Z</time>
      </trkpt>
      <trkpt lat="40.7972" lon="-3.935844">
        <ele>2318.6</ele>
        <time>2018-04-21T11:29:38.000Z</time>
      </trkpt>
      <trkpt lat="40.797201" lon="-3.935844">
        <ele>2318.6</ele>
        <time>2018-04-21T11:29:39.000Z</time>
      </trkpt>
      <trkpt lat="40.797201" lon="-3.935845">
        <ele>2318.6</ele>
        <time>2018-04-21T11:29:40.000Z</time>
      </trkpt>
      <trkpt lat="40.797201" lon="-3.935847">
        <ele>2318.6</ele>
        <time>2018-04-21T11:29:41.000Z</time>
      </trkpt>
      <trkpt lat="40.797201" lon="-3.93585">
        <ele>2318.6</ele>
        <time>2018-04-21T11:29:42.000Z</time>
      </trkpt>
      <trkpt lat="40.7972" lon="-3.935855">
        <ele>2318.6</ele>
        <time>2018-04-21T11:29:43.000Z</time>
      </trkpt>
      <trkpt lat="40.797198" lon="-3.935863">
        <ele>2318.6</ele>
        <time>2018-04-21T11:29:44.000Z</time>
      </trkpt>
      <trkpt lat="40.797195" lon="-3.935874">
        <ele>2318.6</ele>
        <time>2018-04-21T11:29:45.000Z</time>
      </trkpt>
      <trkpt lat="40.797191" lon="-3.935887">
        <ele>2318.7</ele>
        <time>2018-04-21T11:29:46.000Z</time>
      </trkpt>
      <trkpt lat="40.797188" lon="-3.935902">
        <ele>2318.7</ele>
        <time>2018-04-21T11:29:47.000Z</time>
      </trkpt>
      <trkpt lat="40.797184" lon="-3.935916">
        <ele>2318.7</ele>
        <time>2018-04-21T11:29:48.000Z</time>
      </trkpt>
      <trkpt lat="40.797181" lon="-3.935929">
        <ele>2318.8</ele>
        <time>2018-04-21T11:29:49.000Z</time>
      </trkpt>
      <trkpt lat="40.797178" lon="-3.93594">
        <ele>2318.8</ele>
        <time>2018-04-21T11:29:50.000Z</time>
      </trkpt>
      <trkpt lat="40.797176" lon="-3.93595">
        <ele>2318.8</ele>
        <time>2018-04-21T11:29:51.000Z</time>
      </trkpt>
      <trkpt lat="40.797175" lon="-3.935957">
        <ele>2318.8</ele>
        <time>2018-04-21T11:29:52.000Z</time>
      </trkpt>
      <trkpt lat="40.797174" lon="-3.935963">
        <ele>2318.9</ele>
        <time>2018-04-21T11:29:53.000Z</time>
      </trkpt>
      <trkpt lat="40.797174" lon="-3.935966">
        <ele>2318.9</ele>
        <time>2018-04-21T11:29:54.000Z</time>
      </trkpt>
      <trkpt lat="40.797174" lon="-3.935968">
        <ele>2318.9</ele>
        <time>2018-04-21T11:29:55.000Z</time>
      </trkpt>
      <trkpt lat="40.797174" lon="-3.935968">
        <ele>2318.9</ele>
        <time>2018-04-21T11:29:56.000Z</time>
      </trkpt>
      <trkpt lat="40.797174" lon="-3.935968">
        <ele>2318.9</ele>
        <time>2018-04-21T11:29:57.000Z</time>
      </trkpt>
      <trkpt lat="40.797174" lon="-3.935968">
        <ele>2318.9</ele>
        <time>2018-04-21T11:29:58.000Z</time>
      </trkpt>
      <trkpt lat="40.797174" lon="-3.935967">
        <ele>2318.9</ele>
        <time>2018-04-21T11:29:59.000Z</time>
      </trkpt>
      <trkpt lat="40.797174" lon="-3.935967">
        <ele>2318.9</ele>
        <time>2018-04-21T11:30:00.000Z</time>
      </trkpt>
      <trkpt lat="40.797174" lon="-3.935967">
        <ele>2318.9</ele>
        <time>2018-04-21T11:30:01.000Z</time>
      </trkpt>
      <trkpt lat="40.797174" lon="-3.935967">
        <ele>2318.9</ele>
        <time>2018-04-21T11:30:02.000Z</time>
      </trkpt>
      <trkpt lat="40.797175" lon="-3.935967">
        <ele>2318.9</ele>
        <time>2018-04-21T11:30:03.000Z</time>
      </trkpt>
      <trkpt lat="40.797175" lon="-3.935967">
        <ele>2318.9</ele>
        <time>2018-04-21T11:30:04.000Z</time>
      </trkpt>
      <trkpt lat="40.797175" lon="-3.935967">
        <ele>2318.9</ele>
        <time>2018-04-21T11:30:05.000Z</time>
      </trkpt>
      <trkpt lat="40.797175" lon="-3.935967">
        <ele>2318.9</ele>
        <time>2018-04-21T11:30:06.000Z</time>
      </trkpt>
      <trkpt lat="40.797175" lon="-3.935967">
        <ele>2318.9</ele>
        <time>2018-04-21T11:30:07.000Z</time>
      </trkpt>
      <trkpt lat="40.797175" lon="-3.935967">
        <ele>2318.9</ele>
        <time>2018-04-21T11:30:08.000Z</time>
      </trkpt>
      <trkpt lat="40.797175" lon="-3.935967">
        <ele>2318.9</ele>
        <time>2018-04-21T11:30:09.000Z</time>
      </trkpt>
      <trkpt lat="40.797175" lon="-3.935967">
        <ele>2318.9</ele>
        <time>2018-04-21T11:30:10.000Z</time>
      </trkpt>
      <trkpt lat="40.797175" lon="-3.935967">
        <ele>2318.9</ele>
        <time>2018-04-21T11:30:11.000Z</time>
      </trkpt>
      <trkpt lat="40.797175" lon="-3.935967">
        <ele>2318.9</ele>
        <time>2018-04-21T11:30:12.000Z</time>
      </trkpt>
      <trkpt lat="40.797175" lon="-3.935967">
        <ele>2318.9</ele>
        <time>2018-04-21T11:30:13.000Z</time>
      </trkpt>
      <trkpt lat="40.797175" lon="-3.935967">
        <ele>2318.9</ele>
        <time>2018-04-21T11:30:14.000Z</time>
      </trkpt>
      <trkpt lat="40.797175" lon="-3.935967">
        <ele>2318.9</ele>
        <time>2018-04-21T11:30:15.000Z</time>
      </trkpt>
      <trkpt lat="40.797175" lon="-3.935967">
        <ele>2318.9</ele>
        <time>2018-04-21T11:30:16.000Z</time>
      </trkpt>
      <trkpt lat="40.797175" lon="-3.935967">
        <ele>2318.9</ele>
        <time>2018-04-21T11:30:17.000Z</time>
      </trkpt>
      <trkpt lat="40.797175" lon="-3.935967">
        <ele>2318.9</ele>
        <time>2018-04-21T11:30:18.000Z</time>
      </trkpt>
      <trkpt lat="40.797175" lon="-3.935967">
        <ele>2318.9</ele>
        <time>2018-04-21T11:30:19.000Z</time>
      </trkpt>
      <trkpt lat="40.797175" lon="-3.935967">
        <ele>2318.9</ele>
        <time>2018-04-21T11:30:20.000Z</time>
      </trkpt>
      <trkpt lat="40.797175" lon="-3.935967">
        <ele>2318.9</ele>
        <time>2018-04-21T11:30:21.000Z</time>
      </trkpt>
      <trkpt lat="40.797175" lon="-3.935967">
        <ele>2318.9</ele>
        <time>2018-04-21T11:30:22.000Z</time>
      </trkpt>
      <trkpt lat="40.797175" lon="-3.935967">
        <ele>2318.9</ele>
        <time>2018-04-21T11:30:23.000Z</time>
      </trkpt>
      <trkpt lat="40.797175" lon="-3.935967">
        <ele>2318.9</ele>
        <time>2018-04-21T11:30:24.000Z</time>
      </trkpt>
      <trkpt lat="40.797175" lon="-3.935967">
        <ele>2318.9</ele>
        <time>2018-04-21T11:30:25.000Z</time>
      </trkpt>
      <trkpt lat="40.797175" lon="-3.935967">
        <ele>2318.9</ele>
        <time>2018-04-21T11:30:26.000Z</time>
      </trkpt>
      <trkpt lat="40.797175" lon="-3.935967">
        <ele>2318.9</ele>
        <time>2018-04-21T11:30:27.000Z</time>
      </trkpt>
      <trkpt lat="40.797175" lon="-3.935967">
        <ele>2318.9</ele>
        <time>2018-04-21T11:30:28.000Z</time>
      </trkpt>
      <trkpt lat="40.797175" lon="-3.935967">
        <ele>2318.9</ele>
        <time>2018-04-21T11:30:29.000Z</time>
      </trkpt>
      <trkpt lat="40.797175" lon="-3.935967">
        <ele>2318.9</ele>
        <time>2018-04-21T11:30:30.000Z</time>
      </trkpt>
      <trkpt lat="40.797175" lon="-3.935967">
        <ele>2318.9</ele>
        <time>2018-04-21T11:30:31.000Z</time>
      </trkpt>
      <trkpt lat="40.797175" lon="-3.935967">
        <ele>2318.9</ele>
        <time>2018-04-21T11:30:32.000Z</time>
      </trkpt>
      <trkpt lat="40.797175" lon="-3.935967">
        <ele>2318.9</ele>
        <time>2018-04-21T11:30:33.000Z</time>
      </trkpt>
      <trkpt lat="40.797175" lon="-3.935967">
        <ele>2318.9</ele>
        <time>2018-04-21T11:30:34.000Z</time>
      </trkpt>
      <trkpt lat="40.797175" lon="-3.935967">
        <ele>2318.9</ele>
        <time>2018-04-21T11:30:35.000Z</time>
      </trkpt>
      <trkpt lat="40.797175" lon="-3.935967">
        <ele>2318.9</ele>
        <time>2018-04-21T11:30:36.000Z</time>
      </trkpt>
      <trkpt lat="40.797175" lon="-3.935967">
        <ele>2318.9</ele>
        <time>2018-04-21T11:30:37.000Z</time>
      </trkpt>
      <trkpt lat="40.797174" lon="-3.935967">
        <ele>2318.9</ele>
        <time>2018-04-21T11:30:38.000Z</time>
      </trkpt>
      <trkpt lat="40.797175" lon="-3.935967">
        <ele>2318.9</ele>
        <time>2018-04-21T11:30:39.000Z</time>
      </trkpt>
      <trkpt lat="40.797175" lon="-3.935967">
        <ele>2318.9</ele>
        <time>2018-04-21T11:30:40.000Z</time>
      </trkpt>
      <trkpt lat="40.797175" lon="-3.935967">
        <ele>2318.9</ele>
        <time>2018-04-21T11:30:41.000Z</time>
      </trkpt>
      <trkpt lat="40.797175" lon="-3.935967">
        <ele>2318.9</ele>
        <time>2018-04-21T11:30:42.000Z</time>
      </trkpt>
      <trkpt lat="40.797175" lon="-3.935967">
        <ele>2318.9</ele>
        <time>2018-04-21T11:30:43.000Z</time>
      </trkpt>
      <trkpt lat="40.797175" lon="-3.935967">
        <ele>2318.9</ele>
        <time>2018-04-21T11:30:44.000Z</time>
      </trkpt>
      <trkpt lat="40.797175" lon="-3.935967">
        <ele>2318.9</ele>
        <time>2018-04-21T11:30:45.000Z</time>
      </trkpt>
      <trkpt lat="40.797175" lon="-3.935966">
        <ele>2318.9</ele>
        <time>2018-04-21T11:30:46.000Z</time>
      </trkpt>
      <trkpt lat="40.797176" lon="-3.935966">
        <ele>2318.9</ele>
        <time>2018-04-21T11:30:47.000Z</time>
      </trkpt>
      <trkpt lat="40.797176" lon="-3.935966">
        <ele>2318.9</ele>
        <time>2018-04-21T11:30:48.000Z</time>
      </trkpt>
      <trkpt lat="40.797177" lon="-3.935965">
        <ele>2318.9</ele>
        <time>2018-04-21T11:30:49.000Z</time>
      </trkpt>
      <trkpt lat="40.797177" lon="-3.935964">
        <ele>2318.9</ele>
        <time>2018-04-21T11:30:50.000Z</time>
      </trkpt>
      <trkpt lat="40.797178" lon="-3.935964">
        <ele>2318.9</ele>
        <time>2018-04-21T11:30:51.000Z</time>
      </trkpt>
      <trkpt lat="40.797178" lon="-3.935963">
        <ele>2318.9</ele>
        <time>2018-04-21T11:30:52.000Z</time>
      </trkpt>
      <trkpt lat="40.797179" lon="-3.935962">
        <ele>2318.9</ele>
        <time>2018-04-21T11:30:53.000Z</time>
      </trkpt>
      <trkpt lat="40.79718" lon="-3.935961">
        <ele>2318.9</ele>
        <time>2018-04-21T11:30:54.000Z</time>
      </trkpt>
      <trkpt lat="40.79718" lon="-3.935961">
        <ele>2318.9</ele>
        <time>2018-04-21T11:30:55.000Z</time>
      </trkpt>
      <trkpt lat="40.797181" lon="-3.935962">
        <ele>2318.9</ele>
        <time>2018-04-21T11:30:56.000Z</time>
      </trkpt>
      <trkpt lat="40.79718" lon="-3.935963">
        <ele>2318.9</ele>
        <time>2018-04-21T11:30:57.000Z</time>
      </trkpt>
      <trkpt lat="40.797179" lon="-3.935965">
        <ele>2318.9</ele>
        <time>2018-04-21T11:30:58.000Z</time>
      </trkpt>
      <trkpt lat="40.797177" lon="-3.935969">
        <ele>2318.9</ele>
        <time>2018-04-21T11:30:59.000Z</time>
      </trkpt>
      <trkpt lat="40.797174" lon="-3.935975">
        <ele>2318.9</ele>
        <time>2018-04-21T11:31:00.000Z</time>
      </trkpt>
      <trkpt lat="40.79717" lon="-3.935983">
        <ele>2318.9</ele>
        <time>2018-04-21T11:31:01.000Z</time>
      </trkpt>
      <trkpt lat="40.797164" lon="-3.935993">
        <ele>2319.0</ele>
        <time>2018-04-21T11:31:02.000Z</time>
      </trkpt>
      <trkpt lat="40.797158" lon="-3.936004">
        <ele>2319.0</ele>
        <time>2018-04-21T11:31:03.000Z</time>
      </trkpt>
      <trkpt lat="40.797152" lon="-3.936016">
        <ele>2319.1</ele>
        <time>2018-04-21T11:31:04.000Z</time>
      </trkpt>
      <trkpt lat="40.797146" lon="-3.936028">
        <ele>2319.1</ele>
        <time>2018-04-21T11:31:05.000Z</time>
      </trkpt>
      <trkpt lat="40.797141" lon="-3.93604">
        <ele>2319.2</ele>
        <time>2018-04-21T11:31:06.000Z</time>
      </trkpt>
      <trkpt lat="40.797137" lon="-3.936051">
        <ele>2319.3</ele>
        <time>2018-04-21T11:31:07.000Z</time>
      </trkpt>
      <trkpt lat="40.797135" lon="-3.936061">
        <ele>2319.3</ele>
        <time>2018-04-21T11:31:08.000Z</time>
      </trkpt>
      <trkpt lat="40.797133" lon="-3.93607">
        <ele>2319.4</ele>
        <time>2018-04-21T11:31:09.000Z</time>
      </trkpt>
      <trkpt lat="40.797132" lon="-3.936079">
        <ele>2319.4</ele>
        <time>2018-04-21T11:31:10.000Z</time>
      </trkpt>
      <trkpt lat="40.79713" lon="-3.936088">
        <ele>2319.5</ele>
        <time>2018-04-21T11:31:11.000Z</time>
      </trkpt>
      <trkpt lat="40.797128" lon="-3.936096">
        <ele>2319.5</ele>
        <time>2018-04-21T11:31:12.000Z</time>
      </trkpt>
      <trkpt lat="40.797126" lon="-3.936105">
        <ele>2319.6</ele>
        <time>2018-04-21T11:31:13.000Z</time>
      </trkpt>
      <trkpt lat="40.797124" lon="-3.936113">
        <ele>2319.6</ele>
        <time>2018-04-21T11:31:14.000Z</time>
      </trkpt>
      <trkpt lat="40.797122" lon="-3.936121">
        <ele>2319.7</ele>
        <time>2018-04-21T11:31:15.000Z</time>
      </trkpt>
      <trkpt lat="40.797119" lon="-3.936129">
        <ele>2319.7</ele>
        <time>2018-04-21T11:31:16.000Z</time>
      </trkpt>
      <trkpt lat="40.797116" lon="-3.936137">
        <ele>2319.8</ele>
        <time>2018-04-21T11:31:17.000Z</time>
      </trkpt>
      <trkpt lat="40.797113" lon="-3.936144">
        <ele>2319.9</ele>
        <time>2018-04-21T11:31:18.000Z</time>
      </trkpt>
      <trkpt lat="40.797109" lon="-3.936151">
        <ele>2319.9</ele>
        <time>2018-04-21T11:31:19.000Z</time>
      </trkpt>
      <trkpt lat="40.797106" lon="-3.936158">
        <ele>2320.0</ele>
        <time>2018-04-21T11:31:20.000Z</time>
      </trkpt>
      <trkpt lat="40.797101" lon="-3.936165">
        <ele>2320.1</ele>
        <time>2018-04-21T11:31:21.000Z</time>
      </trkpt>
      <trkpt lat="40.797097" lon="-3.936172">
        <ele>2320.1</ele>
        <time>2018-04-21T11:31:22.000Z</time>
      </trkpt>
      <trkpt lat="40.797093" lon="-3.936179">
        <ele>2320.2</ele>
        <time>2018-04-21T11:31:23.000Z</time>
      </trkpt>
      <trkpt lat="40.797088" lon="-3.936185">
        <ele>2320.3</ele>
        <time>2018-04-21T11:31:24.000Z</time>
      </trkpt>
      <trkpt lat="40.797084" lon="-3.936192">
        <ele>2320.4</ele>
        <time>2018-04-21T11:31:25.000Z</time>
      </trkpt>
      <trkpt lat="40.79708" lon="-3.936199">
        <ele>2320.4</ele>
        <time>2018-04-21T11:31:26.000Z</time>
      </trkpt>
      <trkpt lat="40.797076" lon="-3.936205">
        <ele>2320.5</ele>
        <time>2018-04-21T11:31:27.000Z</time>
      </trkpt>
      <trkpt lat="40.797073" lon="-3.936212">
        <ele>2320.6</ele>
        <time>2018-04-21T11:31:28.000Z</time>
      </trkpt>
      <trkpt lat="40.79707" lon="-3.93622">
        <ele>2320.7</ele>
        <time>2018-04-21T11:31:29.000Z</time>
      </trkpt>
      <trkpt lat="40.797067" lon="-3.936227">
        <ele>2320.8</ele>
        <time>2018-04-21T11:31:30.000Z</time>
      </trkpt>
      <trkpt lat="40.797065" lon="-3.936235">
        <ele>2320.8</ele>
        <time>2018-04-21T11:31:31.000Z</time>
      </trkpt>
      <trkpt lat="40.797063" lon="-3.936242">
        <ele>2320.9</ele>
        <time>2018-04-21T11:31:32.000Z</time>
      </trkpt>
      <trkpt lat="40.797061" lon="-3.93625">
        <ele>2321.0</ele>
        <time>2018-04-21T11:31:33.000Z</time>
      </trkpt>
      <trkpt lat="40.797059" lon="-3.936258">
        <ele>2321.1</ele>
        <time>2018-04-21T11:31:34.000Z</time>
      </trkpt>
      <trkpt lat="40.797057" lon="-3.936266">
        <ele>2321.1</ele>
        <time>2018-04-21T11:31:35.000Z</time>
      </trkpt>
      <trkpt lat="40.797055" lon="-3.936275">
        <ele>2321.2</ele>
        <time>2018-04-21T11:31:36.000Z</time>
      </trkpt>
      <trkpt lat="40.797052" lon="-3.936283">
        <ele>2321.3</ele>
        <time>2018-04-21T11:31:37.000Z</time>
      </trkpt>
      <trkpt lat="40.79705" lon="-3.936291">
        <ele>2321.4</ele>
        <time>2018-04-21T11:31:38.000Z</time>
      </trkpt>
      <trkpt lat="40.797047" lon="-3.936299">
        <ele>2321.5</ele>
        <time>2018-04-21T11:31:39.000Z</time>
      </trkpt>
      <trkpt lat="40.797044" lon="-3.936308">
        <ele>2321.6</ele>
        <time>2018-04-21T11:31:40.000Z</time>
      </trkpt>
      <trkpt lat="40.79704" lon="-3.936316">
        <ele>2321.7</ele>
        <time>2018-04-21T11:31:41.000Z</time>
      </trkpt>
      <trkpt lat="40.797037" lon="-3.936324">
        <ele>2321.8</ele>
        <time>2018-04-21T11:31:42.000Z</time>
      </trkpt>
      <trkpt lat="40.797033" lon="-3.936332">
        <ele>2322.0</ele>
        <time>2018-04-21T11:31:43.000Z</time>
      </trkpt>
      <trkpt lat="40.797029" lon="-3.93634">
        <ele>2322.1</ele>
        <time>2018-04-21T11:31:44.000Z</time>
      </trkpt>
      <trkpt lat="40.797026" lon="-3.936348">
        <ele>2322.2</ele>
        <time>2018-04-21T11:31:45.000Z</time>
      </trkpt>
      <trkpt lat="40.797022" lon="-3.936356">
        <ele>2322.3</ele>
        <time>2018-04-21T11:31:46.000Z</time>
      </trkpt>
      <trkpt lat="40.797018" lon="-3.936364">
        <ele>2322.4</ele>
        <time>2018-04-21T11:31:47.000Z</time>
      </trkpt>
      <trkpt lat="40.797014" lon="-3.936372">
        <ele>2322.6</ele>
        <time>2018-04-21T11:31:48.000Z</time>
      </trkpt>
      <trkpt lat="40.797011" lon="-3.936379">
        <ele>2322.7</ele>
        <time>2018-04-21T11:31:49.000Z</time>
      </trkpt>
      <trkpt lat="40.797007" lon="-3.936387">
        <ele>2322.8</ele>
        <time>2018-04-21T11:31:50.000Z</time>
      </trkpt>
      <trkpt lat="40.797003" lon="-3.936394">
        <ele>2322.9</ele>
        <time>2018-04-21T11:31:51.000Z</time>
      </trkpt>
      <trkpt lat="40.797" lon="-3.936401">
        <ele>2323.0</ele>
        <time>2018-04-21T11:31:52.000Z</time>
      </trkpt>
      <trkpt lat="40.796996" lon="-3.936408">
        <ele>2323.2</ele>
        <time>2018-04-21T11:31:53.000Z</time>
      </trkpt>
      <trkpt lat="40.796993" lon="-3.936415">
        <ele>2323.3</ele>
        <time>2018-04-21T11:31:54.000Z</time>
      </trkpt>
      <trkpt lat="40.79699" lon="-3.936422">
        <ele>2323.4</ele>
        <time>2018-04-21T11:31:55.000Z</time>
      </trkpt>
      <trkpt lat="40.796986" lon="-3.936428">
        <ele>2323.5</ele>
        <time>2018-04-21T11:31:56.000Z</time>
      </trkpt>
      <trkpt lat="40.796983" lon="-3.936435">
        <ele>2323.7</ele>
        <time>2018-04-21T11:31:57.000Z</time>
      </trkpt>
      <trkpt lat="40.796981" lon="-3.936441">
        <ele>2323.8</ele>
        <time>2018-04-21T11:31:58.000Z</time>
      </trkpt>
      <trkpt lat="40.796978" lon="-3.936447">
        <ele>2323.9</ele>
        <time>2018-04-21T11:31:59.000Z</time>
      </trkpt>
      <trkpt lat="40.796975" lon="-3.936453">
        <ele>2324.0</ele>
        <time>2018-04-21T11:32:00.000Z</time>
      </trkpt>
      <trkpt lat="40.796973" lon="-3.936459">
        <ele>2324.1</ele>
        <time>2018-04-21T11:32:01.000Z</time>
      </trkpt>
      <trkpt lat="40.796971" lon="-3.936465">
        <ele>2324.2</ele>
        <time>2018-04-21T11:32:02.000Z</time>
      </trkpt>
      <trkpt lat="40.796969" lon="-3.936471">
        <ele>2324.3</ele>
        <time>2018-04-21T11:32:03.000Z</time>
      </trkpt>
      <trkpt lat="40.796967" lon="-3.936477">
        <ele>2324.4</ele>
        <time>2018-04-21T11:32:04.000Z</time>
      </trkpt>
      <trkpt lat="40.796966" lon="-3.936482">
        <ele>2324.5</ele>
        <time>2018-04-21T11:32:05.000Z</time>
      </trkpt>
      <trkpt lat="40.796964" lon="-3.936488">
        <ele>2324.6</ele>
        <time>2018-04-21T11:32:06.000Z</time>
      </trkpt>
      <trkpt lat="40.796963" lon="-3.936493">
        <ele>2324.6</ele>
        <time>2018-04-21T11:32:07.000Z</time>
      </trkpt>
      <trkpt lat="40.796962" lon="-3.936498">
        <ele>2324.7</ele>
        <time>2018-04-21T11:32:08.000Z</time>
      </trkpt>
      <trkpt lat="40.796961" lon="-3.936503">
        <ele>2324.8</ele>
        <time>2018-04-21T11:32:09.000Z</time>
      </trkpt>
      <trkpt lat="40.79696" lon="-3.936509">
        <ele>2324.9</ele>
        <time>2018-04-21T11:32:10.000Z</time>
      </trkpt>
      <trkpt lat="40.796958" lon="-3.936514">
        <ele>2325.0</ele>
        <time>2018-04-21T11:32:11.000Z</time>
      </trkpt>
      <trkpt lat="40.796956" lon="-3.936519">
        <ele>2325.1</ele>
        <time>2018-04-21T11:32:12.000Z</time>
      </trkpt>
      <trkpt lat="40.796954" lon="-3.936525">
        <ele>2325.2</ele>
        <time>2018-04-21T11:32:13.000Z</time>
      </trkpt>
      <trkpt lat="40.796952" lon="-3.93653">
        <ele>2325.3</ele>
        <time>2018-04-21T11:32:14.000Z</time>
      </trkpt>
      <trkpt lat="40.796949" lon="-3.936536">
        <ele>2325.4</ele>
        <time>2018-04-21T11:32:15.000Z</time>
      </trkpt>
      <trkpt lat="40.796946" lon="-3.936542">
        <ele>2325.5</ele>
        <time>2018-04-21T11:32:16.000Z</time>
      </trkpt>
      <trkpt lat="40.796943" lon="-3.936548">
        <ele>2325.7</ele>
        <time>2018-04-21T11:32:17.000Z</time>
      </trkpt>
      <trkpt lat="40.79694" lon="-3.936554">
        <ele>2325.8</ele>
        <time>2018-04-21T11:32:18.000Z</time>
      </trkpt>
      <trkpt lat="40.796936" lon="-3.93656">
        <ele>2325.9</ele>
        <time>2018-04-21T11:32:19.000Z</time>
      </trkpt>
      <trkpt lat="40.796933" lon="-3.936566">
        <ele>2326.1</ele>
        <time>2018-04-21T11:32:20.000Z</time>
      </trkpt>
      <trkpt lat="40.79693" lon="-3.936572">
        <ele>2326.2</ele>
        <time>2018-04-21T11:32:21.000Z</time>
      </trkpt>
      <trkpt lat="40.796926" lon="-3.936578">
        <ele>2326.4</ele>
        <time>2018-04-21T11:32:22.000Z</time>
      </trkpt>
      <trkpt lat="40.796923" lon="-3.936585">
        <ele>2326.5</ele>
        <time>2018-04-21T11:32:23.000Z</time>
      </trkpt>
      <trkpt lat="40.796921" lon="-3.936591">
        <ele>2326.6</ele>
        <time>2018-04-21T11:32:24.000Z</time>
      </trkpt>
      <trkpt lat="40.796918" lon="-3.936597">
        <ele>2326.8</ele>
        <time>2018-04-21T11:32:25.000Z</time>
      </trkpt>
      <trkpt lat="40.796916" lon="-3.936602">
        <ele>2326.9</ele>
        <time>2018-04-21T11:32:26.000Z</time>
      </trkpt>
      <trkpt lat="40.796913" lon="-3.936607">
        <ele>2327.0</ele>
        <time>2018-04-21T11:32:27.000Z</time>
      </trkpt>
      <trkpt lat="40.796911" lon="-3.936611">
        <ele>2327.1</ele>
        <time>2018-04-21T11:32:28.000Z</time>
      </trkpt>
      <trkpt lat="40.79691" lon="-3.936615">
        <ele>2327.2</ele>
        <time>2018-04-21T11:32:29.000Z</time>
      </trkpt>
      <trkpt lat="40.796908" lon="-3.936619">
        <ele>2327.3</ele>
        <time>2018-04-21T11:32:30.000Z</time>
      </trkpt>
      <trkpt lat="40.796906" lon="-3.936623">
        <ele>2327.4</ele>
        <time>2018-04-21T11:32:31.000Z</time>
      </trkpt>
      <trkpt lat="40.796904" lon="-3.936627">
        <ele>2327.5</ele>
        <time>2018-04-21T11:32:32.000Z</time>
      </trkpt>
      <trkpt lat="40.796901" lon="-3.936632">
        <ele>2327.6</ele>
        <time>2018-04-21T11:32:33.000Z</time>
      </trkpt>
      <trkpt lat="40.796899" lon="-3.936637">
        <ele>2327.8</ele>
        <time>2018-04-21T11:32:34.000Z</time>
      </trkpt>
      <trkpt lat="40.796896" lon="-3.936642">
        <ele>2327.9</ele>
        <time>2018-04-21T11:32:35.000Z</time>
      </trkpt>
      <trkpt lat="40.796893" lon="-3.936648">
        <ele>2328.0</ele>
        <time>2018-04-21T11:32:36.000Z</time>
      </trkpt>
      <trkpt lat="40.79689" lon="-3.936653">
        <ele>2328.2</ele>
        <time>2018-04-21T11:32:37.000Z</time>
      </trkpt>
      <trkpt lat="40.796887" lon="-3.936659">
        <ele>2328.3</ele>
        <time>2018-04-21T11:32:38.000Z</time>
      </trkpt>
      <trkpt lat="40.796884" lon="-3.936665">
        <ele>2328.5</ele>
        <time>2018-04-21T11:32:39.000Z</time>
      </trkpt>
      <trkpt lat="40.796881" lon="-3.936671">
        <ele>2328.6</ele>
        <time>2018-04-21T11:32:40.000Z</time>
      </trkpt>
      <trkpt lat="40.796877" lon="-3.936676">
        <ele>2328.8</ele>
        <time>2018-04-21T11:32:41.000Z</time>
      </trkpt>
      <trkpt lat="40.796874" lon="-3.936682">
        <ele>2328.9</ele>
        <time>2018-04-21T11:32:42.000Z</time>
      </trkpt>
      <trkpt lat="40.796871" lon="-3.936687">
        <ele>2329.0</ele>
        <time>2018-04-21T11:32:43.000Z</time>
      </trkpt>
      <trkpt lat="40.796868" lon="-3.936692">
        <ele>2329.2</ele>
        <time>2018-04-21T11:32:44.000Z</time>
      </trkpt>
      <trkpt lat="40.796865" lon="-3.936698">
        <ele>2329.3</ele>
        <time>2018-04-21T11:32:45.000Z</time>
      </trkpt>
      <trkpt lat="40.796861" lon="-3.936703">
        <ele>2329.5</ele>
        <time>2018-04-21T11:32:46.000Z</time>
      </trkpt>
      <trkpt lat="40.796858" lon="-3.936708">
        <ele>2329.6</ele>
        <time>2018-04-21T11:32:47.000Z</time>
      </trkpt>
      <trkpt lat="40.796855" lon="-3.936713">
        <ele>2329.7</ele>
        <time>2018-04-21T11:32:48.000Z</time>
      </trkpt>
      <trkpt lat="40.796852" lon="-3.936718">
        <ele>2329.8</ele>
        <time>2018-04-21T11:32:49.000Z</time>
      </trkpt>
      <trkpt lat="40.796848" lon="-3.936723">
        <ele>2330.0</ele>
        <time>2018-04-21T11:32:50.000Z</time>
      </trkpt>
      <trkpt lat="40.796845" lon="-3.936728">
        <ele>2330.1</ele>
        <time>2018-04-21T11:32:51.000Z</time>
      </trkpt>
      <trkpt lat="40.796841" lon="-3.936733">
        <ele>2330.3</ele>
        <time>2018-04-21T11:32:52.000Z</time>
      </trkpt>
      <trkpt lat="40.796838" lon="-3.936738">
        <ele>2330.4</ele>
        <time>2018-04-21T11:32:53.000Z</time>
      </trkpt>
      <trkpt lat="40.796834" lon="-3.936743">
        <ele>2330.6</ele>
        <time>2018-04-21T11:32:54.000Z</time>
      </trkpt>
      <trkpt lat="40.796831" lon="-3.936749">
        <ele>2330.7</ele>
        <time>2018-04-21T11:32:55.000Z</time>
      </trkpt>
      <trkpt lat="40.796827" lon="-3.936754">
        <ele>2330.9</ele>
        <time>2018-04-21T11:32:56.000Z</time>
      </trkpt>
      <trkpt lat="40.796823" lon="-3.936759">
        <ele>2331.1</ele>
        <time>2018-04-21T11:32:57.000Z</time>
      </trkpt>
      <trkpt lat="40.796819" lon="-3.936765">
        <ele>2331.2</ele>
        <time>2018-04-21T11:32:58.000Z</time>
      </trkpt>
      <trkpt lat="40.796815" lon="-3.93677">
        <ele>2331.4</ele>
        <time>2018-04-21T11:32:59.000Z</time>
      </trkpt>
      <trkpt lat="40.796811" lon="-3.936776">
        <ele>2331.6</ele>
        <time>2018-04-21T11:33:00.000Z</time>
      </trkpt>
      <trkpt lat="40.796807" lon="-3.936781">
        <ele>2331.7</ele>
        <time>2018-04-21T11:33:01.000Z</time>
      </trkpt>
      <trkpt lat="40.796803" lon="-3.936787">
        <ele>2331.9</ele>
        <time>2018-04-21T11:33:02.000Z</time>
      </trkpt>
      <trkpt lat="40.796798" lon="-3.936792">
        <ele>2332.1</ele>
        <time>2018-04-21T11:33:03.000Z</time>
      </trkpt>
      <trkpt lat="40.796794" lon="-3.936798">
        <ele>2332.3</ele>
        <time>2018-04-21T11:33:04.000Z</time>
      </trkpt>
      <trkpt lat="40.79679" lon="-3.936804">
        <ele>2332.5</ele>
        <time>2018-04-21T11:33:05.000Z</time>
      </trkpt>
      <trkpt lat="40.796786" lon="-3.936809">
        <ele>2332.7</ele>
        <time>2018-04-21T11:33:06.000Z</time>
      </trkpt>
      <trkpt lat="40.796782" lon="-3.936815">
        <ele>2332.8</ele>
        <time>2018-04-21T11:33:07.000Z</time>
      </trkpt>
      <trkpt lat="40.796778" lon="-3.93682">
        <ele>2333.0</ele>
        <time>2018-04-21T11:33:08.000Z</time>
      </trkpt>
      <trkpt lat="40.796774" lon="-3.936825">
        <ele>2333.2</ele>
        <time>2018-04-21T11:33:09.000Z</time>
      </trkpt>
      <trkpt lat="40.79677" lon="-3.93683">
        <ele>2333.4</ele>
        <time>2018-04-21T11:33:10.000Z</time>
      </trkpt>
      <trkpt lat="40.796767" lon="-3.936835">
        <ele>2333.5</ele>
        <time>2018-04-21T11:33:11.000Z</time>
      </trkpt>
      <trkpt lat="40.796763" lon="-3.93684">
        <ele>2333.7</ele>
        <time>2018-04-21T11:33:12.000Z</time>
      </trkpt>
      <trkpt lat="40.79676" lon="-3.936845">
        <ele>2333.8</ele>
        <time>2018-04-21T11:33:13.000Z</time>
      </trkpt>
      <trkpt lat="40.796757" lon="-3.936849">
        <ele>2334.0</ele>
        <time>2018-04-21T11:33:14.000Z</time>
      </trkpt>
      <trkpt lat="40.796754" lon="-3.936853">
        <ele>2334.1</ele>
        <time>2018-04-21T11:33:15.000Z</time>
      </trkpt>
      <trkpt lat="40.796751" lon="-3.936857">
        <ele>2334.2</ele>
        <time>2018-04-21T11:33:16.000Z</time>
      </trkpt>
      <trkpt lat="40.796749" lon="-3.936861">
        <ele>2334.4</ele>
        <time>2018-04-21T11:33:17.000Z</time>
      </trkpt>
      <trkpt lat="40.796747" lon="-3.936864">
        <ele>2334.5</ele>
        <time>2018-04-21T11:33:18.000Z</time>
      </trkpt>
      <trkpt lat="40.796745" lon="-3.936868">
        <ele>2334.6</ele>
        <time>2018-04-21T11:33:19.000Z</time>
      </trkpt>
      <trkpt lat="40.796744" lon="-3.93687">
        <ele>2334.6</ele>
        <time>2018-04-21T11:33:20.000Z</time>
      </trkpt>
      <trkpt lat="40.796743" lon="-3.936873">
        <ele>2334.7</ele>
        <time>2018-04-21T11:33:21.000Z</time>
      </trkpt>
      <trkpt lat="40.796742" lon="-3.936875">
        <ele>2334.7</ele>
        <time>2018-04-21T11:33:22.000Z</time>
      </trkpt>
      <trkpt lat="40.796741" lon="-3.936876">
        <ele>2334.8</ele>
        <time>2018-04-21T11:33:23.000Z</time>
      </trkpt>
      <trkpt lat="40.79674" lon="-3.936877">
        <ele>2334.8</ele>
        <time>2018-04-21T11:33:24.000Z</time>
      </trkpt>
      <trkpt lat="40.79674" lon="-3.936878">
        <ele>2334.8</ele>
        <time>2018-04-21T11:33:25.000Z</time>
      </trkpt>
      <trkpt lat="40.79674" lon="-3.936878">
        <ele>2334.8</ele>
        <time>2018-04-21T11:33:26.000Z</time>
      </trkpt>
      <trkpt lat="40.79674" lon="-3.936878">
        <ele>2334.8</ele>
        <time>2018-04-21T11:33:27.000Z</time>
      </trkpt>
      <trkpt lat="40.79674" lon="-3.936878">
        <ele>2334.8</ele>
        <time>2018-04-21T11:33:28.000Z</time>
      </trkpt>
      <trkpt lat="40.79674" lon="-3.936879">
        <ele>2334.9</ele>
        <time>2018-04-21T11:33:29.000Z</time>
      </trkpt>
      <trkpt lat="40.796739" lon="-3.93688">
        <ele>2334.9</ele>
        <time>2018-04-21T11:33:30.000Z</time>
      </trkpt>
      <trkpt lat="40.796738" lon="-3.936882">
        <ele>2334.9</ele>
        <time>2018-04-21T11:33:31.000Z</time>
      </trkpt>
      <trkpt lat="40.796736" lon="-3.936886">
        <ele>2335.1</ele>
        <time>2018-04-21T11:33:32.000Z</time>
      </trkpt>
      <trkpt lat="40.796734" lon="-3.93689">
        <ele>2335.2</ele>
        <time>2018-04-21T11:33:33.000Z</time>
      </trkpt>
      <trkpt lat="40.796731" lon="-3.936895">
        <ele>2335.3</ele>
        <time>2018-04-21T11:33:34.000Z</time>
      </trkpt>
      <trkpt lat="40.796728" lon="-3.936902">
        <ele>2335.5</ele>
        <time>2018-04-21T11:33:35.000Z</time>
      </trkpt>
      <trkpt lat="40.796724" lon="-3.936909">
        <ele>2335.7</ele>
        <time>2018-04-21T11:33:36.000Z</time>
      </trkpt>
      <trkpt lat="40.796719" lon="-3.936917">
        <ele>2336.0</ele>
        <time>2018-04-21T11:33:37.000Z</time>
      </trkpt>
      <trkpt lat="40.796715" lon="-3.936925">
        <ele>2336.2</ele>
        <time>2018-04-21T11:33:38.000Z</time>
      </trkpt>
      <trkpt lat="40.79671" lon="-3.936932">
        <ele>2336.5</ele>
        <time>2018-04-21T11:33:39.000Z</time>
      </trkpt>
      <trkpt lat="40.796706" lon="-3.93694">
        <ele>2336.7</ele>
        <time>2018-04-21T11:33:40.000Z</time>
      </trkpt>
      <trkpt lat="40.796702" lon="-3.936948">
        <ele>2336.9</ele>
        <time>2018-04-21T11:33:41.000Z</time>
      </trkpt>
      <trkpt lat="40.796698" lon="-3.936954">
        <ele>2337.1</ele>
        <time>2018-04-21T11:33:42.000Z</time>
      </trkpt>
      <trkpt lat="40.796694" lon="-3.93696">
        <ele>2337.4</ele>
        <time>2018-04-21T11:33:43.000Z</time>
      </trkpt>
      <trkpt lat="40.796692" lon="-3.936965">
        <ele>2337.5</ele>
        <time>2018-04-21T11:33:44.000Z</time>
      </trkpt>
      <trkpt lat="40.79669" lon="-3.936968">
        <ele>2337.6</ele>
        <time>2018-04-21T11:33:45.000Z</time>
      </trkpt>
      <trkpt lat="40.796688" lon="-3.936971">
        <ele>2337.7</ele>
        <time>2018-04-21T11:33:46.000Z</time>
      </trkpt>
      <trkpt lat="40.796687" lon="-3.936973">
        <ele>2337.8</ele>
        <time>2018-04-21T11:33:47.000Z</time>
      </trkpt>
      <trkpt lat="40.796686" lon="-3.936974">
        <ele>2337.8</ele>
        <time>2018-04-21T11:33:48.000Z</time>
      </trkpt>
      <trkpt lat="40.796686" lon="-3.936975">
        <ele>2337.8</ele>
        <time>2018-04-21T11:33:49.000Z</time>
      </trkpt>
      <trkpt lat="40.796685" lon="-3.936975">
        <ele>2337.8</ele>
        <time>2018-04-21T11:33:50.000Z</time>
      </trkpt>
      <trkpt lat="40.796685" lon="-3.936976">
        <ele>2337.9</ele>
        <time>2018-04-21T11:33:51.000Z</time>
      </trkpt>
      <trkpt lat="40.796685" lon="-3.936976">
        <ele>2337.9</ele>
        <time>2018-04-21T11:33:52.000Z</time>
      </trkpt>
      <trkpt lat="40.796685" lon="-3.936976">
        <ele>2337.9</ele>
        <time>2018-04-21T11:33:53.000Z</time>
      </trkpt>
      <trkpt lat="40.796685" lon="-3.936976">
        <ele>2337.9</ele>
        <time>2018-04-21T11:33:54.000Z</time>
      </trkpt>
      <trkpt lat="40.796685" lon="-3.936976">
        <ele>2337.9</ele>
        <time>2018-04-21T11:33:55.000Z</time>
      </trkpt>
      <trkpt lat="40.796685" lon="-3.936976">
        <ele>2337.9</ele>
        <time>2018-04-21T11:33:56.000Z</time>
      </trkpt>
      <trkpt lat="40.796685" lon="-3.936976">
        <ele>2337.9</ele>
        <time>2018-04-21T11:33:57.000Z</time>
      </trkpt>
      <trkpt lat="40.796685" lon="-3.936976">
        <ele>2337.9</ele>
        <time>2018-04-21T11:33:58.000Z</time>
      </trkpt>
      <trkpt lat="40.796685" lon="-3.936976">
        <ele>2337.9</ele>
        <time>2018-04-21T11:33:59.000Z</time>
      </trkpt>
      <trkpt lat="40.796685" lon="-3.936976">
        <ele>2337.9</ele>
        <time>2018-04-21T11:34:00.000Z</time>
      </trkpt>
      <trkpt lat="40.796685" lon="-3.936976">
        <ele>2337.9</ele>
        <time>2018-04-21T11:34:01.000Z</time>
      </trkpt>
      <trkpt lat="40.796685" lon="-3.936976">
        <ele>2337.9</ele>
        <time>2018-04-21T11:34:02.000Z</time>
      </trkpt>
      <trkpt lat="40.796685" lon="-3.936976">
        <ele>2337.9</ele>
        <time>2018-04-21T11:34:03.000Z</time>
      </trkpt>
      <trkpt lat="40.796685" lon="-3.936976">
        <ele>2337.9</ele>
        <time>2018-04-21T11:34:04.000Z</time>
      </trkpt>
      <trkpt lat="40.796685" lon="-3.936976">
        <ele>2337.9</ele>
        <time>2018-04-21T11:34:05.000Z</time>
      </trkpt>
      <trkpt lat="40.796685" lon="-3.936976">
        <ele>2337.9</ele>
        <time>2018-04-21T11:34:06.000Z</time>
      </trkpt>
      <trkpt lat="40.796685" lon="-3.936976">
        <ele>2337.9</ele>
        <time>2018-04-21T11:34:07.000Z</time>
      </trkpt>
      <trkpt lat="40.796685" lon="-3.936976">
        <ele>2337.9</ele>
        <time>2018-04-21T11:34:08.000Z</time>
      </trkpt>
      <trkpt lat="40.796685" lon="-3.936976">
        <ele>2337.9</ele>
        <time>2018-04-21T11:34:09.000Z</time>
      </trkpt>
      <trkpt lat="40.796685" lon="-3.936976">
        <ele>2337.9</ele>
        <time>2018-04-21T11:34:10.000Z</time>
      </trkpt>
      <trkpt lat="40.796685" lon="-3.936976">
        <ele>2337.9</ele>
        <time>2018-04-21T11:34:11.000Z</time>
      </trkpt>
      <trkpt lat="40.796685" lon="-3.936976">
        <ele>2337.9</ele>
        <time>2018-04-21T11:34:12.000Z</time>
      </trkpt>
      <trkpt lat="40.796685" lon="-3.936976">
        <ele>2337.9</ele>
        <time>2018-04-21T11:34:13.000Z</time>
      </trkpt>
      <trkpt lat="40.796685" lon="-3.936976">
        <ele>2337.9</ele>
        <time>2018-04-21T11:34:14.000Z</time>
      </trkpt>
      <trkpt lat="40.796685" lon="-3.936976">
        <ele>2337.9</ele>
        <time>2018-04-21T11:34:15.000Z</time>
      </trkpt>
      <trkpt lat="40.796685" lon="-3.936976">
        <ele>2337.9</ele>
        <time>2018-04-21T11:34:16.000Z</time>
      </trkpt>
      <trkpt lat="40.796685" lon="-3.936976">
        <ele>2337.9</ele>
        <time>2018-04-21T11:34:17.000Z</time>
      </trkpt>
      <trkpt lat="40.796685" lon="-3.936976">
        <ele>2337.9</ele>
        <time>2018-04-21T11:34:18.000Z</time>
      </trkpt>
      <trkpt lat="40.796685" lon="-3.936976">
        <ele>2337.9</ele>
        <time>2018-04-21T11:34:19.000Z</time>
      </trkpt>
      <trkpt lat="40.796685" lon="-3.936976">
        <ele>2337.9</ele>
        <time>2018-04-21T11:34:20.000Z</time>
      </trkpt>
      <trkpt lat="40.796685" lon="-3.936976">
        <ele>2337.9</ele>
        <time>2018-04-21T11:34:21.000Z</time>
      </trkpt>
      <trkpt lat="40.796685" lon="-3.936976">
        <ele>2337.9</ele>
        <time>2018-04-21T11:34:22.000Z</time>
      </trkpt>
      <trkpt lat="40.796685" lon="-3.936976">
        <ele>2337.9</ele>
        <time>2018-04-21T11:34:23.000Z</time>
      </trkpt>
      <trkpt lat="40.796685" lon="-3.936976">
        <ele>2337.9</ele>
        <time>2018-04-21T11:34:24.000Z</time>
      </trkpt>
      <trkpt lat="40.796685" lon="-3.936976">
        <ele>2337.9</ele>
        <time>2018-04-21T11:34:25.000Z</time>
      </trkpt>
      <trkpt lat="40.796685" lon="-3.936976">
        <ele>2337.9</ele>
        <time>2018-04-21T11:34:26.000Z</time>
      </trkpt>
      <trkpt lat="40.796685" lon="-3.936976">
        <ele>2337.9</ele>
        <time>2018-04-21T11:34:27.000Z</time>
      </trkpt>
      <trkpt lat="40.796685" lon="-3.936976">
        <ele>2337.9</ele>
        <time>2018-04-21T11:34:28.000Z</time>
      </trkpt>
      <trkpt lat="40.796686" lon="-3.936975">
        <ele>2337.8</ele>
        <time>2018-04-21T11:34:29.000Z</time>
      </trkpt>
      <trkpt lat="40.796686" lon="-3.936975">
        <ele>2337.8</ele>
        <time>2018-04-21T11:34:30.000Z</time>
      </trkpt>
      <trkpt lat="40.796686" lon="-3.936975">
        <ele>2337.8</ele>
        <time>2018-04-21T11:34:31.000Z</time>
      </trkpt>
      <trkpt lat="40.796686" lon="-3.936975">
        <ele>2337.8</ele>
        <time>2018-04-21T11:34:32.000Z</time>
      </trkpt>
      <trkpt lat="40.796686" lon="-3.936975">
        <ele>2337.8</ele>
        <time>2018-04-21T11:34:33.000Z</time>
      </trkpt>
      <trkpt lat="40.796686" lon="-3.936975">
        <ele>2337.8</ele>
        <time>2018-04-21T11:34:34.000Z</time>
      </trkpt>
      <trkpt lat="40.796686" lon="-3.936975">
        <ele>2337.8</ele>
        <time>2018-04-21T11:34:35.000Z</time>
      </trkpt>
      <trkpt lat="40.796685" lon="-3.936975">
        <ele>2337.8</ele>
        <time>2018-04-21T11:34:36.000Z</time>
      </trkpt>
      <trkpt lat="40.796685" lon="-3.936976">
        <ele>2337.9</ele>
        <time>2018-04-21T11:34:37.000Z</time>
      </trkpt>
      <trkpt lat="40.796685" lon="-3.936976">
        <ele>2337.9</ele>
        <time>2018-04-21T11:34:38.000Z</time>
      </trkpt>
      <trkpt lat="40.796685" lon="-3.936977">
        <ele>2337.9</ele>
        <time>2018-04-21T11:34:39.000Z</time>
      </trkpt>
      <trkpt lat="40.796684" lon="-3.936977">
        <ele>2337.9</ele>
        <time>2018-04-21T11:34:40.000Z</time>
      </trkpt>
      <trkpt lat="40.796684" lon="-3.936978">
        <ele>2337.9</ele>
        <time>2018-04-21T11:34:41.000Z</time>
      </trkpt>
      <trkpt lat="40.796683" lon="-3.936979">
        <ele>2338.0</ele>
        <time>2018-04-21T11:34:42.000Z</time>
      </trkpt>
      <trkpt lat="40.796682" lon="-3.93698">
        <ele>2338.0</ele>
        <time>2018-04-21T11:34:43.000Z</time>
      </trkpt>
      <trkpt lat="40.796681" lon="-3.936982">
        <ele>2338.1</ele>
        <time>2018-04-21T11:34:44.000Z</time>
      </trkpt>
      <trkpt lat="40.79668" lon="-3.936984">
        <ele>2338.1</ele>
        <time>2018-04-21T11:34:45.000Z</time>
      </trkpt>
      <trkpt lat="40.796679" lon="-3.936986">
        <ele>2338.2</ele>
        <time>2018-04-21T11:34:46.000Z</time>
      </trkpt>
      <trkpt lat="40.796677" lon="-3.936988">
        <ele>2338.3</ele>
        <time>2018-04-21T11:34:47.000Z</time>
      </trkpt>
      <trkpt lat="40.796676" lon="-3.93699">
        <ele>2338.4</ele>
        <time>2018-04-21T11:34:48.000Z</time>
      </trkpt>
      <trkpt lat="40.796674" lon="-3.936993">
        <ele>2338.5</ele>
        <time>2018-04-21T11:34:49.000Z</time>
      </trkpt>
      <trkpt lat="40.796672" lon="-3.936996">
        <ele>2338.6</ele>
        <time>2018-04-21T11:34:50.000Z</time>
      </trkpt>
      <trkpt lat="40.796669" lon="-3.937">
        <ele>2338.7</ele>
        <time>2018-04-21T11:34:51.000Z</time>
      </trkpt>
      <trkpt lat="40.796667" lon="-3.937003">
        <ele>2338.8</ele>
        <time>2018-04-21T11:34:52.000Z</time>
      </trkpt>
      <trkpt lat="40.796664" lon="-3.937008">
        <ele>2338.9</ele>
        <time>2018-04-21T11:34:53.000Z</time>
      </trkpt>
      <trkpt lat="40.796661" lon="-3.937012">
        <ele>2338.9</ele>
        <time>2018-04-21T11:34:54.000Z</time>
      </trkpt>
      <trkpt lat="40.796658" lon="-3.937017">
        <ele>2339.0</ele>
        <time>2018-04-21T11:34:55.000Z</time>
      </trkpt>
      <trkpt lat="40.796654" lon="-3.937023">
        <ele>2339.0</ele>
        <time>2018-04-21T11:34:56.000Z</time>
      </trkpt>
      <trkpt lat="40.79665" lon="-3.937029">
        <ele>2339.0</ele>
        <time>2018-04-21T11:34:57.000Z</time>
      </trkpt>
      <trkpt lat="40.796646" lon="-3.937035">
        <ele>2339.1</ele>
        <time>2018-04-21T11:34:58.000Z</time>
      </trkpt>
      <trkpt lat="40.796642" lon="-3.937042">
        <ele>2339.2</ele>
        <time>2018-04-21T11:34:59.000Z</time>
      </trkpt>
      <trkpt lat="40.796638" lon="-3.937047">
        <ele>2339.2</ele>
        <time>2018-04-21T11:35:00.000Z</time>
      </trkpt>
      <trkpt lat="40.796634" lon="-3.937052">
        <ele>2339.2</ele>
        <time>2018-04-21T11:35:01.000Z</time>
      </trkpt>
      <trkpt lat="40.796631" lon="-3.937057">
        <ele>2339.3</ele>
        <time>2018-04-21T11:35:02.000Z</time>
      </trkpt>
      <trkpt lat="40.796627" lon="-3.93706">
        <ele>2339.3</ele>
        <time>2018-04-21T11:35:03.000Z</time>
      </trkpt>
      <trkpt lat="40.796624" lon="-3.937063">
        <ele>2339.3</ele>
        <time>2018-04-21T11:35:04.000Z</time>
      </trkpt>
      <trkpt lat="40.796619" lon="-3.937067">
        <ele>2339.3</ele>
        <time>2018-04-21T11:35:05.000Z</time>
      </trkpt>
      <trkpt lat="40.796613" lon="-3.937071">
        <ele>2339.3</ele>
        <time>2018-04-21T11:35:06.000Z</time>
      </trkpt>
      <trkpt lat="40.796606" lon="-3.937075">
        <ele>2339.3</ele>
        <time>2018-04-21T11:35:07.000Z</time>
      </trkpt>
      <trkpt lat="40.7966" lon="-3.937079">
        <ele>2339.3</ele>
        <time>2018-04-21T11:35:08.000Z</time>
      </trkpt>
      <trkpt lat="40.796594" lon="-3.937085">
        <ele>2339.4</ele>
        <time>2018-04-21T11:35:09.000Z</time>
      </trkpt>
      <trkpt lat="40.79659" lon="-3.937091">
        <ele>2339.4</ele>
        <time>2018-04-21T11:35:10.000Z</time>
      </trkpt>
      <trkpt lat="40.796587" lon="-3.937097">
        <ele>2339.5</ele>
        <time>2018-04-21T11:35:11.000Z</time>
      </trkpt>
      <trkpt lat="40.796587" lon="-3.937105">
        <ele>2339.6</ele>
        <time>2018-04-21T11:35:12.000Z</time>
      </trkpt>
      <trkpt lat="40.796587" lon="-3.937112">
        <ele>2339.7</ele>
        <time>2018-04-21T11:35:13.000Z</time>
      </trkpt>
      <trkpt lat="40.796588" lon="-3.937119">
        <ele>2339.9</ele>
        <time>2018-04-21T11:35:14.000Z</time>
      </trkpt>
      <trkpt lat="40.796588" lon="-3.937126">
        <ele>2340.0</ele>
        <time>2018-04-21T11:35:15.000Z</time>
      </trkpt>
      <trkpt lat="40.796588" lon="-3.937133">
        <ele>2340.1</ele>
        <time>2018-04-21T11:35:16.000Z</time>
      </trkpt>
      <trkpt lat="40.796586" lon="-3.937141">
        <ele>2340.2</ele>
        <time>2018-04-21T11:35:17.000Z</time>
      </trkpt>
      <trkpt lat="40.796584" lon="-3.937149">
        <ele>2340.3</ele>
        <time>2018-04-21T11:35:18.000Z</time>
      </trkpt>
      <trkpt lat="40.79658" lon="-3.937158">
        <ele>2340.4</ele>
        <time>2018-04-21T11:35:19.000Z</time>
      </trkpt>
      <trkpt lat="40.796574" lon="-3.937169">
        <ele>2340.6</ele>
        <time>2018-04-21T11:35:20.000Z</time>
      </trkpt>
      <trkpt lat="40.796568" lon="-3.93718">
        <ele>2340.7</ele>
        <time>2018-04-21T11:35:21.000Z</time>
      </trkpt>
      <trkpt lat="40.796561" lon="-3.93719">
        <ele>2340.8</ele>
        <time>2018-04-21T11:35:22.000Z</time>
      </trkpt>
      <trkpt lat="40.796556" lon="-3.937198">
        <ele>2340.9</ele>
        <time>2018-04-21T11:35:23.000Z</time>
      </trkpt>
      <trkpt lat="40.796552" lon="-3.937204">
        <ele>2341.0</ele>
        <time>2018-04-21T11:35:24.000Z</time>
      </trkpt>
      <trkpt lat="40.79655" lon="-3.937207">
        <ele>2341.0</ele>
        <time>2018-04-21T11:35:25.000Z</time>
      </trkpt>
      <trkpt lat="40.796549" lon="-3.937208">
        <ele>2341.1</ele>
        <time>2018-04-21T11:35:26.000Z</time>
      </trkpt>
      <trkpt lat="40.796549" lon="-3.937208">
        <ele>2341.1</ele>
        <time>2018-04-21T11:35:27.000Z</time>
      </trkpt>
      <trkpt lat="40.796549" lon="-3.937208">
        <ele>2341.1</ele>
        <time>2018-04-21T11:35:28.000Z</time>
      </trkpt>
      <trkpt lat="40.796549" lon="-3.937208">
        <ele>2341.1</ele>
        <time>2018-04-21T11:35:29.000Z</time>
      </trkpt>
      <trkpt lat="40.796549" lon="-3.937208">
        <ele>2341.1</ele>
        <time>2018-04-21T11:35:30.000Z</time>
      </trkpt>
      <trkpt lat="40.796549" lon="-3.937208">
        <ele>2341.1</ele>
        <time>2018-04-21T11:35:31.000Z</time>
      </trkpt>
      <trkpt lat="40.796549" lon="-3.937208">
        <ele>2341.1</ele>
        <time>2018-04-21T11:35:32.000Z</time>
      </trkpt>
      <trkpt lat="40.796548" lon="-3.937208">
        <ele>2341.0</ele>
        <time>2018-04-21T11:35:33.000Z</time>
      </trkpt>
      <trkpt lat="40.796548" lon="-3.937208">
        <ele>2341.0</ele>
        <time>2018-04-21T11:35:34.000Z</time>
      </trkpt>
      <trkpt lat="40.796548" lon="-3.937208">
        <ele>2341.0</ele>
        <time>2018-04-21T11:35:35.000Z</time>
      </trkpt>
      <trkpt lat="40.796548" lon="-3.937208">
        <ele>2341.0</ele>
        <time>2018-04-21T11:35:36.000Z</time>
      </trkpt>
      <trkpt lat="40.796548" lon="-3.937208">
        <ele>2341.0</ele>
        <time>2018-04-21T11:35:37.000Z</time>
      </trkpt>
      <trkpt lat="40.796548" lon="-3.937208">
        <ele>2341.0</ele>
        <time>2018-04-21T11:35:38.000Z</time>
      </trkpt>
      <trkpt lat="40.796548" lon="-3.937208">
        <ele>2341.0</ele>
        <time>2018-04-21T11:35:39.000Z</time>
      </trkpt>
      <trkpt lat="40.796548" lon="-3.937208">
        <ele>2341.0</ele>
        <time>2018-04-21T11:35:40.000Z</time>
      </trkpt>
      <trkpt lat="40.796548" lon="-3.937208">
        <ele>2341.0</ele>
        <time>2018-04-21T11:35:41.000Z</time>
      </trkpt>
      <trkpt lat="40.796548" lon="-3.937208">
        <ele>2341.0</ele>
        <time>2018-04-21T11:35:42.000Z</time>
      </trkpt>
      <trkpt lat="40.796548" lon="-3.937208">
        <ele>2341.0</ele>
        <time>2018-04-21T11:35:43.000Z</time>
      </trkpt>
      <trkpt lat="40.796548" lon="-3.937208">
        <ele>2341.0</ele>
        <time>2018-04-21T11:35:44.000Z</time>
      </trkpt>
      <trkpt lat="40.796548" lon="-3.937208">
        <ele>2341.0</ele>
        <time>2018-04-21T11:35:45.000Z</time>
      </trkpt>
      <trkpt lat="40.796548" lon="-3.937209">
        <ele>2341.1</ele>
        <time>2018-04-21T11:35:46.000Z</time>
      </trkpt>
      <trkpt lat="40.796547" lon="-3.937209">
        <ele>2341.1</ele>
        <time>2018-04-21T11:35:47.000Z</time>
      </trkpt>
      <trkpt lat="40.796546" lon="-3.937209">
        <ele>2341.1</ele>
        <time>2018-04-21T11:35:48.000Z</time>
      </trkpt>
      <trkpt lat="40.796545" lon="-3.93721">
        <ele>2341.1</ele>
        <time>2018-04-21T11:35:49.000Z</time>
      </trkpt>
      <trkpt lat="40.796543" lon="-3.937211">
        <ele>2341.1</ele>
        <time>2018-04-21T11:35:50.000Z</time>
      </trkpt>
      <trkpt lat="40.796541" lon="-3.937213">
        <ele>2341.1</ele>
        <time>2018-04-21T11:35:51.000Z</time>
      </trkpt>
      <trkpt lat="40.796539" lon="-3.937214">
        <ele>2341.1</ele>
        <time>2018-04-21T11:35:52.000Z</time>
      </trkpt>
      <trkpt lat="40.796536" lon="-3.937216">
        <ele>2341.1</ele>
        <time>2018-04-21T11:35:53.000Z</time>
      </trkpt>
      <trkpt lat="40.796534" lon="-3.937217">
        <ele>2341.1</ele>
        <time>2018-04-21T11:35:54.000Z</time>
      </trkpt>
      <trkpt lat="40.796531" lon="-3.937217">
        <ele>2341.1</ele>
        <time>2018-04-21T11:35:55.000Z</time>
      </trkpt>
      <trkpt lat="40.796529" lon="-3.937217">
        <ele>2341.1</ele>
        <time>2018-04-21T11:35:56.000Z</time>
      </trkpt>
      <trkpt lat="40.796526" lon="-3.937217">
        <ele>2341.1</ele>
        <time>2018-04-21T11:35:57.000Z</time>
      </trkpt>
      <trkpt lat="40.796524" lon="-3.937216">
        <ele>2341.0</ele>
        <time>2018-04-21T11:35:58.000Z</time>
      </trkpt>
      <trkpt lat="40.796521" lon="-3.937216">
        <ele>2341.0</ele>
        <time>2018-04-21T11:35:59.000Z</time>
      </trkpt>
      <trkpt lat="40.796517" lon="-3.937217">
        <ele>2341.0</ele>
        <time>2018-04-21T11:36:00.000Z</time>
      </trkpt>
      <trkpt lat="40.796512" lon="-3.937218">
        <ele>2341.0</ele>
        <time>2018-04-21T11:36:01.000Z</time>
      </trkpt>
      <trkpt lat="40.796508" lon="-3.937219">
        <ele>2341.0</ele>
        <time>2018-04-21T11:36:02.000Z</time>
      </trkpt>
      <trkpt lat="40.796503" lon="-3.937221">
        <ele>2341.0</ele>
        <time>2018-04-21T11:36:03.000Z</time>
      </trkpt>
      <trkpt lat="40.796498" lon="-3.937222">
        <ele>2341.0</ele>
        <time>2018-04-21T11:36:04.000Z</time>
      </trkpt>
      <trkpt lat="40.796493" lon="-3.937224">
        <ele>2341.0</ele>
        <time>2018-04-21T11:36:05.000Z</time>
      </trkpt>
      <trkpt lat="40.796489" lon="-3.937226">
        <ele>2341.0</ele>
        <time>2018-04-21T11:36:06.000Z</time>
      </trkpt>
      <trkpt lat="40.796486" lon="-3.937227">
        <ele>2341.0</ele>
        <time>2018-04-21T11:36:07.000Z</time>
      </trkpt>
      <trkpt lat="40.796484" lon="-3.937228">
        <ele>2341.0</ele>
        <time>2018-04-21T11:36:08.000Z</time>
      </trkpt>
      <trkpt lat="40.796482" lon="-3.937229">
        <ele>2341.0</ele>
        <time>2018-04-21T11:36:09.000Z</time>
      </trkpt>
      <trkpt lat="40.796482" lon="-3.937229">
        <ele>2341.0</ele>
        <time>2018-04-21T11:36:10.000Z</time>
      </trkpt>
      <trkpt lat="40.796482" lon="-3.937229">
        <ele>2341.0</ele>
        <time>2018-04-21T11:36:11.000Z</time>
      </trkpt>
      <trkpt lat="40.796482" lon="-3.937229">
        <ele>2341.0</ele>
        <time>2018-04-21T11:36:12.000Z</time>
      </trkpt>
      <trkpt lat="40.796483" lon="-3.937228">
        <ele>2341.0</ele>
        <time>2018-04-21T11:36:13.000Z</time>
      </trkpt>
      <trkpt lat="40.796483" lon="-3.937228">
        <ele>2341.0</ele>
        <time>2018-04-21T11:36:14.000Z</time>
      </trkpt>
      <trkpt lat="40.796483" lon="-3.937228">
        <ele>2341.0</ele>
        <time>2018-04-21T11:36:15.000Z</time>
      </trkpt>
      <trkpt lat="40.796482" lon="-3.937229">
        <ele>2341.0</ele>
        <time>2018-04-21T11:36:16.000Z</time>
      </trkpt>
      <trkpt lat="40.796481" lon="-3.937229">
        <ele>2341.0</ele>
        <time>2018-04-21T11:36:17.000Z</time>
      </trkpt>
      <trkpt lat="40.796478" lon="-3.937231">
        <ele>2341.0</ele>
        <time>2018-04-21T11:36:18.000Z</time>
      </trkpt>
      <trkpt lat="40.796475" lon="-3.937233">
        <ele>2341.0</ele>
        <time>2018-04-21T11:36:19.000Z</time>
      </trkpt>
      <trkpt lat="40.796471" lon="-3.937236">
        <ele>2341.1</ele>
        <time>2018-04-21T11:36:20.000Z</time>
      </trkpt>
      <trkpt lat="40.796467" lon="-3.937241">
        <ele>2341.2</ele>
        <time>2018-04-21T11:36:21.000Z</time>
      </trkpt>
      <trkpt lat="40.796463" lon="-3.937248">
        <ele>2341.3</ele>
        <time>2018-04-21T11:36:22.000Z</time>
      </trkpt>
      <trkpt lat="40.796459" lon="-3.937257">
        <ele>2341.4</ele>
        <time>2018-04-21T11:36:23.000Z</time>
      </trkpt>
      <trkpt lat="40.796456" lon="-3.937267">
        <ele>2341.6</ele>
        <time>2018-04-21T11:36:24.000Z</time>
      </trkpt>
      <trkpt lat="40.796452" lon="-3.937278">
        <ele>2341.8</ele>
        <time>2018-04-21T11:36:25.000Z</time>
      </trkpt>
      <trkpt lat="40.79645" lon="-3.937289">
        <ele>2342.0</ele>
        <time>2018-04-21T11:36:26.000Z</time>
      </trkpt>
      <trkpt lat="40.796447" lon="-3.9373">
        <ele>2342.2</ele>
        <time>2018-04-21T11:36:27.000Z</time>
      </trkpt>
      <trkpt lat="40.796445" lon="-3.93731">
        <ele>2342.4</ele>
        <time>2018-04-21T11:36:28.000Z</time>
      </trkpt>
      <trkpt lat="40.796444" lon="-3.93732">
        <ele>2342.5</ele>
        <time>2018-04-21T11:36:29.000Z</time>
      </trkpt>
      <trkpt lat="40.796442" lon="-3.937329">
        <ele>2342.7</ele>
        <time>2018-04-21T11:36:30.000Z</time>
      </trkpt>
      <trkpt lat="40.79644" lon="-3.937338">
        <ele>2342.9</ele>
        <time>2018-04-21T11:36:31.000Z</time>
      </trkpt>
      <trkpt lat="40.796439" lon="-3.937347">
        <ele>2343.0</ele>
        <time>2018-04-21T11:36:32.000Z</time>
      </trkpt>
      <trkpt lat="40.796437" lon="-3.937355">
        <ele>2343.2</ele>
        <time>2018-04-21T11:36:33.000Z</time>
      </trkpt>
      <trkpt lat="40.796435" lon="-3.937364">
        <ele>2343.4</ele>
        <time>2018-04-21T11:36:34.000Z</time>
      </trkpt>
      <trkpt lat="40.796432" lon="-3.937373">
        <ele>2343.5</ele>
        <time>2018-04-21T11:36:35.000Z</time>
      </trkpt>
      <trkpt lat="40.796429" lon="-3.937383">
        <ele>2343.7</ele>
        <time>2018-04-21T11:36:36.000Z</time>
      </trkpt>
      <trkpt lat="40.796426" lon="-3.937393">
        <ele>2343.9</ele>
        <time>2018-04-21T11:36:37.000Z</time>
      </trkpt>
      <trkpt lat="40.796423" lon="-3.937403">
        <ele>2344.1</ele>
        <time>2018-04-21T11:36:38.000Z</time>
      </trkpt>
      <trkpt lat="40.796419" lon="-3.937413">
        <ele>2344.3</ele>
        <time>2018-04-21T11:36:39.000Z</time>
      </trkpt>
      <trkpt lat="40.796416" lon="-3.937423">
        <ele>2344.5</ele>
        <time>2018-04-21T11:36:40.000Z</time>
      </trkpt>
      <trkpt lat="40.796413" lon="-3.937434">
        <ele>2344.7</ele>
        <time>2018-04-21T11:36:41.000Z</time>
      </trkpt>
      <trkpt lat="40.796411" lon="-3.937445">
        <ele>2344.9</ele>
        <time>2018-04-21T11:36:42.000Z</time>
      </trkpt>
      <trkpt lat="40.796409" lon="-3.937457">
        <ele>2345.1</ele>
        <time>2018-04-21T11:36:43.000Z</time>
      </trkpt>
      <trkpt lat="40.796409" lon="-3.937468">
        <ele>2345.4</ele>
        <time>2018-04-21T11:36:44.000Z</time>
      </trkpt>
      <trkpt lat="40.796409" lon="-3.93748">
        <ele>2345.6</ele>
        <time>2018-04-21T11:36:45.000Z</time>
      </trkpt>
      <trkpt lat="40.796409" lon="-3.937492">
        <ele>2345.8</ele>
        <time>2018-04-21T11:36:46.000Z</time>
      </trkpt>
      <trkpt lat="40.796409" lon="-3.937503">
        <ele>2346.0</ele>
        <time>2018-04-21T11:36:47.000Z</time>
      </trkpt>
      <trkpt lat="40.796409" lon="-3.937513">
        <ele>2346.1</ele>
        <time>2018-04-21T11:36:48.000Z</time>
      </trkpt>
      <trkpt lat="40.796408" lon="-3.937523">
        <ele>2346.1</ele>
        <time>2018-04-21T11:36:49.000Z</time>
      </trkpt>
      <trkpt lat="40.796406" lon="-3.937531">
        <ele>2346.2</ele>
        <time>2018-04-21T11:36:50.000Z</time>
      </trkpt>
      <trkpt lat="40.796402" lon="-3.937539">
        <ele>2346.2</ele>
        <time>2018-04-21T11:36:51.000Z</time>
      </trkpt>
      <trkpt lat="40.796398" lon="-3.937546">
        <ele>2346.3</ele>
        <time>2018-04-21T11:36:52.000Z</time>
      </trkpt>
      <trkpt lat="40.796394" lon="-3.937554">
        <ele>2346.3</ele>
        <time>2018-04-21T11:36:53.000Z</time>
      </trkpt>
      <trkpt lat="40.796391" lon="-3.937561">
        <ele>2346.4</ele>
        <time>2018-04-21T11:36:54.000Z</time>
      </trkpt>
      <trkpt lat="40.796388" lon="-3.937569">
        <ele>2346.4</ele>
        <time>2018-04-21T11:36:55.000Z</time>
      </trkpt>
      <trkpt lat="40.796385" lon="-3.937577">
        <ele>2346.5</ele>
        <time>2018-04-21T11:36:56.000Z</time>
      </trkpt>
      <trkpt lat="40.796383" lon="-3.937585">
        <ele>2346.5</ele>
        <time>2018-04-21T11:36:57.000Z</time>
      </trkpt>
      <trkpt lat="40.796382" lon="-3.937592">
        <ele>2346.6</ele>
        <time>2018-04-21T11:36:58.000Z</time>
      </trkpt>
      <trkpt lat="40.796381" lon="-3.937598">
        <ele>2346.6</ele>
        <time>2018-04-21T11:36:59.000Z</time>
      </trkpt>
      <trkpt lat="40.79638" lon="-3.937604">
        <ele>2346.6</ele>
        <time>2018-04-21T11:37:00.000Z</time>
      </trkpt>
      <trkpt lat="40.79638" lon="-3.937609">
        <ele>2346.7</ele>
        <time>2018-04-21T11:37:01.000Z</time>
      </trkpt>
      <trkpt lat="40.796379" lon="-3.937614">
        <ele>2346.7</ele>
        <time>2018-04-21T11:37:02.000Z</time>
      </trkpt>
      <trkpt lat="40.796378" lon="-3.937619">
        <ele>2346.7</ele>
        <time>2018-04-21T11:37:03.000Z</time>
      </trkpt>
      <trkpt lat="40.796376" lon="-3.937623">
        <ele>2346.8</ele>
        <time>2018-04-21T11:37:04.000Z</time>
      </trkpt>
      <trkpt lat="40.796374" lon="-3.937628">
        <ele>2346.8</ele>
        <time>2018-04-21T11:37:05.000Z</time>
      </trkpt>
      <trkpt lat="40.796372" lon="-3.937632">
        <ele>2346.8</ele>
        <time>2018-04-21T11:37:06.000Z</time>
      </trkpt>
      <trkpt lat="40.796369" lon="-3.937636">
        <ele>2346.9</ele>
        <time>2018-04-21T11:37:07.000Z</time>
      </trkpt>
      <trkpt lat="40.796366" lon="-3.93764">
        <ele>2346.9</ele>
        <time>2018-04-21T11:37:08.000Z</time>
      </trkpt>
      <trkpt lat="40.796363" lon="-3.937645">
        <ele>2346.9</ele>
        <time>2018-04-21T11:37:09.000Z</time>
      </trkpt>
      <trkpt lat="40.79636" lon="-3.937649">
        <ele>2347.0</ele>
        <time>2018-04-21T11:37:10.000Z</time>
      </trkpt>
      <trkpt lat="40.796357" lon="-3.937653">
        <ele>2347.0</ele>
        <time>2018-04-21T11:37:11.000Z</time>
      </trkpt>
      <trkpt lat="40.796354" lon="-3.937657">
        <ele>2347.0</ele>
        <time>2018-04-21T11:37:12.000Z</time>
      </trkpt>
      <trkpt lat="40.796351" lon="-3.937661">
        <ele>2347.1</ele>
        <time>2018-04-21T11:37:13.000Z</time>
      </trkpt>
      <trkpt lat="40.796348" lon="-3.937665">
        <ele>2347.1</ele>
        <time>2018-04-21T11:37:14.000Z</time>
      </trkpt>
      <trkpt lat="40.796345" lon="-3.937669">
        <ele>2347.1</ele>
        <time>2018-04-21T11:37:15.000Z</time>
      </trkpt>
      <trkpt lat="40.796342" lon="-3.937673">
        <ele>2347.2</ele>
        <time>2018-04-21T11:37:16.000Z</time>
      </trkpt>
      <trkpt lat="40.79634" lon="-3.937677">
        <ele>2347.2</ele>
        <time>2018-04-21T11:37:17.000Z</time>
      </trkpt>
      <trkpt lat="40.796338" lon="-3.93768">
        <ele>2347.2</ele>
        <time>2018-04-21T11:37:18.000Z</time>
      </trkpt>
      <trkpt lat="40.796336" lon="-3.937682">
        <ele>2347.3</ele>
        <time>2018-04-21T11:37:19.000Z</time>
      </trkpt>
      <trkpt lat="40.796334" lon="-3.937685">
        <ele>2347.3</ele>
        <time>2018-04-21T11:37:20.000Z</time>
      </trkpt>
      <trkpt lat="40.796333" lon="-3.937687">
        <ele>2347.3</ele>
        <time>2018-04-21T11:37:21.000Z</time>
      </trkpt>
      <trkpt lat="40.796332" lon="-3.937688">
        <ele>2347.3</ele>
        <time>2018-04-21T11:37:22.000Z</time>
      </trkpt>
      <trkpt lat="40.796331" lon="-3.937689">
        <ele>2347.3</ele>
        <time>2018-04-21T11:37:23.000Z</time>
      </trkpt>
      <trkpt lat="40.796331" lon="-3.93769">
        <ele>2347.3</ele>
        <time>2018-04-21T11:37:24.000Z</time>
      </trkpt>
      <trkpt lat="40.796331" lon="-3.93769">
        <ele>2347.3</ele>
        <time>2018-04-21T11:37:25.000Z</time>
      </trkpt>
      <trkpt lat="40.796331" lon="-3.937691">
        <ele>2347.3</ele>
        <time>2018-04-21T11:37:26.000Z</time>
      </trkpt>
      <trkpt lat="40.796331" lon="-3.937691">
        <ele>2347.3</ele>
        <time>2018-04-21T11:37:27.000Z</time>
      </trkpt>
      <trkpt lat="40.796331" lon="-3.937691">
        <ele>2347.3</ele>
        <time>2018-04-21T11:37:28.000Z</time>
      </trkpt>
      <trkpt lat="40.796331" lon="-3.937691">
        <ele>2347.3</ele>
        <time>2018-04-21T11:37:29.000Z</time>
      </trkpt>
      <trkpt lat="40.796331" lon="-3.937691">
        <ele>2347.3</ele>
        <time>2018-04-21T11:37:30.000Z</time>
      </trkpt>
      <trkpt lat="40.796331" lon="-3.937691">
        <ele>2347.3</ele>
        <time>2018-04-21T11:37:31.000Z</time>
      </trkpt>
      <trkpt lat="40.796331" lon="-3.937691">
        <ele>2347.3</ele>
        <time>2018-04-21T11:37:32.000Z</time>
      </trkpt>
      <trkpt lat="40.796331" lon="-3.937691">
        <ele>2347.3</ele>
        <time>2018-04-21T11:37:33.000Z</time>
      </trkpt>
      <trkpt lat="40.796331" lon="-3.937691">
        <ele>2347.3</ele>
        <time>2018-04-21T11:37:34.000Z</time>
      </trkpt>
      <trkpt lat="40.796331" lon="-3.937691">
        <ele>2347.3</ele>
        <time>2018-04-21T11:37:35.000Z</time>
      </trkpt>
      <trkpt lat="40.796331" lon="-3.937691">
        <ele>2347.3</ele>
        <time>2018-04-21T11:37:36.000Z</time>
      </trkpt>
      <trkpt lat="40.796331" lon="-3.937691">
        <ele>2347.3</ele>
        <time>2018-04-21T11:37:37.000Z</time>
      </trkpt>
      <trkpt lat="40.796331" lon="-3.937691">
        <ele>2347.3</ele>
        <time>2018-04-21T11:37:38.000Z</time>
      </trkpt>
      <trkpt lat="40.796331" lon="-3.937691">
        <ele>2347.3</ele>
        <time>2018-04-21T11:37:39.000Z</time>
      </trkpt>
      <trkpt lat="40.796331" lon="-3.937691">
        <ele>2347.3</ele>
        <time>2018-04-21T11:37:40.000Z</time>
      </trkpt>
      <trkpt lat="40.796331" lon="-3.937691">
        <ele>2347.3</ele>
        <time>2018-04-21T11:37:41.000Z</time>
      </trkpt>
      <trkpt lat="40.796331" lon="-3.937691">
        <ele>2347.3</ele>
        <time>2018-04-21T11:37:42.000Z</time>
      </trkpt>
      <trkpt lat="40.796331" lon="-3.937691">
        <ele>2347.3</ele>
        <time>2018-04-21T11:37:43.000Z</time>
      </trkpt>
      <trkpt lat="40.796331" lon="-3.937691">
        <ele>2347.3</ele>
        <time>2018-04-21T11:37:44.000Z</time>
      </trkpt>
      <trkpt lat="40.796331" lon="-3.937691">
        <ele>2347.3</ele>
        <time>2018-04-21T11:37:45.000Z</time>
      </trkpt>
      <trkpt lat="40.796331" lon="-3.937691">
        <ele>2347.3</ele>
        <time>2018-04-21T11:37:46.000Z</time>
      </trkpt>
      <trkpt lat="40.796331" lon="-3.937691">
        <ele>2347.3</ele>
        <time>2018-04-21T11:37:47.000Z</time>
      </trkpt>
      <trkpt lat="40.796331" lon="-3.937691">
        <ele>2347.3</ele>
        <time>2018-04-21T11:37:48.000Z</time>
      </trkpt>
      <trkpt lat="40.796331" lon="-3.937691">
        <ele>2347.3</ele>
        <time>2018-04-21T11:37:49.000Z</time>
      </trkpt>
      <trkpt lat="40.796331" lon="-3.937691">
        <ele>2347.3</ele>
        <time>2018-04-21T11:37:50.000Z</time>
      </trkpt>
      <trkpt lat="40.796331" lon="-3.937691">
        <ele>2347.3</ele>
        <time>2018-04-21T11:37:51.000Z</time>
      </trkpt>
      <trkpt lat="40.796331" lon="-3.937691">
        <ele>2347.3</ele>
        <time>2018-04-21T11:37:52.000Z</time>
      </trkpt>
      <trkpt lat="40.796331" lon="-3.937691">
        <ele>2347.3</ele>
        <time>2018-04-21T11:37:53.000Z</time>
      </trkpt>
      <trkpt lat="40.796331" lon="-3.937691">
        <ele>2347.3</ele>
        <time>2018-04-21T11:37:54.000Z</time>
      </trkpt>
      <trkpt lat="40.796331" lon="-3.937691">
        <ele>2347.3</ele>
        <time>2018-04-21T11:37:55.000Z</time>
      </trkpt>
      <trkpt lat="40.796331" lon="-3.937691">
        <ele>2347.3</ele>
        <time>2018-04-21T11:37:56.000Z</time>
      </trkpt>
      <trkpt lat="40.796331" lon="-3.937691">
        <ele>2347.3</ele>
        <time>2018-04-21T11:37:57.000Z</time>
      </trkpt>
      <trkpt lat="40.796331" lon="-3.937691">
        <ele>2347.3</ele>
        <time>2018-04-21T11:37:58.000Z</time>
      </trkpt>
      <trkpt lat="40.796331" lon="-3.937691">
        <ele>2347.3</ele>
        <time>2018-04-21T11:37:59.000Z</time>
      </trkpt>
      <trkpt lat="40.796331" lon="-3.937691">
        <ele>2347.3</ele>
        <time>2018-04-21T11:38:00.000Z</time>
      </trkpt>
      <trkpt lat="40.796331" lon="-3.937691">
        <ele>2347.3</ele>
        <time>2018-04-21T11:38:01.000Z</time>
      </trkpt>
      <trkpt lat="40.796331" lon="-3.937691">
        <ele>2347.3</ele>
        <time>2018-04-21T11:38:02.000Z</time>
      </trkpt>
      <trkpt lat="40.796331" lon="-3.937691">
        <ele>2347.3</ele>
        <time>2018-04-21T11:38:03.000Z</time>
      </trkpt>
      <trkpt lat="40.796331" lon="-3.937691">
        <ele>2347.3</ele>
        <time>2018-04-21T11:38:04.000Z</time>
      </trkpt>
      <trkpt lat="40.796331" lon="-3.937691">
        <ele>2347.3</ele>
        <time>2018-04-21T11:38:05.000Z</time>
      </trkpt>
      <trkpt lat="40.796331" lon="-3.937691">
        <ele>2347.3</ele>
        <time>2018-04-21T11:38:06.000Z</time>
      </trkpt>
      <trkpt lat="40.79633" lon="-3.937692">
        <ele>2347.3</ele>
        <time>2018-04-21T11:38:07.000Z</time>
      </trkpt>
      <trkpt lat="40.796328" lon="-3.937694">
        <ele>2347.4</ele>
        <time>2018-04-21T11:38:08.000Z</time>
      </trkpt>
      <trkpt lat="40.796324" lon="-3.937697">
        <ele>2347.4</ele>
        <time>2018-04-21T11:38:09.000Z</time>
      </trkpt>
      <trkpt lat="40.796319" lon="-3.937699">
        <ele>2347.4</ele>
        <time>2018-04-21T11:38:10.000Z</time>
      </trkpt>
      <trkpt lat="40.796315" lon="-3.937705">
        <ele>2347.5</ele>
        <time>2018-04-21T11:38:11.000Z</time>
      </trkpt>
      <trkpt lat="40.796312" lon="-3.937712">
        <ele>2347.6</ele>
        <time>2018-04-21T11:38:12.000Z</time>
      </trkpt>
      <trkpt lat="40.796309" lon="-3.937722">
        <ele>2347.6</ele>
        <time>2018-04-21T11:38:13.000Z</time>
      </trkpt>
      <trkpt lat="40.796306" lon="-3.937733">
        <ele>2347.7</ele>
        <time>2018-04-21T11:38:14.000Z</time>
      </trkpt>
      <trkpt lat="40.796304" lon="-3.937743">
        <ele>2347.8</ele>
        <time>2018-04-21T11:38:15.000Z</time>
      </trkpt>
      <trkpt lat="40.796301" lon="-3.937753">
        <ele>2347.9</ele>
        <time>2018-04-21T11:38:16.000Z</time>
      </trkpt>
      <trkpt lat="40.796299" lon="-3.937763">
        <ele>2348.0</ele>
        <time>2018-04-21T11:38:17.000Z</time>
      </trkpt>
      <trkpt lat="40.796296" lon="-3.937773">
        <ele>2348.1</ele>
        <time>2018-04-21T11:38:18.000Z</time>
      </trkpt>
      <trkpt lat="40.796293" lon="-3.937782">
        <ele>2348.2</ele>
        <time>2018-04-21T11:38:19.000Z</time>
      </trkpt>
      <trkpt lat="40.79629" lon="-3.937791">
        <ele>2348.2</ele>
        <time>2018-04-21T11:38:20.000Z</time>
      </trkpt>
      <trkpt lat="40.796287" lon="-3.9378">
        <ele>2348.3</ele>
        <time>2018-04-21T11:38:21.000Z</time>
      </trkpt>
      <trkpt lat="40.796283" lon="-3.93781">
        <ele>2348.4</ele>
        <time>2018-04-21T11:38:22.000Z</time>
      </trkpt>
      <trkpt lat="40.796279" lon="-3.937819">
        <ele>2348.5</ele>
        <time>2018-04-21T11:38:23.000Z</time>
      </trkpt>
      <trkpt lat="40.796274" lon="-3.937828">
        <ele>2348.6</ele>
        <time>2018-04-21T11:38:24.000Z</time>
      </trkpt>
      <trkpt lat="40.796269" lon="-3.937837">
        <ele>2348.7</ele>
        <time>2018-04-21T11:38:25.000Z</time>
      </trkpt>
      <trkpt lat="40.796264" lon="-3.937845">
        <ele>2348.8</ele>
        <time>2018-04-21T11:38:26.000Z</time>
      </trkpt>
      <trkpt lat="40.796258" lon="-3.937854">
        <ele>2348.9</ele>
        <time>2018-04-21T11:38:27.000Z</time>
      </trkpt>
      <trkpt lat="40.796253" lon="-3.937862">
        <ele>2349.0</ele>
        <time>2018-04-21T11:38:28.000Z</time>
      </trkpt>
      <trkpt lat="40.796248" lon="-3.93787">
        <ele>2349.1</ele>
        <time>2018-04-21T11:38:29.000Z</time>
      </trkpt>
      <trkpt lat="40.796243" lon="-3.937876">
        <ele>2349.2</ele>
        <time>2018-04-21T11:38:30.000Z</time>
      </trkpt>
      <trkpt lat="40.796238" lon="-3.937883">
        <ele>2349.3</ele>
        <time>2018-04-21T11:38:31.000Z</time>
      </trkpt>
      <trkpt lat="40.796234" lon="-3.937888">
        <ele>2349.4</ele>
        <time>2018-04-21T11:38:32.000Z</time>
      </trkpt>
      <trkpt lat="40.796231" lon="-3.937893">
        <ele>2349.4</ele>
        <time>2018-04-21T11:38:33.000Z</time>
      </trkpt>
      <trkpt lat="40.796228" lon="-3.937897">
        <ele>2349.5</ele>
        <time>2018-04-21T11:38:34.000Z</time>
      </trkpt>
      <trkpt lat="40.796226" lon="-3.9379">
        <ele>2349.5</ele>
        <time>2018-04-21T11:38:35.000Z</time>
      </trkpt>
      <trkpt lat="40.796224" lon="-3.937903">
        <ele>2349.6</ele>
        <time>2018-04-21T11:38:36.000Z</time>
      </trkpt>
      <trkpt lat="40.796223" lon="-3.937905">
        <ele>2349.6</ele>
        <time>2018-04-21T11:38:37.000Z</time>
      </trkpt>
      <trkpt lat="40.796222" lon="-3.937906">
        <ele>2349.6</ele>
        <time>2018-04-21T11:38:38.000Z</time>
      </trkpt>
      <trkpt lat="40.796222" lon="-3.937908">
        <ele>2349.6</ele>
        <time>2018-04-21T11:38:39.000Z</time>
      </trkpt>
      <trkpt lat="40.796221" lon="-3.937908">
        <ele>2349.6</ele>
        <time>2018-04-21T11:38:40.000Z</time>
      </trkpt>
      <trkpt lat="40.796221" lon="-3.937909">
        <ele>2349.6</ele>
        <time>2018-04-21T11:38:41.000Z</time>
      </trkpt>
      <trkpt lat="40.796221" lon="-3.93791">
        <ele>2349.6</ele>
        <time>2018-04-21T11:38:42.000Z</time>
      </trkpt>
      <trkpt lat="40.79622" lon="-3.93791">
        <ele>2349.7</ele>
        <time>2018-04-21T11:38:43.000Z</time>
      </trkpt>
      <trkpt lat="40.79622" lon="-3.937911">
        <ele>2349.7</ele>
        <time>2018-04-21T11:38:44.000Z</time>
      </trkpt>
      <trkpt lat="40.79622" lon="-3.937911">
        <ele>2349.7</ele>
        <time>2018-04-21T11:38:45.000Z</time>
      </trkpt>
      <trkpt lat="40.79622" lon="-3.937912">
        <ele>2349.7</ele>
        <time>2018-04-21T11:38:46.000Z</time>
      </trkpt>
      <trkpt lat="40.79622" lon="-3.937912">
        <ele>2349.7</ele>
        <time>2018-04-21T11:38:47.000Z</time>
      </trkpt>
      <trkpt lat="40.79622" lon="-3.937912">
        <ele>2349.7</ele>
        <time>2018-04-21T11:38:48.000Z</time>
      </trkpt>
      <trkpt lat="40.79622" lon="-3.937912">
        <ele>2349.7</ele>
        <time>2018-04-21T11:38:49.000Z</time>
      </trkpt>
      <trkpt lat="40.79622" lon="-3.937912">
        <ele>2349.7</ele>
        <time>2018-04-21T11:38:50.000Z</time>
      </trkpt>
      <trkpt lat="40.79622" lon="-3.937912">
        <ele>2349.7</ele>
        <time>2018-04-21T11:38:51.000Z</time>
      </trkpt>
      <trkpt lat="40.79622" lon="-3.937912">
        <ele>2349.7</ele>
        <time>2018-04-21T11:38:52.000Z</time>
      </trkpt>
      <trkpt lat="40.79622" lon="-3.937912">
        <ele>2349.7</ele>
        <time>2018-04-21T11:38:53.000Z</time>
      </trkpt>
      <trkpt lat="40.79622" lon="-3.937912">
        <ele>2349.7</ele>
        <time>2018-04-21T11:38:54.000Z</time>
      </trkpt>
      <trkpt lat="40.79622" lon="-3.937912">
        <ele>2349.7</ele>
        <time>2018-04-21T11:38:55.000Z</time>
      </trkpt>
      <trkpt lat="40.79622" lon="-3.937912">
        <ele>2349.7</ele>
        <time>2018-04-21T11:38:56.000Z</time>
      </trkpt>
      <trkpt lat="40.79622" lon="-3.937912">
        <ele>2349.7</ele>
        <time>2018-04-21T11:38:57.000Z</time>
      </trkpt>
      <trkpt lat="40.79622" lon="-3.937912">
        <ele>2349.7</ele>
        <time>2018-04-21T11:38:58.000Z</time>
      </trkpt>
      <trkpt lat="40.79622" lon="-3.937912">
        <ele>2349.7</ele>
        <time>2018-04-21T11:38:59.000Z</time>
      </trkpt>
      <trkpt lat="40.79622" lon="-3.937912">
        <ele>2349.7</ele>
        <time>2018-04-21T11:39:00.000Z</time>
      </trkpt>
      <trkpt lat="40.79622" lon="-3.937912">
        <ele>2349.7</ele>
        <time>2018-04-21T11:39:01.000Z</time>
      </trkpt>
      <trkpt lat="40.79622" lon="-3.937912">
        <ele>2349.7</ele>
        <time>2018-04-21T11:39:02.000Z</time>
      </trkpt>
      <trkpt lat="40.79622" lon="-3.937912">
        <ele>2349.7</ele>
        <time>2018-04-21T11:39:03.000Z</time>
      </trkpt>
      <trkpt lat="40.79622" lon="-3.937912">
        <ele>2349.7</ele>
        <time>2018-04-21T11:39:04.000Z</time>
      </trkpt>
      <trkpt lat="40.79622" lon="-3.937912">
        <ele>2349.7</ele>
        <time>2018-04-21T11:39:05.000Z</time>
      </trkpt>
      <trkpt lat="40.79622" lon="-3.937912">
        <ele>2349.7</ele>
        <time>2018-04-21T11:39:06.000Z</time>
      </trkpt>
      <trkpt lat="40.79622" lon="-3.937912">
        <ele>2349.7</ele>
        <time>2018-04-21T11:39:07.000Z</time>
      </trkpt>
      <trkpt lat="40.79622" lon="-3.937912">
        <ele>2349.7</ele>
        <time>2018-04-21T11:39:08.000Z</time>
      </trkpt>
      <trkpt lat="40.79622" lon="-3.937912">
        <ele>2349.7</ele>
        <time>2018-04-21T11:39:09.000Z</time>
      </trkpt>
      <trkpt lat="40.79622" lon="-3.937912">
        <ele>2349.7</ele>
        <time>2018-04-21T11:39:10.000Z</time>
      </trkpt>
      <trkpt lat="40.79622" lon="-3.937912">
        <ele>2349.7</ele>
        <time>2018-04-21T11:39:11.000Z</time>
      </trkpt>
      <trkpt lat="40.79622" lon="-3.937912">
        <ele>2349.7</ele>
        <time>2018-04-21T11:39:12.000Z</time>
      </trkpt>
      <trkpt lat="40.79622" lon="-3.937912">
        <ele>2349.7</ele>
        <time>2018-04-21T11:39:13.000Z</time>
      </trkpt>
      <trkpt lat="40.79622" lon="-3.937912">
        <ele>2349.7</ele>
        <time>2018-04-21T11:39:14.000Z</time>
      </trkpt>
      <trkpt lat="40.79622" lon="-3.937912">
        <ele>2349.7</ele>
        <time>2018-04-21T11:39:15.000Z</time>
      </trkpt>
      <trkpt lat="40.79622" lon="-3.937912">
        <ele>2349.7</ele>
        <time>2018-04-21T11:39:16.000Z</time>
      </trkpt>
      <trkpt lat="40.79622" lon="-3.937912">
        <ele>2349.7</ele>
        <time>2018-04-21T11:39:17.000Z</time>
      </trkpt>
      <trkpt lat="40.79622" lon="-3.937912">
        <ele>2349.7</ele>
        <time>2018-04-21T11:39:18.000Z</time>
      </trkpt>
      <trkpt lat="40.79622" lon="-3.937912">
        <ele>2349.7</ele>
        <time>2018-04-21T11:39:19.000Z</time>
      </trkpt>
      <trkpt lat="40.79622" lon="-3.937912">
        <ele>2349.7</ele>
        <time>2018-04-21T11:39:20.000Z</time>
      </trkpt>
      <trkpt lat="40.79622" lon="-3.937912">
        <ele>2349.7</ele>
        <time>2018-04-21T11:39:21.000Z</time>
      </trkpt>
      <trkpt lat="40.79622" lon="-3.937912">
        <ele>2349.7</ele>
        <time>2018-04-21T11:39:22.000Z</time>
      </trkpt>
      <trkpt lat="40.79622" lon="-3.937913">
        <ele>2349.7</ele>
        <time>2018-04-21T11:39:23.000Z</time>
      </trkpt>
      <trkpt lat="40.796219" lon="-3.937914">
        <ele>2349.7</ele>
        <time>2018-04-21T11:39:24.000Z</time>
      </trkpt>
      <trkpt lat="40.796219" lon="-3.937916">
        <ele>2349.7</ele>
        <time>2018-04-21T11:39:25.000Z</time>
      </trkpt>
      <trkpt lat="40.796218" lon="-3.937918">
        <ele>2349.7</ele>
        <time>2018-04-21T11:39:26.000Z</time>
      </trkpt>
      <trkpt lat="40.796217" lon="-3.93792">
        <ele>2349.8</ele>
        <time>2018-04-21T11:39:27.000Z</time>
      </trkpt>
      <trkpt lat="40.796216" lon="-3.937923">
        <ele>2349.8</ele>
        <time>2018-04-21T11:39:28.000Z</time>
      </trkpt>
      <trkpt lat="40.796215" lon="-3.937927">
        <ele>2349.8</ele>
        <time>2018-04-21T11:39:29.000Z</time>
      </trkpt>
      <trkpt lat="40.796215" lon="-3.937932">
        <ele>2349.9</ele>
        <time>2018-04-21T11:39:30.000Z</time>
      </trkpt>
      <trkpt lat="40.796214" lon="-3.937937">
        <ele>2349.9</ele>
        <time>2018-04-21T11:39:31.000Z</time>
      </trkpt>
      <trkpt lat="40.796214" lon="-3.937942">
        <ele>2350.0</ele>
        <time>2018-04-21T11:39:32.000Z</time>
      </trkpt>
      <trkpt lat="40.796214" lon="-3.937949">
        <ele>2350.1</ele>
        <time>2018-04-21T11:39:33.000Z</time>
      </trkpt>
      <trkpt lat="40.796215" lon="-3.937956">
        <ele>2350.1</ele>
        <time>2018-04-21T11:39:34.000Z</time>
      </trkpt>
      <trkpt lat="40.796217" lon="-3.937964">
        <ele>2350.2</ele>
        <time>2018-04-21T11:39:35.000Z</time>
      </trkpt>
      <trkpt lat="40.79622" lon="-3.937973">
        <ele>2350.2</ele>
        <time>2018-04-21T11:39:36.000Z</time>
      </trkpt>
      <trkpt lat="40.796222" lon="-3.937982">
        <ele>2350.3</ele>
        <time>2018-04-21T11:39:37.000Z</time>
      </trkpt>
      <trkpt lat="40.796225" lon="-3.937991">
        <ele>2350.3</ele>
        <time>2018-04-21T11:39:38.000Z</time>
      </trkpt>
      <trkpt lat="40.796227" lon="-3.938">
        <ele>2350.4</ele>
        <time>2018-04-21T11:39:39.000Z</time>
      </trkpt>
      <trkpt lat="40.796227" lon="-3.938008">
        <ele>2350.5</ele>
        <time>2018-04-21T11:39:40.000Z</time>
      </trkpt>
      <trkpt lat="40.796226" lon="-3.938016">
        <ele>2350.5</ele>
        <time>2018-04-21T11:39:41.000Z</time>
      </trkpt>
      <trkpt lat="40.796224" lon="-3.938023">
        <ele>2350.6</ele>
        <time>2018-04-21T11:39:42.000Z</time>
      </trkpt>
      <trkpt lat="40.79622" lon="-3.938029">
        <ele>2350.7</ele>
        <time>2018-04-21T11:39:43.000Z</time>
      </trkpt>
      <trkpt lat="40.796217" lon="-3.938036">
        <ele>2350.8</ele>
        <time>2018-04-21T11:39:44.000Z</time>
      </trkpt>
      <trkpt lat="40.796213" lon="-3.938042">
        <ele>2350.9</ele>
        <time>2018-04-21T11:39:45.000Z</time>
      </trkpt>
      <trkpt lat="40.79621" lon="-3.938049">
        <ele>2351.0</ele>
        <time>2018-04-21T11:39:46.000Z</time>
      </trkpt>
      <trkpt lat="40.796207" lon="-3.938056">
        <ele>2351.1</ele>
        <time>2018-04-21T11:39:47.000Z</time>
      </trkpt>
      <trkpt lat="40.796205" lon="-3.938063">
        <ele>2351.2</ele>
        <time>2018-04-21T11:39:48.000Z</time>
      </trkpt>
      <trkpt lat="40.796203" lon="-3.938069">
        <ele>2351.2</ele>
        <time>2018-04-21T11:39:49.000Z</time>
      </trkpt>
      <trkpt lat="40.796201" lon="-3.938073">
        <ele>2351.3</ele>
        <time>2018-04-21T11:39:50.000Z</time>
      </trkpt>
      <trkpt lat="40.796201" lon="-3.938076">
        <ele>2351.3</ele>
        <time>2018-04-21T11:39:51.000Z</time>
      </trkpt>
      <trkpt lat="40.7962" lon="-3.938077">
        <ele>2351.3</ele>
        <time>2018-04-21T11:39:52.000Z</time>
      </trkpt>
      <trkpt lat="40.7962" lon="-3.938077">
        <ele>2351.3</ele>
        <time>2018-04-21T11:39:53.000Z</time>
      </trkpt>
      <trkpt lat="40.7962" lon="-3.938077">
        <ele>2351.3</ele>
        <time>2018-04-21T11:39:54.000Z</time>
      </trkpt>
      <trkpt lat="40.7962" lon="-3.938077">
        <ele>2351.3</ele>
        <time>2018-04-21T11:39:55.000Z</time>
      </trkpt>
      <trkpt lat="40.7962" lon="-3.938077">
        <ele>2351.3</ele>
        <time>2018-04-21T11:39:56.000Z</time>
      </trkpt>
      <trkpt lat="40.7962" lon="-3.938077">
        <ele>2351.3</ele>
        <time>2018-04-21T11:39:57.000Z</time>
      </trkpt>
      <trkpt lat="40.7962" lon="-3.938077">
        <ele>2351.3</ele>
        <time>2018-04-21T11:39:58.000Z</time>
      </trkpt>
      <trkpt lat="40.7962" lon="-3.938077">
        <ele>2351.3</ele>
        <time>2018-04-21T11:39:59.000Z</time>
      </trkpt>
      <trkpt lat="40.7962" lon="-3.938077">
        <ele>2351.3</ele>
        <time>2018-04-21T11:40:00.000Z</time>
      </trkpt>
      <trkpt lat="40.7962" lon="-3.938077">
        <ele>2351.3</ele>
        <time>2018-04-21T11:40:01.000Z</time>
      </trkpt>
      <trkpt lat="40.7962" lon="-3.938077">
        <ele>2351.3</ele>
        <time>2018-04-21T11:40:02.000Z</time>
      </trkpt>
      <trkpt lat="40.7962" lon="-3.938077">
        <ele>2351.3</ele>
        <time>2018-04-21T11:40:03.000Z</time>
      </trkpt>
      <trkpt lat="40.7962" lon="-3.938077">
        <ele>2351.3</ele>
        <time>2018-04-21T11:40:04.000Z</time>
      </trkpt>
      <trkpt lat="40.7962" lon="-3.938077">
        <ele>2351.3</ele>
        <time>2018-04-21T11:40:05.000Z</time>
      </trkpt>
      <trkpt lat="40.7962" lon="-3.938077">
        <ele>2351.3</ele>
        <time>2018-04-21T11:40:06.000Z</time>
      </trkpt>
      <trkpt lat="40.7962" lon="-3.938077">
        <ele>2351.3</ele>
        <time>2018-04-21T11:40:07.000Z</time>
      </trkpt>
      <trkpt lat="40.7962" lon="-3.938077">
        <ele>2351.3</ele>
        <time>2018-04-21T11:40:08.000Z</time>
      </trkpt>
      <trkpt lat="40.7962" lon="-3.938077">
        <ele>2351.3</ele>
        <time>2018-04-21T11:40:09.000Z</time>
      </trkpt>
      <trkpt lat="40.7962" lon="-3.938077">
        <ele>2351.3</ele>
        <time>2018-04-21T11:40:10.000Z</time>
      </trkpt>
      <trkpt lat="40.7962" lon="-3.938077">
        <ele>2351.3</ele>
        <time>2018-04-21T11:40:11.000Z</time>
      </trkpt>
      <trkpt lat="40.7962" lon="-3.938077">
        <ele>2351.3</ele>
        <time>2018-04-21T11:40:12.000Z</time>
      </trkpt>
      <trkpt lat="40.7962" lon="-3.938076">
        <ele>2351.3</ele>
        <time>2018-04-21T11:40:13.000Z</time>
      </trkpt>
      <trkpt lat="40.7962" lon="-3.938076">
        <ele>2351.3</ele>
        <time>2018-04-21T11:40:14.000Z</time>
      </trkpt>
      <trkpt lat="40.7962" lon="-3.938076">
        <ele>2351.3</ele>
        <time>2018-04-21T11:40:15.000Z</time>
      </trkpt>
      <trkpt lat="40.7962" lon="-3.938076">
        <ele>2351.3</ele>
        <time>2018-04-21T11:40:16.000Z</time>
      </trkpt>
      <trkpt lat="40.7962" lon="-3.938076">
        <ele>2351.3</ele>
        <time>2018-04-21T11:40:17.000Z</time>
      </trkpt>
      <trkpt lat="40.7962" lon="-3.938077">
        <ele>2351.3</ele>
        <time>2018-04-21T11:40:18.000Z</time>
      </trkpt>
      <trkpt lat="40.7962" lon="-3.938078">
        <ele>2351.4</ele>
        <time>2018-04-21T11:40:19.000Z</time>
      </trkpt>
      <trkpt lat="40.796201" lon="-3.93808">
        <ele>2351.4</ele>
        <time>2018-04-21T11:40:20.000Z</time>
      </trkpt>
      <trkpt lat="40.796202" lon="-3.938082">
        <ele>2351.4</ele>
        <time>2018-04-21T11:40:21.000Z</time>
      </trkpt>
      <trkpt lat="40.796203" lon="-3.938085">
        <ele>2351.4</ele>
        <time>2018-04-21T11:40:22.000Z</time>
      </trkpt>
      <trkpt lat="40.796203" lon="-3.938088">
        <ele>2351.4</ele>
        <time>2018-04-21T11:40:23.000Z</time>
      </trkpt>
      <trkpt lat="40.796204" lon="-3.938092">
        <ele>2351.4</ele>
        <time>2018-04-21T11:40:24.000Z</time>
      </trkpt>
      <trkpt lat="40.796205" lon="-3.938097">
        <ele>2351.5</ele>
        <time>2018-04-21T11:40:25.000Z</time>
      </trkpt>
      <trkpt lat="40.796206" lon="-3.938102">
        <ele>2351.5</ele>
        <time>2018-04-21T11:40:26.000Z</time>
      </trkpt>
      <trkpt lat="40.796206" lon="-3.938108">
        <ele>2351.6</ele>
        <time>2018-04-21T11:40:27.000Z</time>
      </trkpt>
      <trkpt lat="40.796206" lon="-3.938114">
        <ele>2351.6</ele>
        <time>2018-04-21T11:40:28.000Z</time>
      </trkpt>
      <trkpt lat="40.796205" lon="-3.938121">
        <ele>2351.7</ele>
        <time>2018-04-21T11:40:29.000Z</time>
      </trkpt>
      <trkpt lat="40.796204" lon="-3.938128">
        <ele>2351.8</ele>
        <time>2018-04-21T11:40:30.000Z</time>
      </trkpt>
      <trkpt lat="40.796202" lon="-3.938135">
        <ele>2351.9</ele>
        <time>2018-04-21T11:40:31.000Z</time>
      </trkpt>
      <trkpt lat="40.796199" lon="-3.938143">
        <ele>2352.0</ele>
        <time>2018-04-21T11:40:32.000Z</time>
      </trkpt>
      <trkpt lat="40.796196" lon="-3.938151">
        <ele>2352.1</ele>
        <time>2018-04-21T11:40:33.000Z</time>
      </trkpt>
      <trkpt lat="40.796193" lon="-3.93816">
        <ele>2352.2</ele>
        <time>2018-04-21T11:40:34.000Z</time>
      </trkpt>
      <trkpt lat="40.79619" lon="-3.938168">
        <ele>2352.3</ele>
        <time>2018-04-21T11:40:35.000Z</time>
      </trkpt>
      <trkpt lat="40.796187" lon="-3.938178">
        <ele>2352.4</ele>
        <time>2018-04-21T11:40:36.000Z</time>
      </trkpt>
      <trkpt lat="40.796185" lon="-3.938187">
        <ele>2352.5</ele>
        <time>2018-04-21T11:40:37.000Z</time>
      </trkpt>
      <trkpt lat="40.796183" lon="-3.938196">
        <ele>2352.7</ele>
        <time>2018-04-21T11:40:38.000Z</time>
      </trkpt>
      <trkpt lat="40.796181" lon="-3.938206">
        <ele>2352.8</ele>
        <time>2018-04-21T11:40:39.000Z</time>
      </trkpt>
      <trkpt lat="40.796181" lon="-3.938216">
        <ele>2352.9</ele>
        <time>2018-04-21T11:40:40.000Z</time>
      </trkpt>
      <trkpt lat="40.796181" lon="-3.938226">
        <ele>2353.0</ele>
        <time>2018-04-21T11:40:41.000Z</time>
      </trkpt>
      <trkpt lat="40.796182" lon="-3.938236">
        <ele>2353.0</ele>
        <time>2018-04-21T11:40:42.000Z</time>
      </trkpt>
      <trkpt lat="40.796182" lon="-3.938246">
        <ele>2353.1</ele>
        <time>2018-04-21T11:40:43.000Z</time>
      </trkpt>
      <trkpt lat="40.796183" lon="-3.938256">
        <ele>2353.2</ele>
        <time>2018-04-21T11:40:44.000Z</time>
      </trkpt>
      <trkpt lat="40.796182" lon="-3.938266">
        <ele>2353.3</ele>
        <time>2018-04-21T11:40:45.000Z</time>
      </trkpt>
      <trkpt lat="40.79618" lon="-3.938276">
        <ele>2353.5</ele>
        <time>2018-04-21T11:40:46.000Z</time>
      </trkpt>
      <trkpt lat="40.796177" lon="-3.938285">
        <ele>2353.6</ele>
        <time>2018-04-21T11:40:47.000Z</time>
      </trkpt>
      <trkpt lat="40.796173" lon="-3.938294">
        <ele>2353.7</ele>
        <time>2018-04-21T11:40:48.000Z</time>
      </trkpt>
      <trkpt lat="40.796166" lon="-3.938303">
        <ele>2353.9</ele>
        <time>2018-04-21T11:40:49.000Z</time>
      </trkpt>
      <trkpt lat="40.796158" lon="-3.938311">
        <ele>2354.1</ele>
        <time>2018-04-21T11:40:50.000Z</time>
      </trkpt>
      <trkpt lat="40.79615" lon="-3.93832">
        <ele>2354.3</ele>
        <time>2018-04-21T11:40:51.000Z</time>
      </trkpt>
      <trkpt lat="40.796143" lon="-3.938329">
        <ele>2354.5</ele>
        <time>2018-04-21T11:40:52.000Z</time>
      </trkpt>
      <trkpt lat="40.796137" lon="-3.938339">
        <ele>2354.5</ele>
        <time>2018-04-21T11:40:53.000Z</time>
      </trkpt>
      <trkpt lat="40.796133" lon="-3.938349">
        <ele>2354.4</ele>
        <time>2018-04-21T11:40:54.000Z</time>
      </trkpt>
      <trkpt lat="40.796131" lon="-3.93836">
        <ele>2354.1</ele>
        <time>2018-04-21T11:40:55.000Z</time>
      </trkpt>
      <trkpt lat="40.79613" lon="-3.938371">
        <ele>2353.9</ele>
        <time>2018-04-21T11:40:56.000Z</time>
      </trkpt>
      <trkpt lat="40.796129" lon="-3.938382">
        <ele>2353.7</ele>
        <time>2018-04-21T11:40:57.000Z</time>
      </trkpt>
      <trkpt lat="40.796128" lon="-3.938393">
        <ele>2353.5</ele>
        <time>2018-04-21T11:40:58.000Z</time>
      </trkpt>
      <trkpt lat="40.796127" lon="-3.938404">
        <ele>2353.3</ele>
        <time>2018-04-21T11:40:59.000Z</time>
      </trkpt>
      <trkpt lat="40.796125" lon="-3.938414">
        <ele>2353.1</ele>
        <time>2018-04-21T11:41:00.000Z</time>
      </trkpt>
      <trkpt lat="40.796122" lon="-3.938423">
        <ele>2352.9</ele>
        <time>2018-04-21T11:41:01.000Z</time>
      </trkpt>
      <trkpt lat="40.796118" lon="-3.938432">
        <ele>2352.8</ele>
        <time>2018-04-21T11:41:02.000Z</time>
      </trkpt>
      <trkpt lat="40.796113" lon="-3.93844">
        <ele>2352.7</ele>
        <time>2018-04-21T11:41:03.000Z</time>
      </trkpt>
      <trkpt lat="40.796107" lon="-3.938448">
        <ele>2352.6</ele>
        <time>2018-04-21T11:41:04.000Z</time>
      </trkpt>
      <trkpt lat="40.796101" lon="-3.938455">
        <ele>2352.6</ele>
        <time>2018-04-21T11:41:05.000Z</time>
      </trkpt>
      <trkpt lat="40.796095" lon="-3.938463">
        <ele>2352.5</ele>
        <time>2018-04-21T11:41:06.000Z</time>
      </trkpt>
      <trkpt lat="40.796088" lon="-3.93847">
        <ele>2352.4</ele>
        <time>2018-04-21T11:41:07.000Z</time>
      </trkpt>
      <trkpt lat="40.796082" lon="-3.938477">
        <ele>2352.4</ele>
        <time>2018-04-21T11:41:08.000Z</time>
      </trkpt>
      <trkpt lat="40.796076" lon="-3.938484">
        <ele>2352.3</ele>
        <time>2018-04-21T11:41:09.000Z</time>
      </trkpt>
      <trkpt lat="40.79607" lon="-3.938491">
        <ele>2352.3</ele>
        <time>2018-04-21T11:41:10.000Z</time>
      </trkpt>
      <trkpt lat="40.796064" lon="-3.938498">
        <ele>2352.2</ele>
        <time>2018-04-21T11:41:11.000Z</time>
      </trkpt>
      <trkpt lat="40.796059" lon="-3.938506">
        <ele>2352.1</ele>
        <time>2018-04-21T11:41:12.000Z</time>
      </trkpt>
      <trkpt lat="40.796053" lon="-3.938514">
        <ele>2352.0</ele>
        <time>2018-04-21T11:41:13.000Z</time>
      </trkpt>
      <trkpt lat="40.796048" lon="-3.938523">
        <ele>2351.9</ele>
        <time>2018-04-21T11:41:14.000Z</time>
      </trkpt>
      <trkpt lat="40.796042" lon="-3.938532">
        <ele>2351.8</ele>
        <time>2018-04-21T11:41:15.000Z</time>
      </trkpt>
      <trkpt lat="40.796037" lon="-3.938541">
        <ele>2351.7</ele>
        <time>2018-04-21T11:41:16.000Z</time>
      </trkpt>
      <trkpt lat="40.796032" lon="-3.938551">
        <ele>2351.6</ele>
        <time>2018-04-21T11:41:17.000Z</time>
      </trkpt>
      <trkpt lat="40.796027" lon="-3.938561">
        <ele>2351.4</ele>
        <time>2018-04-21T11:41:18.000Z</time>
      </trkpt>
      <trkpt lat="40.796023" lon="-3.93857">
        <ele>2351.3</ele>
        <time>2018-04-21T11:41:19.000Z</time>
      </trkpt>
      <trkpt lat="40.796018" lon="-3.93858">
        <ele>2351.2</ele>
        <time>2018-04-21T11:41:20.000Z</time>
      </trkpt>
      <trkpt lat="40.796014" lon="-3.938589">
        <ele>2351.0</ele>
        <time>2018-04-21T11:41:21.000Z</time>
      </trkpt>
      <trkpt lat="40.79601" lon="-3.938597">
        <ele>2350.9</ele>
        <time>2018-04-21T11:41:22.000Z</time>
      </trkpt>
      <trkpt lat="40.796007" lon="-3.938604">
        <ele>2350.8</ele>
        <time>2018-04-21T11:41:23.000Z</time>
      </trkpt>
      <trkpt lat="40.796004" lon="-3.93861">
        <ele>2350.8</ele>
        <time>2018-04-21T11:41:24.000Z</time>
      </trkpt>
      <trkpt lat="40.796001" lon="-3.938615">
        <ele>2350.7</ele>
        <time>2018-04-21T11:41:25.000Z</time>
      </trkpt>
      <trkpt lat="40.795998" lon="-3.938619">
        <ele>2350.7</ele>
        <time>2018-04-21T11:41:26.000Z</time>
      </trkpt>
      <trkpt lat="40.795995" lon="-3.938622">
        <ele>2350.6</ele>
        <time>2018-04-21T11:41:27.000Z</time>
      </trkpt>
      <trkpt lat="40.795992" lon="-3.938625">
        <ele>2350.6</ele>
        <time>2018-04-21T11:41:28.000Z</time>
      </trkpt>
      <trkpt lat="40.79599" lon="-3.938628">
        <ele>2350.6</ele>
        <time>2018-04-21T11:41:29.000Z</time>
      </trkpt>
      <trkpt lat="40.795986" lon="-3.938631">
        <ele>2350.6</ele>
        <time>2018-04-21T11:41:30.000Z</time>
      </trkpt>
      <trkpt lat="40.795983" lon="-3.938633">
        <ele>2350.6</ele>
        <time>2018-04-21T11:41:31.000Z</time>
      </trkpt>
      <trkpt lat="40.795979" lon="-3.938635">
        <ele>2350.6</ele>
        <time>2018-04-21T11:41:32.000Z</time>
      </trkpt>
      <trkpt lat="40.795975" lon="-3.938636">
        <ele>2350.7</ele>
        <time>2018-04-21T11:41:33.000Z</time>
      </trkpt>
      <trkpt lat="40.795971" lon="-3.938635">
        <ele>2350.7</ele>
        <time>2018-04-21T11:41:34.000Z</time>
      </trkpt>
      <trkpt lat="40.795966" lon="-3.938634">
        <ele>2350.8</ele>
        <time>2018-04-21T11:41:35.000Z</time>
      </trkpt>
      <trkpt lat="40.795962" lon="-3.938632">
        <ele>2350.9</ele>
        <time>2018-04-21T11:41:36.000Z</time>
      </trkpt>
      <trkpt lat="40.795957" lon="-3.938629">
        <ele>2351.1</ele>
        <time>2018-04-21T11:41:37.000Z</time>
      </trkpt>
      <trkpt lat="40.795953" lon="-3.938625">
        <ele>2351.2</ele>
        <time>2018-04-21T11:41:38.000Z</time>
      </trkpt>
      <trkpt lat="40.795948" lon="-3.938621">
        <ele>2351.4</ele>
        <time>2018-04-21T11:41:39.000Z</time>
      </trkpt>
      <trkpt lat="40.795944" lon="-3.938617">
        <ele>2351.5</ele>
        <time>2018-04-21T11:41:40.000Z</time>
      </trkpt>
      <trkpt lat="40.79594" lon="-3.938613">
        <ele>2351.7</ele>
        <time>2018-04-21T11:41:41.000Z</time>
      </trkpt>
      <trkpt lat="40.795937" lon="-3.93861">
        <ele>2351.8</ele>
        <time>2018-04-21T11:41:42.000Z</time>
      </trkpt>
      <trkpt lat="40.795934" lon="-3.938607">
        <ele>2351.9</ele>
        <time>2018-04-21T11:41:43.000Z</time>
      </trkpt>
      <trkpt lat="40.795932" lon="-3.938604">
        <ele>2352.0</ele>
        <time>2018-04-21T11:41:44.000Z</time>
      </trkpt>
      <trkpt lat="40.79593" lon="-3.938602">
        <ele>2352.1</ele>
        <time>2018-04-21T11:41:45.000Z</time>
      </trkpt>
      <trkpt lat="40.795928" lon="-3.9386">
        <ele>2352.1</ele>
        <time>2018-04-21T11:41:46.000Z</time>
      </trkpt>
      <trkpt lat="40.795927" lon="-3.938599">
        <ele>2352.2</ele>
        <time>2018-04-21T11:41:47.000Z</time>
      </trkpt>
      <trkpt lat="40.795926" lon="-3.938598">
        <ele>2352.2</ele>
        <time>2018-04-21T11:41:48.000Z</time>
      </trkpt>
      <trkpt lat="40.795925" lon="-3.938597">
        <ele>2352.2</ele>
        <time>2018-04-21T11:41:49.000Z</time>
      </trkpt>
      <trkpt lat="40.795925" lon="-3.938597">
        <ele>2352.2</ele>
        <time>2018-04-21T11:41:50.000Z</time>
      </trkpt>
      <trkpt lat="40.795925" lon="-3.938597">
        <ele>2352.2</ele>
        <time>2018-04-21T11:41:51.000Z</time>
      </trkpt>
      <trkpt lat="40.795925" lon="-3.938597">
        <ele>2352.2</ele>
        <time>2018-04-21T11:41:52.000Z</time>
      </trkpt>
      <trkpt lat="40.795925" lon="-3.938597">
        <ele>2352.2</ele>
        <time>2018-04-21T11:41:53.000Z</time>
      </trkpt>
      <trkpt lat="40.795925" lon="-3.938597">
        <ele>2352.2</ele>
        <time>2018-04-21T11:41:54.000Z</time>
      </trkpt>
      <trkpt lat="40.795925" lon="-3.938598">
        <ele>2352.2</ele>
        <time>2018-04-21T11:41:55.000Z</time>
      </trkpt>
      <trkpt lat="40.795925" lon="-3.938598">
        <ele>2352.2</ele>
        <time>2018-04-21T11:41:56.000Z</time>
      </trkpt>
      <trkpt lat="40.795926" lon="-3.938598">
        <ele>2352.2</ele>
        <time>2018-04-21T11:41:57.000Z</time>
      </trkpt>
      <trkpt lat="40.795926" lon="-3.938598">
        <ele>2352.2</ele>
        <time>2018-04-21T11:41:58.000Z</time>
      </trkpt>
      <trkpt lat="40.795926" lon="-3.938599">
        <ele>2352.2</ele>
        <time>2018-04-21T11:41:59.000Z</time>
      </trkpt>
      <trkpt lat="40.795926" lon="-3.938599">
        <ele>2352.2</ele>
        <time>2018-04-21T11:42:00.000Z</time>
      </trkpt>
      <trkpt lat="40.795926" lon="-3.938598">
        <ele>2352.2</ele>
        <time>2018-04-21T11:42:01.000Z</time>
      </trkpt>
      <trkpt lat="40.795926" lon="-3.938598">
        <ele>2352.2</ele>
        <time>2018-04-21T11:42:02.000Z</time>
      </trkpt>
      <trkpt lat="40.795925" lon="-3.938598">
        <ele>2352.2</ele>
        <time>2018-04-21T11:42:03.000Z</time>
      </trkpt>
      <trkpt lat="40.795925" lon="-3.938598">
        <ele>2352.2</ele>
        <time>2018-04-21T11:42:04.000Z</time>
      </trkpt>
      <trkpt lat="40.795924" lon="-3.938599">
        <ele>2352.2</ele>
        <time>2018-04-21T11:42:05.000Z</time>
      </trkpt>
      <trkpt lat="40.795923" lon="-3.9386">
        <ele>2352.2</ele>
        <time>2018-04-21T11:42:06.000Z</time>
      </trkpt>
      <trkpt lat="40.795922" lon="-3.938601">
        <ele>2352.2</ele>
        <time>2018-04-21T11:42:07.000Z</time>
      </trkpt>
      <trkpt lat="40.795921" lon="-3.938604">
        <ele>2352.1</ele>
        <time>2018-04-21T11:42:08.000Z</time>
      </trkpt>
      <trkpt lat="40.795921" lon="-3.938607">
        <ele>2352.1</ele>
        <time>2018-04-21T11:42:09.000Z</time>
      </trkpt>
      <trkpt lat="40.79592" lon="-3.938611">
        <ele>2352.0</ele>
        <time>2018-04-21T11:42:10.000Z</time>
      </trkpt>
      <trkpt lat="40.795919" lon="-3.938616">
        <ele>2351.9</ele>
        <time>2018-04-21T11:42:11.000Z</time>
      </trkpt>
      <trkpt lat="40.795917" lon="-3.938622">
        <ele>2351.8</ele>
        <time>2018-04-21T11:42:12.000Z</time>
      </trkpt>
      <trkpt lat="40.795916" lon="-3.938627">
        <ele>2351.7</ele>
        <time>2018-04-21T11:42:13.000Z</time>
      </trkpt>
      <trkpt lat="40.795914" lon="-3.938632">
        <ele>2351.7</ele>
        <time>2018-04-21T11:42:14.000Z</time>
      </trkpt>
      <trkpt lat="40.795912" lon="-3.938636">
        <ele>2351.6</ele>
        <time>2018-04-21T11:42:15.000Z</time>
      </trkpt>
      <trkpt lat="40.79591" lon="-3.938639">
        <ele>2351.6</ele>
        <time>2018-04-21T11:42:16.000Z</time>
      </trkpt>
      <trkpt lat="40.795907" lon="-3.938641">
        <ele>2351.6</ele>
        <time>2018-04-21T11:42:17.000Z</time>
      </trkpt>
      <trkpt lat="40.795903" lon="-3.938642">
        <ele>2351.6</ele>
        <time>2018-04-21T11:42:18.000Z</time>
      </trkpt>
      <trkpt lat="40.795899" lon="-3.93864">
        <ele>2351.7</ele>
        <time>2018-04-21T11:42:19.000Z</time>
      </trkpt>
      <trkpt lat="40.795895" lon="-3.938637">
        <ele>2351.9</ele>
        <time>2018-04-21T11:42:20.000Z</time>
      </trkpt>
      <trkpt lat="40.795891" lon="-3.938633">
        <ele>2352.0</ele>
        <time>2018-04-21T11:42:21.000Z</time>
      </trkpt>
      <trkpt lat="40.795887" lon="-3.93863">
        <ele>2352.1</ele>
        <time>2018-04-21T11:42:22.000Z</time>
      </trkpt>
      <trkpt lat="40.795884" lon="-3.938626">
        <ele>2352.3</ele>
        <time>2018-04-21T11:42:23.000Z</time>
      </trkpt>
      <trkpt lat="40.795882" lon="-3.938623">
        <ele>2352.3</ele>
        <time>2018-04-21T11:42:24.000Z</time>
      </trkpt>
      <trkpt lat="40.79588" lon="-3.938622">
        <ele>2352.4</ele>
        <time>2018-04-21T11:42:25.000Z</time>
      </trkpt>
      <trkpt lat="40.79588" lon="-3.938621">
        <ele>2352.4</ele>
        <time>2018-04-21T11:42:26.000Z</time>
      </trkpt>
      <trkpt lat="40.795879" lon="-3.93862">
        <ele>2352.5</ele>
        <time>2018-04-21T11:42:27.000Z</time>
      </trkpt>
      <trkpt lat="40.795879" lon="-3.93862">
        <ele>2352.5</ele>
        <time>2018-04-21T11:42:28.000Z</time>
      </trkpt>
      <trkpt lat="40.795879" lon="-3.938621">
        <ele>2352.4</ele>
        <time>2018-04-21T11:42:29.000Z</time>
      </trkpt>
      <trkpt lat="40.79588" lon="-3.938621">
        <ele>2352.4</ele>
        <time>2018-04-21T11:42:30.000Z</time>
      </trkpt>
      <trkpt lat="40.79588" lon="-3.938621">
        <ele>2352.4</ele>
        <time>2018-04-21T11:42:31.000Z</time>
      </trkpt>
      <trkpt lat="40.79588" lon="-3.938621">
        <ele>2352.4</ele>
        <time>2018-04-21T11:42:32.000Z</time>
      </trkpt>
      <trkpt lat="40.79588" lon="-3.938621">
        <ele>2352.4</ele>
        <time>2018-04-21T11:42:33.000Z</time>
      </trkpt>
      <trkpt lat="40.795879" lon="-3.93862">
        <ele>2352.5</ele>
        <time>2018-04-21T11:42:34.000Z</time>
      </trkpt>
      <trkpt lat="40.795878" lon="-3.938618">
        <ele>2352.5</ele>
        <time>2018-04-21T11:42:35.000Z</time>
      </trkpt>
      <trkpt lat="40.795877" lon="-3.938616">
        <ele>2352.6</ele>
        <time>2018-04-21T11:42:36.000Z</time>
      </trkpt>
      <trkpt lat="40.795875" lon="-3.938612">
        <ele>2352.7</ele>
        <time>2018-04-21T11:42:37.000Z</time>
      </trkpt>
      <trkpt lat="40.795872" lon="-3.938608">
        <ele>2352.8</ele>
        <time>2018-04-21T11:42:38.000Z</time>
      </trkpt>
      <trkpt lat="40.795869" lon="-3.938603">
        <ele>2353.0</ele>
        <time>2018-04-21T11:42:39.000Z</time>
      </trkpt>
      <trkpt lat="40.795866" lon="-3.938598">
        <ele>2353.1</ele>
        <time>2018-04-21T11:42:40.000Z</time>
      </trkpt>
      <trkpt lat="40.795863" lon="-3.938593">
        <ele>2353.3</ele>
        <time>2018-04-21T11:42:41.000Z</time>
      </trkpt>
      <trkpt lat="40.795861" lon="-3.938588">
        <ele>2353.4</ele>
        <time>2018-04-21T11:42:42.000Z</time>
      </trkpt>
      <trkpt lat="40.795858" lon="-3.938584">
        <ele>2353.5</ele>
        <time>2018-04-21T11:42:43.000Z</time>
      </trkpt>
      <trkpt lat="40.795856" lon="-3.938581">
        <ele>2353.6</ele>
        <time>2018-04-21T11:42:44.000Z</time>
      </trkpt>
      <trkpt lat="40.795855" lon="-3.938579">
        <ele>2353.7</ele>
        <time>2018-04-21T11:42:45.000Z</time>
      </trkpt>
      <trkpt lat="40.795854" lon="-3.938578">
        <ele>2353.7</ele>
        <time>2018-04-21T11:42:46.000Z</time>
      </trkpt>
      <trkpt lat="40.795854" lon="-3.938578">
        <ele>2353.7</ele>
        <time>2018-04-21T11:42:47.000Z</time>
      </trkpt>
      <trkpt lat="40.795854" lon="-3.938578">
        <ele>2353.7</ele>
        <time>2018-04-21T11:42:48.000Z</time>
      </trkpt>
      <trkpt lat="40.795854" lon="-3.938577">
        <ele>2353.7</ele>
        <time>2018-04-21T11:42:49.000Z</time>
      </trkpt>
      <trkpt lat="40.795854" lon="-3.938575">
        <ele>2353.8</ele>
        <time>2018-04-21T11:42:50.000Z</time>
      </trkpt>
      <trkpt lat="40.795852" lon="-3.93857">
        <ele>2353.9</ele>
        <time>2018-04-21T11:42:51.000Z</time>
      </trkpt>
      <trkpt lat="40.79585" lon="-3.938564">
        <ele>2354.0</ele>
        <time>2018-04-21T11:42:52.000Z</time>
      </trkpt>
      <trkpt lat="40.795847" lon="-3.938559">
        <ele>2354.2</ele>
        <time>2018-04-21T11:42:53.000Z</time>
      </trkpt>
      <trkpt lat="40.795843" lon="-3.938554">
        <ele>2354.4</ele>
        <time>2018-04-21T11:42:54.000Z</time>
      </trkpt>
      <trkpt lat="40.795838" lon="-3.938551">
        <ele>2354.5</ele>
        <time>2018-04-21T11:42:55.000Z</time>
      </trkpt>
      <trkpt lat="40.795833" lon="-3.93855">
        <ele>2354.6</ele>
        <time>2018-04-21T11:42:56.000Z</time>
      </trkpt>
      <trkpt lat="40.795827" lon="-3.93855">
        <ele>2354.4</ele>
        <time>2018-04-21T11:42:57.000Z</time>
      </trkpt>
      <trkpt lat="40.795822" lon="-3.938549">
        <ele>2354.3</ele>
        <time>2018-04-21T11:42:58.000Z</time>
      </trkpt>
      <trkpt lat="40.795818" lon="-3.938547">
        <ele>2354.3</ele>
        <time>2018-04-21T11:42:59.000Z</time>
      </trkpt>
      <trkpt lat="40.795816" lon="-3.938544">
        <ele>2354.3</ele>
        <time>2018-04-21T11:43:00.000Z</time>
      </trkpt>
      <trkpt lat="40.795813" lon="-3.93854">
        <ele>2354.3</ele>
        <time>2018-04-21T11:43:01.000Z</time>
      </trkpt>
      <trkpt lat="40.79581" lon="-3.938536">
        <ele>2354.3</ele>
        <time>2018-04-21T11:43:02.000Z</time>
      </trkpt>
      <trkpt lat="40.795803" lon="-3.938533">
        <ele>2354.2</ele>
        <time>2018-04-21T11:43:03.000Z</time>
      </trkpt>
      <trkpt lat="40.795794" lon="-3.938531">
        <ele>2354.0</ele>
        <time>2018-04-21T11:43:04.000Z</time>
      </trkpt>
      <trkpt lat="40.795781" lon="-3.938531">
        <ele>2353.7</ele>
        <time>2018-04-21T11:43:05.000Z</time>
      </trkpt>
      <trkpt lat="40.795767" lon="-3.938533">
        <ele>2353.3</ele>
        <time>2018-04-21T11:43:06.000Z</time>
      </trkpt>
      <trkpt lat="40.795751" lon="-3.938538">
        <ele>2352.8</ele>
        <time>2018-04-21T11:43:07.000Z</time>
      </trkpt>
      <trkpt lat="40.795735" lon="-3.938544">
        <ele>2352.3</ele>
        <time>2018-04-21T11:43:08.000Z</time>
      </trkpt>
      <trkpt lat="40.795719" lon="-3.938553">
        <ele>2351.7</ele>
        <time>2018-04-21T11:43:09.000Z</time>
      </trkpt>
      <trkpt lat="40.795704" lon="-3.938564">
        <ele>2351.1</ele>
        <time>2018-04-21T11:43:10.000Z</time>
      </trkpt>
      <trkpt lat="40.79569" lon="-3.938575">
        <ele>2350.6</ele>
        <time>2018-04-21T11:43:11.000Z</time>
      </trkpt>
      <trkpt lat="40.795679" lon="-3.938587">
        <ele>2350.1</ele>
        <time>2018-04-21T11:43:12.000Z</time>
      </trkpt>
      <trkpt lat="40.79567" lon="-3.938597">
        <ele>2349.7</ele>
        <time>2018-04-21T11:43:13.000Z</time>
      </trkpt>
      <trkpt lat="40.795663" lon="-3.938606">
        <ele>2349.3</ele>
        <time>2018-04-21T11:43:14.000Z</time>
      </trkpt>
      <trkpt lat="40.795659" lon="-3.938614">
        <ele>2349.1</ele>
        <time>2018-04-21T11:43:15.000Z</time>
      </trkpt>
      <trkpt lat="40.795656" lon="-3.938621">
        <ele>2348.9</ele>
        <time>2018-04-21T11:43:16.000Z</time>
      </trkpt>
      <trkpt lat="40.795654" lon="-3.938627">
        <ele>2348.7</ele>
        <time>2018-04-21T11:43:17.000Z</time>
      </trkpt>
      <trkpt lat="40.795654" lon="-3.938632">
        <ele>2348.6</ele>
        <time>2018-04-21T11:43:18.000Z</time>
      </trkpt>
      <trkpt lat="40.795654" lon="-3.938637">
        <ele>2348.5</ele>
        <time>2018-04-21T11:43:19.000Z</time>
      </trkpt>
      <trkpt lat="40.795654" lon="-3.938641">
        <ele>2348.5</ele>
        <time>2018-04-21T11:43:20.000Z</time>
      </trkpt>
      <trkpt lat="40.795655" lon="-3.938644">
        <ele>2348.4</ele>
        <time>2018-04-21T11:43:21.000Z</time>
      </trkpt>
      <trkpt lat="40.795656" lon="-3.938647">
        <ele>2348.4</ele>
        <time>2018-04-21T11:43:22.000Z</time>
      </trkpt>
      <trkpt lat="40.795657" lon="-3.938649">
        <ele>2348.4</ele>
        <time>2018-04-21T11:43:23.000Z</time>
      </trkpt>
      <trkpt lat="40.795657" lon="-3.938651">
        <ele>2348.3</ele>
        <time>2018-04-21T11:43:24.000Z</time>
      </trkpt>
      <trkpt lat="40.795657" lon="-3.938653">
        <ele>2348.3</ele>
        <time>2018-04-21T11:43:25.000Z</time>
      </trkpt>
      <trkpt lat="40.795658" lon="-3.938654">
        <ele>2348.3</ele>
        <time>2018-04-21T11:43:26.000Z</time>
      </trkpt>
      <trkpt lat="40.795658" lon="-3.938655">
        <ele>2348.3</ele>
        <time>2018-04-21T11:43:27.000Z</time>
      </trkpt>
      <trkpt lat="40.795658" lon="-3.938655">
        <ele>2348.3</ele>
        <time>2018-04-21T11:43:28.000Z</time>
      </trkpt>
      <trkpt lat="40.795658" lon="-3.938656">
        <ele>2348.3</ele>
        <time>2018-04-21T11:43:29.000Z</time>
      </trkpt>
      <trkpt lat="40.795658" lon="-3.938656">
        <ele>2348.3</ele>
        <time>2018-04-21T11:43:30.000Z</time>
      </trkpt>
      <trkpt lat="40.795658" lon="-3.938657">
        <ele>2348.3</ele>
        <time>2018-04-21T11:43:31.000Z</time>
      </trkpt>
      <trkpt lat="40.795659" lon="-3.938657">
        <ele>2348.3</ele>
        <time>2018-04-21T11:43:32.000Z</time>
      </trkpt>
      <trkpt lat="40.795659" lon="-3.938657">
        <ele>2348.3</ele>
        <time>2018-04-21T11:43:33.000Z</time>
      </trkpt>
      <trkpt lat="40.795659" lon="-3.938657">
        <ele>2348.3</ele>
        <time>2018-04-21T11:43:34.000Z</time>
      </trkpt>
      <trkpt lat="40.795659" lon="-3.938658">
        <ele>2348.3</ele>
        <time>2018-04-21T11:43:35.000Z</time>
      </trkpt>
      <trkpt lat="40.795659" lon="-3.938658">
        <ele>2348.3</ele>
        <time>2018-04-21T11:43:36.000Z</time>
      </trkpt>
      <trkpt lat="40.795659" lon="-3.938658">
        <ele>2348.3</ele>
        <time>2018-04-21T11:43:37.000Z</time>
      </trkpt>
      <trkpt lat="40.795659" lon="-3.938658">
        <ele>2348.3</ele>
        <time>2018-04-21T11:43:38.000Z</time>
      </trkpt>
      <trkpt lat="40.795659" lon="-3.938658">
        <ele>2348.3</ele>
        <time>2018-04-21T11:43:39.000Z</time>
      </trkpt>
      <trkpt lat="40.795659" lon="-3.938658">
        <ele>2348.3</ele>
        <time>2018-04-21T11:43:40.000Z</time>
      </trkpt>
      <trkpt lat="40.795659" lon="-3.938658">
        <ele>2348.3</ele>
        <time>2018-04-21T11:43:41.000Z</time>
      </trkpt>
      <trkpt lat="40.795659" lon="-3.938658">
        <ele>2348.3</ele>
        <time>2018-04-21T11:43:42.000Z</time>
      </trkpt>
      <trkpt lat="40.795659" lon="-3.938658">
        <ele>2348.3</ele>
        <time>2018-04-21T11:43:43.000Z</time>
      </trkpt>
      <trkpt lat="40.795659" lon="-3.938658">
        <ele>2348.3</ele>
        <time>2018-04-21T11:43:44.000Z</time>
      </trkpt>
      <trkpt lat="40.795659" lon="-3.938659">
        <ele>2348.2</ele>
        <time>2018-04-21T11:43:45.000Z</time>
      </trkpt>
      <trkpt lat="40.795659" lon="-3.938659">
        <ele>2348.2</ele>
        <time>2018-04-21T11:43:46.000Z</time>
      </trkpt>
      <trkpt lat="40.795659" lon="-3.938659">
        <ele>2348.2</ele>
        <time>2018-04-21T11:43:47.000Z</time>
      </trkpt>
      <trkpt lat="40.795659" lon="-3.938659">
        <ele>2348.2</ele>
        <time>2018-04-21T11:43:48.000Z</time>
      </trkpt>
      <trkpt lat="40.795659" lon="-3.938659">
        <ele>2348.2</ele>
        <time>2018-04-21T11:43:49.000Z</time>
      </trkpt>
      <trkpt lat="40.795659" lon="-3.938659">
        <ele>2348.2</ele>
        <time>2018-04-21T11:43:50.000Z</time>
      </trkpt>
      <trkpt lat="40.795659" lon="-3.938659">
        <ele>2348.2</ele>
        <time>2018-04-21T11:43:51.000Z</time>
      </trkpt>
      <trkpt lat="40.795659" lon="-3.938659">
        <ele>2348.2</ele>
        <time>2018-04-21T11:43:52.000Z</time>
      </trkpt>
      <trkpt lat="40.795659" lon="-3.938659">
        <ele>2348.2</ele>
        <time>2018-04-21T11:43:53.000Z</time>
      </trkpt>
      <trkpt lat="40.795659" lon="-3.938659">
        <ele>2348.2</ele>
        <time>2018-04-21T11:43:54.000Z</time>
      </trkpt>
      <trkpt lat="40.795659" lon="-3.938659">
        <ele>2348.2</ele>
        <time>2018-04-21T11:43:55.000Z</time>
      </trkpt>
      <trkpt lat="40.795659" lon="-3.938659">
        <ele>2348.2</ele>
        <time>2018-04-21T11:43:56.000Z</time>
      </trkpt>
      <trkpt lat="40.795659" lon="-3.938659">
        <ele>2348.2</ele>
        <time>2018-04-21T11:43:57.000Z</time>
      </trkpt>
      <trkpt lat="40.795659" lon="-3.938658">
        <ele>2348.3</ele>
        <time>2018-04-21T11:43:58.000Z</time>
      </trkpt>
      <trkpt lat="40.795659" lon="-3.938658">
        <ele>2348.3</ele>
        <time>2018-04-21T11:43:59.000Z</time>
      </trkpt>
      <trkpt lat="40.795659" lon="-3.938658">
        <ele>2348.3</ele>
        <time>2018-04-21T11:44:00.000Z</time>
      </trkpt>
      <trkpt lat="40.795659" lon="-3.938658">
        <ele>2348.3</ele>
        <time>2018-04-21T11:44:01.000Z</time>
      </trkpt>
      <trkpt lat="40.795659" lon="-3.938658">
        <ele>2348.3</ele>
        <time>2018-04-21T11:44:02.000Z</time>
      </trkpt>
      <trkpt lat="40.795659" lon="-3.938658">
        <ele>2348.3</ele>
        <time>2018-04-21T11:44:03.000Z</time>
      </trkpt>
      <trkpt lat="40.795659" lon="-3.938658">
        <ele>2348.3</ele>
        <time>2018-04-21T11:44:04.000Z</time>
      </trkpt>
      <trkpt lat="40.795659" lon="-3.938658">
        <ele>2348.3</ele>
        <time>2018-04-21T11:44:05.000Z</time>
      </trkpt>
      <trkpt lat="40.795659" lon="-3.938658">
        <ele>2348.3</ele>
        <time>2018-04-21T11:44:06.000Z</time>
      </trkpt>
      <trkpt lat="40.795659" lon="-3.938658">
        <ele>2348.3</ele>
        <time>2018-04-21T11:44:07.000Z</time>
      </trkpt>
      <trkpt lat="40.795659" lon="-3.938658">
        <ele>2348.3</ele>
        <time>2018-04-21T11:44:08.000Z</time>
      </trkpt>
      <trkpt lat="40.795659" lon="-3.938658">
        <ele>2348.3</ele>
        <time>2018-04-21T11:44:09.000Z</time>
      </trkpt>
      <trkpt lat="40.795659" lon="-3.938658">
        <ele>2348.3</ele>
        <time>2018-04-21T11:44:10.000Z</time>
      </trkpt>
      <trkpt lat="40.795659" lon="-3.938658">
        <ele>2348.3</ele>
        <time>2018-04-21T11:44:11.000Z</time>
      </trkpt>
      <trkpt lat="40.795659" lon="-3.938658">
        <ele>2348.3</ele>
        <time>2018-04-21T11:44:12.000Z</time>
      </trkpt>
      <trkpt lat="40.795659" lon="-3.938658">
        <ele>2348.3</ele>
        <time>2018-04-21T11:44:13.000Z</time>
      </trkpt>
      <trkpt lat="40.795659" lon="-3.938658">
        <ele>2348.3</ele>
        <time>2018-04-21T11:44:14.000Z</time>
      </trkpt>
      <trkpt lat="40.795659" lon="-3.938658">
        <ele>2348.3</ele>
        <time>2018-04-21T11:44:15.000Z</time>
      </trkpt>
      <trkpt lat="40.795659" lon="-3.938659">
        <ele>2348.2</ele>
        <time>2018-04-21T11:44:16.000Z</time>
      </trkpt>
      <trkpt lat="40.795659" lon="-3.938659">
        <ele>2348.2</ele>
        <time>2018-04-21T11:44:17.000Z</time>
      </trkpt>
      <trkpt lat="40.795659" lon="-3.938659">
        <ele>2348.2</ele>
        <time>2018-04-21T11:44:18.000Z</time>
      </trkpt>
      <trkpt lat="40.795659" lon="-3.938659">
        <ele>2348.2</ele>
        <time>2018-04-21T11:44:19.000Z</time>
      </trkpt>
      <trkpt lat="40.795659" lon="-3.938659">
        <ele>2348.2</ele>
        <time>2018-04-21T11:44:20.000Z</time>
      </trkpt>
      <trkpt lat="40.795659" lon="-3.938659">
        <ele>2348.2</ele>
        <time>2018-04-21T11:44:21.000Z</time>
      </trkpt>
      <trkpt lat="40.795659" lon="-3.938659">
        <ele>2348.2</ele>
        <time>2018-04-21T11:44:22.000Z</time>
      </trkpt>
      <trkpt lat="40.795659" lon="-3.938659">
        <ele>2348.2</ele>
        <time>2018-04-21T11:44:23.000Z</time>
      </trkpt>
      <trkpt lat="40.795659" lon="-3.938659">
        <ele>2348.2</ele>
        <time>2018-04-21T11:44:24.000Z</time>
      </trkpt>
      <trkpt lat="40.795659" lon="-3.938659">
        <ele>2348.2</ele>
        <time>2018-04-21T11:44:25.000Z</time>
      </trkpt>
      <trkpt lat="40.795659" lon="-3.938659">
        <ele>2348.2</ele>
        <time>2018-04-21T11:44:26.000Z</time>
      </trkpt>
      <trkpt lat="40.795659" lon="-3.938659">
        <ele>2348.2</ele>
        <time>2018-04-21T11:44:27.000Z</time>
      </trkpt>
      <trkpt lat="40.795659" lon="-3.938658">
        <ele>2348.3</ele>
        <time>2018-04-21T11:44:28.000Z</time>
      </trkpt>
      <trkpt lat="40.795659" lon="-3.938658">
        <ele>2348.3</ele>
        <time>2018-04-21T11:44:29.000Z</time>
      </trkpt>
      <trkpt lat="40.795659" lon="-3.938658">
        <ele>2348.3</ele>
        <time>2018-04-21T11:44:30.000Z</time>
      </trkpt>
      <trkpt lat="40.795659" lon="-3.938657">
        <ele>2348.3</ele>
        <time>2018-04-21T11:44:31.000Z</time>
      </trkpt>
      <trkpt lat="40.795659" lon="-3.938657">
        <ele>2348.3</ele>
        <time>2018-04-21T11:44:32.000Z</time>
      </trkpt>
      <trkpt lat="40.795658" lon="-3.938656">
        <ele>2348.3</ele>
        <time>2018-04-21T11:44:33.000Z</time>
      </trkpt>
      <trkpt lat="40.795658" lon="-3.938655">
        <ele>2348.3</ele>
        <time>2018-04-21T11:44:34.000Z</time>
      </trkpt>
      <trkpt lat="40.795657" lon="-3.938654">
        <ele>2348.3</ele>
        <time>2018-04-21T11:44:35.000Z</time>
      </trkpt>
      <trkpt lat="40.795656" lon="-3.938653">
        <ele>2348.3</ele>
        <time>2018-04-21T11:44:36.000Z</time>
      </trkpt>
      <trkpt lat="40.795655" lon="-3.938653">
        <ele>2348.3</ele>
        <time>2018-04-21T11:44:37.000Z</time>
      </trkpt>
      <trkpt lat="40.795653" lon="-3.938654">
        <ele>2348.2</ele>
        <time>2018-04-21T11:44:38.000Z</time>
      </trkpt>
      <trkpt lat="40.79565" lon="-3.938656">
        <ele>2348.1</ele>
        <time>2018-04-21T11:44:39.000Z</time>
      </trkpt>
      <trkpt lat="40.795647" lon="-3.938659">
        <ele>2348.0</ele>
        <time>2018-04-21T11:44:40.000Z</time>
      </trkpt>
      <trkpt lat="40.795642" lon="-3.938664">
        <ele>2347.7</ele>
        <time>2018-04-21T11:44:41.000Z</time>
      </trkpt>
      <trkpt lat="40.795637" lon="-3.93867">
        <ele>2347.5</ele>
        <time>2018-04-21T11:44:42.000Z</time>
      </trkpt>
      <trkpt lat="40.79563" lon="-3.938679">
        <ele>2347.2</ele>
        <time>2018-04-21T11:44:43.000Z</time>
      </trkpt>
      <trkpt lat="40.795622" lon="-3.93869">
        <ele>2346.8</ele>
        <time>2018-04-21T11:44:44.000Z</time>
      </trkpt>
      <trkpt lat="40.795613" lon="-3.938702">
        <ele>2346.4</ele>
        <time>2018-04-21T11:44:45.000Z</time>
      </trkpt>
      <trkpt lat="40.795604" lon="-3.938715">
        <ele>2345.9</ele>
        <time>2018-04-21T11:44:46.000Z</time>
      </trkpt>
      <trkpt lat="40.795594" lon="-3.93873">
        <ele>2345.4</ele>
        <time>2018-04-21T11:44:47.000Z</time>
      </trkpt>
      <trkpt lat="40.795584" lon="-3.938744">
        <ele>2344.9</ele>
        <time>2018-04-21T11:44:48.000Z</time>
      </trkpt>
      <trkpt lat="40.795573" lon="-3.938759">
        <ele>2344.4</ele>
        <time>2018-04-21T11:44:49.000Z</time>
      </trkpt>
      <trkpt lat="40.795563" lon="-3.938774">
        <ele>2343.9</ele>
        <time>2018-04-21T11:44:50.000Z</time>
      </trkpt>
      <trkpt lat="40.795553" lon="-3.938789">
        <ele>2343.4</ele>
        <time>2018-04-21T11:44:51.000Z</time>
      </trkpt>
      <trkpt lat="40.795543" lon="-3.938803">
        <ele>2342.9</ele>
        <time>2018-04-21T11:44:52.000Z</time>
      </trkpt>
      <trkpt lat="40.795534" lon="-3.938816">
        <ele>2342.5</ele>
        <time>2018-04-21T11:44:53.000Z</time>
      </trkpt>
      <trkpt lat="40.795525" lon="-3.938828">
        <ele>2342.1</ele>
        <time>2018-04-21T11:44:54.000Z</time>
      </trkpt>
      <trkpt lat="40.795517" lon="-3.93884">
        <ele>2341.7</ele>
        <time>2018-04-21T11:44:55.000Z</time>
      </trkpt>
      <trkpt lat="40.795509" lon="-3.938851">
        <ele>2341.3</ele>
        <time>2018-04-21T11:44:56.000Z</time>
      </trkpt>
      <trkpt lat="40.795502" lon="-3.938861">
        <ele>2341.0</ele>
        <time>2018-04-21T11:44:57.000Z</time>
      </trkpt>
      <trkpt lat="40.795496" lon="-3.93887">
        <ele>2340.7</ele>
        <time>2018-04-21T11:44:58.000Z</time>
      </trkpt>
      <trkpt lat="40.79549" lon="-3.938878">
        <ele>2340.4</ele>
        <time>2018-04-21T11:44:59.000Z</time>
      </trkpt>
      <trkpt lat="40.795484" lon="-3.938885">
        <ele>2340.2</ele>
        <time>2018-04-21T11:45:00.000Z</time>
      </trkpt>
      <trkpt lat="40.79548" lon="-3.938891">
        <ele>2340.0</ele>
        <time>2018-04-21T11:45:01.000Z</time>
      </trkpt>
      <trkpt lat="40.795475" lon="-3.938897">
        <ele>2339.8</ele>
        <time>2018-04-21T11:45:02.000Z</time>
      </trkpt>
      <trkpt lat="40.795471" lon="-3.938901">
        <ele>2339.6</ele>
        <time>2018-04-21T11:45:03.000Z</time>
      </trkpt>
      <trkpt lat="40.795467" lon="-3.938906">
        <ele>2339.5</ele>
        <time>2018-04-21T11:45:04.000Z</time>
      </trkpt>
      <trkpt lat="40.795464" lon="-3.93891">
        <ele>2339.3</ele>
        <time>2018-04-21T11:45:05.000Z</time>
      </trkpt>
      <trkpt lat="40.795459" lon="-3.938914">
        <ele>2339.2</ele>
        <time>2018-04-21T11:45:06.000Z</time>
      </trkpt>
      <trkpt lat="40.795455" lon="-3.938919">
        <ele>2339.0</ele>
        <time>2018-04-21T11:45:07.000Z</time>
      </trkpt>
      <trkpt lat="40.795449" lon="-3.938923">
        <ele>2338.8</ele>
        <time>2018-04-21T11:45:08.000Z</time>
      </trkpt>
      <trkpt lat="40.795443" lon="-3.938928">
        <ele>2338.6</ele>
        <time>2018-04-21T11:45:09.000Z</time>
      </trkpt>
      <trkpt lat="40.795436" lon="-3.938934">
        <ele>2338.3</ele>
        <time>2018-04-21T11:45:10.000Z</time>
      </trkpt>
      <trkpt lat="40.795428" lon="-3.938941">
        <ele>2338.0</ele>
        <time>2018-04-21T11:45:11.000Z</time>
      </trkpt>
      <trkpt lat="40.79542" lon="-3.938949">
        <ele>2337.7</ele>
        <time>2018-04-21T11:45:12.000Z</time>
      </trkpt>
      <trkpt lat="40.795412" lon="-3.938957">
        <ele>2337.4</ele>
        <time>2018-04-21T11:45:13.000Z</time>
      </trkpt>
      <trkpt lat="40.795405" lon="-3.938967">
        <ele>2337.1</ele>
        <time>2018-04-21T11:45:14.000Z</time>
      </trkpt>
      <trkpt lat="40.795398" lon="-3.938979">
        <ele>2336.8</ele>
        <time>2018-04-21T11:45:15.000Z</time>
      </trkpt>
      <trkpt lat="40.795393" lon="-3.938992">
        <ele>2336.4</ele>
        <time>2018-04-21T11:45:16.000Z</time>
      </trkpt>
      <trkpt lat="40.795389" lon="-3.939005">
        <ele>2336.1</ele>
        <time>2018-04-21T11:45:17.000Z</time>
      </trkpt>
      <trkpt lat="40.795386" lon="-3.93902">
        <ele>2335.8</ele>
        <time>2018-04-21T11:45:18.000Z</time>
      </trkpt>
      <trkpt lat="40.795386" lon="-3.939036">
        <ele>2335.6</ele>
        <time>2018-04-21T11:45:19.000Z</time>
      </trkpt>
      <trkpt lat="40.795387" lon="-3.939051">
        <ele>2335.3</ele>
        <time>2018-04-21T11:45:20.000Z</time>
      </trkpt>
      <trkpt lat="40.79539" lon="-3.939067">
        <ele>2335.1</ele>
        <time>2018-04-21T11:45:21.000Z</time>
      </trkpt>
      <trkpt lat="40.795394" lon="-3.939083">
        <ele>2335.0</ele>
        <time>2018-04-21T11:45:22.000Z</time>
      </trkpt>
      <trkpt lat="40.795398" lon="-3.939097">
        <ele>2334.8</ele>
        <time>2018-04-21T11:45:23.000Z</time>
      </trkpt>
      <trkpt lat="40.795403" lon="-3.93911">
        <ele>2334.7</ele>
        <time>2018-04-21T11:45:24.000Z</time>
      </trkpt>
      <trkpt lat="40.795408" lon="-3.939122">
        <ele>2334.6</ele>
        <time>2018-04-21T11:45:25.000Z</time>
      </trkpt>
      <trkpt lat="40.795412" lon="-3.939131">
        <ele>2334.5</ele>
        <time>2018-04-21T11:45:26.000Z</time>
      </trkpt>
      <trkpt lat="40.795416" lon="-3.939138">
        <ele>2334.5</ele>
        <time>2018-04-21T11:45:27.000Z</time>
      </trkpt>
      <trkpt lat="40.795418" lon="-3.939142">
        <ele>2334.4</ele>
        <time>2018-04-21T11:45:28.000Z</time>
      </trkpt>
      <trkpt lat="40.79542" lon="-3.939144">
        <ele>2334.4</ele>
        <time>2018-04-21T11:45:29.000Z</time>
      </trkpt>
      <trkpt lat="40.795422" lon="-3.939144">
        <ele>2334.5</ele>
        <time>2018-04-21T11:45:30.000Z</time>
      </trkpt>
      <trkpt lat="40.795423" lon="-3.939143">
        <ele>2334.5</ele>
        <time>2018-04-21T11:45:31.000Z</time>
      </trkpt>
      <trkpt lat="40.795423" lon="-3.939142">
        <ele>2334.5</ele>
        <time>2018-04-21T11:45:32.000Z</time>
      </trkpt>
      <trkpt lat="40.795423" lon="-3.939141">
        <ele>2334.6</ele>
        <time>2018-04-21T11:45:33.000Z</time>
      </trkpt>
      <trkpt lat="40.795423" lon="-3.939141">
        <ele>2334.6</ele>
        <time>2018-04-21T11:45:34.000Z</time>
      </trkpt>
      <trkpt lat="40.795424" lon="-3.939143">
        <ele>2334.5</ele>
        <time>2018-04-21T11:45:35.000Z</time>
      </trkpt>
      <trkpt lat="40.795424" lon="-3.939147">
        <ele>2334.5</ele>
        <time>2018-04-21T11:45:36.000Z</time>
      </trkpt>
      <trkpt lat="40.795425" lon="-3.939154">
        <ele>2334.4</ele>
        <time>2018-04-21T11:45:37.000Z</time>
      </trkpt>
      <trkpt lat="40.795426" lon="-3.939164">
        <ele>2334.2</ele>
        <time>2018-04-21T11:45:38.000Z</time>
      </trkpt>
      <trkpt lat="40.795428" lon="-3.939176">
        <ele>2334.0</ele>
        <time>2018-04-21T11:45:39.000Z</time>
      </trkpt>
      <trkpt lat="40.79543" lon="-3.93919">
        <ele>2333.6</ele>
        <time>2018-04-21T11:45:40.000Z</time>
      </trkpt>
      <trkpt lat="40.795432" lon="-3.939205">
        <ele>2333.3</ele>
        <time>2018-04-21T11:45:41.000Z</time>
      </trkpt>
      <trkpt lat="40.795435" lon="-3.939222">
        <ele>2332.8</ele>
        <time>2018-04-21T11:45:42.000Z</time>
      </trkpt>
      <trkpt lat="40.795438" lon="-3.939239">
        <ele>2332.4</ele>
        <time>2018-04-21T11:45:43.000Z</time>
      </trkpt>
      <trkpt lat="40.795441" lon="-3.939257">
        <ele>2332.0</ele>
        <time>2018-04-21T11:45:44.000Z</time>
      </trkpt>
      <trkpt lat="40.795445" lon="-3.939274">
        <ele>2331.6</ele>
        <time>2018-04-21T11:45:45.000Z</time>
      </trkpt>
      <trkpt lat="40.795448" lon="-3.939292">
        <ele>2331.2</ele>
        <time>2018-04-21T11:45:46.000Z</time>
      </trkpt>
      <trkpt lat="40.795452" lon="-3.939308">
        <ele>2330.8</ele>
        <time>2018-04-21T11:45:47.000Z</time>
      </trkpt>
      <trkpt lat="40.795456" lon="-3.939325">
        <ele>2330.4</ele>
        <time>2018-04-21T11:45:48.000Z</time>
      </trkpt>
      <trkpt lat="40.79546" lon="-3.939341">
        <ele>2330.0</ele>
        <time>2018-04-21T11:45:49.000Z</time>
      </trkpt>
      <trkpt lat="40.795465" lon="-3.939356">
        <ele>2329.7</ele>
        <time>2018-04-21T11:45:50.000Z</time>
      </trkpt>
      <trkpt lat="40.795469" lon="-3.93937">
        <ele>2329.4</ele>
        <time>2018-04-21T11:45:51.000Z</time>
      </trkpt>
      <trkpt lat="40.795473" lon="-3.939384">
        <ele>2329.1</ele>
        <time>2018-04-21T11:45:52.000Z</time>
      </trkpt>
      <trkpt lat="40.795477" lon="-3.939396">
        <ele>2328.8</ele>
        <time>2018-04-21T11:45:53.000Z</time>
      </trkpt>
      <trkpt lat="40.795481" lon="-3.939408">
        <ele>2328.5</ele>
        <time>2018-04-21T11:45:54.000Z</time>
      </trkpt>
      <trkpt lat="40.795485" lon="-3.939419">
        <ele>2328.3</ele>
        <time>2018-04-21T11:45:55.000Z</time>
      </trkpt>
      <trkpt lat="40.795489" lon="-3.939429">
        <ele>2328.1</ele>
        <time>2018-04-21T11:45:56.000Z</time>
      </trkpt>
      <trkpt lat="40.795492" lon="-3.939438">
        <ele>2327.9</ele>
        <time>2018-04-21T11:45:57.000Z</time>
      </trkpt>
      <trkpt lat="40.795495" lon="-3.939446">
        <ele>2327.7</ele>
        <time>2018-04-21T11:45:58.000Z</time>
      </trkpt>
      <trkpt lat="40.795498" lon="-3.939453">
        <ele>2327.5</ele>
        <time>2018-04-21T11:45:59.000Z</time>
      </trkpt>
      <trkpt lat="40.795501" lon="-3.939459">
        <ele>2327.4</ele>
        <time>2018-04-21T11:46:00.000Z</time>
      </trkpt>
      <trkpt lat="40.795503" lon="-3.939465">
        <ele>2327.3</ele>
        <time>2018-04-21T11:46:01.000Z</time>
      </trkpt>
      <trkpt lat="40.795505" lon="-3.93947">
        <ele>2327.2</ele>
        <time>2018-04-21T11:46:02.000Z</time>
      </trkpt>
      <trkpt lat="40.795507" lon="-3.939474">
        <ele>2327.1</ele>
        <time>2018-04-21T11:46:03.000Z</time>
      </trkpt>
      <trkpt lat="40.795508" lon="-3.939477">
        <ele>2327.0</ele>
        <time>2018-04-21T11:46:04.000Z</time>
      </trkpt>
      <trkpt lat="40.795509" lon="-3.939481">
        <ele>2326.9</ele>
        <time>2018-04-21T11:46:05.000Z</time>
      </trkpt>
      <trkpt lat="40.79551" lon="-3.939484">
        <ele>2326.8</ele>
        <time>2018-04-21T11:46:06.000Z</time>
      </trkpt>
      <trkpt lat="40.79551" lon="-3.939488">
        <ele>2326.7</ele>
        <time>2018-04-21T11:46:07.000Z</time>
      </trkpt>
      <trkpt lat="40.795509" lon="-3.939492">
        <ele>2326.6</ele>
        <time>2018-04-21T11:46:08.000Z</time>
      </trkpt>
      <trkpt lat="40.795509" lon="-3.939498">
        <ele>2326.4</ele>
        <time>2018-04-21T11:46:09.000Z</time>
      </trkpt>
      <trkpt lat="40.795508" lon="-3.939505">
        <ele>2326.2</ele>
        <time>2018-04-21T11:46:10.000Z</time>
      </trkpt>
      <trkpt lat="40.795507" lon="-3.939515">
        <ele>2325.9</ele>
        <time>2018-04-21T11:46:11.000Z</time>
      </trkpt>
      <trkpt lat="40.795505" lon="-3.939526">
        <ele>2325.6</ele>
        <time>2018-04-21T11:46:12.000Z</time>
      </trkpt>
      <trkpt lat="40.795504" lon="-3.93954">
        <ele>2325.2</ele>
        <time>2018-04-21T11:46:13.000Z</time>
      </trkpt>
      <trkpt lat="40.795502" lon="-3.939555">
        <ele>2324.7</ele>
        <time>2018-04-21T11:46:14.000Z</time>
      </trkpt>
      <trkpt lat="40.795501" lon="-3.939569">
        <ele>2324.3</ele>
        <time>2018-04-21T11:46:15.000Z</time>
      </trkpt>
      <trkpt lat="40.7955" lon="-3.939582">
        <ele>2323.9</ele>
        <time>2018-04-21T11:46:16.000Z</time>
      </trkpt>
      <trkpt lat="40.795501" lon="-3.939592">
        <ele>2323.7</ele>
        <time>2018-04-21T11:46:17.000Z</time>
      </trkpt>
      <trkpt lat="40.795502" lon="-3.939597">
        <ele>2323.5</ele>
        <time>2018-04-21T11:46:18.000Z</time>
      </trkpt>
      <trkpt lat="40.795505" lon="-3.939599">
        <ele>2323.5</ele>
        <time>2018-04-21T11:46:19.000Z</time>
      </trkpt>
      <trkpt lat="40.795508" lon="-3.9396">
        <ele>2323.5</ele>
        <time>2018-04-21T11:46:20.000Z</time>
      </trkpt>
      <trkpt lat="40.795511" lon="-3.9396">
        <ele>2323.6</ele>
        <time>2018-04-21T11:46:21.000Z</time>
      </trkpt>
      <trkpt lat="40.795515" lon="-3.939601">
        <ele>2323.6</ele>
        <time>2018-04-21T11:46:22.000Z</time>
      </trkpt>
      <trkpt lat="40.795518" lon="-3.939604">
        <ele>2323.6</ele>
        <time>2018-04-21T11:46:23.000Z</time>
      </trkpt>
      <trkpt lat="40.795521" lon="-3.939608">
        <ele>2323.5</ele>
        <time>2018-04-21T11:46:24.000Z</time>
      </trkpt>
      <trkpt lat="40.795524" lon="-3.939612">
        <ele>2323.4</ele>
        <time>2018-04-21T11:46:25.000Z</time>
      </trkpt>
      <trkpt lat="40.795527" lon="-3.939617">
        <ele>2323.3</ele>
        <time>2018-04-21T11:46:26.000Z</time>
      </trkpt>
      <trkpt lat="40.795531" lon="-3.939623">
        <ele>2323.2</ele>
        <time>2018-04-21T11:46:27.000Z</time>
      </trkpt>
      <trkpt lat="40.795534" lon="-3.939628">
        <ele>2323.1</ele>
        <time>2018-04-21T11:46:28.000Z</time>
      </trkpt>
      <trkpt lat="40.795538" lon="-3.939634">
        <ele>2323.0</ele>
        <time>2018-04-21T11:46:29.000Z</time>
      </trkpt>
      <trkpt lat="40.795543" lon="-3.939639">
        <ele>2322.9</ele>
        <time>2018-04-21T11:46:30.000Z</time>
      </trkpt>
      <trkpt lat="40.795548" lon="-3.939645">
        <ele>2322.8</ele>
        <time>2018-04-21T11:46:31.000Z</time>
      </trkpt>
      <trkpt lat="40.795554" lon="-3.93965">
        <ele>2322.7</ele>
        <time>2018-04-21T11:46:32.000Z</time>
      </trkpt>
      <trkpt lat="40.79556" lon="-3.939654">
        <ele>2322.7</ele>
        <time>2018-04-21T11:46:33.000Z</time>
      </trkpt>
      <trkpt lat="40.795566" lon="-3.939659">
        <ele>2322.6</ele>
        <time>2018-04-21T11:46:34.000Z</time>
      </trkpt>
      <trkpt lat="40.795573" lon="-3.939663">
        <ele>2322.6</ele>
        <time>2018-04-21T11:46:35.000Z</time>
      </trkpt>
      <trkpt lat="40.79558" lon="-3.939668">
        <ele>2322.5</ele>
        <time>2018-04-21T11:46:36.000Z</time>
      </trkpt>
      <trkpt lat="40.795587" lon="-3.939672">
        <ele>2322.5</ele>
        <time>2018-04-21T11:46:37.000Z</time>
      </trkpt>
      <trkpt lat="40.795595" lon="-3.939676">
        <ele>2322.5</ele>
        <time>2018-04-21T11:46:38.000Z</time>
      </trkpt>
      <trkpt lat="40.795603" lon="-3.939681">
        <ele>2322.4</ele>
        <time>2018-04-21T11:46:39.000Z</time>
      </trkpt>
      <trkpt lat="40.795611" lon="-3.939686">
        <ele>2322.4</ele>
        <time>2018-04-21T11:46:40.000Z</time>
      </trkpt>
      <trkpt lat="40.795618" lon="-3.939691">
        <ele>2322.3</ele>
        <time>2018-04-21T11:46:41.000Z</time>
      </trkpt>
      <trkpt lat="40.795625" lon="-3.939697">
        <ele>2322.2</ele>
        <time>2018-04-21T11:46:42.000Z</time>
      </trkpt>
      <trkpt lat="40.795631" lon="-3.939705">
        <ele>2322.1</ele>
        <time>2018-04-21T11:46:43.000Z</time>
      </trkpt>
      <trkpt lat="40.795636" lon="-3.939715">
        <ele>2321.8</ele>
        <time>2018-04-21T11:46:44.000Z</time>
      </trkpt>
      <trkpt lat="40.795639" lon="-3.939726">
        <ele>2321.6</ele>
        <time>2018-04-21T11:46:45.000Z</time>
      </trkpt>
      <trkpt lat="40.79564" lon="-3.939739">
        <ele>2321.2</ele>
        <time>2018-04-21T11:46:46.000Z</time>
      </trkpt>
      <trkpt lat="40.795641" lon="-3.939751">
        <ele>2320.8</ele>
        <time>2018-04-21T11:46:47.000Z</time>
      </trkpt>
      <trkpt lat="40.795641" lon="-3.939762">
        <ele>2320.5</ele>
        <time>2018-04-21T11:46:48.000Z</time>
      </trkpt>
      <trkpt lat="40.795641" lon="-3.93977">
        <ele>2320.3</ele>
        <time>2018-04-21T11:46:49.000Z</time>
      </trkpt>
      <trkpt lat="40.795641" lon="-3.939777">
        <ele>2320.1</ele>
        <time>2018-04-21T11:46:50.000Z</time>
      </trkpt>
      <trkpt lat="40.795641" lon="-3.939781">
        <ele>2319.9</ele>
        <time>2018-04-21T11:46:51.000Z</time>
      </trkpt>
      <trkpt lat="40.795641" lon="-3.939783">
        <ele>2319.9</ele>
        <time>2018-04-21T11:46:52.000Z</time>
      </trkpt>
      <trkpt lat="40.795641" lon="-3.939784">
        <ele>2319.8</ele>
        <time>2018-04-21T11:46:53.000Z</time>
      </trkpt>
      <trkpt lat="40.795641" lon="-3.939784">
        <ele>2319.8</ele>
        <time>2018-04-21T11:46:54.000Z</time>
      </trkpt>
      <trkpt lat="40.795641" lon="-3.939784">
        <ele>2319.8</ele>
        <time>2018-04-21T11:46:55.000Z</time>
      </trkpt>
      <trkpt lat="40.795641" lon="-3.939783">
        <ele>2319.9</ele>
        <time>2018-04-21T11:46:56.000Z</time>
      </trkpt>
      <trkpt lat="40.795641" lon="-3.939782">
        <ele>2319.9</ele>
        <time>2018-04-21T11:46:57.000Z</time>
      </trkpt>
      <trkpt lat="40.795641" lon="-3.939781">
        <ele>2319.9</ele>
        <time>2018-04-21T11:46:58.000Z</time>
      </trkpt>
      <trkpt lat="40.795641" lon="-3.93978">
        <ele>2320.0</ele>
        <time>2018-04-21T11:46:59.000Z</time>
      </trkpt>
      <trkpt lat="40.795641" lon="-3.939779">
        <ele>2320.0</ele>
        <time>2018-04-21T11:47:00.000Z</time>
      </trkpt>
      <trkpt lat="40.795641" lon="-3.939779">
        <ele>2320.0</ele>
        <time>2018-04-21T11:47:01.000Z</time>
      </trkpt>
      <trkpt lat="40.795641" lon="-3.939779">
        <ele>2320.0</ele>
        <time>2018-04-21T11:47:02.000Z</time>
      </trkpt>
      <trkpt lat="40.795641" lon="-3.939779">
        <ele>2320.0</ele>
        <time>2018-04-21T11:47:03.000Z</time>
      </trkpt>
      <trkpt lat="40.795641" lon="-3.939779">
        <ele>2320.0</ele>
        <time>2018-04-21T11:47:04.000Z</time>
      </trkpt>
      <trkpt lat="40.795641" lon="-3.939779">
        <ele>2320.0</ele>
        <time>2018-04-21T11:47:05.000Z</time>
      </trkpt>
      <trkpt lat="40.795641" lon="-3.939779">
        <ele>2320.0</ele>
        <time>2018-04-21T11:47:06.000Z</time>
      </trkpt>
      <trkpt lat="40.795641" lon="-3.939779">
        <ele>2320.0</ele>
        <time>2018-04-21T11:47:07.000Z</time>
      </trkpt>
      <trkpt lat="40.795641" lon="-3.939779">
        <ele>2320.0</ele>
        <time>2018-04-21T11:47:08.000Z</time>
      </trkpt>
      <trkpt lat="40.795641" lon="-3.939779">
        <ele>2320.0</ele>
        <time>2018-04-21T11:47:09.000Z</time>
      </trkpt>
      <trkpt lat="40.795641" lon="-3.939779">
        <ele>2320.0</ele>
        <time>2018-04-21T11:47:10.000Z</time>
      </trkpt>
      <trkpt lat="40.795641" lon="-3.939779">
        <ele>2320.0</ele>
        <time>2018-04-21T11:47:11.000Z</time>
      </trkpt>
      <trkpt lat="40.795641" lon="-3.939779">
        <ele>2320.0</ele>
        <time>2018-04-21T11:47:12.000Z</time>
      </trkpt>
      <trkpt lat="40.795641" lon="-3.939779">
        <ele>2320.0</ele>
        <time>2018-04-21T11:47:13.000Z</time>
      </trkpt>
      <trkpt lat="40.795641" lon="-3.939779">
        <ele>2320.0</ele>
        <time>2018-04-21T11:47:14.000Z</time>
      </trkpt>
      <trkpt lat="40.795641" lon="-3.939779">
        <ele>2320.0</ele>
        <time>2018-04-21T11:47:15.000Z</time>
      </trkpt>
      <trkpt lat="40.795641" lon="-3.939779">
        <ele>2320.0</ele>
        <time>2018-04-21T11:47:16.000Z</time>
      </trkpt>
      <trkpt lat="40.795641" lon="-3.939779">
        <ele>2320.0</ele>
        <time>2018-04-21T11:47:17.000Z</time>
      </trkpt>
      <trkpt lat="40.795641" lon="-3.939779">
        <ele>2320.0</ele>
        <time>2018-04-21T11:47:18.000Z</time>
      </trkpt>
      <trkpt lat="40.795641" lon="-3.939779">
        <ele>2320.0</ele>
        <time>2018-04-21T11:47:19.000Z</time>
      </trkpt>
      <trkpt lat="40.795641" lon="-3.939779">
        <ele>2320.0</ele>
        <time>2018-04-21T11:47:20.000Z</time>
      </trkpt>
      <trkpt lat="40.795641" lon="-3.939779">
        <ele>2320.0</ele>
        <time>2018-04-21T11:47:21.000Z</time>
      </trkpt>
      <trkpt lat="40.795641" lon="-3.939779">
        <ele>2320.0</ele>
        <time>2018-04-21T11:47:22.000Z</time>
      </trkpt>
      <trkpt lat="40.795641" lon="-3.939779">
        <ele>2320.0</ele>
        <time>2018-04-21T11:47:23.000Z</time>
      </trkpt>
      <trkpt lat="40.795641" lon="-3.939779">
        <ele>2320.0</ele>
        <time>2018-04-21T11:47:24.000Z</time>
      </trkpt>
      <trkpt lat="40.795641" lon="-3.939779">
        <ele>2320.0</ele>
        <time>2018-04-21T11:47:25.000Z</time>
      </trkpt>
      <trkpt lat="40.795641" lon="-3.939779">
        <ele>2320.0</ele>
        <time>2018-04-21T11:47:26.000Z</time>
      </trkpt>
      <trkpt lat="40.795641" lon="-3.93978">
        <ele>2320.0</ele>
        <time>2018-04-21T11:47:27.000Z</time>
      </trkpt>
      <trkpt lat="40.79564" lon="-3.939781">
        <ele>2319.9</ele>
        <time>2018-04-21T11:47:28.000Z</time>
      </trkpt>
      <trkpt lat="40.795639" lon="-3.939783">
        <ele>2319.9</ele>
        <time>2018-04-21T11:47:29.000Z</time>
      </trkpt>
      <trkpt lat="40.795637" lon="-3.939785">
        <ele>2319.8</ele>
        <time>2018-04-21T11:47:30.000Z</time>
      </trkpt>
      <trkpt lat="40.795635" lon="-3.939788">
        <ele>2319.7</ele>
        <time>2018-04-21T11:47:31.000Z</time>
      </trkpt>
      <trkpt lat="40.795634" lon="-3.939792">
        <ele>2319.5</ele>
        <time>2018-04-21T11:47:32.000Z</time>
      </trkpt>
      <trkpt lat="40.795633" lon="-3.939796">
        <ele>2319.4</ele>
        <time>2018-04-21T11:47:33.000Z</time>
      </trkpt>
      <trkpt lat="40.795633" lon="-3.9398">
        <ele>2319.3</ele>
        <time>2018-04-21T11:47:34.000Z</time>
      </trkpt>
      <trkpt lat="40.795634" lon="-3.939804">
        <ele>2319.2</ele>
        <time>2018-04-21T11:47:35.000Z</time>
      </trkpt>
      <trkpt lat="40.795636" lon="-3.939808">
        <ele>2319.1</ele>
        <time>2018-04-21T11:47:36.000Z</time>
      </trkpt>
      <trkpt lat="40.795639" lon="-3.939812">
        <ele>2319.0</ele>
        <time>2018-04-21T11:47:37.000Z</time>
      </trkpt>
      <trkpt lat="40.795642" lon="-3.939817">
        <ele>2318.9</ele>
        <time>2018-04-21T11:47:38.000Z</time>
      </trkpt>
      <trkpt lat="40.795645" lon="-3.939821">
        <ele>2318.8</ele>
        <time>2018-04-21T11:47:39.000Z</time>
      </trkpt>
      <trkpt lat="40.795649" lon="-3.939824">
        <ele>2318.7</ele>
        <time>2018-04-21T11:47:40.000Z</time>
      </trkpt>
      <trkpt lat="40.795654" lon="-3.939828">
        <ele>2318.7</ele>
        <time>2018-04-21T11:47:41.000Z</time>
      </trkpt>
      <trkpt lat="40.795658" lon="-3.939832">
        <ele>2318.6</ele>
        <time>2018-04-21T11:47:42.000Z</time>
      </trkpt>
      <trkpt lat="40.795662" lon="-3.939835">
        <ele>2318.5</ele>
        <time>2018-04-21T11:47:43.000Z</time>
      </trkpt>
      <trkpt lat="40.795666" lon="-3.939838">
        <ele>2318.5</ele>
        <time>2018-04-21T11:47:44.000Z</time>
      </trkpt>
      <trkpt lat="40.79567" lon="-3.93984">
        <ele>2318.5</ele>
        <time>2018-04-21T11:47:45.000Z</time>
      </trkpt>
      <trkpt lat="40.795675" lon="-3.939842">
        <ele>2318.5</ele>
        <time>2018-04-21T11:47:46.000Z</time>
      </trkpt>
      <trkpt lat="40.795679" lon="-3.939844">
        <ele>2318.4</ele>
        <time>2018-04-21T11:47:47.000Z</time>
      </trkpt>
      <trkpt lat="40.795684" lon="-3.939845">
        <ele>2318.5</ele>
        <time>2018-04-21T11:47:48.000Z</time>
      </trkpt>
      <trkpt lat="40.795689" lon="-3.939846">
        <ele>2318.5</ele>
        <time>2018-04-21T11:47:49.000Z</time>
      </trkpt>
      <trkpt lat="40.795694" lon="-3.939847">
        <ele>2318.5</ele>
        <time>2018-04-21T11:47:50.000Z</time>
      </trkpt>
      <trkpt lat="40.7957" lon="-3.939847">
        <ele>2318.6</ele>
        <time>2018-04-21T11:47:51.000Z</time>
      </trkpt>
      <trkpt lat="40.795706" lon="-3.939847">
        <ele>2318.6</ele>
        <time>2018-04-21T11:47:52.000Z</time>
      </trkpt>
      <trkpt lat="40.795711" lon="-3.939847">
        <ele>2318.7</ele>
        <time>2018-04-21T11:47:53.000Z</time>
      </trkpt>
      <trkpt lat="40.795717" lon="-3.939846">
        <ele>2318.8</ele>
        <time>2018-04-21T11:47:54.000Z</time>
      </trkpt>
      <trkpt lat="40.795721" lon="-3.939845">
        <ele>2318.9</ele>
        <time>2018-04-21T11:47:55.000Z</time>
      </trkpt>
      <trkpt lat="40.795724" lon="-3.939843">
        <ele>2318.9</ele>
        <time>2018-04-21T11:47:56.000Z</time>
      </trkpt>
      <trkpt lat="40.795726" lon="-3.939842">
        <ele>2319.0</ele>
        <time>2018-04-21T11:47:57.000Z</time>
      </trkpt>
      <trkpt lat="40.795726" lon="-3.939841">
        <ele>2319.0</ele>
        <time>2018-04-21T11:47:58.000Z</time>
      </trkpt>
      <trkpt lat="40.795725" lon="-3.939841">
        <ele>2319.0</ele>
        <time>2018-04-21T11:47:59.000Z</time>
      </trkpt>
      <trkpt lat="40.795724" lon="-3.939843">
        <ele>2318.9</ele>
        <time>2018-04-21T11:48:00.000Z</time>
      </trkpt>
      <trkpt lat="40.795723" lon="-3.939846">
        <ele>2318.8</ele>
        <time>2018-04-21T11:48:01.000Z</time>
      </trkpt>
      <trkpt lat="40.795722" lon="-3.939851">
        <ele>2318.7</ele>
        <time>2018-04-21T11:48:02.000Z</time>
      </trkpt>
      <trkpt lat="40.795722" lon="-3.939857">
        <ele>2318.5</ele>
        <time>2018-04-21T11:48:03.000Z</time>
      </trkpt>
      <trkpt lat="40.795721" lon="-3.939863">
        <ele>2318.3</ele>
        <time>2018-04-21T11:48:04.000Z</time>
      </trkpt>
      <trkpt lat="40.795721" lon="-3.93987">
        <ele>2318.1</ele>
        <time>2018-04-21T11:48:05.000Z</time>
      </trkpt>
      <trkpt lat="40.795721" lon="-3.939877">
        <ele>2317.9</ele>
        <time>2018-04-21T11:48:06.000Z</time>
      </trkpt>
      <trkpt lat="40.795722" lon="-3.939883">
        <ele>2317.7</ele>
        <time>2018-04-21T11:48:07.000Z</time>
      </trkpt>
      <trkpt lat="40.795723" lon="-3.939888">
        <ele>2317.5</ele>
        <time>2018-04-21T11:48:08.000Z</time>
      </trkpt>
      <trkpt lat="40.795725" lon="-3.939891">
        <ele>2317.5</ele>
        <time>2018-04-21T11:48:09.000Z</time>
      </trkpt>
      <trkpt lat="40.795728" lon="-3.939892">
        <ele>2317.5</ele>
        <time>2018-04-21T11:48:10.000Z</time>
      </trkpt>
      <trkpt lat="40.795731" lon="-3.939893">
        <ele>2317.5</ele>
        <time>2018-04-21T11:48:11.000Z</time>
      </trkpt>
      <trkpt lat="40.795734" lon="-3.939894">
        <ele>2317.5</ele>
        <time>2018-04-21T11:48:12.000Z</time>
      </trkpt>
      <trkpt lat="40.795738" lon="-3.939896">
        <ele>2317.4</ele>
        <time>2018-04-21T11:48:13.000Z</time>
      </trkpt>
      <trkpt lat="40.795741" lon="-3.9399">
        <ele>2317.3</ele>
        <time>2018-04-21T11:48:14.000Z</time>
      </trkpt>
      <trkpt lat="40.795744" lon="-3.939908">
        <ele>2317.1</ele>
        <time>2018-04-21T11:48:15.000Z</time>
      </trkpt>
      <trkpt lat="40.795747" lon="-3.939918">
        <ele>2316.8</ele>
        <time>2018-04-21T11:48:16.000Z</time>
      </trkpt>
      <trkpt lat="40.795749" lon="-3.939928">
        <ele>2316.5</ele>
        <time>2018-04-21T11:48:17.000Z</time>
      </trkpt>
      <trkpt lat="40.795751" lon="-3.939938">
        <ele>2316.3</ele>
        <time>2018-04-21T11:48:18.000Z</time>
      </trkpt>
      <trkpt lat="40.795752" lon="-3.939945">
        <ele>2316.0</ele>
        <time>2018-04-21T11:48:19.000Z</time>
      </trkpt>
      <trkpt lat="40.795754" lon="-3.939951">
        <ele>2315.9</ele>
        <time>2018-04-21T11:48:20.000Z</time>
      </trkpt>
      <trkpt lat="40.795754" lon="-3.939955">
        <ele>2315.7</ele>
        <time>2018-04-21T11:48:21.000Z</time>
      </trkpt>
      <trkpt lat="40.795755" lon="-3.939957">
        <ele>2315.7</ele>
        <time>2018-04-21T11:48:22.000Z</time>
      </trkpt>
      <trkpt lat="40.795755" lon="-3.939959">
        <ele>2315.6</ele>
        <time>2018-04-21T11:48:23.000Z</time>
      </trkpt>
      <trkpt lat="40.795755" lon="-3.939959">
        <ele>2315.6</ele>
        <time>2018-04-21T11:48:24.000Z</time>
      </trkpt>
      <trkpt lat="40.795755" lon="-3.939959">
        <ele>2315.6</ele>
        <time>2018-04-21T11:48:25.000Z</time>
      </trkpt>
      <trkpt lat="40.795755" lon="-3.939959">
        <ele>2315.6</ele>
        <time>2018-04-21T11:48:26.000Z</time>
      </trkpt>
      <trkpt lat="40.795754" lon="-3.939959">
        <ele>2315.6</ele>
        <time>2018-04-21T11:48:27.000Z</time>
      </trkpt>
      <trkpt lat="40.795754" lon="-3.93996">
        <ele>2315.6</ele>
        <time>2018-04-21T11:48:28.000Z</time>
      </trkpt>
      <trkpt lat="40.795753" lon="-3.939961">
        <ele>2315.5</ele>
        <time>2018-04-21T11:48:29.000Z</time>
      </trkpt>
      <trkpt lat="40.795752" lon="-3.939962">
        <ele>2315.5</ele>
        <time>2018-04-21T11:48:30.000Z</time>
      </trkpt>
      <trkpt lat="40.795752" lon="-3.939964">
        <ele>2315.4</ele>
        <time>2018-04-21T11:48:31.000Z</time>
      </trkpt>
      <trkpt lat="40.795751" lon="-3.939967">
        <ele>2315.3</ele>
        <time>2018-04-21T11:48:32.000Z</time>
      </trkpt>
      <trkpt lat="40.795751" lon="-3.93997">
        <ele>2315.2</ele>
        <time>2018-04-21T11:48:33.000Z</time>
      </trkpt>
      <trkpt lat="40.795751" lon="-3.939974">
        <ele>2315.1</ele>
        <time>2018-04-21T11:48:34.000Z</time>
      </trkpt>
      <trkpt lat="40.795751" lon="-3.939979">
        <ele>2315.0</ele>
        <time>2018-04-21T11:48:35.000Z</time>
      </trkpt>
      <trkpt lat="40.795751" lon="-3.939984">
        <ele>2314.8</ele>
        <time>2018-04-21T11:48:36.000Z</time>
      </trkpt>
      <trkpt lat="40.795752" lon="-3.939991">
        <ele>2314.6</ele>
        <time>2018-04-21T11:48:37.000Z</time>
      </trkpt>
      <trkpt lat="40.795752" lon="-3.939998">
        <ele>2314.4</ele>
        <time>2018-04-21T11:48:38.000Z</time>
      </trkpt>
      <trkpt lat="40.795753" lon="-3.940006">
        <ele>2314.2</ele>
        <time>2018-04-21T11:48:39.000Z</time>
      </trkpt>
      <trkpt lat="40.795755" lon="-3.940014">
        <ele>2314.1</ele>
        <time>2018-04-21T11:48:40.000Z</time>
      </trkpt>
      <trkpt lat="40.795756" lon="-3.940023">
        <ele>2313.9</ele>
        <time>2018-04-21T11:48:41.000Z</time>
      </trkpt>
      <trkpt lat="40.795757" lon="-3.940033">
        <ele>2313.7</ele>
        <time>2018-04-21T11:48:42.000Z</time>
      </trkpt>
      <trkpt lat="40.795759" lon="-3.940043">
        <ele>2313.5</ele>
        <time>2018-04-21T11:48:43.000Z</time>
      </trkpt>
      <trkpt lat="40.79576" lon="-3.940053">
        <ele>2313.3</ele>
        <time>2018-04-21T11:48:44.000Z</time>
      </trkpt>
      <trkpt lat="40.795762" lon="-3.940063">
        <ele>2313.1</ele>
        <time>2018-04-21T11:48:45.000Z</time>
      </trkpt>
      <trkpt lat="40.795763" lon="-3.940074">
        <ele>2312.9</ele>
        <time>2018-04-21T11:48:46.000Z</time>
      </trkpt>
      <trkpt lat="40.795765" lon="-3.940085">
        <ele>2312.7</ele>
        <time>2018-04-21T11:48:47.000Z</time>
      </trkpt>
      <trkpt lat="40.795766" lon="-3.940095">
        <ele>2312.5</ele>
        <time>2018-04-21T11:48:48.000Z</time>
      </trkpt>
      <trkpt lat="40.795767" lon="-3.940106">
        <ele>2312.3</ele>
        <time>2018-04-21T11:48:49.000Z</time>
      </trkpt>
      <trkpt lat="40.795768" lon="-3.940117">
        <ele>2312.1</ele>
        <time>2018-04-21T11:48:50.000Z</time>
      </trkpt>
      <trkpt lat="40.795769" lon="-3.940127">
        <ele>2311.9</ele>
        <time>2018-04-21T11:48:51.000Z</time>
      </trkpt>
      <trkpt lat="40.795769" lon="-3.940137">
        <ele>2311.7</ele>
        <time>2018-04-21T11:48:52.000Z</time>
      </trkpt>
      <trkpt lat="40.795769" lon="-3.940147">
        <ele>2311.5</ele>
        <time>2018-04-21T11:48:53.000Z</time>
      </trkpt>
      <trkpt lat="40.795768" lon="-3.940156">
        <ele>2311.3</ele>
        <time>2018-04-21T11:48:54.000Z</time>
      </trkpt>
      <trkpt lat="40.795768" lon="-3.940165">
        <ele>2311.1</ele>
        <time>2018-04-21T11:48:55.000Z</time>
      </trkpt>
      <trkpt lat="40.795767" lon="-3.940173">
        <ele>2310.9</ele>
        <time>2018-04-21T11:48:56.000Z</time>
      </trkpt>
      <trkpt lat="40.795765" lon="-3.94018">
        <ele>2310.8</ele>
        <time>2018-04-21T11:48:57.000Z</time>
      </trkpt>
      <trkpt lat="40.795763" lon="-3.940187">
        <ele>2310.6</ele>
        <time>2018-04-21T11:48:58.000Z</time>
      </trkpt>
      <trkpt lat="40.795762" lon="-3.940194">
        <ele>2310.5</ele>
        <time>2018-04-21T11:48:59.000Z</time>
      </trkpt>
      <trkpt lat="40.79576" lon="-3.9402">
        <ele>2310.3</ele>
        <time>2018-04-21T11:49:00.000Z</time>
      </trkpt>
      <trkpt lat="40.795758" lon="-3.940205">
        <ele>2310.2</ele>
        <time>2018-04-21T11:49:01.000Z</time>
      </trkpt>
      <trkpt lat="40.795756" lon="-3.94021">
        <ele>2310.1</ele>
        <time>2018-04-21T11:49:02.000Z</time>
      </trkpt>
      <trkpt lat="40.795754" lon="-3.940214">
        <ele>2310.0</ele>
        <time>2018-04-21T11:49:03.000Z</time>
      </trkpt>
      <trkpt lat="40.795752" lon="-3.940217">
        <ele>2309.9</ele>
        <time>2018-04-21T11:49:04.000Z</time>
      </trkpt>
      <trkpt lat="40.79575" lon="-3.94022">
        <ele>2309.8</ele>
        <time>2018-04-21T11:49:05.000Z</time>
      </trkpt>
      <trkpt lat="40.795749" lon="-3.940222">
        <ele>2309.8</ele>
        <time>2018-04-21T11:49:06.000Z</time>
      </trkpt>
      <trkpt lat="40.795748" lon="-3.940224">
        <ele>2309.7</ele>
        <time>2018-04-21T11:49:07.000Z</time>
      </trkpt>
      <trkpt lat="40.795747" lon="-3.940225">
        <ele>2309.7</ele>
        <time>2018-04-21T11:49:08.000Z</time>
      </trkpt>
      <trkpt lat="40.795747" lon="-3.940225">
        <ele>2309.7</ele>
        <time>2018-04-21T11:49:09.000Z</time>
      </trkpt>
      <trkpt lat="40.795747" lon="-3.940224">
        <ele>2309.7</ele>
        <time>2018-04-21T11:49:10.000Z</time>
      </trkpt>
      <trkpt lat="40.795747" lon="-3.940223">
        <ele>2309.8</ele>
        <time>2018-04-21T11:49:11.000Z</time>
      </trkpt>
      <trkpt lat="40.795749" lon="-3.940221">
        <ele>2309.8</ele>
        <time>2018-04-21T11:49:12.000Z</time>
      </trkpt>
      <trkpt lat="40.795754" lon="-3.940233">
        <ele>2309.6</ele>
        <time>2018-04-21T11:57:48.000Z</time>
      </trkpt>
      <trkpt lat="40.795755" lon="-3.940233">
        <ele>2309.6</ele>
        <time>2018-04-21T11:57:49.000Z</time>
      </trkpt>
      <trkpt lat="40.795755" lon="-3.940233">
        <ele>2309.6</ele>
        <time>2018-04-21T11:57:50.000Z</time>
      </trkpt>
      <trkpt lat="40.795755" lon="-3.940233">
        <ele>2309.6</ele>
        <time>2018-04-21T11:57:51.000Z</time>
      </trkpt>
      <trkpt lat="40.795755" lon="-3.940233">
        <ele>2309.6</ele>
        <time>2018-04-21T11:57:52.000Z</time>
      </trkpt>
      <trkpt lat="40.795755" lon="-3.940233">
        <ele>2309.6</ele>
        <time>2018-04-21T11:57:53.000Z</time>
      </trkpt>
      <trkpt lat="40.795755" lon="-3.940233">
        <ele>2309.6</ele>
        <time>2018-04-21T11:57:54.000Z</time>
      </trkpt>
      <trkpt lat="40.795755" lon="-3.940233">
        <ele>2309.6</ele>
        <time>2018-04-21T11:57:55.000Z</time>
      </trkpt>
      <trkpt lat="40.795755" lon="-3.940233">
        <ele>2309.6</ele>
        <time>2018-04-21T11:57:56.000Z</time>
      </trkpt>
      <trkpt lat="40.795754" lon="-3.940233">
        <ele>2309.6</ele>
        <time>2018-04-21T11:57:57.000Z</time>
      </trkpt>
      <trkpt lat="40.795754" lon="-3.940233">
        <ele>2309.6</ele>
        <time>2018-04-21T11:57:58.000Z</time>
      </trkpt>
      <trkpt lat="40.795754" lon="-3.940233">
        <ele>2309.6</ele>
        <time>2018-04-21T11:57:59.000Z</time>
      </trkpt>
      <trkpt lat="40.795754" lon="-3.940233">
        <ele>2309.6</ele>
        <time>2018-04-21T11:58:00.000Z</time>
      </trkpt>
      <trkpt lat="40.795754" lon="-3.940233">
        <ele>2309.6</ele>
        <time>2018-04-21T11:58:01.000Z</time>
      </trkpt>
      <trkpt lat="40.795754" lon="-3.940233">
        <ele>2309.6</ele>
        <time>2018-04-21T11:58:02.000Z</time>
      </trkpt>
      <trkpt lat="40.795754" lon="-3.940233">
        <ele>2309.6</ele>
        <time>2018-04-21T11:58:03.000Z</time>
      </trkpt>
      <trkpt lat="40.795755" lon="-3.940233">
        <ele>2309.6</ele>
        <time>2018-04-21T11:58:04.000Z</time>
      </trkpt>
      <trkpt lat="40.795756" lon="-3.940233">
        <ele>2309.6</ele>
        <time>2018-04-21T11:58:05.000Z</time>
      </trkpt>
      <trkpt lat="40.795756" lon="-3.940233">
        <ele>2309.6</ele>
        <time>2018-04-21T11:58:06.000Z</time>
      </trkpt>
      <trkpt lat="40.795758" lon="-3.940234">
        <ele>2309.6</ele>
        <time>2018-04-21T11:58:07.000Z</time>
      </trkpt>
      <trkpt lat="40.795759" lon="-3.940234">
        <ele>2309.6</ele>
        <time>2018-04-21T11:58:08.000Z</time>
      </trkpt>
      <trkpt lat="40.795761" lon="-3.940234">
        <ele>2309.6</ele>
        <time>2018-04-21T11:58:09.000Z</time>
      </trkpt>
      <trkpt lat="40.795763" lon="-3.940235">
        <ele>2309.6</ele>
        <time>2018-04-21T11:58:10.000Z</time>
      </trkpt>
      <trkpt lat="40.795766" lon="-3.940236">
        <ele>2309.6</ele>
        <time>2018-04-21T11:58:11.000Z</time>
      </trkpt>
      <trkpt lat="40.795769" lon="-3.940236">
        <ele>2309.7</ele>
        <time>2018-04-21T11:58:12.000Z</time>
      </trkpt>
      <trkpt lat="40.795772" lon="-3.940238">
        <ele>2309.7</ele>
        <time>2018-04-21T11:58:13.000Z</time>
      </trkpt>
      <trkpt lat="40.795776" lon="-3.94024">
        <ele>2309.6</ele>
        <time>2018-04-21T11:58:14.000Z</time>
      </trkpt>
      <trkpt lat="40.79578" lon="-3.940244">
        <ele>2309.6</ele>
        <time>2018-04-21T11:58:15.000Z</time>
      </trkpt>
      <trkpt lat="40.795784" lon="-3.94025">
        <ele>2309.5</ele>
        <time>2018-04-21T11:58:16.000Z</time>
      </trkpt>
      <trkpt lat="40.795789" lon="-3.940257">
        <ele>2309.4</ele>
        <time>2018-04-21T11:58:17.000Z</time>
      </trkpt>
      <trkpt lat="40.795792" lon="-3.940264">
        <ele>2309.3</ele>
        <time>2018-04-21T11:58:18.000Z</time>
      </trkpt>
      <trkpt lat="40.795795" lon="-3.94027">
        <ele>2309.2</ele>
        <time>2018-04-21T11:58:19.000Z</time>
      </trkpt>
      <trkpt lat="40.795796" lon="-3.940276">
        <ele>2309.1</ele>
        <time>2018-04-21T11:58:20.000Z</time>
      </trkpt>
      <trkpt lat="40.795796" lon="-3.94028">
        <ele>2309.0</ele>
        <time>2018-04-21T11:58:21.000Z</time>
      </trkpt>
      <trkpt lat="40.795795" lon="-3.940284">
        <ele>2308.9</ele>
        <time>2018-04-21T11:58:22.000Z</time>
      </trkpt>
      <trkpt lat="40.795794" lon="-3.940287">
        <ele>2308.8</ele>
        <time>2018-04-21T11:58:23.000Z</time>
      </trkpt>
      <trkpt lat="40.795793" lon="-3.940289">
        <ele>2308.8</ele>
        <time>2018-04-21T11:58:24.000Z</time>
      </trkpt>
      <trkpt lat="40.795791" lon="-3.940291">
        <ele>2308.7</ele>
        <time>2018-04-21T11:58:25.000Z</time>
      </trkpt>
      <trkpt lat="40.79579" lon="-3.940292">
        <ele>2308.7</ele>
        <time>2018-04-21T11:58:26.000Z</time>
      </trkpt>
      <trkpt lat="40.795789" lon="-3.940293">
        <ele>2308.7</ele>
        <time>2018-04-21T11:58:27.000Z</time>
      </trkpt>
      <trkpt lat="40.795789" lon="-3.940293">
        <ele>2308.7</ele>
        <time>2018-04-21T11:58:28.000Z</time>
      </trkpt>
      <trkpt lat="40.795789" lon="-3.940293">
        <ele>2308.7</ele>
        <time>2018-04-21T11:58:31.000Z</time>
      </trkpt>
      <trkpt lat="40.795789" lon="-3.940293">
        <ele>2308.7</ele>
        <time>2018-04-21T11:58:32.000Z</time>
      </trkpt>
      <trkpt lat="40.79579" lon="-3.940293">
        <ele>2308.7</ele>
        <time>2018-04-21T11:58:33.000Z</time>
      </trkpt>
      <trkpt lat="40.79579" lon="-3.940293">
        <ele>2308.7</ele>
        <time>2018-04-21T11:58:34.000Z</time>
      </trkpt>
      <trkpt lat="40.79579" lon="-3.940292">
        <ele>2308.7</ele>
        <time>2018-04-21T11:58:35.000Z</time>
      </trkpt>
      <trkpt lat="40.79579" lon="-3.940292">
        <ele>2308.7</ele>
        <time>2018-04-21T11:58:36.000Z</time>
      </trkpt>
      <trkpt lat="40.79579" lon="-3.940292">
        <ele>2308.7</ele>
        <time>2018-04-21T11:58:37.000Z</time>
      </trkpt>
      <trkpt lat="40.79579" lon="-3.940293">
        <ele>2308.7</ele>
        <time>2018-04-21T11:58:38.000Z</time>
      </trkpt>
      <trkpt lat="40.79579" lon="-3.940293">
        <ele>2308.7</ele>
        <time>2018-04-21T11:58:39.000Z</time>
      </trkpt>
      <trkpt lat="40.79579" lon="-3.940293">
        <ele>2308.7</ele>
        <time>2018-04-21T11:58:40.000Z</time>
      </trkpt>
      <trkpt lat="40.79579" lon="-3.940293">
        <ele>2308.7</ele>
        <time>2018-04-21T11:58:41.000Z</time>
      </trkpt>
      <trkpt lat="40.79579" lon="-3.940293">
        <ele>2308.7</ele>
        <time>2018-04-21T11:58:42.000Z</time>
      </trkpt>
      <trkpt lat="40.79579" lon="-3.940293">
        <ele>2308.7</ele>
        <time>2018-04-21T11:58:43.000Z</time>
      </trkpt>
      <trkpt lat="40.79579" lon="-3.940293">
        <ele>2308.7</ele>
        <time>2018-04-21T11:58:44.000Z</time>
      </trkpt>
      <trkpt lat="40.79579" lon="-3.940294">
        <ele>2308.7</ele>
        <time>2018-04-21T11:58:45.000Z</time>
      </trkpt>
      <trkpt lat="40.795789" lon="-3.940297">
        <ele>2308.6</ele>
        <time>2018-04-21T11:58:46.000Z</time>
      </trkpt>
      <trkpt lat="40.795788" lon="-3.940302">
        <ele>2308.5</ele>
        <time>2018-04-21T11:58:47.000Z</time>
      </trkpt>
      <trkpt lat="40.795787" lon="-3.940308">
        <ele>2308.3</ele>
        <time>2018-04-21T11:58:48.000Z</time>
      </trkpt>
      <trkpt lat="40.795785" lon="-3.940316">
        <ele>2308.2</ele>
        <time>2018-04-21T11:58:49.000Z</time>
      </trkpt>
      <trkpt lat="40.795783" lon="-3.940324">
        <ele>2308.0</ele>
        <time>2018-04-21T11:58:50.000Z</time>
      </trkpt>
      <trkpt lat="40.795782" lon="-3.940333">
        <ele>2307.8</ele>
        <time>2018-04-21T11:58:51.000Z</time>
      </trkpt>
      <trkpt lat="40.795781" lon="-3.940343">
        <ele>2307.6</ele>
        <time>2018-04-21T11:58:52.000Z</time>
      </trkpt>
      <trkpt lat="40.795779" lon="-3.940353">
        <ele>2307.4</ele>
        <time>2018-04-21T11:58:53.000Z</time>
      </trkpt>
      <trkpt lat="40.795778" lon="-3.940363">
        <ele>2307.2</ele>
        <time>2018-04-21T11:58:54.000Z</time>
      </trkpt>
      <trkpt lat="40.795777" lon="-3.940373">
        <ele>2306.9</ele>
        <time>2018-04-21T11:58:55.000Z</time>
      </trkpt>
      <trkpt lat="40.795776" lon="-3.940384">
        <ele>2306.7</ele>
        <time>2018-04-21T11:58:56.000Z</time>
      </trkpt>
      <trkpt lat="40.795775" lon="-3.940394">
        <ele>2306.5</ele>
        <time>2018-04-21T11:58:57.000Z</time>
      </trkpt>
      <trkpt lat="40.795774" lon="-3.940404">
        <ele>2306.3</ele>
        <time>2018-04-21T11:58:58.000Z</time>
      </trkpt>
      <trkpt lat="40.795774" lon="-3.940413">
        <ele>2306.1</ele>
        <time>2018-04-21T11:58:59.000Z</time>
      </trkpt>
      <trkpt lat="40.795773" lon="-3.940422">
        <ele>2305.9</ele>
        <time>2018-04-21T11:59:00.000Z</time>
      </trkpt>
      <trkpt lat="40.795772" lon="-3.94043">
        <ele>2305.8</ele>
        <time>2018-04-21T11:59:01.000Z</time>
      </trkpt>
      <trkpt lat="40.795771" lon="-3.940437">
        <ele>2305.6</ele>
        <time>2018-04-21T11:59:02.000Z</time>
      </trkpt>
      <trkpt lat="40.79577" lon="-3.940443">
        <ele>2305.5</ele>
        <time>2018-04-21T11:59:03.000Z</time>
      </trkpt>
      <trkpt lat="40.79577" lon="-3.940448">
        <ele>2305.4</ele>
        <time>2018-04-21T11:59:04.000Z</time>
      </trkpt>
      <trkpt lat="40.79577" lon="-3.940452">
        <ele>2305.3</ele>
        <time>2018-04-21T11:59:05.000Z</time>
      </trkpt>
      <trkpt lat="40.795769" lon="-3.940455">
        <ele>2305.2</ele>
        <time>2018-04-21T11:59:06.000Z</time>
      </trkpt>
      <trkpt lat="40.795769" lon="-3.940456">
        <ele>2305.2</ele>
        <time>2018-04-21T11:59:07.000Z</time>
      </trkpt>
      <trkpt lat="40.795769" lon="-3.940457">
        <ele>2305.2</ele>
        <time>2018-04-21T11:59:08.000Z</time>
      </trkpt>
      <trkpt lat="40.795769" lon="-3.940458">
        <ele>2305.2</ele>
        <time>2018-04-21T11:59:09.000Z</time>
      </trkpt>
      <trkpt lat="40.79577" lon="-3.940458">
        <ele>2305.2</ele>
        <time>2018-04-21T11:59:10.000Z</time>
      </trkpt>
      <trkpt lat="40.79577" lon="-3.940457">
        <ele>2305.2</ele>
        <time>2018-04-21T11:59:11.000Z</time>
      </trkpt>
      <trkpt lat="40.79577" lon="-3.940457">
        <ele>2305.2</ele>
        <time>2018-04-21T11:59:12.000Z</time>
      </trkpt>
      <trkpt lat="40.79577" lon="-3.940457">
        <ele>2305.2</ele>
        <time>2018-04-21T11:59:13.000Z</time>
      </trkpt>
      <trkpt lat="40.795769" lon="-3.940459">
        <ele>2305.1</ele>
        <time>2018-04-21T11:59:14.000Z</time>
      </trkpt>
      <trkpt lat="40.795765" lon="-3.940463">
        <ele>2305.0</ele>
        <time>2018-04-21T11:59:15.000Z</time>
      </trkpt>
      <trkpt lat="40.795762" lon="-3.94047">
        <ele>2304.9</ele>
        <time>2018-04-21T11:59:16.000Z</time>
      </trkpt>
      <trkpt lat="40.795762" lon="-3.940476">
        <ele>2304.7</ele>
        <time>2018-04-21T11:59:17.000Z</time>
      </trkpt>
      <trkpt lat="40.795764" lon="-3.940483">
        <ele>2304.6</ele>
        <time>2018-04-21T11:59:18.000Z</time>
      </trkpt>
      <trkpt lat="40.795769" lon="-3.940489">
        <ele>2304.5</ele>
        <time>2018-04-21T11:59:19.000Z</time>
      </trkpt>
      <trkpt lat="40.795774" lon="-3.940496">
        <ele>2304.4</ele>
        <time>2018-04-21T11:59:20.000Z</time>
      </trkpt>
      <trkpt lat="40.795779" lon="-3.940503">
        <ele>2304.3</ele>
        <time>2018-04-21T11:59:21.000Z</time>
      </trkpt>
      <trkpt lat="40.795785" lon="-3.94051">
        <ele>2304.2</ele>
        <time>2018-04-21T11:59:22.000Z</time>
      </trkpt>
      <trkpt lat="40.795791" lon="-3.940517">
        <ele>2304.1</ele>
        <time>2018-04-21T11:59:23.000Z</time>
      </trkpt>
      <trkpt lat="40.795797" lon="-3.940524">
        <ele>2304.0</ele>
        <time>2018-04-21T11:59:24.000Z</time>
      </trkpt>
      <trkpt lat="40.795803" lon="-3.940531">
        <ele>2303.9</ele>
        <time>2018-04-21T11:59:25.000Z</time>
      </trkpt>
      <trkpt lat="40.795808" lon="-3.940538">
        <ele>2303.8</ele>
        <time>2018-04-21T11:59:26.000Z</time>
      </trkpt>
      <trkpt lat="40.795813" lon="-3.940545">
        <ele>2303.7</ele>
        <time>2018-04-21T11:59:27.000Z</time>
      </trkpt>
      <trkpt lat="40.795817" lon="-3.940551">
        <ele>2303.6</ele>
        <time>2018-04-21T11:59:28.000Z</time>
      </trkpt>
      <trkpt lat="40.79582" lon="-3.940557">
        <ele>2303.5</ele>
        <time>2018-04-21T11:59:29.000Z</time>
      </trkpt>
      <trkpt lat="40.795823" lon="-3.940563">
        <ele>2303.4</ele>
        <time>2018-04-21T11:59:30.000Z</time>
      </trkpt>
      <trkpt lat="40.795826" lon="-3.940569">
        <ele>2303.3</ele>
        <time>2018-04-21T11:59:31.000Z</time>
      </trkpt>
      <trkpt lat="40.795828" lon="-3.940576">
        <ele>2303.2</ele>
        <time>2018-04-21T11:59:32.000Z</time>
      </trkpt>
      <trkpt lat="40.79583" lon="-3.940582">
        <ele>2303.1</ele>
        <time>2018-04-21T11:59:33.000Z</time>
      </trkpt>
      <trkpt lat="40.795833" lon="-3.940589">
        <ele>2303.0</ele>
        <time>2018-04-21T11:59:34.000Z</time>
      </trkpt>
      <trkpt lat="40.795835" lon="-3.940597">
        <ele>2302.8</ele>
        <time>2018-04-21T11:59:35.000Z</time>
      </trkpt>
      <trkpt lat="40.795838" lon="-3.940605">
        <ele>2302.5</ele>
        <time>2018-04-21T11:59:36.000Z</time>
      </trkpt>
      <trkpt lat="40.795841" lon="-3.940613">
        <ele>2302.3</ele>
        <time>2018-04-21T11:59:37.000Z</time>
      </trkpt>
      <trkpt lat="40.795844" lon="-3.940622">
        <ele>2302.0</ele>
        <time>2018-04-21T11:59:38.000Z</time>
      </trkpt>
      <trkpt lat="40.795847" lon="-3.940631">
        <ele>2301.8</ele>
        <time>2018-04-21T11:59:39.000Z</time>
      </trkpt>
      <trkpt lat="40.79585" lon="-3.940641">
        <ele>2301.5</ele>
        <time>2018-04-21T11:59:40.000Z</time>
      </trkpt>
      <trkpt lat="40.795852" lon="-3.94065">
        <ele>2301.3</ele>
        <time>2018-04-21T11:59:41.000Z</time>
      </trkpt>
      <trkpt lat="40.795854" lon="-3.94066">
        <ele>2301.0</ele>
        <time>2018-04-21T11:59:42.000Z</time>
      </trkpt>
      <trkpt lat="40.795856" lon="-3.940669">
        <ele>2300.8</ele>
        <time>2018-04-21T11:59:43.000Z</time>
      </trkpt>
      <trkpt lat="40.795857" lon="-3.940678">
        <ele>2300.6</ele>
        <time>2018-04-21T11:59:44.000Z</time>
      </trkpt>
      <trkpt lat="40.795857" lon="-3.940687">
        <ele>2300.4</ele>
        <time>2018-04-21T11:59:45.000Z</time>
      </trkpt>
      <trkpt lat="40.795857" lon="-3.940696">
        <ele>2300.2</ele>
        <time>2018-04-21T11:59:46.000Z</time>
      </trkpt>
      <trkpt lat="40.795855" lon="-3.940705">
        <ele>2300.1</ele>
        <time>2018-04-21T11:59:47.000Z</time>
      </trkpt>
      <trkpt lat="40.795853" lon="-3.940713">
        <ele>2300.0</ele>
        <time>2018-04-21T11:59:48.000Z</time>
      </trkpt>
      <trkpt lat="40.79585" lon="-3.940721">
        <ele>2299.9</ele>
        <time>2018-04-21T11:59:49.000Z</time>
      </trkpt>
      <trkpt lat="40.795846" lon="-3.940728">
        <ele>2299.8</ele>
        <time>2018-04-21T11:59:50.000Z</time>
      </trkpt>
      <trkpt lat="40.795842" lon="-3.940735">
        <ele>2299.8</ele>
        <time>2018-04-21T11:59:51.000Z</time>
      </trkpt>
      <trkpt lat="40.795837" lon="-3.940743">
        <ele>2299.7</ele>
        <time>2018-04-21T11:59:52.000Z</time>
      </trkpt>
      <trkpt lat="40.795833" lon="-3.940751">
        <ele>2299.7</ele>
        <time>2018-04-21T11:59:53.000Z</time>
      </trkpt>
      <trkpt lat="40.795828" lon="-3.940759">
        <ele>2299.5</ele>
        <time>2018-04-21T11:59:54.000Z</time>
      </trkpt>
      <trkpt lat="40.795825" lon="-3.940768">
        <ele>2299.3</ele>
        <time>2018-04-21T11:59:55.000Z</time>
      </trkpt>
      <trkpt lat="40.795822" lon="-3.940779">
        <ele>2299.0</ele>
        <time>2018-04-21T11:59:56.000Z</time>
      </trkpt>
      <trkpt lat="40.79582" lon="-3.94079">
        <ele>2298.8</ele>
        <time>2018-04-21T11:59:57.000Z</time>
      </trkpt>
      <trkpt lat="40.795819" lon="-3.940802">
        <ele>2298.5</ele>
        <time>2018-04-21T11:59:58.000Z</time>
      </trkpt>
      <trkpt lat="40.795819" lon="-3.940815">
        <ele>2298.3</ele>
        <time>2018-04-21T11:59:59.000Z</time>
      </trkpt>
      <trkpt lat="40.79582" lon="-3.940828">
        <ele>2298.0</ele>
        <time>2018-04-21T12:00:00.000Z</time>
      </trkpt>
      <trkpt lat="40.795821" lon="-3.94084">
        <ele>2297.8</ele>
        <time>2018-04-21T12:00:01.000Z</time>
      </trkpt>
      <trkpt lat="40.795824" lon="-3.940851">
        <ele>2297.7</ele>
        <time>2018-04-21T12:00:02.000Z</time>
      </trkpt>
      <trkpt lat="40.795827" lon="-3.94086">
        <ele>2297.6</ele>
        <time>2018-04-21T12:00:03.000Z</time>
      </trkpt>
      <trkpt lat="40.79583" lon="-3.940868">
        <ele>2297.5</ele>
        <time>2018-04-21T12:00:04.000Z</time>
      </trkpt>
      <trkpt lat="40.795834" lon="-3.940875">
        <ele>2297.4</ele>
        <time>2018-04-21T12:00:05.000Z</time>
      </trkpt>
      <trkpt lat="40.795837" lon="-3.94088">
        <ele>2297.2</ele>
        <time>2018-04-21T12:00:06.000Z</time>
      </trkpt>
      <trkpt lat="40.795841" lon="-3.940885">
        <ele>2297.0</ele>
        <time>2018-04-21T12:00:07.000Z</time>
      </trkpt>
      <trkpt lat="40.795843" lon="-3.940889">
        <ele>2296.9</ele>
        <time>2018-04-21T12:00:08.000Z</time>
      </trkpt>
      <trkpt lat="40.795845" lon="-3.940894">
        <ele>2296.8</ele>
        <time>2018-04-21T12:00:09.000Z</time>
      </trkpt>
      <trkpt lat="40.795846" lon="-3.940899">
        <ele>2296.7</ele>
        <time>2018-04-21T12:00:10.000Z</time>
      </trkpt>
      <trkpt lat="40.795845" lon="-3.940904">
        <ele>2296.7</ele>
        <time>2018-04-21T12:00:11.000Z</time>
      </trkpt>
      <trkpt lat="40.795843" lon="-3.940911">
        <ele>2296.6</ele>
        <time>2018-04-21T12:00:12.000Z</time>
      </trkpt>
      <trkpt lat="40.79584" lon="-3.940919">
        <ele>2296.6</ele>
        <time>2018-04-21T12:00:13.000Z</time>
      </trkpt>
      <trkpt lat="40.795835" lon="-3.940928">
        <ele>2296.6</ele>
        <time>2018-04-21T12:00:14.000Z</time>
      </trkpt>
      <trkpt lat="40.79583" lon="-3.940938">
        <ele>2296.5</ele>
        <time>2018-04-21T12:00:15.000Z</time>
      </trkpt>
      <trkpt lat="40.795825" lon="-3.940949">
        <ele>2296.3</ele>
        <time>2018-04-21T12:00:16.000Z</time>
      </trkpt>
      <trkpt lat="40.795821" lon="-3.94096">
        <ele>2296.1</ele>
        <time>2018-04-21T12:00:17.000Z</time>
      </trkpt>
      <trkpt lat="40.795817" lon="-3.940972">
        <ele>2295.9</ele>
        <time>2018-04-21T12:00:18.000Z</time>
      </trkpt>
      <trkpt lat="40.795814" lon="-3.940985">
        <ele>2295.7</ele>
        <time>2018-04-21T12:00:19.000Z</time>
      </trkpt>
      <trkpt lat="40.795812" lon="-3.940998">
        <ele>2295.5</ele>
        <time>2018-04-21T12:00:20.000Z</time>
      </trkpt>
      <trkpt lat="40.795811" lon="-3.941012">
        <ele>2295.3</ele>
        <time>2018-04-21T12:00:21.000Z</time>
      </trkpt>
      <trkpt lat="40.795811" lon="-3.941025">
        <ele>2295.1</ele>
        <time>2018-04-21T12:00:22.000Z</time>
      </trkpt>
      <trkpt lat="40.795811" lon="-3.941039">
        <ele>2294.9</ele>
        <time>2018-04-21T12:00:23.000Z</time>
      </trkpt>
      <trkpt lat="40.795813" lon="-3.941052">
        <ele>2294.7</ele>
        <time>2018-04-21T12:00:24.000Z</time>
      </trkpt>
      <trkpt lat="40.795815" lon="-3.941065">
        <ele>2294.5</ele>
        <time>2018-04-21T12:00:25.000Z</time>
      </trkpt>
      <trkpt lat="40.795818" lon="-3.941078">
        <ele>2294.4</ele>
        <time>2018-04-21T12:00:26.000Z</time>
      </trkpt>
      <trkpt lat="40.795822" lon="-3.941089">
        <ele>2294.2</ele>
        <time>2018-04-21T12:00:27.000Z</time>
      </trkpt>
      <trkpt lat="40.795826" lon="-3.9411">
        <ele>2294.1</ele>
        <time>2018-04-21T12:00:28.000Z</time>
      </trkpt>
      <trkpt lat="40.795831" lon="-3.941111">
        <ele>2294.0</ele>
        <time>2018-04-21T12:00:29.000Z</time>
      </trkpt>
      <trkpt lat="40.795836" lon="-3.941121">
        <ele>2293.8</ele>
        <time>2018-04-21T12:00:30.000Z</time>
      </trkpt>
      <trkpt lat="40.79584" lon="-3.94113">
        <ele>2293.5</ele>
        <time>2018-04-21T12:00:31.000Z</time>
      </trkpt>
      <trkpt lat="40.795845" lon="-3.94114">
        <ele>2293.2</ele>
        <time>2018-04-21T12:00:32.000Z</time>
      </trkpt>
      <trkpt lat="40.795849" lon="-3.941149">
        <ele>2293.0</ele>
        <time>2018-04-21T12:00:33.000Z</time>
      </trkpt>
      <trkpt lat="40.795853" lon="-3.941158">
        <ele>2292.7</ele>
        <time>2018-04-21T12:00:34.000Z</time>
      </trkpt>
      <trkpt lat="40.795857" lon="-3.941166">
        <ele>2292.5</ele>
        <time>2018-04-21T12:00:35.000Z</time>
      </trkpt>
      <trkpt lat="40.79586" lon="-3.941175">
        <ele>2292.2</ele>
        <time>2018-04-21T12:00:36.000Z</time>
      </trkpt>
      <trkpt lat="40.795863" lon="-3.941184">
        <ele>2292.0</ele>
        <time>2018-04-21T12:00:37.000Z</time>
      </trkpt>
      <trkpt lat="40.795865" lon="-3.941193">
        <ele>2291.8</ele>
        <time>2018-04-21T12:00:38.000Z</time>
      </trkpt>
      <trkpt lat="40.795867" lon="-3.941202">
        <ele>2291.6</ele>
        <time>2018-04-21T12:00:39.000Z</time>
      </trkpt>
      <trkpt lat="40.795868" lon="-3.941212">
        <ele>2291.4</ele>
        <time>2018-04-21T12:00:40.000Z</time>
      </trkpt>
      <trkpt lat="40.795869" lon="-3.941222">
        <ele>2291.3</ele>
        <time>2018-04-21T12:00:41.000Z</time>
      </trkpt>
      <trkpt lat="40.795869" lon="-3.941233">
        <ele>2291.1</ele>
        <time>2018-04-21T12:00:42.000Z</time>
      </trkpt>
      <trkpt lat="40.795868" lon="-3.941244">
        <ele>2291.0</ele>
        <time>2018-04-21T12:00:43.000Z</time>
      </trkpt>
      <trkpt lat="40.795868" lon="-3.941256">
        <ele>2290.8</ele>
        <time>2018-04-21T12:00:44.000Z</time>
      </trkpt>
      <trkpt lat="40.795867" lon="-3.941268">
        <ele>2290.6</ele>
        <time>2018-04-21T12:00:45.000Z</time>
      </trkpt>
      <trkpt lat="40.795866" lon="-3.94128">
        <ele>2290.5</ele>
        <time>2018-04-21T12:00:46.000Z</time>
      </trkpt>
      <trkpt lat="40.795865" lon="-3.941292">
        <ele>2290.4</ele>
        <time>2018-04-21T12:00:47.000Z</time>
      </trkpt>
      <trkpt lat="40.795864" lon="-3.941305">
        <ele>2290.2</ele>
        <time>2018-04-21T12:00:48.000Z</time>
      </trkpt>
      <trkpt lat="40.795862" lon="-3.941318">
        <ele>2290.1</ele>
        <time>2018-04-21T12:00:49.000Z</time>
      </trkpt>
      <trkpt lat="40.795861" lon="-3.94133">
        <ele>2289.9</ele>
        <time>2018-04-21T12:00:50.000Z</time>
      </trkpt>
      <trkpt lat="40.79586" lon="-3.941343">
        <ele>2289.8</ele>
        <time>2018-04-21T12:00:51.000Z</time>
      </trkpt>
      <trkpt lat="40.795859" lon="-3.941356">
        <ele>2289.6</ele>
        <time>2018-04-21T12:00:52.000Z</time>
      </trkpt>
      <trkpt lat="40.795857" lon="-3.941369">
        <ele>2289.5</ele>
        <time>2018-04-21T12:00:53.000Z</time>
      </trkpt>
      <trkpt lat="40.795856" lon="-3.941382">
        <ele>2289.3</ele>
        <time>2018-04-21T12:00:54.000Z</time>
      </trkpt>
      <trkpt lat="40.795854" lon="-3.941395">
        <ele>2289.2</ele>
        <time>2018-04-21T12:00:55.000Z</time>
      </trkpt>
      <trkpt lat="40.795853" lon="-3.941408">
        <ele>2289.0</ele>
        <time>2018-04-21T12:00:56.000Z</time>
      </trkpt>
      <trkpt lat="40.795851" lon="-3.941421">
        <ele>2288.9</ele>
        <time>2018-04-21T12:00:57.000Z</time>
      </trkpt>
      <trkpt lat="40.795849" lon="-3.941434">
        <ele>2288.8</ele>
        <time>2018-04-21T12:00:58.000Z</time>
      </trkpt>
      <trkpt lat="40.795847" lon="-3.941446">
        <ele>2288.7</ele>
        <time>2018-04-21T12:00:59.000Z</time>
      </trkpt>
      <trkpt lat="40.795845" lon="-3.941459">
        <ele>2288.6</ele>
        <time>2018-04-21T12:01:00.000Z</time>
      </trkpt>
      <trkpt lat="40.795842" lon="-3.941471">
        <ele>2288.5</ele>
        <time>2018-04-21T12:01:01.000Z</time>
      </trkpt>
      <trkpt lat="40.79584" lon="-3.941483">
        <ele>2288.4</ele>
        <time>2018-04-21T12:01:02.000Z</time>
      </trkpt>
      <trkpt lat="40.795837" lon="-3.941495">
        <ele>2288.3</ele>
        <time>2018-04-21T12:01:03.000Z</time>
      </trkpt>
      <trkpt lat="40.795834" lon="-3.941507">
        <ele>2288.3</ele>
        <time>2018-04-21T12:01:04.000Z</time>
      </trkpt>
      <trkpt lat="40.795831" lon="-3.941518">
        <ele>2288.1</ele>
        <time>2018-04-21T12:01:05.000Z</time>
      </trkpt>
      <trkpt lat="40.795828" lon="-3.94153">
        <ele>2287.9</ele>
        <time>2018-04-21T12:01:06.000Z</time>
      </trkpt>
      <trkpt lat="40.795825" lon="-3.941541">
        <ele>2287.7</ele>
        <time>2018-04-21T12:01:07.000Z</time>
      </trkpt>
      <trkpt lat="40.795822" lon="-3.941552">
        <ele>2287.5</ele>
        <time>2018-04-21T12:01:08.000Z</time>
      </trkpt>
      <trkpt lat="40.795818" lon="-3.941564">
        <ele>2287.3</ele>
        <time>2018-04-21T12:01:09.000Z</time>
      </trkpt>
      <trkpt lat="40.795815" lon="-3.941575">
        <ele>2287.1</ele>
        <time>2018-04-21T12:01:10.000Z</time>
      </trkpt>
      <trkpt lat="40.795812" lon="-3.941586">
        <ele>2287.0</ele>
        <time>2018-04-21T12:01:11.000Z</time>
      </trkpt>
      <trkpt lat="40.79581" lon="-3.941597">
        <ele>2286.8</ele>
        <time>2018-04-21T12:01:12.000Z</time>
      </trkpt>
      <trkpt lat="40.795807" lon="-3.941608">
        <ele>2286.6</ele>
        <time>2018-04-21T12:01:13.000Z</time>
      </trkpt>
      <trkpt lat="40.795805" lon="-3.94162">
        <ele>2286.4</ele>
        <time>2018-04-21T12:01:14.000Z</time>
      </trkpt>
      <trkpt lat="40.795803" lon="-3.941631">
        <ele>2286.2</ele>
        <time>2018-04-21T12:01:15.000Z</time>
      </trkpt>
      <trkpt lat="40.795801" lon="-3.941643">
        <ele>2286.0</ele>
        <time>2018-04-21T12:01:16.000Z</time>
      </trkpt>
      <trkpt lat="40.7958" lon="-3.941655">
        <ele>2285.8</ele>
        <time>2018-04-21T12:01:17.000Z</time>
      </trkpt>
      <trkpt lat="40.795799" lon="-3.941666">
        <ele>2285.7</ele>
        <time>2018-04-21T12:01:18.000Z</time>
      </trkpt>
      <trkpt lat="40.795798" lon="-3.941678">
        <ele>2285.5</ele>
        <time>2018-04-21T12:01:19.000Z</time>
      </trkpt>
      <trkpt lat="40.795797" lon="-3.94169">
        <ele>2285.3</ele>
        <time>2018-04-21T12:01:20.000Z</time>
      </trkpt>
      <trkpt lat="40.795796" lon="-3.941701">
        <ele>2285.1</ele>
        <time>2018-04-21T12:01:21.000Z</time>
      </trkpt>
      <trkpt lat="40.795794" lon="-3.941712">
        <ele>2284.9</ele>
        <time>2018-04-21T12:01:22.000Z</time>
      </trkpt>
      <trkpt lat="40.795792" lon="-3.941722">
        <ele>2284.7</ele>
        <time>2018-04-21T12:01:23.000Z</time>
      </trkpt>
      <trkpt lat="40.795789" lon="-3.941733">
        <ele>2284.5</ele>
        <time>2018-04-21T12:01:24.000Z</time>
      </trkpt>
      <trkpt lat="40.795785" lon="-3.941742">
        <ele>2284.3</ele>
        <time>2018-04-21T12:01:25.000Z</time>
      </trkpt>
      <trkpt lat="40.79578" lon="-3.941751">
        <ele>2284.1</ele>
        <time>2018-04-21T12:01:26.000Z</time>
      </trkpt>
      <trkpt lat="40.795774" lon="-3.941759">
        <ele>2283.9</ele>
        <time>2018-04-21T12:01:27.000Z</time>
      </trkpt>
      <trkpt lat="40.795769" lon="-3.941768">
        <ele>2283.7</ele>
        <time>2018-04-21T12:01:28.000Z</time>
      </trkpt>
      <trkpt lat="40.795762" lon="-3.941776">
        <ele>2283.5</ele>
        <time>2018-04-21T12:01:29.000Z</time>
      </trkpt>
      <trkpt lat="40.795756" lon="-3.941784">
        <ele>2283.3</ele>
        <time>2018-04-21T12:01:30.000Z</time>
      </trkpt>
      <trkpt lat="40.795749" lon="-3.941793">
        <ele>2283.1</ele>
        <time>2018-04-21T12:01:31.000Z</time>
      </trkpt>
      <trkpt lat="40.795742" lon="-3.941801">
        <ele>2282.9</ele>
        <time>2018-04-21T12:01:32.000Z</time>
      </trkpt>
      <trkpt lat="40.795735" lon="-3.94181">
        <ele>2282.7</ele>
        <time>2018-04-21T12:01:33.000Z</time>
      </trkpt>
      <trkpt lat="40.795729" lon="-3.94182">
        <ele>2282.4</ele>
        <time>2018-04-21T12:01:34.000Z</time>
      </trkpt>
      <trkpt lat="40.795723" lon="-3.941829">
        <ele>2282.2</ele>
        <time>2018-04-21T12:01:35.000Z</time>
      </trkpt>
      <trkpt lat="40.795718" lon="-3.94184">
        <ele>2282.0</ele>
        <time>2018-04-21T12:01:36.000Z</time>
      </trkpt>
      <trkpt lat="40.795713" lon="-3.941851">
        <ele>2281.8</ele>
        <time>2018-04-21T12:01:37.000Z</time>
      </trkpt>
      <trkpt lat="40.795709" lon="-3.941862">
        <ele>2281.6</ele>
        <time>2018-04-21T12:01:38.000Z</time>
      </trkpt>
      <trkpt lat="40.795706" lon="-3.941875">
        <ele>2281.3</ele>
        <time>2018-04-21T12:01:39.000Z</time>
      </trkpt>
      <trkpt lat="40.795704" lon="-3.941887">
        <ele>2281.1</ele>
        <time>2018-04-21T12:01:40.000Z</time>
      </trkpt>
      <trkpt lat="40.795703" lon="-3.9419">
        <ele>2280.9</ele>
        <time>2018-04-21T12:01:41.000Z</time>
      </trkpt>
      <trkpt lat="40.795702" lon="-3.941913">
        <ele>2280.6</ele>
        <time>2018-04-21T12:01:42.000Z</time>
      </trkpt>
      <trkpt lat="40.795701" lon="-3.941926">
        <ele>2280.4</ele>
        <time>2018-04-21T12:01:43.000Z</time>
      </trkpt>
      <trkpt lat="40.795701" lon="-3.941939">
        <ele>2280.2</ele>
        <time>2018-04-21T12:01:44.000Z</time>
      </trkpt>
      <trkpt lat="40.7957" lon="-3.941952">
        <ele>2280.0</ele>
        <time>2018-04-21T12:01:45.000Z</time>
      </trkpt>
      <trkpt lat="40.795699" lon="-3.941963">
        <ele>2279.8</ele>
        <time>2018-04-21T12:01:46.000Z</time>
      </trkpt>
      <trkpt lat="40.795698" lon="-3.941974">
        <ele>2279.6</ele>
        <time>2018-04-21T12:01:47.000Z</time>
      </trkpt>
      <trkpt lat="40.795697" lon="-3.941985">
        <ele>2279.4</ele>
        <time>2018-04-21T12:01:48.000Z</time>
      </trkpt>
      <trkpt lat="40.795695" lon="-3.941996">
        <ele>2279.2</ele>
        <time>2018-04-21T12:01:49.000Z</time>
      </trkpt>
      <trkpt lat="40.795694" lon="-3.942006">
        <ele>2279.0</ele>
        <time>2018-04-21T12:01:50.000Z</time>
      </trkpt>
      <trkpt lat="40.795693" lon="-3.942016">
        <ele>2278.9</ele>
        <time>2018-04-21T12:01:51.000Z</time>
      </trkpt>
      <trkpt lat="40.795693" lon="-3.942026">
        <ele>2278.7</ele>
        <time>2018-04-21T12:01:52.000Z</time>
      </trkpt>
      <trkpt lat="40.795693" lon="-3.942036">
        <ele>2278.5</ele>
        <time>2018-04-21T12:01:53.000Z</time>
      </trkpt>
      <trkpt lat="40.795693" lon="-3.942046">
        <ele>2278.4</ele>
        <time>2018-04-21T12:01:54.000Z</time>
      </trkpt>
      <trkpt lat="40.795694" lon="-3.942057">
        <ele>2278.2</ele>
        <time>2018-04-21T12:01:55.000Z</time>
      </trkpt>
      <trkpt lat="40.795695" lon="-3.942067">
        <ele>2278.0</ele>
        <time>2018-04-21T12:01:56.000Z</time>
      </trkpt>
      <trkpt lat="40.795696" lon="-3.942077">
        <ele>2277.9</ele>
        <time>2018-04-21T12:01:57.000Z</time>
      </trkpt>
      <trkpt lat="40.795698" lon="-3.942086">
        <ele>2277.7</ele>
        <time>2018-04-21T12:01:58.000Z</time>
      </trkpt>
      <trkpt lat="40.795699" lon="-3.942094">
        <ele>2277.6</ele>
        <time>2018-04-21T12:01:59.000Z</time>
      </trkpt>
      <trkpt lat="40.7957" lon="-3.942102">
        <ele>2277.5</ele>
        <time>2018-04-21T12:02:00.000Z</time>
      </trkpt>
      <trkpt lat="40.795702" lon="-3.942109">
        <ele>2277.4</ele>
        <time>2018-04-21T12:02:01.000Z</time>
      </trkpt>
      <trkpt lat="40.795703" lon="-3.942115">
        <ele>2277.3</ele>
        <time>2018-04-21T12:02:02.000Z</time>
      </trkpt>
      <trkpt lat="40.795704" lon="-3.942119">
        <ele>2277.2</ele>
        <time>2018-04-21T12:02:03.000Z</time>
      </trkpt>
      <trkpt lat="40.795705" lon="-3.942124">
        <ele>2277.2</ele>
        <time>2018-04-21T12:02:04.000Z</time>
      </trkpt>
      <trkpt lat="40.795706" lon="-3.942127">
        <ele>2277.1</ele>
        <time>2018-04-21T12:02:05.000Z</time>
      </trkpt>
      <trkpt lat="40.795706" lon="-3.94213">
        <ele>2277.1</ele>
        <time>2018-04-21T12:02:06.000Z</time>
      </trkpt>
      <trkpt lat="40.795707" lon="-3.942132">
        <ele>2277.1</ele>
        <time>2018-04-21T12:02:07.000Z</time>
      </trkpt>
      <trkpt lat="40.795707" lon="-3.942133">
        <ele>2277.0</ele>
        <time>2018-04-21T12:02:08.000Z</time>
      </trkpt>
      <trkpt lat="40.795708" lon="-3.942134">
        <ele>2277.0</ele>
        <time>2018-04-21T12:02:09.000Z</time>
      </trkpt>
      <trkpt lat="40.795708" lon="-3.942135">
        <ele>2277.0</ele>
        <time>2018-04-21T12:02:10.000Z</time>
      </trkpt>
      <trkpt lat="40.795708" lon="-3.942136">
        <ele>2277.0</ele>
        <time>2018-04-21T12:02:11.000Z</time>
      </trkpt>
      <trkpt lat="40.795709" lon="-3.942136">
        <ele>2277.0</ele>
        <time>2018-04-21T12:02:12.000Z</time>
      </trkpt>
      <trkpt lat="40.795709" lon="-3.942136">
        <ele>2277.0</ele>
        <time>2018-04-21T12:02:13.000Z</time>
      </trkpt>
      <trkpt lat="40.795709" lon="-3.942136">
        <ele>2277.0</ele>
        <time>2018-04-21T12:02:14.000Z</time>
      </trkpt>
      <trkpt lat="40.795709" lon="-3.942136">
        <ele>2277.0</ele>
        <time>2018-04-21T12:02:15.000Z</time>
      </trkpt>
      <trkpt lat="40.795709" lon="-3.942136">
        <ele>2277.0</ele>
        <time>2018-04-21T12:02:16.000Z</time>
      </trkpt>
      <trkpt lat="40.795709" lon="-3.942136">
        <ele>2277.0</ele>
        <time>2018-04-21T12:02:17.000Z</time>
      </trkpt>
      <trkpt lat="40.795709" lon="-3.942137">
        <ele>2277.0</ele>
        <time>2018-04-21T12:02:18.000Z</time>
      </trkpt>
      <trkpt lat="40.795709" lon="-3.942137">
        <ele>2277.0</ele>
        <time>2018-04-21T12:02:19.000Z</time>
      </trkpt>
      <trkpt lat="40.795709" lon="-3.942137">
        <ele>2277.0</ele>
        <time>2018-04-21T12:02:20.000Z</time>
      </trkpt>
      <trkpt lat="40.795709" lon="-3.942137">
        <ele>2277.0</ele>
        <time>2018-04-21T12:02:21.000Z</time>
      </trkpt>
      <trkpt lat="40.795709" lon="-3.942137">
        <ele>2277.0</ele>
        <time>2018-04-21T12:02:22.000Z</time>
      </trkpt>
      <trkpt lat="40.795709" lon="-3.942137">
        <ele>2277.0</ele>
        <time>2018-04-21T12:02:23.000Z</time>
      </trkpt>
      <trkpt lat="40.795709" lon="-3.942137">
        <ele>2277.0</ele>
        <time>2018-04-21T12:02:24.000Z</time>
      </trkpt>
      <trkpt lat="40.795709" lon="-3.942137">
        <ele>2277.0</ele>
        <time>2018-04-21T12:02:25.000Z</time>
      </trkpt>
      <trkpt lat="40.795709" lon="-3.942137">
        <ele>2277.0</ele>
        <time>2018-04-21T12:02:26.000Z</time>
      </trkpt>
      <trkpt lat="40.795709" lon="-3.942137">
        <ele>2277.0</ele>
        <time>2018-04-21T12:02:27.000Z</time>
      </trkpt>
      <trkpt lat="40.795709" lon="-3.942136">
        <ele>2277.0</ele>
        <time>2018-04-21T12:02:28.000Z</time>
      </trkpt>
      <trkpt lat="40.795709" lon="-3.942136">
        <ele>2277.0</ele>
        <time>2018-04-21T12:02:29.000Z</time>
      </trkpt>
      <trkpt lat="40.795709" lon="-3.942135">
        <ele>2277.0</ele>
        <time>2018-04-21T12:02:30.000Z</time>
      </trkpt>
      <trkpt lat="40.795709" lon="-3.942134">
        <ele>2277.0</ele>
        <time>2018-04-21T12:02:31.000Z</time>
      </trkpt>
      <trkpt lat="40.795709" lon="-3.942133">
        <ele>2277.1</ele>
        <time>2018-04-21T12:02:32.000Z</time>
      </trkpt>
      <trkpt lat="40.795709" lon="-3.942132">
        <ele>2277.1</ele>
        <time>2018-04-21T12:02:33.000Z</time>
      </trkpt>
      <trkpt lat="40.795709" lon="-3.942132">
        <ele>2277.1</ele>
        <time>2018-04-21T12:02:34.000Z</time>
      </trkpt>
      <trkpt lat="40.795709" lon="-3.942133">
        <ele>2277.1</ele>
        <time>2018-04-21T12:02:35.000Z</time>
      </trkpt>
      <trkpt lat="40.795709" lon="-3.942135">
        <ele>2277.0</ele>
        <time>2018-04-21T12:02:36.000Z</time>
      </trkpt>
      <trkpt lat="40.795709" lon="-3.942139">
        <ele>2277.0</ele>
        <time>2018-04-21T12:02:37.000Z</time>
      </trkpt>
      <trkpt lat="40.795708" lon="-3.942144">
        <ele>2276.9</ele>
        <time>2018-04-21T12:02:38.000Z</time>
      </trkpt>
      <trkpt lat="40.795708" lon="-3.94215">
        <ele>2276.8</ele>
        <time>2018-04-21T12:02:39.000Z</time>
      </trkpt>
      <trkpt lat="40.795706" lon="-3.942158">
        <ele>2276.6</ele>
        <time>2018-04-21T12:02:40.000Z</time>
      </trkpt>
      <trkpt lat="40.795704" lon="-3.942167">
        <ele>2276.4</ele>
        <time>2018-04-21T12:02:41.000Z</time>
      </trkpt>
      <trkpt lat="40.795701" lon="-3.942177">
        <ele>2276.3</ele>
        <time>2018-04-21T12:02:42.000Z</time>
      </trkpt>
      <trkpt lat="40.795697" lon="-3.942188">
        <ele>2276.0</ele>
        <time>2018-04-21T12:02:43.000Z</time>
      </trkpt>
      <trkpt lat="40.795692" lon="-3.942199">
        <ele>2275.8</ele>
        <time>2018-04-21T12:02:44.000Z</time>
      </trkpt>
      <trkpt lat="40.795686" lon="-3.942211">
        <ele>2275.6</ele>
        <time>2018-04-21T12:02:45.000Z</time>
      </trkpt>
      <trkpt lat="40.795679" lon="-3.942223">
        <ele>2275.3</ele>
        <time>2018-04-21T12:02:46.000Z</time>
      </trkpt>
      <trkpt lat="40.795673" lon="-3.942235">
        <ele>2275.0</ele>
        <time>2018-04-21T12:02:47.000Z</time>
      </trkpt>
      <trkpt lat="40.795669" lon="-3.942247">
        <ele>2274.8</ele>
        <time>2018-04-21T12:02:48.000Z</time>
      </trkpt>
      <trkpt lat="40.795667" lon="-3.94226">
        <ele>2274.6</ele>
        <time>2018-04-21T12:02:49.000Z</time>
      </trkpt>
      <trkpt lat="40.795667" lon="-3.942272">
        <ele>2274.4</ele>
        <time>2018-04-21T12:02:50.000Z</time>
      </trkpt>
      <trkpt lat="40.795668" lon="-3.942285">
        <ele>2274.2</ele>
        <time>2018-04-21T12:02:51.000Z</time>
      </trkpt>
      <trkpt lat="40.795668" lon="-3.942297">
        <ele>2274.0</ele>
        <time>2018-04-21T12:02:52.000Z</time>
      </trkpt>
      <trkpt lat="40.795667" lon="-3.942308">
        <ele>2273.8</ele>
        <time>2018-04-21T12:02:53.000Z</time>
      </trkpt>
      <trkpt lat="40.795664" lon="-3.942319">
        <ele>2273.6</ele>
        <time>2018-04-21T12:02:54.000Z</time>
      </trkpt>
      <trkpt lat="40.79566" lon="-3.942329">
        <ele>2273.4</ele>
        <time>2018-04-21T12:02:55.000Z</time>
      </trkpt>
      <trkpt lat="40.795655" lon="-3.942339">
        <ele>2273.2</ele>
        <time>2018-04-21T12:02:56.000Z</time>
      </trkpt>
      <trkpt lat="40.79565" lon="-3.942348">
        <ele>2273.0</ele>
        <time>2018-04-21T12:02:57.000Z</time>
      </trkpt>
      <trkpt lat="40.795645" lon="-3.942358">
        <ele>2272.8</ele>
        <time>2018-04-21T12:02:58.000Z</time>
      </trkpt>
      <trkpt lat="40.79564" lon="-3.942367">
        <ele>2272.6</ele>
        <time>2018-04-21T12:02:59.000Z</time>
      </trkpt>
      <trkpt lat="40.795636" lon="-3.942377">
        <ele>2272.4</ele>
        <time>2018-04-21T12:03:00.000Z</time>
      </trkpt>
      <trkpt lat="40.795633" lon="-3.942386">
        <ele>2272.2</ele>
        <time>2018-04-21T12:03:01.000Z</time>
      </trkpt>
      <trkpt lat="40.795632" lon="-3.942397">
        <ele>2272.0</ele>
        <time>2018-04-21T12:03:02.000Z</time>
      </trkpt>
      <trkpt lat="40.795633" lon="-3.942408">
        <ele>2271.8</ele>
        <time>2018-04-21T12:03:03.000Z</time>
      </trkpt>
      <trkpt lat="40.795635" lon="-3.942421">
        <ele>2271.6</ele>
        <time>2018-04-21T12:03:04.000Z</time>
      </trkpt>
      <trkpt lat="40.795639" lon="-3.942434">
        <ele>2271.5</ele>
        <time>2018-04-21T12:03:05.000Z</time>
      </trkpt>
      <trkpt lat="40.795642" lon="-3.942448">
        <ele>2271.3</ele>
        <time>2018-04-21T12:03:06.000Z</time>
      </trkpt>
      <trkpt lat="40.795645" lon="-3.942461">
        <ele>2271.1</ele>
        <time>2018-04-21T12:03:07.000Z</time>
      </trkpt>
      <trkpt lat="40.795645" lon="-3.942473">
        <ele>2270.9</ele>
        <time>2018-04-21T12:03:08.000Z</time>
      </trkpt>
      <trkpt lat="40.795644" lon="-3.942484">
        <ele>2270.7</ele>
        <time>2018-04-21T12:03:09.000Z</time>
      </trkpt>
      <trkpt lat="40.795641" lon="-3.942495">
        <ele>2270.5</ele>
        <time>2018-04-21T12:03:10.000Z</time>
      </trkpt>
      <trkpt lat="40.795637" lon="-3.942506">
        <ele>2270.3</ele>
        <time>2018-04-21T12:03:11.000Z</time>
      </trkpt>
      <trkpt lat="40.795632" lon="-3.942516">
        <ele>2270.1</ele>
        <time>2018-04-21T12:03:12.000Z</time>
      </trkpt>
      <trkpt lat="40.795627" lon="-3.942526">
        <ele>2269.9</ele>
        <time>2018-04-21T12:03:13.000Z</time>
      </trkpt>
      <trkpt lat="40.795623" lon="-3.942537">
        <ele>2269.7</ele>
        <time>2018-04-21T12:03:14.000Z</time>
      </trkpt>
      <trkpt lat="40.795619" lon="-3.942547">
        <ele>2269.5</ele>
        <time>2018-04-21T12:03:15.000Z</time>
      </trkpt>
      <trkpt lat="40.795616" lon="-3.942558">
        <ele>2269.3</ele>
        <time>2018-04-21T12:03:16.000Z</time>
      </trkpt>
      <trkpt lat="40.795613" lon="-3.942568">
        <ele>2269.1</ele>
        <time>2018-04-21T12:03:17.000Z</time>
      </trkpt>
      <trkpt lat="40.795611" lon="-3.942579">
        <ele>2268.9</ele>
        <time>2018-04-21T12:03:18.000Z</time>
      </trkpt>
      <trkpt lat="40.795608" lon="-3.94259">
        <ele>2268.7</ele>
        <time>2018-04-21T12:03:19.000Z</time>
      </trkpt>
      <trkpt lat="40.795605" lon="-3.942601">
        <ele>2268.5</ele>
        <time>2018-04-21T12:03:20.000Z</time>
      </trkpt>
      <trkpt lat="40.795602" lon="-3.942612">
        <ele>2268.3</ele>
        <time>2018-04-21T12:03:21.000Z</time>
      </trkpt>
      <trkpt lat="40.795599" lon="-3.942623">
        <ele>2268.1</ele>
        <time>2018-04-21T12:03:22.000Z</time>
      </trkpt>
      <trkpt lat="40.795595" lon="-3.942634">
        <ele>2267.9</ele>
        <time>2018-04-21T12:03:23.000Z</time>
      </trkpt>
      <trkpt lat="40.79559" lon="-3.942644">
        <ele>2267.7</ele>
        <time>2018-04-21T12:03:24.000Z</time>
      </trkpt>
      <trkpt lat="40.795586" lon="-3.942655">
        <ele>2267.5</ele>
        <time>2018-04-21T12:03:25.000Z</time>
      </trkpt>
      <trkpt lat="40.795581" lon="-3.942666">
        <ele>2267.3</ele>
        <time>2018-04-21T12:03:26.000Z</time>
      </trkpt>
      <trkpt lat="40.795577" lon="-3.942677">
        <ele>2267.1</ele>
        <time>2018-04-21T12:03:27.000Z</time>
      </trkpt>
      <trkpt lat="40.795574" lon="-3.942688">
        <ele>2266.9</ele>
        <time>2018-04-21T12:03:28.000Z</time>
      </trkpt>
      <trkpt lat="40.795572" lon="-3.9427">
        <ele>2266.7</ele>
        <time>2018-04-21T12:03:29.000Z</time>
      </trkpt>
      <trkpt lat="40.795571" lon="-3.942711">
        <ele>2266.6</ele>
        <time>2018-04-21T12:03:30.000Z</time>
      </trkpt>
      <trkpt lat="40.795572" lon="-3.942723">
        <ele>2266.4</ele>
        <time>2018-04-21T12:03:31.000Z</time>
      </trkpt>
      <trkpt lat="40.795573" lon="-3.942735">
        <ele>2266.2</ele>
        <time>2018-04-21T12:03:32.000Z</time>
      </trkpt>
      <trkpt lat="40.795574" lon="-3.942746">
        <ele>2266.1</ele>
        <time>2018-04-21T12:03:33.000Z</time>
      </trkpt>
      <trkpt lat="40.795576" lon="-3.942758">
        <ele>2265.9</ele>
        <time>2018-04-21T12:03:34.000Z</time>
      </trkpt>
      <trkpt lat="40.795577" lon="-3.942771">
        <ele>2265.7</ele>
        <time>2018-04-21T12:03:35.000Z</time>
      </trkpt>
      <trkpt lat="40.795579" lon="-3.942783">
        <ele>2265.5</ele>
        <time>2018-04-21T12:03:36.000Z</time>
      </trkpt>
      <trkpt lat="40.79558" lon="-3.942795">
        <ele>2265.3</ele>
        <time>2018-04-21T12:03:37.000Z</time>
      </trkpt>
      <trkpt lat="40.79558" lon="-3.942807">
        <ele>2265.2</ele>
        <time>2018-04-21T12:03:38.000Z</time>
      </trkpt>
      <trkpt lat="40.79558" lon="-3.942819">
        <ele>2265.0</ele>
        <time>2018-04-21T12:03:39.000Z</time>
      </trkpt>
      <trkpt lat="40.795581" lon="-3.942831">
        <ele>2264.8</ele>
        <time>2018-04-21T12:03:40.000Z</time>
      </trkpt>
      <trkpt lat="40.795581" lon="-3.942843">
        <ele>2264.6</ele>
        <time>2018-04-21T12:03:41.000Z</time>
      </trkpt>
      <trkpt lat="40.795582" lon="-3.942855">
        <ele>2264.4</ele>
        <time>2018-04-21T12:03:42.000Z</time>
      </trkpt>
      <trkpt lat="40.795584" lon="-3.942867">
        <ele>2264.3</ele>
        <time>2018-04-21T12:03:43.000Z</time>
      </trkpt>
      <trkpt lat="40.795586" lon="-3.942878">
        <ele>2264.1</ele>
        <time>2018-04-21T12:03:44.000Z</time>
      </trkpt>
      <trkpt lat="40.795589" lon="-3.94289">
        <ele>2263.9</ele>
        <time>2018-04-21T12:03:45.000Z</time>
      </trkpt>
      <trkpt lat="40.795592" lon="-3.942901">
        <ele>2263.8</ele>
        <time>2018-04-21T12:03:46.000Z</time>
      </trkpt>
      <trkpt lat="40.795595" lon="-3.942913">
        <ele>2263.6</ele>
        <time>2018-04-21T12:03:47.000Z</time>
      </trkpt>
      <trkpt lat="40.795599" lon="-3.942924">
        <ele>2263.5</ele>
        <time>2018-04-21T12:03:48.000Z</time>
      </trkpt>
      <trkpt lat="40.795601" lon="-3.942935">
        <ele>2263.3</ele>
        <time>2018-04-21T12:03:49.000Z</time>
      </trkpt>
      <trkpt lat="40.795603" lon="-3.942946">
        <ele>2263.2</ele>
        <time>2018-04-21T12:03:50.000Z</time>
      </trkpt>
      <trkpt lat="40.795605" lon="-3.942957">
        <ele>2263.0</ele>
        <time>2018-04-21T12:03:51.000Z</time>
      </trkpt>
      <trkpt lat="40.795605" lon="-3.942968">
        <ele>2262.8</ele>
        <time>2018-04-21T12:03:52.000Z</time>
      </trkpt>
      <trkpt lat="40.795604" lon="-3.942978">
        <ele>2262.7</ele>
        <time>2018-04-21T12:03:53.000Z</time>
      </trkpt>
      <trkpt lat="40.795603" lon="-3.942989">
        <ele>2262.5</ele>
        <time>2018-04-21T12:03:54.000Z</time>
      </trkpt>
      <trkpt lat="40.795601" lon="-3.942999">
        <ele>2262.3</ele>
        <time>2018-04-21T12:03:55.000Z</time>
      </trkpt>
      <trkpt lat="40.795599" lon="-3.94301">
        <ele>2262.2</ele>
        <time>2018-04-21T12:03:56.000Z</time>
      </trkpt>
      <trkpt lat="40.795597" lon="-3.943021">
        <ele>2262.0</ele>
        <time>2018-04-21T12:03:57.000Z</time>
      </trkpt>
      <trkpt lat="40.795596" lon="-3.943032">
        <ele>2261.8</ele>
        <time>2018-04-21T12:03:58.000Z</time>
      </trkpt>
      <trkpt lat="40.795595" lon="-3.943043">
        <ele>2261.6</ele>
        <time>2018-04-21T12:03:59.000Z</time>
      </trkpt>
      <trkpt lat="40.795595" lon="-3.943055">
        <ele>2261.4</ele>
        <time>2018-04-21T12:04:00.000Z</time>
      </trkpt>
      <trkpt lat="40.795595" lon="-3.943066">
        <ele>2261.3</ele>
        <time>2018-04-21T12:04:01.000Z</time>
      </trkpt>
      <trkpt lat="40.795596" lon="-3.943078">
        <ele>2261.1</ele>
        <time>2018-04-21T12:04:02.000Z</time>
      </trkpt>
      <trkpt lat="40.795596" lon="-3.94309">
        <ele>2260.9</ele>
        <time>2018-04-21T12:04:03.000Z</time>
      </trkpt>
      <trkpt lat="40.795597" lon="-3.943102">
        <ele>2260.7</ele>
        <time>2018-04-21T12:04:04.000Z</time>
      </trkpt>
      <trkpt lat="40.795598" lon="-3.943113">
        <ele>2260.6</ele>
        <time>2018-04-21T12:04:05.000Z</time>
      </trkpt>
      <trkpt lat="40.795599" lon="-3.943125">
        <ele>2260.4</ele>
        <time>2018-04-21T12:04:06.000Z</time>
      </trkpt>
      <trkpt lat="40.795599" lon="-3.943137">
        <ele>2260.2</ele>
        <time>2018-04-21T12:04:07.000Z</time>
      </trkpt>
      <trkpt lat="40.7956" lon="-3.943148">
        <ele>2260.0</ele>
        <time>2018-04-21T12:04:08.000Z</time>
      </trkpt>
      <trkpt lat="40.7956" lon="-3.94316">
        <ele>2259.8</ele>
        <time>2018-04-21T12:04:09.000Z</time>
      </trkpt>
      <trkpt lat="40.795599" lon="-3.943171">
        <ele>2259.7</ele>
        <time>2018-04-21T12:04:10.000Z</time>
      </trkpt>
      <trkpt lat="40.795599" lon="-3.943181">
        <ele>2259.5</ele>
        <time>2018-04-21T12:04:11.000Z</time>
      </trkpt>
      <trkpt lat="40.795597" lon="-3.943192">
        <ele>2259.3</ele>
        <time>2018-04-21T12:04:12.000Z</time>
      </trkpt>
      <trkpt lat="40.795595" lon="-3.943202">
        <ele>2259.2</ele>
        <time>2018-04-21T12:04:13.000Z</time>
      </trkpt>
      <trkpt lat="40.795591" lon="-3.943211">
        <ele>2259.0</ele>
        <time>2018-04-21T12:04:14.000Z</time>
      </trkpt>
      <trkpt lat="40.795587" lon="-3.94322">
        <ele>2258.9</ele>
        <time>2018-04-21T12:04:15.000Z</time>
      </trkpt>
      <trkpt lat="40.795582" lon="-3.943228">
        <ele>2258.7</ele>
        <time>2018-04-21T12:04:16.000Z</time>
      </trkpt>
      <trkpt lat="40.795575" lon="-3.943234">
        <ele>2258.6</ele>
        <time>2018-04-21T12:04:17.000Z</time>
      </trkpt>
      <trkpt lat="40.795568" lon="-3.943238">
        <ele>2258.5</ele>
        <time>2018-04-21T12:04:18.000Z</time>
      </trkpt>
      <trkpt lat="40.79556" lon="-3.943241">
        <ele>2258.4</ele>
        <time>2018-04-21T12:04:19.000Z</time>
      </trkpt>
      <trkpt lat="40.795552" lon="-3.943244">
        <ele>2258.3</ele>
        <time>2018-04-21T12:04:20.000Z</time>
      </trkpt>
      <trkpt lat="40.795544" lon="-3.943246">
        <ele>2258.3</ele>
        <time>2018-04-21T12:04:21.000Z</time>
      </trkpt>
      <trkpt lat="40.795538" lon="-3.943249">
        <ele>2258.2</ele>
        <time>2018-04-21T12:04:22.000Z</time>
      </trkpt>
      <trkpt lat="40.795533" lon="-3.943253">
        <ele>2258.1</ele>
        <time>2018-04-21T12:04:23.000Z</time>
      </trkpt>
      <trkpt lat="40.79553" lon="-3.943257">
        <ele>2258.1</ele>
        <time>2018-04-21T12:04:24.000Z</time>
      </trkpt>
      <trkpt lat="40.795527" lon="-3.943261">
        <ele>2258.0</ele>
        <time>2018-04-21T12:04:25.000Z</time>
      </trkpt>
      <trkpt lat="40.795526" lon="-3.943266">
        <ele>2257.9</ele>
        <time>2018-04-21T12:04:26.000Z</time>
      </trkpt>
      <trkpt lat="40.795525" lon="-3.943271">
        <ele>2257.8</ele>
        <time>2018-04-21T12:04:27.000Z</time>
      </trkpt>
      <trkpt lat="40.795525" lon="-3.943276">
        <ele>2257.8</ele>
        <time>2018-04-21T12:04:28.000Z</time>
      </trkpt>
      <trkpt lat="40.795526" lon="-3.943281">
        <ele>2257.7</ele>
        <time>2018-04-21T12:04:29.000Z</time>
      </trkpt>
      <trkpt lat="40.795528" lon="-3.943286">
        <ele>2257.6</ele>
        <time>2018-04-21T12:04:30.000Z</time>
      </trkpt>
      <trkpt lat="40.79553" lon="-3.943292">
        <ele>2257.5</ele>
        <time>2018-04-21T12:04:31.000Z</time>
      </trkpt>
      <trkpt lat="40.795532" lon="-3.943297">
        <ele>2257.5</ele>
        <time>2018-04-21T12:04:32.000Z</time>
      </trkpt>
      <trkpt lat="40.795535" lon="-3.943303">
        <ele>2257.4</ele>
        <time>2018-04-21T12:04:33.000Z</time>
      </trkpt>
      <trkpt lat="40.795538" lon="-3.943309">
        <ele>2257.3</ele>
        <time>2018-04-21T12:04:34.000Z</time>
      </trkpt>
      <trkpt lat="40.795541" lon="-3.943316">
        <ele>2257.2</ele>
        <time>2018-04-21T12:04:35.000Z</time>
      </trkpt>
      <trkpt lat="40.795545" lon="-3.943323">
        <ele>2257.1</ele>
        <time>2018-04-21T12:04:36.000Z</time>
      </trkpt>
      <trkpt lat="40.795548" lon="-3.943331">
        <ele>2257.0</ele>
        <time>2018-04-21T12:04:37.000Z</time>
      </trkpt>
      <trkpt lat="40.795551" lon="-3.94334">
        <ele>2256.9</ele>
        <time>2018-04-21T12:04:38.000Z</time>
      </trkpt>
      <trkpt lat="40.795553" lon="-3.943349">
        <ele>2256.7</ele>
        <time>2018-04-21T12:04:39.000Z</time>
      </trkpt>
      <trkpt lat="40.795555" lon="-3.943359">
        <ele>2256.5</ele>
        <time>2018-04-21T12:04:40.000Z</time>
      </trkpt>
      <trkpt lat="40.795557" lon="-3.94337">
        <ele>2256.3</ele>
        <time>2018-04-21T12:04:41.000Z</time>
      </trkpt>
      <trkpt lat="40.795558" lon="-3.943382">
        <ele>2256.1</ele>
        <time>2018-04-21T12:04:42.000Z</time>
      </trkpt>
      <trkpt lat="40.795558" lon="-3.943395">
        <ele>2255.8</ele>
        <time>2018-04-21T12:04:43.000Z</time>
      </trkpt>
      <trkpt lat="40.795558" lon="-3.943408">
        <ele>2255.6</ele>
        <time>2018-04-21T12:04:44.000Z</time>
      </trkpt>
      <trkpt lat="40.795557" lon="-3.943418">
        <ele>2255.4</ele>
        <time>2018-04-21T12:04:45.000Z</time>
      </trkpt>
      <trkpt lat="40.795557" lon="-3.943425">
        <ele>2255.3</ele>
        <time>2018-04-21T12:04:46.000Z</time>
      </trkpt>
      <trkpt lat="40.795557" lon="-3.943427">
        <ele>2255.2</ele>
        <time>2018-04-21T12:04:47.000Z</time>
      </trkpt>
      <trkpt lat="40.795557" lon="-3.943426">
        <ele>2255.3</ele>
        <time>2018-04-21T12:04:48.000Z</time>
      </trkpt>
      <trkpt lat="40.795557" lon="-3.943425">
        <ele>2255.3</ele>
        <time>2018-04-21T12:04:49.000Z</time>
      </trkpt>
      <trkpt lat="40.795557" lon="-3.943425">
        <ele>2255.3</ele>
        <time>2018-04-21T12:04:50.000Z</time>
      </trkpt>
      <trkpt lat="40.795557" lon="-3.943428">
        <ele>2255.2</ele>
        <time>2018-04-21T12:04:51.000Z</time>
      </trkpt>
      <trkpt lat="40.795556" lon="-3.943434">
        <ele>2255.1</ele>
        <time>2018-04-21T12:04:52.000Z</time>
      </trkpt>
      <trkpt lat="40.795556" lon="-3.943442">
        <ele>2255.0</ele>
        <time>2018-04-21T12:04:53.000Z</time>
      </trkpt>
      <trkpt lat="40.795555" lon="-3.943451">
        <ele>2254.8</ele>
        <time>2018-04-21T12:04:54.000Z</time>
      </trkpt>
      <trkpt lat="40.795555" lon="-3.94346">
        <ele>2254.6</ele>
        <time>2018-04-21T12:04:55.000Z</time>
      </trkpt>
      <trkpt lat="40.795554" lon="-3.943468">
        <ele>2254.5</ele>
        <time>2018-04-21T12:04:56.000Z</time>
      </trkpt>
      <trkpt lat="40.795553" lon="-3.943474">
        <ele>2254.3</ele>
        <time>2018-04-21T12:04:57.000Z</time>
      </trkpt>
      <trkpt lat="40.795552" lon="-3.943478">
        <ele>2254.3</ele>
        <time>2018-04-21T12:04:58.000Z</time>
      </trkpt>
      <trkpt lat="40.795552" lon="-3.94348">
        <ele>2254.2</ele>
        <time>2018-04-21T12:04:59.000Z</time>
      </trkpt>
      <trkpt lat="40.795551" lon="-3.94348">
        <ele>2254.2</ele>
        <time>2018-04-21T12:05:00.000Z</time>
      </trkpt>
      <trkpt lat="40.795551" lon="-3.94348">
        <ele>2254.2</ele>
        <time>2018-04-21T12:05:01.000Z</time>
      </trkpt>
      <trkpt lat="40.795551" lon="-3.94348">
        <ele>2254.2</ele>
        <time>2018-04-21T12:05:02.000Z</time>
      </trkpt>
      <trkpt lat="40.795551" lon="-3.943481">
        <ele>2254.2</ele>
        <time>2018-04-21T12:05:03.000Z</time>
      </trkpt>
      <trkpt lat="40.795552" lon="-3.943484">
        <ele>2254.2</ele>
        <time>2018-04-21T12:05:04.000Z</time>
      </trkpt>
      <trkpt lat="40.795553" lon="-3.943489">
        <ele>2254.1</ele>
        <time>2018-04-21T12:05:05.000Z</time>
      </trkpt>
      <trkpt lat="40.795554" lon="-3.943496">
        <ele>2253.9</ele>
        <time>2018-04-21T12:05:06.000Z</time>
      </trkpt>
      <trkpt lat="40.795555" lon="-3.943504">
        <ele>2253.8</ele>
        <time>2018-04-21T12:05:07.000Z</time>
      </trkpt>
      <trkpt lat="40.795556" lon="-3.943514">
        <ele>2253.6</ele>
        <time>2018-04-21T12:05:08.000Z</time>
      </trkpt>
      <trkpt lat="40.795556" lon="-3.943525">
        <ele>2253.4</ele>
        <time>2018-04-21T12:05:09.000Z</time>
      </trkpt>
      <trkpt lat="40.795554" lon="-3.943536">
        <ele>2253.2</ele>
        <time>2018-04-21T12:05:10.000Z</time>
      </trkpt>
      <trkpt lat="40.795551" lon="-3.943547">
        <ele>2253.0</ele>
        <time>2018-04-21T12:05:11.000Z</time>
      </trkpt>
      <trkpt lat="40.795547" lon="-3.943558">
        <ele>2252.7</ele>
        <time>2018-04-21T12:05:12.000Z</time>
      </trkpt>
      <trkpt lat="40.795541" lon="-3.943568">
        <ele>2252.5</ele>
        <time>2018-04-21T12:05:13.000Z</time>
      </trkpt>
      <trkpt lat="40.795535" lon="-3.943579">
        <ele>2252.3</ele>
        <time>2018-04-21T12:05:14.000Z</time>
      </trkpt>
      <trkpt lat="40.795528" lon="-3.943589">
        <ele>2252.1</ele>
        <time>2018-04-21T12:05:15.000Z</time>
      </trkpt>
      <trkpt lat="40.795522" lon="-3.943599">
        <ele>2251.9</ele>
        <time>2018-04-21T12:05:16.000Z</time>
      </trkpt>
      <trkpt lat="40.795516" lon="-3.94361">
        <ele>2251.7</ele>
        <time>2018-04-21T12:05:17.000Z</time>
      </trkpt>
      <trkpt lat="40.795512" lon="-3.943621">
        <ele>2251.5</ele>
        <time>2018-04-21T12:05:18.000Z</time>
      </trkpt>
      <trkpt lat="40.79551" lon="-3.943632">
        <ele>2251.2</ele>
        <time>2018-04-21T12:05:19.000Z</time>
      </trkpt>
      <trkpt lat="40.79551" lon="-3.943644">
        <ele>2251.0</ele>
        <time>2018-04-21T12:05:20.000Z</time>
      </trkpt>
      <trkpt lat="40.795512" lon="-3.943657">
        <ele>2250.8</ele>
        <time>2018-04-21T12:05:21.000Z</time>
      </trkpt>
      <trkpt lat="40.795515" lon="-3.94367">
        <ele>2250.5</ele>
        <time>2018-04-21T12:05:22.000Z</time>
      </trkpt>
      <trkpt lat="40.79552" lon="-3.943683">
        <ele>2250.3</ele>
        <time>2018-04-21T12:05:23.000Z</time>
      </trkpt>
      <trkpt lat="40.795525" lon="-3.943696">
        <ele>2250.1</ele>
        <time>2018-04-21T12:05:24.000Z</time>
      </trkpt>
      <trkpt lat="40.79553" lon="-3.943709">
        <ele>2249.9</ele>
        <time>2018-04-21T12:05:25.000Z</time>
      </trkpt>
      <trkpt lat="40.795535" lon="-3.943722">
        <ele>2249.6</ele>
        <time>2018-04-21T12:05:26.000Z</time>
      </trkpt>
      <trkpt lat="40.79554" lon="-3.943734">
        <ele>2249.4</ele>
        <time>2018-04-21T12:05:27.000Z</time>
      </trkpt>
      <trkpt lat="40.795544" lon="-3.943747">
        <ele>2249.2</ele>
        <time>2018-04-21T12:05:28.000Z</time>
      </trkpt>
      <trkpt lat="40.795548" lon="-3.943758">
        <ele>2249.0</ele>
        <time>2018-04-21T12:05:29.000Z</time>
      </trkpt>
      <trkpt lat="40.795551" lon="-3.943769">
        <ele>2248.8</ele>
        <time>2018-04-21T12:05:30.000Z</time>
      </trkpt>
      <trkpt lat="40.795554" lon="-3.943779">
        <ele>2248.6</ele>
        <time>2018-04-21T12:05:31.000Z</time>
      </trkpt>
      <trkpt lat="40.795557" lon="-3.943788">
        <ele>2248.5</ele>
        <time>2018-04-21T12:05:32.000Z</time>
      </trkpt>
      <trkpt lat="40.79556" lon="-3.943795">
        <ele>2248.3</ele>
        <time>2018-04-21T12:05:33.000Z</time>
      </trkpt>
      <trkpt lat="40.795562" lon="-3.943801">
        <ele>2248.2</ele>
        <time>2018-04-21T12:05:34.000Z</time>
      </trkpt>
      <trkpt lat="40.795564" lon="-3.943807">
        <ele>2248.1</ele>
        <time>2018-04-21T12:05:35.000Z</time>
      </trkpt>
      <trkpt lat="40.795566" lon="-3.943812">
        <ele>2248.0</ele>
        <time>2018-04-21T12:05:36.000Z</time>
      </trkpt>
      <trkpt lat="40.795567" lon="-3.943818">
        <ele>2247.9</ele>
        <time>2018-04-21T12:05:37.000Z</time>
      </trkpt>
      <trkpt lat="40.795568" lon="-3.943824">
        <ele>2247.8</ele>
        <time>2018-04-21T12:05:38.000Z</time>
      </trkpt>
      <trkpt lat="40.795567" lon="-3.943832">
        <ele>2247.7</ele>
        <time>2018-04-21T12:05:39.000Z</time>
      </trkpt>
      <trkpt lat="40.795566" lon="-3.943842">
        <ele>2247.5</ele>
        <time>2018-04-21T12:05:40.000Z</time>
      </trkpt>
      <trkpt lat="40.795563" lon="-3.943854">
        <ele>2247.2</ele>
        <time>2018-04-21T12:05:41.000Z</time>
      </trkpt>
      <trkpt lat="40.79556" lon="-3.943868">
        <ele>2247.0</ele>
        <time>2018-04-21T12:05:42.000Z</time>
      </trkpt>
      <trkpt lat="40.795557" lon="-3.943881">
        <ele>2246.7</ele>
        <time>2018-04-21T12:05:43.000Z</time>
      </trkpt>
      <trkpt lat="40.795555" lon="-3.943892">
        <ele>2246.5</ele>
        <time>2018-04-21T12:05:44.000Z</time>
      </trkpt>
      <trkpt lat="40.795555" lon="-3.9439">
        <ele>2246.3</ele>
        <time>2018-04-21T12:05:45.000Z</time>
      </trkpt>
      <trkpt lat="40.795555" lon="-3.943906">
        <ele>2246.2</ele>
        <time>2018-04-21T12:05:46.000Z</time>
      </trkpt>
      <trkpt lat="40.795555" lon="-3.94391">
        <ele>2246.2</ele>
        <time>2018-04-21T12:05:47.000Z</time>
      </trkpt>
      <trkpt lat="40.795555" lon="-3.943915">
        <ele>2246.1</ele>
        <time>2018-04-21T12:05:48.000Z</time>
      </trkpt>
      <trkpt lat="40.795555" lon="-3.943921">
        <ele>2246.0</ele>
        <time>2018-04-21T12:05:49.000Z</time>
      </trkpt>
      <trkpt lat="40.795554" lon="-3.943927">
        <ele>2245.8</ele>
        <time>2018-04-21T12:05:50.000Z</time>
      </trkpt>
      <trkpt lat="40.795552" lon="-3.943934">
        <ele>2245.7</ele>
        <time>2018-04-21T12:05:51.000Z</time>
      </trkpt>
      <trkpt lat="40.79555" lon="-3.943941">
        <ele>2245.6</ele>
        <time>2018-04-21T12:05:52.000Z</time>
      </trkpt>
      <trkpt lat="40.795548" lon="-3.943948">
        <ele>2245.4</ele>
        <time>2018-04-21T12:05:53.000Z</time>
      </trkpt>
      <trkpt lat="40.795546" lon="-3.943954">
        <ele>2245.3</ele>
        <time>2018-04-21T12:05:54.000Z</time>
      </trkpt>
      <trkpt lat="40.795544" lon="-3.943959">
        <ele>2245.2</ele>
        <time>2018-04-21T12:05:55.000Z</time>
      </trkpt>
      <trkpt lat="40.795543" lon="-3.943962">
        <ele>2245.1</ele>
        <time>2018-04-21T12:05:56.000Z</time>
      </trkpt>
      <trkpt lat="40.795542" lon="-3.943964">
        <ele>2245.1</ele>
        <time>2018-04-21T12:05:57.000Z</time>
      </trkpt>
      <trkpt lat="40.795542" lon="-3.943964">
        <ele>2245.1</ele>
        <time>2018-04-21T12:05:58.000Z</time>
      </trkpt>
      <trkpt lat="40.795542" lon="-3.943964">
        <ele>2245.1</ele>
        <time>2018-04-21T12:05:59.000Z</time>
      </trkpt>
      <trkpt lat="40.795542" lon="-3.943964">
        <ele>2245.1</ele>
        <time>2018-04-21T12:06:00.000Z</time>
      </trkpt>
      <trkpt lat="40.795542" lon="-3.943963">
        <ele>2245.1</ele>
        <time>2018-04-21T12:06:01.000Z</time>
      </trkpt>
      <trkpt lat="40.795543" lon="-3.943962">
        <ele>2245.1</ele>
        <time>2018-04-21T12:06:02.000Z</time>
      </trkpt>
      <trkpt lat="40.795543" lon="-3.943961">
        <ele>2245.2</ele>
        <time>2018-04-21T12:06:03.000Z</time>
      </trkpt>
      <trkpt lat="40.795543" lon="-3.94396">
        <ele>2245.2</ele>
        <time>2018-04-21T12:06:04.000Z</time>
      </trkpt>
      <trkpt lat="40.795543" lon="-3.94396">
        <ele>2245.2</ele>
        <time>2018-04-21T12:06:05.000Z</time>
      </trkpt>
      <trkpt lat="40.795543" lon="-3.943961">
        <ele>2245.2</ele>
        <time>2018-04-21T12:06:06.000Z</time>
      </trkpt>
      <trkpt lat="40.795542" lon="-3.943962">
        <ele>2245.1</ele>
        <time>2018-04-21T12:06:07.000Z</time>
      </trkpt>
      <trkpt lat="40.795541" lon="-3.943964">
        <ele>2245.1</ele>
        <time>2018-04-21T12:06:08.000Z</time>
      </trkpt>
      <trkpt lat="40.795539" lon="-3.943967">
        <ele>2245.0</ele>
        <time>2018-04-21T12:06:09.000Z</time>
      </trkpt>
      <trkpt lat="40.795537" lon="-3.943971">
        <ele>2245.0</ele>
        <time>2018-04-21T12:06:10.000Z</time>
      </trkpt>
      <trkpt lat="40.795533" lon="-3.943976">
        <ele>2244.9</ele>
        <time>2018-04-21T12:06:11.000Z</time>
      </trkpt>
      <trkpt lat="40.79553" lon="-3.943982">
        <ele>2244.7</ele>
        <time>2018-04-21T12:06:12.000Z</time>
      </trkpt>
      <trkpt lat="40.795526" lon="-3.943989">
        <ele>2244.6</ele>
        <time>2018-04-21T12:06:13.000Z</time>
      </trkpt>
      <trkpt lat="40.795521" lon="-3.943997">
        <ele>2244.4</ele>
        <time>2018-04-21T12:06:14.000Z</time>
      </trkpt>
      <trkpt lat="40.795517" lon="-3.944005">
        <ele>2244.3</ele>
        <time>2018-04-21T12:06:15.000Z</time>
      </trkpt>
      <trkpt lat="40.795513" lon="-3.944015">
        <ele>2244.1</ele>
        <time>2018-04-21T12:06:16.000Z</time>
      </trkpt>
      <trkpt lat="40.795509" lon="-3.944025">
        <ele>2243.9</ele>
        <time>2018-04-21T12:06:17.000Z</time>
      </trkpt>
      <trkpt lat="40.795507" lon="-3.944037">
        <ele>2243.6</ele>
        <time>2018-04-21T12:06:18.000Z</time>
      </trkpt>
      <trkpt lat="40.795505" lon="-3.944049">
        <ele>2243.4</ele>
        <time>2018-04-21T12:06:19.000Z</time>
      </trkpt>
      <trkpt lat="40.795504" lon="-3.944061">
        <ele>2243.2</ele>
        <time>2018-04-21T12:06:20.000Z</time>
      </trkpt>
      <trkpt lat="40.795504" lon="-3.944074">
        <ele>2242.9</ele>
        <time>2018-04-21T12:06:21.000Z</time>
      </trkpt>
      <trkpt lat="40.795505" lon="-3.944087">
        <ele>2242.7</ele>
        <time>2018-04-21T12:06:22.000Z</time>
      </trkpt>
      <trkpt lat="40.795507" lon="-3.944099">
        <ele>2242.5</ele>
        <time>2018-04-21T12:06:23.000Z</time>
      </trkpt>
      <trkpt lat="40.79551" lon="-3.944111">
        <ele>2242.3</ele>
        <time>2018-04-21T12:06:24.000Z</time>
      </trkpt>
      <trkpt lat="40.795514" lon="-3.944123">
        <ele>2242.1</ele>
        <time>2018-04-21T12:06:25.000Z</time>
      </trkpt>
      <trkpt lat="40.795519" lon="-3.944133">
        <ele>2241.9</ele>
        <time>2018-04-21T12:06:26.000Z</time>
      </trkpt>
      <trkpt lat="40.795525" lon="-3.944143">
        <ele>2241.7</ele>
        <time>2018-04-21T12:06:27.000Z</time>
      </trkpt>
      <trkpt lat="40.795532" lon="-3.944152">
        <ele>2241.6</ele>
        <time>2018-04-21T12:06:28.000Z</time>
      </trkpt>
      <trkpt lat="40.795538" lon="-3.944161">
        <ele>2241.4</ele>
        <time>2018-04-21T12:06:29.000Z</time>
      </trkpt>
      <trkpt lat="40.795543" lon="-3.944169">
        <ele>2241.3</ele>
        <time>2018-04-21T12:06:30.000Z</time>
      </trkpt>
      <trkpt lat="40.795548" lon="-3.944177">
        <ele>2241.1</ele>
        <time>2018-04-21T12:06:31.000Z</time>
      </trkpt>
      <trkpt lat="40.795551" lon="-3.944186">
        <ele>2241.0</ele>
        <time>2018-04-21T12:06:32.000Z</time>
      </trkpt>
      <trkpt lat="40.795552" lon="-3.944194">
        <ele>2240.9</ele>
        <time>2018-04-21T12:06:33.000Z</time>
      </trkpt>
      <trkpt lat="40.795552" lon="-3.944203">
        <ele>2240.7</ele>
        <time>2018-04-21T12:06:34.000Z</time>
      </trkpt>
      <trkpt lat="40.79555" lon="-3.944212">
        <ele>2240.6</ele>
        <time>2018-04-21T12:06:35.000Z</time>
      </trkpt>
      <trkpt lat="40.795548" lon="-3.944221">
        <ele>2240.4</ele>
        <time>2018-04-21T12:06:36.000Z</time>
      </trkpt>
      <trkpt lat="40.795546" lon="-3.94423">
        <ele>2240.3</ele>
        <time>2018-04-21T12:06:37.000Z</time>
      </trkpt>
      <trkpt lat="40.795543" lon="-3.94424">
        <ele>2240.1</ele>
        <time>2018-04-21T12:06:38.000Z</time>
      </trkpt>
      <trkpt lat="40.795541" lon="-3.944249">
        <ele>2240.0</ele>
        <time>2018-04-21T12:06:39.000Z</time>
      </trkpt>
      <trkpt lat="40.79554" lon="-3.944258">
        <ele>2239.8</ele>
        <time>2018-04-21T12:06:40.000Z</time>
      </trkpt>
      <trkpt lat="40.795539" lon="-3.944267">
        <ele>2239.7</ele>
        <time>2018-04-21T12:06:41.000Z</time>
      </trkpt>
      <trkpt lat="40.795539" lon="-3.944276">
        <ele>2239.5</ele>
        <time>2018-04-21T12:06:42.000Z</time>
      </trkpt>
      <trkpt lat="40.795539" lon="-3.944285">
        <ele>2239.4</ele>
        <time>2018-04-21T12:06:43.000Z</time>
      </trkpt>
      <trkpt lat="40.79554" lon="-3.944295">
        <ele>2239.2</ele>
        <time>2018-04-21T12:06:44.000Z</time>
      </trkpt>
      <trkpt lat="40.795541" lon="-3.944305">
        <ele>2239.1</ele>
        <time>2018-04-21T12:06:45.000Z</time>
      </trkpt>
      <trkpt lat="40.795542" lon="-3.944315">
        <ele>2238.9</ele>
        <time>2018-04-21T12:06:46.000Z</time>
      </trkpt>
      <trkpt lat="40.795542" lon="-3.944326">
        <ele>2238.7</ele>
        <time>2018-04-21T12:06:47.000Z</time>
      </trkpt>
      <trkpt lat="40.795543" lon="-3.944338">
        <ele>2238.6</ele>
        <time>2018-04-21T12:06:48.000Z</time>
      </trkpt>
      <trkpt lat="40.795543" lon="-3.94435">
        <ele>2238.4</ele>
        <time>2018-04-21T12:06:49.000Z</time>
      </trkpt>
      <trkpt lat="40.795543" lon="-3.944362">
        <ele>2238.2</ele>
        <time>2018-04-21T12:06:50.000Z</time>
      </trkpt>
      <trkpt lat="40.795542" lon="-3.944373">
        <ele>2238.0</ele>
        <time>2018-04-21T12:06:51.000Z</time>
      </trkpt>
      <trkpt lat="40.79554" lon="-3.944384">
        <ele>2237.8</ele>
        <time>2018-04-21T12:06:52.000Z</time>
      </trkpt>
      <trkpt lat="40.795538" lon="-3.944394">
        <ele>2237.6</ele>
        <time>2018-04-21T12:06:53.000Z</time>
      </trkpt>
      <trkpt lat="40.795535" lon="-3.944403">
        <ele>2237.5</ele>
        <time>2018-04-21T12:06:54.000Z</time>
      </trkpt>
      <trkpt lat="40.79553" lon="-3.944411">
        <ele>2237.4</ele>
        <time>2018-04-21T12:06:55.000Z</time>
      </trkpt>
      <trkpt lat="40.795526" lon="-3.944418">
        <ele>2237.2</ele>
        <time>2018-04-21T12:06:56.000Z</time>
      </trkpt>
      <trkpt lat="40.795521" lon="-3.944425">
        <ele>2237.1</ele>
        <time>2018-04-21T12:06:57.000Z</time>
      </trkpt>
      <trkpt lat="40.795516" lon="-3.944433">
        <ele>2237.0</ele>
        <time>2018-04-21T12:06:58.000Z</time>
      </trkpt>
      <trkpt lat="40.795512" lon="-3.944443">
        <ele>2236.8</ele>
        <time>2018-04-21T12:06:59.000Z</time>
      </trkpt>
      <trkpt lat="40.795508" lon="-3.944454">
        <ele>2236.6</ele>
        <time>2018-04-21T12:07:00.000Z</time>
      </trkpt>
      <trkpt lat="40.795505" lon="-3.944464">
        <ele>2236.4</ele>
        <time>2018-04-21T12:07:01.000Z</time>
      </trkpt>
      <trkpt lat="40.795503" lon="-3.944472">
        <ele>2236.3</ele>
        <time>2018-04-21T12:07:02.000Z</time>
      </trkpt>
      <trkpt lat="40.795501" lon="-3.944478">
        <ele>2236.2</ele>
        <time>2018-04-21T12:07:03.000Z</time>
      </trkpt>
      <trkpt lat="40.795501" lon="-3.944481">
        <ele>2236.1</ele>
        <time>2018-04-21T12:07:04.000Z</time>
      </trkpt>
      <trkpt lat="40.795501" lon="-3.944482">
        <ele>2236.1</ele>
        <time>2018-04-21T12:07:05.000Z</time>
      </trkpt>
      <trkpt lat="40.795501" lon="-3.944482">
        <ele>2236.1</ele>
        <time>2018-04-21T12:07:06.000Z</time>
      </trkpt>
      <trkpt lat="40.795502" lon="-3.944482">
        <ele>2236.1</ele>
        <time>2018-04-21T12:07:07.000Z</time>
      </trkpt>
      <trkpt lat="40.795503" lon="-3.944483">
        <ele>2236.1</ele>
        <time>2018-04-21T12:07:08.000Z</time>
      </trkpt>
      <trkpt lat="40.795504" lon="-3.944485">
        <ele>2236.1</ele>
        <time>2018-04-21T12:07:09.000Z</time>
      </trkpt>
      <trkpt lat="40.795506" lon="-3.944489">
        <ele>2236.0</ele>
        <time>2018-04-21T12:07:10.000Z</time>
      </trkpt>
      <trkpt lat="40.795507" lon="-3.944495">
        <ele>2235.9</ele>
        <time>2018-04-21T12:07:11.000Z</time>
      </trkpt>
      <trkpt lat="40.795509" lon="-3.944502">
        <ele>2235.8</ele>
        <time>2018-04-21T12:07:12.000Z</time>
      </trkpt>
      <trkpt lat="40.79551" lon="-3.944511">
        <ele>2235.7</ele>
        <time>2018-04-21T12:07:13.000Z</time>
      </trkpt>
      <trkpt lat="40.795512" lon="-3.944521">
        <ele>2235.5</ele>
        <time>2018-04-21T12:07:14.000Z</time>
      </trkpt>
      <trkpt lat="40.795513" lon="-3.944533">
        <ele>2235.3</ele>
        <time>2018-04-21T12:07:15.000Z</time>
      </trkpt>
      <trkpt lat="40.795514" lon="-3.944545">
        <ele>2235.2</ele>
        <time>2018-04-21T12:07:16.000Z</time>
      </trkpt>
      <trkpt lat="40.795514" lon="-3.944557">
        <ele>2235.0</ele>
        <time>2018-04-21T12:07:17.000Z</time>
      </trkpt>
      <trkpt lat="40.795514" lon="-3.94457">
        <ele>2234.8</ele>
        <time>2018-04-21T12:07:18.000Z</time>
      </trkpt>
      <trkpt lat="40.795514" lon="-3.944583">
        <ele>2234.5</ele>
        <time>2018-04-21T12:07:19.000Z</time>
      </trkpt>
      <trkpt lat="40.795514" lon="-3.944597">
        <ele>2234.3</ele>
        <time>2018-04-21T12:07:20.000Z</time>
      </trkpt>
      <trkpt lat="40.795514" lon="-3.944609">
        <ele>2234.1</ele>
        <time>2018-04-21T12:07:21.000Z</time>
      </trkpt>
      <trkpt lat="40.795515" lon="-3.944622">
        <ele>2233.9</ele>
        <time>2018-04-21T12:07:22.000Z</time>
      </trkpt>
      <trkpt lat="40.795515" lon="-3.944634">
        <ele>2233.7</ele>
        <time>2018-04-21T12:07:23.000Z</time>
      </trkpt>
      <trkpt lat="40.795517" lon="-3.944645">
        <ele>2233.6</ele>
        <time>2018-04-21T12:07:24.000Z</time>
      </trkpt>
      <trkpt lat="40.795519" lon="-3.944654">
        <ele>2233.4</ele>
        <time>2018-04-21T12:07:25.000Z</time>
      </trkpt>
      <trkpt lat="40.795522" lon="-3.944663">
        <ele>2233.3</ele>
        <time>2018-04-21T12:07:26.000Z</time>
      </trkpt>
      <trkpt lat="40.795525" lon="-3.944672">
        <ele>2233.2</ele>
        <time>2018-04-21T12:07:27.000Z</time>
      </trkpt>
      <trkpt lat="40.795528" lon="-3.94468">
        <ele>2233.0</ele>
        <time>2018-04-21T12:07:28.000Z</time>
      </trkpt>
      <trkpt lat="40.795531" lon="-3.944688">
        <ele>2232.9</ele>
        <time>2018-04-21T12:07:29.000Z</time>
      </trkpt>
      <trkpt lat="40.795535" lon="-3.944696">
        <ele>2232.8</ele>
        <time>2018-04-21T12:07:30.000Z</time>
      </trkpt>
      <trkpt lat="40.795538" lon="-3.944704">
        <ele>2232.7</ele>
        <time>2018-04-21T12:07:31.000Z</time>
      </trkpt>
      <trkpt lat="40.79554" lon="-3.944713">
        <ele>2232.5</ele>
        <time>2018-04-21T12:07:32.000Z</time>
      </trkpt>
      <trkpt lat="40.795542" lon="-3.944722">
        <ele>2232.4</ele>
        <time>2018-04-21T12:07:33.000Z</time>
      </trkpt>
      <trkpt lat="40.795544" lon="-3.944732">
        <ele>2232.3</ele>
        <time>2018-04-21T12:07:34.000Z</time>
      </trkpt>
      <trkpt lat="40.795546" lon="-3.944742">
        <ele>2232.1</ele>
        <time>2018-04-21T12:07:35.000Z</time>
      </trkpt>
      <trkpt lat="40.795548" lon="-3.944753">
        <ele>2231.9</ele>
        <time>2018-04-21T12:07:36.000Z</time>
      </trkpt>
      <trkpt lat="40.795549" lon="-3.944763">
        <ele>2231.8</ele>
        <time>2018-04-21T12:07:37.000Z</time>
      </trkpt>
      <trkpt lat="40.795551" lon="-3.944773">
        <ele>2231.6</ele>
        <time>2018-04-21T12:07:38.000Z</time>
      </trkpt>
      <trkpt lat="40.795553" lon="-3.944784">
        <ele>2231.4</ele>
        <time>2018-04-21T12:07:39.000Z</time>
      </trkpt>
      <trkpt lat="40.795555" lon="-3.944794">
        <ele>2231.3</ele>
        <time>2018-04-21T12:07:40.000Z</time>
      </trkpt>
      <trkpt lat="40.795557" lon="-3.944804">
        <ele>2231.1</ele>
        <time>2018-04-21T12:07:41.000Z</time>
      </trkpt>
      <trkpt lat="40.795559" lon="-3.944814">
        <ele>2231.0</ele>
        <time>2018-04-21T12:07:42.000Z</time>
      </trkpt>
      <trkpt lat="40.795561" lon="-3.944824">
        <ele>2230.8</ele>
        <time>2018-04-21T12:07:43.000Z</time>
      </trkpt>
      <trkpt lat="40.795564" lon="-3.944833">
        <ele>2230.7</ele>
        <time>2018-04-21T12:07:44.000Z</time>
      </trkpt>
      <trkpt lat="40.795566" lon="-3.944843">
        <ele>2230.5</ele>
        <time>2018-04-21T12:07:45.000Z</time>
      </trkpt>
      <trkpt lat="40.795568" lon="-3.944853">
        <ele>2230.4</ele>
        <time>2018-04-21T12:07:46.000Z</time>
      </trkpt>
      <trkpt lat="40.795571" lon="-3.944862">
        <ele>2230.3</ele>
        <time>2018-04-21T12:07:47.000Z</time>
      </trkpt>
      <trkpt lat="40.795573" lon="-3.944871">
        <ele>2230.1</ele>
        <time>2018-04-21T12:07:48.000Z</time>
      </trkpt>
      <trkpt lat="40.795575" lon="-3.944881">
        <ele>2230.0</ele>
        <time>2018-04-21T12:07:49.000Z</time>
      </trkpt>
      <trkpt lat="40.795577" lon="-3.94489">
        <ele>2229.8</ele>
        <time>2018-04-21T12:07:50.000Z</time>
      </trkpt>
      <trkpt lat="40.795579" lon="-3.944899">
        <ele>2229.7</ele>
        <time>2018-04-21T12:07:51.000Z</time>
      </trkpt>
      <trkpt lat="40.795581" lon="-3.944908">
        <ele>2229.6</ele>
        <time>2018-04-21T12:07:52.000Z</time>
      </trkpt>
      <trkpt lat="40.795582" lon="-3.944916">
        <ele>2229.4</ele>
        <time>2018-04-21T12:07:53.000Z</time>
      </trkpt>
      <trkpt lat="40.795584" lon="-3.944925">
        <ele>2229.3</ele>
        <time>2018-04-21T12:07:54.000Z</time>
      </trkpt>
      <trkpt lat="40.795585" lon="-3.944933">
        <ele>2229.2</ele>
        <time>2018-04-21T12:07:55.000Z</time>
      </trkpt>
      <trkpt lat="40.795586" lon="-3.944942">
        <ele>2229.0</ele>
        <time>2018-04-21T12:07:56.000Z</time>
      </trkpt>
      <trkpt lat="40.795587" lon="-3.94495">
        <ele>2228.9</ele>
        <time>2018-04-21T12:07:57.000Z</time>
      </trkpt>
      <trkpt lat="40.795587" lon="-3.944958">
        <ele>2228.8</ele>
        <time>2018-04-21T12:07:58.000Z</time>
      </trkpt>
      <trkpt lat="40.795588" lon="-3.944966">
        <ele>2228.7</ele>
        <time>2018-04-21T12:07:59.000Z</time>
      </trkpt>
      <trkpt lat="40.795588" lon="-3.944973">
        <ele>2228.5</ele>
        <time>2018-04-21T12:08:00.000Z</time>
      </trkpt>
      <trkpt lat="40.795589" lon="-3.944981">
        <ele>2228.4</ele>
        <time>2018-04-21T12:08:01.000Z</time>
      </trkpt>
      <trkpt lat="40.795589" lon="-3.944989">
        <ele>2228.3</ele>
        <time>2018-04-21T12:08:02.000Z</time>
      </trkpt>
      <trkpt lat="40.795589" lon="-3.944996">
        <ele>2228.2</ele>
        <time>2018-04-21T12:08:03.000Z</time>
      </trkpt>
      <trkpt lat="40.795589" lon="-3.945003">
        <ele>2228.1</ele>
        <time>2018-04-21T12:08:04.000Z</time>
      </trkpt>
      <trkpt lat="40.795589" lon="-3.94501">
        <ele>2228.0</ele>
        <time>2018-04-21T12:08:05.000Z</time>
      </trkpt>
      <trkpt lat="40.795588" lon="-3.945017">
        <ele>2227.9</ele>
        <time>2018-04-21T12:08:06.000Z</time>
      </trkpt>
      <trkpt lat="40.795588" lon="-3.945024">
        <ele>2227.9</ele>
        <time>2018-04-21T12:08:07.000Z</time>
      </trkpt>
      <trkpt lat="40.795588" lon="-3.94503">
        <ele>2227.8</ele>
        <time>2018-04-21T12:08:08.000Z</time>
      </trkpt>
      <trkpt lat="40.795587" lon="-3.945036">
        <ele>2227.7</ele>
        <time>2018-04-21T12:08:09.000Z</time>
      </trkpt>
      <trkpt lat="40.795587" lon="-3.945043">
        <ele>2227.7</ele>
        <time>2018-04-21T12:08:10.000Z</time>
      </trkpt>
      <trkpt lat="40.795586" lon="-3.945049">
        <ele>2227.6</ele>
        <time>2018-04-21T12:08:11.000Z</time>
      </trkpt>
      <trkpt lat="40.795586" lon="-3.945056">
        <ele>2227.5</ele>
        <time>2018-04-21T12:08:12.000Z</time>
      </trkpt>
      <trkpt lat="40.795585" lon="-3.945063">
        <ele>2227.5</ele>
        <time>2018-04-21T12:08:13.000Z</time>
      </trkpt>
      <trkpt lat="40.795585" lon="-3.94507">
        <ele>2227.4</ele>
        <time>2018-04-21T12:08:14.000Z</time>
      </trkpt>
      <trkpt lat="40.795585" lon="-3.945078">
        <ele>2227.3</ele>
        <time>2018-04-21T12:08:15.000Z</time>
      </trkpt>
      <trkpt lat="40.795585" lon="-3.945087">
        <ele>2227.2</ele>
        <time>2018-04-21T12:08:16.000Z</time>
      </trkpt>
      <trkpt lat="40.795585" lon="-3.945096">
        <ele>2227.1</ele>
        <time>2018-04-21T12:08:17.000Z</time>
      </trkpt>
      <trkpt lat="40.795585" lon="-3.945106">
        <ele>2227.0</ele>
        <time>2018-04-21T12:08:18.000Z</time>
      </trkpt>
      <trkpt lat="40.795586" lon="-3.945116">
        <ele>2226.9</ele>
        <time>2018-04-21T12:08:19.000Z</time>
      </trkpt>
      <trkpt lat="40.795586" lon="-3.945125">
        <ele>2226.8</ele>
        <time>2018-04-21T12:08:20.000Z</time>
      </trkpt>
      <trkpt lat="40.795587" lon="-3.945133">
        <ele>2226.8</ele>
        <time>2018-04-21T12:08:21.000Z</time>
      </trkpt>
      <trkpt lat="40.795587" lon="-3.94514">
        <ele>2226.7</ele>
        <time>2018-04-21T12:08:22.000Z</time>
      </trkpt>
      <trkpt lat="40.795588" lon="-3.945145">
        <ele>2226.7</ele>
        <time>2018-04-21T12:08:23.000Z</time>
      </trkpt>
      <trkpt lat="40.795588" lon="-3.945148">
        <ele>2226.6</ele>
        <time>2018-04-21T12:08:24.000Z</time>
      </trkpt>
      <trkpt lat="40.795588" lon="-3.945149">
        <ele>2226.6</ele>
        <time>2018-04-21T12:08:25.000Z</time>
      </trkpt>
      <trkpt lat="40.795588" lon="-3.945149">
        <ele>2226.6</ele>
        <time>2018-04-21T12:08:26.000Z</time>
      </trkpt>
      <trkpt lat="40.795588" lon="-3.945149">
        <ele>2226.6</ele>
        <time>2018-04-21T12:08:27.000Z</time>
      </trkpt>
      <trkpt lat="40.795588" lon="-3.945148">
        <ele>2226.6</ele>
        <time>2018-04-21T12:08:28.000Z</time>
      </trkpt>
      <trkpt lat="40.795588" lon="-3.945148">
        <ele>2226.6</ele>
        <time>2018-04-21T12:08:29.000Z</time>
      </trkpt>
      <trkpt lat="40.795588" lon="-3.945149">
        <ele>2226.6</ele>
        <time>2018-04-21T12:08:30.000Z</time>
      </trkpt>
      <trkpt lat="40.795588" lon="-3.945152">
        <ele>2226.6</ele>
        <time>2018-04-21T12:08:31.000Z</time>
      </trkpt>
      <trkpt lat="40.795588" lon="-3.945155">
        <ele>2226.6</ele>
        <time>2018-04-21T12:08:32.000Z</time>
      </trkpt>
      <trkpt lat="40.795588" lon="-3.945161">
        <ele>2226.5</ele>
        <time>2018-04-21T12:08:33.000Z</time>
      </trkpt>
      <trkpt lat="40.795588" lon="-3.945167">
        <ele>2226.4</ele>
        <time>2018-04-21T12:08:34.000Z</time>
      </trkpt>
      <trkpt lat="40.795588" lon="-3.945176">
        <ele>2226.3</ele>
        <time>2018-04-21T12:08:35.000Z</time>
      </trkpt>
      <trkpt lat="40.795588" lon="-3.945185">
        <ele>2226.2</ele>
        <time>2018-04-21T12:08:36.000Z</time>
      </trkpt>
      <trkpt lat="40.795588" lon="-3.945196">
        <ele>2226.1</ele>
        <time>2018-04-21T12:08:37.000Z</time>
      </trkpt>
      <trkpt lat="40.795589" lon="-3.945208">
        <ele>2226.0</ele>
        <time>2018-04-21T12:08:38.000Z</time>
      </trkpt>
      <trkpt lat="40.795589" lon="-3.945221">
        <ele>2225.9</ele>
        <time>2018-04-21T12:08:39.000Z</time>
      </trkpt>
      <trkpt lat="40.795589" lon="-3.945235">
        <ele>2225.7</ele>
        <time>2018-04-21T12:08:40.000Z</time>
      </trkpt>
      <trkpt lat="40.79559" lon="-3.945249">
        <ele>2225.6</ele>
        <time>2018-04-21T12:08:41.000Z</time>
      </trkpt>
      <trkpt lat="40.79559" lon="-3.945264">
        <ele>2225.5</ele>
        <time>2018-04-21T12:08:42.000Z</time>
      </trkpt>
      <trkpt lat="40.795592" lon="-3.945278">
        <ele>2225.3</ele>
        <time>2018-04-21T12:08:43.000Z</time>
      </trkpt>
      <trkpt lat="40.795593" lon="-3.945292">
        <ele>2225.2</ele>
        <time>2018-04-21T12:08:44.000Z</time>
      </trkpt>
      <trkpt lat="40.795596" lon="-3.945306">
        <ele>2225.0</ele>
        <time>2018-04-21T12:08:45.000Z</time>
      </trkpt>
      <trkpt lat="40.795599" lon="-3.945318">
        <ele>2224.9</ele>
        <time>2018-04-21T12:08:46.000Z</time>
      </trkpt>
      <trkpt lat="40.795602" lon="-3.94533">
        <ele>2224.8</ele>
        <time>2018-04-21T12:08:47.000Z</time>
      </trkpt>
      <trkpt lat="40.795606" lon="-3.945341">
        <ele>2224.7</ele>
        <time>2018-04-21T12:08:48.000Z</time>
      </trkpt>
      <trkpt lat="40.79561" lon="-3.945353">
        <ele>2224.6</ele>
        <time>2018-04-21T12:08:49.000Z</time>
      </trkpt>
      <trkpt lat="40.795613" lon="-3.945364">
        <ele>2224.5</ele>
        <time>2018-04-21T12:08:50.000Z</time>
      </trkpt>
      <trkpt lat="40.795617" lon="-3.945375">
        <ele>2224.4</ele>
        <time>2018-04-21T12:08:51.000Z</time>
      </trkpt>
      <trkpt lat="40.79562" lon="-3.945387">
        <ele>2224.3</ele>
        <time>2018-04-21T12:08:52.000Z</time>
      </trkpt>
      <trkpt lat="40.795622" lon="-3.9454">
        <ele>2224.2</ele>
        <time>2018-04-21T12:08:53.000Z</time>
      </trkpt>
      <trkpt lat="40.795624" lon="-3.945412">
        <ele>2224.0</ele>
        <time>2018-04-21T12:08:54.000Z</time>
      </trkpt>
      <trkpt lat="40.795625" lon="-3.945425">
        <ele>2223.9</ele>
        <time>2018-04-21T12:08:55.000Z</time>
      </trkpt>
      <trkpt lat="40.795625" lon="-3.945438">
        <ele>2223.8</ele>
        <time>2018-04-21T12:08:56.000Z</time>
      </trkpt>
      <trkpt lat="40.795624" lon="-3.945449">
        <ele>2223.7</ele>
        <time>2018-04-21T12:08:57.000Z</time>
      </trkpt>
      <trkpt lat="40.795621" lon="-3.94546">
        <ele>2223.5</ele>
        <time>2018-04-21T12:08:58.000Z</time>
      </trkpt>
      <trkpt lat="40.795618" lon="-3.94547">
        <ele>2223.4</ele>
        <time>2018-04-21T12:08:59.000Z</time>
      </trkpt>
      <trkpt lat="40.795614" lon="-3.945478">
        <ele>2223.3</ele>
        <time>2018-04-21T12:09:00.000Z</time>
      </trkpt>
      <trkpt lat="40.795609" lon="-3.945486">
        <ele>2223.3</ele>
        <time>2018-04-21T12:09:01.000Z</time>
      </trkpt>
      <trkpt lat="40.795603" lon="-3.945492">
        <ele>2223.2</ele>
        <time>2018-04-21T12:09:02.000Z</time>
      </trkpt>
      <trkpt lat="40.795597" lon="-3.945499">
        <ele>2223.1</ele>
        <time>2018-04-21T12:09:03.000Z</time>
      </trkpt>
      <trkpt lat="40.795591" lon="-3.945507">
        <ele>2223.0</ele>
        <time>2018-04-21T12:09:04.000Z</time>
      </trkpt>
      <trkpt lat="40.795585" lon="-3.945515">
        <ele>2222.9</ele>
        <time>2018-04-21T12:09:05.000Z</time>
      </trkpt>
      <trkpt lat="40.795579" lon="-3.945526">
        <ele>2222.8</ele>
        <time>2018-04-21T12:09:06.000Z</time>
      </trkpt>
      <trkpt lat="40.795575" lon="-3.945538">
        <ele>2222.7</ele>
        <time>2018-04-21T12:09:07.000Z</time>
      </trkpt>
      <trkpt lat="40.795571" lon="-3.945551">
        <ele>2222.5</ele>
        <time>2018-04-21T12:09:08.000Z</time>
      </trkpt>
      <trkpt lat="40.795568" lon="-3.945563">
        <ele>2222.4</ele>
        <time>2018-04-21T12:09:09.000Z</time>
      </trkpt>
      <trkpt lat="40.795565" lon="-3.945574">
        <ele>2222.3</ele>
        <time>2018-04-21T12:09:10.000Z</time>
      </trkpt>
      <trkpt lat="40.795563" lon="-3.94558">
        <ele>2222.2</ele>
        <time>2018-04-21T12:09:11.000Z</time>
      </trkpt>
      <trkpt lat="40.795562" lon="-3.945585">
        <ele>2222.2</ele>
        <time>2018-04-21T12:09:12.000Z</time>
      </trkpt>
      <trkpt lat="40.795562" lon="-3.94559">
        <ele>2222.1</ele>
        <time>2018-04-21T12:09:13.000Z</time>
      </trkpt>
      <trkpt lat="40.795562" lon="-3.945595">
        <ele>2222.1</ele>
        <time>2018-04-21T12:09:14.000Z</time>
      </trkpt>
      <trkpt lat="40.795562" lon="-3.945603">
        <ele>2222.0</ele>
        <time>2018-04-21T12:09:15.000Z</time>
      </trkpt>
      <trkpt lat="40.795562" lon="-3.945613">
        <ele>2221.9</ele>
        <time>2018-04-21T12:09:16.000Z</time>
      </trkpt>
      <trkpt lat="40.795563" lon="-3.945625">
        <ele>2221.8</ele>
        <time>2018-04-21T12:09:17.000Z</time>
      </trkpt>
      <trkpt lat="40.795564" lon="-3.945638">
        <ele>2221.6</ele>
        <time>2018-04-21T12:09:18.000Z</time>
      </trkpt>
      <trkpt lat="40.795565" lon="-3.945652">
        <ele>2221.5</ele>
        <time>2018-04-21T12:09:19.000Z</time>
      </trkpt>
      <trkpt lat="40.795566" lon="-3.945667">
        <ele>2221.3</ele>
        <time>2018-04-21T12:09:20.000Z</time>
      </trkpt>
      <trkpt lat="40.795567" lon="-3.945682">
        <ele>2221.2</ele>
        <time>2018-04-21T12:09:21.000Z</time>
      </trkpt>
      <trkpt lat="40.795569" lon="-3.945697">
        <ele>2221.1</ele>
        <time>2018-04-21T12:09:22.000Z</time>
      </trkpt>
      <trkpt lat="40.79557" lon="-3.945711">
        <ele>2220.9</ele>
        <time>2018-04-21T12:09:23.000Z</time>
      </trkpt>
      <trkpt lat="40.795571" lon="-3.945725">
        <ele>2220.8</ele>
        <time>2018-04-21T12:09:24.000Z</time>
      </trkpt>
      <trkpt lat="40.795573" lon="-3.945739">
        <ele>2220.6</ele>
        <time>2018-04-21T12:09:25.000Z</time>
      </trkpt>
      <trkpt lat="40.795574" lon="-3.945752">
        <ele>2220.5</ele>
        <time>2018-04-21T12:09:26.000Z</time>
      </trkpt>
      <trkpt lat="40.795575" lon="-3.945765">
        <ele>2220.4</ele>
        <time>2018-04-21T12:09:27.000Z</time>
      </trkpt>
      <trkpt lat="40.795575" lon="-3.945778">
        <ele>2220.2</ele>
        <time>2018-04-21T12:09:28.000Z</time>
      </trkpt>
      <trkpt lat="40.795576" lon="-3.945791">
        <ele>2220.1</ele>
        <time>2018-04-21T12:09:29.000Z</time>
      </trkpt>
      <trkpt lat="40.795576" lon="-3.945803">
        <ele>2220.0</ele>
        <time>2018-04-21T12:09:30.000Z</time>
      </trkpt>
      <trkpt lat="40.795576" lon="-3.945815">
        <ele>2219.9</ele>
        <time>2018-04-21T12:09:31.000Z</time>
      </trkpt>
      <trkpt lat="40.795576" lon="-3.945827">
        <ele>2219.8</ele>
        <time>2018-04-21T12:09:32.000Z</time>
      </trkpt>
      <trkpt lat="40.795577" lon="-3.945838">
        <ele>2219.7</ele>
        <time>2018-04-21T12:09:33.000Z</time>
      </trkpt>
      <trkpt lat="40.795577" lon="-3.945849">
        <ele>2219.6</ele>
        <time>2018-04-21T12:09:34.000Z</time>
      </trkpt>
      <trkpt lat="40.795577" lon="-3.94586">
        <ele>2219.5</ele>
        <time>2018-04-21T12:09:35.000Z</time>
      </trkpt>
      <trkpt lat="40.795578" lon="-3.94587">
        <ele>2219.4</ele>
        <time>2018-04-21T12:09:36.000Z</time>
      </trkpt>
      <trkpt lat="40.795579" lon="-3.945879">
        <ele>2219.3</ele>
        <time>2018-04-21T12:09:37.000Z</time>
      </trkpt>
      <trkpt lat="40.79558" lon="-3.945889">
        <ele>2219.2</ele>
        <time>2018-04-21T12:09:38.000Z</time>
      </trkpt>
      <trkpt lat="40.795581" lon="-3.945898">
        <ele>2219.2</ele>
        <time>2018-04-21T12:09:39.000Z</time>
      </trkpt>
      <trkpt lat="40.795582" lon="-3.945908">
        <ele>2219.1</ele>
        <time>2018-04-21T12:09:40.000Z</time>
      </trkpt>
      <trkpt lat="40.795582" lon="-3.945918">
        <ele>2219.0</ele>
        <time>2018-04-21T12:09:41.000Z</time>
      </trkpt>
      <trkpt lat="40.795582" lon="-3.945928">
        <ele>2218.9</ele>
        <time>2018-04-21T12:09:42.000Z</time>
      </trkpt>
      <trkpt lat="40.795581" lon="-3.94594">
        <ele>2218.8</ele>
        <time>2018-04-21T12:09:43.000Z</time>
      </trkpt>
      <trkpt lat="40.795579" lon="-3.945952">
        <ele>2218.7</ele>
        <time>2018-04-21T12:09:44.000Z</time>
      </trkpt>
      <trkpt lat="40.795576" lon="-3.945965">
        <ele>2218.6</ele>
        <time>2018-04-21T12:09:45.000Z</time>
      </trkpt>
      <trkpt lat="40.795573" lon="-3.945979">
        <ele>2218.5</ele>
        <time>2018-04-21T12:09:46.000Z</time>
      </trkpt>
      <trkpt lat="40.79557" lon="-3.945993">
        <ele>2218.4</ele>
        <time>2018-04-21T12:09:47.000Z</time>
      </trkpt>
      <trkpt lat="40.795567" lon="-3.946007">
        <ele>2218.3</ele>
        <time>2018-04-21T12:09:48.000Z</time>
      </trkpt>
      <trkpt lat="40.795563" lon="-3.946022">
        <ele>2218.2</ele>
        <time>2018-04-21T12:09:49.000Z</time>
      </trkpt>
      <trkpt lat="40.79556" lon="-3.946035">
        <ele>2218.1</ele>
        <time>2018-04-21T12:09:50.000Z</time>
      </trkpt>
      <trkpt lat="40.795558" lon="-3.946049">
        <ele>2217.9</ele>
        <time>2018-04-21T12:09:51.000Z</time>
      </trkpt>
      <trkpt lat="40.795556" lon="-3.946062">
        <ele>2217.8</ele>
        <time>2018-04-21T12:09:52.000Z</time>
      </trkpt>
      <trkpt lat="40.795554" lon="-3.946075">
        <ele>2217.7</ele>
        <time>2018-04-21T12:09:53.000Z</time>
      </trkpt>
      <trkpt lat="40.795552" lon="-3.946087">
        <ele>2217.6</ele>
        <time>2018-04-21T12:09:54.000Z</time>
      </trkpt>
      <trkpt lat="40.79555" lon="-3.946099">
        <ele>2217.5</ele>
        <time>2018-04-21T12:09:55.000Z</time>
      </trkpt>
      <trkpt lat="40.795549" lon="-3.94611">
        <ele>2217.4</ele>
        <time>2018-04-21T12:09:56.000Z</time>
      </trkpt>
      <trkpt lat="40.795547" lon="-3.946121">
        <ele>2217.4</ele>
        <time>2018-04-21T12:09:57.000Z</time>
      </trkpt>
      <trkpt lat="40.795545" lon="-3.946132">
        <ele>2217.3</ele>
        <time>2018-04-21T12:09:58.000Z</time>
      </trkpt>
      <trkpt lat="40.795543" lon="-3.946142">
        <ele>2217.2</ele>
        <time>2018-04-21T12:09:59.000Z</time>
      </trkpt>
      <trkpt lat="40.795541" lon="-3.946152">
        <ele>2217.1</ele>
        <time>2018-04-21T12:10:00.000Z</time>
      </trkpt>
      <trkpt lat="40.795538" lon="-3.946162">
        <ele>2217.0</ele>
        <time>2018-04-21T12:10:01.000Z</time>
      </trkpt>
      <trkpt lat="40.795535" lon="-3.946172">
        <ele>2216.9</ele>
        <time>2018-04-21T12:10:02.000Z</time>
      </trkpt>
      <trkpt lat="40.795531" lon="-3.946181">
        <ele>2216.9</ele>
        <time>2018-04-21T12:10:03.000Z</time>
      </trkpt>
      <trkpt lat="40.795527" lon="-3.946192">
        <ele>2216.8</ele>
        <time>2018-04-21T12:10:04.000Z</time>
      </trkpt>
      <trkpt lat="40.795523" lon="-3.946202">
        <ele>2216.7</ele>
        <time>2018-04-21T12:10:05.000Z</time>
      </trkpt>
      <trkpt lat="40.795518" lon="-3.946213">
        <ele>2216.6</ele>
        <time>2018-04-21T12:10:06.000Z</time>
      </trkpt>
      <trkpt lat="40.795514" lon="-3.946224">
        <ele>2216.5</ele>
        <time>2018-04-21T12:10:07.000Z</time>
      </trkpt>
      <trkpt lat="40.79551" lon="-3.946236">
        <ele>2216.4</ele>
        <time>2018-04-21T12:10:08.000Z</time>
      </trkpt>
      <trkpt lat="40.795507" lon="-3.946249">
        <ele>2216.3</ele>
        <time>2018-04-21T12:10:09.000Z</time>
      </trkpt>
      <trkpt lat="40.795506" lon="-3.946262">
        <ele>2216.2</ele>
        <time>2018-04-21T12:10:10.000Z</time>
      </trkpt>
      <trkpt lat="40.795507" lon="-3.946275">
        <ele>2216.1</ele>
        <time>2018-04-21T12:10:11.000Z</time>
      </trkpt>
      <trkpt lat="40.795508" lon="-3.946289">
        <ele>2216.0</ele>
        <time>2018-04-21T12:10:12.000Z</time>
      </trkpt>
      <trkpt lat="40.795508" lon="-3.946302">
        <ele>2215.9</ele>
        <time>2018-04-21T12:10:13.000Z</time>
      </trkpt>
      <trkpt lat="40.795508" lon="-3.946315">
        <ele>2215.8</ele>
        <time>2018-04-21T12:10:14.000Z</time>
      </trkpt>
      <trkpt lat="40.795507" lon="-3.946327">
        <ele>2215.7</ele>
        <time>2018-04-21T12:10:15.000Z</time>
      </trkpt>
      <trkpt lat="40.795505" lon="-3.946337">
        <ele>2215.6</ele>
        <time>2018-04-21T12:10:16.000Z</time>
      </trkpt>
      <trkpt lat="40.795504" lon="-3.946346">
        <ele>2215.5</ele>
        <time>2018-04-21T12:10:17.000Z</time>
      </trkpt>
      <trkpt lat="40.795502" lon="-3.946353">
        <ele>2215.5</ele>
        <time>2018-04-21T12:10:18.000Z</time>
      </trkpt>
      <trkpt lat="40.795501" lon="-3.946358">
        <ele>2215.4</ele>
        <time>2018-04-21T12:10:19.000Z</time>
      </trkpt>
      <trkpt lat="40.7955" lon="-3.946361">
        <ele>2215.4</ele>
        <time>2018-04-21T12:10:20.000Z</time>
      </trkpt>
      <trkpt lat="40.7955" lon="-3.946361">
        <ele>2215.4</ele>
        <time>2018-04-21T12:10:21.000Z</time>
      </trkpt>
      <trkpt lat="40.795501" lon="-3.94636">
        <ele>2215.4</ele>
        <time>2018-04-21T12:10:22.000Z</time>
      </trkpt>
      <trkpt lat="40.795501" lon="-3.946359">
        <ele>2215.4</ele>
        <time>2018-04-21T12:10:23.000Z</time>
      </trkpt>
      <trkpt lat="40.795501" lon="-3.94636">
        <ele>2215.4</ele>
        <time>2018-04-21T12:10:24.000Z</time>
      </trkpt>
      <trkpt lat="40.7955" lon="-3.946364">
        <ele>2215.4</ele>
        <time>2018-04-21T12:10:25.000Z</time>
      </trkpt>
      <trkpt lat="40.795498" lon="-3.946371">
        <ele>2215.3</ele>
        <time>2018-04-21T12:10:26.000Z</time>
      </trkpt>
      <trkpt lat="40.795496" lon="-3.946379">
        <ele>2215.3</ele>
        <time>2018-04-21T12:10:27.000Z</time>
      </trkpt>
      <trkpt lat="40.795493" lon="-3.94639">
        <ele>2215.2</ele>
        <time>2018-04-21T12:10:28.000Z</time>
      </trkpt>
      <trkpt lat="40.79549" lon="-3.9464">
        <ele>2215.1</ele>
        <time>2018-04-21T12:10:29.000Z</time>
      </trkpt>
      <trkpt lat="40.795486" lon="-3.946411">
        <ele>2215.0</ele>
        <time>2018-04-21T12:10:30.000Z</time>
      </trkpt>
      <trkpt lat="40.795483" lon="-3.946421">
        <ele>2214.9</ele>
        <time>2018-04-21T12:10:31.000Z</time>
      </trkpt>
      <trkpt lat="40.795479" lon="-3.946431">
        <ele>2214.9</ele>
        <time>2018-04-21T12:10:32.000Z</time>
      </trkpt>
      <trkpt lat="40.795477" lon="-3.946439">
        <ele>2214.8</ele>
        <time>2018-04-21T12:10:33.000Z</time>
      </trkpt>
      <trkpt lat="40.795474" lon="-3.946446">
        <ele>2214.7</ele>
        <time>2018-04-21T12:10:34.000Z</time>
      </trkpt>
      <trkpt lat="40.795472" lon="-3.946454">
        <ele>2214.7</ele>
        <time>2018-04-21T12:10:35.000Z</time>
      </trkpt>
      <trkpt lat="40.795471" lon="-3.946462">
        <ele>2214.6</ele>
        <time>2018-04-21T12:10:36.000Z</time>
      </trkpt>
      <trkpt lat="40.79547" lon="-3.94647">
        <ele>2214.5</ele>
        <time>2018-04-21T12:10:37.000Z</time>
      </trkpt>
      <trkpt lat="40.795469" lon="-3.946477">
        <ele>2214.5</ele>
        <time>2018-04-21T12:10:38.000Z</time>
      </trkpt>
      <trkpt lat="40.795468" lon="-3.946485">
        <ele>2214.4</ele>
        <time>2018-04-21T12:10:39.000Z</time>
      </trkpt>
      <trkpt lat="40.795467" lon="-3.946493">
        <ele>2214.4</ele>
        <time>2018-04-21T12:10:40.000Z</time>
      </trkpt>
      <trkpt lat="40.795465" lon="-3.946501">
        <ele>2214.3</ele>
        <time>2018-04-21T12:10:41.000Z</time>
      </trkpt>
      <trkpt lat="40.795462" lon="-3.946508">
        <ele>2214.2</ele>
        <time>2018-04-21T12:10:42.000Z</time>
      </trkpt>
      <trkpt lat="40.795458" lon="-3.946516">
        <ele>2214.2</ele>
        <time>2018-04-21T12:10:43.000Z</time>
      </trkpt>
      <trkpt lat="40.795454" lon="-3.946524">
        <ele>2214.1</ele>
        <time>2018-04-21T12:10:44.000Z</time>
      </trkpt>
      <trkpt lat="40.795448" lon="-3.946531">
        <ele>2214.1</ele>
        <time>2018-04-21T12:10:45.000Z</time>
      </trkpt>
      <trkpt lat="40.795443" lon="-3.946539">
        <ele>2214.0</ele>
        <time>2018-04-21T12:10:46.000Z</time>
      </trkpt>
      <trkpt lat="40.795437" lon="-3.946547">
        <ele>2213.9</ele>
        <time>2018-04-21T12:10:47.000Z</time>
      </trkpt>
      <trkpt lat="40.79543" lon="-3.946554">
        <ele>2213.9</ele>
        <time>2018-04-21T12:10:48.000Z</time>
      </trkpt>
      <trkpt lat="40.795424" lon="-3.946561">
        <ele>2213.8</ele>
        <time>2018-04-21T12:10:49.000Z</time>
      </trkpt>
      <trkpt lat="40.795418" lon="-3.946568">
        <ele>2213.8</ele>
        <time>2018-04-21T12:10:50.000Z</time>
      </trkpt>
      <trkpt lat="40.795412" lon="-3.946576">
        <ele>2213.7</ele>
        <time>2018-04-21T12:10:51.000Z</time>
      </trkpt>
      <trkpt lat="40.795406" lon="-3.946583">
        <ele>2213.7</ele>
        <time>2018-04-21T12:10:52.000Z</time>
      </trkpt>
      <trkpt lat="40.795402" lon="-3.946592">
        <ele>2213.6</ele>
        <time>2018-04-21T12:10:53.000Z</time>
      </trkpt>
      <trkpt lat="40.795397" lon="-3.946602">
        <ele>2213.5</ele>
        <time>2018-04-21T12:10:54.000Z</time>
      </trkpt>
      <trkpt lat="40.795394" lon="-3.946613">
        <ele>2213.4</ele>
        <time>2018-04-21T12:10:55.000Z</time>
      </trkpt>
      <trkpt lat="40.795392" lon="-3.946626">
        <ele>2213.3</ele>
        <time>2018-04-21T12:10:56.000Z</time>
      </trkpt>
      <trkpt lat="40.795391" lon="-3.946641">
        <ele>2213.2</ele>
        <time>2018-04-21T12:10:57.000Z</time>
      </trkpt>
      <trkpt lat="40.79539" lon="-3.946656">
        <ele>2213.1</ele>
        <time>2018-04-21T12:10:58.000Z</time>
      </trkpt>
      <trkpt lat="40.795391" lon="-3.946672">
        <ele>2212.9</ele>
        <time>2018-04-21T12:10:59.000Z</time>
      </trkpt>
      <trkpt lat="40.795391" lon="-3.946686">
        <ele>2212.8</ele>
        <time>2018-04-21T12:11:00.000Z</time>
      </trkpt>
      <trkpt lat="40.795392" lon="-3.946698">
        <ele>2212.6</ele>
        <time>2018-04-21T12:11:01.000Z</time>
      </trkpt>
      <trkpt lat="40.795393" lon="-3.946707">
        <ele>2212.5</ele>
        <time>2018-04-21T12:11:02.000Z</time>
      </trkpt>
      <trkpt lat="40.795394" lon="-3.946711">
        <ele>2212.5</ele>
        <time>2018-04-21T12:11:03.000Z</time>
      </trkpt>
      <trkpt lat="40.795395" lon="-3.94671">
        <ele>2212.5</ele>
        <time>2018-04-21T12:11:04.000Z</time>
      </trkpt>
      <trkpt lat="40.795395" lon="-3.94671">
        <ele>2212.5</ele>
        <time>2018-04-21T12:11:05.000Z</time>
      </trkpt>
      <trkpt lat="40.795395" lon="-3.946715">
        <ele>2212.4</ele>
        <time>2018-04-21T12:11:06.000Z</time>
      </trkpt>
      <trkpt lat="40.795395" lon="-3.946721">
        <ele>2212.3</ele>
        <time>2018-04-21T12:11:07.000Z</time>
      </trkpt>
      <trkpt lat="40.795396" lon="-3.946725">
        <ele>2212.3</ele>
        <time>2018-04-21T12:11:08.000Z</time>
      </trkpt>
      <trkpt lat="40.795396" lon="-3.946727">
        <ele>2212.3</ele>
        <time>2018-04-21T12:11:09.000Z</time>
      </trkpt>
      <trkpt lat="40.795396" lon="-3.946729">
        <ele>2212.2</ele>
        <time>2018-04-21T12:11:10.000Z</time>
      </trkpt>
      <trkpt lat="40.795396" lon="-3.946733">
        <ele>2212.2</ele>
        <time>2018-04-21T12:11:11.000Z</time>
      </trkpt>
      <trkpt lat="40.795396" lon="-3.946739">
        <ele>2212.1</ele>
        <time>2018-04-21T12:11:12.000Z</time>
      </trkpt>
      <trkpt lat="40.795396" lon="-3.946748">
        <ele>2212.0</ele>
        <time>2018-04-21T12:11:13.000Z</time>
      </trkpt>
      <trkpt lat="40.795396" lon="-3.946758">
        <ele>2211.9</ele>
        <time>2018-04-21T12:11:14.000Z</time>
      </trkpt>
      <trkpt lat="40.795395" lon="-3.94677">
        <ele>2211.7</ele>
        <time>2018-04-21T12:11:15.000Z</time>
      </trkpt>
      <trkpt lat="40.795392" lon="-3.946781">
        <ele>2211.6</ele>
        <time>2018-04-21T12:11:16.000Z</time>
      </trkpt>
      <trkpt lat="40.795388" lon="-3.946792">
        <ele>2211.5</ele>
        <time>2018-04-21T12:11:17.000Z</time>
      </trkpt>
      <trkpt lat="40.795382" lon="-3.946802">
        <ele>2211.4</ele>
        <time>2018-04-21T12:11:18.000Z</time>
      </trkpt>
      <trkpt lat="40.795374" lon="-3.94681">
        <ele>2211.3</ele>
        <time>2018-04-21T12:11:19.000Z</time>
      </trkpt>
      <trkpt lat="40.795366" lon="-3.946817">
        <ele>2211.2</ele>
        <time>2018-04-21T12:11:20.000Z</time>
      </trkpt>
      <trkpt lat="40.795358" lon="-3.946824">
        <ele>2211.2</ele>
        <time>2018-04-21T12:11:21.000Z</time>
      </trkpt>
      <trkpt lat="40.795352" lon="-3.946832">
        <ele>2211.1</ele>
        <time>2018-04-21T12:11:22.000Z</time>
      </trkpt>
      <trkpt lat="40.795348" lon="-3.946841">
        <ele>2211.0</ele>
        <time>2018-04-21T12:11:23.000Z</time>
      </trkpt>
      <trkpt lat="40.795347" lon="-3.946851">
        <ele>2210.9</ele>
        <time>2018-04-21T12:11:24.000Z</time>
      </trkpt>
      <trkpt lat="40.795346" lon="-3.946862">
        <ele>2210.8</ele>
        <time>2018-04-21T12:11:25.000Z</time>
      </trkpt>
      <trkpt lat="40.795346" lon="-3.946873">
        <ele>2210.6</ele>
        <time>2018-04-21T12:11:26.000Z</time>
      </trkpt>
      <trkpt lat="40.795345" lon="-3.946884">
        <ele>2210.5</ele>
        <time>2018-04-21T12:11:27.000Z</time>
      </trkpt>
      <trkpt lat="40.795344" lon="-3.946895">
        <ele>2210.4</ele>
        <time>2018-04-21T12:11:28.000Z</time>
      </trkpt>
      <trkpt lat="40.795342" lon="-3.946906">
        <ele>2210.3</ele>
        <time>2018-04-21T12:11:29.000Z</time>
      </trkpt>
      <trkpt lat="40.795341" lon="-3.946917">
        <ele>2210.1</ele>
        <time>2018-04-21T12:11:30.000Z</time>
      </trkpt>
      <trkpt lat="40.795338" lon="-3.946928">
        <ele>2210.0</ele>
        <time>2018-04-21T12:11:31.000Z</time>
      </trkpt>
      <trkpt lat="40.795336" lon="-3.94694">
        <ele>2209.9</ele>
        <time>2018-04-21T12:11:32.000Z</time>
      </trkpt>
      <trkpt lat="40.795333" lon="-3.946951">
        <ele>2209.8</ele>
        <time>2018-04-21T12:11:33.000Z</time>
      </trkpt>
      <trkpt lat="40.795331" lon="-3.946962">
        <ele>2209.7</ele>
        <time>2018-04-21T12:11:34.000Z</time>
      </trkpt>
      <trkpt lat="40.795328" lon="-3.946973">
        <ele>2209.6</ele>
        <time>2018-04-21T12:11:35.000Z</time>
      </trkpt>
      <trkpt lat="40.795324" lon="-3.946984">
        <ele>2209.5</ele>
        <time>2018-04-21T12:11:36.000Z</time>
      </trkpt>
      <trkpt lat="40.795321" lon="-3.946996">
        <ele>2209.3</ele>
        <time>2018-04-21T12:11:37.000Z</time>
      </trkpt>
      <trkpt lat="40.795319" lon="-3.947007">
        <ele>2209.2</ele>
        <time>2018-04-21T12:11:38.000Z</time>
      </trkpt>
      <trkpt lat="40.795316" lon="-3.947019">
        <ele>2209.1</ele>
        <time>2018-04-21T12:11:39.000Z</time>
      </trkpt>
      <trkpt lat="40.795314" lon="-3.947031">
        <ele>2209.0</ele>
        <time>2018-04-21T12:11:40.000Z</time>
      </trkpt>
      <trkpt lat="40.795312" lon="-3.947043">
        <ele>2208.9</ele>
        <time>2018-04-21T12:11:41.000Z</time>
      </trkpt>
      <trkpt lat="40.79531" lon="-3.947055">
        <ele>2208.8</ele>
        <time>2018-04-21T12:11:42.000Z</time>
      </trkpt>
      <trkpt lat="40.795309" lon="-3.947067">
        <ele>2208.6</ele>
        <time>2018-04-21T12:11:43.000Z</time>
      </trkpt>
      <trkpt lat="40.795307" lon="-3.947079">
        <ele>2208.5</ele>
        <time>2018-04-21T12:11:44.000Z</time>
      </trkpt>
      <trkpt lat="40.795306" lon="-3.947091">
        <ele>2208.4</ele>
        <time>2018-04-21T12:11:45.000Z</time>
      </trkpt>
      <trkpt lat="40.795304" lon="-3.947102">
        <ele>2208.3</ele>
        <time>2018-04-21T12:11:46.000Z</time>
      </trkpt>
      <trkpt lat="40.795302" lon="-3.947113">
        <ele>2208.2</ele>
        <time>2018-04-21T12:11:47.000Z</time>
      </trkpt>
      <trkpt lat="40.7953" lon="-3.947123">
        <ele>2208.1</ele>
        <time>2018-04-21T12:11:48.000Z</time>
      </trkpt>
      <trkpt lat="40.795297" lon="-3.947132">
        <ele>2208.0</ele>
        <time>2018-04-21T12:11:49.000Z</time>
      </trkpt>
      <trkpt lat="40.795294" lon="-3.947141">
        <ele>2207.9</ele>
        <time>2018-04-21T12:11:50.000Z</time>
      </trkpt>
      <trkpt lat="40.795291" lon="-3.94715">
        <ele>2207.9</ele>
        <time>2018-04-21T12:11:51.000Z</time>
      </trkpt>
      <trkpt lat="40.795287" lon="-3.947159">
        <ele>2207.8</ele>
        <time>2018-04-21T12:11:52.000Z</time>
      </trkpt>
      <trkpt lat="40.795283" lon="-3.947169">
        <ele>2207.7</ele>
        <time>2018-04-21T12:11:53.000Z</time>
      </trkpt>
      <trkpt lat="40.795279" lon="-3.947178">
        <ele>2207.7</ele>
        <time>2018-04-21T12:11:54.000Z</time>
      </trkpt>
      <trkpt lat="40.795275" lon="-3.947188">
        <ele>2207.6</ele>
        <time>2018-04-21T12:11:55.000Z</time>
      </trkpt>
      <trkpt lat="40.79527" lon="-3.947199">
        <ele>2207.5</ele>
        <time>2018-04-21T12:11:56.000Z</time>
      </trkpt>
      <trkpt lat="40.795266" lon="-3.94721">
        <ele>2207.5</ele>
        <time>2018-04-21T12:11:57.000Z</time>
      </trkpt>
      <trkpt lat="40.795262" lon="-3.947222">
        <ele>2207.4</ele>
        <time>2018-04-21T12:11:58.000Z</time>
      </trkpt>
      <trkpt lat="40.795259" lon="-3.947234">
        <ele>2207.3</ele>
        <time>2018-04-21T12:11:59.000Z</time>
      </trkpt>
      <trkpt lat="40.795257" lon="-3.947245">
        <ele>2207.2</ele>
        <time>2018-04-21T12:12:00.000Z</time>
      </trkpt>
      <trkpt lat="40.795257" lon="-3.947257">
        <ele>2207.1</ele>
        <time>2018-04-21T12:12:01.000Z</time>
      </trkpt>
      <trkpt lat="40.795258" lon="-3.947268">
        <ele>2206.9</ele>
        <time>2018-04-21T12:12:02.000Z</time>
      </trkpt>
      <trkpt lat="40.795261" lon="-3.947279">
        <ele>2206.8</ele>
        <time>2018-04-21T12:12:03.000Z</time>
      </trkpt>
      <trkpt lat="40.795266" lon="-3.947289">
        <ele>2206.6</ele>
        <time>2018-04-21T12:12:04.000Z</time>
      </trkpt>
      <trkpt lat="40.795271" lon="-3.947299">
        <ele>2206.5</ele>
        <time>2018-04-21T12:12:05.000Z</time>
      </trkpt>
      <trkpt lat="40.795278" lon="-3.947308">
        <ele>2206.3</ele>
        <time>2018-04-21T12:12:06.000Z</time>
      </trkpt>
      <trkpt lat="40.795285" lon="-3.947318">
        <ele>2206.2</ele>
        <time>2018-04-21T12:12:07.000Z</time>
      </trkpt>
      <trkpt lat="40.795291" lon="-3.947327">
        <ele>2206.0</ele>
        <time>2018-04-21T12:12:08.000Z</time>
      </trkpt>
      <trkpt lat="40.795297" lon="-3.947336">
        <ele>2205.8</ele>
        <time>2018-04-21T12:12:09.000Z</time>
      </trkpt>
      <trkpt lat="40.795301" lon="-3.947345">
        <ele>2205.7</ele>
        <time>2018-04-21T12:12:10.000Z</time>
      </trkpt>
      <trkpt lat="40.795304" lon="-3.947355">
        <ele>2205.6</ele>
        <time>2018-04-21T12:12:11.000Z</time>
      </trkpt>
      <trkpt lat="40.795306" lon="-3.947365">
        <ele>2205.4</ele>
        <time>2018-04-21T12:12:12.000Z</time>
      </trkpt>
      <trkpt lat="40.795306" lon="-3.947375">
        <ele>2205.3</ele>
        <time>2018-04-21T12:12:13.000Z</time>
      </trkpt>
      <trkpt lat="40.795305" lon="-3.947385">
        <ele>2205.2</ele>
        <time>2018-04-21T12:12:14.000Z</time>
      </trkpt>
      <trkpt lat="40.795303" lon="-3.947396">
        <ele>2205.1</ele>
        <time>2018-04-21T12:12:15.000Z</time>
      </trkpt>
      <trkpt lat="40.7953" lon="-3.947408">
        <ele>2205.0</ele>
        <time>2018-04-21T12:12:16.000Z</time>
      </trkpt>
      <trkpt lat="40.795297" lon="-3.94742">
        <ele>2204.9</ele>
        <time>2018-04-21T12:12:17.000Z</time>
      </trkpt>
      <trkpt lat="40.795294" lon="-3.947433">
        <ele>2204.8</ele>
        <time>2018-04-21T12:12:18.000Z</time>
      </trkpt>
      <trkpt lat="40.79529" lon="-3.947446">
        <ele>2204.7</ele>
        <time>2018-04-21T12:12:19.000Z</time>
      </trkpt>
      <trkpt lat="40.795285" lon="-3.947459">
        <ele>2204.7</ele>
        <time>2018-04-21T12:12:20.000Z</time>
      </trkpt>
      <trkpt lat="40.795281" lon="-3.947472">
        <ele>2204.6</ele>
        <time>2018-04-21T12:12:21.000Z</time>
      </trkpt>
      <trkpt lat="40.795278" lon="-3.947484">
        <ele>2204.5</ele>
        <time>2018-04-21T12:12:22.000Z</time>
      </trkpt>
      <trkpt lat="40.795274" lon="-3.947494">
        <ele>2204.4</ele>
        <time>2018-04-21T12:12:23.000Z</time>
      </trkpt>
      <trkpt lat="40.795271" lon="-3.947503">
        <ele>2204.4</ele>
        <time>2018-04-21T12:12:24.000Z</time>
      </trkpt>
      <trkpt lat="40.795269" lon="-3.947509">
        <ele>2204.3</ele>
        <time>2018-04-21T12:12:25.000Z</time>
      </trkpt>
      <trkpt lat="40.795268" lon="-3.947514">
        <ele>2204.2</ele>
        <time>2018-04-21T12:12:26.000Z</time>
      </trkpt>
      <trkpt lat="40.795267" lon="-3.947517">
        <ele>2204.2</ele>
        <time>2018-04-21T12:12:27.000Z</time>
      </trkpt>
      <trkpt lat="40.795266" lon="-3.947519">
        <ele>2204.2</ele>
        <time>2018-04-21T12:12:28.000Z</time>
      </trkpt>
      <trkpt lat="40.795266" lon="-3.94752">
        <ele>2204.1</ele>
        <time>2018-04-21T12:12:29.000Z</time>
      </trkpt>
      <trkpt lat="40.795265" lon="-3.94752">
        <ele>2204.2</ele>
        <time>2018-04-21T12:12:30.000Z</time>
      </trkpt>
      <trkpt lat="40.795265" lon="-3.94752">
        <ele>2204.2</ele>
        <time>2018-04-21T12:12:31.000Z</time>
      </trkpt>
      <trkpt lat="40.795265" lon="-3.94752">
        <ele>2204.2</ele>
        <time>2018-04-21T12:12:32.000Z</time>
      </trkpt>
      <trkpt lat="40.795265" lon="-3.94752">
        <ele>2204.2</ele>
        <time>2018-04-21T12:12:33.000Z</time>
      </trkpt>
      <trkpt lat="40.795266" lon="-3.94752">
        <ele>2204.1</ele>
        <time>2018-04-21T12:12:34.000Z</time>
      </trkpt>
      <trkpt lat="40.795266" lon="-3.94752">
        <ele>2204.1</ele>
        <time>2018-04-21T12:12:35.000Z</time>
      </trkpt>
      <trkpt lat="40.795266" lon="-3.94752">
        <ele>2204.1</ele>
        <time>2018-04-21T12:12:36.000Z</time>
      </trkpt>
      <trkpt lat="40.795266" lon="-3.94752">
        <ele>2204.1</ele>
        <time>2018-04-21T12:12:37.000Z</time>
      </trkpt>
      <trkpt lat="40.795266" lon="-3.94752">
        <ele>2204.1</ele>
        <time>2018-04-21T12:12:38.000Z</time>
      </trkpt>
      <trkpt lat="40.795266" lon="-3.94752">
        <ele>2204.1</ele>
        <time>2018-04-21T12:12:39.000Z</time>
      </trkpt>
      <trkpt lat="40.795266" lon="-3.94752">
        <ele>2204.1</ele>
        <time>2018-04-21T12:12:40.000Z</time>
      </trkpt>
      <trkpt lat="40.795266" lon="-3.94752">
        <ele>2204.1</ele>
        <time>2018-04-21T12:12:41.000Z</time>
      </trkpt>
      <trkpt lat="40.795266" lon="-3.94752">
        <ele>2204.1</ele>
        <time>2018-04-21T12:12:42.000Z</time>
      </trkpt>
      <trkpt lat="40.795266" lon="-3.94752">
        <ele>2204.1</ele>
        <time>2018-04-21T12:12:43.000Z</time>
      </trkpt>
      <trkpt lat="40.795266" lon="-3.94752">
        <ele>2204.1</ele>
        <time>2018-04-21T12:12:44.000Z</time>
      </trkpt>
      <trkpt lat="40.795266" lon="-3.94752">
        <ele>2204.1</ele>
        <time>2018-04-21T12:12:45.000Z</time>
      </trkpt>
      <trkpt lat="40.795266" lon="-3.94752">
        <ele>2204.1</ele>
        <time>2018-04-21T12:12:46.000Z</time>
      </trkpt>
      <trkpt lat="40.795266" lon="-3.94752">
        <ele>2204.1</ele>
        <time>2018-04-21T12:12:47.000Z</time>
      </trkpt>
      <trkpt lat="40.795266" lon="-3.94752">
        <ele>2204.1</ele>
        <time>2018-04-21T12:12:48.000Z</time>
      </trkpt>
      <trkpt lat="40.795266" lon="-3.94752">
        <ele>2204.1</ele>
        <time>2018-04-21T12:12:49.000Z</time>
      </trkpt>
      <trkpt lat="40.795266" lon="-3.94752">
        <ele>2204.1</ele>
        <time>2018-04-21T12:12:50.000Z</time>
      </trkpt>
      <trkpt lat="40.795266" lon="-3.94752">
        <ele>2204.1</ele>
        <time>2018-04-21T12:12:51.000Z</time>
      </trkpt>
      <trkpt lat="40.795266" lon="-3.94752">
        <ele>2204.1</ele>
        <time>2018-04-21T12:12:52.000Z</time>
      </trkpt>
      <trkpt lat="40.795266" lon="-3.94752">
        <ele>2204.1</ele>
        <time>2018-04-21T12:12:53.000Z</time>
      </trkpt>
      <trkpt lat="40.795266" lon="-3.94752">
        <ele>2204.1</ele>
        <time>2018-04-21T12:12:54.000Z</time>
      </trkpt>
      <trkpt lat="40.795266" lon="-3.94752">
        <ele>2204.1</ele>
        <time>2018-04-21T12:12:55.000Z</time>
      </trkpt>
      <trkpt lat="40.795266" lon="-3.94752">
        <ele>2204.1</ele>
        <time>2018-04-21T12:12:56.000Z</time>
      </trkpt>
      <trkpt lat="40.795266" lon="-3.94752">
        <ele>2204.1</ele>
        <time>2018-04-21T12:12:57.000Z</time>
      </trkpt>
      <trkpt lat="40.795266" lon="-3.94752">
        <ele>2204.1</ele>
        <time>2018-04-21T12:12:58.000Z</time>
      </trkpt>
      <trkpt lat="40.795266" lon="-3.94752">
        <ele>2204.1</ele>
        <time>2018-04-21T12:12:59.000Z</time>
      </trkpt>
      <trkpt lat="40.795266" lon="-3.94752">
        <ele>2204.1</ele>
        <time>2018-04-21T12:13:00.000Z</time>
      </trkpt>
      <trkpt lat="40.795266" lon="-3.94752">
        <ele>2204.1</ele>
        <time>2018-04-21T12:13:01.000Z</time>
      </trkpt>
      <trkpt lat="40.795266" lon="-3.94752">
        <ele>2204.1</ele>
        <time>2018-04-21T12:13:02.000Z</time>
      </trkpt>
      <trkpt lat="40.795266" lon="-3.94752">
        <ele>2204.1</ele>
        <time>2018-04-21T12:13:03.000Z</time>
      </trkpt>
      <trkpt lat="40.795266" lon="-3.94752">
        <ele>2204.1</ele>
        <time>2018-04-21T12:13:04.000Z</time>
      </trkpt>
      <trkpt lat="40.795266" lon="-3.94752">
        <ele>2204.1</ele>
        <time>2018-04-21T12:13:05.000Z</time>
      </trkpt>
      <trkpt lat="40.795266" lon="-3.94752">
        <ele>2204.1</ele>
        <time>2018-04-21T12:13:06.000Z</time>
      </trkpt>
      <trkpt lat="40.795266" lon="-3.94752">
        <ele>2204.1</ele>
        <time>2018-04-21T12:13:07.000Z</time>
      </trkpt>
      <trkpt lat="40.795266" lon="-3.94752">
        <ele>2204.1</ele>
        <time>2018-04-21T12:13:08.000Z</time>
      </trkpt>
      <trkpt lat="40.795266" lon="-3.94752">
        <ele>2204.1</ele>
        <time>2018-04-21T12:13:09.000Z</time>
      </trkpt>
      <trkpt lat="40.795266" lon="-3.94752">
        <ele>2204.1</ele>
        <time>2018-04-21T12:13:10.000Z</time>
      </trkpt>
      <trkpt lat="40.795266" lon="-3.94752">
        <ele>2204.1</ele>
        <time>2018-04-21T12:13:11.000Z</time>
      </trkpt>
      <trkpt lat="40.795266" lon="-3.94752">
        <ele>2204.1</ele>
        <time>2018-04-21T12:13:12.000Z</time>
      </trkpt>
      <trkpt lat="40.795266" lon="-3.94752">
        <ele>2204.1</ele>
        <time>2018-04-21T12:13:13.000Z</time>
      </trkpt>
      <trkpt lat="40.795266" lon="-3.94752">
        <ele>2204.1</ele>
        <time>2018-04-21T12:13:14.000Z</time>
      </trkpt>
      <trkpt lat="40.795266" lon="-3.94752">
        <ele>2204.1</ele>
        <time>2018-04-21T12:13:15.000Z</time>
      </trkpt>
      <trkpt lat="40.795266" lon="-3.94752">
        <ele>2204.1</ele>
        <time>2018-04-21T12:13:16.000Z</time>
      </trkpt>
      <trkpt lat="40.795266" lon="-3.94752">
        <ele>2204.1</ele>
        <time>2018-04-21T12:13:17.000Z</time>
      </trkpt>
      <trkpt lat="40.795266" lon="-3.94752">
        <ele>2204.1</ele>
        <time>2018-04-21T12:13:18.000Z</time>
      </trkpt>
      <trkpt lat="40.795266" lon="-3.94752">
        <ele>2204.1</ele>
        <time>2018-04-21T12:13:19.000Z</time>
      </trkpt>
      <trkpt lat="40.795266" lon="-3.94752">
        <ele>2204.1</ele>
        <time>2018-04-21T12:13:20.000Z</time>
      </trkpt>
      <trkpt lat="40.795266" lon="-3.94752">
        <ele>2204.1</ele>
        <time>2018-04-21T12:13:21.000Z</time>
      </trkpt>
      <trkpt lat="40.795266" lon="-3.94752">
        <ele>2204.1</ele>
        <time>2018-04-21T12:13:22.000Z</time>
      </trkpt>
      <trkpt lat="40.795266" lon="-3.94752">
        <ele>2204.1</ele>
        <time>2018-04-21T12:13:23.000Z</time>
      </trkpt>
      <trkpt lat="40.795266" lon="-3.94752">
        <ele>2204.1</ele>
        <time>2018-04-21T12:13:24.000Z</time>
      </trkpt>
      <trkpt lat="40.795266" lon="-3.94752">
        <ele>2204.1</ele>
        <time>2018-04-21T12:13:25.000Z</time>
      </trkpt>
      <trkpt lat="40.795266" lon="-3.94752">
        <ele>2204.1</ele>
        <time>2018-04-21T12:13:26.000Z</time>
      </trkpt>
      <trkpt lat="40.795266" lon="-3.94752">
        <ele>2204.1</ele>
        <time>2018-04-21T12:13:27.000Z</time>
      </trkpt>
      <trkpt lat="40.795266" lon="-3.94752">
        <ele>2204.1</ele>
        <time>2018-04-21T12:13:28.000Z</time>
      </trkpt>
      <trkpt lat="40.795266" lon="-3.94752">
        <ele>2204.1</ele>
        <time>2018-04-21T12:13:29.000Z</time>
      </trkpt>
      <trkpt lat="40.795266" lon="-3.94752">
        <ele>2204.1</ele>
        <time>2018-04-21T12:13:30.000Z</time>
      </trkpt>
      <trkpt lat="40.795266" lon="-3.94752">
        <ele>2204.1</ele>
        <time>2018-04-21T12:13:31.000Z</time>
      </trkpt>
      <trkpt lat="40.795266" lon="-3.94752">
        <ele>2204.1</ele>
        <time>2018-04-21T12:13:32.000Z</time>
      </trkpt>
      <trkpt lat="40.795266" lon="-3.94752">
        <ele>2204.1</ele>
        <time>2018-04-21T12:13:33.000Z</time>
      </trkpt>
      <trkpt lat="40.795266" lon="-3.94752">
        <ele>2204.1</ele>
        <time>2018-04-21T12:13:34.000Z</time>
      </trkpt>
      <trkpt lat="40.795266" lon="-3.94752">
        <ele>2204.1</ele>
        <time>2018-04-21T12:13:35.000Z</time>
      </trkpt>
      <trkpt lat="40.795266" lon="-3.94752">
        <ele>2204.1</ele>
        <time>2018-04-21T12:13:36.000Z</time>
      </trkpt>
      <trkpt lat="40.795266" lon="-3.94752">
        <ele>2204.1</ele>
        <time>2018-04-21T12:13:37.000Z</time>
      </trkpt>
      <trkpt lat="40.795266" lon="-3.94752">
        <ele>2204.1</ele>
        <time>2018-04-21T12:13:38.000Z</time>
      </trkpt>
      <trkpt lat="40.795266" lon="-3.94752">
        <ele>2204.1</ele>
        <time>2018-04-21T12:13:39.000Z</time>
      </trkpt>
      <trkpt lat="40.795266" lon="-3.94752">
        <ele>2204.1</ele>
        <time>2018-04-21T12:13:40.000Z</time>
      </trkpt>
      <trkpt lat="40.795266" lon="-3.94752">
        <ele>2204.1</ele>
        <time>2018-04-21T12:13:41.000Z</time>
      </trkpt>
      <trkpt lat="40.795266" lon="-3.94752">
        <ele>2204.1</ele>
        <time>2018-04-21T12:13:42.000Z</time>
      </trkpt>
      <trkpt lat="40.795266" lon="-3.94752">
        <ele>2204.1</ele>
        <time>2018-04-21T12:13:43.000Z</time>
      </trkpt>
      <trkpt lat="40.795266" lon="-3.94752">
        <ele>2204.1</ele>
        <time>2018-04-21T12:13:44.000Z</time>
      </trkpt>
      <trkpt lat="40.795266" lon="-3.94752">
        <ele>2204.1</ele>
        <time>2018-04-21T12:13:45.000Z</time>
      </trkpt>
      <trkpt lat="40.795266" lon="-3.94752">
        <ele>2204.1</ele>
        <time>2018-04-21T12:13:46.000Z</time>
      </trkpt>
      <trkpt lat="40.795266" lon="-3.94752">
        <ele>2204.1</ele>
        <time>2018-04-21T12:13:47.000Z</time>
      </trkpt>
      <trkpt lat="40.795266" lon="-3.94752">
        <ele>2204.1</ele>
        <time>2018-04-21T12:13:48.000Z</time>
      </trkpt>
      <trkpt lat="40.795266" lon="-3.94752">
        <ele>2204.1</ele>
        <time>2018-04-21T12:13:49.000Z</time>
      </trkpt>
      <trkpt lat="40.795266" lon="-3.94752">
        <ele>2204.1</ele>
        <time>2018-04-21T12:13:50.000Z</time>
      </trkpt>
      <trkpt lat="40.795266" lon="-3.94752">
        <ele>2204.1</ele>
        <time>2018-04-21T12:13:51.000Z</time>
      </trkpt>
      <trkpt lat="40.795266" lon="-3.94752">
        <ele>2204.1</ele>
        <time>2018-04-21T12:13:52.000Z</time>
      </trkpt>
      <trkpt lat="40.795266" lon="-3.94752">
        <ele>2204.1</ele>
        <time>2018-04-21T12:13:53.000Z</time>
      </trkpt>
      <trkpt lat="40.795266" lon="-3.94752">
        <ele>2204.1</ele>
        <time>2018-04-21T12:13:54.000Z</time>
      </trkpt>
      <trkpt lat="40.795266" lon="-3.94752">
        <ele>2204.1</ele>
        <time>2018-04-21T12:13:55.000Z</time>
      </trkpt>
      <trkpt lat="40.795266" lon="-3.94752">
        <ele>2204.1</ele>
        <time>2018-04-21T12:13:56.000Z</time>
      </trkpt>
      <trkpt lat="40.795266" lon="-3.94752">
        <ele>2204.1</ele>
        <time>2018-04-21T12:13:57.000Z</time>
      </trkpt>
      <trkpt lat="40.795266" lon="-3.94752">
        <ele>2204.1</ele>
        <time>2018-04-21T12:13:58.000Z</time>
      </trkpt>
      <trkpt lat="40.795266" lon="-3.94752">
        <ele>2204.1</ele>
        <time>2018-04-21T12:13:59.000Z</time>
      </trkpt>
      <trkpt lat="40.795266" lon="-3.94752">
        <ele>2204.1</ele>
        <time>2018-04-21T12:14:00.000Z</time>
      </trkpt>
      <trkpt lat="40.795266" lon="-3.94752">
        <ele>2204.1</ele>
        <time>2018-04-21T12:14:01.000Z</time>
      </trkpt>
      <trkpt lat="40.795266" lon="-3.94752">
        <ele>2204.1</ele>
        <time>2018-04-21T12:14:02.000Z</time>
      </trkpt>
      <trkpt lat="40.795266" lon="-3.94752">
        <ele>2204.1</ele>
        <time>2018-04-21T12:14:03.000Z</time>
      </trkpt>
      <trkpt lat="40.795266" lon="-3.94752">
        <ele>2204.1</ele>
        <time>2018-04-21T12:14:04.000Z</time>
      </trkpt>
      <trkpt lat="40.795266" lon="-3.94752">
        <ele>2204.1</ele>
        <time>2018-04-21T12:14:05.000Z</time>
      </trkpt>
      <trkpt lat="40.795266" lon="-3.94752">
        <ele>2204.1</ele>
        <time>2018-04-21T12:14:06.000Z</time>
      </trkpt>
      <trkpt lat="40.795266" lon="-3.94752">
        <ele>2204.1</ele>
        <time>2018-04-21T12:14:07.000Z</time>
      </trkpt>
      <trkpt lat="40.795266" lon="-3.94752">
        <ele>2204.1</ele>
        <time>2018-04-21T12:14:08.000Z</time>
      </trkpt>
      <trkpt lat="40.795266" lon="-3.94752">
        <ele>2204.1</ele>
        <time>2018-04-21T12:14:09.000Z</time>
      </trkpt>
      <trkpt lat="40.795266" lon="-3.94752">
        <ele>2204.1</ele>
        <time>2018-04-21T12:14:10.000Z</time>
      </trkpt>
      <trkpt lat="40.795266" lon="-3.94752">
        <ele>2204.1</ele>
        <time>2018-04-21T12:14:11.000Z</time>
      </trkpt>
      <trkpt lat="40.795266" lon="-3.94752">
        <ele>2204.1</ele>
        <time>2018-04-21T12:14:12.000Z</time>
      </trkpt>
      <trkpt lat="40.795266" lon="-3.94752">
        <ele>2204.1</ele>
        <time>2018-04-21T12:14:13.000Z</time>
      </trkpt>
      <trkpt lat="40.795266" lon="-3.94752">
        <ele>2204.1</ele>
        <time>2018-04-21T12:14:14.000Z</time>
      </trkpt>
      <trkpt lat="40.795266" lon="-3.94752">
        <ele>2204.1</ele>
        <time>2018-04-21T12:14:15.000Z</time>
      </trkpt>
      <trkpt lat="40.795266" lon="-3.94752">
        <ele>2204.1</ele>
        <time>2018-04-21T12:14:16.000Z</time>
      </trkpt>
      <trkpt lat="40.795266" lon="-3.94752">
        <ele>2204.1</ele>
        <time>2018-04-21T12:14:17.000Z</time>
      </trkpt>
      <trkpt lat="40.795266" lon="-3.94752">
        <ele>2204.1</ele>
        <time>2018-04-21T12:14:18.000Z</time>
      </trkpt>
      <trkpt lat="40.795266" lon="-3.94752">
        <ele>2204.1</ele>
        <time>2018-04-21T12:14:19.000Z</time>
      </trkpt>
      <trkpt lat="40.795266" lon="-3.94752">
        <ele>2204.1</ele>
        <time>2018-04-21T12:14:20.000Z</time>
      </trkpt>
      <trkpt lat="40.795266" lon="-3.94752">
        <ele>2204.1</ele>
        <time>2018-04-21T12:14:21.000Z</time>
      </trkpt>
      <trkpt lat="40.795266" lon="-3.94752">
        <ele>2204.1</ele>
        <time>2018-04-21T12:14:22.000Z</time>
      </trkpt>
      <trkpt lat="40.795266" lon="-3.94752">
        <ele>2204.1</ele>
        <time>2018-04-21T12:14:23.000Z</time>
      </trkpt>
      <trkpt lat="40.795266" lon="-3.94752">
        <ele>2204.1</ele>
        <time>2018-04-21T12:14:24.000Z</time>
      </trkpt>
      <trkpt lat="40.795266" lon="-3.94752">
        <ele>2204.1</ele>
        <time>2018-04-21T12:14:25.000Z</time>
      </trkpt>
      <trkpt lat="40.795266" lon="-3.94752">
        <ele>2204.1</ele>
        <time>2018-04-21T12:14:26.000Z</time>
      </trkpt>
      <trkpt lat="40.795266" lon="-3.94752">
        <ele>2204.1</ele>
        <time>2018-04-21T12:14:27.000Z</time>
      </trkpt>
      <trkpt lat="40.795266" lon="-3.94752">
        <ele>2204.1</ele>
        <time>2018-04-21T12:14:28.000Z</time>
      </trkpt>
      <trkpt lat="40.795266" lon="-3.94752">
        <ele>2204.1</ele>
        <time>2018-04-21T12:14:29.000Z</time>
      </trkpt>
      <trkpt lat="40.795266" lon="-3.94752">
        <ele>2204.1</ele>
        <time>2018-04-21T12:14:30.000Z</time>
      </trkpt>
      <trkpt lat="40.795266" lon="-3.94752">
        <ele>2204.1</ele>
        <time>2018-04-21T12:14:31.000Z</time>
      </trkpt>
      <trkpt lat="40.795266" lon="-3.94752">
        <ele>2204.1</ele>
        <time>2018-04-21T12:14:32.000Z</time>
      </trkpt>
      <trkpt lat="40.795266" lon="-3.94752">
        <ele>2204.1</ele>
        <time>2018-04-21T12:14:33.000Z</time>
      </trkpt>
      <trkpt lat="40.795266" lon="-3.94752">
        <ele>2204.1</ele>
        <time>2018-04-21T12:14:34.000Z</time>
      </trkpt>
      <trkpt lat="40.795266" lon="-3.94752">
        <ele>2204.1</ele>
        <time>2018-04-21T12:14:35.000Z</time>
      </trkpt>
      <trkpt lat="40.795266" lon="-3.94752">
        <ele>2204.1</ele>
        <time>2018-04-21T12:14:36.000Z</time>
      </trkpt>
      <trkpt lat="40.795266" lon="-3.94752">
        <ele>2204.1</ele>
        <time>2018-04-21T12:14:37.000Z</time>
      </trkpt>
      <trkpt lat="40.795266" lon="-3.94752">
        <ele>2204.1</ele>
        <time>2018-04-21T12:14:38.000Z</time>
      </trkpt>
      <trkpt lat="40.795266" lon="-3.94752">
        <ele>2204.1</ele>
        <time>2018-04-21T12:14:39.000Z</time>
      </trkpt>
      <trkpt lat="40.795266" lon="-3.94752">
        <ele>2204.1</ele>
        <time>2018-04-21T12:14:40.000Z</time>
      </trkpt>
      <trkpt lat="40.795266" lon="-3.94752">
        <ele>2204.1</ele>
        <time>2018-04-21T12:14:41.000Z</time>
      </trkpt>
      <trkpt lat="40.795266" lon="-3.94752">
        <ele>2204.1</ele>
        <time>2018-04-21T12:14:42.000Z</time>
      </trkpt>
      <trkpt lat="40.795266" lon="-3.94752">
        <ele>2204.1</ele>
        <time>2018-04-21T12:14:43.000Z</time>
      </trkpt>
      <trkpt lat="40.795266" lon="-3.94752">
        <ele>2204.1</ele>
        <time>2018-04-21T12:14:44.000Z</time>
      </trkpt>
      <trkpt lat="40.795266" lon="-3.94752">
        <ele>2204.1</ele>
        <time>2018-04-21T12:14:45.000Z</time>
      </trkpt>
      <trkpt lat="40.795266" lon="-3.94752">
        <ele>2204.1</ele>
        <time>2018-04-21T12:14:46.000Z</time>
      </trkpt>
      <trkpt lat="40.795266" lon="-3.94752">
        <ele>2204.1</ele>
        <time>2018-04-21T12:14:47.000Z</time>
      </trkpt>
      <trkpt lat="40.795266" lon="-3.94752">
        <ele>2204.1</ele>
        <time>2018-04-21T12:14:48.000Z</time>
      </trkpt>
      <trkpt lat="40.795266" lon="-3.94752">
        <ele>2204.1</ele>
        <time>2018-04-21T12:14:49.000Z</time>
      </trkpt>
      <trkpt lat="40.795266" lon="-3.94752">
        <ele>2204.1</ele>
        <time>2018-04-21T12:14:50.000Z</time>
      </trkpt>
      <trkpt lat="40.795266" lon="-3.94752">
        <ele>2204.1</ele>
        <time>2018-04-21T12:14:51.000Z</time>
      </trkpt>
      <trkpt lat="40.795266" lon="-3.94752">
        <ele>2204.1</ele>
        <time>2018-04-21T12:14:52.000Z</time>
      </trkpt>
      <trkpt lat="40.795266" lon="-3.94752">
        <ele>2204.1</ele>
        <time>2018-04-21T12:14:53.000Z</time>
      </trkpt>
      <trkpt lat="40.795266" lon="-3.94752">
        <ele>2204.1</ele>
        <time>2018-04-21T12:14:54.000Z</time>
      </trkpt>
      <trkpt lat="40.795266" lon="-3.94752">
        <ele>2204.1</ele>
        <time>2018-04-21T12:14:55.000Z</time>
      </trkpt>
      <trkpt lat="40.795266" lon="-3.94752">
        <ele>2204.1</ele>
        <time>2018-04-21T12:14:56.000Z</time>
      </trkpt>
      <trkpt lat="40.795266" lon="-3.94752">
        <ele>2204.1</ele>
        <time>2018-04-21T12:14:57.000Z</time>
      </trkpt>
      <trkpt lat="40.795266" lon="-3.947521">
        <ele>2204.1</ele>
        <time>2018-04-21T12:14:58.000Z</time>
      </trkpt>
      <trkpt lat="40.795266" lon="-3.947521">
        <ele>2204.1</ele>
        <time>2018-04-21T12:14:59.000Z</time>
      </trkpt>
      <trkpt lat="40.795266" lon="-3.947521">
        <ele>2204.1</ele>
        <time>2018-04-21T12:15:00.000Z</time>
      </trkpt>
      <trkpt lat="40.795266" lon="-3.947521">
        <ele>2204.1</ele>
        <time>2018-04-21T12:15:01.000Z</time>
      </trkpt>
      <trkpt lat="40.795266" lon="-3.947521">
        <ele>2204.1</ele>
        <time>2018-04-21T12:15:02.000Z</time>
      </trkpt>
      <trkpt lat="40.795266" lon="-3.947521">
        <ele>2204.1</ele>
        <time>2018-04-21T12:15:03.000Z</time>
      </trkpt>
      <trkpt lat="40.795266" lon="-3.947521">
        <ele>2204.1</ele>
        <time>2018-04-21T12:15:04.000Z</time>
      </trkpt>
      <trkpt lat="40.795266" lon="-3.947521">
        <ele>2204.1</ele>
        <time>2018-04-21T12:15:05.000Z</time>
      </trkpt>
      <trkpt lat="40.795266" lon="-3.947521">
        <ele>2204.1</ele>
        <time>2018-04-21T12:15:06.000Z</time>
      </trkpt>
      <trkpt lat="40.795266" lon="-3.947521">
        <ele>2204.1</ele>
        <time>2018-04-21T12:15:07.000Z</time>
      </trkpt>
      <trkpt lat="40.795266" lon="-3.947521">
        <ele>2204.1</ele>
        <time>2018-04-21T12:15:08.000Z</time>
      </trkpt>
      <trkpt lat="40.795266" lon="-3.947521">
        <ele>2204.1</ele>
        <time>2018-04-21T12:15:09.000Z</time>
      </trkpt>
      <trkpt lat="40.795266" lon="-3.947521">
        <ele>2204.1</ele>
        <time>2018-04-21T12:15:10.000Z</time>
      </trkpt>
      <trkpt lat="40.795266" lon="-3.947521">
        <ele>2204.1</ele>
        <time>2018-04-21T12:15:11.000Z</time>
      </trkpt>
      <trkpt lat="40.795266" lon="-3.947521">
        <ele>2204.1</ele>
        <time>2018-04-21T12:15:12.000Z</time>
      </trkpt>
      <trkpt lat="40.795266" lon="-3.947521">
        <ele>2204.1</ele>
        <time>2018-04-21T12:15:13.000Z</time>
      </trkpt>
      <trkpt lat="40.795266" lon="-3.947521">
        <ele>2204.1</ele>
        <time>2018-04-21T12:15:14.000Z</time>
      </trkpt>
      <trkpt lat="40.795266" lon="-3.947521">
        <ele>2204.1</ele>
        <time>2018-04-21T12:15:15.000Z</time>
      </trkpt>
      <trkpt lat="40.795266" lon="-3.947521">
        <ele>2204.1</ele>
        <time>2018-04-21T12:15:16.000Z</time>
      </trkpt>
      <trkpt lat="40.795266" lon="-3.947521">
        <ele>2204.1</ele>
        <time>2018-04-21T12:15:17.000Z</time>
      </trkpt>
      <trkpt lat="40.795266" lon="-3.947521">
        <ele>2204.1</ele>
        <time>2018-04-21T12:15:18.000Z</time>
      </trkpt>
      <trkpt lat="40.795266" lon="-3.947521">
        <ele>2204.1</ele>
        <time>2018-04-21T12:15:19.000Z</time>
      </trkpt>
      <trkpt lat="40.795266" lon="-3.947521">
        <ele>2204.1</ele>
        <time>2018-04-21T12:15:20.000Z</time>
      </trkpt>
      <trkpt lat="40.795266" lon="-3.947521">
        <ele>2204.1</ele>
        <time>2018-04-21T12:15:21.000Z</time>
      </trkpt>
      <trkpt lat="40.795266" lon="-3.947521">
        <ele>2204.1</ele>
        <time>2018-04-21T12:15:22.000Z</time>
      </trkpt>
      <trkpt lat="40.795266" lon="-3.947521">
        <ele>2204.1</ele>
        <time>2018-04-21T12:15:23.000Z</time>
      </trkpt>
      <trkpt lat="40.795266" lon="-3.947521">
        <ele>2204.1</ele>
        <time>2018-04-21T12:15:24.000Z</time>
      </trkpt>
      <trkpt lat="40.795266" lon="-3.947521">
        <ele>2204.1</ele>
        <time>2018-04-21T12:15:25.000Z</time>
      </trkpt>
      <trkpt lat="40.795266" lon="-3.947521">
        <ele>2204.1</ele>
        <time>2018-04-21T12:15:26.000Z</time>
      </trkpt>
      <trkpt lat="40.795266" lon="-3.947521">
        <ele>2204.1</ele>
        <time>2018-04-21T12:15:27.000Z</time>
      </trkpt>
      <trkpt lat="40.795266" lon="-3.947521">
        <ele>2204.1</ele>
        <time>2018-04-21T12:15:28.000Z</time>
      </trkpt>
      <trkpt lat="40.795266" lon="-3.947521">
        <ele>2204.1</ele>
        <time>2018-04-21T12:15:29.000Z</time>
      </trkpt>
      <trkpt lat="40.795266" lon="-3.947521">
        <ele>2204.1</ele>
        <time>2018-04-21T12:15:30.000Z</time>
      </trkpt>
      <trkpt lat="40.795266" lon="-3.947521">
        <ele>2204.1</ele>
        <time>2018-04-21T12:15:31.000Z</time>
      </trkpt>
      <trkpt lat="40.795266" lon="-3.947521">
        <ele>2204.1</ele>
        <time>2018-04-21T12:15:32.000Z</time>
      </trkpt>
      <trkpt lat="40.795266" lon="-3.947521">
        <ele>2204.1</ele>
        <time>2018-04-21T12:15:33.000Z</time>
      </trkpt>
      <trkpt lat="40.795266" lon="-3.947521">
        <ele>2204.1</ele>
        <time>2018-04-21T12:15:34.000Z</time>
      </trkpt>
      <trkpt lat="40.795266" lon="-3.947521">
        <ele>2204.1</ele>
        <time>2018-04-21T12:15:35.000Z</time>
      </trkpt>
      <trkpt lat="40.795266" lon="-3.947521">
        <ele>2204.1</ele>
        <time>2018-04-21T12:15:36.000Z</time>
      </trkpt>
      <trkpt lat="40.795266" lon="-3.94752">
        <ele>2204.1</ele>
        <time>2018-04-21T12:15:37.000Z</time>
      </trkpt>
      <trkpt lat="40.795266" lon="-3.94752">
        <ele>2204.1</ele>
        <time>2018-04-21T12:15:38.000Z</time>
      </trkpt>
      <trkpt lat="40.795266" lon="-3.94752">
        <ele>2204.1</ele>
        <time>2018-04-21T12:15:39.000Z</time>
      </trkpt>
      <trkpt lat="40.795266" lon="-3.94752">
        <ele>2204.1</ele>
        <time>2018-04-21T12:15:40.000Z</time>
      </trkpt>
      <trkpt lat="40.795266" lon="-3.94752">
        <ele>2204.1</ele>
        <time>2018-04-21T12:15:41.000Z</time>
      </trkpt>
      <trkpt lat="40.795266" lon="-3.94752">
        <ele>2204.1</ele>
        <time>2018-04-21T12:15:42.000Z</time>
      </trkpt>
      <trkpt lat="40.795266" lon="-3.94752">
        <ele>2204.1</ele>
        <time>2018-04-21T12:15:43.000Z</time>
      </trkpt>
      <trkpt lat="40.795266" lon="-3.94752">
        <ele>2204.1</ele>
        <time>2018-04-21T12:15:44.000Z</time>
      </trkpt>
      <trkpt lat="40.795266" lon="-3.94752">
        <ele>2204.1</ele>
        <time>2018-04-21T12:15:45.000Z</time>
      </trkpt>
      <trkpt lat="40.795266" lon="-3.94752">
        <ele>2204.1</ele>
        <time>2018-04-21T12:15:46.000Z</time>
      </trkpt>
      <trkpt lat="40.795266" lon="-3.94752">
        <ele>2204.1</ele>
        <time>2018-04-21T12:15:47.000Z</time>
      </trkpt>
      <trkpt lat="40.795266" lon="-3.94752">
        <ele>2204.1</ele>
        <time>2018-04-21T12:15:48.000Z</time>
      </trkpt>
      <trkpt lat="40.795266" lon="-3.94752">
        <ele>2204.1</ele>
        <time>2018-04-21T12:15:49.000Z</time>
      </trkpt>
      <trkpt lat="40.795266" lon="-3.94752">
        <ele>2204.1</ele>
        <time>2018-04-21T12:15:50.000Z</time>
      </trkpt>
      <trkpt lat="40.795266" lon="-3.94752">
        <ele>2204.1</ele>
        <time>2018-04-21T12:15:51.000Z</time>
      </trkpt>
      <trkpt lat="40.795266" lon="-3.94752">
        <ele>2204.1</ele>
        <time>2018-04-21T12:15:52.000Z</time>
      </trkpt>
      <trkpt lat="40.795266" lon="-3.94752">
        <ele>2204.1</ele>
        <time>2018-04-21T12:15:53.000Z</time>
      </trkpt>
      <trkpt lat="40.795266" lon="-3.94752">
        <ele>2204.1</ele>
        <time>2018-04-21T12:15:54.000Z</time>
      </trkpt>
      <trkpt lat="40.795266" lon="-3.94752">
        <ele>2204.1</ele>
        <time>2018-04-21T12:15:55.000Z</time>
      </trkpt>
      <trkpt lat="40.795266" lon="-3.94752">
        <ele>2204.1</ele>
        <time>2018-04-21T12:15:56.000Z</time>
      </trkpt>
      <trkpt lat="40.795266" lon="-3.94752">
        <ele>2204.1</ele>
        <time>2018-04-21T12:15:57.000Z</time>
      </trkpt>
      <trkpt lat="40.795266" lon="-3.94752">
        <ele>2204.1</ele>
        <time>2018-04-21T12:15:58.000Z</time>
      </trkpt>
      <trkpt lat="40.795266" lon="-3.94752">
        <ele>2204.1</ele>
        <time>2018-04-21T12:15:59.000Z</time>
      </trkpt>
      <trkpt lat="40.795266" lon="-3.94752">
        <ele>2204.1</ele>
        <time>2018-04-21T12:16:00.000Z</time>
      </trkpt>
      <trkpt lat="40.795266" lon="-3.94752">
        <ele>2204.1</ele>
        <time>2018-04-21T12:16:01.000Z</time>
      </trkpt>
      <trkpt lat="40.795266" lon="-3.94752">
        <ele>2204.1</ele>
        <time>2018-04-21T12:16:02.000Z</time>
      </trkpt>
      <trkpt lat="40.795266" lon="-3.94752">
        <ele>2204.1</ele>
        <time>2018-04-21T12:16:03.000Z</time>
      </trkpt>
      <trkpt lat="40.795266" lon="-3.94752">
        <ele>2204.1</ele>
        <time>2018-04-21T12:16:04.000Z</time>
      </trkpt>
      <trkpt lat="40.795266" lon="-3.94752">
        <ele>2204.1</ele>
        <time>2018-04-21T12:16:05.000Z</time>
      </trkpt>
      <trkpt lat="40.795266" lon="-3.94752">
        <ele>2204.1</ele>
        <time>2018-04-21T12:16:06.000Z</time>
      </trkpt>
      <trkpt lat="40.795266" lon="-3.94752">
        <ele>2204.1</ele>
        <time>2018-04-21T12:16:07.000Z</time>
      </trkpt>
      <trkpt lat="40.795266" lon="-3.94752">
        <ele>2204.1</ele>
        <time>2018-04-21T12:16:08.000Z</time>
      </trkpt>
      <trkpt lat="40.795266" lon="-3.94752">
        <ele>2204.1</ele>
        <time>2018-04-21T12:16:09.000Z</time>
      </trkpt>
      <trkpt lat="40.795266" lon="-3.94752">
        <ele>2204.1</ele>
        <time>2018-04-21T12:16:10.000Z</time>
      </trkpt>
      <trkpt lat="40.795266" lon="-3.94752">
        <ele>2204.1</ele>
        <time>2018-04-21T12:16:11.000Z</time>
      </trkpt>
      <trkpt lat="40.795266" lon="-3.94752">
        <ele>2204.1</ele>
        <time>2018-04-21T12:16:12.000Z</time>
      </trkpt>
      <trkpt lat="40.795266" lon="-3.94752">
        <ele>2204.1</ele>
        <time>2018-04-21T12:16:13.000Z</time>
      </trkpt>
      <trkpt lat="40.795266" lon="-3.94752">
        <ele>2204.1</ele>
        <time>2018-04-21T12:16:14.000Z</time>
      </trkpt>
      <trkpt lat="40.795266" lon="-3.94752">
        <ele>2204.1</ele>
        <time>2018-04-21T12:16:15.000Z</time>
      </trkpt>
      <trkpt lat="40.795266" lon="-3.94752">
        <ele>2204.1</ele>
        <time>2018-04-21T12:16:16.000Z</time>
      </trkpt>
      <trkpt lat="40.795266" lon="-3.94752">
        <ele>2204.1</ele>
        <time>2018-04-21T12:16:17.000Z</time>
      </trkpt>
      <trkpt lat="40.795266" lon="-3.94752">
        <ele>2204.1</ele>
        <time>2018-04-21T12:16:18.000Z</time>
      </trkpt>
      <trkpt lat="40.795266" lon="-3.94752">
        <ele>2204.1</ele>
        <time>2018-04-21T12:16:19.000Z</time>
      </trkpt>
      <trkpt lat="40.795266" lon="-3.94752">
        <ele>2204.1</ele>
        <time>2018-04-21T12:16:20.000Z</time>
      </trkpt>
      <trkpt lat="40.795266" lon="-3.94752">
        <ele>2204.1</ele>
        <time>2018-04-21T12:16:21.000Z</time>
      </trkpt>
      <trkpt lat="40.795266" lon="-3.94752">
        <ele>2204.1</ele>
        <time>2018-04-21T12:16:22.000Z</time>
      </trkpt>
      <trkpt lat="40.795266" lon="-3.94752">
        <ele>2204.1</ele>
        <time>2018-04-21T12:16:23.000Z</time>
      </trkpt>
      <trkpt lat="40.795266" lon="-3.94752">
        <ele>2204.1</ele>
        <time>2018-04-21T12:16:24.000Z</time>
      </trkpt>
      <trkpt lat="40.795266" lon="-3.94752">
        <ele>2204.1</ele>
        <time>2018-04-21T12:16:25.000Z</time>
      </trkpt>
      <trkpt lat="40.795266" lon="-3.94752">
        <ele>2204.1</ele>
        <time>2018-04-21T12:16:26.000Z</time>
      </trkpt>
      <trkpt lat="40.795266" lon="-3.94752">
        <ele>2204.1</ele>
        <time>2018-04-21T12:16:27.000Z</time>
      </trkpt>
      <trkpt lat="40.795266" lon="-3.94752">
        <ele>2204.1</ele>
        <time>2018-04-21T12:16:28.000Z</time>
      </trkpt>
      <trkpt lat="40.795266" lon="-3.94752">
        <ele>2204.1</ele>
        <time>2018-04-21T12:16:29.000Z</time>
      </trkpt>
      <trkpt lat="40.795266" lon="-3.94752">
        <ele>2204.1</ele>
        <time>2018-04-21T12:16:30.000Z</time>
      </trkpt>
      <trkpt lat="40.795266" lon="-3.94752">
        <ele>2204.1</ele>
        <time>2018-04-21T12:16:31.000Z</time>
      </trkpt>
      <trkpt lat="40.795266" lon="-3.94752">
        <ele>2204.1</ele>
        <time>2018-04-21T12:16:32.000Z</time>
      </trkpt>
      <trkpt lat="40.795266" lon="-3.94752">
        <ele>2204.1</ele>
        <time>2018-04-21T12:16:33.000Z</time>
      </trkpt>
      <trkpt lat="40.795266" lon="-3.94752">
        <ele>2204.1</ele>
        <time>2018-04-21T12:16:34.000Z</time>
      </trkpt>
      <trkpt lat="40.795266" lon="-3.94752">
        <ele>2204.1</ele>
        <time>2018-04-21T12:16:35.000Z</time>
      </trkpt>
      <trkpt lat="40.795266" lon="-3.94752">
        <ele>2204.1</ele>
        <time>2018-04-21T12:16:36.000Z</time>
      </trkpt>
      <trkpt lat="40.795266" lon="-3.94752">
        <ele>2204.1</ele>
        <time>2018-04-21T12:16:37.000Z</time>
      </trkpt>
      <trkpt lat="40.795266" lon="-3.94752">
        <ele>2204.1</ele>
        <time>2018-04-21T12:16:38.000Z</time>
      </trkpt>
      <trkpt lat="40.795266" lon="-3.94752">
        <ele>2204.1</ele>
        <time>2018-04-21T12:16:39.000Z</time>
      </trkpt>
      <trkpt lat="40.795266" lon="-3.94752">
        <ele>2204.1</ele>
        <time>2018-04-21T12:16:40.000Z</time>
      </trkpt>
      <trkpt lat="40.795266" lon="-3.94752">
        <ele>2204.1</ele>
        <time>2018-04-21T12:16:41.000Z</time>
      </trkpt>
      <trkpt lat="40.795266" lon="-3.94752">
        <ele>2204.1</ele>
        <time>2018-04-21T12:16:42.000Z</time>
      </trkpt>
      <trkpt lat="40.795266" lon="-3.94752">
        <ele>2204.1</ele>
        <time>2018-04-21T12:16:43.000Z</time>
      </trkpt>
      <trkpt lat="40.795266" lon="-3.94752">
        <ele>2204.1</ele>
        <time>2018-04-21T12:16:44.000Z</time>
      </trkpt>
      <trkpt lat="40.795266" lon="-3.94752">
        <ele>2204.1</ele>
        <time>2018-04-21T12:16:45.000Z</time>
      </trkpt>
      <trkpt lat="40.795266" lon="-3.94752">
        <ele>2204.1</ele>
        <time>2018-04-21T12:16:46.000Z</time>
      </trkpt>
      <trkpt lat="40.795266" lon="-3.94752">
        <ele>2204.1</ele>
        <time>2018-04-21T12:16:47.000Z</time>
      </trkpt>
      <trkpt lat="40.795266" lon="-3.94752">
        <ele>2204.1</ele>
        <time>2018-04-21T12:16:48.000Z</time>
      </trkpt>
      <trkpt lat="40.795266" lon="-3.94752">
        <ele>2204.1</ele>
        <time>2018-04-21T12:16:49.000Z</time>
      </trkpt>
      <trkpt lat="40.795266" lon="-3.94752">
        <ele>2204.1</ele>
        <time>2018-04-21T12:16:50.000Z</time>
      </trkpt>
      <trkpt lat="40.795266" lon="-3.94752">
        <ele>2204.1</ele>
        <time>2018-04-21T12:16:51.000Z</time>
      </trkpt>
      <trkpt lat="40.795266" lon="-3.94752">
        <ele>2204.1</ele>
        <time>2018-04-21T12:16:52.000Z</time>
      </trkpt>
      <trkpt lat="40.795266" lon="-3.94752">
        <ele>2204.1</ele>
        <time>2018-04-21T12:16:53.000Z</time>
      </trkpt>
      <trkpt lat="40.795266" lon="-3.94752">
        <ele>2204.1</ele>
        <time>2018-04-21T12:16:54.000Z</time>
      </trkpt>
      <trkpt lat="40.795266" lon="-3.94752">
        <ele>2204.1</ele>
        <time>2018-04-21T12:16:55.000Z</time>
      </trkpt>
      <trkpt lat="40.795266" lon="-3.94752">
        <ele>2204.1</ele>
        <time>2018-04-21T12:16:56.000Z</time>
      </trkpt>
      <trkpt lat="40.795266" lon="-3.94752">
        <ele>2204.1</ele>
        <time>2018-04-21T12:16:57.000Z</time>
      </trkpt>
      <trkpt lat="40.795266" lon="-3.94752">
        <ele>2204.1</ele>
        <time>2018-04-21T12:16:58.000Z</time>
      </trkpt>
      <trkpt lat="40.795266" lon="-3.94752">
        <ele>2204.1</ele>
        <time>2018-04-21T12:16:59.000Z</time>
      </trkpt>
      <trkpt lat="40.795266" lon="-3.94752">
        <ele>2204.1</ele>
        <time>2018-04-21T12:17:00.000Z</time>
      </trkpt>
      <trkpt lat="40.795266" lon="-3.94752">
        <ele>2204.1</ele>
        <time>2018-04-21T12:17:01.000Z</time>
      </trkpt>
      <trkpt lat="40.795266" lon="-3.94752">
        <ele>2204.1</ele>
        <time>2018-04-21T12:17:02.000Z</time>
      </trkpt>
      <trkpt lat="40.795266" lon="-3.94752">
        <ele>2204.1</ele>
        <time>2018-04-21T12:17:03.000Z</time>
      </trkpt>
      <trkpt lat="40.795266" lon="-3.94752">
        <ele>2204.1</ele>
        <time>2018-04-21T12:17:04.000Z</time>
      </trkpt>
      <trkpt lat="40.795266" lon="-3.94752">
        <ele>2204.1</ele>
        <time>2018-04-21T12:17:05.000Z</time>
      </trkpt>
      <trkpt lat="40.795266" lon="-3.94752">
        <ele>2204.1</ele>
        <time>2018-04-21T12:17:06.000Z</time>
      </trkpt>
      <trkpt lat="40.795266" lon="-3.94752">
        <ele>2204.1</ele>
        <time>2018-04-21T12:17:07.000Z</time>
      </trkpt>
      <trkpt lat="40.795266" lon="-3.94752">
        <ele>2204.1</ele>
        <time>2018-04-21T12:17:08.000Z</time>
      </trkpt>
      <trkpt lat="40.795266" lon="-3.94752">
        <ele>2204.1</ele>
        <time>2018-04-21T12:17:09.000Z</time>
      </trkpt>
      <trkpt lat="40.795266" lon="-3.94752">
        <ele>2204.1</ele>
        <time>2018-04-21T12:17:10.000Z</time>
      </trkpt>
      <trkpt lat="40.795266" lon="-3.94752">
        <ele>2204.1</ele>
        <time>2018-04-21T12:17:11.000Z</time>
      </trkpt>
      <trkpt lat="40.795266" lon="-3.94752">
        <ele>2204.1</ele>
        <time>2018-04-21T12:17:12.000Z</time>
      </trkpt>
      <trkpt lat="40.795266" lon="-3.94752">
        <ele>2204.1</ele>
        <time>2018-04-21T12:17:13.000Z</time>
      </trkpt>
      <trkpt lat="40.795266" lon="-3.94752">
        <ele>2204.1</ele>
        <time>2018-04-21T12:17:14.000Z</time>
      </trkpt>
      <trkpt lat="40.795266" lon="-3.94752">
        <ele>2204.1</ele>
        <time>2018-04-21T12:17:15.000Z</time>
      </trkpt>
      <trkpt lat="40.795266" lon="-3.94752">
        <ele>2204.1</ele>
        <time>2018-04-21T12:17:16.000Z</time>
      </trkpt>
      <trkpt lat="40.795266" lon="-3.94752">
        <ele>2204.1</ele>
        <time>2018-04-21T12:17:17.000Z</time>
      </trkpt>
      <trkpt lat="40.795266" lon="-3.94752">
        <ele>2204.1</ele>
        <time>2018-04-21T12:17:18.000Z</time>
      </trkpt>
      <trkpt lat="40.795266" lon="-3.94752">
        <ele>2204.1</ele>
        <time>2018-04-21T12:17:19.000Z</time>
      </trkpt>
      <trkpt lat="40.795266" lon="-3.94752">
        <ele>2204.1</ele>
        <time>2018-04-21T12:17:20.000Z</time>
      </trkpt>
      <trkpt lat="40.795266" lon="-3.94752">
        <ele>2204.1</ele>
        <time>2018-04-21T12:17:21.000Z</time>
      </trkpt>
      <trkpt lat="40.795266" lon="-3.94752">
        <ele>2204.1</ele>
        <time>2018-04-21T12:17:22.000Z</time>
      </trkpt>
      <trkpt lat="40.795266" lon="-3.94752">
        <ele>2204.1</ele>
        <time>2018-04-21T12:17:23.000Z</time>
      </trkpt>
      <trkpt lat="40.795266" lon="-3.94752">
        <ele>2204.1</ele>
        <time>2018-04-21T12:17:24.000Z</time>
      </trkpt>
      <trkpt lat="40.795266" lon="-3.94752">
        <ele>2204.1</ele>
        <time>2018-04-21T12:17:25.000Z</time>
      </trkpt>
      <trkpt lat="40.795266" lon="-3.94752">
        <ele>2204.1</ele>
        <time>2018-04-21T12:17:26.000Z</time>
      </trkpt>
      <trkpt lat="40.795266" lon="-3.94752">
        <ele>2204.1</ele>
        <time>2018-04-21T12:17:27.000Z</time>
      </trkpt>
      <trkpt lat="40.795266" lon="-3.947521">
        <ele>2204.1</ele>
        <time>2018-04-21T12:17:28.000Z</time>
      </trkpt>
      <trkpt lat="40.795266" lon="-3.947521">
        <ele>2204.1</ele>
        <time>2018-04-21T12:17:29.000Z</time>
      </trkpt>
      <trkpt lat="40.795266" lon="-3.947521">
        <ele>2204.1</ele>
        <time>2018-04-21T12:17:30.000Z</time>
      </trkpt>
      <trkpt lat="40.795266" lon="-3.947521">
        <ele>2204.1</ele>
        <time>2018-04-21T12:17:31.000Z</time>
      </trkpt>
      <trkpt lat="40.795266" lon="-3.947521">
        <ele>2204.1</ele>
        <time>2018-04-21T12:17:32.000Z</time>
      </trkpt>
      <trkpt lat="40.795266" lon="-3.947521">
        <ele>2204.1</ele>
        <time>2018-04-21T12:17:33.000Z</time>
      </trkpt>
      <trkpt lat="40.795266" lon="-3.947521">
        <ele>2204.1</ele>
        <time>2018-04-21T12:17:34.000Z</time>
      </trkpt>
      <trkpt lat="40.795266" lon="-3.947521">
        <ele>2204.1</ele>
        <time>2018-04-21T12:17:35.000Z</time>
      </trkpt>
      <trkpt lat="40.795266" lon="-3.947521">
        <ele>2204.1</ele>
        <time>2018-04-21T12:17:36.000Z</time>
      </trkpt>
      <trkpt lat="40.795266" lon="-3.947521">
        <ele>2204.1</ele>
        <time>2018-04-21T12:17:37.000Z</time>
      </trkpt>
      <trkpt lat="40.795266" lon="-3.947521">
        <ele>2204.1</ele>
        <time>2018-04-21T12:17:38.000Z</time>
      </trkpt>
      <trkpt lat="40.795266" lon="-3.947521">
        <ele>2204.1</ele>
        <time>2018-04-21T12:17:39.000Z</time>
      </trkpt>
      <trkpt lat="40.795266" lon="-3.947521">
        <ele>2204.1</ele>
        <time>2018-04-21T12:17:40.000Z</time>
      </trkpt>
      <trkpt lat="40.795266" lon="-3.947521">
        <ele>2204.1</ele>
        <time>2018-04-21T12:17:41.000Z</time>
      </trkpt>
      <trkpt lat="40.795266" lon="-3.947521">
        <ele>2204.1</ele>
        <time>2018-04-21T12:17:42.000Z</time>
      </trkpt>
      <trkpt lat="40.795266" lon="-3.947521">
        <ele>2204.1</ele>
        <time>2018-04-21T12:17:43.000Z</time>
      </trkpt>
      <trkpt lat="40.795266" lon="-3.947521">
        <ele>2204.1</ele>
        <time>2018-04-21T12:17:44.000Z</time>
      </trkpt>
      <trkpt lat="40.795266" lon="-3.947521">
        <ele>2204.1</ele>
        <time>2018-04-21T12:17:45.000Z</time>
      </trkpt>
      <trkpt lat="40.795266" lon="-3.947521">
        <ele>2204.1</ele>
        <time>2018-04-21T12:17:46.000Z</time>
      </trkpt>
      <trkpt lat="40.795266" lon="-3.947521">
        <ele>2204.1</ele>
        <time>2018-04-21T12:17:47.000Z</time>
      </trkpt>
      <trkpt lat="40.795266" lon="-3.947521">
        <ele>2204.1</ele>
        <time>2018-04-21T12:17:48.000Z</time>
      </trkpt>
      <trkpt lat="40.795266" lon="-3.947521">
        <ele>2204.1</ele>
        <time>2018-04-21T12:17:49.000Z</time>
      </trkpt>
      <trkpt lat="40.795266" lon="-3.947521">
        <ele>2204.1</ele>
        <time>2018-04-21T12:17:50.000Z</time>
      </trkpt>
      <trkpt lat="40.795266" lon="-3.947521">
        <ele>2204.1</ele>
        <time>2018-04-21T12:17:51.000Z</time>
      </trkpt>
      <trkpt lat="40.795266" lon="-3.947521">
        <ele>2204.1</ele>
        <time>2018-04-21T12:17:52.000Z</time>
      </trkpt>
      <trkpt lat="40.795266" lon="-3.947521">
        <ele>2204.1</ele>
        <time>2018-04-21T12:17:53.000Z</time>
      </trkpt>
      <trkpt lat="40.795266" lon="-3.94752">
        <ele>2204.1</ele>
        <time>2018-04-21T12:17:54.000Z</time>
      </trkpt>
      <trkpt lat="40.795266" lon="-3.94752">
        <ele>2204.1</ele>
        <time>2018-04-21T12:17:55.000Z</time>
      </trkpt>
      <trkpt lat="40.795266" lon="-3.94752">
        <ele>2204.1</ele>
        <time>2018-04-21T12:17:56.000Z</time>
      </trkpt>
      <trkpt lat="40.795266" lon="-3.94752">
        <ele>2204.1</ele>
        <time>2018-04-21T12:17:57.000Z</time>
      </trkpt>
      <trkpt lat="40.795266" lon="-3.94752">
        <ele>2204.1</ele>
        <time>2018-04-21T12:17:58.000Z</time>
      </trkpt>
      <trkpt lat="40.795266" lon="-3.94752">
        <ele>2204.1</ele>
        <time>2018-04-21T12:17:59.000Z</time>
      </trkpt>
      <trkpt lat="40.795266" lon="-3.94752">
        <ele>2204.1</ele>
        <time>2018-04-21T12:18:00.000Z</time>
      </trkpt>
      <trkpt lat="40.795266" lon="-3.94752">
        <ele>2204.1</ele>
        <time>2018-04-21T12:18:01.000Z</time>
      </trkpt>
      <trkpt lat="40.795266" lon="-3.94752">
        <ele>2204.1</ele>
        <time>2018-04-21T12:18:02.000Z</time>
      </trkpt>
      <trkpt lat="40.795266" lon="-3.94752">
        <ele>2204.1</ele>
        <time>2018-04-21T12:18:03.000Z</time>
      </trkpt>
      <trkpt lat="40.795266" lon="-3.94752">
        <ele>2204.1</ele>
        <time>2018-04-21T12:18:04.000Z</time>
      </trkpt>
      <trkpt lat="40.795266" lon="-3.94752">
        <ele>2204.1</ele>
        <time>2018-04-21T12:18:05.000Z</time>
      </trkpt>
      <trkpt lat="40.795266" lon="-3.94752">
        <ele>2204.1</ele>
        <time>2018-04-21T12:18:06.000Z</time>
      </trkpt>
      <trkpt lat="40.795266" lon="-3.94752">
        <ele>2204.1</ele>
        <time>2018-04-21T12:18:07.000Z</time>
      </trkpt>
      <trkpt lat="40.795265" lon="-3.94752">
        <ele>2204.2</ele>
        <time>2018-04-21T12:18:08.000Z</time>
      </trkpt>
      <trkpt lat="40.795265" lon="-3.94752">
        <ele>2204.2</ele>
        <time>2018-04-21T12:18:09.000Z</time>
      </trkpt>
      <trkpt lat="40.795265" lon="-3.94752">
        <ele>2204.2</ele>
        <time>2018-04-21T12:18:10.000Z</time>
      </trkpt>
      <trkpt lat="40.795265" lon="-3.94752">
        <ele>2204.2</ele>
        <time>2018-04-21T12:18:11.000Z</time>
      </trkpt>
      <trkpt lat="40.795265" lon="-3.94752">
        <ele>2204.2</ele>
        <time>2018-04-21T12:18:12.000Z</time>
      </trkpt>
      <trkpt lat="40.795265" lon="-3.94752">
        <ele>2204.2</ele>
        <time>2018-04-21T12:18:13.000Z</time>
      </trkpt>
      <trkpt lat="40.795266" lon="-3.94752">
        <ele>2204.1</ele>
        <time>2018-04-21T12:18:14.000Z</time>
      </trkpt>
      <trkpt lat="40.795266" lon="-3.94752">
        <ele>2204.1</ele>
        <time>2018-04-21T12:18:15.000Z</time>
      </trkpt>
      <trkpt lat="40.795267" lon="-3.94752">
        <ele>2204.1</ele>
        <time>2018-04-21T12:18:16.000Z</time>
      </trkpt>
      <trkpt lat="40.795268" lon="-3.947519">
        <ele>2204.1</ele>
        <time>2018-04-21T12:18:17.000Z</time>
      </trkpt>
      <trkpt lat="40.795269" lon="-3.947519">
        <ele>2204.1</ele>
        <time>2018-04-21T12:18:18.000Z</time>
      </trkpt>
      <trkpt lat="40.79527" lon="-3.947519">
        <ele>2204.1</ele>
        <time>2018-04-21T12:18:19.000Z</time>
      </trkpt>
      <trkpt lat="40.79527" lon="-3.947519">
        <ele>2204.1</ele>
        <time>2018-04-21T12:18:20.000Z</time>
      </trkpt>
      <trkpt lat="40.795269" lon="-3.947519">
        <ele>2204.1</ele>
        <time>2018-04-21T12:18:21.000Z</time>
      </trkpt>
      <trkpt lat="40.795266" lon="-3.94752">
        <ele>2204.1</ele>
        <time>2018-04-21T12:18:22.000Z</time>
      </trkpt>
      <trkpt lat="40.795262" lon="-3.947522">
        <ele>2204.2</ele>
        <time>2018-04-21T12:18:23.000Z</time>
      </trkpt>
      <trkpt lat="40.795255" lon="-3.947524">
        <ele>2204.2</ele>
        <time>2018-04-21T12:18:24.000Z</time>
      </trkpt>
      <trkpt lat="40.795248" lon="-3.947526">
        <ele>2204.3</ele>
        <time>2018-04-21T12:18:25.000Z</time>
      </trkpt>
      <trkpt lat="40.795239" lon="-3.947529">
        <ele>2204.4</ele>
        <time>2018-04-21T12:18:26.000Z</time>
      </trkpt>
      <trkpt lat="40.79523" lon="-3.947531">
        <ele>2204.5</ele>
        <time>2018-04-21T12:18:27.000Z</time>
      </trkpt>
      <trkpt lat="40.795222" lon="-3.947532">
        <ele>2204.5</ele>
        <time>2018-04-21T12:18:28.000Z</time>
      </trkpt>
      <trkpt lat="40.795214" lon="-3.947534">
        <ele>2204.6</ele>
        <time>2018-04-21T12:18:29.000Z</time>
      </trkpt>
      <trkpt lat="40.795207" lon="-3.947536">
        <ele>2204.7</ele>
        <time>2018-04-21T12:18:30.000Z</time>
      </trkpt>
      <trkpt lat="40.7952" lon="-3.94754">
        <ele>2204.7</ele>
        <time>2018-04-21T12:18:31.000Z</time>
      </trkpt>
      <trkpt lat="40.795193" lon="-3.947547">
        <ele>2204.7</ele>
        <time>2018-04-21T12:18:32.000Z</time>
      </trkpt>
      <trkpt lat="40.795186" lon="-3.947556">
        <ele>2204.7</ele>
        <time>2018-04-21T12:18:33.000Z</time>
      </trkpt>
      <trkpt lat="40.795179" lon="-3.947565">
        <ele>2204.6</ele>
        <time>2018-04-21T12:18:34.000Z</time>
      </trkpt>
      <trkpt lat="40.795172" lon="-3.947574">
        <ele>2204.6</ele>
        <time>2018-04-21T12:18:35.000Z</time>
      </trkpt>
      <trkpt lat="40.795164" lon="-3.947581">
        <ele>2204.6</ele>
        <time>2018-04-21T12:18:36.000Z</time>
      </trkpt>
      <trkpt lat="40.795157" lon="-3.947588">
        <ele>2204.6</ele>
        <time>2018-04-21T12:18:37.000Z</time>
      </trkpt>
      <trkpt lat="40.795149" lon="-3.947595">
        <ele>2204.6</ele>
        <time>2018-04-21T12:18:38.000Z</time>
      </trkpt>
      <trkpt lat="40.795141" lon="-3.947602">
        <ele>2204.6</ele>
        <time>2018-04-21T12:18:39.000Z</time>
      </trkpt>
      <trkpt lat="40.795135" lon="-3.947609">
        <ele>2204.6</ele>
        <time>2018-04-21T12:18:40.000Z</time>
      </trkpt>
      <trkpt lat="40.795128" lon="-3.947617">
        <ele>2204.6</ele>
        <time>2018-04-21T12:18:41.000Z</time>
      </trkpt>
      <trkpt lat="40.795122" lon="-3.947626">
        <ele>2204.5</ele>
        <time>2018-04-21T12:18:42.000Z</time>
      </trkpt>
      <trkpt lat="40.795116" lon="-3.947634">
        <ele>2204.5</ele>
        <time>2018-04-21T12:18:43.000Z</time>
      </trkpt>
      <trkpt lat="40.795111" lon="-3.947644">
        <ele>2204.4</ele>
        <time>2018-04-21T12:18:44.000Z</time>
      </trkpt>
      <trkpt lat="40.795107" lon="-3.947653">
        <ele>2204.3</ele>
        <time>2018-04-21T12:18:45.000Z</time>
      </trkpt>
      <trkpt lat="40.795102" lon="-3.947663">
        <ele>2204.3</ele>
        <time>2018-04-21T12:18:46.000Z</time>
      </trkpt>
      <trkpt lat="40.795098" lon="-3.947673">
        <ele>2204.2</ele>
        <time>2018-04-21T12:18:47.000Z</time>
      </trkpt>
      <trkpt lat="40.795095" lon="-3.947683">
        <ele>2204.1</ele>
        <time>2018-04-21T12:18:48.000Z</time>
      </trkpt>
      <trkpt lat="40.795092" lon="-3.947693">
        <ele>2204.0</ele>
        <time>2018-04-21T12:18:49.000Z</time>
      </trkpt>
      <trkpt lat="40.79509" lon="-3.947703">
        <ele>2203.9</ele>
        <time>2018-04-21T12:18:50.000Z</time>
      </trkpt>
      <trkpt lat="40.795088" lon="-3.947714">
        <ele>2203.7</ele>
        <time>2018-04-21T12:18:51.000Z</time>
      </trkpt>
      <trkpt lat="40.795086" lon="-3.947724">
        <ele>2203.6</ele>
        <time>2018-04-21T12:18:52.000Z</time>
      </trkpt>
      <trkpt lat="40.795086" lon="-3.947734">
        <ele>2203.5</ele>
        <time>2018-04-21T12:18:53.000Z</time>
      </trkpt>
      <trkpt lat="40.795085" lon="-3.947744">
        <ele>2203.4</ele>
        <time>2018-04-21T12:18:54.000Z</time>
      </trkpt>
      <trkpt lat="40.795086" lon="-3.947754">
        <ele>2203.2</ele>
        <time>2018-04-21T12:18:55.000Z</time>
      </trkpt>
      <trkpt lat="40.795086" lon="-3.947763">
        <ele>2203.1</ele>
        <time>2018-04-21T12:18:56.000Z</time>
      </trkpt>
      <trkpt lat="40.795086" lon="-3.947773">
        <ele>2202.9</ele>
        <time>2018-04-21T12:18:57.000Z</time>
      </trkpt>
      <trkpt lat="40.795086" lon="-3.947782">
        <ele>2202.8</ele>
        <time>2018-04-21T12:18:58.000Z</time>
      </trkpt>
      <trkpt lat="40.795086" lon="-3.947791">
        <ele>2202.7</ele>
        <time>2018-04-21T12:18:59.000Z</time>
      </trkpt>
      <trkpt lat="40.795084" lon="-3.9478">
        <ele>2202.6</ele>
        <time>2018-04-21T12:19:00.000Z</time>
      </trkpt>
      <trkpt lat="40.795082" lon="-3.947808">
        <ele>2202.5</ele>
        <time>2018-04-21T12:19:01.000Z</time>
      </trkpt>
      <trkpt lat="40.795079" lon="-3.947816">
        <ele>2202.4</ele>
        <time>2018-04-21T12:19:02.000Z</time>
      </trkpt>
      <trkpt lat="40.795075" lon="-3.947823">
        <ele>2202.4</ele>
        <time>2018-04-21T12:19:03.000Z</time>
      </trkpt>
      <trkpt lat="40.79507" lon="-3.94783">
        <ele>2202.4</ele>
        <time>2018-04-21T12:19:04.000Z</time>
      </trkpt>
      <trkpt lat="40.795065" lon="-3.947836">
        <ele>2202.4</ele>
        <time>2018-04-21T12:19:05.000Z</time>
      </trkpt>
      <trkpt lat="40.79506" lon="-3.947842">
        <ele>2202.4</ele>
        <time>2018-04-21T12:19:06.000Z</time>
      </trkpt>
      <trkpt lat="40.795056" lon="-3.947847">
        <ele>2202.4</ele>
        <time>2018-04-21T12:19:07.000Z</time>
      </trkpt>
      <trkpt lat="40.795052" lon="-3.947852">
        <ele>2202.4</ele>
        <time>2018-04-21T12:19:08.000Z</time>
      </trkpt>
      <trkpt lat="40.795049" lon="-3.947855">
        <ele>2202.4</ele>
        <time>2018-04-21T12:19:09.000Z</time>
      </trkpt>
      <trkpt lat="40.795047" lon="-3.947859">
        <ele>2202.4</ele>
        <time>2018-04-21T12:19:10.000Z</time>
      </trkpt>
      <trkpt lat="40.795045" lon="-3.947862">
        <ele>2202.4</ele>
        <time>2018-04-21T12:19:11.000Z</time>
      </trkpt>
      <trkpt lat="40.795045" lon="-3.947865">
        <ele>2202.4</ele>
        <time>2018-04-21T12:19:12.000Z</time>
      </trkpt>
      <trkpt lat="40.795044" lon="-3.947869">
        <ele>2202.3</ele>
        <time>2018-04-21T12:19:13.000Z</time>
      </trkpt>
      <trkpt lat="40.795045" lon="-3.947873">
        <ele>2202.2</ele>
        <time>2018-04-21T12:19:14.000Z</time>
      </trkpt>
      <trkpt lat="40.795045" lon="-3.947878">
        <ele>2202.2</ele>
        <time>2018-04-21T12:19:15.000Z</time>
      </trkpt>
      <trkpt lat="40.795046" lon="-3.947884">
        <ele>2202.1</ele>
        <time>2018-04-21T12:19:16.000Z</time>
      </trkpt>
      <trkpt lat="40.795047" lon="-3.947891">
        <ele>2202.0</ele>
        <time>2018-04-21T12:19:17.000Z</time>
      </trkpt>
      <trkpt lat="40.795047" lon="-3.947899">
        <ele>2201.8</ele>
        <time>2018-04-21T12:19:18.000Z</time>
      </trkpt>
      <trkpt lat="40.795048" lon="-3.947908">
        <ele>2201.7</ele>
        <time>2018-04-21T12:19:19.000Z</time>
      </trkpt>
      <trkpt lat="40.795048" lon="-3.947917">
        <ele>2201.6</ele>
        <time>2018-04-21T12:19:20.000Z</time>
      </trkpt>
      <trkpt lat="40.795047" lon="-3.947926">
        <ele>2201.5</ele>
        <time>2018-04-21T12:19:21.000Z</time>
      </trkpt>
      <trkpt lat="40.795045" lon="-3.947935">
        <ele>2201.4</ele>
        <time>2018-04-21T12:19:22.000Z</time>
      </trkpt>
      <trkpt lat="40.795042" lon="-3.947944">
        <ele>2201.3</ele>
        <time>2018-04-21T12:19:23.000Z</time>
      </trkpt>
      <trkpt lat="40.795039" lon="-3.947953">
        <ele>2201.3</ele>
        <time>2018-04-21T12:19:24.000Z</time>
      </trkpt>
      <trkpt lat="40.795034" lon="-3.947963">
        <ele>2201.2</ele>
        <time>2018-04-21T12:19:25.000Z</time>
      </trkpt>
      <trkpt lat="40.795029" lon="-3.947972">
        <ele>2201.2</ele>
        <time>2018-04-21T12:19:26.000Z</time>
      </trkpt>
      <trkpt lat="40.795023" lon="-3.947981">
        <ele>2201.2</ele>
        <time>2018-04-21T12:19:27.000Z</time>
      </trkpt>
      <trkpt lat="40.795017" lon="-3.947991">
        <ele>2201.2</ele>
        <time>2018-04-21T12:19:28.000Z</time>
      </trkpt>
      <trkpt lat="40.79501" lon="-3.948001">
        <ele>2201.2</ele>
        <time>2018-04-21T12:19:29.000Z</time>
      </trkpt>
      <trkpt lat="40.795003" lon="-3.948011">
        <ele>2201.2</ele>
        <time>2018-04-21T12:19:30.000Z</time>
      </trkpt>
      <trkpt lat="40.794996" lon="-3.948022">
        <ele>2201.0</ele>
        <time>2018-04-21T12:19:31.000Z</time>
      </trkpt>
      <trkpt lat="40.794989" lon="-3.948033">
        <ele>2200.7</ele>
        <time>2018-04-21T12:19:32.000Z</time>
      </trkpt>
      <trkpt lat="40.794982" lon="-3.948045">
        <ele>2200.4</ele>
        <time>2018-04-21T12:19:33.000Z</time>
      </trkpt>
      <trkpt lat="40.794975" lon="-3.948057">
        <ele>2200.1</ele>
        <time>2018-04-21T12:19:34.000Z</time>
      </trkpt>
      <trkpt lat="40.794968" lon="-3.948069">
        <ele>2199.8</ele>
        <time>2018-04-21T12:19:35.000Z</time>
      </trkpt>
      <trkpt lat="40.794962" lon="-3.948082">
        <ele>2199.5</ele>
        <time>2018-04-21T12:19:36.000Z</time>
      </trkpt>
      <trkpt lat="40.794956" lon="-3.948094">
        <ele>2199.2</ele>
        <time>2018-04-21T12:19:37.000Z</time>
      </trkpt>
      <trkpt lat="40.79495" lon="-3.948107">
        <ele>2198.9</ele>
        <time>2018-04-21T12:19:38.000Z</time>
      </trkpt>
      <trkpt lat="40.794945" lon="-3.948119">
        <ele>2198.7</ele>
        <time>2018-04-21T12:19:39.000Z</time>
      </trkpt>
      <trkpt lat="40.794941" lon="-3.948132">
        <ele>2198.4</ele>
        <time>2018-04-21T12:19:40.000Z</time>
      </trkpt>
      <trkpt lat="40.794936" lon="-3.948144">
        <ele>2198.1</ele>
        <time>2018-04-21T12:19:41.000Z</time>
      </trkpt>
      <trkpt lat="40.794932" lon="-3.948156">
        <ele>2197.9</ele>
        <time>2018-04-21T12:19:42.000Z</time>
      </trkpt>
      <trkpt lat="40.794928" lon="-3.948167">
        <ele>2197.7</ele>
        <time>2018-04-21T12:19:43.000Z</time>
      </trkpt>
      <trkpt lat="40.794923" lon="-3.948178">
        <ele>2197.5</ele>
        <time>2018-04-21T12:19:44.000Z</time>
      </trkpt>
      <trkpt lat="40.794918" lon="-3.948188">
        <ele>2197.2</ele>
        <time>2018-04-21T12:19:45.000Z</time>
      </trkpt>
      <trkpt lat="40.794913" lon="-3.948197">
        <ele>2197.0</ele>
        <time>2018-04-21T12:19:46.000Z</time>
      </trkpt>
      <trkpt lat="40.794908" lon="-3.948206">
        <ele>2196.8</ele>
        <time>2018-04-21T12:19:47.000Z</time>
      </trkpt>
      <trkpt lat="40.794903" lon="-3.948215">
        <ele>2196.6</ele>
        <time>2018-04-21T12:19:48.000Z</time>
      </trkpt>
      <trkpt lat="40.794899" lon="-3.948223">
        <ele>2196.4</ele>
        <time>2018-04-21T12:19:49.000Z</time>
      </trkpt>
      <trkpt lat="40.794895" lon="-3.948231">
        <ele>2196.2</ele>
        <time>2018-04-21T12:19:50.000Z</time>
      </trkpt>
      <trkpt lat="40.794892" lon="-3.94824">
        <ele>2196.1</ele>
        <time>2018-04-21T12:19:51.000Z</time>
      </trkpt>
      <trkpt lat="40.794891" lon="-3.948249">
        <ele>2195.9</ele>
        <time>2018-04-21T12:19:52.000Z</time>
      </trkpt>
      <trkpt lat="40.794892" lon="-3.948259">
        <ele>2195.8</ele>
        <time>2018-04-21T12:19:53.000Z</time>
      </trkpt>
      <trkpt lat="40.794893" lon="-3.94827">
        <ele>2195.7</ele>
        <time>2018-04-21T12:19:54.000Z</time>
      </trkpt>
      <trkpt lat="40.794894" lon="-3.948281">
        <ele>2195.6</ele>
        <time>2018-04-21T12:19:55.000Z</time>
      </trkpt>
      <trkpt lat="40.794894" lon="-3.948291">
        <ele>2195.5</ele>
        <time>2018-04-21T12:19:56.000Z</time>
      </trkpt>
      <trkpt lat="40.794893" lon="-3.948302">
        <ele>2195.3</ele>
        <time>2018-04-21T12:19:57.000Z</time>
      </trkpt>
      <trkpt lat="40.79489" lon="-3.948313">
        <ele>2195.1</ele>
        <time>2018-04-21T12:19:58.000Z</time>
      </trkpt>
      <trkpt lat="40.794887" lon="-3.948324">
        <ele>2194.9</ele>
        <time>2018-04-21T12:19:59.000Z</time>
      </trkpt>
      <trkpt lat="40.794885" lon="-3.948336">
        <ele>2194.7</ele>
        <time>2018-04-21T12:20:00.000Z</time>
      </trkpt>
      <trkpt lat="40.794883" lon="-3.948348">
        <ele>2194.5</ele>
        <time>2018-04-21T12:20:01.000Z</time>
      </trkpt>
      <trkpt lat="40.794883" lon="-3.948361">
        <ele>2194.3</ele>
        <time>2018-04-21T12:20:02.000Z</time>
      </trkpt>
      <trkpt lat="40.794882" lon="-3.948373">
        <ele>2194.1</ele>
        <time>2018-04-21T12:20:03.000Z</time>
      </trkpt>
      <trkpt lat="40.794883" lon="-3.948386">
        <ele>2193.9</ele>
        <time>2018-04-21T12:20:04.000Z</time>
      </trkpt>
      <trkpt lat="40.794883" lon="-3.948399">
        <ele>2193.7</ele>
        <time>2018-04-21T12:20:05.000Z</time>
      </trkpt>
      <trkpt lat="40.794884" lon="-3.948411">
        <ele>2193.5</ele>
        <time>2018-04-21T12:20:06.000Z</time>
      </trkpt>
      <trkpt lat="40.794885" lon="-3.948424">
        <ele>2193.3</ele>
        <time>2018-04-21T12:20:07.000Z</time>
      </trkpt>
      <trkpt lat="40.794885" lon="-3.948436">
        <ele>2193.1</ele>
        <time>2018-04-21T12:20:08.000Z</time>
      </trkpt>
      <trkpt lat="40.794885" lon="-3.948447">
        <ele>2192.9</ele>
        <time>2018-04-21T12:20:09.000Z</time>
      </trkpt>
      <trkpt lat="40.794885" lon="-3.948458">
        <ele>2192.8</ele>
        <time>2018-04-21T12:20:10.000Z</time>
      </trkpt>
      <trkpt lat="40.794885" lon="-3.948469">
        <ele>2192.6</ele>
        <time>2018-04-21T12:20:11.000Z</time>
      </trkpt>
      <trkpt lat="40.794884" lon="-3.94848">
        <ele>2192.4</ele>
        <time>2018-04-21T12:20:12.000Z</time>
      </trkpt>
      <trkpt lat="40.794883" lon="-3.94849">
        <ele>2192.2</ele>
        <time>2018-04-21T12:20:13.000Z</time>
      </trkpt>
      <trkpt lat="40.794882" lon="-3.9485">
        <ele>2192.0</ele>
        <time>2018-04-21T12:20:14.000Z</time>
      </trkpt>
      <trkpt lat="40.79488" lon="-3.94851">
        <ele>2191.8</ele>
        <time>2018-04-21T12:20:15.000Z</time>
      </trkpt>
      <trkpt lat="40.794878" lon="-3.94852">
        <ele>2191.6</ele>
        <time>2018-04-21T12:20:16.000Z</time>
      </trkpt>
      <trkpt lat="40.794876" lon="-3.94853">
        <ele>2191.4</ele>
        <time>2018-04-21T12:20:17.000Z</time>
      </trkpt>
      <trkpt lat="40.794874" lon="-3.94854">
        <ele>2191.2</ele>
        <time>2018-04-21T12:20:18.000Z</time>
      </trkpt>
      <trkpt lat="40.794872" lon="-3.94855">
        <ele>2191.0</ele>
        <time>2018-04-21T12:20:19.000Z</time>
      </trkpt>
      <trkpt lat="40.794869" lon="-3.94856">
        <ele>2190.8</ele>
        <time>2018-04-21T12:20:20.000Z</time>
      </trkpt>
      <trkpt lat="40.794867" lon="-3.94857">
        <ele>2190.6</ele>
        <time>2018-04-21T12:20:21.000Z</time>
      </trkpt>
      <trkpt lat="40.794864" lon="-3.94858">
        <ele>2190.4</ele>
        <time>2018-04-21T12:20:22.000Z</time>
      </trkpt>
      <trkpt lat="40.794861" lon="-3.94859">
        <ele>2190.2</ele>
        <time>2018-04-21T12:20:23.000Z</time>
      </trkpt>
      <trkpt lat="40.794858" lon="-3.948601">
        <ele>2190.0</ele>
        <time>2018-04-21T12:20:24.000Z</time>
      </trkpt>
      <trkpt lat="40.794855" lon="-3.948611">
        <ele>2189.8</ele>
        <time>2018-04-21T12:20:25.000Z</time>
      </trkpt>
      <trkpt lat="40.794852" lon="-3.948622">
        <ele>2189.6</ele>
        <time>2018-04-21T12:20:26.000Z</time>
      </trkpt>
      <trkpt lat="40.79485" lon="-3.948633">
        <ele>2189.4</ele>
        <time>2018-04-21T12:20:27.000Z</time>
      </trkpt>
      <trkpt lat="40.794848" lon="-3.948644">
        <ele>2189.2</ele>
        <time>2018-04-21T12:20:28.000Z</time>
      </trkpt>
      <trkpt lat="40.794846" lon="-3.948655">
        <ele>2189.0</ele>
        <time>2018-04-21T12:20:29.000Z</time>
      </trkpt>
      <trkpt lat="40.794845" lon="-3.948667">
        <ele>2188.8</ele>
        <time>2018-04-21T12:20:30.000Z</time>
      </trkpt>
      <trkpt lat="40.794844" lon="-3.948678">
        <ele>2188.6</ele>
        <time>2018-04-21T12:20:31.000Z</time>
      </trkpt>
      <trkpt lat="40.794844" lon="-3.94869">
        <ele>2188.4</ele>
        <time>2018-04-21T12:20:32.000Z</time>
      </trkpt>
      <trkpt lat="40.794843" lon="-3.948702">
        <ele>2188.2</ele>
        <time>2018-04-21T12:20:33.000Z</time>
      </trkpt>
      <trkpt lat="40.794841" lon="-3.948713">
        <ele>2188.0</ele>
        <time>2018-04-21T12:20:34.000Z</time>
      </trkpt>
      <trkpt lat="40.794839" lon="-3.948725">
        <ele>2187.8</ele>
        <time>2018-04-21T12:20:35.000Z</time>
      </trkpt>
      <trkpt lat="40.794837" lon="-3.948737">
        <ele>2187.6</ele>
        <time>2018-04-21T12:20:36.000Z</time>
      </trkpt>
      <trkpt lat="40.794833" lon="-3.948749">
        <ele>2187.3</ele>
        <time>2018-04-21T12:20:37.000Z</time>
      </trkpt>
      <trkpt lat="40.794829" lon="-3.948761">
        <ele>2187.1</ele>
        <time>2018-04-21T12:20:38.000Z</time>
      </trkpt>
      <trkpt lat="40.794824" lon="-3.948772">
        <ele>2186.8</ele>
        <time>2018-04-21T12:20:39.000Z</time>
      </trkpt>
      <trkpt lat="40.79482" lon="-3.948785">
        <ele>2186.6</ele>
        <time>2018-04-21T12:20:40.000Z</time>
      </trkpt>
      <trkpt lat="40.794816" lon="-3.948797">
        <ele>2186.3</ele>
        <time>2018-04-21T12:20:41.000Z</time>
      </trkpt>
      <trkpt lat="40.794813" lon="-3.94881">
        <ele>2186.1</ele>
        <time>2018-04-21T12:20:42.000Z</time>
      </trkpt>
      <trkpt lat="40.794811" lon="-3.948824">
        <ele>2185.9</ele>
        <time>2018-04-21T12:20:43.000Z</time>
      </trkpt>
      <trkpt lat="40.79481" lon="-3.948838">
        <ele>2185.6</ele>
        <time>2018-04-21T12:20:44.000Z</time>
      </trkpt>
      <trkpt lat="40.79481" lon="-3.948852">
        <ele>2185.4</ele>
        <time>2018-04-21T12:20:45.000Z</time>
      </trkpt>
      <trkpt lat="40.794811" lon="-3.948867">
        <ele>2185.2</ele>
        <time>2018-04-21T12:20:46.000Z</time>
      </trkpt>
      <trkpt lat="40.794813" lon="-3.948881">
        <ele>2185.0</ele>
        <time>2018-04-21T12:20:47.000Z</time>
      </trkpt>
      <trkpt lat="40.794814" lon="-3.948894">
        <ele>2184.8</ele>
        <time>2018-04-21T12:20:48.000Z</time>
      </trkpt>
      <trkpt lat="40.794814" lon="-3.948906">
        <ele>2184.7</ele>
        <time>2018-04-21T12:20:49.000Z</time>
      </trkpt>
      <trkpt lat="40.794813" lon="-3.948916">
        <ele>2184.5</ele>
        <time>2018-04-21T12:20:50.000Z</time>
      </trkpt>
      <trkpt lat="40.794811" lon="-3.948924">
        <ele>2184.3</ele>
        <time>2018-04-21T12:20:51.000Z</time>
      </trkpt>
      <trkpt lat="40.794808" lon="-3.948931">
        <ele>2184.2</ele>
        <time>2018-04-21T12:20:52.000Z</time>
      </trkpt>
      <trkpt lat="40.794804" lon="-3.948937">
        <ele>2184.1</ele>
        <time>2018-04-21T12:20:53.000Z</time>
      </trkpt>
      <trkpt lat="40.7948" lon="-3.948943">
        <ele>2183.9</ele>
        <time>2018-04-21T12:20:54.000Z</time>
      </trkpt>
      <trkpt lat="40.794796" lon="-3.948949">
        <ele>2183.8</ele>
        <time>2018-04-21T12:20:55.000Z</time>
      </trkpt>
      <trkpt lat="40.794792" lon="-3.948956">
        <ele>2183.7</ele>
        <time>2018-04-21T12:20:56.000Z</time>
      </trkpt>
      <trkpt lat="40.794789" lon="-3.948964">
        <ele>2183.5</ele>
        <time>2018-04-21T12:20:57.000Z</time>
      </trkpt>
      <trkpt lat="40.794787" lon="-3.948974">
        <ele>2183.3</ele>
        <time>2018-04-21T12:20:58.000Z</time>
      </trkpt>
      <trkpt lat="40.794786" lon="-3.948986">
        <ele>2183.2</ele>
        <time>2018-04-21T12:20:59.000Z</time>
      </trkpt>
      <trkpt lat="40.794787" lon="-3.948999">
        <ele>2183.0</ele>
        <time>2018-04-21T12:21:00.000Z</time>
      </trkpt>
      <trkpt lat="40.794788" lon="-3.949015">
        <ele>2182.7</ele>
        <time>2018-04-21T12:21:01.000Z</time>
      </trkpt>
      <trkpt lat="40.794789" lon="-3.94903">
        <ele>2182.5</ele>
        <time>2018-04-21T12:21:02.000Z</time>
      </trkpt>
      <trkpt lat="40.79479" lon="-3.949046">
        <ele>2182.3</ele>
        <time>2018-04-21T12:21:03.000Z</time>
      </trkpt>
      <trkpt lat="40.794789" lon="-3.949062">
        <ele>2182.0</ele>
        <time>2018-04-21T12:21:04.000Z</time>
      </trkpt>
      <trkpt lat="40.794787" lon="-3.949077">
        <ele>2181.8</ele>
        <time>2018-04-21T12:21:05.000Z</time>
      </trkpt>
      <trkpt lat="40.794783" lon="-3.94909">
        <ele>2181.6</ele>
        <time>2018-04-21T12:21:06.000Z</time>
      </trkpt>
      <trkpt lat="40.794777" lon="-3.949102">
        <ele>2181.4</ele>
        <time>2018-04-21T12:21:07.000Z</time>
      </trkpt>
      <trkpt lat="40.794769" lon="-3.949113">
        <ele>2181.1</ele>
        <time>2018-04-21T12:21:08.000Z</time>
      </trkpt>
      <trkpt lat="40.794761" lon="-3.949124">
        <ele>2180.9</ele>
        <time>2018-04-21T12:21:09.000Z</time>
      </trkpt>
      <trkpt lat="40.794753" lon="-3.949134">
        <ele>2180.7</ele>
        <time>2018-04-21T12:21:10.000Z</time>
      </trkpt>
      <trkpt lat="40.794745" lon="-3.949144">
        <ele>2180.5</ele>
        <time>2018-04-21T12:21:11.000Z</time>
      </trkpt>
      <trkpt lat="40.794738" lon="-3.949154">
        <ele>2180.3</ele>
        <time>2018-04-21T12:21:12.000Z</time>
      </trkpt>
      <trkpt lat="40.794731" lon="-3.949165">
        <ele>2180.1</ele>
        <time>2018-04-21T12:21:13.000Z</time>
      </trkpt>
      <trkpt lat="40.794726" lon="-3.949176">
        <ele>2179.9</ele>
        <time>2018-04-21T12:21:14.000Z</time>
      </trkpt>
      <trkpt lat="40.794721" lon="-3.949187">
        <ele>2179.8</ele>
        <time>2018-04-21T12:21:15.000Z</time>
      </trkpt>
      <trkpt lat="40.794718" lon="-3.949199">
        <ele>2179.6</ele>
        <time>2018-04-21T12:21:16.000Z</time>
      </trkpt>
      <trkpt lat="40.794715" lon="-3.949211">
        <ele>2179.5</ele>
        <time>2018-04-21T12:21:17.000Z</time>
      </trkpt>
      <trkpt lat="40.794712" lon="-3.949224">
        <ele>2179.4</ele>
        <time>2018-04-21T12:21:18.000Z</time>
      </trkpt>
      <trkpt lat="40.794711" lon="-3.949237">
        <ele>2179.2</ele>
        <time>2018-04-21T12:21:19.000Z</time>
      </trkpt>
      <trkpt lat="40.794709" lon="-3.949251">
        <ele>2179.1</ele>
        <time>2018-04-21T12:21:20.000Z</time>
      </trkpt>
      <trkpt lat="40.794708" lon="-3.949265">
        <ele>2178.9</ele>
        <time>2018-04-21T12:21:21.000Z</time>
      </trkpt>
      <trkpt lat="40.794707" lon="-3.949279">
        <ele>2178.8</ele>
        <time>2018-04-21T12:21:22.000Z</time>
      </trkpt>
      <trkpt lat="40.794705" lon="-3.949292">
        <ele>2178.6</ele>
        <time>2018-04-21T12:21:23.000Z</time>
      </trkpt>
      <trkpt lat="40.794704" lon="-3.949304">
        <ele>2178.5</ele>
        <time>2018-04-21T12:21:24.000Z</time>
      </trkpt>
      <trkpt lat="40.794701" lon="-3.949315">
        <ele>2178.4</ele>
        <time>2018-04-21T12:21:25.000Z</time>
      </trkpt>
      <trkpt lat="40.794697" lon="-3.949325">
        <ele>2178.3</ele>
        <time>2018-04-21T12:21:26.000Z</time>
      </trkpt>
      <trkpt lat="40.794692" lon="-3.949332">
        <ele>2178.2</ele>
        <time>2018-04-21T12:21:27.000Z</time>
      </trkpt>
      <trkpt lat="40.794686" lon="-3.949337">
        <ele>2178.1</ele>
        <time>2018-04-21T12:21:28.000Z</time>
      </trkpt>
      <trkpt lat="40.79468" lon="-3.949343">
        <ele>2178.0</ele>
        <time>2018-04-21T12:21:29.000Z</time>
      </trkpt>
      <trkpt lat="40.794675" lon="-3.949349">
        <ele>2177.9</ele>
        <time>2018-04-21T12:21:30.000Z</time>
      </trkpt>
      <trkpt lat="40.794673" lon="-3.949359">
        <ele>2177.8</ele>
        <time>2018-04-21T12:21:31.000Z</time>
      </trkpt>
      <trkpt lat="40.794675" lon="-3.949373">
        <ele>2177.7</ele>
        <time>2018-04-21T12:21:32.000Z</time>
      </trkpt>
      <trkpt lat="40.79468" lon="-3.949391">
        <ele>2177.5</ele>
        <time>2018-04-21T12:21:33.000Z</time>
      </trkpt>
      <trkpt lat="40.794684" lon="-3.949408">
        <ele>2177.4</ele>
        <time>2018-04-21T12:21:34.000Z</time>
      </trkpt>
      <trkpt lat="40.794685" lon="-3.949424">
        <ele>2177.2</ele>
        <time>2018-04-21T12:21:35.000Z</time>
      </trkpt>
      <trkpt lat="40.794685" lon="-3.949437">
        <ele>2177.1</ele>
        <time>2018-04-21T12:21:36.000Z</time>
      </trkpt>
      <trkpt lat="40.794682" lon="-3.949449">
        <ele>2177.0</ele>
        <time>2018-04-21T12:21:37.000Z</time>
      </trkpt>
      <trkpt lat="40.794678" lon="-3.94946">
        <ele>2176.8</ele>
        <time>2018-04-21T12:21:38.000Z</time>
      </trkpt>
      <trkpt lat="40.794673" lon="-3.949469">
        <ele>2176.7</ele>
        <time>2018-04-21T12:21:39.000Z</time>
      </trkpt>
      <trkpt lat="40.794667" lon="-3.949477">
        <ele>2176.6</ele>
        <time>2018-04-21T12:21:40.000Z</time>
      </trkpt>
      <trkpt lat="40.79466" lon="-3.949485">
        <ele>2176.5</ele>
        <time>2018-04-21T12:21:41.000Z</time>
      </trkpt>
      <trkpt lat="40.794654" lon="-3.949493">
        <ele>2176.4</ele>
        <time>2018-04-21T12:21:42.000Z</time>
      </trkpt>
      <trkpt lat="40.794649" lon="-3.9495">
        <ele>2176.3</ele>
        <time>2018-04-21T12:21:43.000Z</time>
      </trkpt>
      <trkpt lat="40.794644" lon="-3.949508">
        <ele>2176.2</ele>
        <time>2018-04-21T12:21:44.000Z</time>
      </trkpt>
      <trkpt lat="40.794639" lon="-3.949516">
        <ele>2176.1</ele>
        <time>2018-04-21T12:21:45.000Z</time>
      </trkpt>
      <trkpt lat="40.794635" lon="-3.949524">
        <ele>2176.0</ele>
        <time>2018-04-21T12:21:46.000Z</time>
      </trkpt>
      <trkpt lat="40.794632" lon="-3.949532">
        <ele>2175.9</ele>
        <time>2018-04-21T12:21:47.000Z</time>
      </trkpt>
      <trkpt lat="40.794629" lon="-3.94954">
        <ele>2175.8</ele>
        <time>2018-04-21T12:21:48.000Z</time>
      </trkpt>
      <trkpt lat="40.794627" lon="-3.949548">
        <ele>2175.8</ele>
        <time>2018-04-21T12:21:49.000Z</time>
      </trkpt>
      <trkpt lat="40.794625" lon="-3.949557">
        <ele>2175.7</ele>
        <time>2018-04-21T12:21:50.000Z</time>
      </trkpt>
      <trkpt lat="40.794624" lon="-3.949566">
        <ele>2175.6</ele>
        <time>2018-04-21T12:21:51.000Z</time>
      </trkpt>
      <trkpt lat="40.794623" lon="-3.949575">
        <ele>2175.5</ele>
        <time>2018-04-21T12:21:52.000Z</time>
      </trkpt>
      <trkpt lat="40.794622" lon="-3.949584">
        <ele>2175.4</ele>
        <time>2018-04-21T12:21:53.000Z</time>
      </trkpt>
      <trkpt lat="40.794622" lon="-3.949593">
        <ele>2175.3</ele>
        <time>2018-04-21T12:21:54.000Z</time>
      </trkpt>
      <trkpt lat="40.794622" lon="-3.949603">
        <ele>2175.2</ele>
        <time>2018-04-21T12:21:55.000Z</time>
      </trkpt>
      <trkpt lat="40.794622" lon="-3.949613">
        <ele>2175.1</ele>
        <time>2018-04-21T12:21:56.000Z</time>
      </trkpt>
      <trkpt lat="40.794622" lon="-3.949623">
        <ele>2175.0</ele>
        <time>2018-04-21T12:21:57.000Z</time>
      </trkpt>
      <trkpt lat="40.794623" lon="-3.949633">
        <ele>2175.0</ele>
        <time>2018-04-21T12:21:58.000Z</time>
      </trkpt>
      <trkpt lat="40.794623" lon="-3.949644">
        <ele>2174.9</ele>
        <time>2018-04-21T12:21:59.000Z</time>
      </trkpt>
      <trkpt lat="40.794623" lon="-3.949654">
        <ele>2174.8</ele>
        <time>2018-04-21T12:22:00.000Z</time>
      </trkpt>
      <trkpt lat="40.794623" lon="-3.949665">
        <ele>2174.7</ele>
        <time>2018-04-21T12:22:01.000Z</time>
      </trkpt>
      <trkpt lat="40.794623" lon="-3.949676">
        <ele>2174.6</ele>
        <time>2018-04-21T12:22:02.000Z</time>
      </trkpt>
      <trkpt lat="40.794622" lon="-3.949688">
        <ele>2174.4</ele>
        <time>2018-04-21T12:22:03.000Z</time>
      </trkpt>
      <trkpt lat="40.794621" lon="-3.949699">
        <ele>2174.3</ele>
        <time>2018-04-21T12:22:04.000Z</time>
      </trkpt>
      <trkpt lat="40.79462" lon="-3.949711">
        <ele>2174.2</ele>
        <time>2018-04-21T12:22:05.000Z</time>
      </trkpt>
      <trkpt lat="40.794618" lon="-3.949723">
        <ele>2174.1</ele>
        <time>2018-04-21T12:22:06.000Z</time>
      </trkpt>
      <trkpt lat="40.794616" lon="-3.949735">
        <ele>2174.0</ele>
        <time>2018-04-21T12:22:07.000Z</time>
      </trkpt>
      <trkpt lat="40.794614" lon="-3.949747">
        <ele>2173.9</ele>
        <time>2018-04-21T12:22:08.000Z</time>
      </trkpt>
      <trkpt lat="40.794612" lon="-3.949759">
        <ele>2173.8</ele>
        <time>2018-04-21T12:22:09.000Z</time>
      </trkpt>
      <trkpt lat="40.79461" lon="-3.949771">
        <ele>2173.6</ele>
        <time>2018-04-21T12:22:10.000Z</time>
      </trkpt>
      <trkpt lat="40.794607" lon="-3.949783">
        <ele>2173.5</ele>
        <time>2018-04-21T12:22:11.000Z</time>
      </trkpt>
      <trkpt lat="40.794605" lon="-3.949795">
        <ele>2173.4</ele>
        <time>2018-04-21T12:22:12.000Z</time>
      </trkpt>
      <trkpt lat="40.794602" lon="-3.949807">
        <ele>2173.3</ele>
        <time>2018-04-21T12:22:13.000Z</time>
      </trkpt>
      <trkpt lat="40.7946" lon="-3.949818">
        <ele>2173.2</ele>
        <time>2018-04-21T12:22:14.000Z</time>
      </trkpt>
      <trkpt lat="40.794598" lon="-3.94983">
        <ele>2173.1</ele>
        <time>2018-04-21T12:22:15.000Z</time>
      </trkpt>
      <trkpt lat="40.794596" lon="-3.949841">
        <ele>2173.0</ele>
        <time>2018-04-21T12:22:16.000Z</time>
      </trkpt>
      <trkpt lat="40.794594" lon="-3.949852">
        <ele>2172.9</ele>
        <time>2018-04-21T12:22:17.000Z</time>
      </trkpt>
      <trkpt lat="40.794593" lon="-3.949863">
        <ele>2172.8</ele>
        <time>2018-04-21T12:22:18.000Z</time>
      </trkpt>
      <trkpt lat="40.794592" lon="-3.949873">
        <ele>2172.7</ele>
        <time>2018-04-21T12:22:19.000Z</time>
      </trkpt>
      <trkpt lat="40.794591" lon="-3.949883">
        <ele>2172.6</ele>
        <time>2018-04-21T12:22:20.000Z</time>
      </trkpt>
      <trkpt lat="40.794591" lon="-3.949893">
        <ele>2172.5</ele>
        <time>2018-04-21T12:22:21.000Z</time>
      </trkpt>
      <trkpt lat="40.79459" lon="-3.949903">
        <ele>2172.4</ele>
        <time>2018-04-21T12:22:22.000Z</time>
      </trkpt>
      <trkpt lat="40.79459" lon="-3.949913">
        <ele>2172.3</ele>
        <time>2018-04-21T12:22:23.000Z</time>
      </trkpt>
      <trkpt lat="40.794589" lon="-3.949923">
        <ele>2172.2</ele>
        <time>2018-04-21T12:22:24.000Z</time>
      </trkpt>
      <trkpt lat="40.794588" lon="-3.949934">
        <ele>2172.1</ele>
        <time>2018-04-21T12:22:25.000Z</time>
      </trkpt>
      <trkpt lat="40.794587" lon="-3.949945">
        <ele>2172.0</ele>
        <time>2018-04-21T12:22:26.000Z</time>
      </trkpt>
      <trkpt lat="40.794585" lon="-3.949957">
        <ele>2171.9</ele>
        <time>2018-04-21T12:22:27.000Z</time>
      </trkpt>
      <trkpt lat="40.794582" lon="-3.94997">
        <ele>2171.8</ele>
        <time>2018-04-21T12:22:28.000Z</time>
      </trkpt>
      <trkpt lat="40.794579" lon="-3.949983">
        <ele>2171.6</ele>
        <time>2018-04-21T12:22:29.000Z</time>
      </trkpt>
      <trkpt lat="40.794576" lon="-3.949996">
        <ele>2171.5</ele>
        <time>2018-04-21T12:22:30.000Z</time>
      </trkpt>
      <trkpt lat="40.794573" lon="-3.950009">
        <ele>2171.3</ele>
        <time>2018-04-21T12:22:31.000Z</time>
      </trkpt>
      <trkpt lat="40.79457" lon="-3.950022">
        <ele>2171.1</ele>
        <time>2018-04-21T12:22:32.000Z</time>
      </trkpt>
      <trkpt lat="40.794568" lon="-3.950035">
        <ele>2170.9</ele>
        <time>2018-04-21T12:22:33.000Z</time>
      </trkpt>
      <trkpt lat="40.794565" lon="-3.950048">
        <ele>2170.7</ele>
        <time>2018-04-21T12:22:34.000Z</time>
      </trkpt>
      <trkpt lat="40.794563" lon="-3.950061">
        <ele>2170.5</ele>
        <time>2018-04-21T12:22:35.000Z</time>
      </trkpt>
      <trkpt lat="40.794561" lon="-3.950073">
        <ele>2170.3</ele>
        <time>2018-04-21T12:22:36.000Z</time>
      </trkpt>
      <trkpt lat="40.79456" lon="-3.950085">
        <ele>2170.2</ele>
        <time>2018-04-21T12:22:37.000Z</time>
      </trkpt>
      <trkpt lat="40.794558" lon="-3.950097">
        <ele>2170.0</ele>
        <time>2018-04-21T12:22:38.000Z</time>
      </trkpt>
      <trkpt lat="40.794558" lon="-3.950109">
        <ele>2169.8</ele>
        <time>2018-04-21T12:22:39.000Z</time>
      </trkpt>
      <trkpt lat="40.794558" lon="-3.950121">
        <ele>2169.6</ele>
        <time>2018-04-21T12:22:40.000Z</time>
      </trkpt>
      <trkpt lat="40.794558" lon="-3.950133">
        <ele>2169.4</ele>
        <time>2018-04-21T12:22:41.000Z</time>
      </trkpt>
      <trkpt lat="40.794558" lon="-3.950145">
        <ele>2169.2</ele>
        <time>2018-04-21T12:22:42.000Z</time>
      </trkpt>
      <trkpt lat="40.794559" lon="-3.950157">
        <ele>2169.0</ele>
        <time>2018-04-21T12:22:43.000Z</time>
      </trkpt>
      <trkpt lat="40.794561" lon="-3.950169">
        <ele>2168.9</ele>
        <time>2018-04-21T12:22:44.000Z</time>
      </trkpt>
      <trkpt lat="40.794562" lon="-3.95018">
        <ele>2168.7</ele>
        <time>2018-04-21T12:22:45.000Z</time>
      </trkpt>
      <trkpt lat="40.794562" lon="-3.95019">
        <ele>2168.5</ele>
        <time>2018-04-21T12:22:46.000Z</time>
      </trkpt>
      <trkpt lat="40.794563" lon="-3.9502">
        <ele>2168.4</ele>
        <time>2018-04-21T12:22:47.000Z</time>
      </trkpt>
      <trkpt lat="40.794562" lon="-3.950209">
        <ele>2168.2</ele>
        <time>2018-04-21T12:22:48.000Z</time>
      </trkpt>
      <trkpt lat="40.794561" lon="-3.950217">
        <ele>2168.1</ele>
        <time>2018-04-21T12:22:49.000Z</time>
      </trkpt>
      <trkpt lat="40.794559" lon="-3.950225">
        <ele>2168.0</ele>
        <time>2018-04-21T12:22:50.000Z</time>
      </trkpt>
      <trkpt lat="40.794557" lon="-3.950232">
        <ele>2167.9</ele>
        <time>2018-04-21T12:22:51.000Z</time>
      </trkpt>
      <trkpt lat="40.794555" lon="-3.950239">
        <ele>2167.8</ele>
        <time>2018-04-21T12:22:52.000Z</time>
      </trkpt>
      <trkpt lat="40.794553" lon="-3.950246">
        <ele>2167.7</ele>
        <time>2018-04-21T12:22:53.000Z</time>
      </trkpt>
      <trkpt lat="40.794552" lon="-3.950255">
        <ele>2167.5</ele>
        <time>2018-04-21T12:22:54.000Z</time>
      </trkpt>
      <trkpt lat="40.794551" lon="-3.950264">
        <ele>2167.4</ele>
        <time>2018-04-21T12:22:55.000Z</time>
      </trkpt>
      <trkpt lat="40.794552" lon="-3.950275">
        <ele>2167.2</ele>
        <time>2018-04-21T12:22:56.000Z</time>
      </trkpt>
      <trkpt lat="40.794553" lon="-3.950287">
        <ele>2167.0</ele>
        <time>2018-04-21T12:22:57.000Z</time>
      </trkpt>
      <trkpt lat="40.794556" lon="-3.950301">
        <ele>2166.8</ele>
        <time>2018-04-21T12:22:58.000Z</time>
      </trkpt>
      <trkpt lat="40.794558" lon="-3.950315">
        <ele>2166.6</ele>
        <time>2018-04-21T12:22:59.000Z</time>
      </trkpt>
      <trkpt lat="40.794559" lon="-3.95033">
        <ele>2166.4</ele>
        <time>2018-04-21T12:23:00.000Z</time>
      </trkpt>
      <trkpt lat="40.794559" lon="-3.950343">
        <ele>2166.2</ele>
        <time>2018-04-21T12:23:01.000Z</time>
      </trkpt>
      <trkpt lat="40.794558" lon="-3.950356">
        <ele>2166.0</ele>
        <time>2018-04-21T12:23:02.000Z</time>
      </trkpt>
      <trkpt lat="40.794556" lon="-3.950368">
        <ele>2165.8</ele>
        <time>2018-04-21T12:23:03.000Z</time>
      </trkpt>
      <trkpt lat="40.794553" lon="-3.95038">
        <ele>2165.6</ele>
        <time>2018-04-21T12:23:04.000Z</time>
      </trkpt>
      <trkpt lat="40.79455" lon="-3.950391">
        <ele>2165.4</ele>
        <time>2018-04-21T12:23:05.000Z</time>
      </trkpt>
      <trkpt lat="40.794546" lon="-3.950402">
        <ele>2165.3</ele>
        <time>2018-04-21T12:23:06.000Z</time>
      </trkpt>
      <trkpt lat="40.794542" lon="-3.950412">
        <ele>2165.1</ele>
        <time>2018-04-21T12:23:07.000Z</time>
      </trkpt>
      <trkpt lat="40.794539" lon="-3.950423">
        <ele>2165.0</ele>
        <time>2018-04-21T12:23:08.000Z</time>
      </trkpt>
      <trkpt lat="40.794536" lon="-3.950434">
        <ele>2164.8</ele>
        <time>2018-04-21T12:23:09.000Z</time>
      </trkpt>
      <trkpt lat="40.794533" lon="-3.950445">
        <ele>2164.6</ele>
        <time>2018-04-21T12:23:10.000Z</time>
      </trkpt>
      <trkpt lat="40.794532" lon="-3.950456">
        <ele>2164.5</ele>
        <time>2018-04-21T12:23:11.000Z</time>
      </trkpt>
      <trkpt lat="40.794531" lon="-3.950468">
        <ele>2164.3</ele>
        <time>2018-04-21T12:23:12.000Z</time>
      </trkpt>
      <trkpt lat="40.794531" lon="-3.95048">
        <ele>2164.1</ele>
        <time>2018-04-21T12:23:13.000Z</time>
      </trkpt>
      <trkpt lat="40.794532" lon="-3.950492">
        <ele>2163.9</ele>
        <time>2018-04-21T12:23:14.000Z</time>
      </trkpt>
      <trkpt lat="40.794533" lon="-3.950503">
        <ele>2163.7</ele>
        <time>2018-04-21T12:23:15.000Z</time>
      </trkpt>
      <trkpt lat="40.794535" lon="-3.950513">
        <ele>2163.6</ele>
        <time>2018-04-21T12:23:16.000Z</time>
      </trkpt>
      <trkpt lat="40.794537" lon="-3.950522">
        <ele>2163.4</ele>
        <time>2018-04-21T12:23:17.000Z</time>
      </trkpt>
      <trkpt lat="40.794539" lon="-3.95053">
        <ele>2163.3</ele>
        <time>2018-04-21T12:23:18.000Z</time>
      </trkpt>
      <trkpt lat="40.794542" lon="-3.950537">
        <ele>2163.2</ele>
        <time>2018-04-21T12:23:19.000Z</time>
      </trkpt>
      <trkpt lat="40.794545" lon="-3.950544">
        <ele>2163.1</ele>
        <time>2018-04-21T12:23:20.000Z</time>
      </trkpt>
      <trkpt lat="40.794548" lon="-3.950551">
        <ele>2163.0</ele>
        <time>2018-04-21T12:23:21.000Z</time>
      </trkpt>
      <trkpt lat="40.794551" lon="-3.950558">
        <ele>2162.9</ele>
        <time>2018-04-21T12:23:22.000Z</time>
      </trkpt>
      <trkpt lat="40.794553" lon="-3.950565">
        <ele>2162.7</ele>
        <time>2018-04-21T12:23:23.000Z</time>
      </trkpt>
      <trkpt lat="40.794555" lon="-3.950574">
        <ele>2162.6</ele>
        <time>2018-04-21T12:23:24.000Z</time>
      </trkpt>
      <trkpt lat="40.794556" lon="-3.950584">
        <ele>2162.4</ele>
        <time>2018-04-21T12:23:25.000Z</time>
      </trkpt>
      <trkpt lat="40.794557" lon="-3.950595">
        <ele>2162.3</ele>
        <time>2018-04-21T12:23:26.000Z</time>
      </trkpt>
      <trkpt lat="40.794557" lon="-3.950609">
        <ele>2162.1</ele>
        <time>2018-04-21T12:23:27.000Z</time>
      </trkpt>
      <trkpt lat="40.794556" lon="-3.950623">
        <ele>2161.8</ele>
        <time>2018-04-21T12:23:28.000Z</time>
      </trkpt>
      <trkpt lat="40.794556" lon="-3.950638">
        <ele>2161.6</ele>
        <time>2018-04-21T12:23:29.000Z</time>
      </trkpt>
      <trkpt lat="40.794556" lon="-3.950653">
        <ele>2161.4</ele>
        <time>2018-04-21T12:23:30.000Z</time>
      </trkpt>
      <trkpt lat="40.794557" lon="-3.950668">
        <ele>2161.1</ele>
        <time>2018-04-21T12:23:31.000Z</time>
      </trkpt>
      <trkpt lat="40.794559" lon="-3.950683">
        <ele>2160.9</ele>
        <time>2018-04-21T12:23:32.000Z</time>
      </trkpt>
      <trkpt lat="40.794562" lon="-3.950697">
        <ele>2160.7</ele>
        <time>2018-04-21T12:23:33.000Z</time>
      </trkpt>
      <trkpt lat="40.794566" lon="-3.95071">
        <ele>2160.5</ele>
        <time>2018-04-21T12:23:34.000Z</time>
      </trkpt>
      <trkpt lat="40.794571" lon="-3.950722">
        <ele>2160.3</ele>
        <time>2018-04-21T12:23:35.000Z</time>
      </trkpt>
      <trkpt lat="40.794575" lon="-3.950735">
        <ele>2160.1</ele>
        <time>2018-04-21T12:23:36.000Z</time>
      </trkpt>
      <trkpt lat="40.79458" lon="-3.950747">
        <ele>2159.9</ele>
        <time>2018-04-21T12:23:37.000Z</time>
      </trkpt>
      <trkpt lat="40.794583" lon="-3.95076">
        <ele>2159.6</ele>
        <time>2018-04-21T12:23:38.000Z</time>
      </trkpt>
      <trkpt lat="40.794586" lon="-3.950772">
        <ele>2159.4</ele>
        <time>2018-04-21T12:23:39.000Z</time>
      </trkpt>
      <trkpt lat="40.794586" lon="-3.950785">
        <ele>2159.2</ele>
        <time>2018-04-21T12:23:40.000Z</time>
      </trkpt>
      <trkpt lat="40.794585" lon="-3.950798">
        <ele>2159.0</ele>
        <time>2018-04-21T12:23:41.000Z</time>
      </trkpt>
      <trkpt lat="40.794582" lon="-3.950812">
        <ele>2158.8</ele>
        <time>2018-04-21T12:23:42.000Z</time>
      </trkpt>
      <trkpt lat="40.794578" lon="-3.950825">
        <ele>2158.6</ele>
        <time>2018-04-21T12:23:43.000Z</time>
      </trkpt>
      <trkpt lat="40.794574" lon="-3.950838">
        <ele>2158.5</ele>
        <time>2018-04-21T12:23:44.000Z</time>
      </trkpt>
      <trkpt lat="40.79457" lon="-3.95085">
        <ele>2158.4</ele>
        <time>2018-04-21T12:23:45.000Z</time>
      </trkpt>
      <trkpt lat="40.794566" lon="-3.950862">
        <ele>2158.3</ele>
        <time>2018-04-21T12:23:46.000Z</time>
      </trkpt>
      <trkpt lat="40.794563" lon="-3.950873">
        <ele>2158.1</ele>
        <time>2018-04-21T12:23:47.000Z</time>
      </trkpt>
      <trkpt lat="40.794561" lon="-3.950883">
        <ele>2158.0</ele>
        <time>2018-04-21T12:23:48.000Z</time>
      </trkpt>
      <trkpt lat="40.794558" lon="-3.950894">
        <ele>2157.9</ele>
        <time>2018-04-21T12:23:49.000Z</time>
      </trkpt>
      <trkpt lat="40.794556" lon="-3.950903">
        <ele>2157.9</ele>
        <time>2018-04-21T12:23:50.000Z</time>
      </trkpt>
      <trkpt lat="40.794554" lon="-3.950913">
        <ele>2157.8</ele>
        <time>2018-04-21T12:23:51.000Z</time>
      </trkpt>
      <trkpt lat="40.794552" lon="-3.950922">
        <ele>2157.7</ele>
        <time>2018-04-21T12:23:52.000Z</time>
      </trkpt>
      <trkpt lat="40.79455" lon="-3.950931">
        <ele>2157.6</ele>
        <time>2018-04-21T12:23:53.000Z</time>
      </trkpt>
      <trkpt lat="40.794549" lon="-3.95094">
        <ele>2157.5</ele>
        <time>2018-04-21T12:23:54.000Z</time>
      </trkpt>
      <trkpt lat="40.794547" lon="-3.950949">
        <ele>2157.4</ele>
        <time>2018-04-21T12:23:55.000Z</time>
      </trkpt>
      <trkpt lat="40.794546" lon="-3.950958">
        <ele>2157.3</ele>
        <time>2018-04-21T12:23:56.000Z</time>
      </trkpt>
      <trkpt lat="40.794545" lon="-3.950967">
        <ele>2157.2</ele>
        <time>2018-04-21T12:23:57.000Z</time>
      </trkpt>
      <trkpt lat="40.794543" lon="-3.950976">
        <ele>2157.1</ele>
        <time>2018-04-21T12:23:58.000Z</time>
      </trkpt>
      <trkpt lat="40.794542" lon="-3.950985">
        <ele>2157.0</ele>
        <time>2018-04-21T12:23:59.000Z</time>
      </trkpt>
      <trkpt lat="40.79454" lon="-3.950995">
        <ele>2156.9</ele>
        <time>2018-04-21T12:24:00.000Z</time>
      </trkpt>
      <trkpt lat="40.794538" lon="-3.951005">
        <ele>2156.8</ele>
        <time>2018-04-21T12:24:01.000Z</time>
      </trkpt>
      <trkpt lat="40.794537" lon="-3.951016">
        <ele>2156.7</ele>
        <time>2018-04-21T12:24:02.000Z</time>
      </trkpt>
      <trkpt lat="40.794535" lon="-3.951027">
        <ele>2156.6</ele>
        <time>2018-04-21T12:24:03.000Z</time>
      </trkpt>
      <trkpt lat="40.794532" lon="-3.951038">
        <ele>2156.5</ele>
        <time>2018-04-21T12:24:04.000Z</time>
      </trkpt>
      <trkpt lat="40.79453" lon="-3.95105">
        <ele>2156.4</ele>
        <time>2018-04-21T12:24:05.000Z</time>
      </trkpt>
      <trkpt lat="40.794528" lon="-3.951062">
        <ele>2156.3</ele>
        <time>2018-04-21T12:24:06.000Z</time>
      </trkpt>
      <trkpt lat="40.794525" lon="-3.951074">
        <ele>2156.2</ele>
        <time>2018-04-21T12:24:07.000Z</time>
      </trkpt>
      <trkpt lat="40.794523" lon="-3.951085">
        <ele>2156.0</ele>
        <time>2018-04-21T12:24:08.000Z</time>
      </trkpt>
      <trkpt lat="40.79452" lon="-3.951097">
        <ele>2155.9</ele>
        <time>2018-04-21T12:24:09.000Z</time>
      </trkpt>
      <trkpt lat="40.794518" lon="-3.951108">
        <ele>2155.8</ele>
        <time>2018-04-21T12:24:10.000Z</time>
      </trkpt>
      <trkpt lat="40.794515" lon="-3.951118">
        <ele>2155.7</ele>
        <time>2018-04-21T12:24:11.000Z</time>
      </trkpt>
      <trkpt lat="40.794513" lon="-3.951128">
        <ele>2155.6</ele>
        <time>2018-04-21T12:24:12.000Z</time>
      </trkpt>
      <trkpt lat="40.794511" lon="-3.951137">
        <ele>2155.5</ele>
        <time>2018-04-21T12:24:13.000Z</time>
      </trkpt>
      <trkpt lat="40.794509" lon="-3.951144">
        <ele>2155.5</ele>
        <time>2018-04-21T12:24:14.000Z</time>
      </trkpt>
      <trkpt lat="40.794507" lon="-3.95115">
        <ele>2155.4</ele>
        <time>2018-04-21T12:24:15.000Z</time>
      </trkpt>
      <trkpt lat="40.794506" lon="-3.951154">
        <ele>2155.4</ele>
        <time>2018-04-21T12:24:16.000Z</time>
      </trkpt>
      <trkpt lat="40.794505" lon="-3.951157">
        <ele>2155.4</ele>
        <time>2018-04-21T12:24:17.000Z</time>
      </trkpt>
      <trkpt lat="40.794505" lon="-3.951158">
        <ele>2155.3</ele>
        <time>2018-04-21T12:24:18.000Z</time>
      </trkpt>
      <trkpt lat="40.794504" lon="-3.951158">
        <ele>2155.4</ele>
        <time>2018-04-21T12:24:19.000Z</time>
      </trkpt>
      <trkpt lat="40.794504" lon="-3.951158">
        <ele>2155.4</ele>
        <time>2018-04-21T12:24:20.000Z</time>
      </trkpt>
      <trkpt lat="40.794504" lon="-3.951157">
        <ele>2155.4</ele>
        <time>2018-04-21T12:24:21.000Z</time>
      </trkpt>
      <trkpt lat="40.794504" lon="-3.951157">
        <ele>2155.4</ele>
        <time>2018-04-21T12:24:22.000Z</time>
      </trkpt>
      <trkpt lat="40.794504" lon="-3.951158">
        <ele>2155.4</ele>
        <time>2018-04-21T12:24:23.000Z</time>
      </trkpt>
      <trkpt lat="40.794504" lon="-3.95116">
        <ele>2155.3</ele>
        <time>2018-04-21T12:24:24.000Z</time>
      </trkpt>
      <trkpt lat="40.794504" lon="-3.951164">
        <ele>2155.3</ele>
        <time>2018-04-21T12:24:25.000Z</time>
      </trkpt>
      <trkpt lat="40.794503" lon="-3.95117">
        <ele>2155.2</ele>
        <time>2018-04-21T12:24:26.000Z</time>
      </trkpt>
      <trkpt lat="40.794502" lon="-3.951177">
        <ele>2155.2</ele>
        <time>2018-04-21T12:24:27.000Z</time>
      </trkpt>
      <trkpt lat="40.794501" lon="-3.951185">
        <ele>2155.1</ele>
        <time>2018-04-21T12:24:28.000Z</time>
      </trkpt>
      <trkpt lat="40.7945" lon="-3.951194">
        <ele>2155.0</ele>
        <time>2018-04-21T12:24:29.000Z</time>
      </trkpt>
      <trkpt lat="40.794499" lon="-3.951204">
        <ele>2154.9</ele>
        <time>2018-04-21T12:24:30.000Z</time>
      </trkpt>
      <trkpt lat="40.794498" lon="-3.951216">
        <ele>2154.8</ele>
        <time>2018-04-21T12:24:31.000Z</time>
      </trkpt>
      <trkpt lat="40.794497" lon="-3.951227">
        <ele>2154.7</ele>
        <time>2018-04-21T12:24:32.000Z</time>
      </trkpt>
      <trkpt lat="40.794496" lon="-3.95124">
        <ele>2154.5</ele>
        <time>2018-04-21T12:24:33.000Z</time>
      </trkpt>
      <trkpt lat="40.794495" lon="-3.951252">
        <ele>2154.4</ele>
        <time>2018-04-21T12:24:34.000Z</time>
      </trkpt>
      <trkpt lat="40.794494" lon="-3.951265">
        <ele>2154.3</ele>
        <time>2018-04-21T12:24:35.000Z</time>
      </trkpt>
      <trkpt lat="40.794494" lon="-3.951279">
        <ele>2154.1</ele>
        <time>2018-04-21T12:24:36.000Z</time>
      </trkpt>
      <trkpt lat="40.794494" lon="-3.951292">
        <ele>2154.0</ele>
        <time>2018-04-21T12:24:37.000Z</time>
      </trkpt>
      <trkpt lat="40.794495" lon="-3.951305">
        <ele>2153.8</ele>
        <time>2018-04-21T12:24:38.000Z</time>
      </trkpt>
      <trkpt lat="40.794497" lon="-3.951317">
        <ele>2153.7</ele>
        <time>2018-04-21T12:24:39.000Z</time>
      </trkpt>
      <trkpt lat="40.7945" lon="-3.95133">
        <ele>2153.6</ele>
        <time>2018-04-21T12:24:40.000Z</time>
      </trkpt>
      <trkpt lat="40.794503" lon="-3.951342">
        <ele>2153.4</ele>
        <time>2018-04-21T12:24:41.000Z</time>
      </trkpt>
      <trkpt lat="40.794506" lon="-3.951355">
        <ele>2153.3</ele>
        <time>2018-04-21T12:24:42.000Z</time>
      </trkpt>
      <trkpt lat="40.79451" lon="-3.951367">
        <ele>2153.1</ele>
        <time>2018-04-21T12:24:43.000Z</time>
      </trkpt>
      <trkpt lat="40.794514" lon="-3.95138">
        <ele>2153.0</ele>
        <time>2018-04-21T12:24:44.000Z</time>
      </trkpt>
      <trkpt lat="40.794518" lon="-3.951392">
        <ele>2152.8</ele>
        <time>2018-04-21T12:24:45.000Z</time>
      </trkpt>
      <trkpt lat="40.794522" lon="-3.951405">
        <ele>2152.6</ele>
        <time>2018-04-21T12:24:46.000Z</time>
      </trkpt>
      <trkpt lat="40.794525" lon="-3.951419">
        <ele>2152.5</ele>
        <time>2018-04-21T12:24:47.000Z</time>
      </trkpt>
      <trkpt lat="40.794529" lon="-3.951432">
        <ele>2152.3</ele>
        <time>2018-04-21T12:24:48.000Z</time>
      </trkpt>
      <trkpt lat="40.794532" lon="-3.951445">
        <ele>2152.2</ele>
        <time>2018-04-21T12:24:49.000Z</time>
      </trkpt>
      <trkpt lat="40.794534" lon="-3.951458">
        <ele>2152.0</ele>
        <time>2018-04-21T12:24:50.000Z</time>
      </trkpt>
      <trkpt lat="40.794535" lon="-3.951471">
        <ele>2151.9</ele>
        <time>2018-04-21T12:24:51.000Z</time>
      </trkpt>
      <trkpt lat="40.794536" lon="-3.951484">
        <ele>2151.7</ele>
        <time>2018-04-21T12:24:52.000Z</time>
      </trkpt>
      <trkpt lat="40.794536" lon="-3.951497">
        <ele>2151.6</ele>
        <time>2018-04-21T12:24:53.000Z</time>
      </trkpt>
      <trkpt lat="40.794535" lon="-3.951509">
        <ele>2151.5</ele>
        <time>2018-04-21T12:24:54.000Z</time>
      </trkpt>
      <trkpt lat="40.794534" lon="-3.951521">
        <ele>2151.3</ele>
        <time>2018-04-21T12:24:55.000Z</time>
      </trkpt>
      <trkpt lat="40.794533" lon="-3.951534">
        <ele>2151.2</ele>
        <time>2018-04-21T12:24:56.000Z</time>
      </trkpt>
      <trkpt lat="40.794533" lon="-3.951549">
        <ele>2151.1</ele>
        <time>2018-04-21T12:24:57.000Z</time>
      </trkpt>
      <trkpt lat="40.794535" lon="-3.951564">
        <ele>2150.9</ele>
        <time>2018-04-21T12:24:58.000Z</time>
      </trkpt>
      <trkpt lat="40.794538" lon="-3.951581">
        <ele>2150.7</ele>
        <time>2018-04-21T12:24:59.000Z</time>
      </trkpt>
      <trkpt lat="40.794541" lon="-3.951597">
        <ele>2150.5</ele>
        <time>2018-04-21T12:25:00.000Z</time>
      </trkpt>
      <trkpt lat="40.794545" lon="-3.951613">
        <ele>2150.3</ele>
        <time>2018-04-21T12:25:01.000Z</time>
      </trkpt>
      <trkpt lat="40.794548" lon="-3.951628">
        <ele>2150.1</ele>
        <time>2018-04-21T12:25:02.000Z</time>
      </trkpt>
      <trkpt lat="40.794551" lon="-3.951642">
        <ele>2150.0</ele>
        <time>2018-04-21T12:25:03.000Z</time>
      </trkpt>
      <trkpt lat="40.794554" lon="-3.951654">
        <ele>2149.8</ele>
        <time>2018-04-21T12:25:04.000Z</time>
      </trkpt>
      <trkpt lat="40.794557" lon="-3.951664">
        <ele>2149.7</ele>
        <time>2018-04-21T12:25:05.000Z</time>
      </trkpt>
      <trkpt lat="40.794559" lon="-3.951673">
        <ele>2149.6</ele>
        <time>2018-04-21T12:25:06.000Z</time>
      </trkpt>
      <trkpt lat="40.79456" lon="-3.951678">
        <ele>2149.6</ele>
        <time>2018-04-21T12:25:07.000Z</time>
      </trkpt>
      <trkpt lat="40.794561" lon="-3.951682">
        <ele>2149.5</ele>
        <time>2018-04-21T12:25:08.000Z</time>
      </trkpt>
      <trkpt lat="40.79456" lon="-3.951683">
        <ele>2149.5</ele>
        <time>2018-04-21T12:25:09.000Z</time>
      </trkpt>
      <trkpt lat="40.794559" lon="-3.951684">
        <ele>2149.5</ele>
        <time>2018-04-21T12:25:10.000Z</time>
      </trkpt>
      <trkpt lat="40.794558" lon="-3.951685">
        <ele>2149.5</ele>
        <time>2018-04-21T12:25:11.000Z</time>
      </trkpt>
      <trkpt lat="40.794556" lon="-3.951687">
        <ele>2149.5</ele>
        <time>2018-04-21T12:25:12.000Z</time>
      </trkpt>
      <trkpt lat="40.794554" lon="-3.95169">
        <ele>2149.5</ele>
        <time>2018-04-21T12:25:13.000Z</time>
      </trkpt>
      <trkpt lat="40.794552" lon="-3.951697">
        <ele>2149.5</ele>
        <time>2018-04-21T12:25:14.000Z</time>
      </trkpt>
      <trkpt lat="40.794551" lon="-3.951707">
        <ele>2149.4</ele>
        <time>2018-04-21T12:25:15.000Z</time>
      </trkpt>
      <trkpt lat="40.794551" lon="-3.95172">
        <ele>2149.3</ele>
        <time>2018-04-21T12:25:16.000Z</time>
      </trkpt>
      <trkpt lat="40.794551" lon="-3.951736">
        <ele>2149.2</ele>
        <time>2018-04-21T12:25:17.000Z</time>
      </trkpt>
      <trkpt lat="40.794552" lon="-3.951754">
        <ele>2149.1</ele>
        <time>2018-04-21T12:25:18.000Z</time>
      </trkpt>
      <trkpt lat="40.794552" lon="-3.951773">
        <ele>2148.9</ele>
        <time>2018-04-21T12:25:19.000Z</time>
      </trkpt>
      <trkpt lat="40.794554" lon="-3.951793">
        <ele>2148.8</ele>
        <time>2018-04-21T12:25:20.000Z</time>
      </trkpt>
      <trkpt lat="40.794555" lon="-3.951813">
        <ele>2148.6</ele>
        <time>2018-04-21T12:25:21.000Z</time>
      </trkpt>
      <trkpt lat="40.794556" lon="-3.951833">
        <ele>2148.5</ele>
        <time>2018-04-21T12:25:22.000Z</time>
      </trkpt>
      <trkpt lat="40.794557" lon="-3.951852">
        <ele>2148.3</ele>
        <time>2018-04-21T12:25:23.000Z</time>
      </trkpt>
      <trkpt lat="40.794559" lon="-3.95187">
        <ele>2148.2</ele>
        <time>2018-04-21T12:25:24.000Z</time>
      </trkpt>
      <trkpt lat="40.794559" lon="-3.951888">
        <ele>2148.1</ele>
        <time>2018-04-21T12:25:25.000Z</time>
      </trkpt>
      <trkpt lat="40.79456" lon="-3.951905">
        <ele>2147.9</ele>
        <time>2018-04-21T12:25:26.000Z</time>
      </trkpt>
      <trkpt lat="40.79456" lon="-3.951922">
        <ele>2147.8</ele>
        <time>2018-04-21T12:25:27.000Z</time>
      </trkpt>
      <trkpt lat="40.794561" lon="-3.951938">
        <ele>2147.7</ele>
        <time>2018-04-21T12:25:28.000Z</time>
      </trkpt>
      <trkpt lat="40.79456" lon="-3.951953">
        <ele>2147.6</ele>
        <time>2018-04-21T12:25:29.000Z</time>
      </trkpt>
      <trkpt lat="40.794559" lon="-3.951969">
        <ele>2147.5</ele>
        <time>2018-04-21T12:25:30.000Z</time>
      </trkpt>
      <trkpt lat="40.794558" lon="-3.951985">
        <ele>2147.4</ele>
        <time>2018-04-21T12:25:31.000Z</time>
      </trkpt>
      <trkpt lat="40.794557" lon="-3.952">
        <ele>2147.3</ele>
        <time>2018-04-21T12:25:32.000Z</time>
      </trkpt>
      <trkpt lat="40.794556" lon="-3.952015">
        <ele>2147.2</ele>
        <time>2018-04-21T12:25:33.000Z</time>
      </trkpt>
      <trkpt lat="40.794555" lon="-3.952031">
        <ele>2147.0</ele>
        <time>2018-04-21T12:25:34.000Z</time>
      </trkpt>
      <trkpt lat="40.794554" lon="-3.952046">
        <ele>2146.9</ele>
        <time>2018-04-21T12:25:35.000Z</time>
      </trkpt>
      <trkpt lat="40.794554" lon="-3.952062">
        <ele>2146.8</ele>
        <time>2018-04-21T12:25:36.000Z</time>
      </trkpt>
      <trkpt lat="40.794554" lon="-3.952077">
        <ele>2146.7</ele>
        <time>2018-04-21T12:25:37.000Z</time>
      </trkpt>
      <trkpt lat="40.794555" lon="-3.952093">
        <ele>2146.6</ele>
        <time>2018-04-21T12:25:38.000Z</time>
      </trkpt>
      <trkpt lat="40.794557" lon="-3.95211">
        <ele>2146.5</ele>
        <time>2018-04-21T12:25:39.000Z</time>
      </trkpt>
      <trkpt lat="40.794559" lon="-3.952126">
        <ele>2146.3</ele>
        <time>2018-04-21T12:25:40.000Z</time>
      </trkpt>
      <trkpt lat="40.794562" lon="-3.952143">
        <ele>2146.2</ele>
        <time>2018-04-21T12:25:41.000Z</time>
      </trkpt>
      <trkpt lat="40.794564" lon="-3.952161">
        <ele>2146.1</ele>
        <time>2018-04-21T12:25:42.000Z</time>
      </trkpt>
      <trkpt lat="40.794566" lon="-3.952179">
        <ele>2145.9</ele>
        <time>2018-04-21T12:25:43.000Z</time>
      </trkpt>
      <trkpt lat="40.794567" lon="-3.952198">
        <ele>2145.8</ele>
        <time>2018-04-21T12:25:44.000Z</time>
      </trkpt>
      <trkpt lat="40.794568" lon="-3.952217">
        <ele>2145.6</ele>
        <time>2018-04-21T12:25:45.000Z</time>
      </trkpt>
      <trkpt lat="40.794569" lon="-3.952236">
        <ele>2145.5</ele>
        <time>2018-04-21T12:25:46.000Z</time>
      </trkpt>
      <trkpt lat="40.794569" lon="-3.952253">
        <ele>2145.4</ele>
        <time>2018-04-21T12:25:47.000Z</time>
      </trkpt>
      <trkpt lat="40.79457" lon="-3.952269">
        <ele>2145.2</ele>
        <time>2018-04-21T12:25:48.000Z</time>
      </trkpt>
      <trkpt lat="40.794572" lon="-3.952281">
        <ele>2145.1</ele>
        <time>2018-04-21T12:25:49.000Z</time>
      </trkpt>
      <trkpt lat="40.794573" lon="-3.952292">
        <ele>2145.1</ele>
        <time>2018-04-21T12:25:50.000Z</time>
      </trkpt>
      <trkpt lat="40.794575" lon="-3.952301">
        <ele>2145.0</ele>
        <time>2018-04-21T12:25:51.000Z</time>
      </trkpt>
      <trkpt lat="40.794577" lon="-3.952312">
        <ele>2144.9</ele>
        <time>2018-04-21T12:25:52.000Z</time>
      </trkpt>
      <trkpt lat="40.794578" lon="-3.952324">
        <ele>2144.8</ele>
        <time>2018-04-21T12:25:53.000Z</time>
      </trkpt>
      <trkpt lat="40.794578" lon="-3.952338">
        <ele>2144.7</ele>
        <time>2018-04-21T12:25:54.000Z</time>
      </trkpt>
      <trkpt lat="40.794579" lon="-3.952353">
        <ele>2144.6</ele>
        <time>2018-04-21T12:25:55.000Z</time>
      </trkpt>
      <trkpt lat="40.794579" lon="-3.95237">
        <ele>2144.5</ele>
        <time>2018-04-21T12:25:56.000Z</time>
      </trkpt>
      <trkpt lat="40.794579" lon="-3.952387">
        <ele>2144.3</ele>
        <time>2018-04-21T12:25:57.000Z</time>
      </trkpt>
      <trkpt lat="40.794579" lon="-3.952404">
        <ele>2144.2</ele>
        <time>2018-04-21T12:25:58.000Z</time>
      </trkpt>
      <trkpt lat="40.794579" lon="-3.952422">
        <ele>2144.1</ele>
        <time>2018-04-21T12:25:59.000Z</time>
      </trkpt>
      <trkpt lat="40.79458" lon="-3.952439">
        <ele>2144.0</ele>
        <time>2018-04-21T12:26:00.000Z</time>
      </trkpt>
      <trkpt lat="40.79458" lon="-3.952456">
        <ele>2143.8</ele>
        <time>2018-04-21T12:26:01.000Z</time>
      </trkpt>
      <trkpt lat="40.794581" lon="-3.952473">
        <ele>2143.7</ele>
        <time>2018-04-21T12:26:02.000Z</time>
      </trkpt>
      <trkpt lat="40.794581" lon="-3.95249">
        <ele>2143.6</ele>
        <time>2018-04-21T12:26:03.000Z</time>
      </trkpt>
      <trkpt lat="40.794582" lon="-3.952506">
        <ele>2143.5</ele>
        <time>2018-04-21T12:26:04.000Z</time>
      </trkpt>
      <trkpt lat="40.794583" lon="-3.952522">
        <ele>2143.6</ele>
        <time>2018-04-21T12:26:05.000Z</time>
      </trkpt>
      <trkpt lat="40.794583" lon="-3.952538">
        <ele>2143.6</ele>
        <time>2018-04-21T12:26:06.000Z</time>
      </trkpt>
      <trkpt lat="40.794584" lon="-3.952554">
        <ele>2143.6</ele>
        <time>2018-04-21T12:26:07.000Z</time>
      </trkpt>
      <trkpt lat="40.794585" lon="-3.95257">
        <ele>2143.7</ele>
        <time>2018-04-21T12:26:08.000Z</time>
      </trkpt>
      <trkpt lat="40.794586" lon="-3.952586">
        <ele>2143.7</ele>
        <time>2018-04-21T12:26:09.000Z</time>
      </trkpt>
      <trkpt lat="40.794587" lon="-3.952601">
        <ele>2143.7</ele>
        <time>2018-04-21T12:26:10.000Z</time>
      </trkpt>
      <trkpt lat="40.794588" lon="-3.952616">
        <ele>2143.8</ele>
        <time>2018-04-21T12:26:11.000Z</time>
      </trkpt>
      <trkpt lat="40.794589" lon="-3.952631">
        <ele>2143.8</ele>
        <time>2018-04-21T12:26:12.000Z</time>
      </trkpt>
      <trkpt lat="40.79459" lon="-3.952646">
        <ele>2143.8</ele>
        <time>2018-04-21T12:26:13.000Z</time>
      </trkpt>
      <trkpt lat="40.79459" lon="-3.952661">
        <ele>2143.8</ele>
        <time>2018-04-21T12:26:14.000Z</time>
      </trkpt>
      <trkpt lat="40.794591" lon="-3.952676">
        <ele>2143.9</ele>
        <time>2018-04-21T12:26:15.000Z</time>
      </trkpt>
      <trkpt lat="40.794592" lon="-3.952691">
        <ele>2143.9</ele>
        <time>2018-04-21T12:26:16.000Z</time>
      </trkpt>
      <trkpt lat="40.794593" lon="-3.952705">
        <ele>2143.9</ele>
        <time>2018-04-21T12:26:17.000Z</time>
      </trkpt>
      <trkpt lat="40.794593" lon="-3.95272">
        <ele>2144.0</ele>
        <time>2018-04-21T12:26:18.000Z</time>
      </trkpt>
      <trkpt lat="40.794594" lon="-3.952735">
        <ele>2144.0</ele>
        <time>2018-04-21T12:26:19.000Z</time>
      </trkpt>
      <trkpt lat="40.794595" lon="-3.952749">
        <ele>2144.0</ele>
        <time>2018-04-21T12:26:20.000Z</time>
      </trkpt>
      <trkpt lat="40.794595" lon="-3.952764">
        <ele>2144.1</ele>
        <time>2018-04-21T12:26:21.000Z</time>
      </trkpt>
      <trkpt lat="40.794596" lon="-3.952779">
        <ele>2144.1</ele>
        <time>2018-04-21T12:26:22.000Z</time>
      </trkpt>
      <trkpt lat="40.794596" lon="-3.952794">
        <ele>2144.1</ele>
        <time>2018-04-21T12:26:23.000Z</time>
      </trkpt>
      <trkpt lat="40.794597" lon="-3.952809">
        <ele>2144.2</ele>
        <time>2018-04-21T12:26:24.000Z</time>
      </trkpt>
      <trkpt lat="40.794597" lon="-3.952825">
        <ele>2144.2</ele>
        <time>2018-04-21T12:26:25.000Z</time>
      </trkpt>
      <trkpt lat="40.794598" lon="-3.952841">
        <ele>2144.2</ele>
        <time>2018-04-21T12:26:26.000Z</time>
      </trkpt>
      <trkpt lat="40.794598" lon="-3.952857">
        <ele>2144.3</ele>
        <time>2018-04-21T12:26:27.000Z</time>
      </trkpt>
      <trkpt lat="40.794599" lon="-3.952873">
        <ele>2144.3</ele>
        <time>2018-04-21T12:26:28.000Z</time>
      </trkpt>
      <trkpt lat="40.794599" lon="-3.95289">
        <ele>2144.4</ele>
        <time>2018-04-21T12:26:29.000Z</time>
      </trkpt>
      <trkpt lat="40.7946" lon="-3.952907">
        <ele>2144.4</ele>
        <time>2018-04-21T12:26:30.000Z</time>
      </trkpt>
      <trkpt lat="40.7946" lon="-3.952924">
        <ele>2144.4</ele>
        <time>2018-04-21T12:26:31.000Z</time>
      </trkpt>
      <trkpt lat="40.794601" lon="-3.952942">
        <ele>2144.5</ele>
        <time>2018-04-21T12:26:32.000Z</time>
      </trkpt>
      <trkpt lat="40.794602" lon="-3.952959">
        <ele>2144.5</ele>
        <time>2018-04-21T12:26:33.000Z</time>
      </trkpt>
      <trkpt lat="40.794602" lon="-3.952977">
        <ele>2144.6</ele>
        <time>2018-04-21T12:26:34.000Z</time>
      </trkpt>
      <trkpt lat="40.794603" lon="-3.952995">
        <ele>2144.6</ele>
        <time>2018-04-21T12:26:35.000Z</time>
      </trkpt>
      <trkpt lat="40.794604" lon="-3.953012">
        <ele>2144.6</ele>
        <time>2018-04-21T12:26:36.000Z</time>
      </trkpt>
      <trkpt lat="40.794605" lon="-3.95303">
        <ele>2144.7</ele>
        <time>2018-04-21T12:26:37.000Z</time>
      </trkpt>
      <trkpt lat="40.794607" lon="-3.953047">
        <ele>2144.7</ele>
        <time>2018-04-21T12:26:38.000Z</time>
      </trkpt>
      <trkpt lat="40.794608" lon="-3.953064">
        <ele>2144.7</ele>
        <time>2018-04-21T12:26:39.000Z</time>
      </trkpt>
      <trkpt lat="40.79461" lon="-3.953081">
        <ele>2144.8</ele>
        <time>2018-04-21T12:26:40.000Z</time>
      </trkpt>
      <trkpt lat="40.794612" lon="-3.953098">
        <ele>2144.8</ele>
        <time>2018-04-21T12:26:41.000Z</time>
      </trkpt>
      <trkpt lat="40.794614" lon="-3.953114">
        <ele>2144.8</ele>
        <time>2018-04-21T12:26:42.000Z</time>
      </trkpt>
      <trkpt lat="40.794616" lon="-3.953129">
        <ele>2144.9</ele>
        <time>2018-04-21T12:26:43.000Z</time>
      </trkpt>
      <trkpt lat="40.794619" lon="-3.953145">
        <ele>2144.9</ele>
        <time>2018-04-21T12:26:44.000Z</time>
      </trkpt>
      <trkpt lat="40.794622" lon="-3.953159">
        <ele>2144.9</ele>
        <time>2018-04-21T12:26:45.000Z</time>
      </trkpt>
      <trkpt lat="40.794624" lon="-3.953174">
        <ele>2145.0</ele>
        <time>2018-04-21T12:26:46.000Z</time>
      </trkpt>
      <trkpt lat="40.794627" lon="-3.953187">
        <ele>2145.0</ele>
        <time>2018-04-21T12:26:47.000Z</time>
      </trkpt>
      <trkpt lat="40.79463" lon="-3.953201">
        <ele>2145.0</ele>
        <time>2018-04-21T12:26:48.000Z</time>
      </trkpt>
      <trkpt lat="40.794632" lon="-3.953214">
        <ele>2145.0</ele>
        <time>2018-04-21T12:26:49.000Z</time>
      </trkpt>
      <trkpt lat="40.794634" lon="-3.953226">
        <ele>2145.0</ele>
        <time>2018-04-21T12:26:50.000Z</time>
      </trkpt>
      <trkpt lat="40.794636" lon="-3.953238">
        <ele>2145.1</ele>
        <time>2018-04-21T12:26:51.000Z</time>
      </trkpt>
      <trkpt lat="40.794637" lon="-3.953249">
        <ele>2145.1</ele>
        <time>2018-04-21T12:26:52.000Z</time>
      </trkpt>
      <trkpt lat="40.794638" lon="-3.953261">
        <ele>2145.1</ele>
        <time>2018-04-21T12:26:53.000Z</time>
      </trkpt>
      <trkpt lat="40.794639" lon="-3.953272">
        <ele>2145.1</ele>
        <time>2018-04-21T12:26:54.000Z</time>
      </trkpt>
      <trkpt lat="40.794639" lon="-3.953283">
        <ele>2145.2</ele>
        <time>2018-04-21T12:26:55.000Z</time>
      </trkpt>
      <trkpt lat="40.79464" lon="-3.953294">
        <ele>2145.2</ele>
        <time>2018-04-21T12:26:56.000Z</time>
      </trkpt>
      <trkpt lat="40.79464" lon="-3.953306">
        <ele>2145.2</ele>
        <time>2018-04-21T12:26:57.000Z</time>
      </trkpt>
      <trkpt lat="40.79464" lon="-3.953317">
        <ele>2145.3</ele>
        <time>2018-04-21T12:26:58.000Z</time>
      </trkpt>
      <trkpt lat="40.79464" lon="-3.953329">
        <ele>2145.3</ele>
        <time>2018-04-21T12:26:59.000Z</time>
      </trkpt>
      <trkpt lat="40.79464" lon="-3.953341">
        <ele>2145.4</ele>
        <time>2018-04-21T12:27:00.000Z</time>
      </trkpt>
      <trkpt lat="40.79464" lon="-3.953353">
        <ele>2145.5</ele>
        <time>2018-04-21T12:27:01.000Z</time>
      </trkpt>
      <trkpt lat="40.794641" lon="-3.953365">
        <ele>2145.6</ele>
        <time>2018-04-21T12:27:02.000Z</time>
      </trkpt>
      <trkpt lat="40.794641" lon="-3.953377">
        <ele>2145.7</ele>
        <time>2018-04-21T12:27:03.000Z</time>
      </trkpt>
      <trkpt lat="40.794641" lon="-3.953389">
        <ele>2145.8</ele>
        <time>2018-04-21T12:27:04.000Z</time>
      </trkpt>
      <trkpt lat="40.794642" lon="-3.953401">
        <ele>2146.0</ele>
        <time>2018-04-21T12:27:05.000Z</time>
      </trkpt>
      <trkpt lat="40.794643" lon="-3.953413">
        <ele>2146.1</ele>
        <time>2018-04-21T12:27:06.000Z</time>
      </trkpt>
      <trkpt lat="40.794644" lon="-3.953424">
        <ele>2146.2</ele>
        <time>2018-04-21T12:27:07.000Z</time>
      </trkpt>
      <trkpt lat="40.794645" lon="-3.953436">
        <ele>2146.3</ele>
        <time>2018-04-21T12:27:08.000Z</time>
      </trkpt>
      <trkpt lat="40.794646" lon="-3.953448">
        <ele>2146.4</ele>
        <time>2018-04-21T12:27:09.000Z</time>
      </trkpt>
      <trkpt lat="40.794648" lon="-3.953459">
        <ele>2146.5</ele>
        <time>2018-04-21T12:27:10.000Z</time>
      </trkpt>
      <trkpt lat="40.794649" lon="-3.95347">
        <ele>2146.6</ele>
        <time>2018-04-21T12:27:11.000Z</time>
      </trkpt>
      <trkpt lat="40.794651" lon="-3.953482">
        <ele>2146.7</ele>
        <time>2018-04-21T12:27:12.000Z</time>
      </trkpt>
      <trkpt lat="40.794653" lon="-3.953493">
        <ele>2146.8</ele>
        <time>2018-04-21T12:27:13.000Z</time>
      </trkpt>
      <trkpt lat="40.794655" lon="-3.953504">
        <ele>2147.0</ele>
        <time>2018-04-21T12:27:14.000Z</time>
      </trkpt>
      <trkpt lat="40.794658" lon="-3.953515">
        <ele>2147.1</ele>
        <time>2018-04-21T12:27:15.000Z</time>
      </trkpt>
      <trkpt lat="40.79466" lon="-3.953526">
        <ele>2147.2</ele>
        <time>2018-04-21T12:27:16.000Z</time>
      </trkpt>
      <trkpt lat="40.794662" lon="-3.953537">
        <ele>2147.3</ele>
        <time>2018-04-21T12:27:17.000Z</time>
      </trkpt>
      <trkpt lat="40.794665" lon="-3.953548">
        <ele>2147.4</ele>
        <time>2018-04-21T12:27:18.000Z</time>
      </trkpt>
      <trkpt lat="40.794667" lon="-3.953559">
        <ele>2147.5</ele>
        <time>2018-04-21T12:27:19.000Z</time>
      </trkpt>
      <trkpt lat="40.79467" lon="-3.953571">
        <ele>2147.6</ele>
        <time>2018-04-21T12:27:20.000Z</time>
      </trkpt>
      <trkpt lat="40.794672" lon="-3.953582">
        <ele>2147.7</ele>
        <time>2018-04-21T12:27:21.000Z</time>
      </trkpt>
      <trkpt lat="40.794675" lon="-3.953593">
        <ele>2147.8</ele>
        <time>2018-04-21T12:27:22.000Z</time>
      </trkpt>
      <trkpt lat="40.794677" lon="-3.953604">
        <ele>2147.9</ele>
        <time>2018-04-21T12:27:23.000Z</time>
      </trkpt>
      <trkpt lat="40.794679" lon="-3.953615">
        <ele>2148.0</ele>
        <time>2018-04-21T12:27:24.000Z</time>
      </trkpt>
      <trkpt lat="40.794681" lon="-3.953627">
        <ele>2148.1</ele>
        <time>2018-04-21T12:27:25.000Z</time>
      </trkpt>
      <trkpt lat="40.794683" lon="-3.953638">
        <ele>2148.2</ele>
        <time>2018-04-21T12:27:26.000Z</time>
      </trkpt>
      <trkpt lat="40.794685" lon="-3.95365">
        <ele>2148.4</ele>
        <time>2018-04-21T12:27:27.000Z</time>
      </trkpt>
      <trkpt lat="40.794687" lon="-3.953662">
        <ele>2148.5</ele>
        <time>2018-04-21T12:27:28.000Z</time>
      </trkpt>
      <trkpt lat="40.794688" lon="-3.953674">
        <ele>2148.6</ele>
        <time>2018-04-21T12:27:29.000Z</time>
      </trkpt>
      <trkpt lat="40.794689" lon="-3.953686">
        <ele>2148.7</ele>
        <time>2018-04-21T12:27:30.000Z</time>
      </trkpt>
      <trkpt lat="40.794691" lon="-3.953698">
        <ele>2148.8</ele>
        <time>2018-04-21T12:27:31.000Z</time>
      </trkpt>
      <trkpt lat="40.794692" lon="-3.95371">
        <ele>2149.0</ele>
        <time>2018-04-21T12:27:32.000Z</time>
      </trkpt>
      <trkpt lat="40.794693" lon="-3.953722">
        <ele>2149.1</ele>
        <time>2018-04-21T12:27:33.000Z</time>
      </trkpt>
      <trkpt lat="40.794693" lon="-3.953734">
        <ele>2149.2</ele>
        <time>2018-04-21T12:27:34.000Z</time>
      </trkpt>
      <trkpt lat="40.794694" lon="-3.953746">
        <ele>2149.3</ele>
        <time>2018-04-21T12:27:35.000Z</time>
      </trkpt>
      <trkpt lat="40.794695" lon="-3.953758">
        <ele>2149.4</ele>
        <time>2018-04-21T12:27:36.000Z</time>
      </trkpt>
      <trkpt lat="40.794696" lon="-3.95377">
        <ele>2149.6</ele>
        <time>2018-04-21T12:27:37.000Z</time>
      </trkpt>
      <trkpt lat="40.794696" lon="-3.953782">
        <ele>2149.7</ele>
        <time>2018-04-21T12:27:38.000Z</time>
      </trkpt>
      <trkpt lat="40.794697" lon="-3.953794">
        <ele>2149.8</ele>
        <time>2018-04-21T12:27:39.000Z</time>
      </trkpt>
      <trkpt lat="40.794697" lon="-3.953806">
        <ele>2149.9</ele>
        <time>2018-04-21T12:27:40.000Z</time>
      </trkpt>
      <trkpt lat="40.794698" lon="-3.953818">
        <ele>2150.1</ele>
        <time>2018-04-21T12:27:41.000Z</time>
      </trkpt>
      <trkpt lat="40.794698" lon="-3.953829">
        <ele>2150.2</ele>
        <time>2018-04-21T12:27:42.000Z</time>
      </trkpt>
      <trkpt lat="40.794699" lon="-3.953841">
        <ele>2150.3</ele>
        <time>2018-04-21T12:27:43.000Z</time>
      </trkpt>
      <trkpt lat="40.794699" lon="-3.953852">
        <ele>2150.4</ele>
        <time>2018-04-21T12:27:44.000Z</time>
      </trkpt>
      <trkpt lat="40.7947" lon="-3.953864">
        <ele>2150.5</ele>
        <time>2018-04-21T12:27:45.000Z</time>
      </trkpt>
      <trkpt lat="40.7947" lon="-3.953875">
        <ele>2150.6</ele>
        <time>2018-04-21T12:27:46.000Z</time>
      </trkpt>
      <trkpt lat="40.7947" lon="-3.953886">
        <ele>2150.8</ele>
        <time>2018-04-21T12:27:47.000Z</time>
      </trkpt>
      <trkpt lat="40.794701" lon="-3.953898">
        <ele>2150.9</ele>
        <time>2018-04-21T12:27:48.000Z</time>
      </trkpt>
      <trkpt lat="40.794701" lon="-3.953909">
        <ele>2151.0</ele>
        <time>2018-04-21T12:27:49.000Z</time>
      </trkpt>
      <trkpt lat="40.794701" lon="-3.95392">
        <ele>2151.1</ele>
        <time>2018-04-21T12:27:50.000Z</time>
      </trkpt>
      <trkpt lat="40.794702" lon="-3.953931">
        <ele>2151.2</ele>
        <time>2018-04-21T12:27:51.000Z</time>
      </trkpt>
      <trkpt lat="40.794702" lon="-3.953942">
        <ele>2151.3</ele>
        <time>2018-04-21T12:27:52.000Z</time>
      </trkpt>
      <trkpt lat="40.794702" lon="-3.953953">
        <ele>2151.4</ele>
        <time>2018-04-21T12:27:53.000Z</time>
      </trkpt>
      <trkpt lat="40.794702" lon="-3.953965">
        <ele>2151.6</ele>
        <time>2018-04-21T12:27:54.000Z</time>
      </trkpt>
      <trkpt lat="40.794703" lon="-3.953976">
        <ele>2151.7</ele>
        <time>2018-04-21T12:27:55.000Z</time>
      </trkpt>
      <trkpt lat="40.794703" lon="-3.953987">
        <ele>2151.8</ele>
        <time>2018-04-21T12:27:56.000Z</time>
      </trkpt>
      <trkpt lat="40.794703" lon="-3.953998">
        <ele>2151.9</ele>
        <time>2018-04-21T12:27:57.000Z</time>
      </trkpt>
      <trkpt lat="40.794703" lon="-3.954009">
        <ele>2152.0</ele>
        <time>2018-04-21T12:27:58.000Z</time>
      </trkpt>
      <trkpt lat="40.794703" lon="-3.954021">
        <ele>2152.1</ele>
        <time>2018-04-21T12:27:59.000Z</time>
      </trkpt>
      <trkpt lat="40.794703" lon="-3.954032">
        <ele>2152.3</ele>
        <time>2018-04-21T12:28:00.000Z</time>
      </trkpt>
      <trkpt lat="40.794703" lon="-3.954044">
        <ele>2152.4</ele>
        <time>2018-04-21T12:28:01.000Z</time>
      </trkpt>
      <trkpt lat="40.794703" lon="-3.954055">
        <ele>2152.5</ele>
        <time>2018-04-21T12:28:02.000Z</time>
      </trkpt>
      <trkpt lat="40.794703" lon="-3.954067">
        <ele>2152.6</ele>
        <time>2018-04-21T12:28:03.000Z</time>
      </trkpt>
      <trkpt lat="40.794703" lon="-3.954079">
        <ele>2152.7</ele>
        <time>2018-04-21T12:28:04.000Z</time>
      </trkpt>
      <trkpt lat="40.794703" lon="-3.954091">
        <ele>2152.9</ele>
        <time>2018-04-21T12:28:05.000Z</time>
      </trkpt>
      <trkpt lat="40.794703" lon="-3.954103">
        <ele>2153.0</ele>
        <time>2018-04-21T12:28:06.000Z</time>
      </trkpt>
      <trkpt lat="40.794703" lon="-3.954115">
        <ele>2153.1</ele>
        <time>2018-04-21T12:28:07.000Z</time>
      </trkpt>
      <trkpt lat="40.794703" lon="-3.954128">
        <ele>2153.2</ele>
        <time>2018-04-21T12:28:08.000Z</time>
      </trkpt>
      <trkpt lat="40.794703" lon="-3.95414">
        <ele>2153.4</ele>
        <time>2018-04-21T12:28:09.000Z</time>
      </trkpt>
      <trkpt lat="40.794702" lon="-3.954153">
        <ele>2153.5</ele>
        <time>2018-04-21T12:28:10.000Z</time>
      </trkpt>
      <trkpt lat="40.794702" lon="-3.954166">
        <ele>2153.6</ele>
        <time>2018-04-21T12:28:11.000Z</time>
      </trkpt>
      <trkpt lat="40.794702" lon="-3.954179">
        <ele>2153.8</ele>
        <time>2018-04-21T12:28:12.000Z</time>
      </trkpt>
      <trkpt lat="40.794702" lon="-3.954192">
        <ele>2153.9</ele>
        <time>2018-04-21T12:28:13.000Z</time>
      </trkpt>
      <trkpt lat="40.794702" lon="-3.954205">
        <ele>2154.1</ele>
        <time>2018-04-21T12:28:14.000Z</time>
      </trkpt>
      <trkpt lat="40.794701" lon="-3.954218">
        <ele>2154.2</ele>
        <time>2018-04-21T12:28:15.000Z</time>
      </trkpt>
      <trkpt lat="40.794701" lon="-3.954231">
        <ele>2154.4</ele>
        <time>2018-04-21T12:28:16.000Z</time>
      </trkpt>
      <trkpt lat="40.794702" lon="-3.954244">
        <ele>2154.5</ele>
        <time>2018-04-21T12:28:17.000Z</time>
      </trkpt>
      <trkpt lat="40.794702" lon="-3.954256">
        <ele>2154.7</ele>
        <time>2018-04-21T12:28:18.000Z</time>
      </trkpt>
      <trkpt lat="40.794702" lon="-3.954269">
        <ele>2154.8</ele>
        <time>2018-04-21T12:28:19.000Z</time>
      </trkpt>
      <trkpt lat="40.794703" lon="-3.954281">
        <ele>2154.9</ele>
        <time>2018-04-21T12:28:20.000Z</time>
      </trkpt>
      <trkpt lat="40.794704" lon="-3.954293">
        <ele>2155.1</ele>
        <time>2018-04-21T12:28:21.000Z</time>
      </trkpt>
      <trkpt lat="40.794705" lon="-3.954304">
        <ele>2155.2</ele>
        <time>2018-04-21T12:28:22.000Z</time>
      </trkpt>
      <trkpt lat="40.794706" lon="-3.954316">
        <ele>2155.4</ele>
        <time>2018-04-21T12:28:23.000Z</time>
      </trkpt>
      <trkpt lat="40.794707" lon="-3.954327">
        <ele>2155.5</ele>
        <time>2018-04-21T12:28:24.000Z</time>
      </trkpt>
      <trkpt lat="40.794708" lon="-3.954339">
        <ele>2155.6</ele>
        <time>2018-04-21T12:28:25.000Z</time>
      </trkpt>
      <trkpt lat="40.794709" lon="-3.95435">
        <ele>2155.8</ele>
        <time>2018-04-21T12:28:26.000Z</time>
      </trkpt>
      <trkpt lat="40.794711" lon="-3.954361">
        <ele>2155.9</ele>
        <time>2018-04-21T12:28:27.000Z</time>
      </trkpt>
      <trkpt lat="40.794712" lon="-3.954372">
        <ele>2156.0</ele>
        <time>2018-04-21T12:28:28.000Z</time>
      </trkpt>
      <trkpt lat="40.794713" lon="-3.954383">
        <ele>2156.1</ele>
        <time>2018-04-21T12:28:29.000Z</time>
      </trkpt>
      <trkpt lat="40.794713" lon="-3.954394">
        <ele>2156.3</ele>
        <time>2018-04-21T12:28:30.000Z</time>
      </trkpt>
      <trkpt lat="40.794713" lon="-3.954405">
        <ele>2156.4</ele>
        <time>2018-04-21T12:28:31.000Z</time>
      </trkpt>
      <trkpt lat="40.794712" lon="-3.954415">
        <ele>2156.5</ele>
        <time>2018-04-21T12:28:32.000Z</time>
      </trkpt>
      <trkpt lat="40.794711" lon="-3.954426">
        <ele>2156.6</ele>
        <time>2018-04-21T12:28:33.000Z</time>
      </trkpt>
      <trkpt lat="40.794708" lon="-3.954437">
        <ele>2156.7</ele>
        <time>2018-04-21T12:28:34.000Z</time>
      </trkpt>
      <trkpt lat="40.794706" lon="-3.954448">
        <ele>2156.9</ele>
        <time>2018-04-21T12:28:35.000Z</time>
      </trkpt>
      <trkpt lat="40.794703" lon="-3.95446">
        <ele>2157.0</ele>
        <time>2018-04-21T12:28:36.000Z</time>
      </trkpt>
      <trkpt lat="40.794699" lon="-3.954472">
        <ele>2157.1</ele>
        <time>2018-04-21T12:28:37.000Z</time>
      </trkpt>
      <trkpt lat="40.794696" lon="-3.954484">
        <ele>2157.2</ele>
        <time>2018-04-21T12:28:38.000Z</time>
      </trkpt>
      <trkpt lat="40.794693" lon="-3.954497">
        <ele>2157.4</ele>
        <time>2018-04-21T12:28:39.000Z</time>
      </trkpt>
      <trkpt lat="40.79469" lon="-3.954511">
        <ele>2157.5</ele>
        <time>2018-04-21T12:28:40.000Z</time>
      </trkpt>
      <trkpt lat="40.794688" lon="-3.954525">
        <ele>2157.7</ele>
        <time>2018-04-21T12:28:41.000Z</time>
      </trkpt>
      <trkpt lat="40.794686" lon="-3.95454">
        <ele>2157.8</ele>
        <time>2018-04-21T12:28:42.000Z</time>
      </trkpt>
      <trkpt lat="40.794684" lon="-3.954555">
        <ele>2158.0</ele>
        <time>2018-04-21T12:28:43.000Z</time>
      </trkpt>
      <trkpt lat="40.794683" lon="-3.954569">
        <ele>2158.1</ele>
        <time>2018-04-21T12:28:44.000Z</time>
      </trkpt>
      <trkpt lat="40.794682" lon="-3.954584">
        <ele>2158.3</ele>
        <time>2018-04-21T12:28:45.000Z</time>
      </trkpt>
      <trkpt lat="40.794682" lon="-3.954598">
        <ele>2158.4</ele>
        <time>2018-04-21T12:28:46.000Z</time>
      </trkpt>
      <trkpt lat="40.794683" lon="-3.954611">
        <ele>2158.6</ele>
        <time>2018-04-21T12:28:47.000Z</time>
      </trkpt>
      <trkpt lat="40.794684" lon="-3.954624">
        <ele>2158.7</ele>
        <time>2018-04-21T12:28:48.000Z</time>
      </trkpt>
      <trkpt lat="40.794686" lon="-3.954636">
        <ele>2158.9</ele>
        <time>2018-04-21T12:28:49.000Z</time>
      </trkpt>
      <trkpt lat="40.794688" lon="-3.954647">
        <ele>2159.0</ele>
        <time>2018-04-21T12:28:50.000Z</time>
      </trkpt>
      <trkpt lat="40.79469" lon="-3.954659">
        <ele>2159.2</ele>
        <time>2018-04-21T12:28:51.000Z</time>
      </trkpt>
      <trkpt lat="40.794692" lon="-3.95467">
        <ele>2159.3</ele>
        <time>2018-04-21T12:28:52.000Z</time>
      </trkpt>
      <trkpt lat="40.794693" lon="-3.954682">
        <ele>2159.5</ele>
        <time>2018-04-21T12:28:53.000Z</time>
      </trkpt>
      <trkpt lat="40.794693" lon="-3.954693">
        <ele>2159.6</ele>
        <time>2018-04-21T12:28:54.000Z</time>
      </trkpt>
      <trkpt lat="40.794693" lon="-3.954706">
        <ele>2159.7</ele>
        <time>2018-04-21T12:28:55.000Z</time>
      </trkpt>
      <trkpt lat="40.794691" lon="-3.954719">
        <ele>2159.9</ele>
        <time>2018-04-21T12:28:56.000Z</time>
      </trkpt>
      <trkpt lat="40.794689" lon="-3.954732">
        <ele>2160.0</ele>
        <time>2018-04-21T12:28:57.000Z</time>
      </trkpt>
      <trkpt lat="40.794687" lon="-3.954745">
        <ele>2160.1</ele>
        <time>2018-04-21T12:28:58.000Z</time>
      </trkpt>
      <trkpt lat="40.794684" lon="-3.954758">
        <ele>2160.3</ele>
        <time>2018-04-21T12:28:59.000Z</time>
      </trkpt>
      <trkpt lat="40.794682" lon="-3.954772">
        <ele>2160.4</ele>
        <time>2018-04-21T12:29:00.000Z</time>
      </trkpt>
      <trkpt lat="40.79468" lon="-3.954785">
        <ele>2160.5</ele>
        <time>2018-04-21T12:29:01.000Z</time>
      </trkpt>
      <trkpt lat="40.794679" lon="-3.954798">
        <ele>2160.7</ele>
        <time>2018-04-21T12:29:02.000Z</time>
      </trkpt>
      <trkpt lat="40.794678" lon="-3.954811">
        <ele>2160.8</ele>
        <time>2018-04-21T12:29:03.000Z</time>
      </trkpt>
      <trkpt lat="40.794678" lon="-3.954824">
        <ele>2160.9</ele>
        <time>2018-04-21T12:29:04.000Z</time>
      </trkpt>
      <trkpt lat="40.794678" lon="-3.954836">
        <ele>2161.1</ele>
        <time>2018-04-21T12:29:05.000Z</time>
      </trkpt>
      <trkpt lat="40.794678" lon="-3.954848">
        <ele>2161.2</ele>
        <time>2018-04-21T12:29:06.000Z</time>
      </trkpt>
      <trkpt lat="40.794679" lon="-3.954861">
        <ele>2161.4</ele>
        <time>2018-04-21T12:29:07.000Z</time>
      </trkpt>
      <trkpt lat="40.79468" lon="-3.954872">
        <ele>2161.5</ele>
        <time>2018-04-21T12:29:08.000Z</time>
      </trkpt>
      <trkpt lat="40.794681" lon="-3.954884">
        <ele>2161.6</ele>
        <time>2018-04-21T12:29:09.000Z</time>
      </trkpt>
      <trkpt lat="40.794681" lon="-3.954896">
        <ele>2161.8</ele>
        <time>2018-04-21T12:29:10.000Z</time>
      </trkpt>
      <trkpt lat="40.794682" lon="-3.954907">
        <ele>2161.9</ele>
        <time>2018-04-21T12:29:11.000Z</time>
      </trkpt>
      <trkpt lat="40.794683" lon="-3.954918">
        <ele>2162.0</ele>
        <time>2018-04-21T12:29:12.000Z</time>
      </trkpt>
      <trkpt lat="40.794684" lon="-3.95493">
        <ele>2162.2</ele>
        <time>2018-04-21T12:29:13.000Z</time>
      </trkpt>
      <trkpt lat="40.794685" lon="-3.954941">
        <ele>2162.3</ele>
        <time>2018-04-21T12:29:14.000Z</time>
      </trkpt>
      <trkpt lat="40.794686" lon="-3.954952">
        <ele>2162.4</ele>
        <time>2018-04-21T12:29:15.000Z</time>
      </trkpt>
      <trkpt lat="40.794688" lon="-3.954962">
        <ele>2162.6</ele>
        <time>2018-04-21T12:29:16.000Z</time>
      </trkpt>
      <trkpt lat="40.794689" lon="-3.954973">
        <ele>2162.7</ele>
        <time>2018-04-21T12:29:17.000Z</time>
      </trkpt>
      <trkpt lat="40.794691" lon="-3.954984">
        <ele>2162.9</ele>
        <time>2018-04-21T12:29:18.000Z</time>
      </trkpt>
      <trkpt lat="40.794692" lon="-3.954994">
        <ele>2163.0</ele>
        <time>2018-04-21T12:29:19.000Z</time>
      </trkpt>
      <trkpt lat="40.794694" lon="-3.955005">
        <ele>2163.1</ele>
        <time>2018-04-21T12:29:20.000Z</time>
      </trkpt>
      <trkpt lat="40.794696" lon="-3.955015">
        <ele>2163.2</ele>
        <time>2018-04-21T12:29:21.000Z</time>
      </trkpt>
      <trkpt lat="40.794698" lon="-3.955025">
        <ele>2163.4</ele>
        <time>2018-04-21T12:29:22.000Z</time>
      </trkpt>
      <trkpt lat="40.7947" lon="-3.955035">
        <ele>2163.5</ele>
        <time>2018-04-21T12:29:23.000Z</time>
      </trkpt>
      <trkpt lat="40.794703" lon="-3.955046">
        <ele>2163.6</ele>
        <time>2018-04-21T12:29:24.000Z</time>
      </trkpt>
      <trkpt lat="40.794705" lon="-3.955056">
        <ele>2163.8</ele>
        <time>2018-04-21T12:29:25.000Z</time>
      </trkpt>
      <trkpt lat="40.794708" lon="-3.955066">
        <ele>2163.9</ele>
        <time>2018-04-21T12:29:26.000Z</time>
      </trkpt>
      <trkpt lat="40.79471" lon="-3.955076">
        <ele>2164.0</ele>
        <time>2018-04-21T12:29:27.000Z</time>
      </trkpt>
      <trkpt lat="40.794713" lon="-3.955086">
        <ele>2164.2</ele>
        <time>2018-04-21T12:29:28.000Z</time>
      </trkpt>
      <trkpt lat="40.794716" lon="-3.955096">
        <ele>2164.3</ele>
        <time>2018-04-21T12:29:29.000Z</time>
      </trkpt>
      <trkpt lat="40.794718" lon="-3.955106">
        <ele>2164.4</ele>
        <time>2018-04-21T12:29:30.000Z</time>
      </trkpt>
      <trkpt lat="40.79472" lon="-3.955116">
        <ele>2164.6</ele>
        <time>2018-04-21T12:29:31.000Z</time>
      </trkpt>
      <trkpt lat="40.794722" lon="-3.955125">
        <ele>2164.7</ele>
        <time>2018-04-21T12:29:32.000Z</time>
      </trkpt>
      <trkpt lat="40.794724" lon="-3.955135">
        <ele>2164.8</ele>
        <time>2018-04-21T12:29:33.000Z</time>
      </trkpt>
      <trkpt lat="40.794726" lon="-3.955145">
        <ele>2164.9</ele>
        <time>2018-04-21T12:29:34.000Z</time>
      </trkpt>
      <trkpt lat="40.794727" lon="-3.955154">
        <ele>2165.0</ele>
        <time>2018-04-21T12:29:35.000Z</time>
      </trkpt>
      <trkpt lat="40.794727" lon="-3.955164">
        <ele>2165.2</ele>
        <time>2018-04-21T12:29:36.000Z</time>
      </trkpt>
      <trkpt lat="40.794728" lon="-3.955173">
        <ele>2165.3</ele>
        <time>2018-04-21T12:29:37.000Z</time>
      </trkpt>
      <trkpt lat="40.794727" lon="-3.955183">
        <ele>2165.4</ele>
        <time>2018-04-21T12:29:38.000Z</time>
      </trkpt>
      <trkpt lat="40.794726" lon="-3.955192">
        <ele>2165.4</ele>
        <time>2018-04-21T12:29:39.000Z</time>
      </trkpt>
      <trkpt lat="40.794725" lon="-3.955202">
        <ele>2165.5</ele>
        <time>2018-04-21T12:29:40.000Z</time>
      </trkpt>
      <trkpt lat="40.794723" lon="-3.955211">
        <ele>2165.6</ele>
        <time>2018-04-21T12:29:41.000Z</time>
      </trkpt>
      <trkpt lat="40.794722" lon="-3.95522">
        <ele>2165.7</ele>
        <time>2018-04-21T12:29:42.000Z</time>
      </trkpt>
      <trkpt lat="40.79472" lon="-3.95523">
        <ele>2165.8</ele>
        <time>2018-04-21T12:29:43.000Z</time>
      </trkpt>
      <trkpt lat="40.794719" lon="-3.95524">
        <ele>2165.9</ele>
        <time>2018-04-21T12:29:44.000Z</time>
      </trkpt>
      <trkpt lat="40.794719" lon="-3.95525">
        <ele>2166.0</ele>
        <time>2018-04-21T12:29:45.000Z</time>
      </trkpt>
      <trkpt lat="40.794719" lon="-3.95526">
        <ele>2166.1</ele>
        <time>2018-04-21T12:29:46.000Z</time>
      </trkpt>
      <trkpt lat="40.794719" lon="-3.95527">
        <ele>2166.2</ele>
        <time>2018-04-21T12:29:47.000Z</time>
      </trkpt>
      <trkpt lat="40.794721" lon="-3.955281">
        <ele>2166.4</ele>
        <time>2018-04-21T12:29:48.000Z</time>
      </trkpt>
      <trkpt lat="40.794723" lon="-3.955292">
        <ele>2166.5</ele>
        <time>2018-04-21T12:29:49.000Z</time>
      </trkpt>
      <trkpt lat="40.794725" lon="-3.955302">
        <ele>2166.6</ele>
        <time>2018-04-21T12:29:50.000Z</time>
      </trkpt>
      <trkpt lat="40.794727" lon="-3.955314">
        <ele>2166.8</ele>
        <time>2018-04-21T12:29:51.000Z</time>
      </trkpt>
      <trkpt lat="40.79473" lon="-3.955325">
        <ele>2166.9</ele>
        <time>2018-04-21T12:29:52.000Z</time>
      </trkpt>
      <trkpt lat="40.794732" lon="-3.955336">
        <ele>2167.1</ele>
        <time>2018-04-21T12:29:53.000Z</time>
      </trkpt>
      <trkpt lat="40.794733" lon="-3.955347">
        <ele>2167.2</ele>
        <time>2018-04-21T12:29:54.000Z</time>
      </trkpt>
      <trkpt lat="40.794735" lon="-3.955358">
        <ele>2167.3</ele>
        <time>2018-04-21T12:29:55.000Z</time>
      </trkpt>
      <trkpt lat="40.794736" lon="-3.955369">
        <ele>2167.5</ele>
        <time>2018-04-21T12:29:56.000Z</time>
      </trkpt>
      <trkpt lat="40.794737" lon="-3.955381">
        <ele>2167.6</ele>
        <time>2018-04-21T12:29:57.000Z</time>
      </trkpt>
      <trkpt lat="40.794737" lon="-3.955392">
        <ele>2167.7</ele>
        <time>2018-04-21T12:29:58.000Z</time>
      </trkpt>
      <trkpt lat="40.794738" lon="-3.955403">
        <ele>2167.8</ele>
        <time>2018-04-21T12:29:59.000Z</time>
      </trkpt>
      <trkpt lat="40.794738" lon="-3.955414">
        <ele>2168.0</ele>
        <time>2018-04-21T12:30:00.000Z</time>
      </trkpt>
      <trkpt lat="40.794738" lon="-3.955424">
        <ele>2168.1</ele>
        <time>2018-04-21T12:30:01.000Z</time>
      </trkpt>
      <trkpt lat="40.794739" lon="-3.955435">
        <ele>2168.2</ele>
        <time>2018-04-21T12:30:02.000Z</time>
      </trkpt>
      <trkpt lat="40.794739" lon="-3.955446">
        <ele>2168.3</ele>
        <time>2018-04-21T12:30:03.000Z</time>
      </trkpt>
      <trkpt lat="40.794739" lon="-3.955457">
        <ele>2168.4</ele>
        <time>2018-04-21T12:30:04.000Z</time>
      </trkpt>
      <trkpt lat="40.794739" lon="-3.955467">
        <ele>2168.5</ele>
        <time>2018-04-21T12:30:05.000Z</time>
      </trkpt>
      <trkpt lat="40.794739" lon="-3.955478">
        <ele>2168.7</ele>
        <time>2018-04-21T12:30:06.000Z</time>
      </trkpt>
      <trkpt lat="40.794739" lon="-3.95549">
        <ele>2168.8</ele>
        <time>2018-04-21T12:30:07.000Z</time>
      </trkpt>
      <trkpt lat="40.794738" lon="-3.955501">
        <ele>2168.9</ele>
        <time>2018-04-21T12:30:08.000Z</time>
      </trkpt>
      <trkpt lat="40.794738" lon="-3.955512">
        <ele>2169.0</ele>
        <time>2018-04-21T12:30:09.000Z</time>
      </trkpt>
      <trkpt lat="40.794737" lon="-3.955523">
        <ele>2169.1</ele>
        <time>2018-04-21T12:30:10.000Z</time>
      </trkpt>
      <trkpt lat="40.794736" lon="-3.955534">
        <ele>2169.2</ele>
        <time>2018-04-21T12:30:11.000Z</time>
      </trkpt>
      <trkpt lat="40.794735" lon="-3.955543">
        <ele>2169.3</ele>
        <time>2018-04-21T12:30:12.000Z</time>
      </trkpt>
      <trkpt lat="40.794735" lon="-3.955552">
        <ele>2169.4</ele>
        <time>2018-04-21T12:30:13.000Z</time>
      </trkpt>
      <trkpt lat="40.794734" lon="-3.955558">
        <ele>2169.5</ele>
        <time>2018-04-21T12:30:14.000Z</time>
      </trkpt>
      <trkpt lat="40.794733" lon="-3.955563">
        <ele>2169.5</ele>
        <time>2018-04-21T12:30:15.000Z</time>
      </trkpt>
      <trkpt lat="40.794733" lon="-3.955566">
        <ele>2169.5</ele>
        <time>2018-04-21T12:30:16.000Z</time>
      </trkpt>
      <trkpt lat="40.794732" lon="-3.955568">
        <ele>2169.6</ele>
        <time>2018-04-21T12:30:17.000Z</time>
      </trkpt>
      <trkpt lat="40.794731" lon="-3.955569">
        <ele>2169.6</ele>
        <time>2018-04-21T12:30:18.000Z</time>
      </trkpt>
      <trkpt lat="40.79473" lon="-3.955572">
        <ele>2169.6</ele>
        <time>2018-04-21T12:30:19.000Z</time>
      </trkpt>
      <trkpt lat="40.794728" lon="-3.955576">
        <ele>2169.6</ele>
        <time>2018-04-21T12:30:20.000Z</time>
      </trkpt>
      <trkpt lat="40.794726" lon="-3.955581">
        <ele>2169.6</ele>
        <time>2018-04-21T12:30:21.000Z</time>
      </trkpt>
      <trkpt lat="40.794723" lon="-3.955588">
        <ele>2169.7</ele>
        <time>2018-04-21T12:30:22.000Z</time>
      </trkpt>
      <trkpt lat="40.794722" lon="-3.955596">
        <ele>2169.8</ele>
        <time>2018-04-21T12:30:23.000Z</time>
      </trkpt>
      <trkpt lat="40.79472" lon="-3.955605">
        <ele>2169.8</ele>
        <time>2018-04-21T12:30:24.000Z</time>
      </trkpt>
      <trkpt lat="40.79472" lon="-3.955615">
        <ele>2170.0</ele>
        <time>2018-04-21T12:30:25.000Z</time>
      </trkpt>
      <trkpt lat="40.794719" lon="-3.955625">
        <ele>2170.1</ele>
        <time>2018-04-21T12:30:26.000Z</time>
      </trkpt>
      <trkpt lat="40.794719" lon="-3.955635">
        <ele>2170.2</ele>
        <time>2018-04-21T12:30:27.000Z</time>
      </trkpt>
      <trkpt lat="40.79472" lon="-3.955646">
        <ele>2170.3</ele>
        <time>2018-04-21T12:30:28.000Z</time>
      </trkpt>
      <trkpt lat="40.79472" lon="-3.955657">
        <ele>2170.4</ele>
        <time>2018-04-21T12:30:29.000Z</time>
      </trkpt>
      <trkpt lat="40.794722" lon="-3.955667">
        <ele>2170.5</ele>
        <time>2018-04-21T12:30:30.000Z</time>
      </trkpt>
      <trkpt lat="40.794723" lon="-3.955676">
        <ele>2170.6</ele>
        <time>2018-04-21T12:30:31.000Z</time>
      </trkpt>
      <trkpt lat="40.794725" lon="-3.955686">
        <ele>2170.8</ele>
        <time>2018-04-21T12:30:32.000Z</time>
      </trkpt>
      <trkpt lat="40.794726" lon="-3.955694">
        <ele>2170.9</ele>
        <time>2018-04-21T12:30:33.000Z</time>
      </trkpt>
      <trkpt lat="40.794728" lon="-3.955703">
        <ele>2171.0</ele>
        <time>2018-04-21T12:30:34.000Z</time>
      </trkpt>
      <trkpt lat="40.79473" lon="-3.955712">
        <ele>2171.1</ele>
        <time>2018-04-21T12:30:35.000Z</time>
      </trkpt>
      <trkpt lat="40.794732" lon="-3.955721">
        <ele>2171.2</ele>
        <time>2018-04-21T12:30:36.000Z</time>
      </trkpt>
      <trkpt lat="40.794733" lon="-3.955731">
        <ele>2171.3</ele>
        <time>2018-04-21T12:30:37.000Z</time>
      </trkpt>
      <trkpt lat="40.794734" lon="-3.955741">
        <ele>2171.4</ele>
        <time>2018-04-21T12:30:38.000Z</time>
      </trkpt>
      <trkpt lat="40.794734" lon="-3.955752">
        <ele>2171.6</ele>
        <time>2018-04-21T12:30:39.000Z</time>
      </trkpt>
      <trkpt lat="40.794735" lon="-3.955763">
        <ele>2171.7</ele>
        <time>2018-04-21T12:30:40.000Z</time>
      </trkpt>
      <trkpt lat="40.794735" lon="-3.955775">
        <ele>2171.8</ele>
        <time>2018-04-21T12:30:41.000Z</time>
      </trkpt>
      <trkpt lat="40.794736" lon="-3.955786">
        <ele>2172.0</ele>
        <time>2018-04-21T12:30:42.000Z</time>
      </trkpt>
      <trkpt lat="40.794737" lon="-3.955797">
        <ele>2172.1</ele>
        <time>2018-04-21T12:30:43.000Z</time>
      </trkpt>
      <trkpt lat="40.794738" lon="-3.955808">
        <ele>2172.2</ele>
        <time>2018-04-21T12:30:44.000Z</time>
      </trkpt>
      <trkpt lat="40.79474" lon="-3.955818">
        <ele>2172.3</ele>
        <time>2018-04-21T12:30:45.000Z</time>
      </trkpt>
      <trkpt lat="40.794743" lon="-3.955827">
        <ele>2172.5</ele>
        <time>2018-04-21T12:30:46.000Z</time>
      </trkpt>
      <trkpt lat="40.794746" lon="-3.955835">
        <ele>2172.6</ele>
        <time>2018-04-21T12:30:47.000Z</time>
      </trkpt>
      <trkpt lat="40.794748" lon="-3.955841">
        <ele>2172.7</ele>
        <time>2018-04-21T12:30:48.000Z</time>
      </trkpt>
      <trkpt lat="40.794749" lon="-3.955845">
        <ele>2172.7</ele>
        <time>2018-04-21T12:30:49.000Z</time>
      </trkpt>
      <trkpt lat="40.794749" lon="-3.955845">
        <ele>2172.7</ele>
        <time>2018-04-21T12:30:50.000Z</time>
      </trkpt>
      <trkpt lat="40.794748" lon="-3.955844">
        <ele>2172.7</ele>
        <time>2018-04-21T12:30:51.000Z</time>
      </trkpt>
      <trkpt lat="40.794748" lon="-3.955845">
        <ele>2172.7</ele>
        <time>2018-04-21T12:30:52.000Z</time>
      </trkpt>
      <trkpt lat="40.794748" lon="-3.95585">
        <ele>2172.7</ele>
        <time>2018-04-21T12:30:53.000Z</time>
      </trkpt>
      <trkpt lat="40.79475" lon="-3.955856">
        <ele>2172.8</ele>
        <time>2018-04-21T12:30:54.000Z</time>
      </trkpt>
      <trkpt lat="40.794752" lon="-3.955863">
        <ele>2172.9</ele>
        <time>2018-04-21T12:30:55.000Z</time>
      </trkpt>
      <trkpt lat="40.794756" lon="-3.955869">
        <ele>2173.0</ele>
        <time>2018-04-21T12:30:56.000Z</time>
      </trkpt>
      <trkpt lat="40.794759" lon="-3.955876">
        <ele>2173.1</ele>
        <time>2018-04-21T12:30:57.000Z</time>
      </trkpt>
      <trkpt lat="40.794763" lon="-3.955882">
        <ele>2173.2</ele>
        <time>2018-04-21T12:30:58.000Z</time>
      </trkpt>
      <trkpt lat="40.794766" lon="-3.955889">
        <ele>2173.3</ele>
        <time>2018-04-21T12:30:59.000Z</time>
      </trkpt>
      <trkpt lat="40.794769" lon="-3.955897">
        <ele>2173.4</ele>
        <time>2018-04-21T12:31:00.000Z</time>
      </trkpt>
      <trkpt lat="40.794771" lon="-3.955906">
        <ele>2173.5</ele>
        <time>2018-04-21T12:31:01.000Z</time>
      </trkpt>
      <trkpt lat="40.794772" lon="-3.955914">
        <ele>2173.6</ele>
        <time>2018-04-21T12:31:02.000Z</time>
      </trkpt>
      <trkpt lat="40.794773" lon="-3.955923">
        <ele>2173.7</ele>
        <time>2018-04-21T12:31:03.000Z</time>
      </trkpt>
      <trkpt lat="40.794773" lon="-3.955931">
        <ele>2173.8</ele>
        <time>2018-04-21T12:31:04.000Z</time>
      </trkpt>
      <trkpt lat="40.794773" lon="-3.955937">
        <ele>2173.8</ele>
        <time>2018-04-21T12:31:05.000Z</time>
      </trkpt>
      <trkpt lat="40.794772" lon="-3.955942">
        <ele>2173.9</ele>
        <time>2018-04-21T12:31:06.000Z</time>
      </trkpt>
      <trkpt lat="40.794771" lon="-3.955945">
        <ele>2173.9</ele>
        <time>2018-04-21T12:31:07.000Z</time>
      </trkpt>
      <trkpt lat="40.79477" lon="-3.955946">
        <ele>2173.9</ele>
        <time>2018-04-21T12:31:08.000Z</time>
      </trkpt>
      <trkpt lat="40.794769" lon="-3.955946">
        <ele>2173.9</ele>
        <time>2018-04-21T12:31:09.000Z</time>
      </trkpt>
      <trkpt lat="40.794768" lon="-3.955945">
        <ele>2173.9</ele>
        <time>2018-04-21T12:31:10.000Z</time>
      </trkpt>
      <trkpt lat="40.794767" lon="-3.955944">
        <ele>2173.9</ele>
        <time>2018-04-21T12:31:11.000Z</time>
      </trkpt>
      <trkpt lat="40.794767" lon="-3.955944">
        <ele>2173.9</ele>
        <time>2018-04-21T12:31:12.000Z</time>
      </trkpt>
      <trkpt lat="40.794766" lon="-3.955945">
        <ele>2173.9</ele>
        <time>2018-04-21T12:31:13.000Z</time>
      </trkpt>
      <trkpt lat="40.794766" lon="-3.955949">
        <ele>2173.9</ele>
        <time>2018-04-21T12:31:14.000Z</time>
      </trkpt>
      <trkpt lat="40.794765" lon="-3.955956">
        <ele>2174.0</ele>
        <time>2018-04-21T12:31:15.000Z</time>
      </trkpt>
      <trkpt lat="40.794765" lon="-3.955965">
        <ele>2174.1</ele>
        <time>2018-04-21T12:31:16.000Z</time>
      </trkpt>
      <trkpt lat="40.794764" lon="-3.955975">
        <ele>2174.1</ele>
        <time>2018-04-21T12:31:17.000Z</time>
      </trkpt>
      <trkpt lat="40.794763" lon="-3.955984">
        <ele>2174.2</ele>
        <time>2018-04-21T12:31:18.000Z</time>
      </trkpt>
      <trkpt lat="40.794762" lon="-3.955992">
        <ele>2174.3</ele>
        <time>2018-04-21T12:31:19.000Z</time>
      </trkpt>
      <trkpt lat="40.794761" lon="-3.955997">
        <ele>2174.3</ele>
        <time>2018-04-21T12:31:20.000Z</time>
      </trkpt>
      <trkpt lat="40.79476" lon="-3.956001">
        <ele>2174.4</ele>
        <time>2018-04-21T12:31:21.000Z</time>
      </trkpt>
      <trkpt lat="40.79476" lon="-3.956002">
        <ele>2174.4</ele>
        <time>2018-04-21T12:31:22.000Z</time>
      </trkpt>
      <trkpt lat="40.794759" lon="-3.956002">
        <ele>2174.4</ele>
        <time>2018-04-21T12:31:23.000Z</time>
      </trkpt>
      <trkpt lat="40.794759" lon="-3.956001">
        <ele>2174.4</ele>
        <time>2018-04-21T12:31:24.000Z</time>
      </trkpt>
      <trkpt lat="40.794759" lon="-3.956">
        <ele>2174.3</ele>
        <time>2018-04-21T12:31:25.000Z</time>
      </trkpt>
      <trkpt lat="40.794759" lon="-3.955999">
        <ele>2174.3</ele>
        <time>2018-04-21T12:31:26.000Z</time>
      </trkpt>
      <trkpt lat="40.794759" lon="-3.955999">
        <ele>2174.3</ele>
        <time>2018-04-21T12:31:27.000Z</time>
      </trkpt>
      <trkpt lat="40.794759" lon="-3.956">
        <ele>2174.3</ele>
        <time>2018-04-21T12:31:28.000Z</time>
      </trkpt>
      <trkpt lat="40.794759" lon="-3.956004">
        <ele>2174.4</ele>
        <time>2018-04-21T12:31:29.000Z</time>
      </trkpt>
      <trkpt lat="40.794758" lon="-3.95601">
        <ele>2174.4</ele>
        <time>2018-04-21T12:31:30.000Z</time>
      </trkpt>
      <trkpt lat="40.794758" lon="-3.956019">
        <ele>2174.5</ele>
        <time>2018-04-21T12:31:31.000Z</time>
      </trkpt>
      <trkpt lat="40.794757" lon="-3.956029">
        <ele>2174.6</ele>
        <time>2018-04-21T12:31:32.000Z</time>
      </trkpt>
      <trkpt lat="40.794756" lon="-3.95604">
        <ele>2174.7</ele>
        <time>2018-04-21T12:31:33.000Z</time>
      </trkpt>
      <trkpt lat="40.794755" lon="-3.956052">
        <ele>2174.8</ele>
        <time>2018-04-21T12:31:34.000Z</time>
      </trkpt>
      <trkpt lat="40.794755" lon="-3.956065">
        <ele>2175.0</ele>
        <time>2018-04-21T12:31:35.000Z</time>
      </trkpt>
      <trkpt lat="40.794754" lon="-3.956077">
        <ele>2175.1</ele>
        <time>2018-04-21T12:31:36.000Z</time>
      </trkpt>
      <trkpt lat="40.794754" lon="-3.956088">
        <ele>2175.2</ele>
        <time>2018-04-21T12:31:37.000Z</time>
      </trkpt>
      <trkpt lat="40.794755" lon="-3.956099">
        <ele>2175.3</ele>
        <time>2018-04-21T12:31:38.000Z</time>
      </trkpt>
      <trkpt lat="40.794755" lon="-3.956109">
        <ele>2175.4</ele>
        <time>2018-04-21T12:31:39.000Z</time>
      </trkpt>
      <trkpt lat="40.794755" lon="-3.956119">
        <ele>2175.5</ele>
        <time>2018-04-21T12:31:40.000Z</time>
      </trkpt>
      <trkpt lat="40.794755" lon="-3.956129">
        <ele>2175.6</ele>
        <time>2018-04-21T12:31:41.000Z</time>
      </trkpt>
      <trkpt lat="40.794755" lon="-3.956138">
        <ele>2175.7</ele>
        <time>2018-04-21T12:31:42.000Z</time>
      </trkpt>
      <trkpt lat="40.794755" lon="-3.956147">
        <ele>2175.8</ele>
        <time>2018-04-21T12:31:43.000Z</time>
      </trkpt>
      <trkpt lat="40.794754" lon="-3.956157">
        <ele>2175.9</ele>
        <time>2018-04-21T12:31:44.000Z</time>
      </trkpt>
      <trkpt lat="40.794753" lon="-3.956166">
        <ele>2175.9</ele>
        <time>2018-04-21T12:31:45.000Z</time>
      </trkpt>
      <trkpt lat="40.794751" lon="-3.956176">
        <ele>2176.0</ele>
        <time>2018-04-21T12:31:46.000Z</time>
      </trkpt>
      <trkpt lat="40.79475" lon="-3.956185">
        <ele>2176.1</ele>
        <time>2018-04-21T12:31:47.000Z</time>
      </trkpt>
      <trkpt lat="40.794748" lon="-3.956195">
        <ele>2176.2</ele>
        <time>2018-04-21T12:31:48.000Z</time>
      </trkpt>
      <trkpt lat="40.794746" lon="-3.956205">
        <ele>2176.3</ele>
        <time>2018-04-21T12:31:49.000Z</time>
      </trkpt>
      <trkpt lat="40.794746" lon="-3.956214">
        <ele>2176.4</ele>
        <time>2018-04-21T12:31:50.000Z</time>
      </trkpt>
      <trkpt lat="40.794745" lon="-3.956223">
        <ele>2176.4</ele>
        <time>2018-04-21T12:31:51.000Z</time>
      </trkpt>
      <trkpt lat="40.794746" lon="-3.956233">
        <ele>2176.5</ele>
        <time>2018-04-21T12:31:52.000Z</time>
      </trkpt>
      <trkpt lat="40.794747" lon="-3.956242">
        <ele>2176.6</ele>
        <time>2018-04-21T12:31:53.000Z</time>
      </trkpt>
      <trkpt lat="40.794748" lon="-3.956251">
        <ele>2176.7</ele>
        <time>2018-04-21T12:31:54.000Z</time>
      </trkpt>
      <trkpt lat="40.79475" lon="-3.95626">
        <ele>2176.8</ele>
        <time>2018-04-21T12:31:55.000Z</time>
      </trkpt>
      <trkpt lat="40.794751" lon="-3.956269">
        <ele>2176.9</ele>
        <time>2018-04-21T12:31:56.000Z</time>
      </trkpt>
      <trkpt lat="40.794752" lon="-3.956279">
        <ele>2177.1</ele>
        <time>2018-04-21T12:31:57.000Z</time>
      </trkpt>
      <trkpt lat="40.794752" lon="-3.956289">
        <ele>2177.2</ele>
        <time>2018-04-21T12:31:58.000Z</time>
      </trkpt>
      <trkpt lat="40.794751" lon="-3.9563">
        <ele>2177.3</ele>
        <time>2018-04-21T12:31:59.000Z</time>
      </trkpt>
      <trkpt lat="40.79475" lon="-3.956311">
        <ele>2177.4</ele>
        <time>2018-04-21T12:32:00.000Z</time>
      </trkpt>
      <trkpt lat="40.794748" lon="-3.956322">
        <ele>2177.4</ele>
        <time>2018-04-21T12:32:01.000Z</time>
      </trkpt>
      <trkpt lat="40.794746" lon="-3.956333">
        <ele>2177.5</ele>
        <time>2018-04-21T12:32:02.000Z</time>
      </trkpt>
      <trkpt lat="40.794744" lon="-3.956344">
        <ele>2177.6</ele>
        <time>2018-04-21T12:32:03.000Z</time>
      </trkpt>
      <trkpt lat="40.794742" lon="-3.956355">
        <ele>2177.7</ele>
        <time>2018-04-21T12:32:04.000Z</time>
      </trkpt>
      <trkpt lat="40.79474" lon="-3.956365">
        <ele>2177.8</ele>
        <time>2018-04-21T12:32:05.000Z</time>
      </trkpt>
      <trkpt lat="40.794739" lon="-3.956375">
        <ele>2177.9</ele>
        <time>2018-04-21T12:32:06.000Z</time>
      </trkpt>
      <trkpt lat="40.794738" lon="-3.956384">
        <ele>2178.0</ele>
        <time>2018-04-21T12:32:07.000Z</time>
      </trkpt>
      <trkpt lat="40.794737" lon="-3.956392">
        <ele>2178.0</ele>
        <time>2018-04-21T12:32:08.000Z</time>
      </trkpt>
      <trkpt lat="40.794737" lon="-3.956399">
        <ele>2178.1</ele>
        <time>2018-04-21T12:32:09.000Z</time>
      </trkpt>
      <trkpt lat="40.794737" lon="-3.956405">
        <ele>2178.2</ele>
        <time>2018-04-21T12:32:10.000Z</time>
      </trkpt>
      <trkpt lat="40.794737" lon="-3.95641">
        <ele>2178.2</ele>
        <time>2018-04-21T12:32:11.000Z</time>
      </trkpt>
      <trkpt lat="40.794737" lon="-3.956413">
        <ele>2178.3</ele>
        <time>2018-04-21T12:32:12.000Z</time>
      </trkpt>
      <trkpt lat="40.794737" lon="-3.956415">
        <ele>2178.3</ele>
        <time>2018-04-21T12:32:13.000Z</time>
      </trkpt>
      <trkpt lat="40.794737" lon="-3.956416">
        <ele>2178.3</ele>
        <time>2018-04-21T12:32:14.000Z</time>
      </trkpt>
      <trkpt lat="40.794737" lon="-3.956415">
        <ele>2178.3</ele>
        <time>2018-04-21T12:32:15.000Z</time>
      </trkpt>
      <trkpt lat="40.794737" lon="-3.956414">
        <ele>2178.3</ele>
        <time>2018-04-21T12:32:16.000Z</time>
      </trkpt>
      <trkpt lat="40.794737" lon="-3.956414">
        <ele>2178.3</ele>
        <time>2018-04-21T12:32:17.000Z</time>
      </trkpt>
      <trkpt lat="40.794737" lon="-3.956414">
        <ele>2178.3</ele>
        <time>2018-04-21T12:32:18.000Z</time>
      </trkpt>
      <trkpt lat="40.794737" lon="-3.956415">
        <ele>2178.3</ele>
        <time>2018-04-21T12:32:19.000Z</time>
      </trkpt>
      <trkpt lat="40.794737" lon="-3.956419">
        <ele>2178.3</ele>
        <time>2018-04-21T12:32:20.000Z</time>
      </trkpt>
      <trkpt lat="40.794737" lon="-3.956424">
        <ele>2178.4</ele>
        <time>2018-04-21T12:32:21.000Z</time>
      </trkpt>
      <trkpt lat="40.794736" lon="-3.956432">
        <ele>2178.4</ele>
        <time>2018-04-21T12:32:22.000Z</time>
      </trkpt>
      <trkpt lat="40.794736" lon="-3.956442">
        <ele>2178.5</ele>
        <time>2018-04-21T12:32:23.000Z</time>
      </trkpt>
      <trkpt lat="40.794736" lon="-3.956453">
        <ele>2178.6</ele>
        <time>2018-04-21T12:32:24.000Z</time>
      </trkpt>
      <trkpt lat="40.794736" lon="-3.956464">
        <ele>2178.8</ele>
        <time>2018-04-21T12:32:25.000Z</time>
      </trkpt>
      <trkpt lat="40.794736" lon="-3.956476">
        <ele>2178.9</ele>
        <time>2018-04-21T12:32:26.000Z</time>
      </trkpt>
      <trkpt lat="40.794737" lon="-3.956488">
        <ele>2179.0</ele>
        <time>2018-04-21T12:32:27.000Z</time>
      </trkpt>
      <trkpt lat="40.794738" lon="-3.9565">
        <ele>2179.1</ele>
        <time>2018-04-21T12:32:28.000Z</time>
      </trkpt>
      <trkpt lat="40.794739" lon="-3.956511">
        <ele>2179.3</ele>
        <time>2018-04-21T12:32:29.000Z</time>
      </trkpt>
      <trkpt lat="40.794741" lon="-3.956522">
        <ele>2179.4</ele>
        <time>2018-04-21T12:32:30.000Z</time>
      </trkpt>
      <trkpt lat="40.794743" lon="-3.956532">
        <ele>2179.5</ele>
        <time>2018-04-21T12:32:31.000Z</time>
      </trkpt>
      <trkpt lat="40.794745" lon="-3.956542">
        <ele>2179.6</ele>
        <time>2018-04-21T12:32:32.000Z</time>
      </trkpt>
      <trkpt lat="40.794747" lon="-3.956552">
        <ele>2179.7</ele>
        <time>2018-04-21T12:32:33.000Z</time>
      </trkpt>
      <trkpt lat="40.794749" lon="-3.956561">
        <ele>2179.8</ele>
        <time>2018-04-21T12:32:34.000Z</time>
      </trkpt>
      <trkpt lat="40.794751" lon="-3.956571">
        <ele>2180.0</ele>
        <time>2018-04-21T12:32:35.000Z</time>
      </trkpt>
      <trkpt lat="40.794754" lon="-3.95658">
        <ele>2180.1</ele>
        <time>2018-04-21T12:32:36.000Z</time>
      </trkpt>
      <trkpt lat="40.794756" lon="-3.956589">
        <ele>2180.2</ele>
        <time>2018-04-21T12:32:37.000Z</time>
      </trkpt>
      <trkpt lat="40.794758" lon="-3.956597">
        <ele>2180.3</ele>
        <time>2018-04-21T12:32:38.000Z</time>
      </trkpt>
      <trkpt lat="40.79476" lon="-3.956605">
        <ele>2180.4</ele>
        <time>2018-04-21T12:32:39.000Z</time>
      </trkpt>
      <trkpt lat="40.794762" lon="-3.956611">
        <ele>2180.4</ele>
        <time>2018-04-21T12:32:40.000Z</time>
      </trkpt>
      <trkpt lat="40.794763" lon="-3.956617">
        <ele>2180.5</ele>
        <time>2018-04-21T12:32:41.000Z</time>
      </trkpt>
      <trkpt lat="40.794764" lon="-3.956622">
        <ele>2180.6</ele>
        <time>2018-04-21T12:32:42.000Z</time>
      </trkpt>
      <trkpt lat="40.794764" lon="-3.956625">
        <ele>2180.6</ele>
        <time>2018-04-21T12:32:43.000Z</time>
      </trkpt>
      <trkpt lat="40.794764" lon="-3.956627">
        <ele>2180.6</ele>
        <time>2018-04-21T12:32:44.000Z</time>
      </trkpt>
      <trkpt lat="40.794763" lon="-3.956629">
        <ele>2180.6</ele>
        <time>2018-04-21T12:32:45.000Z</time>
      </trkpt>
      <trkpt lat="40.794763" lon="-3.956629">
        <ele>2180.6</ele>
        <time>2018-04-21T12:32:46.000Z</time>
      </trkpt>
      <trkpt lat="40.794762" lon="-3.95663">
        <ele>2180.6</ele>
        <time>2018-04-21T12:32:47.000Z</time>
      </trkpt>
      <trkpt lat="40.794762" lon="-3.956629">
        <ele>2180.6</ele>
        <time>2018-04-21T12:32:48.000Z</time>
      </trkpt>
      <trkpt lat="40.794761" lon="-3.956629">
        <ele>2180.6</ele>
        <time>2018-04-21T12:32:56.000Z</time>
      </trkpt>
      <trkpt lat="40.794761" lon="-3.956629">
        <ele>2180.6</ele>
        <time>2018-04-21T12:32:57.000Z</time>
      </trkpt>
      <trkpt lat="40.794761" lon="-3.956629">
        <ele>2180.6</ele>
        <time>2018-04-21T12:32:58.000Z</time>
      </trkpt>
      <trkpt lat="40.794761" lon="-3.956629">
        <ele>2180.6</ele>
        <time>2018-04-21T12:32:59.000Z</time>
      </trkpt>
      <trkpt lat="40.794761" lon="-3.956629">
        <ele>2180.6</ele>
        <time>2018-04-21T12:33:00.000Z</time>
      </trkpt>
      <trkpt lat="40.794761" lon="-3.956629">
        <ele>2180.6</ele>
        <time>2018-04-21T12:33:01.000Z</time>
      </trkpt>
      <trkpt lat="40.79476" lon="-3.95663">
        <ele>2180.6</ele>
        <time>2018-04-21T12:33:02.000Z</time>
      </trkpt>
      <trkpt lat="40.794759" lon="-3.956632">
        <ele>2180.6</ele>
        <time>2018-04-21T12:33:03.000Z</time>
      </trkpt>
      <trkpt lat="40.794758" lon="-3.956634">
        <ele>2180.6</ele>
        <time>2018-04-21T12:33:04.000Z</time>
      </trkpt>
      <trkpt lat="40.794757" lon="-3.956636">
        <ele>2180.7</ele>
        <time>2018-04-21T12:33:05.000Z</time>
      </trkpt>
      <trkpt lat="40.794757" lon="-3.956639">
        <ele>2180.7</ele>
        <time>2018-04-21T12:33:06.000Z</time>
      </trkpt>
      <trkpt lat="40.794759" lon="-3.956643">
        <ele>2180.7</ele>
        <time>2018-04-21T12:33:07.000Z</time>
      </trkpt>
      <trkpt lat="40.794764" lon="-3.956647">
        <ele>2180.8</ele>
        <time>2018-04-21T12:33:08.000Z</time>
      </trkpt>
      <trkpt lat="40.79477" lon="-3.956652">
        <ele>2180.9</ele>
        <time>2018-04-21T12:33:09.000Z</time>
      </trkpt>
      <trkpt lat="40.794777" lon="-3.956657">
        <ele>2181.0</ele>
        <time>2018-04-21T12:33:10.000Z</time>
      </trkpt>
      <trkpt lat="40.794783" lon="-3.956662">
        <ele>2181.1</ele>
        <time>2018-04-21T12:33:11.000Z</time>
      </trkpt>
      <trkpt lat="40.794788" lon="-3.956667">
        <ele>2181.2</ele>
        <time>2018-04-21T12:33:12.000Z</time>
      </trkpt>
      <trkpt lat="40.794792" lon="-3.956671">
        <ele>2181.3</ele>
        <time>2018-04-21T12:33:13.000Z</time>
      </trkpt>
      <trkpt lat="40.794795" lon="-3.956676">
        <ele>2181.5</ele>
        <time>2018-04-21T12:33:14.000Z</time>
      </trkpt>
      <trkpt lat="40.794798" lon="-3.95668">
        <ele>2181.6</ele>
        <time>2018-04-21T12:33:15.000Z</time>
      </trkpt>
      <trkpt lat="40.7948" lon="-3.956683">
        <ele>2181.6</ele>
        <time>2018-04-21T12:33:16.000Z</time>
      </trkpt>
      <trkpt lat="40.794801" lon="-3.956686">
        <ele>2181.7</ele>
        <time>2018-04-21T12:33:17.000Z</time>
      </trkpt>
      <trkpt lat="40.794802" lon="-3.956688">
        <ele>2181.7</ele>
        <time>2018-04-21T12:33:18.000Z</time>
      </trkpt>
      <trkpt lat="40.794803" lon="-3.956689">
        <ele>2181.8</ele>
        <time>2018-04-21T12:33:19.000Z</time>
      </trkpt>
      <trkpt lat="40.794803" lon="-3.956689">
        <ele>2181.8</ele>
        <time>2018-04-21T12:33:20.000Z</time>
      </trkpt>
      <trkpt lat="40.794803" lon="-3.95669">
        <ele>2181.8</ele>
        <time>2018-04-21T12:33:21.000Z</time>
      </trkpt>
      <trkpt lat="40.794802" lon="-3.956689">
        <ele>2181.8</ele>
        <time>2018-04-21T12:33:22.000Z</time>
      </trkpt>
      <trkpt lat="40.794802" lon="-3.956689">
        <ele>2181.8</ele>
        <time>2018-04-21T12:33:23.000Z</time>
      </trkpt>
      <trkpt lat="40.794801" lon="-3.956688">
        <ele>2181.7</ele>
        <time>2018-04-21T12:33:24.000Z</time>
      </trkpt>
      <trkpt lat="40.794801" lon="-3.956688">
        <ele>2181.7</ele>
        <time>2018-04-21T12:33:25.000Z</time>
      </trkpt>
      <trkpt lat="40.7948" lon="-3.956688">
        <ele>2181.7</ele>
        <time>2018-04-21T12:33:26.000Z</time>
      </trkpt>
      <trkpt lat="40.7948" lon="-3.956687">
        <ele>2181.7</ele>
        <time>2018-04-21T12:33:27.000Z</time>
      </trkpt>
      <trkpt lat="40.7948" lon="-3.956688">
        <ele>2181.7</ele>
        <time>2018-04-21T12:33:28.000Z</time>
      </trkpt>
      <trkpt lat="40.7948" lon="-3.956688">
        <ele>2181.7</ele>
        <time>2018-04-21T12:33:29.000Z</time>
      </trkpt>
      <trkpt lat="40.7948" lon="-3.956688">
        <ele>2181.7</ele>
        <time>2018-04-21T12:33:30.000Z</time>
      </trkpt>
      <trkpt lat="40.7948" lon="-3.956688">
        <ele>2181.7</ele>
        <time>2018-04-21T12:33:31.000Z</time>
      </trkpt>
      <trkpt lat="40.7948" lon="-3.956687">
        <ele>2181.7</ele>
        <time>2018-04-21T12:33:32.000Z</time>
      </trkpt>
      <trkpt lat="40.7948" lon="-3.956687">
        <ele>2181.7</ele>
        <time>2018-04-21T12:33:33.000Z</time>
      </trkpt>
      <trkpt lat="40.7948" lon="-3.956686">
        <ele>2181.7</ele>
        <time>2018-04-21T12:33:34.000Z</time>
      </trkpt>
      <trkpt lat="40.7948" lon="-3.956686">
        <ele>2181.7</ele>
        <time>2018-04-21T12:33:35.000Z</time>
      </trkpt>
      <trkpt lat="40.7948" lon="-3.956687">
        <ele>2181.7</ele>
        <time>2018-04-21T12:33:36.000Z</time>
      </trkpt>
      <trkpt lat="40.794799" lon="-3.95669">
        <ele>2181.8</ele>
        <time>2018-04-21T12:33:37.000Z</time>
      </trkpt>
      <trkpt lat="40.794799" lon="-3.956696">
        <ele>2181.9</ele>
        <time>2018-04-21T12:33:38.000Z</time>
      </trkpt>
      <trkpt lat="40.794798" lon="-3.956704">
        <ele>2182.0</ele>
        <time>2018-04-21T12:33:39.000Z</time>
      </trkpt>
      <trkpt lat="40.794798" lon="-3.956712">
        <ele>2182.2</ele>
        <time>2018-04-21T12:33:40.000Z</time>
      </trkpt>
      <trkpt lat="40.794797" lon="-3.956721">
        <ele>2182.3</ele>
        <time>2018-04-21T12:33:41.000Z</time>
      </trkpt>
      <trkpt lat="40.794796" lon="-3.956728">
        <ele>2182.5</ele>
        <time>2018-04-21T12:33:42.000Z</time>
      </trkpt>
      <trkpt lat="40.794794" lon="-3.956736">
        <ele>2182.6</ele>
        <time>2018-04-21T12:33:43.000Z</time>
      </trkpt>
      <trkpt lat="40.794793" lon="-3.956743">
        <ele>2182.7</ele>
        <time>2018-04-21T12:33:44.000Z</time>
      </trkpt>
      <trkpt lat="40.794792" lon="-3.95675">
        <ele>2182.9</ele>
        <time>2018-04-21T12:33:45.000Z</time>
      </trkpt>
      <trkpt lat="40.79479" lon="-3.956757">
        <ele>2183.0</ele>
        <time>2018-04-21T12:33:46.000Z</time>
      </trkpt>
      <trkpt lat="40.794789" lon="-3.956764">
        <ele>2183.1</ele>
        <time>2018-04-21T12:33:47.000Z</time>
      </trkpt>
      <trkpt lat="40.794788" lon="-3.956771">
        <ele>2183.2</ele>
        <time>2018-04-21T12:33:48.000Z</time>
      </trkpt>
      <trkpt lat="40.794786" lon="-3.956778">
        <ele>2183.3</ele>
        <time>2018-04-21T12:33:49.000Z</time>
      </trkpt>
      <trkpt lat="40.794785" lon="-3.956785">
        <ele>2183.5</ele>
        <time>2018-04-21T12:33:50.000Z</time>
      </trkpt>
      <trkpt lat="40.794785" lon="-3.956792">
        <ele>2183.6</ele>
        <time>2018-04-21T12:33:51.000Z</time>
      </trkpt>
      <trkpt lat="40.794784" lon="-3.9568">
        <ele>2183.7</ele>
        <time>2018-04-21T12:33:52.000Z</time>
      </trkpt>
      <trkpt lat="40.794784" lon="-3.956808">
        <ele>2183.9</ele>
        <time>2018-04-21T12:33:53.000Z</time>
      </trkpt>
      <trkpt lat="40.794784" lon="-3.956816">
        <ele>2184.1</ele>
        <time>2018-04-21T12:33:54.000Z</time>
      </trkpt>
      <trkpt lat="40.794785" lon="-3.956825">
        <ele>2184.2</ele>
        <time>2018-04-21T12:33:55.000Z</time>
      </trkpt>
      <trkpt lat="40.794786" lon="-3.956834">
        <ele>2184.4</ele>
        <time>2018-04-21T12:33:56.000Z</time>
      </trkpt>
      <trkpt lat="40.794787" lon="-3.956843">
        <ele>2184.6</ele>
        <time>2018-04-21T12:33:57.000Z</time>
      </trkpt>
      <trkpt lat="40.794789" lon="-3.956852">
        <ele>2184.8</ele>
        <time>2018-04-21T12:33:58.000Z</time>
      </trkpt>
      <trkpt lat="40.79479" lon="-3.956861">
        <ele>2185.0</ele>
        <time>2018-04-21T12:33:59.000Z</time>
      </trkpt>
      <trkpt lat="40.794792" lon="-3.956869">
        <ele>2185.1</ele>
        <time>2018-04-21T12:34:00.000Z</time>
      </trkpt>
      <trkpt lat="40.794794" lon="-3.956877">
        <ele>2185.3</ele>
        <time>2018-04-21T12:34:01.000Z</time>
      </trkpt>
      <trkpt lat="40.794796" lon="-3.956885">
        <ele>2185.5</ele>
        <time>2018-04-21T12:34:02.000Z</time>
      </trkpt>
      <trkpt lat="40.794798" lon="-3.956892">
        <ele>2185.6</ele>
        <time>2018-04-21T12:34:03.000Z</time>
      </trkpt>
      <trkpt lat="40.794801" lon="-3.9569">
        <ele>2185.8</ele>
        <time>2018-04-21T12:34:04.000Z</time>
      </trkpt>
      <trkpt lat="40.794803" lon="-3.956907">
        <ele>2186.0</ele>
        <time>2018-04-21T12:34:05.000Z</time>
      </trkpt>
      <trkpt lat="40.794806" lon="-3.956914">
        <ele>2186.1</ele>
        <time>2018-04-21T12:34:06.000Z</time>
      </trkpt>
      <trkpt lat="40.794808" lon="-3.956921">
        <ele>2186.3</ele>
        <time>2018-04-21T12:34:07.000Z</time>
      </trkpt>
      <trkpt lat="40.794809" lon="-3.956928">
        <ele>2186.4</ele>
        <time>2018-04-21T12:34:08.000Z</time>
      </trkpt>
      <trkpt lat="40.794809" lon="-3.956935">
        <ele>2186.5</ele>
        <time>2018-04-21T12:34:09.000Z</time>
      </trkpt>
      <trkpt lat="40.794808" lon="-3.956942">
        <ele>2186.7</ele>
        <time>2018-04-21T12:34:10.000Z</time>
      </trkpt>
      <trkpt lat="40.794806" lon="-3.956949">
        <ele>2186.8</ele>
        <time>2018-04-21T12:34:11.000Z</time>
      </trkpt>
      <trkpt lat="40.794804" lon="-3.956956">
        <ele>2186.9</ele>
        <time>2018-04-21T12:34:12.000Z</time>
      </trkpt>
      <trkpt lat="40.794801" lon="-3.956964">
        <ele>2187.0</ele>
        <time>2018-04-21T12:34:13.000Z</time>
      </trkpt>
      <trkpt lat="40.794797" lon="-3.956972">
        <ele>2187.2</ele>
        <time>2018-04-21T12:34:14.000Z</time>
      </trkpt>
      <trkpt lat="40.794793" lon="-3.95698">
        <ele>2187.3</ele>
        <time>2018-04-21T12:34:15.000Z</time>
      </trkpt>
      <trkpt lat="40.794789" lon="-3.956988">
        <ele>2187.4</ele>
        <time>2018-04-21T12:34:16.000Z</time>
      </trkpt>
      <trkpt lat="40.794785" lon="-3.956997">
        <ele>2187.5</ele>
        <time>2018-04-21T12:34:17.000Z</time>
      </trkpt>
      <trkpt lat="40.794781" lon="-3.957006">
        <ele>2187.7</ele>
        <time>2018-04-21T12:34:18.000Z</time>
      </trkpt>
      <trkpt lat="40.794778" lon="-3.957016">
        <ele>2187.8</ele>
        <time>2018-04-21T12:34:19.000Z</time>
      </trkpt>
      <trkpt lat="40.794774" lon="-3.957026">
        <ele>2188.0</ele>
        <time>2018-04-21T12:34:20.000Z</time>
      </trkpt>
      <trkpt lat="40.79477" lon="-3.957036">
        <ele>2188.2</ele>
        <time>2018-04-21T12:34:21.000Z</time>
      </trkpt>
      <trkpt lat="40.794767" lon="-3.957046">
        <ele>2188.3</ele>
        <time>2018-04-21T12:34:22.000Z</time>
      </trkpt>
      <trkpt lat="40.794763" lon="-3.957055">
        <ele>2188.5</ele>
        <time>2018-04-21T12:34:23.000Z</time>
      </trkpt>
      <trkpt lat="40.794759" lon="-3.957064">
        <ele>2188.6</ele>
        <time>2018-04-21T12:34:24.000Z</time>
      </trkpt>
      <trkpt lat="40.794755" lon="-3.957073">
        <ele>2188.7</ele>
        <time>2018-04-21T12:34:25.000Z</time>
      </trkpt>
      <trkpt lat="40.79475" lon="-3.95708">
        <ele>2188.8</ele>
        <time>2018-04-21T12:34:26.000Z</time>
      </trkpt>
      <trkpt lat="40.794746" lon="-3.957088">
        <ele>2189.0</ele>
        <time>2018-04-21T12:34:27.000Z</time>
      </trkpt>
      <trkpt lat="40.794742" lon="-3.957095">
        <ele>2189.1</ele>
        <time>2018-04-21T12:34:28.000Z</time>
      </trkpt>
      <trkpt lat="40.794738" lon="-3.957102">
        <ele>2189.2</ele>
        <time>2018-04-21T12:34:29.000Z</time>
      </trkpt>
      <trkpt lat="40.794734" lon="-3.95711">
        <ele>2189.3</ele>
        <time>2018-04-21T12:34:30.000Z</time>
      </trkpt>
      <trkpt lat="40.794731" lon="-3.957117">
        <ele>2189.4</ele>
        <time>2018-04-21T12:34:31.000Z</time>
      </trkpt>
      <trkpt lat="40.794729" lon="-3.957126">
        <ele>2189.5</ele>
        <time>2018-04-21T12:34:32.000Z</time>
      </trkpt>
      <trkpt lat="40.794727" lon="-3.957135">
        <ele>2189.7</ele>
        <time>2018-04-21T12:34:33.000Z</time>
      </trkpt>
      <trkpt lat="40.794726" lon="-3.957144">
        <ele>2189.9</ele>
        <time>2018-04-21T12:34:34.000Z</time>
      </trkpt>
      <trkpt lat="40.794726" lon="-3.957154">
        <ele>2190.1</ele>
        <time>2018-04-21T12:34:35.000Z</time>
      </trkpt>
      <trkpt lat="40.794727" lon="-3.957165">
        <ele>2190.3</ele>
        <time>2018-04-21T12:34:36.000Z</time>
      </trkpt>
      <trkpt lat="40.794728" lon="-3.957175">
        <ele>2190.5</ele>
        <time>2018-04-21T12:34:37.000Z</time>
      </trkpt>
      <trkpt lat="40.794729" lon="-3.957185">
        <ele>2190.7</ele>
        <time>2018-04-21T12:34:38.000Z</time>
      </trkpt>
      <trkpt lat="40.794731" lon="-3.957195">
        <ele>2190.9</ele>
        <time>2018-04-21T12:34:39.000Z</time>
      </trkpt>
      <trkpt lat="40.794733" lon="-3.957205">
        <ele>2191.1</ele>
        <time>2018-04-21T12:34:40.000Z</time>
      </trkpt>
      <trkpt lat="40.794735" lon="-3.957214">
        <ele>2191.3</ele>
        <time>2018-04-21T12:34:41.000Z</time>
      </trkpt>
      <trkpt lat="40.794738" lon="-3.957224">
        <ele>2191.5</ele>
        <time>2018-04-21T12:34:42.000Z</time>
      </trkpt>
      <trkpt lat="40.79474" lon="-3.957233">
        <ele>2191.7</ele>
        <time>2018-04-21T12:34:43.000Z</time>
      </trkpt>
      <trkpt lat="40.794743" lon="-3.957242">
        <ele>2191.9</ele>
        <time>2018-04-21T12:34:44.000Z</time>
      </trkpt>
      <trkpt lat="40.794746" lon="-3.95725">
        <ele>2192.1</ele>
        <time>2018-04-21T12:34:45.000Z</time>
      </trkpt>
      <trkpt lat="40.794749" lon="-3.957259">
        <ele>2192.3</ele>
        <time>2018-04-21T12:34:46.000Z</time>
      </trkpt>
      <trkpt lat="40.794751" lon="-3.957269">
        <ele>2192.5</ele>
        <time>2018-04-21T12:34:47.000Z</time>
      </trkpt>
      <trkpt lat="40.794754" lon="-3.957278">
        <ele>2192.7</ele>
        <time>2018-04-21T12:34:48.000Z</time>
      </trkpt>
      <trkpt lat="40.794756" lon="-3.957287">
        <ele>2192.9</ele>
        <time>2018-04-21T12:34:49.000Z</time>
      </trkpt>
      <trkpt lat="40.794758" lon="-3.957297">
        <ele>2193.1</ele>
        <time>2018-04-21T12:34:50.000Z</time>
      </trkpt>
      <trkpt lat="40.79476" lon="-3.957307">
        <ele>2193.3</ele>
        <time>2018-04-21T12:34:51.000Z</time>
      </trkpt>
      <trkpt lat="40.794761" lon="-3.957316">
        <ele>2193.5</ele>
        <time>2018-04-21T12:34:52.000Z</time>
      </trkpt>
      <trkpt lat="40.794762" lon="-3.957326">
        <ele>2193.7</ele>
        <time>2018-04-21T12:34:53.000Z</time>
      </trkpt>
      <trkpt lat="40.794762" lon="-3.957336">
        <ele>2193.9</ele>
        <time>2018-04-21T12:34:54.000Z</time>
      </trkpt>
      <trkpt lat="40.794761" lon="-3.957346">
        <ele>2194.0</ele>
        <time>2018-04-21T12:34:55.000Z</time>
      </trkpt>
      <trkpt lat="40.79476" lon="-3.957355">
        <ele>2194.2</ele>
        <time>2018-04-21T12:34:56.000Z</time>
      </trkpt>
      <trkpt lat="40.794759" lon="-3.957364">
        <ele>2194.4</ele>
        <time>2018-04-21T12:34:57.000Z</time>
      </trkpt>
      <trkpt lat="40.794757" lon="-3.957372">
        <ele>2194.5</ele>
        <time>2018-04-21T12:34:58.000Z</time>
      </trkpt>
      <trkpt lat="40.794755" lon="-3.957379">
        <ele>2194.6</ele>
        <time>2018-04-21T12:34:59.000Z</time>
      </trkpt>
      <trkpt lat="40.794754" lon="-3.957385">
        <ele>2194.7</ele>
        <time>2018-04-21T12:35:00.000Z</time>
      </trkpt>
      <trkpt lat="40.794753" lon="-3.957389">
        <ele>2194.8</ele>
        <time>2018-04-21T12:35:01.000Z</time>
      </trkpt>
      <trkpt lat="40.794752" lon="-3.957391">
        <ele>2194.8</ele>
        <time>2018-04-21T12:35:02.000Z</time>
      </trkpt>
      <trkpt lat="40.794752" lon="-3.957392">
        <ele>2194.8</ele>
        <time>2018-04-21T12:35:03.000Z</time>
      </trkpt>
      <trkpt lat="40.794752" lon="-3.957392">
        <ele>2194.8</ele>
        <time>2018-04-21T12:35:04.000Z</time>
      </trkpt>
      <trkpt lat="40.794752" lon="-3.957392">
        <ele>2194.8</ele>
        <time>2018-04-21T12:35:05.000Z</time>
      </trkpt>
      <trkpt lat="40.794752" lon="-3.957391">
        <ele>2194.8</ele>
        <time>2018-04-21T12:35:06.000Z</time>
      </trkpt>
      <trkpt lat="40.794752" lon="-3.95739">
        <ele>2194.8</ele>
        <time>2018-04-21T12:35:07.000Z</time>
      </trkpt>
      <trkpt lat="40.794751" lon="-3.95739">
        <ele>2194.8</ele>
        <time>2018-04-21T12:35:08.000Z</time>
      </trkpt>
      <trkpt lat="40.794749" lon="-3.957391">
        <ele>2194.8</ele>
        <time>2018-04-21T12:35:09.000Z</time>
      </trkpt>
      <trkpt lat="40.794747" lon="-3.957393">
        <ele>2194.8</ele>
        <time>2018-04-21T12:35:10.000Z</time>
      </trkpt>
      <trkpt lat="40.794744" lon="-3.957396">
        <ele>2194.9</ele>
        <time>2018-04-21T12:35:11.000Z</time>
      </trkpt>
      <trkpt lat="40.79474" lon="-3.957402">
        <ele>2194.9</ele>
        <time>2018-04-21T12:35:12.000Z</time>
      </trkpt>
      <trkpt lat="40.794736" lon="-3.957411">
        <ele>2195.1</ele>
        <time>2018-04-21T12:35:13.000Z</time>
      </trkpt>
      <trkpt lat="40.794731" lon="-3.957421">
        <ele>2195.2</ele>
        <time>2018-04-21T12:35:14.000Z</time>
      </trkpt>
      <trkpt lat="40.794726" lon="-3.957432">
        <ele>2195.4</ele>
        <time>2018-04-21T12:35:15.000Z</time>
      </trkpt>
      <trkpt lat="40.794722" lon="-3.957444">
        <ele>2195.6</ele>
        <time>2018-04-21T12:35:16.000Z</time>
      </trkpt>
      <trkpt lat="40.794718" lon="-3.957455">
        <ele>2195.8</ele>
        <time>2018-04-21T12:35:17.000Z</time>
      </trkpt>
      <trkpt lat="40.794714" lon="-3.957466">
        <ele>2195.9</ele>
        <time>2018-04-21T12:35:18.000Z</time>
      </trkpt>
      <trkpt lat="40.794712" lon="-3.957477">
        <ele>2196.1</ele>
        <time>2018-04-21T12:35:19.000Z</time>
      </trkpt>
      <trkpt lat="40.794709" lon="-3.957487">
        <ele>2196.3</ele>
        <time>2018-04-21T12:35:20.000Z</time>
      </trkpt>
      <trkpt lat="40.794707" lon="-3.957497">
        <ele>2196.5</ele>
        <time>2018-04-21T12:35:21.000Z</time>
      </trkpt>
      <trkpt lat="40.794705" lon="-3.957507">
        <ele>2196.7</ele>
        <time>2018-04-21T12:35:22.000Z</time>
      </trkpt>
      <trkpt lat="40.794703" lon="-3.957516">
        <ele>2196.9</ele>
        <time>2018-04-21T12:35:23.000Z</time>
      </trkpt>
      <trkpt lat="40.794701" lon="-3.957525">
        <ele>2197.1</ele>
        <time>2018-04-21T12:35:24.000Z</time>
      </trkpt>
      <trkpt lat="40.7947" lon="-3.957534">
        <ele>2197.3</ele>
        <time>2018-04-21T12:35:25.000Z</time>
      </trkpt>
      <trkpt lat="40.794698" lon="-3.957543">
        <ele>2197.5</ele>
        <time>2018-04-21T12:35:26.000Z</time>
      </trkpt>
      <trkpt lat="40.794696" lon="-3.957552">
        <ele>2197.7</ele>
        <time>2018-04-21T12:35:27.000Z</time>
      </trkpt>
      <trkpt lat="40.794694" lon="-3.957561">
        <ele>2197.9</ele>
        <time>2018-04-21T12:35:28.000Z</time>
      </trkpt>
      <trkpt lat="40.794691" lon="-3.95757">
        <ele>2198.1</ele>
        <time>2018-04-21T12:35:29.000Z</time>
      </trkpt>
      <trkpt lat="40.794689" lon="-3.95758">
        <ele>2198.4</ele>
        <time>2018-04-21T12:35:30.000Z</time>
      </trkpt>
      <trkpt lat="40.794687" lon="-3.95759">
        <ele>2198.6</ele>
        <time>2018-04-21T12:35:31.000Z</time>
      </trkpt>
      <trkpt lat="40.794685" lon="-3.957601">
        <ele>2198.9</ele>
        <time>2018-04-21T12:35:32.000Z</time>
      </trkpt>
      <trkpt lat="40.794682" lon="-3.957612">
        <ele>2199.1</ele>
        <time>2018-04-21T12:35:33.000Z</time>
      </trkpt>
      <trkpt lat="40.79468" lon="-3.957623">
        <ele>2199.4</ele>
        <time>2018-04-21T12:35:34.000Z</time>
      </trkpt>
      <trkpt lat="40.794677" lon="-3.957635">
        <ele>2199.7</ele>
        <time>2018-04-21T12:35:35.000Z</time>
      </trkpt>
      <trkpt lat="40.794675" lon="-3.957646">
        <ele>2199.9</ele>
        <time>2018-04-21T12:35:36.000Z</time>
      </trkpt>
      <trkpt lat="40.794673" lon="-3.957656">
        <ele>2200.1</ele>
        <time>2018-04-21T12:35:37.000Z</time>
      </trkpt>
      <trkpt lat="40.79467" lon="-3.957666">
        <ele>2200.4</ele>
        <time>2018-04-21T12:35:38.000Z</time>
      </trkpt>
      <trkpt lat="40.794668" lon="-3.957675">
        <ele>2200.6</ele>
        <time>2018-04-21T12:35:39.000Z</time>
      </trkpt>
      <trkpt lat="40.794666" lon="-3.957683">
        <ele>2200.8</ele>
        <time>2018-04-21T12:35:40.000Z</time>
      </trkpt>
      <trkpt lat="40.794663" lon="-3.957691">
        <ele>2200.9</ele>
        <time>2018-04-21T12:35:41.000Z</time>
      </trkpt>
      <trkpt lat="40.794662" lon="-3.957698">
        <ele>2201.1</ele>
        <time>2018-04-21T12:35:42.000Z</time>
      </trkpt>
      <trkpt lat="40.79466" lon="-3.957705">
        <ele>2201.3</ele>
        <time>2018-04-21T12:35:43.000Z</time>
      </trkpt>
      <trkpt lat="40.794658" lon="-3.957713">
        <ele>2201.4</ele>
        <time>2018-04-21T12:35:44.000Z</time>
      </trkpt>
      <trkpt lat="40.794657" lon="-3.95772">
        <ele>2201.6</ele>
        <time>2018-04-21T12:35:45.000Z</time>
      </trkpt>
      <trkpt lat="40.794657" lon="-3.957728">
        <ele>2201.8</ele>
        <time>2018-04-21T12:35:46.000Z</time>
      </trkpt>
      <trkpt lat="40.794656" lon="-3.957737">
        <ele>2202.0</ele>
        <time>2018-04-21T12:35:47.000Z</time>
      </trkpt>
      <trkpt lat="40.794656" lon="-3.957746">
        <ele>2202.3</ele>
        <time>2018-04-21T12:35:48.000Z</time>
      </trkpt>
      <trkpt lat="40.794656" lon="-3.957756">
        <ele>2202.5</ele>
        <time>2018-04-21T12:35:49.000Z</time>
      </trkpt>
      <trkpt lat="40.794656" lon="-3.957766">
        <ele>2202.8</ele>
        <time>2018-04-21T12:35:50.000Z</time>
      </trkpt>
      <trkpt lat="40.794657" lon="-3.957776">
        <ele>2203.0</ele>
        <time>2018-04-21T12:35:51.000Z</time>
      </trkpt>
      <trkpt lat="40.794657" lon="-3.957786">
        <ele>2203.3</ele>
        <time>2018-04-21T12:35:52.000Z</time>
      </trkpt>
      <trkpt lat="40.794657" lon="-3.957796">
        <ele>2203.5</ele>
        <time>2018-04-21T12:35:53.000Z</time>
      </trkpt>
      <trkpt lat="40.794657" lon="-3.957806">
        <ele>2203.8</ele>
        <time>2018-04-21T12:35:54.000Z</time>
      </trkpt>
      <trkpt lat="40.794657" lon="-3.957816">
        <ele>2204.0</ele>
        <time>2018-04-21T12:35:55.000Z</time>
      </trkpt>
      <trkpt lat="40.794657" lon="-3.957825">
        <ele>2204.2</ele>
        <time>2018-04-21T12:35:56.000Z</time>
      </trkpt>
      <trkpt lat="40.794656" lon="-3.957834">
        <ele>2204.5</ele>
        <time>2018-04-21T12:35:57.000Z</time>
      </trkpt>
      <trkpt lat="40.794655" lon="-3.957844">
        <ele>2204.7</ele>
        <time>2018-04-21T12:35:58.000Z</time>
      </trkpt>
      <trkpt lat="40.794654" lon="-3.957853">
        <ele>2204.9</ele>
        <time>2018-04-21T12:35:59.000Z</time>
      </trkpt>
      <trkpt lat="40.794653" lon="-3.957861">
        <ele>2205.1</ele>
        <time>2018-04-21T12:36:00.000Z</time>
      </trkpt>
      <trkpt lat="40.794651" lon="-3.95787">
        <ele>2205.3</ele>
        <time>2018-04-21T12:36:01.000Z</time>
      </trkpt>
      <trkpt lat="40.794649" lon="-3.957878">
        <ele>2205.5</ele>
        <time>2018-04-21T12:36:02.000Z</time>
      </trkpt>
      <trkpt lat="40.794646" lon="-3.957887">
        <ele>2205.7</ele>
        <time>2018-04-21T12:36:03.000Z</time>
      </trkpt>
      <trkpt lat="40.794643" lon="-3.957895">
        <ele>2205.9</ele>
        <time>2018-04-21T12:36:04.000Z</time>
      </trkpt>
      <trkpt lat="40.79464" lon="-3.957903">
        <ele>2206.1</ele>
        <time>2018-04-21T12:36:05.000Z</time>
      </trkpt>
      <trkpt lat="40.794636" lon="-3.957911">
        <ele>2206.2</ele>
        <time>2018-04-21T12:36:06.000Z</time>
      </trkpt>
      <trkpt lat="40.794631" lon="-3.957918">
        <ele>2206.4</ele>
        <time>2018-04-21T12:36:07.000Z</time>
      </trkpt>
      <trkpt lat="40.794626" lon="-3.957926">
        <ele>2206.5</ele>
        <time>2018-04-21T12:36:08.000Z</time>
      </trkpt>
      <trkpt lat="40.794621" lon="-3.957934">
        <ele>2206.7</ele>
        <time>2018-04-21T12:36:09.000Z</time>
      </trkpt>
      <trkpt lat="40.794615" lon="-3.957941">
        <ele>2206.8</ele>
        <time>2018-04-21T12:36:10.000Z</time>
      </trkpt>
      <trkpt lat="40.794609" lon="-3.957949">
        <ele>2207.0</ele>
        <time>2018-04-21T12:36:11.000Z</time>
      </trkpt>
      <trkpt lat="40.794603" lon="-3.957956">
        <ele>2207.1</ele>
        <time>2018-04-21T12:36:12.000Z</time>
      </trkpt>
      <trkpt lat="40.794597" lon="-3.957964">
        <ele>2207.3</ele>
        <time>2018-04-21T12:36:13.000Z</time>
      </trkpt>
      <trkpt lat="40.794591" lon="-3.957971">
        <ele>2207.4</ele>
        <time>2018-04-21T12:36:14.000Z</time>
      </trkpt>
      <trkpt lat="40.794585" lon="-3.957979">
        <ele>2207.6</ele>
        <time>2018-04-21T12:36:15.000Z</time>
      </trkpt>
      <trkpt lat="40.79458" lon="-3.957987">
        <ele>2207.7</ele>
        <time>2018-04-21T12:36:16.000Z</time>
      </trkpt>
      <trkpt lat="40.794574" lon="-3.957995">
        <ele>2207.9</ele>
        <time>2018-04-21T12:36:17.000Z</time>
      </trkpt>
      <trkpt lat="40.794569" lon="-3.958004">
        <ele>2208.1</ele>
        <time>2018-04-21T12:36:18.000Z</time>
      </trkpt>
      <trkpt lat="40.794565" lon="-3.958012">
        <ele>2208.3</ele>
        <time>2018-04-21T12:36:19.000Z</time>
      </trkpt>
      <trkpt lat="40.794561" lon="-3.95802">
        <ele>2208.4</ele>
        <time>2018-04-21T12:36:20.000Z</time>
      </trkpt>
      <trkpt lat="40.794558" lon="-3.958028">
        <ele>2208.6</ele>
        <time>2018-04-21T12:36:21.000Z</time>
      </trkpt>
      <trkpt lat="40.794555" lon="-3.958036">
        <ele>2208.8</ele>
        <time>2018-04-21T12:36:22.000Z</time>
      </trkpt>
      <trkpt lat="40.794552" lon="-3.958044">
        <ele>2209.0</ele>
        <time>2018-04-21T12:36:23.000Z</time>
      </trkpt>
      <trkpt lat="40.794551" lon="-3.958051">
        <ele>2209.2</ele>
        <time>2018-04-21T12:36:24.000Z</time>
      </trkpt>
      <trkpt lat="40.794549" lon="-3.958058">
        <ele>2209.3</ele>
        <time>2018-04-21T12:36:25.000Z</time>
      </trkpt>
      <trkpt lat="40.794549" lon="-3.958065">
        <ele>2209.5</ele>
        <time>2018-04-21T12:36:26.000Z</time>
      </trkpt>
      <trkpt lat="40.794548" lon="-3.958072">
        <ele>2209.7</ele>
        <time>2018-04-21T12:36:27.000Z</time>
      </trkpt>
      <trkpt lat="40.794548" lon="-3.958078">
        <ele>2209.8</ele>
        <time>2018-04-21T12:36:28.000Z</time>
      </trkpt>
      <trkpt lat="40.794548" lon="-3.958084">
        <ele>2210.0</ele>
        <time>2018-04-21T12:36:29.000Z</time>
      </trkpt>
      <trkpt lat="40.794549" lon="-3.958089">
        <ele>2210.1</ele>
        <time>2018-04-21T12:36:30.000Z</time>
      </trkpt>
      <trkpt lat="40.794549" lon="-3.958094">
        <ele>2210.2</ele>
        <time>2018-04-21T12:36:31.000Z</time>
      </trkpt>
      <trkpt lat="40.794549" lon="-3.958099">
        <ele>2210.4</ele>
        <time>2018-04-21T12:36:32.000Z</time>
      </trkpt>
      <trkpt lat="40.79455" lon="-3.958103">
        <ele>2210.5</ele>
        <time>2018-04-21T12:36:33.000Z</time>
      </trkpt>
      <trkpt lat="40.79455" lon="-3.958106">
        <ele>2210.5</ele>
        <time>2018-04-21T12:36:34.000Z</time>
      </trkpt>
      <trkpt lat="40.79455" lon="-3.958109">
        <ele>2210.6</ele>
        <time>2018-04-21T12:36:35.000Z</time>
      </trkpt>
      <trkpt lat="40.79455" lon="-3.958111">
        <ele>2210.7</ele>
        <time>2018-04-21T12:36:36.000Z</time>
      </trkpt>
      <trkpt lat="40.79455" lon="-3.958113">
        <ele>2210.7</ele>
        <time>2018-04-21T12:36:37.000Z</time>
      </trkpt>
      <trkpt lat="40.79455" lon="-3.958114">
        <ele>2210.8</ele>
        <time>2018-04-21T12:36:38.000Z</time>
      </trkpt>
      <trkpt lat="40.794549" lon="-3.958115">
        <ele>2210.8</ele>
        <time>2018-04-21T12:36:39.000Z</time>
      </trkpt>
      <trkpt lat="40.794548" lon="-3.958115">
        <ele>2210.8</ele>
        <time>2018-04-21T12:36:40.000Z</time>
      </trkpt>
      <trkpt lat="40.794548" lon="-3.958115">
        <ele>2210.8</ele>
        <time>2018-04-21T12:36:41.000Z</time>
      </trkpt>
      <trkpt lat="40.794547" lon="-3.958115">
        <ele>2210.8</ele>
        <time>2018-04-21T12:36:42.000Z</time>
      </trkpt>
      <trkpt lat="40.794547" lon="-3.958115">
        <ele>2210.8</ele>
        <time>2018-04-21T12:36:43.000Z</time>
      </trkpt>
      <trkpt lat="40.794546" lon="-3.958115">
        <ele>2210.8</ele>
        <time>2018-04-21T12:36:44.000Z</time>
      </trkpt>
      <trkpt lat="40.794546" lon="-3.958116">
        <ele>2210.8</ele>
        <time>2018-04-21T12:36:45.000Z</time>
      </trkpt>
      <trkpt lat="40.794546" lon="-3.958116">
        <ele>2210.8</ele>
        <time>2018-04-21T12:36:46.000Z</time>
      </trkpt>
      <trkpt lat="40.794546" lon="-3.958117">
        <ele>2210.8</ele>
        <time>2018-04-21T12:36:47.000Z</time>
      </trkpt>
      <trkpt lat="40.794544" lon="-3.958118">
        <ele>2210.8</ele>
        <time>2018-04-21T12:36:48.000Z</time>
      </trkpt>
      <trkpt lat="40.794541" lon="-3.958121">
        <ele>2210.9</ele>
        <time>2018-04-21T12:36:49.000Z</time>
      </trkpt>
      <trkpt lat="40.794538" lon="-3.958127">
        <ele>2211.0</ele>
        <time>2018-04-21T12:36:50.000Z</time>
      </trkpt>
      <trkpt lat="40.794533" lon="-3.958137">
        <ele>2211.2</ele>
        <time>2018-04-21T12:36:51.000Z</time>
      </trkpt>
      <trkpt lat="40.79453" lon="-3.958146">
        <ele>2211.4</ele>
        <time>2018-04-21T12:36:52.000Z</time>
      </trkpt>
      <trkpt lat="40.794527" lon="-3.958153">
        <ele>2211.6</ele>
        <time>2018-04-21T12:36:53.000Z</time>
      </trkpt>
      <trkpt lat="40.794525" lon="-3.95816">
        <ele>2211.8</ele>
        <time>2018-04-21T12:36:54.000Z</time>
      </trkpt>
      <trkpt lat="40.794523" lon="-3.958165">
        <ele>2211.9</ele>
        <time>2018-04-21T12:36:55.000Z</time>
      </trkpt>
      <trkpt lat="40.794521" lon="-3.95817">
        <ele>2212.0</ele>
        <time>2018-04-21T12:36:56.000Z</time>
      </trkpt>
      <trkpt lat="40.794519" lon="-3.958175">
        <ele>2212.1</ele>
        <time>2018-04-21T12:36:57.000Z</time>
      </trkpt>
      <trkpt lat="40.794517" lon="-3.95818">
        <ele>2212.2</ele>
        <time>2018-04-21T12:36:58.000Z</time>
      </trkpt>
      <trkpt lat="40.794515" lon="-3.958185">
        <ele>2212.3</ele>
        <time>2018-04-21T12:36:59.000Z</time>
      </trkpt>
      <trkpt lat="40.794513" lon="-3.95819">
        <ele>2212.4</ele>
        <time>2018-04-21T12:37:00.000Z</time>
      </trkpt>
      <trkpt lat="40.794511" lon="-3.958196">
        <ele>2212.6</ele>
        <time>2018-04-21T12:37:01.000Z</time>
      </trkpt>
      <trkpt lat="40.794509" lon="-3.958201">
        <ele>2212.7</ele>
        <time>2018-04-21T12:37:02.000Z</time>
      </trkpt>
      <trkpt lat="40.794508" lon="-3.958207">
        <ele>2212.8</ele>
        <time>2018-04-21T12:37:03.000Z</time>
      </trkpt>
      <trkpt lat="40.794506" lon="-3.958213">
        <ele>2213.0</ele>
        <time>2018-04-21T12:37:04.000Z</time>
      </trkpt>
      <trkpt lat="40.794504" lon="-3.95822">
        <ele>2213.1</ele>
        <time>2018-04-21T12:37:05.000Z</time>
      </trkpt>
      <trkpt lat="40.794502" lon="-3.958226">
        <ele>2213.3</ele>
        <time>2018-04-21T12:37:06.000Z</time>
      </trkpt>
      <trkpt lat="40.7945" lon="-3.958232">
        <ele>2213.4</ele>
        <time>2018-04-21T12:37:07.000Z</time>
      </trkpt>
      <trkpt lat="40.794499" lon="-3.958238">
        <ele>2213.6</ele>
        <time>2018-04-21T12:37:08.000Z</time>
      </trkpt>
      <trkpt lat="40.794497" lon="-3.958243">
        <ele>2213.7</ele>
        <time>2018-04-21T12:37:09.000Z</time>
      </trkpt>
      <trkpt lat="40.794495" lon="-3.958248">
        <ele>2213.8</ele>
        <time>2018-04-21T12:37:10.000Z</time>
      </trkpt>
      <trkpt lat="40.794494" lon="-3.958253">
        <ele>2213.9</ele>
        <time>2018-04-21T12:37:11.000Z</time>
      </trkpt>
      <trkpt lat="40.794492" lon="-3.958257">
        <ele>2214.0</ele>
        <time>2018-04-21T12:37:12.000Z</time>
      </trkpt>
      <trkpt lat="40.794491" lon="-3.958261">
        <ele>2214.1</ele>
        <time>2018-04-21T12:37:13.000Z</time>
      </trkpt>
      <trkpt lat="40.79449" lon="-3.958263">
        <ele>2214.1</ele>
        <time>2018-04-21T12:37:14.000Z</time>
      </trkpt>
      <trkpt lat="40.79449" lon="-3.958265">
        <ele>2214.2</ele>
        <time>2018-04-21T12:37:15.000Z</time>
      </trkpt>
      <trkpt lat="40.794489" lon="-3.958266">
        <ele>2214.2</ele>
        <time>2018-04-21T12:37:16.000Z</time>
      </trkpt>
      <trkpt lat="40.794489" lon="-3.958267">
        <ele>2214.2</ele>
        <time>2018-04-21T12:37:17.000Z</time>
      </trkpt>
      <trkpt lat="40.794489" lon="-3.958268">
        <ele>2214.3</ele>
        <time>2018-04-21T12:37:18.000Z</time>
      </trkpt>
      <trkpt lat="40.794489" lon="-3.958268">
        <ele>2214.3</ele>
        <time>2018-04-21T12:37:19.000Z</time>
      </trkpt>
      <trkpt lat="40.794489" lon="-3.958268">
        <ele>2214.3</ele>
        <time>2018-04-21T12:37:20.000Z</time>
      </trkpt>
      <trkpt lat="40.794489" lon="-3.958268">
        <ele>2214.3</ele>
        <time>2018-04-21T12:37:21.000Z</time>
      </trkpt>
      <trkpt lat="40.794489" lon="-3.958268">
        <ele>2214.3</ele>
        <time>2018-04-21T12:37:22.000Z</time>
      </trkpt>
      <trkpt lat="40.794489" lon="-3.958269">
        <ele>2214.3</ele>
        <time>2018-04-21T12:37:23.000Z</time>
      </trkpt>
      <trkpt lat="40.794488" lon="-3.958272">
        <ele>2214.4</ele>
        <time>2018-04-21T12:37:24.000Z</time>
      </trkpt>
      <trkpt lat="40.794486" lon="-3.958276">
        <ele>2214.5</ele>
        <time>2018-04-21T12:37:25.000Z</time>
      </trkpt>
      <trkpt lat="40.794483" lon="-3.958281">
        <ele>2214.6</ele>
        <time>2018-04-21T12:37:26.000Z</time>
      </trkpt>
      <trkpt lat="40.794481" lon="-3.958286">
        <ele>2214.7</ele>
        <time>2018-04-21T12:37:27.000Z</time>
      </trkpt>
      <trkpt lat="40.794478" lon="-3.958292">
        <ele>2214.8</ele>
        <time>2018-04-21T12:37:28.000Z</time>
      </trkpt>
      <trkpt lat="40.794475" lon="-3.958296">
        <ele>2214.9</ele>
        <time>2018-04-21T12:37:29.000Z</time>
      </trkpt>
      <trkpt lat="40.794472" lon="-3.9583">
        <ele>2215.0</ele>
        <time>2018-04-21T12:37:30.000Z</time>
      </trkpt>
      <trkpt lat="40.794469" lon="-3.958304">
        <ele>2215.1</ele>
        <time>2018-04-21T12:37:31.000Z</time>
      </trkpt>
      <trkpt lat="40.794466" lon="-3.958307">
        <ele>2215.1</ele>
        <time>2018-04-21T12:37:32.000Z</time>
      </trkpt>
      <trkpt lat="40.794463" lon="-3.958311">
        <ele>2215.2</ele>
        <time>2018-04-21T12:37:33.000Z</time>
      </trkpt>
      <trkpt lat="40.794459" lon="-3.958315">
        <ele>2215.3</ele>
        <time>2018-04-21T12:37:34.000Z</time>
      </trkpt>
      <trkpt lat="40.794455" lon="-3.958319">
        <ele>2215.4</ele>
        <time>2018-04-21T12:37:35.000Z</time>
      </trkpt>
      <trkpt lat="40.79445" lon="-3.958325">
        <ele>2215.5</ele>
        <time>2018-04-21T12:37:36.000Z</time>
      </trkpt>
      <trkpt lat="40.794445" lon="-3.958331">
        <ele>2215.6</ele>
        <time>2018-04-21T12:37:37.000Z</time>
      </trkpt>
      <trkpt lat="40.794439" lon="-3.958338">
        <ele>2215.8</ele>
        <time>2018-04-21T12:37:38.000Z</time>
      </trkpt>
      <trkpt lat="40.794433" lon="-3.958346">
        <ele>2216.0</ele>
        <time>2018-04-21T12:37:39.000Z</time>
      </trkpt>
      <trkpt lat="40.794427" lon="-3.958353">
        <ele>2216.1</ele>
        <time>2018-04-21T12:37:40.000Z</time>
      </trkpt>
      <trkpt lat="40.794421" lon="-3.95836">
        <ele>2216.3</ele>
        <time>2018-04-21T12:37:41.000Z</time>
      </trkpt>
      <trkpt lat="40.794416" lon="-3.958367">
        <ele>2216.4</ele>
        <time>2018-04-21T12:37:42.000Z</time>
      </trkpt>
      <trkpt lat="40.79441" lon="-3.958373">
        <ele>2216.6</ele>
        <time>2018-04-21T12:37:43.000Z</time>
      </trkpt>
      <trkpt lat="40.794405" lon="-3.958379">
        <ele>2216.7</ele>
        <time>2018-04-21T12:37:44.000Z</time>
      </trkpt>
      <trkpt lat="40.7944" lon="-3.958384">
        <ele>2216.8</ele>
        <time>2018-04-21T12:37:45.000Z</time>
      </trkpt>
      <trkpt lat="40.794395" lon="-3.958388">
        <ele>2216.9</ele>
        <time>2018-04-21T12:37:46.000Z</time>
      </trkpt>
      <trkpt lat="40.79439" lon="-3.958393">
        <ele>2217.0</ele>
        <time>2018-04-21T12:37:47.000Z</time>
      </trkpt>
      <trkpt lat="40.794386" lon="-3.958397">
        <ele>2217.1</ele>
        <time>2018-04-21T12:37:48.000Z</time>
      </trkpt>
      <trkpt lat="40.794381" lon="-3.958401">
        <ele>2217.2</ele>
        <time>2018-04-21T12:37:49.000Z</time>
      </trkpt>
      <trkpt lat="40.794377" lon="-3.958406">
        <ele>2217.3</ele>
        <time>2018-04-21T12:37:50.000Z</time>
      </trkpt>
      <trkpt lat="40.794373" lon="-3.958411">
        <ele>2217.4</ele>
        <time>2018-04-21T12:37:51.000Z</time>
      </trkpt>
      <trkpt lat="40.794369" lon="-3.958416">
        <ele>2217.5</ele>
        <time>2018-04-21T12:37:52.000Z</time>
      </trkpt>
      <trkpt lat="40.794365" lon="-3.958422">
        <ele>2217.7</ele>
        <time>2018-04-21T12:37:53.000Z</time>
      </trkpt>
      <trkpt lat="40.794361" lon="-3.958428">
        <ele>2217.8</ele>
        <time>2018-04-21T12:37:54.000Z</time>
      </trkpt>
      <trkpt lat="40.794357" lon="-3.958435">
        <ele>2218.0</ele>
        <time>2018-04-21T12:37:55.000Z</time>
      </trkpt>
      <trkpt lat="40.794353" lon="-3.958443">
        <ele>2218.2</ele>
        <time>2018-04-21T12:37:56.000Z</time>
      </trkpt>
      <trkpt lat="40.794349" lon="-3.958451">
        <ele>2218.4</ele>
        <time>2018-04-21T12:37:57.000Z</time>
      </trkpt>
      <trkpt lat="40.794345" lon="-3.958461">
        <ele>2218.7</ele>
        <time>2018-04-21T12:37:58.000Z</time>
      </trkpt>
      <trkpt lat="40.794341" lon="-3.95847">
        <ele>2218.9</ele>
        <time>2018-04-21T12:37:59.000Z</time>
      </trkpt>
      <trkpt lat="40.794336" lon="-3.958481">
        <ele>2219.2</ele>
        <time>2018-04-21T12:38:00.000Z</time>
      </trkpt>
      <trkpt lat="40.794332" lon="-3.958491">
        <ele>2219.4</ele>
        <time>2018-04-21T12:38:01.000Z</time>
      </trkpt>
      <trkpt lat="40.794328" lon="-3.958501">
        <ele>2219.7</ele>
        <time>2018-04-21T12:38:02.000Z</time>
      </trkpt>
      <trkpt lat="40.794324" lon="-3.958511">
        <ele>2219.9</ele>
        <time>2018-04-21T12:38:03.000Z</time>
      </trkpt>
      <trkpt lat="40.79432" lon="-3.958521">
        <ele>2220.2</ele>
        <time>2018-04-21T12:38:04.000Z</time>
      </trkpt>
      <trkpt lat="40.794316" lon="-3.95853">
        <ele>2220.4</ele>
        <time>2018-04-21T12:38:05.000Z</time>
      </trkpt>
      <trkpt lat="40.794313" lon="-3.958538">
        <ele>2220.6</ele>
        <time>2018-04-21T12:38:06.000Z</time>
      </trkpt>
      <trkpt lat="40.794309" lon="-3.958545">
        <ele>2220.8</ele>
        <time>2018-04-21T12:38:07.000Z</time>
      </trkpt>
      <trkpt lat="40.794306" lon="-3.958552">
        <ele>2221.0</ele>
        <time>2018-04-21T12:38:08.000Z</time>
      </trkpt>
      <trkpt lat="40.794303" lon="-3.958558">
        <ele>2221.1</ele>
        <time>2018-04-21T12:38:09.000Z</time>
      </trkpt>
      <trkpt lat="40.794301" lon="-3.958563">
        <ele>2221.2</ele>
        <time>2018-04-21T12:38:10.000Z</time>
      </trkpt>
      <trkpt lat="40.794298" lon="-3.958567">
        <ele>2221.3</ele>
        <time>2018-04-21T12:38:11.000Z</time>
      </trkpt>
      <trkpt lat="40.794297" lon="-3.958571">
        <ele>2221.4</ele>
        <time>2018-04-21T12:38:12.000Z</time>
      </trkpt>
      <trkpt lat="40.794295" lon="-3.958573">
        <ele>2221.5</ele>
        <time>2018-04-21T12:38:13.000Z</time>
      </trkpt>
      <trkpt lat="40.794294" lon="-3.958575">
        <ele>2221.5</ele>
        <time>2018-04-21T12:38:14.000Z</time>
      </trkpt>
      <trkpt lat="40.794294" lon="-3.958577">
        <ele>2221.6</ele>
        <time>2018-04-21T12:38:15.000Z</time>
      </trkpt>
      <trkpt lat="40.794293" lon="-3.958577">
        <ele>2221.6</ele>
        <time>2018-04-21T12:38:16.000Z</time>
      </trkpt>
      <trkpt lat="40.794293" lon="-3.958578">
        <ele>2221.6</ele>
        <time>2018-04-21T12:38:17.000Z</time>
      </trkpt>
      <trkpt lat="40.794293" lon="-3.958578">
        <ele>2221.6</ele>
        <time>2018-04-21T12:38:18.000Z</time>
      </trkpt>
      <trkpt lat="40.794293" lon="-3.958578">
        <ele>2221.6</ele>
        <time>2018-04-21T12:38:19.000Z</time>
      </trkpt>
      <trkpt lat="40.794293" lon="-3.958578">
        <ele>2221.6</ele>
        <time>2018-04-21T12:38:20.000Z</time>
      </trkpt>
      <trkpt lat="40.794293" lon="-3.958578">
        <ele>2221.6</ele>
        <time>2018-04-21T12:38:21.000Z</time>
      </trkpt>
      <trkpt lat="40.794293" lon="-3.958579">
        <ele>2221.6</ele>
        <time>2018-04-21T12:38:22.000Z</time>
      </trkpt>
      <trkpt lat="40.794293" lon="-3.958579">
        <ele>2221.6</ele>
        <time>2018-04-21T12:38:23.000Z</time>
      </trkpt>
      <trkpt lat="40.794293" lon="-3.958579">
        <ele>2221.6</ele>
        <time>2018-04-21T12:38:24.000Z</time>
      </trkpt>
      <trkpt lat="40.794293" lon="-3.958579">
        <ele>2221.6</ele>
        <time>2018-04-21T12:38:25.000Z</time>
      </trkpt>
      <trkpt lat="40.794293" lon="-3.958579">
        <ele>2221.6</ele>
        <time>2018-04-21T12:38:26.000Z</time>
      </trkpt>
      <trkpt lat="40.794293" lon="-3.958579">
        <ele>2221.6</ele>
        <time>2018-04-21T12:38:27.000Z</time>
      </trkpt>
      <trkpt lat="40.794293" lon="-3.958579">
        <ele>2221.6</ele>
        <time>2018-04-21T12:38:28.000Z</time>
      </trkpt>
      <trkpt lat="40.794293" lon="-3.958579">
        <ele>2221.6</ele>
        <time>2018-04-21T12:38:29.000Z</time>
      </trkpt>
      <trkpt lat="40.794293" lon="-3.958579">
        <ele>2221.6</ele>
        <time>2018-04-21T12:38:30.000Z</time>
      </trkpt>
      <trkpt lat="40.794293" lon="-3.958579">
        <ele>2221.6</ele>
        <time>2018-04-21T12:38:31.000Z</time>
      </trkpt>
      <trkpt lat="40.794293" lon="-3.958579">
        <ele>2221.6</ele>
        <time>2018-04-21T12:38:32.000Z</time>
      </trkpt>
      <trkpt lat="40.794293" lon="-3.958579">
        <ele>2221.6</ele>
        <time>2018-04-21T12:38:33.000Z</time>
      </trkpt>
      <trkpt lat="40.794293" lon="-3.958579">
        <ele>2221.6</ele>
        <time>2018-04-21T12:38:34.000Z</time>
      </trkpt>
      <trkpt lat="40.794293" lon="-3.958579">
        <ele>2221.6</ele>
        <time>2018-04-21T12:38:35.000Z</time>
      </trkpt>
      <trkpt lat="40.794293" lon="-3.958579">
        <ele>2221.6</ele>
        <time>2018-04-21T12:38:36.000Z</time>
      </trkpt>
      <trkpt lat="40.794293" lon="-3.958579">
        <ele>2221.6</ele>
        <time>2018-04-21T12:38:37.000Z</time>
      </trkpt>
      <trkpt lat="40.794293" lon="-3.958579">
        <ele>2221.6</ele>
        <time>2018-04-21T12:38:38.000Z</time>
      </trkpt>
      <trkpt lat="40.794293" lon="-3.958579">
        <ele>2221.6</ele>
        <time>2018-04-21T12:38:39.000Z</time>
      </trkpt>
      <trkpt lat="40.794293" lon="-3.958579">
        <ele>2221.6</ele>
        <time>2018-04-21T12:38:40.000Z</time>
      </trkpt>
      <trkpt lat="40.794293" lon="-3.958579">
        <ele>2221.6</ele>
        <time>2018-04-21T12:38:41.000Z</time>
      </trkpt>
      <trkpt lat="40.794293" lon="-3.958579">
        <ele>2221.6</ele>
        <time>2018-04-21T12:38:42.000Z</time>
      </trkpt>
      <trkpt lat="40.794293" lon="-3.958579">
        <ele>2221.6</ele>
        <time>2018-04-21T12:38:43.000Z</time>
      </trkpt>
      <trkpt lat="40.794293" lon="-3.958579">
        <ele>2221.6</ele>
        <time>2018-04-21T12:38:44.000Z</time>
      </trkpt>
      <trkpt lat="40.794293" lon="-3.958579">
        <ele>2221.6</ele>
        <time>2018-04-21T12:38:45.000Z</time>
      </trkpt>
      <trkpt lat="40.794293" lon="-3.958579">
        <ele>2221.6</ele>
        <time>2018-04-21T12:38:46.000Z</time>
      </trkpt>
      <trkpt lat="40.794293" lon="-3.958579">
        <ele>2221.6</ele>
        <time>2018-04-21T12:38:47.000Z</time>
      </trkpt>
      <trkpt lat="40.794293" lon="-3.958579">
        <ele>2221.6</ele>
        <time>2018-04-21T12:38:48.000Z</time>
      </trkpt>
      <trkpt lat="40.794293" lon="-3.958579">
        <ele>2221.6</ele>
        <time>2018-04-21T12:38:49.000Z</time>
      </trkpt>
      <trkpt lat="40.794293" lon="-3.958579">
        <ele>2221.6</ele>
        <time>2018-04-21T12:38:50.000Z</time>
      </trkpt>
      <trkpt lat="40.794293" lon="-3.958579">
        <ele>2221.6</ele>
        <time>2018-04-21T12:38:51.000Z</time>
      </trkpt>
      <trkpt lat="40.794293" lon="-3.958579">
        <ele>2221.6</ele>
        <time>2018-04-21T12:38:52.000Z</time>
      </trkpt>
      <trkpt lat="40.794293" lon="-3.958579">
        <ele>2221.6</ele>
        <time>2018-04-21T12:38:53.000Z</time>
      </trkpt>
      <trkpt lat="40.794293" lon="-3.958579">
        <ele>2221.6</ele>
        <time>2018-04-21T12:38:54.000Z</time>
      </trkpt>
      <trkpt lat="40.794293" lon="-3.958579">
        <ele>2221.6</ele>
        <time>2018-04-21T12:38:55.000Z</time>
      </trkpt>
      <trkpt lat="40.794293" lon="-3.958579">
        <ele>2221.6</ele>
        <time>2018-04-21T12:38:56.000Z</time>
      </trkpt>
      <trkpt lat="40.794293" lon="-3.958579">
        <ele>2221.6</ele>
        <time>2018-04-21T12:38:57.000Z</time>
      </trkpt>
      <trkpt lat="40.794293" lon="-3.958579">
        <ele>2221.6</ele>
        <time>2018-04-21T12:38:58.000Z</time>
      </trkpt>
      <trkpt lat="40.794293" lon="-3.958579">
        <ele>2221.6</ele>
        <time>2018-04-21T12:38:59.000Z</time>
      </trkpt>
      <trkpt lat="40.794293" lon="-3.958579">
        <ele>2221.6</ele>
        <time>2018-04-21T12:39:00.000Z</time>
      </trkpt>
      <trkpt lat="40.794293" lon="-3.958579">
        <ele>2221.6</ele>
        <time>2018-04-21T12:39:01.000Z</time>
      </trkpt>
      <trkpt lat="40.794293" lon="-3.958579">
        <ele>2221.6</ele>
        <time>2018-04-21T12:39:02.000Z</time>
      </trkpt>
      <trkpt lat="40.794293" lon="-3.958579">
        <ele>2221.6</ele>
        <time>2018-04-21T12:39:03.000Z</time>
      </trkpt>
      <trkpt lat="40.794293" lon="-3.958579">
        <ele>2221.6</ele>
        <time>2018-04-21T12:39:04.000Z</time>
      </trkpt>
      <trkpt lat="40.794293" lon="-3.958579">
        <ele>2221.6</ele>
        <time>2018-04-21T12:39:05.000Z</time>
      </trkpt>
      <trkpt lat="40.794293" lon="-3.958579">
        <ele>2221.6</ele>
        <time>2018-04-21T12:39:06.000Z</time>
      </trkpt>
      <trkpt lat="40.794293" lon="-3.958579">
        <ele>2221.6</ele>
        <time>2018-04-21T12:39:07.000Z</time>
      </trkpt>
      <trkpt lat="40.794293" lon="-3.958578">
        <ele>2221.6</ele>
        <time>2018-04-21T12:39:08.000Z</time>
      </trkpt>
      <trkpt lat="40.794293" lon="-3.958578">
        <ele>2221.6</ele>
        <time>2018-04-21T12:39:09.000Z</time>
      </trkpt>
      <trkpt lat="40.794293" lon="-3.958578">
        <ele>2221.6</ele>
        <time>2018-04-21T12:39:10.000Z</time>
      </trkpt>
      <trkpt lat="40.794294" lon="-3.958578">
        <ele>2221.6</ele>
        <time>2018-04-21T12:39:11.000Z</time>
      </trkpt>
      <trkpt lat="40.794294" lon="-3.958578">
        <ele>2221.6</ele>
        <time>2018-04-21T12:39:12.000Z</time>
      </trkpt>
      <trkpt lat="40.794294" lon="-3.958578">
        <ele>2221.6</ele>
        <time>2018-04-21T12:39:13.000Z</time>
      </trkpt>
      <trkpt lat="40.794293" lon="-3.958578">
        <ele>2221.6</ele>
        <time>2018-04-21T12:39:14.000Z</time>
      </trkpt>
      <trkpt lat="40.794293" lon="-3.95858">
        <ele>2221.7</ele>
        <time>2018-04-21T12:39:15.000Z</time>
      </trkpt>
      <trkpt lat="40.794291" lon="-3.958583">
        <ele>2221.7</ele>
        <time>2018-04-21T12:39:16.000Z</time>
      </trkpt>
      <trkpt lat="40.794289" lon="-3.958587">
        <ele>2221.8</ele>
        <time>2018-04-21T12:39:17.000Z</time>
      </trkpt>
      <trkpt lat="40.794286" lon="-3.958593">
        <ele>2222.0</ele>
        <time>2018-04-21T12:39:18.000Z</time>
      </trkpt>
      <trkpt lat="40.794282" lon="-3.958602">
        <ele>2222.2</ele>
        <time>2018-04-21T12:39:19.000Z</time>
      </trkpt>
      <trkpt lat="40.794278" lon="-3.958611">
        <ele>2222.4</ele>
        <time>2018-04-21T12:39:20.000Z</time>
      </trkpt>
      <trkpt lat="40.794274" lon="-3.95862">
        <ele>2222.6</ele>
        <time>2018-04-21T12:39:21.000Z</time>
      </trkpt>
      <trkpt lat="40.794271" lon="-3.958627">
        <ele>2222.8</ele>
        <time>2018-04-21T12:39:22.000Z</time>
      </trkpt>
      <trkpt lat="40.79427" lon="-3.958632">
        <ele>2223.0</ele>
        <time>2018-04-21T12:39:23.000Z</time>
      </trkpt>
      <trkpt lat="40.794269" lon="-3.958634">
        <ele>2223.0</ele>
        <time>2018-04-21T12:39:24.000Z</time>
      </trkpt>
      <trkpt lat="40.794269" lon="-3.958637">
        <ele>2223.1</ele>
        <time>2018-04-21T12:39:25.000Z</time>
      </trkpt>
      <trkpt lat="40.794269" lon="-3.958639">
        <ele>2223.1</ele>
        <time>2018-04-21T12:39:26.000Z</time>
      </trkpt>
      <trkpt lat="40.794268" lon="-3.958643">
        <ele>2223.2</ele>
        <time>2018-04-21T12:39:27.000Z</time>
      </trkpt>
      <trkpt lat="40.794267" lon="-3.958647">
        <ele>2223.3</ele>
        <time>2018-04-21T12:39:28.000Z</time>
      </trkpt>
      <trkpt lat="40.794265" lon="-3.958653">
        <ele>2223.5</ele>
        <time>2018-04-21T12:39:29.000Z</time>
      </trkpt>
      <trkpt lat="40.794263" lon="-3.95866">
        <ele>2223.7</ele>
        <time>2018-04-21T12:39:30.000Z</time>
      </trkpt>
      <trkpt lat="40.79426" lon="-3.958666">
        <ele>2223.8</ele>
        <time>2018-04-21T12:39:31.000Z</time>
      </trkpt>
      <trkpt lat="40.794258" lon="-3.958673">
        <ele>2224.0</ele>
        <time>2018-04-21T12:39:32.000Z</time>
      </trkpt>
      <trkpt lat="40.794255" lon="-3.95868">
        <ele>2224.2</ele>
        <time>2018-04-21T12:39:33.000Z</time>
      </trkpt>
      <trkpt lat="40.794253" lon="-3.958687">
        <ele>2224.4</ele>
        <time>2018-04-21T12:39:34.000Z</time>
      </trkpt>
      <trkpt lat="40.794251" lon="-3.958693">
        <ele>2224.5</ele>
        <time>2018-04-21T12:39:35.000Z</time>
      </trkpt>
      <trkpt lat="40.794249" lon="-3.958699">
        <ele>2224.7</ele>
        <time>2018-04-21T12:39:36.000Z</time>
      </trkpt>
      <trkpt lat="40.794248" lon="-3.958705">
        <ele>2224.8</ele>
        <time>2018-04-21T12:39:37.000Z</time>
      </trkpt>
      <trkpt lat="40.794246" lon="-3.958712">
        <ele>2225.0</ele>
        <time>2018-04-21T12:39:38.000Z</time>
      </trkpt>
      <trkpt lat="40.794245" lon="-3.958718">
        <ele>2225.2</ele>
        <time>2018-04-21T12:39:39.000Z</time>
      </trkpt>
      <trkpt lat="40.794243" lon="-3.958725">
        <ele>2225.4</ele>
        <time>2018-04-21T12:39:40.000Z</time>
      </trkpt>
      <trkpt lat="40.794241" lon="-3.958733">
        <ele>2225.6</ele>
        <time>2018-04-21T12:39:41.000Z</time>
      </trkpt>
      <trkpt lat="40.79424" lon="-3.958741">
        <ele>2225.8</ele>
        <time>2018-04-21T12:39:42.000Z</time>
      </trkpt>
      <trkpt lat="40.794238" lon="-3.95875">
        <ele>2226.0</ele>
        <time>2018-04-21T12:39:43.000Z</time>
      </trkpt>
      <trkpt lat="40.794236" lon="-3.95876">
        <ele>2226.3</ele>
        <time>2018-04-21T12:39:44.000Z</time>
      </trkpt>
      <trkpt lat="40.794234" lon="-3.958769">
        <ele>2226.5</ele>
        <time>2018-04-21T12:39:45.000Z</time>
      </trkpt>
      <trkpt lat="40.794232" lon="-3.958778">
        <ele>2226.7</ele>
        <time>2018-04-21T12:39:46.000Z</time>
      </trkpt>
      <trkpt lat="40.794229" lon="-3.958788">
        <ele>2227.0</ele>
        <time>2018-04-21T12:39:47.000Z</time>
      </trkpt>
      <trkpt lat="40.794226" lon="-3.958797">
        <ele>2227.2</ele>
        <time>2018-04-21T12:39:48.000Z</time>
      </trkpt>
      <trkpt lat="40.794224" lon="-3.958805">
        <ele>2227.4</ele>
        <time>2018-04-21T12:39:49.000Z</time>
      </trkpt>
      <trkpt lat="40.79422" lon="-3.958813">
        <ele>2227.6</ele>
        <time>2018-04-21T12:39:50.000Z</time>
      </trkpt>
      <trkpt lat="40.794217" lon="-3.958821">
        <ele>2227.8</ele>
        <time>2018-04-21T12:39:51.000Z</time>
      </trkpt>
      <trkpt lat="40.794215" lon="-3.958829">
        <ele>2228.0</ele>
        <time>2018-04-21T12:39:52.000Z</time>
      </trkpt>
      <trkpt lat="40.794212" lon="-3.958837">
        <ele>2228.2</ele>
        <time>2018-04-21T12:39:53.000Z</time>
      </trkpt>
      <trkpt lat="40.79421" lon="-3.958845">
        <ele>2228.4</ele>
        <time>2018-04-21T12:39:54.000Z</time>
      </trkpt>
      <trkpt lat="40.794209" lon="-3.958854">
        <ele>2228.7</ele>
        <time>2018-04-21T12:39:55.000Z</time>
      </trkpt>
      <trkpt lat="40.794208" lon="-3.958863">
        <ele>2228.9</ele>
        <time>2018-04-21T12:39:56.000Z</time>
      </trkpt>
      <trkpt lat="40.794208" lon="-3.958872">
        <ele>2229.2</ele>
        <time>2018-04-21T12:39:57.000Z</time>
      </trkpt>
      <trkpt lat="40.794208" lon="-3.958882">
        <ele>2229.5</ele>
        <time>2018-04-21T12:39:58.000Z</time>
      </trkpt>
      <trkpt lat="40.794208" lon="-3.958892">
        <ele>2229.7</ele>
        <time>2018-04-21T12:39:59.000Z</time>
      </trkpt>
      <trkpt lat="40.794209" lon="-3.958901">
        <ele>2230.0</ele>
        <time>2018-04-21T12:40:00.000Z</time>
      </trkpt>
      <trkpt lat="40.794209" lon="-3.958909">
        <ele>2230.2</ele>
        <time>2018-04-21T12:40:01.000Z</time>
      </trkpt>
      <trkpt lat="40.79421" lon="-3.958916">
        <ele>2230.4</ele>
        <time>2018-04-21T12:40:02.000Z</time>
      </trkpt>
      <trkpt lat="40.79421" lon="-3.958923">
        <ele>2230.6</ele>
        <time>2018-04-21T12:40:03.000Z</time>
      </trkpt>
      <trkpt lat="40.794209" lon="-3.958928">
        <ele>2230.7</ele>
        <time>2018-04-21T12:40:04.000Z</time>
      </trkpt>
      <trkpt lat="40.794208" lon="-3.958934">
        <ele>2230.9</ele>
        <time>2018-04-21T12:40:05.000Z</time>
      </trkpt>
      <trkpt lat="40.794205" lon="-3.958941">
        <ele>2231.1</ele>
        <time>2018-04-21T12:40:06.000Z</time>
      </trkpt>
      <trkpt lat="40.794201" lon="-3.958949">
        <ele>2231.3</ele>
        <time>2018-04-21T12:40:07.000Z</time>
      </trkpt>
      <trkpt lat="40.794197" lon="-3.958957">
        <ele>2231.4</ele>
        <time>2018-04-21T12:40:08.000Z</time>
      </trkpt>
      <trkpt lat="40.794192" lon="-3.958965">
        <ele>2231.6</ele>
        <time>2018-04-21T12:40:09.000Z</time>
      </trkpt>
      <trkpt lat="40.794188" lon="-3.958971">
        <ele>2231.8</ele>
        <time>2018-04-21T12:40:10.000Z</time>
      </trkpt>
      <trkpt lat="40.794186" lon="-3.958975">
        <ele>2231.9</ele>
        <time>2018-04-21T12:40:11.000Z</time>
      </trkpt>
      <trkpt lat="40.794184" lon="-3.958978">
        <ele>2231.9</ele>
        <time>2018-04-21T12:40:12.000Z</time>
      </trkpt>
      <trkpt lat="40.794184" lon="-3.958978">
        <ele>2231.9</ele>
        <time>2018-04-21T12:40:13.000Z</time>
      </trkpt>
      <trkpt lat="40.794184" lon="-3.958978">
        <ele>2231.9</ele>
        <time>2018-04-21T12:40:14.000Z</time>
      </trkpt>
      <trkpt lat="40.794184" lon="-3.958978">
        <ele>2231.9</ele>
        <time>2018-04-21T12:40:15.000Z</time>
      </trkpt>
      <trkpt lat="40.794184" lon="-3.958978">
        <ele>2231.9</ele>
        <time>2018-04-21T12:40:16.000Z</time>
      </trkpt>
      <trkpt lat="40.794183" lon="-3.958979">
        <ele>2231.9</ele>
        <time>2018-04-21T12:40:17.000Z</time>
      </trkpt>
      <trkpt lat="40.794182" lon="-3.958981">
        <ele>2232.0</ele>
        <time>2018-04-21T12:40:18.000Z</time>
      </trkpt>
      <trkpt lat="40.79418" lon="-3.958984">
        <ele>2232.1</ele>
        <time>2018-04-21T12:40:19.000Z</time>
      </trkpt>
      <trkpt lat="40.794178" lon="-3.958988">
        <ele>2232.2</ele>
        <time>2018-04-21T12:40:20.000Z</time>
      </trkpt>
      <trkpt lat="40.794175" lon="-3.958993">
        <ele>2232.3</ele>
        <time>2018-04-21T12:40:21.000Z</time>
      </trkpt>
      <trkpt lat="40.794172" lon="-3.958999">
        <ele>2232.4</ele>
        <time>2018-04-21T12:40:22.000Z</time>
      </trkpt>
      <trkpt lat="40.794168" lon="-3.959005">
        <ele>2232.5</ele>
        <time>2018-04-21T12:40:23.000Z</time>
      </trkpt>
      <trkpt lat="40.794164" lon="-3.959012">
        <ele>2232.7</ele>
        <time>2018-04-21T12:40:24.000Z</time>
      </trkpt>
      <trkpt lat="40.794161" lon="-3.959019">
        <ele>2232.8</ele>
        <time>2018-04-21T12:40:25.000Z</time>
      </trkpt>
      <trkpt lat="40.794157" lon="-3.959027">
        <ele>2232.9</ele>
        <time>2018-04-21T12:40:26.000Z</time>
      </trkpt>
      <trkpt lat="40.794153" lon="-3.959034">
        <ele>2233.0</ele>
        <time>2018-04-21T12:40:27.000Z</time>
      </trkpt>
      <trkpt lat="40.794149" lon="-3.959042">
        <ele>2233.1</ele>
        <time>2018-04-21T12:40:28.000Z</time>
      </trkpt>
      <trkpt lat="40.794145" lon="-3.95905">
        <ele>2233.3</ele>
        <time>2018-04-21T12:40:29.000Z</time>
      </trkpt>
      <trkpt lat="40.794141" lon="-3.959058">
        <ele>2233.4</ele>
        <time>2018-04-21T12:40:30.000Z</time>
      </trkpt>
      <trkpt lat="40.794137" lon="-3.959066">
        <ele>2233.5</ele>
        <time>2018-04-21T12:40:31.000Z</time>
      </trkpt>
      <trkpt lat="40.794133" lon="-3.959075">
        <ele>2233.7</ele>
        <time>2018-04-21T12:40:32.000Z</time>
      </trkpt>
      <trkpt lat="40.794129" lon="-3.959083">
        <ele>2233.8</ele>
        <time>2018-04-21T12:40:33.000Z</time>
      </trkpt>
      <trkpt lat="40.794125" lon="-3.959092">
        <ele>2233.9</ele>
        <time>2018-04-21T12:40:34.000Z</time>
      </trkpt>
      <trkpt lat="40.794121" lon="-3.9591">
        <ele>2234.1</ele>
        <time>2018-04-21T12:40:35.000Z</time>
      </trkpt>
      <trkpt lat="40.794117" lon="-3.959109">
        <ele>2234.2</ele>
        <time>2018-04-21T12:40:36.000Z</time>
      </trkpt>
      <trkpt lat="40.794113" lon="-3.959117">
        <ele>2234.3</ele>
        <time>2018-04-21T12:40:37.000Z</time>
      </trkpt>
      <trkpt lat="40.794109" lon="-3.959125">
        <ele>2234.5</ele>
        <time>2018-04-21T12:40:38.000Z</time>
      </trkpt>
      <trkpt lat="40.794106" lon="-3.959134">
        <ele>2234.6</ele>
        <time>2018-04-21T12:40:39.000Z</time>
      </trkpt>
      <trkpt lat="40.794102" lon="-3.959142">
        <ele>2234.8</ele>
        <time>2018-04-21T12:40:40.000Z</time>
      </trkpt>
      <trkpt lat="40.794098" lon="-3.95915">
        <ele>2234.9</ele>
        <time>2018-04-21T12:40:41.000Z</time>
      </trkpt>
      <trkpt lat="40.794095" lon="-3.959158">
        <ele>2235.0</ele>
        <time>2018-04-21T12:40:42.000Z</time>
      </trkpt>
      <trkpt lat="40.794091" lon="-3.959166">
        <ele>2235.2</ele>
        <time>2018-04-21T12:40:43.000Z</time>
      </trkpt>
      <trkpt lat="40.794088" lon="-3.959174">
        <ele>2235.3</ele>
        <time>2018-04-21T12:40:44.000Z</time>
      </trkpt>
      <trkpt lat="40.794085" lon="-3.959182">
        <ele>2235.4</ele>
        <time>2018-04-21T12:40:45.000Z</time>
      </trkpt>
      <trkpt lat="40.794082" lon="-3.959189">
        <ele>2235.5</ele>
        <time>2018-04-21T12:40:46.000Z</time>
      </trkpt>
      <trkpt lat="40.794079" lon="-3.959196">
        <ele>2235.6</ele>
        <time>2018-04-21T12:40:47.000Z</time>
      </trkpt>
      <trkpt lat="40.794076" lon="-3.959203">
        <ele>2235.7</ele>
        <time>2018-04-21T12:40:48.000Z</time>
      </trkpt>
      <trkpt lat="40.794073" lon="-3.959209">
        <ele>2235.8</ele>
        <time>2018-04-21T12:40:49.000Z</time>
      </trkpt>
      <trkpt lat="40.794071" lon="-3.959214">
        <ele>2235.9</ele>
        <time>2018-04-21T12:40:50.000Z</time>
      </trkpt>
      <trkpt lat="40.794069" lon="-3.959218">
        <ele>2235.9</ele>
        <time>2018-04-21T12:40:51.000Z</time>
      </trkpt>
      <trkpt lat="40.794067" lon="-3.959221">
        <ele>2236.0</ele>
        <time>2018-04-21T12:40:52.000Z</time>
      </trkpt>
      <trkpt lat="40.794066" lon="-3.959223">
        <ele>2236.0</ele>
        <time>2018-04-21T12:40:53.000Z</time>
      </trkpt>
      <trkpt lat="40.794066" lon="-3.959223">
        <ele>2236.0</ele>
        <time>2018-04-21T12:40:54.000Z</time>
      </trkpt>
      <trkpt lat="40.794065" lon="-3.959223">
        <ele>2236.0</ele>
        <time>2018-04-21T12:40:55.000Z</time>
      </trkpt>
      <trkpt lat="40.794065" lon="-3.959223">
        <ele>2236.0</ele>
        <time>2018-04-21T12:40:56.000Z</time>
      </trkpt>
      <trkpt lat="40.794063" lon="-3.959225">
        <ele>2236.0</ele>
        <time>2018-04-21T12:40:57.000Z</time>
      </trkpt>
      <trkpt lat="40.794061" lon="-3.959228">
        <ele>2236.0</ele>
        <time>2018-04-21T12:40:58.000Z</time>
      </trkpt>
      <trkpt lat="40.794059" lon="-3.959233">
        <ele>2236.1</ele>
        <time>2018-04-21T12:40:59.000Z</time>
      </trkpt>
      <trkpt lat="40.794056" lon="-3.959239">
        <ele>2236.2</ele>
        <time>2018-04-21T12:41:00.000Z</time>
      </trkpt>
      <trkpt lat="40.794052" lon="-3.959245">
        <ele>2236.2</ele>
        <time>2018-04-21T12:41:01.000Z</time>
      </trkpt>
      <trkpt lat="40.794049" lon="-3.959251">
        <ele>2236.3</ele>
        <time>2018-04-21T12:41:02.000Z</time>
      </trkpt>
      <trkpt lat="40.794045" lon="-3.959258">
        <ele>2236.4</ele>
        <time>2018-04-21T12:41:03.000Z</time>
      </trkpt>
      <trkpt lat="40.794041" lon="-3.959264">
        <ele>2236.4</ele>
        <time>2018-04-21T12:41:04.000Z</time>
      </trkpt>
      <trkpt lat="40.794037" lon="-3.95927">
        <ele>2236.5</ele>
        <time>2018-04-21T12:41:05.000Z</time>
      </trkpt>
      <trkpt lat="40.794033" lon="-3.959277">
        <ele>2236.6</ele>
        <time>2018-04-21T12:41:06.000Z</time>
      </trkpt>
      <trkpt lat="40.794028" lon="-3.959284">
        <ele>2236.6</ele>
        <time>2018-04-21T12:41:07.000Z</time>
      </trkpt>
      <trkpt lat="40.794024" lon="-3.959291">
        <ele>2236.7</ele>
        <time>2018-04-21T12:41:08.000Z</time>
      </trkpt>
      <trkpt lat="40.79402" lon="-3.959298">
        <ele>2236.8</ele>
        <time>2018-04-21T12:41:09.000Z</time>
      </trkpt>
      <trkpt lat="40.794015" lon="-3.959305">
        <ele>2236.8</ele>
        <time>2018-04-21T12:41:10.000Z</time>
      </trkpt>
      <trkpt lat="40.794011" lon="-3.959313">
        <ele>2237.0</ele>
        <time>2018-04-21T12:41:11.000Z</time>
      </trkpt>
      <trkpt lat="40.794007" lon="-3.959321">
        <ele>2237.1</ele>
        <time>2018-04-21T12:41:12.000Z</time>
      </trkpt>
      <trkpt lat="40.794003" lon="-3.959329">
        <ele>2237.2</ele>
        <time>2018-04-21T12:41:13.000Z</time>
      </trkpt>
      <trkpt lat="40.793999" lon="-3.959337">
        <ele>2237.3</ele>
        <time>2018-04-21T12:41:14.000Z</time>
      </trkpt>
      <trkpt lat="40.793995" lon="-3.959346">
        <ele>2237.4</ele>
        <time>2018-04-21T12:41:15.000Z</time>
      </trkpt>
      <trkpt lat="40.793991" lon="-3.959354">
        <ele>2237.5</ele>
        <time>2018-04-21T12:41:16.000Z</time>
      </trkpt>
      <trkpt lat="40.793988" lon="-3.959363">
        <ele>2237.7</ele>
        <time>2018-04-21T12:41:17.000Z</time>
      </trkpt>
      <trkpt lat="40.793985" lon="-3.959373">
        <ele>2237.8</ele>
        <time>2018-04-21T12:41:18.000Z</time>
      </trkpt>
      <trkpt lat="40.793982" lon="-3.959382">
        <ele>2238.0</ele>
        <time>2018-04-21T12:41:19.000Z</time>
      </trkpt>
      <trkpt lat="40.793979" lon="-3.959391">
        <ele>2238.1</ele>
        <time>2018-04-21T12:41:20.000Z</time>
      </trkpt>
      <trkpt lat="40.793976" lon="-3.959401">
        <ele>2238.3</ele>
        <time>2018-04-21T12:41:21.000Z</time>
      </trkpt>
      <trkpt lat="40.793973" lon="-3.95941">
        <ele>2238.5</ele>
        <time>2018-04-21T12:41:22.000Z</time>
      </trkpt>
      <trkpt lat="40.79397" lon="-3.959419">
        <ele>2238.6</ele>
        <time>2018-04-21T12:41:23.000Z</time>
      </trkpt>
      <trkpt lat="40.793968" lon="-3.959428">
        <ele>2238.8</ele>
        <time>2018-04-21T12:41:24.000Z</time>
      </trkpt>
      <trkpt lat="40.793965" lon="-3.959437">
        <ele>2239.0</ele>
        <time>2018-04-21T12:41:25.000Z</time>
      </trkpt>
      <trkpt lat="40.793962" lon="-3.959446">
        <ele>2239.1</ele>
        <time>2018-04-21T12:41:26.000Z</time>
      </trkpt>
      <trkpt lat="40.793959" lon="-3.959454">
        <ele>2239.3</ele>
        <time>2018-04-21T12:41:27.000Z</time>
      </trkpt>
      <trkpt lat="40.793957" lon="-3.959462">
        <ele>2239.4</ele>
        <time>2018-04-21T12:41:28.000Z</time>
      </trkpt>
      <trkpt lat="40.793954" lon="-3.95947">
        <ele>2239.5</ele>
        <time>2018-04-21T12:41:29.000Z</time>
      </trkpt>
      <trkpt lat="40.793951" lon="-3.959477">
        <ele>2239.6</ele>
        <time>2018-04-21T12:41:30.000Z</time>
      </trkpt>
      <trkpt lat="40.793948" lon="-3.959484">
        <ele>2239.7</ele>
        <time>2018-04-21T12:41:31.000Z</time>
      </trkpt>
      <trkpt lat="40.793945" lon="-3.95949">
        <ele>2239.8</ele>
        <time>2018-04-21T12:41:32.000Z</time>
      </trkpt>
      <trkpt lat="40.793942" lon="-3.959497">
        <ele>2239.9</ele>
        <time>2018-04-21T12:41:33.000Z</time>
      </trkpt>
      <trkpt lat="40.79394" lon="-3.959503">
        <ele>2240.0</ele>
        <time>2018-04-21T12:41:34.000Z</time>
      </trkpt>
      <trkpt lat="40.793937" lon="-3.959508">
        <ele>2240.1</ele>
        <time>2018-04-21T12:41:35.000Z</time>
      </trkpt>
      <trkpt lat="40.793934" lon="-3.959514">
        <ele>2240.2</ele>
        <time>2018-04-21T12:41:36.000Z</time>
      </trkpt>
      <trkpt lat="40.793931" lon="-3.959519">
        <ele>2240.2</ele>
        <time>2018-04-21T12:41:37.000Z</time>
      </trkpt>
      <trkpt lat="40.793928" lon="-3.959524">
        <ele>2240.3</ele>
        <time>2018-04-21T12:41:38.000Z</time>
      </trkpt>
      <trkpt lat="40.793925" lon="-3.95953">
        <ele>2240.4</ele>
        <time>2018-04-21T12:41:39.000Z</time>
      </trkpt>
      <trkpt lat="40.793922" lon="-3.959535">
        <ele>2240.4</ele>
        <time>2018-04-21T12:41:40.000Z</time>
      </trkpt>
      <trkpt lat="40.793919" lon="-3.959541">
        <ele>2240.5</ele>
        <time>2018-04-21T12:41:41.000Z</time>
      </trkpt>
      <trkpt lat="40.793917" lon="-3.959546">
        <ele>2240.6</ele>
        <time>2018-04-21T12:41:42.000Z</time>
      </trkpt>
      <trkpt lat="40.793914" lon="-3.959552">
        <ele>2240.6</ele>
        <time>2018-04-21T12:41:43.000Z</time>
      </trkpt>
      <trkpt lat="40.793911" lon="-3.959558">
        <ele>2240.7</ele>
        <time>2018-04-21T12:41:44.000Z</time>
      </trkpt>
      <trkpt lat="40.793909" lon="-3.959564">
        <ele>2240.8</ele>
        <time>2018-04-21T12:41:45.000Z</time>
      </trkpt>
      <trkpt lat="40.793906" lon="-3.95957">
        <ele>2240.9</ele>
        <time>2018-04-21T12:41:46.000Z</time>
      </trkpt>
      <trkpt lat="40.793904" lon="-3.959577">
        <ele>2241.0</ele>
        <time>2018-04-21T12:41:47.000Z</time>
      </trkpt>
      <trkpt lat="40.793901" lon="-3.959584">
        <ele>2241.1</ele>
        <time>2018-04-21T12:41:48.000Z</time>
      </trkpt>
      <trkpt lat="40.793899" lon="-3.959591">
        <ele>2241.3</ele>
        <time>2018-04-21T12:41:49.000Z</time>
      </trkpt>
      <trkpt lat="40.793897" lon="-3.959599">
        <ele>2241.4</ele>
        <time>2018-04-21T12:41:50.000Z</time>
      </trkpt>
      <trkpt lat="40.793894" lon="-3.959606">
        <ele>2241.5</ele>
        <time>2018-04-21T12:41:51.000Z</time>
      </trkpt>
      <trkpt lat="40.793892" lon="-3.959613">
        <ele>2241.7</ele>
        <time>2018-04-21T12:41:52.000Z</time>
      </trkpt>
      <trkpt lat="40.793889" lon="-3.959621">
        <ele>2241.8</ele>
        <time>2018-04-21T12:41:53.000Z</time>
      </trkpt>
      <trkpt lat="40.793887" lon="-3.959628">
        <ele>2241.9</ele>
        <time>2018-04-21T12:41:54.000Z</time>
      </trkpt>
      <trkpt lat="40.793884" lon="-3.959635">
        <ele>2242.0</ele>
        <time>2018-04-21T12:41:55.000Z</time>
      </trkpt>
      <trkpt lat="40.793881" lon="-3.959642">
        <ele>2242.1</ele>
        <time>2018-04-21T12:41:56.000Z</time>
      </trkpt>
      <trkpt lat="40.793878" lon="-3.959649">
        <ele>2242.2</ele>
        <time>2018-04-21T12:41:57.000Z</time>
      </trkpt>
      <trkpt lat="40.793875" lon="-3.959656">
        <ele>2242.3</ele>
        <time>2018-04-21T12:41:58.000Z</time>
      </trkpt>
      <trkpt lat="40.793872" lon="-3.959662">
        <ele>2242.4</ele>
        <time>2018-04-21T12:41:59.000Z</time>
      </trkpt>
      <trkpt lat="40.793869" lon="-3.959668">
        <ele>2242.5</ele>
        <time>2018-04-21T12:42:00.000Z</time>
      </trkpt>
      <trkpt lat="40.793865" lon="-3.959673">
        <ele>2242.5</ele>
        <time>2018-04-21T12:42:01.000Z</time>
      </trkpt>
      <trkpt lat="40.793862" lon="-3.959679">
        <ele>2242.6</ele>
        <time>2018-04-21T12:42:02.000Z</time>
      </trkpt>
      <trkpt lat="40.793858" lon="-3.959684">
        <ele>2242.6</ele>
        <time>2018-04-21T12:42:03.000Z</time>
      </trkpt>
      <trkpt lat="40.793854" lon="-3.959689">
        <ele>2242.7</ele>
        <time>2018-04-21T12:42:04.000Z</time>
      </trkpt>
      <trkpt lat="40.793851" lon="-3.959694">
        <ele>2242.7</ele>
        <time>2018-04-21T12:42:05.000Z</time>
      </trkpt>
      <trkpt lat="40.793847" lon="-3.959698">
        <ele>2242.7</ele>
        <time>2018-04-21T12:42:06.000Z</time>
      </trkpt>
      <trkpt lat="40.793843" lon="-3.959703">
        <ele>2242.7</ele>
        <time>2018-04-21T12:42:07.000Z</time>
      </trkpt>
      <trkpt lat="40.79384" lon="-3.959708">
        <ele>2242.8</ele>
        <time>2018-04-21T12:42:08.000Z</time>
      </trkpt>
      <trkpt lat="40.793836" lon="-3.959713">
        <ele>2242.8</ele>
        <time>2018-04-21T12:42:09.000Z</time>
      </trkpt>
      <trkpt lat="40.793833" lon="-3.959718">
        <ele>2242.9</ele>
        <time>2018-04-21T12:42:10.000Z</time>
      </trkpt>
      <trkpt lat="40.793829" lon="-3.959724">
        <ele>2242.9</ele>
        <time>2018-04-21T12:42:11.000Z</time>
      </trkpt>
      <trkpt lat="40.793825" lon="-3.959729">
        <ele>2243.0</ele>
        <time>2018-04-21T12:42:12.000Z</time>
      </trkpt>
      <trkpt lat="40.793821" lon="-3.959735">
        <ele>2243.0</ele>
        <time>2018-04-21T12:42:13.000Z</time>
      </trkpt>
      <trkpt lat="40.793817" lon="-3.959742">
        <ele>2243.1</ele>
        <time>2018-04-21T12:42:14.000Z</time>
      </trkpt>
      <trkpt lat="40.793812" lon="-3.959749">
        <ele>2243.2</ele>
        <time>2018-04-21T12:42:15.000Z</time>
      </trkpt>
      <trkpt lat="40.793808" lon="-3.959756">
        <ele>2243.2</ele>
        <time>2018-04-21T12:42:16.000Z</time>
      </trkpt>
      <trkpt lat="40.793803" lon="-3.959764">
        <ele>2243.3</ele>
        <time>2018-04-21T12:42:17.000Z</time>
      </trkpt>
      <trkpt lat="40.793797" lon="-3.959772">
        <ele>2243.4</ele>
        <time>2018-04-21T12:42:18.000Z</time>
      </trkpt>
      <trkpt lat="40.793792" lon="-3.95978">
        <ele>2243.5</ele>
        <time>2018-04-21T12:42:19.000Z</time>
      </trkpt>
      <trkpt lat="40.793787" lon="-3.959788">
        <ele>2243.5</ele>
        <time>2018-04-21T12:42:20.000Z</time>
      </trkpt>
      <trkpt lat="40.793781" lon="-3.959797">
        <ele>2243.6</ele>
        <time>2018-04-21T12:42:21.000Z</time>
      </trkpt>
      <trkpt lat="40.793775" lon="-3.959806">
        <ele>2243.7</ele>
        <time>2018-04-21T12:42:22.000Z</time>
      </trkpt>
      <trkpt lat="40.79377" lon="-3.959814">
        <ele>2243.8</ele>
        <time>2018-04-21T12:42:23.000Z</time>
      </trkpt>
      <trkpt lat="40.793764" lon="-3.959823">
        <ele>2243.9</ele>
        <time>2018-04-21T12:42:24.000Z</time>
      </trkpt>
      <trkpt lat="40.793759" lon="-3.959832">
        <ele>2244.0</ele>
        <time>2018-04-21T12:42:25.000Z</time>
      </trkpt>
      <trkpt lat="40.793754" lon="-3.95984">
        <ele>2244.1</ele>
        <time>2018-04-21T12:42:26.000Z</time>
      </trkpt>
      <trkpt lat="40.793749" lon="-3.959848">
        <ele>2244.1</ele>
        <time>2018-04-21T12:42:27.000Z</time>
      </trkpt>
      <trkpt lat="40.793744" lon="-3.959856">
        <ele>2244.2</ele>
        <time>2018-04-21T12:42:28.000Z</time>
      </trkpt>
      <trkpt lat="40.793739" lon="-3.959864">
        <ele>2244.3</ele>
        <time>2018-04-21T12:42:29.000Z</time>
      </trkpt>
      <trkpt lat="40.793735" lon="-3.959872">
        <ele>2244.4</ele>
        <time>2018-04-21T12:42:30.000Z</time>
      </trkpt>
      <trkpt lat="40.79373" lon="-3.959879">
        <ele>2244.5</ele>
        <time>2018-04-21T12:42:31.000Z</time>
      </trkpt>
      <trkpt lat="40.793727" lon="-3.959886">
        <ele>2244.6</ele>
        <time>2018-04-21T12:42:32.000Z</time>
      </trkpt>
      <trkpt lat="40.793723" lon="-3.959892">
        <ele>2244.6</ele>
        <time>2018-04-21T12:42:33.000Z</time>
      </trkpt>
      <trkpt lat="40.79372" lon="-3.959898">
        <ele>2244.7</ele>
        <time>2018-04-21T12:42:34.000Z</time>
      </trkpt>
      <trkpt lat="40.793716" lon="-3.959904">
        <ele>2244.8</ele>
        <time>2018-04-21T12:42:35.000Z</time>
      </trkpt>
      <trkpt lat="40.793714" lon="-3.959909">
        <ele>2244.8</ele>
        <time>2018-04-21T12:42:36.000Z</time>
      </trkpt>
      <trkpt lat="40.793711" lon="-3.959914">
        <ele>2244.9</ele>
        <time>2018-04-21T12:42:37.000Z</time>
      </trkpt>
      <trkpt lat="40.793709" lon="-3.959918">
        <ele>2244.9</ele>
        <time>2018-04-21T12:42:38.000Z</time>
      </trkpt>
      <trkpt lat="40.793707" lon="-3.959922">
        <ele>2245.0</ele>
        <time>2018-04-21T12:42:39.000Z</time>
      </trkpt>
      <trkpt lat="40.793705" lon="-3.959926">
        <ele>2245.1</ele>
        <time>2018-04-21T12:42:40.000Z</time>
      </trkpt>
      <trkpt lat="40.793703" lon="-3.959928">
        <ele>2245.1</ele>
        <time>2018-04-21T12:42:41.000Z</time>
      </trkpt>
      <trkpt lat="40.793702" lon="-3.959931">
        <ele>2245.1</ele>
        <time>2018-04-21T12:42:42.000Z</time>
      </trkpt>
      <trkpt lat="40.793701" lon="-3.959932">
        <ele>2245.1</ele>
        <time>2018-04-21T12:42:43.000Z</time>
      </trkpt>
      <trkpt lat="40.7937" lon="-3.959933">
        <ele>2245.1</ele>
        <time>2018-04-21T12:42:44.000Z</time>
      </trkpt>
      <trkpt lat="40.7937" lon="-3.959934">
        <ele>2245.1</ele>
        <time>2018-04-21T12:42:45.000Z</time>
      </trkpt>
      <trkpt lat="40.7937" lon="-3.959934">
        <ele>2245.1</ele>
        <time>2018-04-21T12:42:46.000Z</time>
      </trkpt>
      <trkpt lat="40.793699" lon="-3.959934">
        <ele>2245.1</ele>
        <time>2018-04-21T12:42:47.000Z</time>
      </trkpt>
      <trkpt lat="40.793699" lon="-3.959934">
        <ele>2245.1</ele>
        <time>2018-04-21T12:42:48.000Z</time>
      </trkpt>
      <trkpt lat="40.793699" lon="-3.959934">
        <ele>2245.1</ele>
        <time>2018-04-21T12:42:49.000Z</time>
      </trkpt>
      <trkpt lat="40.793699" lon="-3.959933">
        <ele>2245.1</ele>
        <time>2018-04-21T12:42:50.000Z</time>
      </trkpt>
      <trkpt lat="40.7937" lon="-3.959933">
        <ele>2245.1</ele>
        <time>2018-04-21T12:42:51.000Z</time>
      </trkpt>
      <trkpt lat="40.793699" lon="-3.959933">
        <ele>2245.1</ele>
        <time>2018-04-21T12:42:52.000Z</time>
      </trkpt>
      <trkpt lat="40.793699" lon="-3.959933">
        <ele>2245.1</ele>
        <time>2018-04-21T12:42:53.000Z</time>
      </trkpt>
      <trkpt lat="40.793699" lon="-3.959934">
        <ele>2245.1</ele>
        <time>2018-04-21T12:42:54.000Z</time>
      </trkpt>
      <trkpt lat="40.793699" lon="-3.959935">
        <ele>2245.1</ele>
        <time>2018-04-21T12:42:55.000Z</time>
      </trkpt>
      <trkpt lat="40.793698" lon="-3.959937">
        <ele>2245.2</ele>
        <time>2018-04-21T12:42:56.000Z</time>
      </trkpt>
      <trkpt lat="40.793697" lon="-3.959939">
        <ele>2245.2</ele>
        <time>2018-04-21T12:42:57.000Z</time>
      </trkpt>
      <trkpt lat="40.793696" lon="-3.959942">
        <ele>2245.2</ele>
        <time>2018-04-21T12:42:58.000Z</time>
      </trkpt>
      <trkpt lat="40.793694" lon="-3.959946">
        <ele>2245.3</ele>
        <time>2018-04-21T12:42:59.000Z</time>
      </trkpt>
      <trkpt lat="40.793692" lon="-3.959951">
        <ele>2245.4</ele>
        <time>2018-04-21T12:43:00.000Z</time>
      </trkpt>
      <trkpt lat="40.79369" lon="-3.959956">
        <ele>2245.5</ele>
        <time>2018-04-21T12:43:01.000Z</time>
      </trkpt>
      <trkpt lat="40.793687" lon="-3.959961">
        <ele>2245.5</ele>
        <time>2018-04-21T12:43:02.000Z</time>
      </trkpt>
      <trkpt lat="40.793685" lon="-3.959968">
        <ele>2245.6</ele>
        <time>2018-04-21T12:43:03.000Z</time>
      </trkpt>
      <trkpt lat="40.793682" lon="-3.959974">
        <ele>2245.7</ele>
        <time>2018-04-21T12:43:04.000Z</time>
      </trkpt>
      <trkpt lat="40.793678" lon="-3.959981">
        <ele>2245.8</ele>
        <time>2018-04-21T12:43:05.000Z</time>
      </trkpt>
      <trkpt lat="40.793675" lon="-3.959989">
        <ele>2245.9</ele>
        <time>2018-04-21T12:43:06.000Z</time>
      </trkpt>
      <trkpt lat="40.793671" lon="-3.959996">
        <ele>2246.0</ele>
        <time>2018-04-21T12:43:07.000Z</time>
      </trkpt>
      <trkpt lat="40.793667" lon="-3.960004">
        <ele>2246.1</ele>
        <time>2018-04-21T12:43:08.000Z</time>
      </trkpt>
      <trkpt lat="40.793663" lon="-3.960013">
        <ele>2246.2</ele>
        <time>2018-04-21T12:43:09.000Z</time>
      </trkpt>
      <trkpt lat="40.793659" lon="-3.960021">
        <ele>2246.2</ele>
        <time>2018-04-21T12:43:10.000Z</time>
      </trkpt>
      <trkpt lat="40.793654" lon="-3.960029">
        <ele>2246.3</ele>
        <time>2018-04-21T12:43:11.000Z</time>
      </trkpt>
      <trkpt lat="40.79365" lon="-3.960038">
        <ele>2246.3</ele>
        <time>2018-04-21T12:43:12.000Z</time>
      </trkpt>
      <trkpt lat="40.793645" lon="-3.960046">
        <ele>2246.4</ele>
        <time>2018-04-21T12:43:13.000Z</time>
      </trkpt>
      <trkpt lat="40.79364" lon="-3.960055">
        <ele>2246.5</ele>
        <time>2018-04-21T12:43:14.000Z</time>
      </trkpt>
      <trkpt lat="40.793635" lon="-3.960063">
        <ele>2246.5</ele>
        <time>2018-04-21T12:43:15.000Z</time>
      </trkpt>
      <trkpt lat="40.79363" lon="-3.960071">
        <ele>2246.5</ele>
        <time>2018-04-21T12:43:16.000Z</time>
      </trkpt>
      <trkpt lat="40.793625" lon="-3.96008">
        <ele>2246.6</ele>
        <time>2018-04-21T12:43:17.000Z</time>
      </trkpt>
      <trkpt lat="40.793619" lon="-3.960088">
        <ele>2246.6</ele>
        <time>2018-04-21T12:43:18.000Z</time>
      </trkpt>
      <trkpt lat="40.793614" lon="-3.960097">
        <ele>2246.7</ele>
        <time>2018-04-21T12:43:19.000Z</time>
      </trkpt>
      <trkpt lat="40.793609" lon="-3.960105">
        <ele>2246.8</ele>
        <time>2018-04-21T12:43:20.000Z</time>
      </trkpt>
      <trkpt lat="40.793603" lon="-3.960114">
        <ele>2246.8</ele>
        <time>2018-04-21T12:43:21.000Z</time>
      </trkpt>
      <trkpt lat="40.793598" lon="-3.960122">
        <ele>2246.9</ele>
        <time>2018-04-21T12:43:22.000Z</time>
      </trkpt>
      <trkpt lat="40.793592" lon="-3.960131">
        <ele>2246.9</ele>
        <time>2018-04-21T12:43:23.000Z</time>
      </trkpt>
      <trkpt lat="40.793587" lon="-3.960139">
        <ele>2247.0</ele>
        <time>2018-04-21T12:43:24.000Z</time>
      </trkpt>
      <trkpt lat="40.793581" lon="-3.960148">
        <ele>2247.0</ele>
        <time>2018-04-21T12:43:25.000Z</time>
      </trkpt>
      <trkpt lat="40.793575" lon="-3.960156">
        <ele>2247.1</ele>
        <time>2018-04-21T12:43:26.000Z</time>
      </trkpt>
      <trkpt lat="40.79357" lon="-3.960165">
        <ele>2247.2</ele>
        <time>2018-04-21T12:43:27.000Z</time>
      </trkpt>
      <trkpt lat="40.793564" lon="-3.960174">
        <ele>2247.2</ele>
        <time>2018-04-21T12:43:28.000Z</time>
      </trkpt>
      <trkpt lat="40.793559" lon="-3.960183">
        <ele>2247.3</ele>
        <time>2018-04-21T12:43:29.000Z</time>
      </trkpt>
      <trkpt lat="40.793554" lon="-3.960191">
        <ele>2247.4</ele>
        <time>2018-04-21T12:43:30.000Z</time>
      </trkpt>
      <trkpt lat="40.793548" lon="-3.9602">
        <ele>2247.5</ele>
        <time>2018-04-21T12:43:31.000Z</time>
      </trkpt>
      <trkpt lat="40.793543" lon="-3.960209">
        <ele>2247.5</ele>
        <time>2018-04-21T12:43:32.000Z</time>
      </trkpt>
      <trkpt lat="40.793538" lon="-3.960218">
        <ele>2247.6</ele>
        <time>2018-04-21T12:43:33.000Z</time>
      </trkpt>
      <trkpt lat="40.793533" lon="-3.960226">
        <ele>2247.7</ele>
        <time>2018-04-21T12:43:34.000Z</time>
      </trkpt>
      <trkpt lat="40.793528" lon="-3.960235">
        <ele>2247.8</ele>
        <time>2018-04-21T12:43:35.000Z</time>
      </trkpt>
      <trkpt lat="40.793523" lon="-3.960244">
        <ele>2247.9</ele>
        <time>2018-04-21T12:43:36.000Z</time>
      </trkpt>
      <trkpt lat="40.793518" lon="-3.960252">
        <ele>2248.0</ele>
        <time>2018-04-21T12:43:37.000Z</time>
      </trkpt>
      <trkpt lat="40.793513" lon="-3.960261">
        <ele>2248.1</ele>
        <time>2018-04-21T12:43:38.000Z</time>
      </trkpt>
      <trkpt lat="40.793508" lon="-3.960269">
        <ele>2248.2</ele>
        <time>2018-04-21T12:43:39.000Z</time>
      </trkpt>
      <trkpt lat="40.793503" lon="-3.960278">
        <ele>2248.3</ele>
        <time>2018-04-21T12:43:40.000Z</time>
      </trkpt>
      <trkpt lat="40.793499" lon="-3.960286">
        <ele>2248.4</ele>
        <time>2018-04-21T12:43:41.000Z</time>
      </trkpt>
      <trkpt lat="40.793494" lon="-3.960294">
        <ele>2248.4</ele>
        <time>2018-04-21T12:43:42.000Z</time>
      </trkpt>
      <trkpt lat="40.79349" lon="-3.960302">
        <ele>2248.6</ele>
        <time>2018-04-21T12:43:43.000Z</time>
      </trkpt>
      <trkpt lat="40.793486" lon="-3.960309">
        <ele>2248.6</ele>
        <time>2018-04-21T12:43:44.000Z</time>
      </trkpt>
      <trkpt lat="40.793482" lon="-3.960317">
        <ele>2248.7</ele>
        <time>2018-04-21T12:43:45.000Z</time>
      </trkpt>
      <trkpt lat="40.793477" lon="-3.960325">
        <ele>2248.8</ele>
        <time>2018-04-21T12:43:46.000Z</time>
      </trkpt>
      <trkpt lat="40.793474" lon="-3.960332">
        <ele>2248.9</ele>
        <time>2018-04-21T12:43:47.000Z</time>
      </trkpt>
      <trkpt lat="40.79347" lon="-3.96034">
        <ele>2249.0</ele>
        <time>2018-04-21T12:43:48.000Z</time>
      </trkpt>
      <trkpt lat="40.793466" lon="-3.960348">
        <ele>2249.2</ele>
        <time>2018-04-21T12:43:49.000Z</time>
      </trkpt>
      <trkpt lat="40.793463" lon="-3.960355">
        <ele>2249.3</ele>
        <time>2018-04-21T12:43:50.000Z</time>
      </trkpt>
      <trkpt lat="40.793459" lon="-3.960363">
        <ele>2249.4</ele>
        <time>2018-04-21T12:43:51.000Z</time>
      </trkpt>
      <trkpt lat="40.793456" lon="-3.960371">
        <ele>2249.5</ele>
        <time>2018-04-21T12:43:52.000Z</time>
      </trkpt>
      <trkpt lat="40.793453" lon="-3.960379">
        <ele>2249.6</ele>
        <time>2018-04-21T12:43:53.000Z</time>
      </trkpt>
      <trkpt lat="40.79345" lon="-3.960387">
        <ele>2249.8</ele>
        <time>2018-04-21T12:43:54.000Z</time>
      </trkpt>
      <trkpt lat="40.793447" lon="-3.960395">
        <ele>2249.9</ele>
        <time>2018-04-21T12:43:55.000Z</time>
      </trkpt>
      <trkpt lat="40.793445" lon="-3.960404">
        <ele>2250.1</ele>
        <time>2018-04-21T12:43:56.000Z</time>
      </trkpt>
      <trkpt lat="40.793442" lon="-3.960413">
        <ele>2250.2</ele>
        <time>2018-04-21T12:43:57.000Z</time>
      </trkpt>
      <trkpt lat="40.79344" lon="-3.960422">
        <ele>2250.4</ele>
        <time>2018-04-21T12:43:58.000Z</time>
      </trkpt>
      <trkpt lat="40.793437" lon="-3.960431">
        <ele>2250.6</ele>
        <time>2018-04-21T12:43:59.000Z</time>
      </trkpt>
      <trkpt lat="40.793435" lon="-3.960439">
        <ele>2250.7</ele>
        <time>2018-04-21T12:44:00.000Z</time>
      </trkpt>
      <trkpt lat="40.793433" lon="-3.960448">
        <ele>2250.9</ele>
        <time>2018-04-21T12:44:01.000Z</time>
      </trkpt>
      <trkpt lat="40.793431" lon="-3.960456">
        <ele>2251.1</ele>
        <time>2018-04-21T12:44:02.000Z</time>
      </trkpt>
      <trkpt lat="40.793428" lon="-3.960464">
        <ele>2251.2</ele>
        <time>2018-04-21T12:44:03.000Z</time>
      </trkpt>
      <trkpt lat="40.793425" lon="-3.960471">
        <ele>2251.3</ele>
        <time>2018-04-21T12:44:04.000Z</time>
      </trkpt>
      <trkpt lat="40.793422" lon="-3.960478">
        <ele>2251.4</ele>
        <time>2018-04-21T12:44:05.000Z</time>
      </trkpt>
      <trkpt lat="40.793419" lon="-3.960484">
        <ele>2251.5</ele>
        <time>2018-04-21T12:44:06.000Z</time>
      </trkpt>
      <trkpt lat="40.793416" lon="-3.960489">
        <ele>2251.6</ele>
        <time>2018-04-21T12:44:07.000Z</time>
      </trkpt>
      <trkpt lat="40.793413" lon="-3.960495">
        <ele>2251.7</ele>
        <time>2018-04-21T12:44:08.000Z</time>
      </trkpt>
      <trkpt lat="40.79341" lon="-3.960501">
        <ele>2251.8</ele>
        <time>2018-04-21T12:44:09.000Z</time>
      </trkpt>
      <trkpt lat="40.793406" lon="-3.960508">
        <ele>2251.9</ele>
        <time>2018-04-21T12:44:10.000Z</time>
      </trkpt>
      <trkpt lat="40.793403" lon="-3.960515">
        <ele>2252.0</ele>
        <time>2018-04-21T12:44:11.000Z</time>
      </trkpt>
      <trkpt lat="40.793401" lon="-3.960523">
        <ele>2252.2</ele>
        <time>2018-04-21T12:44:12.000Z</time>
      </trkpt>
      <trkpt lat="40.793398" lon="-3.960532">
        <ele>2252.4</ele>
        <time>2018-04-21T12:44:13.000Z</time>
      </trkpt>
      <trkpt lat="40.793396" lon="-3.960541">
        <ele>2252.6</ele>
        <time>2018-04-21T12:44:14.000Z</time>
      </trkpt>
      <trkpt lat="40.793393" lon="-3.960549">
        <ele>2252.7</ele>
        <time>2018-04-21T12:44:15.000Z</time>
      </trkpt>
      <trkpt lat="40.793392" lon="-3.960558">
        <ele>2252.9</ele>
        <time>2018-04-21T12:44:16.000Z</time>
      </trkpt>
      <trkpt lat="40.79339" lon="-3.960565">
        <ele>2253.0</ele>
        <time>2018-04-21T12:44:17.000Z</time>
      </trkpt>
      <trkpt lat="40.793389" lon="-3.960571">
        <ele>2253.2</ele>
        <time>2018-04-21T12:44:18.000Z</time>
      </trkpt>
      <trkpt lat="40.793388" lon="-3.960575">
        <ele>2253.3</ele>
        <time>2018-04-21T12:44:19.000Z</time>
      </trkpt>
      <trkpt lat="40.793387" lon="-3.960577">
        <ele>2253.3</ele>
        <time>2018-04-21T12:44:20.000Z</time>
      </trkpt>
      <trkpt lat="40.793387" lon="-3.960578">
        <ele>2253.3</ele>
        <time>2018-04-21T12:44:21.000Z</time>
      </trkpt>
      <trkpt lat="40.793387" lon="-3.960578">
        <ele>2253.3</ele>
        <time>2018-04-21T12:44:22.000Z</time>
      </trkpt>
      <trkpt lat="40.793387" lon="-3.960577">
        <ele>2253.3</ele>
        <time>2018-04-21T12:44:23.000Z</time>
      </trkpt>
      <trkpt lat="40.793388" lon="-3.960577">
        <ele>2253.3</ele>
        <time>2018-04-21T12:44:24.000Z</time>
      </trkpt>
      <trkpt lat="40.793388" lon="-3.960578">
        <ele>2253.3</ele>
        <time>2018-04-21T12:44:25.000Z</time>
      </trkpt>
      <trkpt lat="40.793387" lon="-3.96058">
        <ele>2253.4</ele>
        <time>2018-04-21T12:44:26.000Z</time>
      </trkpt>
      <trkpt lat="40.793386" lon="-3.960585">
        <ele>2253.5</ele>
        <time>2018-04-21T12:44:27.000Z</time>
      </trkpt>
      <trkpt lat="40.793384" lon="-3.96059">
        <ele>2253.6</ele>
        <time>2018-04-21T12:44:28.000Z</time>
      </trkpt>
      <trkpt lat="40.793382" lon="-3.960597">
        <ele>2253.7</ele>
        <time>2018-04-21T12:44:29.000Z</time>
      </trkpt>
      <trkpt lat="40.793381" lon="-3.960604">
        <ele>2253.9</ele>
        <time>2018-04-21T12:44:30.000Z</time>
      </trkpt>
      <trkpt lat="40.793379" lon="-3.960612">
        <ele>2254.0</ele>
        <time>2018-04-21T12:44:31.000Z</time>
      </trkpt>
      <trkpt lat="40.793377" lon="-3.960619">
        <ele>2254.2</ele>
        <time>2018-04-21T12:44:32.000Z</time>
      </trkpt>
      <trkpt lat="40.793376" lon="-3.960626">
        <ele>2254.3</ele>
        <time>2018-04-21T12:44:33.000Z</time>
      </trkpt>
      <trkpt lat="40.793376" lon="-3.960632">
        <ele>2254.5</ele>
        <time>2018-04-21T12:44:34.000Z</time>
      </trkpt>
      <trkpt lat="40.793375" lon="-3.960637">
        <ele>2254.6</ele>
        <time>2018-04-21T12:44:35.000Z</time>
      </trkpt>
      <trkpt lat="40.793375" lon="-3.960642">
        <ele>2254.7</ele>
        <time>2018-04-21T12:44:36.000Z</time>
      </trkpt>
      <trkpt lat="40.793375" lon="-3.960646">
        <ele>2254.8</ele>
        <time>2018-04-21T12:44:37.000Z</time>
      </trkpt>
      <trkpt lat="40.793375" lon="-3.960651">
        <ele>2254.9</ele>
        <time>2018-04-21T12:44:38.000Z</time>
      </trkpt>
      <trkpt lat="40.793374" lon="-3.960657">
        <ele>2255.1</ele>
        <time>2018-04-21T12:44:39.000Z</time>
      </trkpt>
      <trkpt lat="40.793373" lon="-3.960664">
        <ele>2255.2</ele>
        <time>2018-04-21T12:44:40.000Z</time>
      </trkpt>
      <trkpt lat="40.793371" lon="-3.960671">
        <ele>2255.4</ele>
        <time>2018-04-21T12:44:41.000Z</time>
      </trkpt>
      <trkpt lat="40.793368" lon="-3.960679">
        <ele>2255.5</ele>
        <time>2018-04-21T12:44:42.000Z</time>
      </trkpt>
      <trkpt lat="40.793365" lon="-3.960688">
        <ele>2255.7</ele>
        <time>2018-04-21T12:44:43.000Z</time>
      </trkpt>
      <trkpt lat="40.793362" lon="-3.960697">
        <ele>2255.9</ele>
        <time>2018-04-21T12:44:44.000Z</time>
      </trkpt>
      <trkpt lat="40.793359" lon="-3.960707">
        <ele>2256.1</ele>
        <time>2018-04-21T12:44:45.000Z</time>
      </trkpt>
      <trkpt lat="40.793356" lon="-3.960716">
        <ele>2256.3</ele>
        <time>2018-04-21T12:44:46.000Z</time>
      </trkpt>
      <trkpt lat="40.793353" lon="-3.960724">
        <ele>2256.5</ele>
        <time>2018-04-21T12:44:47.000Z</time>
      </trkpt>
      <trkpt lat="40.793351" lon="-3.960731">
        <ele>2256.6</ele>
        <time>2018-04-21T12:44:48.000Z</time>
      </trkpt>
      <trkpt lat="40.793349" lon="-3.960738">
        <ele>2256.8</ele>
        <time>2018-04-21T12:44:49.000Z</time>
      </trkpt>
      <trkpt lat="40.793348" lon="-3.960744">
        <ele>2256.9</ele>
        <time>2018-04-21T12:44:50.000Z</time>
      </trkpt>
      <trkpt lat="40.793347" lon="-3.960749">
        <ele>2257.0</ele>
        <time>2018-04-21T12:44:51.000Z</time>
      </trkpt>
      <trkpt lat="40.793347" lon="-3.960753">
        <ele>2257.1</ele>
        <time>2018-04-21T12:44:52.000Z</time>
      </trkpt>
      <trkpt lat="40.793347" lon="-3.960757">
        <ele>2257.2</ele>
        <time>2018-04-21T12:44:53.000Z</time>
      </trkpt>
      <trkpt lat="40.793347" lon="-3.96076">
        <ele>2257.3</ele>
        <time>2018-04-21T12:44:54.000Z</time>
      </trkpt>
      <trkpt lat="40.793347" lon="-3.960762">
        <ele>2257.4</ele>
        <time>2018-04-21T12:44:55.000Z</time>
      </trkpt>
      <trkpt lat="40.793348" lon="-3.960764">
        <ele>2257.4</ele>
        <time>2018-04-21T12:44:56.000Z</time>
      </trkpt>
      <trkpt lat="40.793348" lon="-3.960765">
        <ele>2257.4</ele>
        <time>2018-04-21T12:44:57.000Z</time>
      </trkpt>
      <trkpt lat="40.793349" lon="-3.960767">
        <ele>2257.5</ele>
        <time>2018-04-21T12:44:58.000Z</time>
      </trkpt>
      <trkpt lat="40.793349" lon="-3.96077">
        <ele>2257.6</ele>
        <time>2018-04-21T12:44:59.000Z</time>
      </trkpt>
      <trkpt lat="40.793348" lon="-3.960772">
        <ele>2257.6</ele>
        <time>2018-04-21T12:45:00.000Z</time>
      </trkpt>
      <trkpt lat="40.793348" lon="-3.960776">
        <ele>2257.7</ele>
        <time>2018-04-21T12:45:01.000Z</time>
      </trkpt>
      <trkpt lat="40.793346" lon="-3.960781">
        <ele>2257.8</ele>
        <time>2018-04-21T12:45:02.000Z</time>
      </trkpt>
      <trkpt lat="40.793344" lon="-3.960788">
        <ele>2258.0</ele>
        <time>2018-04-21T12:45:03.000Z</time>
      </trkpt>
      <trkpt lat="40.793341" lon="-3.960795">
        <ele>2258.1</ele>
        <time>2018-04-21T12:45:04.000Z</time>
      </trkpt>
      <trkpt lat="40.793338" lon="-3.960804">
        <ele>2258.3</ele>
        <time>2018-04-21T12:45:05.000Z</time>
      </trkpt>
      <trkpt lat="40.793335" lon="-3.960813">
        <ele>2258.5</ele>
        <time>2018-04-21T12:45:06.000Z</time>
      </trkpt>
      <trkpt lat="40.793331" lon="-3.960823">
        <ele>2258.7</ele>
        <time>2018-04-21T12:45:07.000Z</time>
      </trkpt>
      <trkpt lat="40.793328" lon="-3.960833">
        <ele>2258.9</ele>
        <time>2018-04-21T12:45:08.000Z</time>
      </trkpt>
      <trkpt lat="40.793326" lon="-3.960842">
        <ele>2259.0</ele>
        <time>2018-04-21T12:45:09.000Z</time>
      </trkpt>
      <trkpt lat="40.793324" lon="-3.960852">
        <ele>2259.0</ele>
        <time>2018-04-21T12:45:10.000Z</time>
      </trkpt>
      <trkpt lat="40.793322" lon="-3.960861">
        <ele>2259.1</ele>
        <time>2018-04-21T12:45:11.000Z</time>
      </trkpt>
      <trkpt lat="40.793321" lon="-3.96087">
        <ele>2259.2</ele>
        <time>2018-04-21T12:45:12.000Z</time>
      </trkpt>
      <trkpt lat="40.79332" lon="-3.960878">
        <ele>2259.3</ele>
        <time>2018-04-21T12:45:13.000Z</time>
      </trkpt>
      <trkpt lat="40.793319" lon="-3.960885">
        <ele>2259.3</ele>
        <time>2018-04-21T12:45:14.000Z</time>
      </trkpt>
      <trkpt lat="40.793317" lon="-3.960891">
        <ele>2259.3</ele>
        <time>2018-04-21T12:45:15.000Z</time>
      </trkpt>
      <trkpt lat="40.793316" lon="-3.960896">
        <ele>2259.4</ele>
        <time>2018-04-21T12:45:16.000Z</time>
      </trkpt>
      <trkpt lat="40.793316" lon="-3.960899">
        <ele>2259.4</ele>
        <time>2018-04-21T12:45:17.000Z</time>
      </trkpt>
      <trkpt lat="40.793316" lon="-3.960899">
        <ele>2259.4</ele>
        <time>2018-04-21T12:45:18.000Z</time>
      </trkpt>
      <trkpt lat="40.793316" lon="-3.960898">
        <ele>2259.4</ele>
        <time>2018-04-21T12:45:19.000Z</time>
      </trkpt>
      <trkpt lat="40.793316" lon="-3.960898">
        <ele>2259.4</ele>
        <time>2018-04-21T12:45:20.000Z</time>
      </trkpt>
      <trkpt lat="40.793315" lon="-3.960901">
        <ele>2259.4</ele>
        <time>2018-04-21T12:45:21.000Z</time>
      </trkpt>
      <trkpt lat="40.793314" lon="-3.960907">
        <ele>2259.5</ele>
        <time>2018-04-21T12:45:22.000Z</time>
      </trkpt>
      <trkpt lat="40.793313" lon="-3.960916">
        <ele>2259.5</ele>
        <time>2018-04-21T12:45:23.000Z</time>
      </trkpt>
      <trkpt lat="40.793311" lon="-3.960925">
        <ele>2259.6</ele>
        <time>2018-04-21T12:45:24.000Z</time>
      </trkpt>
      <trkpt lat="40.79331" lon="-3.960934">
        <ele>2259.7</ele>
        <time>2018-04-21T12:45:25.000Z</time>
      </trkpt>
      <trkpt lat="40.793308" lon="-3.960942">
        <ele>2259.8</ele>
        <time>2018-04-21T12:45:26.000Z</time>
      </trkpt>
      <trkpt lat="40.793306" lon="-3.96095">
        <ele>2259.8</ele>
        <time>2018-04-21T12:45:27.000Z</time>
      </trkpt>
      <trkpt lat="40.793305" lon="-3.960958">
        <ele>2259.9</ele>
        <time>2018-04-21T12:45:28.000Z</time>
      </trkpt>
      <trkpt lat="40.793303" lon="-3.960967">
        <ele>2260.0</ele>
        <time>2018-04-21T12:45:29.000Z</time>
      </trkpt>
      <trkpt lat="40.793302" lon="-3.960976">
        <ele>2260.0</ele>
        <time>2018-04-21T12:45:30.000Z</time>
      </trkpt>
      <trkpt lat="40.793301" lon="-3.960984">
        <ele>2260.1</ele>
        <time>2018-04-21T12:45:31.000Z</time>
      </trkpt>
      <trkpt lat="40.793299" lon="-3.960992">
        <ele>2260.2</ele>
        <time>2018-04-21T12:45:32.000Z</time>
      </trkpt>
      <trkpt lat="40.793298" lon="-3.960997">
        <ele>2260.2</ele>
        <time>2018-04-21T12:45:33.000Z</time>
      </trkpt>
      <trkpt lat="40.793296" lon="-3.961002">
        <ele>2260.2</ele>
        <time>2018-04-21T12:45:34.000Z</time>
      </trkpt>
      <trkpt lat="40.793294" lon="-3.961008">
        <ele>2260.3</ele>
        <time>2018-04-21T12:45:35.000Z</time>
      </trkpt>
      <trkpt lat="40.793292" lon="-3.961015">
        <ele>2260.3</ele>
        <time>2018-04-21T12:45:36.000Z</time>
      </trkpt>
      <trkpt lat="40.79329" lon="-3.961025">
        <ele>2260.4</ele>
        <time>2018-04-21T12:45:37.000Z</time>
      </trkpt>
      <trkpt lat="40.793287" lon="-3.961036">
        <ele>2260.5</ele>
        <time>2018-04-21T12:45:38.000Z</time>
      </trkpt>
      <trkpt lat="40.793285" lon="-3.961047">
        <ele>2260.6</ele>
        <time>2018-04-21T12:45:39.000Z</time>
      </trkpt>
      <trkpt lat="40.793283" lon="-3.961058">
        <ele>2260.7</ele>
        <time>2018-04-21T12:45:40.000Z</time>
      </trkpt>
      <trkpt lat="40.793282" lon="-3.961068">
        <ele>2260.8</ele>
        <time>2018-04-21T12:45:41.000Z</time>
      </trkpt>
      <trkpt lat="40.79328" lon="-3.961077">
        <ele>2260.8</ele>
        <time>2018-04-21T12:45:42.000Z</time>
      </trkpt>
      <trkpt lat="40.79328" lon="-3.961085">
        <ele>2260.9</ele>
        <time>2018-04-21T12:45:43.000Z</time>
      </trkpt>
      <trkpt lat="40.793279" lon="-3.961092">
        <ele>2261.0</ele>
        <time>2018-04-21T12:45:44.000Z</time>
      </trkpt>
      <trkpt lat="40.793278" lon="-3.961099">
        <ele>2261.1</ele>
        <time>2018-04-21T12:45:45.000Z</time>
      </trkpt>
      <trkpt lat="40.793277" lon="-3.961105">
        <ele>2261.1</ele>
        <time>2018-04-21T12:45:46.000Z</time>
      </trkpt>
      <trkpt lat="40.793276" lon="-3.961111">
        <ele>2261.2</ele>
        <time>2018-04-21T12:45:47.000Z</time>
      </trkpt>
      <trkpt lat="40.793275" lon="-3.961117">
        <ele>2261.2</ele>
        <time>2018-04-21T12:45:48.000Z</time>
      </trkpt>
      <trkpt lat="40.793273" lon="-3.961123">
        <ele>2261.3</ele>
        <time>2018-04-21T12:45:49.000Z</time>
      </trkpt>
      <trkpt lat="40.793271" lon="-3.961129">
        <ele>2261.3</ele>
        <time>2018-04-21T12:45:50.000Z</time>
      </trkpt>
      <trkpt lat="40.793269" lon="-3.961135">
        <ele>2261.4</ele>
        <time>2018-04-21T12:45:51.000Z</time>
      </trkpt>
      <trkpt lat="40.793266" lon="-3.961141">
        <ele>2261.4</ele>
        <time>2018-04-21T12:45:52.000Z</time>
      </trkpt>
      <trkpt lat="40.793262" lon="-3.961147">
        <ele>2261.4</ele>
        <time>2018-04-21T12:45:53.000Z</time>
      </trkpt>
      <trkpt lat="40.793258" lon="-3.961154">
        <ele>2261.4</ele>
        <time>2018-04-21T12:45:54.000Z</time>
      </trkpt>
      <trkpt lat="40.793253" lon="-3.961161">
        <ele>2261.4</ele>
        <time>2018-04-21T12:45:55.000Z</time>
      </trkpt>
      <trkpt lat="40.793248" lon="-3.961168">
        <ele>2261.4</ele>
        <time>2018-04-21T12:45:56.000Z</time>
      </trkpt>
      <trkpt lat="40.793243" lon="-3.961175">
        <ele>2261.5</ele>
        <time>2018-04-21T12:45:57.000Z</time>
      </trkpt>
      <trkpt lat="40.793238" lon="-3.961181">
        <ele>2261.5</ele>
        <time>2018-04-21T12:45:58.000Z</time>
      </trkpt>
      <trkpt lat="40.793234" lon="-3.961186">
        <ele>2261.5</ele>
        <time>2018-04-21T12:45:59.000Z</time>
      </trkpt>
      <trkpt lat="40.793231" lon="-3.961191">
        <ele>2261.5</ele>
        <time>2018-04-21T12:46:00.000Z</time>
      </trkpt>
      <trkpt lat="40.793228" lon="-3.961194">
        <ele>2261.5</ele>
        <time>2018-04-21T12:46:01.000Z</time>
      </trkpt>
      <trkpt lat="40.793227" lon="-3.961196">
        <ele>2261.5</ele>
        <time>2018-04-21T12:46:02.000Z</time>
      </trkpt>
      <trkpt lat="40.793227" lon="-3.961197">
        <ele>2261.5</ele>
        <time>2018-04-21T12:46:03.000Z</time>
      </trkpt>
      <trkpt lat="40.793228" lon="-3.961197">
        <ele>2261.5</ele>
        <time>2018-04-21T12:46:04.000Z</time>
      </trkpt>
      <trkpt lat="40.793228" lon="-3.961197">
        <ele>2261.5</ele>
        <time>2018-04-21T12:46:05.000Z</time>
      </trkpt>
      <trkpt lat="40.793229" lon="-3.961198">
        <ele>2261.6</ele>
        <time>2018-04-21T12:46:06.000Z</time>
      </trkpt>
      <trkpt lat="40.793229" lon="-3.961199">
        <ele>2261.6</ele>
        <time>2018-04-21T12:46:07.000Z</time>
      </trkpt>
      <trkpt lat="40.793229" lon="-3.961202">
        <ele>2261.6</ele>
        <time>2018-04-21T12:46:08.000Z</time>
      </trkpt>
      <trkpt lat="40.793227" lon="-3.961206">
        <ele>2261.6</ele>
        <time>2018-04-21T12:46:09.000Z</time>
      </trkpt>
      <trkpt lat="40.793225" lon="-3.961212">
        <ele>2261.7</ele>
        <time>2018-04-21T12:46:10.000Z</time>
      </trkpt>
      <trkpt lat="40.793221" lon="-3.961219">
        <ele>2261.7</ele>
        <time>2018-04-21T12:46:11.000Z</time>
      </trkpt>
      <trkpt lat="40.793218" lon="-3.961227">
        <ele>2261.8</ele>
        <time>2018-04-21T12:46:12.000Z</time>
      </trkpt>
      <trkpt lat="40.793214" lon="-3.961235">
        <ele>2261.8</ele>
        <time>2018-04-21T12:46:13.000Z</time>
      </trkpt>
      <trkpt lat="40.793209" lon="-3.961244">
        <ele>2261.9</ele>
        <time>2018-04-21T12:46:14.000Z</time>
      </trkpt>
      <trkpt lat="40.793206" lon="-3.961253">
        <ele>2261.9</ele>
        <time>2018-04-21T12:46:15.000Z</time>
      </trkpt>
      <trkpt lat="40.793202" lon="-3.961261">
        <ele>2262.0</ele>
        <time>2018-04-21T12:46:16.000Z</time>
      </trkpt>
      <trkpt lat="40.793199" lon="-3.961269">
        <ele>2262.0</ele>
        <time>2018-04-21T12:46:17.000Z</time>
      </trkpt>
      <trkpt lat="40.793197" lon="-3.961276">
        <ele>2262.1</ele>
        <time>2018-04-21T12:46:18.000Z</time>
      </trkpt>
      <trkpt lat="40.793195" lon="-3.961282">
        <ele>2262.2</ele>
        <time>2018-04-21T12:46:19.000Z</time>
      </trkpt>
      <trkpt lat="40.793194" lon="-3.961288">
        <ele>2262.2</ele>
        <time>2018-04-21T12:46:20.000Z</time>
      </trkpt>
      <trkpt lat="40.793193" lon="-3.961292">
        <ele>2262.3</ele>
        <time>2018-04-21T12:46:21.000Z</time>
      </trkpt>
      <trkpt lat="40.793192" lon="-3.961295">
        <ele>2262.3</ele>
        <time>2018-04-21T12:46:22.000Z</time>
      </trkpt>
      <trkpt lat="40.793192" lon="-3.961297">
        <ele>2262.3</ele>
        <time>2018-04-21T12:46:23.000Z</time>
      </trkpt>
      <trkpt lat="40.793193" lon="-3.961297">
        <ele>2262.3</ele>
        <time>2018-04-21T12:46:24.000Z</time>
      </trkpt>
      <trkpt lat="40.793193" lon="-3.961297">
        <ele>2262.3</ele>
        <time>2018-04-21T12:46:25.000Z</time>
      </trkpt>
      <trkpt lat="40.793193" lon="-3.961297">
        <ele>2262.3</ele>
        <time>2018-04-21T12:46:26.000Z</time>
      </trkpt>
      <trkpt lat="40.793192" lon="-3.961299">
        <ele>2262.3</ele>
        <time>2018-04-21T12:46:27.000Z</time>
      </trkpt>
      <trkpt lat="40.793191" lon="-3.961303">
        <ele>2262.4</ele>
        <time>2018-04-21T12:46:28.000Z</time>
      </trkpt>
      <trkpt lat="40.793189" lon="-3.961309">
        <ele>2262.4</ele>
        <time>2018-04-21T12:46:29.000Z</time>
      </trkpt>
      <trkpt lat="40.793186" lon="-3.961316">
        <ele>2262.5</ele>
        <time>2018-04-21T12:46:30.000Z</time>
      </trkpt>
      <trkpt lat="40.793183" lon="-3.961326">
        <ele>2262.6</ele>
        <time>2018-04-21T12:46:31.000Z</time>
      </trkpt>
      <trkpt lat="40.793179" lon="-3.961336">
        <ele>2262.7</ele>
        <time>2018-04-21T12:46:32.000Z</time>
      </trkpt>
      <trkpt lat="40.793175" lon="-3.961348">
        <ele>2262.8</ele>
        <time>2018-04-21T12:46:33.000Z</time>
      </trkpt>
      <trkpt lat="40.793171" lon="-3.96136">
        <ele>2262.9</ele>
        <time>2018-04-21T12:46:34.000Z</time>
      </trkpt>
      <trkpt lat="40.793167" lon="-3.961373">
        <ele>2263.0</ele>
        <time>2018-04-21T12:46:35.000Z</time>
      </trkpt>
      <trkpt lat="40.793163" lon="-3.961386">
        <ele>2263.1</ele>
        <time>2018-04-21T12:46:36.000Z</time>
      </trkpt>
      <trkpt lat="40.793159" lon="-3.961398">
        <ele>2263.2</ele>
        <time>2018-04-21T12:46:37.000Z</time>
      </trkpt>
      <trkpt lat="40.793155" lon="-3.961409">
        <ele>2263.3</ele>
        <time>2018-04-21T12:46:38.000Z</time>
      </trkpt>
      <trkpt lat="40.793151" lon="-3.96142">
        <ele>2263.4</ele>
        <time>2018-04-21T12:46:39.000Z</time>
      </trkpt>
      <trkpt lat="40.793146" lon="-3.961429">
        <ele>2263.5</ele>
        <time>2018-04-21T12:46:40.000Z</time>
      </trkpt>
      <trkpt lat="40.793142" lon="-3.961438">
        <ele>2263.6</ele>
        <time>2018-04-21T12:46:41.000Z</time>
      </trkpt>
      <trkpt lat="40.793138" lon="-3.961445">
        <ele>2263.6</ele>
        <time>2018-04-21T12:46:42.000Z</time>
      </trkpt>
      <trkpt lat="40.793135" lon="-3.961453">
        <ele>2263.7</ele>
        <time>2018-04-21T12:46:43.000Z</time>
      </trkpt>
      <trkpt lat="40.793131" lon="-3.961459">
        <ele>2263.8</ele>
        <time>2018-04-21T12:46:44.000Z</time>
      </trkpt>
      <trkpt lat="40.793127" lon="-3.961466">
        <ele>2263.8</ele>
        <time>2018-04-21T12:46:45.000Z</time>
      </trkpt>
      <trkpt lat="40.793123" lon="-3.961472">
        <ele>2263.9</ele>
        <time>2018-04-21T12:46:46.000Z</time>
      </trkpt>
      <trkpt lat="40.793119" lon="-3.961478">
        <ele>2263.9</ele>
        <time>2018-04-21T12:46:47.000Z</time>
      </trkpt>
      <trkpt lat="40.793115" lon="-3.961485">
        <ele>2264.0</ele>
        <time>2018-04-21T12:46:48.000Z</time>
      </trkpt>
      <trkpt lat="40.793112" lon="-3.961491">
        <ele>2264.0</ele>
        <time>2018-04-21T12:46:49.000Z</time>
      </trkpt>
      <trkpt lat="40.793108" lon="-3.961498">
        <ele>2264.1</ele>
        <time>2018-04-21T12:46:50.000Z</time>
      </trkpt>
      <trkpt lat="40.793104" lon="-3.961505">
        <ele>2264.1</ele>
        <time>2018-04-21T12:46:51.000Z</time>
      </trkpt>
      <trkpt lat="40.7931" lon="-3.961513">
        <ele>2264.2</ele>
        <time>2018-04-21T12:46:52.000Z</time>
      </trkpt>
      <trkpt lat="40.793097" lon="-3.961522">
        <ele>2264.3</ele>
        <time>2018-04-21T12:46:53.000Z</time>
      </trkpt>
      <trkpt lat="40.793093" lon="-3.961531">
        <ele>2264.4</ele>
        <time>2018-04-21T12:46:54.000Z</time>
      </trkpt>
      <trkpt lat="40.793089" lon="-3.96154">
        <ele>2264.5</ele>
        <time>2018-04-21T12:46:55.000Z</time>
      </trkpt>
      <trkpt lat="40.793086" lon="-3.961549">
        <ele>2264.6</ele>
        <time>2018-04-21T12:46:56.000Z</time>
      </trkpt>
      <trkpt lat="40.793082" lon="-3.961558">
        <ele>2264.7</ele>
        <time>2018-04-21T12:46:57.000Z</time>
      </trkpt>
      <trkpt lat="40.793079" lon="-3.961567">
        <ele>2264.8</ele>
        <time>2018-04-21T12:46:58.000Z</time>
      </trkpt>
      <trkpt lat="40.793076" lon="-3.961574">
        <ele>2264.8</ele>
        <time>2018-04-21T12:46:59.000Z</time>
      </trkpt>
      <trkpt lat="40.793073" lon="-3.961581">
        <ele>2264.9</ele>
        <time>2018-04-21T12:47:00.000Z</time>
      </trkpt>
      <trkpt lat="40.793071" lon="-3.961586">
        <ele>2265.0</ele>
        <time>2018-04-21T12:47:01.000Z</time>
      </trkpt>
      <trkpt lat="40.793069" lon="-3.96159">
        <ele>2265.0</ele>
        <time>2018-04-21T12:47:02.000Z</time>
      </trkpt>
      <trkpt lat="40.793067" lon="-3.961594">
        <ele>2265.0</ele>
        <time>2018-04-21T12:47:03.000Z</time>
      </trkpt>
      <trkpt lat="40.793066" lon="-3.961597">
        <ele>2265.1</ele>
        <time>2018-04-21T12:47:04.000Z</time>
      </trkpt>
      <trkpt lat="40.793064" lon="-3.9616">
        <ele>2265.1</ele>
        <time>2018-04-21T12:47:05.000Z</time>
      </trkpt>
      <trkpt lat="40.793063" lon="-3.961603">
        <ele>2265.1</ele>
        <time>2018-04-21T12:47:06.000Z</time>
      </trkpt>
      <trkpt lat="40.793062" lon="-3.961606">
        <ele>2265.2</ele>
        <time>2018-04-21T12:47:07.000Z</time>
      </trkpt>
      <trkpt lat="40.793061" lon="-3.96161">
        <ele>2265.2</ele>
        <time>2018-04-21T12:47:08.000Z</time>
      </trkpt>
      <trkpt lat="40.79306" lon="-3.961615">
        <ele>2265.3</ele>
        <time>2018-04-21T12:47:09.000Z</time>
      </trkpt>
      <trkpt lat="40.793059" lon="-3.961621">
        <ele>2265.4</ele>
        <time>2018-04-21T12:47:10.000Z</time>
      </trkpt>
      <trkpt lat="40.793058" lon="-3.961627">
        <ele>2265.4</ele>
        <time>2018-04-21T12:47:11.000Z</time>
      </trkpt>
      <trkpt lat="40.793058" lon="-3.961633">
        <ele>2265.5</ele>
        <time>2018-04-21T12:47:12.000Z</time>
      </trkpt>
      <trkpt lat="40.793057" lon="-3.96164">
        <ele>2265.6</ele>
        <time>2018-04-21T12:47:13.000Z</time>
      </trkpt>
      <trkpt lat="40.793056" lon="-3.961648">
        <ele>2265.7</ele>
        <time>2018-04-21T12:47:14.000Z</time>
      </trkpt>
      <trkpt lat="40.793055" lon="-3.961656">
        <ele>2265.8</ele>
        <time>2018-04-21T12:47:15.000Z</time>
      </trkpt>
      <trkpt lat="40.793054" lon="-3.961664">
        <ele>2266.0</ele>
        <time>2018-04-21T12:47:16.000Z</time>
      </trkpt>
      <trkpt lat="40.793053" lon="-3.961673">
        <ele>2266.0</ele>
        <time>2018-04-21T12:47:17.000Z</time>
      </trkpt>
      <trkpt lat="40.793052" lon="-3.961681">
        <ele>2266.0</ele>
        <time>2018-04-21T12:47:18.000Z</time>
      </trkpt>
      <trkpt lat="40.793051" lon="-3.96169">
        <ele>2266.1</ele>
        <time>2018-04-21T12:47:19.000Z</time>
      </trkpt>
      <trkpt lat="40.79305" lon="-3.961699">
        <ele>2266.1</ele>
        <time>2018-04-21T12:47:20.000Z</time>
      </trkpt>
      <trkpt lat="40.793049" lon="-3.961708">
        <ele>2266.1</ele>
        <time>2018-04-21T12:47:21.000Z</time>
      </trkpt>
      <trkpt lat="40.793047" lon="-3.961717">
        <ele>2266.1</ele>
        <time>2018-04-21T12:47:22.000Z</time>
      </trkpt>
      <trkpt lat="40.793045" lon="-3.961726">
        <ele>2266.2</ele>
        <time>2018-04-21T12:47:23.000Z</time>
      </trkpt>
      <trkpt lat="40.793043" lon="-3.961734">
        <ele>2266.2</ele>
        <time>2018-04-21T12:47:24.000Z</time>
      </trkpt>
      <trkpt lat="40.793041" lon="-3.961743">
        <ele>2266.2</ele>
        <time>2018-04-21T12:47:25.000Z</time>
      </trkpt>
      <trkpt lat="40.793039" lon="-3.961751">
        <ele>2266.2</ele>
        <time>2018-04-21T12:47:26.000Z</time>
      </trkpt>
      <trkpt lat="40.793036" lon="-3.961759">
        <ele>2266.3</ele>
        <time>2018-04-21T12:47:27.000Z</time>
      </trkpt>
      <trkpt lat="40.793034" lon="-3.961767">
        <ele>2266.3</ele>
        <time>2018-04-21T12:47:28.000Z</time>
      </trkpt>
      <trkpt lat="40.793031" lon="-3.961776">
        <ele>2266.3</ele>
        <time>2018-04-21T12:47:29.000Z</time>
      </trkpt>
      <trkpt lat="40.793028" lon="-3.961784">
        <ele>2266.3</ele>
        <time>2018-04-21T12:47:30.000Z</time>
      </trkpt>
      <trkpt lat="40.793025" lon="-3.961792">
        <ele>2266.3</ele>
        <time>2018-04-21T12:47:31.000Z</time>
      </trkpt>
      <trkpt lat="40.793022" lon="-3.9618">
        <ele>2266.4</ele>
        <time>2018-04-21T12:47:32.000Z</time>
      </trkpt>
      <trkpt lat="40.793019" lon="-3.961808">
        <ele>2266.4</ele>
        <time>2018-04-21T12:47:33.000Z</time>
      </trkpt>
      <trkpt lat="40.793015" lon="-3.961816">
        <ele>2266.4</ele>
        <time>2018-04-21T12:47:34.000Z</time>
      </trkpt>
      <trkpt lat="40.793012" lon="-3.961824">
        <ele>2266.4</ele>
        <time>2018-04-21T12:47:35.000Z</time>
      </trkpt>
      <trkpt lat="40.793009" lon="-3.961833">
        <ele>2266.4</ele>
        <time>2018-04-21T12:47:36.000Z</time>
      </trkpt>
      <trkpt lat="40.793005" lon="-3.961841">
        <ele>2266.5</ele>
        <time>2018-04-21T12:47:37.000Z</time>
      </trkpt>
      <trkpt lat="40.793002" lon="-3.96185">
        <ele>2266.5</ele>
        <time>2018-04-21T12:47:38.000Z</time>
      </trkpt>
      <trkpt lat="40.792999" lon="-3.961858">
        <ele>2266.5</ele>
        <time>2018-04-21T12:47:39.000Z</time>
      </trkpt>
      <trkpt lat="40.792995" lon="-3.961867">
        <ele>2266.5</ele>
        <time>2018-04-21T12:47:40.000Z</time>
      </trkpt>
      <trkpt lat="40.792992" lon="-3.961875">
        <ele>2266.6</ele>
        <time>2018-04-21T12:47:41.000Z</time>
      </trkpt>
      <trkpt lat="40.792988" lon="-3.961884">
        <ele>2266.6</ele>
        <time>2018-04-21T12:47:42.000Z</time>
      </trkpt>
      <trkpt lat="40.792985" lon="-3.961892">
        <ele>2266.6</ele>
        <time>2018-04-21T12:47:43.000Z</time>
      </trkpt>
      <trkpt lat="40.792981" lon="-3.9619">
        <ele>2266.6</ele>
        <time>2018-04-21T12:47:44.000Z</time>
      </trkpt>
      <trkpt lat="40.792978" lon="-3.961908">
        <ele>2266.7</ele>
        <time>2018-04-21T12:47:45.000Z</time>
      </trkpt>
      <trkpt lat="40.792974" lon="-3.961916">
        <ele>2266.7</ele>
        <time>2018-04-21T12:47:46.000Z</time>
      </trkpt>
      <trkpt lat="40.792971" lon="-3.961924">
        <ele>2266.7</ele>
        <time>2018-04-21T12:47:47.000Z</time>
      </trkpt>
      <trkpt lat="40.792967" lon="-3.961932">
        <ele>2266.8</ele>
        <time>2018-04-21T12:47:48.000Z</time>
      </trkpt>
      <trkpt lat="40.792964" lon="-3.961939">
        <ele>2266.8</ele>
        <time>2018-04-21T12:47:49.000Z</time>
      </trkpt>
      <trkpt lat="40.79296" lon="-3.961946">
        <ele>2266.8</ele>
        <time>2018-04-21T12:47:50.000Z</time>
      </trkpt>
      <trkpt lat="40.792957" lon="-3.961952">
        <ele>2266.8</ele>
        <time>2018-04-21T12:47:51.000Z</time>
      </trkpt>
      <trkpt lat="40.792953" lon="-3.961958">
        <ele>2266.9</ele>
        <time>2018-04-21T12:47:52.000Z</time>
      </trkpt>
      <trkpt lat="40.792949" lon="-3.961964">
        <ele>2266.9</ele>
        <time>2018-04-21T12:47:53.000Z</time>
      </trkpt>
      <trkpt lat="40.792945" lon="-3.96197">
        <ele>2266.9</ele>
        <time>2018-04-21T12:47:54.000Z</time>
      </trkpt>
      <trkpt lat="40.792941" lon="-3.961976">
        <ele>2266.9</ele>
        <time>2018-04-21T12:47:55.000Z</time>
      </trkpt>
      <trkpt lat="40.792936" lon="-3.961982">
        <ele>2266.9</ele>
        <time>2018-04-21T12:47:56.000Z</time>
      </trkpt>
      <trkpt lat="40.792931" lon="-3.961989">
        <ele>2267.0</ele>
        <time>2018-04-21T12:47:57.000Z</time>
      </trkpt>
      <trkpt lat="40.792926" lon="-3.961996">
        <ele>2267.0</ele>
        <time>2018-04-21T12:47:58.000Z</time>
      </trkpt>
      <trkpt lat="40.792919" lon="-3.962004">
        <ele>2267.0</ele>
        <time>2018-04-21T12:47:59.000Z</time>
      </trkpt>
      <trkpt lat="40.792912" lon="-3.962014">
        <ele>2267.1</ele>
        <time>2018-04-21T12:48:00.000Z</time>
      </trkpt>
      <trkpt lat="40.792905" lon="-3.962024">
        <ele>2267.1</ele>
        <time>2018-04-21T12:48:01.000Z</time>
      </trkpt>
      <trkpt lat="40.792898" lon="-3.962035">
        <ele>2267.2</ele>
        <time>2018-04-21T12:48:02.000Z</time>
      </trkpt>
      <trkpt lat="40.792891" lon="-3.962046">
        <ele>2267.2</ele>
        <time>2018-04-21T12:48:03.000Z</time>
      </trkpt>
      <trkpt lat="40.792884" lon="-3.962058">
        <ele>2267.3</ele>
        <time>2018-04-21T12:48:04.000Z</time>
      </trkpt>
      <trkpt lat="40.792878" lon="-3.962071">
        <ele>2267.4</ele>
        <time>2018-04-21T12:48:05.000Z</time>
      </trkpt>
      <trkpt lat="40.792874" lon="-3.962083">
        <ele>2267.4</ele>
        <time>2018-04-21T12:48:06.000Z</time>
      </trkpt>
      <trkpt lat="40.792871" lon="-3.962095">
        <ele>2267.5</ele>
        <time>2018-04-21T12:48:07.000Z</time>
      </trkpt>
      <trkpt lat="40.792869" lon="-3.962107">
        <ele>2267.6</ele>
        <time>2018-04-21T12:48:08.000Z</time>
      </trkpt>
      <trkpt lat="40.792869" lon="-3.962119">
        <ele>2267.7</ele>
        <time>2018-04-21T12:48:09.000Z</time>
      </trkpt>
      <trkpt lat="40.792869" lon="-3.96213">
        <ele>2267.8</ele>
        <time>2018-04-21T12:48:10.000Z</time>
      </trkpt>
      <trkpt lat="40.792871" lon="-3.962141">
        <ele>2267.8</ele>
        <time>2018-04-21T12:48:11.000Z</time>
      </trkpt>
      <trkpt lat="40.792873" lon="-3.962151">
        <ele>2267.9</ele>
        <time>2018-04-21T12:48:12.000Z</time>
      </trkpt>
      <trkpt lat="40.792876" lon="-3.96216">
        <ele>2268.0</ele>
        <time>2018-04-21T12:48:13.000Z</time>
      </trkpt>
      <trkpt lat="40.792879" lon="-3.962168">
        <ele>2268.0</ele>
        <time>2018-04-21T12:48:14.000Z</time>
      </trkpt>
      <trkpt lat="40.792882" lon="-3.962176">
        <ele>2268.1</ele>
        <time>2018-04-21T12:48:15.000Z</time>
      </trkpt>
      <trkpt lat="40.792886" lon="-3.962183">
        <ele>2268.1</ele>
        <time>2018-04-21T12:48:16.000Z</time>
      </trkpt>
      <trkpt lat="40.79289" lon="-3.962189">
        <ele>2268.1</ele>
        <time>2018-04-21T12:48:17.000Z</time>
      </trkpt>
      <trkpt lat="40.792894" lon="-3.962196">
        <ele>2268.2</ele>
        <time>2018-04-21T12:48:18.000Z</time>
      </trkpt>
      <trkpt lat="40.792898" lon="-3.962203">
        <ele>2268.2</ele>
        <time>2018-04-21T12:48:19.000Z</time>
      </trkpt>
      <trkpt lat="40.792903" lon="-3.962209">
        <ele>2268.3</ele>
        <time>2018-04-21T12:48:20.000Z</time>
      </trkpt>
      <trkpt lat="40.792907" lon="-3.962216">
        <ele>2268.3</ele>
        <time>2018-04-21T12:48:21.000Z</time>
      </trkpt>
      <trkpt lat="40.792911" lon="-3.962224">
        <ele>2268.3</ele>
        <time>2018-04-21T12:48:22.000Z</time>
      </trkpt>
      <trkpt lat="40.792914" lon="-3.962232">
        <ele>2268.4</ele>
        <time>2018-04-21T12:48:23.000Z</time>
      </trkpt>
      <trkpt lat="40.792918" lon="-3.96224">
        <ele>2268.4</ele>
        <time>2018-04-21T12:48:24.000Z</time>
      </trkpt>
      <trkpt lat="40.792921" lon="-3.962249">
        <ele>2268.5</ele>
        <time>2018-04-21T12:48:25.000Z</time>
      </trkpt>
      <trkpt lat="40.792924" lon="-3.962258">
        <ele>2268.5</ele>
        <time>2018-04-21T12:48:26.000Z</time>
      </trkpt>
      <trkpt lat="40.792927" lon="-3.962267">
        <ele>2268.6</ele>
        <time>2018-04-21T12:48:27.000Z</time>
      </trkpt>
      <trkpt lat="40.79293" lon="-3.962276">
        <ele>2268.6</ele>
        <time>2018-04-21T12:48:28.000Z</time>
      </trkpt>
      <trkpt lat="40.792932" lon="-3.962286">
        <ele>2268.7</ele>
        <time>2018-04-21T12:48:29.000Z</time>
      </trkpt>
      <trkpt lat="40.792934" lon="-3.962296">
        <ele>2268.7</ele>
        <time>2018-04-21T12:48:30.000Z</time>
      </trkpt>
      <trkpt lat="40.792936" lon="-3.962306">
        <ele>2268.8</ele>
        <time>2018-04-21T12:48:31.000Z</time>
      </trkpt>
      <trkpt lat="40.792938" lon="-3.962316">
        <ele>2268.9</ele>
        <time>2018-04-21T12:48:32.000Z</time>
      </trkpt>
      <trkpt lat="40.79294" lon="-3.962326">
        <ele>2268.9</ele>
        <time>2018-04-21T12:48:33.000Z</time>
      </trkpt>
      <trkpt lat="40.792941" lon="-3.962336">
        <ele>2269.0</ele>
        <time>2018-04-21T12:48:34.000Z</time>
      </trkpt>
      <trkpt lat="40.792943" lon="-3.962346">
        <ele>2269.0</ele>
        <time>2018-04-21T12:48:35.000Z</time>
      </trkpt>
      <trkpt lat="40.792945" lon="-3.962355">
        <ele>2269.1</ele>
        <time>2018-04-21T12:48:36.000Z</time>
      </trkpt>
      <trkpt lat="40.792947" lon="-3.962364">
        <ele>2269.1</ele>
        <time>2018-04-21T12:48:37.000Z</time>
      </trkpt>
      <trkpt lat="40.792949" lon="-3.962373">
        <ele>2269.1</ele>
        <time>2018-04-21T12:48:38.000Z</time>
      </trkpt>
      <trkpt lat="40.792951" lon="-3.962381">
        <ele>2269.2</ele>
        <time>2018-04-21T12:48:39.000Z</time>
      </trkpt>
      <trkpt lat="40.792953" lon="-3.962388">
        <ele>2269.2</ele>
        <time>2018-04-21T12:48:40.000Z</time>
      </trkpt>
      <trkpt lat="40.792955" lon="-3.962394">
        <ele>2269.2</ele>
        <time>2018-04-21T12:48:41.000Z</time>
      </trkpt>
      <trkpt lat="40.792956" lon="-3.962399">
        <ele>2269.3</ele>
        <time>2018-04-21T12:48:42.000Z</time>
      </trkpt>
      <trkpt lat="40.792958" lon="-3.962403">
        <ele>2269.3</ele>
        <time>2018-04-21T12:48:43.000Z</time>
      </trkpt>
      <trkpt lat="40.792958" lon="-3.962406">
        <ele>2269.3</ele>
        <time>2018-04-21T12:48:44.000Z</time>
      </trkpt>
      <trkpt lat="40.792959" lon="-3.962408">
        <ele>2269.3</ele>
        <time>2018-04-21T12:48:45.000Z</time>
      </trkpt>
      <trkpt lat="40.792959" lon="-3.962409">
        <ele>2269.3</ele>
        <time>2018-04-21T12:48:46.000Z</time>
      </trkpt>
      <trkpt lat="40.792959" lon="-3.962409">
        <ele>2269.3</ele>
        <time>2018-04-21T12:48:47.000Z</time>
      </trkpt>
      <trkpt lat="40.792959" lon="-3.962409">
        <ele>2269.3</ele>
        <time>2018-04-21T12:48:48.000Z</time>
      </trkpt>
      <trkpt lat="40.792959" lon="-3.962409">
        <ele>2269.3</ele>
        <time>2018-04-21T12:48:49.000Z</time>
      </trkpt>
      <trkpt lat="40.792959" lon="-3.962409">
        <ele>2269.3</ele>
        <time>2018-04-21T12:48:50.000Z</time>
      </trkpt>
      <trkpt lat="40.792959" lon="-3.962409">
        <ele>2269.3</ele>
        <time>2018-04-21T12:48:51.000Z</time>
      </trkpt>
      <trkpt lat="40.792959" lon="-3.962409">
        <ele>2269.3</ele>
        <time>2018-04-21T12:48:52.000Z</time>
      </trkpt>
      <trkpt lat="40.792959" lon="-3.962409">
        <ele>2269.3</ele>
        <time>2018-04-21T12:48:53.000Z</time>
      </trkpt>
      <trkpt lat="40.792959" lon="-3.962409">
        <ele>2269.3</ele>
        <time>2018-04-21T12:48:54.000Z</time>
      </trkpt>
      <trkpt lat="40.792959" lon="-3.962409">
        <ele>2269.3</ele>
        <time>2018-04-21T12:48:55.000Z</time>
      </trkpt>
      <trkpt lat="40.792959" lon="-3.962409">
        <ele>2269.3</ele>
        <time>2018-04-21T12:48:56.000Z</time>
      </trkpt>
      <trkpt lat="40.792959" lon="-3.962409">
        <ele>2269.3</ele>
        <time>2018-04-21T12:48:57.000Z</time>
      </trkpt>
      <trkpt lat="40.792959" lon="-3.962409">
        <ele>2269.3</ele>
        <time>2018-04-21T12:48:58.000Z</time>
      </trkpt>
      <trkpt lat="40.792959" lon="-3.962409">
        <ele>2269.3</ele>
        <time>2018-04-21T12:48:59.000Z</time>
      </trkpt>
      <trkpt lat="40.792959" lon="-3.962409">
        <ele>2269.3</ele>
        <time>2018-04-21T12:49:00.000Z</time>
      </trkpt>
      <trkpt lat="40.792959" lon="-3.962408">
        <ele>2269.3</ele>
        <time>2018-04-21T12:49:01.000Z</time>
      </trkpt>
      <trkpt lat="40.792959" lon="-3.962408">
        <ele>2269.3</ele>
        <time>2018-04-21T12:49:02.000Z</time>
      </trkpt>
      <trkpt lat="40.792959" lon="-3.962408">
        <ele>2269.3</ele>
        <time>2018-04-21T12:49:03.000Z</time>
      </trkpt>
      <trkpt lat="40.792959" lon="-3.962408">
        <ele>2269.3</ele>
        <time>2018-04-21T12:49:04.000Z</time>
      </trkpt>
      <trkpt lat="40.792959" lon="-3.962408">
        <ele>2269.3</ele>
        <time>2018-04-21T12:49:05.000Z</time>
      </trkpt>
      <trkpt lat="40.792959" lon="-3.962408">
        <ele>2269.3</ele>
        <time>2018-04-21T12:49:06.000Z</time>
      </trkpt>
      <trkpt lat="40.792959" lon="-3.962408">
        <ele>2269.3</ele>
        <time>2018-04-21T12:49:07.000Z</time>
      </trkpt>
      <trkpt lat="40.792959" lon="-3.962408">
        <ele>2269.3</ele>
        <time>2018-04-21T12:49:08.000Z</time>
      </trkpt>
      <trkpt lat="40.792959" lon="-3.962408">
        <ele>2269.3</ele>
        <time>2018-04-21T12:49:09.000Z</time>
      </trkpt>
      <trkpt lat="40.792959" lon="-3.962408">
        <ele>2269.3</ele>
        <time>2018-04-21T12:49:10.000Z</time>
      </trkpt>
      <trkpt lat="40.792959" lon="-3.962408">
        <ele>2269.3</ele>
        <time>2018-04-21T12:49:11.000Z</time>
      </trkpt>
      <trkpt lat="40.792959" lon="-3.962408">
        <ele>2269.3</ele>
        <time>2018-04-21T12:49:12.000Z</time>
      </trkpt>
      <trkpt lat="40.792959" lon="-3.962408">
        <ele>2269.3</ele>
        <time>2018-04-21T12:49:13.000Z</time>
      </trkpt>
      <trkpt lat="40.792959" lon="-3.962408">
        <ele>2269.3</ele>
        <time>2018-04-21T12:49:14.000Z</time>
      </trkpt>
      <trkpt lat="40.792959" lon="-3.962408">
        <ele>2269.3</ele>
        <time>2018-04-21T12:49:15.000Z</time>
      </trkpt>
      <trkpt lat="40.792959" lon="-3.962408">
        <ele>2269.3</ele>
        <time>2018-04-21T12:49:16.000Z</time>
      </trkpt>
      <trkpt lat="40.792959" lon="-3.962409">
        <ele>2269.3</ele>
        <time>2018-04-21T12:49:17.000Z</time>
      </trkpt>
      <trkpt lat="40.792959" lon="-3.962409">
        <ele>2269.3</ele>
        <time>2018-04-21T12:49:18.000Z</time>
      </trkpt>
      <trkpt lat="40.792959" lon="-3.962409">
        <ele>2269.3</ele>
        <time>2018-04-21T12:49:19.000Z</time>
      </trkpt>
      <trkpt lat="40.792959" lon="-3.962409">
        <ele>2269.3</ele>
        <time>2018-04-21T12:49:20.000Z</time>
      </trkpt>
      <trkpt lat="40.792959" lon="-3.962409">
        <ele>2269.3</ele>
        <time>2018-04-21T12:49:21.000Z</time>
      </trkpt>
      <trkpt lat="40.792959" lon="-3.962409">
        <ele>2269.3</ele>
        <time>2018-04-21T12:49:22.000Z</time>
      </trkpt>
      <trkpt lat="40.792959" lon="-3.962409">
        <ele>2269.3</ele>
        <time>2018-04-21T12:49:23.000Z</time>
      </trkpt>
      <trkpt lat="40.792959" lon="-3.962409">
        <ele>2269.3</ele>
        <time>2018-04-21T12:49:24.000Z</time>
      </trkpt>
      <trkpt lat="40.792959" lon="-3.962409">
        <ele>2269.3</ele>
        <time>2018-04-21T12:49:25.000Z</time>
      </trkpt>
      <trkpt lat="40.792959" lon="-3.962409">
        <ele>2269.3</ele>
        <time>2018-04-21T12:49:26.000Z</time>
      </trkpt>
      <trkpt lat="40.792959" lon="-3.962409">
        <ele>2269.3</ele>
        <time>2018-04-21T12:49:27.000Z</time>
      </trkpt>
      <trkpt lat="40.792959" lon="-3.962409">
        <ele>2269.3</ele>
        <time>2018-04-21T12:49:28.000Z</time>
      </trkpt>
      <trkpt lat="40.792959" lon="-3.962409">
        <ele>2269.3</ele>
        <time>2018-04-21T12:49:29.000Z</time>
      </trkpt>
      <trkpt lat="40.792959" lon="-3.962409">
        <ele>2269.3</ele>
        <time>2018-04-21T12:49:30.000Z</time>
      </trkpt>
      <trkpt lat="40.792959" lon="-3.962409">
        <ele>2269.3</ele>
        <time>2018-04-21T12:49:31.000Z</time>
      </trkpt>
      <trkpt lat="40.792959" lon="-3.962409">
        <ele>2269.3</ele>
        <time>2018-04-21T12:49:32.000Z</time>
      </trkpt>
      <trkpt lat="40.792959" lon="-3.962409">
        <ele>2269.3</ele>
        <time>2018-04-21T12:49:33.000Z</time>
      </trkpt>
      <trkpt lat="40.792959" lon="-3.962409">
        <ele>2269.3</ele>
        <time>2018-04-21T12:49:34.000Z</time>
      </trkpt>
      <trkpt lat="40.792959" lon="-3.962409">
        <ele>2269.3</ele>
        <time>2018-04-21T12:49:35.000Z</time>
      </trkpt>
      <trkpt lat="40.792959" lon="-3.962409">
        <ele>2269.3</ele>
        <time>2018-04-21T12:49:36.000Z</time>
      </trkpt>
      <trkpt lat="40.792959" lon="-3.962409">
        <ele>2269.3</ele>
        <time>2018-04-21T12:49:37.000Z</time>
      </trkpt>
      <trkpt lat="40.792959" lon="-3.962409">
        <ele>2269.3</ele>
        <time>2018-04-21T12:49:38.000Z</time>
      </trkpt>
      <trkpt lat="40.792959" lon="-3.962409">
        <ele>2269.3</ele>
        <time>2018-04-21T12:49:39.000Z</time>
      </trkpt>
      <trkpt lat="40.792959" lon="-3.962409">
        <ele>2269.3</ele>
        <time>2018-04-21T12:49:40.000Z</time>
      </trkpt>
      <trkpt lat="40.792959" lon="-3.962409">
        <ele>2269.3</ele>
        <time>2018-04-21T12:49:41.000Z</time>
      </trkpt>
      <trkpt lat="40.792959" lon="-3.962409">
        <ele>2269.3</ele>
        <time>2018-04-21T12:49:42.000Z</time>
      </trkpt>
      <trkpt lat="40.792959" lon="-3.962409">
        <ele>2269.3</ele>
        <time>2018-04-21T12:49:43.000Z</time>
      </trkpt>
      <trkpt lat="40.792959" lon="-3.962409">
        <ele>2269.3</ele>
        <time>2018-04-21T12:49:44.000Z</time>
      </trkpt>
      <trkpt lat="40.792959" lon="-3.962409">
        <ele>2269.3</ele>
        <time>2018-04-21T12:49:45.000Z</time>
      </trkpt>
      <trkpt lat="40.792959" lon="-3.962409">
        <ele>2269.3</ele>
        <time>2018-04-21T12:49:46.000Z</time>
      </trkpt>
      <trkpt lat="40.792959" lon="-3.962409">
        <ele>2269.3</ele>
        <time>2018-04-21T12:49:47.000Z</time>
      </trkpt>
      <trkpt lat="40.792959" lon="-3.962409">
        <ele>2269.3</ele>
        <time>2018-04-21T12:49:48.000Z</time>
      </trkpt>
      <trkpt lat="40.792959" lon="-3.962409">
        <ele>2269.3</ele>
        <time>2018-04-21T12:49:49.000Z</time>
      </trkpt>
      <trkpt lat="40.792959" lon="-3.962409">
        <ele>2269.3</ele>
        <time>2018-04-21T12:49:50.000Z</time>
      </trkpt>
      <trkpt lat="40.792959" lon="-3.962409">
        <ele>2269.3</ele>
        <time>2018-04-21T12:49:51.000Z</time>
      </trkpt>
      <trkpt lat="40.792959" lon="-3.962409">
        <ele>2269.3</ele>
        <time>2018-04-21T12:49:52.000Z</time>
      </trkpt>
      <trkpt lat="40.792959" lon="-3.962409">
        <ele>2269.3</ele>
        <time>2018-04-21T12:49:53.000Z</time>
      </trkpt>
      <trkpt lat="40.792959" lon="-3.962409">
        <ele>2269.3</ele>
        <time>2018-04-21T12:49:54.000Z</time>
      </trkpt>
      <trkpt lat="40.792959" lon="-3.962409">
        <ele>2269.3</ele>
        <time>2018-04-21T12:49:55.000Z</time>
      </trkpt>
      <trkpt lat="40.792959" lon="-3.962409">
        <ele>2269.3</ele>
        <time>2018-04-21T12:49:56.000Z</time>
      </trkpt>
      <trkpt lat="40.792959" lon="-3.962409">
        <ele>2269.3</ele>
        <time>2018-04-21T12:49:57.000Z</time>
      </trkpt>
      <trkpt lat="40.792959" lon="-3.962409">
        <ele>2269.3</ele>
        <time>2018-04-21T12:49:58.000Z</time>
      </trkpt>
      <trkpt lat="40.792959" lon="-3.962409">
        <ele>2269.3</ele>
        <time>2018-04-21T12:49:59.000Z</time>
      </trkpt>
      <trkpt lat="40.792959" lon="-3.962409">
        <ele>2269.3</ele>
        <time>2018-04-21T12:50:00.000Z</time>
      </trkpt>
      <trkpt lat="40.792959" lon="-3.962409">
        <ele>2269.3</ele>
        <time>2018-04-21T12:50:01.000Z</time>
      </trkpt>
      <trkpt lat="40.792959" lon="-3.962409">
        <ele>2269.3</ele>
        <time>2018-04-21T12:50:02.000Z</time>
      </trkpt>
      <trkpt lat="40.792959" lon="-3.962409">
        <ele>2269.3</ele>
        <time>2018-04-21T12:50:03.000Z</time>
      </trkpt>
      <trkpt lat="40.792959" lon="-3.962409">
        <ele>2269.3</ele>
        <time>2018-04-21T12:50:04.000Z</time>
      </trkpt>
      <trkpt lat="40.792959" lon="-3.962409">
        <ele>2269.3</ele>
        <time>2018-04-21T12:50:05.000Z</time>
      </trkpt>
      <trkpt lat="40.792959" lon="-3.962409">
        <ele>2269.3</ele>
        <time>2018-04-21T12:50:06.000Z</time>
      </trkpt>
      <trkpt lat="40.792959" lon="-3.962409">
        <ele>2269.3</ele>
        <time>2018-04-21T12:50:07.000Z</time>
      </trkpt>
      <trkpt lat="40.792959" lon="-3.962409">
        <ele>2269.3</ele>
        <time>2018-04-21T12:50:08.000Z</time>
      </trkpt>
      <trkpt lat="40.792959" lon="-3.962409">
        <ele>2269.3</ele>
        <time>2018-04-21T12:50:09.000Z</time>
      </trkpt>
      <trkpt lat="40.792959" lon="-3.962409">
        <ele>2269.3</ele>
        <time>2018-04-21T12:50:10.000Z</time>
      </trkpt>
      <trkpt lat="40.792959" lon="-3.962409">
        <ele>2269.3</ele>
        <time>2018-04-21T12:50:11.000Z</time>
      </trkpt>
      <trkpt lat="40.792959" lon="-3.962409">
        <ele>2269.3</ele>
        <time>2018-04-21T12:50:12.000Z</time>
      </trkpt>
      <trkpt lat="40.792959" lon="-3.962409">
        <ele>2269.3</ele>
        <time>2018-04-21T12:50:13.000Z</time>
      </trkpt>
      <trkpt lat="40.792959" lon="-3.962409">
        <ele>2269.3</ele>
        <time>2018-04-21T12:50:14.000Z</time>
      </trkpt>
      <trkpt lat="40.792959" lon="-3.962409">
        <ele>2269.3</ele>
        <time>2018-04-21T12:50:15.000Z</time>
      </trkpt>
      <trkpt lat="40.792959" lon="-3.962409">
        <ele>2269.3</ele>
        <time>2018-04-21T12:50:16.000Z</time>
      </trkpt>
      <trkpt lat="40.792959" lon="-3.962409">
        <ele>2269.3</ele>
        <time>2018-04-21T12:50:17.000Z</time>
      </trkpt>
      <trkpt lat="40.792959" lon="-3.962409">
        <ele>2269.3</ele>
        <time>2018-04-21T12:50:18.000Z</time>
      </trkpt>
      <trkpt lat="40.792959" lon="-3.962409">
        <ele>2269.3</ele>
        <time>2018-04-21T12:50:19.000Z</time>
      </trkpt>
      <trkpt lat="40.792959" lon="-3.962409">
        <ele>2269.3</ele>
        <time>2018-04-21T12:50:20.000Z</time>
      </trkpt>
      <trkpt lat="40.792959" lon="-3.962409">
        <ele>2269.3</ele>
        <time>2018-04-21T12:50:21.000Z</time>
      </trkpt>
      <trkpt lat="40.792959" lon="-3.962409">
        <ele>2269.3</ele>
        <time>2018-04-21T12:50:22.000Z</time>
      </trkpt>
      <trkpt lat="40.792959" lon="-3.962409">
        <ele>2269.3</ele>
        <time>2018-04-21T12:50:23.000Z</time>
      </trkpt>
      <trkpt lat="40.792959" lon="-3.962409">
        <ele>2269.3</ele>
        <time>2018-04-21T12:50:24.000Z</time>
      </trkpt>
      <trkpt lat="40.792959" lon="-3.962409">
        <ele>2269.3</ele>
        <time>2018-04-21T12:50:25.000Z</time>
      </trkpt>
      <trkpt lat="40.792959" lon="-3.962409">
        <ele>2269.3</ele>
        <time>2018-04-21T12:50:26.000Z</time>
      </trkpt>
      <trkpt lat="40.792959" lon="-3.962409">
        <ele>2269.3</ele>
        <time>2018-04-21T12:50:27.000Z</time>
      </trkpt>
      <trkpt lat="40.792959" lon="-3.962409">
        <ele>2269.3</ele>
        <time>2018-04-21T12:50:28.000Z</time>
      </trkpt>
      <trkpt lat="40.792959" lon="-3.962409">
        <ele>2269.3</ele>
        <time>2018-04-21T12:50:29.000Z</time>
      </trkpt>
      <trkpt lat="40.792959" lon="-3.962409">
        <ele>2269.3</ele>
        <time>2018-04-21T12:50:30.000Z</time>
      </trkpt>
      <trkpt lat="40.792959" lon="-3.962409">
        <ele>2269.3</ele>
        <time>2018-04-21T12:50:31.000Z</time>
      </trkpt>
      <trkpt lat="40.792959" lon="-3.962409">
        <ele>2269.3</ele>
        <time>2018-04-21T12:50:32.000Z</time>
      </trkpt>
      <trkpt lat="40.792959" lon="-3.962408">
        <ele>2269.3</ele>
        <time>2018-04-21T12:50:33.000Z</time>
      </trkpt>
      <trkpt lat="40.792959" lon="-3.962408">
        <ele>2269.3</ele>
        <time>2018-04-21T12:50:34.000Z</time>
      </trkpt>
      <trkpt lat="40.792959" lon="-3.962408">
        <ele>2269.3</ele>
        <time>2018-04-21T12:50:35.000Z</time>
      </trkpt>
      <trkpt lat="40.792959" lon="-3.962408">
        <ele>2269.3</ele>
        <time>2018-04-21T12:50:36.000Z</time>
      </trkpt>
      <trkpt lat="40.792959" lon="-3.962408">
        <ele>2269.3</ele>
        <time>2018-04-21T12:50:37.000Z</time>
      </trkpt>
      <trkpt lat="40.792959" lon="-3.962408">
        <ele>2269.3</ele>
        <time>2018-04-21T12:50:38.000Z</time>
      </trkpt>
      <trkpt lat="40.792959" lon="-3.962408">
        <ele>2269.3</ele>
        <time>2018-04-21T12:50:39.000Z</time>
      </trkpt>
      <trkpt lat="40.792959" lon="-3.962408">
        <ele>2269.3</ele>
        <time>2018-04-21T12:50:40.000Z</time>
      </trkpt>
      <trkpt lat="40.792959" lon="-3.962408">
        <ele>2269.3</ele>
        <time>2018-04-21T12:50:41.000Z</time>
      </trkpt>
      <trkpt lat="40.792959" lon="-3.962408">
        <ele>2269.3</ele>
        <time>2018-04-21T12:50:42.000Z</time>
      </trkpt>
      <trkpt lat="40.792959" lon="-3.962408">
        <ele>2269.3</ele>
        <time>2018-04-21T12:50:43.000Z</time>
      </trkpt>
      <trkpt lat="40.792959" lon="-3.962408">
        <ele>2269.3</ele>
        <time>2018-04-21T12:50:44.000Z</time>
      </trkpt>
      <trkpt lat="40.792959" lon="-3.962408">
        <ele>2269.3</ele>
        <time>2018-04-21T12:50:45.000Z</time>
      </trkpt>
      <trkpt lat="40.792959" lon="-3.962408">
        <ele>2269.3</ele>
        <time>2018-04-21T12:50:46.000Z</time>
      </trkpt>
      <trkpt lat="40.792959" lon="-3.962408">
        <ele>2269.3</ele>
        <time>2018-04-21T12:50:47.000Z</time>
      </trkpt>
      <trkpt lat="40.792959" lon="-3.962408">
        <ele>2269.3</ele>
        <time>2018-04-21T12:50:48.000Z</time>
      </trkpt>
      <trkpt lat="40.792959" lon="-3.962408">
        <ele>2269.3</ele>
        <time>2018-04-21T12:50:49.000Z</time>
      </trkpt>
      <trkpt lat="40.792959" lon="-3.962409">
        <ele>2269.3</ele>
        <time>2018-04-21T12:50:50.000Z</time>
      </trkpt>
      <trkpt lat="40.792959" lon="-3.962409">
        <ele>2269.3</ele>
        <time>2018-04-21T12:50:51.000Z</time>
      </trkpt>
      <trkpt lat="40.792959" lon="-3.962409">
        <ele>2269.3</ele>
        <time>2018-04-21T12:50:52.000Z</time>
      </trkpt>
      <trkpt lat="40.792959" lon="-3.962409">
        <ele>2269.3</ele>
        <time>2018-04-21T12:50:53.000Z</time>
      </trkpt>
      <trkpt lat="40.792959" lon="-3.962409">
        <ele>2269.3</ele>
        <time>2018-04-21T12:50:54.000Z</time>
      </trkpt>
      <trkpt lat="40.792959" lon="-3.962409">
        <ele>2269.3</ele>
        <time>2018-04-21T12:50:55.000Z</time>
      </trkpt>
      <trkpt lat="40.792959" lon="-3.962409">
        <ele>2269.3</ele>
        <time>2018-04-21T12:50:56.000Z</time>
      </trkpt>
      <trkpt lat="40.792959" lon="-3.962409">
        <ele>2269.3</ele>
        <time>2018-04-21T12:50:57.000Z</time>
      </trkpt>
      <trkpt lat="40.792959" lon="-3.962409">
        <ele>2269.3</ele>
        <time>2018-04-21T12:50:58.000Z</time>
      </trkpt>
      <trkpt lat="40.792959" lon="-3.962409">
        <ele>2269.3</ele>
        <time>2018-04-21T12:50:59.000Z</time>
      </trkpt>
      <trkpt lat="40.792959" lon="-3.962409">
        <ele>2269.3</ele>
        <time>2018-04-21T12:51:00.000Z</time>
      </trkpt>
      <trkpt lat="40.792959" lon="-3.962409">
        <ele>2269.3</ele>
        <time>2018-04-21T12:51:01.000Z</time>
      </trkpt>
      <trkpt lat="40.792959" lon="-3.962409">
        <ele>2269.3</ele>
        <time>2018-04-21T12:51:02.000Z</time>
      </trkpt>
      <trkpt lat="40.792959" lon="-3.962409">
        <ele>2269.3</ele>
        <time>2018-04-21T12:51:03.000Z</time>
      </trkpt>
      <trkpt lat="40.792959" lon="-3.962409">
        <ele>2269.3</ele>
        <time>2018-04-21T12:51:04.000Z</time>
      </trkpt>
      <trkpt lat="40.792959" lon="-3.962409">
        <ele>2269.3</ele>
        <time>2018-04-21T12:51:05.000Z</time>
      </trkpt>
      <trkpt lat="40.792959" lon="-3.962409">
        <ele>2269.3</ele>
        <time>2018-04-21T12:51:06.000Z</time>
      </trkpt>
      <trkpt lat="40.792959" lon="-3.962409">
        <ele>2269.3</ele>
        <time>2018-04-21T12:51:07.000Z</time>
      </trkpt>
      <trkpt lat="40.792959" lon="-3.962409">
        <ele>2269.3</ele>
        <time>2018-04-21T12:51:08.000Z</time>
      </trkpt>
      <trkpt lat="40.792959" lon="-3.962409">
        <ele>2269.3</ele>
        <time>2018-04-21T12:51:09.000Z</time>
      </trkpt>
      <trkpt lat="40.792959" lon="-3.962409">
        <ele>2269.3</ele>
        <time>2018-04-21T12:51:10.000Z</time>
      </trkpt>
      <trkpt lat="40.792959" lon="-3.962409">
        <ele>2269.3</ele>
        <time>2018-04-21T12:51:11.000Z</time>
      </trkpt>
      <trkpt lat="40.792959" lon="-3.962409">
        <ele>2269.3</ele>
        <time>2018-04-21T12:51:12.000Z</time>
      </trkpt>
      <trkpt lat="40.792959" lon="-3.962409">
        <ele>2269.3</ele>
        <time>2018-04-21T12:51:13.000Z</time>
      </trkpt>
      <trkpt lat="40.792959" lon="-3.962409">
        <ele>2269.3</ele>
        <time>2018-04-21T12:51:14.000Z</time>
      </trkpt>
      <trkpt lat="40.792959" lon="-3.962409">
        <ele>2269.3</ele>
        <time>2018-04-21T12:51:15.000Z</time>
      </trkpt>
      <trkpt lat="40.792959" lon="-3.962409">
        <ele>2269.3</ele>
        <time>2018-04-21T12:51:16.000Z</time>
      </trkpt>
      <trkpt lat="40.792959" lon="-3.962409">
        <ele>2269.3</ele>
        <time>2018-04-21T12:51:17.000Z</time>
      </trkpt>
      <trkpt lat="40.792959" lon="-3.962409">
        <ele>2269.3</ele>
        <time>2018-04-21T12:51:18.000Z</time>
      </trkpt>
      <trkpt lat="40.792959" lon="-3.962409">
        <ele>2269.3</ele>
        <time>2018-04-21T12:51:19.000Z</time>
      </trkpt>
      <trkpt lat="40.792959" lon="-3.962409">
        <ele>2269.3</ele>
        <time>2018-04-21T12:51:20.000Z</time>
      </trkpt>
      <trkpt lat="40.792959" lon="-3.962409">
        <ele>2269.3</ele>
        <time>2018-04-21T12:51:21.000Z</time>
      </trkpt>
      <trkpt lat="40.792959" lon="-3.962409">
        <ele>2269.3</ele>
        <time>2018-04-21T12:51:22.000Z</time>
      </trkpt>
      <trkpt lat="40.792958" lon="-3.962409">
        <ele>2269.3</ele>
        <time>2018-04-21T12:51:23.000Z</time>
      </trkpt>
      <trkpt lat="40.792956" lon="-3.962411">
        <ele>2269.3</ele>
        <time>2018-04-21T12:51:24.000Z</time>
      </trkpt>
      <trkpt lat="40.792953" lon="-3.962415">
        <ele>2269.4</ele>
        <time>2018-04-21T12:51:25.000Z</time>
      </trkpt>
      <trkpt lat="40.792947" lon="-3.962421">
        <ele>2269.4</ele>
        <time>2018-04-21T12:51:26.000Z</time>
      </trkpt>
      <trkpt lat="40.792941" lon="-3.962427">
        <ele>2269.5</ele>
        <time>2018-04-21T12:51:27.000Z</time>
      </trkpt>
      <trkpt lat="40.792933" lon="-3.962433">
        <ele>2269.5</ele>
        <time>2018-04-21T12:51:28.000Z</time>
      </trkpt>
      <trkpt lat="40.792926" lon="-3.962436">
        <ele>2269.6</ele>
        <time>2018-04-21T12:51:29.000Z</time>
      </trkpt>
      <trkpt lat="40.792919" lon="-3.962436">
        <ele>2269.6</ele>
        <time>2018-04-21T12:51:30.000Z</time>
      </trkpt>
      <trkpt lat="40.792913" lon="-3.962434">
        <ele>2269.6</ele>
        <time>2018-04-21T12:51:31.000Z</time>
      </trkpt>
      <trkpt lat="40.792907" lon="-3.962432">
        <ele>2269.6</ele>
        <time>2018-04-21T12:51:32.000Z</time>
      </trkpt>
      <trkpt lat="40.792902" lon="-3.962432">
        <ele>2269.6</ele>
        <time>2018-04-21T12:51:33.000Z</time>
      </trkpt>
      <trkpt lat="40.792896" lon="-3.962435">
        <ele>2269.7</ele>
        <time>2018-04-21T12:51:34.000Z</time>
      </trkpt>
      <trkpt lat="40.79289" lon="-3.962439">
        <ele>2269.7</ele>
        <time>2018-04-21T12:51:35.000Z</time>
      </trkpt>
      <trkpt lat="40.792883" lon="-3.962446">
        <ele>2269.8</ele>
        <time>2018-04-21T12:51:36.000Z</time>
      </trkpt>
      <trkpt lat="40.792876" lon="-3.962453">
        <ele>2269.9</ele>
        <time>2018-04-21T12:51:37.000Z</time>
      </trkpt>
      <trkpt lat="40.792869" lon="-3.962462">
        <ele>2270.0</ele>
        <time>2018-04-21T12:51:38.000Z</time>
      </trkpt>
      <trkpt lat="40.792861" lon="-3.962472">
        <ele>2270.1</ele>
        <time>2018-04-21T12:51:39.000Z</time>
      </trkpt>
      <trkpt lat="40.792854" lon="-3.962484">
        <ele>2270.2</ele>
        <time>2018-04-21T12:51:40.000Z</time>
      </trkpt>
      <trkpt lat="40.792847" lon="-3.962496">
        <ele>2270.3</ele>
        <time>2018-04-21T12:51:41.000Z</time>
      </trkpt>
      <trkpt lat="40.792841" lon="-3.962506">
        <ele>2270.3</ele>
        <time>2018-04-21T12:51:42.000Z</time>
      </trkpt>
      <trkpt lat="40.792835" lon="-3.962515">
        <ele>2270.2</ele>
        <time>2018-04-21T12:51:43.000Z</time>
      </trkpt>
      <trkpt lat="40.792829" lon="-3.96252">
        <ele>2270.1</ele>
        <time>2018-04-21T12:51:44.000Z</time>
      </trkpt>
      <trkpt lat="40.792823" lon="-3.962524">
        <ele>2270.1</ele>
        <time>2018-04-21T12:51:45.000Z</time>
      </trkpt>
      <trkpt lat="40.792817" lon="-3.962527">
        <ele>2270.1</ele>
        <time>2018-04-21T12:51:46.000Z</time>
      </trkpt>
      <trkpt lat="40.792811" lon="-3.962531">
        <ele>2270.0</ele>
        <time>2018-04-21T12:51:47.000Z</time>
      </trkpt>
      <trkpt lat="40.792805" lon="-3.962537">
        <ele>2270.0</ele>
        <time>2018-04-21T12:51:48.000Z</time>
      </trkpt>
      <trkpt lat="40.792799" lon="-3.962544">
        <ele>2269.9</ele>
        <time>2018-04-21T12:51:49.000Z</time>
      </trkpt>
      <trkpt lat="40.792793" lon="-3.962552">
        <ele>2269.8</ele>
        <time>2018-04-21T12:51:50.000Z</time>
      </trkpt>
      <trkpt lat="40.792786" lon="-3.962561">
        <ele>2269.7</ele>
        <time>2018-04-21T12:51:51.000Z</time>
      </trkpt>
      <trkpt lat="40.79278" lon="-3.96257">
        <ele>2269.6</ele>
        <time>2018-04-21T12:51:52.000Z</time>
      </trkpt>
      <trkpt lat="40.792774" lon="-3.96258">
        <ele>2269.5</ele>
        <time>2018-04-21T12:51:53.000Z</time>
      </trkpt>
      <trkpt lat="40.792768" lon="-3.96259">
        <ele>2269.4</ele>
        <time>2018-04-21T12:51:54.000Z</time>
      </trkpt>
      <trkpt lat="40.792762" lon="-3.9626">
        <ele>2269.2</ele>
        <time>2018-04-21T12:51:55.000Z</time>
      </trkpt>
      <trkpt lat="40.792757" lon="-3.962609">
        <ele>2269.1</ele>
        <time>2018-04-21T12:51:56.000Z</time>
      </trkpt>
      <trkpt lat="40.792752" lon="-3.962619">
        <ele>2269.0</ele>
        <time>2018-04-21T12:51:57.000Z</time>
      </trkpt>
      <trkpt lat="40.792747" lon="-3.962628">
        <ele>2268.9</ele>
        <time>2018-04-21T12:51:58.000Z</time>
      </trkpt>
      <trkpt lat="40.792743" lon="-3.962636">
        <ele>2268.8</ele>
        <time>2018-04-21T12:51:59.000Z</time>
      </trkpt>
      <trkpt lat="40.79274" lon="-3.962643">
        <ele>2268.7</ele>
        <time>2018-04-21T12:52:00.000Z</time>
      </trkpt>
      <trkpt lat="40.792737" lon="-3.962649">
        <ele>2268.7</ele>
        <time>2018-04-21T12:52:01.000Z</time>
      </trkpt>
      <trkpt lat="40.792734" lon="-3.962654">
        <ele>2268.6</ele>
        <time>2018-04-21T12:52:02.000Z</time>
      </trkpt>
      <trkpt lat="40.792732" lon="-3.962657">
        <ele>2268.6</ele>
        <time>2018-04-21T12:52:03.000Z</time>
      </trkpt>
      <trkpt lat="40.792731" lon="-3.96266">
        <ele>2268.5</ele>
        <time>2018-04-21T12:52:04.000Z</time>
      </trkpt>
      <trkpt lat="40.79273" lon="-3.962662">
        <ele>2268.5</ele>
        <time>2018-04-21T12:52:05.000Z</time>
      </trkpt>
      <trkpt lat="40.792729" lon="-3.962663">
        <ele>2268.5</ele>
        <time>2018-04-21T12:52:06.000Z</time>
      </trkpt>
      <trkpt lat="40.792729" lon="-3.962664">
        <ele>2268.5</ele>
        <time>2018-04-21T12:52:07.000Z</time>
      </trkpt>
      <trkpt lat="40.792729" lon="-3.962664">
        <ele>2268.5</ele>
        <time>2018-04-21T12:52:08.000Z</time>
      </trkpt>
      <trkpt lat="40.792728" lon="-3.962664">
        <ele>2268.5</ele>
        <time>2018-04-21T12:52:09.000Z</time>
      </trkpt>
      <trkpt lat="40.792728" lon="-3.962665">
        <ele>2268.5</ele>
        <time>2018-04-21T12:52:10.000Z</time>
      </trkpt>
      <trkpt lat="40.792728" lon="-3.962665">
        <ele>2268.5</ele>
        <time>2018-04-21T12:52:11.000Z</time>
      </trkpt>
      <trkpt lat="40.792727" lon="-3.962666">
        <ele>2268.5</ele>
        <time>2018-04-21T12:52:12.000Z</time>
      </trkpt>
      <trkpt lat="40.792727" lon="-3.962667">
        <ele>2268.5</ele>
        <time>2018-04-21T12:52:13.000Z</time>
      </trkpt>
      <trkpt lat="40.792726" lon="-3.962669">
        <ele>2268.4</ele>
        <time>2018-04-21T12:52:14.000Z</time>
      </trkpt>
      <trkpt lat="40.792724" lon="-3.962671">
        <ele>2268.4</ele>
        <time>2018-04-21T12:52:15.000Z</time>
      </trkpt>
      <trkpt lat="40.792722" lon="-3.962675">
        <ele>2268.4</ele>
        <time>2018-04-21T12:52:16.000Z</time>
      </trkpt>
      <trkpt lat="40.792719" lon="-3.962679">
        <ele>2268.3</ele>
        <time>2018-04-21T12:52:17.000Z</time>
      </trkpt>
      <trkpt lat="40.792716" lon="-3.962684">
        <ele>2268.3</ele>
        <time>2018-04-21T12:52:18.000Z</time>
      </trkpt>
      <trkpt lat="40.792712" lon="-3.962689">
        <ele>2268.3</ele>
        <time>2018-04-21T12:52:19.000Z</time>
      </trkpt>
      <trkpt lat="40.792707" lon="-3.962695">
        <ele>2268.2</ele>
        <time>2018-04-21T12:52:20.000Z</time>
      </trkpt>
      <trkpt lat="40.792702" lon="-3.9627">
        <ele>2268.2</ele>
        <time>2018-04-21T12:52:21.000Z</time>
      </trkpt>
      <trkpt lat="40.792696" lon="-3.962705">
        <ele>2268.1</ele>
        <time>2018-04-21T12:52:22.000Z</time>
      </trkpt>
      <trkpt lat="40.792688" lon="-3.96271">
        <ele>2268.1</ele>
        <time>2018-04-21T12:52:23.000Z</time>
      </trkpt>
      <trkpt lat="40.79268" lon="-3.962714">
        <ele>2268.1</ele>
        <time>2018-04-21T12:52:24.000Z</time>
      </trkpt>
      <trkpt lat="40.792671" lon="-3.962717">
        <ele>2268.1</ele>
        <time>2018-04-21T12:52:25.000Z</time>
      </trkpt>
      <trkpt lat="40.792662" lon="-3.96272">
        <ele>2268.2</ele>
        <time>2018-04-21T12:52:26.000Z</time>
      </trkpt>
      <trkpt lat="40.792652" lon="-3.962723">
        <ele>2268.2</ele>
        <time>2018-04-21T12:52:27.000Z</time>
      </trkpt>
      <trkpt lat="40.792642" lon="-3.962726">
        <ele>2268.2</ele>
        <time>2018-04-21T12:52:28.000Z</time>
      </trkpt>
      <trkpt lat="40.792632" lon="-3.962729">
        <ele>2268.3</ele>
        <time>2018-04-21T12:52:29.000Z</time>
      </trkpt>
      <trkpt lat="40.792622" lon="-3.962732">
        <ele>2268.3</ele>
        <time>2018-04-21T12:52:30.000Z</time>
      </trkpt>
      <trkpt lat="40.792612" lon="-3.962736">
        <ele>2268.3</ele>
        <time>2018-04-21T12:52:31.000Z</time>
      </trkpt>
      <trkpt lat="40.792603" lon="-3.962739">
        <ele>2268.4</ele>
        <time>2018-04-21T12:52:32.000Z</time>
      </trkpt>
      <trkpt lat="40.792594" lon="-3.962744">
        <ele>2268.4</ele>
        <time>2018-04-21T12:52:33.000Z</time>
      </trkpt>
      <trkpt lat="40.792585" lon="-3.962748">
        <ele>2268.4</ele>
        <time>2018-04-21T12:52:34.000Z</time>
      </trkpt>
      <trkpt lat="40.792576" lon="-3.962753">
        <ele>2268.4</ele>
        <time>2018-04-21T12:52:35.000Z</time>
      </trkpt>
      <trkpt lat="40.792567" lon="-3.962758">
        <ele>2268.4</ele>
        <time>2018-04-21T12:52:36.000Z</time>
      </trkpt>
      <trkpt lat="40.792558" lon="-3.962763">
        <ele>2268.4</ele>
        <time>2018-04-21T12:52:37.000Z</time>
      </trkpt>
      <trkpt lat="40.792549" lon="-3.962769">
        <ele>2268.4</ele>
        <time>2018-04-21T12:52:38.000Z</time>
      </trkpt>
      <trkpt lat="40.79254" lon="-3.962774">
        <ele>2268.4</ele>
        <time>2018-04-21T12:52:39.000Z</time>
      </trkpt>
      <trkpt lat="40.792531" lon="-3.96278">
        <ele>2268.4</ele>
        <time>2018-04-21T12:52:40.000Z</time>
      </trkpt>
      <trkpt lat="40.792522" lon="-3.962785">
        <ele>2268.4</ele>
        <time>2018-04-21T12:52:41.000Z</time>
      </trkpt>
      <trkpt lat="40.792514" lon="-3.96279">
        <ele>2268.4</ele>
        <time>2018-04-21T12:52:42.000Z</time>
      </trkpt>
      <trkpt lat="40.792506" lon="-3.962794">
        <ele>2268.4</ele>
        <time>2018-04-21T12:52:43.000Z</time>
      </trkpt>
      <trkpt lat="40.792499" lon="-3.962798">
        <ele>2268.4</ele>
        <time>2018-04-21T12:52:44.000Z</time>
      </trkpt>
      <trkpt lat="40.792493" lon="-3.962801">
        <ele>2268.4</ele>
        <time>2018-04-21T12:52:45.000Z</time>
      </trkpt>
      <trkpt lat="40.792489" lon="-3.962804">
        <ele>2268.3</ele>
        <time>2018-04-21T12:52:46.000Z</time>
      </trkpt>
      <trkpt lat="40.792486" lon="-3.962807">
        <ele>2268.3</ele>
        <time>2018-04-21T12:52:47.000Z</time>
      </trkpt>
      <trkpt lat="40.792483" lon="-3.962809">
        <ele>2268.3</ele>
        <time>2018-04-21T12:52:48.000Z</time>
      </trkpt>
      <trkpt lat="40.79248" lon="-3.96281">
        <ele>2268.3</ele>
        <time>2018-04-21T12:52:49.000Z</time>
      </trkpt>
      <trkpt lat="40.792478" lon="-3.962812">
        <ele>2268.2</ele>
        <time>2018-04-21T12:52:50.000Z</time>
      </trkpt>
      <trkpt lat="40.792476" lon="-3.962814">
        <ele>2268.2</ele>
        <time>2018-04-21T12:52:51.000Z</time>
      </trkpt>
      <trkpt lat="40.792472" lon="-3.962815">
        <ele>2268.2</ele>
        <time>2018-04-21T12:52:52.000Z</time>
      </trkpt>
      <trkpt lat="40.792468" lon="-3.962817">
        <ele>2268.2</ele>
        <time>2018-04-21T12:52:53.000Z</time>
      </trkpt>
      <trkpt lat="40.792464" lon="-3.962818">
        <ele>2268.2</ele>
        <time>2018-04-21T12:52:54.000Z</time>
      </trkpt>
      <trkpt lat="40.792458" lon="-3.96282">
        <ele>2268.1</ele>
        <time>2018-04-21T12:52:55.000Z</time>
      </trkpt>
      <trkpt lat="40.792453" lon="-3.962822">
        <ele>2268.1</ele>
        <time>2018-04-21T12:52:56.000Z</time>
      </trkpt>
      <trkpt lat="40.792446" lon="-3.962824">
        <ele>2268.1</ele>
        <time>2018-04-21T12:52:57.000Z</time>
      </trkpt>
      <trkpt lat="40.79244" lon="-3.962825">
        <ele>2268.1</ele>
        <time>2018-04-21T12:52:58.000Z</time>
      </trkpt>
      <trkpt lat="40.792434" lon="-3.962827">
        <ele>2268.1</ele>
        <time>2018-04-21T12:52:59.000Z</time>
      </trkpt>
      <trkpt lat="40.792427" lon="-3.962829">
        <ele>2268.0</ele>
        <time>2018-04-21T12:53:00.000Z</time>
      </trkpt>
      <trkpt lat="40.792421" lon="-3.962831">
        <ele>2268.0</ele>
        <time>2018-04-21T12:53:01.000Z</time>
      </trkpt>
      <trkpt lat="40.792415" lon="-3.962833">
        <ele>2268.0</ele>
        <time>2018-04-21T12:53:02.000Z</time>
      </trkpt>
      <trkpt lat="40.792409" lon="-3.962835">
        <ele>2268.0</ele>
        <time>2018-04-21T12:53:03.000Z</time>
      </trkpt>
      <trkpt lat="40.792403" lon="-3.962837">
        <ele>2267.9</ele>
        <time>2018-04-21T12:53:04.000Z</time>
      </trkpt>
      <trkpt lat="40.792397" lon="-3.962839">
        <ele>2267.9</ele>
        <time>2018-04-21T12:53:05.000Z</time>
      </trkpt>
      <trkpt lat="40.792391" lon="-3.962841">
        <ele>2267.9</ele>
        <time>2018-04-21T12:53:06.000Z</time>
      </trkpt>
      <trkpt lat="40.792384" lon="-3.962843">
        <ele>2267.9</ele>
        <time>2018-04-21T12:53:07.000Z</time>
      </trkpt>
      <trkpt lat="40.792378" lon="-3.962845">
        <ele>2267.9</ele>
        <time>2018-04-21T12:53:08.000Z</time>
      </trkpt>
      <trkpt lat="40.792372" lon="-3.962847">
        <ele>2267.8</ele>
        <time>2018-04-21T12:53:09.000Z</time>
      </trkpt>
      <trkpt lat="40.792366" lon="-3.96285">
        <ele>2267.8</ele>
        <time>2018-04-21T12:53:10.000Z</time>
      </trkpt>
      <trkpt lat="40.79236" lon="-3.962852">
        <ele>2267.8</ele>
        <time>2018-04-21T12:53:11.000Z</time>
      </trkpt>
      <trkpt lat="40.792353" lon="-3.962855">
        <ele>2267.8</ele>
        <time>2018-04-21T12:53:12.000Z</time>
      </trkpt>
      <trkpt lat="40.792347" lon="-3.962858">
        <ele>2267.7</ele>
        <time>2018-04-21T12:53:13.000Z</time>
      </trkpt>
      <trkpt lat="40.79234" lon="-3.96286">
        <ele>2267.7</ele>
        <time>2018-04-21T12:53:14.000Z</time>
      </trkpt>
      <trkpt lat="40.792334" lon="-3.962863">
        <ele>2267.7</ele>
        <time>2018-04-21T12:53:15.000Z</time>
      </trkpt>
      <trkpt lat="40.792327" lon="-3.962866">
        <ele>2267.7</ele>
        <time>2018-04-21T12:53:16.000Z</time>
      </trkpt>
      <trkpt lat="40.79232" lon="-3.96287">
        <ele>2267.6</ele>
        <time>2018-04-21T12:53:17.000Z</time>
      </trkpt>
      <trkpt lat="40.792313" lon="-3.962873">
        <ele>2267.6</ele>
        <time>2018-04-21T12:53:18.000Z</time>
      </trkpt>
      <trkpt lat="40.792306" lon="-3.962876">
        <ele>2267.6</ele>
        <time>2018-04-21T12:53:19.000Z</time>
      </trkpt>
      <trkpt lat="40.792299" lon="-3.96288">
        <ele>2267.6</ele>
        <time>2018-04-21T12:53:20.000Z</time>
      </trkpt>
      <trkpt lat="40.792292" lon="-3.962883">
        <ele>2267.5</ele>
        <time>2018-04-21T12:53:21.000Z</time>
      </trkpt>
      <trkpt lat="40.792285" lon="-3.962887">
        <ele>2267.5</ele>
        <time>2018-04-21T12:53:22.000Z</time>
      </trkpt>
      <trkpt lat="40.792278" lon="-3.962891">
        <ele>2267.5</ele>
        <time>2018-04-21T12:53:23.000Z</time>
      </trkpt>
      <trkpt lat="40.792271" lon="-3.962895">
        <ele>2267.4</ele>
        <time>2018-04-21T12:53:24.000Z</time>
      </trkpt>
      <trkpt lat="40.792264" lon="-3.962899">
        <ele>2267.4</ele>
        <time>2018-04-21T12:53:25.000Z</time>
      </trkpt>
      <trkpt lat="40.792257" lon="-3.962903">
        <ele>2267.4</ele>
        <time>2018-04-21T12:53:26.000Z</time>
      </trkpt>
      <trkpt lat="40.79225" lon="-3.962907">
        <ele>2267.4</ele>
        <time>2018-04-21T12:53:27.000Z</time>
      </trkpt>
      <trkpt lat="40.792243" lon="-3.962911">
        <ele>2267.4</ele>
        <time>2018-04-21T12:53:28.000Z</time>
      </trkpt>
      <trkpt lat="40.792236" lon="-3.962915">
        <ele>2267.3</ele>
        <time>2018-04-21T12:53:29.000Z</time>
      </trkpt>
      <trkpt lat="40.792229" lon="-3.962919">
        <ele>2267.3</ele>
        <time>2018-04-21T12:53:30.000Z</time>
      </trkpt>
      <trkpt lat="40.792222" lon="-3.962923">
        <ele>2267.3</ele>
        <time>2018-04-21T12:53:31.000Z</time>
      </trkpt>
      <trkpt lat="40.792216" lon="-3.962927">
        <ele>2267.3</ele>
        <time>2018-04-21T12:53:32.000Z</time>
      </trkpt>
      <trkpt lat="40.792209" lon="-3.962932">
        <ele>2267.2</ele>
        <time>2018-04-21T12:53:33.000Z</time>
      </trkpt>
      <trkpt lat="40.792202" lon="-3.962936">
        <ele>2267.2</ele>
        <time>2018-04-21T12:53:34.000Z</time>
      </trkpt>
      <trkpt lat="40.792196" lon="-3.96294">
        <ele>2267.2</ele>
        <time>2018-04-21T12:53:35.000Z</time>
      </trkpt>
      <trkpt lat="40.792189" lon="-3.962944">
        <ele>2267.2</ele>
        <time>2018-04-21T12:53:36.000Z</time>
      </trkpt>
      <trkpt lat="40.792182" lon="-3.962948">
        <ele>2267.2</ele>
        <time>2018-04-21T12:53:37.000Z</time>
      </trkpt>
      <trkpt lat="40.792175" lon="-3.962952">
        <ele>2267.2</ele>
        <time>2018-04-21T12:53:38.000Z</time>
      </trkpt>
      <trkpt lat="40.792168" lon="-3.962955">
        <ele>2267.2</ele>
        <time>2018-04-21T12:53:39.000Z</time>
      </trkpt>
      <trkpt lat="40.79216" lon="-3.962959">
        <ele>2267.1</ele>
        <time>2018-04-21T12:53:40.000Z</time>
      </trkpt>
      <trkpt lat="40.792153" lon="-3.962962">
        <ele>2267.1</ele>
        <time>2018-04-21T12:53:41.000Z</time>
      </trkpt>
      <trkpt lat="40.792145" lon="-3.962965">
        <ele>2267.1</ele>
        <time>2018-04-21T12:53:42.000Z</time>
      </trkpt>
      <trkpt lat="40.792137" lon="-3.962968">
        <ele>2267.1</ele>
        <time>2018-04-21T12:53:43.000Z</time>
      </trkpt>
      <trkpt lat="40.792128" lon="-3.962971">
        <ele>2267.1</ele>
        <time>2018-04-21T12:53:44.000Z</time>
      </trkpt>
      <trkpt lat="40.79212" lon="-3.962973">
        <ele>2267.1</ele>
        <time>2018-04-21T12:53:45.000Z</time>
      </trkpt>
      <trkpt lat="40.792111" lon="-3.962975">
        <ele>2267.2</ele>
        <time>2018-04-21T12:53:46.000Z</time>
      </trkpt>
      <trkpt lat="40.792102" lon="-3.962977">
        <ele>2267.2</ele>
        <time>2018-04-21T12:53:47.000Z</time>
      </trkpt>
      <trkpt lat="40.792093" lon="-3.962979">
        <ele>2267.2</ele>
        <time>2018-04-21T12:53:48.000Z</time>
      </trkpt>
      <trkpt lat="40.792084" lon="-3.962981">
        <ele>2267.2</ele>
        <time>2018-04-21T12:53:49.000Z</time>
      </trkpt>
      <trkpt lat="40.792075" lon="-3.962983">
        <ele>2267.2</ele>
        <time>2018-04-21T12:53:50.000Z</time>
      </trkpt>
      <trkpt lat="40.792066" lon="-3.962984">
        <ele>2267.2</ele>
        <time>2018-04-21T12:53:51.000Z</time>
      </trkpt>
      <trkpt lat="40.792058" lon="-3.962986">
        <ele>2267.2</ele>
        <time>2018-04-21T12:53:52.000Z</time>
      </trkpt>
      <trkpt lat="40.79205" lon="-3.962988">
        <ele>2267.2</ele>
        <time>2018-04-21T12:53:53.000Z</time>
      </trkpt>
      <trkpt lat="40.792042" lon="-3.962989">
        <ele>2267.3</ele>
        <time>2018-04-21T12:53:54.000Z</time>
      </trkpt>
      <trkpt lat="40.792034" lon="-3.962991">
        <ele>2267.3</ele>
        <time>2018-04-21T12:53:55.000Z</time>
      </trkpt>
      <trkpt lat="40.792027" lon="-3.962993">
        <ele>2267.3</ele>
        <time>2018-04-21T12:53:56.000Z</time>
      </trkpt>
      <trkpt lat="40.79202" lon="-3.962995">
        <ele>2267.3</ele>
        <time>2018-04-21T12:53:57.000Z</time>
      </trkpt>
      <trkpt lat="40.792014" lon="-3.962997">
        <ele>2267.3</ele>
        <time>2018-04-21T12:53:58.000Z</time>
      </trkpt>
      <trkpt lat="40.792008" lon="-3.963">
        <ele>2267.3</ele>
        <time>2018-04-21T12:53:59.000Z</time>
      </trkpt>
      <trkpt lat="40.792003" lon="-3.963002">
        <ele>2267.3</ele>
        <time>2018-04-21T12:54:00.000Z</time>
      </trkpt>
      <trkpt lat="40.791997" lon="-3.963005">
        <ele>2267.3</ele>
        <time>2018-04-21T12:54:01.000Z</time>
      </trkpt>
      <trkpt lat="40.79199" lon="-3.963007">
        <ele>2267.3</ele>
        <time>2018-04-21T12:54:02.000Z</time>
      </trkpt>
      <trkpt lat="40.791982" lon="-3.963008">
        <ele>2267.3</ele>
        <time>2018-04-21T12:54:03.000Z</time>
      </trkpt>
      <trkpt lat="40.791974" lon="-3.963009">
        <ele>2267.4</ele>
        <time>2018-04-21T12:54:04.000Z</time>
      </trkpt>
      <trkpt lat="40.791965" lon="-3.963011">
        <ele>2267.4</ele>
        <time>2018-04-21T12:54:05.000Z</time>
      </trkpt>
      <trkpt lat="40.791957" lon="-3.963012">
        <ele>2267.4</ele>
        <time>2018-04-21T12:54:06.000Z</time>
      </trkpt>
      <trkpt lat="40.79195" lon="-3.963014">
        <ele>2267.4</ele>
        <time>2018-04-21T12:54:07.000Z</time>
      </trkpt>
      <trkpt lat="40.791943" lon="-3.963016">
        <ele>2267.4</ele>
        <time>2018-04-21T12:54:08.000Z</time>
      </trkpt>
      <trkpt lat="40.791936" lon="-3.963019">
        <ele>2267.4</ele>
        <time>2018-04-21T12:54:09.000Z</time>
      </trkpt>
      <trkpt lat="40.79193" lon="-3.963021">
        <ele>2267.5</ele>
        <time>2018-04-21T12:54:10.000Z</time>
      </trkpt>
      <trkpt lat="40.791925" lon="-3.963024">
        <ele>2267.5</ele>
        <time>2018-04-21T12:54:11.000Z</time>
      </trkpt>
      <trkpt lat="40.791919" lon="-3.963028">
        <ele>2267.5</ele>
        <time>2018-04-21T12:54:12.000Z</time>
      </trkpt>
      <trkpt lat="40.791913" lon="-3.963031">
        <ele>2267.5</ele>
        <time>2018-04-21T12:54:13.000Z</time>
      </trkpt>
      <trkpt lat="40.791907" lon="-3.963034">
        <ele>2267.5</ele>
        <time>2018-04-21T12:54:14.000Z</time>
      </trkpt>
      <trkpt lat="40.791901" lon="-3.963038">
        <ele>2267.5</ele>
        <time>2018-04-21T12:54:15.000Z</time>
      </trkpt>
      <trkpt lat="40.791895" lon="-3.963041">
        <ele>2267.5</ele>
        <time>2018-04-21T12:54:16.000Z</time>
      </trkpt>
      <trkpt lat="40.791888" lon="-3.963045">
        <ele>2267.6</ele>
        <time>2018-04-21T12:54:17.000Z</time>
      </trkpt>
      <trkpt lat="40.791881" lon="-3.963049">
        <ele>2267.6</ele>
        <time>2018-04-21T12:54:18.000Z</time>
      </trkpt>
      <trkpt lat="40.791874" lon="-3.963052">
        <ele>2267.6</ele>
        <time>2018-04-21T12:54:19.000Z</time>
      </trkpt>
      <trkpt lat="40.791867" lon="-3.963056">
        <ele>2267.6</ele>
        <time>2018-04-21T12:54:20.000Z</time>
      </trkpt>
      <trkpt lat="40.791859" lon="-3.963059">
        <ele>2267.6</ele>
        <time>2018-04-21T12:54:21.000Z</time>
      </trkpt>
      <trkpt lat="40.791852" lon="-3.963063">
        <ele>2267.7</ele>
        <time>2018-04-21T12:54:22.000Z</time>
      </trkpt>
      <trkpt lat="40.791844" lon="-3.963066">
        <ele>2267.7</ele>
        <time>2018-04-21T12:54:23.000Z</time>
      </trkpt>
      <trkpt lat="40.791836" lon="-3.963069">
        <ele>2267.7</ele>
        <time>2018-04-21T12:54:24.000Z</time>
      </trkpt>
      <trkpt lat="40.791828" lon="-3.963072">
        <ele>2267.7</ele>
        <time>2018-04-21T12:54:25.000Z</time>
      </trkpt>
      <trkpt lat="40.79182" lon="-3.963074">
        <ele>2267.8</ele>
        <time>2018-04-21T12:54:26.000Z</time>
      </trkpt>
      <trkpt lat="40.791812" lon="-3.963077">
        <ele>2267.8</ele>
        <time>2018-04-21T12:54:27.000Z</time>
      </trkpt>
      <trkpt lat="40.791803" lon="-3.963079">
        <ele>2267.8</ele>
        <time>2018-04-21T12:54:28.000Z</time>
      </trkpt>
      <trkpt lat="40.791795" lon="-3.963081">
        <ele>2267.9</ele>
        <time>2018-04-21T12:54:29.000Z</time>
      </trkpt>
      <trkpt lat="40.791787" lon="-3.963082">
        <ele>2267.9</ele>
        <time>2018-04-21T12:54:30.000Z</time>
      </trkpt>
      <trkpt lat="40.791779" lon="-3.963084">
        <ele>2267.9</ele>
        <time>2018-04-21T12:54:31.000Z</time>
      </trkpt>
      <trkpt lat="40.79177" lon="-3.963085">
        <ele>2268.0</ele>
        <time>2018-04-21T12:54:32.000Z</time>
      </trkpt>
      <trkpt lat="40.791762" lon="-3.963086">
        <ele>2268.0</ele>
        <time>2018-04-21T12:54:33.000Z</time>
      </trkpt>
      <trkpt lat="40.791753" lon="-3.963087">
        <ele>2268.1</ele>
        <time>2018-04-21T12:54:34.000Z</time>
      </trkpt>
      <trkpt lat="40.791745" lon="-3.963087">
        <ele>2268.1</ele>
        <time>2018-04-21T12:54:35.000Z</time>
      </trkpt>
      <trkpt lat="40.791737" lon="-3.963088">
        <ele>2268.1</ele>
        <time>2018-04-21T12:54:36.000Z</time>
      </trkpt>
      <trkpt lat="40.791728" lon="-3.963088">
        <ele>2268.2</ele>
        <time>2018-04-21T12:54:37.000Z</time>
      </trkpt>
      <trkpt lat="40.79172" lon="-3.963088">
        <ele>2268.2</ele>
        <time>2018-04-21T12:54:38.000Z</time>
      </trkpt>
      <trkpt lat="40.791712" lon="-3.963089">
        <ele>2268.2</ele>
        <time>2018-04-21T12:54:39.000Z</time>
      </trkpt>
      <trkpt lat="40.791703" lon="-3.963089">
        <ele>2268.3</ele>
        <time>2018-04-21T12:54:40.000Z</time>
      </trkpt>
      <trkpt lat="40.791695" lon="-3.963089">
        <ele>2268.3</ele>
        <time>2018-04-21T12:54:41.000Z</time>
      </trkpt>
      <trkpt lat="40.791687" lon="-3.963089">
        <ele>2268.3</ele>
        <time>2018-04-21T12:54:42.000Z</time>
      </trkpt>
      <trkpt lat="40.791679" lon="-3.963089">
        <ele>2268.4</ele>
        <time>2018-04-21T12:54:43.000Z</time>
      </trkpt>
      <trkpt lat="40.791671" lon="-3.96309">
        <ele>2268.4</ele>
        <time>2018-04-21T12:54:44.000Z</time>
      </trkpt>
      <trkpt lat="40.791663" lon="-3.96309">
        <ele>2268.4</ele>
        <time>2018-04-21T12:54:45.000Z</time>
      </trkpt>
      <trkpt lat="40.791655" lon="-3.96309">
        <ele>2268.4</ele>
        <time>2018-04-21T12:54:46.000Z</time>
      </trkpt>
      <trkpt lat="40.791647" lon="-3.96309">
        <ele>2268.4</ele>
        <time>2018-04-21T12:54:47.000Z</time>
      </trkpt>
      <trkpt lat="40.791639" lon="-3.96309">
        <ele>2268.3</ele>
        <time>2018-04-21T12:54:48.000Z</time>
      </trkpt>
      <trkpt lat="40.791631" lon="-3.963091">
        <ele>2268.3</ele>
        <time>2018-04-21T12:54:49.000Z</time>
      </trkpt>
      <trkpt lat="40.791623" lon="-3.963091">
        <ele>2268.3</ele>
        <time>2018-04-21T12:54:50.000Z</time>
      </trkpt>
      <trkpt lat="40.791615" lon="-3.963091">
        <ele>2268.3</ele>
        <time>2018-04-21T12:54:51.000Z</time>
      </trkpt>
      <trkpt lat="40.791606" lon="-3.963091">
        <ele>2268.3</ele>
        <time>2018-04-21T12:54:52.000Z</time>
      </trkpt>
      <trkpt lat="40.791598" lon="-3.963091">
        <ele>2268.2</ele>
        <time>2018-04-21T12:54:53.000Z</time>
      </trkpt>
      <trkpt lat="40.791589" lon="-3.963091">
        <ele>2268.2</ele>
        <time>2018-04-21T12:54:54.000Z</time>
      </trkpt>
      <trkpt lat="40.79158" lon="-3.963091">
        <ele>2268.2</ele>
        <time>2018-04-21T12:54:55.000Z</time>
      </trkpt>
      <trkpt lat="40.791571" lon="-3.963091">
        <ele>2268.2</ele>
        <time>2018-04-21T12:54:56.000Z</time>
      </trkpt>
      <trkpt lat="40.791561" lon="-3.96309">
        <ele>2268.1</ele>
        <time>2018-04-21T12:54:57.000Z</time>
      </trkpt>
      <trkpt lat="40.791552" lon="-3.96309">
        <ele>2268.1</ele>
        <time>2018-04-21T12:54:58.000Z</time>
      </trkpt>
      <trkpt lat="40.791542" lon="-3.96309">
        <ele>2268.1</ele>
        <time>2018-04-21T12:54:59.000Z</time>
      </trkpt>
      <trkpt lat="40.791532" lon="-3.96309">
        <ele>2268.1</ele>
        <time>2018-04-21T12:55:00.000Z</time>
      </trkpt>
      <trkpt lat="40.791523" lon="-3.963089">
        <ele>2268.0</ele>
        <time>2018-04-21T12:55:01.000Z</time>
      </trkpt>
      <trkpt lat="40.791514" lon="-3.96309">
        <ele>2268.0</ele>
        <time>2018-04-21T12:55:02.000Z</time>
      </trkpt>
      <trkpt lat="40.791504" lon="-3.963091">
        <ele>2268.0</ele>
        <time>2018-04-21T12:55:03.000Z</time>
      </trkpt>
      <trkpt lat="40.791495" lon="-3.963092">
        <ele>2268.0</ele>
        <time>2018-04-21T12:55:04.000Z</time>
      </trkpt>
      <trkpt lat="40.791485" lon="-3.963095">
        <ele>2268.0</ele>
        <time>2018-04-21T12:55:05.000Z</time>
      </trkpt>
      <trkpt lat="40.791474" lon="-3.963099">
        <ele>2267.9</ele>
        <time>2018-04-21T12:55:06.000Z</time>
      </trkpt>
      <trkpt lat="40.791464" lon="-3.963104">
        <ele>2267.9</ele>
        <time>2018-04-21T12:55:07.000Z</time>
      </trkpt>
      <trkpt lat="40.791455" lon="-3.963109">
        <ele>2267.9</ele>
        <time>2018-04-21T12:55:08.000Z</time>
      </trkpt>
      <trkpt lat="40.791449" lon="-3.963114">
        <ele>2267.9</ele>
        <time>2018-04-21T12:55:09.000Z</time>
      </trkpt>
      <trkpt lat="40.791446" lon="-3.963118">
        <ele>2267.9</ele>
        <time>2018-04-21T12:55:10.000Z</time>
      </trkpt>
      <trkpt lat="40.791445" lon="-3.96312">
        <ele>2267.9</ele>
        <time>2018-04-21T12:55:11.000Z</time>
      </trkpt>
      <trkpt lat="40.791446" lon="-3.963123">
        <ele>2268.0</ele>
        <time>2018-04-21T12:55:12.000Z</time>
      </trkpt>
      <trkpt lat="40.791446" lon="-3.963125">
        <ele>2268.0</ele>
        <time>2018-04-21T12:55:13.000Z</time>
      </trkpt>
      <trkpt lat="40.791447" lon="-3.963126">
        <ele>2268.0</ele>
        <time>2018-04-21T12:55:14.000Z</time>
      </trkpt>
      <trkpt lat="40.791447" lon="-3.963128">
        <ele>2268.0</ele>
        <time>2018-04-21T12:55:15.000Z</time>
      </trkpt>
      <trkpt lat="40.791447" lon="-3.963129">
        <ele>2268.0</ele>
        <time>2018-04-21T12:55:16.000Z</time>
      </trkpt>
      <trkpt lat="40.791448" lon="-3.96313">
        <ele>2268.0</ele>
        <time>2018-04-21T12:55:17.000Z</time>
      </trkpt>
      <trkpt lat="40.791448" lon="-3.963131">
        <ele>2268.0</ele>
        <time>2018-04-21T12:55:18.000Z</time>
      </trkpt>
      <trkpt lat="40.791448" lon="-3.963132">
        <ele>2268.0</ele>
        <time>2018-04-21T12:55:19.000Z</time>
      </trkpt>
      <trkpt lat="40.791448" lon="-3.963132">
        <ele>2268.0</ele>
        <time>2018-04-21T12:55:20.000Z</time>
      </trkpt>
      <trkpt lat="40.791448" lon="-3.963132">
        <ele>2268.0</ele>
        <time>2018-04-21T12:55:21.000Z</time>
      </trkpt>
      <trkpt lat="40.791448" lon="-3.963133">
        <ele>2268.0</ele>
        <time>2018-04-21T12:55:22.000Z</time>
      </trkpt>
      <trkpt lat="40.791448" lon="-3.963133">
        <ele>2268.0</ele>
        <time>2018-04-21T12:55:23.000Z</time>
      </trkpt>
      <trkpt lat="40.791448" lon="-3.963133">
        <ele>2268.0</ele>
        <time>2018-04-21T12:55:24.000Z</time>
      </trkpt>
      <trkpt lat="40.791448" lon="-3.963133">
        <ele>2268.0</ele>
        <time>2018-04-21T12:55:25.000Z</time>
      </trkpt>
      <trkpt lat="40.791449" lon="-3.963133">
        <ele>2268.0</ele>
        <time>2018-04-21T12:55:26.000Z</time>
      </trkpt>
      <trkpt lat="40.791448" lon="-3.963133">
        <ele>2268.0</ele>
        <time>2018-04-21T12:55:27.000Z</time>
      </trkpt>
      <trkpt lat="40.791448" lon="-3.963133">
        <ele>2268.0</ele>
        <time>2018-04-21T12:55:28.000Z</time>
      </trkpt>
      <trkpt lat="40.791448" lon="-3.963132">
        <ele>2268.0</ele>
        <time>2018-04-21T12:55:29.000Z</time>
      </trkpt>
      <trkpt lat="40.791448" lon="-3.963132">
        <ele>2268.0</ele>
        <time>2018-04-21T12:55:30.000Z</time>
      </trkpt>
      <trkpt lat="40.791448" lon="-3.963132">
        <ele>2268.0</ele>
        <time>2018-04-21T12:55:31.000Z</time>
      </trkpt>
      <trkpt lat="40.791448" lon="-3.963132">
        <ele>2268.0</ele>
        <time>2018-04-21T12:55:32.000Z</time>
      </trkpt>
      <trkpt lat="40.791448" lon="-3.963132">
        <ele>2268.0</ele>
        <time>2018-04-21T12:55:33.000Z</time>
      </trkpt>
      <trkpt lat="40.791448" lon="-3.963132">
        <ele>2268.0</ele>
        <time>2018-04-21T12:55:34.000Z</time>
      </trkpt>
      <trkpt lat="40.791449" lon="-3.963132">
        <ele>2268.0</ele>
        <time>2018-04-21T12:55:35.000Z</time>
      </trkpt>
      <trkpt lat="40.791449" lon="-3.963133">
        <ele>2268.0</ele>
        <time>2018-04-21T12:55:36.000Z</time>
      </trkpt>
      <trkpt lat="40.791449" lon="-3.963133">
        <ele>2268.0</ele>
        <time>2018-04-21T12:55:37.000Z</time>
      </trkpt>
      <trkpt lat="40.791449" lon="-3.963133">
        <ele>2268.0</ele>
        <time>2018-04-21T12:55:38.000Z</time>
      </trkpt>
      <trkpt lat="40.791449" lon="-3.963133">
        <ele>2268.0</ele>
        <time>2018-04-21T12:55:39.000Z</time>
      </trkpt>
      <trkpt lat="40.791449" lon="-3.963133">
        <ele>2268.0</ele>
        <time>2018-04-21T12:55:40.000Z</time>
      </trkpt>
      <trkpt lat="40.791449" lon="-3.963134">
        <ele>2268.0</ele>
        <time>2018-04-21T12:55:41.000Z</time>
      </trkpt>
      <trkpt lat="40.791449" lon="-3.963134">
        <ele>2268.0</ele>
        <time>2018-04-21T12:55:42.000Z</time>
      </trkpt>
      <trkpt lat="40.791449" lon="-3.963135">
        <ele>2268.0</ele>
        <time>2018-04-21T12:55:43.000Z</time>
      </trkpt>
      <trkpt lat="40.791449" lon="-3.963135">
        <ele>2268.0</ele>
        <time>2018-04-21T12:55:44.000Z</time>
      </trkpt>
      <trkpt lat="40.791449" lon="-3.963136">
        <ele>2268.0</ele>
        <time>2018-04-21T12:55:45.000Z</time>
      </trkpt>
      <trkpt lat="40.791449" lon="-3.963136">
        <ele>2268.0</ele>
        <time>2018-04-21T12:55:46.000Z</time>
      </trkpt>
      <trkpt lat="40.791449" lon="-3.963137">
        <ele>2268.0</ele>
        <time>2018-04-21T12:55:47.000Z</time>
      </trkpt>
      <trkpt lat="40.791449" lon="-3.963137">
        <ele>2268.0</ele>
        <time>2018-04-21T12:55:48.000Z</time>
      </trkpt>
      <trkpt lat="40.791449" lon="-3.963138">
        <ele>2268.0</ele>
        <time>2018-04-21T12:55:49.000Z</time>
      </trkpt>
      <trkpt lat="40.791449" lon="-3.963139">
        <ele>2268.0</ele>
        <time>2018-04-21T12:55:50.000Z</time>
      </trkpt>
      <trkpt lat="40.791449" lon="-3.963139">
        <ele>2268.0</ele>
        <time>2018-04-21T12:55:51.000Z</time>
      </trkpt>
      <trkpt lat="40.791449" lon="-3.96314">
        <ele>2268.0</ele>
        <time>2018-04-21T12:55:52.000Z</time>
      </trkpt>
      <trkpt lat="40.791449" lon="-3.96314">
        <ele>2268.0</ele>
        <time>2018-04-21T12:55:53.000Z</time>
      </trkpt>
      <trkpt lat="40.791449" lon="-3.963141">
        <ele>2268.0</ele>
        <time>2018-04-21T12:55:54.000Z</time>
      </trkpt>
      <trkpt lat="40.791449" lon="-3.963141">
        <ele>2268.0</ele>
        <time>2018-04-21T12:55:55.000Z</time>
      </trkpt>
      <trkpt lat="40.791449" lon="-3.963142">
        <ele>2268.0</ele>
        <time>2018-04-21T12:55:56.000Z</time>
      </trkpt>
      <trkpt lat="40.791449" lon="-3.963142">
        <ele>2268.0</ele>
        <time>2018-04-21T12:55:57.000Z</time>
      </trkpt>
      <trkpt lat="40.79145" lon="-3.963143">
        <ele>2268.0</ele>
        <time>2018-04-21T12:55:58.000Z</time>
      </trkpt>
      <trkpt lat="40.79145" lon="-3.963143">
        <ele>2268.0</ele>
        <time>2018-04-21T12:55:59.000Z</time>
      </trkpt>
      <trkpt lat="40.79145" lon="-3.963143">
        <ele>2268.0</ele>
        <time>2018-04-21T12:56:00.000Z</time>
      </trkpt>
      <trkpt lat="40.79145" lon="-3.963143">
        <ele>2268.0</ele>
        <time>2018-04-21T12:56:01.000Z</time>
      </trkpt>
      <trkpt lat="40.79145" lon="-3.963143">
        <ele>2268.0</ele>
        <time>2018-04-21T12:56:02.000Z</time>
      </trkpt>
      <trkpt lat="40.79145" lon="-3.963143">
        <ele>2268.0</ele>
        <time>2018-04-21T12:56:03.000Z</time>
      </trkpt>
      <trkpt lat="40.79145" lon="-3.963144">
        <ele>2268.0</ele>
        <time>2018-04-21T12:56:04.000Z</time>
      </trkpt>
      <trkpt lat="40.79145" lon="-3.963144">
        <ele>2268.0</ele>
        <time>2018-04-21T12:56:05.000Z</time>
      </trkpt>
      <trkpt lat="40.79145" lon="-3.963144">
        <ele>2268.0</ele>
        <time>2018-04-21T12:56:06.000Z</time>
      </trkpt>
      <trkpt lat="40.79145" lon="-3.963144">
        <ele>2268.0</ele>
        <time>2018-04-21T12:56:07.000Z</time>
      </trkpt>
      <trkpt lat="40.79145" lon="-3.963144">
        <ele>2268.0</ele>
        <time>2018-04-21T12:56:08.000Z</time>
      </trkpt>
      <trkpt lat="40.79145" lon="-3.963144">
        <ele>2268.0</ele>
        <time>2018-04-21T12:56:09.000Z</time>
      </trkpt>
      <trkpt lat="40.79145" lon="-3.963144">
        <ele>2268.0</ele>
        <time>2018-04-21T12:56:10.000Z</time>
      </trkpt>
      <trkpt lat="40.79145" lon="-3.963144">
        <ele>2268.0</ele>
        <time>2018-04-21T12:56:11.000Z</time>
      </trkpt>
      <trkpt lat="40.79145" lon="-3.963144">
        <ele>2268.0</ele>
        <time>2018-04-21T12:56:12.000Z</time>
      </trkpt>
      <trkpt lat="40.79145" lon="-3.963144">
        <ele>2268.0</ele>
        <time>2018-04-21T12:56:13.000Z</time>
      </trkpt>
      <trkpt lat="40.79145" lon="-3.963144">
        <ele>2268.0</ele>
        <time>2018-04-21T12:56:14.000Z</time>
      </trkpt>
      <trkpt lat="40.79145" lon="-3.963144">
        <ele>2268.0</ele>
        <time>2018-04-21T12:56:15.000Z</time>
      </trkpt>
      <trkpt lat="40.79145" lon="-3.963144">
        <ele>2268.0</ele>
        <time>2018-04-21T12:56:16.000Z</time>
      </trkpt>
      <trkpt lat="40.79145" lon="-3.963144">
        <ele>2268.0</ele>
        <time>2018-04-21T12:56:17.000Z</time>
      </trkpt>
      <trkpt lat="40.79145" lon="-3.963144">
        <ele>2268.0</ele>
        <time>2018-04-21T12:56:18.000Z</time>
      </trkpt>
      <trkpt lat="40.79145" lon="-3.963144">
        <ele>2268.0</ele>
        <time>2018-04-21T12:56:19.000Z</time>
      </trkpt>
      <trkpt lat="40.79145" lon="-3.963144">
        <ele>2268.0</ele>
        <time>2018-04-21T12:56:20.000Z</time>
      </trkpt>
      <trkpt lat="40.79145" lon="-3.963144">
        <ele>2268.0</ele>
        <time>2018-04-21T12:56:21.000Z</time>
      </trkpt>
      <trkpt lat="40.79145" lon="-3.963144">
        <ele>2268.0</ele>
        <time>2018-04-21T12:56:22.000Z</time>
      </trkpt>
      <trkpt lat="40.79145" lon="-3.963144">
        <ele>2268.0</ele>
        <time>2018-04-21T12:56:23.000Z</time>
      </trkpt>
      <trkpt lat="40.79145" lon="-3.963144">
        <ele>2268.0</ele>
        <time>2018-04-21T12:56:24.000Z</time>
      </trkpt>
      <trkpt lat="40.79145" lon="-3.963144">
        <ele>2268.0</ele>
        <time>2018-04-21T12:56:25.000Z</time>
      </trkpt>
      <trkpt lat="40.79145" lon="-3.963144">
        <ele>2268.0</ele>
        <time>2018-04-21T12:56:26.000Z</time>
      </trkpt>
      <trkpt lat="40.79145" lon="-3.963144">
        <ele>2268.0</ele>
        <time>2018-04-21T12:56:27.000Z</time>
      </trkpt>
      <trkpt lat="40.79145" lon="-3.963144">
        <ele>2268.0</ele>
        <time>2018-04-21T12:56:28.000Z</time>
      </trkpt>
      <trkpt lat="40.79145" lon="-3.963144">
        <ele>2268.0</ele>
        <time>2018-04-21T12:56:29.000Z</time>
      </trkpt>
      <trkpt lat="40.79145" lon="-3.963144">
        <ele>2268.0</ele>
        <time>2018-04-21T12:56:30.000Z</time>
      </trkpt>
      <trkpt lat="40.79145" lon="-3.963144">
        <ele>2268.0</ele>
        <time>2018-04-21T12:56:31.000Z</time>
      </trkpt>
      <trkpt lat="40.79145" lon="-3.963144">
        <ele>2268.0</ele>
        <time>2018-04-21T12:56:32.000Z</time>
      </trkpt>
      <trkpt lat="40.79145" lon="-3.963144">
        <ele>2268.0</ele>
        <time>2018-04-21T12:56:33.000Z</time>
      </trkpt>
      <trkpt lat="40.79145" lon="-3.963144">
        <ele>2268.0</ele>
        <time>2018-04-21T12:56:34.000Z</time>
      </trkpt>
      <trkpt lat="40.79145" lon="-3.963144">
        <ele>2268.0</ele>
        <time>2018-04-21T12:56:35.000Z</time>
      </trkpt>
      <trkpt lat="40.79145" lon="-3.963143">
        <ele>2268.0</ele>
        <time>2018-04-21T12:56:36.000Z</time>
      </trkpt>
      <trkpt lat="40.79145" lon="-3.963143">
        <ele>2268.0</ele>
        <time>2018-04-21T12:56:37.000Z</time>
      </trkpt>
      <trkpt lat="40.79145" lon="-3.963143">
        <ele>2268.0</ele>
        <time>2018-04-21T12:56:38.000Z</time>
      </trkpt>
      <trkpt lat="40.79145" lon="-3.963143">
        <ele>2268.0</ele>
        <time>2018-04-21T12:56:39.000Z</time>
      </trkpt>
      <trkpt lat="40.79145" lon="-3.963143">
        <ele>2268.0</ele>
        <time>2018-04-21T12:56:40.000Z</time>
      </trkpt>
      <trkpt lat="40.79145" lon="-3.963143">
        <ele>2268.0</ele>
        <time>2018-04-21T12:56:41.000Z</time>
      </trkpt>
      <trkpt lat="40.79145" lon="-3.963143">
        <ele>2268.0</ele>
        <time>2018-04-21T12:56:42.000Z</time>
      </trkpt>
      <trkpt lat="40.79145" lon="-3.963143">
        <ele>2268.0</ele>
        <time>2018-04-21T12:56:43.000Z</time>
      </trkpt>
      <trkpt lat="40.79145" lon="-3.963143">
        <ele>2268.0</ele>
        <time>2018-04-21T12:56:44.000Z</time>
      </trkpt>
      <trkpt lat="40.79145" lon="-3.963143">
        <ele>2268.0</ele>
        <time>2018-04-21T12:56:45.000Z</time>
      </trkpt>
      <trkpt lat="40.79145" lon="-3.963143">
        <ele>2268.0</ele>
        <time>2018-04-21T12:56:46.000Z</time>
      </trkpt>
      <trkpt lat="40.79145" lon="-3.963143">
        <ele>2268.0</ele>
        <time>2018-04-21T12:56:47.000Z</time>
      </trkpt>
      <trkpt lat="40.79145" lon="-3.963143">
        <ele>2268.0</ele>
        <time>2018-04-21T12:56:48.000Z</time>
      </trkpt>
      <trkpt lat="40.79145" lon="-3.963143">
        <ele>2268.0</ele>
        <time>2018-04-21T12:56:49.000Z</time>
      </trkpt>
      <trkpt lat="40.79145" lon="-3.963143">
        <ele>2268.0</ele>
        <time>2018-04-21T12:56:50.000Z</time>
      </trkpt>
      <trkpt lat="40.79145" lon="-3.963143">
        <ele>2268.0</ele>
        <time>2018-04-21T12:56:51.000Z</time>
      </trkpt>
      <trkpt lat="40.79145" lon="-3.963143">
        <ele>2268.0</ele>
        <time>2018-04-21T12:56:52.000Z</time>
      </trkpt>
      <trkpt lat="40.79145" lon="-3.963143">
        <ele>2268.0</ele>
        <time>2018-04-21T12:56:53.000Z</time>
      </trkpt>
      <trkpt lat="40.79145" lon="-3.963143">
        <ele>2268.0</ele>
        <time>2018-04-21T12:56:54.000Z</time>
      </trkpt>
      <trkpt lat="40.79145" lon="-3.963143">
        <ele>2268.0</ele>
        <time>2018-04-21T12:56:55.000Z</time>
      </trkpt>
      <trkpt lat="40.79145" lon="-3.963143">
        <ele>2268.0</ele>
        <time>2018-04-21T12:56:56.000Z</time>
      </trkpt>
      <trkpt lat="40.79145" lon="-3.963143">
        <ele>2268.0</ele>
        <time>2018-04-21T12:56:57.000Z</time>
      </trkpt>
      <trkpt lat="40.79145" lon="-3.963143">
        <ele>2268.0</ele>
        <time>2018-04-21T12:56:58.000Z</time>
      </trkpt>
      <trkpt lat="40.79145" lon="-3.963143">
        <ele>2268.0</ele>
        <time>2018-04-21T12:56:59.000Z</time>
      </trkpt>
      <trkpt lat="40.79145" lon="-3.963143">
        <ele>2268.0</ele>
        <time>2018-04-21T12:57:00.000Z</time>
      </trkpt>
      <trkpt lat="40.79145" lon="-3.963143">
        <ele>2268.0</ele>
        <time>2018-04-21T12:57:01.000Z</time>
      </trkpt>
      <trkpt lat="40.79145" lon="-3.963143">
        <ele>2268.0</ele>
        <time>2018-04-21T12:57:02.000Z</time>
      </trkpt>
      <trkpt lat="40.79145" lon="-3.963143">
        <ele>2268.0</ele>
        <time>2018-04-21T12:57:03.000Z</time>
      </trkpt>
      <trkpt lat="40.79145" lon="-3.963143">
        <ele>2268.0</ele>
        <time>2018-04-21T12:57:04.000Z</time>
      </trkpt>
      <trkpt lat="40.79145" lon="-3.963143">
        <ele>2268.0</ele>
        <time>2018-04-21T12:57:05.000Z</time>
      </trkpt>
      <trkpt lat="40.79145" lon="-3.963143">
        <ele>2268.0</ele>
        <time>2018-04-21T12:57:06.000Z</time>
      </trkpt>
      <trkpt lat="40.791449" lon="-3.963143">
        <ele>2268.0</ele>
        <time>2018-04-21T12:57:07.000Z</time>
      </trkpt>
      <trkpt lat="40.791449" lon="-3.963143">
        <ele>2268.0</ele>
        <time>2018-04-21T12:57:08.000Z</time>
      </trkpt>
      <trkpt lat="40.791449" lon="-3.963143">
        <ele>2268.0</ele>
        <time>2018-04-21T12:57:09.000Z</time>
      </trkpt>
      <trkpt lat="40.791448" lon="-3.963143">
        <ele>2268.0</ele>
        <time>2018-04-21T12:57:10.000Z</time>
      </trkpt>
      <trkpt lat="40.791448" lon="-3.963142">
        <ele>2268.0</ele>
        <time>2018-04-21T12:57:11.000Z</time>
      </trkpt>
      <trkpt lat="40.791447" lon="-3.963142">
        <ele>2268.0</ele>
        <time>2018-04-21T12:57:12.000Z</time>
      </trkpt>
      <trkpt lat="40.791446" lon="-3.963142">
        <ele>2268.0</ele>
        <time>2018-04-21T12:57:13.000Z</time>
      </trkpt>
      <trkpt lat="40.791446" lon="-3.963141">
        <ele>2268.0</ele>
        <time>2018-04-21T12:57:14.000Z</time>
      </trkpt>
      <trkpt lat="40.791445" lon="-3.963141">
        <ele>2268.0</ele>
        <time>2018-04-21T12:57:15.000Z</time>
      </trkpt>
      <trkpt lat="40.791444" lon="-3.96314">
        <ele>2268.0</ele>
        <time>2018-04-21T12:57:16.000Z</time>
      </trkpt>
      <trkpt lat="40.791444" lon="-3.96314">
        <ele>2268.0</ele>
        <time>2018-04-21T12:57:17.000Z</time>
      </trkpt>
      <trkpt lat="40.791444" lon="-3.96314">
        <ele>2268.0</ele>
        <time>2018-04-21T12:57:18.000Z</time>
      </trkpt>
      <trkpt lat="40.791443" lon="-3.96314">
        <ele>2268.0</ele>
        <time>2018-04-21T12:57:19.000Z</time>
      </trkpt>
      <trkpt lat="40.791443" lon="-3.96314">
        <ele>2268.0</ele>
        <time>2018-04-21T12:57:20.000Z</time>
      </trkpt>
      <trkpt lat="40.791443" lon="-3.963139">
        <ele>2268.0</ele>
        <time>2018-04-21T12:57:21.000Z</time>
      </trkpt>
      <trkpt lat="40.791443" lon="-3.963139">
        <ele>2268.0</ele>
        <time>2018-04-21T12:57:22.000Z</time>
      </trkpt>
      <trkpt lat="40.791443" lon="-3.963139">
        <ele>2268.0</ele>
        <time>2018-04-21T12:57:23.000Z</time>
      </trkpt>
      <trkpt lat="40.791443" lon="-3.963139">
        <ele>2268.0</ele>
        <time>2018-04-21T12:57:24.000Z</time>
      </trkpt>
      <trkpt lat="40.791443" lon="-3.963139">
        <ele>2268.0</ele>
        <time>2018-04-21T12:57:25.000Z</time>
      </trkpt>
      <trkpt lat="40.791443" lon="-3.963139">
        <ele>2268.0</ele>
        <time>2018-04-21T12:57:26.000Z</time>
      </trkpt>
      <trkpt lat="40.791443" lon="-3.963139">
        <ele>2268.0</ele>
        <time>2018-04-21T12:57:27.000Z</time>
      </trkpt>
      <trkpt lat="40.791443" lon="-3.963139">
        <ele>2268.0</ele>
        <time>2018-04-21T12:57:28.000Z</time>
      </trkpt>
      <trkpt lat="40.791443" lon="-3.963139">
        <ele>2268.0</ele>
        <time>2018-04-21T12:57:29.000Z</time>
      </trkpt>
      <trkpt lat="40.791443" lon="-3.963139">
        <ele>2268.0</ele>
        <time>2018-04-21T12:57:30.000Z</time>
      </trkpt>
      <trkpt lat="40.791443" lon="-3.963139">
        <ele>2268.0</ele>
        <time>2018-04-21T12:57:31.000Z</time>
      </trkpt>
      <trkpt lat="40.791443" lon="-3.963139">
        <ele>2268.0</ele>
        <time>2018-04-21T12:57:32.000Z</time>
      </trkpt>
      <trkpt lat="40.791443" lon="-3.963139">
        <ele>2268.0</ele>
        <time>2018-04-21T12:57:33.000Z</time>
      </trkpt>
      <trkpt lat="40.791443" lon="-3.963139">
        <ele>2268.0</ele>
        <time>2018-04-21T12:57:34.000Z</time>
      </trkpt>
      <trkpt lat="40.791443" lon="-3.963139">
        <ele>2268.0</ele>
        <time>2018-04-21T12:57:35.000Z</time>
      </trkpt>
      <trkpt lat="40.791443" lon="-3.963139">
        <ele>2268.0</ele>
        <time>2018-04-21T12:57:36.000Z</time>
      </trkpt>
      <trkpt lat="40.791443" lon="-3.963139">
        <ele>2268.0</ele>
        <time>2018-04-21T12:57:37.000Z</time>
      </trkpt>
      <trkpt lat="40.791443" lon="-3.963138">
        <ele>2268.0</ele>
        <time>2018-04-21T12:57:38.000Z</time>
      </trkpt>
      <trkpt lat="40.791443" lon="-3.963138">
        <ele>2268.0</ele>
        <time>2018-04-21T12:57:39.000Z</time>
      </trkpt>
      <trkpt lat="40.791444" lon="-3.963138">
        <ele>2268.0</ele>
        <time>2018-04-21T12:57:40.000Z</time>
      </trkpt>
      <trkpt lat="40.791444" lon="-3.963137">
        <ele>2268.0</ele>
        <time>2018-04-21T12:57:41.000Z</time>
      </trkpt>
      <trkpt lat="40.791444" lon="-3.963137">
        <ele>2268.0</ele>
        <time>2018-04-21T12:57:42.000Z</time>
      </trkpt>
      <trkpt lat="40.791444" lon="-3.963136">
        <ele>2268.0</ele>
        <time>2018-04-21T12:57:43.000Z</time>
      </trkpt>
      <trkpt lat="40.791445" lon="-3.963136">
        <ele>2268.0</ele>
        <time>2018-04-21T12:57:44.000Z</time>
      </trkpt>
      <trkpt lat="40.791445" lon="-3.963136">
        <ele>2268.0</ele>
        <time>2018-04-21T12:57:45.000Z</time>
      </trkpt>
      <trkpt lat="40.791445" lon="-3.963135">
        <ele>2268.0</ele>
        <time>2018-04-21T12:57:46.000Z</time>
      </trkpt>
      <trkpt lat="40.791445" lon="-3.963135">
        <ele>2268.0</ele>
        <time>2018-04-21T12:57:47.000Z</time>
      </trkpt>
      <trkpt lat="40.791446" lon="-3.963134">
        <ele>2268.0</ele>
        <time>2018-04-21T12:57:48.000Z</time>
      </trkpt>
      <trkpt lat="40.791446" lon="-3.963134">
        <ele>2268.0</ele>
        <time>2018-04-21T12:57:49.000Z</time>
      </trkpt>
      <trkpt lat="40.791446" lon="-3.963134">
        <ele>2268.0</ele>
        <time>2018-04-21T12:57:50.000Z</time>
      </trkpt>
      <trkpt lat="40.791446" lon="-3.963133">
        <ele>2268.0</ele>
        <time>2018-04-21T12:57:51.000Z</time>
      </trkpt>
      <trkpt lat="40.791446" lon="-3.963133">
        <ele>2268.0</ele>
        <time>2018-04-21T12:57:52.000Z</time>
      </trkpt>
      <trkpt lat="40.791446" lon="-3.963133">
        <ele>2268.0</ele>
        <time>2018-04-21T12:57:53.000Z</time>
      </trkpt>
      <trkpt lat="40.791447" lon="-3.963133">
        <ele>2268.0</ele>
        <time>2018-04-21T12:57:54.000Z</time>
      </trkpt>
      <trkpt lat="40.791447" lon="-3.963132">
        <ele>2268.0</ele>
        <time>2018-04-21T12:57:55.000Z</time>
      </trkpt>
      <trkpt lat="40.791447" lon="-3.963132">
        <ele>2268.0</ele>
        <time>2018-04-21T12:57:56.000Z</time>
      </trkpt>
      <trkpt lat="40.791447" lon="-3.963132">
        <ele>2268.0</ele>
        <time>2018-04-21T12:57:57.000Z</time>
      </trkpt>
      <trkpt lat="40.791447" lon="-3.963132">
        <ele>2268.0</ele>
        <time>2018-04-21T12:57:58.000Z</time>
      </trkpt>
      <trkpt lat="40.791447" lon="-3.963132">
        <ele>2268.0</ele>
        <time>2018-04-21T12:57:59.000Z</time>
      </trkpt>
      <trkpt lat="40.791447" lon="-3.963132">
        <ele>2268.0</ele>
        <time>2018-04-21T12:58:00.000Z</time>
      </trkpt>
      <trkpt lat="40.791447" lon="-3.963132">
        <ele>2268.0</ele>
        <time>2018-04-21T12:58:01.000Z</time>
      </trkpt>
      <trkpt lat="40.791447" lon="-3.963132">
        <ele>2268.0</ele>
        <time>2018-04-21T12:58:02.000Z</time>
      </trkpt>
      <trkpt lat="40.791447" lon="-3.963132">
        <ele>2268.0</ele>
        <time>2018-04-21T12:58:03.000Z</time>
      </trkpt>
      <trkpt lat="40.791447" lon="-3.963132">
        <ele>2268.0</ele>
        <time>2018-04-21T12:58:04.000Z</time>
      </trkpt>
      <trkpt lat="40.791447" lon="-3.963132">
        <ele>2268.0</ele>
        <time>2018-04-21T12:58:05.000Z</time>
      </trkpt>
      <trkpt lat="40.791447" lon="-3.963132">
        <ele>2268.0</ele>
        <time>2018-04-21T12:58:06.000Z</time>
      </trkpt>
      <trkpt lat="40.791447" lon="-3.963132">
        <ele>2268.0</ele>
        <time>2018-04-21T12:58:07.000Z</time>
      </trkpt>
      <trkpt lat="40.791447" lon="-3.963132">
        <ele>2268.0</ele>
        <time>2018-04-21T12:58:08.000Z</time>
      </trkpt>
      <trkpt lat="40.791447" lon="-3.963132">
        <ele>2268.0</ele>
        <time>2018-04-21T12:58:09.000Z</time>
      </trkpt>
      <trkpt lat="40.791447" lon="-3.963131">
        <ele>2268.0</ele>
        <time>2018-04-21T12:58:10.000Z</time>
      </trkpt>
      <trkpt lat="40.791447" lon="-3.963131">
        <ele>2268.0</ele>
        <time>2018-04-21T12:58:11.000Z</time>
      </trkpt>
      <trkpt lat="40.791447" lon="-3.963131">
        <ele>2268.0</ele>
        <time>2018-04-21T12:58:12.000Z</time>
      </trkpt>
      <trkpt lat="40.791447" lon="-3.963131">
        <ele>2268.0</ele>
        <time>2018-04-21T12:58:13.000Z</time>
      </trkpt>
      <trkpt lat="40.791447" lon="-3.963132">
        <ele>2268.0</ele>
        <time>2018-04-21T12:58:14.000Z</time>
      </trkpt>
      <trkpt lat="40.791447" lon="-3.963132">
        <ele>2268.0</ele>
        <time>2018-04-21T12:58:15.000Z</time>
      </trkpt>
      <trkpt lat="40.791446" lon="-3.963133">
        <ele>2268.0</ele>
        <time>2018-04-21T12:58:16.000Z</time>
      </trkpt>
      <trkpt lat="40.791446" lon="-3.963134">
        <ele>2268.0</ele>
        <time>2018-04-21T12:58:17.000Z</time>
      </trkpt>
      <trkpt lat="40.791445" lon="-3.963135">
        <ele>2268.0</ele>
        <time>2018-04-21T12:58:18.000Z</time>
      </trkpt>
      <trkpt lat="40.791444" lon="-3.963136">
        <ele>2268.0</ele>
        <time>2018-04-21T12:58:19.000Z</time>
      </trkpt>
      <trkpt lat="40.791444" lon="-3.963137">
        <ele>2268.0</ele>
        <time>2018-04-21T12:58:20.000Z</time>
      </trkpt>
      <trkpt lat="40.791443" lon="-3.963138">
        <ele>2268.0</ele>
        <time>2018-04-21T12:58:21.000Z</time>
      </trkpt>
      <trkpt lat="40.791443" lon="-3.963139">
        <ele>2268.0</ele>
        <time>2018-04-21T12:58:22.000Z</time>
      </trkpt>
      <trkpt lat="40.791442" lon="-3.96314">
        <ele>2268.0</ele>
        <time>2018-04-21T12:58:23.000Z</time>
      </trkpt>
      <trkpt lat="40.791442" lon="-3.96314">
        <ele>2268.0</ele>
        <time>2018-04-21T12:58:24.000Z</time>
      </trkpt>
      <trkpt lat="40.791442" lon="-3.96314">
        <ele>2268.0</ele>
        <time>2018-04-21T12:58:25.000Z</time>
      </trkpt>
      <trkpt lat="40.791442" lon="-3.963141">
        <ele>2268.0</ele>
        <time>2018-04-21T12:58:26.000Z</time>
      </trkpt>
      <trkpt lat="40.791442" lon="-3.963141">
        <ele>2268.0</ele>
        <time>2018-04-21T12:58:27.000Z</time>
      </trkpt>
      <trkpt lat="40.791442" lon="-3.963141">
        <ele>2268.0</ele>
        <time>2018-04-21T12:58:28.000Z</time>
      </trkpt>
      <trkpt lat="40.791442" lon="-3.963141">
        <ele>2268.0</ele>
        <time>2018-04-21T12:58:29.000Z</time>
      </trkpt>
      <trkpt lat="40.791442" lon="-3.963141">
        <ele>2268.0</ele>
        <time>2018-04-21T12:58:30.000Z</time>
      </trkpt>
      <trkpt lat="40.791442" lon="-3.963141">
        <ele>2268.0</ele>
        <time>2018-04-21T12:58:31.000Z</time>
      </trkpt>
      <trkpt lat="40.791442" lon="-3.963141">
        <ele>2268.0</ele>
        <time>2018-04-21T12:58:32.000Z</time>
      </trkpt>
      <trkpt lat="40.791442" lon="-3.963141">
        <ele>2268.0</ele>
        <time>2018-04-21T12:58:33.000Z</time>
      </trkpt>
      <trkpt lat="40.791442" lon="-3.963141">
        <ele>2268.0</ele>
        <time>2018-04-21T12:58:34.000Z</time>
      </trkpt>
      <trkpt lat="40.791443" lon="-3.963142">
        <ele>2268.0</ele>
        <time>2018-04-21T12:58:35.000Z</time>
      </trkpt>
      <trkpt lat="40.791443" lon="-3.963142">
        <ele>2268.0</ele>
        <time>2018-04-21T12:58:36.000Z</time>
      </trkpt>
      <trkpt lat="40.791444" lon="-3.963143">
        <ele>2268.0</ele>
        <time>2018-04-21T12:58:37.000Z</time>
      </trkpt>
      <trkpt lat="40.791446" lon="-3.963144">
        <ele>2268.0</ele>
        <time>2018-04-21T12:58:38.000Z</time>
      </trkpt>
      <trkpt lat="40.791447" lon="-3.963145">
        <ele>2268.0</ele>
        <time>2018-04-21T12:58:39.000Z</time>
      </trkpt>
      <trkpt lat="40.791448" lon="-3.963146">
        <ele>2268.1</ele>
        <time>2018-04-21T12:58:40.000Z</time>
      </trkpt>
      <trkpt lat="40.791449" lon="-3.963146">
        <ele>2268.1</ele>
        <time>2018-04-21T12:58:41.000Z</time>
      </trkpt>
      <trkpt lat="40.791451" lon="-3.963147">
        <ele>2268.1</ele>
        <time>2018-04-21T12:58:42.000Z</time>
      </trkpt>
      <trkpt lat="40.791452" lon="-3.963148">
        <ele>2268.1</ele>
        <time>2018-04-21T12:58:43.000Z</time>
      </trkpt>
      <trkpt lat="40.791453" lon="-3.963149">
        <ele>2268.1</ele>
        <time>2018-04-21T12:58:44.000Z</time>
      </trkpt>
      <trkpt lat="40.791453" lon="-3.963149">
        <ele>2268.1</ele>
        <time>2018-04-21T12:58:45.000Z</time>
      </trkpt>
      <trkpt lat="40.791454" lon="-3.963149">
        <ele>2268.1</ele>
        <time>2018-04-21T12:58:46.000Z</time>
      </trkpt>
      <trkpt lat="40.791454" lon="-3.96315">
        <ele>2268.1</ele>
        <time>2018-04-21T12:58:47.000Z</time>
      </trkpt>
      <trkpt lat="40.791454" lon="-3.96315">
        <ele>2268.1</ele>
        <time>2018-04-21T12:58:48.000Z</time>
      </trkpt>
      <trkpt lat="40.791454" lon="-3.96315">
        <ele>2268.1</ele>
        <time>2018-04-21T12:58:49.000Z</time>
      </trkpt>
      <trkpt lat="40.791454" lon="-3.96315">
        <ele>2268.1</ele>
        <time>2018-04-21T12:58:50.000Z</time>
      </trkpt>
      <trkpt lat="40.791454" lon="-3.96315">
        <ele>2268.1</ele>
        <time>2018-04-21T12:58:51.000Z</time>
      </trkpt>
      <trkpt lat="40.791454" lon="-3.96315">
        <ele>2268.1</ele>
        <time>2018-04-21T12:58:52.000Z</time>
      </trkpt>
      <trkpt lat="40.791454" lon="-3.96315">
        <ele>2268.1</ele>
        <time>2018-04-21T12:58:53.000Z</time>
      </trkpt>
      <trkpt lat="40.791454" lon="-3.963149">
        <ele>2268.1</ele>
        <time>2018-04-21T12:58:54.000Z</time>
      </trkpt>
      <trkpt lat="40.791454" lon="-3.963149">
        <ele>2268.1</ele>
        <time>2018-04-21T12:58:55.000Z</time>
      </trkpt>
      <trkpt lat="40.791454" lon="-3.963149">
        <ele>2268.1</ele>
        <time>2018-04-21T12:58:56.000Z</time>
      </trkpt>
      <trkpt lat="40.791454" lon="-3.963149">
        <ele>2268.1</ele>
        <time>2018-04-21T12:58:57.000Z</time>
      </trkpt>
      <trkpt lat="40.791454" lon="-3.963149">
        <ele>2268.1</ele>
        <time>2018-04-21T12:58:58.000Z</time>
      </trkpt>
      <trkpt lat="40.791454" lon="-3.963149">
        <ele>2268.1</ele>
        <time>2018-04-21T12:58:59.000Z</time>
      </trkpt>
      <trkpt lat="40.791454" lon="-3.963149">
        <ele>2268.1</ele>
        <time>2018-04-21T12:59:00.000Z</time>
      </trkpt>
      <trkpt lat="40.791454" lon="-3.963149">
        <ele>2268.1</ele>
        <time>2018-04-21T12:59:01.000Z</time>
      </trkpt>
      <trkpt lat="40.791454" lon="-3.963149">
        <ele>2268.1</ele>
        <time>2018-04-21T12:59:02.000Z</time>
      </trkpt>
      <trkpt lat="40.791454" lon="-3.963149">
        <ele>2268.1</ele>
        <time>2018-04-21T12:59:03.000Z</time>
      </trkpt>
      <trkpt lat="40.791454" lon="-3.963149">
        <ele>2268.1</ele>
        <time>2018-04-21T12:59:04.000Z</time>
      </trkpt>
      <trkpt lat="40.791454" lon="-3.963149">
        <ele>2268.1</ele>
        <time>2018-04-21T12:59:05.000Z</time>
      </trkpt>
      <trkpt lat="40.791454" lon="-3.963149">
        <ele>2268.1</ele>
        <time>2018-04-21T12:59:06.000Z</time>
      </trkpt>
      <trkpt lat="40.791454" lon="-3.963149">
        <ele>2268.1</ele>
        <time>2018-04-21T12:59:07.000Z</time>
      </trkpt>
      <trkpt lat="40.791454" lon="-3.963149">
        <ele>2268.1</ele>
        <time>2018-04-21T12:59:08.000Z</time>
      </trkpt>
      <trkpt lat="40.791454" lon="-3.963149">
        <ele>2268.1</ele>
        <time>2018-04-21T12:59:09.000Z</time>
      </trkpt>
      <trkpt lat="40.791454" lon="-3.963149">
        <ele>2268.1</ele>
        <time>2018-04-21T12:59:10.000Z</time>
      </trkpt>
      <trkpt lat="40.791454" lon="-3.963149">
        <ele>2268.1</ele>
        <time>2018-04-21T12:59:11.000Z</time>
      </trkpt>
      <trkpt lat="40.791454" lon="-3.963149">
        <ele>2268.1</ele>
        <time>2018-04-21T12:59:12.000Z</time>
      </trkpt>
      <trkpt lat="40.791454" lon="-3.963149">
        <ele>2268.1</ele>
        <time>2018-04-21T12:59:13.000Z</time>
      </trkpt>
      <trkpt lat="40.791454" lon="-3.963149">
        <ele>2268.1</ele>
        <time>2018-04-21T12:59:14.000Z</time>
      </trkpt>
      <trkpt lat="40.791454" lon="-3.963149">
        <ele>2268.1</ele>
        <time>2018-04-21T12:59:15.000Z</time>
      </trkpt>
      <trkpt lat="40.791454" lon="-3.963149">
        <ele>2268.1</ele>
        <time>2018-04-21T12:59:16.000Z</time>
      </trkpt>
      <trkpt lat="40.791454" lon="-3.963149">
        <ele>2268.1</ele>
        <time>2018-04-21T12:59:17.000Z</time>
      </trkpt>
      <trkpt lat="40.791454" lon="-3.963149">
        <ele>2268.1</ele>
        <time>2018-04-21T12:59:18.000Z</time>
      </trkpt>
      <trkpt lat="40.791454" lon="-3.963149">
        <ele>2268.1</ele>
        <time>2018-04-21T12:59:19.000Z</time>
      </trkpt>
      <trkpt lat="40.791454" lon="-3.963149">
        <ele>2268.1</ele>
        <time>2018-04-21T12:59:20.000Z</time>
      </trkpt>
      <trkpt lat="40.791454" lon="-3.963149">
        <ele>2268.1</ele>
        <time>2018-04-21T12:59:21.000Z</time>
      </trkpt>
      <trkpt lat="40.791454" lon="-3.963149">
        <ele>2268.1</ele>
        <time>2018-04-21T12:59:22.000Z</time>
      </trkpt>
      <trkpt lat="40.791454" lon="-3.963149">
        <ele>2268.1</ele>
        <time>2018-04-21T12:59:23.000Z</time>
      </trkpt>
      <trkpt lat="40.791454" lon="-3.963149">
        <ele>2268.1</ele>
        <time>2018-04-21T12:59:24.000Z</time>
      </trkpt>
      <trkpt lat="40.791454" lon="-3.963149">
        <ele>2268.1</ele>
        <time>2018-04-21T12:59:25.000Z</time>
      </trkpt>
      <trkpt lat="40.791454" lon="-3.963149">
        <ele>2268.1</ele>
        <time>2018-04-21T12:59:26.000Z</time>
      </trkpt>
      <trkpt lat="40.791454" lon="-3.963149">
        <ele>2268.1</ele>
        <time>2018-04-21T12:59:27.000Z</time>
      </trkpt>
      <trkpt lat="40.791454" lon="-3.963149">
        <ele>2268.1</ele>
        <time>2018-04-21T12:59:28.000Z</time>
      </trkpt>
      <trkpt lat="40.791454" lon="-3.963149">
        <ele>2268.1</ele>
        <time>2018-04-21T12:59:29.000Z</time>
      </trkpt>
      <trkpt lat="40.791454" lon="-3.963149">
        <ele>2268.1</ele>
        <time>2018-04-21T12:59:30.000Z</time>
      </trkpt>
      <trkpt lat="40.791454" lon="-3.963149">
        <ele>2268.1</ele>
        <time>2018-04-21T12:59:31.000Z</time>
      </trkpt>
      <trkpt lat="40.791454" lon="-3.963149">
        <ele>2268.1</ele>
        <time>2018-04-21T12:59:32.000Z</time>
      </trkpt>
      <trkpt lat="40.791454" lon="-3.963149">
        <ele>2268.1</ele>
        <time>2018-04-21T12:59:33.000Z</time>
      </trkpt>
      <trkpt lat="40.791454" lon="-3.963149">
        <ele>2268.1</ele>
        <time>2018-04-21T12:59:34.000Z</time>
      </trkpt>
      <trkpt lat="40.791454" lon="-3.963149">
        <ele>2268.1</ele>
        <time>2018-04-21T12:59:35.000Z</time>
      </trkpt>
      <trkpt lat="40.791454" lon="-3.963149">
        <ele>2268.1</ele>
        <time>2018-04-21T12:59:36.000Z</time>
      </trkpt>
      <trkpt lat="40.791454" lon="-3.963149">
        <ele>2268.1</ele>
        <time>2018-04-21T12:59:37.000Z</time>
      </trkpt>
      <trkpt lat="40.791454" lon="-3.963149">
        <ele>2268.1</ele>
        <time>2018-04-21T12:59:38.000Z</time>
      </trkpt>
      <trkpt lat="40.791454" lon="-3.963149">
        <ele>2268.1</ele>
        <time>2018-04-21T12:59:39.000Z</time>
      </trkpt>
      <trkpt lat="40.791454" lon="-3.96315">
        <ele>2268.1</ele>
        <time>2018-04-21T12:59:40.000Z</time>
      </trkpt>
      <trkpt lat="40.791454" lon="-3.96315">
        <ele>2268.1</ele>
        <time>2018-04-21T12:59:41.000Z</time>
      </trkpt>
      <trkpt lat="40.791454" lon="-3.96315">
        <ele>2268.1</ele>
        <time>2018-04-21T12:59:42.000Z</time>
      </trkpt>
      <trkpt lat="40.791454" lon="-3.96315">
        <ele>2268.1</ele>
        <time>2018-04-21T12:59:43.000Z</time>
      </trkpt>
      <trkpt lat="40.791454" lon="-3.963151">
        <ele>2268.1</ele>
        <time>2018-04-21T12:59:44.000Z</time>
      </trkpt>
      <trkpt lat="40.791455" lon="-3.963151">
        <ele>2268.1</ele>
        <time>2018-04-21T12:59:45.000Z</time>
      </trkpt>
      <trkpt lat="40.791455" lon="-3.963151">
        <ele>2268.1</ele>
        <time>2018-04-21T12:59:46.000Z</time>
      </trkpt>
      <trkpt lat="40.791455" lon="-3.963152">
        <ele>2268.1</ele>
        <time>2018-04-21T12:59:47.000Z</time>
      </trkpt>
      <trkpt lat="40.791455" lon="-3.963152">
        <ele>2268.1</ele>
        <time>2018-04-21T12:59:48.000Z</time>
      </trkpt>
      <trkpt lat="40.791455" lon="-3.963152">
        <ele>2268.1</ele>
        <time>2018-04-21T12:59:49.000Z</time>
      </trkpt>
      <trkpt lat="40.791455" lon="-3.963152">
        <ele>2268.1</ele>
        <time>2018-04-21T12:59:50.000Z</time>
      </trkpt>
      <trkpt lat="40.791455" lon="-3.963151">
        <ele>2268.1</ele>
        <time>2018-04-21T12:59:51.000Z</time>
      </trkpt>
      <trkpt lat="40.791455" lon="-3.963151">
        <ele>2268.1</ele>
        <time>2018-04-21T12:59:52.000Z</time>
      </trkpt>
      <trkpt lat="40.791454" lon="-3.963151">
        <ele>2268.1</ele>
        <time>2018-04-21T12:59:53.000Z</time>
      </trkpt>
      <trkpt lat="40.791454" lon="-3.963151">
        <ele>2268.1</ele>
        <time>2018-04-21T12:59:54.000Z</time>
      </trkpt>
      <trkpt lat="40.791454" lon="-3.963153">
        <ele>2268.1</ele>
        <time>2018-04-21T12:59:55.000Z</time>
      </trkpt>
      <trkpt lat="40.791454" lon="-3.963155">
        <ele>2268.1</ele>
        <time>2018-04-21T12:59:56.000Z</time>
      </trkpt>
      <trkpt lat="40.791453" lon="-3.963159">
        <ele>2268.1</ele>
        <time>2018-04-21T12:59:57.000Z</time>
      </trkpt>
      <trkpt lat="40.791452" lon="-3.963164">
        <ele>2268.1</ele>
        <time>2018-04-21T12:59:58.000Z</time>
      </trkpt>
      <trkpt lat="40.791452" lon="-3.96317">
        <ele>2268.1</ele>
        <time>2018-04-21T12:59:59.000Z</time>
      </trkpt>
      <trkpt lat="40.791451" lon="-3.963176">
        <ele>2268.2</ele>
        <time>2018-04-21T13:00:00.000Z</time>
      </trkpt>
      <trkpt lat="40.791451" lon="-3.963179">
        <ele>2268.2</ele>
        <time>2018-04-21T13:00:01.000Z</time>
      </trkpt>
      <trkpt lat="40.791452" lon="-3.96318">
        <ele>2268.2</ele>
        <time>2018-04-21T13:00:02.000Z</time>
      </trkpt>
      <trkpt lat="40.791453" lon="-3.96318">
        <ele>2268.2</ele>
        <time>2018-04-21T13:00:03.000Z</time>
      </trkpt>
      <trkpt lat="40.791454" lon="-3.963179">
        <ele>2268.2</ele>
        <time>2018-04-21T13:00:04.000Z</time>
      </trkpt>
      <trkpt lat="40.791454" lon="-3.963178">
        <ele>2268.2</ele>
        <time>2018-04-21T13:00:05.000Z</time>
      </trkpt>
      <trkpt lat="40.791455" lon="-3.963178">
        <ele>2268.2</ele>
        <time>2018-04-21T13:00:06.000Z</time>
      </trkpt>
      <trkpt lat="40.791455" lon="-3.963178">
        <ele>2268.2</ele>
        <time>2018-04-21T13:00:07.000Z</time>
      </trkpt>
      <trkpt lat="40.791455" lon="-3.963179">
        <ele>2268.2</ele>
        <time>2018-04-21T13:00:08.000Z</time>
      </trkpt>
      <trkpt lat="40.791454" lon="-3.96318">
        <ele>2268.2</ele>
        <time>2018-04-21T13:00:09.000Z</time>
      </trkpt>
      <trkpt lat="40.791454" lon="-3.963183">
        <ele>2268.2</ele>
        <time>2018-04-21T13:00:10.000Z</time>
      </trkpt>
      <trkpt lat="40.791453" lon="-3.963186">
        <ele>2268.2</ele>
        <time>2018-04-21T13:00:11.000Z</time>
      </trkpt>
      <trkpt lat="40.791453" lon="-3.963191">
        <ele>2268.2</ele>
        <time>2018-04-21T13:00:12.000Z</time>
      </trkpt>
      <trkpt lat="40.791453" lon="-3.963196">
        <ele>2268.2</ele>
        <time>2018-04-21T13:00:13.000Z</time>
      </trkpt>
      <trkpt lat="40.791452" lon="-3.963202">
        <ele>2268.3</ele>
        <time>2018-04-21T13:00:14.000Z</time>
      </trkpt>
      <trkpt lat="40.791452" lon="-3.96321">
        <ele>2268.3</ele>
        <time>2018-04-21T13:00:15.000Z</time>
      </trkpt>
      <trkpt lat="40.791452" lon="-3.963218">
        <ele>2268.3</ele>
        <time>2018-04-21T13:00:16.000Z</time>
      </trkpt>
      <trkpt lat="40.791452" lon="-3.963229">
        <ele>2268.4</ele>
        <time>2018-04-21T13:00:17.000Z</time>
      </trkpt>
      <trkpt lat="40.791453" lon="-3.96324">
        <ele>2268.4</ele>
        <time>2018-04-21T13:00:18.000Z</time>
      </trkpt>
      <trkpt lat="40.791454" lon="-3.963253">
        <ele>2268.5</ele>
        <time>2018-04-21T13:00:19.000Z</time>
      </trkpt>
      <trkpt lat="40.791455" lon="-3.963267">
        <ele>2268.5</ele>
        <time>2018-04-21T13:00:20.000Z</time>
      </trkpt>
      <trkpt lat="40.791456" lon="-3.963282">
        <ele>2268.6</ele>
        <time>2018-04-21T13:00:21.000Z</time>
      </trkpt>
      <trkpt lat="40.791458" lon="-3.963298">
        <ele>2268.6</ele>
        <time>2018-04-21T13:00:22.000Z</time>
      </trkpt>
      <trkpt lat="40.79146" lon="-3.963314">
        <ele>2268.7</ele>
        <time>2018-04-21T13:00:23.000Z</time>
      </trkpt>
      <trkpt lat="40.791461" lon="-3.96333">
        <ele>2268.7</ele>
        <time>2018-04-21T13:00:24.000Z</time>
      </trkpt>
      <trkpt lat="40.791463" lon="-3.963344">
        <ele>2268.6</ele>
        <time>2018-04-21T13:00:25.000Z</time>
      </trkpt>
      <trkpt lat="40.791464" lon="-3.963357">
        <ele>2268.4</ele>
        <time>2018-04-21T13:00:26.000Z</time>
      </trkpt>
      <trkpt lat="40.791466" lon="-3.963369">
        <ele>2268.2</ele>
        <time>2018-04-21T13:00:27.000Z</time>
      </trkpt>
      <trkpt lat="40.791466" lon="-3.963379">
        <ele>2268.1</ele>
        <time>2018-04-21T13:00:28.000Z</time>
      </trkpt>
      <trkpt lat="40.791467" lon="-3.963388">
        <ele>2268.0</ele>
        <time>2018-04-21T13:00:29.000Z</time>
      </trkpt>
      <trkpt lat="40.791468" lon="-3.963396">
        <ele>2267.8</ele>
        <time>2018-04-21T13:00:30.000Z</time>
      </trkpt>
      <trkpt lat="40.791469" lon="-3.963404">
        <ele>2267.7</ele>
        <time>2018-04-21T13:00:31.000Z</time>
      </trkpt>
      <trkpt lat="40.79147" lon="-3.963412">
        <ele>2267.6</ele>
        <time>2018-04-21T13:00:32.000Z</time>
      </trkpt>
      <trkpt lat="40.791472" lon="-3.963421">
        <ele>2267.5</ele>
        <time>2018-04-21T13:00:33.000Z</time>
      </trkpt>
      <trkpt lat="40.791474" lon="-3.963431">
        <ele>2267.3</ele>
        <time>2018-04-21T13:00:34.000Z</time>
      </trkpt>
      <trkpt lat="40.791476" lon="-3.963441">
        <ele>2267.2</ele>
        <time>2018-04-21T13:00:35.000Z</time>
      </trkpt>
      <trkpt lat="40.791478" lon="-3.963453">
        <ele>2267.0</ele>
        <time>2018-04-21T13:00:36.000Z</time>
      </trkpt>
      <trkpt lat="40.791481" lon="-3.963465">
        <ele>2266.8</ele>
        <time>2018-04-21T13:00:37.000Z</time>
      </trkpt>
      <trkpt lat="40.791483" lon="-3.963478">
        <ele>2266.7</ele>
        <time>2018-04-21T13:00:38.000Z</time>
      </trkpt>
      <trkpt lat="40.791486" lon="-3.963491">
        <ele>2266.5</ele>
        <time>2018-04-21T13:00:39.000Z</time>
      </trkpt>
      <trkpt lat="40.79149" lon="-3.963505">
        <ele>2266.3</ele>
        <time>2018-04-21T13:00:40.000Z</time>
      </trkpt>
      <trkpt lat="40.791493" lon="-3.96352">
        <ele>2266.1</ele>
        <time>2018-04-21T13:00:41.000Z</time>
      </trkpt>
      <trkpt lat="40.791496" lon="-3.963535">
        <ele>2265.8</ele>
        <time>2018-04-21T13:00:42.000Z</time>
      </trkpt>
      <trkpt lat="40.791499" lon="-3.96355">
        <ele>2265.6</ele>
        <time>2018-04-21T13:00:43.000Z</time>
      </trkpt>
      <trkpt lat="40.791502" lon="-3.963565">
        <ele>2265.4</ele>
        <time>2018-04-21T13:00:44.000Z</time>
      </trkpt>
      <trkpt lat="40.791505" lon="-3.96358">
        <ele>2265.2</ele>
        <time>2018-04-21T13:00:45.000Z</time>
      </trkpt>
      <trkpt lat="40.791508" lon="-3.963596">
        <ele>2265.0</ele>
        <time>2018-04-21T13:00:46.000Z</time>
      </trkpt>
      <trkpt lat="40.79151" lon="-3.963611">
        <ele>2264.8</ele>
        <time>2018-04-21T13:00:47.000Z</time>
      </trkpt>
      <trkpt lat="40.791513" lon="-3.963626">
        <ele>2264.5</ele>
        <time>2018-04-21T13:00:48.000Z</time>
      </trkpt>
      <trkpt lat="40.791515" lon="-3.963641">
        <ele>2264.3</ele>
        <time>2018-04-21T13:00:49.000Z</time>
      </trkpt>
      <trkpt lat="40.791516" lon="-3.963655">
        <ele>2264.1</ele>
        <time>2018-04-21T13:00:50.000Z</time>
      </trkpt>
      <trkpt lat="40.791518" lon="-3.96367">
        <ele>2263.9</ele>
        <time>2018-04-21T13:00:51.000Z</time>
      </trkpt>
      <trkpt lat="40.791519" lon="-3.963684">
        <ele>2263.7</ele>
        <time>2018-04-21T13:00:52.000Z</time>
      </trkpt>
      <trkpt lat="40.79152" lon="-3.963698">
        <ele>2263.5</ele>
        <time>2018-04-21T13:00:53.000Z</time>
      </trkpt>
      <trkpt lat="40.791521" lon="-3.963711">
        <ele>2263.3</ele>
        <time>2018-04-21T13:00:54.000Z</time>
      </trkpt>
      <trkpt lat="40.791521" lon="-3.963725">
        <ele>2263.1</ele>
        <time>2018-04-21T13:00:55.000Z</time>
      </trkpt>
      <trkpt lat="40.791522" lon="-3.963738">
        <ele>2262.9</ele>
        <time>2018-04-21T13:00:56.000Z</time>
      </trkpt>
      <trkpt lat="40.791522" lon="-3.963751">
        <ele>2262.7</ele>
        <time>2018-04-21T13:00:57.000Z</time>
      </trkpt>
      <trkpt lat="40.791523" lon="-3.963764">
        <ele>2262.5</ele>
        <time>2018-04-21T13:00:58.000Z</time>
      </trkpt>
      <trkpt lat="40.791523" lon="-3.963777">
        <ele>2262.3</ele>
        <time>2018-04-21T13:00:59.000Z</time>
      </trkpt>
      <trkpt lat="40.791523" lon="-3.963789">
        <ele>2262.2</ele>
        <time>2018-04-21T13:01:00.000Z</time>
      </trkpt>
      <trkpt lat="40.791524" lon="-3.963801">
        <ele>2262.0</ele>
        <time>2018-04-21T13:01:01.000Z</time>
      </trkpt>
      <trkpt lat="40.791524" lon="-3.963814">
        <ele>2261.8</ele>
        <time>2018-04-21T13:01:02.000Z</time>
      </trkpt>
      <trkpt lat="40.791524" lon="-3.963825">
        <ele>2261.6</ele>
        <time>2018-04-21T13:01:03.000Z</time>
      </trkpt>
      <trkpt lat="40.791524" lon="-3.963837">
        <ele>2261.5</ele>
        <time>2018-04-21T13:01:04.000Z</time>
      </trkpt>
      <trkpt lat="40.791525" lon="-3.963849">
        <ele>2261.3</ele>
        <time>2018-04-21T13:01:05.000Z</time>
      </trkpt>
      <trkpt lat="40.791525" lon="-3.963861">
        <ele>2261.1</ele>
        <time>2018-04-21T13:01:06.000Z</time>
      </trkpt>
      <trkpt lat="40.791526" lon="-3.963872">
        <ele>2261.0</ele>
        <time>2018-04-21T13:01:07.000Z</time>
      </trkpt>
      <trkpt lat="40.791527" lon="-3.963884">
        <ele>2260.8</ele>
        <time>2018-04-21T13:01:08.000Z</time>
      </trkpt>
      <trkpt lat="40.791528" lon="-3.963895">
        <ele>2260.6</ele>
        <time>2018-04-21T13:01:09.000Z</time>
      </trkpt>
      <trkpt lat="40.791529" lon="-3.963907">
        <ele>2260.5</ele>
        <time>2018-04-21T13:01:10.000Z</time>
      </trkpt>
      <trkpt lat="40.79153" lon="-3.963919">
        <ele>2260.3</ele>
        <time>2018-04-21T13:01:11.000Z</time>
      </trkpt>
      <trkpt lat="40.791531" lon="-3.963931">
        <ele>2260.1</ele>
        <time>2018-04-21T13:01:12.000Z</time>
      </trkpt>
      <trkpt lat="40.791533" lon="-3.963943">
        <ele>2259.9</ele>
        <time>2018-04-21T13:01:13.000Z</time>
      </trkpt>
      <trkpt lat="40.791534" lon="-3.963955">
        <ele>2259.8</ele>
        <time>2018-04-21T13:01:14.000Z</time>
      </trkpt>
      <trkpt lat="40.791536" lon="-3.963968">
        <ele>2259.6</ele>
        <time>2018-04-21T13:01:15.000Z</time>
      </trkpt>
      <trkpt lat="40.791538" lon="-3.963981">
        <ele>2259.4</ele>
        <time>2018-04-21T13:01:16.000Z</time>
      </trkpt>
      <trkpt lat="40.791541" lon="-3.963995">
        <ele>2259.2</ele>
        <time>2018-04-21T13:01:17.000Z</time>
      </trkpt>
      <trkpt lat="40.791543" lon="-3.964009">
        <ele>2259.0</ele>
        <time>2018-04-21T13:01:18.000Z</time>
      </trkpt>
      <trkpt lat="40.791546" lon="-3.964023">
        <ele>2258.8</ele>
        <time>2018-04-21T13:01:19.000Z</time>
      </trkpt>
      <trkpt lat="40.791549" lon="-3.964038">
        <ele>2258.6</ele>
        <time>2018-04-21T13:01:20.000Z</time>
      </trkpt>
      <trkpt lat="40.791552" lon="-3.964053">
        <ele>2258.4</ele>
        <time>2018-04-21T13:01:21.000Z</time>
      </trkpt>
      <trkpt lat="40.791554" lon="-3.964068">
        <ele>2258.2</ele>
        <time>2018-04-21T13:01:22.000Z</time>
      </trkpt>
      <trkpt lat="40.791557" lon="-3.964083">
        <ele>2258.0</ele>
        <time>2018-04-21T13:01:23.000Z</time>
      </trkpt>
      <trkpt lat="40.791559" lon="-3.964097">
        <ele>2257.8</ele>
        <time>2018-04-21T13:01:24.000Z</time>
      </trkpt>
      <trkpt lat="40.791561" lon="-3.964112">
        <ele>2257.5</ele>
        <time>2018-04-21T13:01:25.000Z</time>
      </trkpt>
      <trkpt lat="40.791562" lon="-3.964126">
        <ele>2257.3</ele>
        <time>2018-04-21T13:01:26.000Z</time>
      </trkpt>
      <trkpt lat="40.791563" lon="-3.96414">
        <ele>2257.1</ele>
        <time>2018-04-21T13:01:27.000Z</time>
      </trkpt>
      <trkpt lat="40.791563" lon="-3.964153">
        <ele>2257.0</ele>
        <time>2018-04-21T13:01:28.000Z</time>
      </trkpt>
      <trkpt lat="40.791563" lon="-3.964166">
        <ele>2256.8</ele>
        <time>2018-04-21T13:01:29.000Z</time>
      </trkpt>
      <trkpt lat="40.791563" lon="-3.964179">
        <ele>2256.4</ele>
        <time>2018-04-21T13:01:30.000Z</time>
      </trkpt>
      <trkpt lat="40.791563" lon="-3.964192">
        <ele>2256.1</ele>
        <time>2018-04-21T13:01:31.000Z</time>
      </trkpt>
      <trkpt lat="40.791562" lon="-3.964204">
        <ele>2255.8</ele>
        <time>2018-04-21T13:01:32.000Z</time>
      </trkpt>
      <trkpt lat="40.791562" lon="-3.964216">
        <ele>2255.5</ele>
        <time>2018-04-21T13:01:33.000Z</time>
      </trkpt>
      <trkpt lat="40.791561" lon="-3.964228">
        <ele>2255.2</ele>
        <time>2018-04-21T13:01:34.000Z</time>
      </trkpt>
      <trkpt lat="40.791561" lon="-3.96424">
        <ele>2254.9</ele>
        <time>2018-04-21T13:01:35.000Z</time>
      </trkpt>
      <trkpt lat="40.79156" lon="-3.964252">
        <ele>2254.6</ele>
        <time>2018-04-21T13:01:36.000Z</time>
      </trkpt>
      <trkpt lat="40.791559" lon="-3.964264">
        <ele>2254.3</ele>
        <time>2018-04-21T13:01:37.000Z</time>
      </trkpt>
      <trkpt lat="40.791559" lon="-3.964275">
        <ele>2254.0</ele>
        <time>2018-04-21T13:01:38.000Z</time>
      </trkpt>
      <trkpt lat="40.791558" lon="-3.964287">
        <ele>2253.7</ele>
        <time>2018-04-21T13:01:39.000Z</time>
      </trkpt>
      <trkpt lat="40.791558" lon="-3.964299">
        <ele>2253.4</ele>
        <time>2018-04-21T13:01:40.000Z</time>
      </trkpt>
      <trkpt lat="40.791557" lon="-3.96431">
        <ele>2253.2</ele>
        <time>2018-04-21T13:01:41.000Z</time>
      </trkpt>
      <trkpt lat="40.791557" lon="-3.964322">
        <ele>2252.9</ele>
        <time>2018-04-21T13:01:42.000Z</time>
      </trkpt>
      <trkpt lat="40.791556" lon="-3.964334">
        <ele>2252.6</ele>
        <time>2018-04-21T13:01:43.000Z</time>
      </trkpt>
      <trkpt lat="40.791556" lon="-3.964346">
        <ele>2252.3</ele>
        <time>2018-04-21T13:01:44.000Z</time>
      </trkpt>
      <trkpt lat="40.791556" lon="-3.964358">
        <ele>2252.0</ele>
        <time>2018-04-21T13:01:45.000Z</time>
      </trkpt>
      <trkpt lat="40.791556" lon="-3.96437">
        <ele>2251.7</ele>
        <time>2018-04-21T13:01:46.000Z</time>
      </trkpt>
      <trkpt lat="40.791556" lon="-3.964382">
        <ele>2251.4</ele>
        <time>2018-04-21T13:01:47.000Z</time>
      </trkpt>
      <trkpt lat="40.791556" lon="-3.964395">
        <ele>2251.1</ele>
        <time>2018-04-21T13:01:48.000Z</time>
      </trkpt>
      <trkpt lat="40.791556" lon="-3.964407">
        <ele>2250.8</ele>
        <time>2018-04-21T13:01:49.000Z</time>
      </trkpt>
      <trkpt lat="40.791557" lon="-3.96442">
        <ele>2250.4</ele>
        <time>2018-04-21T13:01:50.000Z</time>
      </trkpt>
      <trkpt lat="40.791557" lon="-3.964433">
        <ele>2250.1</ele>
        <time>2018-04-21T13:01:51.000Z</time>
      </trkpt>
      <trkpt lat="40.791558" lon="-3.964446">
        <ele>2249.8</ele>
        <time>2018-04-21T13:01:52.000Z</time>
      </trkpt>
      <trkpt lat="40.791558" lon="-3.96446">
        <ele>2249.4</ele>
        <time>2018-04-21T13:01:53.000Z</time>
      </trkpt>
      <trkpt lat="40.791559" lon="-3.964473">
        <ele>2249.1</ele>
        <time>2018-04-21T13:01:54.000Z</time>
      </trkpt>
      <trkpt lat="40.791559" lon="-3.964486">
        <ele>2248.8</ele>
        <time>2018-04-21T13:01:55.000Z</time>
      </trkpt>
      <trkpt lat="40.79156" lon="-3.964499">
        <ele>2248.5</ele>
        <time>2018-04-21T13:01:56.000Z</time>
      </trkpt>
      <trkpt lat="40.79156" lon="-3.964512">
        <ele>2248.1</ele>
        <time>2018-04-21T13:01:57.000Z</time>
      </trkpt>
      <trkpt lat="40.791561" lon="-3.964525">
        <ele>2247.8</ele>
        <time>2018-04-21T13:01:58.000Z</time>
      </trkpt>
      <trkpt lat="40.791561" lon="-3.964538">
        <ele>2247.5</ele>
        <time>2018-04-21T13:01:59.000Z</time>
      </trkpt>
      <trkpt lat="40.791562" lon="-3.964551">
        <ele>2247.2</ele>
        <time>2018-04-21T13:02:00.000Z</time>
      </trkpt>
      <trkpt lat="40.791562" lon="-3.964563">
        <ele>2246.9</ele>
        <time>2018-04-21T13:02:01.000Z</time>
      </trkpt>
      <trkpt lat="40.791562" lon="-3.964576">
        <ele>2246.6</ele>
        <time>2018-04-21T13:02:02.000Z</time>
      </trkpt>
      <trkpt lat="40.791562" lon="-3.964588">
        <ele>2246.3</ele>
        <time>2018-04-21T13:02:03.000Z</time>
      </trkpt>
      <trkpt lat="40.791562" lon="-3.9646">
        <ele>2246.0</ele>
        <time>2018-04-21T13:02:04.000Z</time>
      </trkpt>
      <trkpt lat="40.791562" lon="-3.964612">
        <ele>2245.7</ele>
        <time>2018-04-21T13:02:05.000Z</time>
      </trkpt>
      <trkpt lat="40.791561" lon="-3.964623">
        <ele>2245.4</ele>
        <time>2018-04-21T13:02:06.000Z</time>
      </trkpt>
      <trkpt lat="40.791561" lon="-3.964635">
        <ele>2245.1</ele>
        <time>2018-04-21T13:02:07.000Z</time>
      </trkpt>
      <trkpt lat="40.79156" lon="-3.964646">
        <ele>2244.8</ele>
        <time>2018-04-21T13:02:08.000Z</time>
      </trkpt>
      <trkpt lat="40.79156" lon="-3.964658">
        <ele>2244.5</ele>
        <time>2018-04-21T13:02:09.000Z</time>
      </trkpt>
      <trkpt lat="40.791559" lon="-3.964669">
        <ele>2244.2</ele>
        <time>2018-04-21T13:02:10.000Z</time>
      </trkpt>
      <trkpt lat="40.791559" lon="-3.964681">
        <ele>2243.9</ele>
        <time>2018-04-21T13:02:11.000Z</time>
      </trkpt>
      <trkpt lat="40.791558" lon="-3.964692">
        <ele>2243.7</ele>
        <time>2018-04-21T13:02:12.000Z</time>
      </trkpt>
      <trkpt lat="40.791558" lon="-3.964704">
        <ele>2243.4</ele>
        <time>2018-04-21T13:02:13.000Z</time>
      </trkpt>
      <trkpt lat="40.791557" lon="-3.964715">
        <ele>2243.1</ele>
        <time>2018-04-21T13:02:14.000Z</time>
      </trkpt>
      <trkpt lat="40.791557" lon="-3.964727">
        <ele>2242.8</ele>
        <time>2018-04-21T13:02:15.000Z</time>
      </trkpt>
      <trkpt lat="40.791556" lon="-3.964739">
        <ele>2242.5</ele>
        <time>2018-04-21T13:02:16.000Z</time>
      </trkpt>
      <trkpt lat="40.791556" lon="-3.964752">
        <ele>2242.2</ele>
        <time>2018-04-21T13:02:17.000Z</time>
      </trkpt>
      <trkpt lat="40.791555" lon="-3.964764">
        <ele>2241.9</ele>
        <time>2018-04-21T13:02:18.000Z</time>
      </trkpt>
      <trkpt lat="40.791555" lon="-3.964777">
        <ele>2241.5</ele>
        <time>2018-04-21T13:02:19.000Z</time>
      </trkpt>
      <trkpt lat="40.791555" lon="-3.96479">
        <ele>2241.2</ele>
        <time>2018-04-21T13:02:20.000Z</time>
      </trkpt>
      <trkpt lat="40.791554" lon="-3.964803">
        <ele>2240.9</ele>
        <time>2018-04-21T13:02:21.000Z</time>
      </trkpt>
      <trkpt lat="40.791554" lon="-3.964816">
        <ele>2240.6</ele>
        <time>2018-04-21T13:02:22.000Z</time>
      </trkpt>
      <trkpt lat="40.791553" lon="-3.964829">
        <ele>2240.3</ele>
        <time>2018-04-21T13:02:23.000Z</time>
      </trkpt>
      <trkpt lat="40.791552" lon="-3.964842">
        <ele>2239.9</ele>
        <time>2018-04-21T13:02:24.000Z</time>
      </trkpt>
      <trkpt lat="40.791551" lon="-3.964855">
        <ele>2239.6</ele>
        <time>2018-04-21T13:02:25.000Z</time>
      </trkpt>
      <trkpt lat="40.79155" lon="-3.964868">
        <ele>2239.3</ele>
        <time>2018-04-21T13:02:26.000Z</time>
      </trkpt>
      <trkpt lat="40.791548" lon="-3.964881">
        <ele>2239.0</ele>
        <time>2018-04-21T13:02:27.000Z</time>
      </trkpt>
      <trkpt lat="40.791546" lon="-3.964893">
        <ele>2238.7</ele>
        <time>2018-04-21T13:02:28.000Z</time>
      </trkpt>
      <trkpt lat="40.791544" lon="-3.964905">
        <ele>2238.4</ele>
        <time>2018-04-21T13:02:29.000Z</time>
      </trkpt>
      <trkpt lat="40.791541" lon="-3.964917">
        <ele>2238.1</ele>
        <time>2018-04-21T13:02:30.000Z</time>
      </trkpt>
      <trkpt lat="40.791537" lon="-3.964928">
        <ele>2237.8</ele>
        <time>2018-04-21T13:02:31.000Z</time>
      </trkpt>
      <trkpt lat="40.791533" lon="-3.964939">
        <ele>2237.5</ele>
        <time>2018-04-21T13:02:32.000Z</time>
      </trkpt>
      <trkpt lat="40.791529" lon="-3.96495">
        <ele>2237.2</ele>
        <time>2018-04-21T13:02:33.000Z</time>
      </trkpt>
      <trkpt lat="40.791525" lon="-3.964961">
        <ele>2237.0</ele>
        <time>2018-04-21T13:02:34.000Z</time>
      </trkpt>
      <trkpt lat="40.791521" lon="-3.964971">
        <ele>2236.7</ele>
        <time>2018-04-21T13:02:35.000Z</time>
      </trkpt>
      <trkpt lat="40.791518" lon="-3.964982">
        <ele>2236.4</ele>
        <time>2018-04-21T13:02:36.000Z</time>
      </trkpt>
      <trkpt lat="40.791515" lon="-3.964993">
        <ele>2236.2</ele>
        <time>2018-04-21T13:02:37.000Z</time>
      </trkpt>
      <trkpt lat="40.791514" lon="-3.965005">
        <ele>2235.9</ele>
        <time>2018-04-21T13:02:38.000Z</time>
      </trkpt>
      <trkpt lat="40.791515" lon="-3.965017">
        <ele>2235.6</ele>
        <time>2018-04-21T13:02:39.000Z</time>
      </trkpt>
      <trkpt lat="40.791517" lon="-3.96503">
        <ele>2235.4</ele>
        <time>2018-04-21T13:02:40.000Z</time>
      </trkpt>
      <trkpt lat="40.79152" lon="-3.965044">
        <ele>2235.1</ele>
        <time>2018-04-21T13:02:41.000Z</time>
      </trkpt>
      <trkpt lat="40.791523" lon="-3.965057">
        <ele>2234.8</ele>
        <time>2018-04-21T13:02:42.000Z</time>
      </trkpt>
      <trkpt lat="40.791525" lon="-3.965071">
        <ele>2234.5</ele>
        <time>2018-04-21T13:02:43.000Z</time>
      </trkpt>
      <trkpt lat="40.791526" lon="-3.965083">
        <ele>2234.2</ele>
        <time>2018-04-21T13:02:44.000Z</time>
      </trkpt>
      <trkpt lat="40.791525" lon="-3.965095">
        <ele>2234.0</ele>
        <time>2018-04-21T13:02:45.000Z</time>
      </trkpt>
      <trkpt lat="40.791525" lon="-3.965107">
        <ele>2233.7</ele>
        <time>2018-04-21T13:02:46.000Z</time>
      </trkpt>
      <trkpt lat="40.791524" lon="-3.965119">
        <ele>2233.5</ele>
        <time>2018-04-21T13:02:47.000Z</time>
      </trkpt>
      <trkpt lat="40.791524" lon="-3.965131">
        <ele>2233.2</ele>
        <time>2018-04-21T13:02:48.000Z</time>
      </trkpt>
      <trkpt lat="40.791523" lon="-3.965143">
        <ele>2232.9</ele>
        <time>2018-04-21T13:02:49.000Z</time>
      </trkpt>
      <trkpt lat="40.791523" lon="-3.965155">
        <ele>2232.7</ele>
        <time>2018-04-21T13:02:50.000Z</time>
      </trkpt>
      <trkpt lat="40.791523" lon="-3.965167">
        <ele>2232.4</ele>
        <time>2018-04-21T13:02:51.000Z</time>
      </trkpt>
      <trkpt lat="40.791523" lon="-3.96518">
        <ele>2232.1</ele>
        <time>2018-04-21T13:02:52.000Z</time>
      </trkpt>
      <trkpt lat="40.791522" lon="-3.965192">
        <ele>2231.9</ele>
        <time>2018-04-21T13:02:53.000Z</time>
      </trkpt>
      <trkpt lat="40.791522" lon="-3.965205">
        <ele>2231.6</ele>
        <time>2018-04-21T13:02:54.000Z</time>
      </trkpt>
      <trkpt lat="40.791522" lon="-3.965217">
        <ele>2231.4</ele>
        <time>2018-04-21T13:02:55.000Z</time>
      </trkpt>
      <trkpt lat="40.791521" lon="-3.96523">
        <ele>2231.1</ele>
        <time>2018-04-21T13:02:56.000Z</time>
      </trkpt>
      <trkpt lat="40.79152" lon="-3.965243">
        <ele>2230.8</ele>
        <time>2018-04-21T13:02:57.000Z</time>
      </trkpt>
      <trkpt lat="40.791519" lon="-3.965256">
        <ele>2230.5</ele>
        <time>2018-04-21T13:02:58.000Z</time>
      </trkpt>
      <trkpt lat="40.791517" lon="-3.965269">
        <ele>2230.2</ele>
        <time>2018-04-21T13:02:59.000Z</time>
      </trkpt>
      <trkpt lat="40.791516" lon="-3.965282">
        <ele>2230.0</ele>
        <time>2018-04-21T13:03:00.000Z</time>
      </trkpt>
      <trkpt lat="40.791514" lon="-3.965295">
        <ele>2229.7</ele>
        <time>2018-04-21T13:03:01.000Z</time>
      </trkpt>
      <trkpt lat="40.791511" lon="-3.965309">
        <ele>2229.4</ele>
        <time>2018-04-21T13:03:02.000Z</time>
      </trkpt>
      <trkpt lat="40.791508" lon="-3.965322">
        <ele>2229.1</ele>
        <time>2018-04-21T13:03:03.000Z</time>
      </trkpt>
      <trkpt lat="40.791505" lon="-3.965334">
        <ele>2228.9</ele>
        <time>2018-04-21T13:03:04.000Z</time>
      </trkpt>
      <trkpt lat="40.791502" lon="-3.965346">
        <ele>2228.6</ele>
        <time>2018-04-21T13:03:05.000Z</time>
      </trkpt>
      <trkpt lat="40.7915" lon="-3.965355">
        <ele>2228.4</ele>
        <time>2018-04-21T13:03:06.000Z</time>
      </trkpt>
      <trkpt lat="40.791498" lon="-3.965363">
        <ele>2228.2</ele>
        <time>2018-04-21T13:03:07.000Z</time>
      </trkpt>
      <trkpt lat="40.791496" lon="-3.965369">
        <ele>2228.1</ele>
        <time>2018-04-21T13:03:08.000Z</time>
      </trkpt>
      <trkpt lat="40.791495" lon="-3.965371">
        <ele>2228.1</ele>
        <time>2018-04-21T13:03:09.000Z</time>
      </trkpt>
      <trkpt lat="40.791495" lon="-3.965371">
        <ele>2228.1</ele>
        <time>2018-04-21T13:03:10.000Z</time>
      </trkpt>
      <trkpt lat="40.791495" lon="-3.965371">
        <ele>2228.1</ele>
        <time>2018-04-21T13:03:11.000Z</time>
      </trkpt>
      <trkpt lat="40.791495" lon="-3.965371">
        <ele>2228.1</ele>
        <time>2018-04-21T13:03:12.000Z</time>
      </trkpt>
      <trkpt lat="40.791494" lon="-3.965375">
        <ele>2228.0</ele>
        <time>2018-04-21T13:03:13.000Z</time>
      </trkpt>
      <trkpt lat="40.79149" lon="-3.965383">
        <ele>2227.8</ele>
        <time>2018-04-21T13:03:14.000Z</time>
      </trkpt>
      <trkpt lat="40.791486" lon="-3.965395">
        <ele>2227.6</ele>
        <time>2018-04-21T13:03:15.000Z</time>
      </trkpt>
      <trkpt lat="40.791483" lon="-3.965407">
        <ele>2227.3</ele>
        <time>2018-04-21T13:03:16.000Z</time>
      </trkpt>
      <trkpt lat="40.791481" lon="-3.965419">
        <ele>2227.1</ele>
        <time>2018-04-21T13:03:17.000Z</time>
      </trkpt>
      <trkpt lat="40.791479" lon="-3.965429">
        <ele>2226.8</ele>
        <time>2018-04-21T13:03:18.000Z</time>
      </trkpt>
      <trkpt lat="40.791479" lon="-3.965439">
        <ele>2226.6</ele>
        <time>2018-04-21T13:03:19.000Z</time>
      </trkpt>
      <trkpt lat="40.791479" lon="-3.965449">
        <ele>2226.4</ele>
        <time>2018-04-21T13:03:20.000Z</time>
      </trkpt>
      <trkpt lat="40.79148" lon="-3.965459">
        <ele>2226.2</ele>
        <time>2018-04-21T13:03:21.000Z</time>
      </trkpt>
      <trkpt lat="40.79148" lon="-3.96547">
        <ele>2226.0</ele>
        <time>2018-04-21T13:03:22.000Z</time>
      </trkpt>
      <trkpt lat="40.791479" lon="-3.965482">
        <ele>2225.7</ele>
        <time>2018-04-21T13:03:23.000Z</time>
      </trkpt>
      <trkpt lat="40.791478" lon="-3.965496">
        <ele>2225.4</ele>
        <time>2018-04-21T13:03:24.000Z</time>
      </trkpt>
      <trkpt lat="40.791476" lon="-3.965512">
        <ele>2225.1</ele>
        <time>2018-04-21T13:03:25.000Z</time>
      </trkpt>
      <trkpt lat="40.791474" lon="-3.965529">
        <ele>2224.7</ele>
        <time>2018-04-21T13:03:26.000Z</time>
      </trkpt>
      <trkpt lat="40.791471" lon="-3.965546">
        <ele>2224.4</ele>
        <time>2018-04-21T13:03:27.000Z</time>
      </trkpt>
      <trkpt lat="40.791469" lon="-3.965564">
        <ele>2224.0</ele>
        <time>2018-04-21T13:03:28.000Z</time>
      </trkpt>
      <trkpt lat="40.791466" lon="-3.965581">
        <ele>2223.6</ele>
        <time>2018-04-21T13:03:29.000Z</time>
      </trkpt>
      <trkpt lat="40.791464" lon="-3.965598">
        <ele>2223.3</ele>
        <time>2018-04-21T13:03:30.000Z</time>
      </trkpt>
      <trkpt lat="40.791463" lon="-3.965614">
        <ele>2222.9</ele>
        <time>2018-04-21T13:03:31.000Z</time>
      </trkpt>
      <trkpt lat="40.791462" lon="-3.965629">
        <ele>2222.6</ele>
        <time>2018-04-21T13:03:32.000Z</time>
      </trkpt>
      <trkpt lat="40.791461" lon="-3.965642">
        <ele>2222.3</ele>
        <time>2018-04-21T13:03:33.000Z</time>
      </trkpt>
      <trkpt lat="40.791461" lon="-3.965655">
        <ele>2222.0</ele>
        <time>2018-04-21T13:03:34.000Z</time>
      </trkpt>
      <trkpt lat="40.791461" lon="-3.965668">
        <ele>2221.8</ele>
        <time>2018-04-21T13:03:35.000Z</time>
      </trkpt>
      <trkpt lat="40.791462" lon="-3.965679">
        <ele>2221.5</ele>
        <time>2018-04-21T13:03:36.000Z</time>
      </trkpt>
      <trkpt lat="40.791462" lon="-3.96569">
        <ele>2221.3</ele>
        <time>2018-04-21T13:03:37.000Z</time>
      </trkpt>
      <trkpt lat="40.791463" lon="-3.965701">
        <ele>2221.1</ele>
        <time>2018-04-21T13:03:38.000Z</time>
      </trkpt>
      <trkpt lat="40.791463" lon="-3.965711">
        <ele>2220.9</ele>
        <time>2018-04-21T13:03:39.000Z</time>
      </trkpt>
      <trkpt lat="40.791464" lon="-3.965721">
        <ele>2220.6</ele>
        <time>2018-04-21T13:03:40.000Z</time>
      </trkpt>
      <trkpt lat="40.791464" lon="-3.96573">
        <ele>2220.4</ele>
        <time>2018-04-21T13:03:41.000Z</time>
      </trkpt>
      <trkpt lat="40.791463" lon="-3.96574">
        <ele>2220.2</ele>
        <time>2018-04-21T13:03:42.000Z</time>
      </trkpt>
      <trkpt lat="40.791463" lon="-3.965749">
        <ele>2220.0</ele>
        <time>2018-04-21T13:03:43.000Z</time>
      </trkpt>
      <trkpt lat="40.791462" lon="-3.965758">
        <ele>2219.9</ele>
        <time>2018-04-21T13:03:44.000Z</time>
      </trkpt>
      <trkpt lat="40.79146" lon="-3.965768">
        <ele>2219.6</ele>
        <time>2018-04-21T13:03:45.000Z</time>
      </trkpt>
      <trkpt lat="40.791458" lon="-3.965778">
        <ele>2219.4</ele>
        <time>2018-04-21T13:03:46.000Z</time>
      </trkpt>
      <trkpt lat="40.791455" lon="-3.965788">
        <ele>2219.2</ele>
        <time>2018-04-21T13:03:47.000Z</time>
      </trkpt>
      <trkpt lat="40.791452" lon="-3.965798">
        <ele>2219.0</ele>
        <time>2018-04-21T13:03:48.000Z</time>
      </trkpt>
      <trkpt lat="40.791449" lon="-3.965809">
        <ele>2218.8</ele>
        <time>2018-04-21T13:03:49.000Z</time>
      </trkpt>
      <trkpt lat="40.791446" lon="-3.96582">
        <ele>2218.5</ele>
        <time>2018-04-21T13:03:50.000Z</time>
      </trkpt>
      <trkpt lat="40.791444" lon="-3.965831">
        <ele>2218.3</ele>
        <time>2018-04-21T13:03:51.000Z</time>
      </trkpt>
      <trkpt lat="40.791443" lon="-3.965843">
        <ele>2218.1</ele>
        <time>2018-04-21T13:03:52.000Z</time>
      </trkpt>
      <trkpt lat="40.791442" lon="-3.965855">
        <ele>2217.8</ele>
        <time>2018-04-21T13:03:53.000Z</time>
      </trkpt>
      <trkpt lat="40.791442" lon="-3.965867">
        <ele>2217.6</ele>
        <time>2018-04-21T13:03:54.000Z</time>
      </trkpt>
      <trkpt lat="40.791442" lon="-3.965878">
        <ele>2217.4</ele>
        <time>2018-04-21T13:03:55.000Z</time>
      </trkpt>
      <trkpt lat="40.791442" lon="-3.965888">
        <ele>2217.2</ele>
        <time>2018-04-21T13:03:56.000Z</time>
      </trkpt>
      <trkpt lat="40.791442" lon="-3.965896">
        <ele>2217.0</ele>
        <time>2018-04-21T13:03:57.000Z</time>
      </trkpt>
      <trkpt lat="40.791441" lon="-3.965903">
        <ele>2216.9</ele>
        <time>2018-04-21T13:03:58.000Z</time>
      </trkpt>
      <trkpt lat="40.791438" lon="-3.965912">
        <ele>2216.7</ele>
        <time>2018-04-21T13:03:59.000Z</time>
      </trkpt>
      <trkpt lat="40.791435" lon="-3.965922">
        <ele>2216.5</ele>
        <time>2018-04-21T13:04:00.000Z</time>
      </trkpt>
      <trkpt lat="40.791431" lon="-3.965935">
        <ele>2216.3</ele>
        <time>2018-04-21T13:04:01.000Z</time>
      </trkpt>
      <trkpt lat="40.791427" lon="-3.965949">
        <ele>2216.0</ele>
        <time>2018-04-21T13:04:02.000Z</time>
      </trkpt>
      <trkpt lat="40.791425" lon="-3.965963">
        <ele>2215.7</ele>
        <time>2018-04-21T13:04:03.000Z</time>
      </trkpt>
      <trkpt lat="40.791424" lon="-3.965976">
        <ele>2215.5</ele>
        <time>2018-04-21T13:04:04.000Z</time>
      </trkpt>
      <trkpt lat="40.791424" lon="-3.965989">
        <ele>2215.2</ele>
        <time>2018-04-21T13:04:05.000Z</time>
      </trkpt>
      <trkpt lat="40.791425" lon="-3.966002">
        <ele>2214.9</ele>
        <time>2018-04-21T13:04:06.000Z</time>
      </trkpt>
      <trkpt lat="40.791426" lon="-3.966015">
        <ele>2214.7</ele>
        <time>2018-04-21T13:04:07.000Z</time>
      </trkpt>
      <trkpt lat="40.791426" lon="-3.966029">
        <ele>2214.4</ele>
        <time>2018-04-21T13:04:08.000Z</time>
      </trkpt>
      <trkpt lat="40.791427" lon="-3.966043">
        <ele>2214.1</ele>
        <time>2018-04-21T13:04:09.000Z</time>
      </trkpt>
      <trkpt lat="40.791426" lon="-3.966056">
        <ele>2213.9</ele>
        <time>2018-04-21T13:04:10.000Z</time>
      </trkpt>
      <trkpt lat="40.791425" lon="-3.966069">
        <ele>2213.6</ele>
        <time>2018-04-21T13:04:11.000Z</time>
      </trkpt>
      <trkpt lat="40.791424" lon="-3.966081">
        <ele>2213.4</ele>
        <time>2018-04-21T13:04:12.000Z</time>
      </trkpt>
      <trkpt lat="40.791421" lon="-3.966092">
        <ele>2213.1</ele>
        <time>2018-04-21T13:04:13.000Z</time>
      </trkpt>
      <trkpt lat="40.791418" lon="-3.966102">
        <ele>2212.9</ele>
        <time>2018-04-21T13:04:14.000Z</time>
      </trkpt>
      <trkpt lat="40.791413" lon="-3.96611">
        <ele>2212.8</ele>
        <time>2018-04-21T13:04:15.000Z</time>
      </trkpt>
      <trkpt lat="40.791408" lon="-3.966116">
        <ele>2212.7</ele>
        <time>2018-04-21T13:04:16.000Z</time>
      </trkpt>
      <trkpt lat="40.791403" lon="-3.966122">
        <ele>2212.6</ele>
        <time>2018-04-21T13:04:17.000Z</time>
      </trkpt>
      <trkpt lat="40.791397" lon="-3.966128">
        <ele>2212.4</ele>
        <time>2018-04-21T13:04:18.000Z</time>
      </trkpt>
      <trkpt lat="40.791392" lon="-3.966134">
        <ele>2212.3</ele>
        <time>2018-04-21T13:04:19.000Z</time>
      </trkpt>
      <trkpt lat="40.791387" lon="-3.966141">
        <ele>2212.2</ele>
        <time>2018-04-21T13:04:20.000Z</time>
      </trkpt>
      <trkpt lat="40.791383" lon="-3.96615">
        <ele>2212.0</ele>
        <time>2018-04-21T13:04:21.000Z</time>
      </trkpt>
      <trkpt lat="40.791379" lon="-3.966161">
        <ele>2211.8</ele>
        <time>2018-04-21T13:04:22.000Z</time>
      </trkpt>
      <trkpt lat="40.791376" lon="-3.966173">
        <ele>2211.5</ele>
        <time>2018-04-21T13:04:23.000Z</time>
      </trkpt>
      <trkpt lat="40.791374" lon="-3.966187">
        <ele>2211.3</ele>
        <time>2018-04-21T13:04:24.000Z</time>
      </trkpt>
      <trkpt lat="40.791372" lon="-3.966202">
        <ele>2211.0</ele>
        <time>2018-04-21T13:04:25.000Z</time>
      </trkpt>
      <trkpt lat="40.79137" lon="-3.966217">
        <ele>2210.7</ele>
        <time>2018-04-21T13:04:26.000Z</time>
      </trkpt>
      <trkpt lat="40.791367" lon="-3.966232">
        <ele>2210.4</ele>
        <time>2018-04-21T13:04:27.000Z</time>
      </trkpt>
      <trkpt lat="40.791364" lon="-3.966247">
        <ele>2210.1</ele>
        <time>2018-04-21T13:04:28.000Z</time>
      </trkpt>
      <trkpt lat="40.791361" lon="-3.966261">
        <ele>2209.8</ele>
        <time>2018-04-21T13:04:29.000Z</time>
      </trkpt>
      <trkpt lat="40.791356" lon="-3.966275">
        <ele>2209.5</ele>
        <time>2018-04-21T13:04:30.000Z</time>
      </trkpt>
      <trkpt lat="40.791352" lon="-3.966288">
        <ele>2209.2</ele>
        <time>2018-04-21T13:04:31.000Z</time>
      </trkpt>
      <trkpt lat="40.791348" lon="-3.9663">
        <ele>2209.0</ele>
        <time>2018-04-21T13:04:32.000Z</time>
      </trkpt>
      <trkpt lat="40.791344" lon="-3.966312">
        <ele>2208.8</ele>
        <time>2018-04-21T13:04:33.000Z</time>
      </trkpt>
      <trkpt lat="40.79134" lon="-3.966325">
        <ele>2208.5</ele>
        <time>2018-04-21T13:04:34.000Z</time>
      </trkpt>
      <trkpt lat="40.791337" lon="-3.966337">
        <ele>2208.2</ele>
        <time>2018-04-21T13:04:35.000Z</time>
      </trkpt>
      <trkpt lat="40.791336" lon="-3.966349">
        <ele>2208.0</ele>
        <time>2018-04-21T13:04:36.000Z</time>
      </trkpt>
      <trkpt lat="40.791335" lon="-3.966361">
        <ele>2207.8</ele>
        <time>2018-04-21T13:04:37.000Z</time>
      </trkpt>
      <trkpt lat="40.791336" lon="-3.966373">
        <ele>2207.5</ele>
        <time>2018-04-21T13:04:38.000Z</time>
      </trkpt>
      <trkpt lat="40.791337" lon="-3.966385">
        <ele>2207.3</ele>
        <time>2018-04-21T13:04:39.000Z</time>
      </trkpt>
      <trkpt lat="40.791339" lon="-3.966397">
        <ele>2207.0</ele>
        <time>2018-04-21T13:04:40.000Z</time>
      </trkpt>
      <trkpt lat="40.791341" lon="-3.966409">
        <ele>2206.8</ele>
        <time>2018-04-21T13:04:41.000Z</time>
      </trkpt>
      <trkpt lat="40.791344" lon="-3.96642">
        <ele>2206.6</ele>
        <time>2018-04-21T13:04:42.000Z</time>
      </trkpt>
      <trkpt lat="40.791346" lon="-3.966431">
        <ele>2206.4</ele>
        <time>2018-04-21T13:04:43.000Z</time>
      </trkpt>
      <trkpt lat="40.791349" lon="-3.966441">
        <ele>2206.2</ele>
        <time>2018-04-21T13:04:44.000Z</time>
      </trkpt>
      <trkpt lat="40.791351" lon="-3.966451">
        <ele>2206.0</ele>
        <time>2018-04-21T13:04:45.000Z</time>
      </trkpt>
      <trkpt lat="40.791352" lon="-3.966461">
        <ele>2205.8</ele>
        <time>2018-04-21T13:04:46.000Z</time>
      </trkpt>
      <trkpt lat="40.791354" lon="-3.966471">
        <ele>2205.6</ele>
        <time>2018-04-21T13:04:47.000Z</time>
      </trkpt>
      <trkpt lat="40.791355" lon="-3.966481">
        <ele>2205.4</ele>
        <time>2018-04-21T13:04:48.000Z</time>
      </trkpt>
      <trkpt lat="40.791356" lon="-3.966491">
        <ele>2205.2</ele>
        <time>2018-04-21T13:04:49.000Z</time>
      </trkpt>
      <trkpt lat="40.791356" lon="-3.966503">
        <ele>2204.9</ele>
        <time>2018-04-21T13:04:50.000Z</time>
      </trkpt>
      <trkpt lat="40.791356" lon="-3.966515">
        <ele>2204.7</ele>
        <time>2018-04-21T13:04:51.000Z</time>
      </trkpt>
      <trkpt lat="40.791355" lon="-3.966529">
        <ele>2204.4</ele>
        <time>2018-04-21T13:04:52.000Z</time>
      </trkpt>
      <trkpt lat="40.791354" lon="-3.966544">
        <ele>2204.1</ele>
        <time>2018-04-21T13:04:53.000Z</time>
      </trkpt>
      <trkpt lat="40.791352" lon="-3.966559">
        <ele>2203.8</ele>
        <time>2018-04-21T13:04:54.000Z</time>
      </trkpt>
      <trkpt lat="40.79135" lon="-3.966575">
        <ele>2203.5</ele>
        <time>2018-04-21T13:04:55.000Z</time>
      </trkpt>
      <trkpt lat="40.791348" lon="-3.966591">
        <ele>2203.1</ele>
        <time>2018-04-21T13:04:56.000Z</time>
      </trkpt>
      <trkpt lat="40.791346" lon="-3.966606">
        <ele>2202.8</ele>
        <time>2018-04-21T13:04:57.000Z</time>
      </trkpt>
      <trkpt lat="40.791344" lon="-3.966622">
        <ele>2202.5</ele>
        <time>2018-04-21T13:04:58.000Z</time>
      </trkpt>
      <trkpt lat="40.791342" lon="-3.966636">
        <ele>2202.2</ele>
        <time>2018-04-21T13:04:59.000Z</time>
      </trkpt>
      <trkpt lat="40.79134" lon="-3.96665">
        <ele>2201.9</ele>
        <time>2018-04-21T13:05:00.000Z</time>
      </trkpt>
      <trkpt lat="40.791338" lon="-3.966663">
        <ele>2201.7</ele>
        <time>2018-04-21T13:05:01.000Z</time>
      </trkpt>
      <trkpt lat="40.791336" lon="-3.966676">
        <ele>2201.4</ele>
        <time>2018-04-21T13:05:02.000Z</time>
      </trkpt>
      <trkpt lat="40.791334" lon="-3.966688">
        <ele>2201.2</ele>
        <time>2018-04-21T13:05:03.000Z</time>
      </trkpt>
      <trkpt lat="40.791333" lon="-3.9667">
        <ele>2200.9</ele>
        <time>2018-04-21T13:05:04.000Z</time>
      </trkpt>
      <trkpt lat="40.791331" lon="-3.966711">
        <ele>2200.7</ele>
        <time>2018-04-21T13:05:05.000Z</time>
      </trkpt>
      <trkpt lat="40.79133" lon="-3.966722">
        <ele>2200.5</ele>
        <time>2018-04-21T13:05:06.000Z</time>
      </trkpt>
      <trkpt lat="40.791329" lon="-3.966733">
        <ele>2200.2</ele>
        <time>2018-04-21T13:05:07.000Z</time>
      </trkpt>
      <trkpt lat="40.791328" lon="-3.966743">
        <ele>2200.0</ele>
        <time>2018-04-21T13:05:08.000Z</time>
      </trkpt>
      <trkpt lat="40.791327" lon="-3.966754">
        <ele>2199.8</ele>
        <time>2018-04-21T13:05:09.000Z</time>
      </trkpt>
      <trkpt lat="40.791326" lon="-3.966764">
        <ele>2199.6</ele>
        <time>2018-04-21T13:05:10.000Z</time>
      </trkpt>
      <trkpt lat="40.791326" lon="-3.966774">
        <ele>2199.4</ele>
        <time>2018-04-21T13:05:11.000Z</time>
      </trkpt>
      <trkpt lat="40.791326" lon="-3.966784">
        <ele>2199.2</ele>
        <time>2018-04-21T13:05:12.000Z</time>
      </trkpt>
      <trkpt lat="40.791326" lon="-3.966795">
        <ele>2199.0</ele>
        <time>2018-04-21T13:05:13.000Z</time>
      </trkpt>
      <trkpt lat="40.791327" lon="-3.966805">
        <ele>2198.8</ele>
        <time>2018-04-21T13:05:14.000Z</time>
      </trkpt>
      <trkpt lat="40.791327" lon="-3.966816">
        <ele>2198.5</ele>
        <time>2018-04-21T13:05:15.000Z</time>
      </trkpt>
      <trkpt lat="40.791328" lon="-3.966826">
        <ele>2198.3</ele>
        <time>2018-04-21T13:05:16.000Z</time>
      </trkpt>
      <trkpt lat="40.791329" lon="-3.966837">
        <ele>2198.1</ele>
        <time>2018-04-21T13:05:17.000Z</time>
      </trkpt>
      <trkpt lat="40.79133" lon="-3.966848">
        <ele>2197.9</ele>
        <time>2018-04-21T13:05:18.000Z</time>
      </trkpt>
      <trkpt lat="40.79133" lon="-3.966859">
        <ele>2197.7</ele>
        <time>2018-04-21T13:05:19.000Z</time>
      </trkpt>
      <trkpt lat="40.791331" lon="-3.96687">
        <ele>2197.4</ele>
        <time>2018-04-21T13:05:20.000Z</time>
      </trkpt>
      <trkpt lat="40.791331" lon="-3.966881">
        <ele>2197.2</ele>
        <time>2018-04-21T13:05:21.000Z</time>
      </trkpt>
      <trkpt lat="40.79133" lon="-3.966893">
        <ele>2197.0</ele>
        <time>2018-04-21T13:05:22.000Z</time>
      </trkpt>
      <trkpt lat="40.79133" lon="-3.966904">
        <ele>2196.8</ele>
        <time>2018-04-21T13:05:23.000Z</time>
      </trkpt>
      <trkpt lat="40.791329" lon="-3.966916">
        <ele>2196.5</ele>
        <time>2018-04-21T13:05:24.000Z</time>
      </trkpt>
      <trkpt lat="40.791328" lon="-3.966928">
        <ele>2196.3</ele>
        <time>2018-04-21T13:05:25.000Z</time>
      </trkpt>
      <trkpt lat="40.791327" lon="-3.96694">
        <ele>2196.0</ele>
        <time>2018-04-21T13:05:26.000Z</time>
      </trkpt>
      <trkpt lat="40.791325" lon="-3.966952">
        <ele>2195.8</ele>
        <time>2018-04-21T13:05:27.000Z</time>
      </trkpt>
      <trkpt lat="40.791324" lon="-3.966964">
        <ele>2195.5</ele>
        <time>2018-04-21T13:05:28.000Z</time>
      </trkpt>
      <trkpt lat="40.791323" lon="-3.966977">
        <ele>2195.3</ele>
        <time>2018-04-21T13:05:29.000Z</time>
      </trkpt>
      <trkpt lat="40.791322" lon="-3.96699">
        <ele>2195.0</ele>
        <time>2018-04-21T13:05:30.000Z</time>
      </trkpt>
      <trkpt lat="40.791321" lon="-3.967003">
        <ele>2194.7</ele>
        <time>2018-04-21T13:05:31.000Z</time>
      </trkpt>
      <trkpt lat="40.791319" lon="-3.967017">
        <ele>2194.4</ele>
        <time>2018-04-21T13:05:32.000Z</time>
      </trkpt>
      <trkpt lat="40.791318" lon="-3.96703">
        <ele>2194.2</ele>
        <time>2018-04-21T13:05:33.000Z</time>
      </trkpt>
      <trkpt lat="40.791317" lon="-3.967044">
        <ele>2193.9</ele>
        <time>2018-04-21T13:05:34.000Z</time>
      </trkpt>
      <trkpt lat="40.791315" lon="-3.967057">
        <ele>2193.6</ele>
        <time>2018-04-21T13:05:35.000Z</time>
      </trkpt>
      <trkpt lat="40.791314" lon="-3.967071">
        <ele>2193.3</ele>
        <time>2018-04-21T13:05:36.000Z</time>
      </trkpt>
      <trkpt lat="40.791312" lon="-3.967084">
        <ele>2193.1</ele>
        <time>2018-04-21T13:05:37.000Z</time>
      </trkpt>
      <trkpt lat="40.791311" lon="-3.967098">
        <ele>2192.8</ele>
        <time>2018-04-21T13:05:38.000Z</time>
      </trkpt>
      <trkpt lat="40.791309" lon="-3.967111">
        <ele>2192.5</ele>
        <time>2018-04-21T13:05:39.000Z</time>
      </trkpt>
      <trkpt lat="40.791307" lon="-3.967124">
        <ele>2192.2</ele>
        <time>2018-04-21T13:05:40.000Z</time>
      </trkpt>
      <trkpt lat="40.791305" lon="-3.967138">
        <ele>2192.0</ele>
        <time>2018-04-21T13:05:41.000Z</time>
      </trkpt>
      <trkpt lat="40.791303" lon="-3.967151">
        <ele>2191.7</ele>
        <time>2018-04-21T13:05:42.000Z</time>
      </trkpt>
      <trkpt lat="40.791301" lon="-3.967164">
        <ele>2191.4</ele>
        <time>2018-04-21T13:05:43.000Z</time>
      </trkpt>
      <trkpt lat="40.791299" lon="-3.967176">
        <ele>2191.2</ele>
        <time>2018-04-21T13:05:44.000Z</time>
      </trkpt>
      <trkpt lat="40.791296" lon="-3.967189">
        <ele>2190.9</ele>
        <time>2018-04-21T13:05:45.000Z</time>
      </trkpt>
      <trkpt lat="40.791293" lon="-3.967201">
        <ele>2190.7</ele>
        <time>2018-04-21T13:05:46.000Z</time>
      </trkpt>
      <trkpt lat="40.79129" lon="-3.967214">
        <ele>2190.4</ele>
        <time>2018-04-21T13:05:47.000Z</time>
      </trkpt>
      <trkpt lat="40.791286" lon="-3.967227">
        <ele>2190.1</ele>
        <time>2018-04-21T13:05:48.000Z</time>
      </trkpt>
      <trkpt lat="40.791282" lon="-3.967239">
        <ele>2189.9</ele>
        <time>2018-04-21T13:05:49.000Z</time>
      </trkpt>
      <trkpt lat="40.791278" lon="-3.967252">
        <ele>2189.6</ele>
        <time>2018-04-21T13:05:50.000Z</time>
      </trkpt>
      <trkpt lat="40.791273" lon="-3.967265">
        <ele>2189.3</ele>
        <time>2018-04-21T13:05:51.000Z</time>
      </trkpt>
      <trkpt lat="40.791267" lon="-3.967278">
        <ele>2189.0</ele>
        <time>2018-04-21T13:05:52.000Z</time>
      </trkpt>
      <trkpt lat="40.791262" lon="-3.967291">
        <ele>2188.8</ele>
        <time>2018-04-21T13:05:53.000Z</time>
      </trkpt>
      <trkpt lat="40.791256" lon="-3.967304">
        <ele>2188.5</ele>
        <time>2018-04-21T13:05:54.000Z</time>
      </trkpt>
      <trkpt lat="40.79125" lon="-3.967317">
        <ele>2188.2</ele>
        <time>2018-04-21T13:05:55.000Z</time>
      </trkpt>
      <trkpt lat="40.791244" lon="-3.96733">
        <ele>2188.0</ele>
        <time>2018-04-21T13:05:56.000Z</time>
      </trkpt>
      <trkpt lat="40.791238" lon="-3.967342">
        <ele>2187.7</ele>
        <time>2018-04-21T13:05:57.000Z</time>
      </trkpt>
      <trkpt lat="40.791232" lon="-3.967354">
        <ele>2187.5</ele>
        <time>2018-04-21T13:05:58.000Z</time>
      </trkpt>
      <trkpt lat="40.791227" lon="-3.967366">
        <ele>2187.2</ele>
        <time>2018-04-21T13:05:59.000Z</time>
      </trkpt>
      <trkpt lat="40.791222" lon="-3.967377">
        <ele>2187.0</ele>
        <time>2018-04-21T13:06:00.000Z</time>
      </trkpt>
      <trkpt lat="40.791217" lon="-3.967389">
        <ele>2186.7</ele>
        <time>2018-04-21T13:06:01.000Z</time>
      </trkpt>
      <trkpt lat="40.791213" lon="-3.9674">
        <ele>2186.5</ele>
        <time>2018-04-21T13:06:02.000Z</time>
      </trkpt>
      <trkpt lat="40.791209" lon="-3.967411">
        <ele>2186.3</ele>
        <time>2018-04-21T13:06:03.000Z</time>
      </trkpt>
      <trkpt lat="40.791206" lon="-3.967422">
        <ele>2186.0</ele>
        <time>2018-04-21T13:06:04.000Z</time>
      </trkpt>
      <trkpt lat="40.791203" lon="-3.967433">
        <ele>2185.8</ele>
        <time>2018-04-21T13:06:05.000Z</time>
      </trkpt>
      <trkpt lat="40.7912" lon="-3.967445">
        <ele>2185.6</ele>
        <time>2018-04-21T13:06:06.000Z</time>
      </trkpt>
      <trkpt lat="40.791198" lon="-3.967456">
        <ele>2185.3</ele>
        <time>2018-04-21T13:06:07.000Z</time>
      </trkpt>
      <trkpt lat="40.791197" lon="-3.967468">
        <ele>2185.1</ele>
        <time>2018-04-21T13:06:08.000Z</time>
      </trkpt>
      <trkpt lat="40.791195" lon="-3.967481">
        <ele>2184.8</ele>
        <time>2018-04-21T13:06:09.000Z</time>
      </trkpt>
      <trkpt lat="40.791195" lon="-3.967494">
        <ele>2184.6</ele>
        <time>2018-04-21T13:06:10.000Z</time>
      </trkpt>
      <trkpt lat="40.791195" lon="-3.967507">
        <ele>2184.3</ele>
        <time>2018-04-21T13:06:11.000Z</time>
      </trkpt>
      <trkpt lat="40.791196" lon="-3.967521">
        <ele>2184.1</ele>
        <time>2018-04-21T13:06:12.000Z</time>
      </trkpt>
      <trkpt lat="40.791197" lon="-3.967535">
        <ele>2183.9</ele>
        <time>2018-04-21T13:06:13.000Z</time>
      </trkpt>
      <trkpt lat="40.791198" lon="-3.96755">
        <ele>2183.6</ele>
        <time>2018-04-21T13:06:14.000Z</time>
      </trkpt>
      <trkpt lat="40.791199" lon="-3.967564">
        <ele>2183.4</ele>
        <time>2018-04-21T13:06:15.000Z</time>
      </trkpt>
      <trkpt lat="40.791201" lon="-3.967579">
        <ele>2183.2</ele>
        <time>2018-04-21T13:06:16.000Z</time>
      </trkpt>
      <trkpt lat="40.791202" lon="-3.967593">
        <ele>2182.9</ele>
        <time>2018-04-21T13:06:17.000Z</time>
      </trkpt>
      <trkpt lat="40.791202" lon="-3.967606">
        <ele>2182.7</ele>
        <time>2018-04-21T13:06:18.000Z</time>
      </trkpt>
      <trkpt lat="40.791201" lon="-3.967619">
        <ele>2182.5</ele>
        <time>2018-04-21T13:06:19.000Z</time>
      </trkpt>
      <trkpt lat="40.791199" lon="-3.96763">
        <ele>2182.3</ele>
        <time>2018-04-21T13:06:20.000Z</time>
      </trkpt>
      <trkpt lat="40.791196" lon="-3.967641">
        <ele>2182.2</ele>
        <time>2018-04-21T13:06:21.000Z</time>
      </trkpt>
      <trkpt lat="40.791192" lon="-3.967651">
        <ele>2182.0</ele>
        <time>2018-04-21T13:06:22.000Z</time>
      </trkpt>
      <trkpt lat="40.791187" lon="-3.96766">
        <ele>2181.9</ele>
        <time>2018-04-21T13:06:23.000Z</time>
      </trkpt>
      <trkpt lat="40.791182" lon="-3.967669">
        <ele>2181.7</ele>
        <time>2018-04-21T13:06:24.000Z</time>
      </trkpt>
      <trkpt lat="40.791176" lon="-3.967678">
        <ele>2181.6</ele>
        <time>2018-04-21T13:06:25.000Z</time>
      </trkpt>
      <trkpt lat="40.79117" lon="-3.967688">
        <ele>2181.4</ele>
        <time>2018-04-21T13:06:26.000Z</time>
      </trkpt>
      <trkpt lat="40.791164" lon="-3.967697">
        <ele>2181.3</ele>
        <time>2018-04-21T13:06:27.000Z</time>
      </trkpt>
      <trkpt lat="40.791158" lon="-3.967707">
        <ele>2181.1</ele>
        <time>2018-04-21T13:06:28.000Z</time>
      </trkpt>
      <trkpt lat="40.791152" lon="-3.967718">
        <ele>2181.0</ele>
        <time>2018-04-21T13:06:29.000Z</time>
      </trkpt>
      <trkpt lat="40.791147" lon="-3.967729">
        <ele>2180.8</ele>
        <time>2018-04-21T13:06:30.000Z</time>
      </trkpt>
      <trkpt lat="40.791141" lon="-3.96774">
        <ele>2180.6</ele>
        <time>2018-04-21T13:06:31.000Z</time>
      </trkpt>
      <trkpt lat="40.791136" lon="-3.967751">
        <ele>2180.5</ele>
        <time>2018-04-21T13:06:32.000Z</time>
      </trkpt>
      <trkpt lat="40.791132" lon="-3.967763">
        <ele>2180.3</ele>
        <time>2018-04-21T13:06:33.000Z</time>
      </trkpt>
      <trkpt lat="40.791128" lon="-3.967774">
        <ele>2180.1</ele>
        <time>2018-04-21T13:06:34.000Z</time>
      </trkpt>
      <trkpt lat="40.791125" lon="-3.967786">
        <ele>2180.0</ele>
        <time>2018-04-21T13:06:35.000Z</time>
      </trkpt>
      <trkpt lat="40.791123" lon="-3.967798">
        <ele>2179.8</ele>
        <time>2018-04-21T13:06:36.000Z</time>
      </trkpt>
      <trkpt lat="40.79112" lon="-3.967809">
        <ele>2179.6</ele>
        <time>2018-04-21T13:06:37.000Z</time>
      </trkpt>
      <trkpt lat="40.791119" lon="-3.967821">
        <ele>2179.4</ele>
        <time>2018-04-21T13:06:38.000Z</time>
      </trkpt>
      <trkpt lat="40.791117" lon="-3.967833">
        <ele>2179.3</ele>
        <time>2018-04-21T13:06:39.000Z</time>
      </trkpt>
      <trkpt lat="40.791115" lon="-3.967845">
        <ele>2179.1</ele>
        <time>2018-04-21T13:06:40.000Z</time>
      </trkpt>
      <trkpt lat="40.791113" lon="-3.967857">
        <ele>2178.9</ele>
        <time>2018-04-21T13:06:41.000Z</time>
      </trkpt>
      <trkpt lat="40.79111" lon="-3.96787">
        <ele>2178.7</ele>
        <time>2018-04-21T13:06:42.000Z</time>
      </trkpt>
      <trkpt lat="40.791108" lon="-3.967882">
        <ele>2178.5</ele>
        <time>2018-04-21T13:06:43.000Z</time>
      </trkpt>
      <trkpt lat="40.791104" lon="-3.967895">
        <ele>2178.4</ele>
        <time>2018-04-21T13:06:44.000Z</time>
      </trkpt>
      <trkpt lat="40.791101" lon="-3.967907">
        <ele>2178.2</ele>
        <time>2018-04-21T13:06:45.000Z</time>
      </trkpt>
      <trkpt lat="40.791097" lon="-3.96792">
        <ele>2178.0</ele>
        <time>2018-04-21T13:06:46.000Z</time>
      </trkpt>
      <trkpt lat="40.791094" lon="-3.967933">
        <ele>2177.8</ele>
        <time>2018-04-21T13:06:47.000Z</time>
      </trkpt>
      <trkpt lat="40.79109" lon="-3.967946">
        <ele>2177.6</ele>
        <time>2018-04-21T13:06:48.000Z</time>
      </trkpt>
      <trkpt lat="40.791085" lon="-3.967959">
        <ele>2177.5</ele>
        <time>2018-04-21T13:06:49.000Z</time>
      </trkpt>
      <trkpt lat="40.791081" lon="-3.967972">
        <ele>2177.3</ele>
        <time>2018-04-21T13:06:50.000Z</time>
      </trkpt>
      <trkpt lat="40.791076" lon="-3.967985">
        <ele>2177.1</ele>
        <time>2018-04-21T13:06:51.000Z</time>
      </trkpt>
      <trkpt lat="40.791072" lon="-3.967998">
        <ele>2176.9</ele>
        <time>2018-04-21T13:06:52.000Z</time>
      </trkpt>
      <trkpt lat="40.791067" lon="-3.968011">
        <ele>2176.8</ele>
        <time>2018-04-21T13:06:53.000Z</time>
      </trkpt>
      <trkpt lat="40.791063" lon="-3.968024">
        <ele>2176.6</ele>
        <time>2018-04-21T13:06:54.000Z</time>
      </trkpt>
      <trkpt lat="40.791058" lon="-3.968037">
        <ele>2176.4</ele>
        <time>2018-04-21T13:06:55.000Z</time>
      </trkpt>
      <trkpt lat="40.791053" lon="-3.96805">
        <ele>2176.3</ele>
        <time>2018-04-21T13:06:56.000Z</time>
      </trkpt>
      <trkpt lat="40.791049" lon="-3.968062">
        <ele>2176.1</ele>
        <time>2018-04-21T13:06:57.000Z</time>
      </trkpt>
      <trkpt lat="40.791044" lon="-3.968075">
        <ele>2176.0</ele>
        <time>2018-04-21T13:06:58.000Z</time>
      </trkpt>
      <trkpt lat="40.79104" lon="-3.968088">
        <ele>2175.8</ele>
        <time>2018-04-21T13:06:59.000Z</time>
      </trkpt>
      <trkpt lat="40.791035" lon="-3.9681">
        <ele>2175.6</ele>
        <time>2018-04-21T13:07:00.000Z</time>
      </trkpt>
      <trkpt lat="40.79103" lon="-3.968113">
        <ele>2175.5</ele>
        <time>2018-04-21T13:07:01.000Z</time>
      </trkpt>
      <trkpt lat="40.791025" lon="-3.968125">
        <ele>2175.4</ele>
        <time>2018-04-21T13:07:02.000Z</time>
      </trkpt>
      <trkpt lat="40.79102" lon="-3.968138">
        <ele>2175.2</ele>
        <time>2018-04-21T13:07:03.000Z</time>
      </trkpt>
      <trkpt lat="40.791015" lon="-3.968151">
        <ele>2175.0</ele>
        <time>2018-04-21T13:07:04.000Z</time>
      </trkpt>
      <trkpt lat="40.791009" lon="-3.968163">
        <ele>2174.9</ele>
        <time>2018-04-21T13:07:05.000Z</time>
      </trkpt>
      <trkpt lat="40.791003" lon="-3.968176">
        <ele>2174.8</ele>
        <time>2018-04-21T13:07:06.000Z</time>
      </trkpt>
      <trkpt lat="40.790997" lon="-3.968188">
        <ele>2174.6</ele>
        <time>2018-04-21T13:07:07.000Z</time>
      </trkpt>
      <trkpt lat="40.790992" lon="-3.968199">
        <ele>2174.5</ele>
        <time>2018-04-21T13:07:08.000Z</time>
      </trkpt>
      <trkpt lat="40.790987" lon="-3.96821">
        <ele>2174.4</ele>
        <time>2018-04-21T13:07:09.000Z</time>
      </trkpt>
      <trkpt lat="40.790984" lon="-3.96822">
        <ele>2174.3</ele>
        <time>2018-04-21T13:07:10.000Z</time>
      </trkpt>
      <trkpt lat="40.790983" lon="-3.968231">
        <ele>2174.1</ele>
        <time>2018-04-21T13:07:11.000Z</time>
      </trkpt>
      <trkpt lat="40.790985" lon="-3.968242">
        <ele>2174.0</ele>
        <time>2018-04-21T13:07:12.000Z</time>
      </trkpt>
      <trkpt lat="40.79099" lon="-3.968254">
        <ele>2173.8</ele>
        <time>2018-04-21T13:07:13.000Z</time>
      </trkpt>
      <trkpt lat="40.790994" lon="-3.968267">
        <ele>2173.6</ele>
        <time>2018-04-21T13:07:14.000Z</time>
      </trkpt>
      <trkpt lat="40.790998" lon="-3.968279">
        <ele>2173.4</ele>
        <time>2018-04-21T13:07:15.000Z</time>
      </trkpt>
      <trkpt lat="40.791001" lon="-3.968291">
        <ele>2173.2</ele>
        <time>2018-04-21T13:07:16.000Z</time>
      </trkpt>
      <trkpt lat="40.791002" lon="-3.968302">
        <ele>2173.0</ele>
        <time>2018-04-21T13:07:17.000Z</time>
      </trkpt>
      <trkpt lat="40.791002" lon="-3.968313">
        <ele>2172.9</ele>
        <time>2018-04-21T13:07:18.000Z</time>
      </trkpt>
      <trkpt lat="40.791003" lon="-3.968324">
        <ele>2172.7</ele>
        <time>2018-04-21T13:07:19.000Z</time>
      </trkpt>
      <trkpt lat="40.791003" lon="-3.968334">
        <ele>2172.6</ele>
        <time>2018-04-21T13:07:20.000Z</time>
      </trkpt>
      <trkpt lat="40.791003" lon="-3.968345">
        <ele>2172.4</ele>
        <time>2018-04-21T13:07:21.000Z</time>
      </trkpt>
      <trkpt lat="40.791003" lon="-3.968355">
        <ele>2172.3</ele>
        <time>2018-04-21T13:07:22.000Z</time>
      </trkpt>
      <trkpt lat="40.791004" lon="-3.968365">
        <ele>2172.2</ele>
        <time>2018-04-21T13:07:23.000Z</time>
      </trkpt>
      <trkpt lat="40.791004" lon="-3.968376">
        <ele>2172.1</ele>
        <time>2018-04-21T13:07:24.000Z</time>
      </trkpt>
      <trkpt lat="40.791003" lon="-3.968387">
        <ele>2171.9</ele>
        <time>2018-04-21T13:07:25.000Z</time>
      </trkpt>
      <trkpt lat="40.791003" lon="-3.968398">
        <ele>2171.8</ele>
        <time>2018-04-21T13:07:26.000Z</time>
      </trkpt>
      <trkpt lat="40.791002" lon="-3.968409">
        <ele>2171.7</ele>
        <time>2018-04-21T13:07:27.000Z</time>
      </trkpt>
      <trkpt lat="40.791001" lon="-3.968421">
        <ele>2171.6</ele>
        <time>2018-04-21T13:07:28.000Z</time>
      </trkpt>
      <trkpt lat="40.791" lon="-3.968433">
        <ele>2171.4</ele>
        <time>2018-04-21T13:07:29.000Z</time>
      </trkpt>
      <trkpt lat="40.790999" lon="-3.968446">
        <ele>2171.3</ele>
        <time>2018-04-21T13:07:30.000Z</time>
      </trkpt>
      <trkpt lat="40.790998" lon="-3.968458">
        <ele>2171.2</ele>
        <time>2018-04-21T13:07:31.000Z</time>
      </trkpt>
      <trkpt lat="40.790996" lon="-3.96847">
        <ele>2171.0</ele>
        <time>2018-04-21T13:07:32.000Z</time>
      </trkpt>
      <trkpt lat="40.790995" lon="-3.968483">
        <ele>2170.9</ele>
        <time>2018-04-21T13:07:33.000Z</time>
      </trkpt>
      <trkpt lat="40.790993" lon="-3.968496">
        <ele>2170.8</ele>
        <time>2018-04-21T13:07:34.000Z</time>
      </trkpt>
      <trkpt lat="40.790992" lon="-3.968508">
        <ele>2170.6</ele>
        <time>2018-04-21T13:07:35.000Z</time>
      </trkpt>
      <trkpt lat="40.79099" lon="-3.968521">
        <ele>2170.5</ele>
        <time>2018-04-21T13:07:36.000Z</time>
      </trkpt>
      <trkpt lat="40.790988" lon="-3.968533">
        <ele>2170.4</ele>
        <time>2018-04-21T13:07:37.000Z</time>
      </trkpt>
      <trkpt lat="40.790987" lon="-3.968545">
        <ele>2170.2</ele>
        <time>2018-04-21T13:07:38.000Z</time>
      </trkpt>
      <trkpt lat="40.790985" lon="-3.968558">
        <ele>2170.1</ele>
        <time>2018-04-21T13:07:39.000Z</time>
      </trkpt>
      <trkpt lat="40.790983" lon="-3.968569">
        <ele>2170.0</ele>
        <time>2018-04-21T13:07:40.000Z</time>
      </trkpt>
      <trkpt lat="40.790982" lon="-3.968581">
        <ele>2169.9</ele>
        <time>2018-04-21T13:07:41.000Z</time>
      </trkpt>
      <trkpt lat="40.79098" lon="-3.968593">
        <ele>2169.7</ele>
        <time>2018-04-21T13:07:42.000Z</time>
      </trkpt>
      <trkpt lat="40.790979" lon="-3.968604">
        <ele>2169.6</ele>
        <time>2018-04-21T13:07:43.000Z</time>
      </trkpt>
      <trkpt lat="40.790977" lon="-3.968615">
        <ele>2169.5</ele>
        <time>2018-04-21T13:07:44.000Z</time>
      </trkpt>
      <trkpt lat="40.790975" lon="-3.968625">
        <ele>2169.4</ele>
        <time>2018-04-21T13:07:45.000Z</time>
      </trkpt>
      <trkpt lat="40.790973" lon="-3.968636">
        <ele>2169.3</ele>
        <time>2018-04-21T13:07:46.000Z</time>
      </trkpt>
      <trkpt lat="40.790971" lon="-3.968646">
        <ele>2169.2</ele>
        <time>2018-04-21T13:07:47.000Z</time>
      </trkpt>
      <trkpt lat="40.790968" lon="-3.968656">
        <ele>2169.1</ele>
        <time>2018-04-21T13:07:48.000Z</time>
      </trkpt>
      <trkpt lat="40.790965" lon="-3.968666">
        <ele>2169.0</ele>
        <time>2018-04-21T13:07:49.000Z</time>
      </trkpt>
      <trkpt lat="40.790962" lon="-3.968676">
        <ele>2169.0</ele>
        <time>2018-04-21T13:07:50.000Z</time>
      </trkpt>
      <trkpt lat="40.790958" lon="-3.968686">
        <ele>2168.9</ele>
        <time>2018-04-21T13:07:51.000Z</time>
      </trkpt>
      <trkpt lat="40.790954" lon="-3.968696">
        <ele>2168.8</ele>
        <time>2018-04-21T13:07:52.000Z</time>
      </trkpt>
      <trkpt lat="40.790949" lon="-3.968705">
        <ele>2168.8</ele>
        <time>2018-04-21T13:07:53.000Z</time>
      </trkpt>
      <trkpt lat="40.790943" lon="-3.968715">
        <ele>2168.7</ele>
        <time>2018-04-21T13:07:54.000Z</time>
      </trkpt>
      <trkpt lat="40.790937" lon="-3.968724">
        <ele>2168.7</ele>
        <time>2018-04-21T13:07:55.000Z</time>
      </trkpt>
      <trkpt lat="40.79093" lon="-3.968733">
        <ele>2168.6</ele>
        <time>2018-04-21T13:07:56.000Z</time>
      </trkpt>
      <trkpt lat="40.790923" lon="-3.968742">
        <ele>2168.6</ele>
        <time>2018-04-21T13:07:57.000Z</time>
      </trkpt>
      <trkpt lat="40.790916" lon="-3.968751">
        <ele>2168.6</ele>
        <time>2018-04-21T13:07:58.000Z</time>
      </trkpt>
      <trkpt lat="40.790909" lon="-3.968759">
        <ele>2168.6</ele>
        <time>2018-04-21T13:07:59.000Z</time>
      </trkpt>
      <trkpt lat="40.790903" lon="-3.968766">
        <ele>2168.6</ele>
        <time>2018-04-21T13:08:00.000Z</time>
      </trkpt>
      <trkpt lat="40.790897" lon="-3.968773">
        <ele>2168.6</ele>
        <time>2018-04-21T13:08:01.000Z</time>
      </trkpt>
      <trkpt lat="40.790892" lon="-3.968779">
        <ele>2168.5</ele>
        <time>2018-04-21T13:08:02.000Z</time>
      </trkpt>
      <trkpt lat="40.790887" lon="-3.968784">
        <ele>2168.5</ele>
        <time>2018-04-21T13:08:03.000Z</time>
      </trkpt>
      <trkpt lat="40.790884" lon="-3.968788">
        <ele>2168.5</ele>
        <time>2018-04-21T13:08:04.000Z</time>
      </trkpt>
      <trkpt lat="40.790881" lon="-3.968792">
        <ele>2168.5</ele>
        <time>2018-04-21T13:08:05.000Z</time>
      </trkpt>
      <trkpt lat="40.790879" lon="-3.968796">
        <ele>2168.5</ele>
        <time>2018-04-21T13:08:06.000Z</time>
      </trkpt>
      <trkpt lat="40.790876" lon="-3.968799">
        <ele>2168.5</ele>
        <time>2018-04-21T13:08:07.000Z</time>
      </trkpt>
      <trkpt lat="40.790873" lon="-3.968803">
        <ele>2168.5</ele>
        <time>2018-04-21T13:08:08.000Z</time>
      </trkpt>
      <trkpt lat="40.79087" lon="-3.968807">
        <ele>2168.5</ele>
        <time>2018-04-21T13:08:09.000Z</time>
      </trkpt>
      <trkpt lat="40.790866" lon="-3.968812">
        <ele>2168.5</ele>
        <time>2018-04-21T13:08:10.000Z</time>
      </trkpt>
      <trkpt lat="40.790862" lon="-3.968818">
        <ele>2168.4</ele>
        <time>2018-04-21T13:08:11.000Z</time>
      </trkpt>
      <trkpt lat="40.790856" lon="-3.968824">
        <ele>2168.4</ele>
        <time>2018-04-21T13:08:12.000Z</time>
      </trkpt>
      <trkpt lat="40.79085" lon="-3.96883">
        <ele>2168.4</ele>
        <time>2018-04-21T13:08:13.000Z</time>
      </trkpt>
      <trkpt lat="40.790844" lon="-3.968837">
        <ele>2168.4</ele>
        <time>2018-04-21T13:08:14.000Z</time>
      </trkpt>
      <trkpt lat="40.790837" lon="-3.968844">
        <ele>2168.4</ele>
        <time>2018-04-21T13:08:15.000Z</time>
      </trkpt>
      <trkpt lat="40.79083" lon="-3.968852">
        <ele>2168.4</ele>
        <time>2018-04-21T13:08:16.000Z</time>
      </trkpt>
      <trkpt lat="40.790822" lon="-3.96886">
        <ele>2168.2</ele>
        <time>2018-04-21T13:08:17.000Z</time>
      </trkpt>
      <trkpt lat="40.790814" lon="-3.968867">
        <ele>2168.1</ele>
        <time>2018-04-21T13:08:18.000Z</time>
      </trkpt>
      <trkpt lat="40.790805" lon="-3.968875">
        <ele>2167.9</ele>
        <time>2018-04-21T13:08:19.000Z</time>
      </trkpt>
      <trkpt lat="40.790796" lon="-3.968883">
        <ele>2167.7</ele>
        <time>2018-04-21T13:08:20.000Z</time>
      </trkpt>
      <trkpt lat="40.790787" lon="-3.968891">
        <ele>2167.6</ele>
        <time>2018-04-21T13:08:21.000Z</time>
      </trkpt>
      <trkpt lat="40.790778" lon="-3.968899">
        <ele>2167.4</ele>
        <time>2018-04-21T13:08:22.000Z</time>
      </trkpt>
      <trkpt lat="40.790769" lon="-3.968906">
        <ele>2167.3</ele>
        <time>2018-04-21T13:08:23.000Z</time>
      </trkpt>
      <trkpt lat="40.79076" lon="-3.968914">
        <ele>2167.1</ele>
        <time>2018-04-21T13:08:24.000Z</time>
      </trkpt>
      <trkpt lat="40.790751" lon="-3.968921">
        <ele>2167.0</ele>
        <time>2018-04-21T13:08:25.000Z</time>
      </trkpt>
      <trkpt lat="40.790741" lon="-3.968928">
        <ele>2166.8</ele>
        <time>2018-04-21T13:08:26.000Z</time>
      </trkpt>
      <trkpt lat="40.790732" lon="-3.968935">
        <ele>2166.7</ele>
        <time>2018-04-21T13:08:27.000Z</time>
      </trkpt>
      <trkpt lat="40.790723" lon="-3.968942">
        <ele>2166.5</ele>
        <time>2018-04-21T13:08:28.000Z</time>
      </trkpt>
      <trkpt lat="40.790713" lon="-3.968948">
        <ele>2166.4</ele>
        <time>2018-04-21T13:08:29.000Z</time>
      </trkpt>
      <trkpt lat="40.790704" lon="-3.968955">
        <ele>2166.2</ele>
        <time>2018-04-21T13:08:30.000Z</time>
      </trkpt>
      <trkpt lat="40.790695" lon="-3.968962">
        <ele>2166.1</ele>
        <time>2018-04-21T13:08:31.000Z</time>
      </trkpt>
      <trkpt lat="40.790686" lon="-3.968969">
        <ele>2166.0</ele>
        <time>2018-04-21T13:08:32.000Z</time>
      </trkpt>
      <trkpt lat="40.790677" lon="-3.968977">
        <ele>2165.8</ele>
        <time>2018-04-21T13:08:33.000Z</time>
      </trkpt>
      <trkpt lat="40.790668" lon="-3.968984">
        <ele>2165.7</ele>
        <time>2018-04-21T13:08:34.000Z</time>
      </trkpt>
      <trkpt lat="40.790659" lon="-3.968992">
        <ele>2165.5</ele>
        <time>2018-04-21T13:08:35.000Z</time>
      </trkpt>
      <trkpt lat="40.79065" lon="-3.969">
        <ele>2165.4</ele>
        <time>2018-04-21T13:08:36.000Z</time>
      </trkpt>
      <trkpt lat="40.790641" lon="-3.969009">
        <ele>2165.2</ele>
        <time>2018-04-21T13:08:37.000Z</time>
      </trkpt>
      <trkpt lat="40.790633" lon="-3.969018">
        <ele>2165.1</ele>
        <time>2018-04-21T13:08:38.000Z</time>
      </trkpt>
      <trkpt lat="40.790625" lon="-3.969027">
        <ele>2165.0</ele>
        <time>2018-04-21T13:08:39.000Z</time>
      </trkpt>
      <trkpt lat="40.790617" lon="-3.969037">
        <ele>2164.8</ele>
        <time>2018-04-21T13:08:40.000Z</time>
      </trkpt>
      <trkpt lat="40.790608" lon="-3.969047">
        <ele>2164.7</ele>
        <time>2018-04-21T13:08:41.000Z</time>
      </trkpt>
      <trkpt lat="40.7906" lon="-3.969057">
        <ele>2164.5</ele>
        <time>2018-04-21T13:08:42.000Z</time>
      </trkpt>
      <trkpt lat="40.790592" lon="-3.969067">
        <ele>2164.4</ele>
        <time>2018-04-21T13:08:43.000Z</time>
      </trkpt>
      <trkpt lat="40.790583" lon="-3.969076">
        <ele>2164.2</ele>
        <time>2018-04-21T13:08:44.000Z</time>
      </trkpt>
      <trkpt lat="40.790575" lon="-3.969085">
        <ele>2164.1</ele>
        <time>2018-04-21T13:08:45.000Z</time>
      </trkpt>
      <trkpt lat="40.790566" lon="-3.969093">
        <ele>2164.0</ele>
        <time>2018-04-21T13:08:46.000Z</time>
      </trkpt>
      <trkpt lat="40.790556" lon="-3.969101">
        <ele>2163.9</ele>
        <time>2018-04-21T13:08:47.000Z</time>
      </trkpt>
      <trkpt lat="40.790547" lon="-3.969108">
        <ele>2163.7</ele>
        <time>2018-04-21T13:08:48.000Z</time>
      </trkpt>
      <trkpt lat="40.790537" lon="-3.969115">
        <ele>2163.6</ele>
        <time>2018-04-21T13:08:49.000Z</time>
      </trkpt>
      <trkpt lat="40.790528" lon="-3.969121">
        <ele>2163.5</ele>
        <time>2018-04-21T13:08:50.000Z</time>
      </trkpt>
      <trkpt lat="40.790518" lon="-3.969128">
        <ele>2163.4</ele>
        <time>2018-04-21T13:08:51.000Z</time>
      </trkpt>
      <trkpt lat="40.790509" lon="-3.969136">
        <ele>2163.3</ele>
        <time>2018-04-21T13:08:52.000Z</time>
      </trkpt>
      <trkpt lat="40.7905" lon="-3.969145">
        <ele>2163.2</ele>
        <time>2018-04-21T13:08:53.000Z</time>
      </trkpt>
      <trkpt lat="40.790492" lon="-3.969154">
        <ele>2163.0</ele>
        <time>2018-04-21T13:08:54.000Z</time>
      </trkpt>
      <trkpt lat="40.790485" lon="-3.969165">
        <ele>2162.9</ele>
        <time>2018-04-21T13:08:55.000Z</time>
      </trkpt>
      <trkpt lat="40.790478" lon="-3.969176">
        <ele>2162.8</ele>
        <time>2018-04-21T13:08:56.000Z</time>
      </trkpt>
      <trkpt lat="40.790471" lon="-3.969188">
        <ele>2162.7</ele>
        <time>2018-04-21T13:08:57.000Z</time>
      </trkpt>
      <trkpt lat="40.790465" lon="-3.969201">
        <ele>2162.7</ele>
        <time>2018-04-21T13:08:58.000Z</time>
      </trkpt>
      <trkpt lat="40.790459" lon="-3.969214">
        <ele>2162.6</ele>
        <time>2018-04-21T13:08:59.000Z</time>
      </trkpt>
      <trkpt lat="40.790454" lon="-3.969227">
        <ele>2162.5</ele>
        <time>2018-04-21T13:09:00.000Z</time>
      </trkpt>
      <trkpt lat="40.790448" lon="-3.969241">
        <ele>2162.4</ele>
        <time>2018-04-21T13:09:01.000Z</time>
      </trkpt>
      <trkpt lat="40.790443" lon="-3.969255">
        <ele>2162.3</ele>
        <time>2018-04-21T13:09:02.000Z</time>
      </trkpt>
      <trkpt lat="40.790438" lon="-3.969268">
        <ele>2162.2</ele>
        <time>2018-04-21T13:09:03.000Z</time>
      </trkpt>
      <trkpt lat="40.790433" lon="-3.969282">
        <ele>2162.2</ele>
        <time>2018-04-21T13:09:04.000Z</time>
      </trkpt>
      <trkpt lat="40.790428" lon="-3.969296">
        <ele>2162.1</ele>
        <time>2018-04-21T13:09:05.000Z</time>
      </trkpt>
      <trkpt lat="40.790423" lon="-3.969309">
        <ele>2162.0</ele>
        <time>2018-04-21T13:09:06.000Z</time>
      </trkpt>
      <trkpt lat="40.790417" lon="-3.969322">
        <ele>2161.9</ele>
        <time>2018-04-21T13:09:07.000Z</time>
      </trkpt>
      <trkpt lat="40.790411" lon="-3.969334">
        <ele>2161.9</ele>
        <time>2018-04-21T13:09:08.000Z</time>
      </trkpt>
      <trkpt lat="40.790405" lon="-3.969346">
        <ele>2161.8</ele>
        <time>2018-04-21T13:09:09.000Z</time>
      </trkpt>
      <trkpt lat="40.790398" lon="-3.969357">
        <ele>2161.7</ele>
        <time>2018-04-21T13:09:10.000Z</time>
      </trkpt>
      <trkpt lat="40.790391" lon="-3.969368">
        <ele>2161.7</ele>
        <time>2018-04-21T13:09:11.000Z</time>
      </trkpt>
      <trkpt lat="40.790383" lon="-3.969379">
        <ele>2161.6</ele>
        <time>2018-04-21T13:09:12.000Z</time>
      </trkpt>
      <trkpt lat="40.790376" lon="-3.96939">
        <ele>2161.5</ele>
        <time>2018-04-21T13:09:13.000Z</time>
      </trkpt>
      <trkpt lat="40.790368" lon="-3.9694">
        <ele>2161.5</ele>
        <time>2018-04-21T13:09:14.000Z</time>
      </trkpt>
      <trkpt lat="40.79036" lon="-3.96941">
        <ele>2161.4</ele>
        <time>2018-04-21T13:09:15.000Z</time>
      </trkpt>
      <trkpt lat="40.790353" lon="-3.969421">
        <ele>2161.3</ele>
        <time>2018-04-21T13:09:16.000Z</time>
      </trkpt>
      <trkpt lat="40.790345" lon="-3.969432">
        <ele>2161.3</ele>
        <time>2018-04-21T13:09:17.000Z</time>
      </trkpt>
      <trkpt lat="40.790338" lon="-3.969442">
        <ele>2161.2</ele>
        <time>2018-04-21T13:09:18.000Z</time>
      </trkpt>
      <trkpt lat="40.79033" lon="-3.969453">
        <ele>2161.2</ele>
        <time>2018-04-21T13:09:19.000Z</time>
      </trkpt>
      <trkpt lat="40.790323" lon="-3.969464">
        <ele>2161.1</ele>
        <time>2018-04-21T13:09:20.000Z</time>
      </trkpt>
      <trkpt lat="40.790316" lon="-3.969475">
        <ele>2161.1</ele>
        <time>2018-04-21T13:09:21.000Z</time>
      </trkpt>
      <trkpt lat="40.790309" lon="-3.969487">
        <ele>2161.0</ele>
        <time>2018-04-21T13:09:22.000Z</time>
      </trkpt>
      <trkpt lat="40.790302" lon="-3.969499">
        <ele>2160.9</ele>
        <time>2018-04-21T13:09:23.000Z</time>
      </trkpt>
      <trkpt lat="40.790295" lon="-3.969511">
        <ele>2160.9</ele>
        <time>2018-04-21T13:09:24.000Z</time>
      </trkpt>
      <trkpt lat="40.790288" lon="-3.969523">
        <ele>2160.8</ele>
        <time>2018-04-21T13:09:25.000Z</time>
      </trkpt>
      <trkpt lat="40.790282" lon="-3.969536">
        <ele>2160.8</ele>
        <time>2018-04-21T13:09:26.000Z</time>
      </trkpt>
      <trkpt lat="40.790275" lon="-3.969548">
        <ele>2160.7</ele>
        <time>2018-04-21T13:09:27.000Z</time>
      </trkpt>
      <trkpt lat="40.790268" lon="-3.969561">
        <ele>2160.7</ele>
        <time>2018-04-21T13:09:28.000Z</time>
      </trkpt>
      <trkpt lat="40.790262" lon="-3.969574">
        <ele>2160.6</ele>
        <time>2018-04-21T13:09:29.000Z</time>
      </trkpt>
      <trkpt lat="40.790255" lon="-3.969587">
        <ele>2160.6</ele>
        <time>2018-04-21T13:09:30.000Z</time>
      </trkpt>
      <trkpt lat="40.790248" lon="-3.9696">
        <ele>2160.6</ele>
        <time>2018-04-21T13:09:31.000Z</time>
      </trkpt>
      <trkpt lat="40.790242" lon="-3.969613">
        <ele>2160.5</ele>
        <time>2018-04-21T13:09:32.000Z</time>
      </trkpt>
      <trkpt lat="40.790235" lon="-3.969625">
        <ele>2160.5</ele>
        <time>2018-04-21T13:09:33.000Z</time>
      </trkpt>
      <trkpt lat="40.790228" lon="-3.969638">
        <ele>2160.4</ele>
        <time>2018-04-21T13:09:34.000Z</time>
      </trkpt>
      <trkpt lat="40.790221" lon="-3.96965">
        <ele>2160.4</ele>
        <time>2018-04-21T13:09:35.000Z</time>
      </trkpt>
      <trkpt lat="40.790214" lon="-3.969663">
        <ele>2160.4</ele>
        <time>2018-04-21T13:09:36.000Z</time>
      </trkpt>
      <trkpt lat="40.790207" lon="-3.969675">
        <ele>2160.3</ele>
        <time>2018-04-21T13:09:37.000Z</time>
      </trkpt>
      <trkpt lat="40.790199" lon="-3.969686">
        <ele>2160.3</ele>
        <time>2018-04-21T13:09:38.000Z</time>
      </trkpt>
      <trkpt lat="40.790192" lon="-3.969698">
        <ele>2160.3</ele>
        <time>2018-04-21T13:09:39.000Z</time>
      </trkpt>
      <trkpt lat="40.790184" lon="-3.969709">
        <ele>2160.2</ele>
        <time>2018-04-21T13:09:40.000Z</time>
      </trkpt>
      <trkpt lat="40.790177" lon="-3.96972">
        <ele>2160.2</ele>
        <time>2018-04-21T13:09:41.000Z</time>
      </trkpt>
      <trkpt lat="40.790169" lon="-3.969731">
        <ele>2160.2</ele>
        <time>2018-04-21T13:09:42.000Z</time>
      </trkpt>
      <trkpt lat="40.790161" lon="-3.969742">
        <ele>2160.2</ele>
        <time>2018-04-21T13:09:43.000Z</time>
      </trkpt>
      <trkpt lat="40.790152" lon="-3.969752">
        <ele>2160.1</ele>
        <time>2018-04-21T13:09:44.000Z</time>
      </trkpt>
      <trkpt lat="40.790144" lon="-3.969763">
        <ele>2160.1</ele>
        <time>2018-04-21T13:09:45.000Z</time>
      </trkpt>
      <trkpt lat="40.790136" lon="-3.969773">
        <ele>2160.1</ele>
        <time>2018-04-21T13:09:46.000Z</time>
      </trkpt>
      <trkpt lat="40.790128" lon="-3.969784">
        <ele>2160.1</ele>
        <time>2018-04-21T13:09:47.000Z</time>
      </trkpt>
      <trkpt lat="40.790119" lon="-3.969794">
        <ele>2160.1</ele>
        <time>2018-04-21T13:09:48.000Z</time>
      </trkpt>
      <trkpt lat="40.790111" lon="-3.969804">
        <ele>2160.1</ele>
        <time>2018-04-21T13:09:49.000Z</time>
      </trkpt>
      <trkpt lat="40.790102" lon="-3.969815">
        <ele>2160.0</ele>
        <time>2018-04-21T13:09:50.000Z</time>
      </trkpt>
      <trkpt lat="40.790093" lon="-3.969825">
        <ele>2160.0</ele>
        <time>2018-04-21T13:09:51.000Z</time>
      </trkpt>
      <trkpt lat="40.790085" lon="-3.969836">
        <ele>2160.0</ele>
        <time>2018-04-21T13:09:52.000Z</time>
      </trkpt>
      <trkpt lat="40.790076" lon="-3.969846">
        <ele>2160.0</ele>
        <time>2018-04-21T13:09:53.000Z</time>
      </trkpt>
      <trkpt lat="40.790068" lon="-3.969857">
        <ele>2160.0</ele>
        <time>2018-04-21T13:09:54.000Z</time>
      </trkpt>
      <trkpt lat="40.79006" lon="-3.969868">
        <ele>2160.0</ele>
        <time>2018-04-21T13:09:55.000Z</time>
      </trkpt>
      <trkpt lat="40.790052" lon="-3.96988">
        <ele>2160.0</ele>
        <time>2018-04-21T13:09:56.000Z</time>
      </trkpt>
      <trkpt lat="40.790045" lon="-3.969892">
        <ele>2160.0</ele>
        <time>2018-04-21T13:09:57.000Z</time>
      </trkpt>
      <trkpt lat="40.790038" lon="-3.969905">
        <ele>2160.0</ele>
        <time>2018-04-21T13:09:58.000Z</time>
      </trkpt>
      <trkpt lat="40.790033" lon="-3.969918">
        <ele>2160.0</ele>
        <time>2018-04-21T13:09:59.000Z</time>
      </trkpt>
      <trkpt lat="40.790028" lon="-3.969933">
        <ele>2160.0</ele>
        <time>2018-04-21T13:10:00.000Z</time>
      </trkpt>
      <trkpt lat="40.790025" lon="-3.969948">
        <ele>2160.0</ele>
        <time>2018-04-21T13:10:01.000Z</time>
      </trkpt>
      <trkpt lat="40.790022" lon="-3.969965">
        <ele>2160.0</ele>
        <time>2018-04-21T13:10:02.000Z</time>
      </trkpt>
      <trkpt lat="40.79002" lon="-3.969981">
        <ele>2160.0</ele>
        <time>2018-04-21T13:10:03.000Z</time>
      </trkpt>
      <trkpt lat="40.790019" lon="-3.969998">
        <ele>2160.0</ele>
        <time>2018-04-21T13:10:04.000Z</time>
      </trkpt>
      <trkpt lat="40.790017" lon="-3.970015">
        <ele>2160.0</ele>
        <time>2018-04-21T13:10:05.000Z</time>
      </trkpt>
      <trkpt lat="40.790016" lon="-3.970031">
        <ele>2160.0</ele>
        <time>2018-04-21T13:10:06.000Z</time>
      </trkpt>
      <trkpt lat="40.790014" lon="-3.970047">
        <ele>2160.0</ele>
        <time>2018-04-21T13:10:07.000Z</time>
      </trkpt>
      <trkpt lat="40.790011" lon="-3.970061">
        <ele>2160.1</ele>
        <time>2018-04-21T13:10:08.000Z</time>
      </trkpt>
      <trkpt lat="40.790007" lon="-3.970075">
        <ele>2160.1</ele>
        <time>2018-04-21T13:10:09.000Z</time>
      </trkpt>
      <trkpt lat="40.790003" lon="-3.970089">
        <ele>2160.1</ele>
        <time>2018-04-21T13:10:10.000Z</time>
      </trkpt>
      <trkpt lat="40.789998" lon="-3.970102">
        <ele>2160.1</ele>
        <time>2018-04-21T13:10:11.000Z</time>
      </trkpt>
      <trkpt lat="40.789994" lon="-3.970115">
        <ele>2160.1</ele>
        <time>2018-04-21T13:10:12.000Z</time>
      </trkpt>
      <trkpt lat="40.789989" lon="-3.970128">
        <ele>2160.0</ele>
        <time>2018-04-21T13:10:13.000Z</time>
      </trkpt>
      <trkpt lat="40.789984" lon="-3.970142">
        <ele>2160.0</ele>
        <time>2018-04-21T13:10:14.000Z</time>
      </trkpt>
      <trkpt lat="40.789979" lon="-3.970155">
        <ele>2160.0</ele>
        <time>2018-04-21T13:10:15.000Z</time>
      </trkpt>
      <trkpt lat="40.789975" lon="-3.97017">
        <ele>2159.9</ele>
        <time>2018-04-21T13:10:16.000Z</time>
      </trkpt>
      <trkpt lat="40.78997" lon="-3.970185">
        <ele>2159.9</ele>
        <time>2018-04-21T13:10:17.000Z</time>
      </trkpt>
      <trkpt lat="40.789966" lon="-3.9702">
        <ele>2159.9</ele>
        <time>2018-04-21T13:10:18.000Z</time>
      </trkpt>
      <trkpt lat="40.789962" lon="-3.970215">
        <ele>2159.9</ele>
        <time>2018-04-21T13:10:19.000Z</time>
      </trkpt>
      <trkpt lat="40.789958" lon="-3.97023">
        <ele>2159.9</ele>
        <time>2018-04-21T13:10:20.000Z</time>
      </trkpt>
      <trkpt lat="40.789954" lon="-3.970246">
        <ele>2159.9</ele>
        <time>2018-04-21T13:10:21.000Z</time>
      </trkpt>
      <trkpt lat="40.78995" lon="-3.970261">
        <ele>2159.9</ele>
        <time>2018-04-21T13:10:22.000Z</time>
      </trkpt>
      <trkpt lat="40.789947" lon="-3.970276">
        <ele>2159.9</ele>
        <time>2018-04-21T13:10:23.000Z</time>
      </trkpt>
      <trkpt lat="40.789943" lon="-3.970291">
        <ele>2159.9</ele>
        <time>2018-04-21T13:10:24.000Z</time>
      </trkpt>
      <trkpt lat="40.78994" lon="-3.970306">
        <ele>2159.9</ele>
        <time>2018-04-21T13:10:25.000Z</time>
      </trkpt>
      <trkpt lat="40.789936" lon="-3.970321">
        <ele>2159.9</ele>
        <time>2018-04-21T13:10:26.000Z</time>
      </trkpt>
      <trkpt lat="40.789933" lon="-3.970336">
        <ele>2159.9</ele>
        <time>2018-04-21T13:10:27.000Z</time>
      </trkpt>
      <trkpt lat="40.78993" lon="-3.97035">
        <ele>2159.9</ele>
        <time>2018-04-21T13:10:28.000Z</time>
      </trkpt>
      <trkpt lat="40.789926" lon="-3.970364">
        <ele>2159.9</ele>
        <time>2018-04-21T13:10:29.000Z</time>
      </trkpt>
      <trkpt lat="40.789923" lon="-3.970378">
        <ele>2159.9</ele>
        <time>2018-04-21T13:10:30.000Z</time>
      </trkpt>
      <trkpt lat="40.78992" lon="-3.970392">
        <ele>2160.0</ele>
        <time>2018-04-21T13:10:31.000Z</time>
      </trkpt>
      <trkpt lat="40.789917" lon="-3.970405">
        <ele>2160.0</ele>
        <time>2018-04-21T13:10:32.000Z</time>
      </trkpt>
      <trkpt lat="40.789914" lon="-3.970418">
        <ele>2160.0</ele>
        <time>2018-04-21T13:10:33.000Z</time>
      </trkpt>
      <trkpt lat="40.789912" lon="-3.97043">
        <ele>2160.0</ele>
        <time>2018-04-21T13:10:34.000Z</time>
      </trkpt>
      <trkpt lat="40.789909" lon="-3.970442">
        <ele>2160.0</ele>
        <time>2018-04-21T13:10:35.000Z</time>
      </trkpt>
      <trkpt lat="40.789906" lon="-3.970454">
        <ele>2160.0</ele>
        <time>2018-04-21T13:10:36.000Z</time>
      </trkpt>
      <trkpt lat="40.789903" lon="-3.970465">
        <ele>2160.1</ele>
        <time>2018-04-21T13:10:37.000Z</time>
      </trkpt>
      <trkpt lat="40.789901" lon="-3.970476">
        <ele>2160.1</ele>
        <time>2018-04-21T13:10:38.000Z</time>
      </trkpt>
      <trkpt lat="40.789898" lon="-3.970486">
        <ele>2160.1</ele>
        <time>2018-04-21T13:10:39.000Z</time>
      </trkpt>
      <trkpt lat="40.789895" lon="-3.970497">
        <ele>2160.1</ele>
        <time>2018-04-21T13:10:40.000Z</time>
      </trkpt>
      <trkpt lat="40.789893" lon="-3.970506">
        <ele>2160.1</ele>
        <time>2018-04-21T13:10:41.000Z</time>
      </trkpt>
      <trkpt lat="40.78989" lon="-3.970516">
        <ele>2160.1</ele>
        <time>2018-04-21T13:10:42.000Z</time>
      </trkpt>
      <trkpt lat="40.789887" lon="-3.970525">
        <ele>2160.2</ele>
        <time>2018-04-21T13:10:43.000Z</time>
      </trkpt>
      <trkpt lat="40.789885" lon="-3.970534">
        <ele>2160.2</ele>
        <time>2018-04-21T13:10:44.000Z</time>
      </trkpt>
      <trkpt lat="40.789882" lon="-3.970543">
        <ele>2160.2</ele>
        <time>2018-04-21T13:10:45.000Z</time>
      </trkpt>
      <trkpt lat="40.78988" lon="-3.970552">
        <ele>2160.2</ele>
        <time>2018-04-21T13:10:46.000Z</time>
      </trkpt>
      <trkpt lat="40.789877" lon="-3.970561">
        <ele>2160.2</ele>
        <time>2018-04-21T13:10:47.000Z</time>
      </trkpt>
      <trkpt lat="40.789874" lon="-3.970569">
        <ele>2160.3</ele>
        <time>2018-04-21T13:10:48.000Z</time>
      </trkpt>
      <trkpt lat="40.789872" lon="-3.970578">
        <ele>2160.3</ele>
        <time>2018-04-21T13:10:49.000Z</time>
      </trkpt>
      <trkpt lat="40.789869" lon="-3.970587">
        <ele>2160.3</ele>
        <time>2018-04-21T13:10:50.000Z</time>
      </trkpt>
      <trkpt lat="40.789866" lon="-3.970596">
        <ele>2160.3</ele>
        <time>2018-04-21T13:10:51.000Z</time>
      </trkpt>
      <trkpt lat="40.789863" lon="-3.970605">
        <ele>2160.3</ele>
        <time>2018-04-21T13:10:52.000Z</time>
      </trkpt>
      <trkpt lat="40.78986" lon="-3.970614">
        <ele>2160.4</ele>
        <time>2018-04-21T13:10:53.000Z</time>
      </trkpt>
      <trkpt lat="40.789858" lon="-3.970623">
        <ele>2160.4</ele>
        <time>2018-04-21T13:10:54.000Z</time>
      </trkpt>
      <trkpt lat="40.789855" lon="-3.970632">
        <ele>2160.4</ele>
        <time>2018-04-21T13:10:55.000Z</time>
      </trkpt>
      <trkpt lat="40.789852" lon="-3.970642">
        <ele>2160.5</ele>
        <time>2018-04-21T13:10:56.000Z</time>
      </trkpt>
      <trkpt lat="40.789849" lon="-3.970651">
        <ele>2160.5</ele>
        <time>2018-04-21T13:10:57.000Z</time>
      </trkpt>
      <trkpt lat="40.789846" lon="-3.97066">
        <ele>2160.5</ele>
        <time>2018-04-21T13:10:58.000Z</time>
      </trkpt>
      <trkpt lat="40.789843" lon="-3.97067">
        <ele>2160.5</ele>
        <time>2018-04-21T13:10:59.000Z</time>
      </trkpt>
      <trkpt lat="40.78984" lon="-3.970679">
        <ele>2160.6</ele>
        <time>2018-04-21T13:11:00.000Z</time>
      </trkpt>
      <trkpt lat="40.789837" lon="-3.970689">
        <ele>2160.6</ele>
        <time>2018-04-21T13:11:01.000Z</time>
      </trkpt>
      <trkpt lat="40.789834" lon="-3.970699">
        <ele>2160.7</ele>
        <time>2018-04-21T13:11:02.000Z</time>
      </trkpt>
      <trkpt lat="40.789832" lon="-3.970708">
        <ele>2160.7</ele>
        <time>2018-04-21T13:11:03.000Z</time>
      </trkpt>
      <trkpt lat="40.789829" lon="-3.970718">
        <ele>2160.7</ele>
        <time>2018-04-21T13:11:04.000Z</time>
      </trkpt>
      <trkpt lat="40.789826" lon="-3.970727">
        <ele>2160.8</ele>
        <time>2018-04-21T13:11:05.000Z</time>
      </trkpt>
      <trkpt lat="40.789823" lon="-3.970737">
        <ele>2160.8</ele>
        <time>2018-04-21T13:11:06.000Z</time>
      </trkpt>
      <trkpt lat="40.78982" lon="-3.970746">
        <ele>2160.8</ele>
        <time>2018-04-21T13:11:07.000Z</time>
      </trkpt>
      <trkpt lat="40.789818" lon="-3.970756">
        <ele>2160.9</ele>
        <time>2018-04-21T13:11:08.000Z</time>
      </trkpt>
      <trkpt lat="40.789815" lon="-3.970765">
        <ele>2160.9</ele>
        <time>2018-04-21T13:11:09.000Z</time>
      </trkpt>
      <trkpt lat="40.789813" lon="-3.970774">
        <ele>2161.0</ele>
        <time>2018-04-21T13:11:10.000Z</time>
      </trkpt>
      <trkpt lat="40.78981" lon="-3.970783">
        <ele>2161.0</ele>
        <time>2018-04-21T13:11:11.000Z</time>
      </trkpt>
      <trkpt lat="40.789807" lon="-3.970792">
        <ele>2161.0</ele>
        <time>2018-04-21T13:11:12.000Z</time>
      </trkpt>
      <trkpt lat="40.789805" lon="-3.970801">
        <ele>2161.1</ele>
        <time>2018-04-21T13:11:13.000Z</time>
      </trkpt>
      <trkpt lat="40.789802" lon="-3.97081">
        <ele>2161.1</ele>
        <time>2018-04-21T13:11:14.000Z</time>
      </trkpt>
      <trkpt lat="40.7898" lon="-3.970819">
        <ele>2161.2</ele>
        <time>2018-04-21T13:11:15.000Z</time>
      </trkpt>
      <trkpt lat="40.789797" lon="-3.970828">
        <ele>2161.2</ele>
        <time>2018-04-21T13:11:16.000Z</time>
      </trkpt>
      <trkpt lat="40.789794" lon="-3.970836">
        <ele>2161.3</ele>
        <time>2018-04-21T13:11:17.000Z</time>
      </trkpt>
      <trkpt lat="40.789792" lon="-3.970844">
        <ele>2161.3</ele>
        <time>2018-04-21T13:11:18.000Z</time>
      </trkpt>
      <trkpt lat="40.789789" lon="-3.970853">
        <ele>2161.4</ele>
        <time>2018-04-21T13:11:19.000Z</time>
      </trkpt>
      <trkpt lat="40.789786" lon="-3.970861">
        <ele>2161.5</ele>
        <time>2018-04-21T13:11:20.000Z</time>
      </trkpt>
      <trkpt lat="40.789783" lon="-3.970869">
        <ele>2161.6</ele>
        <time>2018-04-21T13:11:21.000Z</time>
      </trkpt>
      <trkpt lat="40.789781" lon="-3.970877">
        <ele>2161.6</ele>
        <time>2018-04-21T13:11:22.000Z</time>
      </trkpt>
      <trkpt lat="40.789778" lon="-3.970884">
        <ele>2161.7</ele>
        <time>2018-04-21T13:11:23.000Z</time>
      </trkpt>
      <trkpt lat="40.789775" lon="-3.970892">
        <ele>2161.8</ele>
        <time>2018-04-21T13:11:24.000Z</time>
      </trkpt>
      <trkpt lat="40.789772" lon="-3.970899">
        <ele>2161.8</ele>
        <time>2018-04-21T13:11:25.000Z</time>
      </trkpt>
      <trkpt lat="40.789769" lon="-3.970907">
        <ele>2161.9</ele>
        <time>2018-04-21T13:11:26.000Z</time>
      </trkpt>
      <trkpt lat="40.789766" lon="-3.970914">
        <ele>2161.9</ele>
        <time>2018-04-21T13:11:27.000Z</time>
      </trkpt>
      <trkpt lat="40.789763" lon="-3.970922">
        <ele>2162.0</ele>
        <time>2018-04-21T13:11:28.000Z</time>
      </trkpt>
      <trkpt lat="40.78976" lon="-3.970929">
        <ele>2162.1</ele>
        <time>2018-04-21T13:11:29.000Z</time>
      </trkpt>
      <trkpt lat="40.789757" lon="-3.970936">
        <ele>2162.1</ele>
        <time>2018-04-21T13:11:30.000Z</time>
      </trkpt>
      <trkpt lat="40.789754" lon="-3.970944">
        <ele>2162.2</ele>
        <time>2018-04-21T13:11:31.000Z</time>
      </trkpt>
      <trkpt lat="40.789751" lon="-3.970951">
        <ele>2162.3</ele>
        <time>2018-04-21T13:11:32.000Z</time>
      </trkpt>
      <trkpt lat="40.789748" lon="-3.970959">
        <ele>2162.3</ele>
        <time>2018-04-21T13:11:33.000Z</time>
      </trkpt>
      <trkpt lat="40.789746" lon="-3.970967">
        <ele>2162.4</ele>
        <time>2018-04-21T13:11:34.000Z</time>
      </trkpt>
      <trkpt lat="40.789743" lon="-3.970975">
        <ele>2162.5</ele>
        <time>2018-04-21T13:11:35.000Z</time>
      </trkpt>
      <trkpt lat="40.78974" lon="-3.970983">
        <ele>2162.5</ele>
        <time>2018-04-21T13:11:36.000Z</time>
      </trkpt>
      <trkpt lat="40.789738" lon="-3.970991">
        <ele>2162.6</ele>
        <time>2018-04-21T13:11:37.000Z</time>
      </trkpt>
      <trkpt lat="40.789735" lon="-3.970999">
        <ele>2162.7</ele>
        <time>2018-04-21T13:11:38.000Z</time>
      </trkpt>
      <trkpt lat="40.789733" lon="-3.971008">
        <ele>2162.7</ele>
        <time>2018-04-21T13:11:39.000Z</time>
      </trkpt>
      <trkpt lat="40.78973" lon="-3.971016">
        <ele>2162.8</ele>
        <time>2018-04-21T13:11:40.000Z</time>
      </trkpt>
      <trkpt lat="40.789728" lon="-3.971024">
        <ele>2162.9</ele>
        <time>2018-04-21T13:11:41.000Z</time>
      </trkpt>
      <trkpt lat="40.789726" lon="-3.971033">
        <ele>2162.9</ele>
        <time>2018-04-21T13:11:42.000Z</time>
      </trkpt>
      <trkpt lat="40.789723" lon="-3.971041">
        <ele>2163.0</ele>
        <time>2018-04-21T13:11:43.000Z</time>
      </trkpt>
      <trkpt lat="40.789721" lon="-3.97105">
        <ele>2163.1</ele>
        <time>2018-04-21T13:11:44.000Z</time>
      </trkpt>
      <trkpt lat="40.789719" lon="-3.971058">
        <ele>2163.1</ele>
        <time>2018-04-21T13:11:45.000Z</time>
      </trkpt>
      <trkpt lat="40.789716" lon="-3.971066">
        <ele>2163.2</ele>
        <time>2018-04-21T13:11:46.000Z</time>
      </trkpt>
      <trkpt lat="40.789714" lon="-3.971075">
        <ele>2163.3</ele>
        <time>2018-04-21T13:11:47.000Z</time>
      </trkpt>
      <trkpt lat="40.789712" lon="-3.971083">
        <ele>2163.3</ele>
        <time>2018-04-21T13:11:48.000Z</time>
      </trkpt>
      <trkpt lat="40.78971" lon="-3.971091">
        <ele>2163.4</ele>
        <time>2018-04-21T13:11:49.000Z</time>
      </trkpt>
      <trkpt lat="40.789707" lon="-3.971098">
        <ele>2163.4</ele>
        <time>2018-04-21T13:11:50.000Z</time>
      </trkpt>
      <trkpt lat="40.789705" lon="-3.971106">
        <ele>2163.5</ele>
        <time>2018-04-21T13:11:51.000Z</time>
      </trkpt>
      <trkpt lat="40.789702" lon="-3.971113">
        <ele>2163.6</ele>
        <time>2018-04-21T13:11:52.000Z</time>
      </trkpt>
      <trkpt lat="40.7897" lon="-3.971121">
        <ele>2163.6</ele>
        <time>2018-04-21T13:11:53.000Z</time>
      </trkpt>
      <trkpt lat="40.789697" lon="-3.971129">
        <ele>2163.7</ele>
        <time>2018-04-21T13:11:54.000Z</time>
      </trkpt>
      <trkpt lat="40.789694" lon="-3.971136">
        <ele>2163.7</ele>
        <time>2018-04-21T13:11:55.000Z</time>
      </trkpt>
      <trkpt lat="40.789691" lon="-3.971144">
        <ele>2163.8</ele>
        <time>2018-04-21T13:11:56.000Z</time>
      </trkpt>
      <trkpt lat="40.789688" lon="-3.971152">
        <ele>2163.9</ele>
        <time>2018-04-21T13:11:57.000Z</time>
      </trkpt>
      <trkpt lat="40.789684" lon="-3.97116">
        <ele>2163.9</ele>
        <time>2018-04-21T13:11:58.000Z</time>
      </trkpt>
      <trkpt lat="40.78968" lon="-3.971168">
        <ele>2164.0</ele>
        <time>2018-04-21T13:11:59.000Z</time>
      </trkpt>
      <trkpt lat="40.789676" lon="-3.971176">
        <ele>2164.0</ele>
        <time>2018-04-21T13:12:00.000Z</time>
      </trkpt>
      <trkpt lat="40.789672" lon="-3.971184">
        <ele>2164.1</ele>
        <time>2018-04-21T13:12:01.000Z</time>
      </trkpt>
      <trkpt lat="40.789668" lon="-3.971191">
        <ele>2164.1</ele>
        <time>2018-04-21T13:12:02.000Z</time>
      </trkpt>
      <trkpt lat="40.789663" lon="-3.971197">
        <ele>2164.2</ele>
        <time>2018-04-21T13:12:03.000Z</time>
      </trkpt>
      <trkpt lat="40.789659" lon="-3.971202">
        <ele>2164.2</ele>
        <time>2018-04-21T13:12:04.000Z</time>
      </trkpt>
      <trkpt lat="40.789655" lon="-3.971207">
        <ele>2164.3</ele>
        <time>2018-04-21T13:12:05.000Z</time>
      </trkpt>
      <trkpt lat="40.789651" lon="-3.97121">
        <ele>2164.3</ele>
        <time>2018-04-21T13:12:06.000Z</time>
      </trkpt>
      <trkpt lat="40.789647" lon="-3.971214">
        <ele>2164.3</ele>
        <time>2018-04-21T13:12:07.000Z</time>
      </trkpt>
      <trkpt lat="40.789643" lon="-3.971218">
        <ele>2164.3</ele>
        <time>2018-04-21T13:12:08.000Z</time>
      </trkpt>
      <trkpt lat="40.78964" lon="-3.971222">
        <ele>2164.4</ele>
        <time>2018-04-21T13:12:09.000Z</time>
      </trkpt>
      <trkpt lat="40.789637" lon="-3.971227">
        <ele>2164.4</ele>
        <time>2018-04-21T13:12:10.000Z</time>
      </trkpt>
      <trkpt lat="40.789634" lon="-3.971234">
        <ele>2164.4</ele>
        <time>2018-04-21T13:12:11.000Z</time>
      </trkpt>
      <trkpt lat="40.789632" lon="-3.971243">
        <ele>2164.5</ele>
        <time>2018-04-21T13:12:12.000Z</time>
      </trkpt>
      <trkpt lat="40.789631" lon="-3.971254">
        <ele>2164.6</ele>
        <time>2018-04-21T13:12:13.000Z</time>
      </trkpt>
      <trkpt lat="40.789631" lon="-3.971266">
        <ele>2164.7</ele>
        <time>2018-04-21T13:12:14.000Z</time>
      </trkpt>
      <trkpt lat="40.78963" lon="-3.971279">
        <ele>2164.8</ele>
        <time>2018-04-21T13:12:15.000Z</time>
      </trkpt>
      <trkpt lat="40.789631" lon="-3.971293">
        <ele>2164.9</ele>
        <time>2018-04-21T13:12:16.000Z</time>
      </trkpt>
      <trkpt lat="40.789632" lon="-3.971307">
        <ele>2165.0</ele>
        <time>2018-04-21T13:12:17.000Z</time>
      </trkpt>
      <trkpt lat="40.789634" lon="-3.971322">
        <ele>2165.1</ele>
        <time>2018-04-21T13:12:18.000Z</time>
      </trkpt>
      <trkpt lat="40.789636" lon="-3.971336">
        <ele>2165.2</ele>
        <time>2018-04-21T13:12:19.000Z</time>
      </trkpt>
      <trkpt lat="40.789639" lon="-3.971349">
        <ele>2165.3</ele>
        <time>2018-04-21T13:12:20.000Z</time>
      </trkpt>
      <trkpt lat="40.789642" lon="-3.971363">
        <ele>2165.4</ele>
        <time>2018-04-21T13:12:21.000Z</time>
      </trkpt>
      <trkpt lat="40.789646" lon="-3.971376">
        <ele>2165.5</ele>
        <time>2018-04-21T13:12:22.000Z</time>
      </trkpt>
      <trkpt lat="40.789649" lon="-3.971388">
        <ele>2165.6</ele>
        <time>2018-04-21T13:12:23.000Z</time>
      </trkpt>
      <trkpt lat="40.789653" lon="-3.9714">
        <ele>2165.7</ele>
        <time>2018-04-21T13:12:24.000Z</time>
      </trkpt>
      <trkpt lat="40.789656" lon="-3.971412">
        <ele>2165.8</ele>
        <time>2018-04-21T13:12:25.000Z</time>
      </trkpt>
      <trkpt lat="40.789659" lon="-3.971423">
        <ele>2165.9</ele>
        <time>2018-04-21T13:12:26.000Z</time>
      </trkpt>
      <trkpt lat="40.789661" lon="-3.971434">
        <ele>2166.0</ele>
        <time>2018-04-21T13:12:27.000Z</time>
      </trkpt>
      <trkpt lat="40.789663" lon="-3.971444">
        <ele>2166.1</ele>
        <time>2018-04-21T13:12:28.000Z</time>
      </trkpt>
      <trkpt lat="40.789664" lon="-3.971454">
        <ele>2166.2</ele>
        <time>2018-04-21T13:12:29.000Z</time>
      </trkpt>
      <trkpt lat="40.789664" lon="-3.971463">
        <ele>2166.2</ele>
        <time>2018-04-21T13:12:30.000Z</time>
      </trkpt>
      <trkpt lat="40.789664" lon="-3.971472">
        <ele>2166.3</ele>
        <time>2018-04-21T13:12:31.000Z</time>
      </trkpt>
      <trkpt lat="40.789662" lon="-3.971481">
        <ele>2166.4</ele>
        <time>2018-04-21T13:12:32.000Z</time>
      </trkpt>
      <trkpt lat="40.78966" lon="-3.97149">
        <ele>2166.4</ele>
        <time>2018-04-21T13:12:33.000Z</time>
      </trkpt>
      <trkpt lat="40.789657" lon="-3.971499">
        <ele>2166.5</ele>
        <time>2018-04-21T13:12:34.000Z</time>
      </trkpt>
      <trkpt lat="40.789652" lon="-3.971508">
        <ele>2166.5</ele>
        <time>2018-04-21T13:12:35.000Z</time>
      </trkpt>
      <trkpt lat="40.789648" lon="-3.971516">
        <ele>2166.6</ele>
        <time>2018-04-21T13:12:36.000Z</time>
      </trkpt>
      <trkpt lat="40.789643" lon="-3.971525">
        <ele>2166.6</ele>
        <time>2018-04-21T13:12:37.000Z</time>
      </trkpt>
      <trkpt lat="40.789638" lon="-3.971534">
        <ele>2166.7</ele>
        <time>2018-04-21T13:12:38.000Z</time>
      </trkpt>
      <trkpt lat="40.789633" lon="-3.971544">
        <ele>2166.8</ele>
        <time>2018-04-21T13:12:39.000Z</time>
      </trkpt>
      <trkpt lat="40.789629" lon="-3.971553">
        <ele>2166.8</ele>
        <time>2018-04-21T13:12:40.000Z</time>
      </trkpt>
      <trkpt lat="40.789626" lon="-3.971563">
        <ele>2166.9</ele>
        <time>2018-04-21T13:12:41.000Z</time>
      </trkpt>
      <trkpt lat="40.789624" lon="-3.971573">
        <ele>2167.0</ele>
        <time>2018-04-21T13:12:42.000Z</time>
      </trkpt>
      <trkpt lat="40.789623" lon="-3.971583">
        <ele>2167.0</ele>
        <time>2018-04-21T13:12:43.000Z</time>
      </trkpt>
      <trkpt lat="40.789623" lon="-3.971593">
        <ele>2167.1</ele>
        <time>2018-04-21T13:12:44.000Z</time>
      </trkpt>
      <trkpt lat="40.789623" lon="-3.971604">
        <ele>2167.2</ele>
        <time>2018-04-21T13:12:45.000Z</time>
      </trkpt>
      <trkpt lat="40.789624" lon="-3.971614">
        <ele>2167.3</ele>
        <time>2018-04-21T13:12:46.000Z</time>
      </trkpt>
      <trkpt lat="40.789625" lon="-3.971624">
        <ele>2167.3</ele>
        <time>2018-04-21T13:12:47.000Z</time>
      </trkpt>
      <trkpt lat="40.789626" lon="-3.971634">
        <ele>2167.4</ele>
        <time>2018-04-21T13:12:48.000Z</time>
      </trkpt>
      <trkpt lat="40.789627" lon="-3.971644">
        <ele>2167.5</ele>
        <time>2018-04-21T13:12:49.000Z</time>
      </trkpt>
      <trkpt lat="40.789627" lon="-3.971653">
        <ele>2167.6</ele>
        <time>2018-04-21T13:12:50.000Z</time>
      </trkpt>
      <trkpt lat="40.789627" lon="-3.971663">
        <ele>2167.6</ele>
        <time>2018-04-21T13:12:51.000Z</time>
      </trkpt>
      <trkpt lat="40.789627" lon="-3.971672">
        <ele>2167.7</ele>
        <time>2018-04-21T13:12:52.000Z</time>
      </trkpt>
      <trkpt lat="40.789627" lon="-3.97168">
        <ele>2167.8</ele>
        <time>2018-04-21T13:12:53.000Z</time>
      </trkpt>
      <trkpt lat="40.789626" lon="-3.971689">
        <ele>2167.8</ele>
        <time>2018-04-21T13:12:54.000Z</time>
      </trkpt>
      <trkpt lat="40.789626" lon="-3.971697">
        <ele>2167.9</ele>
        <time>2018-04-21T13:12:55.000Z</time>
      </trkpt>
      <trkpt lat="40.789625" lon="-3.971705">
        <ele>2168.0</ele>
        <time>2018-04-21T13:12:56.000Z</time>
      </trkpt>
      <trkpt lat="40.789623" lon="-3.971714">
        <ele>2168.0</ele>
        <time>2018-04-21T13:12:57.000Z</time>
      </trkpt>
      <trkpt lat="40.789622" lon="-3.971722">
        <ele>2168.1</ele>
        <time>2018-04-21T13:12:58.000Z</time>
      </trkpt>
      <trkpt lat="40.78962" lon="-3.97173">
        <ele>2168.2</ele>
        <time>2018-04-21T13:12:59.000Z</time>
      </trkpt>
      <trkpt lat="40.789617" lon="-3.971737">
        <ele>2168.2</ele>
        <time>2018-04-21T13:13:00.000Z</time>
      </trkpt>
      <trkpt lat="40.789615" lon="-3.971745">
        <ele>2168.3</ele>
        <time>2018-04-21T13:13:01.000Z</time>
      </trkpt>
      <trkpt lat="40.789612" lon="-3.971753">
        <ele>2168.3</ele>
        <time>2018-04-21T13:13:02.000Z</time>
      </trkpt>
      <trkpt lat="40.789609" lon="-3.971761">
        <ele>2168.4</ele>
        <time>2018-04-21T13:13:03.000Z</time>
      </trkpt>
      <trkpt lat="40.789606" lon="-3.971769">
        <ele>2168.5</ele>
        <time>2018-04-21T13:13:04.000Z</time>
      </trkpt>
      <trkpt lat="40.789602" lon="-3.971777">
        <ele>2168.5</ele>
        <time>2018-04-21T13:13:05.000Z</time>
      </trkpt>
      <trkpt lat="40.789598" lon="-3.971785">
        <ele>2168.6</ele>
        <time>2018-04-21T13:13:06.000Z</time>
      </trkpt>
      <trkpt lat="40.789594" lon="-3.971793">
        <ele>2168.7</ele>
        <time>2018-04-21T13:13:07.000Z</time>
      </trkpt>
      <trkpt lat="40.78959" lon="-3.971801">
        <ele>2168.7</ele>
        <time>2018-04-21T13:13:08.000Z</time>
      </trkpt>
      <trkpt lat="40.789585" lon="-3.97181">
        <ele>2168.8</ele>
        <time>2018-04-21T13:13:09.000Z</time>
      </trkpt>
      <trkpt lat="40.789581" lon="-3.971818">
        <ele>2168.9</ele>
        <time>2018-04-21T13:13:10.000Z</time>
      </trkpt>
      <trkpt lat="40.789576" lon="-3.971826">
        <ele>2168.9</ele>
        <time>2018-04-21T13:13:11.000Z</time>
      </trkpt>
      <trkpt lat="40.789572" lon="-3.971834">
        <ele>2169.0</ele>
        <time>2018-04-21T13:13:12.000Z</time>
      </trkpt>
      <trkpt lat="40.789568" lon="-3.971842">
        <ele>2169.1</ele>
        <time>2018-04-21T13:13:13.000Z</time>
      </trkpt>
      <trkpt lat="40.789563" lon="-3.97185">
        <ele>2169.1</ele>
        <time>2018-04-21T13:13:14.000Z</time>
      </trkpt>
      <trkpt lat="40.789559" lon="-3.971858">
        <ele>2169.2</ele>
        <time>2018-04-21T13:13:15.000Z</time>
      </trkpt>
      <trkpt lat="40.789555" lon="-3.971867">
        <ele>2169.3</ele>
        <time>2018-04-21T13:13:16.000Z</time>
      </trkpt>
      <trkpt lat="40.789552" lon="-3.971875">
        <ele>2169.4</ele>
        <time>2018-04-21T13:13:17.000Z</time>
      </trkpt>
      <trkpt lat="40.789548" lon="-3.971883">
        <ele>2169.5</ele>
        <time>2018-04-21T13:13:18.000Z</time>
      </trkpt>
      <trkpt lat="40.789545" lon="-3.971891">
        <ele>2169.5</ele>
        <time>2018-04-21T13:13:19.000Z</time>
      </trkpt>
      <trkpt lat="40.789542" lon="-3.971898">
        <ele>2169.6</ele>
        <time>2018-04-21T13:13:20.000Z</time>
      </trkpt>
      <trkpt lat="40.789539" lon="-3.971906">
        <ele>2169.7</ele>
        <time>2018-04-21T13:13:21.000Z</time>
      </trkpt>
      <trkpt lat="40.789536" lon="-3.971914">
        <ele>2169.8</ele>
        <time>2018-04-21T13:13:22.000Z</time>
      </trkpt>
      <trkpt lat="40.789533" lon="-3.971922">
        <ele>2169.9</ele>
        <time>2018-04-21T13:13:23.000Z</time>
      </trkpt>
      <trkpt lat="40.78953" lon="-3.971929">
        <ele>2169.9</ele>
        <time>2018-04-21T13:13:24.000Z</time>
      </trkpt>
      <trkpt lat="40.789527" lon="-3.971936">
        <ele>2170.0</ele>
        <time>2018-04-21T13:13:25.000Z</time>
      </trkpt>
      <trkpt lat="40.789524" lon="-3.971943">
        <ele>2170.1</ele>
        <time>2018-04-21T13:13:26.000Z</time>
      </trkpt>
      <trkpt lat="40.78952" lon="-3.97195">
        <ele>2170.2</ele>
        <time>2018-04-21T13:13:27.000Z</time>
      </trkpt>
      <trkpt lat="40.789517" lon="-3.971956">
        <ele>2170.2</ele>
        <time>2018-04-21T13:13:28.000Z</time>
      </trkpt>
      <trkpt lat="40.789514" lon="-3.971962">
        <ele>2170.3</ele>
        <time>2018-04-21T13:13:29.000Z</time>
      </trkpt>
      <trkpt lat="40.789511" lon="-3.971968">
        <ele>2170.4</ele>
        <time>2018-04-21T13:13:30.000Z</time>
      </trkpt>
      <trkpt lat="40.789508" lon="-3.971972">
        <ele>2170.4</ele>
        <time>2018-04-21T13:13:31.000Z</time>
      </trkpt>
      <trkpt lat="40.789506" lon="-3.971976">
        <ele>2170.5</ele>
        <time>2018-04-21T13:13:32.000Z</time>
      </trkpt>
      <trkpt lat="40.789504" lon="-3.971979">
        <ele>2170.5</ele>
        <time>2018-04-21T13:13:33.000Z</time>
      </trkpt>
      <trkpt lat="40.789503" lon="-3.971981">
        <ele>2170.5</ele>
        <time>2018-04-21T13:13:34.000Z</time>
      </trkpt>
      <trkpt lat="40.789501" lon="-3.971983">
        <ele>2170.5</ele>
        <time>2018-04-21T13:13:35.000Z</time>
      </trkpt>
      <trkpt lat="40.7895" lon="-3.971985">
        <ele>2170.6</ele>
        <time>2018-04-21T13:13:36.000Z</time>
      </trkpt>
      <trkpt lat="40.789498" lon="-3.971987">
        <ele>2170.6</ele>
        <time>2018-04-21T13:13:37.000Z</time>
      </trkpt>
      <trkpt lat="40.789496" lon="-3.97199">
        <ele>2170.6</ele>
        <time>2018-04-21T13:13:38.000Z</time>
      </trkpt>
      <trkpt lat="40.789494" lon="-3.971994">
        <ele>2170.7</ele>
        <time>2018-04-21T13:13:39.000Z</time>
      </trkpt>
      <trkpt lat="40.789491" lon="-3.971999">
        <ele>2170.7</ele>
        <time>2018-04-21T13:13:40.000Z</time>
      </trkpt>
      <trkpt lat="40.789487" lon="-3.972005">
        <ele>2170.8</ele>
        <time>2018-04-21T13:13:41.000Z</time>
      </trkpt>
      <trkpt lat="40.789483" lon="-3.972012">
        <ele>2170.9</ele>
        <time>2018-04-21T13:13:42.000Z</time>
      </trkpt>
      <trkpt lat="40.789479" lon="-3.972019">
        <ele>2171.0</ele>
        <time>2018-04-21T13:13:43.000Z</time>
      </trkpt>
      <trkpt lat="40.789475" lon="-3.972026">
        <ele>2171.1</ele>
        <time>2018-04-21T13:13:44.000Z</time>
      </trkpt>
      <trkpt lat="40.789471" lon="-3.972033">
        <ele>2171.2</ele>
        <time>2018-04-21T13:13:45.000Z</time>
      </trkpt>
      <trkpt lat="40.789468" lon="-3.97204">
        <ele>2171.3</ele>
        <time>2018-04-21T13:13:46.000Z</time>
      </trkpt>
      <trkpt lat="40.789465" lon="-3.972046">
        <ele>2171.3</ele>
        <time>2018-04-21T13:13:47.000Z</time>
      </trkpt>
      <trkpt lat="40.789462" lon="-3.972051">
        <ele>2171.4</ele>
        <time>2018-04-21T13:13:48.000Z</time>
      </trkpt>
      <trkpt lat="40.78946" lon="-3.972056">
        <ele>2171.5</ele>
        <time>2018-04-21T13:13:49.000Z</time>
      </trkpt>
      <trkpt lat="40.789458" lon="-3.972061">
        <ele>2171.5</ele>
        <time>2018-04-21T13:13:50.000Z</time>
      </trkpt>
      <trkpt lat="40.789455" lon="-3.972067">
        <ele>2171.6</ele>
        <time>2018-04-21T13:13:51.000Z</time>
      </trkpt>
      <trkpt lat="40.789452" lon="-3.972072">
        <ele>2171.7</ele>
        <time>2018-04-21T13:13:52.000Z</time>
      </trkpt>
      <trkpt lat="40.789448" lon="-3.972078">
        <ele>2171.8</ele>
        <time>2018-04-21T13:13:53.000Z</time>
      </trkpt>
      <trkpt lat="40.789444" lon="-3.972085">
        <ele>2171.9</ele>
        <time>2018-04-21T13:13:54.000Z</time>
      </trkpt>
      <trkpt lat="40.789439" lon="-3.972092">
        <ele>2172.0</ele>
        <time>2018-04-21T13:13:55.000Z</time>
      </trkpt>
      <trkpt lat="40.789434" lon="-3.9721">
        <ele>2172.1</ele>
        <time>2018-04-21T13:13:56.000Z</time>
      </trkpt>
      <trkpt lat="40.789429" lon="-3.972106">
        <ele>2172.2</ele>
        <time>2018-04-21T13:13:57.000Z</time>
      </trkpt>
      <trkpt lat="40.789426" lon="-3.97211">
        <ele>2172.2</ele>
        <time>2018-04-21T13:13:58.000Z</time>
      </trkpt>
      <trkpt lat="40.789425" lon="-3.972112">
        <ele>2172.3</ele>
        <time>2018-04-21T13:13:59.000Z</time>
      </trkpt>
      <trkpt lat="40.789425" lon="-3.972113">
        <ele>2172.3</ele>
        <time>2018-04-21T13:14:00.000Z</time>
      </trkpt>
      <trkpt lat="40.789425" lon="-3.972113">
        <ele>2172.3</ele>
        <time>2018-04-21T13:14:01.000Z</time>
      </trkpt>
      <trkpt lat="40.789424" lon="-3.972115">
        <ele>2172.3</ele>
        <time>2018-04-21T13:14:02.000Z</time>
      </trkpt>
      <trkpt lat="40.789422" lon="-3.972118">
        <ele>2172.3</ele>
        <time>2018-04-21T13:14:03.000Z</time>
      </trkpt>
      <trkpt lat="40.78942" lon="-3.972123">
        <ele>2172.4</ele>
        <time>2018-04-21T13:14:04.000Z</time>
      </trkpt>
      <trkpt lat="40.789417" lon="-3.972128">
        <ele>2172.5</ele>
        <time>2018-04-21T13:14:05.000Z</time>
      </trkpt>
      <trkpt lat="40.789415" lon="-3.972135">
        <ele>2172.6</ele>
        <time>2018-04-21T13:14:06.000Z</time>
      </trkpt>
      <trkpt lat="40.789413" lon="-3.972142">
        <ele>2172.7</ele>
        <time>2018-04-21T13:14:07.000Z</time>
      </trkpt>
      <trkpt lat="40.789411" lon="-3.972149">
        <ele>2172.8</ele>
        <time>2018-04-21T13:14:08.000Z</time>
      </trkpt>
      <trkpt lat="40.78941" lon="-3.972157">
        <ele>2172.9</ele>
        <time>2018-04-21T13:14:09.000Z</time>
      </trkpt>
      <trkpt lat="40.78941" lon="-3.972164">
        <ele>2173.0</ele>
        <time>2018-04-21T13:14:10.000Z</time>
      </trkpt>
      <trkpt lat="40.78941" lon="-3.972172">
        <ele>2173.1</ele>
        <time>2018-04-21T13:14:11.000Z</time>
      </trkpt>
      <trkpt lat="40.789411" lon="-3.972179">
        <ele>2173.1</ele>
        <time>2018-04-21T13:14:12.000Z</time>
      </trkpt>
      <trkpt lat="40.789412" lon="-3.972186">
        <ele>2173.2</ele>
        <time>2018-04-21T13:14:13.000Z</time>
      </trkpt>
      <trkpt lat="40.789413" lon="-3.972193">
        <ele>2173.3</ele>
        <time>2018-04-21T13:14:14.000Z</time>
      </trkpt>
      <trkpt lat="40.789413" lon="-3.972199">
        <ele>2173.4</ele>
        <time>2018-04-21T13:14:15.000Z</time>
      </trkpt>
      <trkpt lat="40.789414" lon="-3.972204">
        <ele>2173.4</ele>
        <time>2018-04-21T13:14:16.000Z</time>
      </trkpt>
      <trkpt lat="40.789414" lon="-3.972208">
        <ele>2173.5</ele>
        <time>2018-04-21T13:14:17.000Z</time>
      </trkpt>
      <trkpt lat="40.789413" lon="-3.972212">
        <ele>2173.5</ele>
        <time>2018-04-21T13:14:18.000Z</time>
      </trkpt>
      <trkpt lat="40.789413" lon="-3.972216">
        <ele>2173.6</ele>
        <time>2018-04-21T13:14:19.000Z</time>
      </trkpt>
      <trkpt lat="40.789412" lon="-3.97222">
        <ele>2173.6</ele>
        <time>2018-04-21T13:14:20.000Z</time>
      </trkpt>
      <trkpt lat="40.789411" lon="-3.972223">
        <ele>2173.7</ele>
        <time>2018-04-21T13:14:21.000Z</time>
      </trkpt>
      <trkpt lat="40.789409" lon="-3.972228">
        <ele>2173.8</ele>
        <time>2018-04-21T13:14:22.000Z</time>
      </trkpt>
      <trkpt lat="40.789407" lon="-3.972232">
        <ele>2173.8</ele>
        <time>2018-04-21T13:14:23.000Z</time>
      </trkpt>
      <trkpt lat="40.789406" lon="-3.972238">
        <ele>2173.9</ele>
        <time>2018-04-21T13:14:24.000Z</time>
      </trkpt>
      <trkpt lat="40.789403" lon="-3.972243">
        <ele>2174.0</ele>
        <time>2018-04-21T13:14:25.000Z</time>
      </trkpt>
      <trkpt lat="40.789401" lon="-3.97225">
        <ele>2174.1</ele>
        <time>2018-04-21T13:14:26.000Z</time>
      </trkpt>
      <trkpt lat="40.789399" lon="-3.972257">
        <ele>2174.2</ele>
        <time>2018-04-21T13:14:27.000Z</time>
      </trkpt>
      <trkpt lat="40.789397" lon="-3.972264">
        <ele>2174.3</ele>
        <time>2018-04-21T13:14:28.000Z</time>
      </trkpt>
      <trkpt lat="40.789394" lon="-3.972271">
        <ele>2174.4</ele>
        <time>2018-04-21T13:14:29.000Z</time>
      </trkpt>
      <trkpt lat="40.789392" lon="-3.972279">
        <ele>2174.5</ele>
        <time>2018-04-21T13:14:30.000Z</time>
      </trkpt>
      <trkpt lat="40.78939" lon="-3.972287">
        <ele>2174.6</ele>
        <time>2018-04-21T13:14:31.000Z</time>
      </trkpt>
      <trkpt lat="40.789387" lon="-3.972294">
        <ele>2174.7</ele>
        <time>2018-04-21T13:14:32.000Z</time>
      </trkpt>
      <trkpt lat="40.789385" lon="-3.972302">
        <ele>2174.9</ele>
        <time>2018-04-21T13:14:33.000Z</time>
      </trkpt>
      <trkpt lat="40.789383" lon="-3.972309">
        <ele>2175.0</ele>
        <time>2018-04-21T13:14:34.000Z</time>
      </trkpt>
      <trkpt lat="40.78938" lon="-3.972317">
        <ele>2175.1</ele>
        <time>2018-04-21T13:14:35.000Z</time>
      </trkpt>
      <trkpt lat="40.789377" lon="-3.972325">
        <ele>2175.2</ele>
        <time>2018-04-21T13:14:36.000Z</time>
      </trkpt>
      <trkpt lat="40.789374" lon="-3.972333">
        <ele>2175.4</ele>
        <time>2018-04-21T13:14:37.000Z</time>
      </trkpt>
      <trkpt lat="40.78937" lon="-3.97234">
        <ele>2175.5</ele>
        <time>2018-04-21T13:14:38.000Z</time>
      </trkpt>
      <trkpt lat="40.789366" lon="-3.972348">
        <ele>2175.6</ele>
        <time>2018-04-21T13:14:39.000Z</time>
      </trkpt>
      <trkpt lat="40.789362" lon="-3.972356">
        <ele>2175.8</ele>
        <time>2018-04-21T13:14:40.000Z</time>
      </trkpt>
      <trkpt lat="40.789358" lon="-3.972363">
        <ele>2175.9</ele>
        <time>2018-04-21T13:14:41.000Z</time>
      </trkpt>
      <trkpt lat="40.789354" lon="-3.972369">
        <ele>2176.0</ele>
        <time>2018-04-21T13:14:42.000Z</time>
      </trkpt>
      <trkpt lat="40.789351" lon="-3.972374">
        <ele>2176.1</ele>
        <time>2018-04-21T13:14:43.000Z</time>
      </trkpt>
      <trkpt lat="40.789349" lon="-3.972378">
        <ele>2176.2</ele>
        <time>2018-04-21T13:14:44.000Z</time>
      </trkpt>
      <trkpt lat="40.789347" lon="-3.972381">
        <ele>2176.2</ele>
        <time>2018-04-21T13:14:45.000Z</time>
      </trkpt>
      <trkpt lat="40.789347" lon="-3.972381">
        <ele>2176.2</ele>
        <time>2018-04-21T13:14:46.000Z</time>
      </trkpt>
      <trkpt lat="40.789347" lon="-3.972381">
        <ele>2176.2</ele>
        <time>2018-04-21T13:14:47.000Z</time>
      </trkpt>
      <trkpt lat="40.789347" lon="-3.972382">
        <ele>2176.3</ele>
        <time>2018-04-21T13:14:48.000Z</time>
      </trkpt>
      <trkpt lat="40.789344" lon="-3.972384">
        <ele>2176.3</ele>
        <time>2018-04-21T13:14:49.000Z</time>
      </trkpt>
      <trkpt lat="40.789339" lon="-3.972388">
        <ele>2176.4</ele>
        <time>2018-04-21T13:14:50.000Z</time>
      </trkpt>
      <trkpt lat="40.789332" lon="-3.972395">
        <ele>2176.6</ele>
        <time>2018-04-21T13:14:51.000Z</time>
      </trkpt>
      <trkpt lat="40.789326" lon="-3.972402">
        <ele>2176.7</ele>
        <time>2018-04-21T13:14:52.000Z</time>
      </trkpt>
      <trkpt lat="40.78932" lon="-3.97241">
        <ele>2176.9</ele>
        <time>2018-04-21T13:14:53.000Z</time>
      </trkpt>
      <trkpt lat="40.789317" lon="-3.972416">
        <ele>2177.0</ele>
        <time>2018-04-21T13:14:54.000Z</time>
      </trkpt>
      <trkpt lat="40.789315" lon="-3.972421">
        <ele>2177.1</ele>
        <time>2018-04-21T13:14:55.000Z</time>
      </trkpt>
      <trkpt lat="40.789314" lon="-3.972425">
        <ele>2177.2</ele>
        <time>2018-04-21T13:14:56.000Z</time>
      </trkpt>
      <trkpt lat="40.789315" lon="-3.972427">
        <ele>2177.2</ele>
        <time>2018-04-21T13:14:57.000Z</time>
      </trkpt>
      <trkpt lat="40.789315" lon="-3.972428">
        <ele>2177.2</ele>
        <time>2018-04-21T13:14:58.000Z</time>
      </trkpt>
      <trkpt lat="40.789315" lon="-3.972428">
        <ele>2177.2</ele>
        <time>2018-04-21T13:14:59.000Z</time>
      </trkpt>
      <trkpt lat="40.789314" lon="-3.972429">
        <ele>2177.2</ele>
        <time>2018-04-21T13:15:00.000Z</time>
      </trkpt>
      <trkpt lat="40.789312" lon="-3.972431">
        <ele>2177.3</ele>
        <time>2018-04-21T13:15:01.000Z</time>
      </trkpt>
      <trkpt lat="40.789309" lon="-3.972435">
        <ele>2177.4</ele>
        <time>2018-04-21T13:15:02.000Z</time>
      </trkpt>
      <trkpt lat="40.789306" lon="-3.97244">
        <ele>2177.5</ele>
        <time>2018-04-21T13:15:03.000Z</time>
      </trkpt>
      <trkpt lat="40.789301" lon="-3.972445">
        <ele>2177.6</ele>
        <time>2018-04-21T13:15:04.000Z</time>
      </trkpt>
      <trkpt lat="40.789297" lon="-3.972452">
        <ele>2177.7</ele>
        <time>2018-04-21T13:15:05.000Z</time>
      </trkpt>
      <trkpt lat="40.789292" lon="-3.972459">
        <ele>2177.9</ele>
        <time>2018-04-21T13:15:06.000Z</time>
      </trkpt>
      <trkpt lat="40.789288" lon="-3.972466">
        <ele>2178.1</ele>
        <time>2018-04-21T13:15:07.000Z</time>
      </trkpt>
      <trkpt lat="40.789283" lon="-3.972472">
        <ele>2178.2</ele>
        <time>2018-04-21T13:15:08.000Z</time>
      </trkpt>
      <trkpt lat="40.789279" lon="-3.972478">
        <ele>2178.3</ele>
        <time>2018-04-21T13:15:09.000Z</time>
      </trkpt>
      <trkpt lat="40.789274" lon="-3.972484">
        <ele>2178.5</ele>
        <time>2018-04-21T13:15:10.000Z</time>
      </trkpt>
      <trkpt lat="40.78927" lon="-3.97249">
        <ele>2178.6</ele>
        <time>2018-04-21T13:15:11.000Z</time>
      </trkpt>
      <trkpt lat="40.789264" lon="-3.972496">
        <ele>2178.8</ele>
        <time>2018-04-21T13:15:12.000Z</time>
      </trkpt>
      <trkpt lat="40.789258" lon="-3.972502">
        <ele>2178.9</ele>
        <time>2018-04-21T13:15:13.000Z</time>
      </trkpt>
      <trkpt lat="40.789251" lon="-3.972507">
        <ele>2179.1</ele>
        <time>2018-04-21T13:15:14.000Z</time>
      </trkpt>
      <trkpt lat="40.789243" lon="-3.972513">
        <ele>2179.3</ele>
        <time>2018-04-21T13:15:15.000Z</time>
      </trkpt>
      <trkpt lat="40.789234" lon="-3.972519">
        <ele>2179.5</ele>
        <time>2018-04-21T13:15:16.000Z</time>
      </trkpt>
      <trkpt lat="40.789226" lon="-3.972525">
        <ele>2179.6</ele>
        <time>2018-04-21T13:15:17.000Z</time>
      </trkpt>
      <trkpt lat="40.789221" lon="-3.972532">
        <ele>2179.8</ele>
        <time>2018-04-21T13:15:18.000Z</time>
      </trkpt>
      <trkpt lat="40.789217" lon="-3.972539">
        <ele>2180.0</ele>
        <time>2018-04-21T13:15:19.000Z</time>
      </trkpt>
      <trkpt lat="40.789215" lon="-3.972547">
        <ele>2180.1</ele>
        <time>2018-04-21T13:15:20.000Z</time>
      </trkpt>
      <trkpt lat="40.789215" lon="-3.972555">
        <ele>2180.2</ele>
        <time>2018-04-21T13:15:21.000Z</time>
      </trkpt>
      <trkpt lat="40.789214" lon="-3.972563">
        <ele>2180.4</ele>
        <time>2018-04-21T13:15:22.000Z</time>
      </trkpt>
      <trkpt lat="40.789212" lon="-3.972571">
        <ele>2180.5</ele>
        <time>2018-04-21T13:15:23.000Z</time>
      </trkpt>
      <trkpt lat="40.789209" lon="-3.972579">
        <ele>2180.7</ele>
        <time>2018-04-21T13:15:24.000Z</time>
      </trkpt>
      <trkpt lat="40.789205" lon="-3.972586">
        <ele>2180.8</ele>
        <time>2018-04-21T13:15:25.000Z</time>
      </trkpt>
      <trkpt lat="40.7892" lon="-3.972592">
        <ele>2181.0</ele>
        <time>2018-04-21T13:15:26.000Z</time>
      </trkpt>
      <trkpt lat="40.789194" lon="-3.972596">
        <ele>2181.1</ele>
        <time>2018-04-21T13:15:27.000Z</time>
      </trkpt>
      <trkpt lat="40.789188" lon="-3.972598">
        <ele>2181.2</ele>
        <time>2018-04-21T13:15:28.000Z</time>
      </trkpt>
      <trkpt lat="40.789181" lon="-3.9726">
        <ele>2181.4</ele>
        <time>2018-04-21T13:15:29.000Z</time>
      </trkpt>
      <trkpt lat="40.789176" lon="-3.972602">
        <ele>2181.5</ele>
        <time>2018-04-21T13:15:30.000Z</time>
      </trkpt>
      <trkpt lat="40.789171" lon="-3.972604">
        <ele>2181.6</ele>
        <time>2018-04-21T13:15:31.000Z</time>
      </trkpt>
      <trkpt lat="40.789166" lon="-3.972606">
        <ele>2181.7</ele>
        <time>2018-04-21T13:15:32.000Z</time>
      </trkpt>
      <trkpt lat="40.789162" lon="-3.972608">
        <ele>2181.7</ele>
        <time>2018-04-21T13:15:33.000Z</time>
      </trkpt>
      <trkpt lat="40.789158" lon="-3.97261">
        <ele>2181.7</ele>
        <time>2018-04-21T13:15:34.000Z</time>
      </trkpt>
      <trkpt lat="40.789153" lon="-3.972613">
        <ele>2181.7</ele>
        <time>2018-04-21T13:15:35.000Z</time>
      </trkpt>
      <trkpt lat="40.789149" lon="-3.972616">
        <ele>2181.7</ele>
        <time>2018-04-21T13:15:36.000Z</time>
      </trkpt>
      <trkpt lat="40.789143" lon="-3.97262">
        <ele>2181.8</ele>
        <time>2018-04-21T13:15:37.000Z</time>
      </trkpt>
      <trkpt lat="40.789138" lon="-3.972624">
        <ele>2181.8</ele>
        <time>2018-04-21T13:15:38.000Z</time>
      </trkpt>
      <trkpt lat="40.789132" lon="-3.972628">
        <ele>2181.8</ele>
        <time>2018-04-21T13:15:39.000Z</time>
      </trkpt>
      <trkpt lat="40.789126" lon="-3.972631">
        <ele>2181.9</ele>
        <time>2018-04-21T13:15:40.000Z</time>
      </trkpt>
      <trkpt lat="40.789119" lon="-3.972635">
        <ele>2181.9</ele>
        <time>2018-04-21T13:15:41.000Z</time>
      </trkpt>
      <trkpt lat="40.789113" lon="-3.972638">
        <ele>2181.9</ele>
        <time>2018-04-21T13:15:42.000Z</time>
      </trkpt>
      <trkpt lat="40.789107" lon="-3.972641">
        <ele>2181.9</ele>
        <time>2018-04-21T13:15:43.000Z</time>
      </trkpt>
      <trkpt lat="40.789101" lon="-3.972643">
        <ele>2181.9</ele>
        <time>2018-04-21T13:15:44.000Z</time>
      </trkpt>
      <trkpt lat="40.789095" lon="-3.972644">
        <ele>2181.9</ele>
        <time>2018-04-21T13:15:45.000Z</time>
      </trkpt>
      <trkpt lat="40.78909" lon="-3.972645">
        <ele>2181.9</ele>
        <time>2018-04-21T13:15:46.000Z</time>
      </trkpt>
      <trkpt lat="40.789084" lon="-3.972646">
        <ele>2181.9</ele>
        <time>2018-04-21T13:15:47.000Z</time>
      </trkpt>
      <trkpt lat="40.789079" lon="-3.972647">
        <ele>2181.9</ele>
        <time>2018-04-21T13:15:48.000Z</time>
      </trkpt>
      <trkpt lat="40.789073" lon="-3.972648">
        <ele>2181.9</ele>
        <time>2018-04-21T13:15:49.000Z</time>
      </trkpt>
      <trkpt lat="40.789068" lon="-3.97265">
        <ele>2181.9</ele>
        <time>2018-04-21T13:15:50.000Z</time>
      </trkpt>
      <trkpt lat="40.789062" lon="-3.972653">
        <ele>2181.9</ele>
        <time>2018-04-21T13:15:51.000Z</time>
      </trkpt>
      <trkpt lat="40.789056" lon="-3.972656">
        <ele>2181.9</ele>
        <time>2018-04-21T13:15:52.000Z</time>
      </trkpt>
      <trkpt lat="40.78905" lon="-3.972661">
        <ele>2182.0</ele>
        <time>2018-04-21T13:15:53.000Z</time>
      </trkpt>
      <trkpt lat="40.789044" lon="-3.972667">
        <ele>2182.1</ele>
        <time>2018-04-21T13:15:54.000Z</time>
      </trkpt>
      <trkpt lat="40.789039" lon="-3.972673">
        <ele>2182.2</ele>
        <time>2018-04-21T13:15:55.000Z</time>
      </trkpt>
      <trkpt lat="40.789033" lon="-3.972679">
        <ele>2182.2</ele>
        <time>2018-04-21T13:15:56.000Z</time>
      </trkpt>
      <trkpt lat="40.789028" lon="-3.972685">
        <ele>2182.3</ele>
        <time>2018-04-21T13:15:57.000Z</time>
      </trkpt>
      <trkpt lat="40.789024" lon="-3.972692">
        <ele>2182.4</ele>
        <time>2018-04-21T13:15:58.000Z</time>
      </trkpt>
      <trkpt lat="40.78902" lon="-3.972698">
        <ele>2182.5</ele>
        <time>2018-04-21T13:15:59.000Z</time>
      </trkpt>
      <trkpt lat="40.789016" lon="-3.972704">
        <ele>2182.6</ele>
        <time>2018-04-21T13:16:00.000Z</time>
      </trkpt>
      <trkpt lat="40.789013" lon="-3.97271">
        <ele>2182.7</ele>
        <time>2018-04-21T13:16:01.000Z</time>
      </trkpt>
      <trkpt lat="40.789009" lon="-3.972715">
        <ele>2182.7</ele>
        <time>2018-04-21T13:16:02.000Z</time>
      </trkpt>
      <trkpt lat="40.789006" lon="-3.972721">
        <ele>2182.8</ele>
        <time>2018-04-21T13:16:03.000Z</time>
      </trkpt>
      <trkpt lat="40.789002" lon="-3.972725">
        <ele>2182.9</ele>
        <time>2018-04-21T13:16:04.000Z</time>
      </trkpt>
      <trkpt lat="40.788997" lon="-3.972729">
        <ele>2182.9</ele>
        <time>2018-04-21T13:16:05.000Z</time>
      </trkpt>
      <trkpt lat="40.788991" lon="-3.972733">
        <ele>2183.0</ele>
        <time>2018-04-21T13:16:06.000Z</time>
      </trkpt>
      <trkpt lat="40.788985" lon="-3.972736">
        <ele>2183.0</ele>
        <time>2018-04-21T13:16:07.000Z</time>
      </trkpt>
      <trkpt lat="40.788979" lon="-3.972739">
        <ele>2183.1</ele>
        <time>2018-04-21T13:16:08.000Z</time>
      </trkpt>
      <trkpt lat="40.788972" lon="-3.972742">
        <ele>2183.1</ele>
        <time>2018-04-21T13:16:09.000Z</time>
      </trkpt>
      <trkpt lat="40.788966" lon="-3.972746">
        <ele>2183.1</ele>
        <time>2018-04-21T13:16:10.000Z</time>
      </trkpt>
      <trkpt lat="40.788961" lon="-3.972749">
        <ele>2183.2</ele>
        <time>2018-04-21T13:16:11.000Z</time>
      </trkpt>
      <trkpt lat="40.788956" lon="-3.972754">
        <ele>2183.2</ele>
        <time>2018-04-21T13:16:12.000Z</time>
      </trkpt>
      <trkpt lat="40.788953" lon="-3.972759">
        <ele>2183.3</ele>
        <time>2018-04-21T13:16:13.000Z</time>
      </trkpt>
      <trkpt lat="40.788951" lon="-3.972765">
        <ele>2183.4</ele>
        <time>2018-04-21T13:16:14.000Z</time>
      </trkpt>
      <trkpt lat="40.788948" lon="-3.972771">
        <ele>2183.5</ele>
        <time>2018-04-21T13:16:15.000Z</time>
      </trkpt>
      <trkpt lat="40.788947" lon="-3.972777">
        <ele>2183.6</ele>
        <time>2018-04-21T13:16:16.000Z</time>
      </trkpt>
      <trkpt lat="40.788944" lon="-3.972783">
        <ele>2183.7</ele>
        <time>2018-04-21T13:16:17.000Z</time>
      </trkpt>
      <trkpt lat="40.788942" lon="-3.972789">
        <ele>2183.8</ele>
        <time>2018-04-21T13:16:18.000Z</time>
      </trkpt>
      <trkpt lat="40.788938" lon="-3.972793">
        <ele>2183.9</ele>
        <time>2018-04-21T13:16:19.000Z</time>
      </trkpt>
      <trkpt lat="40.788933" lon="-3.972797">
        <ele>2183.9</ele>
        <time>2018-04-21T13:16:20.000Z</time>
      </trkpt>
      <trkpt lat="40.788927" lon="-3.972799">
        <ele>2183.9</ele>
        <time>2018-04-21T13:16:21.000Z</time>
      </trkpt>
      <trkpt lat="40.78892" lon="-3.972801">
        <ele>2184.0</ele>
        <time>2018-04-21T13:16:22.000Z</time>
      </trkpt>
      <trkpt lat="40.788911" lon="-3.972801">
        <ele>2183.9</ele>
        <time>2018-04-21T13:16:23.000Z</time>
      </trkpt>
      <trkpt lat="40.788903" lon="-3.972802">
        <ele>2183.9</ele>
        <time>2018-04-21T13:16:24.000Z</time>
      </trkpt>
      <trkpt lat="40.788894" lon="-3.972802">
        <ele>2183.9</ele>
        <time>2018-04-21T13:16:25.000Z</time>
      </trkpt>
      <trkpt lat="40.788886" lon="-3.972803">
        <ele>2183.9</ele>
        <time>2018-04-21T13:16:26.000Z</time>
      </trkpt>
      <trkpt lat="40.788878" lon="-3.972805">
        <ele>2183.9</ele>
        <time>2018-04-21T13:16:27.000Z</time>
      </trkpt>
      <trkpt lat="40.788872" lon="-3.972809">
        <ele>2184.0</ele>
        <time>2018-04-21T13:16:28.000Z</time>
      </trkpt>
      <trkpt lat="40.788866" lon="-3.972813">
        <ele>2184.0</ele>
        <time>2018-04-21T13:16:29.000Z</time>
      </trkpt>
      <trkpt lat="40.788862" lon="-3.972819">
        <ele>2184.1</ele>
        <time>2018-04-21T13:16:30.000Z</time>
      </trkpt>
      <trkpt lat="40.788858" lon="-3.972826">
        <ele>2184.2</ele>
        <time>2018-04-21T13:16:31.000Z</time>
      </trkpt>
      <trkpt lat="40.788855" lon="-3.972833">
        <ele>2184.4</ele>
        <time>2018-04-21T13:16:32.000Z</time>
      </trkpt>
      <trkpt lat="40.788852" lon="-3.972842">
        <ele>2184.5</ele>
        <time>2018-04-21T13:16:33.000Z</time>
      </trkpt>
      <trkpt lat="40.788849" lon="-3.972851">
        <ele>2184.7</ele>
        <time>2018-04-21T13:16:34.000Z</time>
      </trkpt>
      <trkpt lat="40.788847" lon="-3.97286">
        <ele>2184.9</ele>
        <time>2018-04-21T13:16:35.000Z</time>
      </trkpt>
      <trkpt lat="40.788844" lon="-3.972871">
        <ele>2185.1</ele>
        <time>2018-04-21T13:16:36.000Z</time>
      </trkpt>
      <trkpt lat="40.788841" lon="-3.972881">
        <ele>2185.2</ele>
        <time>2018-04-21T13:16:37.000Z</time>
      </trkpt>
      <trkpt lat="40.788839" lon="-3.972892">
        <ele>2185.4</ele>
        <time>2018-04-21T13:16:38.000Z</time>
      </trkpt>
      <trkpt lat="40.788836" lon="-3.972902">
        <ele>2185.6</ele>
        <time>2018-04-21T13:16:39.000Z</time>
      </trkpt>
      <trkpt lat="40.788834" lon="-3.972912">
        <ele>2185.8</ele>
        <time>2018-04-21T13:16:40.000Z</time>
      </trkpt>
      <trkpt lat="40.788831" lon="-3.972922">
        <ele>2186.0</ele>
        <time>2018-04-21T13:16:41.000Z</time>
      </trkpt>
      <trkpt lat="40.78883" lon="-3.97293">
        <ele>2186.1</ele>
        <time>2018-04-21T13:16:42.000Z</time>
      </trkpt>
      <trkpt lat="40.788828" lon="-3.972938">
        <ele>2186.3</ele>
        <time>2018-04-21T13:16:43.000Z</time>
      </trkpt>
      <trkpt lat="40.788827" lon="-3.972945">
        <ele>2186.4</ele>
        <time>2018-04-21T13:16:44.000Z</time>
      </trkpt>
      <trkpt lat="40.788826" lon="-3.972951">
        <ele>2186.5</ele>
        <time>2018-04-21T13:16:45.000Z</time>
      </trkpt>
      <trkpt lat="40.788825" lon="-3.972956">
        <ele>2186.6</ele>
        <time>2018-04-21T13:16:46.000Z</time>
      </trkpt>
      <trkpt lat="40.788824" lon="-3.972961">
        <ele>2186.7</ele>
        <time>2018-04-21T13:16:47.000Z</time>
      </trkpt>
      <trkpt lat="40.788823" lon="-3.972966">
        <ele>2186.8</ele>
        <time>2018-04-21T13:16:48.000Z</time>
      </trkpt>
      <trkpt lat="40.788822" lon="-3.972971">
        <ele>2186.9</ele>
        <time>2018-04-21T13:16:49.000Z</time>
      </trkpt>
      <trkpt lat="40.78882" lon="-3.972975">
        <ele>2187.0</ele>
        <time>2018-04-21T13:16:50.000Z</time>
      </trkpt>
      <trkpt lat="40.788818" lon="-3.97298">
        <ele>2187.1</ele>
        <time>2018-04-21T13:16:51.000Z</time>
      </trkpt>
      <trkpt lat="40.788815" lon="-3.972985">
        <ele>2187.2</ele>
        <time>2018-04-21T13:16:52.000Z</time>
      </trkpt>
      <trkpt lat="40.788812" lon="-3.97299">
        <ele>2187.3</ele>
        <time>2018-04-21T13:16:53.000Z</time>
      </trkpt>
      <trkpt lat="40.788809" lon="-3.972995">
        <ele>2187.4</ele>
        <time>2018-04-21T13:16:54.000Z</time>
      </trkpt>
      <trkpt lat="40.788806" lon="-3.972999">
        <ele>2187.4</ele>
        <time>2018-04-21T13:16:55.000Z</time>
      </trkpt>
      <trkpt lat="40.788803" lon="-3.973003">
        <ele>2187.5</ele>
        <time>2018-04-21T13:16:56.000Z</time>
      </trkpt>
      <trkpt lat="40.788801" lon="-3.973007">
        <ele>2187.6</ele>
        <time>2018-04-21T13:16:57.000Z</time>
      </trkpt>
      <trkpt lat="40.788799" lon="-3.97301">
        <ele>2187.6</ele>
        <time>2018-04-21T13:16:58.000Z</time>
      </trkpt>
      <trkpt lat="40.788797" lon="-3.973014">
        <ele>2187.7</ele>
        <time>2018-04-21T13:16:59.000Z</time>
      </trkpt>
      <trkpt lat="40.788796" lon="-3.973016">
        <ele>2187.8</ele>
        <time>2018-04-21T13:17:00.000Z</time>
      </trkpt>
      <trkpt lat="40.788794" lon="-3.973019">
        <ele>2187.8</ele>
        <time>2018-04-21T13:17:01.000Z</time>
      </trkpt>
      <trkpt lat="40.788792" lon="-3.973023">
        <ele>2187.9</ele>
        <time>2018-04-21T13:17:02.000Z</time>
      </trkpt>
      <trkpt lat="40.788791" lon="-3.973027">
        <ele>2188.0</ele>
        <time>2018-04-21T13:17:03.000Z</time>
      </trkpt>
      <trkpt lat="40.788788" lon="-3.973031">
        <ele>2188.0</ele>
        <time>2018-04-21T13:17:04.000Z</time>
      </trkpt>
      <trkpt lat="40.788785" lon="-3.973036">
        <ele>2188.1</ele>
        <time>2018-04-21T13:17:05.000Z</time>
      </trkpt>
      <trkpt lat="40.788782" lon="-3.973043">
        <ele>2188.3</ele>
        <time>2018-04-21T13:17:06.000Z</time>
      </trkpt>
      <trkpt lat="40.788779" lon="-3.973049">
        <ele>2188.4</ele>
        <time>2018-04-21T13:17:07.000Z</time>
      </trkpt>
      <trkpt lat="40.788775" lon="-3.973056">
        <ele>2188.5</ele>
        <time>2018-04-21T13:17:08.000Z</time>
      </trkpt>
      <trkpt lat="40.788772" lon="-3.973062">
        <ele>2188.6</ele>
        <time>2018-04-21T13:17:09.000Z</time>
      </trkpt>
      <trkpt lat="40.78877" lon="-3.973069">
        <ele>2188.8</ele>
        <time>2018-04-21T13:17:10.000Z</time>
      </trkpt>
      <trkpt lat="40.788768" lon="-3.973075">
        <ele>2188.9</ele>
        <time>2018-04-21T13:17:11.000Z</time>
      </trkpt>
      <trkpt lat="40.788766" lon="-3.97308">
        <ele>2189.0</ele>
        <time>2018-04-21T13:17:12.000Z</time>
      </trkpt>
      <trkpt lat="40.788766" lon="-3.973084">
        <ele>2189.1</ele>
        <time>2018-04-21T13:17:13.000Z</time>
      </trkpt>
      <trkpt lat="40.788766" lon="-3.973088">
        <ele>2189.1</ele>
        <time>2018-04-21T13:17:14.000Z</time>
      </trkpt>
      <trkpt lat="40.788767" lon="-3.973091">
        <ele>2189.2</ele>
        <time>2018-04-21T13:17:15.000Z</time>
      </trkpt>
      <trkpt lat="40.788768" lon="-3.973093">
        <ele>2189.2</ele>
        <time>2018-04-21T13:17:16.000Z</time>
      </trkpt>
      <trkpt lat="40.788769" lon="-3.973095">
        <ele>2189.3</ele>
        <time>2018-04-21T13:17:17.000Z</time>
      </trkpt>
      <trkpt lat="40.78877" lon="-3.973097">
        <ele>2189.3</ele>
        <time>2018-04-21T13:17:18.000Z</time>
      </trkpt>
      <trkpt lat="40.78877" lon="-3.973098">
        <ele>2189.3</ele>
        <time>2018-04-21T13:17:19.000Z</time>
      </trkpt>
      <trkpt lat="40.788771" lon="-3.973099">
        <ele>2189.4</ele>
        <time>2018-04-21T13:17:20.000Z</time>
      </trkpt>
      <trkpt lat="40.788772" lon="-3.9731">
        <ele>2189.4</ele>
        <time>2018-04-21T13:17:21.000Z</time>
      </trkpt>
      <trkpt lat="40.788772" lon="-3.9731">
        <ele>2189.4</ele>
        <time>2018-04-21T13:17:22.000Z</time>
      </trkpt>
      <trkpt lat="40.788772" lon="-3.9731">
        <ele>2189.4</ele>
        <time>2018-04-21T13:17:23.000Z</time>
      </trkpt>
      <trkpt lat="40.788772" lon="-3.9731">
        <ele>2189.4</ele>
        <time>2018-04-21T13:17:24.000Z</time>
      </trkpt>
      <trkpt lat="40.788772" lon="-3.9731">
        <ele>2189.4</ele>
        <time>2018-04-21T13:17:25.000Z</time>
      </trkpt>
      <trkpt lat="40.788772" lon="-3.9731">
        <ele>2189.4</ele>
        <time>2018-04-21T13:17:26.000Z</time>
      </trkpt>
      <trkpt lat="40.788772" lon="-3.9731">
        <ele>2189.4</ele>
        <time>2018-04-21T13:17:27.000Z</time>
      </trkpt>
      <trkpt lat="40.788772" lon="-3.973099">
        <ele>2189.4</ele>
        <time>2018-04-21T13:17:28.000Z</time>
      </trkpt>
      <trkpt lat="40.788772" lon="-3.973099">
        <ele>2189.4</ele>
        <time>2018-04-21T13:17:29.000Z</time>
      </trkpt>
      <trkpt lat="40.788772" lon="-3.973099">
        <ele>2189.4</ele>
        <time>2018-04-21T13:17:30.000Z</time>
      </trkpt>
      <trkpt lat="40.788772" lon="-3.9731">
        <ele>2189.4</ele>
        <time>2018-04-21T13:17:31.000Z</time>
      </trkpt>
      <trkpt lat="40.788772" lon="-3.973101">
        <ele>2189.4</ele>
        <time>2018-04-21T13:17:32.000Z</time>
      </trkpt>
      <trkpt lat="40.788773" lon="-3.973103">
        <ele>2189.4</ele>
        <time>2018-04-21T13:17:33.000Z</time>
      </trkpt>
      <trkpt lat="40.788774" lon="-3.973105">
        <ele>2189.5</ele>
        <time>2018-04-21T13:17:34.000Z</time>
      </trkpt>
      <trkpt lat="40.788775" lon="-3.973108">
        <ele>2189.5</ele>
        <time>2018-04-21T13:17:35.000Z</time>
      </trkpt>
      <trkpt lat="40.788775" lon="-3.973112">
        <ele>2189.6</ele>
        <time>2018-04-21T13:17:36.000Z</time>
      </trkpt>
      <trkpt lat="40.788775" lon="-3.973117">
        <ele>2189.7</ele>
        <time>2018-04-21T13:17:37.000Z</time>
      </trkpt>
      <trkpt lat="40.788775" lon="-3.973124">
        <ele>2189.8</ele>
        <time>2018-04-21T13:17:38.000Z</time>
      </trkpt>
      <trkpt lat="40.788772" lon="-3.973132">
        <ele>2190.0</ele>
        <time>2018-04-21T13:17:39.000Z</time>
      </trkpt>
      <trkpt lat="40.788769" lon="-3.97314">
        <ele>2190.2</ele>
        <time>2018-04-21T13:17:40.000Z</time>
      </trkpt>
      <trkpt lat="40.788764" lon="-3.973148">
        <ele>2190.3</ele>
        <time>2018-04-21T13:17:41.000Z</time>
      </trkpt>
      <trkpt lat="40.788757" lon="-3.973155">
        <ele>2190.5</ele>
        <time>2018-04-21T13:17:42.000Z</time>
      </trkpt>
      <trkpt lat="40.78875" lon="-3.973162">
        <ele>2190.6</ele>
        <time>2018-04-21T13:17:43.000Z</time>
      </trkpt>
      <trkpt lat="40.788741" lon="-3.973167">
        <ele>2190.7</ele>
        <time>2018-04-21T13:17:44.000Z</time>
      </trkpt>
      <trkpt lat="40.788732" lon="-3.973173">
        <ele>2190.8</ele>
        <time>2018-04-21T13:17:45.000Z</time>
      </trkpt>
      <trkpt lat="40.788723" lon="-3.973178">
        <ele>2190.9</ele>
        <time>2018-04-21T13:17:46.000Z</time>
      </trkpt>
      <trkpt lat="40.788714" lon="-3.973184">
        <ele>2191.1</ele>
        <time>2018-04-21T13:17:47.000Z</time>
      </trkpt>
      <trkpt lat="40.788705" lon="-3.973191">
        <ele>2191.2</ele>
        <time>2018-04-21T13:17:48.000Z</time>
      </trkpt>
      <trkpt lat="40.788696" lon="-3.973198">
        <ele>2191.4</ele>
        <time>2018-04-21T13:17:49.000Z</time>
      </trkpt>
      <trkpt lat="40.788689" lon="-3.973207">
        <ele>2191.6</ele>
        <time>2018-04-21T13:17:50.000Z</time>
      </trkpt>
      <trkpt lat="40.788682" lon="-3.973217">
        <ele>2191.8</ele>
        <time>2018-04-21T13:17:51.000Z</time>
      </trkpt>
      <trkpt lat="40.788676" lon="-3.973227">
        <ele>2192.0</ele>
        <time>2018-04-21T13:17:52.000Z</time>
      </trkpt>
      <trkpt lat="40.788671" lon="-3.973237">
        <ele>2192.2</ele>
        <time>2018-04-21T13:17:53.000Z</time>
      </trkpt>
      <trkpt lat="40.788668" lon="-3.973247">
        <ele>2192.4</ele>
        <time>2018-04-21T13:17:54.000Z</time>
      </trkpt>
      <trkpt lat="40.788666" lon="-3.973257">
        <ele>2192.6</ele>
        <time>2018-04-21T13:17:55.000Z</time>
      </trkpt>
      <trkpt lat="40.788665" lon="-3.973267">
        <ele>2192.8</ele>
        <time>2018-04-21T13:17:56.000Z</time>
      </trkpt>
      <trkpt lat="40.788665" lon="-3.973276">
        <ele>2193.0</ele>
        <time>2018-04-21T13:17:57.000Z</time>
      </trkpt>
      <trkpt lat="40.788665" lon="-3.973286">
        <ele>2193.2</ele>
        <time>2018-04-21T13:17:58.000Z</time>
      </trkpt>
      <trkpt lat="40.788666" lon="-3.973294">
        <ele>2193.4</ele>
        <time>2018-04-21T13:17:59.000Z</time>
      </trkpt>
      <trkpt lat="40.788666" lon="-3.973303">
        <ele>2193.6</ele>
        <time>2018-04-21T13:18:00.000Z</time>
      </trkpt>
      <trkpt lat="40.788666" lon="-3.973311">
        <ele>2193.7</ele>
        <time>2018-04-21T13:18:01.000Z</time>
      </trkpt>
      <trkpt lat="40.788666" lon="-3.973318">
        <ele>2193.9</ele>
        <time>2018-04-21T13:18:02.000Z</time>
      </trkpt>
      <trkpt lat="40.788665" lon="-3.973325">
        <ele>2194.0</ele>
        <time>2018-04-21T13:18:03.000Z</time>
      </trkpt>
      <trkpt lat="40.788662" lon="-3.973331">
        <ele>2194.2</ele>
        <time>2018-04-21T13:18:04.000Z</time>
      </trkpt>
      <trkpt lat="40.788659" lon="-3.973337">
        <ele>2194.3</ele>
        <time>2018-04-21T13:18:05.000Z</time>
      </trkpt>
      <trkpt lat="40.788656" lon="-3.973341">
        <ele>2194.3</ele>
        <time>2018-04-21T13:18:06.000Z</time>
      </trkpt>
      <trkpt lat="40.788652" lon="-3.973346">
        <ele>2194.4</ele>
        <time>2018-04-21T13:18:07.000Z</time>
      </trkpt>
      <trkpt lat="40.788648" lon="-3.973349">
        <ele>2194.4</ele>
        <time>2018-04-21T13:18:08.000Z</time>
      </trkpt>
      <trkpt lat="40.788644" lon="-3.973352">
        <ele>2194.5</ele>
        <time>2018-04-21T13:18:09.000Z</time>
      </trkpt>
      <trkpt lat="40.788641" lon="-3.973355">
        <ele>2194.5</ele>
        <time>2018-04-21T13:18:10.000Z</time>
      </trkpt>
      <trkpt lat="40.788639" lon="-3.973357">
        <ele>2194.5</ele>
        <time>2018-04-21T13:18:11.000Z</time>
      </trkpt>
      <trkpt lat="40.788637" lon="-3.973359">
        <ele>2194.6</ele>
        <time>2018-04-21T13:18:12.000Z</time>
      </trkpt>
      <trkpt lat="40.788635" lon="-3.973362">
        <ele>2194.6</ele>
        <time>2018-04-21T13:18:13.000Z</time>
      </trkpt>
      <trkpt lat="40.788633" lon="-3.973368">
        <ele>2194.7</ele>
        <time>2018-04-21T13:18:14.000Z</time>
      </trkpt>
      <trkpt lat="40.788631" lon="-3.973375">
        <ele>2194.8</ele>
        <time>2018-04-21T13:18:15.000Z</time>
      </trkpt>
      <trkpt lat="40.788628" lon="-3.973384">
        <ele>2194.9</ele>
        <time>2018-04-21T13:18:16.000Z</time>
      </trkpt>
      <trkpt lat="40.788625" lon="-3.973393">
        <ele>2195.0</ele>
        <time>2018-04-21T13:18:17.000Z</time>
      </trkpt>
      <trkpt lat="40.788624" lon="-3.973401">
        <ele>2195.1</ele>
        <time>2018-04-21T13:18:18.000Z</time>
      </trkpt>
      <trkpt lat="40.788623" lon="-3.973407">
        <ele>2195.2</ele>
        <time>2018-04-21T13:18:19.000Z</time>
      </trkpt>
      <trkpt lat="40.788623" lon="-3.973411">
        <ele>2195.2</ele>
        <time>2018-04-21T13:18:20.000Z</time>
      </trkpt>
      <trkpt lat="40.788624" lon="-3.973413">
        <ele>2195.2</ele>
        <time>2018-04-21T13:18:21.000Z</time>
      </trkpt>
      <trkpt lat="40.788624" lon="-3.973413">
        <ele>2195.2</ele>
        <time>2018-04-21T13:18:22.000Z</time>
      </trkpt>
      <trkpt lat="40.788625" lon="-3.973411">
        <ele>2195.2</ele>
        <time>2018-04-21T13:18:23.000Z</time>
      </trkpt>
      <trkpt lat="40.788626" lon="-3.973409">
        <ele>2195.2</ele>
        <time>2018-04-21T13:18:24.000Z</time>
      </trkpt>
      <trkpt lat="40.788626" lon="-3.973408">
        <ele>2195.2</ele>
        <time>2018-04-21T13:18:25.000Z</time>
      </trkpt>
      <trkpt lat="40.788626" lon="-3.973408">
        <ele>2195.2</ele>
        <time>2018-04-21T13:18:26.000Z</time>
      </trkpt>
      <trkpt lat="40.788625" lon="-3.97341">
        <ele>2195.2</ele>
        <time>2018-04-21T13:18:27.000Z</time>
      </trkpt>
      <trkpt lat="40.788625" lon="-3.973413">
        <ele>2195.2</ele>
        <time>2018-04-21T13:18:28.000Z</time>
      </trkpt>
      <trkpt lat="40.788624" lon="-3.973418">
        <ele>2195.3</ele>
        <time>2018-04-21T13:18:29.000Z</time>
      </trkpt>
      <trkpt lat="40.788623" lon="-3.973424">
        <ele>2195.4</ele>
        <time>2018-04-21T13:18:30.000Z</time>
      </trkpt>
      <trkpt lat="40.788621" lon="-3.97343">
        <ele>2195.4</ele>
        <time>2018-04-21T13:18:31.000Z</time>
      </trkpt>
      <trkpt lat="40.78862" lon="-3.973438">
        <ele>2195.5</ele>
        <time>2018-04-21T13:18:32.000Z</time>
      </trkpt>
      <trkpt lat="40.788618" lon="-3.973446">
        <ele>2195.7</ele>
        <time>2018-04-21T13:18:33.000Z</time>
      </trkpt>
      <trkpt lat="40.788616" lon="-3.973455">
        <ele>2195.8</ele>
        <time>2018-04-21T13:18:34.000Z</time>
      </trkpt>
      <trkpt lat="40.788614" lon="-3.973464">
        <ele>2195.9</ele>
        <time>2018-04-21T13:18:35.000Z</time>
      </trkpt>
      <trkpt lat="40.788611" lon="-3.973473">
        <ele>2196.0</ele>
        <time>2018-04-21T13:18:36.000Z</time>
      </trkpt>
      <trkpt lat="40.788609" lon="-3.973483">
        <ele>2196.1</ele>
        <time>2018-04-21T13:18:37.000Z</time>
      </trkpt>
      <trkpt lat="40.788606" lon="-3.973492">
        <ele>2196.3</ele>
        <time>2018-04-21T13:18:38.000Z</time>
      </trkpt>
      <trkpt lat="40.788603" lon="-3.973501">
        <ele>2196.4</ele>
        <time>2018-04-21T13:18:39.000Z</time>
      </trkpt>
      <trkpt lat="40.7886" lon="-3.973509">
        <ele>2196.5</ele>
        <time>2018-04-21T13:18:40.000Z</time>
      </trkpt>
      <trkpt lat="40.788597" lon="-3.973517">
        <ele>2196.6</ele>
        <time>2018-04-21T13:18:41.000Z</time>
      </trkpt>
      <trkpt lat="40.788593" lon="-3.973525">
        <ele>2196.8</ele>
        <time>2018-04-21T13:18:42.000Z</time>
      </trkpt>
      <trkpt lat="40.78859" lon="-3.973532">
        <ele>2196.9</ele>
        <time>2018-04-21T13:18:43.000Z</time>
      </trkpt>
      <trkpt lat="40.788586" lon="-3.973539">
        <ele>2197.0</ele>
        <time>2018-04-21T13:18:44.000Z</time>
      </trkpt>
      <trkpt lat="40.788583" lon="-3.973546">
        <ele>2197.1</ele>
        <time>2018-04-21T13:18:45.000Z</time>
      </trkpt>
      <trkpt lat="40.788579" lon="-3.973553">
        <ele>2197.2</ele>
        <time>2018-04-21T13:18:46.000Z</time>
      </trkpt>
      <trkpt lat="40.788576" lon="-3.97356">
        <ele>2197.3</ele>
        <time>2018-04-21T13:18:47.000Z</time>
      </trkpt>
      <trkpt lat="40.788572" lon="-3.973567">
        <ele>2197.4</ele>
        <time>2018-04-21T13:18:48.000Z</time>
      </trkpt>
      <trkpt lat="40.788569" lon="-3.973574">
        <ele>2197.5</ele>
        <time>2018-04-21T13:18:49.000Z</time>
      </trkpt>
      <trkpt lat="40.788566" lon="-3.973582">
        <ele>2197.7</ele>
        <time>2018-04-21T13:18:50.000Z</time>
      </trkpt>
      <trkpt lat="40.788563" lon="-3.97359">
        <ele>2197.8</ele>
        <time>2018-04-21T13:18:51.000Z</time>
      </trkpt>
      <trkpt lat="40.78856" lon="-3.973598">
        <ele>2197.9</ele>
        <time>2018-04-21T13:18:52.000Z</time>
      </trkpt>
      <trkpt lat="40.788557" lon="-3.973606">
        <ele>2198.1</ele>
        <time>2018-04-21T13:18:53.000Z</time>
      </trkpt>
      <trkpt lat="40.788554" lon="-3.973614">
        <ele>2198.2</ele>
        <time>2018-04-21T13:18:54.000Z</time>
      </trkpt>
      <trkpt lat="40.78855" lon="-3.973621">
        <ele>2198.3</ele>
        <time>2018-04-21T13:18:55.000Z</time>
      </trkpt>
      <trkpt lat="40.788547" lon="-3.973629">
        <ele>2198.4</ele>
        <time>2018-04-21T13:18:56.000Z</time>
      </trkpt>
      <trkpt lat="40.788544" lon="-3.973635">
        <ele>2198.6</ele>
        <time>2018-04-21T13:18:57.000Z</time>
      </trkpt>
      <trkpt lat="40.78854" lon="-3.973642">
        <ele>2198.7</ele>
        <time>2018-04-21T13:18:58.000Z</time>
      </trkpt>
      <trkpt lat="40.788537" lon="-3.973649">
        <ele>2198.8</ele>
        <time>2018-04-21T13:18:59.000Z</time>
      </trkpt>
      <trkpt lat="40.788533" lon="-3.973655">
        <ele>2198.9</ele>
        <time>2018-04-21T13:19:00.000Z</time>
      </trkpt>
      <trkpt lat="40.788529" lon="-3.973661">
        <ele>2199.0</ele>
        <time>2018-04-21T13:19:01.000Z</time>
      </trkpt>
      <trkpt lat="40.788525" lon="-3.973667">
        <ele>2199.2</ele>
        <time>2018-04-21T13:19:02.000Z</time>
      </trkpt>
      <trkpt lat="40.78852" lon="-3.973674">
        <ele>2199.3</ele>
        <time>2018-04-21T13:19:03.000Z</time>
      </trkpt>
      <trkpt lat="40.788516" lon="-3.97368">
        <ele>2199.4</ele>
        <time>2018-04-21T13:19:04.000Z</time>
      </trkpt>
      <trkpt lat="40.788511" lon="-3.973687">
        <ele>2199.6</ele>
        <time>2018-04-21T13:19:05.000Z</time>
      </trkpt>
      <trkpt lat="40.788506" lon="-3.973693">
        <ele>2199.7</ele>
        <time>2018-04-21T13:19:06.000Z</time>
      </trkpt>
      <trkpt lat="40.788501" lon="-3.9737">
        <ele>2199.9</ele>
        <time>2018-04-21T13:19:07.000Z</time>
      </trkpt>
      <trkpt lat="40.788496" lon="-3.973708">
        <ele>2200.0</ele>
        <time>2018-04-21T13:19:08.000Z</time>
      </trkpt>
      <trkpt lat="40.78849" lon="-3.973716">
        <ele>2200.2</ele>
        <time>2018-04-21T13:19:09.000Z</time>
      </trkpt>
      <trkpt lat="40.788485" lon="-3.973724">
        <ele>2200.4</ele>
        <time>2018-04-21T13:19:10.000Z</time>
      </trkpt>
      <trkpt lat="40.788479" lon="-3.973732">
        <ele>2200.6</ele>
        <time>2018-04-21T13:19:11.000Z</time>
      </trkpt>
      <trkpt lat="40.788472" lon="-3.973741">
        <ele>2200.8</ele>
        <time>2018-04-21T13:19:12.000Z</time>
      </trkpt>
      <trkpt lat="40.788466" lon="-3.973751">
        <ele>2201.0</ele>
        <time>2018-04-21T13:19:13.000Z</time>
      </trkpt>
      <trkpt lat="40.78846" lon="-3.973761">
        <ele>2201.2</ele>
        <time>2018-04-21T13:19:14.000Z</time>
      </trkpt>
      <trkpt lat="40.788453" lon="-3.973771">
        <ele>2201.5</ele>
        <time>2018-04-21T13:19:15.000Z</time>
      </trkpt>
      <trkpt lat="40.788447" lon="-3.973781">
        <ele>2201.7</ele>
        <time>2018-04-21T13:19:16.000Z</time>
      </trkpt>
      <trkpt lat="40.78844" lon="-3.973792">
        <ele>2201.9</ele>
        <time>2018-04-21T13:19:17.000Z</time>
      </trkpt>
      <trkpt lat="40.788434" lon="-3.973803">
        <ele>2202.2</ele>
        <time>2018-04-21T13:19:18.000Z</time>
      </trkpt>
      <trkpt lat="40.788428" lon="-3.973814">
        <ele>2202.4</ele>
        <time>2018-04-21T13:19:19.000Z</time>
      </trkpt>
      <trkpt lat="40.788421" lon="-3.973825">
        <ele>2202.7</ele>
        <time>2018-04-21T13:19:20.000Z</time>
      </trkpt>
      <trkpt lat="40.788415" lon="-3.973837">
        <ele>2203.0</ele>
        <time>2018-04-21T13:19:21.000Z</time>
      </trkpt>
      <trkpt lat="40.788409" lon="-3.973849">
        <ele>2203.3</ele>
        <time>2018-04-21T13:19:22.000Z</time>
      </trkpt>
      <trkpt lat="40.788403" lon="-3.973861">
        <ele>2203.5</ele>
        <time>2018-04-21T13:19:23.000Z</time>
      </trkpt>
      <trkpt lat="40.788398" lon="-3.973873">
        <ele>2203.8</ele>
        <time>2018-04-21T13:19:24.000Z</time>
      </trkpt>
      <trkpt lat="40.788392" lon="-3.973885">
        <ele>2204.1</ele>
        <time>2018-04-21T13:19:25.000Z</time>
      </trkpt>
      <trkpt lat="40.788387" lon="-3.973897">
        <ele>2204.4</ele>
        <time>2018-04-21T13:19:26.000Z</time>
      </trkpt>
      <trkpt lat="40.788383" lon="-3.973908">
        <ele>2204.6</ele>
        <time>2018-04-21T13:19:27.000Z</time>
      </trkpt>
      <trkpt lat="40.788378" lon="-3.973919">
        <ele>2204.9</ele>
        <time>2018-04-21T13:19:28.000Z</time>
      </trkpt>
      <trkpt lat="40.788374" lon="-3.973928">
        <ele>2205.1</ele>
        <time>2018-04-21T13:19:29.000Z</time>
      </trkpt>
      <trkpt lat="40.788371" lon="-3.973936">
        <ele>2205.3</ele>
        <time>2018-04-21T13:19:30.000Z</time>
      </trkpt>
      <trkpt lat="40.788368" lon="-3.973943">
        <ele>2205.4</ele>
        <time>2018-04-21T13:19:31.000Z</time>
      </trkpt>
      <trkpt lat="40.78836" lon="-3.973957">
        <ele>2205.8</ele>
        <time>2018-04-21T13:19:32.000Z</time>
      </trkpt>
      <trkpt lat="40.78836" lon="-3.973958">
        <ele>2205.8</ele>
        <time>2018-04-21T13:19:33.000Z</time>
      </trkpt>
      <trkpt lat="40.78836" lon="-3.973958">
        <ele>2205.8</ele>
        <time>2018-04-21T13:19:34.000Z</time>
      </trkpt>
      <trkpt lat="40.788058" lon="-3.974521">
        <ele>2211.2</ele>
        <time>2018-04-21T13:23:33.000Z</time>
      </trkpt>
      <trkpt lat="40.787981" lon="-3.974658">
        <ele>2212.2</ele>
        <time>2018-04-21T13:23:34.000Z</time>
      </trkpt>
      <trkpt lat="40.787981" lon="-3.974658">
        <ele>2212.2</ele>
        <time>2018-04-21T13:23:35.000Z</time>
      </trkpt>
      <trkpt lat="40.78798" lon="-3.974659">
        <ele>2212.2</ele>
        <time>2018-04-21T13:23:36.000Z</time>
      </trkpt>
      <trkpt lat="40.78798" lon="-3.974659">
        <ele>2212.2</ele>
        <time>2018-04-21T13:23:37.000Z</time>
      </trkpt>
      <trkpt lat="40.78798" lon="-3.974659">
        <ele>2212.2</ele>
        <time>2018-04-21T13:23:38.000Z</time>
      </trkpt>
      <trkpt lat="40.78798" lon="-3.974659">
        <ele>2212.2</ele>
        <time>2018-04-21T13:23:39.000Z</time>
      </trkpt>
      <trkpt lat="40.78798" lon="-3.974659">
        <ele>2212.2</ele>
        <time>2018-04-21T13:23:40.000Z</time>
      </trkpt>
      <trkpt lat="40.78798" lon="-3.974659">
        <ele>2212.2</ele>
        <time>2018-04-21T13:23:41.000Z</time>
      </trkpt>
      <trkpt lat="40.78798" lon="-3.974659">
        <ele>2212.2</ele>
        <time>2018-04-21T13:23:42.000Z</time>
      </trkpt>
      <trkpt lat="40.78798" lon="-3.974659">
        <ele>2212.2</ele>
        <time>2018-04-21T13:23:43.000Z</time>
      </trkpt>
      <trkpt lat="40.78798" lon="-3.974659">
        <ele>2212.2</ele>
        <time>2018-04-21T13:23:44.000Z</time>
      </trkpt>
      <trkpt lat="40.78798" lon="-3.974659">
        <ele>2212.2</ele>
        <time>2018-04-21T13:23:45.000Z</time>
      </trkpt>
      <trkpt lat="40.78798" lon="-3.974659">
        <ele>2212.2</ele>
        <time>2018-04-21T13:23:46.000Z</time>
      </trkpt>
      <trkpt lat="40.78798" lon="-3.974659">
        <ele>2212.2</ele>
        <time>2018-04-21T13:23:47.000Z</time>
      </trkpt>
      <trkpt lat="40.78798" lon="-3.974659">
        <ele>2212.2</ele>
        <time>2018-04-21T13:23:48.000Z</time>
      </trkpt>
      <trkpt lat="40.78798" lon="-3.974659">
        <ele>2212.2</ele>
        <time>2018-04-21T13:23:49.000Z</time>
      </trkpt>
      <trkpt lat="40.78798" lon="-3.974659">
        <ele>2212.2</ele>
        <time>2018-04-21T13:23:50.000Z</time>
      </trkpt>
      <trkpt lat="40.78798" lon="-3.974659">
        <ele>2212.2</ele>
        <time>2018-04-21T13:23:51.000Z</time>
      </trkpt>
      <trkpt lat="40.78798" lon="-3.974659">
        <ele>2212.2</ele>
        <time>2018-04-21T13:23:52.000Z</time>
      </trkpt>
      <trkpt lat="40.78798" lon="-3.974659">
        <ele>2212.2</ele>
        <time>2018-04-21T13:23:53.000Z</time>
      </trkpt>
      <trkpt lat="40.78798" lon="-3.974659">
        <ele>2212.2</ele>
        <time>2018-04-21T13:23:54.000Z</time>
      </trkpt>
      <trkpt lat="40.78798" lon="-3.974659">
        <ele>2212.2</ele>
        <time>2018-04-21T13:23:55.000Z</time>
      </trkpt>
      <trkpt lat="40.78798" lon="-3.974659">
        <ele>2212.2</ele>
        <time>2018-04-21T13:23:56.000Z</time>
      </trkpt>
      <trkpt lat="40.78798" lon="-3.974659">
        <ele>2212.2</ele>
        <time>2018-04-21T13:23:57.000Z</time>
      </trkpt>
      <trkpt lat="40.78798" lon="-3.974659">
        <ele>2212.2</ele>
        <time>2018-04-21T13:23:58.000Z</time>
      </trkpt>
      <trkpt lat="40.78798" lon="-3.974659">
        <ele>2212.2</ele>
        <time>2018-04-21T13:23:59.000Z</time>
      </trkpt>
      <trkpt lat="40.78798" lon="-3.974659">
        <ele>2212.2</ele>
        <time>2018-04-21T13:24:00.000Z</time>
      </trkpt>
      <trkpt lat="40.78798" lon="-3.974659">
        <ele>2212.2</ele>
        <time>2018-04-21T13:24:01.000Z</time>
      </trkpt>
      <trkpt lat="40.78798" lon="-3.974659">
        <ele>2212.2</ele>
        <time>2018-04-21T13:24:02.000Z</time>
      </trkpt>
      <trkpt lat="40.78798" lon="-3.974659">
        <ele>2212.2</ele>
        <time>2018-04-21T13:24:03.000Z</time>
      </trkpt>
      <trkpt lat="40.78798" lon="-3.974659">
        <ele>2212.2</ele>
        <time>2018-04-21T13:24:04.000Z</time>
      </trkpt>
      <trkpt lat="40.78798" lon="-3.974659">
        <ele>2212.2</ele>
        <time>2018-04-21T13:24:05.000Z</time>
      </trkpt>
      <trkpt lat="40.78798" lon="-3.974659">
        <ele>2212.2</ele>
        <time>2018-04-21T13:24:06.000Z</time>
      </trkpt>
      <trkpt lat="40.78798" lon="-3.974659">
        <ele>2212.2</ele>
        <time>2018-04-21T13:24:07.000Z</time>
      </trkpt>
      <trkpt lat="40.78798" lon="-3.974659">
        <ele>2212.2</ele>
        <time>2018-04-21T13:24:08.000Z</time>
      </trkpt>
      <trkpt lat="40.78798" lon="-3.974659">
        <ele>2212.2</ele>
        <time>2018-04-21T13:24:09.000Z</time>
      </trkpt>
      <trkpt lat="40.78798" lon="-3.974659">
        <ele>2212.2</ele>
        <time>2018-04-21T13:24:10.000Z</time>
      </trkpt>
      <trkpt lat="40.78798" lon="-3.974659">
        <ele>2212.2</ele>
        <time>2018-04-21T13:24:11.000Z</time>
      </trkpt>
      <trkpt lat="40.78798" lon="-3.974659">
        <ele>2212.2</ele>
        <time>2018-04-21T13:24:12.000Z</time>
      </trkpt>
      <trkpt lat="40.78798" lon="-3.974659">
        <ele>2212.2</ele>
        <time>2018-04-21T13:24:13.000Z</time>
      </trkpt>
      <trkpt lat="40.787981" lon="-3.974659">
        <ele>2212.3</ele>
        <time>2018-04-21T13:24:14.000Z</time>
      </trkpt>
      <trkpt lat="40.787981" lon="-3.97466">
        <ele>2212.3</ele>
        <time>2018-04-21T13:24:15.000Z</time>
      </trkpt>
      <trkpt lat="40.787981" lon="-3.97466">
        <ele>2212.3</ele>
        <time>2018-04-21T13:24:16.000Z</time>
      </trkpt>
      <trkpt lat="40.787981" lon="-3.97466">
        <ele>2212.3</ele>
        <time>2018-04-21T13:24:17.000Z</time>
      </trkpt>
      <trkpt lat="40.787981" lon="-3.97466">
        <ele>2212.3</ele>
        <time>2018-04-21T13:24:18.000Z</time>
      </trkpt>
      <trkpt lat="40.787981" lon="-3.97466">
        <ele>2212.3</ele>
        <time>2018-04-21T13:24:19.000Z</time>
      </trkpt>
      <trkpt lat="40.787981" lon="-3.97466">
        <ele>2212.3</ele>
        <time>2018-04-21T13:24:20.000Z</time>
      </trkpt>
      <trkpt lat="40.787981" lon="-3.97466">
        <ele>2212.3</ele>
        <time>2018-04-21T13:24:21.000Z</time>
      </trkpt>
      <trkpt lat="40.787981" lon="-3.97466">
        <ele>2212.3</ele>
        <time>2018-04-21T13:24:22.000Z</time>
      </trkpt>
      <trkpt lat="40.787981" lon="-3.97466">
        <ele>2212.3</ele>
        <time>2018-04-21T13:24:23.000Z</time>
      </trkpt>
      <trkpt lat="40.787981" lon="-3.97466">
        <ele>2212.3</ele>
        <time>2018-04-21T13:24:24.000Z</time>
      </trkpt>
      <trkpt lat="40.787981" lon="-3.97466">
        <ele>2212.3</ele>
        <time>2018-04-21T13:24:25.000Z</time>
      </trkpt>
      <trkpt lat="40.787981" lon="-3.97466">
        <ele>2212.3</ele>
        <time>2018-04-21T13:24:26.000Z</time>
      </trkpt>
      <trkpt lat="40.787981" lon="-3.97466">
        <ele>2212.3</ele>
        <time>2018-04-21T13:24:27.000Z</time>
      </trkpt>
      <trkpt lat="40.787981" lon="-3.97466">
        <ele>2212.3</ele>
        <time>2018-04-21T13:24:28.000Z</time>
      </trkpt>
      <trkpt lat="40.787981" lon="-3.97466">
        <ele>2212.3</ele>
        <time>2018-04-21T13:24:29.000Z</time>
      </trkpt>
      <trkpt lat="40.787981" lon="-3.97466">
        <ele>2212.3</ele>
        <time>2018-04-21T13:24:30.000Z</time>
      </trkpt>
      <trkpt lat="40.787981" lon="-3.97466">
        <ele>2212.3</ele>
        <time>2018-04-21T13:24:31.000Z</time>
      </trkpt>
      <trkpt lat="40.787981" lon="-3.97466">
        <ele>2212.3</ele>
        <time>2018-04-21T13:24:32.000Z</time>
      </trkpt>
      <trkpt lat="40.787981" lon="-3.97466">
        <ele>2212.3</ele>
        <time>2018-04-21T13:24:33.000Z</time>
      </trkpt>
      <trkpt lat="40.787981" lon="-3.97466">
        <ele>2212.3</ele>
        <time>2018-04-21T13:24:34.000Z</time>
      </trkpt>
      <trkpt lat="40.787981" lon="-3.97466">
        <ele>2212.3</ele>
        <time>2018-04-21T13:24:35.000Z</time>
      </trkpt>
      <trkpt lat="40.787981" lon="-3.97466">
        <ele>2212.3</ele>
        <time>2018-04-21T13:24:36.000Z</time>
      </trkpt>
      <trkpt lat="40.787981" lon="-3.97466">
        <ele>2212.3</ele>
        <time>2018-04-21T13:24:37.000Z</time>
      </trkpt>
      <trkpt lat="40.787981" lon="-3.97466">
        <ele>2212.3</ele>
        <time>2018-04-21T13:24:38.000Z</time>
      </trkpt>
      <trkpt lat="40.787981" lon="-3.97466">
        <ele>2212.3</ele>
        <time>2018-04-21T13:24:39.000Z</time>
      </trkpt>
      <trkpt lat="40.787981" lon="-3.97466">
        <ele>2212.3</ele>
        <time>2018-04-21T13:24:40.000Z</time>
      </trkpt>
      <trkpt lat="40.787981" lon="-3.97466">
        <ele>2212.3</ele>
        <time>2018-04-21T13:24:41.000Z</time>
      </trkpt>
      <trkpt lat="40.787981" lon="-3.97466">
        <ele>2212.3</ele>
        <time>2018-04-21T13:24:42.000Z</time>
      </trkpt>
      <trkpt lat="40.787981" lon="-3.97466">
        <ele>2212.3</ele>
        <time>2018-04-21T13:24:43.000Z</time>
      </trkpt>
      <trkpt lat="40.787981" lon="-3.97466">
        <ele>2212.3</ele>
        <time>2018-04-21T13:24:44.000Z</time>
      </trkpt>
      <trkpt lat="40.787982" lon="-3.97466">
        <ele>2212.3</ele>
        <time>2018-04-21T13:24:45.000Z</time>
      </trkpt>
      <trkpt lat="40.787982" lon="-3.974659">
        <ele>2212.3</ele>
        <time>2018-04-21T13:24:46.000Z</time>
      </trkpt>
      <trkpt lat="40.787982" lon="-3.974659">
        <ele>2212.3</ele>
        <time>2018-04-21T13:24:47.000Z</time>
      </trkpt>
      <trkpt lat="40.787983" lon="-3.974659">
        <ele>2212.3</ele>
        <time>2018-04-21T13:24:48.000Z</time>
      </trkpt>
      <trkpt lat="40.787983" lon="-3.974658">
        <ele>2212.3</ele>
        <time>2018-04-21T13:24:49.000Z</time>
      </trkpt>
      <trkpt lat="40.787983" lon="-3.974658">
        <ele>2212.3</ele>
        <time>2018-04-21T13:24:50.000Z</time>
      </trkpt>
      <trkpt lat="40.787984" lon="-3.974657">
        <ele>2212.2</ele>
        <time>2018-04-21T13:24:51.000Z</time>
      </trkpt>
      <trkpt lat="40.787985" lon="-3.974657">
        <ele>2212.3</ele>
        <time>2018-04-21T13:24:52.000Z</time>
      </trkpt>
      <trkpt lat="40.787985" lon="-3.974656">
        <ele>2212.2</ele>
        <time>2018-04-21T13:24:53.000Z</time>
      </trkpt>
      <trkpt lat="40.787986" lon="-3.974656">
        <ele>2212.2</ele>
        <time>2018-04-21T13:24:54.000Z</time>
      </trkpt>
      <trkpt lat="40.787987" lon="-3.974655">
        <ele>2212.2</ele>
        <time>2018-04-21T13:24:55.000Z</time>
      </trkpt>
      <trkpt lat="40.787987" lon="-3.974654">
        <ele>2212.2</ele>
        <time>2018-04-21T13:24:56.000Z</time>
      </trkpt>
      <trkpt lat="40.787988" lon="-3.974654">
        <ele>2212.2</ele>
        <time>2018-04-21T13:24:57.000Z</time>
      </trkpt>
      <trkpt lat="40.787989" lon="-3.974653">
        <ele>2212.2</ele>
        <time>2018-04-21T13:24:58.000Z</time>
      </trkpt>
      <trkpt lat="40.78799" lon="-3.974652">
        <ele>2212.2</ele>
        <time>2018-04-21T13:24:59.000Z</time>
      </trkpt>
      <trkpt lat="40.787991" lon="-3.974651">
        <ele>2212.2</ele>
        <time>2018-04-21T13:25:00.000Z</time>
      </trkpt>
      <trkpt lat="40.787991" lon="-3.974651">
        <ele>2212.2</ele>
        <time>2018-04-21T13:25:01.000Z</time>
      </trkpt>
      <trkpt lat="40.787992" lon="-3.97465">
        <ele>2212.2</ele>
        <time>2018-04-21T13:25:02.000Z</time>
      </trkpt>
      <trkpt lat="40.787993" lon="-3.974649">
        <ele>2212.2</ele>
        <time>2018-04-21T13:25:03.000Z</time>
      </trkpt>
      <trkpt lat="40.787993" lon="-3.974649">
        <ele>2212.2</ele>
        <time>2018-04-21T13:25:04.000Z</time>
      </trkpt>
      <trkpt lat="40.787994" lon="-3.974648">
        <ele>2212.2</ele>
        <time>2018-04-21T13:25:05.000Z</time>
      </trkpt>
      <trkpt lat="40.787995" lon="-3.974648">
        <ele>2212.2</ele>
        <time>2018-04-21T13:25:06.000Z</time>
      </trkpt>
      <trkpt lat="40.787995" lon="-3.974647">
        <ele>2212.2</ele>
        <time>2018-04-21T13:25:07.000Z</time>
      </trkpt>
      <trkpt lat="40.787996" lon="-3.974647">
        <ele>2212.2</ele>
        <time>2018-04-21T13:25:08.000Z</time>
      </trkpt>
      <trkpt lat="40.787996" lon="-3.974646">
        <ele>2212.2</ele>
        <time>2018-04-21T13:25:09.000Z</time>
      </trkpt>
      <trkpt lat="40.787996" lon="-3.974646">
        <ele>2212.2</ele>
        <time>2018-04-21T13:25:10.000Z</time>
      </trkpt>
      <trkpt lat="40.787997" lon="-3.974646">
        <ele>2212.2</ele>
        <time>2018-04-21T13:25:11.000Z</time>
      </trkpt>
      <trkpt lat="40.787997" lon="-3.974645">
        <ele>2212.2</ele>
        <time>2018-04-21T13:25:12.000Z</time>
      </trkpt>
      <trkpt lat="40.787997" lon="-3.974645">
        <ele>2212.2</ele>
        <time>2018-04-21T13:25:13.000Z</time>
      </trkpt>
      <trkpt lat="40.787997" lon="-3.974645">
        <ele>2212.2</ele>
        <time>2018-04-21T13:25:14.000Z</time>
      </trkpt>
      <trkpt lat="40.787997" lon="-3.974645">
        <ele>2212.2</ele>
        <time>2018-04-21T13:25:15.000Z</time>
      </trkpt>
      <trkpt lat="40.787998" lon="-3.974645">
        <ele>2212.2</ele>
        <time>2018-04-21T13:25:16.000Z</time>
      </trkpt>
      <trkpt lat="40.787998" lon="-3.974644">
        <ele>2212.2</ele>
        <time>2018-04-21T13:25:17.000Z</time>
      </trkpt>
      <trkpt lat="40.787998" lon="-3.974644">
        <ele>2212.2</ele>
        <time>2018-04-21T13:25:18.000Z</time>
      </trkpt>
      <trkpt lat="40.787998" lon="-3.974644">
        <ele>2212.2</ele>
        <time>2018-04-21T13:25:19.000Z</time>
      </trkpt>
      <trkpt lat="40.787998" lon="-3.974644">
        <ele>2212.2</ele>
        <time>2018-04-21T13:25:20.000Z</time>
      </trkpt>
      <trkpt lat="40.787998" lon="-3.974644">
        <ele>2212.2</ele>
        <time>2018-04-21T13:25:21.000Z</time>
      </trkpt>
      <trkpt lat="40.787998" lon="-3.974644">
        <ele>2212.2</ele>
        <time>2018-04-21T13:25:22.000Z</time>
      </trkpt>
      <trkpt lat="40.787998" lon="-3.974644">
        <ele>2212.2</ele>
        <time>2018-04-21T13:25:23.000Z</time>
      </trkpt>
      <trkpt lat="40.787998" lon="-3.974644">
        <ele>2212.2</ele>
        <time>2018-04-21T13:25:24.000Z</time>
      </trkpt>
      <trkpt lat="40.787998" lon="-3.974644">
        <ele>2212.2</ele>
        <time>2018-04-21T13:25:25.000Z</time>
      </trkpt>
      <trkpt lat="40.787998" lon="-3.974644">
        <ele>2212.2</ele>
        <time>2018-04-21T13:25:26.000Z</time>
      </trkpt>
      <trkpt lat="40.787998" lon="-3.974644">
        <ele>2212.2</ele>
        <time>2018-04-21T13:25:27.000Z</time>
      </trkpt>
      <trkpt lat="40.787998" lon="-3.974644">
        <ele>2212.2</ele>
        <time>2018-04-21T13:25:28.000Z</time>
      </trkpt>
      <trkpt lat="40.787998" lon="-3.974644">
        <ele>2212.2</ele>
        <time>2018-04-21T13:25:29.000Z</time>
      </trkpt>
      <trkpt lat="40.787998" lon="-3.974644">
        <ele>2212.2</ele>
        <time>2018-04-21T13:25:30.000Z</time>
      </trkpt>
      <trkpt lat="40.787998" lon="-3.974644">
        <ele>2212.2</ele>
        <time>2018-04-21T13:25:31.000Z</time>
      </trkpt>
      <trkpt lat="40.787998" lon="-3.974644">
        <ele>2212.2</ele>
        <time>2018-04-21T13:25:32.000Z</time>
      </trkpt>
      <trkpt lat="40.787998" lon="-3.974644">
        <ele>2212.2</ele>
        <time>2018-04-21T13:25:33.000Z</time>
      </trkpt>
      <trkpt lat="40.787998" lon="-3.974644">
        <ele>2212.2</ele>
        <time>2018-04-21T13:25:34.000Z</time>
      </trkpt>
      <trkpt lat="40.787998" lon="-3.974644">
        <ele>2212.2</ele>
        <time>2018-04-21T13:25:35.000Z</time>
      </trkpt>
      <trkpt lat="40.787998" lon="-3.974644">
        <ele>2212.2</ele>
        <time>2018-04-21T13:25:36.000Z</time>
      </trkpt>
      <trkpt lat="40.787998" lon="-3.974644">
        <ele>2212.2</ele>
        <time>2018-04-21T13:25:37.000Z</time>
      </trkpt>
      <trkpt lat="40.787998" lon="-3.974644">
        <ele>2212.2</ele>
        <time>2018-04-21T13:25:38.000Z</time>
      </trkpt>
      <trkpt lat="40.787998" lon="-3.974644">
        <ele>2212.2</ele>
        <time>2018-04-21T13:25:39.000Z</time>
      </trkpt>
      <trkpt lat="40.787998" lon="-3.974644">
        <ele>2212.2</ele>
        <time>2018-04-21T13:25:40.000Z</time>
      </trkpt>
      <trkpt lat="40.787998" lon="-3.974644">
        <ele>2212.2</ele>
        <time>2018-04-21T13:25:41.000Z</time>
      </trkpt>
      <trkpt lat="40.787998" lon="-3.974644">
        <ele>2212.2</ele>
        <time>2018-04-21T13:25:42.000Z</time>
      </trkpt>
      <trkpt lat="40.787997" lon="-3.974644">
        <ele>2212.2</ele>
        <time>2018-04-21T13:25:43.000Z</time>
      </trkpt>
      <trkpt lat="40.787997" lon="-3.974644">
        <ele>2212.2</ele>
        <time>2018-04-21T13:25:44.000Z</time>
      </trkpt>
      <trkpt lat="40.787997" lon="-3.974644">
        <ele>2212.2</ele>
        <time>2018-04-21T13:25:45.000Z</time>
      </trkpt>
      <trkpt lat="40.787996" lon="-3.974644">
        <ele>2212.2</ele>
        <time>2018-04-21T13:25:46.000Z</time>
      </trkpt>
      <trkpt lat="40.787996" lon="-3.974644">
        <ele>2212.2</ele>
        <time>2018-04-21T13:25:47.000Z</time>
      </trkpt>
      <trkpt lat="40.787995" lon="-3.974645">
        <ele>2212.2</ele>
        <time>2018-04-21T13:25:48.000Z</time>
      </trkpt>
      <trkpt lat="40.787994" lon="-3.974645">
        <ele>2212.2</ele>
        <time>2018-04-21T13:25:49.000Z</time>
      </trkpt>
      <trkpt lat="40.787993" lon="-3.974645">
        <ele>2212.2</ele>
        <time>2018-04-21T13:25:50.000Z</time>
      </trkpt>
      <trkpt lat="40.787992" lon="-3.974645">
        <ele>2212.2</ele>
        <time>2018-04-21T13:25:51.000Z</time>
      </trkpt>
      <trkpt lat="40.787991" lon="-3.974646">
        <ele>2212.2</ele>
        <time>2018-04-21T13:25:52.000Z</time>
      </trkpt>
      <trkpt lat="40.78799" lon="-3.974646">
        <ele>2212.2</ele>
        <time>2018-04-21T13:25:53.000Z</time>
      </trkpt>
      <trkpt lat="40.787989" lon="-3.974647">
        <ele>2212.2</ele>
        <time>2018-04-21T13:25:54.000Z</time>
      </trkpt>
      <trkpt lat="40.787988" lon="-3.974647">
        <ele>2212.2</ele>
        <time>2018-04-21T13:25:55.000Z</time>
      </trkpt>
      <trkpt lat="40.787988" lon="-3.974647">
        <ele>2212.2</ele>
        <time>2018-04-21T13:25:56.000Z</time>
      </trkpt>
      <trkpt lat="40.787987" lon="-3.974647">
        <ele>2212.1</ele>
        <time>2018-04-21T13:25:57.000Z</time>
      </trkpt>
      <trkpt lat="40.787986" lon="-3.974648">
        <ele>2212.2</ele>
        <time>2018-04-21T13:25:58.000Z</time>
      </trkpt>
      <trkpt lat="40.787986" lon="-3.974648">
        <ele>2212.2</ele>
        <time>2018-04-21T13:25:59.000Z</time>
      </trkpt>
      <trkpt lat="40.787986" lon="-3.974648">
        <ele>2212.2</ele>
        <time>2018-04-21T13:26:00.000Z</time>
      </trkpt>
      <trkpt lat="40.787986" lon="-3.974648">
        <ele>2212.2</ele>
        <time>2018-04-21T13:26:01.000Z</time>
      </trkpt>
      <trkpt lat="40.787986" lon="-3.974648">
        <ele>2212.2</ele>
        <time>2018-04-21T13:26:02.000Z</time>
      </trkpt>
      <trkpt lat="40.787986" lon="-3.974648">
        <ele>2212.2</ele>
        <time>2018-04-21T13:26:03.000Z</time>
      </trkpt>
      <trkpt lat="40.787986" lon="-3.974648">
        <ele>2212.2</ele>
        <time>2018-04-21T13:26:04.000Z</time>
      </trkpt>
      <trkpt lat="40.787986" lon="-3.974648">
        <ele>2212.2</ele>
        <time>2018-04-21T13:26:05.000Z</time>
      </trkpt>
      <trkpt lat="40.787986" lon="-3.974648">
        <ele>2212.2</ele>
        <time>2018-04-21T13:26:06.000Z</time>
      </trkpt>
      <trkpt lat="40.787986" lon="-3.974648">
        <ele>2212.2</ele>
        <time>2018-04-21T13:26:07.000Z</time>
      </trkpt>
      <trkpt lat="40.787986" lon="-3.974648">
        <ele>2212.2</ele>
        <time>2018-04-21T13:26:08.000Z</time>
      </trkpt>
      <trkpt lat="40.787985" lon="-3.974648">
        <ele>2212.1</ele>
        <time>2018-04-21T13:26:09.000Z</time>
      </trkpt>
      <trkpt lat="40.787985" lon="-3.974648">
        <ele>2212.1</ele>
        <time>2018-04-21T13:26:10.000Z</time>
      </trkpt>
      <trkpt lat="40.787985" lon="-3.974648">
        <ele>2212.1</ele>
        <time>2018-04-21T13:26:11.000Z</time>
      </trkpt>
      <trkpt lat="40.787985" lon="-3.974648">
        <ele>2212.1</ele>
        <time>2018-04-21T13:26:12.000Z</time>
      </trkpt>
      <trkpt lat="40.787985" lon="-3.974648">
        <ele>2212.1</ele>
        <time>2018-04-21T13:26:13.000Z</time>
      </trkpt>
      <trkpt lat="40.787985" lon="-3.974648">
        <ele>2212.1</ele>
        <time>2018-04-21T13:26:14.000Z</time>
      </trkpt>
      <trkpt lat="40.787985" lon="-3.974648">
        <ele>2212.1</ele>
        <time>2018-04-21T13:26:15.000Z</time>
      </trkpt>
      <trkpt lat="40.787985" lon="-3.974648">
        <ele>2212.1</ele>
        <time>2018-04-21T13:26:16.000Z</time>
      </trkpt>
      <trkpt lat="40.787985" lon="-3.974648">
        <ele>2212.1</ele>
        <time>2018-04-21T13:26:17.000Z</time>
      </trkpt>
      <trkpt lat="40.787985" lon="-3.974648">
        <ele>2212.1</ele>
        <time>2018-04-21T13:26:18.000Z</time>
      </trkpt>
      <trkpt lat="40.787986" lon="-3.974648">
        <ele>2212.2</ele>
        <time>2018-04-21T13:26:19.000Z</time>
      </trkpt>
      <trkpt lat="40.787986" lon="-3.974648">
        <ele>2212.2</ele>
        <time>2018-04-21T13:26:20.000Z</time>
      </trkpt>
      <trkpt lat="40.787986" lon="-3.974648">
        <ele>2212.2</ele>
        <time>2018-04-21T13:26:21.000Z</time>
      </trkpt>
      <trkpt lat="40.787986" lon="-3.974648">
        <ele>2212.2</ele>
        <time>2018-04-21T13:26:22.000Z</time>
      </trkpt>
      <trkpt lat="40.787986" lon="-3.974648">
        <ele>2212.2</ele>
        <time>2018-04-21T13:26:23.000Z</time>
      </trkpt>
      <trkpt lat="40.787986" lon="-3.974648">
        <ele>2212.2</ele>
        <time>2018-04-21T13:26:24.000Z</time>
      </trkpt>
      <trkpt lat="40.787986" lon="-3.974648">
        <ele>2212.2</ele>
        <time>2018-04-21T13:26:25.000Z</time>
      </trkpt>
      <trkpt lat="40.787986" lon="-3.974648">
        <ele>2212.2</ele>
        <time>2018-04-21T13:26:26.000Z</time>
      </trkpt>
      <trkpt lat="40.787986" lon="-3.974648">
        <ele>2212.2</ele>
        <time>2018-04-21T13:26:27.000Z</time>
      </trkpt>
      <trkpt lat="40.787986" lon="-3.974648">
        <ele>2212.2</ele>
        <time>2018-04-21T13:26:28.000Z</time>
      </trkpt>
      <trkpt lat="40.787986" lon="-3.974648">
        <ele>2212.2</ele>
        <time>2018-04-21T13:26:29.000Z</time>
      </trkpt>
      <trkpt lat="40.787986" lon="-3.974648">
        <ele>2212.2</ele>
        <time>2018-04-21T13:26:30.000Z</time>
      </trkpt>
      <trkpt lat="40.787986" lon="-3.974648">
        <ele>2212.2</ele>
        <time>2018-04-21T13:26:31.000Z</time>
      </trkpt>
      <trkpt lat="40.787986" lon="-3.974648">
        <ele>2212.2</ele>
        <time>2018-04-21T13:26:32.000Z</time>
      </trkpt>
      <trkpt lat="40.787986" lon="-3.974648">
        <ele>2212.2</ele>
        <time>2018-04-21T13:26:33.000Z</time>
      </trkpt>
      <trkpt lat="40.787986" lon="-3.974648">
        <ele>2212.2</ele>
        <time>2018-04-21T13:26:34.000Z</time>
      </trkpt>
      <trkpt lat="40.787986" lon="-3.974648">
        <ele>2212.2</ele>
        <time>2018-04-21T13:26:35.000Z</time>
      </trkpt>
      <trkpt lat="40.787985" lon="-3.974648">
        <ele>2212.1</ele>
        <time>2018-04-21T13:26:36.000Z</time>
      </trkpt>
      <trkpt lat="40.787985" lon="-3.974648">
        <ele>2212.1</ele>
        <time>2018-04-21T13:26:37.000Z</time>
      </trkpt>
      <trkpt lat="40.787985" lon="-3.974648">
        <ele>2212.1</ele>
        <time>2018-04-21T13:26:38.000Z</time>
      </trkpt>
      <trkpt lat="40.787985" lon="-3.974648">
        <ele>2212.1</ele>
        <time>2018-04-21T13:26:39.000Z</time>
      </trkpt>
      <trkpt lat="40.787985" lon="-3.974647">
        <ele>2212.1</ele>
        <time>2018-04-21T13:26:40.000Z</time>
      </trkpt>
      <trkpt lat="40.787985" lon="-3.974647">
        <ele>2212.1</ele>
        <time>2018-04-21T13:26:41.000Z</time>
      </trkpt>
      <trkpt lat="40.787985" lon="-3.974646">
        <ele>2212.1</ele>
        <time>2018-04-21T13:26:42.000Z</time>
      </trkpt>
      <trkpt lat="40.787985" lon="-3.974646">
        <ele>2212.1</ele>
        <time>2018-04-21T13:26:43.000Z</time>
      </trkpt>
      <trkpt lat="40.787984" lon="-3.974647">
        <ele>2212.1</ele>
        <time>2018-04-21T13:26:44.000Z</time>
      </trkpt>
      <trkpt lat="40.787982" lon="-3.974649">
        <ele>2212.1</ele>
        <time>2018-04-21T13:26:45.000Z</time>
      </trkpt>
      <trkpt lat="40.787979" lon="-3.974653">
        <ele>2212.2</ele>
        <time>2018-04-21T13:26:46.000Z</time>
      </trkpt>
      <trkpt lat="40.787974" lon="-3.974659">
        <ele>2212.2</ele>
        <time>2018-04-21T13:26:47.000Z</time>
      </trkpt>
      <trkpt lat="40.787968" lon="-3.974667">
        <ele>2212.3</ele>
        <time>2018-04-21T13:26:48.000Z</time>
      </trkpt>
      <trkpt lat="40.78796" lon="-3.974679">
        <ele>2212.4</ele>
        <time>2018-04-21T13:26:49.000Z</time>
      </trkpt>
      <trkpt lat="40.78795" lon="-3.974693">
        <ele>2212.5</ele>
        <time>2018-04-21T13:26:50.000Z</time>
      </trkpt>
      <trkpt lat="40.787942" lon="-3.974708">
        <ele>2212.6</ele>
        <time>2018-04-21T13:26:51.000Z</time>
      </trkpt>
      <trkpt lat="40.787935" lon="-3.974722">
        <ele>2212.8</ele>
        <time>2018-04-21T13:26:52.000Z</time>
      </trkpt>
      <trkpt lat="40.787932" lon="-3.974735">
        <ele>2212.9</ele>
        <time>2018-04-21T13:26:53.000Z</time>
      </trkpt>
      <trkpt lat="40.78793" lon="-3.974746">
        <ele>2213.0</ele>
        <time>2018-04-21T13:26:54.000Z</time>
      </trkpt>
      <trkpt lat="40.78793" lon="-3.974755">
        <ele>2213.1</ele>
        <time>2018-04-21T13:26:55.000Z</time>
      </trkpt>
      <trkpt lat="40.78793" lon="-3.974764">
        <ele>2213.2</ele>
        <time>2018-04-21T13:26:56.000Z</time>
      </trkpt>
      <trkpt lat="40.78793" lon="-3.974771">
        <ele>2213.3</ele>
        <time>2018-04-21T13:26:57.000Z</time>
      </trkpt>
      <trkpt lat="40.787929" lon="-3.974778">
        <ele>2213.4</ele>
        <time>2018-04-21T13:26:58.000Z</time>
      </trkpt>
      <trkpt lat="40.787929" lon="-3.974784">
        <ele>2213.5</ele>
        <time>2018-04-21T13:26:59.000Z</time>
      </trkpt>
      <trkpt lat="40.787927" lon="-3.974792">
        <ele>2213.5</ele>
        <time>2018-04-21T13:27:00.000Z</time>
      </trkpt>
      <trkpt lat="40.787926" lon="-3.974799">
        <ele>2213.6</ele>
        <time>2018-04-21T13:27:01.000Z</time>
      </trkpt>
      <trkpt lat="40.787923" lon="-3.974809">
        <ele>2213.7</ele>
        <time>2018-04-21T13:27:02.000Z</time>
      </trkpt>
      <trkpt lat="40.78792" lon="-3.974819">
        <ele>2213.8</ele>
        <time>2018-04-21T13:27:03.000Z</time>
      </trkpt>
      <trkpt lat="40.787916" lon="-3.97483">
        <ele>2214.0</ele>
        <time>2018-04-21T13:27:04.000Z</time>
      </trkpt>
      <trkpt lat="40.787912" lon="-3.97484">
        <ele>2214.1</ele>
        <time>2018-04-21T13:27:05.000Z</time>
      </trkpt>
      <trkpt lat="40.787909" lon="-3.974847">
        <ele>2214.1</ele>
        <time>2018-04-21T13:27:06.000Z</time>
      </trkpt>
      <trkpt lat="40.787907" lon="-3.974852">
        <ele>2214.2</ele>
        <time>2018-04-21T13:27:07.000Z</time>
      </trkpt>
      <trkpt lat="40.787906" lon="-3.974854">
        <ele>2214.2</ele>
        <time>2018-04-21T13:27:08.000Z</time>
      </trkpt>
      <trkpt lat="40.787905" lon="-3.974856">
        <ele>2214.2</ele>
        <time>2018-04-21T13:27:09.000Z</time>
      </trkpt>
      <trkpt lat="40.787904" lon="-3.974861">
        <ele>2214.3</ele>
        <time>2018-04-21T13:27:10.000Z</time>
      </trkpt>
      <trkpt lat="40.787902" lon="-3.974868">
        <ele>2214.4</ele>
        <time>2018-04-21T13:27:11.000Z</time>
      </trkpt>
      <trkpt lat="40.787899" lon="-3.974879">
        <ele>2214.5</ele>
        <time>2018-04-21T13:27:12.000Z</time>
      </trkpt>
      <trkpt lat="40.787896" lon="-3.974892">
        <ele>2214.6</ele>
        <time>2018-04-21T13:27:13.000Z</time>
      </trkpt>
      <trkpt lat="40.787892" lon="-3.974907">
        <ele>2214.8</ele>
        <time>2018-04-21T13:27:14.000Z</time>
      </trkpt>
      <trkpt lat="40.787888" lon="-3.974924">
        <ele>2215.0</ele>
        <time>2018-04-21T13:27:15.000Z</time>
      </trkpt>
      <trkpt lat="40.787883" lon="-3.974941">
        <ele>2215.2</ele>
        <time>2018-04-21T13:27:16.000Z</time>
      </trkpt>
      <trkpt lat="40.787879" lon="-3.974958">
        <ele>2215.4</ele>
        <time>2018-04-21T13:27:17.000Z</time>
      </trkpt>
      <trkpt lat="40.787874" lon="-3.974974">
        <ele>2215.6</ele>
        <time>2018-04-21T13:27:18.000Z</time>
      </trkpt>
      <trkpt lat="40.78787" lon="-3.97499">
        <ele>2215.8</ele>
        <time>2018-04-21T13:27:19.000Z</time>
      </trkpt>
      <trkpt lat="40.787866" lon="-3.975006">
        <ele>2215.9</ele>
        <time>2018-04-21T13:27:20.000Z</time>
      </trkpt>
      <trkpt lat="40.787862" lon="-3.975021">
        <ele>2216.0</ele>
        <time>2018-04-21T13:27:21.000Z</time>
      </trkpt>
      <trkpt lat="40.787858" lon="-3.975036">
        <ele>2216.1</ele>
        <time>2018-04-21T13:27:22.000Z</time>
      </trkpt>
      <trkpt lat="40.787854" lon="-3.975051">
        <ele>2216.2</ele>
        <time>2018-04-21T13:27:23.000Z</time>
      </trkpt>
      <trkpt lat="40.78785" lon="-3.975065">
        <ele>2216.3</ele>
        <time>2018-04-21T13:27:24.000Z</time>
      </trkpt>
      <trkpt lat="40.787846" lon="-3.97508">
        <ele>2216.4</ele>
        <time>2018-04-21T13:27:25.000Z</time>
      </trkpt>
      <trkpt lat="40.787842" lon="-3.975094">
        <ele>2216.5</ele>
        <time>2018-04-21T13:27:26.000Z</time>
      </trkpt>
      <trkpt lat="40.787839" lon="-3.975109">
        <ele>2216.6</ele>
        <time>2018-04-21T13:27:27.000Z</time>
      </trkpt>
      <trkpt lat="40.787835" lon="-3.975124">
        <ele>2216.8</ele>
        <time>2018-04-21T13:27:28.000Z</time>
      </trkpt>
      <trkpt lat="40.787832" lon="-3.97514">
        <ele>2216.9</ele>
        <time>2018-04-21T13:27:29.000Z</time>
      </trkpt>
      <trkpt lat="40.787829" lon="-3.975156">
        <ele>2217.0</ele>
        <time>2018-04-21T13:27:30.000Z</time>
      </trkpt>
      <trkpt lat="40.787826" lon="-3.975172">
        <ele>2217.1</ele>
        <time>2018-04-21T13:27:31.000Z</time>
      </trkpt>
      <trkpt lat="40.787823" lon="-3.975189">
        <ele>2217.3</ele>
        <time>2018-04-21T13:27:32.000Z</time>
      </trkpt>
      <trkpt lat="40.78782" lon="-3.975206">
        <ele>2217.4</ele>
        <time>2018-04-21T13:27:33.000Z</time>
      </trkpt>
      <trkpt lat="40.787818" lon="-3.975223">
        <ele>2217.5</ele>
        <time>2018-04-21T13:27:34.000Z</time>
      </trkpt>
      <trkpt lat="40.787816" lon="-3.975239">
        <ele>2217.6</ele>
        <time>2018-04-21T13:27:35.000Z</time>
      </trkpt>
      <trkpt lat="40.787814" lon="-3.975255">
        <ele>2217.8</ele>
        <time>2018-04-21T13:27:36.000Z</time>
      </trkpt>
      <trkpt lat="40.787812" lon="-3.975269">
        <ele>2217.9</ele>
        <time>2018-04-21T13:27:37.000Z</time>
      </trkpt>
      <trkpt lat="40.787811" lon="-3.975281">
        <ele>2218.0</ele>
        <time>2018-04-21T13:27:38.000Z</time>
      </trkpt>
      <trkpt lat="40.78781" lon="-3.975292">
        <ele>2218.1</ele>
        <time>2018-04-21T13:27:39.000Z</time>
      </trkpt>
      <trkpt lat="40.78781" lon="-3.9753">
        <ele>2218.1</ele>
        <time>2018-04-21T13:27:40.000Z</time>
      </trkpt>
      <trkpt lat="40.787809" lon="-3.975306">
        <ele>2218.2</ele>
        <time>2018-04-21T13:27:41.000Z</time>
      </trkpt>
      <trkpt lat="40.787809" lon="-3.97531">
        <ele>2218.2</ele>
        <time>2018-04-21T13:27:42.000Z</time>
      </trkpt>
      <trkpt lat="40.787809" lon="-3.975313">
        <ele>2218.2</ele>
        <time>2018-04-21T13:27:43.000Z</time>
      </trkpt>
      <trkpt lat="40.78781" lon="-3.975315">
        <ele>2218.3</ele>
        <time>2018-04-21T13:27:44.000Z</time>
      </trkpt>
      <trkpt lat="40.78781" lon="-3.975317">
        <ele>2218.3</ele>
        <time>2018-04-21T13:27:45.000Z</time>
      </trkpt>
      <trkpt lat="40.78781" lon="-3.975318">
        <ele>2218.3</ele>
        <time>2018-04-21T13:27:46.000Z</time>
      </trkpt>
      <trkpt lat="40.787811" lon="-3.97532">
        <ele>2218.3</ele>
        <time>2018-04-21T13:27:47.000Z</time>
      </trkpt>
      <trkpt lat="40.787811" lon="-3.975323">
        <ele>2218.3</ele>
        <time>2018-04-21T13:27:48.000Z</time>
      </trkpt>
      <trkpt lat="40.787811" lon="-3.975326">
        <ele>2218.3</ele>
        <time>2018-04-21T13:27:49.000Z</time>
      </trkpt>
      <trkpt lat="40.787812" lon="-3.97533">
        <ele>2218.4</ele>
        <time>2018-04-21T13:27:50.000Z</time>
      </trkpt>
      <trkpt lat="40.787812" lon="-3.975336">
        <ele>2218.4</ele>
        <time>2018-04-21T13:27:51.000Z</time>
      </trkpt>
      <trkpt lat="40.787812" lon="-3.975343">
        <ele>2218.5</ele>
        <time>2018-04-21T13:27:52.000Z</time>
      </trkpt>
      <trkpt lat="40.787812" lon="-3.975352">
        <ele>2218.5</ele>
        <time>2018-04-21T13:27:53.000Z</time>
      </trkpt>
      <trkpt lat="40.787813" lon="-3.975364">
        <ele>2218.6</ele>
        <time>2018-04-21T13:27:54.000Z</time>
      </trkpt>
      <trkpt lat="40.787813" lon="-3.975376">
        <ele>2218.7</ele>
        <time>2018-04-21T13:27:55.000Z</time>
      </trkpt>
      <trkpt lat="40.787813" lon="-3.975391">
        <ele>2218.9</ele>
        <time>2018-04-21T13:27:56.000Z</time>
      </trkpt>
      <trkpt lat="40.787813" lon="-3.975406">
        <ele>2219.0</ele>
        <time>2018-04-21T13:27:57.000Z</time>
      </trkpt>
      <trkpt lat="40.787814" lon="-3.975422">
        <ele>2219.1</ele>
        <time>2018-04-21T13:27:58.000Z</time>
      </trkpt>
      <trkpt lat="40.787814" lon="-3.975438">
        <ele>2219.2</ele>
        <time>2018-04-21T13:27:59.000Z</time>
      </trkpt>
      <trkpt lat="40.787815" lon="-3.975455">
        <ele>2219.4</ele>
        <time>2018-04-21T13:28:00.000Z</time>
      </trkpt>
      <trkpt lat="40.787815" lon="-3.97547">
        <ele>2219.5</ele>
        <time>2018-04-21T13:28:01.000Z</time>
      </trkpt>
      <trkpt lat="40.787816" lon="-3.975486">
        <ele>2219.6</ele>
        <time>2018-04-21T13:28:02.000Z</time>
      </trkpt>
      <trkpt lat="40.787816" lon="-3.9755">
        <ele>2219.7</ele>
        <time>2018-04-21T13:28:03.000Z</time>
      </trkpt>
      <trkpt lat="40.787817" lon="-3.975515">
        <ele>2219.8</ele>
        <time>2018-04-21T13:28:04.000Z</time>
      </trkpt>
      <trkpt lat="40.787817" lon="-3.975529">
        <ele>2219.9</ele>
        <time>2018-04-21T13:28:05.000Z</time>
      </trkpt>
      <trkpt lat="40.787817" lon="-3.975542">
        <ele>2220.0</ele>
        <time>2018-04-21T13:28:06.000Z</time>
      </trkpt>
      <trkpt lat="40.787818" lon="-3.975555">
        <ele>2220.1</ele>
        <time>2018-04-21T13:28:07.000Z</time>
      </trkpt>
      <trkpt lat="40.787818" lon="-3.975568">
        <ele>2220.2</ele>
        <time>2018-04-21T13:28:08.000Z</time>
      </trkpt>
      <trkpt lat="40.787817" lon="-3.97558">
        <ele>2220.3</ele>
        <time>2018-04-21T13:28:09.000Z</time>
      </trkpt>
      <trkpt lat="40.787817" lon="-3.975592">
        <ele>2220.4</ele>
        <time>2018-04-21T13:28:10.000Z</time>
      </trkpt>
      <trkpt lat="40.787816" lon="-3.975603">
        <ele>2220.5</ele>
        <time>2018-04-21T13:28:11.000Z</time>
      </trkpt>
      <trkpt lat="40.787815" lon="-3.975614">
        <ele>2220.6</ele>
        <time>2018-04-21T13:28:12.000Z</time>
      </trkpt>
      <trkpt lat="40.787813" lon="-3.975625">
        <ele>2220.7</ele>
        <time>2018-04-21T13:28:13.000Z</time>
      </trkpt>
      <trkpt lat="40.787811" lon="-3.975635">
        <ele>2220.8</ele>
        <time>2018-04-21T13:28:14.000Z</time>
      </trkpt>
      <trkpt lat="40.787809" lon="-3.975645">
        <ele>2220.9</ele>
        <time>2018-04-21T13:28:15.000Z</time>
      </trkpt>
      <trkpt lat="40.787806" lon="-3.975655">
        <ele>2221.0</ele>
        <time>2018-04-21T13:28:16.000Z</time>
      </trkpt>
      <trkpt lat="40.787803" lon="-3.975665">
        <ele>2221.1</ele>
        <time>2018-04-21T13:28:17.000Z</time>
      </trkpt>
      <trkpt lat="40.787799" lon="-3.975674">
        <ele>2221.2</ele>
        <time>2018-04-21T13:28:18.000Z</time>
      </trkpt>
      <trkpt lat="40.787795" lon="-3.975684">
        <ele>2221.3</ele>
        <time>2018-04-21T13:28:19.000Z</time>
      </trkpt>
      <trkpt lat="40.787791" lon="-3.975695">
        <ele>2221.4</ele>
        <time>2018-04-21T13:28:20.000Z</time>
      </trkpt>
      <trkpt lat="40.787786" lon="-3.975706">
        <ele>2221.5</ele>
        <time>2018-04-21T13:28:21.000Z</time>
      </trkpt>
      <trkpt lat="40.787781" lon="-3.975718">
        <ele>2221.7</ele>
        <time>2018-04-21T13:28:22.000Z</time>
      </trkpt>
      <trkpt lat="40.787776" lon="-3.975732">
        <ele>2221.8</ele>
        <time>2018-04-21T13:28:23.000Z</time>
      </trkpt>
      <trkpt lat="40.78777" lon="-3.975747">
        <ele>2222.0</ele>
        <time>2018-04-21T13:28:24.000Z</time>
      </trkpt>
      <trkpt lat="40.787764" lon="-3.975762">
        <ele>2222.2</ele>
        <time>2018-04-21T13:28:25.000Z</time>
      </trkpt>
      <trkpt lat="40.787758" lon="-3.975778">
        <ele>2222.4</ele>
        <time>2018-04-21T13:28:26.000Z</time>
      </trkpt>
      <trkpt lat="40.787753" lon="-3.975794">
        <ele>2222.5</ele>
        <time>2018-04-21T13:28:27.000Z</time>
      </trkpt>
      <trkpt lat="40.787747" lon="-3.975809">
        <ele>2222.7</ele>
        <time>2018-04-21T13:28:28.000Z</time>
      </trkpt>
      <trkpt lat="40.787742" lon="-3.975823">
        <ele>2222.9</ele>
        <time>2018-04-21T13:28:29.000Z</time>
      </trkpt>
      <trkpt lat="40.787737" lon="-3.975834">
        <ele>2223.0</ele>
        <time>2018-04-21T13:28:30.000Z</time>
      </trkpt>
      <trkpt lat="40.787732" lon="-3.975844">
        <ele>2223.2</ele>
        <time>2018-04-21T13:28:31.000Z</time>
      </trkpt>
      <trkpt lat="40.787728" lon="-3.975851">
        <ele>2223.3</ele>
        <time>2018-04-21T13:28:32.000Z</time>
      </trkpt>
      <trkpt lat="40.787725" lon="-3.975856">
        <ele>2223.4</ele>
        <time>2018-04-21T13:28:33.000Z</time>
      </trkpt>
      <trkpt lat="40.787723" lon="-3.975859">
        <ele>2223.5</ele>
        <time>2018-04-21T13:28:34.000Z</time>
      </trkpt>
      <trkpt lat="40.787722" lon="-3.975861">
        <ele>2223.5</ele>
        <time>2018-04-21T13:28:35.000Z</time>
      </trkpt>
      <trkpt lat="40.787722" lon="-3.975862">
        <ele>2223.5</ele>
        <time>2018-04-21T13:28:36.000Z</time>
      </trkpt>
      <trkpt lat="40.787722" lon="-3.975864">
        <ele>2223.5</ele>
        <time>2018-04-21T13:28:37.000Z</time>
      </trkpt>
      <trkpt lat="40.787721" lon="-3.975869">
        <ele>2223.6</ele>
        <time>2018-04-21T13:28:38.000Z</time>
      </trkpt>
      <trkpt lat="40.787719" lon="-3.975877">
        <ele>2223.7</ele>
        <time>2018-04-21T13:28:39.000Z</time>
      </trkpt>
      <trkpt lat="40.787716" lon="-3.975888">
        <ele>2223.9</ele>
        <time>2018-04-21T13:28:40.000Z</time>
      </trkpt>
      <trkpt lat="40.787712" lon="-3.975901">
        <ele>2224.1</ele>
        <time>2018-04-21T13:28:41.000Z</time>
      </trkpt>
      <trkpt lat="40.787707" lon="-3.975915">
        <ele>2224.3</ele>
        <time>2018-04-21T13:28:42.000Z</time>
      </trkpt>
      <trkpt lat="40.787702" lon="-3.975931">
        <ele>2224.6</ele>
        <time>2018-04-21T13:28:43.000Z</time>
      </trkpt>
      <trkpt lat="40.787696" lon="-3.975946">
        <ele>2224.8</ele>
        <time>2018-04-21T13:28:44.000Z</time>
      </trkpt>
      <trkpt lat="40.78769" lon="-3.97596">
        <ele>2225.1</ele>
        <time>2018-04-21T13:28:45.000Z</time>
      </trkpt>
      <trkpt lat="40.787684" lon="-3.975972">
        <ele>2225.3</ele>
        <time>2018-04-21T13:28:46.000Z</time>
      </trkpt>
      <trkpt lat="40.787678" lon="-3.975983">
        <ele>2225.5</ele>
        <time>2018-04-21T13:28:47.000Z</time>
      </trkpt>
      <trkpt lat="40.787672" lon="-3.975993">
        <ele>2225.7</ele>
        <time>2018-04-21T13:28:48.000Z</time>
      </trkpt>
      <trkpt lat="40.787667" lon="-3.976001">
        <ele>2225.9</ele>
        <time>2018-04-21T13:28:49.000Z</time>
      </trkpt>
      <trkpt lat="40.787661" lon="-3.976009">
        <ele>2226.0</ele>
        <time>2018-04-21T13:28:50.000Z</time>
      </trkpt>
      <trkpt lat="40.787656" lon="-3.976017">
        <ele>2226.2</ele>
        <time>2018-04-21T13:28:51.000Z</time>
      </trkpt>
      <trkpt lat="40.78765" lon="-3.976024">
        <ele>2226.3</ele>
        <time>2018-04-21T13:28:52.000Z</time>
      </trkpt>
      <trkpt lat="40.787645" lon="-3.976032">
        <ele>2226.5</ele>
        <time>2018-04-21T13:28:53.000Z</time>
      </trkpt>
      <trkpt lat="40.78764" lon="-3.976039">
        <ele>2226.6</ele>
        <time>2018-04-21T13:28:54.000Z</time>
      </trkpt>
      <trkpt lat="40.787635" lon="-3.976046">
        <ele>2226.8</ele>
        <time>2018-04-21T13:28:55.000Z</time>
      </trkpt>
      <trkpt lat="40.787629" lon="-3.976054">
        <ele>2226.9</ele>
        <time>2018-04-21T13:28:56.000Z</time>
      </trkpt>
      <trkpt lat="40.787624" lon="-3.976062">
        <ele>2227.1</ele>
        <time>2018-04-21T13:28:57.000Z</time>
      </trkpt>
      <trkpt lat="40.787619" lon="-3.976069">
        <ele>2227.2</ele>
        <time>2018-04-21T13:28:58.000Z</time>
      </trkpt>
      <trkpt lat="40.787614" lon="-3.976077">
        <ele>2227.4</ele>
        <time>2018-04-21T13:28:59.000Z</time>
      </trkpt>
      <trkpt lat="40.787608" lon="-3.976085">
        <ele>2227.6</ele>
        <time>2018-04-21T13:29:00.000Z</time>
      </trkpt>
      <trkpt lat="40.787603" lon="-3.976093">
        <ele>2227.7</ele>
        <time>2018-04-21T13:29:01.000Z</time>
      </trkpt>
      <trkpt lat="40.787598" lon="-3.976101">
        <ele>2227.9</ele>
        <time>2018-04-21T13:29:02.000Z</time>
      </trkpt>
      <trkpt lat="40.787592" lon="-3.976108">
        <ele>2228.0</ele>
        <time>2018-04-21T13:29:03.000Z</time>
      </trkpt>
      <trkpt lat="40.787587" lon="-3.976116">
        <ele>2228.2</ele>
        <time>2018-04-21T13:29:04.000Z</time>
      </trkpt>
      <trkpt lat="40.787582" lon="-3.976123">
        <ele>2228.3</ele>
        <time>2018-04-21T13:29:05.000Z</time>
      </trkpt>
      <trkpt lat="40.787577" lon="-3.97613">
        <ele>2228.5</ele>
        <time>2018-04-21T13:29:06.000Z</time>
      </trkpt>
      <trkpt lat="40.787572" lon="-3.976137">
        <ele>2228.6</ele>
        <time>2018-04-21T13:29:07.000Z</time>
      </trkpt>
      <trkpt lat="40.787567" lon="-3.976143">
        <ele>2228.8</ele>
        <time>2018-04-21T13:29:08.000Z</time>
      </trkpt>
      <trkpt lat="40.787563" lon="-3.976149">
        <ele>2228.9</ele>
        <time>2018-04-21T13:29:09.000Z</time>
      </trkpt>
      <trkpt lat="40.787559" lon="-3.976154">
        <ele>2229.0</ele>
        <time>2018-04-21T13:29:10.000Z</time>
      </trkpt>
      <trkpt lat="40.787556" lon="-3.976159">
        <ele>2229.1</ele>
        <time>2018-04-21T13:29:11.000Z</time>
      </trkpt>
      <trkpt lat="40.787553" lon="-3.976163">
        <ele>2229.2</ele>
        <time>2018-04-21T13:29:12.000Z</time>
      </trkpt>
      <trkpt lat="40.787551" lon="-3.976166">
        <ele>2229.3</ele>
        <time>2018-04-21T13:29:13.000Z</time>
      </trkpt>
      <trkpt lat="40.787549" lon="-3.976169">
        <ele>2229.3</ele>
        <time>2018-04-21T13:29:14.000Z</time>
      </trkpt>
      <trkpt lat="40.787548" lon="-3.97617">
        <ele>2229.4</ele>
        <time>2018-04-21T13:29:15.000Z</time>
      </trkpt>
      <trkpt lat="40.787547" lon="-3.976171">
        <ele>2229.4</ele>
        <time>2018-04-21T13:29:16.000Z</time>
      </trkpt>
      <trkpt lat="40.787547" lon="-3.976172">
        <ele>2229.4</ele>
        <time>2018-04-21T13:29:17.000Z</time>
      </trkpt>
      <trkpt lat="40.787547" lon="-3.976172">
        <ele>2229.4</ele>
        <time>2018-04-21T13:29:18.000Z</time>
      </trkpt>
      <trkpt lat="40.787548" lon="-3.976171">
        <ele>2229.4</ele>
        <time>2018-04-21T13:29:19.000Z</time>
      </trkpt>
      <trkpt lat="40.787548" lon="-3.976171">
        <ele>2229.4</ele>
        <time>2018-04-21T13:29:20.000Z</time>
      </trkpt>
      <trkpt lat="40.787549" lon="-3.97617">
        <ele>2229.3</ele>
        <time>2018-04-21T13:29:21.000Z</time>
      </trkpt>
      <trkpt lat="40.787549" lon="-3.976169">
        <ele>2229.3</ele>
        <time>2018-04-21T13:29:22.000Z</time>
      </trkpt>
      <trkpt lat="40.78755" lon="-3.976169">
        <ele>2229.3</ele>
        <time>2018-04-21T13:29:23.000Z</time>
      </trkpt>
      <trkpt lat="40.78755" lon="-3.976168">
        <ele>2229.3</ele>
        <time>2018-04-21T13:29:24.000Z</time>
      </trkpt>
      <trkpt lat="40.78755" lon="-3.976169">
        <ele>2229.3</ele>
        <time>2018-04-21T13:29:25.000Z</time>
      </trkpt>
      <trkpt lat="40.78755" lon="-3.976169">
        <ele>2229.3</ele>
        <time>2018-04-21T13:29:26.000Z</time>
      </trkpt>
      <trkpt lat="40.787549" lon="-3.976171">
        <ele>2229.4</ele>
        <time>2018-04-21T13:29:27.000Z</time>
      </trkpt>
      <trkpt lat="40.787548" lon="-3.976173">
        <ele>2229.4</ele>
        <time>2018-04-21T13:29:28.000Z</time>
      </trkpt>
      <trkpt lat="40.787546" lon="-3.976176">
        <ele>2229.5</ele>
        <time>2018-04-21T13:29:29.000Z</time>
      </trkpt>
      <trkpt lat="40.787543" lon="-3.97618">
        <ele>2229.5</ele>
        <time>2018-04-21T13:29:30.000Z</time>
      </trkpt>
      <trkpt lat="40.787539" lon="-3.976185">
        <ele>2229.7</ele>
        <time>2018-04-21T13:29:31.000Z</time>
      </trkpt>
      <trkpt lat="40.787534" lon="-3.976191">
        <ele>2229.8</ele>
        <time>2018-04-21T13:29:32.000Z</time>
      </trkpt>
      <trkpt lat="40.787529" lon="-3.976197">
        <ele>2229.9</ele>
        <time>2018-04-21T13:29:33.000Z</time>
      </trkpt>
      <trkpt lat="40.787522" lon="-3.976204">
        <ele>2230.1</ele>
        <time>2018-04-21T13:29:34.000Z</time>
      </trkpt>
      <trkpt lat="40.787514" lon="-3.976211">
        <ele>2230.3</ele>
        <time>2018-04-21T13:29:35.000Z</time>
      </trkpt>
      <trkpt lat="40.787506" lon="-3.976219">
        <ele>2230.5</ele>
        <time>2018-04-21T13:29:36.000Z</time>
      </trkpt>
      <trkpt lat="40.787498" lon="-3.976227">
        <ele>2230.6</ele>
        <time>2018-04-21T13:29:37.000Z</time>
      </trkpt>
      <trkpt lat="40.787491" lon="-3.976236">
        <ele>2230.7</ele>
        <time>2018-04-21T13:29:38.000Z</time>
      </trkpt>
      <trkpt lat="40.787484" lon="-3.976246">
        <ele>2230.7</ele>
        <time>2018-04-21T13:29:39.000Z</time>
      </trkpt>
      <trkpt lat="40.787478" lon="-3.976256">
        <ele>2230.7</ele>
        <time>2018-04-21T13:29:40.000Z</time>
      </trkpt>
      <trkpt lat="40.787472" lon="-3.976266">
        <ele>2230.8</ele>
        <time>2018-04-21T13:29:41.000Z</time>
      </trkpt>
      <trkpt lat="40.787467" lon="-3.976276">
        <ele>2230.9</ele>
        <time>2018-04-21T13:29:42.000Z</time>
      </trkpt>
      <trkpt lat="40.787461" lon="-3.976287">
        <ele>2230.9</ele>
        <time>2018-04-21T13:29:43.000Z</time>
      </trkpt>
      <trkpt lat="40.787456" lon="-3.976297">
        <ele>2231.0</ele>
        <time>2018-04-21T13:29:44.000Z</time>
      </trkpt>
      <trkpt lat="40.78745" lon="-3.976307">
        <ele>2231.1</ele>
        <time>2018-04-21T13:29:45.000Z</time>
      </trkpt>
      <trkpt lat="40.787444" lon="-3.976317">
        <ele>2231.1</ele>
        <time>2018-04-21T13:29:46.000Z</time>
      </trkpt>
      <trkpt lat="40.787439" lon="-3.976327">
        <ele>2231.2</ele>
        <time>2018-04-21T13:29:47.000Z</time>
      </trkpt>
      <trkpt lat="40.787433" lon="-3.976337">
        <ele>2231.3</ele>
        <time>2018-04-21T13:29:48.000Z</time>
      </trkpt>
      <trkpt lat="40.787427" lon="-3.976347">
        <ele>2231.3</ele>
        <time>2018-04-21T13:29:49.000Z</time>
      </trkpt>
      <trkpt lat="40.787421" lon="-3.976356">
        <ele>2231.4</ele>
        <time>2018-04-21T13:29:50.000Z</time>
      </trkpt>
      <trkpt lat="40.787416" lon="-3.976366">
        <ele>2231.4</ele>
        <time>2018-04-21T13:29:51.000Z</time>
      </trkpt>
      <trkpt lat="40.78741" lon="-3.976375">
        <ele>2231.5</ele>
        <time>2018-04-21T13:29:52.000Z</time>
      </trkpt>
      <trkpt lat="40.787404" lon="-3.976385">
        <ele>2231.6</ele>
        <time>2018-04-21T13:29:53.000Z</time>
      </trkpt>
      <trkpt lat="40.787399" lon="-3.976395">
        <ele>2231.6</ele>
        <time>2018-04-21T13:29:54.000Z</time>
      </trkpt>
      <trkpt lat="40.787394" lon="-3.976404">
        <ele>2231.7</ele>
        <time>2018-04-21T13:29:55.000Z</time>
      </trkpt>
      <trkpt lat="40.787388" lon="-3.976414">
        <ele>2231.8</ele>
        <time>2018-04-21T13:29:56.000Z</time>
      </trkpt>
      <trkpt lat="40.787383" lon="-3.976424">
        <ele>2231.9</ele>
        <time>2018-04-21T13:29:57.000Z</time>
      </trkpt>
      <trkpt lat="40.787378" lon="-3.976434">
        <ele>2231.9</ele>
        <time>2018-04-21T13:29:58.000Z</time>
      </trkpt>
      <trkpt lat="40.787374" lon="-3.976444">
        <ele>2232.0</ele>
        <time>2018-04-21T13:29:59.000Z</time>
      </trkpt>
      <trkpt lat="40.787369" lon="-3.976454">
        <ele>2232.1</ele>
        <time>2018-04-21T13:30:00.000Z</time>
      </trkpt>
      <trkpt lat="40.787365" lon="-3.976465">
        <ele>2232.2</ele>
        <time>2018-04-21T13:30:01.000Z</time>
      </trkpt>
      <trkpt lat="40.78736" lon="-3.976475">
        <ele>2232.3</ele>
        <time>2018-04-21T13:30:02.000Z</time>
      </trkpt>
      <trkpt lat="40.787356" lon="-3.976486">
        <ele>2232.4</ele>
        <time>2018-04-21T13:30:03.000Z</time>
      </trkpt>
      <trkpt lat="40.787352" lon="-3.976497">
        <ele>2232.6</ele>
        <time>2018-04-21T13:30:04.000Z</time>
      </trkpt>
      <trkpt lat="40.787348" lon="-3.976507">
        <ele>2232.7</ele>
        <time>2018-04-21T13:30:05.000Z</time>
      </trkpt>
      <trkpt lat="40.787344" lon="-3.976518">
        <ele>2232.8</ele>
        <time>2018-04-21T13:30:06.000Z</time>
      </trkpt>
      <trkpt lat="40.787341" lon="-3.976529">
        <ele>2232.9</ele>
        <time>2018-04-21T13:30:07.000Z</time>
      </trkpt>
      <trkpt lat="40.787337" lon="-3.97654">
        <ele>2233.0</ele>
        <time>2018-04-21T13:30:08.000Z</time>
      </trkpt>
      <trkpt lat="40.787333" lon="-3.976551">
        <ele>2233.2</ele>
        <time>2018-04-21T13:30:09.000Z</time>
      </trkpt>
      <trkpt lat="40.78733" lon="-3.976562">
        <ele>2233.3</ele>
        <time>2018-04-21T13:30:10.000Z</time>
      </trkpt>
      <trkpt lat="40.787326" lon="-3.976573">
        <ele>2233.4</ele>
        <time>2018-04-21T13:30:11.000Z</time>
      </trkpt>
      <trkpt lat="40.787322" lon="-3.976584">
        <ele>2233.5</ele>
        <time>2018-04-21T13:30:12.000Z</time>
      </trkpt>
      <trkpt lat="40.787318" lon="-3.976595">
        <ele>2233.7</ele>
        <time>2018-04-21T13:30:13.000Z</time>
      </trkpt>
      <trkpt lat="40.787314" lon="-3.976605">
        <ele>2233.8</ele>
        <time>2018-04-21T13:30:14.000Z</time>
      </trkpt>
      <trkpt lat="40.787311" lon="-3.976616">
        <ele>2233.9</ele>
        <time>2018-04-21T13:30:15.000Z</time>
      </trkpt>
      <trkpt lat="40.787307" lon="-3.976627">
        <ele>2234.0</ele>
        <time>2018-04-21T13:30:16.000Z</time>
      </trkpt>
      <trkpt lat="40.787303" lon="-3.976637">
        <ele>2234.2</ele>
        <time>2018-04-21T13:30:17.000Z</time>
      </trkpt>
      <trkpt lat="40.787299" lon="-3.976647">
        <ele>2234.3</ele>
        <time>2018-04-21T13:30:18.000Z</time>
      </trkpt>
      <trkpt lat="40.787295" lon="-3.976656">
        <ele>2234.4</ele>
        <time>2018-04-21T13:30:19.000Z</time>
      </trkpt>
      <trkpt lat="40.787292" lon="-3.976665">
        <ele>2234.5</ele>
        <time>2018-04-21T13:30:20.000Z</time>
      </trkpt>
      <trkpt lat="40.787288" lon="-3.976673">
        <ele>2234.5</ele>
        <time>2018-04-21T13:30:21.000Z</time>
      </trkpt>
      <trkpt lat="40.787285" lon="-3.976681">
        <ele>2234.6</ele>
        <time>2018-04-21T13:30:22.000Z</time>
      </trkpt>
      <trkpt lat="40.787281" lon="-3.976688">
        <ele>2234.6</ele>
        <time>2018-04-21T13:30:23.000Z</time>
      </trkpt>
      <trkpt lat="40.787278" lon="-3.976693">
        <ele>2234.6</ele>
        <time>2018-04-21T13:30:24.000Z</time>
      </trkpt>
      <trkpt lat="40.787275" lon="-3.976698">
        <ele>2234.6</ele>
        <time>2018-04-21T13:30:25.000Z</time>
      </trkpt>
      <trkpt lat="40.787273" lon="-3.976702">
        <ele>2234.6</ele>
        <time>2018-04-21T13:30:26.000Z</time>
      </trkpt>
      <trkpt lat="40.78727" lon="-3.976705">
        <ele>2234.6</ele>
        <time>2018-04-21T13:30:27.000Z</time>
      </trkpt>
      <trkpt lat="40.787268" lon="-3.976707">
        <ele>2234.6</ele>
        <time>2018-04-21T13:30:28.000Z</time>
      </trkpt>
      <trkpt lat="40.787266" lon="-3.976707">
        <ele>2234.6</ele>
        <time>2018-04-21T13:30:29.000Z</time>
      </trkpt>
      <trkpt lat="40.787264" lon="-3.976708">
        <ele>2234.6</ele>
        <time>2018-04-21T13:30:30.000Z</time>
      </trkpt>
      <trkpt lat="40.787261" lon="-3.976709">
        <ele>2234.5</ele>
        <time>2018-04-21T13:30:31.000Z</time>
      </trkpt>
      <trkpt lat="40.787256" lon="-3.976713">
        <ele>2234.5</ele>
        <time>2018-04-21T13:30:32.000Z</time>
      </trkpt>
      <trkpt lat="40.787249" lon="-3.976721">
        <ele>2234.5</ele>
        <time>2018-04-21T13:30:33.000Z</time>
      </trkpt>
      <trkpt lat="40.787241" lon="-3.976731">
        <ele>2234.5</ele>
        <time>2018-04-21T13:30:34.000Z</time>
      </trkpt>
      <trkpt lat="40.787233" lon="-3.976742">
        <ele>2234.5</ele>
        <time>2018-04-21T13:30:35.000Z</time>
      </trkpt>
      <trkpt lat="40.787227" lon="-3.976753">
        <ele>2234.6</ele>
        <time>2018-04-21T13:30:36.000Z</time>
      </trkpt>
      <trkpt lat="40.787222" lon="-3.976763">
        <ele>2234.6</ele>
        <time>2018-04-21T13:30:37.000Z</time>
      </trkpt>
      <trkpt lat="40.787219" lon="-3.976772">
        <ele>2234.6</ele>
        <time>2018-04-21T13:30:38.000Z</time>
      </trkpt>
      <trkpt lat="40.787217" lon="-3.976781">
        <ele>2234.7</ele>
        <time>2018-04-21T13:30:39.000Z</time>
      </trkpt>
      <trkpt lat="40.787216" lon="-3.976789">
        <ele>2234.8</ele>
        <time>2018-04-21T13:30:40.000Z</time>
      </trkpt>
      <trkpt lat="40.787216" lon="-3.976797">
        <ele>2234.8</ele>
        <time>2018-04-21T13:30:41.000Z</time>
      </trkpt>
      <trkpt lat="40.787215" lon="-3.976805">
        <ele>2234.9</ele>
        <time>2018-04-21T13:30:42.000Z</time>
      </trkpt>
      <trkpt lat="40.787214" lon="-3.976813">
        <ele>2235.0</ele>
        <time>2018-04-21T13:30:43.000Z</time>
      </trkpt>
      <trkpt lat="40.787212" lon="-3.976823">
        <ele>2235.1</ele>
        <time>2018-04-21T13:30:44.000Z</time>
      </trkpt>
      <trkpt lat="40.787208" lon="-3.976832">
        <ele>2235.1</ele>
        <time>2018-04-21T13:30:45.000Z</time>
      </trkpt>
      <trkpt lat="40.787204" lon="-3.976843">
        <ele>2235.2</ele>
        <time>2018-04-21T13:30:46.000Z</time>
      </trkpt>
      <trkpt lat="40.7872" lon="-3.976853">
        <ele>2235.2</ele>
        <time>2018-04-21T13:30:47.000Z</time>
      </trkpt>
      <trkpt lat="40.787195" lon="-3.976864">
        <ele>2235.3</ele>
        <time>2018-04-21T13:30:48.000Z</time>
      </trkpt>
      <trkpt lat="40.787189" lon="-3.976875">
        <ele>2235.3</ele>
        <time>2018-04-21T13:30:49.000Z</time>
      </trkpt>
      <trkpt lat="40.787183" lon="-3.976886">
        <ele>2235.3</ele>
        <time>2018-04-21T13:30:50.000Z</time>
      </trkpt>
      <trkpt lat="40.787178" lon="-3.976897">
        <ele>2235.4</ele>
        <time>2018-04-21T13:30:51.000Z</time>
      </trkpt>
      <trkpt lat="40.787172" lon="-3.976907">
        <ele>2235.4</ele>
        <time>2018-04-21T13:30:52.000Z</time>
      </trkpt>
      <trkpt lat="40.787167" lon="-3.976917">
        <ele>2235.5</ele>
        <time>2018-04-21T13:30:53.000Z</time>
      </trkpt>
      <trkpt lat="40.787162" lon="-3.976926">
        <ele>2235.5</ele>
        <time>2018-04-21T13:30:54.000Z</time>
      </trkpt>
      <trkpt lat="40.787158" lon="-3.976934">
        <ele>2235.5</ele>
        <time>2018-04-21T13:30:55.000Z</time>
      </trkpt>
      <trkpt lat="40.787154" lon="-3.976941">
        <ele>2235.6</ele>
        <time>2018-04-21T13:30:56.000Z</time>
      </trkpt>
      <trkpt lat="40.787151" lon="-3.976948">
        <ele>2235.6</ele>
        <time>2018-04-21T13:30:57.000Z</time>
      </trkpt>
      <trkpt lat="40.78715" lon="-3.976953">
        <ele>2235.6</ele>
        <time>2018-04-21T13:30:58.000Z</time>
      </trkpt>
      <trkpt lat="40.787149" lon="-3.976956">
        <ele>2235.7</ele>
        <time>2018-04-21T13:30:59.000Z</time>
      </trkpt>
      <trkpt lat="40.787149" lon="-3.976959">
        <ele>2235.7</ele>
        <time>2018-04-21T13:31:00.000Z</time>
      </trkpt>
      <trkpt lat="40.787149" lon="-3.976961">
        <ele>2235.7</ele>
        <time>2018-04-21T13:31:01.000Z</time>
      </trkpt>
      <trkpt lat="40.78715" lon="-3.976963">
        <ele>2235.7</ele>
        <time>2018-04-21T13:31:02.000Z</time>
      </trkpt>
      <trkpt lat="40.787151" lon="-3.976963">
        <ele>2235.7</ele>
        <time>2018-04-21T13:31:03.000Z</time>
      </trkpt>
      <trkpt lat="40.787152" lon="-3.976964">
        <ele>2235.8</ele>
        <time>2018-04-21T13:31:04.000Z</time>
      </trkpt>
      <trkpt lat="40.787153" lon="-3.976963">
        <ele>2235.8</ele>
        <time>2018-04-21T13:31:05.000Z</time>
      </trkpt>
      <trkpt lat="40.787153" lon="-3.976963">
        <ele>2235.8</ele>
        <time>2018-04-21T13:31:06.000Z</time>
      </trkpt>
      <trkpt lat="40.787153" lon="-3.976962">
        <ele>2235.8</ele>
        <time>2018-04-21T13:31:07.000Z</time>
      </trkpt>
      <trkpt lat="40.787153" lon="-3.976962">
        <ele>2235.8</ele>
        <time>2018-04-21T13:31:08.000Z</time>
      </trkpt>
      <trkpt lat="40.787154" lon="-3.976961">
        <ele>2235.8</ele>
        <time>2018-04-21T13:31:09.000Z</time>
      </trkpt>
      <trkpt lat="40.787154" lon="-3.976961">
        <ele>2235.8</ele>
        <time>2018-04-21T13:31:10.000Z</time>
      </trkpt>
      <trkpt lat="40.787154" lon="-3.976962">
        <ele>2235.8</ele>
        <time>2018-04-21T13:31:11.000Z</time>
      </trkpt>
      <trkpt lat="40.787155" lon="-3.976963">
        <ele>2235.8</ele>
        <time>2018-04-21T13:31:12.000Z</time>
      </trkpt>
      <trkpt lat="40.787156" lon="-3.976966">
        <ele>2235.8</ele>
        <time>2018-04-21T13:31:13.000Z</time>
      </trkpt>
      <trkpt lat="40.787157" lon="-3.976968">
        <ele>2235.9</ele>
        <time>2018-04-21T13:31:14.000Z</time>
      </trkpt>
      <trkpt lat="40.787158" lon="-3.976972">
        <ele>2235.9</ele>
        <time>2018-04-21T13:31:15.000Z</time>
      </trkpt>
      <trkpt lat="40.787159" lon="-3.976976">
        <ele>2236.0</ele>
        <time>2018-04-21T13:31:16.000Z</time>
      </trkpt>
      <trkpt lat="40.787159" lon="-3.97698">
        <ele>2236.0</ele>
        <time>2018-04-21T13:31:17.000Z</time>
      </trkpt>
      <trkpt lat="40.787158" lon="-3.976984">
        <ele>2236.0</ele>
        <time>2018-04-21T13:31:18.000Z</time>
      </trkpt>
      <trkpt lat="40.787155" lon="-3.976988">
        <ele>2236.0</ele>
        <time>2018-04-21T13:31:19.000Z</time>
      </trkpt>
      <trkpt lat="40.787151" lon="-3.976992">
        <ele>2236.0</ele>
        <time>2018-04-21T13:31:20.000Z</time>
      </trkpt>
      <trkpt lat="40.787146" lon="-3.976996">
        <ele>2236.0</ele>
        <time>2018-04-21T13:31:21.000Z</time>
      </trkpt>
      <trkpt lat="40.78714" lon="-3.977001">
        <ele>2236.0</ele>
        <time>2018-04-21T13:31:22.000Z</time>
      </trkpt>
      <trkpt lat="40.787134" lon="-3.977005">
        <ele>2236.0</ele>
        <time>2018-04-21T13:31:23.000Z</time>
      </trkpt>
      <trkpt lat="40.787128" lon="-3.977011">
        <ele>2236.0</ele>
        <time>2018-04-21T13:31:24.000Z</time>
      </trkpt>
      <trkpt lat="40.787122" lon="-3.977018">
        <ele>2236.0</ele>
        <time>2018-04-21T13:31:25.000Z</time>
      </trkpt>
      <trkpt lat="40.787116" lon="-3.977025">
        <ele>2236.0</ele>
        <time>2018-04-21T13:31:26.000Z</time>
      </trkpt>
      <trkpt lat="40.787112" lon="-3.977034">
        <ele>2236.0</ele>
        <time>2018-04-21T13:31:27.000Z</time>
      </trkpt>
      <trkpt lat="40.787109" lon="-3.977045">
        <ele>2236.1</ele>
        <time>2018-04-21T13:31:28.000Z</time>
      </trkpt>
      <trkpt lat="40.787106" lon="-3.977056">
        <ele>2236.2</ele>
        <time>2018-04-21T13:31:29.000Z</time>
      </trkpt>
      <trkpt lat="40.787104" lon="-3.977068">
        <ele>2236.3</ele>
        <time>2018-04-21T13:31:30.000Z</time>
      </trkpt>
      <trkpt lat="40.787102" lon="-3.97708">
        <ele>2236.4</ele>
        <time>2018-04-21T13:31:31.000Z</time>
      </trkpt>
      <trkpt lat="40.787099" lon="-3.977092">
        <ele>2236.5</ele>
        <time>2018-04-21T13:31:32.000Z</time>
      </trkpt>
      <trkpt lat="40.787096" lon="-3.977104">
        <ele>2236.6</ele>
        <time>2018-04-21T13:31:33.000Z</time>
      </trkpt>
      <trkpt lat="40.787092" lon="-3.977116">
        <ele>2236.7</ele>
        <time>2018-04-21T13:31:34.000Z</time>
      </trkpt>
      <trkpt lat="40.787087" lon="-3.977127">
        <ele>2236.7</ele>
        <time>2018-04-21T13:31:35.000Z</time>
      </trkpt>
      <trkpt lat="40.787081" lon="-3.977138">
        <ele>2236.8</ele>
        <time>2018-04-21T13:31:36.000Z</time>
      </trkpt>
      <trkpt lat="40.787074" lon="-3.977148">
        <ele>2236.8</ele>
        <time>2018-04-21T13:31:37.000Z</time>
      </trkpt>
      <trkpt lat="40.787067" lon="-3.977157">
        <ele>2236.8</ele>
        <time>2018-04-21T13:31:38.000Z</time>
      </trkpt>
      <trkpt lat="40.787059" lon="-3.977166">
        <ele>2236.9</ele>
        <time>2018-04-21T13:31:39.000Z</time>
      </trkpt>
      <trkpt lat="40.787052" lon="-3.977175">
        <ele>2236.9</ele>
        <time>2018-04-21T13:31:40.000Z</time>
      </trkpt>
      <trkpt lat="40.787044" lon="-3.977184">
        <ele>2236.9</ele>
        <time>2018-04-21T13:31:41.000Z</time>
      </trkpt>
      <trkpt lat="40.787037" lon="-3.977193">
        <ele>2236.9</ele>
        <time>2018-04-21T13:31:42.000Z</time>
      </trkpt>
      <trkpt lat="40.787031" lon="-3.977201">
        <ele>2236.9</ele>
        <time>2018-04-21T13:31:43.000Z</time>
      </trkpt>
      <trkpt lat="40.787025" lon="-3.97721">
        <ele>2237.0</ele>
        <time>2018-04-21T13:31:44.000Z</time>
      </trkpt>
      <trkpt lat="40.787019" lon="-3.977218">
        <ele>2237.0</ele>
        <time>2018-04-21T13:31:45.000Z</time>
      </trkpt>
      <trkpt lat="40.787015" lon="-3.977225">
        <ele>2237.0</ele>
        <time>2018-04-21T13:31:46.000Z</time>
      </trkpt>
      <trkpt lat="40.78701" lon="-3.977233">
        <ele>2237.1</ele>
        <time>2018-04-21T13:31:47.000Z</time>
      </trkpt>
      <trkpt lat="40.787006" lon="-3.97724">
        <ele>2237.1</ele>
        <time>2018-04-21T13:31:48.000Z</time>
      </trkpt>
      <trkpt lat="40.787003" lon="-3.977247">
        <ele>2237.2</ele>
        <time>2018-04-21T13:31:49.000Z</time>
      </trkpt>
      <trkpt lat="40.787001" lon="-3.977253">
        <ele>2237.2</ele>
        <time>2018-04-21T13:31:50.000Z</time>
      </trkpt>
      <trkpt lat="40.786998" lon="-3.977259">
        <ele>2237.2</ele>
        <time>2018-04-21T13:31:51.000Z</time>
      </trkpt>
      <trkpt lat="40.786996" lon="-3.977265">
        <ele>2237.3</ele>
        <time>2018-04-21T13:31:52.000Z</time>
      </trkpt>
      <trkpt lat="40.786994" lon="-3.97727">
        <ele>2237.3</ele>
        <time>2018-04-21T13:31:53.000Z</time>
      </trkpt>
      <trkpt lat="40.786992" lon="-3.977275">
        <ele>2237.3</ele>
        <time>2018-04-21T13:31:54.000Z</time>
      </trkpt>
      <trkpt lat="40.786989" lon="-3.97728">
        <ele>2237.4</ele>
        <time>2018-04-21T13:31:55.000Z</time>
      </trkpt>
      <trkpt lat="40.786986" lon="-3.977285">
        <ele>2237.4</ele>
        <time>2018-04-21T13:31:56.000Z</time>
      </trkpt>
      <trkpt lat="40.786983" lon="-3.97729">
        <ele>2237.4</ele>
        <time>2018-04-21T13:31:57.000Z</time>
      </trkpt>
      <trkpt lat="40.78698" lon="-3.977295">
        <ele>2237.4</ele>
        <time>2018-04-21T13:31:58.000Z</time>
      </trkpt>
      <trkpt lat="40.786976" lon="-3.9773">
        <ele>2237.5</ele>
        <time>2018-04-21T13:31:59.000Z</time>
      </trkpt>
      <trkpt lat="40.786972" lon="-3.977305">
        <ele>2237.5</ele>
        <time>2018-04-21T13:32:00.000Z</time>
      </trkpt>
      <trkpt lat="40.786967" lon="-3.97731">
        <ele>2237.5</ele>
        <time>2018-04-21T13:32:01.000Z</time>
      </trkpt>
      <trkpt lat="40.786963" lon="-3.977315">
        <ele>2237.5</ele>
        <time>2018-04-21T13:32:02.000Z</time>
      </trkpt>
      <trkpt lat="40.786958" lon="-3.97732">
        <ele>2237.5</ele>
        <time>2018-04-21T13:32:03.000Z</time>
      </trkpt>
      <trkpt lat="40.786953" lon="-3.977326">
        <ele>2237.5</ele>
        <time>2018-04-21T13:32:04.000Z</time>
      </trkpt>
      <trkpt lat="40.786949" lon="-3.977331">
        <ele>2237.5</ele>
        <time>2018-04-21T13:32:05.000Z</time>
      </trkpt>
      <trkpt lat="40.786944" lon="-3.977337">
        <ele>2237.6</ele>
        <time>2018-04-21T13:32:06.000Z</time>
      </trkpt>
      <trkpt lat="40.786939" lon="-3.977344">
        <ele>2237.6</ele>
        <time>2018-04-21T13:32:07.000Z</time>
      </trkpt>
      <trkpt lat="40.786934" lon="-3.977351">
        <ele>2237.6</ele>
        <time>2018-04-21T13:32:08.000Z</time>
      </trkpt>
      <trkpt lat="40.786929" lon="-3.977358">
        <ele>2237.7</ele>
        <time>2018-04-21T13:32:09.000Z</time>
      </trkpt>
      <trkpt lat="40.786925" lon="-3.977365">
        <ele>2237.7</ele>
        <time>2018-04-21T13:32:10.000Z</time>
      </trkpt>
      <trkpt lat="40.78692" lon="-3.977373">
        <ele>2237.7</ele>
        <time>2018-04-21T13:32:11.000Z</time>
      </trkpt>
      <trkpt lat="40.786916" lon="-3.977381">
        <ele>2237.8</ele>
        <time>2018-04-21T13:32:12.000Z</time>
      </trkpt>
      <trkpt lat="40.786912" lon="-3.977389">
        <ele>2237.8</ele>
        <time>2018-04-21T13:32:13.000Z</time>
      </trkpt>
      <trkpt lat="40.786909" lon="-3.977397">
        <ele>2237.9</ele>
        <time>2018-04-21T13:32:14.000Z</time>
      </trkpt>
      <trkpt lat="40.786906" lon="-3.977403">
        <ele>2237.9</ele>
        <time>2018-04-21T13:32:15.000Z</time>
      </trkpt>
      <trkpt lat="40.786903" lon="-3.977409">
        <ele>2238.0</ele>
        <time>2018-04-21T13:32:16.000Z</time>
      </trkpt>
      <trkpt lat="40.786901" lon="-3.977414">
        <ele>2238.0</ele>
        <time>2018-04-21T13:32:17.000Z</time>
      </trkpt>
      <trkpt lat="40.786898" lon="-3.977418">
        <ele>2238.0</ele>
        <time>2018-04-21T13:32:18.000Z</time>
      </trkpt>
      <trkpt lat="40.786896" lon="-3.977421">
        <ele>2238.1</ele>
        <time>2018-04-21T13:32:19.000Z</time>
      </trkpt>
      <trkpt lat="40.786893" lon="-3.977424">
        <ele>2238.1</ele>
        <time>2018-04-21T13:32:20.000Z</time>
      </trkpt>
      <trkpt lat="40.786891" lon="-3.977427">
        <ele>2238.1</ele>
        <time>2018-04-21T13:32:21.000Z</time>
      </trkpt>
      <trkpt lat="40.786887" lon="-3.977431">
        <ele>2238.1</ele>
        <time>2018-04-21T13:32:22.000Z</time>
      </trkpt>
      <trkpt lat="40.786884" lon="-3.977438">
        <ele>2238.1</ele>
        <time>2018-04-21T13:32:23.000Z</time>
      </trkpt>
      <trkpt lat="40.786879" lon="-3.977445">
        <ele>2238.2</ele>
        <time>2018-04-21T13:32:24.000Z</time>
      </trkpt>
      <trkpt lat="40.786875" lon="-3.977453">
        <ele>2238.2</ele>
        <time>2018-04-21T13:32:25.000Z</time>
      </trkpt>
      <trkpt lat="40.786872" lon="-3.977459">
        <ele>2238.3</ele>
        <time>2018-04-21T13:32:26.000Z</time>
      </trkpt>
      <trkpt lat="40.786869" lon="-3.977465">
        <ele>2238.3</ele>
        <time>2018-04-21T13:32:27.000Z</time>
      </trkpt>
      <trkpt lat="40.786867" lon="-3.977469">
        <ele>2238.3</ele>
        <time>2018-04-21T13:32:28.000Z</time>
      </trkpt>
      <trkpt lat="40.786865" lon="-3.977473">
        <ele>2238.4</ele>
        <time>2018-04-21T13:32:29.000Z</time>
      </trkpt>
      <trkpt lat="40.786863" lon="-3.977476">
        <ele>2238.4</ele>
        <time>2018-04-21T13:32:30.000Z</time>
      </trkpt>
      <trkpt lat="40.786862" lon="-3.977478">
        <ele>2238.4</ele>
        <time>2018-04-21T13:32:31.000Z</time>
      </trkpt>
      <trkpt lat="40.786861" lon="-3.977479">
        <ele>2238.4</ele>
        <time>2018-04-21T13:32:32.000Z</time>
      </trkpt>
      <trkpt lat="40.786861" lon="-3.97748">
        <ele>2238.4</ele>
        <time>2018-04-21T13:32:33.000Z</time>
      </trkpt>
      <trkpt lat="40.786861" lon="-3.977481">
        <ele>2238.4</ele>
        <time>2018-04-21T13:32:34.000Z</time>
      </trkpt>
      <trkpt lat="40.786861" lon="-3.977481">
        <ele>2238.4</ele>
        <time>2018-04-21T13:32:35.000Z</time>
      </trkpt>
      <trkpt lat="40.786861" lon="-3.977481">
        <ele>2238.4</ele>
        <time>2018-04-21T13:32:36.000Z</time>
      </trkpt>
      <trkpt lat="40.786861" lon="-3.97748">
        <ele>2238.4</ele>
        <time>2018-04-21T13:32:37.000Z</time>
      </trkpt>
      <trkpt lat="40.786861" lon="-3.97748">
        <ele>2238.4</ele>
        <time>2018-04-21T13:32:38.000Z</time>
      </trkpt>
      <trkpt lat="40.786862" lon="-3.977479">
        <ele>2238.4</ele>
        <time>2018-04-21T13:32:39.000Z</time>
      </trkpt>
      <trkpt lat="40.786862" lon="-3.977479">
        <ele>2238.4</ele>
        <time>2018-04-21T13:32:40.000Z</time>
      </trkpt>
      <trkpt lat="40.786862" lon="-3.977478">
        <ele>2238.4</ele>
        <time>2018-04-21T13:32:41.000Z</time>
      </trkpt>
      <trkpt lat="40.786862" lon="-3.977478">
        <ele>2238.4</ele>
        <time>2018-04-21T13:32:42.000Z</time>
      </trkpt>
      <trkpt lat="40.786862" lon="-3.977478">
        <ele>2238.4</ele>
        <time>2018-04-21T13:32:43.000Z</time>
      </trkpt>
      <trkpt lat="40.786862" lon="-3.977478">
        <ele>2238.4</ele>
        <time>2018-04-21T13:32:44.000Z</time>
      </trkpt>
      <trkpt lat="40.786862" lon="-3.977478">
        <ele>2238.4</ele>
        <time>2018-04-21T13:32:45.000Z</time>
      </trkpt>
      <trkpt lat="40.786862" lon="-3.977478">
        <ele>2238.4</ele>
        <time>2018-04-21T13:32:46.000Z</time>
      </trkpt>
      <trkpt lat="40.786862" lon="-3.977478">
        <ele>2238.4</ele>
        <time>2018-04-21T13:32:47.000Z</time>
      </trkpt>
      <trkpt lat="40.786862" lon="-3.977478">
        <ele>2238.4</ele>
        <time>2018-04-21T13:32:48.000Z</time>
      </trkpt>
      <trkpt lat="40.786862" lon="-3.977478">
        <ele>2238.4</ele>
        <time>2018-04-21T13:32:49.000Z</time>
      </trkpt>
      <trkpt lat="40.786862" lon="-3.977478">
        <ele>2238.4</ele>
        <time>2018-04-21T13:32:50.000Z</time>
      </trkpt>
      <trkpt lat="40.786862" lon="-3.977478">
        <ele>2238.4</ele>
        <time>2018-04-21T13:32:51.000Z</time>
      </trkpt>
      <trkpt lat="40.786862" lon="-3.977478">
        <ele>2238.4</ele>
        <time>2018-04-21T13:32:52.000Z</time>
      </trkpt>
      <trkpt lat="40.786862" lon="-3.977478">
        <ele>2238.4</ele>
        <time>2018-04-21T13:32:53.000Z</time>
      </trkpt>
      <trkpt lat="40.786862" lon="-3.977478">
        <ele>2238.4</ele>
        <time>2018-04-21T13:32:54.000Z</time>
      </trkpt>
      <trkpt lat="40.786862" lon="-3.977478">
        <ele>2238.4</ele>
        <time>2018-04-21T13:32:55.000Z</time>
      </trkpt>
      <trkpt lat="40.786862" lon="-3.977478">
        <ele>2238.4</ele>
        <time>2018-04-21T13:32:56.000Z</time>
      </trkpt>
      <trkpt lat="40.786862" lon="-3.977478">
        <ele>2238.4</ele>
        <time>2018-04-21T13:32:57.000Z</time>
      </trkpt>
      <trkpt lat="40.786862" lon="-3.977478">
        <ele>2238.4</ele>
        <time>2018-04-21T13:32:58.000Z</time>
      </trkpt>
      <trkpt lat="40.786862" lon="-3.977478">
        <ele>2238.4</ele>
        <time>2018-04-21T13:32:59.000Z</time>
      </trkpt>
      <trkpt lat="40.786862" lon="-3.977478">
        <ele>2238.4</ele>
        <time>2018-04-21T13:33:00.000Z</time>
      </trkpt>
      <trkpt lat="40.786863" lon="-3.977478">
        <ele>2238.4</ele>
        <time>2018-04-21T13:33:01.000Z</time>
      </trkpt>
      <trkpt lat="40.786863" lon="-3.977479">
        <ele>2238.4</ele>
        <time>2018-04-21T13:33:02.000Z</time>
      </trkpt>
      <trkpt lat="40.786863" lon="-3.97748">
        <ele>2238.4</ele>
        <time>2018-04-21T13:33:03.000Z</time>
      </trkpt>
      <trkpt lat="40.786863" lon="-3.977481">
        <ele>2238.4</ele>
        <time>2018-04-21T13:33:04.000Z</time>
      </trkpt>
      <trkpt lat="40.786863" lon="-3.977482">
        <ele>2238.4</ele>
        <time>2018-04-21T13:33:05.000Z</time>
      </trkpt>
      <trkpt lat="40.786863" lon="-3.977484">
        <ele>2238.5</ele>
        <time>2018-04-21T13:33:06.000Z</time>
      </trkpt>
      <trkpt lat="40.786862" lon="-3.977487">
        <ele>2238.5</ele>
        <time>2018-04-21T13:33:07.000Z</time>
      </trkpt>
      <trkpt lat="40.786862" lon="-3.97749">
        <ele>2238.5</ele>
        <time>2018-04-21T13:33:08.000Z</time>
      </trkpt>
      <trkpt lat="40.786862" lon="-3.977493">
        <ele>2238.6</ele>
        <time>2018-04-21T13:33:09.000Z</time>
      </trkpt>
      <trkpt lat="40.786862" lon="-3.977497">
        <ele>2238.6</ele>
        <time>2018-04-21T13:33:10.000Z</time>
      </trkpt>
      <trkpt lat="40.786861" lon="-3.977501">
        <ele>2238.6</ele>
        <time>2018-04-21T13:33:11.000Z</time>
      </trkpt>
      <trkpt lat="40.786861" lon="-3.977505">
        <ele>2238.7</ele>
        <time>2018-04-21T13:33:12.000Z</time>
      </trkpt>
      <trkpt lat="40.78686" lon="-3.977506">
        <ele>2238.7</ele>
        <time>2018-04-21T13:33:13.000Z</time>
      </trkpt>
      <trkpt lat="40.78686" lon="-3.977506">
        <ele>2238.7</ele>
        <time>2018-04-21T13:33:14.000Z</time>
      </trkpt>
      <trkpt lat="40.786859" lon="-3.977505">
        <ele>2238.7</ele>
        <time>2018-04-21T13:33:15.000Z</time>
      </trkpt>
      <trkpt lat="40.786859" lon="-3.977503">
        <ele>2238.6</ele>
        <time>2018-04-21T13:33:16.000Z</time>
      </trkpt>
      <trkpt lat="40.786858" lon="-3.977502">
        <ele>2238.6</ele>
        <time>2018-04-21T13:33:17.000Z</time>
      </trkpt>
      <trkpt lat="40.786858" lon="-3.977501">
        <ele>2238.6</ele>
        <time>2018-04-21T13:33:18.000Z</time>
      </trkpt>
      <trkpt lat="40.786859" lon="-3.9775">
        <ele>2238.6</ele>
        <time>2018-04-21T13:33:19.000Z</time>
      </trkpt>
      <trkpt lat="40.786859" lon="-3.9775">
        <ele>2238.6</ele>
        <time>2018-04-21T13:33:20.000Z</time>
      </trkpt>
      <trkpt lat="40.78686" lon="-3.9775">
        <ele>2238.6</ele>
        <time>2018-04-21T13:33:21.000Z</time>
      </trkpt>
      <trkpt lat="40.78686" lon="-3.977501">
        <ele>2238.6</ele>
        <time>2018-04-21T13:33:22.000Z</time>
      </trkpt>
      <trkpt lat="40.786861" lon="-3.977501">
        <ele>2238.6</ele>
        <time>2018-04-21T13:33:23.000Z</time>
      </trkpt>
      <trkpt lat="40.786862" lon="-3.977501">
        <ele>2238.6</ele>
        <time>2018-04-21T13:33:24.000Z</time>
      </trkpt>
      <trkpt lat="40.786862" lon="-3.977501">
        <ele>2238.6</ele>
        <time>2018-04-21T13:33:25.000Z</time>
      </trkpt>
      <trkpt lat="40.786862" lon="-3.977501">
        <ele>2238.6</ele>
        <time>2018-04-21T13:33:26.000Z</time>
      </trkpt>
      <trkpt lat="40.786863" lon="-3.977501">
        <ele>2238.7</ele>
        <time>2018-04-21T13:33:27.000Z</time>
      </trkpt>
      <trkpt lat="40.786863" lon="-3.977502">
        <ele>2238.7</ele>
        <time>2018-04-21T13:33:28.000Z</time>
      </trkpt>
      <trkpt lat="40.786863" lon="-3.977502">
        <ele>2238.7</ele>
        <time>2018-04-21T13:33:29.000Z</time>
      </trkpt>
      <trkpt lat="40.786863" lon="-3.977502">
        <ele>2238.7</ele>
        <time>2018-04-21T13:33:30.000Z</time>
      </trkpt>
      <trkpt lat="40.786863" lon="-3.977502">
        <ele>2238.7</ele>
        <time>2018-04-21T13:33:31.000Z</time>
      </trkpt>
      <trkpt lat="40.786864" lon="-3.977502">
        <ele>2238.7</ele>
        <time>2018-04-21T13:33:32.000Z</time>
      </trkpt>
      <trkpt lat="40.786864" lon="-3.977502">
        <ele>2238.7</ele>
        <time>2018-04-21T13:33:33.000Z</time>
      </trkpt>
      <trkpt lat="40.786864" lon="-3.977502">
        <ele>2238.7</ele>
        <time>2018-04-21T13:33:34.000Z</time>
      </trkpt>
      <trkpt lat="40.786864" lon="-3.977502">
        <ele>2238.7</ele>
        <time>2018-04-21T13:33:35.000Z</time>
      </trkpt>
      <trkpt lat="40.786864" lon="-3.977502">
        <ele>2238.7</ele>
        <time>2018-04-21T13:33:36.000Z</time>
      </trkpt>
      <trkpt lat="40.786864" lon="-3.977502">
        <ele>2238.7</ele>
        <time>2018-04-21T13:33:37.000Z</time>
      </trkpt>
      <trkpt lat="40.786864" lon="-3.977502">
        <ele>2238.7</ele>
        <time>2018-04-21T13:33:38.000Z</time>
      </trkpt>
      <trkpt lat="40.786864" lon="-3.977502">
        <ele>2238.7</ele>
        <time>2018-04-21T13:33:39.000Z</time>
      </trkpt>
      <trkpt lat="40.786864" lon="-3.977502">
        <ele>2238.7</ele>
        <time>2018-04-21T13:33:40.000Z</time>
      </trkpt>
      <trkpt lat="40.786864" lon="-3.977502">
        <ele>2238.7</ele>
        <time>2018-04-21T13:33:41.000Z</time>
      </trkpt>
      <trkpt lat="40.786864" lon="-3.977502">
        <ele>2238.7</ele>
        <time>2018-04-21T13:33:42.000Z</time>
      </trkpt>
      <trkpt lat="40.786864" lon="-3.977502">
        <ele>2238.7</ele>
        <time>2018-04-21T13:33:43.000Z</time>
      </trkpt>
      <trkpt lat="40.786864" lon="-3.977502">
        <ele>2238.7</ele>
        <time>2018-04-21T13:33:44.000Z</time>
      </trkpt>
      <trkpt lat="40.786864" lon="-3.977502">
        <ele>2238.7</ele>
        <time>2018-04-21T13:33:45.000Z</time>
      </trkpt>
      <trkpt lat="40.786864" lon="-3.977502">
        <ele>2238.7</ele>
        <time>2018-04-21T13:33:46.000Z</time>
      </trkpt>
      <trkpt lat="40.786864" lon="-3.977502">
        <ele>2238.7</ele>
        <time>2018-04-21T13:33:47.000Z</time>
      </trkpt>
      <trkpt lat="40.786864" lon="-3.977501">
        <ele>2238.7</ele>
        <time>2018-04-21T13:33:48.000Z</time>
      </trkpt>
      <trkpt lat="40.786864" lon="-3.977501">
        <ele>2238.7</ele>
        <time>2018-04-21T13:33:49.000Z</time>
      </trkpt>
      <trkpt lat="40.786865" lon="-3.977501">
        <ele>2238.7</ele>
        <time>2018-04-21T13:33:50.000Z</time>
      </trkpt>
      <trkpt lat="40.786865" lon="-3.977501">
        <ele>2238.7</ele>
        <time>2018-04-21T13:33:51.000Z</time>
      </trkpt>
      <trkpt lat="40.786865" lon="-3.977501">
        <ele>2238.7</ele>
        <time>2018-04-21T13:33:52.000Z</time>
      </trkpt>
      <trkpt lat="40.786865" lon="-3.977501">
        <ele>2238.7</ele>
        <time>2018-04-21T13:33:53.000Z</time>
      </trkpt>
      <trkpt lat="40.786866" lon="-3.9775">
        <ele>2238.7</ele>
        <time>2018-04-21T13:33:54.000Z</time>
      </trkpt>
      <trkpt lat="40.786866" lon="-3.9775">
        <ele>2238.7</ele>
        <time>2018-04-21T13:33:55.000Z</time>
      </trkpt>
      <trkpt lat="40.786866" lon="-3.9775">
        <ele>2238.7</ele>
        <time>2018-04-21T13:33:56.000Z</time>
      </trkpt>
      <trkpt lat="40.786867" lon="-3.977499">
        <ele>2238.7</ele>
        <time>2018-04-21T13:33:57.000Z</time>
      </trkpt>
      <trkpt lat="40.786867" lon="-3.977499">
        <ele>2238.7</ele>
        <time>2018-04-21T13:33:58.000Z</time>
      </trkpt>
      <trkpt lat="40.786868" lon="-3.977499">
        <ele>2238.7</ele>
        <time>2018-04-21T13:33:59.000Z</time>
      </trkpt>
      <trkpt lat="40.786868" lon="-3.977498">
        <ele>2238.7</ele>
        <time>2018-04-21T13:34:00.000Z</time>
      </trkpt>
      <trkpt lat="40.786868" lon="-3.977498">
        <ele>2238.7</ele>
        <time>2018-04-21T13:34:01.000Z</time>
      </trkpt>
      <trkpt lat="40.786869" lon="-3.977498">
        <ele>2238.7</ele>
        <time>2018-04-21T13:34:02.000Z</time>
      </trkpt>
      <trkpt lat="40.786869" lon="-3.977498">
        <ele>2238.7</ele>
        <time>2018-04-21T13:34:03.000Z</time>
      </trkpt>
      <trkpt lat="40.786869" lon="-3.977497">
        <ele>2238.7</ele>
        <time>2018-04-21T13:34:04.000Z</time>
      </trkpt>
      <trkpt lat="40.78687" lon="-3.977497">
        <ele>2238.7</ele>
        <time>2018-04-21T13:34:05.000Z</time>
      </trkpt>
      <trkpt lat="40.78687" lon="-3.977497">
        <ele>2238.7</ele>
        <time>2018-04-21T13:34:06.000Z</time>
      </trkpt>
      <trkpt lat="40.78687" lon="-3.977497">
        <ele>2238.7</ele>
        <time>2018-04-21T13:34:07.000Z</time>
      </trkpt>
      <trkpt lat="40.78687" lon="-3.977496">
        <ele>2238.7</ele>
        <time>2018-04-21T13:34:08.000Z</time>
      </trkpt>
      <trkpt lat="40.78687" lon="-3.977496">
        <ele>2238.7</ele>
        <time>2018-04-21T13:34:09.000Z</time>
      </trkpt>
      <trkpt lat="40.786871" lon="-3.977496">
        <ele>2238.7</ele>
        <time>2018-04-21T13:34:10.000Z</time>
      </trkpt>
      <trkpt lat="40.786871" lon="-3.977496">
        <ele>2238.7</ele>
        <time>2018-04-21T13:34:11.000Z</time>
      </trkpt>
      <trkpt lat="40.786871" lon="-3.977496">
        <ele>2238.7</ele>
        <time>2018-04-21T13:34:12.000Z</time>
      </trkpt>
      <trkpt lat="40.786871" lon="-3.977496">
        <ele>2238.7</ele>
        <time>2018-04-21T13:34:13.000Z</time>
      </trkpt>
      <trkpt lat="40.786871" lon="-3.977496">
        <ele>2238.7</ele>
        <time>2018-04-21T13:34:14.000Z</time>
      </trkpt>
      <trkpt lat="40.786871" lon="-3.977496">
        <ele>2238.7</ele>
        <time>2018-04-21T13:34:15.000Z</time>
      </trkpt>
      <trkpt lat="40.786871" lon="-3.977496">
        <ele>2238.7</ele>
        <time>2018-04-21T13:34:16.000Z</time>
      </trkpt>
      <trkpt lat="40.786871" lon="-3.977496">
        <ele>2238.7</ele>
        <time>2018-04-21T13:34:17.000Z</time>
      </trkpt>
      <trkpt lat="40.786871" lon="-3.977496">
        <ele>2238.7</ele>
        <time>2018-04-21T13:34:18.000Z</time>
      </trkpt>
      <trkpt lat="40.78687" lon="-3.977496">
        <ele>2238.7</ele>
        <time>2018-04-21T13:34:19.000Z</time>
      </trkpt>
      <trkpt lat="40.78687" lon="-3.977496">
        <ele>2238.7</ele>
        <time>2018-04-21T13:34:20.000Z</time>
      </trkpt>
      <trkpt lat="40.78687" lon="-3.977496">
        <ele>2238.7</ele>
        <time>2018-04-21T13:34:21.000Z</time>
      </trkpt>
      <trkpt lat="40.78687" lon="-3.977496">
        <ele>2238.7</ele>
        <time>2018-04-21T13:34:22.000Z</time>
      </trkpt>
      <trkpt lat="40.786871" lon="-3.977496">
        <ele>2238.7</ele>
        <time>2018-04-21T13:34:23.000Z</time>
      </trkpt>
      <trkpt lat="40.786871" lon="-3.977496">
        <ele>2238.7</ele>
        <time>2018-04-21T13:34:24.000Z</time>
      </trkpt>
      <trkpt lat="40.786871" lon="-3.977496">
        <ele>2238.7</ele>
        <time>2018-04-21T13:34:25.000Z</time>
      </trkpt>
      <trkpt lat="40.786871" lon="-3.977496">
        <ele>2238.7</ele>
        <time>2018-04-21T13:34:26.000Z</time>
      </trkpt>
      <trkpt lat="40.786871" lon="-3.977496">
        <ele>2238.7</ele>
        <time>2018-04-21T13:34:27.000Z</time>
      </trkpt>
      <trkpt lat="40.78687" lon="-3.977497">
        <ele>2238.7</ele>
        <time>2018-04-21T13:34:28.000Z</time>
      </trkpt>
      <trkpt lat="40.78687" lon="-3.977497">
        <ele>2238.7</ele>
        <time>2018-04-21T13:34:29.000Z</time>
      </trkpt>
      <trkpt lat="40.78687" lon="-3.977497">
        <ele>2238.7</ele>
        <time>2018-04-21T13:34:30.000Z</time>
      </trkpt>
      <trkpt lat="40.786869" lon="-3.977498">
        <ele>2238.7</ele>
        <time>2018-04-21T13:34:31.000Z</time>
      </trkpt>
      <trkpt lat="40.786869" lon="-3.977499">
        <ele>2238.7</ele>
        <time>2018-04-21T13:34:32.000Z</time>
      </trkpt>
      <trkpt lat="40.786868" lon="-3.977499">
        <ele>2238.7</ele>
        <time>2018-04-21T13:34:33.000Z</time>
      </trkpt>
      <trkpt lat="40.786867" lon="-3.9775">
        <ele>2238.7</ele>
        <time>2018-04-21T13:34:34.000Z</time>
      </trkpt>
      <trkpt lat="40.786867" lon="-3.977501">
        <ele>2238.7</ele>
        <time>2018-04-21T13:34:35.000Z</time>
      </trkpt>
      <trkpt lat="40.786867" lon="-3.977501">
        <ele>2238.7</ele>
        <time>2018-04-21T13:34:36.000Z</time>
      </trkpt>
      <trkpt lat="40.786866" lon="-3.977502">
        <ele>2238.7</ele>
        <time>2018-04-21T13:34:37.000Z</time>
      </trkpt>
      <trkpt lat="40.786866" lon="-3.977502">
        <ele>2238.7</ele>
        <time>2018-04-21T13:34:38.000Z</time>
      </trkpt>
      <trkpt lat="40.786866" lon="-3.977502">
        <ele>2238.7</ele>
        <time>2018-04-21T13:34:39.000Z</time>
      </trkpt>
      <trkpt lat="40.786867" lon="-3.977503">
        <ele>2238.7</ele>
        <time>2018-04-21T13:34:40.000Z</time>
      </trkpt>
      <trkpt lat="40.786866" lon="-3.977503">
        <ele>2238.7</ele>
        <time>2018-04-21T13:34:41.000Z</time>
      </trkpt>
      <trkpt lat="40.786866" lon="-3.977503">
        <ele>2238.7</ele>
        <time>2018-04-21T13:34:42.000Z</time>
      </trkpt>
      <trkpt lat="40.786865" lon="-3.977504">
        <ele>2238.7</ele>
        <time>2018-04-21T13:34:43.000Z</time>
      </trkpt>
      <trkpt lat="40.786864" lon="-3.977506">
        <ele>2238.7</ele>
        <time>2018-04-21T13:34:44.000Z</time>
      </trkpt>
      <trkpt lat="40.786862" lon="-3.977508">
        <ele>2238.7</ele>
        <time>2018-04-21T13:34:45.000Z</time>
      </trkpt>
      <trkpt lat="40.78686" lon="-3.97751">
        <ele>2238.7</ele>
        <time>2018-04-21T13:34:46.000Z</time>
      </trkpt>
      <trkpt lat="40.786858" lon="-3.977512">
        <ele>2238.7</ele>
        <time>2018-04-21T13:34:47.000Z</time>
      </trkpt>
      <trkpt lat="40.786856" lon="-3.977514">
        <ele>2238.7</ele>
        <time>2018-04-21T13:34:48.000Z</time>
      </trkpt>
      <trkpt lat="40.786856" lon="-3.977515">
        <ele>2238.7</ele>
        <time>2018-04-21T13:34:49.000Z</time>
      </trkpt>
      <trkpt lat="40.786855" lon="-3.977515">
        <ele>2238.7</ele>
        <time>2018-04-21T13:34:50.000Z</time>
      </trkpt>
      <trkpt lat="40.786855" lon="-3.977516">
        <ele>2238.7</ele>
        <time>2018-04-21T13:34:51.000Z</time>
      </trkpt>
      <trkpt lat="40.786855" lon="-3.977516">
        <ele>2238.7</ele>
        <time>2018-04-21T13:34:52.000Z</time>
      </trkpt>
      <trkpt lat="40.786855" lon="-3.977516">
        <ele>2238.7</ele>
        <time>2018-04-21T13:34:53.000Z</time>
      </trkpt>
      <trkpt lat="40.786855" lon="-3.977516">
        <ele>2238.7</ele>
        <time>2018-04-21T13:34:54.000Z</time>
      </trkpt>
      <trkpt lat="40.786855" lon="-3.977516">
        <ele>2238.7</ele>
        <time>2018-04-21T13:34:55.000Z</time>
      </trkpt>
      <trkpt lat="40.786855" lon="-3.977516">
        <ele>2238.7</ele>
        <time>2018-04-21T13:34:56.000Z</time>
      </trkpt>
      <trkpt lat="40.786855" lon="-3.977516">
        <ele>2238.7</ele>
        <time>2018-04-21T13:34:57.000Z</time>
      </trkpt>
      <trkpt lat="40.786855" lon="-3.977516">
        <ele>2238.7</ele>
        <time>2018-04-21T13:34:58.000Z</time>
      </trkpt>
      <trkpt lat="40.786855" lon="-3.977516">
        <ele>2238.7</ele>
        <time>2018-04-21T13:34:59.000Z</time>
      </trkpt>
      <trkpt lat="40.786855" lon="-3.977516">
        <ele>2238.7</ele>
        <time>2018-04-21T13:35:00.000Z</time>
      </trkpt>
      <trkpt lat="40.786855" lon="-3.977516">
        <ele>2238.7</ele>
        <time>2018-04-21T13:35:01.000Z</time>
      </trkpt>
      <trkpt lat="40.786855" lon="-3.977517">
        <ele>2238.7</ele>
        <time>2018-04-21T13:35:02.000Z</time>
      </trkpt>
      <trkpt lat="40.786855" lon="-3.977517">
        <ele>2238.7</ele>
        <time>2018-04-21T13:35:03.000Z</time>
      </trkpt>
      <trkpt lat="40.786855" lon="-3.977517">
        <ele>2238.7</ele>
        <time>2018-04-21T13:35:04.000Z</time>
      </trkpt>
      <trkpt lat="40.786855" lon="-3.977517">
        <ele>2238.7</ele>
        <time>2018-04-21T13:35:05.000Z</time>
      </trkpt>
      <trkpt lat="40.786855" lon="-3.977517">
        <ele>2238.7</ele>
        <time>2018-04-21T13:35:06.000Z</time>
      </trkpt>
      <trkpt lat="40.786855" lon="-3.977517">
        <ele>2238.7</ele>
        <time>2018-04-21T13:35:07.000Z</time>
      </trkpt>
      <trkpt lat="40.786855" lon="-3.977517">
        <ele>2238.7</ele>
        <time>2018-04-21T13:35:08.000Z</time>
      </trkpt>
      <trkpt lat="40.786855" lon="-3.977517">
        <ele>2238.7</ele>
        <time>2018-04-21T13:35:09.000Z</time>
      </trkpt>
      <trkpt lat="40.786855" lon="-3.977517">
        <ele>2238.7</ele>
        <time>2018-04-21T13:35:10.000Z</time>
      </trkpt>
      <trkpt lat="40.786855" lon="-3.977517">
        <ele>2238.7</ele>
        <time>2018-04-21T13:35:11.000Z</time>
      </trkpt>
      <trkpt lat="40.786855" lon="-3.977518">
        <ele>2238.7</ele>
        <time>2018-04-21T13:35:12.000Z</time>
      </trkpt>
      <trkpt lat="40.786855" lon="-3.977519">
        <ele>2238.7</ele>
        <time>2018-04-21T13:35:13.000Z</time>
      </trkpt>
      <trkpt lat="40.786854" lon="-3.97752">
        <ele>2238.7</ele>
        <time>2018-04-21T13:35:14.000Z</time>
      </trkpt>
      <trkpt lat="40.786853" lon="-3.977522">
        <ele>2238.8</ele>
        <time>2018-04-21T13:35:15.000Z</time>
      </trkpt>
      <trkpt lat="40.786852" lon="-3.977525">
        <ele>2238.8</ele>
        <time>2018-04-21T13:35:16.000Z</time>
      </trkpt>
      <trkpt lat="40.78685" lon="-3.977528">
        <ele>2238.8</ele>
        <time>2018-04-21T13:35:17.000Z</time>
      </trkpt>
      <trkpt lat="40.786848" lon="-3.977533">
        <ele>2238.8</ele>
        <time>2018-04-21T13:35:18.000Z</time>
      </trkpt>
      <trkpt lat="40.786845" lon="-3.977538">
        <ele>2238.8</ele>
        <time>2018-04-21T13:35:19.000Z</time>
      </trkpt>
      <trkpt lat="40.786841" lon="-3.977544">
        <ele>2238.9</ele>
        <time>2018-04-21T13:35:20.000Z</time>
      </trkpt>
      <trkpt lat="40.786837" lon="-3.977551">
        <ele>2238.9</ele>
        <time>2018-04-21T13:35:21.000Z</time>
      </trkpt>
      <trkpt lat="40.786832" lon="-3.977559">
        <ele>2238.9</ele>
        <time>2018-04-21T13:35:22.000Z</time>
      </trkpt>
      <trkpt lat="40.786826" lon="-3.977568">
        <ele>2239.0</ele>
        <time>2018-04-21T13:35:23.000Z</time>
      </trkpt>
      <trkpt lat="40.78682" lon="-3.977579">
        <ele>2239.0</ele>
        <time>2018-04-21T13:35:24.000Z</time>
      </trkpt>
      <trkpt lat="40.786814" lon="-3.97759">
        <ele>2239.1</ele>
        <time>2018-04-21T13:35:25.000Z</time>
      </trkpt>
      <trkpt lat="40.786807" lon="-3.977602">
        <ele>2239.2</ele>
        <time>2018-04-21T13:35:26.000Z</time>
      </trkpt>
      <trkpt lat="40.7868" lon="-3.977614">
        <ele>2239.2</ele>
        <time>2018-04-21T13:35:27.000Z</time>
      </trkpt>
      <trkpt lat="40.786793" lon="-3.977628">
        <ele>2239.3</ele>
        <time>2018-04-21T13:35:28.000Z</time>
      </trkpt>
      <trkpt lat="40.786786" lon="-3.977642">
        <ele>2239.4</ele>
        <time>2018-04-21T13:35:29.000Z</time>
      </trkpt>
      <trkpt lat="40.786779" lon="-3.977656">
        <ele>2239.5</ele>
        <time>2018-04-21T13:35:30.000Z</time>
      </trkpt>
      <trkpt lat="40.786773" lon="-3.97767">
        <ele>2239.6</ele>
        <time>2018-04-21T13:35:31.000Z</time>
      </trkpt>
      <trkpt lat="40.786767" lon="-3.977684">
        <ele>2239.7</ele>
        <time>2018-04-21T13:35:32.000Z</time>
      </trkpt>
      <trkpt lat="40.786762" lon="-3.977696">
        <ele>2239.8</ele>
        <time>2018-04-21T13:35:33.000Z</time>
      </trkpt>
      <trkpt lat="40.786758" lon="-3.977706">
        <ele>2239.9</ele>
        <time>2018-04-21T13:35:34.000Z</time>
      </trkpt>
      <trkpt lat="40.786755" lon="-3.977715">
        <ele>2240.0</ele>
        <time>2018-04-21T13:35:35.000Z</time>
      </trkpt>
      <trkpt lat="40.786752" lon="-3.977721">
        <ele>2240.0</ele>
        <time>2018-04-21T13:35:36.000Z</time>
      </trkpt>
      <trkpt lat="40.786751" lon="-3.977724">
        <ele>2240.1</ele>
        <time>2018-04-21T13:35:37.000Z</time>
      </trkpt>
      <trkpt lat="40.78675" lon="-3.977726">
        <ele>2240.1</ele>
        <time>2018-04-21T13:35:38.000Z</time>
      </trkpt>
      <trkpt lat="40.78675" lon="-3.977727">
        <ele>2240.1</ele>
        <time>2018-04-21T13:35:39.000Z</time>
      </trkpt>
      <trkpt lat="40.78675" lon="-3.977727">
        <ele>2240.1</ele>
        <time>2018-04-21T13:35:40.000Z</time>
      </trkpt>
      <trkpt lat="40.786751" lon="-3.977726">
        <ele>2240.1</ele>
        <time>2018-04-21T13:35:41.000Z</time>
      </trkpt>
      <trkpt lat="40.786752" lon="-3.977725">
        <ele>2240.1</ele>
        <time>2018-04-21T13:35:42.000Z</time>
      </trkpt>
      <trkpt lat="40.786753" lon="-3.977725">
        <ele>2240.1</ele>
        <time>2018-04-21T13:35:43.000Z</time>
      </trkpt>
      <trkpt lat="40.786753" lon="-3.977726">
        <ele>2240.1</ele>
        <time>2018-04-21T13:35:44.000Z</time>
      </trkpt>
      <trkpt lat="40.786753" lon="-3.977727">
        <ele>2240.1</ele>
        <time>2018-04-21T13:35:45.000Z</time>
      </trkpt>
      <trkpt lat="40.786754" lon="-3.977728">
        <ele>2240.1</ele>
        <time>2018-04-21T13:35:46.000Z</time>
      </trkpt>
      <trkpt lat="40.786753" lon="-3.977731">
        <ele>2240.2</ele>
        <time>2018-04-21T13:35:47.000Z</time>
      </trkpt>
      <trkpt lat="40.786752" lon="-3.977734">
        <ele>2240.2</ele>
        <time>2018-04-21T13:35:48.000Z</time>
      </trkpt>
      <trkpt lat="40.786751" lon="-3.977738">
        <ele>2240.2</ele>
        <time>2018-04-21T13:35:49.000Z</time>
      </trkpt>
      <trkpt lat="40.786749" lon="-3.977744">
        <ele>2240.3</ele>
        <time>2018-04-21T13:35:50.000Z</time>
      </trkpt>
      <trkpt lat="40.786747" lon="-3.97775">
        <ele>2240.3</ele>
        <time>2018-04-21T13:35:51.000Z</time>
      </trkpt>
      <trkpt lat="40.786744" lon="-3.977757">
        <ele>2240.4</ele>
        <time>2018-04-21T13:35:52.000Z</time>
      </trkpt>
      <trkpt lat="40.786741" lon="-3.977765">
        <ele>2240.5</ele>
        <time>2018-04-21T13:35:53.000Z</time>
      </trkpt>
      <trkpt lat="40.786738" lon="-3.977773">
        <ele>2240.5</ele>
        <time>2018-04-21T13:35:54.000Z</time>
      </trkpt>
      <trkpt lat="40.786734" lon="-3.977782">
        <ele>2240.6</ele>
        <time>2018-04-21T13:35:55.000Z</time>
      </trkpt>
      <trkpt lat="40.78673" lon="-3.977791">
        <ele>2240.7</ele>
        <time>2018-04-21T13:35:56.000Z</time>
      </trkpt>
      <trkpt lat="40.786726" lon="-3.977801">
        <ele>2240.8</ele>
        <time>2018-04-21T13:35:57.000Z</time>
      </trkpt>
      <trkpt lat="40.786722" lon="-3.97781">
        <ele>2240.9</ele>
        <time>2018-04-21T13:35:58.000Z</time>
      </trkpt>
      <trkpt lat="40.786718" lon="-3.97782">
        <ele>2241.0</ele>
        <time>2018-04-21T13:35:59.000Z</time>
      </trkpt>
      <trkpt lat="40.786714" lon="-3.977829">
        <ele>2241.1</ele>
        <time>2018-04-21T13:36:00.000Z</time>
      </trkpt>
      <trkpt lat="40.78671" lon="-3.977839">
        <ele>2241.2</ele>
        <time>2018-04-21T13:36:01.000Z</time>
      </trkpt>
      <trkpt lat="40.786706" lon="-3.977848">
        <ele>2241.3</ele>
        <time>2018-04-21T13:36:02.000Z</time>
      </trkpt>
      <trkpt lat="40.786703" lon="-3.977857">
        <ele>2241.4</ele>
        <time>2018-04-21T13:36:03.000Z</time>
      </trkpt>
      <trkpt lat="40.7867" lon="-3.977865">
        <ele>2241.4</ele>
        <time>2018-04-21T13:36:04.000Z</time>
      </trkpt>
      <trkpt lat="40.786697" lon="-3.977873">
        <ele>2241.5</ele>
        <time>2018-04-21T13:36:05.000Z</time>
      </trkpt>
      <trkpt lat="40.786695" lon="-3.97788">
        <ele>2241.6</ele>
        <time>2018-04-21T13:36:06.000Z</time>
      </trkpt>
      <trkpt lat="40.786693" lon="-3.977887">
        <ele>2241.7</ele>
        <time>2018-04-21T13:36:07.000Z</time>
      </trkpt>
      <trkpt lat="40.786691" lon="-3.977894">
        <ele>2241.8</ele>
        <time>2018-04-21T13:36:08.000Z</time>
      </trkpt>
      <trkpt lat="40.786689" lon="-3.977901">
        <ele>2241.8</ele>
        <time>2018-04-21T13:36:09.000Z</time>
      </trkpt>
      <trkpt lat="40.786687" lon="-3.977909">
        <ele>2241.9</ele>
        <time>2018-04-21T13:36:10.000Z</time>
      </trkpt>
      <trkpt lat="40.786684" lon="-3.977917">
        <ele>2242.0</ele>
        <time>2018-04-21T13:36:11.000Z</time>
      </trkpt>
      <trkpt lat="40.786681" lon="-3.977926">
        <ele>2242.1</ele>
        <time>2018-04-21T13:36:12.000Z</time>
      </trkpt>
      <trkpt lat="40.786678" lon="-3.977936">
        <ele>2242.2</ele>
        <time>2018-04-21T13:36:13.000Z</time>
      </trkpt>
      <trkpt lat="40.786674" lon="-3.977947">
        <ele>2242.4</ele>
        <time>2018-04-21T13:36:14.000Z</time>
      </trkpt>
      <trkpt lat="40.78667" lon="-3.977958">
        <ele>2242.5</ele>
        <time>2018-04-21T13:36:15.000Z</time>
      </trkpt>
      <trkpt lat="40.786665" lon="-3.97797">
        <ele>2242.6</ele>
        <time>2018-04-21T13:36:16.000Z</time>
      </trkpt>
      <trkpt lat="40.786661" lon="-3.977981">
        <ele>2242.8</ele>
        <time>2018-04-21T13:36:17.000Z</time>
      </trkpt>
      <trkpt lat="40.786656" lon="-3.977993">
        <ele>2242.9</ele>
        <time>2018-04-21T13:36:18.000Z</time>
      </trkpt>
      <trkpt lat="40.786652" lon="-3.978004">
        <ele>2243.0</ele>
        <time>2018-04-21T13:36:19.000Z</time>
      </trkpt>
      <trkpt lat="40.786648" lon="-3.978015">
        <ele>2243.2</ele>
        <time>2018-04-21T13:36:20.000Z</time>
      </trkpt>
      <trkpt lat="40.786644" lon="-3.978025">
        <ele>2243.3</ele>
        <time>2018-04-21T13:36:21.000Z</time>
      </trkpt>
      <trkpt lat="40.786641" lon="-3.978034">
        <ele>2243.4</ele>
        <time>2018-04-21T13:36:22.000Z</time>
      </trkpt>
      <trkpt lat="40.786637" lon="-3.978044">
        <ele>2243.5</ele>
        <time>2018-04-21T13:36:23.000Z</time>
      </trkpt>
      <trkpt lat="40.786634" lon="-3.978052">
        <ele>2243.6</ele>
        <time>2018-04-21T13:36:24.000Z</time>
      </trkpt>
      <trkpt lat="40.786631" lon="-3.978061">
        <ele>2243.7</ele>
        <time>2018-04-21T13:36:25.000Z</time>
      </trkpt>
      <trkpt lat="40.786628" lon="-3.978069">
        <ele>2243.8</ele>
        <time>2018-04-21T13:36:26.000Z</time>
      </trkpt>
      <trkpt lat="40.786625" lon="-3.978077">
        <ele>2243.9</ele>
        <time>2018-04-21T13:36:27.000Z</time>
      </trkpt>
      <trkpt lat="40.786622" lon="-3.978085">
        <ele>2244.0</ele>
        <time>2018-04-21T13:36:28.000Z</time>
      </trkpt>
      <trkpt lat="40.786618" lon="-3.978093">
        <ele>2244.1</ele>
        <time>2018-04-21T13:36:29.000Z</time>
      </trkpt>
      <trkpt lat="40.786615" lon="-3.9781">
        <ele>2244.2</ele>
        <time>2018-04-21T13:36:30.000Z</time>
      </trkpt>
      <trkpt lat="40.786612" lon="-3.978108">
        <ele>2244.3</ele>
        <time>2018-04-21T13:36:31.000Z</time>
      </trkpt>
      <trkpt lat="40.786608" lon="-3.978116">
        <ele>2244.4</ele>
        <time>2018-04-21T13:36:32.000Z</time>
      </trkpt>
      <trkpt lat="40.786604" lon="-3.978124">
        <ele>2244.5</ele>
        <time>2018-04-21T13:36:33.000Z</time>
      </trkpt>
      <trkpt lat="40.7866" lon="-3.978133">
        <ele>2244.6</ele>
        <time>2018-04-21T13:36:34.000Z</time>
      </trkpt>
      <trkpt lat="40.786595" lon="-3.978141">
        <ele>2244.7</ele>
        <time>2018-04-21T13:36:35.000Z</time>
      </trkpt>
      <trkpt lat="40.786591" lon="-3.978149">
        <ele>2244.8</ele>
        <time>2018-04-21T13:36:36.000Z</time>
      </trkpt>
      <trkpt lat="40.786588" lon="-3.978156">
        <ele>2244.9</ele>
        <time>2018-04-21T13:36:37.000Z</time>
      </trkpt>
      <trkpt lat="40.786586" lon="-3.97816">
        <ele>2244.9</ele>
        <time>2018-04-21T13:36:38.000Z</time>
      </trkpt>
      <trkpt lat="40.786587" lon="-3.978161">
        <ele>2244.9</ele>
        <time>2018-04-21T13:36:39.000Z</time>
      </trkpt>
      <trkpt lat="40.786588" lon="-3.978161">
        <ele>2244.9</ele>
        <time>2018-04-21T13:36:40.000Z</time>
      </trkpt>
      <trkpt lat="40.786589" lon="-3.978162">
        <ele>2244.9</ele>
        <time>2018-04-21T13:36:41.000Z</time>
      </trkpt>
      <trkpt lat="40.786588" lon="-3.978165">
        <ele>2245.0</ele>
        <time>2018-04-21T13:36:42.000Z</time>
      </trkpt>
      <trkpt lat="40.786586" lon="-3.978171">
        <ele>2245.1</ele>
        <time>2018-04-21T13:36:43.000Z</time>
      </trkpt>
      <trkpt lat="40.786582" lon="-3.978179">
        <ele>2245.2</ele>
        <time>2018-04-21T13:36:44.000Z</time>
      </trkpt>
      <trkpt lat="40.786576" lon="-3.978188">
        <ele>2245.3</ele>
        <time>2018-04-21T13:36:45.000Z</time>
      </trkpt>
      <trkpt lat="40.786568" lon="-3.978198">
        <ele>2245.4</ele>
        <time>2018-04-21T13:36:46.000Z</time>
      </trkpt>
      <trkpt lat="40.78656" lon="-3.978208">
        <ele>2245.5</ele>
        <time>2018-04-21T13:36:47.000Z</time>
      </trkpt>
      <trkpt lat="40.786551" lon="-3.978219">
        <ele>2245.7</ele>
        <time>2018-04-21T13:36:48.000Z</time>
      </trkpt>
      <trkpt lat="40.786543" lon="-3.978229">
        <ele>2245.8</ele>
        <time>2018-04-21T13:36:49.000Z</time>
      </trkpt>
      <trkpt lat="40.786536" lon="-3.978239">
        <ele>2245.9</ele>
        <time>2018-04-21T13:36:50.000Z</time>
      </trkpt>
      <trkpt lat="40.78653" lon="-3.978249">
        <ele>2246.1</ele>
        <time>2018-04-21T13:36:51.000Z</time>
      </trkpt>
      <trkpt lat="40.786525" lon="-3.978258">
        <ele>2246.2</ele>
        <time>2018-04-21T13:36:52.000Z</time>
      </trkpt>
      <trkpt lat="40.78652" lon="-3.978267">
        <ele>2246.3</ele>
        <time>2018-04-21T13:36:53.000Z</time>
      </trkpt>
      <trkpt lat="40.786515" lon="-3.978276">
        <ele>2246.4</ele>
        <time>2018-04-21T13:36:54.000Z</time>
      </trkpt>
      <trkpt lat="40.786512" lon="-3.978285">
        <ele>2246.6</ele>
        <time>2018-04-21T13:36:55.000Z</time>
      </trkpt>
      <trkpt lat="40.786508" lon="-3.978293">
        <ele>2246.7</ele>
        <time>2018-04-21T13:36:56.000Z</time>
      </trkpt>
      <trkpt lat="40.786505" lon="-3.978302">
        <ele>2246.8</ele>
        <time>2018-04-21T13:36:57.000Z</time>
      </trkpt>
      <trkpt lat="40.786503" lon="-3.978311">
        <ele>2246.9</ele>
        <time>2018-04-21T13:36:58.000Z</time>
      </trkpt>
      <trkpt lat="40.7865" lon="-3.978319">
        <ele>2247.0</ele>
        <time>2018-04-21T13:36:59.000Z</time>
      </trkpt>
      <trkpt lat="40.786498" lon="-3.978328">
        <ele>2247.1</ele>
        <time>2018-04-21T13:37:00.000Z</time>
      </trkpt>
      <trkpt lat="40.786495" lon="-3.978337">
        <ele>2247.2</ele>
        <time>2018-04-21T13:37:01.000Z</time>
      </trkpt>
      <trkpt lat="40.786493" lon="-3.978346">
        <ele>2247.2</ele>
        <time>2018-04-21T13:37:02.000Z</time>
      </trkpt>
      <trkpt lat="40.786491" lon="-3.978356">
        <ele>2247.1</ele>
        <time>2018-04-21T13:37:03.000Z</time>
      </trkpt>
      <trkpt lat="40.786488" lon="-3.978365">
        <ele>2247.1</ele>
        <time>2018-04-21T13:37:04.000Z</time>
      </trkpt>
      <trkpt lat="40.786486" lon="-3.978375">
        <ele>2247.1</ele>
        <time>2018-04-21T13:37:05.000Z</time>
      </trkpt>
      <trkpt lat="40.786483" lon="-3.978386">
        <ele>2247.0</ele>
        <time>2018-04-21T13:37:06.000Z</time>
      </trkpt>
      <trkpt lat="40.78648" lon="-3.978396">
        <ele>2247.0</ele>
        <time>2018-04-21T13:37:07.000Z</time>
      </trkpt>
      <trkpt lat="40.786477" lon="-3.978407">
        <ele>2247.0</ele>
        <time>2018-04-21T13:37:08.000Z</time>
      </trkpt>
      <trkpt lat="40.786474" lon="-3.978418">
        <ele>2246.9</ele>
        <time>2018-04-21T13:37:09.000Z</time>
      </trkpt>
      <trkpt lat="40.786471" lon="-3.978429">
        <ele>2246.9</ele>
        <time>2018-04-21T13:37:10.000Z</time>
      </trkpt>
      <trkpt lat="40.786468" lon="-3.978439">
        <ele>2246.9</ele>
        <time>2018-04-21T13:37:11.000Z</time>
      </trkpt>
      <trkpt lat="40.786464" lon="-3.97845">
        <ele>2246.8</ele>
        <time>2018-04-21T13:37:12.000Z</time>
      </trkpt>
      <trkpt lat="40.786461" lon="-3.978461">
        <ele>2246.8</ele>
        <time>2018-04-21T13:37:13.000Z</time>
      </trkpt>
      <trkpt lat="40.786457" lon="-3.978472">
        <ele>2246.8</ele>
        <time>2018-04-21T13:37:14.000Z</time>
      </trkpt>
      <trkpt lat="40.786454" lon="-3.978483">
        <ele>2246.8</ele>
        <time>2018-04-21T13:37:15.000Z</time>
      </trkpt>
      <trkpt lat="40.78645" lon="-3.978494">
        <ele>2246.8</ele>
        <time>2018-04-21T13:37:16.000Z</time>
      </trkpt>
      <trkpt lat="40.786446" lon="-3.978505">
        <ele>2246.7</ele>
        <time>2018-04-21T13:37:17.000Z</time>
      </trkpt>
      <trkpt lat="40.786442" lon="-3.978516">
        <ele>2246.7</ele>
        <time>2018-04-21T13:37:18.000Z</time>
      </trkpt>
      <trkpt lat="40.786439" lon="-3.978526">
        <ele>2246.7</ele>
        <time>2018-04-21T13:37:19.000Z</time>
      </trkpt>
      <trkpt lat="40.786435" lon="-3.978536">
        <ele>2246.7</ele>
        <time>2018-04-21T13:37:20.000Z</time>
      </trkpt>
      <trkpt lat="40.786431" lon="-3.978546">
        <ele>2246.7</ele>
        <time>2018-04-21T13:37:21.000Z</time>
      </trkpt>
      <trkpt lat="40.786427" lon="-3.978556">
        <ele>2246.7</ele>
        <time>2018-04-21T13:37:22.000Z</time>
      </trkpt>
      <trkpt lat="40.786423" lon="-3.978566">
        <ele>2246.7</ele>
        <time>2018-04-21T13:37:23.000Z</time>
      </trkpt>
      <trkpt lat="40.786418" lon="-3.978575">
        <ele>2246.7</ele>
        <time>2018-04-21T13:37:24.000Z</time>
      </trkpt>
      <trkpt lat="40.786414" lon="-3.978585">
        <ele>2246.7</ele>
        <time>2018-04-21T13:37:25.000Z</time>
      </trkpt>
      <trkpt lat="40.78641" lon="-3.978594">
        <ele>2246.7</ele>
        <time>2018-04-21T13:37:26.000Z</time>
      </trkpt>
      <trkpt lat="40.786406" lon="-3.978603">
        <ele>2246.7</ele>
        <time>2018-04-21T13:37:27.000Z</time>
      </trkpt>
      <trkpt lat="40.786401" lon="-3.978613">
        <ele>2246.7</ele>
        <time>2018-04-21T13:37:28.000Z</time>
      </trkpt>
      <trkpt lat="40.786397" lon="-3.978622">
        <ele>2246.7</ele>
        <time>2018-04-21T13:37:29.000Z</time>
      </trkpt>
      <trkpt lat="40.786392" lon="-3.978631">
        <ele>2246.7</ele>
        <time>2018-04-21T13:37:30.000Z</time>
      </trkpt>
      <trkpt lat="40.786387" lon="-3.97864">
        <ele>2246.7</ele>
        <time>2018-04-21T13:37:31.000Z</time>
      </trkpt>
      <trkpt lat="40.786383" lon="-3.978649">
        <ele>2246.7</ele>
        <time>2018-04-21T13:37:32.000Z</time>
      </trkpt>
      <trkpt lat="40.786378" lon="-3.978658">
        <ele>2246.8</ele>
        <time>2018-04-21T13:37:33.000Z</time>
      </trkpt>
      <trkpt lat="40.786373" lon="-3.978667">
        <ele>2246.8</ele>
        <time>2018-04-21T13:37:34.000Z</time>
      </trkpt>
      <trkpt lat="40.786368" lon="-3.978676">
        <ele>2246.8</ele>
        <time>2018-04-21T13:37:35.000Z</time>
      </trkpt>
      <trkpt lat="40.786363" lon="-3.978685">
        <ele>2246.8</ele>
        <time>2018-04-21T13:37:36.000Z</time>
      </trkpt>
      <trkpt lat="40.786358" lon="-3.978694">
        <ele>2246.9</ele>
        <time>2018-04-21T13:37:37.000Z</time>
      </trkpt>
      <trkpt lat="40.786353" lon="-3.978703">
        <ele>2246.9</ele>
        <time>2018-04-21T13:37:38.000Z</time>
      </trkpt>
      <trkpt lat="40.786348" lon="-3.978712">
        <ele>2246.9</ele>
        <time>2018-04-21T13:37:39.000Z</time>
      </trkpt>
      <trkpt lat="40.786343" lon="-3.978721">
        <ele>2246.9</ele>
        <time>2018-04-21T13:37:40.000Z</time>
      </trkpt>
      <trkpt lat="40.786338" lon="-3.97873">
        <ele>2247.0</ele>
        <time>2018-04-21T13:37:41.000Z</time>
      </trkpt>
      <trkpt lat="40.786333" lon="-3.978739">
        <ele>2247.0</ele>
        <time>2018-04-21T13:37:42.000Z</time>
      </trkpt>
      <trkpt lat="40.786328" lon="-3.978748">
        <ele>2247.0</ele>
        <time>2018-04-21T13:37:43.000Z</time>
      </trkpt>
      <trkpt lat="40.786323" lon="-3.978757">
        <ele>2247.1</ele>
        <time>2018-04-21T13:37:44.000Z</time>
      </trkpt>
      <trkpt lat="40.786318" lon="-3.978767">
        <ele>2247.1</ele>
        <time>2018-04-21T13:37:45.000Z</time>
      </trkpt>
      <trkpt lat="40.786314" lon="-3.978776">
        <ele>2247.2</ele>
        <time>2018-04-21T13:37:46.000Z</time>
      </trkpt>
      <trkpt lat="40.78631" lon="-3.978786">
        <ele>2247.2</ele>
        <time>2018-04-21T13:37:47.000Z</time>
      </trkpt>
      <trkpt lat="40.786305" lon="-3.978795">
        <ele>2247.2</ele>
        <time>2018-04-21T13:37:48.000Z</time>
      </trkpt>
      <trkpt lat="40.786301" lon="-3.978805">
        <ele>2247.3</ele>
        <time>2018-04-21T13:37:49.000Z</time>
      </trkpt>
      <trkpt lat="40.786297" lon="-3.978815">
        <ele>2247.3</ele>
        <time>2018-04-21T13:37:50.000Z</time>
      </trkpt>
      <trkpt lat="40.786294" lon="-3.978824">
        <ele>2247.3</ele>
        <time>2018-04-21T13:37:51.000Z</time>
      </trkpt>
      <trkpt lat="40.78629" lon="-3.978834">
        <ele>2247.4</ele>
        <time>2018-04-21T13:37:52.000Z</time>
      </trkpt>
      <trkpt lat="40.786286" lon="-3.978844">
        <ele>2247.4</ele>
        <time>2018-04-21T13:37:53.000Z</time>
      </trkpt>
      <trkpt lat="40.786283" lon="-3.978854">
        <ele>2247.5</ele>
        <time>2018-04-21T13:37:54.000Z</time>
      </trkpt>
      <trkpt lat="40.78628" lon="-3.978864">
        <ele>2247.5</ele>
        <time>2018-04-21T13:37:55.000Z</time>
      </trkpt>
      <trkpt lat="40.786276" lon="-3.978874">
        <ele>2247.5</ele>
        <time>2018-04-21T13:37:56.000Z</time>
      </trkpt>
      <trkpt lat="40.786273" lon="-3.978884">
        <ele>2247.6</ele>
        <time>2018-04-21T13:37:57.000Z</time>
      </trkpt>
      <trkpt lat="40.78627" lon="-3.978894">
        <ele>2247.6</ele>
        <time>2018-04-21T13:37:58.000Z</time>
      </trkpt>
      <trkpt lat="40.786267" lon="-3.978904">
        <ele>2247.6</ele>
        <time>2018-04-21T13:37:59.000Z</time>
      </trkpt>
      <trkpt lat="40.786264" lon="-3.978914">
        <ele>2247.7</ele>
        <time>2018-04-21T13:38:00.000Z</time>
      </trkpt>
      <trkpt lat="40.786261" lon="-3.978924">
        <ele>2247.7</ele>
        <time>2018-04-21T13:38:01.000Z</time>
      </trkpt>
      <trkpt lat="40.786258" lon="-3.978934">
        <ele>2247.8</ele>
        <time>2018-04-21T13:38:02.000Z</time>
      </trkpt>
      <trkpt lat="40.786255" lon="-3.978944">
        <ele>2247.8</ele>
        <time>2018-04-21T13:38:03.000Z</time>
      </trkpt>
      <trkpt lat="40.786252" lon="-3.978954">
        <ele>2247.8</ele>
        <time>2018-04-21T13:38:04.000Z</time>
      </trkpt>
      <trkpt lat="40.786248" lon="-3.978964">
        <ele>2247.9</ele>
        <time>2018-04-21T13:38:05.000Z</time>
      </trkpt>
      <trkpt lat="40.786245" lon="-3.978974">
        <ele>2248.0</ele>
        <time>2018-04-21T13:38:06.000Z</time>
      </trkpt>
      <trkpt lat="40.786242" lon="-3.978984">
        <ele>2248.0</ele>
        <time>2018-04-21T13:38:07.000Z</time>
      </trkpt>
      <trkpt lat="40.786239" lon="-3.978993">
        <ele>2248.0</ele>
        <time>2018-04-21T13:38:08.000Z</time>
      </trkpt>
      <trkpt lat="40.786236" lon="-3.979003">
        <ele>2248.1</ele>
        <time>2018-04-21T13:38:09.000Z</time>
      </trkpt>
      <trkpt lat="40.786233" lon="-3.979012">
        <ele>2248.1</ele>
        <time>2018-04-21T13:38:10.000Z</time>
      </trkpt>
      <trkpt lat="40.786229" lon="-3.979022">
        <ele>2248.2</ele>
        <time>2018-04-21T13:38:11.000Z</time>
      </trkpt>
      <trkpt lat="40.786226" lon="-3.979031">
        <ele>2248.3</ele>
        <time>2018-04-21T13:38:12.000Z</time>
      </trkpt>
      <trkpt lat="40.786222" lon="-3.97904">
        <ele>2248.3</ele>
        <time>2018-04-21T13:38:13.000Z</time>
      </trkpt>
      <trkpt lat="40.786218" lon="-3.979049">
        <ele>2248.4</ele>
        <time>2018-04-21T13:38:14.000Z</time>
      </trkpt>
      <trkpt lat="40.786214" lon="-3.979058">
        <ele>2248.5</ele>
        <time>2018-04-21T13:38:15.000Z</time>
      </trkpt>
      <trkpt lat="40.78621" lon="-3.979067">
        <ele>2248.5</ele>
        <time>2018-04-21T13:38:16.000Z</time>
      </trkpt>
      <trkpt lat="40.786206" lon="-3.979076">
        <ele>2248.6</ele>
        <time>2018-04-21T13:38:17.000Z</time>
      </trkpt>
      <trkpt lat="40.786202" lon="-3.979084">
        <ele>2248.7</ele>
        <time>2018-04-21T13:38:18.000Z</time>
      </trkpt>
      <trkpt lat="40.786198" lon="-3.979092">
        <ele>2248.8</ele>
        <time>2018-04-21T13:38:19.000Z</time>
      </trkpt>
      <trkpt lat="40.786193" lon="-3.9791">
        <ele>2248.8</ele>
        <time>2018-04-21T13:38:20.000Z</time>
      </trkpt>
      <trkpt lat="40.786188" lon="-3.979108">
        <ele>2248.9</ele>
        <time>2018-04-21T13:38:21.000Z</time>
      </trkpt>
      <trkpt lat="40.786183" lon="-3.979116">
        <ele>2249.0</ele>
        <time>2018-04-21T13:38:22.000Z</time>
      </trkpt>
      <trkpt lat="40.786177" lon="-3.979123">
        <ele>2249.1</ele>
        <time>2018-04-21T13:38:23.000Z</time>
      </trkpt>
      <trkpt lat="40.786171" lon="-3.979131">
        <ele>2249.3</ele>
        <time>2018-04-21T13:38:24.000Z</time>
      </trkpt>
      <trkpt lat="40.786165" lon="-3.979138">
        <ele>2249.4</ele>
        <time>2018-04-21T13:38:25.000Z</time>
      </trkpt>
      <trkpt lat="40.786158" lon="-3.979145">
        <ele>2249.5</ele>
        <time>2018-04-21T13:38:26.000Z</time>
      </trkpt>
      <trkpt lat="40.786151" lon="-3.979151">
        <ele>2249.6</ele>
        <time>2018-04-21T13:38:27.000Z</time>
      </trkpt>
      <trkpt lat="40.786145" lon="-3.979157">
        <ele>2249.7</ele>
        <time>2018-04-21T13:38:28.000Z</time>
      </trkpt>
      <trkpt lat="40.786138" lon="-3.979163">
        <ele>2249.9</ele>
        <time>2018-04-21T13:38:29.000Z</time>
      </trkpt>
      <trkpt lat="40.786132" lon="-3.979168">
        <ele>2250.0</ele>
        <time>2018-04-21T13:38:30.000Z</time>
      </trkpt>
      <trkpt lat="40.786127" lon="-3.979172">
        <ele>2250.0</ele>
        <time>2018-04-21T13:38:31.000Z</time>
      </trkpt>
      <trkpt lat="40.786122" lon="-3.979175">
        <ele>2250.1</ele>
        <time>2018-04-21T13:38:32.000Z</time>
      </trkpt>
      <trkpt lat="40.786119" lon="-3.979178">
        <ele>2250.1</ele>
        <time>2018-04-21T13:38:33.000Z</time>
      </trkpt>
      <trkpt lat="40.786116" lon="-3.97918">
        <ele>2250.1</ele>
        <time>2018-04-21T13:38:34.000Z</time>
      </trkpt>
      <trkpt lat="40.786115" lon="-3.979181">
        <ele>2250.1</ele>
        <time>2018-04-21T13:38:35.000Z</time>
      </trkpt>
      <trkpt lat="40.786114" lon="-3.979182">
        <ele>2250.1</ele>
        <time>2018-04-21T13:38:36.000Z</time>
      </trkpt>
      <trkpt lat="40.786114" lon="-3.979182">
        <ele>2250.1</ele>
        <time>2018-04-21T13:38:37.000Z</time>
      </trkpt>
      <trkpt lat="40.786115" lon="-3.979182">
        <ele>2250.1</ele>
        <time>2018-04-21T13:38:38.000Z</time>
      </trkpt>
      <trkpt lat="40.786116" lon="-3.979181">
        <ele>2250.1</ele>
        <time>2018-04-21T13:38:39.000Z</time>
      </trkpt>
      <trkpt lat="40.786117" lon="-3.97918">
        <ele>2250.1</ele>
        <time>2018-04-21T13:38:40.000Z</time>
      </trkpt>
      <trkpt lat="40.786119" lon="-3.979179">
        <ele>2250.1</ele>
        <time>2018-04-21T13:38:41.000Z</time>
      </trkpt>
      <trkpt lat="40.78612" lon="-3.979178">
        <ele>2250.1</ele>
        <time>2018-04-21T13:38:42.000Z</time>
      </trkpt>
      <trkpt lat="40.786122" lon="-3.979177">
        <ele>2250.0</ele>
        <time>2018-04-21T13:38:43.000Z</time>
      </trkpt>
      <trkpt lat="40.786123" lon="-3.979176">
        <ele>2250.0</ele>
        <time>2018-04-21T13:38:44.000Z</time>
      </trkpt>
      <trkpt lat="40.786124" lon="-3.979176">
        <ele>2250.0</ele>
        <time>2018-04-21T13:38:45.000Z</time>
      </trkpt>
      <trkpt lat="40.786124" lon="-3.979175">
        <ele>2250.0</ele>
        <time>2018-04-21T13:38:46.000Z</time>
      </trkpt>
      <trkpt lat="40.786124" lon="-3.979175">
        <ele>2250.0</ele>
        <time>2018-04-21T13:38:47.000Z</time>
      </trkpt>
      <trkpt lat="40.786124" lon="-3.979176">
        <ele>2250.0</ele>
        <time>2018-04-21T13:38:48.000Z</time>
      </trkpt>
      <trkpt lat="40.786122" lon="-3.979177">
        <ele>2250.0</ele>
        <time>2018-04-21T13:38:49.000Z</time>
      </trkpt>
      <trkpt lat="40.786121" lon="-3.979178">
        <ele>2250.0</ele>
        <time>2018-04-21T13:38:50.000Z</time>
      </trkpt>
      <trkpt lat="40.786118" lon="-3.979181">
        <ele>2250.1</ele>
        <time>2018-04-21T13:38:51.000Z</time>
      </trkpt>
      <trkpt lat="40.786115" lon="-3.979184">
        <ele>2250.1</ele>
        <time>2018-04-21T13:38:52.000Z</time>
      </trkpt>
      <trkpt lat="40.786111" lon="-3.979189">
        <ele>2250.1</ele>
        <time>2018-04-21T13:38:53.000Z</time>
      </trkpt>
      <trkpt lat="40.786108" lon="-3.979196">
        <ele>2250.1</ele>
        <time>2018-04-21T13:38:54.000Z</time>
      </trkpt>
      <trkpt lat="40.786104" lon="-3.979204">
        <ele>2250.0</ele>
        <time>2018-04-21T13:38:55.000Z</time>
      </trkpt>
      <trkpt lat="40.786101" lon="-3.979213">
        <ele>2250.0</ele>
        <time>2018-04-21T13:38:56.000Z</time>
      </trkpt>
      <trkpt lat="40.786097" lon="-3.979224">
        <ele>2250.0</ele>
        <time>2018-04-21T13:38:57.000Z</time>
      </trkpt>
      <trkpt lat="40.786093" lon="-3.979235">
        <ele>2249.9</ele>
        <time>2018-04-21T13:38:58.000Z</time>
      </trkpt>
      <trkpt lat="40.78609" lon="-3.979247">
        <ele>2249.8</ele>
        <time>2018-04-21T13:38:59.000Z</time>
      </trkpt>
      <trkpt lat="40.786086" lon="-3.979259">
        <ele>2249.8</ele>
        <time>2018-04-21T13:39:00.000Z</time>
      </trkpt>
      <trkpt lat="40.786082" lon="-3.979271">
        <ele>2249.7</ele>
        <time>2018-04-21T13:39:01.000Z</time>
      </trkpt>
      <trkpt lat="40.786078" lon="-3.979282">
        <ele>2249.6</ele>
        <time>2018-04-21T13:39:02.000Z</time>
      </trkpt>
      <trkpt lat="40.786073" lon="-3.979293">
        <ele>2249.6</ele>
        <time>2018-04-21T13:39:03.000Z</time>
      </trkpt>
      <trkpt lat="40.786069" lon="-3.979303">
        <ele>2249.6</ele>
        <time>2018-04-21T13:39:04.000Z</time>
      </trkpt>
      <trkpt lat="40.786064" lon="-3.979313">
        <ele>2249.5</ele>
        <time>2018-04-21T13:39:05.000Z</time>
      </trkpt>
      <trkpt lat="40.78606" lon="-3.979322">
        <ele>2249.5</ele>
        <time>2018-04-21T13:39:06.000Z</time>
      </trkpt>
      <trkpt lat="40.786055" lon="-3.979331">
        <ele>2249.5</ele>
        <time>2018-04-21T13:39:07.000Z</time>
      </trkpt>
      <trkpt lat="40.786051" lon="-3.97934">
        <ele>2249.5</ele>
        <time>2018-04-21T13:39:08.000Z</time>
      </trkpt>
      <trkpt lat="40.786046" lon="-3.979349">
        <ele>2249.5</ele>
        <time>2018-04-21T13:39:09.000Z</time>
      </trkpt>
      <trkpt lat="40.786041" lon="-3.979357">
        <ele>2249.5</ele>
        <time>2018-04-21T13:39:10.000Z</time>
      </trkpt>
      <trkpt lat="40.786037" lon="-3.979366">
        <ele>2249.4</ele>
        <time>2018-04-21T13:39:11.000Z</time>
      </trkpt>
      <trkpt lat="40.786032" lon="-3.979374">
        <ele>2249.4</ele>
        <time>2018-04-21T13:39:12.000Z</time>
      </trkpt>
      <trkpt lat="40.786028" lon="-3.979382">
        <ele>2249.4</ele>
        <time>2018-04-21T13:39:13.000Z</time>
      </trkpt>
      <trkpt lat="40.786023" lon="-3.97939">
        <ele>2249.4</ele>
        <time>2018-04-21T13:39:14.000Z</time>
      </trkpt>
      <trkpt lat="40.786019" lon="-3.979399">
        <ele>2249.4</ele>
        <time>2018-04-21T13:39:15.000Z</time>
      </trkpt>
      <trkpt lat="40.786015" lon="-3.979407">
        <ele>2249.4</ele>
        <time>2018-04-21T13:39:16.000Z</time>
      </trkpt>
      <trkpt lat="40.786011" lon="-3.979416">
        <ele>2249.3</ele>
        <time>2018-04-21T13:39:17.000Z</time>
      </trkpt>
      <trkpt lat="40.786007" lon="-3.979425">
        <ele>2249.3</ele>
        <time>2018-04-21T13:39:18.000Z</time>
      </trkpt>
      <trkpt lat="40.786003" lon="-3.979433">
        <ele>2249.3</ele>
        <time>2018-04-21T13:39:19.000Z</time>
      </trkpt>
      <trkpt lat="40.785999" lon="-3.979442">
        <ele>2249.2</ele>
        <time>2018-04-21T13:39:20.000Z</time>
      </trkpt>
      <trkpt lat="40.785995" lon="-3.979451">
        <ele>2249.2</ele>
        <time>2018-04-21T13:39:21.000Z</time>
      </trkpt>
      <trkpt lat="40.78599" lon="-3.979461">
        <ele>2249.2</ele>
        <time>2018-04-21T13:39:22.000Z</time>
      </trkpt>
      <trkpt lat="40.785986" lon="-3.97947">
        <ele>2249.2</ele>
        <time>2018-04-21T13:39:23.000Z</time>
      </trkpt>
      <trkpt lat="40.785982" lon="-3.979479">
        <ele>2249.1</ele>
        <time>2018-04-21T13:39:24.000Z</time>
      </trkpt>
      <trkpt lat="40.785978" lon="-3.979489">
        <ele>2249.1</ele>
        <time>2018-04-21T13:39:25.000Z</time>
      </trkpt>
      <trkpt lat="40.785973" lon="-3.979498">
        <ele>2249.1</ele>
        <time>2018-04-21T13:39:26.000Z</time>
      </trkpt>
      <trkpt lat="40.785969" lon="-3.979508">
        <ele>2249.0</ele>
        <time>2018-04-21T13:39:27.000Z</time>
      </trkpt>
      <trkpt lat="40.785964" lon="-3.979517">
        <ele>2249.0</ele>
        <time>2018-04-21T13:39:28.000Z</time>
      </trkpt>
      <trkpt lat="40.785959" lon="-3.979527">
        <ele>2249.0</ele>
        <time>2018-04-21T13:39:29.000Z</time>
      </trkpt>
      <trkpt lat="40.785953" lon="-3.979536">
        <ele>2249.0</ele>
        <time>2018-04-21T13:39:30.000Z</time>
      </trkpt>
      <trkpt lat="40.785948" lon="-3.979546">
        <ele>2249.0</ele>
        <time>2018-04-21T13:39:31.000Z</time>
      </trkpt>
      <trkpt lat="40.785942" lon="-3.979556">
        <ele>2249.0</ele>
        <time>2018-04-21T13:39:32.000Z</time>
      </trkpt>
      <trkpt lat="40.785936" lon="-3.979566">
        <ele>2249.0</ele>
        <time>2018-04-21T13:39:33.000Z</time>
      </trkpt>
      <trkpt lat="40.78593" lon="-3.979576">
        <ele>2249.0</ele>
        <time>2018-04-21T13:39:34.000Z</time>
      </trkpt>
      <trkpt lat="40.785923" lon="-3.979585">
        <ele>2249.0</ele>
        <time>2018-04-21T13:39:35.000Z</time>
      </trkpt>
      <trkpt lat="40.785917" lon="-3.979595">
        <ele>2249.0</ele>
        <time>2018-04-21T13:39:36.000Z</time>
      </trkpt>
      <trkpt lat="40.785911" lon="-3.979605">
        <ele>2249.0</ele>
        <time>2018-04-21T13:39:37.000Z</time>
      </trkpt>
      <trkpt lat="40.785904" lon="-3.979615">
        <ele>2249.0</ele>
        <time>2018-04-21T13:39:38.000Z</time>
      </trkpt>
      <trkpt lat="40.785898" lon="-3.979625">
        <ele>2249.0</ele>
        <time>2018-04-21T13:39:39.000Z</time>
      </trkpt>
      <trkpt lat="40.785892" lon="-3.979634">
        <ele>2249.0</ele>
        <time>2018-04-21T13:39:40.000Z</time>
      </trkpt>
      <trkpt lat="40.785886" lon="-3.979644">
        <ele>2249.0</ele>
        <time>2018-04-21T13:39:41.000Z</time>
      </trkpt>
      <trkpt lat="40.78588" lon="-3.979654">
        <ele>2249.0</ele>
        <time>2018-04-21T13:39:42.000Z</time>
      </trkpt>
      <trkpt lat="40.785874" lon="-3.979663">
        <ele>2249.0</ele>
        <time>2018-04-21T13:39:43.000Z</time>
      </trkpt>
      <trkpt lat="40.785869" lon="-3.979673">
        <ele>2248.9</ele>
        <time>2018-04-21T13:39:44.000Z</time>
      </trkpt>
      <trkpt lat="40.785864" lon="-3.979682">
        <ele>2248.9</ele>
        <time>2018-04-21T13:39:45.000Z</time>
      </trkpt>
      <trkpt lat="40.785859" lon="-3.979692">
        <ele>2248.9</ele>
        <time>2018-04-21T13:39:46.000Z</time>
      </trkpt>
      <trkpt lat="40.785854" lon="-3.979701">
        <ele>2248.9</ele>
        <time>2018-04-21T13:39:47.000Z</time>
      </trkpt>
      <trkpt lat="40.785849" lon="-3.979711">
        <ele>2248.9</ele>
        <time>2018-04-21T13:39:48.000Z</time>
      </trkpt>
      <trkpt lat="40.785845" lon="-3.97972">
        <ele>2248.8</ele>
        <time>2018-04-21T13:39:49.000Z</time>
      </trkpt>
      <trkpt lat="40.78584" lon="-3.979729">
        <ele>2248.8</ele>
        <time>2018-04-21T13:39:50.000Z</time>
      </trkpt>
      <trkpt lat="40.785836" lon="-3.979739">
        <ele>2248.8</ele>
        <time>2018-04-21T13:39:51.000Z</time>
      </trkpt>
      <trkpt lat="40.785831" lon="-3.979748">
        <ele>2248.8</ele>
        <time>2018-04-21T13:39:52.000Z</time>
      </trkpt>
      <trkpt lat="40.785826" lon="-3.979757">
        <ele>2248.7</ele>
        <time>2018-04-21T13:39:53.000Z</time>
      </trkpt>
      <trkpt lat="40.785821" lon="-3.979767">
        <ele>2248.7</ele>
        <time>2018-04-21T13:39:54.000Z</time>
      </trkpt>
      <trkpt lat="40.785816" lon="-3.979776">
        <ele>2248.7</ele>
        <time>2018-04-21T13:39:55.000Z</time>
      </trkpt>
      <trkpt lat="40.785811" lon="-3.979786">
        <ele>2248.6</ele>
        <time>2018-04-21T13:39:56.000Z</time>
      </trkpt>
      <trkpt lat="40.785806" lon="-3.979795">
        <ele>2248.6</ele>
        <time>2018-04-21T13:39:57.000Z</time>
      </trkpt>
      <trkpt lat="40.785802" lon="-3.979805">
        <ele>2248.5</ele>
        <time>2018-04-21T13:39:58.000Z</time>
      </trkpt>
      <trkpt lat="40.785798" lon="-3.979814">
        <ele>2248.5</ele>
        <time>2018-04-21T13:39:59.000Z</time>
      </trkpt>
      <trkpt lat="40.785794" lon="-3.979824">
        <ele>2248.4</ele>
        <time>2018-04-21T13:40:00.000Z</time>
      </trkpt>
      <trkpt lat="40.785791" lon="-3.979834">
        <ele>2248.4</ele>
        <time>2018-04-21T13:40:01.000Z</time>
      </trkpt>
      <trkpt lat="40.785789" lon="-3.979843">
        <ele>2248.3</ele>
        <time>2018-04-21T13:40:02.000Z</time>
      </trkpt>
      <trkpt lat="40.785787" lon="-3.979853">
        <ele>2248.2</ele>
        <time>2018-04-21T13:40:03.000Z</time>
      </trkpt>
      <trkpt lat="40.785785" lon="-3.979863">
        <ele>2248.1</ele>
        <time>2018-04-21T13:40:04.000Z</time>
      </trkpt>
      <trkpt lat="40.785784" lon="-3.979873">
        <ele>2248.0</ele>
        <time>2018-04-21T13:40:05.000Z</time>
      </trkpt>
      <trkpt lat="40.785783" lon="-3.979883">
        <ele>2247.9</ele>
        <time>2018-04-21T13:40:06.000Z</time>
      </trkpt>
      <trkpt lat="40.785782" lon="-3.979893">
        <ele>2247.8</ele>
        <time>2018-04-21T13:40:07.000Z</time>
      </trkpt>
      <trkpt lat="40.785781" lon="-3.979903">
        <ele>2247.7</ele>
        <time>2018-04-21T13:40:08.000Z</time>
      </trkpt>
      <trkpt lat="40.78578" lon="-3.979914">
        <ele>2247.6</ele>
        <time>2018-04-21T13:40:09.000Z</time>
      </trkpt>
      <trkpt lat="40.785779" lon="-3.979924">
        <ele>2247.5</ele>
        <time>2018-04-21T13:40:10.000Z</time>
      </trkpt>
      <trkpt lat="40.785779" lon="-3.979935">
        <ele>2247.4</ele>
        <time>2018-04-21T13:40:11.000Z</time>
      </trkpt>
      <trkpt lat="40.785778" lon="-3.979946">
        <ele>2247.3</ele>
        <time>2018-04-21T13:40:12.000Z</time>
      </trkpt>
      <trkpt lat="40.785777" lon="-3.979957">
        <ele>2247.2</ele>
        <time>2018-04-21T13:40:13.000Z</time>
      </trkpt>
      <trkpt lat="40.785776" lon="-3.979968">
        <ele>2247.1</ele>
        <time>2018-04-21T13:40:14.000Z</time>
      </trkpt>
      <trkpt lat="40.785774" lon="-3.97998">
        <ele>2247.0</ele>
        <time>2018-04-21T13:40:15.000Z</time>
      </trkpt>
      <trkpt lat="40.785773" lon="-3.979992">
        <ele>2246.9</ele>
        <time>2018-04-21T13:40:16.000Z</time>
      </trkpt>
      <trkpt lat="40.785771" lon="-3.980003">
        <ele>2246.8</ele>
        <time>2018-04-21T13:40:17.000Z</time>
      </trkpt>
      <trkpt lat="40.785769" lon="-3.980015">
        <ele>2246.7</ele>
        <time>2018-04-21T13:40:18.000Z</time>
      </trkpt>
      <trkpt lat="40.785767" lon="-3.980027">
        <ele>2246.5</ele>
        <time>2018-04-21T13:40:19.000Z</time>
      </trkpt>
      <trkpt lat="40.785765" lon="-3.98004">
        <ele>2246.4</ele>
        <time>2018-04-21T13:40:20.000Z</time>
      </trkpt>
      <trkpt lat="40.785763" lon="-3.980052">
        <ele>2246.2</ele>
        <time>2018-04-21T13:40:21.000Z</time>
      </trkpt>
      <trkpt lat="40.78576" lon="-3.980064">
        <ele>2246.1</ele>
        <time>2018-04-21T13:40:22.000Z</time>
      </trkpt>
      <trkpt lat="40.785758" lon="-3.980076">
        <ele>2246.0</ele>
        <time>2018-04-21T13:40:23.000Z</time>
      </trkpt>
      <trkpt lat="40.785755" lon="-3.980088">
        <ele>2245.9</ele>
        <time>2018-04-21T13:40:24.000Z</time>
      </trkpt>
      <trkpt lat="40.785753" lon="-3.9801">
        <ele>2245.8</ele>
        <time>2018-04-21T13:40:25.000Z</time>
      </trkpt>
      <trkpt lat="40.78575" lon="-3.980112">
        <ele>2245.6</ele>
        <time>2018-04-21T13:40:26.000Z</time>
      </trkpt>
      <trkpt lat="40.785748" lon="-3.980124">
        <ele>2245.5</ele>
        <time>2018-04-21T13:40:27.000Z</time>
      </trkpt>
      <trkpt lat="40.785745" lon="-3.980136">
        <ele>2245.4</ele>
        <time>2018-04-21T13:40:28.000Z</time>
      </trkpt>
      <trkpt lat="40.785743" lon="-3.980147">
        <ele>2245.3</ele>
        <time>2018-04-21T13:40:29.000Z</time>
      </trkpt>
      <trkpt lat="40.78574" lon="-3.980159">
        <ele>2245.2</ele>
        <time>2018-04-21T13:40:30.000Z</time>
      </trkpt>
      <trkpt lat="40.785738" lon="-3.98017">
        <ele>2245.0</ele>
        <time>2018-04-21T13:40:31.000Z</time>
      </trkpt>
      <trkpt lat="40.785736" lon="-3.980181">
        <ele>2244.9</ele>
        <time>2018-04-21T13:40:32.000Z</time>
      </trkpt>
      <trkpt lat="40.785734" lon="-3.980192">
        <ele>2244.8</ele>
        <time>2018-04-21T13:40:33.000Z</time>
      </trkpt>
      <trkpt lat="40.785732" lon="-3.980203">
        <ele>2244.7</ele>
        <time>2018-04-21T13:40:34.000Z</time>
      </trkpt>
      <trkpt lat="40.785729" lon="-3.980214">
        <ele>2244.6</ele>
        <time>2018-04-21T13:40:35.000Z</time>
      </trkpt>
      <trkpt lat="40.785727" lon="-3.980224">
        <ele>2244.5</ele>
        <time>2018-04-21T13:40:36.000Z</time>
      </trkpt>
      <trkpt lat="40.785725" lon="-3.980235">
        <ele>2244.4</ele>
        <time>2018-04-21T13:40:37.000Z</time>
      </trkpt>
      <trkpt lat="40.785723" lon="-3.980246">
        <ele>2244.2</ele>
        <time>2018-04-21T13:40:38.000Z</time>
      </trkpt>
      <trkpt lat="40.785721" lon="-3.980256">
        <ele>2244.1</ele>
        <time>2018-04-21T13:40:39.000Z</time>
      </trkpt>
      <trkpt lat="40.785719" lon="-3.980267">
        <ele>2244.0</ele>
        <time>2018-04-21T13:40:40.000Z</time>
      </trkpt>
      <trkpt lat="40.785716" lon="-3.980277">
        <ele>2243.9</ele>
        <time>2018-04-21T13:40:41.000Z</time>
      </trkpt>
      <trkpt lat="40.785714" lon="-3.980288">
        <ele>2243.8</ele>
        <time>2018-04-21T13:40:42.000Z</time>
      </trkpt>
      <trkpt lat="40.785712" lon="-3.980299">
        <ele>2243.7</ele>
        <time>2018-04-21T13:40:43.000Z</time>
      </trkpt>
      <trkpt lat="40.785709" lon="-3.98031">
        <ele>2243.6</ele>
        <time>2018-04-21T13:40:44.000Z</time>
      </trkpt>
      <trkpt lat="40.785706" lon="-3.980321">
        <ele>2243.5</ele>
        <time>2018-04-21T13:40:45.000Z</time>
      </trkpt>
      <trkpt lat="40.785703" lon="-3.980332">
        <ele>2243.4</ele>
        <time>2018-04-21T13:40:46.000Z</time>
      </trkpt>
      <trkpt lat="40.785701" lon="-3.980343">
        <ele>2243.3</ele>
        <time>2018-04-21T13:40:47.000Z</time>
      </trkpt>
      <trkpt lat="40.785698" lon="-3.980354">
        <ele>2243.2</ele>
        <time>2018-04-21T13:40:48.000Z</time>
      </trkpt>
      <trkpt lat="40.785695" lon="-3.980365">
        <ele>2243.1</ele>
        <time>2018-04-21T13:40:49.000Z</time>
      </trkpt>
      <trkpt lat="40.785691" lon="-3.980377">
        <ele>2243.0</ele>
        <time>2018-04-21T13:40:50.000Z</time>
      </trkpt>
      <trkpt lat="40.785688" lon="-3.980388">
        <ele>2242.9</ele>
        <time>2018-04-21T13:40:51.000Z</time>
      </trkpt>
      <trkpt lat="40.785685" lon="-3.9804">
        <ele>2242.8</ele>
        <time>2018-04-21T13:40:52.000Z</time>
      </trkpt>
      <trkpt lat="40.785682" lon="-3.980411">
        <ele>2242.7</ele>
        <time>2018-04-21T13:40:53.000Z</time>
      </trkpt>
      <trkpt lat="40.785679" lon="-3.980423">
        <ele>2242.5</ele>
        <time>2018-04-21T13:40:54.000Z</time>
      </trkpt>
      <trkpt lat="40.785675" lon="-3.980435">
        <ele>2242.4</ele>
        <time>2018-04-21T13:40:55.000Z</time>
      </trkpt>
      <trkpt lat="40.785672" lon="-3.980446">
        <ele>2242.3</ele>
        <time>2018-04-21T13:40:56.000Z</time>
      </trkpt>
      <trkpt lat="40.785669" lon="-3.980458">
        <ele>2242.2</ele>
        <time>2018-04-21T13:40:57.000Z</time>
      </trkpt>
      <trkpt lat="40.785665" lon="-3.98047">
        <ele>2242.1</ele>
        <time>2018-04-21T13:40:58.000Z</time>
      </trkpt>
      <trkpt lat="40.785662" lon="-3.980482">
        <ele>2242.0</ele>
        <time>2018-04-21T13:40:59.000Z</time>
      </trkpt>
      <trkpt lat="40.785658" lon="-3.980493">
        <ele>2241.9</ele>
        <time>2018-04-21T13:41:00.000Z</time>
      </trkpt>
      <trkpt lat="40.785655" lon="-3.980505">
        <ele>2241.8</ele>
        <time>2018-04-21T13:41:01.000Z</time>
      </trkpt>
      <trkpt lat="40.785652" lon="-3.980517">
        <ele>2241.7</ele>
        <time>2018-04-21T13:41:02.000Z</time>
      </trkpt>
      <trkpt lat="40.785648" lon="-3.980529">
        <ele>2241.6</ele>
        <time>2018-04-21T13:41:03.000Z</time>
      </trkpt>
      <trkpt lat="40.785645" lon="-3.980541">
        <ele>2241.5</ele>
        <time>2018-04-21T13:41:04.000Z</time>
      </trkpt>
      <trkpt lat="40.785642" lon="-3.980553">
        <ele>2241.4</ele>
        <time>2018-04-21T13:41:05.000Z</time>
      </trkpt>
      <trkpt lat="40.785639" lon="-3.980564">
        <ele>2241.3</ele>
        <time>2018-04-21T13:41:06.000Z</time>
      </trkpt>
      <trkpt lat="40.785636" lon="-3.980576">
        <ele>2241.2</ele>
        <time>2018-04-21T13:41:07.000Z</time>
      </trkpt>
      <trkpt lat="40.785633" lon="-3.980588">
        <ele>2241.1</ele>
        <time>2018-04-21T13:41:08.000Z</time>
      </trkpt>
      <trkpt lat="40.78563" lon="-3.9806">
        <ele>2240.9</ele>
        <time>2018-04-21T13:41:09.000Z</time>
      </trkpt>
      <trkpt lat="40.785627" lon="-3.980611">
        <ele>2240.8</ele>
        <time>2018-04-21T13:41:10.000Z</time>
      </trkpt>
      <trkpt lat="40.785624" lon="-3.980623">
        <ele>2240.7</ele>
        <time>2018-04-21T13:41:11.000Z</time>
      </trkpt>
      <trkpt lat="40.785621" lon="-3.980634">
        <ele>2240.6</ele>
        <time>2018-04-21T13:41:12.000Z</time>
      </trkpt>
      <trkpt lat="40.785619" lon="-3.980646">
        <ele>2240.5</ele>
        <time>2018-04-21T13:41:13.000Z</time>
      </trkpt>
      <trkpt lat="40.785616" lon="-3.980658">
        <ele>2240.4</ele>
        <time>2018-04-21T13:41:14.000Z</time>
      </trkpt>
      <trkpt lat="40.785614" lon="-3.980669">
        <ele>2240.3</ele>
        <time>2018-04-21T13:41:15.000Z</time>
      </trkpt>
      <trkpt lat="40.785612" lon="-3.98068">
        <ele>2240.2</ele>
        <time>2018-04-21T13:41:16.000Z</time>
      </trkpt>
      <trkpt lat="40.785609" lon="-3.980692">
        <ele>2240.1</ele>
        <time>2018-04-21T13:41:17.000Z</time>
      </trkpt>
      <trkpt lat="40.785607" lon="-3.980703">
        <ele>2239.9</ele>
        <time>2018-04-21T13:41:18.000Z</time>
      </trkpt>
      <trkpt lat="40.785605" lon="-3.980714">
        <ele>2239.8</ele>
        <time>2018-04-21T13:41:19.000Z</time>
      </trkpt>
      <trkpt lat="40.785603" lon="-3.980725">
        <ele>2239.7</ele>
        <time>2018-04-21T13:41:20.000Z</time>
      </trkpt>
      <trkpt lat="40.785601" lon="-3.980737">
        <ele>2239.6</ele>
        <time>2018-04-21T13:41:21.000Z</time>
      </trkpt>
      <trkpt lat="40.785599" lon="-3.980748">
        <ele>2239.5</ele>
        <time>2018-04-21T13:41:22.000Z</time>
      </trkpt>
      <trkpt lat="40.785597" lon="-3.980759">
        <ele>2239.4</ele>
        <time>2018-04-21T13:41:23.000Z</time>
      </trkpt>
      <trkpt lat="40.785595" lon="-3.98077">
        <ele>2239.2</ele>
        <time>2018-04-21T13:41:24.000Z</time>
      </trkpt>
      <trkpt lat="40.785594" lon="-3.980781">
        <ele>2239.1</ele>
        <time>2018-04-21T13:41:25.000Z</time>
      </trkpt>
      <trkpt lat="40.785592" lon="-3.980792">
        <ele>2239.0</ele>
        <time>2018-04-21T13:41:26.000Z</time>
      </trkpt>
      <trkpt lat="40.78559" lon="-3.980803">
        <ele>2238.9</ele>
        <time>2018-04-21T13:41:27.000Z</time>
      </trkpt>
      <trkpt lat="40.785588" lon="-3.980814">
        <ele>2238.8</ele>
        <time>2018-04-21T13:41:28.000Z</time>
      </trkpt>
      <trkpt lat="40.785586" lon="-3.980825">
        <ele>2238.7</ele>
        <time>2018-04-21T13:41:29.000Z</time>
      </trkpt>
      <trkpt lat="40.785584" lon="-3.980836">
        <ele>2238.6</ele>
        <time>2018-04-21T13:41:30.000Z</time>
      </trkpt>
      <trkpt lat="40.785582" lon="-3.980847">
        <ele>2238.5</ele>
        <time>2018-04-21T13:41:31.000Z</time>
      </trkpt>
      <trkpt lat="40.78558" lon="-3.980858">
        <ele>2238.4</ele>
        <time>2018-04-21T13:41:32.000Z</time>
      </trkpt>
      <trkpt lat="40.785578" lon="-3.980869">
        <ele>2238.4</ele>
        <time>2018-04-21T13:41:33.000Z</time>
      </trkpt>
      <trkpt lat="40.785576" lon="-3.98088">
        <ele>2238.3</ele>
        <time>2018-04-21T13:41:34.000Z</time>
      </trkpt>
      <trkpt lat="40.785574" lon="-3.980891">
        <ele>2238.2</ele>
        <time>2018-04-21T13:41:35.000Z</time>
      </trkpt>
      <trkpt lat="40.785572" lon="-3.980902">
        <ele>2238.2</ele>
        <time>2018-04-21T13:41:36.000Z</time>
      </trkpt>
      <trkpt lat="40.785569" lon="-3.980913">
        <ele>2238.1</ele>
        <time>2018-04-21T13:41:37.000Z</time>
      </trkpt>
      <trkpt lat="40.785567" lon="-3.980924">
        <ele>2238.0</ele>
        <time>2018-04-21T13:41:38.000Z</time>
      </trkpt>
      <trkpt lat="40.785565" lon="-3.980935">
        <ele>2238.0</ele>
        <time>2018-04-21T13:41:39.000Z</time>
      </trkpt>
      <trkpt lat="40.785562" lon="-3.980946">
        <ele>2237.9</ele>
        <time>2018-04-21T13:41:40.000Z</time>
      </trkpt>
      <trkpt lat="40.78556" lon="-3.980956">
        <ele>2237.9</ele>
        <time>2018-04-21T13:41:41.000Z</time>
      </trkpt>
      <trkpt lat="40.785557" lon="-3.980967">
        <ele>2237.8</ele>
        <time>2018-04-21T13:41:42.000Z</time>
      </trkpt>
      <trkpt lat="40.785554" lon="-3.980978">
        <ele>2237.7</ele>
        <time>2018-04-21T13:41:43.000Z</time>
      </trkpt>
      <trkpt lat="40.785551" lon="-3.980988">
        <ele>2237.7</ele>
        <time>2018-04-21T13:41:44.000Z</time>
      </trkpt>
      <trkpt lat="40.785549" lon="-3.980999">
        <ele>2237.6</ele>
        <time>2018-04-21T13:41:45.000Z</time>
      </trkpt>
      <trkpt lat="40.785546" lon="-3.981009">
        <ele>2237.6</ele>
        <time>2018-04-21T13:41:46.000Z</time>
      </trkpt>
      <trkpt lat="40.785543" lon="-3.98102">
        <ele>2237.5</ele>
        <time>2018-04-21T13:41:47.000Z</time>
      </trkpt>
      <trkpt lat="40.78554" lon="-3.98103">
        <ele>2237.5</ele>
        <time>2018-04-21T13:41:48.000Z</time>
      </trkpt>
      <trkpt lat="40.785536" lon="-3.981041">
        <ele>2237.4</ele>
        <time>2018-04-21T13:41:49.000Z</time>
      </trkpt>
      <trkpt lat="40.785533" lon="-3.981051">
        <ele>2237.4</ele>
        <time>2018-04-21T13:41:50.000Z</time>
      </trkpt>
      <trkpt lat="40.78553" lon="-3.981062">
        <ele>2237.3</ele>
        <time>2018-04-21T13:41:51.000Z</time>
      </trkpt>
      <trkpt lat="40.785527" lon="-3.981072">
        <ele>2237.3</ele>
        <time>2018-04-21T13:41:52.000Z</time>
      </trkpt>
      <trkpt lat="40.785524" lon="-3.981083">
        <ele>2237.2</ele>
        <time>2018-04-21T13:41:53.000Z</time>
      </trkpt>
      <trkpt lat="40.78552" lon="-3.981093">
        <ele>2237.2</ele>
        <time>2018-04-21T13:41:54.000Z</time>
      </trkpt>
      <trkpt lat="40.785517" lon="-3.981104">
        <ele>2237.2</ele>
        <time>2018-04-21T13:41:55.000Z</time>
      </trkpt>
      <trkpt lat="40.785514" lon="-3.981114">
        <ele>2237.1</ele>
        <time>2018-04-21T13:41:56.000Z</time>
      </trkpt>
      <trkpt lat="40.785511" lon="-3.981125">
        <ele>2237.1</ele>
        <time>2018-04-21T13:41:57.000Z</time>
      </trkpt>
      <trkpt lat="40.785507" lon="-3.981135">
        <ele>2237.0</ele>
        <time>2018-04-21T13:41:58.000Z</time>
      </trkpt>
      <trkpt lat="40.785504" lon="-3.981146">
        <ele>2237.0</ele>
        <time>2018-04-21T13:41:59.000Z</time>
      </trkpt>
      <trkpt lat="40.785501" lon="-3.981157">
        <ele>2236.9</ele>
        <time>2018-04-21T13:42:00.000Z</time>
      </trkpt>
      <trkpt lat="40.785498" lon="-3.981167">
        <ele>2236.9</ele>
        <time>2018-04-21T13:42:01.000Z</time>
      </trkpt>
      <trkpt lat="40.785495" lon="-3.981178">
        <ele>2236.8</ele>
        <time>2018-04-21T13:42:02.000Z</time>
      </trkpt>
      <trkpt lat="40.785491" lon="-3.981189">
        <ele>2236.8</ele>
        <time>2018-04-21T13:42:03.000Z</time>
      </trkpt>
      <trkpt lat="40.785488" lon="-3.9812">
        <ele>2236.7</ele>
        <time>2018-04-21T13:42:04.000Z</time>
      </trkpt>
      <trkpt lat="40.785485" lon="-3.981211">
        <ele>2236.7</ele>
        <time>2018-04-21T13:42:05.000Z</time>
      </trkpt>
      <trkpt lat="40.785483" lon="-3.981222">
        <ele>2236.6</ele>
        <time>2018-04-21T13:42:06.000Z</time>
      </trkpt>
      <trkpt lat="40.78548" lon="-3.981233">
        <ele>2236.5</ele>
        <time>2018-04-21T13:42:07.000Z</time>
      </trkpt>
      <trkpt lat="40.785477" lon="-3.981244">
        <ele>2236.5</ele>
        <time>2018-04-21T13:42:08.000Z</time>
      </trkpt>
      <trkpt lat="40.785474" lon="-3.981255">
        <ele>2236.4</ele>
        <time>2018-04-21T13:42:09.000Z</time>
      </trkpt>
      <trkpt lat="40.785472" lon="-3.981266">
        <ele>2236.3</ele>
        <time>2018-04-21T13:42:10.000Z</time>
      </trkpt>
      <trkpt lat="40.785469" lon="-3.981278">
        <ele>2236.3</ele>
        <time>2018-04-21T13:42:11.000Z</time>
      </trkpt>
      <trkpt lat="40.785467" lon="-3.981289">
        <ele>2236.2</ele>
        <time>2018-04-21T13:42:12.000Z</time>
      </trkpt>
      <trkpt lat="40.785464" lon="-3.981301">
        <ele>2236.1</ele>
        <time>2018-04-21T13:42:13.000Z</time>
      </trkpt>
      <trkpt lat="40.785462" lon="-3.981313">
        <ele>2236.1</ele>
        <time>2018-04-21T13:42:14.000Z</time>
      </trkpt>
      <trkpt lat="40.78546" lon="-3.981324">
        <ele>2236.0</ele>
        <time>2018-04-21T13:42:15.000Z</time>
      </trkpt>
      <trkpt lat="40.785458" lon="-3.981336">
        <ele>2235.9</ele>
        <time>2018-04-21T13:42:16.000Z</time>
      </trkpt>
      <trkpt lat="40.785455" lon="-3.981347">
        <ele>2235.9</ele>
        <time>2018-04-21T13:42:17.000Z</time>
      </trkpt>
      <trkpt lat="40.785453" lon="-3.981358">
        <ele>2235.8</ele>
        <time>2018-04-21T13:42:18.000Z</time>
      </trkpt>
      <trkpt lat="40.785451" lon="-3.981369">
        <ele>2235.7</ele>
        <time>2018-04-21T13:42:19.000Z</time>
      </trkpt>
      <trkpt lat="40.785448" lon="-3.981379">
        <ele>2235.7</ele>
        <time>2018-04-21T13:42:20.000Z</time>
      </trkpt>
      <trkpt lat="40.785445" lon="-3.981389">
        <ele>2235.6</ele>
        <time>2018-04-21T13:42:21.000Z</time>
      </trkpt>
      <trkpt lat="40.785442" lon="-3.981399">
        <ele>2235.6</ele>
        <time>2018-04-21T13:42:22.000Z</time>
      </trkpt>
      <trkpt lat="40.785439" lon="-3.981408">
        <ele>2235.5</ele>
        <time>2018-04-21T13:42:23.000Z</time>
      </trkpt>
      <trkpt lat="40.785435" lon="-3.981418">
        <ele>2235.5</ele>
        <time>2018-04-21T13:42:24.000Z</time>
      </trkpt>
      <trkpt lat="40.785432" lon="-3.981427">
        <ele>2235.4</ele>
        <time>2018-04-21T13:42:25.000Z</time>
      </trkpt>
      <trkpt lat="40.785428" lon="-3.981437">
        <ele>2235.4</ele>
        <time>2018-04-21T13:42:26.000Z</time>
      </trkpt>
      <trkpt lat="40.785425" lon="-3.981447">
        <ele>2235.4</ele>
        <time>2018-04-21T13:42:27.000Z</time>
      </trkpt>
      <trkpt lat="40.785421" lon="-3.981458">
        <ele>2235.3</ele>
        <time>2018-04-21T13:42:28.000Z</time>
      </trkpt>
      <trkpt lat="40.785417" lon="-3.981469">
        <ele>2235.3</ele>
        <time>2018-04-21T13:42:29.000Z</time>
      </trkpt>
      <trkpt lat="40.785414" lon="-3.98148">
        <ele>2235.2</ele>
        <time>2018-04-21T13:42:30.000Z</time>
      </trkpt>
      <trkpt lat="40.785411" lon="-3.981492">
        <ele>2235.1</ele>
        <time>2018-04-21T13:42:31.000Z</time>
      </trkpt>
      <trkpt lat="40.785408" lon="-3.981504">
        <ele>2235.1</ele>
        <time>2018-04-21T13:42:32.000Z</time>
      </trkpt>
      <trkpt lat="40.785406" lon="-3.981516">
        <ele>2235.0</ele>
        <time>2018-04-21T13:42:33.000Z</time>
      </trkpt>
      <trkpt lat="40.785405" lon="-3.981527">
        <ele>2234.9</ele>
        <time>2018-04-21T13:42:34.000Z</time>
      </trkpt>
      <trkpt lat="40.785405" lon="-3.981539">
        <ele>2234.8</ele>
        <time>2018-04-21T13:42:35.000Z</time>
      </trkpt>
      <trkpt lat="40.785405" lon="-3.981551">
        <ele>2234.7</ele>
        <time>2018-04-21T13:42:36.000Z</time>
      </trkpt>
      <trkpt lat="40.785406" lon="-3.981563">
        <ele>2234.6</ele>
        <time>2018-04-21T13:42:37.000Z</time>
      </trkpt>
      <trkpt lat="40.785408" lon="-3.981575">
        <ele>2234.4</ele>
        <time>2018-04-21T13:42:38.000Z</time>
      </trkpt>
      <trkpt lat="40.78541" lon="-3.981587">
        <ele>2234.3</ele>
        <time>2018-04-21T13:42:39.000Z</time>
      </trkpt>
      <trkpt lat="40.785411" lon="-3.981599">
        <ele>2234.2</ele>
        <time>2018-04-21T13:42:40.000Z</time>
      </trkpt>
      <trkpt lat="40.785413" lon="-3.981612">
        <ele>2234.0</ele>
        <time>2018-04-21T13:42:41.000Z</time>
      </trkpt>
      <trkpt lat="40.785415" lon="-3.981624">
        <ele>2233.9</ele>
        <time>2018-04-21T13:42:42.000Z</time>
      </trkpt>
      <trkpt lat="40.785416" lon="-3.981637">
        <ele>2233.8</ele>
        <time>2018-04-21T13:42:43.000Z</time>
      </trkpt>
      <trkpt lat="40.785418" lon="-3.98165">
        <ele>2233.6</ele>
        <time>2018-04-21T13:42:44.000Z</time>
      </trkpt>
      <trkpt lat="40.785419" lon="-3.981663">
        <ele>2233.5</ele>
        <time>2018-04-21T13:42:45.000Z</time>
      </trkpt>
      <trkpt lat="40.78542" lon="-3.981676">
        <ele>2233.3</ele>
        <time>2018-04-21T13:42:46.000Z</time>
      </trkpt>
      <trkpt lat="40.78542" lon="-3.98169">
        <ele>2233.2</ele>
        <time>2018-04-21T13:42:47.000Z</time>
      </trkpt>
      <trkpt lat="40.785421" lon="-3.981703">
        <ele>2233.0</ele>
        <time>2018-04-21T13:42:48.000Z</time>
      </trkpt>
      <trkpt lat="40.785421" lon="-3.981717">
        <ele>2232.8</ele>
        <time>2018-04-21T13:42:49.000Z</time>
      </trkpt>
      <trkpt lat="40.785422" lon="-3.98173">
        <ele>2232.6</ele>
        <time>2018-04-21T13:42:50.000Z</time>
      </trkpt>
      <trkpt lat="40.785422" lon="-3.981744">
        <ele>2232.5</ele>
        <time>2018-04-21T13:42:51.000Z</time>
      </trkpt>
      <trkpt lat="40.785423" lon="-3.981757">
        <ele>2232.3</ele>
        <time>2018-04-21T13:42:52.000Z</time>
      </trkpt>
      <trkpt lat="40.785423" lon="-3.98177">
        <ele>2232.1</ele>
        <time>2018-04-21T13:42:53.000Z</time>
      </trkpt>
      <trkpt lat="40.785423" lon="-3.981784">
        <ele>2231.9</ele>
        <time>2018-04-21T13:42:54.000Z</time>
      </trkpt>
      <trkpt lat="40.785423" lon="-3.981797">
        <ele>2231.8</ele>
        <time>2018-04-21T13:42:55.000Z</time>
      </trkpt>
      <trkpt lat="40.785423" lon="-3.98181">
        <ele>2231.6</ele>
        <time>2018-04-21T13:42:56.000Z</time>
      </trkpt>
      <trkpt lat="40.785424" lon="-3.981823">
        <ele>2231.4</ele>
        <time>2018-04-21T13:42:57.000Z</time>
      </trkpt>
      <trkpt lat="40.785424" lon="-3.981836">
        <ele>2231.3</ele>
        <time>2018-04-21T13:42:58.000Z</time>
      </trkpt>
      <trkpt lat="40.785424" lon="-3.981849">
        <ele>2231.1</ele>
        <time>2018-04-21T13:42:59.000Z</time>
      </trkpt>
      <trkpt lat="40.785424" lon="-3.981862">
        <ele>2231.0</ele>
        <time>2018-04-21T13:43:00.000Z</time>
      </trkpt>
      <trkpt lat="40.785424" lon="-3.981875">
        <ele>2230.8</ele>
        <time>2018-04-21T13:43:01.000Z</time>
      </trkpt>
      <trkpt lat="40.785424" lon="-3.981887">
        <ele>2230.6</ele>
        <time>2018-04-21T13:43:02.000Z</time>
      </trkpt>
      <trkpt lat="40.785424" lon="-3.9819">
        <ele>2230.5</ele>
        <time>2018-04-21T13:43:03.000Z</time>
      </trkpt>
      <trkpt lat="40.785423" lon="-3.981912">
        <ele>2230.3</ele>
        <time>2018-04-21T13:43:04.000Z</time>
      </trkpt>
      <trkpt lat="40.785423" lon="-3.981925">
        <ele>2230.2</ele>
        <time>2018-04-21T13:43:05.000Z</time>
      </trkpt>
      <trkpt lat="40.785422" lon="-3.981937">
        <ele>2230.0</ele>
        <time>2018-04-21T13:43:06.000Z</time>
      </trkpt>
      <trkpt lat="40.78542" lon="-3.98195">
        <ele>2229.9</ele>
        <time>2018-04-21T13:43:07.000Z</time>
      </trkpt>
      <trkpt lat="40.785419" lon="-3.981962">
        <ele>2229.8</ele>
        <time>2018-04-21T13:43:08.000Z</time>
      </trkpt>
      <trkpt lat="40.785417" lon="-3.981975">
        <ele>2229.6</ele>
        <time>2018-04-21T13:43:09.000Z</time>
      </trkpt>
      <trkpt lat="40.785415" lon="-3.981988">
        <ele>2229.5</ele>
        <time>2018-04-21T13:43:10.000Z</time>
      </trkpt>
      <trkpt lat="40.785412" lon="-3.982">
        <ele>2229.4</ele>
        <time>2018-04-21T13:43:11.000Z</time>
      </trkpt>
      <trkpt lat="40.785409" lon="-3.982013">
        <ele>2229.2</ele>
        <time>2018-04-21T13:43:12.000Z</time>
      </trkpt>
      <trkpt lat="40.785406" lon="-3.982025">
        <ele>2229.1</ele>
        <time>2018-04-21T13:43:13.000Z</time>
      </trkpt>
      <trkpt lat="40.785402" lon="-3.982038">
        <ele>2229.0</ele>
        <time>2018-04-21T13:43:14.000Z</time>
      </trkpt>
      <trkpt lat="40.785399" lon="-3.98205">
        <ele>2228.9</ele>
        <time>2018-04-21T13:43:15.000Z</time>
      </trkpt>
      <trkpt lat="40.785396" lon="-3.982062">
        <ele>2228.7</ele>
        <time>2018-04-21T13:43:16.000Z</time>
      </trkpt>
      <trkpt lat="40.785393" lon="-3.982074">
        <ele>2228.6</ele>
        <time>2018-04-21T13:43:17.000Z</time>
      </trkpt>
      <trkpt lat="40.785391" lon="-3.982086">
        <ele>2228.5</ele>
        <time>2018-04-21T13:43:18.000Z</time>
      </trkpt>
      <trkpt lat="40.785389" lon="-3.982097">
        <ele>2228.4</ele>
        <time>2018-04-21T13:43:19.000Z</time>
      </trkpt>
      <trkpt lat="40.785388" lon="-3.982108">
        <ele>2228.2</ele>
        <time>2018-04-21T13:43:20.000Z</time>
      </trkpt>
      <trkpt lat="40.785386" lon="-3.982119">
        <ele>2228.1</ele>
        <time>2018-04-21T13:43:21.000Z</time>
      </trkpt>
      <trkpt lat="40.785385" lon="-3.98213">
        <ele>2228.0</ele>
        <time>2018-04-21T13:43:22.000Z</time>
      </trkpt>
      <trkpt lat="40.785385" lon="-3.982142">
        <ele>2227.8</ele>
        <time>2018-04-21T13:43:23.000Z</time>
      </trkpt>
      <trkpt lat="40.785384" lon="-3.982153">
        <ele>2227.7</ele>
        <time>2018-04-21T13:43:24.000Z</time>
      </trkpt>
      <trkpt lat="40.785383" lon="-3.982164">
        <ele>2227.6</ele>
        <time>2018-04-21T13:43:25.000Z</time>
      </trkpt>
      <trkpt lat="40.785383" lon="-3.982176">
        <ele>2227.4</ele>
        <time>2018-04-21T13:43:26.000Z</time>
      </trkpt>
      <trkpt lat="40.785382" lon="-3.982188">
        <ele>2227.3</ele>
        <time>2018-04-21T13:43:27.000Z</time>
      </trkpt>
      <trkpt lat="40.785381" lon="-3.982201">
        <ele>2227.1</ele>
        <time>2018-04-21T13:43:28.000Z</time>
      </trkpt>
      <trkpt lat="40.78538" lon="-3.982213">
        <ele>2227.0</ele>
        <time>2018-04-21T13:43:29.000Z</time>
      </trkpt>
      <trkpt lat="40.785379" lon="-3.982226">
        <ele>2226.8</ele>
        <time>2018-04-21T13:43:30.000Z</time>
      </trkpt>
      <trkpt lat="40.785378" lon="-3.982239">
        <ele>2226.6</ele>
        <time>2018-04-21T13:43:31.000Z</time>
      </trkpt>
      <trkpt lat="40.785377" lon="-3.982252">
        <ele>2226.5</ele>
        <time>2018-04-21T13:43:32.000Z</time>
      </trkpt>
      <trkpt lat="40.785376" lon="-3.982265">
        <ele>2226.3</ele>
        <time>2018-04-21T13:43:33.000Z</time>
      </trkpt>
      <trkpt lat="40.785376" lon="-3.982278">
        <ele>2226.2</ele>
        <time>2018-04-21T13:43:34.000Z</time>
      </trkpt>
      <trkpt lat="40.785375" lon="-3.982292">
        <ele>2226.0</ele>
        <time>2018-04-21T13:43:35.000Z</time>
      </trkpt>
      <trkpt lat="40.785374" lon="-3.982305">
        <ele>2225.8</ele>
        <time>2018-04-21T13:43:36.000Z</time>
      </trkpt>
      <trkpt lat="40.785374" lon="-3.982318">
        <ele>2225.7</ele>
        <time>2018-04-21T13:43:37.000Z</time>
      </trkpt>
      <trkpt lat="40.785373" lon="-3.982331">
        <ele>2225.5</ele>
        <time>2018-04-21T13:43:38.000Z</time>
      </trkpt>
      <trkpt lat="40.785373" lon="-3.982345">
        <ele>2225.3</ele>
        <time>2018-04-21T13:43:39.000Z</time>
      </trkpt>
      <trkpt lat="40.785373" lon="-3.982358">
        <ele>2225.1</ele>
        <time>2018-04-21T13:43:40.000Z</time>
      </trkpt>
      <trkpt lat="40.785373" lon="-3.982371">
        <ele>2225.0</ele>
        <time>2018-04-21T13:43:41.000Z</time>
      </trkpt>
      <trkpt lat="40.785373" lon="-3.982384">
        <ele>2224.8</ele>
        <time>2018-04-21T13:43:42.000Z</time>
      </trkpt>
      <trkpt lat="40.785374" lon="-3.982396">
        <ele>2224.6</ele>
        <time>2018-04-21T13:43:43.000Z</time>
      </trkpt>
      <trkpt lat="40.785374" lon="-3.982409">
        <ele>2224.5</ele>
        <time>2018-04-21T13:43:44.000Z</time>
      </trkpt>
      <trkpt lat="40.785375" lon="-3.982422">
        <ele>2224.3</ele>
        <time>2018-04-21T13:43:45.000Z</time>
      </trkpt>
      <trkpt lat="40.785376" lon="-3.982434">
        <ele>2224.1</ele>
        <time>2018-04-21T13:43:46.000Z</time>
      </trkpt>
      <trkpt lat="40.785376" lon="-3.982447">
        <ele>2224.0</ele>
        <time>2018-04-21T13:43:47.000Z</time>
      </trkpt>
      <trkpt lat="40.785377" lon="-3.982459">
        <ele>2223.8</ele>
        <time>2018-04-21T13:43:48.000Z</time>
      </trkpt>
      <trkpt lat="40.785379" lon="-3.982472">
        <ele>2223.6</ele>
        <time>2018-04-21T13:43:49.000Z</time>
      </trkpt>
      <trkpt lat="40.78538" lon="-3.982484">
        <ele>2223.5</ele>
        <time>2018-04-21T13:43:50.000Z</time>
      </trkpt>
      <trkpt lat="40.785381" lon="-3.982496">
        <ele>2223.3</ele>
        <time>2018-04-21T13:43:51.000Z</time>
      </trkpt>
      <trkpt lat="40.785383" lon="-3.982509">
        <ele>2223.1</ele>
        <time>2018-04-21T13:43:52.000Z</time>
      </trkpt>
      <trkpt lat="40.785384" lon="-3.982521">
        <ele>2223.0</ele>
        <time>2018-04-21T13:43:53.000Z</time>
      </trkpt>
      <trkpt lat="40.785386" lon="-3.982533">
        <ele>2222.9</ele>
        <time>2018-04-21T13:43:54.000Z</time>
      </trkpt>
      <trkpt lat="40.785388" lon="-3.982545">
        <ele>2222.7</ele>
        <time>2018-04-21T13:43:55.000Z</time>
      </trkpt>
      <trkpt lat="40.785389" lon="-3.982557">
        <ele>2222.6</ele>
        <time>2018-04-21T13:43:56.000Z</time>
      </trkpt>
      <trkpt lat="40.785391" lon="-3.98257">
        <ele>2222.4</ele>
        <time>2018-04-21T13:43:57.000Z</time>
      </trkpt>
      <trkpt lat="40.785393" lon="-3.982582">
        <ele>2222.3</ele>
        <time>2018-04-21T13:43:58.000Z</time>
      </trkpt>
      <trkpt lat="40.785395" lon="-3.982594">
        <ele>2222.2</ele>
        <time>2018-04-21T13:43:59.000Z</time>
      </trkpt>
      <trkpt lat="40.785397" lon="-3.982606">
        <ele>2222.0</ele>
        <time>2018-04-21T13:44:00.000Z</time>
      </trkpt>
      <trkpt lat="40.785399" lon="-3.982618">
        <ele>2221.9</ele>
        <time>2018-04-21T13:44:01.000Z</time>
      </trkpt>
      <trkpt lat="40.785402" lon="-3.982631">
        <ele>2221.7</ele>
        <time>2018-04-21T13:44:02.000Z</time>
      </trkpt>
      <trkpt lat="40.785404" lon="-3.982643">
        <ele>2221.6</ele>
        <time>2018-04-21T13:44:03.000Z</time>
      </trkpt>
      <trkpt lat="40.785406" lon="-3.982655">
        <ele>2221.5</ele>
        <time>2018-04-21T13:44:04.000Z</time>
      </trkpt>
      <trkpt lat="40.785408" lon="-3.982667">
        <ele>2221.3</ele>
        <time>2018-04-21T13:44:05.000Z</time>
      </trkpt>
      <trkpt lat="40.78541" lon="-3.98268">
        <ele>2221.2</ele>
        <time>2018-04-21T13:44:06.000Z</time>
      </trkpt>
      <trkpt lat="40.785413" lon="-3.982692">
        <ele>2221.1</ele>
        <time>2018-04-21T13:44:07.000Z</time>
      </trkpt>
      <trkpt lat="40.785415" lon="-3.982705">
        <ele>2220.9</ele>
        <time>2018-04-21T13:44:08.000Z</time>
      </trkpt>
      <trkpt lat="40.785417" lon="-3.982717">
        <ele>2220.8</ele>
        <time>2018-04-21T13:44:09.000Z</time>
      </trkpt>
      <trkpt lat="40.78542" lon="-3.98273">
        <ele>2220.6</ele>
        <time>2018-04-21T13:44:10.000Z</time>
      </trkpt>
      <trkpt lat="40.785422" lon="-3.982742">
        <ele>2220.5</ele>
        <time>2018-04-21T13:44:11.000Z</time>
      </trkpt>
      <trkpt lat="40.785424" lon="-3.982755">
        <ele>2220.4</ele>
        <time>2018-04-21T13:44:12.000Z</time>
      </trkpt>
      <trkpt lat="40.785426" lon="-3.982768">
        <ele>2220.2</ele>
        <time>2018-04-21T13:44:13.000Z</time>
      </trkpt>
      <trkpt lat="40.785429" lon="-3.982781">
        <ele>2220.1</ele>
        <time>2018-04-21T13:44:14.000Z</time>
      </trkpt>
      <trkpt lat="40.785431" lon="-3.982794">
        <ele>2220.0</ele>
        <time>2018-04-21T13:44:15.000Z</time>
      </trkpt>
      <trkpt lat="40.785433" lon="-3.982807">
        <ele>2219.8</ele>
        <time>2018-04-21T13:44:16.000Z</time>
      </trkpt>
      <trkpt lat="40.785435" lon="-3.98282">
        <ele>2219.7</ele>
        <time>2018-04-21T13:44:17.000Z</time>
      </trkpt>
      <trkpt lat="40.785436" lon="-3.982833">
        <ele>2219.6</ele>
        <time>2018-04-21T13:44:18.000Z</time>
      </trkpt>
      <trkpt lat="40.785438" lon="-3.982847">
        <ele>2219.4</ele>
        <time>2018-04-21T13:44:19.000Z</time>
      </trkpt>
      <trkpt lat="40.78544" lon="-3.98286">
        <ele>2219.3</ele>
        <time>2018-04-21T13:44:20.000Z</time>
      </trkpt>
      <trkpt lat="40.785441" lon="-3.982874">
        <ele>2219.2</ele>
        <time>2018-04-21T13:44:21.000Z</time>
      </trkpt>
      <trkpt lat="40.785443" lon="-3.982887">
        <ele>2219.1</ele>
        <time>2018-04-21T13:44:22.000Z</time>
      </trkpt>
      <trkpt lat="40.785444" lon="-3.982901">
        <ele>2218.9</ele>
        <time>2018-04-21T13:44:23.000Z</time>
      </trkpt>
      <trkpt lat="40.785445" lon="-3.982915">
        <ele>2218.8</ele>
        <time>2018-04-21T13:44:24.000Z</time>
      </trkpt>
      <trkpt lat="40.785445" lon="-3.982929">
        <ele>2218.6</ele>
        <time>2018-04-21T13:44:25.000Z</time>
      </trkpt>
      <trkpt lat="40.785446" lon="-3.982943">
        <ele>2218.5</ele>
        <time>2018-04-21T13:44:26.000Z</time>
      </trkpt>
      <trkpt lat="40.785447" lon="-3.982957">
        <ele>2218.4</ele>
        <time>2018-04-21T13:44:27.000Z</time>
      </trkpt>
      <trkpt lat="40.785447" lon="-3.982971">
        <ele>2218.2</ele>
        <time>2018-04-21T13:44:28.000Z</time>
      </trkpt>
      <trkpt lat="40.785447" lon="-3.982986">
        <ele>2218.1</ele>
        <time>2018-04-21T13:44:29.000Z</time>
      </trkpt>
      <trkpt lat="40.785448" lon="-3.983">
        <ele>2218.0</ele>
        <time>2018-04-21T13:44:30.000Z</time>
      </trkpt>
      <trkpt lat="40.785448" lon="-3.983014">
        <ele>2217.8</ele>
        <time>2018-04-21T13:44:31.000Z</time>
      </trkpt>
      <trkpt lat="40.785448" lon="-3.983029">
        <ele>2217.7</ele>
        <time>2018-04-21T13:44:32.000Z</time>
      </trkpt>
      <trkpt lat="40.785449" lon="-3.983043">
        <ele>2217.6</ele>
        <time>2018-04-21T13:44:33.000Z</time>
      </trkpt>
      <trkpt lat="40.78545" lon="-3.983057">
        <ele>2217.4</ele>
        <time>2018-04-21T13:44:34.000Z</time>
      </trkpt>
      <trkpt lat="40.78545" lon="-3.983071">
        <ele>2217.3</ele>
        <time>2018-04-21T13:44:35.000Z</time>
      </trkpt>
      <trkpt lat="40.785451" lon="-3.983085">
        <ele>2217.2</ele>
        <time>2018-04-21T13:44:36.000Z</time>
      </trkpt>
      <trkpt lat="40.785452" lon="-3.983099">
        <ele>2217.0</ele>
        <time>2018-04-21T13:44:37.000Z</time>
      </trkpt>
      <trkpt lat="40.785454" lon="-3.983112">
        <ele>2216.9</ele>
        <time>2018-04-21T13:44:38.000Z</time>
      </trkpt>
      <trkpt lat="40.785456" lon="-3.983126">
        <ele>2216.8</ele>
        <time>2018-04-21T13:44:39.000Z</time>
      </trkpt>
      <trkpt lat="40.785458" lon="-3.983139">
        <ele>2216.7</ele>
        <time>2018-04-21T13:44:40.000Z</time>
      </trkpt>
      <trkpt lat="40.78546" lon="-3.983152">
        <ele>2216.6</ele>
        <time>2018-04-21T13:44:41.000Z</time>
      </trkpt>
      <trkpt lat="40.785462" lon="-3.983165">
        <ele>2216.5</ele>
        <time>2018-04-21T13:44:42.000Z</time>
      </trkpt>
      <trkpt lat="40.785464" lon="-3.983177">
        <ele>2216.4</ele>
        <time>2018-04-21T13:44:43.000Z</time>
      </trkpt>
      <trkpt lat="40.785467" lon="-3.983189">
        <ele>2216.3</ele>
        <time>2018-04-21T13:44:44.000Z</time>
      </trkpt>
      <trkpt lat="40.785469" lon="-3.983201">
        <ele>2216.2</ele>
        <time>2018-04-21T13:44:45.000Z</time>
      </trkpt>
      <trkpt lat="40.785472" lon="-3.983213">
        <ele>2216.1</ele>
        <time>2018-04-21T13:44:46.000Z</time>
      </trkpt>
      <trkpt lat="40.785474" lon="-3.983225">
        <ele>2216.0</ele>
        <time>2018-04-21T13:44:47.000Z</time>
      </trkpt>
      <trkpt lat="40.785476" lon="-3.983236">
        <ele>2215.9</ele>
        <time>2018-04-21T13:44:48.000Z</time>
      </trkpt>
      <trkpt lat="40.785479" lon="-3.983247">
        <ele>2215.8</ele>
        <time>2018-04-21T13:44:49.000Z</time>
      </trkpt>
      <trkpt lat="40.78548" lon="-3.983258">
        <ele>2215.7</ele>
        <time>2018-04-21T13:44:50.000Z</time>
      </trkpt>
      <trkpt lat="40.785482" lon="-3.983269">
        <ele>2215.6</ele>
        <time>2018-04-21T13:44:51.000Z</time>
      </trkpt>
      <trkpt lat="40.785483" lon="-3.98328">
        <ele>2215.5</ele>
        <time>2018-04-21T13:44:52.000Z</time>
      </trkpt>
      <trkpt lat="40.785485" lon="-3.983292">
        <ele>2215.4</ele>
        <time>2018-04-21T13:44:53.000Z</time>
      </trkpt>
      <trkpt lat="40.785485" lon="-3.983304">
        <ele>2215.3</ele>
        <time>2018-04-21T13:44:54.000Z</time>
      </trkpt>
      <trkpt lat="40.785486" lon="-3.983316">
        <ele>2215.2</ele>
        <time>2018-04-21T13:44:55.000Z</time>
      </trkpt>
      <trkpt lat="40.785486" lon="-3.983328">
        <ele>2215.1</ele>
        <time>2018-04-21T13:44:56.000Z</time>
      </trkpt>
      <trkpt lat="40.785486" lon="-3.98334">
        <ele>2215.0</ele>
        <time>2018-04-21T13:44:57.000Z</time>
      </trkpt>
      <trkpt lat="40.785486" lon="-3.983353">
        <ele>2214.9</ele>
        <time>2018-04-21T13:44:58.000Z</time>
      </trkpt>
      <trkpt lat="40.785486" lon="-3.983365">
        <ele>2214.8</ele>
        <time>2018-04-21T13:44:59.000Z</time>
      </trkpt>
      <trkpt lat="40.785486" lon="-3.983378">
        <ele>2214.8</ele>
        <time>2018-04-21T13:45:00.000Z</time>
      </trkpt>
      <trkpt lat="40.785486" lon="-3.98339">
        <ele>2214.7</ele>
        <time>2018-04-21T13:45:01.000Z</time>
      </trkpt>
      <trkpt lat="40.785486" lon="-3.983403">
        <ele>2214.6</ele>
        <time>2018-04-21T13:45:02.000Z</time>
      </trkpt>
      <trkpt lat="40.785486" lon="-3.983415">
        <ele>2214.5</ele>
        <time>2018-04-21T13:45:03.000Z</time>
      </trkpt>
      <trkpt lat="40.785486" lon="-3.983428">
        <ele>2214.4</ele>
        <time>2018-04-21T13:45:04.000Z</time>
      </trkpt>
      <trkpt lat="40.785486" lon="-3.98344">
        <ele>2214.3</ele>
        <time>2018-04-21T13:45:05.000Z</time>
      </trkpt>
      <trkpt lat="40.785487" lon="-3.983452">
        <ele>2214.2</ele>
        <time>2018-04-21T13:45:06.000Z</time>
      </trkpt>
      <trkpt lat="40.785487" lon="-3.983464">
        <ele>2214.1</ele>
        <time>2018-04-21T13:45:07.000Z</time>
      </trkpt>
      <trkpt lat="40.785487" lon="-3.983476">
        <ele>2214.0</ele>
        <time>2018-04-21T13:45:08.000Z</time>
      </trkpt>
      <trkpt lat="40.785488" lon="-3.983488">
        <ele>2214.0</ele>
        <time>2018-04-21T13:45:09.000Z</time>
      </trkpt>
      <trkpt lat="40.785488" lon="-3.9835">
        <ele>2213.9</ele>
        <time>2018-04-21T13:45:10.000Z</time>
      </trkpt>
      <trkpt lat="40.785489" lon="-3.983512">
        <ele>2213.8</ele>
        <time>2018-04-21T13:45:11.000Z</time>
      </trkpt>
      <trkpt lat="40.785489" lon="-3.983524">
        <ele>2213.7</ele>
        <time>2018-04-21T13:45:12.000Z</time>
      </trkpt>
      <trkpt lat="40.785489" lon="-3.983536">
        <ele>2213.6</ele>
        <time>2018-04-21T13:45:13.000Z</time>
      </trkpt>
      <trkpt lat="40.78549" lon="-3.983548">
        <ele>2213.5</ele>
        <time>2018-04-21T13:45:14.000Z</time>
      </trkpt>
      <trkpt lat="40.78549" lon="-3.98356">
        <ele>2213.5</ele>
        <time>2018-04-21T13:45:15.000Z</time>
      </trkpt>
      <trkpt lat="40.785491" lon="-3.983572">
        <ele>2213.4</ele>
        <time>2018-04-21T13:45:16.000Z</time>
      </trkpt>
      <trkpt lat="40.785492" lon="-3.983584">
        <ele>2213.3</ele>
        <time>2018-04-21T13:45:17.000Z</time>
      </trkpt>
      <trkpt lat="40.785492" lon="-3.983596">
        <ele>2213.2</ele>
        <time>2018-04-21T13:45:18.000Z</time>
      </trkpt>
      <trkpt lat="40.785493" lon="-3.983607">
        <ele>2213.1</ele>
        <time>2018-04-21T13:45:19.000Z</time>
      </trkpt>
      <trkpt lat="40.785493" lon="-3.983619">
        <ele>2213.1</ele>
        <time>2018-04-21T13:45:20.000Z</time>
      </trkpt>
      <trkpt lat="40.785494" lon="-3.983631">
        <ele>2213.0</ele>
        <time>2018-04-21T13:45:21.000Z</time>
      </trkpt>
      <trkpt lat="40.785495" lon="-3.983643">
        <ele>2212.9</ele>
        <time>2018-04-21T13:45:22.000Z</time>
      </trkpt>
      <trkpt lat="40.785496" lon="-3.983655">
        <ele>2212.8</ele>
        <time>2018-04-21T13:45:23.000Z</time>
      </trkpt>
      <trkpt lat="40.785497" lon="-3.983667">
        <ele>2212.8</ele>
        <time>2018-04-21T13:45:24.000Z</time>
      </trkpt>
      <trkpt lat="40.785497" lon="-3.983679">
        <ele>2212.7</ele>
        <time>2018-04-21T13:45:25.000Z</time>
      </trkpt>
      <trkpt lat="40.785498" lon="-3.98369">
        <ele>2212.6</ele>
        <time>2018-04-21T13:45:26.000Z</time>
      </trkpt>
      <trkpt lat="40.785499" lon="-3.983702">
        <ele>2212.5</ele>
        <time>2018-04-21T13:45:27.000Z</time>
      </trkpt>
      <trkpt lat="40.7855" lon="-3.983714">
        <ele>2212.5</ele>
        <time>2018-04-21T13:45:28.000Z</time>
      </trkpt>
      <trkpt lat="40.785501" lon="-3.983726">
        <ele>2212.4</ele>
        <time>2018-04-21T13:45:29.000Z</time>
      </trkpt>
      <trkpt lat="40.785502" lon="-3.983738">
        <ele>2212.3</ele>
        <time>2018-04-21T13:45:30.000Z</time>
      </trkpt>
      <trkpt lat="40.785503" lon="-3.983749">
        <ele>2212.3</ele>
        <time>2018-04-21T13:45:31.000Z</time>
      </trkpt>
      <trkpt lat="40.785505" lon="-3.983761">
        <ele>2212.2</ele>
        <time>2018-04-21T13:45:32.000Z</time>
      </trkpt>
      <trkpt lat="40.785506" lon="-3.983773">
        <ele>2212.1</ele>
        <time>2018-04-21T13:45:33.000Z</time>
      </trkpt>
      <trkpt lat="40.785507" lon="-3.983785">
        <ele>2212.1</ele>
        <time>2018-04-21T13:45:34.000Z</time>
      </trkpt>
      <trkpt lat="40.785508" lon="-3.983797">
        <ele>2212.0</ele>
        <time>2018-04-21T13:45:35.000Z</time>
      </trkpt>
      <trkpt lat="40.78551" lon="-3.983809">
        <ele>2211.9</ele>
        <time>2018-04-21T13:45:36.000Z</time>
      </trkpt>
      <trkpt lat="40.785511" lon="-3.98382">
        <ele>2211.9</ele>
        <time>2018-04-21T13:45:37.000Z</time>
      </trkpt>
      <trkpt lat="40.785513" lon="-3.983832">
        <ele>2211.8</ele>
        <time>2018-04-21T13:45:38.000Z</time>
      </trkpt>
      <trkpt lat="40.785514" lon="-3.983844">
        <ele>2211.7</ele>
        <time>2018-04-21T13:45:39.000Z</time>
      </trkpt>
      <trkpt lat="40.785516" lon="-3.983856">
        <ele>2211.7</ele>
        <time>2018-04-21T13:45:40.000Z</time>
      </trkpt>
      <trkpt lat="40.785517" lon="-3.983868">
        <ele>2211.6</ele>
        <time>2018-04-21T13:45:41.000Z</time>
      </trkpt>
      <trkpt lat="40.785519" lon="-3.98388">
        <ele>2211.6</ele>
        <time>2018-04-21T13:45:42.000Z</time>
      </trkpt>
      <trkpt lat="40.78552" lon="-3.983892">
        <ele>2211.5</ele>
        <time>2018-04-21T13:45:43.000Z</time>
      </trkpt>
      <trkpt lat="40.785522" lon="-3.983905">
        <ele>2211.4</ele>
        <time>2018-04-21T13:45:44.000Z</time>
      </trkpt>
      <trkpt lat="40.785523" lon="-3.983917">
        <ele>2211.4</ele>
        <time>2018-04-21T13:45:45.000Z</time>
      </trkpt>
      <trkpt lat="40.785525" lon="-3.983929">
        <ele>2211.3</ele>
        <time>2018-04-21T13:45:46.000Z</time>
      </trkpt>
      <trkpt lat="40.785526" lon="-3.983942">
        <ele>2211.3</ele>
        <time>2018-04-21T13:45:47.000Z</time>
      </trkpt>
      <trkpt lat="40.785528" lon="-3.983955">
        <ele>2211.2</ele>
        <time>2018-04-21T13:45:48.000Z</time>
      </trkpt>
      <trkpt lat="40.785529" lon="-3.983968">
        <ele>2211.1</ele>
        <time>2018-04-21T13:45:49.000Z</time>
      </trkpt>
      <trkpt lat="40.78553" lon="-3.983981">
        <ele>2211.1</ele>
        <time>2018-04-21T13:45:50.000Z</time>
      </trkpt>
      <trkpt lat="40.785532" lon="-3.983994">
        <ele>2211.0</ele>
        <time>2018-04-21T13:45:51.000Z</time>
      </trkpt>
      <trkpt lat="40.785533" lon="-3.984007">
        <ele>2210.9</ele>
        <time>2018-04-21T13:45:52.000Z</time>
      </trkpt>
      <trkpt lat="40.785534" lon="-3.984021">
        <ele>2210.9</ele>
        <time>2018-04-21T13:45:53.000Z</time>
      </trkpt>
      <trkpt lat="40.785535" lon="-3.984035">
        <ele>2210.8</ele>
        <time>2018-04-21T13:45:54.000Z</time>
      </trkpt>
      <trkpt lat="40.785535" lon="-3.984049">
        <ele>2210.7</ele>
        <time>2018-04-21T13:45:55.000Z</time>
      </trkpt>
      <trkpt lat="40.785536" lon="-3.984063">
        <ele>2210.6</ele>
        <time>2018-04-21T13:45:56.000Z</time>
      </trkpt>
      <trkpt lat="40.785537" lon="-3.984077">
        <ele>2210.6</ele>
        <time>2018-04-21T13:45:57.000Z</time>
      </trkpt>
      <trkpt lat="40.785537" lon="-3.984091">
        <ele>2210.5</ele>
        <time>2018-04-21T13:45:58.000Z</time>
      </trkpt>
      <trkpt lat="40.785538" lon="-3.984105">
        <ele>2210.4</ele>
        <time>2018-04-21T13:45:59.000Z</time>
      </trkpt>
      <trkpt lat="40.785538" lon="-3.984119">
        <ele>2210.3</ele>
        <time>2018-04-21T13:46:00.000Z</time>
      </trkpt>
      <trkpt lat="40.785538" lon="-3.984133">
        <ele>2210.2</ele>
        <time>2018-04-21T13:46:01.000Z</time>
      </trkpt>
      <trkpt lat="40.785538" lon="-3.984147">
        <ele>2210.1</ele>
        <time>2018-04-21T13:46:02.000Z</time>
      </trkpt>
      <trkpt lat="40.785538" lon="-3.984161">
        <ele>2210.0</ele>
        <time>2018-04-21T13:46:03.000Z</time>
      </trkpt>
      <trkpt lat="40.785538" lon="-3.984174">
        <ele>2209.9</ele>
        <time>2018-04-21T13:46:04.000Z</time>
      </trkpt>
      <trkpt lat="40.785538" lon="-3.984187">
        <ele>2209.9</ele>
        <time>2018-04-21T13:46:05.000Z</time>
      </trkpt>
      <trkpt lat="40.785537" lon="-3.9842">
        <ele>2209.8</ele>
        <time>2018-04-21T13:46:06.000Z</time>
      </trkpt>
      <trkpt lat="40.785537" lon="-3.984212">
        <ele>2209.7</ele>
        <time>2018-04-21T13:46:07.000Z</time>
      </trkpt>
      <trkpt lat="40.785537" lon="-3.984224">
        <ele>2209.6</ele>
        <time>2018-04-21T13:46:08.000Z</time>
      </trkpt>
      <trkpt lat="40.785536" lon="-3.984236">
        <ele>2209.5</ele>
        <time>2018-04-21T13:46:09.000Z</time>
      </trkpt>
      <trkpt lat="40.785536" lon="-3.984248">
        <ele>2209.5</ele>
        <time>2018-04-21T13:46:10.000Z</time>
      </trkpt>
      <trkpt lat="40.785535" lon="-3.98426">
        <ele>2209.4</ele>
        <time>2018-04-21T13:46:11.000Z</time>
      </trkpt>
      <trkpt lat="40.785535" lon="-3.984272">
        <ele>2209.3</ele>
        <time>2018-04-21T13:46:12.000Z</time>
      </trkpt>
      <trkpt lat="40.785534" lon="-3.984285">
        <ele>2209.2</ele>
        <time>2018-04-21T13:46:13.000Z</time>
      </trkpt>
      <trkpt lat="40.785534" lon="-3.984299">
        <ele>2209.1</ele>
        <time>2018-04-21T13:46:14.000Z</time>
      </trkpt>
      <trkpt lat="40.785534" lon="-3.984313">
        <ele>2209.1</ele>
        <time>2018-04-21T13:46:15.000Z</time>
      </trkpt>
      <trkpt lat="40.785533" lon="-3.984329">
        <ele>2209.0</ele>
        <time>2018-04-21T13:46:16.000Z</time>
      </trkpt>
      <trkpt lat="40.785534" lon="-3.984346">
        <ele>2208.9</ele>
        <time>2018-04-21T13:46:17.000Z</time>
      </trkpt>
      <trkpt lat="40.785534" lon="-3.984363">
        <ele>2208.8</ele>
        <time>2018-04-21T13:46:18.000Z</time>
      </trkpt>
      <trkpt lat="40.785534" lon="-3.98438">
        <ele>2208.7</ele>
        <time>2018-04-21T13:46:19.000Z</time>
      </trkpt>
      <trkpt lat="40.785535" lon="-3.984397">
        <ele>2208.6</ele>
        <time>2018-04-21T13:46:20.000Z</time>
      </trkpt>
      <trkpt lat="40.785536" lon="-3.984413">
        <ele>2208.5</ele>
        <time>2018-04-21T13:46:21.000Z</time>
      </trkpt>
      <trkpt lat="40.785537" lon="-3.984428">
        <ele>2208.5</ele>
        <time>2018-04-21T13:46:22.000Z</time>
      </trkpt>
      <trkpt lat="40.785539" lon="-3.984442">
        <ele>2208.4</ele>
        <time>2018-04-21T13:46:23.000Z</time>
      </trkpt>
      <trkpt lat="40.78554" lon="-3.984454">
        <ele>2208.4</ele>
        <time>2018-04-21T13:46:24.000Z</time>
      </trkpt>
      <trkpt lat="40.785541" lon="-3.984466">
        <ele>2208.3</ele>
        <time>2018-04-21T13:46:25.000Z</time>
      </trkpt>
      <trkpt lat="40.785542" lon="-3.984477">
        <ele>2208.3</ele>
        <time>2018-04-21T13:46:26.000Z</time>
      </trkpt>
      <trkpt lat="40.785543" lon="-3.984487">
        <ele>2208.3</ele>
        <time>2018-04-21T13:46:27.000Z</time>
      </trkpt>
      <trkpt lat="40.785543" lon="-3.984498">
        <ele>2208.2</ele>
        <time>2018-04-21T13:46:28.000Z</time>
      </trkpt>
      <trkpt lat="40.785541" lon="-3.984508">
        <ele>2208.1</ele>
        <time>2018-04-21T13:46:29.000Z</time>
      </trkpt>
      <trkpt lat="40.785539" lon="-3.984519">
        <ele>2208.0</ele>
        <time>2018-04-21T13:46:30.000Z</time>
      </trkpt>
      <trkpt lat="40.785536" lon="-3.98453">
        <ele>2207.9</ele>
        <time>2018-04-21T13:46:31.000Z</time>
      </trkpt>
      <trkpt lat="40.785532" lon="-3.984542">
        <ele>2207.7</ele>
        <time>2018-04-21T13:46:32.000Z</time>
      </trkpt>
      <trkpt lat="40.785528" lon="-3.984553">
        <ele>2207.6</ele>
        <time>2018-04-21T13:46:33.000Z</time>
      </trkpt>
      <trkpt lat="40.785524" lon="-3.984565">
        <ele>2207.4</ele>
        <time>2018-04-21T13:46:34.000Z</time>
      </trkpt>
      <trkpt lat="40.78552" lon="-3.984578">
        <ele>2207.3</ele>
        <time>2018-04-21T13:46:35.000Z</time>
      </trkpt>
      <trkpt lat="40.785516" lon="-3.98459">
        <ele>2207.1</ele>
        <time>2018-04-21T13:46:36.000Z</time>
      </trkpt>
      <trkpt lat="40.785514" lon="-3.984602">
        <ele>2207.0</ele>
        <time>2018-04-21T13:46:37.000Z</time>
      </trkpt>
      <trkpt lat="40.785512" lon="-3.984614">
        <ele>2206.9</ele>
        <time>2018-04-21T13:46:38.000Z</time>
      </trkpt>
      <trkpt lat="40.78551" lon="-3.984627">
        <ele>2206.8</ele>
        <time>2018-04-21T13:46:39.000Z</time>
      </trkpt>
      <trkpt lat="40.785509" lon="-3.98464">
        <ele>2206.7</ele>
        <time>2018-04-21T13:46:40.000Z</time>
      </trkpt>
      <trkpt lat="40.785508" lon="-3.984652">
        <ele>2206.6</ele>
        <time>2018-04-21T13:46:41.000Z</time>
      </trkpt>
      <trkpt lat="40.785507" lon="-3.984665">
        <ele>2206.5</ele>
        <time>2018-04-21T13:46:42.000Z</time>
      </trkpt>
      <trkpt lat="40.785506" lon="-3.984678">
        <ele>2206.4</ele>
        <time>2018-04-21T13:46:43.000Z</time>
      </trkpt>
      <trkpt lat="40.785505" lon="-3.984691">
        <ele>2206.3</ele>
        <time>2018-04-21T13:46:44.000Z</time>
      </trkpt>
      <trkpt lat="40.785504" lon="-3.984704">
        <ele>2206.2</ele>
        <time>2018-04-21T13:46:45.000Z</time>
      </trkpt>
      <trkpt lat="40.785502" lon="-3.984718">
        <ele>2206.1</ele>
        <time>2018-04-21T13:46:46.000Z</time>
      </trkpt>
      <trkpt lat="40.7855" lon="-3.984732">
        <ele>2205.9</ele>
        <time>2018-04-21T13:46:47.000Z</time>
      </trkpt>
      <trkpt lat="40.785499" lon="-3.984746">
        <ele>2205.8</ele>
        <time>2018-04-21T13:46:48.000Z</time>
      </trkpt>
      <trkpt lat="40.785497" lon="-3.98476">
        <ele>2205.7</ele>
        <time>2018-04-21T13:46:49.000Z</time>
      </trkpt>
      <trkpt lat="40.785496" lon="-3.984775">
        <ele>2205.6</ele>
        <time>2018-04-21T13:46:50.000Z</time>
      </trkpt>
      <trkpt lat="40.785495" lon="-3.984791">
        <ele>2205.5</ele>
        <time>2018-04-21T13:46:51.000Z</time>
      </trkpt>
      <trkpt lat="40.785495" lon="-3.984807">
        <ele>2205.4</ele>
        <time>2018-04-21T13:46:52.000Z</time>
      </trkpt>
      <trkpt lat="40.785495" lon="-3.984823">
        <ele>2205.3</ele>
        <time>2018-04-21T13:46:53.000Z</time>
      </trkpt>
      <trkpt lat="40.785495" lon="-3.98484">
        <ele>2205.2</ele>
        <time>2018-04-21T13:46:54.000Z</time>
      </trkpt>
      <trkpt lat="40.785496" lon="-3.984857">
        <ele>2205.1</ele>
        <time>2018-04-21T13:46:55.000Z</time>
      </trkpt>
      <trkpt lat="40.785497" lon="-3.984874">
        <ele>2205.1</ele>
        <time>2018-04-21T13:46:56.000Z</time>
      </trkpt>
      <trkpt lat="40.785499" lon="-3.984891">
        <ele>2205.0</ele>
        <time>2018-04-21T13:46:57.000Z</time>
      </trkpt>
      <trkpt lat="40.7855" lon="-3.984909">
        <ele>2204.9</ele>
        <time>2018-04-21T13:46:58.000Z</time>
      </trkpt>
      <trkpt lat="40.785502" lon="-3.984925">
        <ele>2204.9</ele>
        <time>2018-04-21T13:46:59.000Z</time>
      </trkpt>
      <trkpt lat="40.785503" lon="-3.984942">
        <ele>2204.8</ele>
        <time>2018-04-21T13:47:00.000Z</time>
      </trkpt>
      <trkpt lat="40.785504" lon="-3.984958">
        <ele>2204.7</ele>
        <time>2018-04-21T13:47:01.000Z</time>
      </trkpt>
      <trkpt lat="40.785506" lon="-3.984974">
        <ele>2204.7</ele>
        <time>2018-04-21T13:47:02.000Z</time>
      </trkpt>
      <trkpt lat="40.785506" lon="-3.984989">
        <ele>2204.6</ele>
        <time>2018-04-21T13:47:03.000Z</time>
      </trkpt>
      <trkpt lat="40.785507" lon="-3.985003">
        <ele>2204.5</ele>
        <time>2018-04-21T13:47:04.000Z</time>
      </trkpt>
      <trkpt lat="40.785507" lon="-3.985016">
        <ele>2204.3</ele>
        <time>2018-04-21T13:47:05.000Z</time>
      </trkpt>
      <trkpt lat="40.785507" lon="-3.985029">
        <ele>2204.1</ele>
        <time>2018-04-21T13:47:06.000Z</time>
      </trkpt>
      <trkpt lat="40.785507" lon="-3.98504">
        <ele>2203.9</ele>
        <time>2018-04-21T13:47:07.000Z</time>
      </trkpt>
      <trkpt lat="40.785506" lon="-3.985051">
        <ele>2203.7</ele>
        <time>2018-04-21T13:47:08.000Z</time>
      </trkpt>
      <trkpt lat="40.785504" lon="-3.985062">
        <ele>2203.5</ele>
        <time>2018-04-21T13:47:09.000Z</time>
      </trkpt>
      <trkpt lat="40.785503" lon="-3.985073">
        <ele>2203.3</ele>
        <time>2018-04-21T13:47:10.000Z</time>
      </trkpt>
      <trkpt lat="40.785502" lon="-3.985083">
        <ele>2203.1</ele>
        <time>2018-04-21T13:47:11.000Z</time>
      </trkpt>
      <trkpt lat="40.7855" lon="-3.985094">
        <ele>2202.9</ele>
        <time>2018-04-21T13:47:12.000Z</time>
      </trkpt>
      <trkpt lat="40.785499" lon="-3.985106">
        <ele>2202.7</ele>
        <time>2018-04-21T13:47:13.000Z</time>
      </trkpt>
      <trkpt lat="40.785498" lon="-3.985119">
        <ele>2202.5</ele>
        <time>2018-04-21T13:47:14.000Z</time>
      </trkpt>
      <trkpt lat="40.785496" lon="-3.985132">
        <ele>2202.3</ele>
        <time>2018-04-21T13:47:15.000Z</time>
      </trkpt>
      <trkpt lat="40.785495" lon="-3.985146">
        <ele>2202.0</ele>
        <time>2018-04-21T13:47:16.000Z</time>
      </trkpt>
      <trkpt lat="40.785494" lon="-3.98516">
        <ele>2201.8</ele>
        <time>2018-04-21T13:47:17.000Z</time>
      </trkpt>
      <trkpt lat="40.785492" lon="-3.985175">
        <ele>2201.5</ele>
        <time>2018-04-21T13:47:18.000Z</time>
      </trkpt>
      <trkpt lat="40.78549" lon="-3.98519">
        <ele>2201.2</ele>
        <time>2018-04-21T13:47:19.000Z</time>
      </trkpt>
      <trkpt lat="40.785488" lon="-3.985205">
        <ele>2200.9</ele>
        <time>2018-04-21T13:47:20.000Z</time>
      </trkpt>
      <trkpt lat="40.785486" lon="-3.985221">
        <ele>2200.7</ele>
        <time>2018-04-21T13:47:21.000Z</time>
      </trkpt>
      <trkpt lat="40.785483" lon="-3.985236">
        <ele>2200.4</ele>
        <time>2018-04-21T13:47:22.000Z</time>
      </trkpt>
      <trkpt lat="40.78548" lon="-3.985251">
        <ele>2200.1</ele>
        <time>2018-04-21T13:47:23.000Z</time>
      </trkpt>
      <trkpt lat="40.785477" lon="-3.985267">
        <ele>2199.8</ele>
        <time>2018-04-21T13:47:24.000Z</time>
      </trkpt>
      <trkpt lat="40.785474" lon="-3.985282">
        <ele>2199.5</ele>
        <time>2018-04-21T13:47:25.000Z</time>
      </trkpt>
      <trkpt lat="40.78547" lon="-3.985297">
        <ele>2199.1</ele>
        <time>2018-04-21T13:47:26.000Z</time>
      </trkpt>
      <trkpt lat="40.785467" lon="-3.985313">
        <ele>2198.8</ele>
        <time>2018-04-21T13:47:27.000Z</time>
      </trkpt>
      <trkpt lat="40.785463" lon="-3.985328">
        <ele>2198.5</ele>
        <time>2018-04-21T13:47:28.000Z</time>
      </trkpt>
      <trkpt lat="40.785459" lon="-3.985343">
        <ele>2198.2</ele>
        <time>2018-04-21T13:47:29.000Z</time>
      </trkpt>
      <trkpt lat="40.785455" lon="-3.985357">
        <ele>2197.9</ele>
        <time>2018-04-21T13:47:30.000Z</time>
      </trkpt>
      <trkpt lat="40.785451" lon="-3.985372">
        <ele>2197.6</ele>
        <time>2018-04-21T13:47:31.000Z</time>
      </trkpt>
      <trkpt lat="40.785448" lon="-3.985386">
        <ele>2197.3</ele>
        <time>2018-04-21T13:47:32.000Z</time>
      </trkpt>
      <trkpt lat="40.785444" lon="-3.985401">
        <ele>2197.0</ele>
        <time>2018-04-21T13:47:33.000Z</time>
      </trkpt>
      <trkpt lat="40.785441" lon="-3.985415">
        <ele>2196.8</ele>
        <time>2018-04-21T13:47:34.000Z</time>
      </trkpt>
      <trkpt lat="40.785437" lon="-3.985428">
        <ele>2196.5</ele>
        <time>2018-04-21T13:47:35.000Z</time>
      </trkpt>
      <trkpt lat="40.785434" lon="-3.985442">
        <ele>2196.2</ele>
        <time>2018-04-21T13:47:36.000Z</time>
      </trkpt>
      <trkpt lat="40.785431" lon="-3.985455">
        <ele>2196.0</ele>
        <time>2018-04-21T13:47:37.000Z</time>
      </trkpt>
      <trkpt lat="40.785429" lon="-3.985468">
        <ele>2195.7</ele>
        <time>2018-04-21T13:47:38.000Z</time>
      </trkpt>
      <trkpt lat="40.785426" lon="-3.985481">
        <ele>2195.5</ele>
        <time>2018-04-21T13:47:39.000Z</time>
      </trkpt>
      <trkpt lat="40.785424" lon="-3.985493">
        <ele>2195.2</ele>
        <time>2018-04-21T13:47:40.000Z</time>
      </trkpt>
      <trkpt lat="40.785421" lon="-3.985505">
        <ele>2195.0</ele>
        <time>2018-04-21T13:47:41.000Z</time>
      </trkpt>
      <trkpt lat="40.785419" lon="-3.985518">
        <ele>2194.8</ele>
        <time>2018-04-21T13:47:42.000Z</time>
      </trkpt>
      <trkpt lat="40.785417" lon="-3.98553">
        <ele>2194.6</ele>
        <time>2018-04-21T13:47:43.000Z</time>
      </trkpt>
      <trkpt lat="40.785415" lon="-3.985542">
        <ele>2194.3</ele>
        <time>2018-04-21T13:47:44.000Z</time>
      </trkpt>
      <trkpt lat="40.785413" lon="-3.985554">
        <ele>2194.1</ele>
        <time>2018-04-21T13:47:45.000Z</time>
      </trkpt>
      <trkpt lat="40.785412" lon="-3.985566">
        <ele>2193.9</ele>
        <time>2018-04-21T13:47:46.000Z</time>
      </trkpt>
      <trkpt lat="40.78541" lon="-3.985578">
        <ele>2193.7</ele>
        <time>2018-04-21T13:47:47.000Z</time>
      </trkpt>
      <trkpt lat="40.785408" lon="-3.985589">
        <ele>2193.5</ele>
        <time>2018-04-21T13:47:48.000Z</time>
      </trkpt>
      <trkpt lat="40.785407" lon="-3.985601">
        <ele>2193.3</ele>
        <time>2018-04-21T13:47:49.000Z</time>
      </trkpt>
      <trkpt lat="40.785405" lon="-3.985613">
        <ele>2193.1</ele>
        <time>2018-04-21T13:47:50.000Z</time>
      </trkpt>
      <trkpt lat="40.785404" lon="-3.985625">
        <ele>2192.9</ele>
        <time>2018-04-21T13:47:51.000Z</time>
      </trkpt>
      <trkpt lat="40.785402" lon="-3.985637">
        <ele>2192.7</ele>
        <time>2018-04-21T13:47:52.000Z</time>
      </trkpt>
      <trkpt lat="40.785401" lon="-3.985649">
        <ele>2192.5</ele>
        <time>2018-04-21T13:47:53.000Z</time>
      </trkpt>
      <trkpt lat="40.7854" lon="-3.985661">
        <ele>2192.3</ele>
        <time>2018-04-21T13:47:54.000Z</time>
      </trkpt>
      <trkpt lat="40.785398" lon="-3.985673">
        <ele>2192.1</ele>
        <time>2018-04-21T13:47:55.000Z</time>
      </trkpt>
      <trkpt lat="40.785397" lon="-3.985685">
        <ele>2191.9</ele>
        <time>2018-04-21T13:47:56.000Z</time>
      </trkpt>
      <trkpt lat="40.785396" lon="-3.985697">
        <ele>2191.7</ele>
        <time>2018-04-21T13:47:57.000Z</time>
      </trkpt>
      <trkpt lat="40.785394" lon="-3.98571">
        <ele>2191.4</ele>
        <time>2018-04-21T13:47:58.000Z</time>
      </trkpt>
      <trkpt lat="40.785393" lon="-3.985723">
        <ele>2191.2</ele>
        <time>2018-04-21T13:47:59.000Z</time>
      </trkpt>
      <trkpt lat="40.785392" lon="-3.985736">
        <ele>2191.0</ele>
        <time>2018-04-21T13:48:00.000Z</time>
      </trkpt>
      <trkpt lat="40.78539" lon="-3.985749">
        <ele>2190.8</ele>
        <time>2018-04-21T13:48:01.000Z</time>
      </trkpt>
      <trkpt lat="40.785389" lon="-3.985762">
        <ele>2190.6</ele>
        <time>2018-04-21T13:48:02.000Z</time>
      </trkpt>
      <trkpt lat="40.785387" lon="-3.985776">
        <ele>2190.3</ele>
        <time>2018-04-21T13:48:03.000Z</time>
      </trkpt>
      <trkpt lat="40.785386" lon="-3.98579">
        <ele>2190.1</ele>
        <time>2018-04-21T13:48:04.000Z</time>
      </trkpt>
      <trkpt lat="40.785384" lon="-3.985804">
        <ele>2189.9</ele>
        <time>2018-04-21T13:48:05.000Z</time>
      </trkpt>
      <trkpt lat="40.785382" lon="-3.985819">
        <ele>2189.6</ele>
        <time>2018-04-21T13:48:06.000Z</time>
      </trkpt>
      <trkpt lat="40.78538" lon="-3.985833">
        <ele>2189.4</ele>
        <time>2018-04-21T13:48:07.000Z</time>
      </trkpt>
      <trkpt lat="40.785379" lon="-3.985848">
        <ele>2189.1</ele>
        <time>2018-04-21T13:48:08.000Z</time>
      </trkpt>
      <trkpt lat="40.785377" lon="-3.985863">
        <ele>2188.9</ele>
        <time>2018-04-21T13:48:09.000Z</time>
      </trkpt>
      <trkpt lat="40.785375" lon="-3.985878">
        <ele>2188.6</ele>
        <time>2018-04-21T13:48:10.000Z</time>
      </trkpt>
      <trkpt lat="40.785373" lon="-3.985894">
        <ele>2188.4</ele>
        <time>2018-04-21T13:48:11.000Z</time>
      </trkpt>
      <trkpt lat="40.785371" lon="-3.985909">
        <ele>2188.1</ele>
        <time>2018-04-21T13:48:12.000Z</time>
      </trkpt>
      <trkpt lat="40.78537" lon="-3.985924">
        <ele>2187.9</ele>
        <time>2018-04-21T13:48:13.000Z</time>
      </trkpt>
      <trkpt lat="40.785368" lon="-3.985939">
        <ele>2187.6</ele>
        <time>2018-04-21T13:48:14.000Z</time>
      </trkpt>
      <trkpt lat="40.785367" lon="-3.985954">
        <ele>2187.4</ele>
        <time>2018-04-21T13:48:15.000Z</time>
      </trkpt>
      <trkpt lat="40.785365" lon="-3.985969">
        <ele>2187.1</ele>
        <time>2018-04-21T13:48:16.000Z</time>
      </trkpt>
      <trkpt lat="40.785364" lon="-3.985984">
        <ele>2186.9</ele>
        <time>2018-04-21T13:48:17.000Z</time>
      </trkpt>
      <trkpt lat="40.785363" lon="-3.985999">
        <ele>2186.6</ele>
        <time>2018-04-21T13:48:18.000Z</time>
      </trkpt>
      <trkpt lat="40.785362" lon="-3.986013">
        <ele>2186.4</ele>
        <time>2018-04-21T13:48:19.000Z</time>
      </trkpt>
      <trkpt lat="40.785361" lon="-3.986027">
        <ele>2186.2</ele>
        <time>2018-04-21T13:48:20.000Z</time>
      </trkpt>
      <trkpt lat="40.785361" lon="-3.986041">
        <ele>2186.0</ele>
        <time>2018-04-21T13:48:21.000Z</time>
      </trkpt>
      <trkpt lat="40.78536" lon="-3.986054">
        <ele>2185.8</ele>
        <time>2018-04-21T13:48:22.000Z</time>
      </trkpt>
      <trkpt lat="40.78536" lon="-3.986068">
        <ele>2185.5</ele>
        <time>2018-04-21T13:48:23.000Z</time>
      </trkpt>
      <trkpt lat="40.78536" lon="-3.986081">
        <ele>2185.4</ele>
        <time>2018-04-21T13:48:24.000Z</time>
      </trkpt>
      <trkpt lat="40.78536" lon="-3.986094">
        <ele>2185.2</ele>
        <time>2018-04-21T13:48:25.000Z</time>
      </trkpt>
      <trkpt lat="40.785361" lon="-3.986108">
        <ele>2185.0</ele>
        <time>2018-04-21T13:48:26.000Z</time>
      </trkpt>
      <trkpt lat="40.785361" lon="-3.986121">
        <ele>2184.8</ele>
        <time>2018-04-21T13:48:27.000Z</time>
      </trkpt>
      <trkpt lat="40.785362" lon="-3.986134">
        <ele>2184.6</ele>
        <time>2018-04-21T13:48:28.000Z</time>
      </trkpt>
      <trkpt lat="40.785363" lon="-3.986148">
        <ele>2184.4</ele>
        <time>2018-04-21T13:48:29.000Z</time>
      </trkpt>
      <trkpt lat="40.785364" lon="-3.986161">
        <ele>2184.2</ele>
        <time>2018-04-21T13:48:30.000Z</time>
      </trkpt>
      <trkpt lat="40.785365" lon="-3.986175">
        <ele>2184.0</ele>
        <time>2018-04-21T13:48:31.000Z</time>
      </trkpt>
      <trkpt lat="40.785366" lon="-3.986189">
        <ele>2183.8</ele>
        <time>2018-04-21T13:48:32.000Z</time>
      </trkpt>
      <trkpt lat="40.785367" lon="-3.986203">
        <ele>2183.6</ele>
        <time>2018-04-21T13:48:33.000Z</time>
      </trkpt>
      <trkpt lat="40.785369" lon="-3.986218">
        <ele>2183.5</ele>
        <time>2018-04-21T13:48:34.000Z</time>
      </trkpt>
      <trkpt lat="40.785371" lon="-3.986233">
        <ele>2183.3</ele>
        <time>2018-04-21T13:48:35.000Z</time>
      </trkpt>
      <trkpt lat="40.785372" lon="-3.986248">
        <ele>2183.1</ele>
        <time>2018-04-21T13:48:36.000Z</time>
      </trkpt>
      <trkpt lat="40.785374" lon="-3.986263">
        <ele>2182.9</ele>
        <time>2018-04-21T13:48:37.000Z</time>
      </trkpt>
      <trkpt lat="40.785376" lon="-3.986279">
        <ele>2182.7</ele>
        <time>2018-04-21T13:48:38.000Z</time>
      </trkpt>
      <trkpt lat="40.785377" lon="-3.986294">
        <ele>2182.4</ele>
        <time>2018-04-21T13:48:39.000Z</time>
      </trkpt>
      <trkpt lat="40.785378" lon="-3.986309">
        <ele>2182.2</ele>
        <time>2018-04-21T13:48:40.000Z</time>
      </trkpt>
      <trkpt lat="40.785379" lon="-3.986324">
        <ele>2182.0</ele>
        <time>2018-04-21T13:48:41.000Z</time>
      </trkpt>
      <trkpt lat="40.78538" lon="-3.986339">
        <ele>2181.8</ele>
        <time>2018-04-21T13:48:42.000Z</time>
      </trkpt>
      <trkpt lat="40.78538" lon="-3.986354">
        <ele>2181.6</ele>
        <time>2018-04-21T13:48:43.000Z</time>
      </trkpt>
      <trkpt lat="40.785381" lon="-3.986369">
        <ele>2181.4</ele>
        <time>2018-04-21T13:48:44.000Z</time>
      </trkpt>
      <trkpt lat="40.785381" lon="-3.986384">
        <ele>2181.2</ele>
        <time>2018-04-21T13:48:45.000Z</time>
      </trkpt>
      <trkpt lat="40.785381" lon="-3.986398">
        <ele>2181.0</ele>
        <time>2018-04-21T13:48:46.000Z</time>
      </trkpt>
      <trkpt lat="40.785381" lon="-3.986412">
        <ele>2180.8</ele>
        <time>2018-04-21T13:48:47.000Z</time>
      </trkpt>
      <trkpt lat="40.785382" lon="-3.986427">
        <ele>2180.5</ele>
        <time>2018-04-21T13:48:48.000Z</time>
      </trkpt>
      <trkpt lat="40.785382" lon="-3.986441">
        <ele>2180.3</ele>
        <time>2018-04-21T13:48:49.000Z</time>
      </trkpt>
      <trkpt lat="40.785383" lon="-3.986455">
        <ele>2180.1</ele>
        <time>2018-04-21T13:48:50.000Z</time>
      </trkpt>
      <trkpt lat="40.785384" lon="-3.986468">
        <ele>2180.0</ele>
        <time>2018-04-21T13:48:51.000Z</time>
      </trkpt>
      <trkpt lat="40.785386" lon="-3.986482">
        <ele>2179.8</ele>
        <time>2018-04-21T13:48:52.000Z</time>
      </trkpt>
      <trkpt lat="40.785387" lon="-3.986496">
        <ele>2179.6</ele>
        <time>2018-04-21T13:48:53.000Z</time>
      </trkpt>
      <trkpt lat="40.785388" lon="-3.986509">
        <ele>2179.4</ele>
        <time>2018-04-21T13:48:54.000Z</time>
      </trkpt>
      <trkpt lat="40.78539" lon="-3.986523">
        <ele>2179.2</ele>
        <time>2018-04-21T13:48:55.000Z</time>
      </trkpt>
      <trkpt lat="40.785391" lon="-3.986537">
        <ele>2179.0</ele>
        <time>2018-04-21T13:48:56.000Z</time>
      </trkpt>
      <trkpt lat="40.785393" lon="-3.98655">
        <ele>2178.9</ele>
        <time>2018-04-21T13:48:57.000Z</time>
      </trkpt>
      <trkpt lat="40.785394" lon="-3.986564">
        <ele>2178.7</ele>
        <time>2018-04-21T13:48:58.000Z</time>
      </trkpt>
      <trkpt lat="40.785395" lon="-3.986577">
        <ele>2178.5</ele>
        <time>2018-04-21T13:48:59.000Z</time>
      </trkpt>
      <trkpt lat="40.785397" lon="-3.986591">
        <ele>2178.3</ele>
        <time>2018-04-21T13:49:00.000Z</time>
      </trkpt>
      <trkpt lat="40.785397" lon="-3.986604">
        <ele>2178.1</ele>
        <time>2018-04-21T13:49:01.000Z</time>
      </trkpt>
      <trkpt lat="40.785398" lon="-3.986618">
        <ele>2177.9</ele>
        <time>2018-04-21T13:49:02.000Z</time>
      </trkpt>
      <trkpt lat="40.785398" lon="-3.986632">
        <ele>2177.7</ele>
        <time>2018-04-21T13:49:03.000Z</time>
      </trkpt>
      <trkpt lat="40.785399" lon="-3.986645">
        <ele>2177.5</ele>
        <time>2018-04-21T13:49:04.000Z</time>
      </trkpt>
      <trkpt lat="40.785399" lon="-3.986659">
        <ele>2177.3</ele>
        <time>2018-04-21T13:49:05.000Z</time>
      </trkpt>
      <trkpt lat="40.785399" lon="-3.986672">
        <ele>2177.1</ele>
        <time>2018-04-21T13:49:06.000Z</time>
      </trkpt>
      <trkpt lat="40.7854" lon="-3.986686">
        <ele>2176.9</ele>
        <time>2018-04-21T13:49:07.000Z</time>
      </trkpt>
      <trkpt lat="40.785401" lon="-3.986699">
        <ele>2176.8</ele>
        <time>2018-04-21T13:49:08.000Z</time>
      </trkpt>
      <trkpt lat="40.785402" lon="-3.986711">
        <ele>2176.6</ele>
        <time>2018-04-21T13:49:09.000Z</time>
      </trkpt>
      <trkpt lat="40.785404" lon="-3.986724">
        <ele>2176.4</ele>
        <time>2018-04-21T13:49:10.000Z</time>
      </trkpt>
      <trkpt lat="40.785406" lon="-3.986736">
        <ele>2176.3</ele>
        <time>2018-04-21T13:49:11.000Z</time>
      </trkpt>
      <trkpt lat="40.785409" lon="-3.986747">
        <ele>2176.1</ele>
        <time>2018-04-21T13:49:12.000Z</time>
      </trkpt>
      <trkpt lat="40.785412" lon="-3.986758">
        <ele>2176.0</ele>
        <time>2018-04-21T13:49:13.000Z</time>
      </trkpt>
      <trkpt lat="40.785415" lon="-3.986768">
        <ele>2175.9</ele>
        <time>2018-04-21T13:49:14.000Z</time>
      </trkpt>
      <trkpt lat="40.785418" lon="-3.986777">
        <ele>2175.8</ele>
        <time>2018-04-21T13:49:15.000Z</time>
      </trkpt>
      <trkpt lat="40.78542" lon="-3.986786">
        <ele>2175.7</ele>
        <time>2018-04-21T13:49:16.000Z</time>
      </trkpt>
      <trkpt lat="40.785421" lon="-3.986793">
        <ele>2175.6</ele>
        <time>2018-04-21T13:49:17.000Z</time>
      </trkpt>
      <trkpt lat="40.785422" lon="-3.986799">
        <ele>2175.5</ele>
        <time>2018-04-21T13:49:18.000Z</time>
      </trkpt>
      <trkpt lat="40.785421" lon="-3.986805">
        <ele>2175.4</ele>
        <time>2018-04-21T13:49:19.000Z</time>
      </trkpt>
      <trkpt lat="40.785419" lon="-3.986812">
        <ele>2175.3</ele>
        <time>2018-04-21T13:49:20.000Z</time>
      </trkpt>
      <trkpt lat="40.785417" lon="-3.986822">
        <ele>2175.1</ele>
        <time>2018-04-21T13:49:21.000Z</time>
      </trkpt>
      <trkpt lat="40.785414" lon="-3.986834">
        <ele>2174.9</ele>
        <time>2018-04-21T13:49:22.000Z</time>
      </trkpt>
      <trkpt lat="40.785411" lon="-3.986848">
        <ele>2174.6</ele>
        <time>2018-04-21T13:49:23.000Z</time>
      </trkpt>
      <trkpt lat="40.785406" lon="-3.986862">
        <ele>2174.3</ele>
        <time>2018-04-21T13:49:24.000Z</time>
      </trkpt>
      <trkpt lat="40.785401" lon="-3.986876">
        <ele>2174.0</ele>
        <time>2018-04-21T13:49:25.000Z</time>
      </trkpt>
      <trkpt lat="40.785396" lon="-3.986889">
        <ele>2173.7</ele>
        <time>2018-04-21T13:49:26.000Z</time>
      </trkpt>
      <trkpt lat="40.785392" lon="-3.986902">
        <ele>2173.5</ele>
        <time>2018-04-21T13:49:27.000Z</time>
      </trkpt>
      <trkpt lat="40.78539" lon="-3.986915">
        <ele>2173.2</ele>
        <time>2018-04-21T13:49:28.000Z</time>
      </trkpt>
      <trkpt lat="40.785393" lon="-3.98693">
        <ele>2173.1</ele>
        <time>2018-04-21T13:49:29.000Z</time>
      </trkpt>
      <trkpt lat="40.785397" lon="-3.986947">
        <ele>2172.9</ele>
        <time>2018-04-21T13:49:30.000Z</time>
      </trkpt>
      <trkpt lat="40.785402" lon="-3.986964">
        <ele>2172.7</ele>
        <time>2018-04-21T13:49:31.000Z</time>
      </trkpt>
      <trkpt lat="40.785406" lon="-3.986981">
        <ele>2172.4</ele>
        <time>2018-04-21T13:49:32.000Z</time>
      </trkpt>
      <trkpt lat="40.785409" lon="-3.987">
        <ele>2172.2</ele>
        <time>2018-04-21T13:49:33.000Z</time>
      </trkpt>
      <trkpt lat="40.785411" lon="-3.987018">
        <ele>2171.9</ele>
        <time>2018-04-21T13:49:34.000Z</time>
      </trkpt>
      <trkpt lat="40.785412" lon="-3.987037">
        <ele>2171.7</ele>
        <time>2018-04-21T13:49:35.000Z</time>
      </trkpt>
      <trkpt lat="40.785413" lon="-3.987056">
        <ele>2171.4</ele>
        <time>2018-04-21T13:49:36.000Z</time>
      </trkpt>
      <trkpt lat="40.785414" lon="-3.987075">
        <ele>2171.1</ele>
        <time>2018-04-21T13:49:37.000Z</time>
      </trkpt>
      <trkpt lat="40.785414" lon="-3.987095">
        <ele>2170.8</ele>
        <time>2018-04-21T13:49:38.000Z</time>
      </trkpt>
      <trkpt lat="40.785414" lon="-3.987114">
        <ele>2170.5</ele>
        <time>2018-04-21T13:49:39.000Z</time>
      </trkpt>
      <trkpt lat="40.785414" lon="-3.987132">
        <ele>2170.2</ele>
        <time>2018-04-21T13:49:40.000Z</time>
      </trkpt>
      <trkpt lat="40.785414" lon="-3.98715">
        <ele>2169.9</ele>
        <time>2018-04-21T13:49:41.000Z</time>
      </trkpt>
      <trkpt lat="40.785415" lon="-3.987167">
        <ele>2169.7</ele>
        <time>2018-04-21T13:49:42.000Z</time>
      </trkpt>
      <trkpt lat="40.785415" lon="-3.987183">
        <ele>2169.4</ele>
        <time>2018-04-21T13:49:43.000Z</time>
      </trkpt>
      <trkpt lat="40.785415" lon="-3.987196">
        <ele>2169.2</ele>
        <time>2018-04-21T13:49:44.000Z</time>
      </trkpt>
      <trkpt lat="40.785416" lon="-3.987207">
        <ele>2169.1</ele>
        <time>2018-04-21T13:49:45.000Z</time>
      </trkpt>
      <trkpt lat="40.785416" lon="-3.987215">
        <ele>2168.9</ele>
        <time>2018-04-21T13:49:46.000Z</time>
      </trkpt>
      <trkpt lat="40.785416" lon="-3.98722">
        <ele>2168.9</ele>
        <time>2018-04-21T13:49:47.000Z</time>
      </trkpt>
      <trkpt lat="40.785416" lon="-3.987223">
        <ele>2168.8</ele>
        <time>2018-04-21T13:49:48.000Z</time>
      </trkpt>
      <trkpt lat="40.785416" lon="-3.987224">
        <ele>2168.8</ele>
        <time>2018-04-21T13:49:49.000Z</time>
      </trkpt>
      <trkpt lat="40.785417" lon="-3.987224">
        <ele>2168.8</ele>
        <time>2018-04-21T13:49:50.000Z</time>
      </trkpt>
      <trkpt lat="40.785417" lon="-3.987223">
        <ele>2168.8</ele>
        <time>2018-04-21T13:49:51.000Z</time>
      </trkpt>
      <trkpt lat="40.785417" lon="-3.987223">
        <ele>2168.8</ele>
        <time>2018-04-21T13:49:52.000Z</time>
      </trkpt>
      <trkpt lat="40.785417" lon="-3.987224">
        <ele>2168.8</ele>
        <time>2018-04-21T13:49:53.000Z</time>
      </trkpt>
      <trkpt lat="40.785418" lon="-3.987227">
        <ele>2168.8</ele>
        <time>2018-04-21T13:49:54.000Z</time>
      </trkpt>
      <trkpt lat="40.785419" lon="-3.987233">
        <ele>2168.7</ele>
        <time>2018-04-21T13:49:55.000Z</time>
      </trkpt>
      <trkpt lat="40.78542" lon="-3.987241">
        <ele>2168.6</ele>
        <time>2018-04-21T13:49:56.000Z</time>
      </trkpt>
      <trkpt lat="40.785421" lon="-3.987251">
        <ele>2168.4</ele>
        <time>2018-04-21T13:49:57.000Z</time>
      </trkpt>
      <trkpt lat="40.785423" lon="-3.987262">
        <ele>2168.3</ele>
        <time>2018-04-21T13:49:58.000Z</time>
      </trkpt>
      <trkpt lat="40.785424" lon="-3.987275">
        <ele>2168.1</ele>
        <time>2018-04-21T13:49:59.000Z</time>
      </trkpt>
      <trkpt lat="40.785425" lon="-3.987288">
        <ele>2167.9</ele>
        <time>2018-04-21T13:50:00.000Z</time>
      </trkpt>
      <trkpt lat="40.785427" lon="-3.987302">
        <ele>2167.7</ele>
        <time>2018-04-21T13:50:01.000Z</time>
      </trkpt>
      <trkpt lat="40.785428" lon="-3.987315">
        <ele>2167.5</ele>
        <time>2018-04-21T13:50:02.000Z</time>
      </trkpt>
      <trkpt lat="40.785429" lon="-3.987329">
        <ele>2167.3</ele>
        <time>2018-04-21T13:50:03.000Z</time>
      </trkpt>
      <trkpt lat="40.78543" lon="-3.987343">
        <ele>2167.1</ele>
        <time>2018-04-21T13:50:04.000Z</time>
      </trkpt>
      <trkpt lat="40.785431" lon="-3.987357">
        <ele>2166.9</ele>
        <time>2018-04-21T13:50:05.000Z</time>
      </trkpt>
      <trkpt lat="40.785432" lon="-3.98737">
        <ele>2166.7</ele>
        <time>2018-04-21T13:50:06.000Z</time>
      </trkpt>
      <trkpt lat="40.785433" lon="-3.987384">
        <ele>2166.5</ele>
        <time>2018-04-21T13:50:07.000Z</time>
      </trkpt>
      <trkpt lat="40.785433" lon="-3.987397">
        <ele>2166.3</ele>
        <time>2018-04-21T13:50:08.000Z</time>
      </trkpt>
      <trkpt lat="40.785434" lon="-3.987411">
        <ele>2166.1</ele>
        <time>2018-04-21T13:50:09.000Z</time>
      </trkpt>
      <trkpt lat="40.785434" lon="-3.987424">
        <ele>2165.9</ele>
        <time>2018-04-21T13:50:10.000Z</time>
      </trkpt>
      <trkpt lat="40.785435" lon="-3.987438">
        <ele>2165.7</ele>
        <time>2018-04-21T13:50:11.000Z</time>
      </trkpt>
      <trkpt lat="40.785435" lon="-3.987451">
        <ele>2165.5</ele>
        <time>2018-04-21T13:50:12.000Z</time>
      </trkpt>
      <trkpt lat="40.785435" lon="-3.987464">
        <ele>2165.3</ele>
        <time>2018-04-21T13:50:13.000Z</time>
      </trkpt>
      <trkpt lat="40.785435" lon="-3.987477">
        <ele>2165.1</ele>
        <time>2018-04-21T13:50:14.000Z</time>
      </trkpt>
      <trkpt lat="40.785435" lon="-3.987491">
        <ele>2164.8</ele>
        <time>2018-04-21T13:50:15.000Z</time>
      </trkpt>
      <trkpt lat="40.785435" lon="-3.987503">
        <ele>2164.7</ele>
        <time>2018-04-21T13:50:16.000Z</time>
      </trkpt>
      <trkpt lat="40.785435" lon="-3.987516">
        <ele>2164.6</ele>
        <time>2018-04-21T13:50:17.000Z</time>
      </trkpt>
      <trkpt lat="40.785435" lon="-3.987529">
        <ele>2164.5</ele>
        <time>2018-04-21T13:50:18.000Z</time>
      </trkpt>
      <trkpt lat="40.785435" lon="-3.987542">
        <ele>2164.5</ele>
        <time>2018-04-21T13:50:19.000Z</time>
      </trkpt>
      <trkpt lat="40.785434" lon="-3.987554">
        <ele>2164.4</ele>
        <time>2018-04-21T13:50:20.000Z</time>
      </trkpt>
      <trkpt lat="40.785434" lon="-3.987567">
        <ele>2164.3</ele>
        <time>2018-04-21T13:50:21.000Z</time>
      </trkpt>
      <trkpt lat="40.785433" lon="-3.98758">
        <ele>2164.2</ele>
        <time>2018-04-21T13:50:22.000Z</time>
      </trkpt>
      <trkpt lat="40.785433" lon="-3.987592">
        <ele>2164.2</ele>
        <time>2018-04-21T13:50:23.000Z</time>
      </trkpt>
      <trkpt lat="40.785432" lon="-3.987605">
        <ele>2164.1</ele>
        <time>2018-04-21T13:50:24.000Z</time>
      </trkpt>
      <trkpt lat="40.785432" lon="-3.987618">
        <ele>2164.0</ele>
        <time>2018-04-21T13:50:25.000Z</time>
      </trkpt>
      <trkpt lat="40.785431" lon="-3.987631">
        <ele>2164.0</ele>
        <time>2018-04-21T13:50:26.000Z</time>
      </trkpt>
      <trkpt lat="40.785431" lon="-3.987644">
        <ele>2163.9</ele>
        <time>2018-04-21T13:50:27.000Z</time>
      </trkpt>
      <trkpt lat="40.78543" lon="-3.987657">
        <ele>2163.8</ele>
        <time>2018-04-21T13:50:28.000Z</time>
      </trkpt>
      <trkpt lat="40.78543" lon="-3.98767">
        <ele>2163.7</ele>
        <time>2018-04-21T13:50:29.000Z</time>
      </trkpt>
      <trkpt lat="40.785429" lon="-3.987683">
        <ele>2163.6</ele>
        <time>2018-04-21T13:50:30.000Z</time>
      </trkpt>
      <trkpt lat="40.785429" lon="-3.987697">
        <ele>2163.6</ele>
        <time>2018-04-21T13:50:31.000Z</time>
      </trkpt>
      <trkpt lat="40.785428" lon="-3.987711">
        <ele>2163.5</ele>
        <time>2018-04-21T13:50:32.000Z</time>
      </trkpt>
      <trkpt lat="40.785428" lon="-3.987725">
        <ele>2163.4</ele>
        <time>2018-04-21T13:50:33.000Z</time>
      </trkpt>
      <trkpt lat="40.785428" lon="-3.987739">
        <ele>2163.3</ele>
        <time>2018-04-21T13:50:34.000Z</time>
      </trkpt>
      <trkpt lat="40.785428" lon="-3.987753">
        <ele>2163.3</ele>
        <time>2018-04-21T13:50:35.000Z</time>
      </trkpt>
      <trkpt lat="40.785428" lon="-3.987767">
        <ele>2163.2</ele>
        <time>2018-04-21T13:50:36.000Z</time>
      </trkpt>
      <trkpt lat="40.785428" lon="-3.987781">
        <ele>2163.1</ele>
        <time>2018-04-21T13:50:37.000Z</time>
      </trkpt>
      <trkpt lat="40.785428" lon="-3.987796">
        <ele>2163.0</ele>
        <time>2018-04-21T13:50:38.000Z</time>
      </trkpt>
      <trkpt lat="40.785429" lon="-3.98781">
        <ele>2163.0</ele>
        <time>2018-04-21T13:50:39.000Z</time>
      </trkpt>
      <trkpt lat="40.785429" lon="-3.987825">
        <ele>2162.9</ele>
        <time>2018-04-21T13:50:40.000Z</time>
      </trkpt>
      <trkpt lat="40.78543" lon="-3.987839">
        <ele>2162.8</ele>
        <time>2018-04-21T13:50:41.000Z</time>
      </trkpt>
      <trkpt lat="40.785431" lon="-3.987853">
        <ele>2162.8</ele>
        <time>2018-04-21T13:50:42.000Z</time>
      </trkpt>
      <trkpt lat="40.785433" lon="-3.987868">
        <ele>2162.7</ele>
        <time>2018-04-21T13:50:43.000Z</time>
      </trkpt>
      <trkpt lat="40.785435" lon="-3.987882">
        <ele>2162.6</ele>
        <time>2018-04-21T13:50:44.000Z</time>
      </trkpt>
      <trkpt lat="40.785437" lon="-3.987896">
        <ele>2162.6</ele>
        <time>2018-04-21T13:50:45.000Z</time>
      </trkpt>
      <trkpt lat="40.785439" lon="-3.98791">
        <ele>2162.5</ele>
        <time>2018-04-21T13:50:46.000Z</time>
      </trkpt>
      <trkpt lat="40.785441" lon="-3.987924">
        <ele>2162.5</ele>
        <time>2018-04-21T13:50:47.000Z</time>
      </trkpt>
      <trkpt lat="40.785444" lon="-3.987938">
        <ele>2162.4</ele>
        <time>2018-04-21T13:50:48.000Z</time>
      </trkpt>
      <trkpt lat="40.785447" lon="-3.987952">
        <ele>2162.4</ele>
        <time>2018-04-21T13:50:49.000Z</time>
      </trkpt>
      <trkpt lat="40.78545" lon="-3.987966">
        <ele>2162.4</ele>
        <time>2018-04-21T13:50:50.000Z</time>
      </trkpt>
      <trkpt lat="40.785454" lon="-3.987979">
        <ele>2162.3</ele>
        <time>2018-04-21T13:50:51.000Z</time>
      </trkpt>
      <trkpt lat="40.785457" lon="-3.987992">
        <ele>2162.3</ele>
        <time>2018-04-21T13:50:52.000Z</time>
      </trkpt>
      <trkpt lat="40.78546" lon="-3.988005">
        <ele>2162.3</ele>
        <time>2018-04-21T13:50:53.000Z</time>
      </trkpt>
      <trkpt lat="40.785464" lon="-3.988019">
        <ele>2162.2</ele>
        <time>2018-04-21T13:50:54.000Z</time>
      </trkpt>
      <trkpt lat="40.785467" lon="-3.988031">
        <ele>2162.2</ele>
        <time>2018-04-21T13:50:55.000Z</time>
      </trkpt>
      <trkpt lat="40.78547" lon="-3.988044">
        <ele>2162.2</ele>
        <time>2018-04-21T13:50:56.000Z</time>
      </trkpt>
      <trkpt lat="40.785474" lon="-3.988056">
        <ele>2162.2</ele>
        <time>2018-04-21T13:50:57.000Z</time>
      </trkpt>
      <trkpt lat="40.785477" lon="-3.988069">
        <ele>2162.1</ele>
        <time>2018-04-21T13:50:58.000Z</time>
      </trkpt>
      <trkpt lat="40.785479" lon="-3.988081">
        <ele>2162.1</ele>
        <time>2018-04-21T13:50:59.000Z</time>
      </trkpt>
      <trkpt lat="40.785482" lon="-3.988093">
        <ele>2162.1</ele>
        <time>2018-04-21T13:51:00.000Z</time>
      </trkpt>
      <trkpt lat="40.785485" lon="-3.988104">
        <ele>2162.0</ele>
        <time>2018-04-21T13:51:01.000Z</time>
      </trkpt>
      <trkpt lat="40.785487" lon="-3.988116">
        <ele>2162.0</ele>
        <time>2018-04-21T13:51:02.000Z</time>
      </trkpt>
      <trkpt lat="40.785489" lon="-3.988128">
        <ele>2162.0</ele>
        <time>2018-04-21T13:51:03.000Z</time>
      </trkpt>
      <trkpt lat="40.785491" lon="-3.988139">
        <ele>2161.9</ele>
        <time>2018-04-21T13:51:04.000Z</time>
      </trkpt>
      <trkpt lat="40.785493" lon="-3.988151">
        <ele>2161.9</ele>
        <time>2018-04-21T13:51:05.000Z</time>
      </trkpt>
      <trkpt lat="40.785495" lon="-3.988163">
        <ele>2161.8</ele>
        <time>2018-04-21T13:51:06.000Z</time>
      </trkpt>
      <trkpt lat="40.785496" lon="-3.988175">
        <ele>2161.8</ele>
        <time>2018-04-21T13:51:07.000Z</time>
      </trkpt>
      <trkpt lat="40.785498" lon="-3.988187">
        <ele>2161.7</ele>
        <time>2018-04-21T13:51:08.000Z</time>
      </trkpt>
      <trkpt lat="40.7855" lon="-3.988199">
        <ele>2161.7</ele>
        <time>2018-04-21T13:51:09.000Z</time>
      </trkpt>
      <trkpt lat="40.785501" lon="-3.988212">
        <ele>2161.7</ele>
        <time>2018-04-21T13:51:10.000Z</time>
      </trkpt>
      <trkpt lat="40.785503" lon="-3.988226">
        <ele>2161.6</ele>
        <time>2018-04-21T13:51:11.000Z</time>
      </trkpt>
      <trkpt lat="40.785505" lon="-3.988239">
        <ele>2161.6</ele>
        <time>2018-04-21T13:51:12.000Z</time>
      </trkpt>
      <trkpt lat="40.785507" lon="-3.988253">
        <ele>2161.5</ele>
        <time>2018-04-21T13:51:13.000Z</time>
      </trkpt>
      <trkpt lat="40.785509" lon="-3.988268">
        <ele>2161.5</ele>
        <time>2018-04-21T13:51:14.000Z</time>
      </trkpt>
      <trkpt lat="40.785511" lon="-3.988284">
        <ele>2161.4</ele>
        <time>2018-04-21T13:51:15.000Z</time>
      </trkpt>
      <trkpt lat="40.785513" lon="-3.988299">
        <ele>2161.3</ele>
        <time>2018-04-21T13:51:16.000Z</time>
      </trkpt>
      <trkpt lat="40.785515" lon="-3.988316">
        <ele>2161.3</ele>
        <time>2018-04-21T13:51:17.000Z</time>
      </trkpt>
      <trkpt lat="40.785517" lon="-3.988332">
        <ele>2161.2</ele>
        <time>2018-04-21T13:51:18.000Z</time>
      </trkpt>
      <trkpt lat="40.785519" lon="-3.988349">
        <ele>2161.2</ele>
        <time>2018-04-21T13:51:19.000Z</time>
      </trkpt>
      <trkpt lat="40.785521" lon="-3.988365">
        <ele>2161.3</ele>
        <time>2018-04-21T13:51:20.000Z</time>
      </trkpt>
      <trkpt lat="40.785523" lon="-3.988382">
        <ele>2161.3</ele>
        <time>2018-04-21T13:51:21.000Z</time>
      </trkpt>
      <trkpt lat="40.785524" lon="-3.988398">
        <ele>2161.3</ele>
        <time>2018-04-21T13:51:22.000Z</time>
      </trkpt>
      <trkpt lat="40.785525" lon="-3.988414">
        <ele>2161.3</ele>
        <time>2018-04-21T13:51:23.000Z</time>
      </trkpt>
      <trkpt lat="40.785526" lon="-3.988429">
        <ele>2161.4</ele>
        <time>2018-04-21T13:51:24.000Z</time>
      </trkpt>
      <trkpt lat="40.785526" lon="-3.988444">
        <ele>2161.4</ele>
        <time>2018-04-21T13:51:25.000Z</time>
      </trkpt>
      <trkpt lat="40.785526" lon="-3.988458">
        <ele>2161.4</ele>
        <time>2018-04-21T13:51:26.000Z</time>
      </trkpt>
      <trkpt lat="40.785525" lon="-3.988472">
        <ele>2161.4</ele>
        <time>2018-04-21T13:51:27.000Z</time>
      </trkpt>
      <trkpt lat="40.785523" lon="-3.988484">
        <ele>2161.3</ele>
        <time>2018-04-21T13:51:28.000Z</time>
      </trkpt>
      <trkpt lat="40.785521" lon="-3.988495">
        <ele>2161.3</ele>
        <time>2018-04-21T13:51:29.000Z</time>
      </trkpt>
      <trkpt lat="40.785518" lon="-3.988506">
        <ele>2161.3</ele>
        <time>2018-04-21T13:51:30.000Z</time>
      </trkpt>
      <trkpt lat="40.785515" lon="-3.988516">
        <ele>2161.3</ele>
        <time>2018-04-21T13:51:31.000Z</time>
      </trkpt>
      <trkpt lat="40.785511" lon="-3.988525">
        <ele>2161.2</ele>
        <time>2018-04-21T13:51:32.000Z</time>
      </trkpt>
      <trkpt lat="40.785507" lon="-3.988533">
        <ele>2161.2</ele>
        <time>2018-04-21T13:51:33.000Z</time>
      </trkpt>
      <trkpt lat="40.785502" lon="-3.988542">
        <ele>2161.1</ele>
        <time>2018-04-21T13:51:34.000Z</time>
      </trkpt>
      <trkpt lat="40.785498" lon="-3.98855">
        <ele>2161.1</ele>
        <time>2018-04-21T13:51:35.000Z</time>
      </trkpt>
      <trkpt lat="40.785493" lon="-3.988559">
        <ele>2161.0</ele>
        <time>2018-04-21T13:51:36.000Z</time>
      </trkpt>
      <trkpt lat="40.785487" lon="-3.988567">
        <ele>2161.0</ele>
        <time>2018-04-21T13:51:37.000Z</time>
      </trkpt>
      <trkpt lat="40.785482" lon="-3.988576">
        <ele>2160.9</ele>
        <time>2018-04-21T13:51:38.000Z</time>
      </trkpt>
      <trkpt lat="40.785477" lon="-3.988585">
        <ele>2160.9</ele>
        <time>2018-04-21T13:51:39.000Z</time>
      </trkpt>
      <trkpt lat="40.785472" lon="-3.988593">
        <ele>2160.8</ele>
        <time>2018-04-21T13:51:40.000Z</time>
      </trkpt>
      <trkpt lat="40.785467" lon="-3.988602">
        <ele>2160.7</ele>
        <time>2018-04-21T13:51:41.000Z</time>
      </trkpt>
      <trkpt lat="40.785462" lon="-3.988611">
        <ele>2160.7</ele>
        <time>2018-04-21T13:51:42.000Z</time>
      </trkpt>
      <trkpt lat="40.785457" lon="-3.988619">
        <ele>2160.6</ele>
        <time>2018-04-21T13:51:43.000Z</time>
      </trkpt>
      <trkpt lat="40.785452" lon="-3.988627">
        <ele>2160.6</ele>
        <time>2018-04-21T13:51:44.000Z</time>
      </trkpt>
      <trkpt lat="40.785447" lon="-3.988634">
        <ele>2160.5</ele>
        <time>2018-04-21T13:51:45.000Z</time>
      </trkpt>
      <trkpt lat="40.785443" lon="-3.988642">
        <ele>2160.5</ele>
        <time>2018-04-21T13:51:46.000Z</time>
      </trkpt>
      <trkpt lat="40.785439" lon="-3.98865">
        <ele>2160.4</ele>
        <time>2018-04-21T13:51:47.000Z</time>
      </trkpt>
      <trkpt lat="40.785435" lon="-3.988658">
        <ele>2160.4</ele>
        <time>2018-04-21T13:51:48.000Z</time>
      </trkpt>
      <trkpt lat="40.785432" lon="-3.988667">
        <ele>2160.4</ele>
        <time>2018-04-21T13:51:49.000Z</time>
      </trkpt>
      <trkpt lat="40.785429" lon="-3.988677">
        <ele>2160.3</ele>
        <time>2018-04-21T13:51:50.000Z</time>
      </trkpt>
      <trkpt lat="40.785427" lon="-3.988688">
        <ele>2160.3</ele>
        <time>2018-04-21T13:51:51.000Z</time>
      </trkpt>
      <trkpt lat="40.785425" lon="-3.988699">
        <ele>2160.3</ele>
        <time>2018-04-21T13:51:52.000Z</time>
      </trkpt>
      <trkpt lat="40.785423" lon="-3.988712">
        <ele>2160.3</ele>
        <time>2018-04-21T13:51:53.000Z</time>
      </trkpt>
      <trkpt lat="40.785422" lon="-3.988725">
        <ele>2160.3</ele>
        <time>2018-04-21T13:51:54.000Z</time>
      </trkpt>
      <trkpt lat="40.785421" lon="-3.988739">
        <ele>2160.3</ele>
        <time>2018-04-21T13:51:55.000Z</time>
      </trkpt>
      <trkpt lat="40.78542" lon="-3.988753">
        <ele>2160.3</ele>
        <time>2018-04-21T13:51:56.000Z</time>
      </trkpt>
      <trkpt lat="40.785419" lon="-3.988767">
        <ele>2160.3</ele>
        <time>2018-04-21T13:51:57.000Z</time>
      </trkpt>
      <trkpt lat="40.785417" lon="-3.988782">
        <ele>2160.3</ele>
        <time>2018-04-21T13:51:58.000Z</time>
      </trkpt>
      <trkpt lat="40.785415" lon="-3.988797">
        <ele>2160.3</ele>
        <time>2018-04-21T13:51:59.000Z</time>
      </trkpt>
      <trkpt lat="40.785413" lon="-3.988811">
        <ele>2160.2</ele>
        <time>2018-04-21T13:52:00.000Z</time>
      </trkpt>
      <trkpt lat="40.785411" lon="-3.988825">
        <ele>2160.2</ele>
        <time>2018-04-21T13:52:01.000Z</time>
      </trkpt>
      <trkpt lat="40.785408" lon="-3.98884">
        <ele>2160.2</ele>
        <time>2018-04-21T13:52:02.000Z</time>
      </trkpt>
      <trkpt lat="40.785405" lon="-3.988854">
        <ele>2160.2</ele>
        <time>2018-04-21T13:52:03.000Z</time>
      </trkpt>
      <trkpt lat="40.785402" lon="-3.988868">
        <ele>2160.2</ele>
        <time>2018-04-21T13:52:04.000Z</time>
      </trkpt>
      <trkpt lat="40.785399" lon="-3.988882">
        <ele>2160.1</ele>
        <time>2018-04-21T13:52:05.000Z</time>
      </trkpt>
      <trkpt lat="40.785396" lon="-3.988896">
        <ele>2160.1</ele>
        <time>2018-04-21T13:52:06.000Z</time>
      </trkpt>
      <trkpt lat="40.785392" lon="-3.98891">
        <ele>2160.1</ele>
        <time>2018-04-21T13:52:07.000Z</time>
      </trkpt>
      <trkpt lat="40.785389" lon="-3.988923">
        <ele>2160.0</ele>
        <time>2018-04-21T13:52:08.000Z</time>
      </trkpt>
      <trkpt lat="40.785386" lon="-3.988937">
        <ele>2160.0</ele>
        <time>2018-04-21T13:52:09.000Z</time>
      </trkpt>
      <trkpt lat="40.785382" lon="-3.98895">
        <ele>2160.0</ele>
        <time>2018-04-21T13:52:10.000Z</time>
      </trkpt>
      <trkpt lat="40.785379" lon="-3.988963">
        <ele>2160.0</ele>
        <time>2018-04-21T13:52:11.000Z</time>
      </trkpt>
      <trkpt lat="40.785376" lon="-3.988977">
        <ele>2159.9</ele>
        <time>2018-04-21T13:52:12.000Z</time>
      </trkpt>
      <trkpt lat="40.785373" lon="-3.98899">
        <ele>2159.9</ele>
        <time>2018-04-21T13:52:13.000Z</time>
      </trkpt>
      <trkpt lat="40.78537" lon="-3.989002">
        <ele>2159.9</ele>
        <time>2018-04-21T13:52:14.000Z</time>
      </trkpt>
      <trkpt lat="40.785367" lon="-3.989015">
        <ele>2159.9</ele>
        <time>2018-04-21T13:52:15.000Z</time>
      </trkpt>
      <trkpt lat="40.785365" lon="-3.989028">
        <ele>2159.8</ele>
        <time>2018-04-21T13:52:16.000Z</time>
      </trkpt>
      <trkpt lat="40.785362" lon="-3.98904">
        <ele>2159.8</ele>
        <time>2018-04-21T13:52:17.000Z</time>
      </trkpt>
      <trkpt lat="40.78536" lon="-3.989053">
        <ele>2159.8</ele>
        <time>2018-04-21T13:52:18.000Z</time>
      </trkpt>
      <trkpt lat="40.785358" lon="-3.989065">
        <ele>2159.8</ele>
        <time>2018-04-21T13:52:19.000Z</time>
      </trkpt>
      <trkpt lat="40.785356" lon="-3.989077">
        <ele>2159.8</ele>
        <time>2018-04-21T13:52:20.000Z</time>
      </trkpt>
      <trkpt lat="40.785354" lon="-3.989089">
        <ele>2159.8</ele>
        <time>2018-04-21T13:52:21.000Z</time>
      </trkpt>
      <trkpt lat="40.785352" lon="-3.989101">
        <ele>2159.8</ele>
        <time>2018-04-21T13:52:22.000Z</time>
      </trkpt>
      <trkpt lat="40.785351" lon="-3.989112">
        <ele>2159.8</ele>
        <time>2018-04-21T13:52:23.000Z</time>
      </trkpt>
      <trkpt lat="40.785349" lon="-3.989124">
        <ele>2159.7</ele>
        <time>2018-04-21T13:52:24.000Z</time>
      </trkpt>
      <trkpt lat="40.785347" lon="-3.989136">
        <ele>2159.7</ele>
        <time>2018-04-21T13:52:25.000Z</time>
      </trkpt>
      <trkpt lat="40.785346" lon="-3.989147">
        <ele>2159.7</ele>
        <time>2018-04-21T13:52:26.000Z</time>
      </trkpt>
      <trkpt lat="40.785344" lon="-3.989159">
        <ele>2159.7</ele>
        <time>2018-04-21T13:52:27.000Z</time>
      </trkpt>
      <trkpt lat="40.785343" lon="-3.98917">
        <ele>2159.7</ele>
        <time>2018-04-21T13:52:28.000Z</time>
      </trkpt>
      <trkpt lat="40.785342" lon="-3.989181">
        <ele>2159.7</ele>
        <time>2018-04-21T13:52:29.000Z</time>
      </trkpt>
      <trkpt lat="40.78534" lon="-3.989193">
        <ele>2159.7</ele>
        <time>2018-04-21T13:52:30.000Z</time>
      </trkpt>
      <trkpt lat="40.785339" lon="-3.989204">
        <ele>2159.7</ele>
        <time>2018-04-21T13:52:31.000Z</time>
      </trkpt>
      <trkpt lat="40.785337" lon="-3.989214">
        <ele>2159.7</ele>
        <time>2018-04-21T13:52:32.000Z</time>
      </trkpt>
      <trkpt lat="40.785336" lon="-3.989225">
        <ele>2159.8</ele>
        <time>2018-04-21T13:52:33.000Z</time>
      </trkpt>
      <trkpt lat="40.785334" lon="-3.989235">
        <ele>2159.8</ele>
        <time>2018-04-21T13:52:34.000Z</time>
      </trkpt>
      <trkpt lat="40.785332" lon="-3.989244">
        <ele>2159.8</ele>
        <time>2018-04-21T13:52:35.000Z</time>
      </trkpt>
      <trkpt lat="40.78533" lon="-3.989254">
        <ele>2159.8</ele>
        <time>2018-04-21T13:52:36.000Z</time>
      </trkpt>
      <trkpt lat="40.785328" lon="-3.989263">
        <ele>2159.8</ele>
        <time>2018-04-21T13:52:37.000Z</time>
      </trkpt>
      <trkpt lat="40.785325" lon="-3.989272">
        <ele>2159.7</ele>
        <time>2018-04-21T13:52:38.000Z</time>
      </trkpt>
      <trkpt lat="40.785323" lon="-3.989281">
        <ele>2159.7</ele>
        <time>2018-04-21T13:52:39.000Z</time>
      </trkpt>
      <trkpt lat="40.78532" lon="-3.989291">
        <ele>2159.7</ele>
        <time>2018-04-21T13:52:40.000Z</time>
      </trkpt>
      <trkpt lat="40.785318" lon="-3.9893">
        <ele>2159.7</ele>
        <time>2018-04-21T13:52:41.000Z</time>
      </trkpt>
      <trkpt lat="40.785315" lon="-3.989311">
        <ele>2159.7</ele>
        <time>2018-04-21T13:52:42.000Z</time>
      </trkpt>
      <trkpt lat="40.785313" lon="-3.989322">
        <ele>2159.8</ele>
        <time>2018-04-21T13:52:43.000Z</time>
      </trkpt>
      <trkpt lat="40.785311" lon="-3.989333">
        <ele>2159.8</ele>
        <time>2018-04-21T13:52:44.000Z</time>
      </trkpt>
      <trkpt lat="40.785309" lon="-3.989345">
        <ele>2159.8</ele>
        <time>2018-04-21T13:52:45.000Z</time>
      </trkpt>
      <trkpt lat="40.785307" lon="-3.989358">
        <ele>2159.8</ele>
        <time>2018-04-21T13:52:46.000Z</time>
      </trkpt>
      <trkpt lat="40.785304" lon="-3.989371">
        <ele>2159.8</ele>
        <time>2018-04-21T13:52:47.000Z</time>
      </trkpt>
      <trkpt lat="40.785302" lon="-3.989385">
        <ele>2159.8</ele>
        <time>2018-04-21T13:52:48.000Z</time>
      </trkpt>
      <trkpt lat="40.7853" lon="-3.989399">
        <ele>2159.8</ele>
        <time>2018-04-21T13:52:49.000Z</time>
      </trkpt>
      <trkpt lat="40.785297" lon="-3.989413">
        <ele>2159.8</ele>
        <time>2018-04-21T13:52:50.000Z</time>
      </trkpt>
      <trkpt lat="40.785294" lon="-3.989428">
        <ele>2159.9</ele>
        <time>2018-04-21T13:52:51.000Z</time>
      </trkpt>
      <trkpt lat="40.785291" lon="-3.989442">
        <ele>2159.9</ele>
        <time>2018-04-21T13:52:52.000Z</time>
      </trkpt>
      <trkpt lat="40.785288" lon="-3.989457">
        <ele>2159.9</ele>
        <time>2018-04-21T13:52:53.000Z</time>
      </trkpt>
      <trkpt lat="40.785284" lon="-3.989472">
        <ele>2159.9</ele>
        <time>2018-04-21T13:52:54.000Z</time>
      </trkpt>
      <trkpt lat="40.78528" lon="-3.989488">
        <ele>2159.9</ele>
        <time>2018-04-21T13:52:55.000Z</time>
      </trkpt>
      <trkpt lat="40.785276" lon="-3.989503">
        <ele>2159.9</ele>
        <time>2018-04-21T13:52:56.000Z</time>
      </trkpt>
      <trkpt lat="40.785271" lon="-3.989518">
        <ele>2159.9</ele>
        <time>2018-04-21T13:52:57.000Z</time>
      </trkpt>
      <trkpt lat="40.785265" lon="-3.989533">
        <ele>2159.9</ele>
        <time>2018-04-21T13:52:58.000Z</time>
      </trkpt>
      <trkpt lat="40.78526" lon="-3.989548">
        <ele>2160.0</ele>
        <time>2018-04-21T13:52:59.000Z</time>
      </trkpt>
      <trkpt lat="40.785254" lon="-3.989562">
        <ele>2160.0</ele>
        <time>2018-04-21T13:53:00.000Z</time>
      </trkpt>
      <trkpt lat="40.785247" lon="-3.989577">
        <ele>2160.0</ele>
        <time>2018-04-21T13:53:01.000Z</time>
      </trkpt>
      <trkpt lat="40.785242" lon="-3.989591">
        <ele>2160.0</ele>
        <time>2018-04-21T13:53:02.000Z</time>
      </trkpt>
      <trkpt lat="40.785236" lon="-3.989605">
        <ele>2160.0</ele>
        <time>2018-04-21T13:53:03.000Z</time>
      </trkpt>
      <trkpt lat="40.785231" lon="-3.989619">
        <ele>2160.0</ele>
        <time>2018-04-21T13:53:04.000Z</time>
      </trkpt>
      <trkpt lat="40.785226" lon="-3.989632">
        <ele>2160.0</ele>
        <time>2018-04-21T13:53:05.000Z</time>
      </trkpt>
      <trkpt lat="40.785222" lon="-3.989646">
        <ele>2160.0</ele>
        <time>2018-04-21T13:53:06.000Z</time>
      </trkpt>
      <trkpt lat="40.785219" lon="-3.989659">
        <ele>2160.1</ele>
        <time>2018-04-21T13:53:07.000Z</time>
      </trkpt>
      <trkpt lat="40.785216" lon="-3.989671">
        <ele>2160.1</ele>
        <time>2018-04-21T13:53:08.000Z</time>
      </trkpt>
      <trkpt lat="40.785213" lon="-3.989684">
        <ele>2160.1</ele>
        <time>2018-04-21T13:53:09.000Z</time>
      </trkpt>
      <trkpt lat="40.785211" lon="-3.989696">
        <ele>2160.2</ele>
        <time>2018-04-21T13:53:10.000Z</time>
      </trkpt>
      <trkpt lat="40.785209" lon="-3.989708">
        <ele>2160.2</ele>
        <time>2018-04-21T13:53:11.000Z</time>
      </trkpt>
      <trkpt lat="40.785208" lon="-3.98972">
        <ele>2160.2</ele>
        <time>2018-04-21T13:53:12.000Z</time>
      </trkpt>
      <trkpt lat="40.785206" lon="-3.989731">
        <ele>2160.3</ele>
        <time>2018-04-21T13:53:13.000Z</time>
      </trkpt>
      <trkpt lat="40.785204" lon="-3.989743">
        <ele>2160.3</ele>
        <time>2018-04-21T13:53:14.000Z</time>
      </trkpt>
      <trkpt lat="40.785202" lon="-3.989754">
        <ele>2160.3</ele>
        <time>2018-04-21T13:53:15.000Z</time>
      </trkpt>
      <trkpt lat="40.7852" lon="-3.989764">
        <ele>2160.4</ele>
        <time>2018-04-21T13:53:16.000Z</time>
      </trkpt>
      <trkpt lat="40.785197" lon="-3.989775">
        <ele>2160.4</ele>
        <time>2018-04-21T13:53:17.000Z</time>
      </trkpt>
      <trkpt lat="40.785193" lon="-3.989785">
        <ele>2160.4</ele>
        <time>2018-04-21T13:53:18.000Z</time>
      </trkpt>
      <trkpt lat="40.785189" lon="-3.989795">
        <ele>2160.4</ele>
        <time>2018-04-21T13:53:19.000Z</time>
      </trkpt>
      <trkpt lat="40.785183" lon="-3.989804">
        <ele>2160.5</ele>
        <time>2018-04-21T13:53:20.000Z</time>
      </trkpt>
      <trkpt lat="40.785177" lon="-3.989814">
        <ele>2160.5</ele>
        <time>2018-04-21T13:53:21.000Z</time>
      </trkpt>
      <trkpt lat="40.785171" lon="-3.989823">
        <ele>2160.5</ele>
        <time>2018-04-21T13:53:22.000Z</time>
      </trkpt>
      <trkpt lat="40.785165" lon="-3.989832">
        <ele>2160.5</ele>
        <time>2018-04-21T13:53:23.000Z</time>
      </trkpt>
      <trkpt lat="40.785159" lon="-3.989841">
        <ele>2160.5</ele>
        <time>2018-04-21T13:53:24.000Z</time>
      </trkpt>
      <trkpt lat="40.785154" lon="-3.98985">
        <ele>2160.6</ele>
        <time>2018-04-21T13:53:25.000Z</time>
      </trkpt>
      <trkpt lat="40.785151" lon="-3.98986">
        <ele>2160.6</ele>
        <time>2018-04-21T13:53:26.000Z</time>
      </trkpt>
      <trkpt lat="40.785149" lon="-3.98987">
        <ele>2160.6</ele>
        <time>2018-04-21T13:53:27.000Z</time>
      </trkpt>
      <trkpt lat="40.785149" lon="-3.98988">
        <ele>2160.7</ele>
        <time>2018-04-21T13:53:28.000Z</time>
      </trkpt>
      <trkpt lat="40.78515" lon="-3.989891">
        <ele>2160.7</ele>
        <time>2018-04-21T13:53:29.000Z</time>
      </trkpt>
      <trkpt lat="40.785152" lon="-3.989902">
        <ele>2160.8</ele>
        <time>2018-04-21T13:53:30.000Z</time>
      </trkpt>
      <trkpt lat="40.785155" lon="-3.989914">
        <ele>2160.8</ele>
        <time>2018-04-21T13:53:31.000Z</time>
      </trkpt>
      <trkpt lat="40.785159" lon="-3.989926">
        <ele>2160.9</ele>
        <time>2018-04-21T13:53:32.000Z</time>
      </trkpt>
      <trkpt lat="40.785163" lon="-3.989939">
        <ele>2160.9</ele>
        <time>2018-04-21T13:53:33.000Z</time>
      </trkpt>
      <trkpt lat="40.785168" lon="-3.989953">
        <ele>2161.0</ele>
        <time>2018-04-21T13:53:34.000Z</time>
      </trkpt>
      <trkpt lat="40.785172" lon="-3.989967">
        <ele>2161.1</ele>
        <time>2018-04-21T13:53:35.000Z</time>
      </trkpt>
      <trkpt lat="40.785177" lon="-3.989981">
        <ele>2161.1</ele>
        <time>2018-04-21T13:53:36.000Z</time>
      </trkpt>
      <trkpt lat="40.785181" lon="-3.989995">
        <ele>2161.2</ele>
        <time>2018-04-21T13:53:37.000Z</time>
      </trkpt>
      <trkpt lat="40.785185" lon="-3.990008">
        <ele>2161.1</ele>
        <time>2018-04-21T13:53:38.000Z</time>
      </trkpt>
      <trkpt lat="40.785188" lon="-3.99002">
        <ele>2160.9</ele>
        <time>2018-04-21T13:53:39.000Z</time>
      </trkpt>
      <trkpt lat="40.785191" lon="-3.990029">
        <ele>2160.7</ele>
        <time>2018-04-21T13:53:40.000Z</time>
      </trkpt>
      <trkpt lat="40.785194" lon="-3.990036">
        <ele>2160.6</ele>
        <time>2018-04-21T13:53:41.000Z</time>
      </trkpt>
      <trkpt lat="40.785196" lon="-3.990041">
        <ele>2160.5</ele>
        <time>2018-04-21T13:53:42.000Z</time>
      </trkpt>
      <trkpt lat="40.785197" lon="-3.990043">
        <ele>2160.5</ele>
        <time>2018-04-21T13:53:43.000Z</time>
      </trkpt>
      <trkpt lat="40.785197" lon="-3.990043">
        <ele>2160.5</ele>
        <time>2018-04-21T13:53:44.000Z</time>
      </trkpt>
      <trkpt lat="40.785198" lon="-3.990044">
        <ele>2160.4</ele>
        <time>2018-04-21T13:53:45.000Z</time>
      </trkpt>
      <trkpt lat="40.785198" lon="-3.990044">
        <ele>2160.4</ele>
        <time>2018-04-21T13:53:46.000Z</time>
      </trkpt>
      <trkpt lat="40.785197" lon="-3.990046">
        <ele>2160.4</ele>
        <time>2018-04-21T13:53:47.000Z</time>
      </trkpt>
      <trkpt lat="40.785197" lon="-3.99005">
        <ele>2160.3</ele>
        <time>2018-04-21T13:53:48.000Z</time>
      </trkpt>
      <trkpt lat="40.785196" lon="-3.990057">
        <ele>2160.2</ele>
        <time>2018-04-21T13:53:49.000Z</time>
      </trkpt>
      <trkpt lat="40.785195" lon="-3.990067">
        <ele>2160.0</ele>
        <time>2018-04-21T13:53:50.000Z</time>
      </trkpt>
      <trkpt lat="40.785195" lon="-3.990079">
        <ele>2159.8</ele>
        <time>2018-04-21T13:53:51.000Z</time>
      </trkpt>
      <trkpt lat="40.785194" lon="-3.99009">
        <ele>2159.6</ele>
        <time>2018-04-21T13:53:52.000Z</time>
      </trkpt>
      <trkpt lat="40.785193" lon="-3.990097">
        <ele>2159.5</ele>
        <time>2018-04-21T13:53:53.000Z</time>
      </trkpt>
      <trkpt lat="40.785192" lon="-3.990099">
        <ele>2159.4</ele>
        <time>2018-04-21T13:53:54.000Z</time>
      </trkpt>
      <trkpt lat="40.785191" lon="-3.990098">
        <ele>2159.5</ele>
        <time>2018-04-21T13:53:55.000Z</time>
      </trkpt>
      <trkpt lat="40.785191" lon="-3.990098">
        <ele>2159.5</ele>
        <time>2018-04-21T13:53:56.000Z</time>
      </trkpt>
      <trkpt lat="40.785192" lon="-3.990102">
        <ele>2159.4</ele>
        <time>2018-04-21T13:53:57.000Z</time>
      </trkpt>
      <trkpt lat="40.785195" lon="-3.990108">
        <ele>2159.3</ele>
        <time>2018-04-21T13:53:58.000Z</time>
      </trkpt>
      <trkpt lat="40.785198" lon="-3.990117">
        <ele>2159.1</ele>
        <time>2018-04-21T13:53:59.000Z</time>
      </trkpt>
      <trkpt lat="40.785201" lon="-3.990128">
        <ele>2158.9</ele>
        <time>2018-04-21T13:54:00.000Z</time>
      </trkpt>
      <trkpt lat="40.785205" lon="-3.99014">
        <ele>2158.7</ele>
        <time>2018-04-21T13:54:01.000Z</time>
      </trkpt>
      <trkpt lat="40.785208" lon="-3.990153">
        <ele>2158.5</ele>
        <time>2018-04-21T13:54:02.000Z</time>
      </trkpt>
      <trkpt lat="40.785211" lon="-3.990165">
        <ele>2158.3</ele>
        <time>2018-04-21T13:54:03.000Z</time>
      </trkpt>
      <trkpt lat="40.785212" lon="-3.990176">
        <ele>2158.1</ele>
        <time>2018-04-21T13:54:04.000Z</time>
      </trkpt>
      <trkpt lat="40.785212" lon="-3.990186">
        <ele>2157.9</ele>
        <time>2018-04-21T13:54:05.000Z</time>
      </trkpt>
      <trkpt lat="40.78521" lon="-3.990194">
        <ele>2157.8</ele>
        <time>2018-04-21T13:54:06.000Z</time>
      </trkpt>
      <trkpt lat="40.785208" lon="-3.990201">
        <ele>2157.6</ele>
        <time>2018-04-21T13:54:07.000Z</time>
      </trkpt>
      <trkpt lat="40.785204" lon="-3.990208">
        <ele>2157.5</ele>
        <time>2018-04-21T13:54:08.000Z</time>
      </trkpt>
      <trkpt lat="40.7852" lon="-3.990214">
        <ele>2157.4</ele>
        <time>2018-04-21T13:54:09.000Z</time>
      </trkpt>
      <trkpt lat="40.785195" lon="-3.990219">
        <ele>2157.3</ele>
        <time>2018-04-21T13:54:10.000Z</time>
      </trkpt>
      <trkpt lat="40.785189" lon="-3.990225">
        <ele>2157.2</ele>
        <time>2018-04-21T13:54:11.000Z</time>
      </trkpt>
      <trkpt lat="40.785184" lon="-3.990231">
        <ele>2157.1</ele>
        <time>2018-04-21T13:54:12.000Z</time>
      </trkpt>
      <trkpt lat="40.785178" lon="-3.990237">
        <ele>2156.9</ele>
        <time>2018-04-21T13:54:13.000Z</time>
      </trkpt>
      <trkpt lat="40.785172" lon="-3.990244">
        <ele>2156.8</ele>
        <time>2018-04-21T13:54:14.000Z</time>
      </trkpt>
      <trkpt lat="40.785166" lon="-3.99025">
        <ele>2156.7</ele>
        <time>2018-04-21T13:54:15.000Z</time>
      </trkpt>
      <trkpt lat="40.785159" lon="-3.990257">
        <ele>2156.6</ele>
        <time>2018-04-21T13:54:16.000Z</time>
      </trkpt>
      <trkpt lat="40.785153" lon="-3.990263">
        <ele>2156.4</ele>
        <time>2018-04-21T13:54:17.000Z</time>
      </trkpt>
      <trkpt lat="40.785146" lon="-3.99027">
        <ele>2156.3</ele>
        <time>2018-04-21T13:54:18.000Z</time>
      </trkpt>
      <trkpt lat="40.785139" lon="-3.990276">
        <ele>2156.2</ele>
        <time>2018-04-21T13:54:19.000Z</time>
      </trkpt>
      <trkpt lat="40.785132" lon="-3.990283">
        <ele>2156.1</ele>
        <time>2018-04-21T13:54:20.000Z</time>
      </trkpt>
      <trkpt lat="40.785126" lon="-3.990288">
        <ele>2156.0</ele>
        <time>2018-04-21T13:54:21.000Z</time>
      </trkpt>
      <trkpt lat="40.785119" lon="-3.990294">
        <ele>2155.9</ele>
        <time>2018-04-21T13:54:22.000Z</time>
      </trkpt>
      <trkpt lat="40.785112" lon="-3.990299">
        <ele>2155.8</ele>
        <time>2018-04-21T13:54:23.000Z</time>
      </trkpt>
      <trkpt lat="40.785105" lon="-3.990304">
        <ele>2155.7</ele>
        <time>2018-04-21T13:54:24.000Z</time>
      </trkpt>
      <trkpt lat="40.785098" lon="-3.990308">
        <ele>2155.6</ele>
        <time>2018-04-21T13:54:25.000Z</time>
      </trkpt>
      <trkpt lat="40.785092" lon="-3.990311">
        <ele>2155.5</ele>
        <time>2018-04-21T13:54:26.000Z</time>
      </trkpt>
      <trkpt lat="40.785085" lon="-3.990313">
        <ele>2155.5</ele>
        <time>2018-04-21T13:54:27.000Z</time>
      </trkpt>
      <trkpt lat="40.785078" lon="-3.990315">
        <ele>2155.4</ele>
        <time>2018-04-21T13:54:28.000Z</time>
      </trkpt>
      <trkpt lat="40.785071" lon="-3.990315">
        <ele>2155.4</ele>
        <time>2018-04-21T13:54:29.000Z</time>
      </trkpt>
      <trkpt lat="40.785064" lon="-3.990314">
        <ele>2155.4</ele>
        <time>2018-04-21T13:54:30.000Z</time>
      </trkpt>
      <trkpt lat="40.785056" lon="-3.990312">
        <ele>2155.5</ele>
        <time>2018-04-21T13:54:31.000Z</time>
      </trkpt>
      <trkpt lat="40.785048" lon="-3.990308">
        <ele>2155.5</ele>
        <time>2018-04-21T13:54:32.000Z</time>
      </trkpt>
      <trkpt lat="40.78504" lon="-3.990302">
        <ele>2155.6</ele>
        <time>2018-04-21T13:54:33.000Z</time>
      </trkpt>
      <trkpt lat="40.785031" lon="-3.990295">
        <ele>2155.7</ele>
        <time>2018-04-21T13:54:34.000Z</time>
      </trkpt>
      <trkpt lat="40.785022" lon="-3.990287">
        <ele>2155.9</ele>
        <time>2018-04-21T13:54:35.000Z</time>
      </trkpt>
      <trkpt lat="40.785014" lon="-3.990281">
        <ele>2156.0</ele>
        <time>2018-04-21T13:54:36.000Z</time>
      </trkpt>
      <trkpt lat="40.785008" lon="-3.990277">
        <ele>2156.0</ele>
        <time>2018-04-21T13:54:37.000Z</time>
      </trkpt>
      <trkpt lat="40.785005" lon="-3.990278">
        <ele>2156.0</ele>
        <time>2018-04-21T13:54:38.000Z</time>
      </trkpt>
      <trkpt lat="40.785003" lon="-3.990282">
        <ele>2155.9</ele>
        <time>2018-04-21T13:54:39.000Z</time>
      </trkpt>
      <trkpt lat="40.785003" lon="-3.990287">
        <ele>2155.8</ele>
        <time>2018-04-21T13:54:40.000Z</time>
      </trkpt>
      <trkpt lat="40.785002" lon="-3.990292">
        <ele>2155.7</ele>
        <time>2018-04-21T13:54:41.000Z</time>
      </trkpt>
      <trkpt lat="40.785002" lon="-3.990296">
        <ele>2155.7</ele>
        <time>2018-04-21T13:54:42.000Z</time>
      </trkpt>
      <trkpt lat="40.785002" lon="-3.990299">
        <ele>2155.6</ele>
        <time>2018-04-21T13:54:43.000Z</time>
      </trkpt>
      <trkpt lat="40.785001" lon="-3.990302">
        <ele>2155.6</ele>
        <time>2018-04-21T13:54:44.000Z</time>
      </trkpt>
      <trkpt lat="40.785001" lon="-3.990304">
        <ele>2155.5</ele>
        <time>2018-04-21T13:54:45.000Z</time>
      </trkpt>
      <trkpt lat="40.785001" lon="-3.990306">
        <ele>2155.5</ele>
        <time>2018-04-21T13:54:46.000Z</time>
      </trkpt>
      <trkpt lat="40.785001" lon="-3.990307">
        <ele>2155.5</ele>
        <time>2018-04-21T13:54:47.000Z</time>
      </trkpt>
      <trkpt lat="40.785001" lon="-3.990309">
        <ele>2155.4</ele>
        <time>2018-04-21T13:54:48.000Z</time>
      </trkpt>
      <trkpt lat="40.785001" lon="-3.990309">
        <ele>2155.4</ele>
        <time>2018-04-21T13:54:49.000Z</time>
      </trkpt>
      <trkpt lat="40.785001" lon="-3.99031">
        <ele>2155.4</ele>
        <time>2018-04-21T13:54:50.000Z</time>
      </trkpt>
      <trkpt lat="40.785001" lon="-3.99031">
        <ele>2155.4</ele>
        <time>2018-04-21T13:54:51.000Z</time>
      </trkpt>
      <trkpt lat="40.785001" lon="-3.99031">
        <ele>2155.4</ele>
        <time>2018-04-21T13:54:52.000Z</time>
      </trkpt>
      <trkpt lat="40.785001" lon="-3.99031">
        <ele>2155.4</ele>
        <time>2018-04-21T13:54:53.000Z</time>
      </trkpt>
      <trkpt lat="40.785001" lon="-3.99031">
        <ele>2155.4</ele>
        <time>2018-04-21T13:54:54.000Z</time>
      </trkpt>
      <trkpt lat="40.785001" lon="-3.99031">
        <ele>2155.4</ele>
        <time>2018-04-21T13:54:55.000Z</time>
      </trkpt>
      <trkpt lat="40.785001" lon="-3.99031">
        <ele>2155.4</ele>
        <time>2018-04-21T13:54:56.000Z</time>
      </trkpt>
      <trkpt lat="40.785001" lon="-3.99031">
        <ele>2155.4</ele>
        <time>2018-04-21T13:54:57.000Z</time>
      </trkpt>
      <trkpt lat="40.785001" lon="-3.99031">
        <ele>2155.4</ele>
        <time>2018-04-21T13:54:58.000Z</time>
      </trkpt>
      <trkpt lat="40.785001" lon="-3.99031">
        <ele>2155.4</ele>
        <time>2018-04-21T13:54:59.000Z</time>
      </trkpt>
      <trkpt lat="40.785001" lon="-3.99031">
        <ele>2155.4</ele>
        <time>2018-04-21T13:55:00.000Z</time>
      </trkpt>
      <trkpt lat="40.785001" lon="-3.99031">
        <ele>2155.4</ele>
        <time>2018-04-21T13:55:01.000Z</time>
      </trkpt>
      <trkpt lat="40.785001" lon="-3.99031">
        <ele>2155.4</ele>
        <time>2018-04-21T13:55:02.000Z</time>
      </trkpt>
      <trkpt lat="40.785001" lon="-3.990311">
        <ele>2155.4</ele>
        <time>2018-04-21T13:55:03.000Z</time>
      </trkpt>
      <trkpt lat="40.785001" lon="-3.990311">
        <ele>2155.4</ele>
        <time>2018-04-21T13:55:04.000Z</time>
      </trkpt>
      <trkpt lat="40.785001" lon="-3.990311">
        <ele>2155.4</ele>
        <time>2018-04-21T13:55:05.000Z</time>
      </trkpt>
      <trkpt lat="40.785001" lon="-3.990311">
        <ele>2155.4</ele>
        <time>2018-04-21T13:55:06.000Z</time>
      </trkpt>
      <trkpt lat="40.785001" lon="-3.990311">
        <ele>2155.4</ele>
        <time>2018-04-21T13:55:07.000Z</time>
      </trkpt>
      <trkpt lat="40.785001" lon="-3.990311">
        <ele>2155.4</ele>
        <time>2018-04-21T13:55:08.000Z</time>
      </trkpt>
      <trkpt lat="40.785001" lon="-3.990311">
        <ele>2155.4</ele>
        <time>2018-04-21T13:55:09.000Z</time>
      </trkpt>
      <trkpt lat="40.785001" lon="-3.990311">
        <ele>2155.4</ele>
        <time>2018-04-21T13:55:10.000Z</time>
      </trkpt>
      <trkpt lat="40.785001" lon="-3.990311">
        <ele>2155.4</ele>
        <time>2018-04-21T13:55:11.000Z</time>
      </trkpt>
      <trkpt lat="40.785001" lon="-3.990311">
        <ele>2155.4</ele>
        <time>2018-04-21T13:55:12.000Z</time>
      </trkpt>
      <trkpt lat="40.785001" lon="-3.990311">
        <ele>2155.4</ele>
        <time>2018-04-21T13:55:13.000Z</time>
      </trkpt>
      <trkpt lat="40.785001" lon="-3.990311">
        <ele>2155.4</ele>
        <time>2018-04-21T13:55:14.000Z</time>
      </trkpt>
      <trkpt lat="40.785001" lon="-3.990311">
        <ele>2155.4</ele>
        <time>2018-04-21T13:55:15.000Z</time>
      </trkpt>
      <trkpt lat="40.785001" lon="-3.990311">
        <ele>2155.4</ele>
        <time>2018-04-21T13:55:16.000Z</time>
      </trkpt>
      <trkpt lat="40.785001" lon="-3.990311">
        <ele>2155.4</ele>
        <time>2018-04-21T13:55:17.000Z</time>
      </trkpt>
      <trkpt lat="40.785001" lon="-3.990311">
        <ele>2155.4</ele>
        <time>2018-04-21T13:55:18.000Z</time>
      </trkpt>
      <trkpt lat="40.785001" lon="-3.990311">
        <ele>2155.4</ele>
        <time>2018-04-21T13:55:19.000Z</time>
      </trkpt>
      <trkpt lat="40.785001" lon="-3.990311">
        <ele>2155.4</ele>
        <time>2018-04-21T13:55:20.000Z</time>
      </trkpt>
      <trkpt lat="40.785001" lon="-3.990311">
        <ele>2155.4</ele>
        <time>2018-04-21T13:55:21.000Z</time>
      </trkpt>
      <trkpt lat="40.785001" lon="-3.990311">
        <ele>2155.4</ele>
        <time>2018-04-21T13:55:22.000Z</time>
      </trkpt>
      <trkpt lat="40.785001" lon="-3.990311">
        <ele>2155.4</ele>
        <time>2018-04-21T13:55:23.000Z</time>
      </trkpt>
      <trkpt lat="40.785001" lon="-3.990311">
        <ele>2155.4</ele>
        <time>2018-04-21T13:55:24.000Z</time>
      </trkpt>
      <trkpt lat="40.785001" lon="-3.990311">
        <ele>2155.4</ele>
        <time>2018-04-21T13:55:25.000Z</time>
      </trkpt>
      <trkpt lat="40.785001" lon="-3.990311">
        <ele>2155.4</ele>
        <time>2018-04-21T13:55:26.000Z</time>
      </trkpt>
      <trkpt lat="40.785001" lon="-3.990311">
        <ele>2155.4</ele>
        <time>2018-04-21T13:55:27.000Z</time>
      </trkpt>
      <trkpt lat="40.785001" lon="-3.990311">
        <ele>2155.4</ele>
        <time>2018-04-21T13:55:28.000Z</time>
      </trkpt>
      <trkpt lat="40.785001" lon="-3.990311">
        <ele>2155.4</ele>
        <time>2018-04-21T13:55:29.000Z</time>
      </trkpt>
      <trkpt lat="40.785001" lon="-3.990311">
        <ele>2155.4</ele>
        <time>2018-04-21T13:55:30.000Z</time>
      </trkpt>
      <trkpt lat="40.785001" lon="-3.990311">
        <ele>2155.4</ele>
        <time>2018-04-21T13:55:31.000Z</time>
      </trkpt>
      <trkpt lat="40.785001" lon="-3.990311">
        <ele>2155.4</ele>
        <time>2018-04-21T13:55:32.000Z</time>
      </trkpt>
      <trkpt lat="40.785001" lon="-3.99031">
        <ele>2155.4</ele>
        <time>2018-04-21T13:55:33.000Z</time>
      </trkpt>
      <trkpt lat="40.785001" lon="-3.99031">
        <ele>2155.4</ele>
        <time>2018-04-21T13:55:34.000Z</time>
      </trkpt>
      <trkpt lat="40.785001" lon="-3.99031">
        <ele>2155.4</ele>
        <time>2018-04-21T13:55:35.000Z</time>
      </trkpt>
      <trkpt lat="40.785001" lon="-3.99031">
        <ele>2155.4</ele>
        <time>2018-04-21T13:55:36.000Z</time>
      </trkpt>
      <trkpt lat="40.785001" lon="-3.99031">
        <ele>2155.4</ele>
        <time>2018-04-21T13:55:37.000Z</time>
      </trkpt>
      <trkpt lat="40.785001" lon="-3.99031">
        <ele>2155.4</ele>
        <time>2018-04-21T13:55:38.000Z</time>
      </trkpt>
      <trkpt lat="40.785001" lon="-3.99031">
        <ele>2155.4</ele>
        <time>2018-04-21T13:55:39.000Z</time>
      </trkpt>
      <trkpt lat="40.785001" lon="-3.99031">
        <ele>2155.4</ele>
        <time>2018-04-21T13:55:40.000Z</time>
      </trkpt>
      <trkpt lat="40.785001" lon="-3.99031">
        <ele>2155.4</ele>
        <time>2018-04-21T13:55:41.000Z</time>
      </trkpt>
      <trkpt lat="40.785001" lon="-3.990311">
        <ele>2155.4</ele>
        <time>2018-04-21T13:55:42.000Z</time>
      </trkpt>
      <trkpt lat="40.785" lon="-3.990311">
        <ele>2155.4</ele>
        <time>2018-04-21T13:55:43.000Z</time>
      </trkpt>
      <trkpt lat="40.784999" lon="-3.990311">
        <ele>2155.4</ele>
        <time>2018-04-21T13:55:44.000Z</time>
      </trkpt>
      <trkpt lat="40.784998" lon="-3.990312">
        <ele>2155.3</ele>
        <time>2018-04-21T13:55:45.000Z</time>
      </trkpt>
      <trkpt lat="40.784996" lon="-3.990313">
        <ele>2155.2</ele>
        <time>2018-04-21T13:55:46.000Z</time>
      </trkpt>
      <trkpt lat="40.784993" lon="-3.990315">
        <ele>2155.0</ele>
        <time>2018-04-21T13:55:47.000Z</time>
      </trkpt>
      <trkpt lat="40.78499" lon="-3.990316">
        <ele>2154.9</ele>
        <time>2018-04-21T13:55:48.000Z</time>
      </trkpt>
      <trkpt lat="40.784987" lon="-3.990318">
        <ele>2154.7</ele>
        <time>2018-04-21T13:55:49.000Z</time>
      </trkpt>
      <trkpt lat="40.784983" lon="-3.990321">
        <ele>2154.5</ele>
        <time>2018-04-21T13:55:50.000Z</time>
      </trkpt>
      <trkpt lat="40.784978" lon="-3.990323">
        <ele>2154.2</ele>
        <time>2018-04-21T13:55:51.000Z</time>
      </trkpt>
      <trkpt lat="40.784972" lon="-3.990325">
        <ele>2153.9</ele>
        <time>2018-04-21T13:55:52.000Z</time>
      </trkpt>
      <trkpt lat="40.784966" lon="-3.990328">
        <ele>2153.6</ele>
        <time>2018-04-21T13:55:53.000Z</time>
      </trkpt>
      <trkpt lat="40.784959" lon="-3.99033">
        <ele>2153.2</ele>
        <time>2018-04-21T13:55:54.000Z</time>
      </trkpt>
      <trkpt lat="40.784952" lon="-3.990333">
        <ele>2152.9</ele>
        <time>2018-04-21T13:55:55.000Z</time>
      </trkpt>
      <trkpt lat="40.784944" lon="-3.990335">
        <ele>2152.5</ele>
        <time>2018-04-21T13:55:56.000Z</time>
      </trkpt>
      <trkpt lat="40.784936" lon="-3.990336">
        <ele>2152.1</ele>
        <time>2018-04-21T13:55:57.000Z</time>
      </trkpt>
      <trkpt lat="40.784927" lon="-3.990337">
        <ele>2151.7</ele>
        <time>2018-04-21T13:55:58.000Z</time>
      </trkpt>
      <trkpt lat="40.784918" lon="-3.990337">
        <ele>2151.3</ele>
        <time>2018-04-21T13:55:59.000Z</time>
      </trkpt>
      <trkpt lat="40.78491" lon="-3.990336">
        <ele>2150.9</ele>
        <time>2018-04-21T13:56:00.000Z</time>
      </trkpt>
      <trkpt lat="40.784901" lon="-3.990335">
        <ele>2150.6</ele>
        <time>2018-04-21T13:56:01.000Z</time>
      </trkpt>
      <trkpt lat="40.784893" lon="-3.990331">
        <ele>2150.3</ele>
        <time>2018-04-21T13:56:02.000Z</time>
      </trkpt>
      <trkpt lat="40.784884" lon="-3.990327">
        <ele>2149.9</ele>
        <time>2018-04-21T13:56:03.000Z</time>
      </trkpt>
      <trkpt lat="40.784875" lon="-3.990322">
        <ele>2149.6</ele>
        <time>2018-04-21T13:56:04.000Z</time>
      </trkpt>
      <trkpt lat="40.784865" lon="-3.990316">
        <ele>2149.2</ele>
        <time>2018-04-21T13:56:05.000Z</time>
      </trkpt>
      <trkpt lat="40.784853" lon="-3.99031">
        <ele>2148.8</ele>
        <time>2018-04-21T13:56:06.000Z</time>
      </trkpt>
      <trkpt lat="40.784841" lon="-3.990303">
        <ele>2148.3</ele>
        <time>2018-04-21T13:56:07.000Z</time>
      </trkpt>
      <trkpt lat="40.784826" lon="-3.990296">
        <ele>2147.7</ele>
        <time>2018-04-21T13:56:08.000Z</time>
      </trkpt>
      <trkpt lat="40.784809" lon="-3.990289">
        <ele>2147.1</ele>
        <time>2018-04-21T13:56:09.000Z</time>
      </trkpt>
      <trkpt lat="40.78479" lon="-3.990283">
        <ele>2146.3</ele>
        <time>2018-04-21T13:56:10.000Z</time>
      </trkpt>
      <trkpt lat="40.784771" lon="-3.990278">
        <ele>2145.5</ele>
        <time>2018-04-21T13:56:11.000Z</time>
      </trkpt>
      <trkpt lat="40.784751" lon="-3.990275">
        <ele>2144.6</ele>
        <time>2018-04-21T13:56:12.000Z</time>
      </trkpt>
      <trkpt lat="40.784731" lon="-3.990274">
        <ele>2143.7</ele>
        <time>2018-04-21T13:56:13.000Z</time>
      </trkpt>
      <trkpt lat="40.784715" lon="-3.990276">
        <ele>2142.9</ele>
        <time>2018-04-21T13:56:14.000Z</time>
      </trkpt>
      <trkpt lat="40.784703" lon="-3.990278">
        <ele>2142.3</ele>
        <time>2018-04-21T13:56:15.000Z</time>
      </trkpt>
      <trkpt lat="40.784697" lon="-3.99028">
        <ele>2142.0</ele>
        <time>2018-04-21T13:56:16.000Z</time>
      </trkpt>
      <trkpt lat="40.784697" lon="-3.990282">
        <ele>2142.0</ele>
        <time>2018-04-21T13:56:17.000Z</time>
      </trkpt>
      <trkpt lat="40.784699" lon="-3.990283">
        <ele>2142.1</ele>
        <time>2018-04-21T13:56:18.000Z</time>
      </trkpt>
      <trkpt lat="40.7847" lon="-3.990284">
        <ele>2142.1</ele>
        <time>2018-04-21T13:56:19.000Z</time>
      </trkpt>
      <trkpt lat="40.7847" lon="-3.990284">
        <ele>2142.1</ele>
        <time>2018-04-21T13:56:20.000Z</time>
      </trkpt>
      <trkpt lat="40.784698" lon="-3.990285">
        <ele>2142.0</ele>
        <time>2018-04-21T13:56:21.000Z</time>
      </trkpt>
      <trkpt lat="40.784692" lon="-3.990288">
        <ele>2141.7</ele>
        <time>2018-04-21T13:56:22.000Z</time>
      </trkpt>
      <trkpt lat="40.784684" lon="-3.990292">
        <ele>2141.3</ele>
        <time>2018-04-21T13:56:23.000Z</time>
      </trkpt>
      <trkpt lat="40.784674" lon="-3.990298">
        <ele>2140.8</ele>
        <time>2018-04-21T13:56:24.000Z</time>
      </trkpt>
      <trkpt lat="40.784662" lon="-3.990306">
        <ele>2140.2</ele>
        <time>2018-04-21T13:56:25.000Z</time>
      </trkpt>
      <trkpt lat="40.784648" lon="-3.990316">
        <ele>2139.4</ele>
        <time>2018-04-21T13:56:26.000Z</time>
      </trkpt>
      <trkpt lat="40.784632" lon="-3.990327">
        <ele>2138.6</ele>
        <time>2018-04-21T13:56:27.000Z</time>
      </trkpt>
      <trkpt lat="40.784615" lon="-3.990338">
        <ele>2137.8</ele>
        <time>2018-04-21T13:56:28.000Z</time>
      </trkpt>
      <trkpt lat="40.784596" lon="-3.990351">
        <ele>2136.8</ele>
        <time>2018-04-21T13:56:29.000Z</time>
      </trkpt>
      <trkpt lat="40.784577" lon="-3.990364">
        <ele>2135.9</ele>
        <time>2018-04-21T13:56:30.000Z</time>
      </trkpt>
      <trkpt lat="40.784557" lon="-3.990377">
        <ele>2134.9</ele>
        <time>2018-04-21T13:56:31.000Z</time>
      </trkpt>
      <trkpt lat="40.784537" lon="-3.990391">
        <ele>2133.9</ele>
        <time>2018-04-21T13:56:32.000Z</time>
      </trkpt>
      <trkpt lat="40.784516" lon="-3.990404">
        <ele>2133.0</ele>
        <time>2018-04-21T13:56:33.000Z</time>
      </trkpt>
      <trkpt lat="40.784496" lon="-3.990416">
        <ele>2132.0</ele>
        <time>2018-04-21T13:56:34.000Z</time>
      </trkpt>
      <trkpt lat="40.784476" lon="-3.990429">
        <ele>2131.1</ele>
        <time>2018-04-21T13:56:35.000Z</time>
      </trkpt>
      <trkpt lat="40.784457" lon="-3.99044">
        <ele>2130.3</ele>
        <time>2018-04-21T13:56:36.000Z</time>
      </trkpt>
      <trkpt lat="40.784438" lon="-3.99045">
        <ele>2129.4</ele>
        <time>2018-04-21T13:56:37.000Z</time>
      </trkpt>
      <trkpt lat="40.784421" lon="-3.990459">
        <ele>2128.7</ele>
        <time>2018-04-21T13:56:38.000Z</time>
      </trkpt>
      <trkpt lat="40.784404" lon="-3.990468">
        <ele>2127.9</ele>
        <time>2018-04-21T13:56:39.000Z</time>
      </trkpt>
      <trkpt lat="40.784389" lon="-3.990477">
        <ele>2127.3</ele>
        <time>2018-04-21T13:56:40.000Z</time>
      </trkpt>
      <trkpt lat="40.784375" lon="-3.990489">
        <ele>2126.7</ele>
        <time>2018-04-21T13:56:41.000Z</time>
      </trkpt>
      <trkpt lat="40.784362" lon="-3.990504">
        <ele>2126.1</ele>
        <time>2018-04-21T13:56:42.000Z</time>
      </trkpt>
      <trkpt lat="40.784351" lon="-3.990523">
        <ele>2125.6</ele>
        <time>2018-04-21T13:56:43.000Z</time>
      </trkpt>
      <trkpt lat="40.784341" lon="-3.990547">
        <ele>2125.2</ele>
        <time>2018-04-21T13:56:44.000Z</time>
      </trkpt>
      <trkpt lat="40.784332" lon="-3.990578">
        <ele>2124.8</ele>
        <time>2018-04-21T13:56:45.000Z</time>
      </trkpt>
      <trkpt lat="40.784323" lon="-3.990609">
        <ele>2124.4</ele>
        <time>2018-04-21T13:56:46.000Z</time>
      </trkpt>
      <trkpt lat="40.784313" lon="-3.990636">
        <ele>2124.0</ele>
        <time>2018-04-21T13:56:47.000Z</time>
      </trkpt>
      <trkpt lat="40.7843" lon="-3.990654">
        <ele>2123.5</ele>
        <time>2018-04-21T13:56:48.000Z</time>
      </trkpt>
      <trkpt lat="40.784284" lon="-3.990659">
        <ele>2122.9</ele>
        <time>2018-04-21T13:56:49.000Z</time>
      </trkpt>
      <trkpt lat="40.784266" lon="-3.990657">
        <ele>2122.2</ele>
        <time>2018-04-21T13:56:50.000Z</time>
      </trkpt>
      <trkpt lat="40.784248" lon="-3.990654">
        <ele>2121.6</ele>
        <time>2018-04-21T13:56:51.000Z</time>
      </trkpt>
      <trkpt lat="40.784233" lon="-3.990658">
        <ele>2121.0</ele>
        <time>2018-04-21T13:56:52.000Z</time>
      </trkpt>
      <trkpt lat="40.78422" lon="-3.990668">
        <ele>2120.5</ele>
        <time>2018-04-21T13:56:53.000Z</time>
      </trkpt>
      <trkpt lat="40.78421" lon="-3.990683">
        <ele>2120.2</ele>
        <time>2018-04-21T13:56:54.000Z</time>
      </trkpt>
      <trkpt lat="40.784201" lon="-3.990701">
        <ele>2119.9</ele>
        <time>2018-04-21T13:56:55.000Z</time>
      </trkpt>
      <trkpt lat="40.784193" lon="-3.990722">
        <ele>2119.7</ele>
        <time>2018-04-21T13:56:56.000Z</time>
      </trkpt>
      <trkpt lat="40.784187" lon="-3.990744">
        <ele>2119.5</ele>
        <time>2018-04-21T13:56:57.000Z</time>
      </trkpt>
      <trkpt lat="40.784182" lon="-3.990766">
        <ele>2119.4</ele>
        <time>2018-04-21T13:56:58.000Z</time>
      </trkpt>
      <trkpt lat="40.784177" lon="-3.990787">
        <ele>2119.2</ele>
        <time>2018-04-21T13:56:59.000Z</time>
      </trkpt>
      <trkpt lat="40.784173" lon="-3.990805">
        <ele>2119.1</ele>
        <time>2018-04-21T13:57:00.000Z</time>
      </trkpt>
      <trkpt lat="40.784169" lon="-3.990821">
        <ele>2119.0</ele>
        <time>2018-04-21T13:57:01.000Z</time>
      </trkpt>
      <trkpt lat="40.784165" lon="-3.990835">
        <ele>2118.9</ele>
        <time>2018-04-21T13:57:02.000Z</time>
      </trkpt>
      <trkpt lat="40.784162" lon="-3.990847">
        <ele>2118.7</ele>
        <time>2018-04-21T13:57:03.000Z</time>
      </trkpt>
      <trkpt lat="40.784158" lon="-3.990858">
        <ele>2118.4</ele>
        <time>2018-04-21T13:57:04.000Z</time>
      </trkpt>
      <trkpt lat="40.784156" lon="-3.990867">
        <ele>2118.2</ele>
        <time>2018-04-21T13:57:05.000Z</time>
      </trkpt>
      <trkpt lat="40.784153" lon="-3.990874">
        <ele>2118.0</ele>
        <time>2018-04-21T13:57:06.000Z</time>
      </trkpt>
      <trkpt lat="40.784151" lon="-3.990881">
        <ele>2117.8</ele>
        <time>2018-04-21T13:57:07.000Z</time>
      </trkpt>
      <trkpt lat="40.784149" lon="-3.990886">
        <ele>2117.7</ele>
        <time>2018-04-21T13:57:08.000Z</time>
      </trkpt>
      <trkpt lat="40.784148" lon="-3.990891">
        <ele>2117.6</ele>
        <time>2018-04-21T13:57:09.000Z</time>
      </trkpt>
      <trkpt lat="40.784147" lon="-3.990894">
        <ele>2117.5</ele>
        <time>2018-04-21T13:57:10.000Z</time>
      </trkpt>
      <trkpt lat="40.784146" lon="-3.990897">
        <ele>2117.4</ele>
        <time>2018-04-21T13:57:11.000Z</time>
      </trkpt>
      <trkpt lat="40.784146" lon="-3.990899">
        <ele>2117.4</ele>
        <time>2018-04-21T13:57:12.000Z</time>
      </trkpt>
      <trkpt lat="40.784145" lon="-3.990901">
        <ele>2117.4</ele>
        <time>2018-04-21T13:57:13.000Z</time>
      </trkpt>
      <trkpt lat="40.784145" lon="-3.990902">
        <ele>2117.4</ele>
        <time>2018-04-21T13:57:14.000Z</time>
      </trkpt>
      <trkpt lat="40.784145" lon="-3.990902">
        <ele>2117.4</ele>
        <time>2018-04-21T13:57:15.000Z</time>
      </trkpt>
      <trkpt lat="40.784145" lon="-3.990903">
        <ele>2117.3</ele>
        <time>2018-04-21T13:57:16.000Z</time>
      </trkpt>
      <trkpt lat="40.784145" lon="-3.990903">
        <ele>2117.3</ele>
        <time>2018-04-21T13:57:17.000Z</time>
      </trkpt>
      <trkpt lat="40.784145" lon="-3.990902">
        <ele>2117.4</ele>
        <time>2018-04-21T13:57:18.000Z</time>
      </trkpt>
      <trkpt lat="40.784145" lon="-3.990902">
        <ele>2117.4</ele>
        <time>2018-04-21T13:57:19.000Z</time>
      </trkpt>
      <trkpt lat="40.784145" lon="-3.990902">
        <ele>2117.4</ele>
        <time>2018-04-21T13:57:20.000Z</time>
      </trkpt>
      <trkpt lat="40.784146" lon="-3.990902">
        <ele>2117.4</ele>
        <time>2018-04-21T13:57:21.000Z</time>
      </trkpt>
      <trkpt lat="40.784146" lon="-3.990901">
        <ele>2117.4</ele>
        <time>2018-04-21T13:57:22.000Z</time>
      </trkpt>
      <trkpt lat="40.784146" lon="-3.990901">
        <ele>2117.4</ele>
        <time>2018-04-21T13:57:23.000Z</time>
      </trkpt>
      <trkpt lat="40.784146" lon="-3.990901">
        <ele>2117.4</ele>
        <time>2018-04-21T13:57:24.000Z</time>
      </trkpt>
      <trkpt lat="40.784146" lon="-3.990901">
        <ele>2117.4</ele>
        <time>2018-04-21T13:57:25.000Z</time>
      </trkpt>
      <trkpt lat="40.784146" lon="-3.990901">
        <ele>2117.4</ele>
        <time>2018-04-21T13:57:26.000Z</time>
      </trkpt>
      <trkpt lat="40.784146" lon="-3.990901">
        <ele>2117.4</ele>
        <time>2018-04-21T13:57:27.000Z</time>
      </trkpt>
      <trkpt lat="40.784146" lon="-3.990901">
        <ele>2117.4</ele>
        <time>2018-04-21T13:57:28.000Z</time>
      </trkpt>
      <trkpt lat="40.784146" lon="-3.990902">
        <ele>2117.4</ele>
        <time>2018-04-21T13:57:29.000Z</time>
      </trkpt>
      <trkpt lat="40.784146" lon="-3.990902">
        <ele>2117.4</ele>
        <time>2018-04-21T13:57:30.000Z</time>
      </trkpt>
      <trkpt lat="40.784146" lon="-3.990902">
        <ele>2117.4</ele>
        <time>2018-04-21T13:57:31.000Z</time>
      </trkpt>
      <trkpt lat="40.784146" lon="-3.990902">
        <ele>2117.4</ele>
        <time>2018-04-21T13:57:32.000Z</time>
      </trkpt>
      <trkpt lat="40.784146" lon="-3.990902">
        <ele>2117.4</ele>
        <time>2018-04-21T13:57:33.000Z</time>
      </trkpt>
      <trkpt lat="40.784146" lon="-3.990903">
        <ele>2117.4</ele>
        <time>2018-04-21T13:57:34.000Z</time>
      </trkpt>
      <trkpt lat="40.784146" lon="-3.990903">
        <ele>2117.4</ele>
        <time>2018-04-21T13:57:35.000Z</time>
      </trkpt>
      <trkpt lat="40.784147" lon="-3.990903">
        <ele>2117.4</ele>
        <time>2018-04-21T13:57:36.000Z</time>
      </trkpt>
      <trkpt lat="40.784147" lon="-3.990905">
        <ele>2117.4</ele>
        <time>2018-04-21T13:57:37.000Z</time>
      </trkpt>
      <trkpt lat="40.784148" lon="-3.990909">
        <ele>2117.4</ele>
        <time>2018-04-21T13:57:38.000Z</time>
      </trkpt>
      <trkpt lat="40.78415" lon="-3.990917">
        <ele>2117.4</ele>
        <time>2018-04-21T13:57:39.000Z</time>
      </trkpt>
      <trkpt lat="40.784152" lon="-3.990929">
        <ele>2117.4</ele>
        <time>2018-04-21T13:57:40.000Z</time>
      </trkpt>
      <trkpt lat="40.784154" lon="-3.990945">
        <ele>2117.3</ele>
        <time>2018-04-21T13:57:41.000Z</time>
      </trkpt>
      <trkpt lat="40.784157" lon="-3.990963">
        <ele>2117.2</ele>
        <time>2018-04-21T13:57:42.000Z</time>
      </trkpt>
      <trkpt lat="40.78416" lon="-3.990981">
        <ele>2117.1</ele>
        <time>2018-04-21T13:57:43.000Z</time>
      </trkpt>
      <trkpt lat="40.784162" lon="-3.990998">
        <ele>2117.0</ele>
        <time>2018-04-21T13:57:44.000Z</time>
      </trkpt>
      <trkpt lat="40.784163" lon="-3.991013">
        <ele>2116.9</ele>
        <time>2018-04-21T13:57:45.000Z</time>
      </trkpt>
      <trkpt lat="40.784164" lon="-3.991029">
        <ele>2116.8</ele>
        <time>2018-04-21T13:57:46.000Z</time>
      </trkpt>
      <trkpt lat="40.784164" lon="-3.991043">
        <ele>2116.6</ele>
        <time>2018-04-21T13:57:47.000Z</time>
      </trkpt>
      <trkpt lat="40.784164" lon="-3.991057">
        <ele>2116.5</ele>
        <time>2018-04-21T13:57:48.000Z</time>
      </trkpt>
      <trkpt lat="40.784164" lon="-3.991071">
        <ele>2116.3</ele>
        <time>2018-04-21T13:57:49.000Z</time>
      </trkpt>
      <trkpt lat="40.784162" lon="-3.991085">
        <ele>2116.1</ele>
        <time>2018-04-21T13:57:50.000Z</time>
      </trkpt>
      <trkpt lat="40.784161" lon="-3.991099">
        <ele>2115.9</ele>
        <time>2018-04-21T13:57:51.000Z</time>
      </trkpt>
      <trkpt lat="40.784158" lon="-3.991113">
        <ele>2115.7</ele>
        <time>2018-04-21T13:57:52.000Z</time>
      </trkpt>
      <trkpt lat="40.784156" lon="-3.991127">
        <ele>2115.4</ele>
        <time>2018-04-21T13:57:53.000Z</time>
      </trkpt>
      <trkpt lat="40.784154" lon="-3.991141">
        <ele>2115.2</ele>
        <time>2018-04-21T13:57:54.000Z</time>
      </trkpt>
      <trkpt lat="40.784151" lon="-3.991154">
        <ele>2115.0</ele>
        <time>2018-04-21T13:57:55.000Z</time>
      </trkpt>
      <trkpt lat="40.784149" lon="-3.991168">
        <ele>2114.8</ele>
        <time>2018-04-21T13:57:56.000Z</time>
      </trkpt>
      <trkpt lat="40.784147" lon="-3.991181">
        <ele>2114.5</ele>
        <time>2018-04-21T13:57:57.000Z</time>
      </trkpt>
      <trkpt lat="40.784145" lon="-3.991194">
        <ele>2114.3</ele>
        <time>2018-04-21T13:57:58.000Z</time>
      </trkpt>
      <trkpt lat="40.784145" lon="-3.991206">
        <ele>2114.2</ele>
        <time>2018-04-21T13:57:59.000Z</time>
      </trkpt>
      <trkpt lat="40.784144" lon="-3.991218">
        <ele>2114.1</ele>
        <time>2018-04-21T13:58:00.000Z</time>
      </trkpt>
      <trkpt lat="40.784145" lon="-3.99123">
        <ele>2114.0</ele>
        <time>2018-04-21T13:58:01.000Z</time>
      </trkpt>
      <trkpt lat="40.784146" lon="-3.991242">
        <ele>2113.9</ele>
        <time>2018-04-21T13:58:02.000Z</time>
      </trkpt>
      <trkpt lat="40.784147" lon="-3.991253">
        <ele>2113.8</ele>
        <time>2018-04-21T13:58:03.000Z</time>
      </trkpt>
      <trkpt lat="40.784149" lon="-3.991265">
        <ele>2113.7</ele>
        <time>2018-04-21T13:58:04.000Z</time>
      </trkpt>
      <trkpt lat="40.784151" lon="-3.991276">
        <ele>2113.7</ele>
        <time>2018-04-21T13:58:05.000Z</time>
      </trkpt>
      <trkpt lat="40.784154" lon="-3.991288">
        <ele>2113.7</ele>
        <time>2018-04-21T13:58:06.000Z</time>
      </trkpt>
      <trkpt lat="40.784157" lon="-3.9913">
        <ele>2113.6</ele>
        <time>2018-04-21T13:58:07.000Z</time>
      </trkpt>
      <trkpt lat="40.78416" lon="-3.991313">
        <ele>2113.6</ele>
        <time>2018-04-21T13:58:08.000Z</time>
      </trkpt>
      <trkpt lat="40.784163" lon="-3.991325">
        <ele>2113.6</ele>
        <time>2018-04-21T13:58:09.000Z</time>
      </trkpt>
      <trkpt lat="40.784166" lon="-3.991338">
        <ele>2113.5</ele>
        <time>2018-04-21T13:58:10.000Z</time>
      </trkpt>
      <trkpt lat="40.784168" lon="-3.99135">
        <ele>2113.5</ele>
        <time>2018-04-21T13:58:11.000Z</time>
      </trkpt>
      <trkpt lat="40.78417" lon="-3.991363">
        <ele>2113.4</ele>
        <time>2018-04-21T13:58:12.000Z</time>
      </trkpt>
      <trkpt lat="40.784171" lon="-3.991376">
        <ele>2113.2</ele>
        <time>2018-04-21T13:58:13.000Z</time>
      </trkpt>
      <trkpt lat="40.784172" lon="-3.991388">
        <ele>2113.1</ele>
        <time>2018-04-21T13:58:14.000Z</time>
      </trkpt>
      <trkpt lat="40.784172" lon="-3.991401">
        <ele>2113.0</ele>
        <time>2018-04-21T13:58:15.000Z</time>
      </trkpt>
      <trkpt lat="40.78417" lon="-3.991413">
        <ele>2112.8</ele>
        <time>2018-04-21T13:58:16.000Z</time>
      </trkpt>
      <trkpt lat="40.784167" lon="-3.991425">
        <ele>2112.6</ele>
        <time>2018-04-21T13:58:17.000Z</time>
      </trkpt>
      <trkpt lat="40.784163" lon="-3.991437">
        <ele>2112.4</ele>
        <time>2018-04-21T13:58:18.000Z</time>
      </trkpt>
      <trkpt lat="40.784158" lon="-3.991449">
        <ele>2112.1</ele>
        <time>2018-04-21T13:58:19.000Z</time>
      </trkpt>
      <trkpt lat="40.78415" lon="-3.99146">
        <ele>2111.7</ele>
        <time>2018-04-21T13:58:20.000Z</time>
      </trkpt>
      <trkpt lat="40.784142" lon="-3.99147">
        <ele>2111.4</ele>
        <time>2018-04-21T13:58:21.000Z</time>
      </trkpt>
      <trkpt lat="40.784135" lon="-3.991479">
        <ele>2111.1</ele>
        <time>2018-04-21T13:58:22.000Z</time>
      </trkpt>
      <trkpt lat="40.784128" lon="-3.991486">
        <ele>2110.8</ele>
        <time>2018-04-21T13:58:23.000Z</time>
      </trkpt>
      <trkpt lat="40.784123" lon="-3.991489">
        <ele>2110.7</ele>
        <time>2018-04-21T13:58:24.000Z</time>
      </trkpt>
      <trkpt lat="40.784119" lon="-3.991491">
        <ele>2110.5</ele>
        <time>2018-04-21T13:58:25.000Z</time>
      </trkpt>
      <trkpt lat="40.784117" lon="-3.991492">
        <ele>2110.4</ele>
        <time>2018-04-21T13:58:26.000Z</time>
      </trkpt>
      <trkpt lat="40.784116" lon="-3.991491">
        <ele>2110.4</ele>
        <time>2018-04-21T13:58:27.000Z</time>
      </trkpt>
      <trkpt lat="40.784115" lon="-3.991491">
        <ele>2110.4</ele>
        <time>2018-04-21T13:58:28.000Z</time>
      </trkpt>
      <trkpt lat="40.784115" lon="-3.991491">
        <ele>2110.4</ele>
        <time>2018-04-21T13:58:29.000Z</time>
      </trkpt>
      <trkpt lat="40.784115" lon="-3.991491">
        <ele>2110.4</ele>
        <time>2018-04-21T13:58:30.000Z</time>
      </trkpt>
      <trkpt lat="40.784115" lon="-3.991491">
        <ele>2110.4</ele>
        <time>2018-04-21T13:58:31.000Z</time>
      </trkpt>
      <trkpt lat="40.784116" lon="-3.991491">
        <ele>2110.4</ele>
        <time>2018-04-21T13:58:32.000Z</time>
      </trkpt>
      <trkpt lat="40.784116" lon="-3.991491">
        <ele>2110.4</ele>
        <time>2018-04-21T13:58:33.000Z</time>
      </trkpt>
      <trkpt lat="40.784116" lon="-3.991491">
        <ele>2110.4</ele>
        <time>2018-04-21T13:58:34.000Z</time>
      </trkpt>
      <trkpt lat="40.784116" lon="-3.991491">
        <ele>2110.4</ele>
        <time>2018-04-21T13:58:35.000Z</time>
      </trkpt>
      <trkpt lat="40.784115" lon="-3.991491">
        <ele>2110.4</ele>
        <time>2018-04-21T13:58:36.000Z</time>
      </trkpt>
      <trkpt lat="40.784115" lon="-3.991491">
        <ele>2110.4</ele>
        <time>2018-04-21T13:58:37.000Z</time>
      </trkpt>
      <trkpt lat="40.784114" lon="-3.991491">
        <ele>2110.4</ele>
        <time>2018-04-21T13:58:38.000Z</time>
      </trkpt>
      <trkpt lat="40.784114" lon="-3.991491">
        <ele>2110.4</ele>
        <time>2018-04-21T13:58:39.000Z</time>
      </trkpt>
      <trkpt lat="40.784114" lon="-3.991491">
        <ele>2110.4</ele>
        <time>2018-04-21T13:58:40.000Z</time>
      </trkpt>
      <trkpt lat="40.784113" lon="-3.991491">
        <ele>2110.3</ele>
        <time>2018-04-21T13:58:41.000Z</time>
      </trkpt>
      <trkpt lat="40.784113" lon="-3.991491">
        <ele>2110.3</ele>
        <time>2018-04-21T13:58:42.000Z</time>
      </trkpt>
      <trkpt lat="40.784114" lon="-3.991492">
        <ele>2110.4</ele>
        <time>2018-04-21T13:58:43.000Z</time>
      </trkpt>
      <trkpt lat="40.784114" lon="-3.991492">
        <ele>2110.4</ele>
        <time>2018-04-21T13:58:44.000Z</time>
      </trkpt>
      <trkpt lat="40.784113" lon="-3.991491">
        <ele>2110.3</ele>
        <time>2018-04-21T13:58:45.000Z</time>
      </trkpt>
      <trkpt lat="40.784112" lon="-3.991489">
        <ele>2110.3</ele>
        <time>2018-04-21T13:58:46.000Z</time>
      </trkpt>
      <trkpt lat="40.78411" lon="-3.991485">
        <ele>2110.3</ele>
        <time>2018-04-21T13:58:47.000Z</time>
      </trkpt>
      <trkpt lat="40.784107" lon="-3.99148">
        <ele>2110.3</ele>
        <time>2018-04-21T13:58:48.000Z</time>
      </trkpt>
      <trkpt lat="40.784103" lon="-3.991472">
        <ele>2110.2</ele>
        <time>2018-04-21T13:58:49.000Z</time>
      </trkpt>
      <trkpt lat="40.784098" lon="-3.991463">
        <ele>2110.2</ele>
        <time>2018-04-21T13:58:50.000Z</time>
      </trkpt>
      <trkpt lat="40.784092" lon="-3.991452">
        <ele>2110.1</ele>
        <time>2018-04-21T13:58:51.000Z</time>
      </trkpt>
      <trkpt lat="40.784085" lon="-3.99144">
        <ele>2110.0</ele>
        <time>2018-04-21T13:58:52.000Z</time>
      </trkpt>
      <trkpt lat="40.784078" lon="-3.991428">
        <ele>2109.9</ele>
        <time>2018-04-21T13:58:53.000Z</time>
      </trkpt>
      <trkpt lat="40.78407" lon="-3.991416">
        <ele>2109.7</ele>
        <time>2018-04-21T13:58:54.000Z</time>
      </trkpt>
      <trkpt lat="40.784061" lon="-3.991404">
        <ele>2109.6</ele>
        <time>2018-04-21T13:58:55.000Z</time>
      </trkpt>
      <trkpt lat="40.784052" lon="-3.991392">
        <ele>2109.4</ele>
        <time>2018-04-21T13:58:56.000Z</time>
      </trkpt>
      <trkpt lat="40.784042" lon="-3.991382">
        <ele>2109.2</ele>
        <time>2018-04-21T13:58:57.000Z</time>
      </trkpt>
      <trkpt lat="40.784033" lon="-3.991373">
        <ele>2109.0</ele>
        <time>2018-04-21T13:58:58.000Z</time>
      </trkpt>
      <trkpt lat="40.784024" lon="-3.991365">
        <ele>2108.7</ele>
        <time>2018-04-21T13:58:59.000Z</time>
      </trkpt>
      <trkpt lat="40.784015" lon="-3.991358">
        <ele>2108.5</ele>
        <time>2018-04-21T13:59:00.000Z</time>
      </trkpt>
      <trkpt lat="40.784007" lon="-3.991353">
        <ele>2108.3</ele>
        <time>2018-04-21T13:59:01.000Z</time>
      </trkpt>
      <trkpt lat="40.783999" lon="-3.991348">
        <ele>2108.1</ele>
        <time>2018-04-21T13:59:02.000Z</time>
      </trkpt>
      <trkpt lat="40.783993" lon="-3.991345">
        <ele>2107.9</ele>
        <time>2018-04-21T13:59:03.000Z</time>
      </trkpt>
      <trkpt lat="40.783987" lon="-3.991343">
        <ele>2107.7</ele>
        <time>2018-04-21T13:59:04.000Z</time>
      </trkpt>
      <trkpt lat="40.783982" lon="-3.991341">
        <ele>2107.6</ele>
        <time>2018-04-21T13:59:05.000Z</time>
      </trkpt>
      <trkpt lat="40.783976" lon="-3.991339">
        <ele>2107.4</ele>
        <time>2018-04-21T13:59:06.000Z</time>
      </trkpt>
      <trkpt lat="40.78397" lon="-3.991335">
        <ele>2107.2</ele>
        <time>2018-04-21T13:59:07.000Z</time>
      </trkpt>
      <trkpt lat="40.783961" lon="-3.991328">
        <ele>2107.0</ele>
        <time>2018-04-21T13:59:08.000Z</time>
      </trkpt>
      <trkpt lat="40.783952" lon="-3.991321">
        <ele>2106.7</ele>
        <time>2018-04-21T13:59:09.000Z</time>
      </trkpt>
      <trkpt lat="40.783942" lon="-3.991312">
        <ele>2106.4</ele>
        <time>2018-04-21T13:59:10.000Z</time>
      </trkpt>
      <trkpt lat="40.783933" lon="-3.991304">
        <ele>2106.2</ele>
        <time>2018-04-21T13:59:11.000Z</time>
      </trkpt>
      <trkpt lat="40.783924" lon="-3.991295">
        <ele>2106.0</ele>
        <time>2018-04-21T13:59:12.000Z</time>
      </trkpt>
      <trkpt lat="40.783915" lon="-3.991288">
        <ele>2105.7</ele>
        <time>2018-04-21T13:59:13.000Z</time>
      </trkpt>
      <trkpt lat="40.783907" lon="-3.99128">
        <ele>2105.5</ele>
        <time>2018-04-21T13:59:14.000Z</time>
      </trkpt>
      <trkpt lat="40.783899" lon="-3.991274">
        <ele>2105.2</ele>
        <time>2018-04-21T13:59:15.000Z</time>
      </trkpt>
      <trkpt lat="40.783891" lon="-3.991268">
        <ele>2105.0</ele>
        <time>2018-04-21T13:59:16.000Z</time>
      </trkpt>
      <trkpt lat="40.783883" lon="-3.991262">
        <ele>2104.7</ele>
        <time>2018-04-21T13:59:17.000Z</time>
      </trkpt>
      <trkpt lat="40.783874" lon="-3.991258">
        <ele>2104.5</ele>
        <time>2018-04-21T13:59:18.000Z</time>
      </trkpt>
      <trkpt lat="40.783866" lon="-3.991254">
        <ele>2104.2</ele>
        <time>2018-04-21T13:59:19.000Z</time>
      </trkpt>
      <trkpt lat="40.783857" lon="-3.991251">
        <ele>2103.9</ele>
        <time>2018-04-21T13:59:20.000Z</time>
      </trkpt>
      <trkpt lat="40.783848" lon="-3.99125">
        <ele>2103.6</ele>
        <time>2018-04-21T13:59:21.000Z</time>
      </trkpt>
      <trkpt lat="40.783839" lon="-3.991249">
        <ele>2103.3</ele>
        <time>2018-04-21T13:59:22.000Z</time>
      </trkpt>
      <trkpt lat="40.78383" lon="-3.99125">
        <ele>2103.0</ele>
        <time>2018-04-21T13:59:23.000Z</time>
      </trkpt>
      <trkpt lat="40.783821" lon="-3.991251">
        <ele>2102.7</ele>
        <time>2018-04-21T13:59:24.000Z</time>
      </trkpt>
      <trkpt lat="40.783812" lon="-3.991255">
        <ele>2102.4</ele>
        <time>2018-04-21T13:59:25.000Z</time>
      </trkpt>
      <trkpt lat="40.783803" lon="-3.991259">
        <ele>2102.0</ele>
        <time>2018-04-21T13:59:26.000Z</time>
      </trkpt>
      <trkpt lat="40.783794" lon="-3.991266">
        <ele>2101.7</ele>
        <time>2018-04-21T13:59:27.000Z</time>
      </trkpt>
      <trkpt lat="40.783785" lon="-3.991274">
        <ele>2101.4</ele>
        <time>2018-04-21T13:59:28.000Z</time>
      </trkpt>
      <trkpt lat="40.783777" lon="-3.991286">
        <ele>2101.1</ele>
        <time>2018-04-21T13:59:29.000Z</time>
      </trkpt>
      <trkpt lat="40.78377" lon="-3.9913">
        <ele>2100.8</ele>
        <time>2018-04-21T13:59:30.000Z</time>
      </trkpt>
      <trkpt lat="40.783765" lon="-3.991315">
        <ele>2100.6</ele>
        <time>2018-04-21T13:59:31.000Z</time>
      </trkpt>
      <trkpt lat="40.783761" lon="-3.991328">
        <ele>2100.5</ele>
        <time>2018-04-21T13:59:32.000Z</time>
      </trkpt>
      <trkpt lat="40.783758" lon="-3.991339">
        <ele>2100.3</ele>
        <time>2018-04-21T13:59:33.000Z</time>
      </trkpt>
      <trkpt lat="40.783756" lon="-3.991346">
        <ele>2100.3</ele>
        <time>2018-04-21T13:59:34.000Z</time>
      </trkpt>
      <trkpt lat="40.783756" lon="-3.991351">
        <ele>2100.3</ele>
        <time>2018-04-21T13:59:35.000Z</time>
      </trkpt>
      <trkpt lat="40.783756" lon="-3.991354">
        <ele>2100.3</ele>
        <time>2018-04-21T13:59:36.000Z</time>
      </trkpt>
      <trkpt lat="40.783756" lon="-3.991357">
        <ele>2100.2</ele>
        <time>2018-04-21T13:59:37.000Z</time>
      </trkpt>
      <trkpt lat="40.783756" lon="-3.991361">
        <ele>2100.2</ele>
        <time>2018-04-21T13:59:38.000Z</time>
      </trkpt>
      <trkpt lat="40.783756" lon="-3.991365">
        <ele>2100.2</ele>
        <time>2018-04-21T13:59:39.000Z</time>
      </trkpt>
      <trkpt lat="40.783755" lon="-3.991372">
        <ele>2100.2</ele>
        <time>2018-04-21T13:59:40.000Z</time>
      </trkpt>
      <trkpt lat="40.783753" lon="-3.991381">
        <ele>2100.1</ele>
        <time>2018-04-21T13:59:41.000Z</time>
      </trkpt>
      <trkpt lat="40.78375" lon="-3.991393">
        <ele>2100.0</ele>
        <time>2018-04-21T13:59:42.000Z</time>
      </trkpt>
      <trkpt lat="40.783747" lon="-3.991406">
        <ele>2099.9</ele>
        <time>2018-04-21T13:59:43.000Z</time>
      </trkpt>
      <trkpt lat="40.783743" lon="-3.991421">
        <ele>2099.7</ele>
        <time>2018-04-21T13:59:44.000Z</time>
      </trkpt>
      <trkpt lat="40.783739" lon="-3.991437">
        <ele>2099.6</ele>
        <time>2018-04-21T13:59:45.000Z</time>
      </trkpt>
      <trkpt lat="40.783734" lon="-3.991453">
        <ele>2099.4</ele>
        <time>2018-04-21T13:59:46.000Z</time>
      </trkpt>
      <trkpt lat="40.78373" lon="-3.991469">
        <ele>2099.3</ele>
        <time>2018-04-21T13:59:47.000Z</time>
      </trkpt>
      <trkpt lat="40.783727" lon="-3.991485">
        <ele>2099.2</ele>
        <time>2018-04-21T13:59:48.000Z</time>
      </trkpt>
      <trkpt lat="40.783723" lon="-3.991501">
        <ele>2099.0</ele>
        <time>2018-04-21T13:59:49.000Z</time>
      </trkpt>
      <trkpt lat="40.78372" lon="-3.991516">
        <ele>2098.9</ele>
        <time>2018-04-21T13:59:50.000Z</time>
      </trkpt>
      <trkpt lat="40.783718" lon="-3.991531">
        <ele>2098.8</ele>
        <time>2018-04-21T13:59:51.000Z</time>
      </trkpt>
      <trkpt lat="40.783716" lon="-3.991545">
        <ele>2098.8</ele>
        <time>2018-04-21T13:59:52.000Z</time>
      </trkpt>
      <trkpt lat="40.783715" lon="-3.991559">
        <ele>2098.7</ele>
        <time>2018-04-21T13:59:53.000Z</time>
      </trkpt>
      <trkpt lat="40.783714" lon="-3.991572">
        <ele>2098.7</ele>
        <time>2018-04-21T13:59:54.000Z</time>
      </trkpt>
      <trkpt lat="40.783713" lon="-3.991585">
        <ele>2098.6</ele>
        <time>2018-04-21T13:59:55.000Z</time>
      </trkpt>
      <trkpt lat="40.783714" lon="-3.991597">
        <ele>2098.7</ele>
        <time>2018-04-21T13:59:56.000Z</time>
      </trkpt>
      <trkpt lat="40.783714" lon="-3.991609">
        <ele>2098.7</ele>
        <time>2018-04-21T13:59:57.000Z</time>
      </trkpt>
      <trkpt lat="40.783715" lon="-3.991621">
        <ele>2098.7</ele>
        <time>2018-04-21T13:59:58.000Z</time>
      </trkpt>
      <trkpt lat="40.783715" lon="-3.991632">
        <ele>2098.7</ele>
        <time>2018-04-21T13:59:59.000Z</time>
      </trkpt>
      <trkpt lat="40.783715" lon="-3.991642">
        <ele>2098.6</ele>
        <time>2018-04-21T14:00:00.000Z</time>
      </trkpt>
      <trkpt lat="40.783715" lon="-3.991653">
        <ele>2098.6</ele>
        <time>2018-04-21T14:00:01.000Z</time>
      </trkpt>
      <trkpt lat="40.783713" lon="-3.991664">
        <ele>2098.6</ele>
        <time>2018-04-21T14:00:02.000Z</time>
      </trkpt>
      <trkpt lat="40.783711" lon="-3.991674">
        <ele>2098.4</ele>
        <time>2018-04-21T14:00:03.000Z</time>
      </trkpt>
      <trkpt lat="40.783707" lon="-3.991683">
        <ele>2098.1</ele>
        <time>2018-04-21T14:00:04.000Z</time>
      </trkpt>
      <trkpt lat="40.783703" lon="-3.991692">
        <ele>2097.8</ele>
        <time>2018-04-21T14:00:05.000Z</time>
      </trkpt>
      <trkpt lat="40.783698" lon="-3.991699">
        <ele>2097.6</ele>
        <time>2018-04-21T14:00:06.000Z</time>
      </trkpt>
      <trkpt lat="40.783692" lon="-3.991703">
        <ele>2097.4</ele>
        <time>2018-04-21T14:00:07.000Z</time>
      </trkpt>
      <trkpt lat="40.783685" lon="-3.991705">
        <ele>2097.2</ele>
        <time>2018-04-21T14:00:08.000Z</time>
      </trkpt>
      <trkpt lat="40.783678" lon="-3.991703">
        <ele>2097.0</ele>
        <time>2018-04-21T14:00:09.000Z</time>
      </trkpt>
      <trkpt lat="40.783671" lon="-3.991698">
        <ele>2097.0</ele>
        <time>2018-04-21T14:00:10.000Z</time>
      </trkpt>
      <trkpt lat="40.783663" lon="-3.99169">
        <ele>2096.9</ele>
        <time>2018-04-21T14:00:11.000Z</time>
      </trkpt>
      <trkpt lat="40.783655" lon="-3.991679">
        <ele>2096.9</ele>
        <time>2018-04-21T14:00:12.000Z</time>
      </trkpt>
      <trkpt lat="40.783647" lon="-3.991668">
        <ele>2096.9</ele>
        <time>2018-04-21T14:00:13.000Z</time>
      </trkpt>
      <trkpt lat="40.783638" lon="-3.991655">
        <ele>2096.7</ele>
        <time>2018-04-21T14:00:14.000Z</time>
      </trkpt>
      <trkpt lat="40.78363" lon="-3.991643">
        <ele>2096.5</ele>
        <time>2018-04-21T14:00:15.000Z</time>
      </trkpt>
      <trkpt lat="40.783621" lon="-3.991632">
        <ele>2096.2</ele>
        <time>2018-04-21T14:00:16.000Z</time>
      </trkpt>
      <trkpt lat="40.783612" lon="-3.991623">
        <ele>2096.0</ele>
        <time>2018-04-21T14:00:17.000Z</time>
      </trkpt>
      <trkpt lat="40.783604" lon="-3.991615">
        <ele>2095.8</ele>
        <time>2018-04-21T14:00:18.000Z</time>
      </trkpt>
      <trkpt lat="40.783595" lon="-3.991608">
        <ele>2095.5</ele>
        <time>2018-04-21T14:00:19.000Z</time>
      </trkpt>
      <trkpt lat="40.783587" lon="-3.991602">
        <ele>2095.3</ele>
        <time>2018-04-21T14:00:20.000Z</time>
      </trkpt>
      <trkpt lat="40.783579" lon="-3.991596">
        <ele>2095.1</ele>
        <time>2018-04-21T14:00:21.000Z</time>
      </trkpt>
      <trkpt lat="40.783571" lon="-3.991591">
        <ele>2094.8</ele>
        <time>2018-04-21T14:00:22.000Z</time>
      </trkpt>
      <trkpt lat="40.783563" lon="-3.991584">
        <ele>2094.6</ele>
        <time>2018-04-21T14:00:23.000Z</time>
      </trkpt>
      <trkpt lat="40.783556" lon="-3.991577">
        <ele>2094.4</ele>
        <time>2018-04-21T14:00:24.000Z</time>
      </trkpt>
      <trkpt lat="40.783549" lon="-3.991569">
        <ele>2094.2</ele>
        <time>2018-04-21T14:00:25.000Z</time>
      </trkpt>
      <trkpt lat="40.783542" lon="-3.991559">
        <ele>2094.0</ele>
        <time>2018-04-21T14:00:26.000Z</time>
      </trkpt>
      <trkpt lat="40.783536" lon="-3.991551">
        <ele>2093.8</ele>
        <time>2018-04-21T14:00:27.000Z</time>
      </trkpt>
      <trkpt lat="40.783529" lon="-3.991542">
        <ele>2093.6</ele>
        <time>2018-04-21T14:00:28.000Z</time>
      </trkpt>
      <trkpt lat="40.783522" lon="-3.991536">
        <ele>2093.3</ele>
        <time>2018-04-21T14:00:29.000Z</time>
      </trkpt>
      <trkpt lat="40.783516" lon="-3.991531">
        <ele>2093.2</ele>
        <time>2018-04-21T14:00:30.000Z</time>
      </trkpt>
      <trkpt lat="40.78351" lon="-3.991528">
        <ele>2093.0</ele>
        <time>2018-04-21T14:00:31.000Z</time>
      </trkpt>
      <trkpt lat="40.783505" lon="-3.991527">
        <ele>2092.8</ele>
        <time>2018-04-21T14:00:32.000Z</time>
      </trkpt>
      <trkpt lat="40.7835" lon="-3.991527">
        <ele>2092.7</ele>
        <time>2018-04-21T14:00:33.000Z</time>
      </trkpt>
      <trkpt lat="40.783496" lon="-3.991526">
        <ele>2092.6</ele>
        <time>2018-04-21T14:00:34.000Z</time>
      </trkpt>
      <trkpt lat="40.78349" lon="-3.991524">
        <ele>2092.4</ele>
        <time>2018-04-21T14:00:35.000Z</time>
      </trkpt>
      <trkpt lat="40.783484" lon="-3.991517">
        <ele>2092.2</ele>
        <time>2018-04-21T14:00:36.000Z</time>
      </trkpt>
      <trkpt lat="40.783477" lon="-3.991508">
        <ele>2092.0</ele>
        <time>2018-04-21T14:00:37.000Z</time>
      </trkpt>
      <trkpt lat="40.783469" lon="-3.991497">
        <ele>2091.7</ele>
        <time>2018-04-21T14:00:38.000Z</time>
      </trkpt>
      <trkpt lat="40.783461" lon="-3.991485">
        <ele>2091.4</ele>
        <time>2018-04-21T14:00:39.000Z</time>
      </trkpt>
      <trkpt lat="40.783454" lon="-3.991472">
        <ele>2091.1</ele>
        <time>2018-04-21T14:00:40.000Z</time>
      </trkpt>
      <trkpt lat="40.783446" lon="-3.99146">
        <ele>2090.9</ele>
        <time>2018-04-21T14:00:41.000Z</time>
      </trkpt>
      <trkpt lat="40.783439" lon="-3.991447">
        <ele>2090.6</ele>
        <time>2018-04-21T14:00:42.000Z</time>
      </trkpt>
      <trkpt lat="40.783431" lon="-3.991435">
        <ele>2090.3</ele>
        <time>2018-04-21T14:00:43.000Z</time>
      </trkpt>
      <trkpt lat="40.783424" lon="-3.991423">
        <ele>2090.0</ele>
        <time>2018-04-21T14:00:44.000Z</time>
      </trkpt>
      <trkpt lat="40.783415" lon="-3.991412">
        <ele>2089.7</ele>
        <time>2018-04-21T14:00:45.000Z</time>
      </trkpt>
      <trkpt lat="40.783406" lon="-3.991402">
        <ele>2089.3</ele>
        <time>2018-04-21T14:00:46.000Z</time>
      </trkpt>
      <trkpt lat="40.783397" lon="-3.991392">
        <ele>2089.0</ele>
        <time>2018-04-21T14:00:47.000Z</time>
      </trkpt>
      <trkpt lat="40.783387" lon="-3.991384">
        <ele>2088.6</ele>
        <time>2018-04-21T14:00:48.000Z</time>
      </trkpt>
      <trkpt lat="40.783377" lon="-3.991378">
        <ele>2088.3</ele>
        <time>2018-04-21T14:00:49.000Z</time>
      </trkpt>
      <trkpt lat="40.783366" lon="-3.991373">
        <ele>2087.9</ele>
        <time>2018-04-21T14:00:50.000Z</time>
      </trkpt>
      <trkpt lat="40.783354" lon="-3.99137">
        <ele>2087.5</ele>
        <time>2018-04-21T14:00:51.000Z</time>
      </trkpt>
      <trkpt lat="40.783343" lon="-3.99137">
        <ele>2087.2</ele>
        <time>2018-04-21T14:00:52.000Z</time>
      </trkpt>
      <trkpt lat="40.783332" lon="-3.991372">
        <ele>2086.8</ele>
        <time>2018-04-21T14:00:53.000Z</time>
      </trkpt>
      <trkpt lat="40.783321" lon="-3.991377">
        <ele>2086.2</ele>
        <time>2018-04-21T14:00:54.000Z</time>
      </trkpt>
      <trkpt lat="40.78331" lon="-3.991385">
        <ele>2085.7</ele>
        <time>2018-04-21T14:00:55.000Z</time>
      </trkpt>
      <trkpt lat="40.783299" lon="-3.991396">
        <ele>2085.1</ele>
        <time>2018-04-21T14:00:56.000Z</time>
      </trkpt>
      <trkpt lat="40.783289" lon="-3.991408">
        <ele>2084.7</ele>
        <time>2018-04-21T14:00:57.000Z</time>
      </trkpt>
      <trkpt lat="40.783281" lon="-3.991423">
        <ele>2084.3</ele>
        <time>2018-04-21T14:00:58.000Z</time>
      </trkpt>
      <trkpt lat="40.783273" lon="-3.991438">
        <ele>2084.0</ele>
        <time>2018-04-21T14:00:59.000Z</time>
      </trkpt>
      <trkpt lat="40.783267" lon="-3.991454">
        <ele>2083.8</ele>
        <time>2018-04-21T14:01:00.000Z</time>
      </trkpt>
      <trkpt lat="40.783263" lon="-3.99147">
        <ele>2083.7</ele>
        <time>2018-04-21T14:01:01.000Z</time>
      </trkpt>
      <trkpt lat="40.783261" lon="-3.991485">
        <ele>2083.7</ele>
        <time>2018-04-21T14:01:02.000Z</time>
      </trkpt>
      <trkpt lat="40.783261" lon="-3.9915">
        <ele>2083.8</ele>
        <time>2018-04-21T14:01:03.000Z</time>
      </trkpt>
      <trkpt lat="40.783262" lon="-3.991515">
        <ele>2084.0</ele>
        <time>2018-04-21T14:01:04.000Z</time>
      </trkpt>
      <trkpt lat="40.783263" lon="-3.99153">
        <ele>2084.1</ele>
        <time>2018-04-21T14:01:05.000Z</time>
      </trkpt>
      <trkpt lat="40.783266" lon="-3.991545">
        <ele>2084.4</ele>
        <time>2018-04-21T14:01:06.000Z</time>
      </trkpt>
      <trkpt lat="40.783268" lon="-3.99156">
        <ele>2084.6</ele>
        <time>2018-04-21T14:01:07.000Z</time>
      </trkpt>
      <trkpt lat="40.78327" lon="-3.991576">
        <ele>2084.8</ele>
        <time>2018-04-21T14:01:08.000Z</time>
      </trkpt>
      <trkpt lat="40.783271" lon="-3.991592">
        <ele>2085.0</ele>
        <time>2018-04-21T14:01:09.000Z</time>
      </trkpt>
      <trkpt lat="40.783272" lon="-3.991609">
        <ele>2085.2</ele>
        <time>2018-04-21T14:01:10.000Z</time>
      </trkpt>
      <trkpt lat="40.783272" lon="-3.991626">
        <ele>2085.3</ele>
        <time>2018-04-21T14:01:11.000Z</time>
      </trkpt>
      <trkpt lat="40.783271" lon="-3.991642">
        <ele>2085.4</ele>
        <time>2018-04-21T14:01:12.000Z</time>
      </trkpt>
      <trkpt lat="40.78327" lon="-3.991658">
        <ele>2085.4</ele>
        <time>2018-04-21T14:01:13.000Z</time>
      </trkpt>
      <trkpt lat="40.783269" lon="-3.991674">
        <ele>2085.4</ele>
        <time>2018-04-21T14:01:14.000Z</time>
      </trkpt>
      <trkpt lat="40.783268" lon="-3.991688">
        <ele>2085.2</ele>
        <time>2018-04-21T14:01:15.000Z</time>
      </trkpt>
      <trkpt lat="40.783266" lon="-3.991701">
        <ele>2084.9</ele>
        <time>2018-04-21T14:01:16.000Z</time>
      </trkpt>
      <trkpt lat="40.783265" lon="-3.991713">
        <ele>2084.7</ele>
        <time>2018-04-21T14:01:17.000Z</time>
      </trkpt>
      <trkpt lat="40.783263" lon="-3.991724">
        <ele>2084.5</ele>
        <time>2018-04-21T14:01:18.000Z</time>
      </trkpt>
      <trkpt lat="40.783262" lon="-3.991733">
        <ele>2084.3</ele>
        <time>2018-04-21T14:01:19.000Z</time>
      </trkpt>
      <trkpt lat="40.783261" lon="-3.99174">
        <ele>2084.2</ele>
        <time>2018-04-21T14:01:20.000Z</time>
      </trkpt>
      <trkpt lat="40.78326" lon="-3.991746">
        <ele>2084.1</ele>
        <time>2018-04-21T14:01:21.000Z</time>
      </trkpt>
      <trkpt lat="40.783259" lon="-3.991749">
        <ele>2084.0</ele>
        <time>2018-04-21T14:01:22.000Z</time>
      </trkpt>
      <trkpt lat="40.783259" lon="-3.991751">
        <ele>2084.0</ele>
        <time>2018-04-21T14:01:23.000Z</time>
      </trkpt>
      <trkpt lat="40.78326" lon="-3.99175">
        <ele>2084.0</ele>
        <time>2018-04-21T14:01:24.000Z</time>
      </trkpt>
      <trkpt lat="40.78326" lon="-3.991748">
        <ele>2084.1</ele>
        <time>2018-04-21T14:01:25.000Z</time>
      </trkpt>
      <trkpt lat="40.783261" lon="-3.991745">
        <ele>2084.1</ele>
        <time>2018-04-21T14:01:26.000Z</time>
      </trkpt>
      <trkpt lat="40.783263" lon="-3.991741">
        <ele>2084.3</ele>
        <time>2018-04-21T14:01:27.000Z</time>
      </trkpt>
      <trkpt lat="40.783264" lon="-3.991737">
        <ele>2084.4</ele>
        <time>2018-04-21T14:01:28.000Z</time>
      </trkpt>
      <trkpt lat="40.783265" lon="-3.991734">
        <ele>2084.5</ele>
        <time>2018-04-21T14:01:29.000Z</time>
      </trkpt>
      <trkpt lat="40.783266" lon="-3.991732">
        <ele>2084.6</ele>
        <time>2018-04-21T14:01:30.000Z</time>
      </trkpt>
      <trkpt lat="40.783266" lon="-3.991732">
        <ele>2084.6</ele>
        <time>2018-04-21T14:01:31.000Z</time>
      </trkpt>
      <trkpt lat="40.783266" lon="-3.991734">
        <ele>2084.5</ele>
        <time>2018-04-21T14:01:32.000Z</time>
      </trkpt>
      <trkpt lat="40.783266" lon="-3.991737">
        <ele>2084.5</ele>
        <time>2018-04-21T14:01:33.000Z</time>
      </trkpt>
      <trkpt lat="40.783266" lon="-3.991741">
        <ele>2084.5</ele>
        <time>2018-04-21T14:01:34.000Z</time>
      </trkpt>
      <trkpt lat="40.783265" lon="-3.991747">
        <ele>2084.3</ele>
        <time>2018-04-21T14:01:35.000Z</time>
      </trkpt>
      <trkpt lat="40.783264" lon="-3.991755">
        <ele>2084.2</ele>
        <time>2018-04-21T14:01:36.000Z</time>
      </trkpt>
      <trkpt lat="40.783263" lon="-3.991763">
        <ele>2084.1</ele>
        <time>2018-04-21T14:01:37.000Z</time>
      </trkpt>
      <trkpt lat="40.783262" lon="-3.991773">
        <ele>2083.9</ele>
        <time>2018-04-21T14:01:38.000Z</time>
      </trkpt>
      <trkpt lat="40.783261" lon="-3.991784">
        <ele>2083.7</ele>
        <time>2018-04-21T14:01:39.000Z</time>
      </trkpt>
      <trkpt lat="40.78326" lon="-3.991795">
        <ele>2083.5</ele>
        <time>2018-04-21T14:01:40.000Z</time>
      </trkpt>
      <trkpt lat="40.783259" lon="-3.991808">
        <ele>2083.4</ele>
        <time>2018-04-21T14:01:41.000Z</time>
      </trkpt>
      <trkpt lat="40.783258" lon="-3.991821">
        <ele>2083.2</ele>
        <time>2018-04-21T14:01:42.000Z</time>
      </trkpt>
      <trkpt lat="40.783256" lon="-3.991835">
        <ele>2082.9</ele>
        <time>2018-04-21T14:01:43.000Z</time>
      </trkpt>
      <trkpt lat="40.783256" lon="-3.991849">
        <ele>2082.7</ele>
        <time>2018-04-21T14:01:44.000Z</time>
      </trkpt>
      <trkpt lat="40.783255" lon="-3.991864">
        <ele>2082.5</ele>
        <time>2018-04-21T14:01:45.000Z</time>
      </trkpt>
      <trkpt lat="40.783254" lon="-3.991879">
        <ele>2082.3</ele>
        <time>2018-04-21T14:01:46.000Z</time>
      </trkpt>
      <trkpt lat="40.783254" lon="-3.991894">
        <ele>2082.2</ele>
        <time>2018-04-21T14:01:47.000Z</time>
      </trkpt>
      <trkpt lat="40.783253" lon="-3.991909">
        <ele>2081.9</ele>
        <time>2018-04-21T14:01:48.000Z</time>
      </trkpt>
      <trkpt lat="40.783253" lon="-3.991924">
        <ele>2081.8</ele>
        <time>2018-04-21T14:01:49.000Z</time>
      </trkpt>
      <trkpt lat="40.783253" lon="-3.991937">
        <ele>2081.6</ele>
        <time>2018-04-21T14:01:50.000Z</time>
      </trkpt>
      <trkpt lat="40.783253" lon="-3.991949">
        <ele>2081.5</ele>
        <time>2018-04-21T14:01:51.000Z</time>
      </trkpt>
      <trkpt lat="40.783253" lon="-3.991959">
        <ele>2081.4</ele>
        <time>2018-04-21T14:01:52.000Z</time>
      </trkpt>
      <trkpt lat="40.783253" lon="-3.991967">
        <ele>2081.3</ele>
        <time>2018-04-21T14:01:53.000Z</time>
      </trkpt>
      <trkpt lat="40.783252" lon="-3.991972">
        <ele>2081.2</ele>
        <time>2018-04-21T14:01:54.000Z</time>
      </trkpt>
      <trkpt lat="40.783252" lon="-3.991976">
        <ele>2081.2</ele>
        <time>2018-04-21T14:01:55.000Z</time>
      </trkpt>
      <trkpt lat="40.783252" lon="-3.991979">
        <ele>2081.1</ele>
        <time>2018-04-21T14:01:56.000Z</time>
      </trkpt>
      <trkpt lat="40.783252" lon="-3.99198">
        <ele>2081.1</ele>
        <time>2018-04-21T14:01:57.000Z</time>
      </trkpt>
      <trkpt lat="40.783252" lon="-3.99198">
        <ele>2081.1</ele>
        <time>2018-04-21T14:01:58.000Z</time>
      </trkpt>
      <trkpt lat="40.783253" lon="-3.991981">
        <ele>2081.2</ele>
        <time>2018-04-21T14:01:59.000Z</time>
      </trkpt>
      <trkpt lat="40.783253" lon="-3.991981">
        <ele>2081.2</ele>
        <time>2018-04-21T14:02:00.000Z</time>
      </trkpt>
      <trkpt lat="40.783255" lon="-3.991982">
        <ele>2081.2</ele>
        <time>2018-04-21T14:02:01.000Z</time>
      </trkpt>
      <trkpt lat="40.783256" lon="-3.991984">
        <ele>2081.3</ele>
        <time>2018-04-21T14:02:02.000Z</time>
      </trkpt>
      <trkpt lat="40.783258" lon="-3.991987">
        <ele>2081.3</ele>
        <time>2018-04-21T14:02:03.000Z</time>
      </trkpt>
      <trkpt lat="40.783259" lon="-3.991991">
        <ele>2081.4</ele>
        <time>2018-04-21T14:02:04.000Z</time>
      </trkpt>
      <trkpt lat="40.78326" lon="-3.991997">
        <ele>2081.3</ele>
        <time>2018-04-21T14:02:05.000Z</time>
      </trkpt>
      <trkpt lat="40.78326" lon="-3.992003">
        <ele>2081.3</ele>
        <time>2018-04-21T14:02:06.000Z</time>
      </trkpt>
      <trkpt lat="40.783259" lon="-3.992011">
        <ele>2081.1</ele>
        <time>2018-04-21T14:02:07.000Z</time>
      </trkpt>
      <trkpt lat="40.783257" lon="-3.992021">
        <ele>2080.9</ele>
        <time>2018-04-21T14:02:08.000Z</time>
      </trkpt>
      <trkpt lat="40.783254" lon="-3.992032">
        <ele>2080.7</ele>
        <time>2018-04-21T14:02:09.000Z</time>
      </trkpt>
      <trkpt lat="40.783251" lon="-3.992044">
        <ele>2080.4</ele>
        <time>2018-04-21T14:02:10.000Z</time>
      </trkpt>
      <trkpt lat="40.783247" lon="-3.992058">
        <ele>2080.0</ele>
        <time>2018-04-21T14:02:11.000Z</time>
      </trkpt>
      <trkpt lat="40.783242" lon="-3.992072">
        <ele>2079.6</ele>
        <time>2018-04-21T14:02:12.000Z</time>
      </trkpt>
      <trkpt lat="40.783237" lon="-3.992086">
        <ele>2079.2</ele>
        <time>2018-04-21T14:02:13.000Z</time>
      </trkpt>
      <trkpt lat="40.783233" lon="-3.9921">
        <ele>2078.9</ele>
        <time>2018-04-21T14:02:14.000Z</time>
      </trkpt>
      <trkpt lat="40.783229" lon="-3.992115">
        <ele>2078.5</ele>
        <time>2018-04-21T14:02:15.000Z</time>
      </trkpt>
      <trkpt lat="40.783225" lon="-3.992129">
        <ele>2078.2</ele>
        <time>2018-04-21T14:02:16.000Z</time>
      </trkpt>
      <trkpt lat="40.783221" lon="-3.992142">
        <ele>2077.9</ele>
        <time>2018-04-21T14:02:17.000Z</time>
      </trkpt>
      <trkpt lat="40.783218" lon="-3.992154">
        <ele>2077.6</ele>
        <time>2018-04-21T14:02:18.000Z</time>
      </trkpt>
      <trkpt lat="40.783215" lon="-3.992165">
        <ele>2077.3</ele>
        <time>2018-04-21T14:02:19.000Z</time>
      </trkpt>
      <trkpt lat="40.783213" lon="-3.992175">
        <ele>2077.1</ele>
        <time>2018-04-21T14:02:20.000Z</time>
      </trkpt>
      <trkpt lat="40.783212" lon="-3.992183">
        <ele>2077.0</ele>
        <time>2018-04-21T14:02:21.000Z</time>
      </trkpt>
      <trkpt lat="40.783211" lon="-3.992188">
        <ele>2076.9</ele>
        <time>2018-04-21T14:02:22.000Z</time>
      </trkpt>
      <trkpt lat="40.783211" lon="-3.992192">
        <ele>2076.9</ele>
        <time>2018-04-21T14:02:23.000Z</time>
      </trkpt>
      <trkpt lat="40.783212" lon="-3.992193">
        <ele>2076.9</ele>
        <time>2018-04-21T14:02:24.000Z</time>
      </trkpt>
      <trkpt lat="40.783213" lon="-3.992194">
        <ele>2076.9</ele>
        <time>2018-04-21T14:02:25.000Z</time>
      </trkpt>
      <trkpt lat="40.783215" lon="-3.992193">
        <ele>2077.0</ele>
        <time>2018-04-21T14:02:26.000Z</time>
      </trkpt>
      <trkpt lat="40.783216" lon="-3.992192">
        <ele>2077.1</ele>
        <time>2018-04-21T14:02:27.000Z</time>
      </trkpt>
      <trkpt lat="40.783218" lon="-3.992192">
        <ele>2077.2</ele>
        <time>2018-04-21T14:02:28.000Z</time>
      </trkpt>
      <trkpt lat="40.783219" lon="-3.992193">
        <ele>2077.2</ele>
        <time>2018-04-21T14:02:29.000Z</time>
      </trkpt>
      <trkpt lat="40.78322" lon="-3.992195">
        <ele>2077.3</ele>
        <time>2018-04-21T14:02:30.000Z</time>
      </trkpt>
      <trkpt lat="40.783221" lon="-3.992199">
        <ele>2077.3</ele>
        <time>2018-04-21T14:02:31.000Z</time>
      </trkpt>
      <trkpt lat="40.783222" lon="-3.992203">
        <ele>2077.3</ele>
        <time>2018-04-21T14:02:32.000Z</time>
      </trkpt>
      <trkpt lat="40.783222" lon="-3.992208">
        <ele>2077.2</ele>
        <time>2018-04-21T14:02:33.000Z</time>
      </trkpt>
      <trkpt lat="40.783222" lon="-3.992214">
        <ele>2077.2</ele>
        <time>2018-04-21T14:02:34.000Z</time>
      </trkpt>
      <trkpt lat="40.783222" lon="-3.99222">
        <ele>2077.1</ele>
        <time>2018-04-21T14:02:35.000Z</time>
      </trkpt>
      <trkpt lat="40.783221" lon="-3.992225">
        <ele>2077.0</ele>
        <time>2018-04-21T14:02:36.000Z</time>
      </trkpt>
      <trkpt lat="40.78322" lon="-3.992231">
        <ele>2076.9</ele>
        <time>2018-04-21T14:02:37.000Z</time>
      </trkpt>
      <trkpt lat="40.783219" lon="-3.992236">
        <ele>2076.8</ele>
        <time>2018-04-21T14:02:38.000Z</time>
      </trkpt>
      <trkpt lat="40.783218" lon="-3.992242">
        <ele>2076.7</ele>
        <time>2018-04-21T14:02:39.000Z</time>
      </trkpt>
      <trkpt lat="40.783216" lon="-3.992247">
        <ele>2076.5</ele>
        <time>2018-04-21T14:02:40.000Z</time>
      </trkpt>
      <trkpt lat="40.783214" lon="-3.992253">
        <ele>2076.4</ele>
        <time>2018-04-21T14:02:41.000Z</time>
      </trkpt>
      <trkpt lat="40.783212" lon="-3.99226">
        <ele>2076.2</ele>
        <time>2018-04-21T14:02:42.000Z</time>
      </trkpt>
      <trkpt lat="40.783209" lon="-3.992267">
        <ele>2076.0</ele>
        <time>2018-04-21T14:02:43.000Z</time>
      </trkpt>
      <trkpt lat="40.783207" lon="-3.992275">
        <ele>2075.8</ele>
        <time>2018-04-21T14:02:44.000Z</time>
      </trkpt>
      <trkpt lat="40.783204" lon="-3.992284">
        <ele>2075.6</ele>
        <time>2018-04-21T14:02:45.000Z</time>
      </trkpt>
      <trkpt lat="40.783201" lon="-3.992293">
        <ele>2075.4</ele>
        <time>2018-04-21T14:02:46.000Z</time>
      </trkpt>
      <trkpt lat="40.783198" lon="-3.992304">
        <ele>2075.1</ele>
        <time>2018-04-21T14:02:47.000Z</time>
      </trkpt>
      <trkpt lat="40.783196" lon="-3.992314">
        <ele>2074.9</ele>
        <time>2018-04-21T14:02:48.000Z</time>
      </trkpt>
      <trkpt lat="40.783193" lon="-3.992326">
        <ele>2074.7</ele>
        <time>2018-04-21T14:02:49.000Z</time>
      </trkpt>
      <trkpt lat="40.78319" lon="-3.992338">
        <ele>2074.4</ele>
        <time>2018-04-21T14:02:50.000Z</time>
      </trkpt>
      <trkpt lat="40.783187" lon="-3.992351">
        <ele>2074.2</ele>
        <time>2018-04-21T14:02:51.000Z</time>
      </trkpt>
      <trkpt lat="40.783185" lon="-3.992364">
        <ele>2073.9</ele>
        <time>2018-04-21T14:02:52.000Z</time>
      </trkpt>
      <trkpt lat="40.783182" lon="-3.992377">
        <ele>2073.7</ele>
        <time>2018-04-21T14:02:53.000Z</time>
      </trkpt>
      <trkpt lat="40.78318" lon="-3.992391">
        <ele>2073.4</ele>
        <time>2018-04-21T14:02:54.000Z</time>
      </trkpt>
      <trkpt lat="40.783179" lon="-3.992405">
        <ele>2073.3</ele>
        <time>2018-04-21T14:02:55.000Z</time>
      </trkpt>
      <trkpt lat="40.783177" lon="-3.99242">
        <ele>2073.0</ele>
        <time>2018-04-21T14:02:56.000Z</time>
      </trkpt>
      <trkpt lat="40.783176" lon="-3.992434">
        <ele>2072.8</ele>
        <time>2018-04-21T14:02:57.000Z</time>
      </trkpt>
      <trkpt lat="40.783175" lon="-3.992449">
        <ele>2072.7</ele>
        <time>2018-04-21T14:02:58.000Z</time>
      </trkpt>
      <trkpt lat="40.783175" lon="-3.992464">
        <ele>2072.5</ele>
        <time>2018-04-21T14:02:59.000Z</time>
      </trkpt>
      <trkpt lat="40.783175" lon="-3.99248">
        <ele>2072.4</ele>
        <time>2018-04-21T14:03:00.000Z</time>
      </trkpt>
      <trkpt lat="40.783176" lon="-3.992495">
        <ele>2072.3</ele>
        <time>2018-04-21T14:03:01.000Z</time>
      </trkpt>
      <trkpt lat="40.783176" lon="-3.99251">
        <ele>2072.0</ele>
        <time>2018-04-21T14:03:02.000Z</time>
      </trkpt>
      <trkpt lat="40.783178" lon="-3.992526">
        <ele>2071.9</ele>
        <time>2018-04-21T14:03:03.000Z</time>
      </trkpt>
      <trkpt lat="40.78318" lon="-3.992541">
        <ele>2071.7</ele>
        <time>2018-04-21T14:03:04.000Z</time>
      </trkpt>
      <trkpt lat="40.783182" lon="-3.992556">
        <ele>2071.6</ele>
        <time>2018-04-21T14:03:05.000Z</time>
      </trkpt>
      <trkpt lat="40.783184" lon="-3.992571">
        <ele>2071.4</ele>
        <time>2018-04-21T14:03:06.000Z</time>
      </trkpt>
      <trkpt lat="40.783187" lon="-3.992586">
        <ele>2071.3</ele>
        <time>2018-04-21T14:03:07.000Z</time>
      </trkpt>
      <trkpt lat="40.78319" lon="-3.992601">
        <ele>2071.2</ele>
        <time>2018-04-21T14:03:08.000Z</time>
      </trkpt>
      <trkpt lat="40.783194" lon="-3.992616">
        <ele>2071.1</ele>
        <time>2018-04-21T14:03:09.000Z</time>
      </trkpt>
      <trkpt lat="40.783198" lon="-3.99263">
        <ele>2071.0</ele>
        <time>2018-04-21T14:03:10.000Z</time>
      </trkpt>
      <trkpt lat="40.783202" lon="-3.992644">
        <ele>2071.0</ele>
        <time>2018-04-21T14:03:11.000Z</time>
      </trkpt>
      <trkpt lat="40.783206" lon="-3.992657">
        <ele>2070.9</ele>
        <time>2018-04-21T14:03:12.000Z</time>
      </trkpt>
      <trkpt lat="40.783211" lon="-3.99267">
        <ele>2070.9</ele>
        <time>2018-04-21T14:03:13.000Z</time>
      </trkpt>
      <trkpt lat="40.783216" lon="-3.992683">
        <ele>2070.8</ele>
        <time>2018-04-21T14:03:14.000Z</time>
      </trkpt>
      <trkpt lat="40.783221" lon="-3.992695">
        <ele>2070.8</ele>
        <time>2018-04-21T14:03:15.000Z</time>
      </trkpt>
      <trkpt lat="40.783227" lon="-3.992707">
        <ele>2070.8</ele>
        <time>2018-04-21T14:03:16.000Z</time>
      </trkpt>
      <trkpt lat="40.783232" lon="-3.992719">
        <ele>2070.8</ele>
        <time>2018-04-21T14:03:17.000Z</time>
      </trkpt>
      <trkpt lat="40.783238" lon="-3.99273">
        <ele>2070.9</ele>
        <time>2018-04-21T14:03:18.000Z</time>
      </trkpt>
      <trkpt lat="40.783243" lon="-3.992741">
        <ele>2070.8</ele>
        <time>2018-04-21T14:03:19.000Z</time>
      </trkpt>
      <trkpt lat="40.783249" lon="-3.992752">
        <ele>2070.9</ele>
        <time>2018-04-21T14:03:20.000Z</time>
      </trkpt>
      <trkpt lat="40.783254" lon="-3.992763">
        <ele>2070.8</ele>
        <time>2018-04-21T14:03:21.000Z</time>
      </trkpt>
      <trkpt lat="40.78326" lon="-3.992773">
        <ele>2070.9</ele>
        <time>2018-04-21T14:03:22.000Z</time>
      </trkpt>
      <trkpt lat="40.783265" lon="-3.992783">
        <ele>2070.9</ele>
        <time>2018-04-21T14:03:23.000Z</time>
      </trkpt>
      <trkpt lat="40.783269" lon="-3.992792">
        <ele>2070.8</ele>
        <time>2018-04-21T14:03:24.000Z</time>
      </trkpt>
      <trkpt lat="40.783274" lon="-3.992802">
        <ele>2070.8</ele>
        <time>2018-04-21T14:03:25.000Z</time>
      </trkpt>
      <trkpt lat="40.783278" lon="-3.992811">
        <ele>2070.8</ele>
        <time>2018-04-21T14:03:26.000Z</time>
      </trkpt>
      <trkpt lat="40.783282" lon="-3.99282">
        <ele>2070.8</ele>
        <time>2018-04-21T14:03:27.000Z</time>
      </trkpt>
      <trkpt lat="40.783285" lon="-3.992829">
        <ele>2070.7</ele>
        <time>2018-04-21T14:03:28.000Z</time>
      </trkpt>
      <trkpt lat="40.783288" lon="-3.992838">
        <ele>2070.6</ele>
        <time>2018-04-21T14:03:29.000Z</time>
      </trkpt>
      <trkpt lat="40.783291" lon="-3.992847">
        <ele>2070.5</ele>
        <time>2018-04-21T14:03:30.000Z</time>
      </trkpt>
      <trkpt lat="40.783293" lon="-3.992856">
        <ele>2070.4</ele>
        <time>2018-04-21T14:03:31.000Z</time>
      </trkpt>
      <trkpt lat="40.783295" lon="-3.992865">
        <ele>2070.3</ele>
        <time>2018-04-21T14:03:32.000Z</time>
      </trkpt>
      <trkpt lat="40.783296" lon="-3.992875">
        <ele>2070.2</ele>
        <time>2018-04-21T14:03:33.000Z</time>
      </trkpt>
      <trkpt lat="40.783297" lon="-3.992886">
        <ele>2070.0</ele>
        <time>2018-04-21T14:03:34.000Z</time>
      </trkpt>
      <trkpt lat="40.783297" lon="-3.992898">
        <ele>2069.7</ele>
        <time>2018-04-21T14:03:35.000Z</time>
      </trkpt>
      <trkpt lat="40.783298" lon="-3.99291">
        <ele>2069.5</ele>
        <time>2018-04-21T14:03:36.000Z</time>
      </trkpt>
      <trkpt lat="40.783297" lon="-3.992923">
        <ele>2069.3</ele>
        <time>2018-04-21T14:03:37.000Z</time>
      </trkpt>
      <trkpt lat="40.783296" lon="-3.992935">
        <ele>2069.0</ele>
        <time>2018-04-21T14:03:38.000Z</time>
      </trkpt>
      <trkpt lat="40.783294" lon="-3.992947">
        <ele>2068.7</ele>
        <time>2018-04-21T14:03:39.000Z</time>
      </trkpt>
      <trkpt lat="40.783291" lon="-3.992958">
        <ele>2068.4</ele>
        <time>2018-04-21T14:03:40.000Z</time>
      </trkpt>
      <trkpt lat="40.783287" lon="-3.992967">
        <ele>2068.1</ele>
        <time>2018-04-21T14:03:41.000Z</time>
      </trkpt>
      <trkpt lat="40.783281" lon="-3.992974">
        <ele>2067.8</ele>
        <time>2018-04-21T14:03:42.000Z</time>
      </trkpt>
      <trkpt lat="40.783274" lon="-3.992979">
        <ele>2067.5</ele>
        <time>2018-04-21T14:03:43.000Z</time>
      </trkpt>
      <trkpt lat="40.783265" lon="-3.992981">
        <ele>2067.2</ele>
        <time>2018-04-21T14:03:44.000Z</time>
      </trkpt>
      <trkpt lat="40.783256" lon="-3.992982">
        <ele>2067.0</ele>
        <time>2018-04-21T14:03:45.000Z</time>
      </trkpt>
      <trkpt lat="40.783245" lon="-3.992981">
        <ele>2066.7</ele>
        <time>2018-04-21T14:03:46.000Z</time>
      </trkpt>
      <trkpt lat="40.783234" lon="-3.992979">
        <ele>2066.4</ele>
        <time>2018-04-21T14:03:47.000Z</time>
      </trkpt>
      <trkpt lat="40.783222" lon="-3.992977">
        <ele>2066.1</ele>
        <time>2018-04-21T14:03:48.000Z</time>
      </trkpt>
      <trkpt lat="40.78321" lon="-3.992975">
        <ele>2065.8</ele>
        <time>2018-04-21T14:03:49.000Z</time>
      </trkpt>
      <trkpt lat="40.783198" lon="-3.992973">
        <ele>2065.4</ele>
        <time>2018-04-21T14:03:50.000Z</time>
      </trkpt>
      <trkpt lat="40.783185" lon="-3.992972">
        <ele>2065.1</ele>
        <time>2018-04-21T14:03:51.000Z</time>
      </trkpt>
      <trkpt lat="40.783173" lon="-3.992971">
        <ele>2064.7</ele>
        <time>2018-04-21T14:03:52.000Z</time>
      </trkpt>
      <trkpt lat="40.783161" lon="-3.992971">
        <ele>2064.4</ele>
        <time>2018-04-21T14:03:53.000Z</time>
      </trkpt>
      <trkpt lat="40.783149" lon="-3.992972">
        <ele>2064.0</ele>
        <time>2018-04-21T14:03:54.000Z</time>
      </trkpt>
      <trkpt lat="40.783137" lon="-3.992973">
        <ele>2063.7</ele>
        <time>2018-04-21T14:03:55.000Z</time>
      </trkpt>
      <trkpt lat="40.783125" lon="-3.992974">
        <ele>2063.3</ele>
        <time>2018-04-21T14:03:56.000Z</time>
      </trkpt>
      <trkpt lat="40.783113" lon="-3.992976">
        <ele>2062.9</ele>
        <time>2018-04-21T14:03:57.000Z</time>
      </trkpt>
      <trkpt lat="40.783102" lon="-3.992977">
        <ele>2062.6</ele>
        <time>2018-04-21T14:03:58.000Z</time>
      </trkpt>
      <trkpt lat="40.783091" lon="-3.992979">
        <ele>2062.3</ele>
        <time>2018-04-21T14:03:59.000Z</time>
      </trkpt>
      <trkpt lat="40.78308" lon="-3.992981">
        <ele>2061.9</ele>
        <time>2018-04-21T14:04:00.000Z</time>
      </trkpt>
      <trkpt lat="40.783069" lon="-3.992983">
        <ele>2061.6</ele>
        <time>2018-04-21T14:04:01.000Z</time>
      </trkpt>
      <trkpt lat="40.783059" lon="-3.992985">
        <ele>2061.3</ele>
        <time>2018-04-21T14:04:02.000Z</time>
      </trkpt>
      <trkpt lat="40.783048" lon="-3.992987">
        <ele>2060.9</ele>
        <time>2018-04-21T14:04:03.000Z</time>
      </trkpt>
      <trkpt lat="40.783038" lon="-3.992989">
        <ele>2060.6</ele>
        <time>2018-04-21T14:04:04.000Z</time>
      </trkpt>
      <trkpt lat="40.783027" lon="-3.992992">
        <ele>2060.3</ele>
        <time>2018-04-21T14:04:05.000Z</time>
      </trkpt>
      <trkpt lat="40.783017" lon="-3.992995">
        <ele>2060.0</ele>
        <time>2018-04-21T14:04:06.000Z</time>
      </trkpt>
      <trkpt lat="40.783007" lon="-3.992998">
        <ele>2059.7</ele>
        <time>2018-04-21T14:04:07.000Z</time>
      </trkpt>
      <trkpt lat="40.782996" lon="-3.993001">
        <ele>2059.3</ele>
        <time>2018-04-21T14:04:08.000Z</time>
      </trkpt>
      <trkpt lat="40.782986" lon="-3.993005">
        <ele>2059.0</ele>
        <time>2018-04-21T14:04:09.000Z</time>
      </trkpt>
      <trkpt lat="40.782975" lon="-3.993009">
        <ele>2058.7</ele>
        <time>2018-04-21T14:04:10.000Z</time>
      </trkpt>
      <trkpt lat="40.782964" lon="-3.993014">
        <ele>2058.3</ele>
        <time>2018-04-21T14:04:11.000Z</time>
      </trkpt>
      <trkpt lat="40.782953" lon="-3.993018">
        <ele>2058.0</ele>
        <time>2018-04-21T14:04:12.000Z</time>
      </trkpt>
      <trkpt lat="40.782942" lon="-3.993024">
        <ele>2057.6</ele>
        <time>2018-04-21T14:04:13.000Z</time>
      </trkpt>
      <trkpt lat="40.782931" lon="-3.993029">
        <ele>2057.3</ele>
        <time>2018-04-21T14:04:14.000Z</time>
      </trkpt>
      <trkpt lat="40.782919" lon="-3.993035">
        <ele>2056.9</ele>
        <time>2018-04-21T14:04:15.000Z</time>
      </trkpt>
      <trkpt lat="40.782908" lon="-3.993042">
        <ele>2056.5</ele>
        <time>2018-04-21T14:04:16.000Z</time>
      </trkpt>
      <trkpt lat="40.782897" lon="-3.993049">
        <ele>2056.2</ele>
        <time>2018-04-21T14:04:17.000Z</time>
      </trkpt>
      <trkpt lat="40.782886" lon="-3.993057">
        <ele>2055.8</ele>
        <time>2018-04-21T14:04:18.000Z</time>
      </trkpt>
      <trkpt lat="40.782875" lon="-3.993066">
        <ele>2055.5</ele>
        <time>2018-04-21T14:04:19.000Z</time>
      </trkpt>
      <trkpt lat="40.782865" lon="-3.993076">
        <ele>2055.2</ele>
        <time>2018-04-21T14:04:20.000Z</time>
      </trkpt>
      <trkpt lat="40.782855" lon="-3.993086">
        <ele>2054.9</ele>
        <time>2018-04-21T14:04:21.000Z</time>
      </trkpt>
      <trkpt lat="40.782845" lon="-3.993097">
        <ele>2054.5</ele>
        <time>2018-04-21T14:04:22.000Z</time>
      </trkpt>
      <trkpt lat="40.782836" lon="-3.993109">
        <ele>2054.3</ele>
        <time>2018-04-21T14:04:23.000Z</time>
      </trkpt>
      <trkpt lat="40.782827" lon="-3.993122">
        <ele>2054.0</ele>
        <time>2018-04-21T14:04:24.000Z</time>
      </trkpt>
      <trkpt lat="40.782818" lon="-3.993136">
        <ele>2053.7</ele>
        <time>2018-04-21T14:04:25.000Z</time>
      </trkpt>
      <trkpt lat="40.782811" lon="-3.993151">
        <ele>2053.4</ele>
        <time>2018-04-21T14:04:26.000Z</time>
      </trkpt>
      <trkpt lat="40.782804" lon="-3.993167">
        <ele>2053.2</ele>
        <time>2018-04-21T14:04:27.000Z</time>
      </trkpt>
      <trkpt lat="40.782797" lon="-3.993184">
        <ele>2053.0</ele>
        <time>2018-04-21T14:04:28.000Z</time>
      </trkpt>
      <trkpt lat="40.782792" lon="-3.993202">
        <ele>2052.8</ele>
        <time>2018-04-21T14:04:29.000Z</time>
      </trkpt>
      <trkpt lat="40.782787" lon="-3.993221">
        <ele>2052.6</ele>
        <time>2018-04-21T14:04:30.000Z</time>
      </trkpt>
      <trkpt lat="40.782782" lon="-3.99324">
        <ele>2052.4</ele>
        <time>2018-04-21T14:04:31.000Z</time>
      </trkpt>
      <trkpt lat="40.782779" lon="-3.993259">
        <ele>2052.3</ele>
        <time>2018-04-21T14:04:32.000Z</time>
      </trkpt>
      <trkpt lat="40.782776" lon="-3.993279">
        <ele>2052.2</ele>
        <time>2018-04-21T14:04:33.000Z</time>
      </trkpt>
      <trkpt lat="40.782774" lon="-3.993299">
        <ele>2052.1</ele>
        <time>2018-04-21T14:04:34.000Z</time>
      </trkpt>
      <trkpt lat="40.782773" lon="-3.993319">
        <ele>2052.0</ele>
        <time>2018-04-21T14:04:35.000Z</time>
      </trkpt>
      <trkpt lat="40.782772" lon="-3.993339">
        <ele>2051.8</ele>
        <time>2018-04-21T14:04:36.000Z</time>
      </trkpt>
      <trkpt lat="40.782773" lon="-3.993359">
        <ele>2051.5</ele>
        <time>2018-04-21T14:04:37.000Z</time>
      </trkpt>
      <trkpt lat="40.782774" lon="-3.993378">
        <ele>2051.3</ele>
        <time>2018-04-21T14:04:38.000Z</time>
      </trkpt>
      <trkpt lat="40.782776" lon="-3.993396">
        <ele>2051.0</ele>
        <time>2018-04-21T14:04:39.000Z</time>
      </trkpt>
      <trkpt lat="40.782779" lon="-3.993414">
        <ele>2050.8</ele>
        <time>2018-04-21T14:04:40.000Z</time>
      </trkpt>
      <trkpt lat="40.782783" lon="-3.993432">
        <ele>2050.6</ele>
        <time>2018-04-21T14:04:41.000Z</time>
      </trkpt>
      <trkpt lat="40.782787" lon="-3.993448">
        <ele>2050.4</ele>
        <time>2018-04-21T14:04:42.000Z</time>
      </trkpt>
      <trkpt lat="40.782792" lon="-3.993464">
        <ele>2050.2</ele>
        <time>2018-04-21T14:04:43.000Z</time>
      </trkpt>
      <trkpt lat="40.782798" lon="-3.993479">
        <ele>2050.1</ele>
        <time>2018-04-21T14:04:44.000Z</time>
      </trkpt>
      <trkpt lat="40.782805" lon="-3.993493">
        <ele>2050.0</ele>
        <time>2018-04-21T14:04:45.000Z</time>
      </trkpt>
      <trkpt lat="40.782812" lon="-3.993507">
        <ele>2049.8</ele>
        <time>2018-04-21T14:04:46.000Z</time>
      </trkpt>
      <trkpt lat="40.78282" lon="-3.99352">
        <ele>2049.7</ele>
        <time>2018-04-21T14:04:47.000Z</time>
      </trkpt>
      <trkpt lat="40.782828" lon="-3.993533">
        <ele>2049.6</ele>
        <time>2018-04-21T14:04:48.000Z</time>
      </trkpt>
      <trkpt lat="40.782837" lon="-3.993546">
        <ele>2049.5</ele>
        <time>2018-04-21T14:04:49.000Z</time>
      </trkpt>
      <trkpt lat="40.782846" lon="-3.993558">
        <ele>2049.4</ele>
        <time>2018-04-21T14:04:50.000Z</time>
      </trkpt>
      <trkpt lat="40.782855" lon="-3.993569">
        <ele>2049.4</ele>
        <time>2018-04-21T14:04:51.000Z</time>
      </trkpt>
      <trkpt lat="40.782865" lon="-3.993581">
        <ele>2049.3</ele>
        <time>2018-04-21T14:04:52.000Z</time>
      </trkpt>
      <trkpt lat="40.782874" lon="-3.993592">
        <ele>2049.2</ele>
        <time>2018-04-21T14:04:53.000Z</time>
      </trkpt>
      <trkpt lat="40.782884" lon="-3.993603">
        <ele>2049.1</ele>
        <time>2018-04-21T14:04:54.000Z</time>
      </trkpt>
      <trkpt lat="40.782894" lon="-3.993614">
        <ele>2049.0</ele>
        <time>2018-04-21T14:04:55.000Z</time>
      </trkpt>
      <trkpt lat="40.782904" lon="-3.993625">
        <ele>2048.9</ele>
        <time>2018-04-21T14:04:56.000Z</time>
      </trkpt>
      <trkpt lat="40.782914" lon="-3.993636">
        <ele>2048.8</ele>
        <time>2018-04-21T14:04:57.000Z</time>
      </trkpt>
      <trkpt lat="40.782923" lon="-3.993646">
        <ele>2048.7</ele>
        <time>2018-04-21T14:04:58.000Z</time>
      </trkpt>
      <trkpt lat="40.782933" lon="-3.993655">
        <ele>2048.7</ele>
        <time>2018-04-21T14:04:59.000Z</time>
      </trkpt>
      <trkpt lat="40.782941" lon="-3.993664">
        <ele>2048.6</ele>
        <time>2018-04-21T14:05:00.000Z</time>
      </trkpt>
      <trkpt lat="40.782949" lon="-3.993671">
        <ele>2048.5</ele>
        <time>2018-04-21T14:05:01.000Z</time>
      </trkpt>
      <trkpt lat="40.782956" lon="-3.993677">
        <ele>2048.5</ele>
        <time>2018-04-21T14:05:02.000Z</time>
      </trkpt>
      <trkpt lat="40.782962" lon="-3.993681">
        <ele>2048.5</ele>
        <time>2018-04-21T14:05:03.000Z</time>
      </trkpt>
      <trkpt lat="40.782967" lon="-3.993684">
        <ele>2048.5</ele>
        <time>2018-04-21T14:05:04.000Z</time>
      </trkpt>
      <trkpt lat="40.782972" lon="-3.993687">
        <ele>2048.4</ele>
        <time>2018-04-21T14:05:05.000Z</time>
      </trkpt>
      <trkpt lat="40.782977" lon="-3.993688">
        <ele>2048.5</ele>
        <time>2018-04-21T14:05:06.000Z</time>
      </trkpt>
      <trkpt lat="40.782981" lon="-3.99369">
        <ele>2048.5</ele>
        <time>2018-04-21T14:05:07.000Z</time>
      </trkpt>
      <trkpt lat="40.782986" lon="-3.993691">
        <ele>2048.5</ele>
        <time>2018-04-21T14:05:08.000Z</time>
      </trkpt>
      <trkpt lat="40.782991" lon="-3.993692">
        <ele>2048.5</ele>
        <time>2018-04-21T14:05:09.000Z</time>
      </trkpt>
      <trkpt lat="40.782996" lon="-3.993695">
        <ele>2048.5</ele>
        <time>2018-04-21T14:05:10.000Z</time>
      </trkpt>
      <trkpt lat="40.783002" lon="-3.993697">
        <ele>2048.5</ele>
        <time>2018-04-21T14:05:11.000Z</time>
      </trkpt>
      <trkpt lat="40.783008" lon="-3.9937">
        <ele>2048.5</ele>
        <time>2018-04-21T14:05:12.000Z</time>
      </trkpt>
      <trkpt lat="40.783015" lon="-3.993704">
        <ele>2048.5</ele>
        <time>2018-04-21T14:05:13.000Z</time>
      </trkpt>
      <trkpt lat="40.783023" lon="-3.993708">
        <ele>2048.5</ele>
        <time>2018-04-21T14:05:14.000Z</time>
      </trkpt>
      <trkpt lat="40.78303" lon="-3.993712">
        <ele>2048.4</ele>
        <time>2018-04-21T14:05:15.000Z</time>
      </trkpt>
      <trkpt lat="40.783038" lon="-3.993717">
        <ele>2048.4</ele>
        <time>2018-04-21T14:05:16.000Z</time>
      </trkpt>
      <trkpt lat="40.783045" lon="-3.993722">
        <ele>2048.4</ele>
        <time>2018-04-21T14:05:17.000Z</time>
      </trkpt>
      <trkpt lat="40.783053" lon="-3.993727">
        <ele>2048.3</ele>
        <time>2018-04-21T14:05:18.000Z</time>
      </trkpt>
      <trkpt lat="40.783061" lon="-3.993732">
        <ele>2048.3</ele>
        <time>2018-04-21T14:05:19.000Z</time>
      </trkpt>
      <trkpt lat="40.783068" lon="-3.993737">
        <ele>2048.2</ele>
        <time>2018-04-21T14:05:20.000Z</time>
      </trkpt>
      <trkpt lat="40.783075" lon="-3.993743">
        <ele>2048.1</ele>
        <time>2018-04-21T14:05:21.000Z</time>
      </trkpt>
      <trkpt lat="40.783082" lon="-3.993748">
        <ele>2048.1</ele>
        <time>2018-04-21T14:05:22.000Z</time>
      </trkpt>
      <trkpt lat="40.783089" lon="-3.993754">
        <ele>2048.0</ele>
        <time>2018-04-21T14:05:23.000Z</time>
      </trkpt>
      <trkpt lat="40.783095" lon="-3.993759">
        <ele>2047.9</ele>
        <time>2018-04-21T14:05:24.000Z</time>
      </trkpt>
      <trkpt lat="40.783101" lon="-3.993764">
        <ele>2047.9</ele>
        <time>2018-04-21T14:05:25.000Z</time>
      </trkpt>
      <trkpt lat="40.783107" lon="-3.99377">
        <ele>2047.8</ele>
        <time>2018-04-21T14:05:26.000Z</time>
      </trkpt>
      <trkpt lat="40.783112" lon="-3.993775">
        <ele>2047.7</ele>
        <time>2018-04-21T14:05:27.000Z</time>
      </trkpt>
      <trkpt lat="40.783118" lon="-3.99378">
        <ele>2047.6</ele>
        <time>2018-04-21T14:05:28.000Z</time>
      </trkpt>
      <trkpt lat="40.783124" lon="-3.993785">
        <ele>2047.5</ele>
        <time>2018-04-21T14:05:29.000Z</time>
      </trkpt>
      <trkpt lat="40.783131" lon="-3.99379">
        <ele>2047.5</ele>
        <time>2018-04-21T14:05:30.000Z</time>
      </trkpt>
      <trkpt lat="40.783138" lon="-3.993794">
        <ele>2047.4</ele>
        <time>2018-04-21T14:05:31.000Z</time>
      </trkpt>
      <trkpt lat="40.783147" lon="-3.993799">
        <ele>2047.4</ele>
        <time>2018-04-21T14:05:32.000Z</time>
      </trkpt>
      <trkpt lat="40.783156" lon="-3.993804">
        <ele>2047.3</ele>
        <time>2018-04-21T14:05:33.000Z</time>
      </trkpt>
      <trkpt lat="40.783167" lon="-3.993808">
        <ele>2047.3</ele>
        <time>2018-04-21T14:05:34.000Z</time>
      </trkpt>
      <trkpt lat="40.783178" lon="-3.993813">
        <ele>2047.2</ele>
        <time>2018-04-21T14:05:35.000Z</time>
      </trkpt>
      <trkpt lat="40.783188" lon="-3.993817">
        <ele>2047.2</ele>
        <time>2018-04-21T14:05:36.000Z</time>
      </trkpt>
      <trkpt lat="40.783197" lon="-3.99382">
        <ele>2047.2</ele>
        <time>2018-04-21T14:05:37.000Z</time>
      </trkpt>
      <trkpt lat="40.783205" lon="-3.993823">
        <ele>2047.1</ele>
        <time>2018-04-21T14:05:38.000Z</time>
      </trkpt>
      <trkpt lat="40.783211" lon="-3.993825">
        <ele>2047.1</ele>
        <time>2018-04-21T14:05:39.000Z</time>
      </trkpt>
      <trkpt lat="40.783215" lon="-3.993826">
        <ele>2047.1</ele>
        <time>2018-04-21T14:05:40.000Z</time>
      </trkpt>
      <trkpt lat="40.783217" lon="-3.993827">
        <ele>2047.1</ele>
        <time>2018-04-21T14:05:41.000Z</time>
      </trkpt>
      <trkpt lat="40.783218" lon="-3.993827">
        <ele>2047.1</ele>
        <time>2018-04-21T14:05:42.000Z</time>
      </trkpt>
      <trkpt lat="40.783218" lon="-3.993826">
        <ele>2047.1</ele>
        <time>2018-04-21T14:05:43.000Z</time>
      </trkpt>
      <trkpt lat="40.783219" lon="-3.993825">
        <ele>2047.2</ele>
        <time>2018-04-21T14:05:44.000Z</time>
      </trkpt>
      <trkpt lat="40.78322" lon="-3.993825">
        <ele>2047.2</ele>
        <time>2018-04-21T14:05:45.000Z</time>
      </trkpt>
      <trkpt lat="40.783224" lon="-3.993824">
        <ele>2047.2</ele>
        <time>2018-04-21T14:05:46.000Z</time>
      </trkpt>
      <trkpt lat="40.78323" lon="-3.993823">
        <ele>2047.3</ele>
        <time>2018-04-21T14:05:47.000Z</time>
      </trkpt>
      <trkpt lat="40.783239" lon="-3.993823">
        <ele>2047.3</ele>
        <time>2018-04-21T14:05:48.000Z</time>
      </trkpt>
      <trkpt lat="40.78325" lon="-3.993824">
        <ele>2047.4</ele>
        <time>2018-04-21T14:05:49.000Z</time>
      </trkpt>
      <trkpt lat="40.783261" lon="-3.993825">
        <ele>2047.4</ele>
        <time>2018-04-21T14:05:50.000Z</time>
      </trkpt>
      <trkpt lat="40.78327" lon="-3.993828">
        <ele>2047.4</ele>
        <time>2018-04-21T14:05:51.000Z</time>
      </trkpt>
      <trkpt lat="40.783277" lon="-3.993832">
        <ele>2047.3</ele>
        <time>2018-04-21T14:05:52.000Z</time>
      </trkpt>
      <trkpt lat="40.783283" lon="-3.993837">
        <ele>2047.2</ele>
        <time>2018-04-21T14:05:53.000Z</time>
      </trkpt>
      <trkpt lat="40.783288" lon="-3.993843">
        <ele>2047.1</ele>
        <time>2018-04-21T14:05:54.000Z</time>
      </trkpt>
      <trkpt lat="40.783294" lon="-3.993849">
        <ele>2046.9</ele>
        <time>2018-04-21T14:05:55.000Z</time>
      </trkpt>
      <trkpt lat="40.783301" lon="-3.993855">
        <ele>2046.8</ele>
        <time>2018-04-21T14:05:56.000Z</time>
      </trkpt>
      <trkpt lat="40.783309" lon="-3.993861">
        <ele>2046.7</ele>
        <time>2018-04-21T14:05:57.000Z</time>
      </trkpt>
      <trkpt lat="40.783318" lon="-3.993868">
        <ele>2046.5</ele>
        <time>2018-04-21T14:05:58.000Z</time>
      </trkpt>
      <trkpt lat="40.783328" lon="-3.993874">
        <ele>2046.4</ele>
        <time>2018-04-21T14:05:59.000Z</time>
      </trkpt>
      <trkpt lat="40.783338" lon="-3.993879">
        <ele>2046.3</ele>
        <time>2018-04-21T14:06:00.000Z</time>
      </trkpt>
      <trkpt lat="40.783348" lon="-3.993885">
        <ele>2046.1</ele>
        <time>2018-04-21T14:06:01.000Z</time>
      </trkpt>
      <trkpt lat="40.783358" lon="-3.99389">
        <ele>2046.0</ele>
        <time>2018-04-21T14:06:02.000Z</time>
      </trkpt>
      <trkpt lat="40.783369" lon="-3.993895">
        <ele>2045.8</ele>
        <time>2018-04-21T14:06:03.000Z</time>
      </trkpt>
      <trkpt lat="40.783379" lon="-3.9939">
        <ele>2045.7</ele>
        <time>2018-04-21T14:06:04.000Z</time>
      </trkpt>
      <trkpt lat="40.78339" lon="-3.993904">
        <ele>2045.6</ele>
        <time>2018-04-21T14:06:05.000Z</time>
      </trkpt>
      <trkpt lat="40.783401" lon="-3.993908">
        <ele>2045.5</ele>
        <time>2018-04-21T14:06:06.000Z</time>
      </trkpt>
      <trkpt lat="40.783411" lon="-3.993912">
        <ele>2045.4</ele>
        <time>2018-04-21T14:06:07.000Z</time>
      </trkpt>
      <trkpt lat="40.783422" lon="-3.993916">
        <ele>2045.3</ele>
        <time>2018-04-21T14:06:08.000Z</time>
      </trkpt>
      <trkpt lat="40.783432" lon="-3.993919">
        <ele>2045.2</ele>
        <time>2018-04-21T14:06:09.000Z</time>
      </trkpt>
      <trkpt lat="40.783442" lon="-3.993922">
        <ele>2045.1</ele>
        <time>2018-04-21T14:06:10.000Z</time>
      </trkpt>
      <trkpt lat="40.783452" lon="-3.993925">
        <ele>2045.0</ele>
        <time>2018-04-21T14:06:11.000Z</time>
      </trkpt>
      <trkpt lat="40.783462" lon="-3.993927">
        <ele>2045.0</ele>
        <time>2018-04-21T14:06:12.000Z</time>
      </trkpt>
      <trkpt lat="40.783472" lon="-3.99393">
        <ele>2044.9</ele>
        <time>2018-04-21T14:06:13.000Z</time>
      </trkpt>
      <trkpt lat="40.783482" lon="-3.993932">
        <ele>2044.8</ele>
        <time>2018-04-21T14:06:14.000Z</time>
      </trkpt>
      <trkpt lat="40.783492" lon="-3.993934">
        <ele>2044.8</ele>
        <time>2018-04-21T14:06:15.000Z</time>
      </trkpt>
      <trkpt lat="40.783502" lon="-3.993937">
        <ele>2044.7</ele>
        <time>2018-04-21T14:06:16.000Z</time>
      </trkpt>
      <trkpt lat="40.783512" lon="-3.993939">
        <ele>2044.7</ele>
        <time>2018-04-21T14:06:17.000Z</time>
      </trkpt>
      <trkpt lat="40.783522" lon="-3.993941">
        <ele>2044.6</ele>
        <time>2018-04-21T14:06:18.000Z</time>
      </trkpt>
      <trkpt lat="40.783531" lon="-3.993943">
        <ele>2044.6</ele>
        <time>2018-04-21T14:06:19.000Z</time>
      </trkpt>
      <trkpt lat="40.783541" lon="-3.993945">
        <ele>2044.5</ele>
        <time>2018-04-21T14:06:20.000Z</time>
      </trkpt>
      <trkpt lat="40.783551" lon="-3.993947">
        <ele>2044.4</ele>
        <time>2018-04-21T14:06:21.000Z</time>
      </trkpt>
      <trkpt lat="40.783561" lon="-3.99395">
        <ele>2044.4</ele>
        <time>2018-04-21T14:06:22.000Z</time>
      </trkpt>
      <trkpt lat="40.783572" lon="-3.993952">
        <ele>2044.3</ele>
        <time>2018-04-21T14:06:23.000Z</time>
      </trkpt>
      <trkpt lat="40.783582" lon="-3.993955">
        <ele>2044.2</ele>
        <time>2018-04-21T14:06:24.000Z</time>
      </trkpt>
      <trkpt lat="40.783593" lon="-3.993957">
        <ele>2044.2</ele>
        <time>2018-04-21T14:06:25.000Z</time>
      </trkpt>
      <trkpt lat="40.783603" lon="-3.99396">
        <ele>2044.1</ele>
        <time>2018-04-21T14:06:26.000Z</time>
      </trkpt>
      <trkpt lat="40.783614" lon="-3.993963">
        <ele>2044.0</ele>
        <time>2018-04-21T14:06:27.000Z</time>
      </trkpt>
      <trkpt lat="40.783624" lon="-3.993966">
        <ele>2044.0</ele>
        <time>2018-04-21T14:06:28.000Z</time>
      </trkpt>
      <trkpt lat="40.783635" lon="-3.993969">
        <ele>2043.9</ele>
        <time>2018-04-21T14:06:29.000Z</time>
      </trkpt>
      <trkpt lat="40.783646" lon="-3.993972">
        <ele>2043.8</ele>
        <time>2018-04-21T14:06:30.000Z</time>
      </trkpt>
      <trkpt lat="40.783656" lon="-3.993975">
        <ele>2043.7</ele>
        <time>2018-04-21T14:06:31.000Z</time>
      </trkpt>
      <trkpt lat="40.783667" lon="-3.993978">
        <ele>2043.7</ele>
        <time>2018-04-21T14:06:32.000Z</time>
      </trkpt>
      <trkpt lat="40.783677" lon="-3.993981">
        <ele>2043.6</ele>
        <time>2018-04-21T14:06:33.000Z</time>
      </trkpt>
      <trkpt lat="40.783688" lon="-3.993984">
        <ele>2043.5</ele>
        <time>2018-04-21T14:06:34.000Z</time>
      </trkpt>
      <trkpt lat="40.783698" lon="-3.993987">
        <ele>2043.4</ele>
        <time>2018-04-21T14:06:35.000Z</time>
      </trkpt>
      <trkpt lat="40.783708" lon="-3.993989">
        <ele>2043.4</ele>
        <time>2018-04-21T14:06:36.000Z</time>
      </trkpt>
      <trkpt lat="40.783718" lon="-3.993992">
        <ele>2043.3</ele>
        <time>2018-04-21T14:06:37.000Z</time>
      </trkpt>
      <trkpt lat="40.783728" lon="-3.993994">
        <ele>2043.3</ele>
        <time>2018-04-21T14:06:38.000Z</time>
      </trkpt>
      <trkpt lat="40.783737" lon="-3.993996">
        <ele>2043.2</ele>
        <time>2018-04-21T14:06:39.000Z</time>
      </trkpt>
      <trkpt lat="40.783747" lon="-3.993998">
        <ele>2043.2</ele>
        <time>2018-04-21T14:06:40.000Z</time>
      </trkpt>
      <trkpt lat="40.783756" lon="-3.994">
        <ele>2043.1</ele>
        <time>2018-04-21T14:06:41.000Z</time>
      </trkpt>
      <trkpt lat="40.783765" lon="-3.994001">
        <ele>2043.1</ele>
        <time>2018-04-21T14:06:42.000Z</time>
      </trkpt>
      <trkpt lat="40.783774" lon="-3.994003">
        <ele>2043.0</ele>
        <time>2018-04-21T14:06:43.000Z</time>
      </trkpt>
      <trkpt lat="40.783783" lon="-3.994004">
        <ele>2043.0</ele>
        <time>2018-04-21T14:06:44.000Z</time>
      </trkpt>
      <trkpt lat="40.783792" lon="-3.994005">
        <ele>2043.0</ele>
        <time>2018-04-21T14:06:45.000Z</time>
      </trkpt>
      <trkpt lat="40.7838" lon="-3.994007">
        <ele>2042.9</ele>
        <time>2018-04-21T14:06:46.000Z</time>
      </trkpt>
      <trkpt lat="40.783809" lon="-3.994008">
        <ele>2042.9</ele>
        <time>2018-04-21T14:06:47.000Z</time>
      </trkpt>
      <trkpt lat="40.783817" lon="-3.994009">
        <ele>2042.9</ele>
        <time>2018-04-21T14:06:48.000Z</time>
      </trkpt>
      <trkpt lat="40.783826" lon="-3.99401">
        <ele>2042.9</ele>
        <time>2018-04-21T14:06:49.000Z</time>
      </trkpt>
      <trkpt lat="40.783834" lon="-3.994011">
        <ele>2042.9</ele>
        <time>2018-04-21T14:06:50.000Z</time>
      </trkpt>
      <trkpt lat="40.783842" lon="-3.994012">
        <ele>2042.8</ele>
        <time>2018-04-21T14:06:51.000Z</time>
      </trkpt>
      <trkpt lat="40.783851" lon="-3.994013">
        <ele>2042.8</ele>
        <time>2018-04-21T14:06:52.000Z</time>
      </trkpt>
      <trkpt lat="40.783859" lon="-3.994014">
        <ele>2042.8</ele>
        <time>2018-04-21T14:06:53.000Z</time>
      </trkpt>
      <trkpt lat="40.783868" lon="-3.994015">
        <ele>2042.8</ele>
        <time>2018-04-21T14:06:54.000Z</time>
      </trkpt>
      <trkpt lat="40.783876" lon="-3.994017">
        <ele>2042.7</ele>
        <time>2018-04-21T14:06:55.000Z</time>
      </trkpt>
      <trkpt lat="40.783884" lon="-3.994018">
        <ele>2042.7</ele>
        <time>2018-04-21T14:06:56.000Z</time>
      </trkpt>
      <trkpt lat="40.783893" lon="-3.994019">
        <ele>2042.7</ele>
        <time>2018-04-21T14:06:57.000Z</time>
      </trkpt>
      <trkpt lat="40.783902" lon="-3.994021">
        <ele>2042.6</ele>
        <time>2018-04-21T14:06:58.000Z</time>
      </trkpt>
      <trkpt lat="40.78391" lon="-3.994022">
        <ele>2042.6</ele>
        <time>2018-04-21T14:06:59.000Z</time>
      </trkpt>
      <trkpt lat="40.783919" lon="-3.994024">
        <ele>2042.6</ele>
        <time>2018-04-21T14:07:00.000Z</time>
      </trkpt>
      <trkpt lat="40.783928" lon="-3.994026">
        <ele>2042.5</ele>
        <time>2018-04-21T14:07:01.000Z</time>
      </trkpt>
      <trkpt lat="40.783937" lon="-3.994028">
        <ele>2042.5</ele>
        <time>2018-04-21T14:07:02.000Z</time>
      </trkpt>
      <trkpt lat="40.783946" lon="-3.99403">
        <ele>2042.4</ele>
        <time>2018-04-21T14:07:03.000Z</time>
      </trkpt>
      <trkpt lat="40.783955" lon="-3.994032">
        <ele>2042.4</ele>
        <time>2018-04-21T14:07:04.000Z</time>
      </trkpt>
      <trkpt lat="40.783965" lon="-3.994035">
        <ele>2042.3</ele>
        <time>2018-04-21T14:07:05.000Z</time>
      </trkpt>
      <trkpt lat="40.783975" lon="-3.994038">
        <ele>2042.2</ele>
        <time>2018-04-21T14:07:06.000Z</time>
      </trkpt>
    </trkseg>
  </trk>
</gpx>
